<?xml version='1.0' encoding='UTF-8'?>
<gpx version="1.1" creator="https://www.komoot.de" xmlns="http://www.topografix.com/GPX/1/1" xmlns:xsi="http://www.w3.org/2001/XMLSchema-instance" xsi:schemaLocation="http://www.topografix.com/GPX/1/1 http://www.topografix.com/GPX/1/1/gpx.xsd">
  <metadata>
    <name>Road ride</name>
    <author>
      <link href="https://www.komoot.de">
        <text>komoot</text>
        <type>text/html</type>
      </link>
    </author>
  </metadata>
  <trk>
    <name>Road ride</name>
    <type>racebike</type>
    <trkseg>
      <trkpt lat="22.844308" lon="110.558081">
        <ele>107.628420</ele>
        <time>2026-08-18T01:44:52.000Z</time>
      </trkpt>
      <trkpt lat="22.844308" lon="110.558081">
        <ele>107.628420</ele>
        <time>2026-08-18T01:45:04.000Z</time>
      </trkpt>
      <trkpt lat="22.844290" lon="110.558089">
        <ele>107.628420</ele>
        <time>2026-08-18T01:45:05.000Z</time>
      </trkpt>
      <trkpt lat="22.844272" lon="110.558099">
        <ele>107.628420</ele>
        <time>2026-08-18T01:45:06.000Z</time>
      </trkpt>
      <trkpt lat="22.844252" lon="110.558107">
        <ele>107.628420</ele>
        <time>2026-08-18T01:45:07.000Z</time>
      </trkpt>
      <trkpt lat="22.844236" lon="110.558120">
        <ele>107.628420</ele>
        <time>2026-08-18T01:45:08.000Z</time>
      </trkpt>
      <trkpt lat="22.844214" lon="110.558146">
        <ele>107.628420</ele>
        <time>2026-08-18T01:45:09.000Z</time>
      </trkpt>
      <trkpt lat="22.844197" lon="110.558169">
        <ele>107.628420</ele>
        <time>2026-08-18T01:45:10.000Z</time>
      </trkpt>
      <trkpt lat="22.844186" lon="110.558194">
        <ele>107.628420</ele>
        <time>2026-08-18T01:45:11.000Z</time>
      </trkpt>
      <trkpt lat="22.844179" lon="110.558224">
        <ele>107.628420</ele>
        <time>2026-08-18T01:45:12.000Z</time>
      </trkpt>
      <trkpt lat="22.844179" lon="110.558255">
        <ele>107.628420</ele>
        <time>2026-08-18T01:45:13.000Z</time>
      </trkpt>
      <trkpt lat="22.844183" lon="110.558293">
        <ele>107.628420</ele>
        <time>2026-08-18T01:45:14.000Z</time>
      </trkpt>
      <trkpt lat="22.844189" lon="110.558329">
        <ele>107.628420</ele>
        <time>2026-08-18T01:45:15.000Z</time>
      </trkpt>
      <trkpt lat="22.844197" lon="110.558365">
        <ele>107.628420</ele>
        <time>2026-08-18T01:45:16.000Z</time>
      </trkpt>
      <trkpt lat="22.844206" lon="110.558401">
        <ele>107.628420</ele>
        <time>2026-08-18T01:45:17.000Z</time>
      </trkpt>
      <trkpt lat="22.844217" lon="110.558435">
        <ele>107.628420</ele>
        <time>2026-08-18T01:45:18.000Z</time>
      </trkpt>
      <trkpt lat="22.844228" lon="110.558468">
        <ele>107.628420</ele>
        <time>2026-08-18T01:45:19.000Z</time>
      </trkpt>
      <trkpt lat="22.844237" lon="110.558503">
        <ele>107.628420</ele>
        <time>2026-08-18T01:45:20.000Z</time>
      </trkpt>
      <trkpt lat="22.844238" lon="110.558540">
        <ele>107.628420</ele>
        <time>2026-08-18T01:45:21.000Z</time>
      </trkpt>
      <trkpt lat="22.844245" lon="110.558572">
        <ele>107.628420</ele>
        <time>2026-08-18T01:45:22.000Z</time>
      </trkpt>
      <trkpt lat="22.844252" lon="110.558602">
        <ele>107.628420</ele>
        <time>2026-08-18T01:45:23.000Z</time>
      </trkpt>
      <trkpt lat="22.844263" lon="110.558629">
        <ele>107.628420</ele>
        <time>2026-08-18T01:45:24.000Z</time>
      </trkpt>
      <trkpt lat="22.844270" lon="110.558658">
        <ele>107.628420</ele>
        <time>2026-08-18T01:45:25.000Z</time>
      </trkpt>
      <trkpt lat="22.844277" lon="110.558695">
        <ele>107.628420</ele>
        <time>2026-08-18T01:45:26.000Z</time>
      </trkpt>
      <trkpt lat="22.844285" lon="110.558726">
        <ele>107.628420</ele>
        <time>2026-08-18T01:45:27.000Z</time>
      </trkpt>
      <trkpt lat="22.844289" lon="110.558760">
        <ele>107.628420</ele>
        <time>2026-08-18T01:45:28.000Z</time>
      </trkpt>
      <trkpt lat="22.844294" lon="110.558793">
        <ele>107.628420</ele>
        <time>2026-08-18T01:45:29.000Z</time>
      </trkpt>
      <trkpt lat="22.844301" lon="110.558836">
        <ele>107.628420</ele>
        <time>2026-08-18T01:45:30.000Z</time>
      </trkpt>
      <trkpt lat="22.844310" lon="110.558877">
        <ele>107.628420</ele>
        <time>2026-08-18T01:45:31.000Z</time>
      </trkpt>
      <trkpt lat="22.844318" lon="110.558922">
        <ele>107.628420</ele>
        <time>2026-08-18T01:45:32.000Z</time>
      </trkpt>
      <trkpt lat="22.844325" lon="110.558964">
        <ele>107.628420</ele>
        <time>2026-08-18T01:45:33.000Z</time>
      </trkpt>
      <trkpt lat="22.844334" lon="110.559005">
        <ele>107.611227</ele>
        <time>2026-08-18T01:45:34.000Z</time>
      </trkpt>
      <trkpt lat="22.844345" lon="110.559047">
        <ele>107.591244</ele>
        <time>2026-08-18T01:45:35.000Z</time>
      </trkpt>
      <trkpt lat="22.844352" lon="110.559089">
        <ele>107.571711</ele>
        <time>2026-08-18T01:45:36.000Z</time>
      </trkpt>
      <trkpt lat="22.844365" lon="110.559137">
        <ele>107.548814</ele>
        <time>2026-08-18T01:45:37.000Z</time>
      </trkpt>
      <trkpt lat="22.844379" lon="110.559182">
        <ele>107.527078</ele>
        <time>2026-08-18T01:45:38.000Z</time>
      </trkpt>
      <trkpt lat="22.844387" lon="110.559226">
        <ele>107.506553</ele>
        <time>2026-08-18T01:45:39.000Z</time>
      </trkpt>
      <trkpt lat="22.844397" lon="110.559273">
        <ele>107.484478</ele>
        <time>2026-08-18T01:45:40.000Z</time>
      </trkpt>
      <trkpt lat="22.844405" lon="110.559323">
        <ele>107.461253</ele>
        <time>2026-08-18T01:45:41.000Z</time>
      </trkpt>
      <trkpt lat="22.844417" lon="110.559370">
        <ele>107.438933</ele>
        <time>2026-08-18T01:45:42.000Z</time>
      </trkpt>
      <trkpt lat="22.844425" lon="110.559405">
        <ele>107.422429</ele>
        <time>2026-08-18T01:45:43.000Z</time>
      </trkpt>
      <trkpt lat="22.844437" lon="110.559441">
        <ele>107.404909</ele>
        <time>2026-08-18T01:45:44.000Z</time>
      </trkpt>
      <trkpt lat="22.844447" lon="110.559478">
        <ele>107.387263</ele>
        <time>2026-08-18T01:45:45.000Z</time>
      </trkpt>
      <trkpt lat="22.844456" lon="110.559510">
        <ele>107.371951</ele>
        <time>2026-08-18T01:45:46.000Z</time>
      </trkpt>
      <trkpt lat="22.844465" lon="110.559548">
        <ele>107.353995</ele>
        <time>2026-08-18T01:45:47.000Z</time>
      </trkpt>
      <trkpt lat="22.844480" lon="110.559584">
        <ele>107.335914</ele>
        <time>2026-08-18T01:45:48.000Z</time>
      </trkpt>
      <trkpt lat="22.844493" lon="110.559618">
        <ele>107.319068</ele>
        <time>2026-08-18T01:45:49.000Z</time>
      </trkpt>
      <trkpt lat="22.844507" lon="110.559649">
        <ele>107.303268</ele>
        <time>2026-08-18T01:45:50.000Z</time>
      </trkpt>
      <trkpt lat="22.844525" lon="110.559682">
        <ele>107.285719</ele>
        <time>2026-08-18T01:45:51.000Z</time>
      </trkpt>
      <trkpt lat="22.844543" lon="110.559713">
        <ele>107.268950</ele>
        <time>2026-08-18T01:45:52.000Z</time>
      </trkpt>
      <trkpt lat="22.844557" lon="110.559744">
        <ele>107.253151</ele>
        <time>2026-08-18T01:45:53.000Z</time>
      </trkpt>
      <trkpt lat="22.844568" lon="110.559775">
        <ele>107.237948</ele>
        <time>2026-08-18T01:45:54.000Z</time>
      </trkpt>
      <trkpt lat="22.844583" lon="110.559809">
        <ele>107.220697</ele>
        <time>2026-08-18T01:45:55.000Z</time>
      </trkpt>
      <trkpt lat="22.844594" lon="110.559841">
        <ele>107.205066</ele>
        <time>2026-08-18T01:45:56.000Z</time>
      </trkpt>
      <trkpt lat="22.844598" lon="110.559871">
        <ele>107.191194</ele>
        <time>2026-08-18T01:45:57.000Z</time>
      </trkpt>
      <trkpt lat="22.844599" lon="110.559903">
        <ele>107.176540</ele>
        <time>2026-08-18T01:45:58.000Z</time>
      </trkpt>
      <trkpt lat="22.844597" lon="110.559935">
        <ele>107.161862</ele>
        <time>2026-08-18T01:45:59.000Z</time>
      </trkpt>
      <trkpt lat="22.844592" lon="110.559960">
        <ele>107.150154</ele>
        <time>2026-08-18T01:46:00.000Z</time>
      </trkpt>
      <trkpt lat="22.844585" lon="110.559983">
        <ele>107.139069</ele>
        <time>2026-08-18T01:46:01.000Z</time>
      </trkpt>
      <trkpt lat="22.844580" lon="110.560000">
        <ele>107.130902</ele>
        <time>2026-08-18T01:46:02.000Z</time>
      </trkpt>
      <trkpt lat="22.844574" lon="110.560016">
        <ele>107.122997</ele>
        <time>2026-08-18T01:46:03.000Z</time>
      </trkpt>
      <trkpt lat="22.844574" lon="110.560036">
        <ele>107.113844</ele>
        <time>2026-08-18T01:46:04.000Z</time>
      </trkpt>
      <trkpt lat="22.844580" lon="110.560053">
        <ele>107.105513</ele>
        <time>2026-08-18T01:46:05.000Z</time>
      </trkpt>
      <trkpt lat="22.844588" lon="110.560072">
        <ele>107.095953</ele>
        <time>2026-08-18T01:46:06.000Z</time>
      </trkpt>
      <trkpt lat="22.844594" lon="110.560093">
        <ele>107.085891</ele>
        <time>2026-08-18T01:46:07.000Z</time>
      </trkpt>
      <trkpt lat="22.844596" lon="110.560118">
        <ele>107.074406</ele>
        <time>2026-08-18T01:46:08.000Z</time>
      </trkpt>
      <trkpt lat="22.844601" lon="110.560143">
        <ele>107.062699</ele>
        <time>2026-08-18T01:46:09.000Z</time>
      </trkpt>
      <trkpt lat="22.844614" lon="110.560171">
        <ele>107.048350</ele>
        <time>2026-08-18T01:46:10.000Z</time>
      </trkpt>
      <trkpt lat="22.844627" lon="110.560191">
        <ele>107.037149</ele>
        <time>2026-08-18T01:46:11.000Z</time>
      </trkpt>
      <trkpt lat="22.844646" lon="110.560210">
        <ele>107.024318</ele>
        <time>2026-08-18T01:46:12.000Z</time>
      </trkpt>
      <trkpt lat="22.844664" lon="110.560230">
        <ele>107.011524</ele>
        <time>2026-08-18T01:46:13.000Z</time>
      </trkpt>
      <trkpt lat="22.844688" lon="110.560249">
        <ele>106.996771</ele>
        <time>2026-08-18T01:46:14.000Z</time>
      </trkpt>
      <trkpt lat="22.844713" lon="110.560266">
        <ele>106.982119</ele>
        <time>2026-08-18T01:46:15.000Z</time>
      </trkpt>
      <trkpt lat="22.844744" lon="110.560279">
        <ele>106.965615</ele>
        <time>2026-08-18T01:46:16.000Z</time>
      </trkpt>
      <trkpt lat="22.844781" lon="110.560286">
        <ele>106.946963</ele>
        <time>2026-08-18T01:46:17.000Z</time>
      </trkpt>
      <trkpt lat="22.844816" lon="110.560293">
        <ele>106.929289</ele>
        <time>2026-08-18T01:46:18.000Z</time>
      </trkpt>
      <trkpt lat="22.844855" lon="110.560299">
        <ele>106.909728</ele>
        <time>2026-08-18T01:46:19.000Z</time>
      </trkpt>
      <trkpt lat="22.844895" lon="110.560304">
        <ele>106.889732</ele>
        <time>2026-08-18T01:46:20.000Z</time>
      </trkpt>
      <trkpt lat="22.844937" lon="110.560310">
        <ele>106.868695</ele>
        <time>2026-08-18T01:46:21.000Z</time>
      </trkpt>
      <trkpt lat="22.844978" lon="110.560314">
        <ele>106.848252</ele>
        <time>2026-08-18T01:46:22.000Z</time>
      </trkpt>
      <trkpt lat="22.845025" lon="110.560315">
        <ele>106.824907</ele>
        <time>2026-08-18T01:46:23.000Z</time>
      </trkpt>
      <trkpt lat="22.845070" lon="110.560315">
        <ele>106.802560</ele>
        <time>2026-08-18T01:46:24.000Z</time>
      </trkpt>
      <trkpt lat="22.845118" lon="110.560311">
        <ele>106.778652</ele>
        <time>2026-08-18T01:46:25.000Z</time>
      </trkpt>
      <trkpt lat="22.845164" lon="110.560303">
        <ele>106.755517</ele>
        <time>2026-08-18T01:46:26.000Z</time>
      </trkpt>
      <trkpt lat="22.845210" lon="110.560291">
        <ele>106.741593</ele>
        <time>2026-08-18T01:46:27.000Z</time>
      </trkpt>
      <trkpt lat="22.845256" lon="110.560282">
        <ele>106.788244</ele>
        <time>2026-08-18T01:46:28.000Z</time>
      </trkpt>
      <trkpt lat="22.845303" lon="110.560274">
        <ele>106.835726</ele>
        <time>2026-08-18T01:46:29.000Z</time>
      </trkpt>
      <trkpt lat="22.845347" lon="110.560263">
        <ele>106.880792</ele>
        <time>2026-08-18T01:46:30.000Z</time>
      </trkpt>
      <trkpt lat="22.845391" lon="110.560251">
        <ele>106.926072</ele>
        <time>2026-08-18T01:46:31.000Z</time>
      </trkpt>
      <trkpt lat="22.845434" lon="110.560239">
        <ele>106.970385</ele>
        <time>2026-08-18T01:46:32.000Z</time>
      </trkpt>
      <trkpt lat="22.845479" lon="110.560228">
        <ele>107.016424</ele>
        <time>2026-08-18T01:46:33.000Z</time>
      </trkpt>
      <trkpt lat="22.845521" lon="110.560222">
        <ele>107.058704</ele>
        <time>2026-08-18T01:46:34.000Z</time>
      </trkpt>
      <trkpt lat="22.845563" lon="110.560215">
        <ele>107.101114</ele>
        <time>2026-08-18T01:46:35.000Z</time>
      </trkpt>
      <trkpt lat="22.845609" lon="110.560207">
        <ele>107.147611</ele>
        <time>2026-08-18T01:46:36.000Z</time>
      </trkpt>
      <trkpt lat="22.845655" lon="110.560199">
        <ele>107.194108</ele>
        <time>2026-08-18T01:46:37.000Z</time>
      </trkpt>
      <trkpt lat="22.845699" lon="110.560186">
        <ele>107.239621</ele>
        <time>2026-08-18T01:46:38.000Z</time>
      </trkpt>
      <trkpt lat="22.845738" lon="110.560171">
        <ele>107.280918</ele>
        <time>2026-08-18T01:46:39.000Z</time>
      </trkpt>
      <trkpt lat="22.845780" lon="110.560162">
        <ele>107.323647</ele>
        <time>2026-08-18T01:46:40.000Z</time>
      </trkpt>
      <trkpt lat="22.845821" lon="110.560157">
        <ele>107.364825</ele>
        <time>2026-08-18T01:46:41.000Z</time>
      </trkpt>
      <trkpt lat="22.845867" lon="110.560143">
        <ele>107.412507</ele>
        <time>2026-08-18T01:46:42.000Z</time>
      </trkpt>
      <trkpt lat="22.845911" lon="110.560131">
        <ele>107.457788</ele>
        <time>2026-08-18T01:46:43.000Z</time>
      </trkpt>
      <trkpt lat="22.845952" lon="110.560121">
        <ele>107.499729</ele>
        <time>2026-08-18T01:46:44.000Z</time>
      </trkpt>
      <trkpt lat="22.845993" lon="110.560109">
        <ele>107.542112</ele>
        <time>2026-08-18T01:46:45.000Z</time>
      </trkpt>
      <trkpt lat="22.846035" lon="110.560098">
        <ele>107.585234</ele>
        <time>2026-08-18T01:46:46.000Z</time>
      </trkpt>
      <trkpt lat="22.846074" lon="110.560085">
        <ele>107.625954</ele>
        <time>2026-08-18T01:46:47.000Z</time>
      </trkpt>
      <trkpt lat="22.846115" lon="110.560072">
        <ele>107.668586</ele>
        <time>2026-08-18T01:46:48.000Z</time>
      </trkpt>
      <trkpt lat="22.846160" lon="110.560062">
        <ele>107.714431</ele>
        <time>2026-08-18T01:46:49.000Z</time>
      </trkpt>
      <trkpt lat="22.846201" lon="110.560053">
        <ele>107.756180</ele>
        <time>2026-08-18T01:46:50.000Z</time>
      </trkpt>
      <trkpt lat="22.846240" lon="110.560043">
        <ele>107.796176</ele>
        <time>2026-08-18T01:46:51.000Z</time>
      </trkpt>
      <trkpt lat="22.846280" lon="110.560036">
        <ele>107.836615</ele>
        <time>2026-08-18T01:46:52.000Z</time>
      </trkpt>
      <trkpt lat="22.846321" lon="110.560025">
        <ele>107.878768</ele>
        <time>2026-08-18T01:46:53.000Z</time>
      </trkpt>
      <trkpt lat="22.846362" lon="110.560018">
        <ele>107.920192</ele>
        <time>2026-08-18T01:46:54.000Z</time>
      </trkpt>
      <trkpt lat="22.846405" lon="110.560009">
        <ele>107.963899</ele>
        <time>2026-08-18T01:46:55.000Z</time>
      </trkpt>
      <trkpt lat="22.846444" lon="110.560000">
        <ele>108.003694</ele>
        <time>2026-08-18T01:46:56.000Z</time>
      </trkpt>
      <trkpt lat="22.846482" lon="110.559991">
        <ele>108.042513</ele>
        <time>2026-08-18T01:46:57.000Z</time>
      </trkpt>
      <trkpt lat="22.846521" lon="110.559983">
        <ele>108.082127</ele>
        <time>2026-08-18T01:46:58.000Z</time>
      </trkpt>
      <trkpt lat="22.846559" lon="110.559974">
        <ele>108.120946</ele>
        <time>2026-08-18T01:46:59.000Z</time>
      </trkpt>
      <trkpt lat="22.846598" lon="110.559965">
        <ele>108.160741</ele>
        <time>2026-08-18T01:47:00.000Z</time>
      </trkpt>
      <trkpt lat="22.846638" lon="110.559955">
        <ele>108.201710</ele>
        <time>2026-08-18T01:47:01.000Z</time>
      </trkpt>
      <trkpt lat="22.846677" lon="110.559946">
        <ele>108.241505</ele>
        <time>2026-08-18T01:47:02.000Z</time>
      </trkpt>
      <trkpt lat="22.846715" lon="110.559939">
        <ele>108.279974</ele>
        <time>2026-08-18T01:47:03.000Z</time>
      </trkpt>
      <trkpt lat="22.846753" lon="110.559930">
        <ele>108.318793</ele>
        <time>2026-08-18T01:47:04.000Z</time>
      </trkpt>
      <trkpt lat="22.846792" lon="110.559923">
        <ele>108.358246</ele>
        <time>2026-08-18T01:47:05.000Z</time>
      </trkpt>
      <trkpt lat="22.846831" lon="110.559918">
        <ele>108.397441</ele>
        <time>2026-08-18T01:47:06.000Z</time>
      </trkpt>
      <trkpt lat="22.846866" lon="110.559912">
        <ele>108.432807</ele>
        <time>2026-08-18T01:47:07.000Z</time>
      </trkpt>
      <trkpt lat="22.846901" lon="110.559905">
        <ele>108.468327</ele>
        <time>2026-08-18T01:47:08.000Z</time>
      </trkpt>
      <trkpt lat="22.846938" lon="110.559896">
        <ele>108.506172</ele>
        <time>2026-08-18T01:47:09.000Z</time>
      </trkpt>
      <trkpt lat="22.846975" lon="110.559887">
        <ele>108.554306</ele>
        <time>2026-08-18T01:47:10.000Z</time>
      </trkpt>
      <trkpt lat="22.847014" lon="110.559878">
        <ele>108.624084</ele>
        <time>2026-08-18T01:47:11.000Z</time>
      </trkpt>
      <trkpt lat="22.847050" lon="110.559871">
        <ele>108.688089</ele>
        <time>2026-08-18T01:47:12.000Z</time>
      </trkpt>
      <trkpt lat="22.847087" lon="110.559862">
        <ele>108.754447</ele>
        <time>2026-08-18T01:47:13.000Z</time>
      </trkpt>
      <trkpt lat="22.847124" lon="110.559855">
        <ele>108.820176</ele>
        <time>2026-08-18T01:47:14.000Z</time>
      </trkpt>
      <trkpt lat="22.847162" lon="110.559847">
        <ele>108.887917</ele>
        <time>2026-08-18T01:47:15.000Z</time>
      </trkpt>
      <trkpt lat="22.847200" lon="110.559838">
        <ele>108.955984</ele>
        <time>2026-08-18T01:47:16.000Z</time>
      </trkpt>
      <trkpt lat="22.847239" lon="110.559836">
        <ele>109.024312</ele>
        <time>2026-08-18T01:47:17.000Z</time>
      </trkpt>
      <trkpt lat="22.847273" lon="110.559831">
        <ele>109.084358</ele>
        <time>2026-08-18T01:47:18.000Z</time>
      </trkpt>
      <trkpt lat="22.847306" lon="110.559825">
        <ele>109.142914</ele>
        <time>2026-08-18T01:47:19.000Z</time>
      </trkpt>
      <trkpt lat="22.847341" lon="110.559819">
        <ele>109.204925</ele>
        <time>2026-08-18T01:47:20.000Z</time>
      </trkpt>
      <trkpt lat="22.847379" lon="110.559809">
        <ele>109.273354</ele>
        <time>2026-08-18T01:47:21.000Z</time>
      </trkpt>
      <trkpt lat="22.847416" lon="110.559803">
        <ele>109.338825</ele>
        <time>2026-08-18T01:47:22.000Z</time>
      </trkpt>
      <trkpt lat="22.847453" lon="110.559793">
        <ele>109.405555</ele>
        <time>2026-08-18T01:47:23.000Z</time>
      </trkpt>
      <trkpt lat="22.847490" lon="110.559784">
        <ele>109.471913</ele>
        <time>2026-08-18T01:47:24.000Z</time>
      </trkpt>
      <trkpt lat="22.847528" lon="110.559775">
        <ele>109.539980</ele>
        <time>2026-08-18T01:47:25.000Z</time>
      </trkpt>
      <trkpt lat="22.847566" lon="110.559769">
        <ele>109.607182</ele>
        <time>2026-08-18T01:47:26.000Z</time>
      </trkpt>
      <trkpt lat="22.847603" lon="110.559761">
        <ele>109.673207</ele>
        <time>2026-08-18T01:47:27.000Z</time>
      </trkpt>
      <trkpt lat="22.847639" lon="110.559750">
        <ele>109.738658</ele>
        <time>2026-08-18T01:47:28.000Z</time>
      </trkpt>
      <trkpt lat="22.847677" lon="110.559737">
        <ele>109.808387</ele>
        <time>2026-08-18T01:47:29.000Z</time>
      </trkpt>
      <trkpt lat="22.847714" lon="110.559724">
        <ele>109.876448</ele>
        <time>2026-08-18T01:47:30.000Z</time>
      </trkpt>
      <trkpt lat="22.847752" lon="110.559715">
        <ele>109.944515</ele>
        <time>2026-08-18T01:47:31.000Z</time>
      </trkpt>
      <trkpt lat="22.847790" lon="110.559700">
        <ele>110.015280</ele>
        <time>2026-08-18T01:47:32.000Z</time>
      </trkpt>
      <trkpt lat="22.847826" lon="110.559692">
        <ele>110.079589</ele>
        <time>2026-08-18T01:47:33.000Z</time>
      </trkpt>
      <trkpt lat="22.847865" lon="110.559683">
        <ele>110.149367</ele>
        <time>2026-08-18T01:47:34.000Z</time>
      </trkpt>
      <trkpt lat="22.847904" lon="110.559673">
        <ele>110.219498</ele>
        <time>2026-08-18T01:47:35.000Z</time>
      </trkpt>
      <trkpt lat="22.847942" lon="110.559663">
        <ele>110.287927</ele>
        <time>2026-08-18T01:47:36.000Z</time>
      </trkpt>
      <trkpt lat="22.847981" lon="110.559652">
        <ele>110.358447</ele>
        <time>2026-08-18T01:47:37.000Z</time>
      </trkpt>
      <trkpt lat="22.848022" lon="110.559639">
        <ele>110.433199</ele>
        <time>2026-08-18T01:47:38.000Z</time>
      </trkpt>
      <trkpt lat="22.848059" lon="110.559634">
        <ele>110.498450</ele>
        <time>2026-08-18T01:47:39.000Z</time>
      </trkpt>
      <trkpt lat="22.848095" lon="110.559630">
        <ele>110.561781</ele>
        <time>2026-08-18T01:47:40.000Z</time>
      </trkpt>
      <trkpt lat="22.848131" lon="110.559625">
        <ele>110.625297</ele>
        <time>2026-08-18T01:47:41.000Z</time>
      </trkpt>
      <trkpt lat="22.848168" lon="110.559616">
        <ele>110.691655</ele>
        <time>2026-08-18T01:47:42.000Z</time>
      </trkpt>
      <trkpt lat="22.848203" lon="110.559611">
        <ele>110.753435</ele>
        <time>2026-08-18T01:47:43.000Z</time>
      </trkpt>
      <trkpt lat="22.848236" lon="110.559603">
        <ele>110.812610</ele>
        <time>2026-08-18T01:47:44.000Z</time>
      </trkpt>
      <trkpt lat="22.848267" lon="110.559601">
        <ele>110.866957</ele>
        <time>2026-08-18T01:47:45.000Z</time>
      </trkpt>
      <trkpt lat="22.848299" lon="110.559594">
        <ele>110.924085</ele>
        <time>2026-08-18T01:47:46.000Z</time>
      </trkpt>
      <trkpt lat="22.848333" lon="110.559590">
        <ele>110.983935</ele>
        <time>2026-08-18T01:47:47.000Z</time>
      </trkpt>
      <trkpt lat="22.848368" lon="110.559574">
        <ele>111.050400</ele>
        <time>2026-08-18T01:47:48.000Z</time>
      </trkpt>
      <trkpt lat="22.848399" lon="110.559554">
        <ele>111.113516</ele>
        <time>2026-08-18T01:47:49.000Z</time>
      </trkpt>
      <trkpt lat="22.848433" lon="110.559533">
        <ele>111.181980</ele>
        <time>2026-08-18T01:47:50.000Z</time>
      </trkpt>
      <trkpt lat="22.848466" lon="110.559513">
        <ele>111.248128</ele>
        <time>2026-08-18T01:47:51.000Z</time>
      </trkpt>
      <trkpt lat="22.848496" lon="110.559496">
        <ele>111.307357</ele>
        <time>2026-08-18T01:47:52.000Z</time>
      </trkpt>
      <trkpt lat="22.848526" lon="110.559480">
        <ele>111.365857</ele>
        <time>2026-08-18T01:47:53.000Z</time>
      </trkpt>
      <trkpt lat="22.848556" lon="110.559468">
        <ele>111.421811</ele>
        <time>2026-08-18T01:47:54.000Z</time>
      </trkpt>
      <trkpt lat="22.848588" lon="110.559450">
        <ele>111.484889</ele>
        <time>2026-08-18T01:47:55.000Z</time>
      </trkpt>
      <trkpt lat="22.848619" lon="110.559434">
        <ele>111.544965</ele>
        <time>2026-08-18T01:47:56.000Z</time>
      </trkpt>
      <trkpt lat="22.848647" lon="110.559421">
        <ele>111.598263</ele>
        <time>2026-08-18T01:47:57.000Z</time>
      </trkpt>
      <trkpt lat="22.848678" lon="110.559406">
        <ele>111.657663</ele>
        <time>2026-08-18T01:47:58.000Z</time>
      </trkpt>
      <trkpt lat="22.848708" lon="110.559392">
        <ele>111.683404</ele>
        <time>2026-08-18T01:47:59.000Z</time>
      </trkpt>
      <trkpt lat="22.848740" lon="110.559382">
        <ele>111.691874</ele>
        <time>2026-08-18T01:48:00.000Z</time>
      </trkpt>
      <trkpt lat="22.848776" lon="110.559374">
        <ele>111.701221</ele>
        <time>2026-08-18T01:48:01.000Z</time>
      </trkpt>
      <trkpt lat="22.848811" lon="110.559372">
        <ele>111.710135</ele>
        <time>2026-08-18T01:48:02.000Z</time>
      </trkpt>
      <trkpt lat="22.848845" lon="110.559368">
        <ele>111.718834</ele>
        <time>2026-08-18T01:48:03.000Z</time>
      </trkpt>
      <trkpt lat="22.848880" lon="110.559363">
        <ele>111.727813</ele>
        <time>2026-08-18T01:48:04.000Z</time>
      </trkpt>
      <trkpt lat="22.848917" lon="110.559357">
        <ele>111.737328</ele>
        <time>2026-08-18T01:48:05.000Z</time>
      </trkpt>
      <trkpt lat="22.848957" lon="110.559356">
        <ele>111.747505</ele>
        <time>2026-08-18T01:48:06.000Z</time>
      </trkpt>
      <trkpt lat="22.848989" lon="110.559346">
        <ele>111.755975</ele>
        <time>2026-08-18T01:48:07.000Z</time>
      </trkpt>
      <trkpt lat="22.849025" lon="110.559350">
        <ele>111.765179</ele>
        <time>2026-08-18T01:48:08.000Z</time>
      </trkpt>
      <trkpt lat="22.849062" lon="110.559335">
        <ele>111.775226</ele>
        <time>2026-08-18T01:48:09.000Z</time>
      </trkpt>
      <trkpt lat="22.849100" lon="110.559322">
        <ele>111.785360</ele>
        <time>2026-08-18T01:48:10.000Z</time>
      </trkpt>
      <trkpt lat="22.849138" lon="110.559309">
        <ele>111.795494</ele>
        <time>2026-08-18T01:48:11.000Z</time>
      </trkpt>
      <trkpt lat="22.849176" lon="110.559299">
        <ele>111.805440</ele>
        <time>2026-08-18T01:48:12.000Z</time>
      </trkpt>
      <trkpt lat="22.849215" lon="110.559290">
        <ele>111.815581</ele>
        <time>2026-08-18T01:48:13.000Z</time>
      </trkpt>
      <trkpt lat="22.849252" lon="110.559284">
        <ele>111.825096</ele>
        <time>2026-08-18T01:48:14.000Z</time>
      </trkpt>
      <trkpt lat="22.849289" lon="110.559276">
        <ele>111.834692</ele>
        <time>2026-08-18T01:48:15.000Z</time>
      </trkpt>
      <trkpt lat="22.849328" lon="110.559266">
        <ele>111.844885</ele>
        <time>2026-08-18T01:48:16.000Z</time>
      </trkpt>
      <trkpt lat="22.849368" lon="110.559255">
        <ele>111.855381</ele>
        <time>2026-08-18T01:48:17.000Z</time>
      </trkpt>
      <trkpt lat="22.849407" lon="110.559243">
        <ele>111.865691</ele>
        <time>2026-08-18T01:48:18.000Z</time>
      </trkpt>
      <trkpt lat="22.849441" lon="110.559233">
        <ele>111.874651</ele>
        <time>2026-08-18T01:48:19.000Z</time>
      </trkpt>
      <trkpt lat="22.849479" lon="110.559225">
        <ele>111.884497</ele>
        <time>2026-08-18T01:48:20.000Z</time>
      </trkpt>
      <trkpt lat="22.849517" lon="110.559216">
        <ele>111.894390</ele>
        <time>2026-08-18T01:48:21.000Z</time>
      </trkpt>
      <trkpt lat="22.849557" lon="110.559207">
        <ele>111.904780</ele>
        <time>2026-08-18T01:48:22.000Z</time>
      </trkpt>
      <trkpt lat="22.849597" lon="110.559198">
        <ele>111.915170</ele>
        <time>2026-08-18T01:48:23.000Z</time>
      </trkpt>
      <trkpt lat="22.849635" lon="110.559186">
        <ele>111.925237</ele>
        <time>2026-08-18T01:48:24.000Z</time>
      </trkpt>
      <trkpt lat="22.849675" lon="110.559176">
        <ele>111.935677</ele>
        <time>2026-08-18T01:48:25.000Z</time>
      </trkpt>
      <trkpt lat="22.849715" lon="110.559165">
        <ele>111.946173</ele>
        <time>2026-08-18T01:48:26.000Z</time>
      </trkpt>
      <trkpt lat="22.849754" lon="110.559155">
        <ele>111.956366</ele>
        <time>2026-08-18T01:48:27.000Z</time>
      </trkpt>
      <trkpt lat="22.849794" lon="110.559145">
        <ele>111.966806</ele>
        <time>2026-08-18T01:48:28.000Z</time>
      </trkpt>
      <trkpt lat="22.849833" lon="110.559138">
        <ele>111.976860</ele>
        <time>2026-08-18T01:48:29.000Z</time>
      </trkpt>
      <trkpt lat="22.849872" lon="110.559133">
        <ele>111.986849</ele>
        <time>2026-08-18T01:48:30.000Z</time>
      </trkpt>
      <trkpt lat="22.849912" lon="110.559129">
        <ele>111.997066</ele>
        <time>2026-08-18T01:48:31.000Z</time>
      </trkpt>
      <trkpt lat="22.849948" lon="110.559128">
        <ele>112.006226</ele>
        <time>2026-08-18T01:48:32.000Z</time>
      </trkpt>
      <trkpt lat="22.849992" lon="110.559128">
        <ele>112.017417</ele>
        <time>2026-08-18T01:48:33.000Z</time>
      </trkpt>
      <trkpt lat="22.850040" lon="110.559122">
        <ele>112.029707</ele>
        <time>2026-08-18T01:48:34.000Z</time>
      </trkpt>
      <trkpt lat="22.850086" lon="110.559119">
        <ele>112.041428</ele>
        <time>2026-08-18T01:48:35.000Z</time>
      </trkpt>
      <trkpt lat="22.850133" lon="110.559116">
        <ele>112.053403</ele>
        <time>2026-08-18T01:48:36.000Z</time>
      </trkpt>
      <trkpt lat="22.850178" lon="110.559110">
        <ele>112.064935</ele>
        <time>2026-08-18T01:48:37.000Z</time>
      </trkpt>
      <trkpt lat="22.850222" lon="110.559108">
        <ele>112.076136</ele>
        <time>2026-08-18T01:48:38.000Z</time>
      </trkpt>
      <trkpt lat="22.850267" lon="110.559110">
        <ele>112.087591</ele>
        <time>2026-08-18T01:48:39.000Z</time>
      </trkpt>
      <trkpt lat="22.850314" lon="110.559122">
        <ele>112.099872</ele>
        <time>2026-08-18T01:48:40.000Z</time>
      </trkpt>
      <trkpt lat="22.850357" lon="110.559143">
        <ele>112.111866</ele>
        <time>2026-08-18T01:48:41.000Z</time>
      </trkpt>
      <trkpt lat="22.850403" lon="110.559159">
        <ele>112.124152</ele>
        <time>2026-08-18T01:48:42.000Z</time>
      </trkpt>
      <trkpt lat="22.850450" lon="110.559167">
        <ele>112.131578</ele>
        <time>2026-08-18T01:48:43.000Z</time>
      </trkpt>
      <trkpt lat="22.850497" lon="110.559169">
        <ele>112.064282</ele>
        <time>2026-08-18T01:48:44.000Z</time>
      </trkpt>
      <trkpt lat="22.850547" lon="110.559170">
        <ele>111.992733</ele>
        <time>2026-08-18T01:48:45.000Z</time>
      </trkpt>
      <trkpt lat="22.850596" lon="110.559171">
        <ele>111.922615</ele>
        <time>2026-08-18T01:48:46.000Z</time>
      </trkpt>
      <trkpt lat="22.850647" lon="110.559174">
        <ele>111.849541</ele>
        <time>2026-08-18T01:48:47.000Z</time>
      </trkpt>
      <trkpt lat="22.850698" lon="110.559176">
        <ele>111.776526</ele>
        <time>2026-08-18T01:48:48.000Z</time>
      </trkpt>
      <trkpt lat="22.850756" lon="110.559182">
        <ele>111.693168</ele>
        <time>2026-08-18T01:48:49.000Z</time>
      </trkpt>
      <trkpt lat="22.850814" lon="110.559190">
        <ele>111.609518</ele>
        <time>2026-08-18T01:48:50.000Z</time>
      </trkpt>
      <trkpt lat="22.850870" lon="110.559196">
        <ele>111.529008</ele>
        <time>2026-08-18T01:48:51.000Z</time>
      </trkpt>
      <trkpt lat="22.850925" lon="110.559203">
        <ele>111.449778</ele>
        <time>2026-08-18T01:48:52.000Z</time>
      </trkpt>
      <trkpt lat="22.850979" lon="110.559213">
        <ele>111.371402</ele>
        <time>2026-08-18T01:48:53.000Z</time>
      </trkpt>
      <trkpt lat="22.851034" lon="110.559220">
        <ele>111.292173</ele>
        <time>2026-08-18T01:48:54.000Z</time>
      </trkpt>
      <trkpt lat="22.851085" lon="110.559228">
        <ele>111.218447</ele>
        <time>2026-08-18T01:48:55.000Z</time>
      </trkpt>
      <trkpt lat="22.851138" lon="110.559236">
        <ele>111.141889</ele>
        <time>2026-08-18T01:48:56.000Z</time>
      </trkpt>
      <trkpt lat="22.851191" lon="110.559244">
        <ele>111.065330</ele>
        <time>2026-08-18T01:48:57.000Z</time>
      </trkpt>
      <trkpt lat="22.851244" lon="110.559252">
        <ele>110.988771</ele>
        <time>2026-08-18T01:48:58.000Z</time>
      </trkpt>
      <trkpt lat="22.851295" lon="110.559261">
        <ele>110.914846</ele>
        <time>2026-08-18T01:48:59.000Z</time>
      </trkpt>
      <trkpt lat="22.851344" lon="110.559275">
        <ele>110.842351</ele>
        <time>2026-08-18T01:49:00.000Z</time>
      </trkpt>
      <trkpt lat="22.851389" lon="110.559287">
        <ele>110.776053</ele>
        <time>2026-08-18T01:49:01.000Z</time>
      </trkpt>
      <trkpt lat="22.851440" lon="110.559299">
        <ele>110.701390</ele>
        <time>2026-08-18T01:49:02.000Z</time>
      </trkpt>
      <trkpt lat="22.851489" lon="110.559310">
        <ele>110.629800</ele>
        <time>2026-08-18T01:49:03.000Z</time>
      </trkpt>
      <trkpt lat="22.851539" lon="110.559320">
        <ele>110.557059</ele>
        <time>2026-08-18T01:49:04.000Z</time>
      </trkpt>
      <trkpt lat="22.851589" lon="110.559332">
        <ele>110.483794</ele>
        <time>2026-08-18T01:49:05.000Z</time>
      </trkpt>
      <trkpt lat="22.851640" lon="110.559341">
        <ele>110.409868</ele>
        <time>2026-08-18T01:49:06.000Z</time>
      </trkpt>
      <trkpt lat="22.851692" lon="110.559350">
        <ele>110.334530</ele>
        <time>2026-08-18T01:49:07.000Z</time>
      </trkpt>
      <trkpt lat="22.851744" lon="110.559361">
        <ele>110.258732</ele>
        <time>2026-08-18T01:49:08.000Z</time>
      </trkpt>
      <trkpt lat="22.851794" lon="110.559373">
        <ele>110.185467</ele>
        <time>2026-08-18T01:49:09.000Z</time>
      </trkpt>
      <trkpt lat="22.851842" lon="110.559385">
        <ele>110.114993</ele>
        <time>2026-08-18T01:49:10.000Z</time>
      </trkpt>
      <trkpt lat="22.851889" lon="110.559395">
        <ele>110.046468</ele>
        <time>2026-08-18T01:49:11.000Z</time>
      </trkpt>
      <trkpt lat="22.851938" lon="110.559404">
        <ele>109.975366</ele>
        <time>2026-08-18T01:49:12.000Z</time>
      </trkpt>
      <trkpt lat="22.851985" lon="110.559417">
        <ele>109.905971</ele>
        <time>2026-08-18T01:49:13.000Z</time>
      </trkpt>
      <trkpt lat="22.852034" lon="110.559431">
        <ele>109.833477</ele>
        <time>2026-08-18T01:49:14.000Z</time>
      </trkpt>
      <trkpt lat="22.852082" lon="110.559441">
        <ele>109.763548</ele>
        <time>2026-08-18T01:49:15.000Z</time>
      </trkpt>
      <trkpt lat="22.852132" lon="110.559451">
        <ele>109.690806</ele>
        <time>2026-08-18T01:49:16.000Z</time>
      </trkpt>
      <trkpt lat="22.852184" lon="110.559460">
        <ele>109.615468</ele>
        <time>2026-08-18T01:49:17.000Z</time>
      </trkpt>
      <trkpt lat="22.852234" lon="110.559470">
        <ele>109.543928</ele>
        <time>2026-08-18T01:49:18.000Z</time>
      </trkpt>
      <trkpt lat="22.852285" lon="110.559481">
        <ele>109.474129</ele>
        <time>2026-08-18T01:49:19.000Z</time>
      </trkpt>
      <trkpt lat="22.852334" lon="110.559494">
        <ele>109.406416</ele>
        <time>2026-08-18T01:49:20.000Z</time>
      </trkpt>
      <trkpt lat="22.852387" lon="110.559505">
        <ele>109.333982</ele>
        <time>2026-08-18T01:49:21.000Z</time>
      </trkpt>
      <trkpt lat="22.852439" lon="110.559515">
        <ele>109.263092</ele>
        <time>2026-08-18T01:49:22.000Z</time>
      </trkpt>
      <trkpt lat="22.852491" lon="110.559527">
        <ele>109.191728</ele>
        <time>2026-08-18T01:49:23.000Z</time>
      </trkpt>
      <trkpt lat="22.852544" lon="110.559538">
        <ele>109.119294</ele>
        <time>2026-08-18T01:49:24.000Z</time>
      </trkpt>
      <trkpt lat="22.852593" lon="110.559549">
        <ele>109.052126</ele>
        <time>2026-08-18T01:49:25.000Z</time>
      </trkpt>
      <trkpt lat="22.852646" lon="110.559561">
        <ele>108.979449</ele>
        <time>2026-08-18T01:49:26.000Z</time>
      </trkpt>
      <trkpt lat="22.852697" lon="110.559574">
        <ele>108.909126</ele>
        <time>2026-08-18T01:49:27.000Z</time>
      </trkpt>
      <trkpt lat="22.852748" lon="110.559588">
        <ele>108.838509</ele>
        <time>2026-08-18T01:49:28.000Z</time>
      </trkpt>
      <trkpt lat="22.852802" lon="110.559602">
        <ele>108.763982</ele>
        <time>2026-08-18T01:49:29.000Z</time>
      </trkpt>
      <trkpt lat="22.852856" lon="110.559613">
        <ele>108.690228</ele>
        <time>2026-08-18T01:49:30.000Z</time>
      </trkpt>
      <trkpt lat="22.852910" lon="110.559625">
        <ele>108.616237</ele>
        <time>2026-08-18T01:49:31.000Z</time>
      </trkpt>
      <trkpt lat="22.852966" lon="110.559638">
        <ele>108.539364</ele>
        <time>2026-08-18T01:49:32.000Z</time>
      </trkpt>
      <trkpt lat="22.853022" lon="110.559650">
        <ele>108.462741</ele>
        <time>2026-08-18T01:49:33.000Z</time>
      </trkpt>
      <trkpt lat="22.853079" lon="110.559662">
        <ele>108.384800</ele>
        <time>2026-08-18T01:49:34.000Z</time>
      </trkpt>
      <trkpt lat="22.853137" lon="110.559674">
        <ele>108.305541</ele>
        <time>2026-08-18T01:49:35.000Z</time>
      </trkpt>
      <trkpt lat="22.853196" lon="110.559683">
        <ele>108.225563</ele>
        <time>2026-08-18T01:49:36.000Z</time>
      </trkpt>
      <trkpt lat="22.853254" lon="110.559691">
        <ele>108.147080</ele>
        <time>2026-08-18T01:49:37.000Z</time>
      </trkpt>
      <trkpt lat="22.853311" lon="110.559701">
        <ele>108.069572</ele>
        <time>2026-08-18T01:49:38.000Z</time>
      </trkpt>
      <trkpt lat="22.853367" lon="110.559712">
        <ele>107.993179</ele>
        <time>2026-08-18T01:49:39.000Z</time>
      </trkpt>
      <trkpt lat="22.853424" lon="110.559719">
        <ele>107.916176</ele>
        <time>2026-08-18T01:49:40.000Z</time>
      </trkpt>
      <trkpt lat="22.853479" lon="110.559728">
        <ele>107.841512</ele>
        <time>2026-08-18T01:49:41.000Z</time>
      </trkpt>
      <trkpt lat="22.853537" lon="110.559737">
        <ele>107.762863</ele>
        <time>2026-08-18T01:49:42.000Z</time>
      </trkpt>
      <trkpt lat="22.853593" lon="110.559745">
        <ele>107.687043</ele>
        <time>2026-08-18T01:49:43.000Z</time>
      </trkpt>
      <trkpt lat="22.853650" lon="110.559752">
        <ele>107.610040</ele>
        <time>2026-08-18T01:49:44.000Z</time>
      </trkpt>
      <trkpt lat="22.853708" lon="110.559756">
        <ele>107.532026</ele>
        <time>2026-08-18T01:49:45.000Z</time>
      </trkpt>
      <trkpt lat="22.853764" lon="110.559761">
        <ele>107.456600</ele>
        <time>2026-08-18T01:49:46.000Z</time>
      </trkpt>
      <trkpt lat="22.853821" lon="110.559766">
        <ele>107.379836</ele>
        <time>2026-08-18T01:49:47.000Z</time>
      </trkpt>
      <trkpt lat="22.853879" lon="110.559768">
        <ele>107.301940</ele>
        <time>2026-08-18T01:49:48.000Z</time>
      </trkpt>
      <trkpt lat="22.853936" lon="110.559766">
        <ele>107.225386</ele>
        <time>2026-08-18T01:49:49.000Z</time>
      </trkpt>
      <trkpt lat="22.853992" lon="110.559764">
        <ele>107.150173</ele>
        <time>2026-08-18T01:49:50.000Z</time>
      </trkpt>
      <trkpt lat="22.854047" lon="110.559766">
        <ele>107.182632</ele>
        <time>2026-08-18T01:49:51.000Z</time>
      </trkpt>
      <trkpt lat="22.854101" lon="110.559772">
        <ele>107.218194</ele>
        <time>2026-08-18T01:49:52.000Z</time>
      </trkpt>
      <trkpt lat="22.854156" lon="110.559776">
        <ele>107.254307</ele>
        <time>2026-08-18T01:49:53.000Z</time>
      </trkpt>
      <trkpt lat="22.854212" lon="110.559778">
        <ele>107.291015</ele>
        <time>2026-08-18T01:49:54.000Z</time>
      </trkpt>
      <trkpt lat="22.854265" lon="110.559777">
        <ele>107.325742</ele>
        <time>2026-08-18T01:49:55.000Z</time>
      </trkpt>
      <trkpt lat="22.854319" lon="110.559775">
        <ele>107.361140</ele>
        <time>2026-08-18T01:49:56.000Z</time>
      </trkpt>
      <trkpt lat="22.854372" lon="110.559774">
        <ele>107.395868</ele>
        <time>2026-08-18T01:49:57.000Z</time>
      </trkpt>
      <trkpt lat="22.854424" lon="110.559771">
        <ele>107.429983</ele>
        <time>2026-08-18T01:49:58.000Z</time>
      </trkpt>
      <trkpt lat="22.854472" lon="110.559767">
        <ele>107.461522</ele>
        <time>2026-08-18T01:49:59.000Z</time>
      </trkpt>
      <trkpt lat="22.854508" lon="110.559761">
        <ele>107.485383</ele>
        <time>2026-08-18T01:50:00.000Z</time>
      </trkpt>
      <trkpt lat="22.854533" lon="110.559755">
        <ele>107.502157</ele>
        <time>2026-08-18T01:50:01.000Z</time>
      </trkpt>
      <trkpt lat="22.854552" lon="110.559752">
        <ele>107.514736</ele>
        <time>2026-08-18T01:50:02.000Z</time>
      </trkpt>
      <trkpt lat="22.854569" lon="110.559748">
        <ele>107.526132</ele>
        <time>2026-08-18T01:50:03.000Z</time>
      </trkpt>
      <trkpt lat="22.854585" lon="110.559742">
        <ele>107.537223</ele>
        <time>2026-08-18T01:50:04.000Z</time>
      </trkpt>
      <trkpt lat="22.854597" lon="110.559738">
        <ele>107.545447</ele>
        <time>2026-08-18T01:50:05.000Z</time>
      </trkpt>
      <trkpt lat="22.854608" lon="110.559732">
        <ele>107.553512</ele>
        <time>2026-08-18T01:50:06.000Z</time>
      </trkpt>
      <trkpt lat="22.854620" lon="110.559722">
        <ele>107.563425</ele>
        <time>2026-08-18T01:50:07.000Z</time>
      </trkpt>
      <trkpt lat="22.854636" lon="110.559717">
        <ele>107.574333</ele>
        <time>2026-08-18T01:50:08.000Z</time>
      </trkpt>
      <trkpt lat="22.854653" lon="110.559713">
        <ele>107.585729</ele>
        <time>2026-08-18T01:50:09.000Z</time>
      </trkpt>
      <trkpt lat="22.854672" lon="110.559709">
        <ele>107.598408</ele>
        <time>2026-08-18T01:50:10.000Z</time>
      </trkpt>
      <trkpt lat="22.854690" lon="110.559705">
        <ele>107.610446</ele>
        <time>2026-08-18T01:50:11.000Z</time>
      </trkpt>
      <trkpt lat="22.854711" lon="110.559699">
        <ele>107.624672</ele>
        <time>2026-08-18T01:50:12.000Z</time>
      </trkpt>
      <trkpt lat="22.854734" lon="110.559694">
        <ele>107.640040</ele>
        <time>2026-08-18T01:50:13.000Z</time>
      </trkpt>
      <trkpt lat="22.854756" lon="110.559688">
        <ele>107.654901</ele>
        <time>2026-08-18T01:50:14.000Z</time>
      </trkpt>
      <trkpt lat="22.854782" lon="110.559682">
        <ele>107.672315</ele>
        <time>2026-08-18T01:50:15.000Z</time>
      </trkpt>
      <trkpt lat="22.854810" lon="110.559681">
        <ele>107.690669</ele>
        <time>2026-08-18T01:50:16.000Z</time>
      </trkpt>
      <trkpt lat="22.854841" lon="110.559677">
        <ele>107.711121</ele>
        <time>2026-08-18T01:50:17.000Z</time>
      </trkpt>
      <trkpt lat="22.854875" lon="110.559671">
        <ele>107.733689</ele>
        <time>2026-08-18T01:50:18.000Z</time>
      </trkpt>
      <trkpt lat="22.854913" lon="110.559667">
        <ele>107.758701</ele>
        <time>2026-08-18T01:50:19.000Z</time>
      </trkpt>
      <trkpt lat="22.854950" lon="110.559662">
        <ele>107.783128</ele>
        <time>2026-08-18T01:50:20.000Z</time>
      </trkpt>
      <trkpt lat="22.854987" lon="110.559655">
        <ele>107.807733</ele>
        <time>2026-08-18T01:50:21.000Z</time>
      </trkpt>
      <trkpt lat="22.855024" lon="110.559649">
        <ele>107.832243</ele>
        <time>2026-08-18T01:50:22.000Z</time>
      </trkpt>
      <trkpt lat="22.855063" lon="110.559643">
        <ele>107.858048</ele>
        <time>2026-08-18T01:50:23.000Z</time>
      </trkpt>
      <trkpt lat="22.855103" lon="110.559637">
        <ele>107.884503</ele>
        <time>2026-08-18T01:50:24.000Z</time>
      </trkpt>
      <trkpt lat="22.855144" lon="110.559626">
        <ele>107.912172</ele>
        <time>2026-08-18T01:50:25.000Z</time>
      </trkpt>
      <trkpt lat="22.855185" lon="110.559618">
        <ele>107.939464</ele>
        <time>2026-08-18T01:50:26.000Z</time>
      </trkpt>
      <trkpt lat="22.855227" lon="110.559613">
        <ele>107.967144</ele>
        <time>2026-08-18T01:50:27.000Z</time>
      </trkpt>
      <trkpt lat="22.855266" lon="110.559606">
        <ele>107.993042</ele>
        <time>2026-08-18T01:50:28.000Z</time>
      </trkpt>
      <trkpt lat="22.855306" lon="110.559602">
        <ele>108.019358</ele>
        <time>2026-08-18T01:50:29.000Z</time>
      </trkpt>
      <trkpt lat="22.855349" lon="110.559596">
        <ele>108.047761</ele>
        <time>2026-08-18T01:50:30.000Z</time>
      </trkpt>
      <trkpt lat="22.855393" lon="110.559586">
        <ele>108.077212</ele>
        <time>2026-08-18T01:50:31.000Z</time>
      </trkpt>
      <trkpt lat="22.855435" lon="110.559576">
        <ele>108.105383</ele>
        <time>2026-08-18T01:50:32.000Z</time>
      </trkpt>
      <trkpt lat="22.855478" lon="110.559566">
        <ele>108.134193</ele>
        <time>2026-08-18T01:50:33.000Z</time>
      </trkpt>
      <trkpt lat="22.855518" lon="110.559556">
        <ele>108.161085</ele>
        <time>2026-08-18T01:50:34.000Z</time>
      </trkpt>
      <trkpt lat="22.855557" lon="110.559549">
        <ele>108.186982</ele>
        <time>2026-08-18T01:50:35.000Z</time>
      </trkpt>
      <trkpt lat="22.855594" lon="110.559543">
        <ele>108.211491</ele>
        <time>2026-08-18T01:50:36.000Z</time>
      </trkpt>
      <trkpt lat="22.855630" lon="110.559533">
        <ele>108.235837</ele>
        <time>2026-08-18T01:50:37.000Z</time>
      </trkpt>
      <trkpt lat="22.855671" lon="110.559524">
        <ele>108.263241</ele>
        <time>2026-08-18T01:50:38.000Z</time>
      </trkpt>
      <trkpt lat="22.855711" lon="110.559509">
        <ele>108.290967</ele>
        <time>2026-08-18T01:50:39.000Z</time>
      </trkpt>
      <trkpt lat="22.855750" lon="110.559493">
        <ele>108.318282</ele>
        <time>2026-08-18T01:50:40.000Z</time>
      </trkpt>
      <trkpt lat="22.855789" lon="110.559483">
        <ele>108.364323</ele>
        <time>2026-08-18T01:50:41.000Z</time>
      </trkpt>
      <trkpt lat="22.855826" lon="110.559472">
        <ele>108.416450</ele>
        <time>2026-08-18T01:50:42.000Z</time>
      </trkpt>
      <trkpt lat="22.855862" lon="110.559460">
        <ele>108.467622</ele>
        <time>2026-08-18T01:50:43.000Z</time>
      </trkpt>
      <trkpt lat="22.855900" lon="110.559449">
        <ele>108.521061</ele>
        <time>2026-08-18T01:50:44.000Z</time>
      </trkpt>
      <trkpt lat="22.855937" lon="110.559438">
        <ele>108.573189</ele>
        <time>2026-08-18T01:50:45.000Z</time>
      </trkpt>
      <trkpt lat="22.855975" lon="110.559429">
        <ele>108.626038</ele>
        <time>2026-08-18T01:50:46.000Z</time>
      </trkpt>
      <trkpt lat="22.856016" lon="110.559420">
        <ele>108.682877</ele>
        <time>2026-08-18T01:50:47.000Z</time>
      </trkpt>
      <trkpt lat="22.856055" lon="110.559412">
        <ele>108.736808</ele>
        <time>2026-08-18T01:50:48.000Z</time>
      </trkpt>
      <trkpt lat="22.856096" lon="110.559399">
        <ele>108.794847</ele>
        <time>2026-08-18T01:50:49.000Z</time>
      </trkpt>
      <trkpt lat="22.856137" lon="110.559390">
        <ele>108.851685</ele>
        <time>2026-08-18T01:50:50.000Z</time>
      </trkpt>
      <trkpt lat="22.856178" lon="110.559379">
        <ele>108.909073</ele>
        <time>2026-08-18T01:50:51.000Z</time>
      </trkpt>
      <trkpt lat="22.856219" lon="110.559371">
        <ele>108.965676</ele>
        <time>2026-08-18T01:50:52.000Z</time>
      </trkpt>
      <trkpt lat="22.856260" lon="110.559361">
        <ele>109.022776</ele>
        <time>2026-08-18T01:50:53.000Z</time>
      </trkpt>
      <trkpt lat="22.856302" lon="110.559353">
        <ele>109.080718</ele>
        <time>2026-08-18T01:50:54.000Z</time>
      </trkpt>
      <trkpt lat="22.856341" lon="110.559343">
        <ele>109.135169</ele>
        <time>2026-08-18T01:50:55.000Z</time>
      </trkpt>
      <trkpt lat="22.856381" lon="110.559332">
        <ele>109.191239</ele>
        <time>2026-08-18T01:50:56.000Z</time>
      </trkpt>
      <trkpt lat="22.856421" lon="110.559322">
        <ele>109.247014</ele>
        <time>2026-08-18T01:50:57.000Z</time>
      </trkpt>
      <trkpt lat="22.856462" lon="110.559311">
        <ele>109.304401</ele>
        <time>2026-08-18T01:50:58.000Z</time>
      </trkpt>
      <trkpt lat="22.856503" lon="110.559300">
        <ele>109.361788</ele>
        <time>2026-08-18T01:50:59.000Z</time>
      </trkpt>
      <trkpt lat="22.856543" lon="110.559289">
        <ele>109.417858</ele>
        <time>2026-08-18T01:51:00.000Z</time>
      </trkpt>
      <trkpt lat="22.856584" lon="110.559277">
        <ele>109.475558</ele>
        <time>2026-08-18T01:51:01.000Z</time>
      </trkpt>
      <trkpt lat="22.856626" lon="110.559266">
        <ele>109.534266</ele>
        <time>2026-08-18T01:51:02.000Z</time>
      </trkpt>
      <trkpt lat="22.856667" lon="110.559255">
        <ele>109.591653</ele>
        <time>2026-08-18T01:51:03.000Z</time>
      </trkpt>
      <trkpt lat="22.856708" lon="110.559244">
        <ele>109.649041</ele>
        <time>2026-08-18T01:51:04.000Z</time>
      </trkpt>
      <trkpt lat="22.856747" lon="110.559232">
        <ele>109.704122</ele>
        <time>2026-08-18T01:51:05.000Z</time>
      </trkpt>
      <trkpt lat="22.856787" lon="110.559221">
        <ele>109.760192</ele>
        <time>2026-08-18T01:51:06.000Z</time>
      </trkpt>
      <trkpt lat="22.856828" lon="110.559209">
        <ele>109.817892</ele>
        <time>2026-08-18T01:51:07.000Z</time>
      </trkpt>
      <trkpt lat="22.856869" lon="110.559199">
        <ele>109.874992</ele>
        <time>2026-08-18T01:51:08.000Z</time>
      </trkpt>
      <trkpt lat="22.856911" lon="110.559187">
        <ele>109.934006</ele>
        <time>2026-08-18T01:51:09.000Z</time>
      </trkpt>
      <trkpt lat="22.856952" lon="110.559173">
        <ele>109.992409</ele>
        <time>2026-08-18T01:51:10.000Z</time>
      </trkpt>
      <trkpt lat="22.856993" lon="110.559162">
        <ele>110.049796</ele>
        <time>2026-08-18T01:51:11.000Z</time>
      </trkpt>
      <trkpt lat="22.857035" lon="110.559152">
        <ele>110.108222</ele>
        <time>2026-08-18T01:51:12.000Z</time>
      </trkpt>
      <trkpt lat="22.857077" lon="110.559142">
        <ele>110.166649</ele>
        <time>2026-08-18T01:51:13.000Z</time>
      </trkpt>
      <trkpt lat="22.857117" lon="110.559130">
        <ele>110.223039</ele>
        <time>2026-08-18T01:51:14.000Z</time>
      </trkpt>
      <trkpt lat="22.857156" lon="110.559119">
        <ele>110.277792</ele>
        <time>2026-08-18T01:51:15.000Z</time>
      </trkpt>
      <trkpt lat="22.857196" lon="110.559107">
        <ele>110.334182</ele>
        <time>2026-08-18T01:51:16.000Z</time>
      </trkpt>
      <trkpt lat="22.857236" lon="110.559096">
        <ele>110.390251</ele>
        <time>2026-08-18T01:51:17.000Z</time>
      </trkpt>
      <trkpt lat="22.857278" lon="110.559087">
        <ele>110.448422</ele>
        <time>2026-08-18T01:51:18.000Z</time>
      </trkpt>
      <trkpt lat="22.857318" lon="110.559075">
        <ele>110.504812</ele>
        <time>2026-08-18T01:51:19.000Z</time>
      </trkpt>
      <trkpt lat="22.857359" lon="110.559063">
        <ele>110.562513</ele>
        <time>2026-08-18T01:51:20.000Z</time>
      </trkpt>
      <trkpt lat="22.857400" lon="110.559052">
        <ele>110.619900</ele>
        <time>2026-08-18T01:51:21.000Z</time>
      </trkpt>
      <trkpt lat="22.857441" lon="110.559040">
        <ele>110.677601</ele>
        <time>2026-08-18T01:51:22.000Z</time>
      </trkpt>
      <trkpt lat="22.857481" lon="110.559028">
        <ele>110.733991</ele>
        <time>2026-08-18T01:51:23.000Z</time>
      </trkpt>
      <trkpt lat="22.857520" lon="110.559017">
        <ele>110.763165</ele>
        <time>2026-08-18T01:51:24.000Z</time>
      </trkpt>
      <trkpt lat="22.857559" lon="110.559006">
        <ele>110.742872</ele>
        <time>2026-08-18T01:51:25.000Z</time>
      </trkpt>
      <trkpt lat="22.857599" lon="110.558994">
        <ele>110.721972</ele>
        <time>2026-08-18T01:51:26.000Z</time>
      </trkpt>
      <trkpt lat="22.857639" lon="110.558982">
        <ele>110.701072</ele>
        <time>2026-08-18T01:51:27.000Z</time>
      </trkpt>
      <trkpt lat="22.857681" lon="110.558973">
        <ele>110.679511</ele>
        <time>2026-08-18T01:51:28.000Z</time>
      </trkpt>
      <trkpt lat="22.857721" lon="110.558962">
        <ele>110.658730</ele>
        <time>2026-08-18T01:51:29.000Z</time>
      </trkpt>
      <trkpt lat="22.857761" lon="110.558950">
        <ele>110.637830</ele>
        <time>2026-08-18T01:51:30.000Z</time>
      </trkpt>
      <trkpt lat="22.857803" lon="110.558939">
        <ele>110.616071</ele>
        <time>2026-08-18T01:51:31.000Z</time>
      </trkpt>
      <trkpt lat="22.857844" lon="110.558929">
        <ele>110.594908</ele>
        <time>2026-08-18T01:51:32.000Z</time>
      </trkpt>
      <trkpt lat="22.857885" lon="110.558918">
        <ele>110.573638</ele>
        <time>2026-08-18T01:51:33.000Z</time>
      </trkpt>
      <trkpt lat="22.857927" lon="110.558908">
        <ele>110.551983</ele>
        <time>2026-08-18T01:51:34.000Z</time>
      </trkpt>
      <trkpt lat="22.857969" lon="110.558898">
        <ele>110.530328</ele>
        <time>2026-08-18T01:51:35.000Z</time>
      </trkpt>
      <trkpt lat="22.858011" lon="110.558887">
        <ele>110.508569</ele>
        <time>2026-08-18T01:51:36.000Z</time>
      </trkpt>
      <trkpt lat="22.858055" lon="110.558875">
        <ele>110.485722</ele>
        <time>2026-08-18T01:51:37.000Z</time>
      </trkpt>
      <trkpt lat="22.858097" lon="110.558862">
        <ele>110.463726</ele>
        <time>2026-08-18T01:51:38.000Z</time>
      </trkpt>
      <trkpt lat="22.858140" lon="110.558850">
        <ele>110.441366</ele>
        <time>2026-08-18T01:51:39.000Z</time>
      </trkpt>
      <trkpt lat="22.858181" lon="110.558838">
        <ele>110.419980</ele>
        <time>2026-08-18T01:51:40.000Z</time>
      </trkpt>
      <trkpt lat="22.858223" lon="110.558825">
        <ele>110.397985</ele>
        <time>2026-08-18T01:51:41.000Z</time>
      </trkpt>
      <trkpt lat="22.858266" lon="110.558811">
        <ele>110.375376</ele>
        <time>2026-08-18T01:51:42.000Z</time>
      </trkpt>
      <trkpt lat="22.858311" lon="110.558800">
        <ele>110.352146</ele>
        <time>2026-08-18T01:51:43.000Z</time>
      </trkpt>
      <trkpt lat="22.858356" lon="110.558789">
        <ele>110.328916</ele>
        <time>2026-08-18T01:51:44.000Z</time>
      </trkpt>
      <trkpt lat="22.858400" lon="110.558779">
        <ele>110.306276</ele>
        <time>2026-08-18T01:51:45.000Z</time>
      </trkpt>
      <trkpt lat="22.858446" lon="110.558768">
        <ele>110.282554</ele>
        <time>2026-08-18T01:51:46.000Z</time>
      </trkpt>
      <trkpt lat="22.858492" lon="110.558757">
        <ele>110.258832</ele>
        <time>2026-08-18T01:51:47.000Z</time>
      </trkpt>
      <trkpt lat="22.858537" lon="110.558743">
        <ele>110.235257</ele>
        <time>2026-08-18T01:51:48.000Z</time>
      </trkpt>
      <trkpt lat="22.858583" lon="110.558730">
        <ele>110.211318</ele>
        <time>2026-08-18T01:51:49.000Z</time>
      </trkpt>
      <trkpt lat="22.858629" lon="110.558719">
        <ele>110.187596</ele>
        <time>2026-08-18T01:51:50.000Z</time>
      </trkpt>
      <trkpt lat="22.858676" lon="110.558706">
        <ele>110.163169</ele>
        <time>2026-08-18T01:51:51.000Z</time>
      </trkpt>
      <trkpt lat="22.858725" lon="110.558693">
        <ele>110.137766</ele>
        <time>2026-08-18T01:51:52.000Z</time>
      </trkpt>
      <trkpt lat="22.858774" lon="110.558680">
        <ele>110.112362</ele>
        <time>2026-08-18T01:51:53.000Z</time>
      </trkpt>
      <trkpt lat="22.858822" lon="110.558670">
        <ele>110.087747</ele>
        <time>2026-08-18T01:51:54.000Z</time>
      </trkpt>
      <trkpt lat="22.858871" lon="110.558658">
        <ele>110.062449</ele>
        <time>2026-08-18T01:51:55.000Z</time>
      </trkpt>
      <trkpt lat="22.858921" lon="110.558645">
        <ele>110.036556</ele>
        <time>2026-08-18T01:51:56.000Z</time>
      </trkpt>
      <trkpt lat="22.858972" lon="110.558631">
        <ele>110.010063</ele>
        <time>2026-08-18T01:51:57.000Z</time>
      </trkpt>
      <trkpt lat="22.859022" lon="110.558619">
        <ele>109.984274</ele>
        <time>2026-08-18T01:51:58.000Z</time>
      </trkpt>
      <trkpt lat="22.859072" lon="110.558605">
        <ele>109.958269</ele>
        <time>2026-08-18T01:51:59.000Z</time>
      </trkpt>
      <trkpt lat="22.859123" lon="110.558591">
        <ele>109.931776</ele>
        <time>2026-08-18T01:52:00.000Z</time>
      </trkpt>
      <trkpt lat="22.859175" lon="110.558577">
        <ele>109.904794</ele>
        <time>2026-08-18T01:52:01.000Z</time>
      </trkpt>
      <trkpt lat="22.859226" lon="110.558564">
        <ele>109.878411</ele>
        <time>2026-08-18T01:52:02.000Z</time>
      </trkpt>
      <trkpt lat="22.859278" lon="110.558550">
        <ele>109.840211</ele>
        <time>2026-08-18T01:52:03.000Z</time>
      </trkpt>
      <trkpt lat="22.859329" lon="110.558535">
        <ele>109.790338</ele>
        <time>2026-08-18T01:52:04.000Z</time>
      </trkpt>
      <trkpt lat="22.859379" lon="110.558519">
        <ele>109.741137</ele>
        <time>2026-08-18T01:52:05.000Z</time>
      </trkpt>
      <trkpt lat="22.859431" lon="110.558504">
        <ele>109.690353</ele>
        <time>2026-08-18T01:52:06.000Z</time>
      </trkpt>
      <trkpt lat="22.859483" lon="110.558488">
        <ele>109.639338</ele>
        <time>2026-08-18T01:52:07.000Z</time>
      </trkpt>
      <trkpt lat="22.859535" lon="110.558473">
        <ele>109.588554</ele>
        <time>2026-08-18T01:52:08.000Z</time>
      </trkpt>
      <trkpt lat="22.859590" lon="110.558460">
        <ele>109.535426</ele>
        <time>2026-08-18T01:52:09.000Z</time>
      </trkpt>
      <trkpt lat="22.859644" lon="110.558448">
        <ele>109.483400</ele>
        <time>2026-08-18T01:52:10.000Z</time>
      </trkpt>
      <trkpt lat="22.859698" lon="110.558436">
        <ele>109.431375</ele>
        <time>2026-08-18T01:52:11.000Z</time>
      </trkpt>
      <trkpt lat="22.859751" lon="110.558421">
        <ele>109.379678</ele>
        <time>2026-08-18T01:52:12.000Z</time>
      </trkpt>
      <trkpt lat="22.859805" lon="110.558412">
        <ele>109.328113</ele>
        <time>2026-08-18T01:52:13.000Z</time>
      </trkpt>
      <trkpt lat="22.859855" lon="110.558402">
        <ele>109.280126</ele>
        <time>2026-08-18T01:52:14.000Z</time>
      </trkpt>
      <trkpt lat="22.859904" lon="110.558390">
        <ele>109.232715</ele>
        <time>2026-08-18T01:52:15.000Z</time>
      </trkpt>
      <trkpt lat="22.859954" lon="110.558371">
        <ele>109.182713</ele>
        <time>2026-08-18T01:52:16.000Z</time>
      </trkpt>
      <trkpt lat="22.860004" lon="110.558363">
        <ele>109.135011</ele>
        <time>2026-08-18T01:52:17.000Z</time>
      </trkpt>
      <trkpt lat="22.860059" lon="110.558353">
        <ele>109.082376</ele>
        <time>2026-08-18T01:52:18.000Z</time>
      </trkpt>
      <trkpt lat="22.860118" lon="110.558345">
        <ele>109.026256</ele>
        <time>2026-08-18T01:52:19.000Z</time>
      </trkpt>
      <trkpt lat="22.860173" lon="110.558331">
        <ele>108.972936</ele>
        <time>2026-08-18T01:52:20.000Z</time>
      </trkpt>
      <trkpt lat="22.860233" lon="110.558314">
        <ele>108.914407</ele>
        <time>2026-08-18T01:52:21.000Z</time>
      </trkpt>
      <trkpt lat="22.860288" lon="110.558297">
        <ele>108.860431</ele>
        <time>2026-08-18T01:52:22.000Z</time>
      </trkpt>
      <trkpt lat="22.860345" lon="110.558281">
        <ele>108.804861</ele>
        <time>2026-08-18T01:52:23.000Z</time>
      </trkpt>
      <trkpt lat="22.860406" lon="110.558270">
        <ele>108.746497</ele>
        <time>2026-08-18T01:52:24.000Z</time>
      </trkpt>
      <trkpt lat="22.860464" lon="110.558266">
        <ele>108.691644</ele>
        <time>2026-08-18T01:52:25.000Z</time>
      </trkpt>
      <trkpt lat="22.860524" lon="110.558263">
        <ele>108.634953</ele>
        <time>2026-08-18T01:52:26.000Z</time>
      </trkpt>
      <trkpt lat="22.860587" lon="110.558263">
        <ele>108.575491</ele>
        <time>2026-08-18T01:52:27.000Z</time>
      </trkpt>
      <trkpt lat="22.860649" lon="110.558264">
        <ele>108.516966</ele>
        <time>2026-08-18T01:52:28.000Z</time>
      </trkpt>
      <trkpt lat="22.860711" lon="110.558266">
        <ele>108.458422</ele>
        <time>2026-08-18T01:52:29.000Z</time>
      </trkpt>
      <trkpt lat="22.860771" lon="110.558266">
        <ele>108.401791</ele>
        <time>2026-08-18T01:52:30.000Z</time>
      </trkpt>
      <trkpt lat="22.860831" lon="110.558267">
        <ele>108.345154</ele>
        <time>2026-08-18T01:52:31.000Z</time>
      </trkpt>
      <trkpt lat="22.860889" lon="110.558271">
        <ele>108.290300</ele>
        <time>2026-08-18T01:52:32.000Z</time>
      </trkpt>
      <trkpt lat="22.860948" lon="110.558273">
        <ele>108.234586</ele>
        <time>2026-08-18T01:52:33.000Z</time>
      </trkpt>
      <trkpt lat="22.861005" lon="110.558277">
        <ele>108.180675</ele>
        <time>2026-08-18T01:52:34.000Z</time>
      </trkpt>
      <trkpt lat="22.861063" lon="110.558280">
        <ele>108.109489</ele>
        <time>2026-08-18T01:52:35.000Z</time>
      </trkpt>
      <trkpt lat="22.861121" lon="110.558283">
        <ele>108.032655</ele>
        <time>2026-08-18T01:52:36.000Z</time>
      </trkpt>
      <trkpt lat="22.861181" lon="110.558284">
        <ele>107.953252</ele>
        <time>2026-08-18T01:52:37.000Z</time>
      </trkpt>
      <trkpt lat="22.861239" lon="110.558285">
        <ele>107.876495</ele>
        <time>2026-08-18T01:52:38.000Z</time>
      </trkpt>
      <trkpt lat="22.861297" lon="110.558285">
        <ele>107.799748</ele>
        <time>2026-08-18T01:52:39.000Z</time>
      </trkpt>
      <trkpt lat="22.861356" lon="110.558286">
        <ele>107.721668</ele>
        <time>2026-08-18T01:52:40.000Z</time>
      </trkpt>
      <trkpt lat="22.861416" lon="110.558284">
        <ele>107.642238</ele>
        <time>2026-08-18T01:52:41.000Z</time>
      </trkpt>
      <trkpt lat="22.861474" lon="110.558282">
        <ele>107.565452</ele>
        <time>2026-08-18T01:52:42.000Z</time>
      </trkpt>
      <trkpt lat="22.861531" lon="110.558285">
        <ele>107.489939</ele>
        <time>2026-08-18T01:52:43.000Z</time>
      </trkpt>
      <trkpt lat="22.861587" lon="110.558289">
        <ele>107.415678</ele>
        <time>2026-08-18T01:52:44.000Z</time>
      </trkpt>
      <trkpt lat="22.861637" lon="110.558296">
        <ele>107.348969</ele>
        <time>2026-08-18T01:52:45.000Z</time>
      </trkpt>
      <trkpt lat="22.861694" lon="110.558296">
        <ele>107.273545</ele>
        <time>2026-08-18T01:52:46.000Z</time>
      </trkpt>
      <trkpt lat="22.861748" lon="110.558296">
        <ele>107.202091</ele>
        <time>2026-08-18T01:52:47.000Z</time>
      </trkpt>
      <trkpt lat="22.861803" lon="110.558299">
        <ele>107.129222</ele>
        <time>2026-08-18T01:52:48.000Z</time>
      </trkpt>
      <trkpt lat="22.861856" lon="110.558302">
        <ele>107.058996</ele>
        <time>2026-08-18T01:52:49.000Z</time>
      </trkpt>
      <trkpt lat="22.861903" lon="110.558304">
        <ele>106.996756</ele>
        <time>2026-08-18T01:52:50.000Z</time>
      </trkpt>
      <trkpt lat="22.861944" lon="110.558307">
        <ele>106.942381</ele>
        <time>2026-08-18T01:52:51.000Z</time>
      </trkpt>
      <trkpt lat="22.861982" lon="110.558306">
        <ele>106.892084</ele>
        <time>2026-08-18T01:52:52.000Z</time>
      </trkpt>
      <trkpt lat="22.862016" lon="110.558306">
        <ele>106.847094</ele>
        <time>2026-08-18T01:52:53.000Z</time>
      </trkpt>
      <trkpt lat="22.862048" lon="110.558306">
        <ele>106.804751</ele>
        <time>2026-08-18T01:52:54.000Z</time>
      </trkpt>
      <trkpt lat="22.862075" lon="110.558310">
        <ele>106.768692</ele>
        <time>2026-08-18T01:52:55.000Z</time>
      </trkpt>
      <trkpt lat="22.862100" lon="110.558313">
        <ele>106.735410</ele>
        <time>2026-08-18T01:52:56.000Z</time>
      </trkpt>
      <trkpt lat="22.862123" lon="110.558323">
        <ele>106.702624</ele>
        <time>2026-08-18T01:52:57.000Z</time>
      </trkpt>
      <trkpt lat="22.862143" lon="110.558338">
        <ele>106.670455</ele>
        <time>2026-08-18T01:52:58.000Z</time>
      </trkpt>
      <trkpt lat="22.862169" lon="110.558358">
        <ele>106.628285</ele>
        <time>2026-08-18T01:52:59.000Z</time>
      </trkpt>
      <trkpt lat="22.862200" lon="110.558383">
        <ele>106.577180</ele>
        <time>2026-08-18T01:53:00.000Z</time>
      </trkpt>
      <trkpt lat="22.862229" lon="110.558414">
        <ele>106.523317</ele>
        <time>2026-08-18T01:53:01.000Z</time>
      </trkpt>
      <trkpt lat="22.862257" lon="110.558444">
        <ele>106.471253</ele>
        <time>2026-08-18T01:53:02.000Z</time>
      </trkpt>
      <trkpt lat="22.862289" lon="110.558482">
        <ele>106.408486</ele>
        <time>2026-08-18T01:53:03.000Z</time>
      </trkpt>
      <trkpt lat="22.862319" lon="110.558521">
        <ele>106.346543</ele>
        <time>2026-08-18T01:53:04.000Z</time>
      </trkpt>
      <trkpt lat="22.862347" lon="110.558564">
        <ele>106.282344</ele>
        <time>2026-08-18T01:53:05.000Z</time>
      </trkpt>
      <trkpt lat="22.862375" lon="110.558603">
        <ele>106.222062</ele>
        <time>2026-08-18T01:53:06.000Z</time>
      </trkpt>
      <trkpt lat="22.862405" lon="110.558645">
        <ele>106.157269</ele>
        <time>2026-08-18T01:53:07.000Z</time>
      </trkpt>
      <trkpt lat="22.862431" lon="110.558688">
        <ele>106.094560</ele>
        <time>2026-08-18T01:53:08.000Z</time>
      </trkpt>
      <trkpt lat="22.862462" lon="110.558731">
        <ele>106.027991</ele>
        <time>2026-08-18T01:53:09.000Z</time>
      </trkpt>
      <trkpt lat="22.862487" lon="110.558775">
        <ele>105.964964</ele>
        <time>2026-08-18T01:53:10.000Z</time>
      </trkpt>
      <trkpt lat="22.862513" lon="110.558822">
        <ele>105.898124</ele>
        <time>2026-08-18T01:53:11.000Z</time>
      </trkpt>
      <trkpt lat="22.862545" lon="110.558866">
        <ele>105.829779</ele>
        <time>2026-08-18T01:53:12.000Z</time>
      </trkpt>
      <trkpt lat="22.862571" lon="110.558912">
        <ele>105.732938</ele>
        <time>2026-08-18T01:53:13.000Z</time>
      </trkpt>
      <trkpt lat="22.862599" lon="110.558956">
        <ele>105.578309</ele>
        <time>2026-08-18T01:53:14.000Z</time>
      </trkpt>
      <trkpt lat="22.862625" lon="110.559001">
        <ele>105.424716</ele>
        <time>2026-08-18T01:53:15.000Z</time>
      </trkpt>
      <trkpt lat="22.862648" lon="110.559046">
        <ele>105.275911</ele>
        <time>2026-08-18T01:53:16.000Z</time>
      </trkpt>
      <trkpt lat="22.862681" lon="110.559088">
        <ele>105.116300</ele>
        <time>2026-08-18T01:53:17.000Z</time>
      </trkpt>
      <trkpt lat="22.862716" lon="110.559127">
        <ele>104.958874</ele>
        <time>2026-08-18T01:53:18.000Z</time>
      </trkpt>
      <trkpt lat="22.862762" lon="110.559159">
        <ele>104.787403</ele>
        <time>2026-08-18T01:53:19.000Z</time>
      </trkpt>
      <trkpt lat="22.862807" lon="110.559186">
        <ele>104.626035</ele>
        <time>2026-08-18T01:53:20.000Z</time>
      </trkpt>
      <trkpt lat="22.862855" lon="110.559212">
        <ele>104.457679</ele>
        <time>2026-08-18T01:53:21.000Z</time>
      </trkpt>
      <trkpt lat="22.862903" lon="110.559238">
        <ele>104.289322</ele>
        <time>2026-08-18T01:53:22.000Z</time>
      </trkpt>
      <trkpt lat="22.862944" lon="110.559267">
        <ele>104.135739</ele>
        <time>2026-08-18T01:53:23.000Z</time>
      </trkpt>
      <trkpt lat="22.862979" lon="110.559298">
        <ele>103.993963</ele>
        <time>2026-08-18T01:53:24.000Z</time>
      </trkpt>
      <trkpt lat="22.863034" lon="110.559325">
        <ele>103.804522</ele>
        <time>2026-08-18T01:53:25.000Z</time>
      </trkpt>
      <trkpt lat="22.863087" lon="110.559349">
        <ele>103.624296</ele>
        <time>2026-08-18T01:53:26.000Z</time>
      </trkpt>
      <trkpt lat="22.863142" lon="110.559377">
        <ele>103.433645</ele>
        <time>2026-08-18T01:53:27.000Z</time>
      </trkpt>
      <trkpt lat="22.863202" lon="110.559406">
        <ele>103.227520</ele>
        <time>2026-08-18T01:53:28.000Z</time>
      </trkpt>
      <trkpt lat="22.863277" lon="110.559424">
        <ele>102.986465</ele>
        <time>2026-08-18T01:53:29.000Z</time>
      </trkpt>
      <trkpt lat="22.863344" lon="110.559447">
        <ele>102.765934</ele>
        <time>2026-08-18T01:53:30.000Z</time>
      </trkpt>
      <trkpt lat="22.863414" lon="110.559473">
        <ele>102.533747</ele>
        <time>2026-08-18T01:53:31.000Z</time>
      </trkpt>
      <trkpt lat="22.863487" lon="110.559505">
        <ele>102.286672</ele>
        <time>2026-08-18T01:53:32.000Z</time>
      </trkpt>
      <trkpt lat="22.863565" lon="110.559523">
        <ele>102.036416</ele>
        <time>2026-08-18T01:53:33.000Z</time>
      </trkpt>
      <trkpt lat="22.863642" lon="110.559548">
        <ele>101.784188</ele>
        <time>2026-08-18T01:53:34.000Z</time>
      </trkpt>
      <trkpt lat="22.863720" lon="110.559569">
        <ele>101.531985</ele>
        <time>2026-08-18T01:53:35.000Z</time>
      </trkpt>
      <trkpt lat="22.863799" lon="110.559592">
        <ele>101.275297</ele>
        <time>2026-08-18T01:53:36.000Z</time>
      </trkpt>
      <trkpt lat="22.863875" lon="110.559615">
        <ele>101.027690</ele>
        <time>2026-08-18T01:53:37.000Z</time>
      </trkpt>
      <trkpt lat="22.863946" lon="110.559643">
        <ele>100.790619</ele>
        <time>2026-08-18T01:53:38.000Z</time>
      </trkpt>
      <trkpt lat="22.864017" lon="110.559669">
        <ele>100.555461</ele>
        <time>2026-08-18T01:53:39.000Z</time>
      </trkpt>
      <trkpt lat="22.864086" lon="110.559694">
        <ele>100.327173</ele>
        <time>2026-08-18T01:53:40.000Z</time>
      </trkpt>
      <trkpt lat="22.864158" lon="110.559712">
        <ele>100.163449</ele>
        <time>2026-08-18T01:53:41.000Z</time>
      </trkpt>
      <trkpt lat="22.864230" lon="110.559729">
        <ele>100.269533</ele>
        <time>2026-08-18T01:53:42.000Z</time>
      </trkpt>
      <trkpt lat="22.864302" lon="110.559748">
        <ele>100.376213</ele>
        <time>2026-08-18T01:53:43.000Z</time>
      </trkpt>
      <trkpt lat="22.864374" lon="110.559767">
        <ele>100.482893</ele>
        <time>2026-08-18T01:53:44.000Z</time>
      </trkpt>
      <trkpt lat="22.864444" lon="110.559787">
        <ele>100.587107</ele>
        <time>2026-08-18T01:53:45.000Z</time>
      </trkpt>
      <trkpt lat="22.864513" lon="110.559809">
        <ele>100.690646</ele>
        <time>2026-08-18T01:53:46.000Z</time>
      </trkpt>
      <trkpt lat="22.864579" lon="110.559829">
        <ele>100.789302</ele>
        <time>2026-08-18T01:53:47.000Z</time>
      </trkpt>
      <trkpt lat="22.864644" lon="110.559852">
        <ele>100.887732</ele>
        <time>2026-08-18T01:53:48.000Z</time>
      </trkpt>
      <trkpt lat="22.864707" lon="110.559874">
        <ele>100.983014</ele>
        <time>2026-08-18T01:53:49.000Z</time>
      </trkpt>
      <trkpt lat="22.864769" lon="110.559893">
        <ele>101.075766</ele>
        <time>2026-08-18T01:53:50.000Z</time>
      </trkpt>
      <trkpt lat="22.864828" lon="110.559911">
        <ele>101.164002</ele>
        <time>2026-08-18T01:53:51.000Z</time>
      </trkpt>
      <trkpt lat="22.864885" lon="110.559929">
        <ele>101.249470</ele>
        <time>2026-08-18T01:53:52.000Z</time>
      </trkpt>
      <trkpt lat="22.864941" lon="110.559949">
        <ele>101.334347</ele>
        <time>2026-08-18T01:53:53.000Z</time>
      </trkpt>
      <trkpt lat="22.864995" lon="110.559968">
        <ele>101.416075</ele>
        <time>2026-08-18T01:53:54.000Z</time>
      </trkpt>
      <trkpt lat="22.865049" lon="110.559987">
        <ele>101.497804</ele>
        <time>2026-08-18T01:53:55.000Z</time>
      </trkpt>
      <trkpt lat="22.865103" lon="110.560007">
        <ele>101.579951</ele>
        <time>2026-08-18T01:53:56.000Z</time>
      </trkpt>
      <trkpt lat="22.865154" lon="110.560025">
        <ele>101.657162</ele>
        <time>2026-08-18T01:53:57.000Z</time>
      </trkpt>
      <trkpt lat="22.865204" lon="110.560044">
        <ele>101.733433</ele>
        <time>2026-08-18T01:53:58.000Z</time>
      </trkpt>
      <trkpt lat="22.865253" lon="110.560063">
        <ele>101.808346</ele>
        <time>2026-08-18T01:53:59.000Z</time>
      </trkpt>
      <trkpt lat="22.865300" lon="110.560086">
        <ele>101.882574</ele>
        <time>2026-08-18T01:54:00.000Z</time>
      </trkpt>
      <trkpt lat="22.865342" lon="110.560111">
        <ele>101.951540</ele>
        <time>2026-08-18T01:54:01.000Z</time>
      </trkpt>
      <trkpt lat="22.865380" lon="110.560137">
        <ele>102.016214</ele>
        <time>2026-08-18T01:54:02.000Z</time>
      </trkpt>
      <trkpt lat="22.865415" lon="110.560164">
        <ele>102.078037</ele>
        <time>2026-08-18T01:54:03.000Z</time>
      </trkpt>
      <trkpt lat="22.865448" lon="110.560191">
        <ele>102.137536</ele>
        <time>2026-08-18T01:54:04.000Z</time>
      </trkpt>
      <trkpt lat="22.865478" lon="110.560217">
        <ele>102.192809</ele>
        <time>2026-08-18T01:54:05.000Z</time>
      </trkpt>
      <trkpt lat="22.865507" lon="110.560242">
        <ele>102.246130</ele>
        <time>2026-08-18T01:54:06.000Z</time>
      </trkpt>
      <trkpt lat="22.865533" lon="110.560266">
        <ele>102.295271</ele>
        <time>2026-08-18T01:54:07.000Z</time>
      </trkpt>
      <trkpt lat="22.865559" lon="110.560289">
        <ele>102.343564</ele>
        <time>2026-08-18T01:54:08.000Z</time>
      </trkpt>
      <trkpt lat="22.865585" lon="110.560308">
        <ele>102.388691</ele>
        <time>2026-08-18T01:54:09.000Z</time>
      </trkpt>
      <trkpt lat="22.865608" lon="110.560328">
        <ele>102.431123</ele>
        <time>2026-08-18T01:54:10.000Z</time>
      </trkpt>
      <trkpt lat="22.865630" lon="110.560347">
        <ele>102.471601</ele>
        <time>2026-08-18T01:54:11.000Z</time>
      </trkpt>
      <trkpt lat="22.865650" lon="110.560367">
        <ele>102.510755</ele>
        <time>2026-08-18T01:54:12.000Z</time>
      </trkpt>
      <trkpt lat="22.865670" lon="110.560386">
        <ele>102.549023</ele>
        <time>2026-08-18T01:54:13.000Z</time>
      </trkpt>
      <trkpt lat="22.865689" lon="110.560406">
        <ele>102.587131</ele>
        <time>2026-08-18T01:54:14.000Z</time>
      </trkpt>
      <trkpt lat="22.865710" lon="110.560426">
        <ele>102.627355</ele>
        <time>2026-08-18T01:54:15.000Z</time>
      </trkpt>
      <trkpt lat="22.865731" lon="110.560447">
        <ele>102.668467</ele>
        <time>2026-08-18T01:54:16.000Z</time>
      </trkpt>
      <trkpt lat="22.865750" lon="110.560471">
        <ele>102.710442</ele>
        <time>2026-08-18T01:54:17.000Z</time>
      </trkpt>
      <trkpt lat="22.865773" lon="110.560495">
        <ele>102.731154</ele>
        <time>2026-08-18T01:54:18.000Z</time>
      </trkpt>
      <trkpt lat="22.865795" lon="110.560519">
        <ele>102.730432</ele>
        <time>2026-08-18T01:54:19.000Z</time>
      </trkpt>
      <trkpt lat="22.865820" lon="110.560544">
        <ele>102.729646</ele>
        <time>2026-08-18T01:54:20.000Z</time>
      </trkpt>
      <trkpt lat="22.865844" lon="110.560569">
        <ele>102.728876</ele>
        <time>2026-08-18T01:54:21.000Z</time>
      </trkpt>
      <trkpt lat="22.865870" lon="110.560596">
        <ele>102.728044</ele>
        <time>2026-08-18T01:54:22.000Z</time>
      </trkpt>
      <trkpt lat="22.865896" lon="110.560624">
        <ele>102.727196</ele>
        <time>2026-08-18T01:54:23.000Z</time>
      </trkpt>
      <trkpt lat="22.865923" lon="110.560654">
        <ele>102.726302</ele>
        <time>2026-08-18T01:54:24.000Z</time>
      </trkpt>
      <trkpt lat="22.865951" lon="110.560682">
        <ele>102.725421</ele>
        <time>2026-08-18T01:54:25.000Z</time>
      </trkpt>
      <trkpt lat="22.865979" lon="110.560712">
        <ele>102.724511</ele>
        <time>2026-08-18T01:54:26.000Z</time>
      </trkpt>
      <trkpt lat="22.866007" lon="110.560742">
        <ele>102.723601</ele>
        <time>2026-08-18T01:54:27.000Z</time>
      </trkpt>
      <trkpt lat="22.866036" lon="110.560772">
        <ele>102.722674</ele>
        <time>2026-08-18T01:54:28.000Z</time>
      </trkpt>
      <trkpt lat="22.866063" lon="110.560802">
        <ele>102.721780</ele>
        <time>2026-08-18T01:54:29.000Z</time>
      </trkpt>
      <trkpt lat="22.866092" lon="110.560834">
        <ele>102.720823</ele>
        <time>2026-08-18T01:54:30.000Z</time>
      </trkpt>
      <trkpt lat="22.866119" lon="110.560865">
        <ele>102.719914</ele>
        <time>2026-08-18T01:54:31.000Z</time>
      </trkpt>
      <trkpt lat="22.866147" lon="110.560897">
        <ele>102.718973</ele>
        <time>2026-08-18T01:54:32.000Z</time>
      </trkpt>
      <trkpt lat="22.866176" lon="110.560932">
        <ele>102.717970</ele>
        <time>2026-08-18T01:54:33.000Z</time>
      </trkpt>
      <trkpt lat="22.866206" lon="110.560965">
        <ele>102.716982</ele>
        <time>2026-08-18T01:54:34.000Z</time>
      </trkpt>
      <trkpt lat="22.866240" lon="110.561001">
        <ele>102.715883</ele>
        <time>2026-08-18T01:54:35.000Z</time>
      </trkpt>
      <trkpt lat="22.866275" lon="110.561039">
        <ele>102.714737</ele>
        <time>2026-08-18T01:54:36.000Z</time>
      </trkpt>
      <trkpt lat="22.866310" lon="110.561072">
        <ele>102.713665</ele>
        <time>2026-08-18T01:54:37.000Z</time>
      </trkpt>
      <trkpt lat="22.866348" lon="110.561111">
        <ele>102.712455</ele>
        <time>2026-08-18T01:54:38.000Z</time>
      </trkpt>
      <trkpt lat="22.866383" lon="110.561153">
        <ele>102.711248</ele>
        <time>2026-08-18T01:54:39.000Z</time>
      </trkpt>
      <trkpt lat="22.866421" lon="110.561197">
        <ele>102.709962</ele>
        <time>2026-08-18T01:54:40.000Z</time>
      </trkpt>
      <trkpt lat="22.866461" lon="110.561242">
        <ele>102.708629</ele>
        <time>2026-08-18T01:54:41.000Z</time>
      </trkpt>
      <trkpt lat="22.866503" lon="110.561285">
        <ele>102.707293</ele>
        <time>2026-08-18T01:54:42.000Z</time>
      </trkpt>
      <trkpt lat="22.866548" lon="110.561327">
        <ele>102.705920</ele>
        <time>2026-08-18T01:54:43.000Z</time>
      </trkpt>
      <trkpt lat="22.866590" lon="110.561367">
        <ele>102.704628</ele>
        <time>2026-08-18T01:54:44.000Z</time>
      </trkpt>
      <trkpt lat="22.866629" lon="110.561407">
        <ele>102.703386</ele>
        <time>2026-08-18T01:54:45.000Z</time>
      </trkpt>
      <trkpt lat="22.866668" lon="110.561446">
        <ele>102.702159</ele>
        <time>2026-08-18T01:54:46.000Z</time>
      </trkpt>
      <trkpt lat="22.866706" lon="110.561486">
        <ele>102.700935</ele>
        <time>2026-08-18T01:54:47.000Z</time>
      </trkpt>
      <trkpt lat="22.866745" lon="110.561525">
        <ele>102.699708</ele>
        <time>2026-08-18T01:54:48.000Z</time>
      </trkpt>
      <trkpt lat="22.866783" lon="110.561562">
        <ele>102.698527</ele>
        <time>2026-08-18T01:54:49.000Z</time>
      </trkpt>
      <trkpt lat="22.866821" lon="110.561599">
        <ele>102.697346</ele>
        <time>2026-08-18T01:54:50.000Z</time>
      </trkpt>
      <trkpt lat="22.866856" lon="110.561639">
        <ele>102.696170</ele>
        <time>2026-08-18T01:54:51.000Z</time>
      </trkpt>
      <trkpt lat="22.866892" lon="110.561678">
        <ele>102.694993</ele>
        <time>2026-08-18T01:54:52.000Z</time>
      </trkpt>
      <trkpt lat="22.866926" lon="110.561715">
        <ele>102.693879</ele>
        <time>2026-08-18T01:54:53.000Z</time>
      </trkpt>
      <trkpt lat="22.866964" lon="110.561756">
        <ele>102.692639</ele>
        <time>2026-08-18T01:54:54.000Z</time>
      </trkpt>
      <trkpt lat="22.867000" lon="110.561794">
        <ele>102.691478</ele>
        <time>2026-08-18T01:54:55.000Z</time>
      </trkpt>
      <trkpt lat="22.867039" lon="110.561831">
        <ele>102.690279</ele>
        <time>2026-08-18T01:54:56.000Z</time>
      </trkpt>
      <trkpt lat="22.867075" lon="110.561869">
        <ele>102.715156</ele>
        <time>2026-08-18T01:54:57.000Z</time>
      </trkpt>
      <trkpt lat="22.867114" lon="110.561906">
        <ele>102.751829</ele>
        <time>2026-08-18T01:54:58.000Z</time>
      </trkpt>
      <trkpt lat="22.867152" lon="110.561942">
        <ele>102.787540</ele>
        <time>2026-08-18T01:54:59.000Z</time>
      </trkpt>
      <trkpt lat="22.867191" lon="110.561978">
        <ele>102.823787</ele>
        <time>2026-08-18T01:55:00.000Z</time>
      </trkpt>
      <trkpt lat="22.867229" lon="110.562014">
        <ele>102.859498</ele>
        <time>2026-08-18T01:55:01.000Z</time>
      </trkpt>
      <trkpt lat="22.867266" lon="110.562049">
        <ele>102.894246</ele>
        <time>2026-08-18T01:55:02.000Z</time>
      </trkpt>
      <trkpt lat="22.867302" lon="110.562084">
        <ele>102.928464</ele>
        <time>2026-08-18T01:55:03.000Z</time>
      </trkpt>
      <trkpt lat="22.867328" lon="110.562117">
        <ele>102.956788</ele>
        <time>2026-08-18T01:55:04.000Z</time>
      </trkpt>
      <trkpt lat="22.867354" lon="110.562149">
        <ele>102.984619</ele>
        <time>2026-08-18T01:55:05.000Z</time>
      </trkpt>
      <trkpt lat="22.867377" lon="110.562181">
        <ele>103.011094</ele>
        <time>2026-08-18T01:55:06.000Z</time>
      </trkpt>
      <trkpt lat="22.867402" lon="110.562212">
        <ele>103.037968</ele>
        <time>2026-08-18T01:55:07.000Z</time>
      </trkpt>
      <trkpt lat="22.867429" lon="110.562243">
        <ele>103.065794</ele>
        <time>2026-08-18T01:55:08.000Z</time>
      </trkpt>
      <trkpt lat="22.867452" lon="110.562273">
        <ele>103.091253</ele>
        <time>2026-08-18T01:55:09.000Z</time>
      </trkpt>
      <trkpt lat="22.867473" lon="110.562303">
        <ele>103.115830</ele>
        <time>2026-08-18T01:55:10.000Z</time>
      </trkpt>
      <trkpt lat="22.867498" lon="110.562332">
        <ele>103.141736</ele>
        <time>2026-08-18T01:55:11.000Z</time>
      </trkpt>
      <trkpt lat="22.867524" lon="110.562362">
        <ele>103.168603</ele>
        <time>2026-08-18T01:55:12.000Z</time>
      </trkpt>
      <trkpt lat="22.867552" lon="110.562392">
        <ele>103.196458</ele>
        <time>2026-08-18T01:55:13.000Z</time>
      </trkpt>
      <trkpt lat="22.867583" lon="110.562422">
        <ele>103.225863</ele>
        <time>2026-08-18T01:55:14.000Z</time>
      </trkpt>
      <trkpt lat="22.867612" lon="110.562453">
        <ele>103.254681</ele>
        <time>2026-08-18T01:55:15.000Z</time>
      </trkpt>
      <trkpt lat="22.867645" lon="110.562483">
        <ele>103.285158</ele>
        <time>2026-08-18T01:55:16.000Z</time>
      </trkpt>
      <trkpt lat="22.867678" lon="110.562515">
        <ele>103.316488</ele>
        <time>2026-08-18T01:55:17.000Z</time>
      </trkpt>
      <trkpt lat="22.867713" lon="110.562544">
        <ele>103.347663</ele>
        <time>2026-08-18T01:55:18.000Z</time>
      </trkpt>
      <trkpt lat="22.867746" lon="110.562571">
        <ele>103.376921</ele>
        <time>2026-08-18T01:55:19.000Z</time>
      </trkpt>
      <trkpt lat="22.867779" lon="110.562602">
        <ele>103.407820</ele>
        <time>2026-08-18T01:55:20.000Z</time>
      </trkpt>
      <trkpt lat="22.867813" lon="110.562635">
        <ele>103.440113</ele>
        <time>2026-08-18T01:55:21.000Z</time>
      </trkpt>
      <trkpt lat="22.867847" lon="110.562667">
        <ele>103.471975</ele>
        <time>2026-08-18T01:55:22.000Z</time>
      </trkpt>
      <trkpt lat="22.867880" lon="110.562702">
        <ele>103.504641</ele>
        <time>2026-08-18T01:55:23.000Z</time>
      </trkpt>
      <trkpt lat="22.867916" lon="110.562736">
        <ele>103.538428</ele>
        <time>2026-08-18T01:55:24.000Z</time>
      </trkpt>
      <trkpt lat="22.867949" lon="110.562769">
        <ele>103.570196</ele>
        <time>2026-08-18T01:55:25.000Z</time>
      </trkpt>
      <trkpt lat="22.867982" lon="110.562799">
        <ele>103.600673</ele>
        <time>2026-08-18T01:55:26.000Z</time>
      </trkpt>
      <trkpt lat="22.868016" lon="110.562831">
        <ele>103.632534</ele>
        <time>2026-08-18T01:55:27.000Z</time>
      </trkpt>
      <trkpt lat="22.868049" lon="110.562863">
        <ele>103.663864</ele>
        <time>2026-08-18T01:55:28.000Z</time>
      </trkpt>
      <trkpt lat="22.868087" lon="110.562896">
        <ele>103.698320</ele>
        <time>2026-08-18T01:55:29.000Z</time>
      </trkpt>
      <trkpt lat="22.868126" lon="110.562929">
        <ele>103.733331</ele>
        <time>2026-08-18T01:55:30.000Z</time>
      </trkpt>
      <trkpt lat="22.868163" lon="110.562961">
        <ele>103.766826</ele>
        <time>2026-08-18T01:55:31.000Z</time>
      </trkpt>
      <trkpt lat="22.868201" lon="110.562991">
        <ele>103.800093</ele>
        <time>2026-08-18T01:55:32.000Z</time>
      </trkpt>
      <trkpt lat="22.868239" lon="110.563019">
        <ele>103.832611</ele>
        <time>2026-08-18T01:55:33.000Z</time>
      </trkpt>
      <trkpt lat="22.868275" lon="110.563053">
        <ele>103.866397</ele>
        <time>2026-08-18T01:55:34.000Z</time>
      </trkpt>
      <trkpt lat="22.868310" lon="110.563086">
        <ele>103.899221</ele>
        <time>2026-08-18T01:55:35.000Z</time>
      </trkpt>
      <trkpt lat="22.868351" lon="110.563118">
        <ele>103.934974</ele>
        <time>2026-08-18T01:55:36.000Z</time>
      </trkpt>
      <trkpt lat="22.868386" lon="110.563158">
        <ele>103.966048</ele>
        <time>2026-08-18T01:55:37.000Z</time>
      </trkpt>
      <trkpt lat="22.868423" lon="110.563193">
        <ele>103.978425</ele>
        <time>2026-08-18T01:55:38.000Z</time>
      </trkpt>
      <trkpt lat="22.868461" lon="110.563227">
        <ele>103.990843</ele>
        <time>2026-08-18T01:55:39.000Z</time>
      </trkpt>
      <trkpt lat="22.868505" lon="110.563254">
        <ele>104.003589</ele>
        <time>2026-08-18T01:55:40.000Z</time>
      </trkpt>
      <trkpt lat="22.868532" lon="110.563292">
        <ele>104.014739</ele>
        <time>2026-08-18T01:55:41.000Z</time>
      </trkpt>
      <trkpt lat="22.868562" lon="110.563329">
        <ele>104.026190</ele>
        <time>2026-08-18T01:55:42.000Z</time>
      </trkpt>
      <trkpt lat="22.868595" lon="110.563364">
        <ele>104.037825</ele>
        <time>2026-08-18T01:55:43.000Z</time>
      </trkpt>
      <trkpt lat="22.868625" lon="110.563398">
        <ele>104.048763</ele>
        <time>2026-08-18T01:55:44.000Z</time>
      </trkpt>
      <trkpt lat="22.868658" lon="110.563433">
        <ele>104.060398</ele>
        <time>2026-08-18T01:55:45.000Z</time>
      </trkpt>
      <trkpt lat="22.868689" lon="110.563469">
        <ele>104.071847</ele>
        <time>2026-08-18T01:55:46.000Z</time>
      </trkpt>
      <trkpt lat="22.868721" lon="110.563506">
        <ele>104.083637</ele>
        <time>2026-08-18T01:55:47.000Z</time>
      </trkpt>
      <trkpt lat="22.868754" lon="110.563540">
        <ele>104.095111</ele>
        <time>2026-08-18T01:55:48.000Z</time>
      </trkpt>
      <trkpt lat="22.868786" lon="110.563579">
        <ele>104.107245</ele>
        <time>2026-08-18T01:55:49.000Z</time>
      </trkpt>
      <trkpt lat="22.868820" lon="110.563618">
        <ele>104.119719</ele>
        <time>2026-08-18T01:55:50.000Z</time>
      </trkpt>
      <trkpt lat="22.868852" lon="110.563658">
        <ele>104.132027</ele>
        <time>2026-08-18T01:55:51.000Z</time>
      </trkpt>
      <trkpt lat="22.868885" lon="110.563696">
        <ele>104.144160</ele>
        <time>2026-08-18T01:55:52.000Z</time>
      </trkpt>
      <trkpt lat="22.868917" lon="110.563733">
        <ele>104.155951</ele>
        <time>2026-08-18T01:55:53.000Z</time>
      </trkpt>
      <trkpt lat="22.868946" lon="110.563773">
        <ele>104.167777</ele>
        <time>2026-08-18T01:55:54.000Z</time>
      </trkpt>
      <trkpt lat="22.868979" lon="110.563811">
        <ele>104.179909</ele>
        <time>2026-08-18T01:55:55.000Z</time>
      </trkpt>
      <trkpt lat="22.869012" lon="110.563847">
        <ele>104.191708</ele>
        <time>2026-08-18T01:55:56.000Z</time>
      </trkpt>
      <trkpt lat="22.869044" lon="110.563884">
        <ele>104.203498</ele>
        <time>2026-08-18T01:55:57.000Z</time>
      </trkpt>
      <trkpt lat="22.869079" lon="110.563922">
        <ele>104.215982</ele>
        <time>2026-08-18T01:55:58.000Z</time>
      </trkpt>
      <trkpt lat="22.869110" lon="110.563959">
        <ele>104.227602</ele>
        <time>2026-08-18T01:55:59.000Z</time>
      </trkpt>
      <trkpt lat="22.869140" lon="110.563997">
        <ele>104.239228</ele>
        <time>2026-08-18T01:56:00.000Z</time>
      </trkpt>
      <trkpt lat="22.869170" lon="110.564036">
        <ele>104.251033</ele>
        <time>2026-08-18T01:56:01.000Z</time>
      </trkpt>
      <trkpt lat="22.869203" lon="110.564074">
        <ele>104.263165</ele>
        <time>2026-08-18T01:56:02.000Z</time>
      </trkpt>
      <trkpt lat="22.869232" lon="110.564111">
        <ele>104.274451</ele>
        <time>2026-08-18T01:56:03.000Z</time>
      </trkpt>
      <trkpt lat="22.869261" lon="110.564150">
        <ele>104.286096</ele>
        <time>2026-08-18T01:56:04.000Z</time>
      </trkpt>
      <trkpt lat="22.869288" lon="110.564196">
        <ele>104.298768</ele>
        <time>2026-08-18T01:56:05.000Z</time>
      </trkpt>
      <trkpt lat="22.869316" lon="110.564240">
        <ele>104.311192</ele>
        <time>2026-08-18T01:56:06.000Z</time>
      </trkpt>
      <trkpt lat="22.869344" lon="110.564282">
        <ele>104.323237</ele>
        <time>2026-08-18T01:56:07.000Z</time>
      </trkpt>
      <trkpt lat="22.869376" lon="110.564322">
        <ele>104.335545</ele>
        <time>2026-08-18T01:56:08.000Z</time>
      </trkpt>
      <trkpt lat="22.869407" lon="110.564363">
        <ele>104.347868</ele>
        <time>2026-08-18T01:56:09.000Z</time>
      </trkpt>
      <trkpt lat="22.869432" lon="110.564401">
        <ele>104.358717</ele>
        <time>2026-08-18T01:56:10.000Z</time>
      </trkpt>
      <trkpt lat="22.869458" lon="110.564442">
        <ele>104.370281</ele>
        <time>2026-08-18T01:56:11.000Z</time>
      </trkpt>
      <trkpt lat="22.869484" lon="110.564486">
        <ele>104.382426</ele>
        <time>2026-08-18T01:56:12.000Z</time>
      </trkpt>
      <trkpt lat="22.869511" lon="110.564528">
        <ele>104.394324</ele>
        <time>2026-08-18T01:56:13.000Z</time>
      </trkpt>
      <trkpt lat="22.869537" lon="110.564569">
        <ele>104.405889</ele>
        <time>2026-08-18T01:56:14.000Z</time>
      </trkpt>
      <trkpt lat="22.869564" lon="110.564611">
        <ele>104.422885</ele>
        <time>2026-08-18T01:56:15.000Z</time>
      </trkpt>
      <trkpt lat="22.869591" lon="110.564651">
        <ele>104.499620</ele>
        <time>2026-08-18T01:56:16.000Z</time>
      </trkpt>
      <trkpt lat="22.869617" lon="110.564692">
        <ele>104.576645</ele>
        <time>2026-08-18T01:56:17.000Z</time>
      </trkpt>
      <trkpt lat="22.869643" lon="110.564734">
        <ele>104.654950</ele>
        <time>2026-08-18T01:56:18.000Z</time>
      </trkpt>
      <trkpt lat="22.869666" lon="110.564780">
        <ele>104.735943</ele>
        <time>2026-08-18T01:56:19.000Z</time>
      </trkpt>
      <trkpt lat="22.869693" lon="110.564825">
        <ele>104.819046</ele>
        <time>2026-08-18T01:56:20.000Z</time>
      </trkpt>
      <trkpt lat="22.869718" lon="110.564869">
        <ele>104.899044</ele>
        <time>2026-08-18T01:56:21.000Z</time>
      </trkpt>
      <trkpt lat="22.869742" lon="110.564915">
        <ele>104.980851</ele>
        <time>2026-08-18T01:56:22.000Z</time>
      </trkpt>
      <trkpt lat="22.869768" lon="110.564961">
        <ele>105.064365</ele>
        <time>2026-08-18T01:56:23.000Z</time>
      </trkpt>
      <trkpt lat="22.869793" lon="110.565007">
        <ele>105.147013</ele>
        <time>2026-08-18T01:56:24.000Z</time>
      </trkpt>
      <trkpt lat="22.869821" lon="110.565054">
        <ele>105.233627</ele>
        <time>2026-08-18T01:56:25.000Z</time>
      </trkpt>
      <trkpt lat="22.869847" lon="110.565098">
        <ele>105.314519</ele>
        <time>2026-08-18T01:56:26.000Z</time>
      </trkpt>
      <trkpt lat="22.869874" lon="110.565142">
        <ele>105.396330</ele>
        <time>2026-08-18T01:56:27.000Z</time>
      </trkpt>
      <trkpt lat="22.869900" lon="110.565186">
        <ele>105.477222</ele>
        <time>2026-08-18T01:56:28.000Z</time>
      </trkpt>
      <trkpt lat="22.869926" lon="110.565232">
        <ele>105.560735</ele>
        <time>2026-08-18T01:56:29.000Z</time>
      </trkpt>
      <trkpt lat="22.869953" lon="110.565278">
        <ele>105.645140</ele>
        <time>2026-08-18T01:56:30.000Z</time>
      </trkpt>
      <trkpt lat="22.869980" lon="110.565323">
        <ele>105.728243</ele>
        <time>2026-08-18T01:56:31.000Z</time>
      </trkpt>
      <trkpt lat="22.870007" lon="110.565368">
        <ele>105.811346</ele>
        <time>2026-08-18T01:56:32.000Z</time>
      </trkpt>
      <trkpt lat="22.870033" lon="110.565414">
        <ele>105.894860</ele>
        <time>2026-08-18T01:56:33.000Z</time>
      </trkpt>
      <trkpt lat="22.870059" lon="110.565459">
        <ele>105.977058</ele>
        <time>2026-08-18T01:56:34.000Z</time>
      </trkpt>
      <trkpt lat="22.870084" lon="110.565503">
        <ele>106.057056</ele>
        <time>2026-08-18T01:56:35.000Z</time>
      </trkpt>
      <trkpt lat="22.870112" lon="110.565545">
        <ele>106.137282</ele>
        <time>2026-08-18T01:56:36.000Z</time>
      </trkpt>
      <trkpt lat="22.870138" lon="110.565588">
        <ele>106.216875</ele>
        <time>2026-08-18T01:56:37.000Z</time>
      </trkpt>
      <trkpt lat="22.870165" lon="110.565630">
        <ele>106.296129</ele>
        <time>2026-08-18T01:56:38.000Z</time>
      </trkpt>
      <trkpt lat="22.870187" lon="110.565672">
        <ele>106.370894</ele>
        <time>2026-08-18T01:56:39.000Z</time>
      </trkpt>
      <trkpt lat="22.870206" lon="110.565714">
        <ele>106.443302</ele>
        <time>2026-08-18T01:56:40.000Z</time>
      </trkpt>
      <trkpt lat="22.870226" lon="110.565754">
        <ele>106.513731</ele>
        <time>2026-08-18T01:56:41.000Z</time>
      </trkpt>
      <trkpt lat="22.870245" lon="110.565791">
        <ele>106.579282</ele>
        <time>2026-08-18T01:56:42.000Z</time>
      </trkpt>
      <trkpt lat="22.870263" lon="110.565825">
        <ele>106.639966</ele>
        <time>2026-08-18T01:56:43.000Z</time>
      </trkpt>
      <trkpt lat="22.870280" lon="110.565859">
        <ele>106.699830</ele>
        <time>2026-08-18T01:56:44.000Z</time>
      </trkpt>
      <trkpt lat="22.870296" lon="110.565893">
        <ele>106.758912</ele>
        <time>2026-08-18T01:56:45.000Z</time>
      </trkpt>
      <trkpt lat="22.870312" lon="110.565922">
        <ele>106.811221</ele>
        <time>2026-08-18T01:56:46.000Z</time>
      </trkpt>
      <trkpt lat="22.870328" lon="110.565950">
        <ele>106.862209</ele>
        <time>2026-08-18T01:56:47.000Z</time>
      </trkpt>
      <trkpt lat="22.870344" lon="110.565977">
        <ele>106.911888</ele>
        <time>2026-08-18T01:56:48.000Z</time>
      </trkpt>
      <trkpt lat="22.870357" lon="110.566002">
        <ele>106.956313</ele>
        <time>2026-08-18T01:56:49.000Z</time>
      </trkpt>
      <trkpt lat="22.870370" lon="110.566026">
        <ele>106.999396</ele>
        <time>2026-08-18T01:56:50.000Z</time>
      </trkpt>
      <trkpt lat="22.870382" lon="110.566053">
        <ele>107.045787</ele>
        <time>2026-08-18T01:56:51.000Z</time>
      </trkpt>
      <trkpt lat="22.870394" lon="110.566078">
        <ele>107.089410</ele>
        <time>2026-08-18T01:56:52.000Z</time>
      </trkpt>
      <trkpt lat="22.870405" lon="110.566102">
        <ele>107.130893</ele>
        <time>2026-08-18T01:56:53.000Z</time>
      </trkpt>
      <trkpt lat="22.870419" lon="110.566124">
        <ele>107.172269</ele>
        <time>2026-08-18T01:56:54.000Z</time>
      </trkpt>
      <trkpt lat="22.870428" lon="110.566151">
        <ele>107.216703</ele>
        <time>2026-08-18T01:56:55.000Z</time>
      </trkpt>
      <trkpt lat="22.870437" lon="110.566179">
        <ele>107.262595</ele>
        <time>2026-08-18T01:56:56.000Z</time>
      </trkpt>
      <trkpt lat="22.870449" lon="110.566205">
        <ele>107.307597</ele>
        <time>2026-08-18T01:56:57.000Z</time>
      </trkpt>
      <trkpt lat="22.870464" lon="110.566231">
        <ele>107.355069</ele>
        <time>2026-08-18T01:56:58.000Z</time>
      </trkpt>
      <trkpt lat="22.870476" lon="110.566257">
        <ele>107.400071</ele>
        <time>2026-08-18T01:56:59.000Z</time>
      </trkpt>
      <trkpt lat="22.870488" lon="110.566282">
        <ele>107.444171</ele>
        <time>2026-08-18T01:57:00.000Z</time>
      </trkpt>
      <trkpt lat="22.870501" lon="110.566308">
        <ele>107.493675</ele>
        <time>2026-08-18T01:57:01.000Z</time>
      </trkpt>
      <trkpt lat="22.870514" lon="110.566336">
        <ele>107.546144</ele>
        <time>2026-08-18T01:57:02.000Z</time>
      </trkpt>
      <trkpt lat="22.870530" lon="110.566365">
        <ele>107.602710</ele>
        <time>2026-08-18T01:57:03.000Z</time>
      </trkpt>
      <trkpt lat="22.870547" lon="110.566397">
        <ele>107.664525</ele>
        <time>2026-08-18T01:57:04.000Z</time>
      </trkpt>
      <trkpt lat="22.870561" lon="110.566431">
        <ele>107.726846</ele>
        <time>2026-08-18T01:57:05.000Z</time>
      </trkpt>
      <trkpt lat="22.870575" lon="110.566462">
        <ele>107.784620</ele>
        <time>2026-08-18T01:57:06.000Z</time>
      </trkpt>
      <trkpt lat="22.870589" lon="110.566494">
        <ele>107.843901</ele>
        <time>2026-08-18T01:57:07.000Z</time>
      </trkpt>
      <trkpt lat="22.870606" lon="110.566526">
        <ele>107.905715</ele>
        <time>2026-08-18T01:57:08.000Z</time>
      </trkpt>
      <trkpt lat="22.870622" lon="110.566560">
        <ele>107.969605</ele>
        <time>2026-08-18T01:57:09.000Z</time>
      </trkpt>
      <trkpt lat="22.870638" lon="110.566594">
        <ele>108.033494</ele>
        <time>2026-08-18T01:57:10.000Z</time>
      </trkpt>
      <trkpt lat="22.870653" lon="110.566628">
        <ele>108.096578</ele>
        <time>2026-08-18T01:57:11.000Z</time>
      </trkpt>
      <trkpt lat="22.870666" lon="110.566664">
        <ele>108.161284</ele>
        <time>2026-08-18T01:57:12.000Z</time>
      </trkpt>
      <trkpt lat="22.870681" lon="110.566700">
        <ele>108.227403</ele>
        <time>2026-08-18T01:57:13.000Z</time>
      </trkpt>
      <trkpt lat="22.870696" lon="110.566738">
        <ele>108.296585</ele>
        <time>2026-08-18T01:57:14.000Z</time>
      </trkpt>
      <trkpt lat="22.870712" lon="110.566776">
        <ele>108.366501</ele>
        <time>2026-08-18T01:57:15.000Z</time>
      </trkpt>
      <trkpt lat="22.870727" lon="110.566814">
        <ele>108.435683</ele>
        <time>2026-08-18T01:57:16.000Z</time>
      </trkpt>
      <trkpt lat="22.870743" lon="110.566852">
        <ele>108.505600</ele>
        <time>2026-08-18T01:57:17.000Z</time>
      </trkpt>
      <trkpt lat="22.870758" lon="110.566891">
        <ele>108.576323</ele>
        <time>2026-08-18T01:57:18.000Z</time>
      </trkpt>
      <trkpt lat="22.870774" lon="110.566932">
        <ele>108.650835</ele>
        <time>2026-08-18T01:57:19.000Z</time>
      </trkpt>
      <trkpt lat="22.870791" lon="110.566973">
        <ele>108.726075</ele>
        <time>2026-08-18T01:57:20.000Z</time>
      </trkpt>
      <trkpt lat="22.870808" lon="110.567013">
        <ele>108.799791</ele>
        <time>2026-08-18T01:57:21.000Z</time>
      </trkpt>
      <trkpt lat="22.870826" lon="110.567053">
        <ele>108.874286</ele>
        <time>2026-08-18T01:57:22.000Z</time>
      </trkpt>
      <trkpt lat="22.870843" lon="110.567093">
        <ele>108.948003</ele>
        <time>2026-08-18T01:57:23.000Z</time>
      </trkpt>
      <trkpt lat="22.870858" lon="110.567133">
        <ele>109.020273</ele>
        <time>2026-08-18T01:57:24.000Z</time>
      </trkpt>
      <trkpt lat="22.870875" lon="110.567171">
        <ele>109.090964</ele>
        <time>2026-08-18T01:57:25.000Z</time>
      </trkpt>
      <trkpt lat="22.870893" lon="110.567209">
        <ele>109.162467</ele>
        <time>2026-08-18T01:57:26.000Z</time>
      </trkpt>
      <trkpt lat="22.870913" lon="110.567246">
        <ele>109.234254</ele>
        <time>2026-08-18T01:57:27.000Z</time>
      </trkpt>
      <trkpt lat="22.870935" lon="110.567281">
        <ele>109.305157</ele>
        <time>2026-08-18T01:57:28.000Z</time>
      </trkpt>
      <trkpt lat="22.870957" lon="110.567313">
        <ele>109.371972</ele>
        <time>2026-08-18T01:57:29.000Z</time>
      </trkpt>
      <trkpt lat="22.870983" lon="110.567345">
        <ele>109.443370</ele>
        <time>2026-08-18T01:57:30.000Z</time>
      </trkpt>
      <trkpt lat="22.871014" lon="110.567373">
        <ele>109.516620</ele>
        <time>2026-08-18T01:57:31.000Z</time>
      </trkpt>
      <trkpt lat="22.871043" lon="110.567399">
        <ele>109.584939</ele>
        <time>2026-08-18T01:57:32.000Z</time>
      </trkpt>
      <trkpt lat="22.871074" lon="110.567426">
        <ele>109.657130</ele>
        <time>2026-08-18T01:57:33.000Z</time>
      </trkpt>
      <trkpt lat="22.871104" lon="110.567453">
        <ele>109.727915</ele>
        <time>2026-08-18T01:57:34.000Z</time>
      </trkpt>
      <trkpt lat="22.871131" lon="110.567487">
        <ele>109.803029</ele>
        <time>2026-08-18T01:57:35.000Z</time>
      </trkpt>
      <trkpt lat="22.871160" lon="110.567513">
        <ele>109.871347</ele>
        <time>2026-08-18T01:57:36.000Z</time>
      </trkpt>
      <trkpt lat="22.871193" lon="110.567536">
        <ele>109.942578</ele>
        <time>2026-08-18T01:57:37.000Z</time>
      </trkpt>
      <trkpt lat="22.871221" lon="110.567564">
        <ele>110.011728</ele>
        <time>2026-08-18T01:57:38.000Z</time>
      </trkpt>
      <trkpt lat="22.871247" lon="110.567593">
        <ele>110.079442</ele>
        <time>2026-08-18T01:57:39.000Z</time>
      </trkpt>
      <trkpt lat="22.871269" lon="110.567625">
        <ele>110.146257</ele>
        <time>2026-08-18T01:57:40.000Z</time>
      </trkpt>
      <trkpt lat="22.871294" lon="110.567657">
        <ele>110.216467</ele>
        <time>2026-08-18T01:57:41.000Z</time>
      </trkpt>
      <trkpt lat="22.871325" lon="110.567684">
        <ele>110.288658</ele>
        <time>2026-08-18T01:57:42.000Z</time>
      </trkpt>
      <trkpt lat="22.871343" lon="110.567709">
        <ele>110.341753</ele>
        <time>2026-08-18T01:57:43.000Z</time>
      </trkpt>
      <trkpt lat="22.871371" lon="110.567734">
        <ele>110.407606</ele>
        <time>2026-08-18T01:57:44.000Z</time>
      </trkpt>
      <trkpt lat="22.871398" lon="110.567756">
        <ele>110.468926</ele>
        <time>2026-08-18T01:57:45.000Z</time>
      </trkpt>
      <trkpt lat="22.871423" lon="110.567781">
        <ele>110.530668</ele>
        <time>2026-08-18T01:57:46.000Z</time>
      </trkpt>
      <trkpt lat="22.871444" lon="110.567805">
        <ele>110.586056</ele>
        <time>2026-08-18T01:57:47.000Z</time>
      </trkpt>
      <trkpt lat="22.871467" lon="110.567830">
        <ele>110.645177</ele>
        <time>2026-08-18T01:57:48.000Z</time>
      </trkpt>
      <trkpt lat="22.871497" lon="110.567849">
        <ele>110.705463</ele>
        <time>2026-08-18T01:57:49.000Z</time>
      </trkpt>
      <trkpt lat="22.871522" lon="110.567872">
        <ele>110.719134</ele>
        <time>2026-08-18T01:57:50.000Z</time>
      </trkpt>
      <trkpt lat="22.871547" lon="110.567892">
        <ele>110.732090</ele>
        <time>2026-08-18T01:57:51.000Z</time>
      </trkpt>
      <trkpt lat="22.871574" lon="110.567913">
        <ele>110.745946</ele>
        <time>2026-08-18T01:57:52.000Z</time>
      </trkpt>
      <trkpt lat="22.871604" lon="110.567936">
        <ele>110.761267</ele>
        <time>2026-08-18T01:57:53.000Z</time>
      </trkpt>
      <trkpt lat="22.871632" lon="110.567959">
        <ele>110.775915</ele>
        <time>2026-08-18T01:57:54.000Z</time>
      </trkpt>
      <trkpt lat="22.871660" lon="110.567983">
        <ele>110.790799</ele>
        <time>2026-08-18T01:57:55.000Z</time>
      </trkpt>
      <trkpt lat="22.871687" lon="110.568004">
        <ele>110.804655</ele>
        <time>2026-08-18T01:57:56.000Z</time>
      </trkpt>
      <trkpt lat="22.871718" lon="110.568028">
        <ele>110.820539</ele>
        <time>2026-08-18T01:57:57.000Z</time>
      </trkpt>
      <trkpt lat="22.871742" lon="110.568048">
        <ele>110.833161</ele>
        <time>2026-08-18T01:57:58.000Z</time>
      </trkpt>
      <trkpt lat="22.871766" lon="110.568071">
        <ele>110.846517</ele>
        <time>2026-08-18T01:57:59.000Z</time>
      </trkpt>
      <trkpt lat="22.871793" lon="110.568093">
        <ele>110.860600</ele>
        <time>2026-08-18T01:58:00.000Z</time>
      </trkpt>
      <trkpt lat="22.871818" lon="110.568112">
        <ele>110.873331</ele>
        <time>2026-08-18T01:58:01.000Z</time>
      </trkpt>
      <trkpt lat="22.871843" lon="110.568133">
        <ele>110.886519</ele>
        <time>2026-08-18T01:58:02.000Z</time>
      </trkpt>
      <trkpt lat="22.871868" lon="110.568154">
        <ele>110.899706</ele>
        <time>2026-08-18T01:58:03.000Z</time>
      </trkpt>
      <trkpt lat="22.871892" lon="110.568172">
        <ele>110.911875</ele>
        <time>2026-08-18T01:58:04.000Z</time>
      </trkpt>
      <trkpt lat="22.871921" lon="110.568193">
        <ele>110.926417</ele>
        <time>2026-08-18T01:58:05.000Z</time>
      </trkpt>
      <trkpt lat="22.871952" lon="110.568214">
        <ele>110.941661</ele>
        <time>2026-08-18T01:58:06.000Z</time>
      </trkpt>
      <trkpt lat="22.871979" lon="110.568235">
        <ele>110.955517</ele>
        <time>2026-08-18T01:58:07.000Z</time>
      </trkpt>
      <trkpt lat="22.872004" lon="110.568256">
        <ele>110.968704</ele>
        <time>2026-08-18T01:58:08.000Z</time>
      </trkpt>
      <trkpt lat="22.872033" lon="110.568279">
        <ele>110.983687</ele>
        <time>2026-08-18T01:58:09.000Z</time>
      </trkpt>
      <trkpt lat="22.872060" lon="110.568302">
        <ele>110.998005</ele>
        <time>2026-08-18T01:58:10.000Z</time>
      </trkpt>
      <trkpt lat="22.872083" lon="110.568326">
        <ele>111.011314</ele>
        <time>2026-08-18T01:58:11.000Z</time>
      </trkpt>
      <trkpt lat="22.872105" lon="110.568350">
        <ele>111.024326</ele>
        <time>2026-08-18T01:58:12.000Z</time>
      </trkpt>
      <trkpt lat="22.872127" lon="110.568376">
        <ele>111.037893</ele>
        <time>2026-08-18T01:58:13.000Z</time>
      </trkpt>
      <trkpt lat="22.872149" lon="110.568401">
        <ele>111.051180</ele>
        <time>2026-08-18T01:58:14.000Z</time>
      </trkpt>
      <trkpt lat="22.872170" lon="110.568425">
        <ele>111.063901</ele>
        <time>2026-08-18T01:58:15.000Z</time>
      </trkpt>
      <trkpt lat="22.872188" lon="110.568448">
        <ele>111.075499</ele>
        <time>2026-08-18T01:58:16.000Z</time>
      </trkpt>
      <trkpt lat="22.872208" lon="110.568474">
        <ele>111.088517</ele>
        <time>2026-08-18T01:58:17.000Z</time>
      </trkpt>
      <trkpt lat="22.872227" lon="110.568501">
        <ele>111.101575</ele>
        <time>2026-08-18T01:58:18.000Z</time>
      </trkpt>
      <trkpt lat="22.872247" lon="110.568527">
        <ele>111.114593</ele>
        <time>2026-08-18T01:58:19.000Z</time>
      </trkpt>
      <trkpt lat="22.872266" lon="110.568555">
        <ele>111.127958</ele>
        <time>2026-08-18T01:58:20.000Z</time>
      </trkpt>
      <trkpt lat="22.872285" lon="110.568580">
        <ele>111.140413</ele>
        <time>2026-08-18T01:58:21.000Z</time>
      </trkpt>
      <trkpt lat="22.872305" lon="110.568607">
        <ele>111.153728</ele>
        <time>2026-08-18T01:58:22.000Z</time>
      </trkpt>
      <trkpt lat="22.872326" lon="110.568639">
        <ele>111.168828</ele>
        <time>2026-08-18T01:58:23.000Z</time>
      </trkpt>
      <trkpt lat="22.872350" lon="110.568674">
        <ele>111.185597</ele>
        <time>2026-08-18T01:58:24.000Z</time>
      </trkpt>
      <trkpt lat="22.872373" lon="110.568711">
        <ele>111.202751</ele>
        <time>2026-08-18T01:58:25.000Z</time>
      </trkpt>
      <trkpt lat="22.872395" lon="110.568751">
        <ele>111.220656</ele>
        <time>2026-08-18T01:58:26.000Z</time>
      </trkpt>
      <trkpt lat="22.872420" lon="110.568791">
        <ele>111.239233</ele>
        <time>2026-08-18T01:58:27.000Z</time>
      </trkpt>
      <trkpt lat="22.872445" lon="110.568834">
        <ele>111.258775</ele>
        <time>2026-08-18T01:58:28.000Z</time>
      </trkpt>
      <trkpt lat="22.872473" lon="110.568878">
        <ele>111.279327</ele>
        <time>2026-08-18T01:58:29.000Z</time>
      </trkpt>
      <trkpt lat="22.872503" lon="110.568920">
        <ele>111.299752</ele>
        <time>2026-08-18T01:58:30.000Z</time>
      </trkpt>
      <trkpt lat="22.872536" lon="110.568962">
        <ele>111.320967</ele>
        <time>2026-08-18T01:58:31.000Z</time>
      </trkpt>
      <trkpt lat="22.872567" lon="110.569008">
        <ele>111.342871</ele>
        <time>2026-08-18T01:58:32.000Z</time>
      </trkpt>
      <trkpt lat="22.872602" lon="110.569054">
        <ele>111.365800</ele>
        <time>2026-08-18T01:58:33.000Z</time>
      </trkpt>
      <trkpt lat="22.872640" lon="110.569101">
        <ele>111.389833</ele>
        <time>2026-08-18T01:58:34.000Z</time>
      </trkpt>
      <trkpt lat="22.872678" lon="110.569150">
        <ele>111.414449</ele>
        <time>2026-08-18T01:58:35.000Z</time>
      </trkpt>
      <trkpt lat="22.872714" lon="110.569198">
        <ele>111.438236</ele>
        <time>2026-08-18T01:58:36.000Z</time>
      </trkpt>
      <trkpt lat="22.872749" lon="110.569248">
        <ele>111.435463</ele>
        <time>2026-08-18T01:58:37.000Z</time>
      </trkpt>
      <trkpt lat="22.872785" lon="110.569300">
        <ele>111.370221</ele>
        <time>2026-08-18T01:58:38.000Z</time>
      </trkpt>
      <trkpt lat="22.872824" lon="110.569349">
        <ele>111.305272</ele>
        <time>2026-08-18T01:58:39.000Z</time>
      </trkpt>
      <trkpt lat="22.872861" lon="110.569396">
        <ele>111.243264</ele>
        <time>2026-08-18T01:58:40.000Z</time>
      </trkpt>
      <trkpt lat="22.872898" lon="110.569443">
        <ele>111.181256</ele>
        <time>2026-08-18T01:58:41.000Z</time>
      </trkpt>
      <trkpt lat="22.872936" lon="110.569487">
        <ele>111.120764</ele>
        <time>2026-08-18T01:58:42.000Z</time>
      </trkpt>
      <trkpt lat="22.872979" lon="110.569529">
        <ele>111.057787</ele>
        <time>2026-08-18T01:58:43.000Z</time>
      </trkpt>
      <trkpt lat="22.873018" lon="110.569573">
        <ele>110.996546</ele>
        <time>2026-08-18T01:58:44.000Z</time>
      </trkpt>
      <trkpt lat="22.873059" lon="110.569612">
        <ele>110.937194</ele>
        <time>2026-08-18T01:58:45.000Z</time>
      </trkpt>
      <trkpt lat="22.873102" lon="110.569648">
        <ele>110.878073</ele>
        <time>2026-08-18T01:58:46.000Z</time>
      </trkpt>
      <trkpt lat="22.873149" lon="110.569679">
        <ele>110.818199</ele>
        <time>2026-08-18T01:58:47.000Z</time>
      </trkpt>
      <trkpt lat="22.873202" lon="110.569707">
        <ele>110.754028</ele>
        <time>2026-08-18T01:58:48.000Z</time>
      </trkpt>
      <trkpt lat="22.873257" lon="110.569727">
        <ele>110.690880</ele>
        <time>2026-08-18T01:58:49.000Z</time>
      </trkpt>
      <trkpt lat="22.873312" lon="110.569747">
        <ele>110.627733</ele>
        <time>2026-08-18T01:58:50.000Z</time>
      </trkpt>
      <trkpt lat="22.873366" lon="110.569768">
        <ele>110.565286</ele>
        <time>2026-08-18T01:58:51.000Z</time>
      </trkpt>
      <trkpt lat="22.873421" lon="110.569785">
        <ele>110.503029</ele>
        <time>2026-08-18T01:58:52.000Z</time>
      </trkpt>
      <trkpt lat="22.873476" lon="110.569803">
        <ele>110.440490</ele>
        <time>2026-08-18T01:58:53.000Z</time>
      </trkpt>
      <trkpt lat="22.873532" lon="110.569821">
        <ele>110.376908</ele>
        <time>2026-08-18T01:58:54.000Z</time>
      </trkpt>
      <trkpt lat="22.873589" lon="110.569838">
        <ele>110.312554</ele>
        <time>2026-08-18T01:58:55.000Z</time>
      </trkpt>
      <trkpt lat="22.873647" lon="110.569858">
        <ele>110.246302</ele>
        <time>2026-08-18T01:58:56.000Z</time>
      </trkpt>
      <trkpt lat="22.873705" lon="110.569875">
        <ele>110.180898</ele>
        <time>2026-08-18T01:58:57.000Z</time>
      </trkpt>
      <trkpt lat="22.873763" lon="110.569894">
        <ele>110.114942</ele>
        <time>2026-08-18T01:58:58.000Z</time>
      </trkpt>
      <trkpt lat="22.873820" lon="110.569913">
        <ele>110.050028</ele>
        <time>2026-08-18T01:58:59.000Z</time>
      </trkpt>
      <trkpt lat="22.873876" lon="110.569931">
        <ele>109.986446</ele>
        <time>2026-08-18T01:59:00.000Z</time>
      </trkpt>
      <trkpt lat="22.873933" lon="110.569950">
        <ele>109.921532</ele>
        <time>2026-08-18T01:59:01.000Z</time>
      </trkpt>
      <trkpt lat="22.873992" lon="110.569971">
        <ele>109.853936</ele>
        <time>2026-08-18T01:59:02.000Z</time>
      </trkpt>
      <trkpt lat="22.874049" lon="110.569990">
        <ele>109.789022</ele>
        <time>2026-08-18T01:59:03.000Z</time>
      </trkpt>
      <trkpt lat="22.874104" lon="110.570011">
        <ele>109.725549</ele>
        <time>2026-08-18T01:59:04.000Z</time>
      </trkpt>
      <trkpt lat="22.874156" lon="110.570034">
        <ele>109.664418</ele>
        <time>2026-08-18T01:59:05.000Z</time>
      </trkpt>
      <trkpt lat="22.874212" lon="110.570055">
        <ele>109.599917</ele>
        <time>2026-08-18T01:59:06.000Z</time>
      </trkpt>
      <trkpt lat="22.874268" lon="110.570076">
        <ele>109.535416</ele>
        <time>2026-08-18T01:59:07.000Z</time>
      </trkpt>
      <trkpt lat="22.874323" lon="110.570097">
        <ele>109.479075</ele>
        <time>2026-08-18T01:59:08.000Z</time>
      </trkpt>
      <trkpt lat="22.874379" lon="110.570118">
        <ele>109.433072</ele>
        <time>2026-08-18T01:59:09.000Z</time>
      </trkpt>
      <trkpt lat="22.874434" lon="110.570140">
        <ele>109.387560</ele>
        <time>2026-08-18T01:59:10.000Z</time>
      </trkpt>
      <trkpt lat="22.874490" lon="110.570161">
        <ele>109.341557</ele>
        <time>2026-08-18T01:59:11.000Z</time>
      </trkpt>
      <trkpt lat="22.874545" lon="110.570184">
        <ele>109.295793</ele>
        <time>2026-08-18T01:59:12.000Z</time>
      </trkpt>
      <trkpt lat="22.874599" lon="110.570207">
        <ele>109.250752</ele>
        <time>2026-08-18T01:59:13.000Z</time>
      </trkpt>
      <trkpt lat="22.874651" lon="110.570232">
        <ele>109.206593</ele>
        <time>2026-08-18T01:59:14.000Z</time>
      </trkpt>
      <trkpt lat="22.874704" lon="110.570258">
        <ele>109.161433</ele>
        <time>2026-08-18T01:59:15.000Z</time>
      </trkpt>
      <trkpt lat="22.874758" lon="110.570279">
        <ele>109.116895</ele>
        <time>2026-08-18T01:59:16.000Z</time>
      </trkpt>
      <trkpt lat="22.874813" lon="110.570301">
        <ele>109.071383</ele>
        <time>2026-08-18T01:59:17.000Z</time>
      </trkpt>
      <trkpt lat="22.874865" lon="110.570323">
        <ele>109.028049</ele>
        <time>2026-08-18T01:59:18.000Z</time>
      </trkpt>
      <trkpt lat="22.874917" lon="110.570345">
        <ele>108.984715</ele>
        <time>2026-08-18T01:59:19.000Z</time>
      </trkpt>
      <trkpt lat="22.874968" lon="110.570367">
        <ele>108.942104</ele>
        <time>2026-08-18T01:59:20.000Z</time>
      </trkpt>
      <trkpt lat="22.875020" lon="110.570390">
        <ele>108.898505</ele>
        <time>2026-08-18T01:59:21.000Z</time>
      </trkpt>
      <trkpt lat="22.875071" lon="110.570415">
        <ele>108.855055</ele>
        <time>2026-08-18T01:59:22.000Z</time>
      </trkpt>
      <trkpt lat="22.875121" lon="110.570442">
        <ele>108.811693</ele>
        <time>2026-08-18T01:59:23.000Z</time>
      </trkpt>
      <trkpt lat="22.875171" lon="110.570468">
        <ele>108.768645</ele>
        <time>2026-08-18T01:59:24.000Z</time>
      </trkpt>
      <trkpt lat="22.875222" lon="110.570495">
        <ele>108.724587</ele>
        <time>2026-08-18T01:59:25.000Z</time>
      </trkpt>
      <trkpt lat="22.875272" lon="110.570519">
        <ele>108.682138</ele>
        <time>2026-08-18T01:59:26.000Z</time>
      </trkpt>
      <trkpt lat="22.875322" lon="110.570544">
        <ele>108.639394</ele>
        <time>2026-08-18T01:59:27.000Z</time>
      </trkpt>
      <trkpt lat="22.875373" lon="110.570571">
        <ele>108.595336</ele>
        <time>2026-08-18T01:59:28.000Z</time>
      </trkpt>
      <trkpt lat="22.875423" lon="110.570597">
        <ele>108.552288</ele>
        <time>2026-08-18T01:59:29.000Z</time>
      </trkpt>
      <trkpt lat="22.875474" lon="110.570622">
        <ele>108.508838</ele>
        <time>2026-08-18T01:59:30.000Z</time>
      </trkpt>
      <trkpt lat="22.875524" lon="110.570649">
        <ele>108.465477</ele>
        <time>2026-08-18T01:59:31.000Z</time>
      </trkpt>
      <trkpt lat="22.875574" lon="110.570678">
        <ele>108.421459</ele>
        <time>2026-08-18T01:59:32.000Z</time>
      </trkpt>
      <trkpt lat="22.875619" lon="110.570710">
        <ele>108.379688</ele>
        <time>2026-08-18T01:59:33.000Z</time>
      </trkpt>
      <trkpt lat="22.875662" lon="110.570745">
        <ele>108.337955</ele>
        <time>2026-08-18T01:59:34.000Z</time>
      </trkpt>
      <trkpt lat="22.875706" lon="110.570781">
        <ele>108.295172</ele>
        <time>2026-08-18T01:59:35.000Z</time>
      </trkpt>
      <trkpt lat="22.875753" lon="110.570819">
        <ele>108.249667</ele>
        <time>2026-08-18T01:59:36.000Z</time>
      </trkpt>
      <trkpt lat="22.875800" lon="110.570856">
        <ele>108.204586</ele>
        <time>2026-08-18T01:59:37.000Z</time>
      </trkpt>
      <trkpt lat="22.875846" lon="110.570894">
        <ele>108.159701</ele>
        <time>2026-08-18T01:59:38.000Z</time>
      </trkpt>
      <trkpt lat="22.875891" lon="110.570932">
        <ele>108.115432</ele>
        <time>2026-08-18T01:59:39.000Z</time>
      </trkpt>
      <trkpt lat="22.875936" lon="110.570970">
        <ele>108.049052</ele>
        <time>2026-08-18T01:59:40.000Z</time>
      </trkpt>
      <trkpt lat="22.875982" lon="110.571009">
        <ele>107.969303</ele>
        <time>2026-08-18T01:59:41.000Z</time>
      </trkpt>
      <trkpt lat="22.876028" lon="110.571048">
        <ele>107.889554</ele>
        <time>2026-08-18T01:59:42.000Z</time>
      </trkpt>
      <trkpt lat="22.876073" lon="110.571088">
        <ele>107.810086</ele>
        <time>2026-08-18T01:59:43.000Z</time>
      </trkpt>
      <trkpt lat="22.876117" lon="110.571128">
        <ele>107.731670</ele>
        <time>2026-08-18T01:59:44.000Z</time>
      </trkpt>
      <trkpt lat="22.876162" lon="110.571167">
        <ele>107.652993</ele>
        <time>2026-08-18T01:59:45.000Z</time>
      </trkpt>
      <trkpt lat="22.876210" lon="110.571206">
        <ele>107.571074</ele>
        <time>2026-08-18T01:59:46.000Z</time>
      </trkpt>
      <trkpt lat="22.876256" lon="110.571244">
        <ele>107.492094</ele>
        <time>2026-08-18T01:59:47.000Z</time>
      </trkpt>
      <trkpt lat="22.876304" lon="110.571284">
        <ele>107.409414</ele>
        <time>2026-08-18T01:59:48.000Z</time>
      </trkpt>
      <trkpt lat="22.876350" lon="110.571324">
        <ele>107.328884</ele>
        <time>2026-08-18T01:59:49.000Z</time>
      </trkpt>
      <trkpt lat="22.876399" lon="110.571364">
        <ele>107.245116</ele>
        <time>2026-08-18T01:59:50.000Z</time>
      </trkpt>
      <trkpt lat="22.876447" lon="110.571404">
        <ele>107.162436</ele>
        <time>2026-08-18T01:59:51.000Z</time>
      </trkpt>
      <trkpt lat="22.876495" lon="110.571445">
        <ele>107.078984</ele>
        <time>2026-08-18T01:59:52.000Z</time>
      </trkpt>
      <trkpt lat="22.876546" lon="110.571489">
        <ele>106.989974</ele>
        <time>2026-08-18T01:59:53.000Z</time>
      </trkpt>
      <trkpt lat="22.876595" lon="110.571532">
        <ele>106.903883</ele>
        <time>2026-08-18T01:59:54.000Z</time>
      </trkpt>
      <trkpt lat="22.876643" lon="110.571572">
        <ele>106.821203</ele>
        <time>2026-08-18T01:59:55.000Z</time>
      </trkpt>
      <trkpt lat="22.876692" lon="110.571613">
        <ele>106.736673</ele>
        <time>2026-08-18T01:59:56.000Z</time>
      </trkpt>
      <trkpt lat="22.876741" lon="110.571654">
        <ele>106.652143</ele>
        <time>2026-08-18T01:59:57.000Z</time>
      </trkpt>
      <trkpt lat="22.876789" lon="110.571696">
        <ele>106.567906</ele>
        <time>2026-08-18T01:59:58.000Z</time>
      </trkpt>
      <trkpt lat="22.876838" lon="110.571738">
        <ele>106.482602</ele>
        <time>2026-08-18T01:59:59.000Z</time>
      </trkpt>
      <trkpt lat="22.876889" lon="110.571779">
        <ele>106.395891</ele>
        <time>2026-08-18T02:00:00.000Z</time>
      </trkpt>
      <trkpt lat="22.876940" lon="110.571819">
        <ele>106.309924</ele>
        <time>2026-08-18T02:00:01.000Z</time>
      </trkpt>
      <trkpt lat="22.876989" lon="110.571864">
        <ele>106.222229</ele>
        <time>2026-08-18T02:00:02.000Z</time>
      </trkpt>
      <trkpt lat="22.877039" lon="110.571909">
        <ele>106.133486</ele>
        <time>2026-08-18T02:00:03.000Z</time>
      </trkpt>
      <trkpt lat="22.877081" lon="110.571954">
        <ele>106.052855</ele>
        <time>2026-08-18T02:00:04.000Z</time>
      </trkpt>
      <trkpt lat="22.877126" lon="110.572001">
        <ele>105.967532</ele>
        <time>2026-08-18T02:00:05.000Z</time>
      </trkpt>
      <trkpt lat="22.877171" lon="110.572049">
        <ele>105.881330</ele>
        <time>2026-08-18T02:00:06.000Z</time>
      </trkpt>
      <trkpt lat="22.877215" lon="110.572096">
        <ele>105.796986</ele>
        <time>2026-08-18T02:00:07.000Z</time>
      </trkpt>
      <trkpt lat="22.877260" lon="110.572142">
        <ele>105.712530</ele>
        <time>2026-08-18T02:00:08.000Z</time>
      </trkpt>
      <trkpt lat="22.877305" lon="110.572187">
        <ele>105.645371</ele>
        <time>2026-08-18T02:00:09.000Z</time>
      </trkpt>
      <trkpt lat="22.877351" lon="110.572229">
        <ele>105.660036</ele>
        <time>2026-08-18T02:00:10.000Z</time>
      </trkpt>
      <trkpt lat="22.877397" lon="110.572274">
        <ele>105.675144</ele>
        <time>2026-08-18T02:00:11.000Z</time>
      </trkpt>
      <trkpt lat="22.877444" lon="110.572319">
        <ele>105.690434</ele>
        <time>2026-08-18T02:00:12.000Z</time>
      </trkpt>
      <trkpt lat="22.877489" lon="110.572363">
        <ele>105.705210</ele>
        <time>2026-08-18T02:00:13.000Z</time>
      </trkpt>
      <trkpt lat="22.877534" lon="110.572407">
        <ele>105.719987</ele>
        <time>2026-08-18T02:00:14.000Z</time>
      </trkpt>
      <trkpt lat="22.877578" lon="110.572450">
        <ele>105.734431</ele>
        <time>2026-08-18T02:00:15.000Z</time>
      </trkpt>
      <trkpt lat="22.877626" lon="110.572491">
        <ele>105.749333</ele>
        <time>2026-08-18T02:00:16.000Z</time>
      </trkpt>
      <trkpt lat="22.877672" lon="110.572532">
        <ele>105.763854</ele>
        <time>2026-08-18T02:00:17.000Z</time>
      </trkpt>
      <trkpt lat="22.877717" lon="110.572575">
        <ele>105.778481</ele>
        <time>2026-08-18T02:00:18.000Z</time>
      </trkpt>
      <trkpt lat="22.877763" lon="110.572617">
        <ele>105.793146</ele>
        <time>2026-08-18T02:00:19.000Z</time>
      </trkpt>
      <trkpt lat="22.877805" lon="110.572663">
        <ele>105.807703</ele>
        <time>2026-08-18T02:00:20.000Z</time>
      </trkpt>
      <trkpt lat="22.877844" lon="110.572707">
        <ele>105.821427</ele>
        <time>2026-08-18T02:00:21.000Z</time>
      </trkpt>
      <trkpt lat="22.877886" lon="110.572747">
        <ele>105.835059</ele>
        <time>2026-08-18T02:00:22.000Z</time>
      </trkpt>
      <trkpt lat="22.877930" lon="110.572787">
        <ele>105.849061</ele>
        <time>2026-08-18T02:00:23.000Z</time>
      </trkpt>
      <trkpt lat="22.877971" lon="110.572826">
        <ele>105.862361</ele>
        <time>2026-08-18T02:00:24.000Z</time>
      </trkpt>
      <trkpt lat="22.878011" lon="110.572864">
        <ele>105.875330</ele>
        <time>2026-08-18T02:00:25.000Z</time>
      </trkpt>
      <trkpt lat="22.878049" lon="110.572902">
        <ele>105.887935</ele>
        <time>2026-08-18T02:00:26.000Z</time>
      </trkpt>
      <trkpt lat="22.878089" lon="110.572939">
        <ele>105.900757</ele>
        <time>2026-08-18T02:00:27.000Z</time>
      </trkpt>
      <trkpt lat="22.878128" lon="110.572974">
        <ele>105.913103</ele>
        <time>2026-08-18T02:00:28.000Z</time>
      </trkpt>
      <trkpt lat="22.878168" lon="110.573011">
        <ele>105.925924</ele>
        <time>2026-08-18T02:00:29.000Z</time>
      </trkpt>
      <trkpt lat="22.878208" lon="110.573048">
        <ele>105.938746</ele>
        <time>2026-08-18T02:00:30.000Z</time>
      </trkpt>
      <trkpt lat="22.878247" lon="110.573083">
        <ele>105.951092</ele>
        <time>2026-08-18T02:00:31.000Z</time>
      </trkpt>
      <trkpt lat="22.878283" lon="110.573119">
        <ele>105.963034</ele>
        <time>2026-08-18T02:00:32.000Z</time>
      </trkpt>
      <trkpt lat="22.878322" lon="110.573155">
        <ele>105.975524</ele>
        <time>2026-08-18T02:00:33.000Z</time>
      </trkpt>
      <trkpt lat="22.878360" lon="110.573188">
        <ele>105.987397</ele>
        <time>2026-08-18T02:00:34.000Z</time>
      </trkpt>
      <trkpt lat="22.878392" lon="110.573219">
        <ele>105.997861</ele>
        <time>2026-08-18T02:00:35.000Z</time>
      </trkpt>
      <trkpt lat="22.878428" lon="110.573252">
        <ele>106.009357</ele>
        <time>2026-08-18T02:00:36.000Z</time>
      </trkpt>
      <trkpt lat="22.878465" lon="110.573288">
        <ele>106.021480</ele>
        <time>2026-08-18T02:00:37.000Z</time>
      </trkpt>
      <trkpt lat="22.878502" lon="110.573324">
        <ele>106.033602</ele>
        <time>2026-08-18T02:00:38.000Z</time>
      </trkpt>
      <trkpt lat="22.878540" lon="110.573358">
        <ele>106.045617</ele>
        <time>2026-08-18T02:00:39.000Z</time>
      </trkpt>
      <trkpt lat="22.878582" lon="110.573390">
        <ele>106.058136</ele>
        <time>2026-08-18T02:00:40.000Z</time>
      </trkpt>
      <trkpt lat="22.878619" lon="110.573425">
        <ele>106.070110</ele>
        <time>2026-08-18T02:00:41.000Z</time>
      </trkpt>
      <trkpt lat="22.878657" lon="110.573459">
        <ele>106.080925</ele>
        <time>2026-08-18T02:00:42.000Z</time>
      </trkpt>
      <trkpt lat="22.878698" lon="110.573492">
        <ele>106.059332</ele>
        <time>2026-08-18T02:00:43.000Z</time>
      </trkpt>
      <trkpt lat="22.878739" lon="110.573526">
        <ele>106.037505</ele>
        <time>2026-08-18T02:00:44.000Z</time>
      </trkpt>
      <trkpt lat="22.878779" lon="110.573560">
        <ele>106.016012</ele>
        <time>2026-08-18T02:00:45.000Z</time>
      </trkpt>
      <trkpt lat="22.878819" lon="110.573594">
        <ele>105.994519</ele>
        <time>2026-08-18T02:00:46.000Z</time>
      </trkpt>
      <trkpt lat="22.878858" lon="110.573628">
        <ele>105.973358</ele>
        <time>2026-08-18T02:00:47.000Z</time>
      </trkpt>
      <trkpt lat="22.878899" lon="110.573663">
        <ele>105.951292</ele>
        <time>2026-08-18T02:00:48.000Z</time>
      </trkpt>
      <trkpt lat="22.878938" lon="110.573698">
        <ele>105.929885</ele>
        <time>2026-08-18T02:00:49.000Z</time>
      </trkpt>
      <trkpt lat="22.878978" lon="110.573733">
        <ele>105.908150</ele>
        <time>2026-08-18T02:00:50.000Z</time>
      </trkpt>
      <trkpt lat="22.879017" lon="110.573770">
        <ele>105.886237</ele>
        <time>2026-08-18T02:00:51.000Z</time>
      </trkpt>
      <trkpt lat="22.879057" lon="110.573806">
        <ele>105.864256</ele>
        <time>2026-08-18T02:00:52.000Z</time>
      </trkpt>
      <trkpt lat="22.879096" lon="110.573842">
        <ele>105.842598</ele>
        <time>2026-08-18T02:00:53.000Z</time>
      </trkpt>
      <trkpt lat="22.879136" lon="110.573877">
        <ele>105.820863</ele>
        <time>2026-08-18T02:00:54.000Z</time>
      </trkpt>
      <trkpt lat="22.879175" lon="110.573913">
        <ele>105.799205</ele>
        <time>2026-08-18T02:00:55.000Z</time>
      </trkpt>
      <trkpt lat="22.879215" lon="110.573950">
        <ele>105.776972</ele>
        <time>2026-08-18T02:00:56.000Z</time>
      </trkpt>
      <trkpt lat="22.879253" lon="110.573985">
        <ele>105.755889</ele>
        <time>2026-08-18T02:00:57.000Z</time>
      </trkpt>
      <trkpt lat="22.879292" lon="110.574022">
        <ele>105.733977</ele>
        <time>2026-08-18T02:00:58.000Z</time>
      </trkpt>
      <trkpt lat="22.879330" lon="110.574061">
        <ele>105.711853</ele>
        <time>2026-08-18T02:00:59.000Z</time>
      </trkpt>
      <trkpt lat="22.879369" lon="110.574099">
        <ele>105.689682</ele>
        <time>2026-08-18T02:01:00.000Z</time>
      </trkpt>
      <trkpt lat="22.879409" lon="110.574136">
        <ele>105.667450</ele>
        <time>2026-08-18T02:01:01.000Z</time>
      </trkpt>
      <trkpt lat="22.879449" lon="110.574174">
        <ele>105.644962</ele>
        <time>2026-08-18T02:01:02.000Z</time>
      </trkpt>
      <trkpt lat="22.879488" lon="110.574211">
        <ele>105.623050</ele>
        <time>2026-08-18T02:01:03.000Z</time>
      </trkpt>
      <trkpt lat="22.879528" lon="110.574249">
        <ele>105.600563</ele>
        <time>2026-08-18T02:01:04.000Z</time>
      </trkpt>
      <trkpt lat="22.879568" lon="110.574286">
        <ele>105.578330</ele>
        <time>2026-08-18T02:01:05.000Z</time>
      </trkpt>
      <trkpt lat="22.879610" lon="110.574324">
        <ele>105.555199</ele>
        <time>2026-08-18T02:01:06.000Z</time>
      </trkpt>
      <trkpt lat="22.879651" lon="110.574363">
        <ele>105.532137</ele>
        <time>2026-08-18T02:01:07.000Z</time>
      </trkpt>
      <trkpt lat="22.879692" lon="110.574400">
        <ele>105.509581</ele>
        <time>2026-08-18T02:01:08.000Z</time>
      </trkpt>
      <trkpt lat="22.879732" lon="110.574438">
        <ele>105.487093</ele>
        <time>2026-08-18T02:01:09.000Z</time>
      </trkpt>
      <trkpt lat="22.879773" lon="110.574475">
        <ele>105.464537</ele>
        <time>2026-08-18T02:01:10.000Z</time>
      </trkpt>
      <trkpt lat="22.879813" lon="110.574513">
        <ele>105.442050</ele>
        <time>2026-08-18T02:01:11.000Z</time>
      </trkpt>
      <trkpt lat="22.879854" lon="110.574548">
        <ele>105.419984</ele>
        <time>2026-08-18T02:01:12.000Z</time>
      </trkpt>
      <trkpt lat="22.879894" lon="110.574585">
        <ele>105.397751</ele>
        <time>2026-08-18T02:01:13.000Z</time>
      </trkpt>
      <trkpt lat="22.879934" lon="110.574622">
        <ele>105.375519</ele>
        <time>2026-08-18T02:01:14.000Z</time>
      </trkpt>
      <trkpt lat="22.879971" lon="110.574661">
        <ele>105.353701</ele>
        <time>2026-08-18T02:01:15.000Z</time>
      </trkpt>
      <trkpt lat="22.880009" lon="110.574701">
        <ele>105.331307</ele>
        <time>2026-08-18T02:01:16.000Z</time>
      </trkpt>
      <trkpt lat="22.880050" lon="110.574740">
        <ele>105.293033</ele>
        <time>2026-08-18T02:01:17.000Z</time>
      </trkpt>
      <trkpt lat="22.880089" lon="110.574779">
        <ele>105.243423</ele>
        <time>2026-08-18T02:01:18.000Z</time>
      </trkpt>
      <trkpt lat="22.880130" lon="110.574818">
        <ele>105.192421</ele>
        <time>2026-08-18T02:01:19.000Z</time>
      </trkpt>
      <trkpt lat="22.880171" lon="110.574856">
        <ele>105.141984</ele>
        <time>2026-08-18T02:01:20.000Z</time>
      </trkpt>
      <trkpt lat="22.880211" lon="110.574896">
        <ele>105.091102</ele>
        <time>2026-08-18T02:01:21.000Z</time>
      </trkpt>
      <trkpt lat="22.880254" lon="110.574936">
        <ele>105.038122</ele>
        <time>2026-08-18T02:01:22.000Z</time>
      </trkpt>
      <trkpt lat="22.880296" lon="110.574975">
        <ele>104.986413</ele>
        <time>2026-08-18T02:01:23.000Z</time>
      </trkpt>
      <trkpt lat="22.880340" lon="110.575014">
        <ele>104.933268</ele>
        <time>2026-08-18T02:01:24.000Z</time>
      </trkpt>
      <trkpt lat="22.880382" lon="110.575053">
        <ele>104.881560</ele>
        <time>2026-08-18T02:01:25.000Z</time>
      </trkpt>
      <trkpt lat="22.880423" lon="110.575095">
        <ele>104.828818</ele>
        <time>2026-08-18T02:01:26.000Z</time>
      </trkpt>
      <trkpt lat="22.880463" lon="110.575136">
        <ele>104.777348</ele>
        <time>2026-08-18T02:01:27.000Z</time>
      </trkpt>
      <trkpt lat="22.880503" lon="110.575179">
        <ele>104.724680</ele>
        <time>2026-08-18T02:01:28.000Z</time>
      </trkpt>
      <trkpt lat="22.880544" lon="110.575221">
        <ele>104.671939</ele>
        <time>2026-08-18T02:01:29.000Z</time>
      </trkpt>
      <trkpt lat="22.880584" lon="110.575265">
        <ele>104.618660</ele>
        <time>2026-08-18T02:01:30.000Z</time>
      </trkpt>
      <trkpt lat="22.880625" lon="110.575309">
        <ele>104.564721</ele>
        <time>2026-08-18T02:01:31.000Z</time>
      </trkpt>
      <trkpt lat="22.880668" lon="110.575355">
        <ele>104.508239</ele>
        <time>2026-08-18T02:01:32.000Z</time>
      </trkpt>
      <trkpt lat="22.880711" lon="110.575402">
        <ele>104.451149</ele>
        <time>2026-08-18T02:01:33.000Z</time>
      </trkpt>
      <trkpt lat="22.880752" lon="110.575448">
        <ele>104.395984</ele>
        <time>2026-08-18T02:01:34.000Z</time>
      </trkpt>
      <trkpt lat="22.880792" lon="110.575493">
        <ele>104.342089</ele>
        <time>2026-08-18T02:01:35.000Z</time>
      </trkpt>
      <trkpt lat="22.880834" lon="110.575540">
        <ele>104.285654</ele>
        <time>2026-08-18T02:01:36.000Z</time>
      </trkpt>
      <trkpt lat="22.880873" lon="110.575586">
        <ele>104.231773</ele>
        <time>2026-08-18T02:01:37.000Z</time>
      </trkpt>
      <trkpt lat="22.880913" lon="110.575634">
        <ele>104.175988</ele>
        <time>2026-08-18T02:01:38.000Z</time>
      </trkpt>
      <trkpt lat="22.880948" lon="110.575681">
        <ele>104.123900</ele>
        <time>2026-08-18T02:01:39.000Z</time>
      </trkpt>
      <trkpt lat="22.880986" lon="110.575728">
        <ele>104.070004</ele>
        <time>2026-08-18T02:01:40.000Z</time>
      </trkpt>
      <trkpt lat="22.881021" lon="110.575776">
        <ele>104.017243</ele>
        <time>2026-08-18T02:01:41.000Z</time>
      </trkpt>
      <trkpt lat="22.881056" lon="110.575824">
        <ele>103.964482</ele>
        <time>2026-08-18T02:01:42.000Z</time>
      </trkpt>
      <trkpt lat="22.881083" lon="110.575873">
        <ele>103.915271</ele>
        <time>2026-08-18T02:01:43.000Z</time>
      </trkpt>
      <trkpt lat="22.881116" lon="110.575922">
        <ele>103.862957</ele>
        <time>2026-08-18T02:01:44.000Z</time>
      </trkpt>
      <trkpt lat="22.881148" lon="110.575969">
        <ele>103.812586</ele>
        <time>2026-08-18T02:01:45.000Z</time>
      </trkpt>
      <trkpt lat="22.881180" lon="110.576014">
        <ele>103.763590</ele>
        <time>2026-08-18T02:01:46.000Z</time>
      </trkpt>
      <trkpt lat="22.881210" lon="110.576060">
        <ele>103.715014</ele>
        <time>2026-08-18T02:01:47.000Z</time>
      </trkpt>
      <trkpt lat="22.881242" lon="110.576108">
        <ele>103.663947</ele>
        <time>2026-08-18T02:01:48.000Z</time>
      </trkpt>
      <trkpt lat="22.881269" lon="110.576156">
        <ele>103.654996</ele>
        <time>2026-08-18T02:01:49.000Z</time>
      </trkpt>
      <trkpt lat="22.881293" lon="110.576208">
        <ele>103.692309</ele>
        <time>2026-08-18T02:01:50.000Z</time>
      </trkpt>
      <trkpt lat="22.881321" lon="110.576255">
        <ele>103.728216</ele>
        <time>2026-08-18T02:01:51.000Z</time>
      </trkpt>
      <trkpt lat="22.881347" lon="110.576303">
        <ele>103.763938</ele>
        <time>2026-08-18T02:01:52.000Z</time>
      </trkpt>
      <trkpt lat="22.881377" lon="110.576353">
        <ele>103.802218</ele>
        <time>2026-08-18T02:01:53.000Z</time>
      </trkpt>
      <trkpt lat="22.881405" lon="110.576404">
        <ele>103.840306</ele>
        <time>2026-08-18T02:01:54.000Z</time>
      </trkpt>
      <trkpt lat="22.881434" lon="110.576454">
        <ele>103.878211</ele>
        <time>2026-08-18T02:01:55.000Z</time>
      </trkpt>
      <trkpt lat="22.881460" lon="110.576506">
        <ele>103.916167</ele>
        <time>2026-08-18T02:01:56.000Z</time>
      </trkpt>
      <trkpt lat="22.881491" lon="110.576556">
        <ele>103.954832</ele>
        <time>2026-08-18T02:01:57.000Z</time>
      </trkpt>
      <trkpt lat="22.881511" lon="110.576608">
        <ele>103.990982</ele>
        <time>2026-08-18T02:01:58.000Z</time>
      </trkpt>
      <trkpt lat="22.881539" lon="110.576658">
        <ele>104.028520</ele>
        <time>2026-08-18T02:01:59.000Z</time>
      </trkpt>
      <trkpt lat="22.881566" lon="110.576707">
        <ele>104.065150</ele>
        <time>2026-08-18T02:02:00.000Z</time>
      </trkpt>
      <trkpt lat="22.881592" lon="110.576757">
        <ele>104.101984</ele>
        <time>2026-08-18T02:02:01.000Z</time>
      </trkpt>
      <trkpt lat="22.881621" lon="110.576806">
        <ele>104.139347</ele>
        <time>2026-08-18T02:02:02.000Z</time>
      </trkpt>
      <trkpt lat="22.881649" lon="110.576853">
        <ele>104.175254</ele>
        <time>2026-08-18T02:02:03.000Z</time>
      </trkpt>
      <trkpt lat="22.881677" lon="110.576900">
        <ele>104.211161</ele>
        <time>2026-08-18T02:02:04.000Z</time>
      </trkpt>
      <trkpt lat="22.881696" lon="110.576947">
        <ele>104.244089</ele>
        <time>2026-08-18T02:02:05.000Z</time>
      </trkpt>
      <trkpt lat="22.881720" lon="110.576990">
        <ele>104.276343</ele>
        <time>2026-08-18T02:02:06.000Z</time>
      </trkpt>
      <trkpt lat="22.881746" lon="110.577032">
        <ele>104.308806</ele>
        <time>2026-08-18T02:02:07.000Z</time>
      </trkpt>
      <trkpt lat="22.881768" lon="110.577076">
        <ele>104.340923</ele>
        <time>2026-08-18T02:02:08.000Z</time>
      </trkpt>
      <trkpt lat="22.881792" lon="110.577120">
        <ele>104.373727</ele>
        <time>2026-08-18T02:02:09.000Z</time>
      </trkpt>
      <trkpt lat="22.881821" lon="110.577156">
        <ele>104.404406</ele>
        <time>2026-08-18T02:02:10.000Z</time>
      </trkpt>
      <trkpt lat="22.881851" lon="110.577191">
        <ele>104.435075</ele>
        <time>2026-08-18T02:02:11.000Z</time>
      </trkpt>
      <trkpt lat="22.881882" lon="110.577225">
        <ele>104.465763</ele>
        <time>2026-08-18T02:02:12.000Z</time>
      </trkpt>
      <trkpt lat="22.881916" lon="110.577259">
        <ele>104.497955</ele>
        <time>2026-08-18T02:02:13.000Z</time>
      </trkpt>
      <trkpt lat="22.881950" lon="110.577290">
        <ele>104.528875</ele>
        <time>2026-08-18T02:02:14.000Z</time>
      </trkpt>
      <trkpt lat="22.881983" lon="110.577322">
        <ele>104.559689</ele>
        <time>2026-08-18T02:02:15.000Z</time>
      </trkpt>
      <trkpt lat="22.882017" lon="110.577351">
        <ele>104.589800</ele>
        <time>2026-08-18T02:02:16.000Z</time>
      </trkpt>
      <trkpt lat="22.882054" lon="110.577380">
        <ele>104.621580</ele>
        <time>2026-08-18T02:02:17.000Z</time>
      </trkpt>
      <trkpt lat="22.882088" lon="110.577409">
        <ele>104.651691</ele>
        <time>2026-08-18T02:02:18.000Z</time>
      </trkpt>
      <trkpt lat="22.882123" lon="110.577438">
        <ele>104.682353</ele>
        <time>2026-08-18T02:02:19.000Z</time>
      </trkpt>
      <trkpt lat="22.882155" lon="110.577468">
        <ele>104.711797</ele>
        <time>2026-08-18T02:02:20.000Z</time>
      </trkpt>
      <trkpt lat="22.882184" lon="110.577499">
        <ele>104.740140</ele>
        <time>2026-08-18T02:02:21.000Z</time>
      </trkpt>
      <trkpt lat="22.882217" lon="110.577527">
        <ele>104.769307</ele>
        <time>2026-08-18T02:02:22.000Z</time>
      </trkpt>
      <trkpt lat="22.882253" lon="110.577551">
        <ele>104.798726</ele>
        <time>2026-08-18T02:02:23.000Z</time>
      </trkpt>
      <trkpt lat="22.882288" lon="110.577575">
        <ele>104.827554</ele>
        <time>2026-08-18T02:02:24.000Z</time>
      </trkpt>
      <trkpt lat="22.882322" lon="110.577600">
        <ele>104.856151</ele>
        <time>2026-08-18T02:02:25.000Z</time>
      </trkpt>
      <trkpt lat="22.882354" lon="110.577631">
        <ele>104.886018</ele>
        <time>2026-08-18T02:02:26.000Z</time>
      </trkpt>
      <trkpt lat="22.882385" lon="110.577663">
        <ele>104.917831</ele>
        <time>2026-08-18T02:02:27.000Z</time>
      </trkpt>
      <trkpt lat="22.882418" lon="110.577693">
        <ele>104.950210</ele>
        <time>2026-08-18T02:02:28.000Z</time>
      </trkpt>
      <trkpt lat="22.882451" lon="110.577724">
        <ele>104.983039</ele>
        <time>2026-08-18T02:02:29.000Z</time>
      </trkpt>
      <trkpt lat="22.882484" lon="110.577755">
        <ele>105.015868</ele>
        <time>2026-08-18T02:02:30.000Z</time>
      </trkpt>
      <trkpt lat="22.882517" lon="110.577786">
        <ele>105.048696</ele>
        <time>2026-08-18T02:02:31.000Z</time>
      </trkpt>
      <trkpt lat="22.882551" lon="110.577818">
        <ele>105.082548</ele>
        <time>2026-08-18T02:02:32.000Z</time>
      </trkpt>
      <trkpt lat="22.882586" lon="110.577850">
        <ele>105.116970</ele>
        <time>2026-08-18T02:02:33.000Z</time>
      </trkpt>
      <trkpt lat="22.882619" lon="110.577882">
        <ele>105.150257</ele>
        <time>2026-08-18T02:02:34.000Z</time>
      </trkpt>
      <trkpt lat="22.882653" lon="110.577913">
        <ele>105.183658</ele>
        <time>2026-08-18T02:02:35.000Z</time>
      </trkpt>
      <trkpt lat="22.882687" lon="110.577944">
        <ele>105.217059</ele>
        <time>2026-08-18T02:02:36.000Z</time>
      </trkpt>
      <trkpt lat="22.882723" lon="110.577975">
        <ele>105.251626</ele>
        <time>2026-08-18T02:02:37.000Z</time>
      </trkpt>
      <trkpt lat="22.882755" lon="110.578008">
        <ele>105.284829</ele>
        <time>2026-08-18T02:02:38.000Z</time>
      </trkpt>
      <trkpt lat="22.882790" lon="110.578041">
        <ele>105.319702</ele>
        <time>2026-08-18T02:02:39.000Z</time>
      </trkpt>
      <trkpt lat="22.882826" lon="110.578073">
        <ele>105.354704</ele>
        <time>2026-08-18T02:02:40.000Z</time>
      </trkpt>
      <trkpt lat="22.882862" lon="110.578106">
        <ele>105.390148</ele>
        <time>2026-08-18T02:02:41.000Z</time>
      </trkpt>
      <trkpt lat="22.882900" lon="110.578139">
        <ele>105.426755</ele>
        <time>2026-08-18T02:02:42.000Z</time>
      </trkpt>
      <trkpt lat="22.882936" lon="110.578173">
        <ele>105.462651</ele>
        <time>2026-08-18T02:02:43.000Z</time>
      </trkpt>
      <trkpt lat="22.882969" lon="110.578208">
        <ele>105.497357</ele>
        <time>2026-08-18T02:02:44.000Z</time>
      </trkpt>
      <trkpt lat="22.883001" lon="110.578242">
        <ele>105.531041</ele>
        <time>2026-08-18T02:02:45.000Z</time>
      </trkpt>
      <trkpt lat="22.883032" lon="110.578277">
        <ele>105.564688</ele>
        <time>2026-08-18T02:02:46.000Z</time>
      </trkpt>
      <trkpt lat="22.883067" lon="110.578311">
        <ele>105.600019</ele>
        <time>2026-08-18T02:02:47.000Z</time>
      </trkpt>
      <trkpt lat="22.883102" lon="110.578345">
        <ele>105.635351</ele>
        <time>2026-08-18T02:02:48.000Z</time>
      </trkpt>
      <trkpt lat="22.883137" lon="110.578378">
        <ele>105.670224</ele>
        <time>2026-08-18T02:02:49.000Z</time>
      </trkpt>
      <trkpt lat="22.883165" lon="110.578414">
        <ele>105.702875</ele>
        <time>2026-08-18T02:02:50.000Z</time>
      </trkpt>
      <trkpt lat="22.883194" lon="110.578450">
        <ele>105.736015</ele>
        <time>2026-08-18T02:02:51.000Z</time>
      </trkpt>
      <trkpt lat="22.883222" lon="110.578485">
        <ele>105.768139</ele>
        <time>2026-08-18T02:02:52.000Z</time>
      </trkpt>
      <trkpt lat="22.883245" lon="110.578521">
        <ele>105.798499</ele>
        <time>2026-08-18T02:02:53.000Z</time>
      </trkpt>
      <trkpt lat="22.883268" lon="110.578557">
        <ele>105.828860</ele>
        <time>2026-08-18T02:02:54.000Z</time>
      </trkpt>
      <trkpt lat="22.883289" lon="110.578592">
        <ele>105.857805</ele>
        <time>2026-08-18T02:02:55.000Z</time>
      </trkpt>
      <trkpt lat="22.883306" lon="110.578629">
        <ele>105.886459</ele>
        <time>2026-08-18T02:02:56.000Z</time>
      </trkpt>
      <trkpt lat="22.883323" lon="110.578662">
        <ele>105.912661</ele>
        <time>2026-08-18T02:02:57.000Z</time>
      </trkpt>
      <trkpt lat="22.883339" lon="110.578695">
        <ele>105.938504</ele>
        <time>2026-08-18T02:02:58.000Z</time>
      </trkpt>
      <trkpt lat="22.883353" lon="110.578726">
        <ele>105.962429</ele>
        <time>2026-08-18T02:02:59.000Z</time>
      </trkpt>
      <trkpt lat="22.883364" lon="110.578756">
        <ele>105.984806</ele>
        <time>2026-08-18T02:03:00.000Z</time>
      </trkpt>
      <trkpt lat="22.883373" lon="110.578784">
        <ele>106.005357</ele>
        <time>2026-08-18T02:03:01.000Z</time>
      </trkpt>
      <trkpt lat="22.883382" lon="110.578813">
        <ele>106.026564</ele>
        <time>2026-08-18T02:03:02.000Z</time>
      </trkpt>
      <trkpt lat="22.883391" lon="110.578844">
        <ele>106.049089</ele>
        <time>2026-08-18T02:03:03.000Z</time>
      </trkpt>
      <trkpt lat="22.883401" lon="110.578875">
        <ele>106.071851</ele>
        <time>2026-08-18T02:03:04.000Z</time>
      </trkpt>
      <trkpt lat="22.883409" lon="110.578904">
        <ele>106.092830</ele>
        <time>2026-08-18T02:03:05.000Z</time>
      </trkpt>
      <trkpt lat="22.883418" lon="110.578936">
        <ele>106.116017</ele>
        <time>2026-08-18T02:03:06.000Z</time>
      </trkpt>
      <trkpt lat="22.883430" lon="110.578969">
        <ele>106.140604</ele>
        <time>2026-08-18T02:03:07.000Z</time>
      </trkpt>
      <trkpt lat="22.883443" lon="110.579001">
        <ele>106.164840</ele>
        <time>2026-08-18T02:03:08.000Z</time>
      </trkpt>
      <trkpt lat="22.883457" lon="110.579033">
        <ele>106.189390</ele>
        <time>2026-08-18T02:03:09.000Z</time>
      </trkpt>
      <trkpt lat="22.883472" lon="110.579067">
        <ele>106.215515</ele>
        <time>2026-08-18T02:03:10.000Z</time>
      </trkpt>
      <trkpt lat="22.883487" lon="110.579100">
        <ele>106.241016</ele>
        <time>2026-08-18T02:03:11.000Z</time>
      </trkpt>
      <trkpt lat="22.883505" lon="110.579136">
        <ele>106.237296</ele>
        <time>2026-08-18T02:03:12.000Z</time>
      </trkpt>
      <trkpt lat="22.883523" lon="110.579169">
        <ele>106.230844</ele>
        <time>2026-08-18T02:03:13.000Z</time>
      </trkpt>
      <trkpt lat="22.883542" lon="110.579203">
        <ele>106.224154</ele>
        <time>2026-08-18T02:03:14.000Z</time>
      </trkpt>
      <trkpt lat="22.883560" lon="110.579235">
        <ele>106.217846</ele>
        <time>2026-08-18T02:03:15.000Z</time>
      </trkpt>
      <trkpt lat="22.883582" lon="110.579268">
        <ele>106.210994</ele>
        <time>2026-08-18T02:03:16.000Z</time>
      </trkpt>
      <trkpt lat="22.883604" lon="110.579300">
        <ele>106.204277</ele>
        <time>2026-08-18T02:03:17.000Z</time>
      </trkpt>
      <trkpt lat="22.883628" lon="110.579334">
        <ele>106.197071</ele>
        <time>2026-08-18T02:03:18.000Z</time>
      </trkpt>
      <trkpt lat="22.883652" lon="110.579369">
        <ele>106.189731</ele>
        <time>2026-08-18T02:03:19.000Z</time>
      </trkpt>
      <trkpt lat="22.883676" lon="110.579404">
        <ele>106.182391</ele>
        <time>2026-08-18T02:03:20.000Z</time>
      </trkpt>
      <trkpt lat="22.883700" lon="110.579438">
        <ele>106.175185</ele>
        <time>2026-08-18T02:03:21.000Z</time>
      </trkpt>
      <trkpt lat="22.883727" lon="110.579474">
        <ele>106.167376</ele>
        <time>2026-08-18T02:03:22.000Z</time>
      </trkpt>
      <trkpt lat="22.883755" lon="110.579512">
        <ele>106.159190</ele>
        <time>2026-08-18T02:03:23.000Z</time>
      </trkpt>
      <trkpt lat="22.883782" lon="110.579551">
        <ele>106.150983</ele>
        <time>2026-08-18T02:03:24.000Z</time>
      </trkpt>
      <trkpt lat="22.883808" lon="110.579593">
        <ele>106.142470</ele>
        <time>2026-08-18T02:03:25.000Z</time>
      </trkpt>
      <trkpt lat="22.883834" lon="110.579636">
        <ele>106.133817</ele>
        <time>2026-08-18T02:03:26.000Z</time>
      </trkpt>
      <trkpt lat="22.883860" lon="110.579680">
        <ele>106.125023</ele>
        <time>2026-08-18T02:03:27.000Z</time>
      </trkpt>
      <trkpt lat="22.883885" lon="110.579727">
        <ele>106.115893</ele>
        <time>2026-08-18T02:03:28.000Z</time>
      </trkpt>
      <trkpt lat="22.883905" lon="110.579777">
        <ele>106.106723</ele>
        <time>2026-08-18T02:03:29.000Z</time>
      </trkpt>
      <trkpt lat="22.883927" lon="110.579831">
        <ele>106.096790</ele>
        <time>2026-08-18T02:03:30.000Z</time>
      </trkpt>
      <trkpt lat="22.883950" lon="110.579891">
        <ele>106.085857</ele>
        <time>2026-08-18T02:03:31.000Z</time>
      </trkpt>
      <trkpt lat="22.883971" lon="110.579953">
        <ele>106.074744</ele>
        <time>2026-08-18T02:03:32.000Z</time>
      </trkpt>
      <trkpt lat="22.883989" lon="110.580014">
        <ele>106.063968</ele>
        <time>2026-08-18T02:03:33.000Z</time>
      </trkpt>
      <trkpt lat="22.884004" lon="110.580075">
        <ele>106.053347</ele>
        <time>2026-08-18T02:03:34.000Z</time>
      </trkpt>
      <trkpt lat="22.884021" lon="110.580136">
        <ele>106.042626</ele>
        <time>2026-08-18T02:03:35.000Z</time>
      </trkpt>
      <trkpt lat="22.884037" lon="110.580193">
        <ele>106.032601</ele>
        <time>2026-08-18T02:03:36.000Z</time>
      </trkpt>
      <trkpt lat="22.884055" lon="110.580252">
        <ele>106.022145</ele>
        <time>2026-08-18T02:03:37.000Z</time>
      </trkpt>
      <trkpt lat="22.884074" lon="110.580309">
        <ele>106.011948</ele>
        <time>2026-08-18T02:03:38.000Z</time>
      </trkpt>
      <trkpt lat="22.884087" lon="110.580367">
        <ele>106.001906</ele>
        <time>2026-08-18T02:03:39.000Z</time>
      </trkpt>
      <trkpt lat="22.884100" lon="110.580424">
        <ele>105.992027</ele>
        <time>2026-08-18T02:03:40.000Z</time>
      </trkpt>
      <trkpt lat="22.884115" lon="110.580476">
        <ele>105.982860</ele>
        <time>2026-08-18T02:03:41.000Z</time>
      </trkpt>
      <trkpt lat="22.884131" lon="110.580526">
        <ele>105.973956</ele>
        <time>2026-08-18T02:03:42.000Z</time>
      </trkpt>
      <trkpt lat="22.884150" lon="110.580573">
        <ele>105.965321</ele>
        <time>2026-08-18T02:03:43.000Z</time>
      </trkpt>
      <trkpt lat="22.884170" lon="110.580619">
        <ele>105.956764</ele>
        <time>2026-08-18T02:03:44.000Z</time>
      </trkpt>
      <trkpt lat="22.884191" lon="110.580662">
        <ele>105.948577</ele>
        <time>2026-08-18T02:03:45.000Z</time>
      </trkpt>
      <trkpt lat="22.884211" lon="110.580706">
        <ele>105.940323</ele>
        <time>2026-08-18T02:03:46.000Z</time>
      </trkpt>
      <trkpt lat="22.884231" lon="110.580747">
        <ele>105.932518</ele>
        <time>2026-08-18T02:03:47.000Z</time>
      </trkpt>
      <trkpt lat="22.884251" lon="110.580788">
        <ele>105.924713</ele>
        <time>2026-08-18T02:03:48.000Z</time>
      </trkpt>
      <trkpt lat="22.884273" lon="110.580828">
        <ele>105.916876</ele>
        <time>2026-08-18T02:03:49.000Z</time>
      </trkpt>
      <trkpt lat="22.884296" lon="110.580866">
        <ele>105.920090</ele>
        <time>2026-08-18T02:03:50.000Z</time>
      </trkpt>
      <trkpt lat="22.884318" lon="110.580905">
        <ele>105.926559</ele>
        <time>2026-08-18T02:03:51.000Z</time>
      </trkpt>
      <trkpt lat="22.884338" lon="110.580945">
        <ele>105.932997</ele>
        <time>2026-08-18T02:03:52.000Z</time>
      </trkpt>
      <trkpt lat="22.884358" lon="110.580985">
        <ele>105.939435</ele>
        <time>2026-08-18T02:03:53.000Z</time>
      </trkpt>
      <trkpt lat="22.884378" lon="110.581024">
        <ele>105.945749</ele>
        <time>2026-08-18T02:03:54.000Z</time>
      </trkpt>
      <trkpt lat="22.884403" lon="110.581057">
        <ele>105.951793</ele>
        <time>2026-08-18T02:03:55.000Z</time>
      </trkpt>
      <trkpt lat="22.884427" lon="110.581092">
        <ele>105.957965</ele>
        <time>2026-08-18T02:03:56.000Z</time>
      </trkpt>
      <trkpt lat="22.884451" lon="110.581126">
        <ele>105.964024</ele>
        <time>2026-08-18T02:03:57.000Z</time>
      </trkpt>
      <trkpt lat="22.884474" lon="110.581161">
        <ele>105.970106</ele>
        <time>2026-08-18T02:03:58.000Z</time>
      </trkpt>
      <trkpt lat="22.884496" lon="110.581198">
        <ele>105.976335</ele>
        <time>2026-08-18T02:03:59.000Z</time>
      </trkpt>
      <trkpt lat="22.884517" lon="110.581235">
        <ele>105.982483</ele>
        <time>2026-08-18T02:04:00.000Z</time>
      </trkpt>
      <trkpt lat="22.884542" lon="110.581272">
        <ele>105.988974</ele>
        <time>2026-08-18T02:04:01.000Z</time>
      </trkpt>
      <trkpt lat="22.884565" lon="110.581308">
        <ele>105.995171</ele>
        <time>2026-08-18T02:04:02.000Z</time>
      </trkpt>
      <trkpt lat="22.884586" lon="110.581346">
        <ele>106.001439</ele>
        <time>2026-08-18T02:04:03.000Z</time>
      </trkpt>
      <trkpt lat="22.884605" lon="110.581387">
        <ele>106.007931</ele>
        <time>2026-08-18T02:04:04.000Z</time>
      </trkpt>
      <trkpt lat="22.884623" lon="110.581427">
        <ele>106.014229</ele>
        <time>2026-08-18T02:04:05.000Z</time>
      </trkpt>
      <trkpt lat="22.884642" lon="110.581464">
        <ele>106.020221</ele>
        <time>2026-08-18T02:04:06.000Z</time>
      </trkpt>
      <trkpt lat="22.884663" lon="110.581501">
        <ele>106.026369</ele>
        <time>2026-08-18T02:04:07.000Z</time>
      </trkpt>
      <trkpt lat="22.884681" lon="110.581538">
        <ele>106.032287</ele>
        <time>2026-08-18T02:04:08.000Z</time>
      </trkpt>
      <trkpt lat="22.884696" lon="110.581580">
        <ele>106.038660</ele>
        <time>2026-08-18T02:04:09.000Z</time>
      </trkpt>
      <trkpt lat="22.884711" lon="110.581625">
        <ele>106.045429</ele>
        <time>2026-08-18T02:04:10.000Z</time>
      </trkpt>
      <trkpt lat="22.884725" lon="110.581669">
        <ele>106.052014</ele>
        <time>2026-08-18T02:04:11.000Z</time>
      </trkpt>
      <trkpt lat="22.884739" lon="110.581713">
        <ele>106.058599</ele>
        <time>2026-08-18T02:04:12.000Z</time>
      </trkpt>
      <trkpt lat="22.884752" lon="110.581755">
        <ele>106.064867</ele>
        <time>2026-08-18T02:04:13.000Z</time>
      </trkpt>
      <trkpt lat="22.884765" lon="110.581799">
        <ele>106.071403</ele>
        <time>2026-08-18T02:04:14.000Z</time>
      </trkpt>
      <trkpt lat="22.884780" lon="110.581844">
        <ele>106.078173</ele>
        <time>2026-08-18T02:04:15.000Z</time>
      </trkpt>
      <trkpt lat="22.884794" lon="110.581887">
        <ele>106.084624</ele>
        <time>2026-08-18T02:04:16.000Z</time>
      </trkpt>
      <trkpt lat="22.884808" lon="110.581930">
        <ele>106.091076</ele>
        <time>2026-08-18T02:04:17.000Z</time>
      </trkpt>
      <trkpt lat="22.884824" lon="110.581974">
        <ele>106.097767</ele>
        <time>2026-08-18T02:04:18.000Z</time>
      </trkpt>
      <trkpt lat="22.884839" lon="110.582017">
        <ele>106.104271</ele>
        <time>2026-08-18T02:04:19.000Z</time>
      </trkpt>
      <trkpt lat="22.884856" lon="110.582058">
        <ele>106.110632</ele>
        <time>2026-08-18T02:04:20.000Z</time>
      </trkpt>
      <trkpt lat="22.884872" lon="110.582103">
        <ele>106.117455</ele>
        <time>2026-08-18T02:04:21.000Z</time>
      </trkpt>
      <trkpt lat="22.884888" lon="110.582147">
        <ele>106.124146</ele>
        <time>2026-08-18T02:04:22.000Z</time>
      </trkpt>
      <trkpt lat="22.884903" lon="110.582194">
        <ele>106.131183</ele>
        <time>2026-08-18T02:04:23.000Z</time>
      </trkpt>
      <trkpt lat="22.884920" lon="110.582243">
        <ele>106.138589</ele>
        <time>2026-08-18T02:04:24.000Z</time>
      </trkpt>
      <trkpt lat="22.884936" lon="110.582293">
        <ele>106.146077</ele>
        <time>2026-08-18T02:04:25.000Z</time>
      </trkpt>
      <trkpt lat="22.884952" lon="110.582348">
        <ele>106.154236</ele>
        <time>2026-08-18T02:04:26.000Z</time>
      </trkpt>
      <trkpt lat="22.884970" lon="110.582403">
        <ele>106.162492</ele>
        <time>2026-08-18T02:04:27.000Z</time>
      </trkpt>
      <trkpt lat="22.884990" lon="110.582460">
        <ele>106.171121</ele>
        <time>2026-08-18T02:04:28.000Z</time>
      </trkpt>
      <trkpt lat="22.885013" lon="110.582516">
        <ele>106.179794</ele>
        <time>2026-08-18T02:04:29.000Z</time>
      </trkpt>
      <trkpt lat="22.885033" lon="110.582573">
        <ele>106.188422</ele>
        <time>2026-08-18T02:04:30.000Z</time>
      </trkpt>
      <trkpt lat="22.885053" lon="110.582629">
        <ele>106.175727</ele>
        <time>2026-08-18T02:04:31.000Z</time>
      </trkpt>
      <trkpt lat="22.885071" lon="110.582685">
        <ele>106.152459</ele>
        <time>2026-08-18T02:04:32.000Z</time>
      </trkpt>
      <trkpt lat="22.885091" lon="110.582741">
        <ele>106.128897</ele>
        <time>2026-08-18T02:04:33.000Z</time>
      </trkpt>
      <trkpt lat="22.885111" lon="110.582797">
        <ele>106.105336</ele>
        <time>2026-08-18T02:04:34.000Z</time>
      </trkpt>
      <trkpt lat="22.885129" lon="110.582853">
        <ele>106.082068</ele>
        <time>2026-08-18T02:04:35.000Z</time>
      </trkpt>
      <trkpt lat="22.885146" lon="110.582909">
        <ele>106.058937</ele>
        <time>2026-08-18T02:04:36.000Z</time>
      </trkpt>
      <trkpt lat="22.885160" lon="110.582966">
        <ele>106.035795</ele>
        <time>2026-08-18T02:04:37.000Z</time>
      </trkpt>
      <trkpt lat="22.885176" lon="110.583024">
        <ele>106.012043</ele>
        <time>2026-08-18T02:04:38.000Z</time>
      </trkpt>
      <trkpt lat="22.885192" lon="110.583080">
        <ele>105.989042</ele>
        <time>2026-08-18T02:04:39.000Z</time>
      </trkpt>
      <trkpt lat="22.885209" lon="110.583137">
        <ele>105.965538</ele>
        <time>2026-08-18T02:04:40.000Z</time>
      </trkpt>
      <trkpt lat="22.885224" lon="110.583192">
        <ele>105.943036</ele>
        <time>2026-08-18T02:04:41.000Z</time>
      </trkpt>
      <trkpt lat="22.885238" lon="110.583248">
        <ele>105.920273</ele>
        <time>2026-08-18T02:04:42.000Z</time>
      </trkpt>
      <trkpt lat="22.885252" lon="110.583303">
        <ele>105.897888</ele>
        <time>2026-08-18T02:04:43.000Z</time>
      </trkpt>
      <trkpt lat="22.885266" lon="110.583359">
        <ele>105.875124</ele>
        <time>2026-08-18T02:04:44.000Z</time>
      </trkpt>
      <trkpt lat="22.885281" lon="110.583413">
        <ele>105.852998</ele>
        <time>2026-08-18T02:04:45.000Z</time>
      </trkpt>
      <trkpt lat="22.885296" lon="110.583467">
        <ele>105.830872</ele>
        <time>2026-08-18T02:04:46.000Z</time>
      </trkpt>
      <trkpt lat="22.885309" lon="110.583520">
        <ele>105.809355</ele>
        <time>2026-08-18T02:04:47.000Z</time>
      </trkpt>
      <trkpt lat="22.885320" lon="110.583574">
        <ele>105.787659</ele>
        <time>2026-08-18T02:04:48.000Z</time>
      </trkpt>
      <trkpt lat="22.885335" lon="110.583628">
        <ele>105.765533</ele>
        <time>2026-08-18T02:04:49.000Z</time>
      </trkpt>
      <trkpt lat="22.885352" lon="110.583681">
        <ele>105.743517</ele>
        <time>2026-08-18T02:04:50.000Z</time>
      </trkpt>
      <trkpt lat="22.885364" lon="110.583738">
        <ele>105.720579</ele>
        <time>2026-08-18T02:04:51.000Z</time>
      </trkpt>
      <trkpt lat="22.885377" lon="110.583793">
        <ele>105.698304</ele>
        <time>2026-08-18T02:04:52.000Z</time>
      </trkpt>
      <trkpt lat="22.885388" lon="110.583849">
        <ele>105.675841</ele>
        <time>2026-08-18T02:04:53.000Z</time>
      </trkpt>
      <trkpt lat="22.885399" lon="110.583906">
        <ele>105.652995</ele>
        <time>2026-08-18T02:04:54.000Z</time>
      </trkpt>
      <trkpt lat="22.885412" lon="110.583961">
        <ele>105.630720</ele>
        <time>2026-08-18T02:04:55.000Z</time>
      </trkpt>
      <trkpt lat="22.885427" lon="110.584015">
        <ele>105.608593</ele>
        <time>2026-08-18T02:04:56.000Z</time>
      </trkpt>
      <trkpt lat="22.885440" lon="110.584071">
        <ele>105.585938</ele>
        <time>2026-08-18T02:04:57.000Z</time>
      </trkpt>
      <trkpt lat="22.885450" lon="110.584127">
        <ele>105.563560</ele>
        <time>2026-08-18T02:04:58.000Z</time>
      </trkpt>
      <trkpt lat="22.885461" lon="110.584183">
        <ele>105.541097</ele>
        <time>2026-08-18T02:04:59.000Z</time>
      </trkpt>
      <trkpt lat="22.885469" lon="110.584239">
        <ele>105.518866</ele>
        <time>2026-08-18T02:05:00.000Z</time>
      </trkpt>
      <trkpt lat="22.885477" lon="110.584293">
        <ele>105.497409</ele>
        <time>2026-08-18T02:05:01.000Z</time>
      </trkpt>
      <trkpt lat="22.885485" lon="110.584347">
        <ele>105.475953</ele>
        <time>2026-08-18T02:05:02.000Z</time>
      </trkpt>
      <trkpt lat="22.885492" lon="110.584400">
        <ele>105.454948</ele>
        <time>2026-08-18T02:05:03.000Z</time>
      </trkpt>
      <trkpt lat="22.885498" lon="110.584452">
        <ele>105.434389</ele>
        <time>2026-08-18T02:05:04.000Z</time>
      </trkpt>
      <trkpt lat="22.885503" lon="110.584506">
        <ele>105.371357</ele>
        <time>2026-08-18T02:05:05.000Z</time>
      </trkpt>
      <trkpt lat="22.885508" lon="110.584563">
        <ele>105.272698</ele>
        <time>2026-08-18T02:05:06.000Z</time>
      </trkpt>
      <trkpt lat="22.885512" lon="110.584620">
        <ele>105.174198</ele>
        <time>2026-08-18T02:05:07.000Z</time>
      </trkpt>
      <trkpt lat="22.885517" lon="110.584673">
        <ele>105.082398</ele>
        <time>2026-08-18T02:05:08.000Z</time>
      </trkpt>
      <trkpt lat="22.885519" lon="110.584726">
        <ele>104.990999</ele>
        <time>2026-08-18T02:05:09.000Z</time>
      </trkpt>
      <trkpt lat="22.885522" lon="110.584780">
        <ele>104.897784</ele>
        <time>2026-08-18T02:05:10.000Z</time>
      </trkpt>
      <trkpt lat="22.885525" lon="110.584834">
        <ele>104.804569</ele>
        <time>2026-08-18T02:05:11.000Z</time>
      </trkpt>
      <trkpt lat="22.885527" lon="110.584887">
        <ele>104.713170</ele>
        <time>2026-08-18T02:05:12.000Z</time>
      </trkpt>
      <trkpt lat="22.885529" lon="110.584939">
        <ele>104.623492</ele>
        <time>2026-08-18T02:05:13.000Z</time>
      </trkpt>
      <trkpt lat="22.885530" lon="110.584993">
        <ele>104.530427</ele>
        <time>2026-08-18T02:05:14.000Z</time>
      </trkpt>
      <trkpt lat="22.885533" lon="110.585046">
        <ele>104.438933</ele>
        <time>2026-08-18T02:05:15.000Z</time>
      </trkpt>
      <trkpt lat="22.885536" lon="110.585098">
        <ele>104.349157</ele>
        <time>2026-08-18T02:05:16.000Z</time>
      </trkpt>
      <trkpt lat="22.885539" lon="110.585150">
        <ele>104.259382</ele>
        <time>2026-08-18T02:05:17.000Z</time>
      </trkpt>
      <trkpt lat="22.885545" lon="110.585203">
        <ele>104.167373</ele>
        <time>2026-08-18T02:05:18.000Z</time>
      </trkpt>
      <trkpt lat="22.885549" lon="110.585254">
        <ele>104.079178</ele>
        <time>2026-08-18T02:05:19.000Z</time>
      </trkpt>
      <trkpt lat="22.885551" lon="110.585305">
        <ele>103.991222</ele>
        <time>2026-08-18T02:05:20.000Z</time>
      </trkpt>
      <trkpt lat="22.885549" lon="110.585357">
        <ele>103.901544</ele>
        <time>2026-08-18T02:05:21.000Z</time>
      </trkpt>
      <trkpt lat="22.885545" lon="110.585409">
        <ele>103.811633</ele>
        <time>2026-08-18T02:05:22.000Z</time>
      </trkpt>
      <trkpt lat="22.885544" lon="110.585461">
        <ele>103.722014</ele>
        <time>2026-08-18T02:05:23.000Z</time>
      </trkpt>
      <trkpt lat="22.885545" lon="110.585513">
        <ele>103.632395</ele>
        <time>2026-08-18T02:05:24.000Z</time>
      </trkpt>
      <trkpt lat="22.885549" lon="110.585566">
        <ele>103.540766</ele>
        <time>2026-08-18T02:05:25.000Z</time>
      </trkpt>
      <trkpt lat="22.885552" lon="110.585617">
        <ele>103.452711</ele>
        <time>2026-08-18T02:05:26.000Z</time>
      </trkpt>
      <trkpt lat="22.885558" lon="110.585669">
        <ele>103.362411</ele>
        <time>2026-08-18T02:05:27.000Z</time>
      </trkpt>
      <trkpt lat="22.885566" lon="110.585724">
        <ele>103.266468</ele>
        <time>2026-08-18T02:05:28.000Z</time>
      </trkpt>
      <trkpt lat="22.885573" lon="110.585780">
        <ele>103.169092</ele>
        <time>2026-08-18T02:05:29.000Z</time>
      </trkpt>
      <trkpt lat="22.885583" lon="110.585839">
        <ele>103.065725</ele>
        <time>2026-08-18T02:05:30.000Z</time>
      </trkpt>
      <trkpt lat="22.885592" lon="110.585900">
        <ele>102.959278</ele>
        <time>2026-08-18T02:05:31.000Z</time>
      </trkpt>
      <trkpt lat="22.885601" lon="110.585964">
        <ele>102.847725</ele>
        <time>2026-08-18T02:05:32.000Z</time>
      </trkpt>
      <trkpt lat="22.885609" lon="110.586028">
        <ele>102.736438</ele>
        <time>2026-08-18T02:05:33.000Z</time>
      </trkpt>
      <trkpt lat="22.885618" lon="110.586095">
        <ele>102.619772</ele>
        <time>2026-08-18T02:05:34.000Z</time>
      </trkpt>
      <trkpt lat="22.885628" lon="110.586167">
        <ele>102.494309</ele>
        <time>2026-08-18T02:05:35.000Z</time>
      </trkpt>
      <trkpt lat="22.885639" lon="110.586239">
        <ele>102.368554</ele>
        <time>2026-08-18T02:05:36.000Z</time>
      </trkpt>
      <trkpt lat="22.885652" lon="110.586311">
        <ele>102.242132</ele>
        <time>2026-08-18T02:05:37.000Z</time>
      </trkpt>
      <trkpt lat="22.885664" lon="110.586386">
        <ele>102.110968</ele>
        <time>2026-08-18T02:05:38.000Z</time>
      </trkpt>
      <trkpt lat="22.885676" lon="110.586463">
        <ele>101.991388</ele>
        <time>2026-08-18T02:05:39.000Z</time>
      </trkpt>
      <trkpt lat="22.885688" lon="110.586540">
        <ele>101.880542</ele>
        <time>2026-08-18T02:05:40.000Z</time>
      </trkpt>
      <trkpt lat="22.885699" lon="110.586616">
        <ele>101.771344</ele>
        <time>2026-08-18T02:05:41.000Z</time>
      </trkpt>
      <trkpt lat="22.885710" lon="110.586691">
        <ele>101.663549</ele>
        <time>2026-08-18T02:05:42.000Z</time>
      </trkpt>
      <trkpt lat="22.885722" lon="110.586768">
        <ele>101.552703</ele>
        <time>2026-08-18T02:05:43.000Z</time>
      </trkpt>
      <trkpt lat="22.885732" lon="110.586843">
        <ele>101.445139</ele>
        <time>2026-08-18T02:05:44.000Z</time>
      </trkpt>
      <trkpt lat="22.885742" lon="110.586916">
        <ele>101.340384</ele>
        <time>2026-08-18T02:05:45.000Z</time>
      </trkpt>
      <trkpt lat="22.885753" lon="110.586990">
        <ele>101.233990</ele>
        <time>2026-08-18T02:05:46.000Z</time>
      </trkpt>
      <trkpt lat="22.885763" lon="110.587062">
        <ele>101.130638</ele>
        <time>2026-08-18T02:05:47.000Z</time>
      </trkpt>
      <trkpt lat="22.885773" lon="110.587135">
        <ele>101.025883</ele>
        <time>2026-08-18T02:05:48.000Z</time>
      </trkpt>
      <trkpt lat="22.885784" lon="110.587207">
        <ele>100.922291</ele>
        <time>2026-08-18T02:05:49.000Z</time>
      </trkpt>
      <trkpt lat="22.885795" lon="110.587279">
        <ele>100.818698</ele>
        <time>2026-08-18T02:05:50.000Z</time>
      </trkpt>
      <trkpt lat="22.885807" lon="110.587353">
        <ele>100.712048</ele>
        <time>2026-08-18T02:05:51.000Z</time>
      </trkpt>
      <trkpt lat="22.885818" lon="110.587425">
        <ele>100.608456</ele>
        <time>2026-08-18T02:05:52.000Z</time>
      </trkpt>
      <trkpt lat="22.885829" lon="110.587497">
        <ele>100.504864</ele>
        <time>2026-08-18T02:05:53.000Z</time>
      </trkpt>
      <trkpt lat="22.885840" lon="110.587569">
        <ele>100.401272</ele>
        <time>2026-08-18T02:05:54.000Z</time>
      </trkpt>
      <trkpt lat="22.885851" lon="110.587641">
        <ele>100.297679</ele>
        <time>2026-08-18T02:05:55.000Z</time>
      </trkpt>
      <trkpt lat="22.885865" lon="110.587711">
        <ele>100.196007</ele>
        <time>2026-08-18T02:05:56.000Z</time>
      </trkpt>
      <trkpt lat="22.885877" lon="110.587780">
        <ele>100.096339</ele>
        <time>2026-08-18T02:05:57.000Z</time>
      </trkpt>
      <trkpt lat="22.885888" lon="110.587850">
        <ele>99.995546</ele>
        <time>2026-08-18T02:05:58.000Z</time>
      </trkpt>
      <trkpt lat="22.885896" lon="110.587920">
        <ele>99.895427</ele>
        <time>2026-08-18T02:05:59.000Z</time>
      </trkpt>
      <trkpt lat="22.885907" lon="110.587990">
        <ele>99.794634</ele>
        <time>2026-08-18T02:06:00.000Z</time>
      </trkpt>
      <trkpt lat="22.885923" lon="110.588053">
        <ele>99.701877</ele>
        <time>2026-08-18T02:06:01.000Z</time>
      </trkpt>
      <trkpt lat="22.885934" lon="110.588120">
        <ele>99.605279</ele>
        <time>2026-08-18T02:06:02.000Z</time>
      </trkpt>
      <trkpt lat="22.885943" lon="110.588188">
        <ele>99.507769</ele>
        <time>2026-08-18T02:06:03.000Z</time>
      </trkpt>
      <trkpt lat="22.885952" lon="110.588258">
        <ele>99.407449</ele>
        <time>2026-08-18T02:06:04.000Z</time>
      </trkpt>
      <trkpt lat="22.885962" lon="110.588325">
        <ele>99.311109</ele>
        <time>2026-08-18T02:06:05.000Z</time>
      </trkpt>
      <trkpt lat="22.885972" lon="110.588392">
        <ele>99.406500</ele>
        <time>2026-08-18T02:06:06.000Z</time>
      </trkpt>
      <trkpt lat="22.885981" lon="110.588459">
        <ele>99.554396</ele>
        <time>2026-08-18T02:06:07.000Z</time>
      </trkpt>
      <trkpt lat="22.885991" lon="110.588525">
        <ele>99.700496</ele>
        <time>2026-08-18T02:06:08.000Z</time>
      </trkpt>
      <trkpt lat="22.885999" lon="110.588593">
        <ele>99.850235</ele>
        <time>2026-08-18T02:06:09.000Z</time>
      </trkpt>
      <trkpt lat="22.886008" lon="110.588661">
        <ele>100.000293</ele>
        <time>2026-08-18T02:06:10.000Z</time>
      </trkpt>
      <trkpt lat="22.886018" lon="110.588727">
        <ele>100.146394</ele>
        <time>2026-08-18T02:06:11.000Z</time>
      </trkpt>
      <trkpt lat="22.886030" lon="110.588793">
        <ele>100.293338</ele>
        <time>2026-08-18T02:06:12.000Z</time>
      </trkpt>
      <trkpt lat="22.886042" lon="110.588859">
        <ele>100.440283</ele>
        <time>2026-08-18T02:06:13.000Z</time>
      </trkpt>
      <trkpt lat="22.886055" lon="110.588925">
        <ele>100.587705</ele>
        <time>2026-08-18T02:06:14.000Z</time>
      </trkpt>
      <trkpt lat="22.886068" lon="110.588992">
        <ele>100.737264</ele>
        <time>2026-08-18T02:06:15.000Z</time>
      </trkpt>
      <trkpt lat="22.886078" lon="110.589058">
        <ele>100.883365</ele>
        <time>2026-08-18T02:06:16.000Z</time>
      </trkpt>
      <trkpt lat="22.886089" lon="110.589121">
        <ele>101.023425</ele>
        <time>2026-08-18T02:06:17.000Z</time>
      </trkpt>
      <trkpt lat="22.886102" lon="110.589185">
        <ele>101.166578</ele>
        <time>2026-08-18T02:06:18.000Z</time>
      </trkpt>
      <trkpt lat="22.886116" lon="110.589248">
        <ele>101.308136</ele>
        <time>2026-08-18T02:06:19.000Z</time>
      </trkpt>
      <trkpt lat="22.886135" lon="110.589310">
        <ele>101.450859</ele>
        <time>2026-08-18T02:06:20.000Z</time>
      </trkpt>
      <trkpt lat="22.886156" lon="110.589370">
        <ele>101.591056</ele>
        <time>2026-08-18T02:06:21.000Z</time>
      </trkpt>
      <trkpt lat="22.886180" lon="110.589427">
        <ele>101.727948</ele>
        <time>2026-08-18T02:06:22.000Z</time>
      </trkpt>
      <trkpt lat="22.886206" lon="110.589481">
        <ele>101.861037</ele>
        <time>2026-08-18T02:06:23.000Z</time>
      </trkpt>
      <trkpt lat="22.886228" lon="110.589534">
        <ele>101.988014</ele>
        <time>2026-08-18T02:06:24.000Z</time>
      </trkpt>
      <trkpt lat="22.886249" lon="110.589580">
        <ele>102.100151</ele>
        <time>2026-08-18T02:06:25.000Z</time>
      </trkpt>
      <trkpt lat="22.886267" lon="110.589617">
        <ele>102.191546</ele>
        <time>2026-08-18T02:06:26.000Z</time>
      </trkpt>
      <trkpt lat="22.886281" lon="110.589651">
        <ele>102.272893</ele>
        <time>2026-08-18T02:06:27.000Z</time>
      </trkpt>
      <trkpt lat="22.886296" lon="110.589683">
        <ele>102.351318</ele>
        <time>2026-08-18T02:06:28.000Z</time>
      </trkpt>
      <trkpt lat="22.886320" lon="110.589708">
        <ele>102.430184</ele>
        <time>2026-08-18T02:06:29.000Z</time>
      </trkpt>
      <trkpt lat="22.886336" lon="110.589736">
        <ele>102.502154</ele>
        <time>2026-08-18T02:06:30.000Z</time>
      </trkpt>
      <trkpt lat="22.886349" lon="110.589761">
        <ele>102.564859</ele>
        <time>2026-08-18T02:06:31.000Z</time>
      </trkpt>
      <trkpt lat="22.886362" lon="110.589785">
        <ele>102.625672</ele>
        <time>2026-08-18T02:06:32.000Z</time>
      </trkpt>
      <trkpt lat="22.886375" lon="110.589806">
        <ele>102.680936</ele>
        <time>2026-08-18T02:06:33.000Z</time>
      </trkpt>
      <trkpt lat="22.886389" lon="110.589824">
        <ele>102.732391</ele>
        <time>2026-08-18T02:06:34.000Z</time>
      </trkpt>
      <trkpt lat="22.886401" lon="110.589840">
        <ele>102.777457</ele>
        <time>2026-08-18T02:06:35.000Z</time>
      </trkpt>
      <trkpt lat="22.886413" lon="110.589859">
        <ele>102.827774</ele>
        <time>2026-08-18T02:06:36.000Z</time>
      </trkpt>
      <trkpt lat="22.886425" lon="110.589879">
        <ele>102.879908</ele>
        <time>2026-08-18T02:06:37.000Z</time>
      </trkpt>
      <trkpt lat="22.886440" lon="110.589902">
        <ele>102.941461</ele>
        <time>2026-08-18T02:06:38.000Z</time>
      </trkpt>
      <trkpt lat="22.886453" lon="110.589928">
        <ele>103.006078</ele>
        <time>2026-08-18T02:06:39.000Z</time>
      </trkpt>
      <trkpt lat="22.886466" lon="110.589951">
        <ele>103.065018</ele>
        <time>2026-08-18T02:06:40.000Z</time>
      </trkpt>
      <trkpt lat="22.886477" lon="110.589974">
        <ele>103.121623</ele>
        <time>2026-08-18T02:06:41.000Z</time>
      </trkpt>
      <trkpt lat="22.886490" lon="110.589999">
        <ele>103.184328</ele>
        <time>2026-08-18T02:06:42.000Z</time>
      </trkpt>
      <trkpt lat="22.886504" lon="110.590025">
        <ele>103.250109</ele>
        <time>2026-08-18T02:06:43.000Z</time>
      </trkpt>
      <trkpt lat="22.886519" lon="110.590053">
        <ele>103.320858</ele>
        <time>2026-08-18T02:06:44.000Z</time>
      </trkpt>
      <trkpt lat="22.886528" lon="110.590081">
        <ele>103.385634</ele>
        <time>2026-08-18T02:06:45.000Z</time>
      </trkpt>
      <trkpt lat="22.886538" lon="110.590106">
        <ele>103.445166</ele>
        <time>2026-08-18T02:06:46.000Z</time>
      </trkpt>
      <trkpt lat="22.886545" lon="110.590135">
        <ele>103.510649</ele>
        <time>2026-08-18T02:06:47.000Z</time>
      </trkpt>
      <trkpt lat="22.886557" lon="110.590160">
        <ele>103.575094</ele>
        <time>2026-08-18T02:06:48.000Z</time>
      </trkpt>
      <trkpt lat="22.886568" lon="110.590191">
        <ele>103.659591</ele>
        <time>2026-08-18T02:06:49.000Z</time>
      </trkpt>
      <trkpt lat="22.886578" lon="110.590221">
        <ele>103.740739</ele>
        <time>2026-08-18T02:06:50.000Z</time>
      </trkpt>
      <trkpt lat="22.886588" lon="110.590251">
        <ele>103.821887</ele>
        <time>2026-08-18T02:06:51.000Z</time>
      </trkpt>
      <trkpt lat="22.886597" lon="110.590277">
        <ele>103.892533</ele>
        <time>2026-08-18T02:06:52.000Z</time>
      </trkpt>
      <trkpt lat="22.886609" lon="110.590301">
        <ele>103.961990</ele>
        <time>2026-08-18T02:06:53.000Z</time>
      </trkpt>
      <trkpt lat="22.886620" lon="110.590322">
        <ele>104.023434</ele>
        <time>2026-08-18T02:06:54.000Z</time>
      </trkpt>
      <trkpt lat="22.886631" lon="110.590342">
        <ele>104.082681</ele>
        <time>2026-08-18T02:06:55.000Z</time>
      </trkpt>
      <trkpt lat="22.886636" lon="110.590365">
        <ele>104.142790</ele>
        <time>2026-08-18T02:06:56.000Z</time>
      </trkpt>
      <trkpt lat="22.886644" lon="110.590385">
        <ele>104.198249</ele>
        <time>2026-08-18T02:06:57.000Z</time>
      </trkpt>
      <trkpt lat="22.886649" lon="110.590405">
        <ele>104.250960</ele>
        <time>2026-08-18T02:06:58.000Z</time>
      </trkpt>
      <trkpt lat="22.886652" lon="110.590426">
        <ele>104.305013</ele>
        <time>2026-08-18T02:06:59.000Z</time>
      </trkpt>
      <trkpt lat="22.886653" lon="110.590449">
        <ele>104.363580</ele>
        <time>2026-08-18T02:07:00.000Z</time>
      </trkpt>
      <trkpt lat="22.886654" lon="110.590470">
        <ele>104.417066</ele>
        <time>2026-08-18T02:07:01.000Z</time>
      </trkpt>
      <trkpt lat="22.886657" lon="110.590494">
        <ele>104.478671</ele>
        <time>2026-08-18T02:07:02.000Z</time>
      </trkpt>
      <trkpt lat="22.886658" lon="110.590516">
        <ele>104.534697</ele>
        <time>2026-08-18T02:07:03.000Z</time>
      </trkpt>
      <trkpt lat="22.886657" lon="110.590538">
        <ele>104.590723</ele>
        <time>2026-08-18T02:07:04.000Z</time>
      </trkpt>
      <trkpt lat="22.886660" lon="110.590570">
        <ele>104.672537</ele>
        <time>2026-08-18T02:07:05.000Z</time>
      </trkpt>
      <trkpt lat="22.886664" lon="110.590601">
        <ele>104.752157</ele>
        <time>2026-08-18T02:07:06.000Z</time>
      </trkpt>
      <trkpt lat="22.886665" lon="110.590633">
        <ele>104.833598</ele>
        <time>2026-08-18T02:07:07.000Z</time>
      </trkpt>
      <trkpt lat="22.886669" lon="110.590666">
        <ele>104.918258</ele>
        <time>2026-08-18T02:07:08.000Z</time>
      </trkpt>
      <trkpt lat="22.886670" lon="110.590698">
        <ele>104.999699</ele>
        <time>2026-08-18T02:07:09.000Z</time>
      </trkpt>
      <trkpt lat="22.886672" lon="110.590730">
        <ele>105.081280</ele>
        <time>2026-08-18T02:07:10.000Z</time>
      </trkpt>
      <trkpt lat="22.886673" lon="110.590764">
        <ele>105.167805</ele>
        <time>2026-08-18T02:07:11.000Z</time>
      </trkpt>
      <trkpt lat="22.886675" lon="110.590795">
        <ele>105.246848</ele>
        <time>2026-08-18T02:07:12.000Z</time>
      </trkpt>
      <trkpt lat="22.886670" lon="110.590824">
        <ele>105.321892</ele>
        <time>2026-08-18T02:07:13.000Z</time>
      </trkpt>
      <trkpt lat="22.886672" lon="110.590856">
        <ele>105.403473</ele>
        <time>2026-08-18T02:07:14.000Z</time>
      </trkpt>
      <trkpt lat="22.886664" lon="110.590884">
        <ele>105.478039</ele>
        <time>2026-08-18T02:07:15.000Z</time>
      </trkpt>
      <trkpt lat="22.886660" lon="110.590917">
        <ele>105.562699</ele>
        <time>2026-08-18T02:07:16.000Z</time>
      </trkpt>
      <trkpt lat="22.886656" lon="110.590949">
        <ele>105.644839</ele>
        <time>2026-08-18T02:07:17.000Z</time>
      </trkpt>
      <trkpt lat="22.886652" lon="110.590982">
        <ele>105.729500</ele>
        <time>2026-08-18T02:07:18.000Z</time>
      </trkpt>
      <trkpt lat="22.886647" lon="110.591015">
        <ele>105.814564</ele>
        <time>2026-08-18T02:07:19.000Z</time>
      </trkpt>
      <trkpt lat="22.886641" lon="110.591048">
        <ele>105.900121</ele>
        <time>2026-08-18T02:07:20.000Z</time>
      </trkpt>
      <trkpt lat="22.886634" lon="110.591081">
        <ele>105.986254</ele>
        <time>2026-08-18T02:07:21.000Z</time>
      </trkpt>
      <trkpt lat="22.886626" lon="110.591113">
        <ele>106.070592</ele>
        <time>2026-08-18T02:07:22.000Z</time>
      </trkpt>
      <trkpt lat="22.886617" lon="110.591144">
        <ele>106.153265</ele>
        <time>2026-08-18T02:07:23.000Z</time>
      </trkpt>
      <trkpt lat="22.886611" lon="110.591178">
        <ele>106.241318</ele>
        <time>2026-08-18T02:07:24.000Z</time>
      </trkpt>
      <trkpt lat="22.886604" lon="110.591211">
        <ele>106.327451</ele>
        <time>2026-08-18T02:07:25.000Z</time>
      </trkpt>
      <trkpt lat="22.886596" lon="110.591244">
        <ele>106.414246</ele>
        <time>2026-08-18T02:07:26.000Z</time>
      </trkpt>
      <trkpt lat="22.886590" lon="110.591280">
        <ele>106.507300</ele>
        <time>2026-08-18T02:07:27.000Z</time>
      </trkpt>
      <trkpt lat="22.886583" lon="110.591315">
        <ele>106.598399</ele>
        <time>2026-08-18T02:07:28.000Z</time>
      </trkpt>
      <trkpt lat="22.886573" lon="110.591349">
        <ele>106.689180</ele>
        <time>2026-08-18T02:07:29.000Z</time>
      </trkpt>
      <trkpt lat="22.886564" lon="110.591383">
        <ele>106.779160</ele>
        <time>2026-08-18T02:07:30.000Z</time>
      </trkpt>
      <trkpt lat="22.886558" lon="110.591418">
        <ele>106.869712</ele>
        <time>2026-08-18T02:07:31.000Z</time>
      </trkpt>
      <trkpt lat="22.886555" lon="110.591454">
        <ele>106.961654</ele>
        <time>2026-08-18T02:07:32.000Z</time>
      </trkpt>
      <trkpt lat="22.886551" lon="110.591488">
        <ele>107.048837</ele>
        <time>2026-08-18T02:07:33.000Z</time>
      </trkpt>
      <trkpt lat="22.886546" lon="110.591525">
        <ele>107.143956</ele>
        <time>2026-08-18T02:07:34.000Z</time>
      </trkpt>
      <trkpt lat="22.886543" lon="110.591563">
        <ele>107.240966</ele>
        <time>2026-08-18T02:07:35.000Z</time>
      </trkpt>
      <trkpt lat="22.886541" lon="110.591603">
        <ele>107.342858</ele>
        <time>2026-08-18T02:07:36.000Z</time>
      </trkpt>
      <trkpt lat="22.886540" lon="110.591641">
        <ele>107.439552</ele>
        <time>2026-08-18T02:07:37.000Z</time>
      </trkpt>
      <trkpt lat="22.886539" lon="110.591679">
        <ele>107.536247</ele>
        <time>2026-08-18T02:07:38.000Z</time>
      </trkpt>
      <trkpt lat="22.886538" lon="110.591719">
        <ele>107.638027</ele>
        <time>2026-08-18T02:07:39.000Z</time>
      </trkpt>
      <trkpt lat="22.886536" lon="110.591757">
        <ele>107.734839</ele>
        <time>2026-08-18T02:07:40.000Z</time>
      </trkpt>
      <trkpt lat="22.886534" lon="110.591796">
        <ele>107.834192</ele>
        <time>2026-08-18T02:07:41.000Z</time>
      </trkpt>
      <trkpt lat="22.886533" lon="110.591834">
        <ele>107.930886</ele>
        <time>2026-08-18T02:07:42.000Z</time>
      </trkpt>
      <trkpt lat="22.886535" lon="110.591869">
        <ele>108.020082</ele>
        <time>2026-08-18T02:07:43.000Z</time>
      </trkpt>
      <trkpt lat="22.886537" lon="110.591902">
        <ele>108.104201</ele>
        <time>2026-08-18T02:07:44.000Z</time>
      </trkpt>
      <trkpt lat="22.886536" lon="110.591933">
        <ele>108.183099</ele>
        <time>2026-08-18T02:07:45.000Z</time>
      </trkpt>
      <trkpt lat="22.886537" lon="110.591963">
        <ele>108.259456</ele>
        <time>2026-08-18T02:07:46.000Z</time>
      </trkpt>
      <trkpt lat="22.886537" lon="110.591994">
        <ele>108.338306</ele>
        <time>2026-08-18T02:07:47.000Z</time>
      </trkpt>
      <trkpt lat="22.886537" lon="110.592023">
        <ele>108.412070</ele>
        <time>2026-08-18T02:07:48.000Z</time>
      </trkpt>
      <trkpt lat="22.886539" lon="110.592054">
        <ele>108.491113</ele>
        <time>2026-08-18T02:07:49.000Z</time>
      </trkpt>
      <trkpt lat="22.886540" lon="110.592085">
        <ele>108.496389</ele>
        <time>2026-08-18T02:07:50.000Z</time>
      </trkpt>
      <trkpt lat="22.886540" lon="110.592117">
        <ele>108.456379</ele>
        <time>2026-08-18T02:07:51.000Z</time>
      </trkpt>
      <trkpt lat="22.886540" lon="110.592150">
        <ele>108.415118</ele>
        <time>2026-08-18T02:07:52.000Z</time>
      </trkpt>
      <trkpt lat="22.886540" lon="110.592182">
        <ele>108.375108</ele>
        <time>2026-08-18T02:07:53.000Z</time>
      </trkpt>
      <trkpt lat="22.886541" lon="110.592212">
        <ele>108.337574</ele>
        <time>2026-08-18T02:07:54.000Z</time>
      </trkpt>
      <trkpt lat="22.886541" lon="110.592243">
        <ele>108.298814</ele>
        <time>2026-08-18T02:07:55.000Z</time>
      </trkpt>
      <trkpt lat="22.886539" lon="110.592276">
        <ele>108.257465</ele>
        <time>2026-08-18T02:07:56.000Z</time>
      </trkpt>
      <trkpt lat="22.886540" lon="110.592311">
        <ele>108.213682</ele>
        <time>2026-08-18T02:07:57.000Z</time>
      </trkpt>
      <trkpt lat="22.886541" lon="110.592348">
        <ele>108.167401</ele>
        <time>2026-08-18T02:07:58.000Z</time>
      </trkpt>
      <trkpt lat="22.886544" lon="110.592385">
        <ele>108.120960</ele>
        <time>2026-08-18T02:07:59.000Z</time>
      </trkpt>
      <trkpt lat="22.886547" lon="110.592423">
        <ele>108.073274</ele>
        <time>2026-08-18T02:08:00.000Z</time>
      </trkpt>
      <trkpt lat="22.886550" lon="110.592464">
        <ele>108.021849</ele>
        <time>2026-08-18T02:08:01.000Z</time>
      </trkpt>
      <trkpt lat="22.886555" lon="110.592507">
        <ele>107.967659</ele>
        <time>2026-08-18T02:08:02.000Z</time>
      </trkpt>
      <trkpt lat="22.886563" lon="110.592551">
        <ele>107.911584</ele>
        <time>2026-08-18T02:08:03.000Z</time>
      </trkpt>
      <trkpt lat="22.886574" lon="110.592598">
        <ele>107.850952</ele>
        <time>2026-08-18T02:08:04.000Z</time>
      </trkpt>
      <trkpt lat="22.886582" lon="110.592646">
        <ele>107.789963</ele>
        <time>2026-08-18T02:08:05.000Z</time>
      </trkpt>
      <trkpt lat="22.886589" lon="110.592697">
        <ele>107.725493</ele>
        <time>2026-08-18T02:08:06.000Z</time>
      </trkpt>
      <trkpt lat="22.886597" lon="110.592749">
        <ele>107.659576</ele>
        <time>2026-08-18T02:08:07.000Z</time>
      </trkpt>
      <trkpt lat="22.886609" lon="110.592801">
        <ele>107.592551</ele>
        <time>2026-08-18T02:08:08.000Z</time>
      </trkpt>
      <trkpt lat="22.886623" lon="110.592856">
        <ele>107.521207</ele>
        <time>2026-08-18T02:08:09.000Z</time>
      </trkpt>
      <trkpt lat="22.886633" lon="110.592909">
        <ele>107.453565</ele>
        <time>2026-08-18T02:08:10.000Z</time>
      </trkpt>
      <trkpt lat="22.886643" lon="110.592961">
        <ele>107.387147</ele>
        <time>2026-08-18T02:08:11.000Z</time>
      </trkpt>
      <trkpt lat="22.886654" lon="110.593012">
        <ele>107.321656</ele>
        <time>2026-08-18T02:08:12.000Z</time>
      </trkpt>
      <trkpt lat="22.886665" lon="110.593064">
        <ele>107.254948</ele>
        <time>2026-08-18T02:08:13.000Z</time>
      </trkpt>
      <trkpt lat="22.886673" lon="110.593118">
        <ele>107.186563</ele>
        <time>2026-08-18T02:08:14.000Z</time>
      </trkpt>
      <trkpt lat="22.886679" lon="110.593174">
        <ele>107.116074</ele>
        <time>2026-08-18T02:08:15.000Z</time>
      </trkpt>
      <trkpt lat="22.886687" lon="110.593227">
        <ele>107.048923</ele>
        <time>2026-08-18T02:08:16.000Z</time>
      </trkpt>
      <trkpt lat="22.886692" lon="110.593279">
        <ele>106.983554</ele>
        <time>2026-08-18T02:08:17.000Z</time>
      </trkpt>
      <trkpt lat="22.886688" lon="110.593332">
        <ele>106.917065</ele>
        <time>2026-08-18T02:08:18.000Z</time>
      </trkpt>
      <trkpt lat="22.886683" lon="110.593386">
        <ele>106.849208</ele>
        <time>2026-08-18T02:08:19.000Z</time>
      </trkpt>
      <trkpt lat="22.886675" lon="110.593442">
        <ele>106.778353</ele>
        <time>2026-08-18T02:08:20.000Z</time>
      </trkpt>
      <trkpt lat="22.886659" lon="110.593499">
        <ele>106.703851</ele>
        <time>2026-08-18T02:08:21.000Z</time>
      </trkpt>
      <trkpt lat="22.886642" lon="110.593558">
        <ele>106.626558</ele>
        <time>2026-08-18T02:08:22.000Z</time>
      </trkpt>
      <trkpt lat="22.886624" lon="110.593618">
        <ele>106.547662</ele>
        <time>2026-08-18T02:08:23.000Z</time>
      </trkpt>
      <trkpt lat="22.886606" lon="110.593679">
        <ele>106.467576</ele>
        <time>2026-08-18T02:08:24.000Z</time>
      </trkpt>
      <trkpt lat="22.886588" lon="110.593741">
        <ele>106.386298</ele>
        <time>2026-08-18T02:08:25.000Z</time>
      </trkpt>
      <trkpt lat="22.886567" lon="110.593804">
        <ele>106.302530</ele>
        <time>2026-08-18T02:08:26.000Z</time>
      </trkpt>
      <trkpt lat="22.886546" lon="110.593865">
        <ele>106.221110</ele>
        <time>2026-08-18T02:08:27.000Z</time>
      </trkpt>
      <trkpt lat="22.886527" lon="110.593925">
        <ele>106.141783</ele>
        <time>2026-08-18T02:08:28.000Z</time>
      </trkpt>
      <trkpt lat="22.886506" lon="110.593985">
        <ele>106.057800</ele>
        <time>2026-08-18T02:08:29.000Z</time>
      </trkpt>
      <trkpt lat="22.886486" lon="110.594045">
        <ele>105.961551</ele>
        <time>2026-08-18T02:08:30.000Z</time>
      </trkpt>
      <trkpt lat="22.886468" lon="110.594105">
        <ele>105.866366</ele>
        <time>2026-08-18T02:08:31.000Z</time>
      </trkpt>
      <trkpt lat="22.886453" lon="110.594166">
        <ele>105.771129</ele>
        <time>2026-08-18T02:08:32.000Z</time>
      </trkpt>
      <trkpt lat="22.886442" lon="110.594222">
        <ele>105.684757</ele>
        <time>2026-08-18T02:08:33.000Z</time>
      </trkpt>
      <trkpt lat="22.886440" lon="110.594277">
        <ele>105.601727</ele>
        <time>2026-08-18T02:08:34.000Z</time>
      </trkpt>
      <trkpt lat="22.886438" lon="110.594332">
        <ele>105.518697</ele>
        <time>2026-08-18T02:08:35.000Z</time>
      </trkpt>
      <trkpt lat="22.886439" lon="110.594389">
        <ele>105.432700</ele>
        <time>2026-08-18T02:08:36.000Z</time>
      </trkpt>
      <trkpt lat="22.886447" lon="110.594446">
        <ele>105.345726</ele>
        <time>2026-08-18T02:08:37.000Z</time>
      </trkpt>
      <trkpt lat="22.886467" lon="110.594503">
        <ele>105.253719</ele>
        <time>2026-08-18T02:08:38.000Z</time>
      </trkpt>
      <trkpt lat="22.886486" lon="110.594560">
        <ele>105.162282</ele>
        <time>2026-08-18T02:08:39.000Z</time>
      </trkpt>
      <trkpt lat="22.886507" lon="110.594616">
        <ele>105.071079</ele>
        <time>2026-08-18T02:08:40.000Z</time>
      </trkpt>
      <trkpt lat="22.886530" lon="110.594671">
        <ele>104.979967</ele>
        <time>2026-08-18T02:08:41.000Z</time>
      </trkpt>
      <trkpt lat="22.886555" lon="110.594728">
        <ele>104.884738</ele>
        <time>2026-08-18T02:08:42.000Z</time>
      </trkpt>
      <trkpt lat="22.886582" lon="110.594782">
        <ele>104.792058</ele>
        <time>2026-08-18T02:08:43.000Z</time>
      </trkpt>
      <trkpt lat="22.886607" lon="110.594839">
        <ele>104.696830</ele>
        <time>2026-08-18T02:08:44.000Z</time>
      </trkpt>
      <trkpt lat="22.886631" lon="110.594896">
        <ele>104.602294</ele>
        <time>2026-08-18T02:08:45.000Z</time>
      </trkpt>
      <trkpt lat="22.886657" lon="110.594952">
        <ele>104.507700</ele>
        <time>2026-08-18T02:08:46.000Z</time>
      </trkpt>
      <trkpt lat="22.886683" lon="110.595009">
        <ele>104.411756</ele>
        <time>2026-08-18T02:08:47.000Z</time>
      </trkpt>
      <trkpt lat="22.886709" lon="110.595066">
        <ele>104.315812</ele>
        <time>2026-08-18T02:08:48.000Z</time>
      </trkpt>
      <trkpt lat="22.886736" lon="110.595124">
        <ele>104.217787</ele>
        <time>2026-08-18T02:08:49.000Z</time>
      </trkpt>
      <trkpt lat="22.886761" lon="110.595181">
        <ele>104.122559</ele>
        <time>2026-08-18T02:08:50.000Z</time>
      </trkpt>
      <trkpt lat="22.886787" lon="110.595240">
        <ele>104.023903</ele>
        <time>2026-08-18T02:08:51.000Z</time>
      </trkpt>
      <trkpt lat="22.886814" lon="110.595298">
        <ele>103.925878</ele>
        <time>2026-08-18T02:08:52.000Z</time>
      </trkpt>
      <trkpt lat="22.886840" lon="110.595355">
        <ele>103.829934</ele>
        <time>2026-08-18T02:08:53.000Z</time>
      </trkpt>
      <trkpt lat="22.886865" lon="110.595413">
        <ele>103.733342</ele>
        <time>2026-08-18T02:08:54.000Z</time>
      </trkpt>
      <trkpt lat="22.886889" lon="110.595470">
        <ele>103.638806</ele>
        <time>2026-08-18T02:08:55.000Z</time>
      </trkpt>
      <trkpt lat="22.886913" lon="110.595528">
        <ele>103.542896</ele>
        <time>2026-08-18T02:08:56.000Z</time>
      </trkpt>
      <trkpt lat="22.886939" lon="110.595585">
        <ele>103.446952</ele>
        <time>2026-08-18T02:08:57.000Z</time>
      </trkpt>
      <trkpt lat="22.886965" lon="110.595644">
        <ele>103.348296</ele>
        <time>2026-08-18T02:08:58.000Z</time>
      </trkpt>
      <trkpt lat="22.886990" lon="110.595704">
        <ele>103.248963</ele>
        <time>2026-08-18T02:08:59.000Z</time>
      </trkpt>
      <trkpt lat="22.887016" lon="110.595764">
        <ele>103.148944</ele>
        <time>2026-08-18T02:09:00.000Z</time>
      </trkpt>
      <trkpt lat="22.887041" lon="110.595825">
        <ele>103.120017</ele>
        <time>2026-08-18T02:09:01.000Z</time>
      </trkpt>
      <trkpt lat="22.887067" lon="110.595885">
        <ele>103.103131</ele>
        <time>2026-08-18T02:09:02.000Z</time>
      </trkpt>
      <trkpt lat="22.887092" lon="110.595944">
        <ele>103.086593</ele>
        <time>2026-08-18T02:09:03.000Z</time>
      </trkpt>
      <trkpt lat="22.887116" lon="110.596000">
        <ele>103.070864</ele>
        <time>2026-08-18T02:09:04.000Z</time>
      </trkpt>
      <trkpt lat="22.887142" lon="110.596060">
        <ele>103.053978</ele>
        <time>2026-08-18T02:09:05.000Z</time>
      </trkpt>
      <trkpt lat="22.887167" lon="110.596118">
        <ele>103.037671</ele>
        <time>2026-08-18T02:09:06.000Z</time>
      </trkpt>
      <trkpt lat="22.887191" lon="110.596174">
        <ele>103.021942</ele>
        <time>2026-08-18T02:09:07.000Z</time>
      </trkpt>
      <trkpt lat="22.887216" lon="110.596233">
        <ele>103.005404</ele>
        <time>2026-08-18T02:09:08.000Z</time>
      </trkpt>
      <trkpt lat="22.887239" lon="110.596290">
        <ele>102.989557</ele>
        <time>2026-08-18T02:09:09.000Z</time>
      </trkpt>
      <trkpt lat="22.887262" lon="110.596346">
        <ele>102.973943</ele>
        <time>2026-08-18T02:09:10.000Z</time>
      </trkpt>
      <trkpt lat="22.887286" lon="110.596403">
        <ele>102.957982</ele>
        <time>2026-08-18T02:09:11.000Z</time>
      </trkpt>
      <trkpt lat="22.887312" lon="110.596459">
        <ele>102.942013</ele>
        <time>2026-08-18T02:09:12.000Z</time>
      </trkpt>
      <trkpt lat="22.887338" lon="110.596516">
        <ele>102.925815</ele>
        <time>2026-08-18T02:09:13.000Z</time>
      </trkpt>
      <trkpt lat="22.887364" lon="110.596573">
        <ele>102.909617</ele>
        <time>2026-08-18T02:09:14.000Z</time>
      </trkpt>
      <trkpt lat="22.887392" lon="110.596630">
        <ele>102.893167</ele>
        <time>2026-08-18T02:09:15.000Z</time>
      </trkpt>
      <trkpt lat="22.887419" lon="110.596687">
        <ele>102.876845</ele>
        <time>2026-08-18T02:09:16.000Z</time>
      </trkpt>
      <trkpt lat="22.887444" lon="110.596742">
        <ele>102.861226</ele>
        <time>2026-08-18T02:09:17.000Z</time>
      </trkpt>
      <trkpt lat="22.887468" lon="110.596797">
        <ele>102.845728</ele>
        <time>2026-08-18T02:09:18.000Z</time>
      </trkpt>
      <trkpt lat="22.887493" lon="110.596851">
        <ele>102.830337</ele>
        <time>2026-08-18T02:09:19.000Z</time>
      </trkpt>
      <trkpt lat="22.887517" lon="110.596907">
        <ele>102.814608</ele>
        <time>2026-08-18T02:09:20.000Z</time>
      </trkpt>
      <trkpt lat="22.887540" lon="110.596963">
        <ele>102.798994</ele>
        <time>2026-08-18T02:09:21.000Z</time>
      </trkpt>
      <trkpt lat="22.887563" lon="110.597019">
        <ele>102.783380</ele>
        <time>2026-08-18T02:09:22.000Z</time>
      </trkpt>
      <trkpt lat="22.887587" lon="110.597074">
        <ele>102.767882</ele>
        <time>2026-08-18T02:09:23.000Z</time>
      </trkpt>
      <trkpt lat="22.887608" lon="110.597129">
        <ele>102.752720</ele>
        <time>2026-08-18T02:09:24.000Z</time>
      </trkpt>
      <trkpt lat="22.887632" lon="110.597184">
        <ele>102.737222</ele>
        <time>2026-08-18T02:09:25.000Z</time>
      </trkpt>
      <trkpt lat="22.887656" lon="110.597239">
        <ele>102.721723</ele>
        <time>2026-08-18T02:09:26.000Z</time>
      </trkpt>
      <trkpt lat="22.887680" lon="110.597293">
        <ele>102.706455</ele>
        <time>2026-08-18T02:09:27.000Z</time>
      </trkpt>
      <trkpt lat="22.887704" lon="110.597346">
        <ele>102.691415</ele>
        <time>2026-08-18T02:09:28.000Z</time>
      </trkpt>
      <trkpt lat="22.887727" lon="110.597399">
        <ele>102.676496</ele>
        <time>2026-08-18T02:09:29.000Z</time>
      </trkpt>
      <trkpt lat="22.887751" lon="110.597451">
        <ele>102.661684</ele>
        <time>2026-08-18T02:09:30.000Z</time>
      </trkpt>
      <trkpt lat="22.887773" lon="110.597506">
        <ele>102.646415</ele>
        <time>2026-08-18T02:09:31.000Z</time>
      </trkpt>
      <trkpt lat="22.887796" lon="110.597560">
        <ele>102.663862</ele>
        <time>2026-08-18T02:09:32.000Z</time>
      </trkpt>
      <trkpt lat="22.887820" lon="110.597614">
        <ele>102.729662</ele>
        <time>2026-08-18T02:09:33.000Z</time>
      </trkpt>
      <trkpt lat="22.887841" lon="110.597665">
        <ele>102.790970</ele>
        <time>2026-08-18T02:09:34.000Z</time>
      </trkpt>
      <trkpt lat="22.887860" lon="110.597716">
        <ele>102.851346</ele>
        <time>2026-08-18T02:09:35.000Z</time>
      </trkpt>
      <trkpt lat="22.887880" lon="110.597768">
        <ele>102.913189</ele>
        <time>2026-08-18T02:09:36.000Z</time>
      </trkpt>
      <trkpt lat="22.887902" lon="110.597818">
        <ele>102.974000</ele>
        <time>2026-08-18T02:09:37.000Z</time>
      </trkpt>
      <trkpt lat="22.887923" lon="110.597870">
        <ele>103.036312</ele>
        <time>2026-08-18T02:09:38.000Z</time>
      </trkpt>
      <trkpt lat="22.887945" lon="110.597922">
        <ele>103.099112</ele>
        <time>2026-08-18T02:09:39.000Z</time>
      </trkpt>
      <trkpt lat="22.887971" lon="110.597971">
        <ele>103.161171</ele>
        <time>2026-08-18T02:09:40.000Z</time>
      </trkpt>
      <trkpt lat="22.887992" lon="110.598017">
        <ele>103.217514</ele>
        <time>2026-08-18T02:09:41.000Z</time>
      </trkpt>
      <trkpt lat="22.888009" lon="110.598062">
        <ele>103.270891</ele>
        <time>2026-08-18T02:09:42.000Z</time>
      </trkpt>
      <trkpt lat="22.888021" lon="110.598114">
        <ele>103.329724</ele>
        <time>2026-08-18T02:09:43.000Z</time>
      </trkpt>
      <trkpt lat="22.888034" lon="110.598166">
        <ele>103.388857</ele>
        <time>2026-08-18T02:09:44.000Z</time>
      </trkpt>
      <trkpt lat="22.888050" lon="110.598217">
        <ele>103.447985</ele>
        <time>2026-08-18T02:09:45.000Z</time>
      </trkpt>
      <trkpt lat="22.888067" lon="110.598266">
        <ele>103.505449</ele>
        <time>2026-08-18T02:09:46.000Z</time>
      </trkpt>
      <trkpt lat="22.888085" lon="110.598315">
        <ele>103.563344</ele>
        <time>2026-08-18T02:09:47.000Z</time>
      </trkpt>
      <trkpt lat="22.888104" lon="110.598361">
        <ele>103.618670</ele>
        <time>2026-08-18T02:09:48.000Z</time>
      </trkpt>
      <trkpt lat="22.888122" lon="110.598409">
        <ele>103.675546</ele>
        <time>2026-08-18T02:09:49.000Z</time>
      </trkpt>
      <trkpt lat="22.888136" lon="110.598459">
        <ele>103.732899</ele>
        <time>2026-08-18T02:09:50.000Z</time>
      </trkpt>
      <trkpt lat="22.888153" lon="110.598507">
        <ele>103.789337</ele>
        <time>2026-08-18T02:09:51.000Z</time>
      </trkpt>
      <trkpt lat="22.888174" lon="110.598553">
        <ele>103.845680</ele>
        <time>2026-08-18T02:09:52.000Z</time>
      </trkpt>
      <trkpt lat="22.888197" lon="110.598598">
        <ele>103.902158</ele>
        <time>2026-08-18T02:09:53.000Z</time>
      </trkpt>
      <trkpt lat="22.888224" lon="110.598644">
        <ele>103.962018</ele>
        <time>2026-08-18T02:09:54.000Z</time>
      </trkpt>
      <trkpt lat="22.888246" lon="110.598695">
        <ele>104.023822</ele>
        <time>2026-08-18T02:09:55.000Z</time>
      </trkpt>
      <trkpt lat="22.888265" lon="110.598749">
        <ele>104.087261</ele>
        <time>2026-08-18T02:09:56.000Z</time>
      </trkpt>
      <trkpt lat="22.888285" lon="110.598802">
        <ele>104.150118</ele>
        <time>2026-08-18T02:09:57.000Z</time>
      </trkpt>
      <trkpt lat="22.888305" lon="110.598853">
        <ele>104.210950</ele>
        <time>2026-08-18T02:09:58.000Z</time>
      </trkpt>
      <trkpt lat="22.888323" lon="110.598904">
        <ele>104.270889</ele>
        <time>2026-08-18T02:09:59.000Z</time>
      </trkpt>
      <trkpt lat="22.888336" lon="110.598958">
        <ele>104.332143</ele>
        <time>2026-08-18T02:10:00.000Z</time>
      </trkpt>
      <trkpt lat="22.888349" lon="110.599009">
        <ele>104.390218</ele>
        <time>2026-08-18T02:10:01.000Z</time>
      </trkpt>
      <trkpt lat="22.888366" lon="110.599056">
        <ele>104.445633</ele>
        <time>2026-08-18T02:10:02.000Z</time>
      </trkpt>
      <trkpt lat="22.888389" lon="110.599101">
        <ele>104.502111</ele>
        <time>2026-08-18T02:10:03.000Z</time>
      </trkpt>
      <trkpt lat="22.888415" lon="110.599142">
        <ele>104.556737</ele>
        <time>2026-08-18T02:10:04.000Z</time>
      </trkpt>
      <trkpt lat="22.888441" lon="110.599183">
        <ele>104.611364</ele>
        <time>2026-08-18T02:10:05.000Z</time>
      </trkpt>
      <trkpt lat="22.888464" lon="110.599228">
        <ele>104.667842</ele>
        <time>2026-08-18T02:10:06.000Z</time>
      </trkpt>
      <trkpt lat="22.888482" lon="110.599276">
        <ele>104.724718</ele>
        <time>2026-08-18T02:10:07.000Z</time>
      </trkpt>
      <trkpt lat="22.888497" lon="110.599324">
        <ele>104.779713</ele>
        <time>2026-08-18T02:10:08.000Z</time>
      </trkpt>
      <trkpt lat="22.888508" lon="110.599369">
        <ele>104.703205</ele>
        <time>2026-08-18T02:10:09.000Z</time>
      </trkpt>
      <trkpt lat="22.888521" lon="110.599414">
        <ele>104.625705</ele>
        <time>2026-08-18T02:10:10.000Z</time>
      </trkpt>
      <trkpt lat="22.888531" lon="110.599458">
        <ele>104.551232</ele>
        <time>2026-08-18T02:10:11.000Z</time>
      </trkpt>
      <trkpt lat="22.888543" lon="110.599498">
        <ele>104.482101</ele>
        <time>2026-08-18T02:10:12.000Z</time>
      </trkpt>
      <trkpt lat="22.888557" lon="110.599533">
        <ele>104.419398</ele>
        <time>2026-08-18T02:10:13.000Z</time>
      </trkpt>
      <trkpt lat="22.888571" lon="110.599565">
        <ele>104.361183</ele>
        <time>2026-08-18T02:10:14.000Z</time>
      </trkpt>
      <trkpt lat="22.888584" lon="110.599591">
        <ele>104.312570</ele>
        <time>2026-08-18T02:10:15.000Z</time>
      </trkpt>
      <trkpt lat="22.888594" lon="110.599615">
        <ele>104.269284</ele>
        <time>2026-08-18T02:10:16.000Z</time>
      </trkpt>
      <trkpt lat="22.888603" lon="110.599642">
        <ele>104.222100</ele>
        <time>2026-08-18T02:10:17.000Z</time>
      </trkpt>
      <trkpt lat="22.888614" lon="110.599667">
        <ele>104.176571</ele>
        <time>2026-08-18T02:10:18.000Z</time>
      </trkpt>
      <trkpt lat="22.888626" lon="110.599693">
        <ele>104.128783</ele>
        <time>2026-08-18T02:10:19.000Z</time>
      </trkpt>
      <trkpt lat="22.888638" lon="110.599725">
        <ele>104.072008</ele>
        <time>2026-08-18T02:10:20.000Z</time>
      </trkpt>
      <trkpt lat="22.888650" lon="110.599758">
        <ele>104.013707</ele>
        <time>2026-08-18T02:10:21.000Z</time>
      </trkpt>
      <trkpt lat="22.888662" lon="110.599789">
        <ele>103.958449</ele>
        <time>2026-08-18T02:10:22.000Z</time>
      </trkpt>
      <trkpt lat="22.888673" lon="110.599825">
        <ele>103.896121</ele>
        <time>2026-08-18T02:10:23.000Z</time>
      </trkpt>
      <trkpt lat="22.888684" lon="110.599862">
        <ele>103.832231</ele>
        <time>2026-08-18T02:10:24.000Z</time>
      </trkpt>
      <trkpt lat="22.888698" lon="110.599902">
        <ele>103.761914</ele>
        <time>2026-08-18T02:10:25.000Z</time>
      </trkpt>
      <trkpt lat="22.888712" lon="110.599944">
        <ele>103.688516</ele>
        <time>2026-08-18T02:10:26.000Z</time>
      </trkpt>
      <trkpt lat="22.888723" lon="110.599987">
        <ele>103.615180</ele>
        <time>2026-08-18T02:10:27.000Z</time>
      </trkpt>
      <trkpt lat="22.888731" lon="110.600030">
        <ele>103.543091</ele>
        <time>2026-08-18T02:10:28.000Z</time>
      </trkpt>
      <trkpt lat="22.888738" lon="110.600073">
        <ele>103.471334</ele>
        <time>2026-08-18T02:10:29.000Z</time>
      </trkpt>
      <trkpt lat="22.888746" lon="110.600120">
        <ele>103.392791</ele>
        <time>2026-08-18T02:10:30.000Z</time>
      </trkpt>
      <trkpt lat="22.888752" lon="110.600165">
        <ele>103.318071</ele>
        <time>2026-08-18T02:10:31.000Z</time>
      </trkpt>
      <trkpt lat="22.888757" lon="110.600213">
        <ele>103.238689</ele>
        <time>2026-08-18T02:10:32.000Z</time>
      </trkpt>
      <trkpt lat="22.888761" lon="110.600263">
        <ele>103.156214</ele>
        <time>2026-08-18T02:10:33.000Z</time>
      </trkpt>
      <trkpt lat="22.888763" lon="110.600319">
        <ele>103.064120</ele>
        <time>2026-08-18T02:10:34.000Z</time>
      </trkpt>
      <trkpt lat="22.888766" lon="110.600373">
        <ele>102.975219</ele>
        <time>2026-08-18T02:10:35.000Z</time>
      </trkpt>
      <trkpt lat="22.888768" lon="110.600426">
        <ele>102.888051</ele>
        <time>2026-08-18T02:10:36.000Z</time>
      </trkpt>
      <trkpt lat="22.888770" lon="110.600479">
        <ele>102.800882</ele>
        <time>2026-08-18T02:10:37.000Z</time>
      </trkpt>
      <trkpt lat="22.888767" lon="110.600535">
        <ele>102.708701</ele>
        <time>2026-08-18T02:10:38.000Z</time>
      </trkpt>
      <trkpt lat="22.888762" lon="110.600592">
        <ele>102.614608</ele>
        <time>2026-08-18T02:10:39.000Z</time>
      </trkpt>
      <trkpt lat="22.888756" lon="110.600644">
        <ele>102.528488</ele>
        <time>2026-08-18T02:10:40.000Z</time>
      </trkpt>
      <trkpt lat="22.888750" lon="110.600699">
        <ele>102.437475</ele>
        <time>2026-08-18T02:10:41.000Z</time>
      </trkpt>
      <trkpt lat="22.888745" lon="110.600759">
        <ele>102.338473</ele>
        <time>2026-08-18T02:10:42.000Z</time>
      </trkpt>
      <trkpt lat="22.888741" lon="110.600821">
        <ele>102.236338</ele>
        <time>2026-08-18T02:10:43.000Z</time>
      </trkpt>
      <trkpt lat="22.888738" lon="110.600888">
        <ele>102.126106</ele>
        <time>2026-08-18T02:10:44.000Z</time>
      </trkpt>
      <trkpt lat="22.888730" lon="110.600960">
        <ele>102.006930</ele>
        <time>2026-08-18T02:10:45.000Z</time>
      </trkpt>
      <trkpt lat="22.888723" lon="110.601036">
        <ele>101.881415</ele>
        <time>2026-08-18T02:10:46.000Z</time>
      </trkpt>
      <trkpt lat="22.888716" lon="110.601116">
        <ele>101.749359</ele>
        <time>2026-08-18T02:10:47.000Z</time>
      </trkpt>
      <trkpt lat="22.888708" lon="110.601199">
        <ele>101.612219</ele>
        <time>2026-08-18T02:10:48.000Z</time>
      </trkpt>
      <trkpt lat="22.888702" lon="110.601287">
        <ele>101.538043</ele>
        <time>2026-08-18T02:10:49.000Z</time>
      </trkpt>
      <trkpt lat="22.888695" lon="110.601376">
        <ele>101.490726</ele>
        <time>2026-08-18T02:10:50.000Z</time>
      </trkpt>
      <trkpt lat="22.888690" lon="110.601464">
        <ele>101.444023</ele>
        <time>2026-08-18T02:10:51.000Z</time>
      </trkpt>
      <trkpt lat="22.888686" lon="110.601552">
        <ele>101.397351</ele>
        <time>2026-08-18T02:10:52.000Z</time>
      </trkpt>
      <trkpt lat="22.888681" lon="110.601639">
        <ele>101.351176</ele>
        <time>2026-08-18T02:10:53.000Z</time>
      </trkpt>
      <trkpt lat="22.888675" lon="110.601723">
        <ele>101.306547</ele>
        <time>2026-08-18T02:10:54.000Z</time>
      </trkpt>
      <trkpt lat="22.888670" lon="110.601804">
        <ele>101.263543</ele>
        <time>2026-08-18T02:10:55.000Z</time>
      </trkpt>
      <trkpt lat="22.888666" lon="110.601882">
        <ele>101.222161</ele>
        <time>2026-08-18T02:10:56.000Z</time>
      </trkpt>
      <trkpt lat="22.888662" lon="110.601959">
        <ele>101.181309</ele>
        <time>2026-08-18T02:10:57.000Z</time>
      </trkpt>
      <trkpt lat="22.888657" lon="110.602035">
        <ele>101.140948</ele>
        <time>2026-08-18T02:10:58.000Z</time>
      </trkpt>
      <trkpt lat="22.888654" lon="110.602109">
        <ele>101.101711</ele>
        <time>2026-08-18T02:10:59.000Z</time>
      </trkpt>
      <trkpt lat="22.888651" lon="110.602183">
        <ele>101.062474</ele>
        <time>2026-08-18T02:11:00.000Z</time>
      </trkpt>
      <trkpt lat="22.888644" lon="110.602256">
        <ele>101.023596</ele>
        <time>2026-08-18T02:11:01.000Z</time>
      </trkpt>
      <trkpt lat="22.888636" lon="110.602326">
        <ele>100.986231</ele>
        <time>2026-08-18T02:11:02.000Z</time>
      </trkpt>
      <trkpt lat="22.888630" lon="110.602401">
        <ele>100.946353</ele>
        <time>2026-08-18T02:11:03.000Z</time>
      </trkpt>
      <trkpt lat="22.888625" lon="110.602468">
        <ele>100.910746</ele>
        <time>2026-08-18T02:11:04.000Z</time>
      </trkpt>
      <trkpt lat="22.888616" lon="110.602534">
        <ele>100.875403</ele>
        <time>2026-08-18T02:11:05.000Z</time>
      </trkpt>
      <trkpt lat="22.888603" lon="110.602598">
        <ele>100.840687</ele>
        <time>2026-08-18T02:11:06.000Z</time>
      </trkpt>
      <trkpt lat="22.888589" lon="110.602661">
        <ele>100.806358</ele>
        <time>2026-08-18T02:11:07.000Z</time>
      </trkpt>
      <trkpt lat="22.888573" lon="110.602723">
        <ele>100.772251</ele>
        <time>2026-08-18T02:11:08.000Z</time>
      </trkpt>
      <trkpt lat="22.888552" lon="110.602781">
        <ele>100.739240</ele>
        <time>2026-08-18T02:11:09.000Z</time>
      </trkpt>
      <trkpt lat="22.888529" lon="110.602837">
        <ele>100.706762</ele>
        <time>2026-08-18T02:11:10.000Z</time>
      </trkpt>
      <trkpt lat="22.888506" lon="110.602891">
        <ele>100.675248</ele>
        <time>2026-08-18T02:11:11.000Z</time>
      </trkpt>
      <trkpt lat="22.888482" lon="110.602943">
        <ele>100.644439</ele>
        <time>2026-08-18T02:11:12.000Z</time>
      </trkpt>
      <trkpt lat="22.888452" lon="110.602987">
        <ele>100.615443</ele>
        <time>2026-08-18T02:11:13.000Z</time>
      </trkpt>
      <trkpt lat="22.888414" lon="110.603026">
        <ele>100.585373</ele>
        <time>2026-08-18T02:11:14.000Z</time>
      </trkpt>
      <trkpt lat="22.888377" lon="110.603067">
        <ele>100.554971</ele>
        <time>2026-08-18T02:11:15.000Z</time>
      </trkpt>
      <trkpt lat="22.888339" lon="110.603104">
        <ele>100.549208</ele>
        <time>2026-08-18T02:11:16.000Z</time>
      </trkpt>
      <trkpt lat="22.888301" lon="110.603139">
        <ele>100.577279</ele>
        <time>2026-08-18T02:11:17.000Z</time>
      </trkpt>
      <trkpt lat="22.888265" lon="110.603173">
        <ele>100.604158</ele>
        <time>2026-08-18T02:11:18.000Z</time>
      </trkpt>
      <trkpt lat="22.888234" lon="110.603209">
        <ele>100.629730</ele>
        <time>2026-08-18T02:11:19.000Z</time>
      </trkpt>
      <trkpt lat="22.888205" lon="110.603246">
        <ele>100.654938</ele>
        <time>2026-08-18T02:11:20.000Z</time>
      </trkpt>
      <trkpt lat="22.888177" lon="110.603282">
        <ele>100.679387</ele>
        <time>2026-08-18T02:11:21.000Z</time>
      </trkpt>
      <trkpt lat="22.888154" lon="110.603321">
        <ele>100.703417</ele>
        <time>2026-08-18T02:11:22.000Z</time>
      </trkpt>
      <trkpt lat="22.888134" lon="110.603361">
        <ele>100.727034</ele>
        <time>2026-08-18T02:11:23.000Z</time>
      </trkpt>
      <trkpt lat="22.888114" lon="110.603402">
        <ele>100.751108</ele>
        <time>2026-08-18T02:11:24.000Z</time>
      </trkpt>
      <trkpt lat="22.888095" lon="110.603443">
        <ele>100.774924</ele>
        <time>2026-08-18T02:11:25.000Z</time>
      </trkpt>
      <trkpt lat="22.888075" lon="110.603484">
        <ele>100.798998</ele>
        <time>2026-08-18T02:11:26.000Z</time>
      </trkpt>
      <trkpt lat="22.888057" lon="110.603524">
        <ele>100.822099</ele>
        <time>2026-08-18T02:11:27.000Z</time>
      </trkpt>
      <trkpt lat="22.888039" lon="110.603563">
        <ele>100.844735</ele>
        <time>2026-08-18T02:11:28.000Z</time>
      </trkpt>
      <trkpt lat="22.888021" lon="110.603601">
        <ele>100.866908</ele>
        <time>2026-08-18T02:11:29.000Z</time>
      </trkpt>
      <trkpt lat="22.888006" lon="110.603640">
        <ele>100.888839</ele>
        <time>2026-08-18T02:11:30.000Z</time>
      </trkpt>
      <trkpt lat="22.887988" lon="110.603678">
        <ele>100.911012</ele>
        <time>2026-08-18T02:11:31.000Z</time>
      </trkpt>
      <trkpt lat="22.887970" lon="110.603713">
        <ele>100.931813</ele>
        <time>2026-08-18T02:11:32.000Z</time>
      </trkpt>
      <trkpt lat="22.887952" lon="110.603748">
        <ele>100.952614</ele>
        <time>2026-08-18T02:11:33.000Z</time>
      </trkpt>
      <trkpt lat="22.887933" lon="110.603784">
        <ele>100.974143</ele>
        <time>2026-08-18T02:11:34.000Z</time>
      </trkpt>
      <trkpt lat="22.887915" lon="110.603816">
        <ele>100.993600</ele>
        <time>2026-08-18T02:11:35.000Z</time>
      </trkpt>
      <trkpt lat="22.887900" lon="110.603848">
        <ele>101.012231</ele>
        <time>2026-08-18T02:11:36.000Z</time>
      </trkpt>
      <trkpt lat="22.887886" lon="110.603879">
        <ele>101.030147</ele>
        <time>2026-08-18T02:11:37.000Z</time>
      </trkpt>
      <trkpt lat="22.887871" lon="110.603908">
        <ele>101.047405</ele>
        <time>2026-08-18T02:11:38.000Z</time>
      </trkpt>
      <trkpt lat="22.887858" lon="110.603936">
        <ele>101.063676</ele>
        <time>2026-08-18T02:11:39.000Z</time>
      </trkpt>
      <trkpt lat="22.887843" lon="110.603964">
        <ele>101.080484</ele>
        <time>2026-08-18T02:11:40.000Z</time>
      </trkpt>
      <trkpt lat="22.887829" lon="110.603993">
        <ele>101.097474</ele>
        <time>2026-08-18T02:11:41.000Z</time>
      </trkpt>
      <trkpt lat="22.887815" lon="110.604021">
        <ele>101.114006</ele>
        <time>2026-08-18T02:11:42.000Z</time>
      </trkpt>
      <trkpt lat="22.887800" lon="110.604050">
        <ele>101.131264</ele>
        <time>2026-08-18T02:11:43.000Z</time>
      </trkpt>
      <trkpt lat="22.887786" lon="110.604079">
        <ele>101.148254</ele>
        <time>2026-08-18T02:11:44.000Z</time>
      </trkpt>
      <trkpt lat="22.887773" lon="110.604110">
        <ele>101.165929</ele>
        <time>2026-08-18T02:11:45.000Z</time>
      </trkpt>
      <trkpt lat="22.887758" lon="110.604141">
        <ele>101.184099</ele>
        <time>2026-08-18T02:11:46.000Z</time>
      </trkpt>
      <trkpt lat="22.887744" lon="110.604171">
        <ele>101.201551</ele>
        <time>2026-08-18T02:11:47.000Z</time>
      </trkpt>
      <trkpt lat="22.887730" lon="110.604203">
        <ele>101.219934</ele>
        <time>2026-08-18T02:11:48.000Z</time>
      </trkpt>
      <trkpt lat="22.887715" lon="110.604236">
        <ele>101.239029</ele>
        <time>2026-08-18T02:11:49.000Z</time>
      </trkpt>
      <trkpt lat="22.887700" lon="110.604271">
        <ele>101.259061</ele>
        <time>2026-08-18T02:11:50.000Z</time>
      </trkpt>
      <trkpt lat="22.887684" lon="110.604306">
        <ele>101.279336</ele>
        <time>2026-08-18T02:11:51.000Z</time>
      </trkpt>
      <trkpt lat="22.887670" lon="110.604343">
        <ele>101.300093</ele>
        <time>2026-08-18T02:11:52.000Z</time>
      </trkpt>
      <trkpt lat="22.887655" lon="110.604382">
        <ele>101.322024</ele>
        <time>2026-08-18T02:11:53.000Z</time>
      </trkpt>
      <trkpt lat="22.887642" lon="110.604423">
        <ele>101.344525</ele>
        <time>2026-08-18T02:11:54.000Z</time>
      </trkpt>
      <trkpt lat="22.887627" lon="110.604464">
        <ele>101.367417</ele>
        <time>2026-08-18T02:11:55.000Z</time>
      </trkpt>
      <trkpt lat="22.887608" lon="110.604500">
        <ele>101.388947</ele>
        <time>2026-08-18T02:11:56.000Z</time>
      </trkpt>
      <trkpt lat="22.887587" lon="110.604541">
        <ele>101.413290</ele>
        <time>2026-08-18T02:11:57.000Z</time>
      </trkpt>
      <trkpt lat="22.887566" lon="110.604580">
        <ele>101.436731</ele>
        <time>2026-08-18T02:11:58.000Z</time>
      </trkpt>
      <trkpt lat="22.887535" lon="110.604611">
        <ele>101.460473</ele>
        <time>2026-08-18T02:11:59.000Z</time>
      </trkpt>
      <trkpt lat="22.887501" lon="110.604644">
        <ele>101.486164</ele>
        <time>2026-08-18T02:12:00.000Z</time>
      </trkpt>
      <trkpt lat="22.887461" lon="110.604673">
        <ele>101.513259</ele>
        <time>2026-08-18T02:12:01.000Z</time>
      </trkpt>
      <trkpt lat="22.887419" lon="110.604704">
        <ele>101.541867</ele>
        <time>2026-08-18T02:12:02.000Z</time>
      </trkpt>
      <trkpt lat="22.887372" lon="110.604735">
        <ele>101.528941</ele>
        <time>2026-08-18T02:12:03.000Z</time>
      </trkpt>
      <trkpt lat="22.887316" lon="110.604765">
        <ele>101.494497</ele>
        <time>2026-08-18T02:12:04.000Z</time>
      </trkpt>
      <trkpt lat="22.887260" lon="110.604801">
        <ele>101.458598</ele>
        <time>2026-08-18T02:12:05.000Z</time>
      </trkpt>
      <trkpt lat="22.887205" lon="110.604838">
        <ele>101.422908</ele>
        <time>2026-08-18T02:12:06.000Z</time>
      </trkpt>
      <trkpt lat="22.887149" lon="110.604876">
        <ele>101.386482</ele>
        <time>2026-08-18T02:12:07.000Z</time>
      </trkpt>
      <trkpt lat="22.887095" lon="110.604914">
        <ele>101.350986</ele>
        <time>2026-08-18T02:12:08.000Z</time>
      </trkpt>
      <trkpt lat="22.887042" lon="110.604955">
        <ele>101.315088</ele>
        <time>2026-08-18T02:12:09.000Z</time>
      </trkpt>
      <trkpt lat="22.886989" lon="110.604995">
        <ele>101.279484</ele>
        <time>2026-08-18T02:12:10.000Z</time>
      </trkpt>
      <trkpt lat="22.886936" lon="110.605033">
        <ele>101.244449</ele>
        <time>2026-08-18T02:12:11.000Z</time>
      </trkpt>
      <trkpt lat="22.886886" lon="110.605071">
        <ele>101.210783</ele>
        <time>2026-08-18T02:12:12.000Z</time>
      </trkpt>
      <trkpt lat="22.886837" lon="110.605107">
        <ele>101.178147</ele>
        <time>2026-08-18T02:12:13.000Z</time>
      </trkpt>
      <trkpt lat="22.886791" lon="110.605144">
        <ele>101.146568</ele>
        <time>2026-08-18T02:12:14.000Z</time>
      </trkpt>
      <trkpt lat="22.886747" lon="110.605180">
        <ele>101.116177</ele>
        <time>2026-08-18T02:12:15.000Z</time>
      </trkpt>
      <trkpt lat="22.886702" lon="110.605213">
        <ele>101.086223</ele>
        <time>2026-08-18T02:12:16.000Z</time>
      </trkpt>
      <trkpt lat="22.886658" lon="110.605244">
        <ele>101.057290</ele>
        <time>2026-08-18T02:12:17.000Z</time>
      </trkpt>
      <trkpt lat="22.886616" lon="110.605276">
        <ele>101.028987</ele>
        <time>2026-08-18T02:12:18.000Z</time>
      </trkpt>
      <trkpt lat="22.886574" lon="110.605310">
        <ele>101.000089</ele>
        <time>2026-08-18T02:12:19.000Z</time>
      </trkpt>
      <trkpt lat="22.886533" lon="110.605346">
        <ele>100.971002</ele>
        <time>2026-08-18T02:12:20.000Z</time>
      </trkpt>
      <trkpt lat="22.886493" lon="110.605381">
        <ele>100.942663</ele>
        <time>2026-08-18T02:12:21.000Z</time>
      </trkpt>
      <trkpt lat="22.886450" lon="110.605414">
        <ele>100.913617</ele>
        <time>2026-08-18T02:12:22.000Z</time>
      </trkpt>
      <trkpt lat="22.886405" lon="110.605445">
        <ele>100.884220</ele>
        <time>2026-08-18T02:12:23.000Z</time>
      </trkpt>
      <trkpt lat="22.886363" lon="110.605474">
        <ele>100.856764</ele>
        <time>2026-08-18T02:12:24.000Z</time>
      </trkpt>
      <trkpt lat="22.886323" lon="110.605505">
        <ele>100.829655</ele>
        <time>2026-08-18T02:12:25.000Z</time>
      </trkpt>
      <trkpt lat="22.886282" lon="110.605538">
        <ele>100.801502</ele>
        <time>2026-08-18T02:12:26.000Z</time>
      </trkpt>
      <trkpt lat="22.886242" lon="110.605570">
        <ele>100.774095</ele>
        <time>2026-08-18T02:12:27.000Z</time>
      </trkpt>
      <trkpt lat="22.886201" lon="110.605601">
        <ele>100.746535</ele>
        <time>2026-08-18T02:12:28.000Z</time>
      </trkpt>
      <trkpt lat="22.886161" lon="110.605629">
        <ele>100.720282</ele>
        <time>2026-08-18T02:12:29.000Z</time>
      </trkpt>
      <trkpt lat="22.886123" lon="110.605659">
        <ele>100.694365</ele>
        <time>2026-08-18T02:12:30.000Z</time>
      </trkpt>
      <trkpt lat="22.886084" lon="110.605691">
        <ele>100.667400</ele>
        <time>2026-08-18T02:12:31.000Z</time>
      </trkpt>
      <trkpt lat="22.886044" lon="110.605724">
        <ele>100.639688</ele>
        <time>2026-08-18T02:12:32.000Z</time>
      </trkpt>
      <trkpt lat="22.886003" lon="110.605758">
        <ele>100.611229</ele>
        <time>2026-08-18T02:12:33.000Z</time>
      </trkpt>
      <trkpt lat="22.885962" lon="110.605791">
        <ele>100.583076</ele>
        <time>2026-08-18T02:12:34.000Z</time>
      </trkpt>
      <trkpt lat="22.885921" lon="110.605823">
        <ele>100.558508</ele>
        <time>2026-08-18T02:12:35.000Z</time>
      </trkpt>
      <trkpt lat="22.885877" lon="110.605853">
        <ele>100.557775</ele>
        <time>2026-08-18T02:12:36.000Z</time>
      </trkpt>
      <trkpt lat="22.885831" lon="110.605882">
        <ele>100.557025</ele>
        <time>2026-08-18T02:12:37.000Z</time>
      </trkpt>
      <trkpt lat="22.885789" lon="110.605915">
        <ele>100.556294</ele>
        <time>2026-08-18T02:12:38.000Z</time>
      </trkpt>
      <trkpt lat="22.885749" lon="110.605949">
        <ele>100.555578</ele>
        <time>2026-08-18T02:12:39.000Z</time>
      </trkpt>
      <trkpt lat="22.885710" lon="110.605982">
        <ele>100.554881</ele>
        <time>2026-08-18T02:12:40.000Z</time>
      </trkpt>
      <trkpt lat="22.885671" lon="110.606014">
        <ele>100.554191</ele>
        <time>2026-08-18T02:12:41.000Z</time>
      </trkpt>
      <trkpt lat="22.885634" lon="110.606045">
        <ele>100.553532</ele>
        <time>2026-08-18T02:12:42.000Z</time>
      </trkpt>
      <trkpt lat="22.885597" lon="110.606075">
        <ele>100.552881</ele>
        <time>2026-08-18T02:12:43.000Z</time>
      </trkpt>
      <trkpt lat="22.885558" lon="110.606105">
        <ele>100.552207</ele>
        <time>2026-08-18T02:12:44.000Z</time>
      </trkpt>
      <trkpt lat="22.885522" lon="110.606136">
        <ele>100.551559</ele>
        <time>2026-08-18T02:12:45.000Z</time>
      </trkpt>
      <trkpt lat="22.885487" lon="110.606167">
        <ele>100.550922</ele>
        <time>2026-08-18T02:12:46.000Z</time>
      </trkpt>
      <trkpt lat="22.885452" lon="110.606197">
        <ele>100.550294</ele>
        <time>2026-08-18T02:12:47.000Z</time>
      </trkpt>
      <trkpt lat="22.885418" lon="110.606226">
        <ele>100.549684</ele>
        <time>2026-08-18T02:12:48.000Z</time>
      </trkpt>
      <trkpt lat="22.885383" lon="110.606256">
        <ele>100.549055</ele>
        <time>2026-08-18T02:12:49.000Z</time>
      </trkpt>
      <trkpt lat="22.885348" lon="110.606285">
        <ele>100.548434</ele>
        <time>2026-08-18T02:12:50.000Z</time>
      </trkpt>
      <trkpt lat="22.885312" lon="110.606315">
        <ele>100.547795</ele>
        <time>2026-08-18T02:12:51.000Z</time>
      </trkpt>
      <trkpt lat="22.885276" lon="110.606347">
        <ele>100.547139</ele>
        <time>2026-08-18T02:12:52.000Z</time>
      </trkpt>
      <trkpt lat="22.885239" lon="110.606377">
        <ele>100.546487</ele>
        <time>2026-08-18T02:12:53.000Z</time>
      </trkpt>
      <trkpt lat="22.885201" lon="110.606408">
        <ele>100.545817</ele>
        <time>2026-08-18T02:12:54.000Z</time>
      </trkpt>
      <trkpt lat="22.885163" lon="110.606440">
        <ele>100.545139</ele>
        <time>2026-08-18T02:12:55.000Z</time>
      </trkpt>
      <trkpt lat="22.885124" lon="110.606471">
        <ele>100.544458</ele>
        <time>2026-08-18T02:12:56.000Z</time>
      </trkpt>
      <trkpt lat="22.885088" lon="110.606505">
        <ele>100.543785</ele>
        <time>2026-08-18T02:12:57.000Z</time>
      </trkpt>
      <trkpt lat="22.885055" lon="110.606540">
        <ele>100.543134</ele>
        <time>2026-08-18T02:12:58.000Z</time>
      </trkpt>
      <trkpt lat="22.885023" lon="110.606573">
        <ele>100.542512</ele>
        <time>2026-08-18T02:12:59.000Z</time>
      </trkpt>
      <trkpt lat="22.884988" lon="110.606604">
        <ele>100.541875</ele>
        <time>2026-08-18T02:13:00.000Z</time>
      </trkpt>
      <trkpt lat="22.884954" lon="110.606633">
        <ele>100.541265</ele>
        <time>2026-08-18T02:13:01.000Z</time>
      </trkpt>
      <trkpt lat="22.884919" lon="110.606662">
        <ele>100.540645</ele>
        <time>2026-08-18T02:13:02.000Z</time>
      </trkpt>
      <trkpt lat="22.884881" lon="110.606690">
        <ele>100.539997</ele>
        <time>2026-08-18T02:13:03.000Z</time>
      </trkpt>
      <trkpt lat="22.884841" lon="110.606719">
        <ele>100.539319</ele>
        <time>2026-08-18T02:13:04.000Z</time>
      </trkpt>
      <trkpt lat="22.884803" lon="110.606749">
        <ele>100.538656</ele>
        <time>2026-08-18T02:13:05.000Z</time>
      </trkpt>
      <trkpt lat="22.884766" lon="110.606780">
        <ele>100.537997</ele>
        <time>2026-08-18T02:13:06.000Z</time>
      </trkpt>
      <trkpt lat="22.884728" lon="110.606811">
        <ele>100.537327</ele>
        <time>2026-08-18T02:13:07.000Z</time>
      </trkpt>
      <trkpt lat="22.884689" lon="110.606840">
        <ele>100.536661</ele>
        <time>2026-08-18T02:13:08.000Z</time>
      </trkpt>
      <trkpt lat="22.884652" lon="110.606868">
        <ele>100.536025</ele>
        <time>2026-08-18T02:13:09.000Z</time>
      </trkpt>
      <trkpt lat="22.884614" lon="110.606897">
        <ele>100.535370</ele>
        <time>2026-08-18T02:13:10.000Z</time>
      </trkpt>
      <trkpt lat="22.884578" lon="110.606924">
        <ele>100.534753</ele>
        <time>2026-08-18T02:13:11.000Z</time>
      </trkpt>
      <trkpt lat="22.884542" lon="110.606949">
        <ele>100.534150</ele>
        <time>2026-08-18T02:13:12.000Z</time>
      </trkpt>
      <trkpt lat="22.884505" lon="110.606978">
        <ele>100.533507</ele>
        <time>2026-08-18T02:13:13.000Z</time>
      </trkpt>
      <trkpt lat="22.884473" lon="110.607008">
        <ele>100.540068</ele>
        <time>2026-08-18T02:13:14.000Z</time>
      </trkpt>
      <trkpt lat="22.884443" lon="110.607043">
        <ele>100.553157</ele>
        <time>2026-08-18T02:13:15.000Z</time>
      </trkpt>
      <trkpt lat="22.884411" lon="110.607078">
        <ele>100.566658</ele>
        <time>2026-08-18T02:13:16.000Z</time>
      </trkpt>
      <trkpt lat="22.884379" lon="110.607113">
        <ele>100.580158</ele>
        <time>2026-08-18T02:13:17.000Z</time>
      </trkpt>
      <trkpt lat="22.884345" lon="110.607146">
        <ele>100.593713</ele>
        <time>2026-08-18T02:13:18.000Z</time>
      </trkpt>
      <trkpt lat="22.884310" lon="110.607180">
        <ele>100.607672</ele>
        <time>2026-08-18T02:13:19.000Z</time>
      </trkpt>
      <trkpt lat="22.884274" lon="110.607214">
        <ele>100.621853</ele>
        <time>2026-08-18T02:13:20.000Z</time>
      </trkpt>
      <trkpt lat="22.884235" lon="110.607246">
        <ele>100.636382</ele>
        <time>2026-08-18T02:13:21.000Z</time>
      </trkpt>
      <trkpt lat="22.884196" lon="110.607278">
        <ele>100.650911</ele>
        <time>2026-08-18T02:13:22.000Z</time>
      </trkpt>
      <trkpt lat="22.884154" lon="110.607309">
        <ele>100.666005</ele>
        <time>2026-08-18T02:13:23.000Z</time>
      </trkpt>
      <trkpt lat="22.884110" lon="110.607340">
        <ele>100.681594</ele>
        <time>2026-08-18T02:13:24.000Z</time>
      </trkpt>
      <trkpt lat="22.884063" lon="110.607372">
        <ele>100.698082</ele>
        <time>2026-08-18T02:13:25.000Z</time>
      </trkpt>
      <trkpt lat="22.884011" lon="110.607404">
        <ele>100.715847</ele>
        <time>2026-08-18T02:13:26.000Z</time>
      </trkpt>
      <trkpt lat="22.883958" lon="110.607437">
        <ele>100.734005</ele>
        <time>2026-08-18T02:13:27.000Z</time>
      </trkpt>
      <trkpt lat="22.883903" lon="110.607467">
        <ele>100.752298</ele>
        <time>2026-08-18T02:13:28.000Z</time>
      </trkpt>
      <trkpt lat="22.883848" lon="110.607498">
        <ele>100.770715</ele>
        <time>2026-08-18T02:13:29.000Z</time>
      </trkpt>
      <trkpt lat="22.883793" lon="110.607530">
        <ele>100.789260</ele>
        <time>2026-08-18T02:13:30.000Z</time>
      </trkpt>
      <trkpt lat="22.883739" lon="110.607563">
        <ele>100.807677</ele>
        <time>2026-08-18T02:13:31.000Z</time>
      </trkpt>
      <trkpt lat="22.883687" lon="110.607597">
        <ele>100.825717</ele>
        <time>2026-08-18T02:13:32.000Z</time>
      </trkpt>
      <trkpt lat="22.883635" lon="110.607631">
        <ele>100.843758</ele>
        <time>2026-08-18T02:13:33.000Z</time>
      </trkpt>
      <trkpt lat="22.883584" lon="110.607664">
        <ele>100.861403</ele>
        <time>2026-08-18T02:13:34.000Z</time>
      </trkpt>
      <trkpt lat="22.883534" lon="110.607694">
        <ele>100.878381</ele>
        <time>2026-08-18T02:13:35.000Z</time>
      </trkpt>
      <trkpt lat="22.883486" lon="110.607724">
        <ele>100.894842</ele>
        <time>2026-08-18T02:13:36.000Z</time>
      </trkpt>
      <trkpt lat="22.883436" lon="110.607752">
        <ele>100.911562</ele>
        <time>2026-08-18T02:13:37.000Z</time>
      </trkpt>
      <trkpt lat="22.883387" lon="110.607778">
        <ele>100.927771</ele>
        <time>2026-08-18T02:13:38.000Z</time>
      </trkpt>
      <trkpt lat="22.883339" lon="110.607806">
        <ele>100.943965</ele>
        <time>2026-08-18T02:13:39.000Z</time>
      </trkpt>
      <trkpt lat="22.883292" lon="110.607833">
        <ele>100.959768</ele>
        <time>2026-08-18T02:13:40.000Z</time>
      </trkpt>
      <trkpt lat="22.883246" lon="110.607861">
        <ele>100.975442</ele>
        <time>2026-08-18T02:13:41.000Z</time>
      </trkpt>
      <trkpt lat="22.883200" lon="110.607889">
        <ele>100.991115</ele>
        <time>2026-08-18T02:13:42.000Z</time>
      </trkpt>
      <trkpt lat="22.883156" lon="110.607916">
        <ele>101.006136</ele>
        <time>2026-08-18T02:13:43.000Z</time>
      </trkpt>
      <trkpt lat="22.883111" lon="110.607939">
        <ele>101.020918</ele>
        <time>2026-08-18T02:13:44.000Z</time>
      </trkpt>
      <trkpt lat="22.883065" lon="110.607963">
        <ele>101.036085</ele>
        <time>2026-08-18T02:13:45.000Z</time>
      </trkpt>
      <trkpt lat="22.883021" lon="110.607988">
        <ele>101.050845</ele>
        <time>2026-08-18T02:13:46.000Z</time>
      </trkpt>
      <trkpt lat="22.882976" lon="110.608014">
        <ele>101.065994</ele>
        <time>2026-08-18T02:13:47.000Z</time>
      </trkpt>
      <trkpt lat="22.882932" lon="110.608040">
        <ele>101.277707</ele>
        <time>2026-08-18T02:13:48.000Z</time>
      </trkpt>
      <trkpt lat="22.882888" lon="110.608062">
        <ele>101.508044</ele>
        <time>2026-08-18T02:13:49.000Z</time>
      </trkpt>
      <trkpt lat="22.882844" lon="110.608082">
        <ele>101.734856</ele>
        <time>2026-08-18T02:13:50.000Z</time>
      </trkpt>
      <trkpt lat="22.882803" lon="110.608103">
        <ele>101.950414</ele>
        <time>2026-08-18T02:13:51.000Z</time>
      </trkpt>
      <trkpt lat="22.882764" lon="110.608125">
        <ele>102.159396</ele>
        <time>2026-08-18T02:13:52.000Z</time>
      </trkpt>
      <trkpt lat="22.882729" lon="110.608151">
        <ele>102.361054</ele>
        <time>2026-08-18T02:13:53.000Z</time>
      </trkpt>
      <trkpt lat="22.882696" lon="110.608177">
        <ele>102.554938</ele>
        <time>2026-08-18T02:13:54.000Z</time>
      </trkpt>
      <trkpt lat="22.882666" lon="110.608205">
        <ele>102.743063</ele>
        <time>2026-08-18T02:13:55.000Z</time>
      </trkpt>
      <trkpt lat="22.882636" lon="110.608232">
        <ele>102.928361</ele>
        <time>2026-08-18T02:13:56.000Z</time>
      </trkpt>
      <trkpt lat="22.882611" lon="110.608257">
        <ele>103.089987</ele>
        <time>2026-08-18T02:13:57.000Z</time>
      </trkpt>
      <trkpt lat="22.882588" lon="110.608281">
        <ele>103.241685</ele>
        <time>2026-08-18T02:13:58.000Z</time>
      </trkpt>
      <trkpt lat="22.882567" lon="110.608305">
        <ele>103.386677</ele>
        <time>2026-08-18T02:13:59.000Z</time>
      </trkpt>
      <trkpt lat="22.882548" lon="110.608325">
        <ele>103.512522</ele>
        <time>2026-08-18T02:14:00.000Z</time>
      </trkpt>
      <trkpt lat="22.882529" lon="110.608346">
        <ele>103.641455</ele>
        <time>2026-08-18T02:14:01.000Z</time>
      </trkpt>
      <trkpt lat="22.882512" lon="110.608367">
        <ele>103.763913</ele>
        <time>2026-08-18T02:14:02.000Z</time>
      </trkpt>
      <trkpt lat="22.882492" lon="110.608384">
        <ele>103.884696</ele>
        <time>2026-08-18T02:14:03.000Z</time>
      </trkpt>
      <trkpt lat="22.882475" lon="110.608402">
        <ele>103.997616</ele>
        <time>2026-08-18T02:14:04.000Z</time>
      </trkpt>
      <trkpt lat="22.882463" lon="110.608421">
        <ele>104.098525</ele>
        <time>2026-08-18T02:14:05.000Z</time>
      </trkpt>
      <trkpt lat="22.882448" lon="110.608441">
        <ele>104.211496</ele>
        <time>2026-08-18T02:14:06.000Z</time>
      </trkpt>
      <trkpt lat="22.882435" lon="110.608460">
        <ele>104.315168</ele>
        <time>2026-08-18T02:14:07.000Z</time>
      </trkpt>
      <trkpt lat="22.882428" lon="110.608481">
        <ele>104.412996</ele>
        <time>2026-08-18T02:14:08.000Z</time>
      </trkpt>
      <trkpt lat="22.882424" lon="110.608500">
        <ele>104.498371</ele>
        <time>2026-08-18T02:14:09.000Z</time>
      </trkpt>
      <trkpt lat="22.882416" lon="110.608519">
        <ele>104.589882</ele>
        <time>2026-08-18T02:14:10.000Z</time>
      </trkpt>
      <trkpt lat="22.882404" lon="110.608542">
        <ele>104.705668</ele>
        <time>2026-08-18T02:14:11.000Z</time>
      </trkpt>
      <trkpt lat="22.882391" lon="110.608562">
        <ele>104.812889</ele>
        <time>2026-08-18T02:14:12.000Z</time>
      </trkpt>
      <trkpt lat="22.882377" lon="110.608582">
        <ele>104.922920</ele>
        <time>2026-08-18T02:14:13.000Z</time>
      </trkpt>
      <trkpt lat="22.882367" lon="110.608607">
        <ele>105.042310</ele>
        <time>2026-08-18T02:14:14.000Z</time>
      </trkpt>
      <trkpt lat="22.882356" lon="110.608632">
        <ele>105.163672</ele>
        <time>2026-08-18T02:14:15.000Z</time>
      </trkpt>
      <trkpt lat="22.882343" lon="110.608655">
        <ele>105.281874</ele>
        <time>2026-08-18T02:14:16.000Z</time>
      </trkpt>
      <trkpt lat="22.882330" lon="110.608678">
        <ele>105.400076</ele>
        <time>2026-08-18T02:14:17.000Z</time>
      </trkpt>
      <trkpt lat="22.882315" lon="110.608701">
        <ele>105.523518</ele>
        <time>2026-08-18T02:14:18.000Z</time>
      </trkpt>
      <trkpt lat="22.882301" lon="110.608720">
        <ele>105.630093</ele>
        <time>2026-08-18T02:14:19.000Z</time>
      </trkpt>
      <trkpt lat="22.882285" lon="110.608738">
        <ele>105.739660</ele>
        <time>2026-08-18T02:14:20.000Z</time>
      </trkpt>
      <trkpt lat="22.882271" lon="110.608757">
        <ele>105.846235</ele>
        <time>2026-08-18T02:14:21.000Z</time>
      </trkpt>
      <trkpt lat="22.882258" lon="110.608776">
        <ele>105.949908</ele>
        <time>2026-08-18T02:14:22.000Z</time>
      </trkpt>
      <trkpt lat="22.882244" lon="110.608794">
        <ele>106.053098</ele>
        <time>2026-08-18T02:14:23.000Z</time>
      </trkpt>
      <trkpt lat="22.882235" lon="110.608815">
        <ele>106.154556</ele>
        <time>2026-08-18T02:14:24.000Z</time>
      </trkpt>
      <trkpt lat="22.882227" lon="110.608838">
        <ele>106.262250</ele>
        <time>2026-08-18T02:14:25.000Z</time>
      </trkpt>
      <trkpt lat="22.882219" lon="110.608862">
        <ele>106.374053</ele>
        <time>2026-08-18T02:14:26.000Z</time>
      </trkpt>
      <trkpt lat="22.882211" lon="110.608884">
        <ele>106.477660</ele>
        <time>2026-08-18T02:14:27.000Z</time>
      </trkpt>
      <trkpt lat="22.882203" lon="110.608908">
        <ele>106.589463</ele>
        <time>2026-08-18T02:14:28.000Z</time>
      </trkpt>
      <trkpt lat="22.882192" lon="110.608933">
        <ele>106.710825</ele>
        <time>2026-08-18T02:14:29.000Z</time>
      </trkpt>
      <trkpt lat="22.882180" lon="110.608958">
        <ele>106.834311</ele>
        <time>2026-08-18T02:14:30.000Z</time>
      </trkpt>
      <trkpt lat="22.882170" lon="110.608982">
        <ele>106.949696</ele>
        <time>2026-08-18T02:14:31.000Z</time>
      </trkpt>
      <trkpt lat="22.882161" lon="110.609005">
        <ele>107.059160</ele>
        <time>2026-08-18T02:14:32.000Z</time>
      </trkpt>
      <trkpt lat="22.882151" lon="110.609028">
        <ele>107.170569</ele>
        <time>2026-08-18T02:14:33.000Z</time>
      </trkpt>
      <trkpt lat="22.882142" lon="110.609051">
        <ele>107.280032</ele>
        <time>2026-08-18T02:14:34.000Z</time>
      </trkpt>
      <trkpt lat="22.882135" lon="110.609075">
        <ele>107.390308</ele>
        <time>2026-08-18T02:14:35.000Z</time>
      </trkpt>
      <trkpt lat="22.882127" lon="110.609098">
        <ele>107.498002</ele>
        <time>2026-08-18T02:14:36.000Z</time>
      </trkpt>
      <trkpt lat="22.882119" lon="110.609122">
        <ele>107.609805</ele>
        <time>2026-08-18T02:14:37.000Z</time>
      </trkpt>
      <trkpt lat="22.882109" lon="110.609147">
        <ele>107.729195</ele>
        <time>2026-08-18T02:14:38.000Z</time>
      </trkpt>
      <trkpt lat="22.882100" lon="110.609171">
        <ele>107.842704</ele>
        <time>2026-08-18T02:14:39.000Z</time>
      </trkpt>
      <trkpt lat="22.882090" lon="110.609192">
        <ele>107.946257</ele>
        <time>2026-08-18T02:14:40.000Z</time>
      </trkpt>
      <trkpt lat="22.882081" lon="110.609214">
        <ele>108.051703</ele>
        <time>2026-08-18T02:14:41.000Z</time>
      </trkpt>
      <trkpt lat="22.882071" lon="110.609234">
        <ele>108.151385</ele>
        <time>2026-08-18T02:14:42.000Z</time>
      </trkpt>
      <trkpt lat="22.882061" lon="110.609258">
        <ele>108.266770</ele>
        <time>2026-08-18T02:14:43.000Z</time>
      </trkpt>
      <trkpt lat="22.882054" lon="110.609280">
        <ele>108.368728</ele>
        <time>2026-08-18T02:14:44.000Z</time>
      </trkpt>
      <trkpt lat="22.882046" lon="110.609302">
        <ele>108.472335</ele>
        <time>2026-08-18T02:14:45.000Z</time>
      </trkpt>
      <trkpt lat="22.882039" lon="110.609324">
        <ele>108.574293</ele>
        <time>2026-08-18T02:14:46.000Z</time>
      </trkpt>
      <trkpt lat="22.882032" lon="110.609345">
        <ele>108.672120</ele>
        <time>2026-08-18T02:14:47.000Z</time>
      </trkpt>
      <trkpt lat="22.882024" lon="110.609366">
        <ele>108.771666</ele>
        <time>2026-08-18T02:14:48.000Z</time>
      </trkpt>
      <trkpt lat="22.882017" lon="110.609387">
        <ele>108.869494</ele>
        <time>2026-08-18T02:14:49.000Z</time>
      </trkpt>
      <trkpt lat="22.882007" lon="110.609406">
        <ele>108.965348</ele>
        <time>2026-08-18T02:14:50.000Z</time>
      </trkpt>
      <trkpt lat="22.881997" lon="110.609426">
        <ele>109.065030</ele>
        <time>2026-08-18T02:14:51.000Z</time>
      </trkpt>
      <trkpt lat="22.881990" lon="110.609450">
        <ele>109.175306</ele>
        <time>2026-08-18T02:14:52.000Z</time>
      </trkpt>
      <trkpt lat="22.881976" lon="110.609473">
        <ele>109.296063</ele>
        <time>2026-08-18T02:14:53.000Z</time>
      </trkpt>
      <trkpt lat="22.881963" lon="110.609495">
        <ele>109.410554</ele>
        <time>2026-08-18T02:14:54.000Z</time>
      </trkpt>
      <trkpt lat="22.881953" lon="110.609517">
        <ele>109.518018</ele>
        <time>2026-08-18T02:14:55.000Z</time>
      </trkpt>
      <trkpt lat="22.881944" lon="110.609538">
        <ele>109.619475</ele>
        <time>2026-08-18T02:14:56.000Z</time>
      </trkpt>
      <trkpt lat="22.881934" lon="110.609562">
        <ele>109.583490</ele>
        <time>2026-08-18T02:14:57.000Z</time>
      </trkpt>
      <trkpt lat="22.881924" lon="110.609587">
        <ele>109.545803</ele>
        <time>2026-08-18T02:14:58.000Z</time>
      </trkpt>
      <trkpt lat="22.881915" lon="110.609613">
        <ele>109.507397</ele>
        <time>2026-08-18T02:14:59.000Z</time>
      </trkpt>
      <trkpt lat="22.881906" lon="110.609638">
        <ele>109.470283</ele>
        <time>2026-08-18T02:15:00.000Z</time>
      </trkpt>
      <trkpt lat="22.881899" lon="110.609665">
        <ele>109.431498</ele>
        <time>2026-08-18T02:15:01.000Z</time>
      </trkpt>
      <trkpt lat="22.881888" lon="110.609693">
        <ele>109.389408</ele>
        <time>2026-08-18T02:15:02.000Z</time>
      </trkpt>
      <trkpt lat="22.881879" lon="110.609723">
        <ele>109.345781</ele>
        <time>2026-08-18T02:15:03.000Z</time>
      </trkpt>
      <trkpt lat="22.881861" lon="110.609750">
        <ele>109.299698</ele>
        <time>2026-08-18T02:15:04.000Z</time>
      </trkpt>
      <trkpt lat="22.881847" lon="110.609781">
        <ele>109.251959</ele>
        <time>2026-08-18T02:15:05.000Z</time>
      </trkpt>
      <trkpt lat="22.881836" lon="110.609810">
        <ele>109.208593</ele>
        <time>2026-08-18T02:15:06.000Z</time>
      </trkpt>
      <trkpt lat="22.881828" lon="110.609840">
        <ele>109.165408</ele>
        <time>2026-08-18T02:15:07.000Z</time>
      </trkpt>
      <trkpt lat="22.881821" lon="110.609873">
        <ele>109.118583</ele>
        <time>2026-08-18T02:15:08.000Z</time>
      </trkpt>
      <trkpt lat="22.881812" lon="110.609905">
        <ele>109.072319</ele>
        <time>2026-08-18T02:15:09.000Z</time>
      </trkpt>
      <trkpt lat="22.881800" lon="110.609940">
        <ele>109.020679</ele>
        <time>2026-08-18T02:15:10.000Z</time>
      </trkpt>
      <trkpt lat="22.881787" lon="110.609974">
        <ele>108.969778</ele>
        <time>2026-08-18T02:15:11.000Z</time>
      </trkpt>
      <trkpt lat="22.881775" lon="110.610008">
        <ele>108.919432</ele>
        <time>2026-08-18T02:15:12.000Z</time>
      </trkpt>
      <trkpt lat="22.881763" lon="110.610040">
        <ele>108.871659</ele>
        <time>2026-08-18T02:15:13.000Z</time>
      </trkpt>
      <trkpt lat="22.881752" lon="110.610075">
        <ele>108.820524</ele>
        <time>2026-08-18T02:15:14.000Z</time>
      </trkpt>
      <trkpt lat="22.881740" lon="110.610110">
        <ele>108.768884</ele>
        <time>2026-08-18T02:15:15.000Z</time>
      </trkpt>
      <trkpt lat="22.881720" lon="110.610140">
        <ele>108.717680</ele>
        <time>2026-08-18T02:15:16.000Z</time>
      </trkpt>
      <trkpt lat="22.881702" lon="110.610177">
        <ele>108.659823</ele>
        <time>2026-08-18T02:15:17.000Z</time>
      </trkpt>
      <trkpt lat="22.881683" lon="110.610217">
        <ele>108.597594</ele>
        <time>2026-08-18T02:15:18.000Z</time>
      </trkpt>
      <trkpt lat="22.881668" lon="110.610259">
        <ele>108.535307</ele>
        <time>2026-08-18T02:15:19.000Z</time>
      </trkpt>
      <trkpt lat="22.881650" lon="110.610302">
        <ele>108.469999</ele>
        <time>2026-08-18T02:15:20.000Z</time>
      </trkpt>
      <trkpt lat="22.881629" lon="110.610348">
        <ele>108.399011</ele>
        <time>2026-08-18T02:15:21.000Z</time>
      </trkpt>
      <trkpt lat="22.881608" lon="110.610396">
        <ele>108.325535</ele>
        <time>2026-08-18T02:15:22.000Z</time>
      </trkpt>
      <trkpt lat="22.881585" lon="110.610447">
        <ele>108.247019</ele>
        <time>2026-08-18T02:15:23.000Z</time>
      </trkpt>
      <trkpt lat="22.881561" lon="110.610500">
        <ele>108.165358</ele>
        <time>2026-08-18T02:15:24.000Z</time>
      </trkpt>
      <trkpt lat="22.881537" lon="110.610554">
        <ele>108.082455</ele>
        <time>2026-08-18T02:15:25.000Z</time>
      </trkpt>
      <trkpt lat="22.881515" lon="110.610609">
        <ele>107.999544</ele>
        <time>2026-08-18T02:15:26.000Z</time>
      </trkpt>
      <trkpt lat="22.881494" lon="110.610666">
        <ele>107.914658</ele>
        <time>2026-08-18T02:15:27.000Z</time>
      </trkpt>
      <trkpt lat="22.881474" lon="110.610723">
        <ele>107.830318</ele>
        <time>2026-08-18T02:15:28.000Z</time>
      </trkpt>
      <trkpt lat="22.881450" lon="110.610777">
        <ele>107.747415</ele>
        <time>2026-08-18T02:15:29.000Z</time>
      </trkpt>
      <trkpt lat="22.881427" lon="110.610830">
        <ele>107.666405</ele>
        <time>2026-08-18T02:15:30.000Z</time>
      </trkpt>
      <trkpt lat="22.881403" lon="110.610884">
        <ele>107.583501</ele>
        <time>2026-08-18T02:15:31.000Z</time>
      </trkpt>
      <trkpt lat="22.881379" lon="110.610938">
        <ele>107.500598</ele>
        <time>2026-08-18T02:15:32.000Z</time>
      </trkpt>
      <trkpt lat="22.881357" lon="110.610991">
        <ele>107.420216</ele>
        <time>2026-08-18T02:15:33.000Z</time>
      </trkpt>
      <trkpt lat="22.881336" lon="110.611040">
        <ele>107.345489</ele>
        <time>2026-08-18T02:15:34.000Z</time>
      </trkpt>
      <trkpt lat="22.881314" lon="110.611092">
        <ele>107.266366</ele>
        <time>2026-08-18T02:15:35.000Z</time>
      </trkpt>
      <trkpt lat="22.881293" lon="110.611142">
        <ele>107.190382</ele>
        <time>2026-08-18T02:15:36.000Z</time>
      </trkpt>
      <trkpt lat="22.881274" lon="110.611193">
        <ele>107.114314</ele>
        <time>2026-08-18T02:15:37.000Z</time>
      </trkpt>
      <trkpt lat="22.881255" lon="110.611244">
        <ele>107.038245</ele>
        <time>2026-08-18T02:15:38.000Z</time>
      </trkpt>
      <trkpt lat="22.881235" lon="110.611296">
        <ele>106.960327</ele>
        <time>2026-08-18T02:15:39.000Z</time>
      </trkpt>
      <trkpt lat="22.881214" lon="110.611350">
        <ele>106.840604</ele>
        <time>2026-08-18T02:15:40.000Z</time>
      </trkpt>
      <trkpt lat="22.881193" lon="110.611406">
        <ele>106.678151</ele>
        <time>2026-08-18T02:15:41.000Z</time>
      </trkpt>
      <trkpt lat="22.881167" lon="110.611462">
        <ele>106.509658</ele>
        <time>2026-08-18T02:15:42.000Z</time>
      </trkpt>
      <trkpt lat="22.881137" lon="110.611520">
        <ele>106.330936</ele>
        <time>2026-08-18T02:15:43.000Z</time>
      </trkpt>
      <trkpt lat="22.881105" lon="110.611580">
        <ele>106.144658</ele>
        <time>2026-08-18T02:15:44.000Z</time>
      </trkpt>
      <trkpt lat="22.881071" lon="110.611641">
        <ele>105.953096</ele>
        <time>2026-08-18T02:15:45.000Z</time>
      </trkpt>
      <trkpt lat="22.881035" lon="110.611703">
        <ele>105.756183</ele>
        <time>2026-08-18T02:15:46.000Z</time>
      </trkpt>
      <trkpt lat="22.880997" lon="110.611767">
        <ele>105.551603</ele>
        <time>2026-08-18T02:15:47.000Z</time>
      </trkpt>
      <trkpt lat="22.880955" lon="110.611829">
        <ele>105.344829</ele>
        <time>2026-08-18T02:15:48.000Z</time>
      </trkpt>
      <trkpt lat="22.880913" lon="110.611895">
        <ele>105.129303</ele>
        <time>2026-08-18T02:15:49.000Z</time>
      </trkpt>
      <trkpt lat="22.880873" lon="110.611961">
        <ele>104.917037</ele>
        <time>2026-08-18T02:15:50.000Z</time>
      </trkpt>
      <trkpt lat="22.880832" lon="110.612027">
        <ele>104.703154</ele>
        <time>2026-08-18T02:15:51.000Z</time>
      </trkpt>
      <trkpt lat="22.880790" lon="110.612093">
        <ele>104.487627</ele>
        <time>2026-08-18T02:15:52.000Z</time>
      </trkpt>
      <trkpt lat="22.880751" lon="110.612159">
        <ele>104.276950</ele>
        <time>2026-08-18T02:15:53.000Z</time>
      </trkpt>
      <trkpt lat="22.880711" lon="110.612224">
        <ele>104.066923</ele>
        <time>2026-08-18T02:15:54.000Z</time>
      </trkpt>
      <trkpt lat="22.880671" lon="110.612288">
        <ele>103.859126</ele>
        <time>2026-08-18T02:15:55.000Z</time>
      </trkpt>
      <trkpt lat="22.880630" lon="110.612351">
        <ele>103.651877</ele>
        <time>2026-08-18T02:15:56.000Z</time>
      </trkpt>
      <trkpt lat="22.880590" lon="110.612409">
        <ele>103.457210</ele>
        <time>2026-08-18T02:15:57.000Z</time>
      </trkpt>
      <trkpt lat="22.880551" lon="110.612463">
        <ele>103.272850</ele>
        <time>2026-08-18T02:15:58.000Z</time>
      </trkpt>
      <trkpt lat="22.880508" lon="110.612519">
        <ele>103.076975</ele>
        <time>2026-08-18T02:15:59.000Z</time>
      </trkpt>
      <trkpt lat="22.880467" lon="110.612570">
        <ele>102.895108</ele>
        <time>2026-08-18T02:16:00.000Z</time>
      </trkpt>
      <trkpt lat="22.880425" lon="110.612624">
        <ele>102.705224</ele>
        <time>2026-08-18T02:16:01.000Z</time>
      </trkpt>
      <trkpt lat="22.880384" lon="110.612679">
        <ele>102.515127</ele>
        <time>2026-08-18T02:16:02.000Z</time>
      </trkpt>
      <trkpt lat="22.880345" lon="110.612735">
        <ele>102.326508</ele>
        <time>2026-08-18T02:16:03.000Z</time>
      </trkpt>
      <trkpt lat="22.880304" lon="110.612793">
        <ele>102.130079</ele>
        <time>2026-08-18T02:16:04.000Z</time>
      </trkpt>
      <trkpt lat="22.880262" lon="110.612853">
        <ele>101.927610</ele>
        <time>2026-08-18T02:16:05.000Z</time>
      </trkpt>
      <trkpt lat="22.880223" lon="110.612915">
        <ele>101.725895</ele>
        <time>2026-08-18T02:16:06.000Z</time>
      </trkpt>
      <trkpt lat="22.880183" lon="110.612975">
        <ele>101.656737</ele>
        <time>2026-08-18T02:16:07.000Z</time>
      </trkpt>
      <trkpt lat="22.880142" lon="110.613038">
        <ele>101.631511</ele>
        <time>2026-08-18T02:16:08.000Z</time>
      </trkpt>
      <trkpt lat="22.880104" lon="110.613099">
        <ele>101.607429</ele>
        <time>2026-08-18T02:16:09.000Z</time>
      </trkpt>
      <trkpt lat="22.880063" lon="110.613162">
        <ele>101.582204</ele>
        <time>2026-08-18T02:16:10.000Z</time>
      </trkpt>
      <trkpt lat="22.880019" lon="110.613224">
        <ele>101.556609</ele>
        <time>2026-08-18T02:16:11.000Z</time>
      </trkpt>
      <trkpt lat="22.879975" lon="110.613286">
        <ele>101.531015</ele>
        <time>2026-08-18T02:16:12.000Z</time>
      </trkpt>
      <trkpt lat="22.879929" lon="110.613344">
        <ele>101.505986</ele>
        <time>2026-08-18T02:16:13.000Z</time>
      </trkpt>
      <trkpt lat="22.879886" lon="110.613404">
        <ele>101.481126</ele>
        <time>2026-08-18T02:16:14.000Z</time>
      </trkpt>
      <trkpt lat="22.879843" lon="110.613462">
        <ele>101.456779</ele>
        <time>2026-08-18T02:16:15.000Z</time>
      </trkpt>
      <trkpt lat="22.879801" lon="110.613518">
        <ele>101.433163</ele>
        <time>2026-08-18T02:16:16.000Z</time>
      </trkpt>
      <trkpt lat="22.879763" lon="110.613577">
        <ele>101.409620</ele>
        <time>2026-08-18T02:16:17.000Z</time>
      </trkpt>
      <trkpt lat="22.879725" lon="110.613632">
        <ele>101.387137</ele>
        <time>2026-08-18T02:16:18.000Z</time>
      </trkpt>
      <trkpt lat="22.879687" lon="110.613683">
        <ele>101.365686</ele>
        <time>2026-08-18T02:16:19.000Z</time>
      </trkpt>
      <trkpt lat="22.879649" lon="110.613735">
        <ele>101.343980</ele>
        <time>2026-08-18T02:16:20.000Z</time>
      </trkpt>
      <trkpt lat="22.879609" lon="110.613780">
        <ele>101.323530</ele>
        <time>2026-08-18T02:16:21.000Z</time>
      </trkpt>
      <trkpt lat="22.879570" lon="110.613823">
        <ele>101.303796</ele>
        <time>2026-08-18T02:16:22.000Z</time>
      </trkpt>
      <trkpt lat="22.879528" lon="110.613864">
        <ele>101.283744</ele>
        <time>2026-08-18T02:16:23.000Z</time>
      </trkpt>
      <trkpt lat="22.879490" lon="110.613904">
        <ele>101.264954</ele>
        <time>2026-08-18T02:16:24.000Z</time>
      </trkpt>
      <trkpt lat="22.879452" lon="110.613940">
        <ele>101.247050</ele>
        <time>2026-08-18T02:16:25.000Z</time>
      </trkpt>
      <trkpt lat="22.879414" lon="110.613972">
        <ele>101.229977</ele>
        <time>2026-08-18T02:16:26.000Z</time>
      </trkpt>
      <trkpt lat="22.879376" lon="110.614002">
        <ele>101.213297</ele>
        <time>2026-08-18T02:16:27.000Z</time>
      </trkpt>
      <trkpt lat="22.879337" lon="110.614035">
        <ele>101.195744</ele>
        <time>2026-08-18T02:16:28.000Z</time>
      </trkpt>
      <trkpt lat="22.879300" lon="110.614066">
        <ele>101.179152</ele>
        <time>2026-08-18T02:16:29.000Z</time>
      </trkpt>
      <trkpt lat="22.879262" lon="110.614099">
        <ele>101.161877</ele>
        <time>2026-08-18T02:16:30.000Z</time>
      </trkpt>
      <trkpt lat="22.879226" lon="110.614129">
        <ele>101.145766</ele>
        <time>2026-08-18T02:16:31.000Z</time>
      </trkpt>
      <trkpt lat="22.879183" lon="110.614156">
        <ele>101.128132</ele>
        <time>2026-08-18T02:16:32.000Z</time>
      </trkpt>
      <trkpt lat="22.879140" lon="110.614188">
        <ele>101.109625</ele>
        <time>2026-08-18T02:16:33.000Z</time>
      </trkpt>
      <trkpt lat="22.879095" lon="110.614219">
        <ele>101.090705</ele>
        <time>2026-08-18T02:16:34.000Z</time>
      </trkpt>
      <trkpt lat="22.879049" lon="110.614248">
        <ele>101.071822</ele>
        <time>2026-08-18T02:16:35.000Z</time>
      </trkpt>
      <trkpt lat="22.879001" lon="110.614276">
        <ele>101.052479</ele>
        <time>2026-08-18T02:16:36.000Z</time>
      </trkpt>
      <trkpt lat="22.878954" lon="110.614305">
        <ele>101.030446</ele>
        <time>2026-08-18T02:16:37.000Z</time>
      </trkpt>
      <trkpt lat="22.878907" lon="110.614326">
        <ele>100.995176</ele>
        <time>2026-08-18T02:16:38.000Z</time>
      </trkpt>
      <trkpt lat="22.878857" lon="110.614345">
        <ele>100.958415</ele>
        <time>2026-08-18T02:16:39.000Z</time>
      </trkpt>
      <trkpt lat="22.878802" lon="110.614358">
        <ele>100.919355</ele>
        <time>2026-08-18T02:16:40.000Z</time>
      </trkpt>
      <trkpt lat="22.878745" lon="110.614369">
        <ele>100.879181</ele>
        <time>2026-08-18T02:16:41.000Z</time>
      </trkpt>
      <trkpt lat="22.878694" lon="110.614371">
        <ele>100.843767</ele>
        <time>2026-08-18T02:16:42.000Z</time>
      </trkpt>
      <trkpt lat="22.878641" lon="110.614375">
        <ele>100.806901</ele>
        <time>2026-08-18T02:16:43.000Z</time>
      </trkpt>
      <trkpt lat="22.878587" lon="110.614383">
        <ele>100.769081</ele>
        <time>2026-08-18T02:16:44.000Z</time>
      </trkpt>
      <trkpt lat="22.878535" lon="110.614389">
        <ele>100.732794</ele>
        <time>2026-08-18T02:16:45.000Z</time>
      </trkpt>
      <trkpt lat="22.878485" lon="110.614395">
        <ele>100.697886</ele>
        <time>2026-08-18T02:16:46.000Z</time>
      </trkpt>
      <trkpt lat="22.878435" lon="110.614408">
        <ele>100.662208</ele>
        <time>2026-08-18T02:16:47.000Z</time>
      </trkpt>
      <trkpt lat="22.878386" lon="110.614430">
        <ele>100.625412</ele>
        <time>2026-08-18T02:16:48.000Z</time>
      </trkpt>
      <trkpt lat="22.878339" lon="110.614453">
        <ele>100.589636</ele>
        <time>2026-08-18T02:16:49.000Z</time>
      </trkpt>
      <trkpt lat="22.878291" lon="110.614478">
        <ele>100.552691</ele>
        <time>2026-08-18T02:16:50.000Z</time>
      </trkpt>
      <trkpt lat="22.878246" lon="110.614513">
        <ele>100.514274</ele>
        <time>2026-08-18T02:16:51.000Z</time>
      </trkpt>
      <trkpt lat="22.878199" lon="110.614552">
        <ele>100.473221</ele>
        <time>2026-08-18T02:16:52.000Z</time>
      </trkpt>
      <trkpt lat="22.878158" lon="110.614590">
        <ele>100.435808</ele>
        <time>2026-08-18T02:16:53.000Z</time>
      </trkpt>
      <trkpt lat="22.878113" lon="110.614633">
        <ele>100.394204</ele>
        <time>2026-08-18T02:16:54.000Z</time>
      </trkpt>
      <trkpt lat="22.878064" lon="110.614677">
        <ele>100.350074</ele>
        <time>2026-08-18T02:16:55.000Z</time>
      </trkpt>
      <trkpt lat="22.878011" lon="110.614718">
        <ele>100.304910</ele>
        <time>2026-08-18T02:16:56.000Z</time>
      </trkpt>
      <trkpt lat="22.877957" lon="110.614760">
        <ele>100.258811</ele>
        <time>2026-08-18T02:16:57.000Z</time>
      </trkpt>
      <trkpt lat="22.877904" lon="110.614801">
        <ele>100.213647</ele>
        <time>2026-08-18T02:16:58.000Z</time>
      </trkpt>
      <trkpt lat="22.877853" lon="110.614845">
        <ele>100.168439</ele>
        <time>2026-08-18T02:16:59.000Z</time>
      </trkpt>
      <trkpt lat="22.877803" lon="110.614887">
        <ele>100.124565</ele>
        <time>2026-08-18T02:17:00.000Z</time>
      </trkpt>
      <trkpt lat="22.877753" lon="110.614927">
        <ele>100.081463</ele>
        <time>2026-08-18T02:17:01.000Z</time>
      </trkpt>
      <trkpt lat="22.877706" lon="110.614967">
        <ele>100.040017</ele>
        <time>2026-08-18T02:17:02.000Z</time>
      </trkpt>
      <trkpt lat="22.877658" lon="110.615004">
        <ele>99.999164</ele>
        <time>2026-08-18T02:17:03.000Z</time>
      </trkpt>
      <trkpt lat="22.877613" lon="110.615045">
        <ele>99.958393</ele>
        <time>2026-08-18T02:17:04.000Z</time>
      </trkpt>
      <trkpt lat="22.877568" lon="110.615084">
        <ele>99.918433</ele>
        <time>2026-08-18T02:17:05.000Z</time>
      </trkpt>
      <trkpt lat="22.877523" lon="110.615119">
        <ele>99.880017</ele>
        <time>2026-08-18T02:17:06.000Z</time>
      </trkpt>
      <trkpt lat="22.877479" lon="110.615158">
        <ele>99.840596</ele>
        <time>2026-08-18T02:17:07.000Z</time>
      </trkpt>
      <trkpt lat="22.877436" lon="110.615195">
        <ele>99.802518</ele>
        <time>2026-08-18T02:17:08.000Z</time>
      </trkpt>
      <trkpt lat="22.877396" lon="110.615231">
        <ele>99.918328</ele>
        <time>2026-08-18T02:17:09.000Z</time>
      </trkpt>
      <trkpt lat="22.877360" lon="110.615271">
        <ele>100.133009</ele>
        <time>2026-08-18T02:17:10.000Z</time>
      </trkpt>
      <trkpt lat="22.877327" lon="110.615313">
        <ele>100.344932</ele>
        <time>2026-08-18T02:17:11.000Z</time>
      </trkpt>
      <trkpt lat="22.877297" lon="110.615357">
        <ele>100.555085</ele>
        <time>2026-08-18T02:17:12.000Z</time>
      </trkpt>
      <trkpt lat="22.877271" lon="110.615403">
        <ele>100.762276</ele>
        <time>2026-08-18T02:17:13.000Z</time>
      </trkpt>
      <trkpt lat="22.877249" lon="110.615452">
        <ele>100.971548</ele>
        <time>2026-08-18T02:17:14.000Z</time>
      </trkpt>
      <trkpt lat="22.877229" lon="110.615500">
        <ele>101.173802</ele>
        <time>2026-08-18T02:17:15.000Z</time>
      </trkpt>
      <trkpt lat="22.877210" lon="110.615548">
        <ele>101.374375</ele>
        <time>2026-08-18T02:17:16.000Z</time>
      </trkpt>
      <trkpt lat="22.877194" lon="110.615597">
        <ele>101.573965</ele>
        <time>2026-08-18T02:17:17.000Z</time>
      </trkpt>
      <trkpt lat="22.877182" lon="110.615647">
        <ele>101.772334</ele>
        <time>2026-08-18T02:17:18.000Z</time>
      </trkpt>
      <trkpt lat="22.877168" lon="110.615698">
        <ele>101.976643</ele>
        <time>2026-08-18T02:17:19.000Z</time>
      </trkpt>
      <trkpt lat="22.877155" lon="110.615748">
        <ele>102.176104</ele>
        <time>2026-08-18T02:17:20.000Z</time>
      </trkpt>
      <trkpt lat="22.877142" lon="110.615795">
        <ele>102.364506</ele>
        <time>2026-08-18T02:17:21.000Z</time>
      </trkpt>
      <trkpt lat="22.877126" lon="110.615840">
        <ele>102.549691</ele>
        <time>2026-08-18T02:17:22.000Z</time>
      </trkpt>
      <trkpt lat="22.877112" lon="110.615885">
        <ele>102.732043</ele>
        <time>2026-08-18T02:17:23.000Z</time>
      </trkpt>
      <trkpt lat="22.877089" lon="110.615929">
        <ele>102.926265</ele>
        <time>2026-08-18T02:17:24.000Z</time>
      </trkpt>
      <trkpt lat="22.877066" lon="110.615969">
        <ele>103.107289</ele>
        <time>2026-08-18T02:17:25.000Z</time>
      </trkpt>
      <trkpt lat="22.877038" lon="110.616006">
        <ele>103.291117</ele>
        <time>2026-08-18T02:17:26.000Z</time>
      </trkpt>
      <trkpt lat="22.877009" lon="110.616044">
        <ele>103.480558</ele>
        <time>2026-08-18T02:17:27.000Z</time>
      </trkpt>
      <trkpt lat="22.876979" lon="110.616078">
        <ele>103.661300</ele>
        <time>2026-08-18T02:17:28.000Z</time>
      </trkpt>
      <trkpt lat="22.876948" lon="110.616110">
        <ele>103.839572</ele>
        <time>2026-08-18T02:17:29.000Z</time>
      </trkpt>
      <trkpt lat="22.876915" lon="110.616136">
        <ele>104.009495</ele>
        <time>2026-08-18T02:17:30.000Z</time>
      </trkpt>
      <trkpt lat="22.876882" lon="110.616165">
        <ele>104.186430</ele>
        <time>2026-08-18T02:17:31.000Z</time>
      </trkpt>
      <trkpt lat="22.876849" lon="110.616190">
        <ele>104.354127</ele>
        <time>2026-08-18T02:17:32.000Z</time>
      </trkpt>
      <trkpt lat="22.876815" lon="110.616211">
        <ele>104.517141</ele>
        <time>2026-08-18T02:17:33.000Z</time>
      </trkpt>
      <trkpt lat="22.876786" lon="110.616233">
        <ele>104.664578</ele>
        <time>2026-08-18T02:17:34.000Z</time>
      </trkpt>
      <trkpt lat="22.876758" lon="110.616254">
        <ele>104.806402</ele>
        <time>2026-08-18T02:17:35.000Z</time>
      </trkpt>
      <trkpt lat="22.876736" lon="110.616267">
        <ele>104.910783</ele>
        <time>2026-08-18T02:17:36.000Z</time>
      </trkpt>
      <trkpt lat="22.876714" lon="110.616279">
        <ele>105.013383</ele>
        <time>2026-08-18T02:17:37.000Z</time>
      </trkpt>
      <trkpt lat="22.876693" lon="110.616288">
        <ele>105.107466</ele>
        <time>2026-08-18T02:17:38.000Z</time>
      </trkpt>
      <trkpt lat="22.876675" lon="110.616296">
        <ele>105.188518</ele>
        <time>2026-08-18T02:17:39.000Z</time>
      </trkpt>
      <trkpt lat="22.876665" lon="110.616297">
        <ele>105.230365</ele>
        <time>2026-08-18T02:17:40.000Z</time>
      </trkpt>
      <trkpt lat="22.876645" lon="110.616303">
        <ele>105.316831</ele>
        <time>2026-08-18T02:17:41.000Z</time>
      </trkpt>
      <trkpt lat="22.876627" lon="110.616306">
        <ele>105.392717</ele>
        <time>2026-08-18T02:17:42.000Z</time>
      </trkpt>
      <trkpt lat="22.876609" lon="110.616312">
        <ele>105.471182</ele>
        <time>2026-08-18T02:17:43.000Z</time>
      </trkpt>
      <trkpt lat="22.876598" lon="110.616314">
        <ele>105.517658</ele>
        <time>2026-08-18T02:17:44.000Z</time>
      </trkpt>
      <trkpt lat="22.876583" lon="110.616309">
        <ele>105.583045</ele>
        <time>2026-08-18T02:17:45.000Z</time>
      </trkpt>
      <trkpt lat="22.876568" lon="110.616308">
        <ele>105.645669</ele>
        <time>2026-08-18T02:17:46.000Z</time>
      </trkpt>
      <trkpt lat="22.876551" lon="110.616311">
        <ele>105.717439</ele>
        <time>2026-08-18T02:17:47.000Z</time>
      </trkpt>
      <trkpt lat="22.876537" lon="110.616315">
        <ele>105.777765</ele>
        <time>2026-08-18T02:17:48.000Z</time>
      </trkpt>
      <trkpt lat="22.876519" lon="110.616315">
        <ele>105.852772</ele>
        <time>2026-08-18T02:17:49.000Z</time>
      </trkpt>
      <trkpt lat="22.876513" lon="110.616315">
        <ele>105.877774</ele>
        <time>2026-08-18T02:17:50.000Z</time>
      </trkpt>
      <trkpt lat="22.876494" lon="110.616316">
        <ele>105.957041</ele>
        <time>2026-08-18T02:17:51.000Z</time>
      </trkpt>
      <trkpt lat="22.876479" lon="110.616312">
        <ele>106.021406</ele>
        <time>2026-08-18T02:17:52.000Z</time>
      </trkpt>
      <trkpt lat="22.876459" lon="110.616309">
        <ele>106.105539</ele>
        <time>2026-08-18T02:17:53.000Z</time>
      </trkpt>
      <trkpt lat="22.876442" lon="110.616301">
        <ele>106.182750</ele>
        <time>2026-08-18T02:17:54.000Z</time>
      </trkpt>
      <trkpt lat="22.876430" lon="110.616285">
        <ele>106.261959</ele>
        <time>2026-08-18T02:17:55.000Z</time>
      </trkpt>
      <trkpt lat="22.876408" lon="110.616279">
        <ele>106.356484</ele>
        <time>2026-08-18T02:17:56.000Z</time>
      </trkpt>
      <trkpt lat="22.876388" lon="110.616274">
        <ele>106.442007</ele>
        <time>2026-08-18T02:17:57.000Z</time>
      </trkpt>
      <trkpt lat="22.876371" lon="110.616279">
        <ele>106.515402</ele>
        <time>2026-08-18T02:17:58.000Z</time>
      </trkpt>
      <trkpt lat="22.876356" lon="110.616276">
        <ele>106.578960</ele>
        <time>2026-08-18T02:17:59.000Z</time>
      </trkpt>
      <trkpt lat="22.876339" lon="110.616271">
        <ele>106.652354</ele>
        <time>2026-08-18T02:18:00.000Z</time>
      </trkpt>
      <trkpt lat="22.876313" lon="110.616274">
        <ele>106.761308</ele>
        <time>2026-08-18T02:18:01.000Z</time>
      </trkpt>
      <trkpt lat="22.876293" lon="110.616277">
        <ele>106.845441</ele>
        <time>2026-08-18T02:18:02.000Z</time>
      </trkpt>
      <trkpt lat="22.876272" lon="110.616283">
        <ele>106.935931</ele>
        <time>2026-08-18T02:18:03.000Z</time>
      </trkpt>
      <trkpt lat="22.876258" lon="110.616284">
        <ele>106.994395</ele>
        <time>2026-08-18T02:18:04.000Z</time>
      </trkpt>
      <trkpt lat="22.876245" lon="110.616275">
        <ele>107.058649</ele>
        <time>2026-08-18T02:18:05.000Z</time>
      </trkpt>
      <trkpt lat="22.876229" lon="110.616267">
        <ele>107.132056</ele>
        <time>2026-08-18T02:18:06.000Z</time>
      </trkpt>
      <trkpt lat="22.876211" lon="110.616261">
        <ele>107.210521</ele>
        <time>2026-08-18T02:18:07.000Z</time>
      </trkpt>
      <trkpt lat="22.876196" lon="110.616262">
        <ele>107.273144</ele>
        <time>2026-08-18T02:18:08.000Z</time>
      </trkpt>
      <trkpt lat="22.876182" lon="110.616258">
        <ele>107.378665</ele>
        <time>2026-08-18T02:18:09.000Z</time>
      </trkpt>
      <trkpt lat="22.876163" lon="110.616257">
        <ele>107.529159</ele>
        <time>2026-08-18T02:18:10.000Z</time>
      </trkpt>
      <trkpt lat="22.876145" lon="110.616259">
        <ele>107.672310</ele>
        <time>2026-08-18T02:18:11.000Z</time>
      </trkpt>
      <trkpt lat="22.876129" lon="110.616261">
        <ele>107.799730</ele>
        <time>2026-08-18T02:18:12.000Z</time>
      </trkpt>
      <trkpt lat="22.876112" lon="110.616259">
        <ele>107.935012</ele>
        <time>2026-08-18T02:18:13.000Z</time>
      </trkpt>
      <trkpt lat="22.876096" lon="110.616258">
        <ele>108.061805</ele>
        <time>2026-08-18T02:18:14.000Z</time>
      </trkpt>
      <trkpt lat="22.876083" lon="110.616252">
        <ele>108.173567</ele>
        <time>2026-08-18T02:18:15.000Z</time>
      </trkpt>
      <trkpt lat="22.876070" lon="110.616248">
        <ele>108.280469</ele>
        <time>2026-08-18T02:18:16.000Z</time>
      </trkpt>
      <trkpt lat="22.876053" lon="110.616253">
        <ele>108.419814</ele>
        <time>2026-08-18T02:18:17.000Z</time>
      </trkpt>
      <trkpt lat="22.876035" lon="110.616257">
        <ele>108.565174</ele>
        <time>2026-08-18T02:18:18.000Z</time>
      </trkpt>
      <trkpt lat="22.876017" lon="110.616260">
        <ele>108.709250</ele>
        <time>2026-08-18T02:18:19.000Z</time>
      </trkpt>
      <trkpt lat="22.875997" lon="110.616265">
        <ele>108.871622</ele>
        <time>2026-08-18T02:18:20.000Z</time>
      </trkpt>
      <trkpt lat="22.875979" lon="110.616265">
        <ele>109.014028</ele>
        <time>2026-08-18T02:18:21.000Z</time>
      </trkpt>
      <trkpt lat="22.875961" lon="110.616267">
        <ele>109.157179</ele>
        <time>2026-08-18T02:18:22.000Z</time>
      </trkpt>
      <trkpt lat="22.875943" lon="110.616271">
        <ele>109.302539</ele>
        <time>2026-08-18T02:18:23.000Z</time>
      </trkpt>
      <trkpt lat="22.875924" lon="110.616273">
        <ele>109.453562</ele>
        <time>2026-08-18T02:18:24.000Z</time>
      </trkpt>
      <trkpt lat="22.875903" lon="110.616275">
        <ele>109.620341</ele>
        <time>2026-08-18T02:18:25.000Z</time>
      </trkpt>
      <trkpt lat="22.875885" lon="110.616272">
        <ele>109.764416</ele>
        <time>2026-08-18T02:18:26.000Z</time>
      </trkpt>
      <trkpt lat="22.875865" lon="110.616274">
        <ele>109.923315</ele>
        <time>2026-08-18T02:18:27.000Z</time>
      </trkpt>
      <trkpt lat="22.875846" lon="110.616275">
        <ele>110.073810</ele>
        <time>2026-08-18T02:18:28.000Z</time>
      </trkpt>
      <trkpt lat="22.875826" lon="110.616278">
        <ele>110.233543</ele>
        <time>2026-08-18T02:18:29.000Z</time>
      </trkpt>
      <trkpt lat="22.875808" lon="110.616275">
        <ele>110.377618</ele>
        <time>2026-08-18T02:18:30.000Z</time>
      </trkpt>
      <trkpt lat="22.875790" lon="110.616274">
        <ele>110.520211</ele>
        <time>2026-08-18T02:18:31.000Z</time>
      </trkpt>
      <trkpt lat="22.875770" lon="110.616279">
        <ele>110.682583</ele>
        <time>2026-08-18T02:18:32.000Z</time>
      </trkpt>
      <trkpt lat="22.875751" lon="110.616285">
        <ele>110.839134</ele>
        <time>2026-08-18T02:18:33.000Z</time>
      </trkpt>
      <trkpt lat="22.875731" lon="110.616287">
        <ele>110.998033</ele>
        <time>2026-08-18T02:18:34.000Z</time>
      </trkpt>
      <trkpt lat="22.875713" lon="110.616287">
        <ele>111.140439</ele>
        <time>2026-08-18T02:18:35.000Z</time>
      </trkpt>
      <trkpt lat="22.875695" lon="110.616293">
        <ele>111.289410</ele>
        <time>2026-08-18T02:18:36.000Z</time>
      </trkpt>
      <trkpt lat="22.875680" lon="110.616295">
        <ele>111.408974</ele>
        <time>2026-08-18T02:18:37.000Z</time>
      </trkpt>
      <trkpt lat="22.875662" lon="110.616303">
        <ele>111.562857</ele>
        <time>2026-08-18T02:18:38.000Z</time>
      </trkpt>
      <trkpt lat="22.875647" lon="110.616313">
        <ele>111.702127</ele>
        <time>2026-08-18T02:18:39.000Z</time>
      </trkpt>
      <trkpt lat="22.875631" lon="110.616324">
        <ele>111.851969</ele>
        <time>2026-08-18T02:18:40.000Z</time>
      </trkpt>
      <trkpt lat="22.875613" lon="110.616332">
        <ele>112.005852</ele>
        <time>2026-08-18T02:18:41.000Z</time>
      </trkpt>
      <trkpt lat="22.875595" lon="110.616343">
        <ele>112.169279</ele>
        <time>2026-08-18T02:18:42.000Z</time>
      </trkpt>
      <trkpt lat="22.875579" lon="110.616357">
        <ele>112.331875</ele>
        <time>2026-08-18T02:18:43.000Z</time>
      </trkpt>
      <trkpt lat="22.875563" lon="110.616369">
        <ele>112.485740</ele>
        <time>2026-08-18T02:18:44.000Z</time>
      </trkpt>
      <trkpt lat="22.875545" lon="110.616384">
        <ele>112.665280</ele>
        <time>2026-08-18T02:18:45.000Z</time>
      </trkpt>
      <trkpt lat="22.875529" lon="110.616400">
        <ele>112.837400</ele>
        <time>2026-08-18T02:18:46.000Z</time>
      </trkpt>
      <trkpt lat="22.875512" lon="110.616414">
        <ele>113.006228</ele>
        <time>2026-08-18T02:18:47.000Z</time>
      </trkpt>
      <trkpt lat="22.875493" lon="110.616426">
        <ele>113.180143</ele>
        <time>2026-08-18T02:18:48.000Z</time>
      </trkpt>
      <trkpt lat="22.875475" lon="110.616439">
        <ele>113.351195</ele>
        <time>2026-08-18T02:18:49.000Z</time>
      </trkpt>
      <trkpt lat="22.875459" lon="110.616451">
        <ele>113.505060</ele>
        <time>2026-08-18T02:18:50.000Z</time>
      </trkpt>
      <trkpt lat="22.875445" lon="110.616465">
        <ele>113.655666</ele>
        <time>2026-08-18T02:18:51.000Z</time>
      </trkpt>
      <trkpt lat="22.875432" lon="110.616478">
        <ele>113.795513</ele>
        <time>2026-08-18T02:18:52.000Z</time>
      </trkpt>
      <trkpt lat="22.875421" lon="110.616494">
        <ele>113.941032</ele>
        <time>2026-08-18T02:18:53.000Z</time>
      </trkpt>
      <trkpt lat="22.875410" lon="110.616510">
        <ele>114.086550</ele>
        <time>2026-08-18T02:18:54.000Z</time>
      </trkpt>
      <trkpt lat="22.875398" lon="110.616527">
        <ele>114.242654</ele>
        <time>2026-08-18T02:18:55.000Z</time>
      </trkpt>
      <trkpt lat="22.875388" lon="110.616545">
        <ele>114.395867</ele>
        <time>2026-08-18T02:18:56.000Z</time>
      </trkpt>
      <trkpt lat="22.875378" lon="110.616564">
        <ele>114.555367</ele>
        <time>2026-08-18T02:18:57.000Z</time>
      </trkpt>
      <trkpt lat="22.875371" lon="110.616582">
        <ele>114.697782</ele>
        <time>2026-08-18T02:18:58.000Z</time>
      </trkpt>
      <trkpt lat="22.875363" lon="110.616603">
        <ele>114.863424</ele>
        <time>2026-08-18T02:18:59.000Z</time>
      </trkpt>
      <trkpt lat="22.875353" lon="110.616622">
        <ele>115.022924</ele>
        <time>2026-08-18T02:19:00.000Z</time>
      </trkpt>
      <trkpt lat="22.875344" lon="110.616643">
        <ele>115.191748</ele>
        <time>2026-08-18T02:19:01.000Z</time>
      </trkpt>
      <trkpt lat="22.875337" lon="110.616664">
        <ele>115.354532</ele>
        <time>2026-08-18T02:19:02.000Z</time>
      </trkpt>
      <trkpt lat="22.875331" lon="110.616687">
        <ele>115.528775</ele>
        <time>2026-08-18T02:19:03.000Z</time>
      </trkpt>
      <trkpt lat="22.875324" lon="110.616709">
        <ele>115.698431</ele>
        <time>2026-08-18T02:19:04.000Z</time>
      </trkpt>
      <trkpt lat="22.875317" lon="110.616732">
        <ele>115.874994</ele>
        <time>2026-08-18T02:19:05.000Z</time>
      </trkpt>
      <trkpt lat="22.875307" lon="110.616755">
        <ele>116.060376</ele>
        <time>2026-08-18T02:19:06.000Z</time>
      </trkpt>
      <trkpt lat="22.875297" lon="110.616778">
        <ele>116.245758</ele>
        <time>2026-08-18T02:19:07.000Z</time>
      </trkpt>
      <trkpt lat="22.875290" lon="110.616801">
        <ele>116.422321</ele>
        <time>2026-08-18T02:19:08.000Z</time>
      </trkpt>
      <trkpt lat="22.875284" lon="110.616823">
        <ele>116.589562</ele>
        <time>2026-08-18T02:19:09.000Z</time>
      </trkpt>
      <trkpt lat="22.875282" lon="110.616846">
        <ele>116.757960</ele>
        <time>2026-08-18T02:19:10.000Z</time>
      </trkpt>
      <trkpt lat="22.875278" lon="110.616870">
        <ele>116.935741</ele>
        <time>2026-08-18T02:19:11.000Z</time>
      </trkpt>
      <trkpt lat="22.875276" lon="110.616894">
        <ele>117.111397</ele>
        <time>2026-08-18T02:19:12.000Z</time>
      </trkpt>
      <trkpt lat="22.875271" lon="110.616916">
        <ele>117.276567</ele>
        <time>2026-08-18T02:19:13.000Z</time>
      </trkpt>
      <trkpt lat="22.875266" lon="110.616940">
        <ele>117.455925</ele>
        <time>2026-08-18T02:19:14.000Z</time>
      </trkpt>
      <trkpt lat="22.875261" lon="110.616968">
        <ele>117.663822</ele>
        <time>2026-08-18T02:19:15.000Z</time>
      </trkpt>
      <trkpt lat="22.875256" lon="110.616992">
        <ele>117.843181</ele>
        <time>2026-08-18T02:19:16.000Z</time>
      </trkpt>
      <trkpt lat="22.875248" lon="110.617015">
        <ele>118.022382</ele>
        <time>2026-08-18T02:19:17.000Z</time>
      </trkpt>
      <trkpt lat="22.875245" lon="110.617037">
        <ele>118.184492</ele>
        <time>2026-08-18T02:19:18.000Z</time>
      </trkpt>
      <trkpt lat="22.875241" lon="110.617056">
        <ele>118.326558</ele>
        <time>2026-08-18T02:19:19.000Z</time>
      </trkpt>
      <trkpt lat="22.875237" lon="110.617074">
        <ele>118.461526</ele>
        <time>2026-08-18T02:19:20.000Z</time>
      </trkpt>
      <trkpt lat="22.875234" lon="110.617095">
        <ele>118.616430</ele>
        <time>2026-08-18T02:19:21.000Z</time>
      </trkpt>
      <trkpt lat="22.875229" lon="110.617115">
        <ele>118.767486</ele>
        <time>2026-08-18T02:19:22.000Z</time>
      </trkpt>
      <trkpt lat="22.875223" lon="110.617133">
        <ele>118.907015</ele>
        <time>2026-08-18T02:19:23.000Z</time>
      </trkpt>
      <trkpt lat="22.875219" lon="110.617151">
        <ele>119.041984</ele>
        <time>2026-08-18T02:19:24.000Z</time>
      </trkpt>
      <trkpt lat="22.875216" lon="110.617169">
        <ele>119.175320</ele>
        <time>2026-08-18T02:19:25.000Z</time>
      </trkpt>
      <trkpt lat="22.875211" lon="110.617187">
        <ele>119.312360</ele>
        <time>2026-08-18T02:19:26.000Z</time>
      </trkpt>
      <trkpt lat="22.875207" lon="110.617203">
        <ele>119.433205</ele>
        <time>2026-08-18T02:19:27.000Z</time>
      </trkpt>
      <trkpt lat="22.875204" lon="110.617218">
        <ele>119.545090</ele>
        <time>2026-08-18T02:19:28.000Z</time>
      </trkpt>
      <trkpt lat="22.875201" lon="110.617235">
        <ele>119.671260</ele>
        <time>2026-08-18T02:19:29.000Z</time>
      </trkpt>
      <trkpt lat="22.875196" lon="110.617252">
        <ele>119.801337</ele>
        <time>2026-08-18T02:19:30.000Z</time>
      </trkpt>
      <trkpt lat="22.875190" lon="110.617269">
        <ele>119.934035</ele>
        <time>2026-08-18T02:19:31.000Z</time>
      </trkpt>
      <trkpt lat="22.875188" lon="110.617284">
        <ele>120.044513</ele>
        <time>2026-08-18T02:19:32.000Z</time>
      </trkpt>
      <trkpt lat="22.875187" lon="110.617300">
        <ele>120.161409</ele>
        <time>2026-08-18T02:19:33.000Z</time>
      </trkpt>
      <trkpt lat="22.875185" lon="110.617318">
        <ele>120.293566</ele>
        <time>2026-08-18T02:19:34.000Z</time>
      </trkpt>
      <trkpt lat="22.875180" lon="110.617336">
        <ele>120.430606</ele>
        <time>2026-08-18T02:19:35.000Z</time>
      </trkpt>
      <trkpt lat="22.875173" lon="110.617354">
        <ele>120.573021</ele>
        <time>2026-08-18T02:19:36.000Z</time>
      </trkpt>
      <trkpt lat="22.875163" lon="110.617373">
        <ele>120.732521</ele>
        <time>2026-08-18T02:19:37.000Z</time>
      </trkpt>
      <trkpt lat="22.875154" lon="110.617391">
        <ele>120.881803</ele>
        <time>2026-08-18T02:19:38.000Z</time>
      </trkpt>
      <trkpt lat="22.875149" lon="110.617408">
        <ele>121.011881</ele>
        <time>2026-08-18T02:19:39.000Z</time>
      </trkpt>
      <trkpt lat="22.875144" lon="110.617426">
        <ele>121.148921</ele>
        <time>2026-08-18T02:19:40.000Z</time>
      </trkpt>
      <trkpt lat="22.875136" lon="110.617446">
        <ele>121.307852</ele>
        <time>2026-08-18T02:19:41.000Z</time>
      </trkpt>
      <trkpt lat="22.875125" lon="110.617463">
        <ele>121.459275</ele>
        <time>2026-08-18T02:19:42.000Z</time>
      </trkpt>
      <trkpt lat="22.875116" lon="110.617479">
        <ele>121.549335</ele>
        <time>2026-08-18T02:19:43.000Z</time>
      </trkpt>
      <trkpt lat="22.875109" lon="110.617493">
        <ele>121.600168</ele>
        <time>2026-08-18T02:19:44.000Z</time>
      </trkpt>
      <trkpt lat="22.875101" lon="110.617506">
        <ele>121.650057</ele>
        <time>2026-08-18T02:19:45.000Z</time>
      </trkpt>
      <trkpt lat="22.875093" lon="110.617520">
        <ele>121.702630</ele>
        <time>2026-08-18T02:19:46.000Z</time>
      </trkpt>
      <trkpt lat="22.875090" lon="110.617533">
        <ele>121.745398</ele>
        <time>2026-08-18T02:19:47.000Z</time>
      </trkpt>
      <trkpt lat="22.875084" lon="110.617548">
        <ele>121.797584</ele>
        <time>2026-08-18T02:19:48.000Z</time>
      </trkpt>
      <trkpt lat="22.875077" lon="110.617563">
        <ele>121.851243</ele>
        <time>2026-08-18T02:19:49.000Z</time>
      </trkpt>
      <trkpt lat="22.875067" lon="110.617575">
        <ele>121.902878</ele>
        <time>2026-08-18T02:19:50.000Z</time>
      </trkpt>
      <trkpt lat="22.875059" lon="110.617584">
        <ele>121.942787</ele>
        <time>2026-08-18T02:19:51.000Z</time>
      </trkpt>
      <trkpt lat="22.875050" lon="110.617594">
        <ele>121.987398</ele>
        <time>2026-08-18T02:19:52.000Z</time>
      </trkpt>
      <trkpt lat="22.875041" lon="110.617605">
        <ele>122.034346</ele>
        <time>2026-08-18T02:19:53.000Z</time>
      </trkpt>
      <trkpt lat="22.875035" lon="110.617619">
        <ele>122.083620</ele>
        <time>2026-08-18T02:19:54.000Z</time>
      </trkpt>
      <trkpt lat="22.875028" lon="110.617635">
        <ele>122.140145</ele>
        <time>2026-08-18T02:19:55.000Z</time>
      </trkpt>
      <trkpt lat="22.875019" lon="110.617648">
        <ele>122.192038</ele>
        <time>2026-08-18T02:19:56.000Z</time>
      </trkpt>
      <trkpt lat="22.875010" lon="110.617655">
        <ele>122.230388</ele>
        <time>2026-08-18T02:19:57.000Z</time>
      </trkpt>
      <trkpt lat="22.874999" lon="110.617662">
        <ele>122.274555</ele>
        <time>2026-08-18T02:19:58.000Z</time>
      </trkpt>
      <trkpt lat="22.874986" lon="110.617667">
        <ele>122.322326</ele>
        <time>2026-08-18T02:19:59.000Z</time>
      </trkpt>
      <trkpt lat="22.874971" lon="110.617672">
        <ele>122.376676</ele>
        <time>2026-08-18T02:20:00.000Z</time>
      </trkpt>
      <trkpt lat="22.874958" lon="110.617679">
        <ele>122.426940</ele>
        <time>2026-08-18T02:20:01.000Z</time>
      </trkpt>
      <trkpt lat="22.874947" lon="110.617688">
        <ele>122.474654</ele>
        <time>2026-08-18T02:20:02.000Z</time>
      </trkpt>
      <trkpt lat="22.874941" lon="110.617698">
        <ele>122.512737</ele>
        <time>2026-08-18T02:20:03.000Z</time>
      </trkpt>
      <trkpt lat="22.874932" lon="110.617713">
        <ele>122.569861</ele>
        <time>2026-08-18T02:20:04.000Z</time>
      </trkpt>
      <trkpt lat="22.874922" lon="110.617724">
        <ele>122.619176</ele>
        <time>2026-08-18T02:20:05.000Z</time>
      </trkpt>
      <trkpt lat="22.874915" lon="110.617735">
        <ele>122.661839</ele>
        <time>2026-08-18T02:20:06.000Z</time>
      </trkpt>
      <trkpt lat="22.874904" lon="110.617747">
        <ele>122.715859</ele>
        <time>2026-08-18T02:20:07.000Z</time>
      </trkpt>
      <trkpt lat="22.874894" lon="110.617760">
        <ele>122.769904</ele>
        <time>2026-08-18T02:20:08.000Z</time>
      </trkpt>
      <trkpt lat="22.874884" lon="110.617771">
        <ele>122.819219</ele>
        <time>2026-08-18T02:20:09.000Z</time>
      </trkpt>
      <trkpt lat="22.874877" lon="110.617785">
        <ele>122.870052</ele>
        <time>2026-08-18T02:20:10.000Z</time>
      </trkpt>
      <trkpt lat="22.874867" lon="110.617798">
        <ele>122.924097</ele>
        <time>2026-08-18T02:20:11.000Z</time>
      </trkpt>
      <trkpt lat="22.874858" lon="110.617811">
        <ele>122.975990</ele>
        <time>2026-08-18T02:20:12.000Z</time>
      </trkpt>
      <trkpt lat="22.874849" lon="110.617823">
        <ele>123.025369</ele>
        <time>2026-08-18T02:20:13.000Z</time>
      </trkpt>
      <trkpt lat="22.874840" lon="110.617832">
        <ele>123.067756</ele>
        <time>2026-08-18T02:20:14.000Z</time>
      </trkpt>
      <trkpt lat="22.874830" lon="110.617845">
        <ele>123.121801</ele>
        <time>2026-08-18T02:20:15.000Z</time>
      </trkpt>
      <trkpt lat="22.874822" lon="110.617857">
        <ele>123.169069</ele>
        <time>2026-08-18T02:20:16.000Z</time>
      </trkpt>
      <trkpt lat="22.874814" lon="110.617869">
        <ele>123.216338</ele>
        <time>2026-08-18T02:20:17.000Z</time>
      </trkpt>
      <trkpt lat="22.874802" lon="110.617883">
        <ele>123.277360</ele>
        <time>2026-08-18T02:20:18.000Z</time>
      </trkpt>
      <trkpt lat="22.874792" lon="110.617896">
        <ele>123.331405</ele>
        <time>2026-08-18T02:20:19.000Z</time>
      </trkpt>
      <trkpt lat="22.874783" lon="110.617909">
        <ele>123.383298</ele>
        <time>2026-08-18T02:20:20.000Z</time>
      </trkpt>
      <trkpt lat="22.874771" lon="110.617923">
        <ele>123.444320</ele>
        <time>2026-08-18T02:20:21.000Z</time>
      </trkpt>
      <trkpt lat="22.874762" lon="110.617937">
        <ele>123.498798</ele>
        <time>2026-08-18T02:20:22.000Z</time>
      </trkpt>
      <trkpt lat="22.874756" lon="110.617954">
        <ele>123.556894</ele>
        <time>2026-08-18T02:20:23.000Z</time>
      </trkpt>
      <trkpt lat="22.874753" lon="110.617971">
        <ele>123.612132</ele>
        <time>2026-08-18T02:20:24.000Z</time>
      </trkpt>
      <trkpt lat="22.874747" lon="110.617986">
        <ele>123.664317</ele>
        <time>2026-08-18T02:20:25.000Z</time>
      </trkpt>
      <trkpt lat="22.874744" lon="110.618000">
        <ele>123.710187</ele>
        <time>2026-08-18T02:20:26.000Z</time>
      </trkpt>
      <trkpt lat="22.874736" lon="110.618016">
        <ele>123.768282</ele>
        <time>2026-08-18T02:20:27.000Z</time>
      </trkpt>
      <trkpt lat="22.874730" lon="110.618034">
        <ele>123.829369</ele>
        <time>2026-08-18T02:20:28.000Z</time>
      </trkpt>
      <trkpt lat="22.874721" lon="110.618051">
        <ele>123.891939</ele>
        <time>2026-08-18T02:20:29.000Z</time>
      </trkpt>
      <trkpt lat="22.874714" lon="110.618068">
        <ele>123.951362</ele>
        <time>2026-08-18T02:20:30.000Z</time>
      </trkpt>
      <trkpt lat="22.874707" lon="110.618087">
        <ele>124.016664</ele>
        <time>2026-08-18T02:20:31.000Z</time>
      </trkpt>
      <trkpt lat="22.874702" lon="110.618104">
        <ele>124.073612</ele>
        <time>2026-08-18T02:20:32.000Z</time>
      </trkpt>
      <trkpt lat="22.874696" lon="110.618119">
        <ele>124.125798</ele>
        <time>2026-08-18T02:20:33.000Z</time>
      </trkpt>
      <trkpt lat="22.874693" lon="110.618140">
        <ele>124.193616</ele>
        <time>2026-08-18T02:20:34.000Z</time>
      </trkpt>
      <trkpt lat="22.874690" lon="110.618164">
        <ele>124.270908</ele>
        <time>2026-08-18T02:20:35.000Z</time>
      </trkpt>
      <trkpt lat="22.874682" lon="110.618186">
        <ele>124.346386</ele>
        <time>2026-08-18T02:20:36.000Z</time>
      </trkpt>
      <trkpt lat="22.874672" lon="110.618208">
        <ele>124.424673</ele>
        <time>2026-08-18T02:20:37.000Z</time>
      </trkpt>
      <trkpt lat="22.874662" lon="110.618230">
        <ele>124.502960</ele>
        <time>2026-08-18T02:20:38.000Z</time>
      </trkpt>
      <trkpt lat="22.874652" lon="110.618251">
        <ele>124.578399</ele>
        <time>2026-08-18T02:20:39.000Z</time>
      </trkpt>
      <trkpt lat="22.874645" lon="110.618271">
        <ele>124.646674</ele>
        <time>2026-08-18T02:20:40.000Z</time>
      </trkpt>
      <trkpt lat="22.874638" lon="110.618293">
        <ele>124.720951</ele>
        <time>2026-08-18T02:20:41.000Z</time>
      </trkpt>
      <trkpt lat="22.874630" lon="110.618314">
        <ele>124.793470</ele>
        <time>2026-08-18T02:20:42.000Z</time>
      </trkpt>
      <trkpt lat="22.874622" lon="110.618337">
        <ele>124.871926</ele>
        <time>2026-08-18T02:20:43.000Z</time>
      </trkpt>
      <trkpt lat="22.874614" lon="110.618357">
        <ele>124.941507</ele>
        <time>2026-08-18T02:20:44.000Z</time>
      </trkpt>
      <trkpt lat="22.874608" lon="110.618378">
        <ele>125.011672</ele>
        <time>2026-08-18T02:20:45.000Z</time>
      </trkpt>
      <trkpt lat="22.874598" lon="110.618399">
        <ele>125.087110</ele>
        <time>2026-08-18T02:20:46.000Z</time>
      </trkpt>
      <trkpt lat="22.874588" lon="110.618419">
        <ele>125.159729</ele>
        <time>2026-08-18T02:20:47.000Z</time>
      </trkpt>
      <trkpt lat="22.874580" lon="110.618438">
        <ele>125.226394</ele>
        <time>2026-08-18T02:20:48.000Z</time>
      </trkpt>
      <trkpt lat="22.874574" lon="110.618458">
        <ele>125.293518</ele>
        <time>2026-08-18T02:20:49.000Z</time>
      </trkpt>
      <trkpt lat="22.874566" lon="110.618479">
        <ele>125.366038</ele>
        <time>2026-08-18T02:20:50.000Z</time>
      </trkpt>
      <trkpt lat="22.874561" lon="110.618502">
        <ele>125.441452</ele>
        <time>2026-08-18T02:20:51.000Z</time>
      </trkpt>
      <trkpt lat="22.874555" lon="110.618526">
        <ele>125.520812</ele>
        <time>2026-08-18T02:20:52.000Z</time>
      </trkpt>
      <trkpt lat="22.874545" lon="110.618551">
        <ele>125.607789</ele>
        <time>2026-08-18T02:20:53.000Z</time>
      </trkpt>
      <trkpt lat="22.874541" lon="110.618574">
        <ele>125.682484</ele>
        <time>2026-08-18T02:20:54.000Z</time>
      </trkpt>
      <trkpt lat="22.874535" lon="110.618600">
        <ele>125.768020</ele>
        <time>2026-08-18T02:20:55.000Z</time>
      </trkpt>
      <trkpt lat="22.874526" lon="110.618627">
        <ele>125.859651</ele>
        <time>2026-08-18T02:20:56.000Z</time>
      </trkpt>
      <trkpt lat="22.874516" lon="110.618653">
        <ele>125.949563</ele>
        <time>2026-08-18T02:20:57.000Z</time>
      </trkpt>
      <trkpt lat="22.874510" lon="110.618678">
        <ele>126.032007</ele>
        <time>2026-08-18T02:20:58.000Z</time>
      </trkpt>
      <trkpt lat="22.874503" lon="110.618704">
        <ele>126.118450</ele>
        <time>2026-08-18T02:20:59.000Z</time>
      </trkpt>
      <trkpt lat="22.874496" lon="110.618730">
        <ele>126.204894</ele>
        <time>2026-08-18T02:21:00.000Z</time>
      </trkpt>
      <trkpt lat="22.874490" lon="110.618757">
        <ele>126.293529</ele>
        <time>2026-08-18T02:21:01.000Z</time>
      </trkpt>
      <trkpt lat="22.874481" lon="110.618786">
        <ele>126.391185</ele>
        <time>2026-08-18T02:21:02.000Z</time>
      </trkpt>
      <trkpt lat="22.874472" lon="110.618811">
        <ele>126.476841</ele>
        <time>2026-08-18T02:21:03.000Z</time>
      </trkpt>
      <trkpt lat="22.874464" lon="110.618838">
        <ele>126.567351</ele>
        <time>2026-08-18T02:21:04.000Z</time>
      </trkpt>
      <trkpt lat="22.874456" lon="110.618868">
        <ele>126.667019</ele>
        <time>2026-08-18T02:21:05.000Z</time>
      </trkpt>
      <trkpt lat="22.874448" lon="110.618898">
        <ele>126.766687</ele>
        <time>2026-08-18T02:21:06.000Z</time>
      </trkpt>
      <trkpt lat="22.874442" lon="110.618931">
        <ele>126.874030</ele>
        <time>2026-08-18T02:21:07.000Z</time>
      </trkpt>
      <trkpt lat="22.874433" lon="110.618965">
        <ele>126.986923</ele>
        <time>2026-08-18T02:21:08.000Z</time>
      </trkpt>
      <trkpt lat="22.874425" lon="110.619003">
        <ele>127.111317</ele>
        <time>2026-08-18T02:21:09.000Z</time>
      </trkpt>
      <trkpt lat="22.874418" lon="110.619046">
        <ele>127.250667</ele>
        <time>2026-08-18T02:21:10.000Z</time>
      </trkpt>
      <trkpt lat="22.874409" lon="110.619094">
        <ele>127.406989</ele>
        <time>2026-08-18T02:21:11.000Z</time>
      </trkpt>
      <trkpt lat="22.874398" lon="110.619146">
        <ele>127.577253</ele>
        <time>2026-08-18T02:21:12.000Z</time>
      </trkpt>
      <trkpt lat="22.874388" lon="110.619200">
        <ele>127.722590</ele>
        <time>2026-08-18T02:21:13.000Z</time>
      </trkpt>
      <trkpt lat="22.874372" lon="110.619257">
        <ele>127.337909</ele>
        <time>2026-08-18T02:21:14.000Z</time>
      </trkpt>
      <trkpt lat="22.874359" lon="110.619317">
        <ele>126.939994</ele>
        <time>2026-08-18T02:21:15.000Z</time>
      </trkpt>
      <trkpt lat="22.874347" lon="110.619378">
        <ele>126.537312</ele>
        <time>2026-08-18T02:21:16.000Z</time>
      </trkpt>
      <trkpt lat="22.874335" lon="110.619442">
        <ele>126.115670</ele>
        <time>2026-08-18T02:21:17.000Z</time>
      </trkpt>
      <trkpt lat="22.874328" lon="110.619512">
        <ele>125.661109</ele>
        <time>2026-08-18T02:21:18.000Z</time>
      </trkpt>
      <trkpt lat="22.874322" lon="110.619590">
        <ele>125.155802</ele>
        <time>2026-08-18T02:21:19.000Z</time>
      </trkpt>
      <trkpt lat="22.874320" lon="110.619671">
        <ele>124.632692</ele>
        <time>2026-08-18T02:21:20.000Z</time>
      </trkpt>
      <trkpt lat="22.874318" lon="110.619755">
        <ele>124.090222</ele>
        <time>2026-08-18T02:21:21.000Z</time>
      </trkpt>
      <trkpt lat="22.874320" lon="110.619843">
        <ele>123.521936</ele>
        <time>2026-08-18T02:21:22.000Z</time>
      </trkpt>
      <trkpt lat="22.874326" lon="110.619935">
        <ele>122.926514</ele>
        <time>2026-08-18T02:21:23.000Z</time>
      </trkpt>
      <trkpt lat="22.874330" lon="110.620034">
        <ele>122.286773</ele>
        <time>2026-08-18T02:21:24.000Z</time>
      </trkpt>
      <trkpt lat="22.874336" lon="110.620138">
        <ele>121.614052</ele>
        <time>2026-08-18T02:21:25.000Z</time>
      </trkpt>
      <trkpt lat="22.874343" lon="110.620247">
        <ele>120.908659</ele>
        <time>2026-08-18T02:21:26.000Z</time>
      </trkpt>
      <trkpt lat="22.874348" lon="110.620358">
        <ele>120.191206</ele>
        <time>2026-08-18T02:21:27.000Z</time>
      </trkpt>
      <trkpt lat="22.874353" lon="110.620471">
        <ele>119.460857</ele>
        <time>2026-08-18T02:21:28.000Z</time>
      </trkpt>
      <trkpt lat="22.874358" lon="110.620588">
        <ele>118.704713</ele>
        <time>2026-08-18T02:21:29.000Z</time>
      </trkpt>
      <trkpt lat="22.874364" lon="110.620705">
        <ele>117.948213</ele>
        <time>2026-08-18T02:21:30.000Z</time>
      </trkpt>
      <trkpt lat="22.874371" lon="110.620824">
        <ele>117.178405</ele>
        <time>2026-08-18T02:21:31.000Z</time>
      </trkpt>
      <trkpt lat="22.874378" lon="110.620943">
        <ele>116.408598</ele>
        <time>2026-08-18T02:21:32.000Z</time>
      </trkpt>
      <trkpt lat="22.874384" lon="110.621068">
        <ele>115.600525</ele>
        <time>2026-08-18T02:21:33.000Z</time>
      </trkpt>
      <trkpt lat="22.874389" lon="110.621192">
        <ele>115.022970</ele>
        <time>2026-08-18T02:21:34.000Z</time>
      </trkpt>
      <trkpt lat="22.874387" lon="110.621313">
        <ele>114.754444</ele>
        <time>2026-08-18T02:21:35.000Z</time>
      </trkpt>
      <trkpt lat="22.874387" lon="110.621430">
        <ele>114.494836</ele>
        <time>2026-08-18T02:21:36.000Z</time>
      </trkpt>
      <trkpt lat="22.874385" lon="110.621550">
        <ele>114.228527</ele>
        <time>2026-08-18T02:21:37.000Z</time>
      </trkpt>
      <trkpt lat="22.874379" lon="110.621667">
        <ele>113.968517</ele>
        <time>2026-08-18T02:21:38.000Z</time>
      </trkpt>
      <trkpt lat="22.874371" lon="110.621787">
        <ele>113.701557</ele>
        <time>2026-08-18T02:21:39.000Z</time>
      </trkpt>
      <trkpt lat="22.874360" lon="110.621904">
        <ele>113.440600</ele>
        <time>2026-08-18T02:21:40.000Z</time>
      </trkpt>
      <trkpt lat="22.874344" lon="110.622016">
        <ele>113.189117</ele>
        <time>2026-08-18T02:21:41.000Z</time>
      </trkpt>
      <trkpt lat="22.874323" lon="110.622123">
        <ele>112.946371</ele>
        <time>2026-08-18T02:21:42.000Z</time>
      </trkpt>
      <trkpt lat="22.874303" lon="110.622226">
        <ele>112.712807</ele>
        <time>2026-08-18T02:21:43.000Z</time>
      </trkpt>
      <trkpt lat="22.874277" lon="110.622326">
        <ele>112.482254</ele>
        <time>2026-08-18T02:21:44.000Z</time>
      </trkpt>
      <trkpt lat="22.874246" lon="110.622422">
        <ele>112.256538</ele>
        <time>2026-08-18T02:21:45.000Z</time>
      </trkpt>
      <trkpt lat="22.874207" lon="110.622513">
        <ele>112.033845</ele>
        <time>2026-08-18T02:21:46.000Z</time>
      </trkpt>
      <trkpt lat="22.874158" lon="110.622599">
        <ele>111.809482</ele>
        <time>2026-08-18T02:21:47.000Z</time>
      </trkpt>
      <trkpt lat="22.874105" lon="110.622676">
        <ele>111.596217</ele>
        <time>2026-08-18T02:21:48.000Z</time>
      </trkpt>
      <trkpt lat="22.874052" lon="110.622752">
        <ele>111.384724</ele>
        <time>2026-08-18T02:21:49.000Z</time>
      </trkpt>
      <trkpt lat="22.874000" lon="110.622827">
        <ele>111.176453</ele>
        <time>2026-08-18T02:21:50.000Z</time>
      </trkpt>
      <trkpt lat="22.873950" lon="110.622895">
        <ele>110.983411</ele>
        <time>2026-08-18T02:21:51.000Z</time>
      </trkpt>
      <trkpt lat="22.873908" lon="110.622964">
        <ele>110.800337</ele>
        <time>2026-08-18T02:21:52.000Z</time>
      </trkpt>
      <trkpt lat="22.873868" lon="110.623036">
        <ele>110.622931</ele>
        <time>2026-08-18T02:21:53.000Z</time>
      </trkpt>
      <trkpt lat="22.873834" lon="110.623110">
        <ele>110.448448</ele>
        <time>2026-08-18T02:21:54.000Z</time>
      </trkpt>
      <trkpt lat="22.873807" lon="110.623186">
        <ele>110.276574</ele>
        <time>2026-08-18T02:21:55.000Z</time>
      </trkpt>
      <trkpt lat="22.873782" lon="110.623265">
        <ele>110.100320</ele>
        <time>2026-08-18T02:21:56.000Z</time>
      </trkpt>
      <trkpt lat="22.873759" lon="110.623343">
        <ele>109.927511</ele>
        <time>2026-08-18T02:21:57.000Z</time>
      </trkpt>
      <trkpt lat="22.873737" lon="110.623424">
        <ele>109.749324</ele>
        <time>2026-08-18T02:21:58.000Z</time>
      </trkpt>
      <trkpt lat="22.873715" lon="110.623507">
        <ele>109.567085</ele>
        <time>2026-08-18T02:21:59.000Z</time>
      </trkpt>
      <trkpt lat="22.873691" lon="110.623590">
        <ele>109.383526</ele>
        <time>2026-08-18T02:22:00.000Z</time>
      </trkpt>
      <trkpt lat="22.873663" lon="110.623669">
        <ele>109.204922</ele>
        <time>2026-08-18T02:22:01.000Z</time>
      </trkpt>
      <trkpt lat="22.873629" lon="110.623744">
        <ele>109.028548</ele>
        <time>2026-08-18T02:22:02.000Z</time>
      </trkpt>
      <trkpt lat="22.873590" lon="110.623813">
        <ele>108.857740</ele>
        <time>2026-08-18T02:22:03.000Z</time>
      </trkpt>
      <trkpt lat="22.873549" lon="110.623883">
        <ele>108.682716</ele>
        <time>2026-08-18T02:22:04.000Z</time>
      </trkpt>
      <trkpt lat="22.873508" lon="110.623951">
        <ele>108.511238</ele>
        <time>2026-08-18T02:22:05.000Z</time>
      </trkpt>
      <trkpt lat="22.873466" lon="110.624016">
        <ele>108.343717</ele>
        <time>2026-08-18T02:22:06.000Z</time>
      </trkpt>
      <trkpt lat="22.873423" lon="110.624083">
        <ele>108.171425</ele>
        <time>2026-08-18T02:22:07.000Z</time>
      </trkpt>
      <trkpt lat="22.873382" lon="110.624152">
        <ele>107.998178</ele>
        <time>2026-08-18T02:22:08.000Z</time>
      </trkpt>
      <trkpt lat="22.873342" lon="110.624224">
        <ele>107.820771</ele>
        <time>2026-08-18T02:22:09.000Z</time>
      </trkpt>
      <trkpt lat="22.873302" lon="110.624294">
        <ele>107.646964</ele>
        <time>2026-08-18T02:22:10.000Z</time>
      </trkpt>
      <trkpt lat="22.873261" lon="110.624366">
        <ele>107.468364</ele>
        <time>2026-08-18T02:22:11.000Z</time>
      </trkpt>
      <trkpt lat="22.873217" lon="110.624438">
        <ele>107.286058</ele>
        <time>2026-08-18T02:22:12.000Z</time>
      </trkpt>
      <trkpt lat="22.873177" lon="110.624505">
        <ele>107.117598</ele>
        <time>2026-08-18T02:22:13.000Z</time>
      </trkpt>
      <trkpt lat="22.873138" lon="110.624572">
        <ele>106.950373</ele>
        <time>2026-08-18T02:22:14.000Z</time>
      </trkpt>
      <trkpt lat="22.873102" lon="110.624639">
        <ele>106.786714</ele>
        <time>2026-08-18T02:22:15.000Z</time>
      </trkpt>
      <trkpt lat="22.873065" lon="110.624705">
        <ele>106.597547</ele>
        <time>2026-08-18T02:22:16.000Z</time>
      </trkpt>
      <trkpt lat="22.873025" lon="110.624772">
        <ele>106.361998</ele>
        <time>2026-08-18T02:22:17.000Z</time>
      </trkpt>
      <trkpt lat="22.872987" lon="110.624839">
        <ele>106.129870</ele>
        <time>2026-08-18T02:22:18.000Z</time>
      </trkpt>
      <trkpt lat="22.872953" lon="110.624908">
        <ele>105.899006</ele>
        <time>2026-08-18T02:22:19.000Z</time>
      </trkpt>
      <trkpt lat="22.872924" lon="110.624979">
        <ele>105.669866</ele>
        <time>2026-08-18T02:22:20.000Z</time>
      </trkpt>
      <trkpt lat="22.872900" lon="110.625051">
        <ele>105.443961</ele>
        <time>2026-08-18T02:22:21.000Z</time>
      </trkpt>
      <trkpt lat="22.872882" lon="110.625125">
        <ele>105.218150</ele>
        <time>2026-08-18T02:22:22.000Z</time>
      </trkpt>
      <trkpt lat="22.872869" lon="110.625200">
        <ele>104.992987</ele>
        <time>2026-08-18T02:22:23.000Z</time>
      </trkpt>
      <trkpt lat="22.872862" lon="110.625277">
        <ele>104.764702</ele>
        <time>2026-08-18T02:22:24.000Z</time>
      </trkpt>
      <trkpt lat="22.872859" lon="110.625355">
        <ele>104.534369</ele>
        <time>2026-08-18T02:22:25.000Z</time>
      </trkpt>
      <trkpt lat="22.872864" lon="110.625436">
        <ele>104.294849</ele>
        <time>2026-08-18T02:22:26.000Z</time>
      </trkpt>
      <trkpt lat="22.872872" lon="110.625519">
        <ele>104.048628</ele>
        <time>2026-08-18T02:22:27.000Z</time>
      </trkpt>
      <trkpt lat="22.872883" lon="110.625606">
        <ele>103.789536</ele>
        <time>2026-08-18T02:22:28.000Z</time>
      </trkpt>
      <trkpt lat="22.872898" lon="110.625693">
        <ele>103.528395</ele>
        <time>2026-08-18T02:22:29.000Z</time>
      </trkpt>
      <trkpt lat="22.872923" lon="110.625782">
        <ele>103.253875</ele>
        <time>2026-08-18T02:22:30.000Z</time>
      </trkpt>
      <trkpt lat="22.872952" lon="110.625868">
        <ele>102.983680</ele>
        <time>2026-08-18T02:22:31.000Z</time>
      </trkpt>
      <trkpt lat="22.872985" lon="110.625951">
        <ele>102.716968</ele>
        <time>2026-08-18T02:22:32.000Z</time>
      </trkpt>
      <trkpt lat="22.873016" lon="110.626042">
        <ele>102.430717</ele>
        <time>2026-08-18T02:22:33.000Z</time>
      </trkpt>
      <trkpt lat="22.873048" lon="110.626137">
        <ele>102.132284</ele>
        <time>2026-08-18T02:22:34.000Z</time>
      </trkpt>
      <trkpt lat="22.873081" lon="110.626234">
        <ele>101.827207</ele>
        <time>2026-08-18T02:22:35.000Z</time>
      </trkpt>
      <trkpt lat="22.873116" lon="110.626327">
        <ele>101.530812</ele>
        <time>2026-08-18T02:22:36.000Z</time>
      </trkpt>
      <trkpt lat="22.873150" lon="110.626419">
        <ele>101.238353</ele>
        <time>2026-08-18T02:22:37.000Z</time>
      </trkpt>
      <trkpt lat="22.873182" lon="110.626507">
        <ele>100.959227</ele>
        <time>2026-08-18T02:22:38.000Z</time>
      </trkpt>
      <trkpt lat="22.873213" lon="110.626590">
        <ele>100.890732</ele>
        <time>2026-08-18T02:22:39.000Z</time>
      </trkpt>
      <trkpt lat="22.873246" lon="110.626669">
        <ele>100.848224</ele>
        <time>2026-08-18T02:22:40.000Z</time>
      </trkpt>
      <trkpt lat="22.873271" lon="110.626749">
        <ele>100.806824</ele>
        <time>2026-08-18T02:22:41.000Z</time>
      </trkpt>
      <trkpt lat="22.873299" lon="110.626827">
        <ele>100.765799</ele>
        <time>2026-08-18T02:22:42.000Z</time>
      </trkpt>
      <trkpt lat="22.873325" lon="110.626905">
        <ele>100.725149</ele>
        <time>2026-08-18T02:22:43.000Z</time>
      </trkpt>
      <trkpt lat="22.873348" lon="110.626979">
        <ele>100.686876</ele>
        <time>2026-08-18T02:22:44.000Z</time>
      </trkpt>
      <trkpt lat="22.873373" lon="110.627046">
        <ele>100.651450</ele>
        <time>2026-08-18T02:22:45.000Z</time>
      </trkpt>
      <trkpt lat="22.873393" lon="110.627115">
        <ele>100.616001</ele>
        <time>2026-08-18T02:22:46.000Z</time>
      </trkpt>
      <trkpt lat="22.873411" lon="110.627175">
        <ele>100.585078</ele>
        <time>2026-08-18T02:22:47.000Z</time>
      </trkpt>
      <trkpt lat="22.873431" lon="110.627219">
        <ele>100.561033</ele>
        <time>2026-08-18T02:22:48.000Z</time>
      </trkpt>
      <trkpt lat="22.873453" lon="110.627274">
        <ele>100.531649</ele>
        <time>2026-08-18T02:22:49.000Z</time>
      </trkpt>
      <trkpt lat="22.873466" lon="110.627328">
        <ele>100.504296</ele>
        <time>2026-08-18T02:22:50.000Z</time>
      </trkpt>
      <trkpt lat="22.873474" lon="110.627389">
        <ele>100.474100</ele>
        <time>2026-08-18T02:22:51.000Z</time>
      </trkpt>
      <trkpt lat="22.873480" lon="110.627445">
        <ele>100.446471</ele>
        <time>2026-08-18T02:22:52.000Z</time>
      </trkpt>
      <trkpt lat="22.873489" lon="110.627498">
        <ele>100.420060</ele>
        <time>2026-08-18T02:22:53.000Z</time>
      </trkpt>
      <trkpt lat="22.873493" lon="110.627552">
        <ele>100.393511</ele>
        <time>2026-08-18T02:22:54.000Z</time>
      </trkpt>
      <trkpt lat="22.873500" lon="110.627609">
        <ele>100.365330</ele>
        <time>2026-08-18T02:22:55.000Z</time>
      </trkpt>
      <trkpt lat="22.873508" lon="110.627664">
        <ele>100.338042</ele>
        <time>2026-08-18T02:22:56.000Z</time>
      </trkpt>
      <trkpt lat="22.873519" lon="110.627723">
        <ele>100.308541</ele>
        <time>2026-08-18T02:22:57.000Z</time>
      </trkpt>
      <trkpt lat="22.873530" lon="110.627786">
        <ele>100.277117</ele>
        <time>2026-08-18T02:22:58.000Z</time>
      </trkpt>
      <trkpt lat="22.873542" lon="110.627849">
        <ele>100.245590</ele>
        <time>2026-08-18T02:22:59.000Z</time>
      </trkpt>
      <trkpt lat="22.873556" lon="110.627913">
        <ele>100.213353</ele>
        <time>2026-08-18T02:23:00.000Z</time>
      </trkpt>
      <trkpt lat="22.873576" lon="110.627979">
        <ele>100.179304</ele>
        <time>2026-08-18T02:23:01.000Z</time>
      </trkpt>
      <trkpt lat="22.873599" lon="110.628041">
        <ele>100.146549</ele>
        <time>2026-08-18T02:23:02.000Z</time>
      </trkpt>
      <trkpt lat="22.873625" lon="110.628102">
        <ele>100.113611</ele>
        <time>2026-08-18T02:23:03.000Z</time>
      </trkpt>
      <trkpt lat="22.873657" lon="110.628162">
        <ele>100.079636</ele>
        <time>2026-08-18T02:23:04.000Z</time>
      </trkpt>
      <trkpt lat="22.873696" lon="110.628218">
        <ele>100.045234</ele>
        <time>2026-08-18T02:23:05.000Z</time>
      </trkpt>
      <trkpt lat="22.873739" lon="110.628272">
        <ele>100.010256</ele>
        <time>2026-08-18T02:23:06.000Z</time>
      </trkpt>
      <trkpt lat="22.873780" lon="110.628328">
        <ele>99.975202</ele>
        <time>2026-08-18T02:23:07.000Z</time>
      </trkpt>
      <trkpt lat="22.873824" lon="110.628382">
        <ele>99.993915</ele>
        <time>2026-08-18T02:23:08.000Z</time>
      </trkpt>
      <trkpt lat="22.873867" lon="110.628432">
        <ele>100.015033</ele>
        <time>2026-08-18T02:23:09.000Z</time>
      </trkpt>
      <trkpt lat="22.873912" lon="110.628481">
        <ele>100.036394</ele>
        <time>2026-08-18T02:23:10.000Z</time>
      </trkpt>
      <trkpt lat="22.873953" lon="110.628528">
        <ele>100.056379</ele>
        <time>2026-08-18T02:23:11.000Z</time>
      </trkpt>
      <trkpt lat="22.873992" lon="110.628576">
        <ele>100.076139</ele>
        <time>2026-08-18T02:23:12.000Z</time>
      </trkpt>
      <trkpt lat="22.874028" lon="110.628625">
        <ele>100.095489</ele>
        <time>2026-08-18T02:23:13.000Z</time>
      </trkpt>
      <trkpt lat="22.874062" lon="110.628667">
        <ele>100.112752</ele>
        <time>2026-08-18T02:23:14.000Z</time>
      </trkpt>
      <trkpt lat="22.874094" lon="110.628705">
        <ele>100.128647</ele>
        <time>2026-08-18T02:23:15.000Z</time>
      </trkpt>
      <trkpt lat="22.874125" lon="110.628741">
        <ele>100.143861</ele>
        <time>2026-08-18T02:23:16.000Z</time>
      </trkpt>
      <trkpt lat="22.874152" lon="110.628775">
        <ele>100.157721</ele>
        <time>2026-08-18T02:23:17.000Z</time>
      </trkpt>
      <trkpt lat="22.874178" lon="110.628805">
        <ele>100.170437</ele>
        <time>2026-08-18T02:23:18.000Z</time>
      </trkpt>
      <trkpt lat="22.874201" lon="110.628835">
        <ele>100.182488</ele>
        <time>2026-08-18T02:23:19.000Z</time>
      </trkpt>
      <trkpt lat="22.874222" lon="110.628861">
        <ele>100.193163</ele>
        <time>2026-08-18T02:23:20.000Z</time>
      </trkpt>
      <trkpt lat="22.874242" lon="110.628882">
        <ele>100.202489</ele>
        <time>2026-08-18T02:23:21.000Z</time>
      </trkpt>
      <trkpt lat="22.874260" lon="110.628903">
        <ele>100.211345</ele>
        <time>2026-08-18T02:23:22.000Z</time>
      </trkpt>
      <trkpt lat="22.874278" lon="110.628924">
        <ele>100.220201</ele>
        <time>2026-08-18T02:23:23.000Z</time>
      </trkpt>
      <trkpt lat="22.874297" lon="110.628947">
        <ele>100.229739</ele>
        <time>2026-08-18T02:23:24.000Z</time>
      </trkpt>
      <trkpt lat="22.874318" lon="110.628971">
        <ele>100.239958</ele>
        <time>2026-08-18T02:23:25.000Z</time>
      </trkpt>
      <trkpt lat="22.874342" lon="110.629000">
        <ele>100.251994</ele>
        <time>2026-08-18T02:23:26.000Z</time>
      </trkpt>
      <trkpt lat="22.874368" lon="110.629029">
        <ele>100.264488</ele>
        <time>2026-08-18T02:23:27.000Z</time>
      </trkpt>
      <trkpt lat="22.874394" lon="110.629059">
        <ele>100.277204</ele>
        <time>2026-08-18T02:23:28.000Z</time>
      </trkpt>
      <trkpt lat="22.874420" lon="110.629094">
        <ele>100.291086</ele>
        <time>2026-08-18T02:23:29.000Z</time>
      </trkpt>
      <trkpt lat="22.874447" lon="110.629129">
        <ele>100.305181</ele>
        <time>2026-08-18T02:23:30.000Z</time>
      </trkpt>
      <trkpt lat="22.874473" lon="110.629165">
        <ele>100.319304</ele>
        <time>2026-08-18T02:23:31.000Z</time>
      </trkpt>
      <trkpt lat="22.874498" lon="110.629201">
        <ele>100.333223</ele>
        <time>2026-08-18T02:23:32.000Z</time>
      </trkpt>
      <trkpt lat="22.874523" lon="110.629237">
        <ele>100.347142</ele>
        <time>2026-08-18T02:23:33.000Z</time>
      </trkpt>
      <trkpt lat="22.874548" lon="110.629276">
        <ele>100.361811</ele>
        <time>2026-08-18T02:23:34.000Z</time>
      </trkpt>
      <trkpt lat="22.874574" lon="110.629318">
        <ele>100.377435</ele>
        <time>2026-08-18T02:23:35.000Z</time>
      </trkpt>
      <trkpt lat="22.874598" lon="110.629359">
        <ele>100.392433</ele>
        <time>2026-08-18T02:23:36.000Z</time>
      </trkpt>
      <trkpt lat="22.874621" lon="110.629401">
        <ele>100.407518</ele>
        <time>2026-08-18T02:23:37.000Z</time>
      </trkpt>
      <trkpt lat="22.874644" lon="110.629442">
        <ele>100.422339</ele>
        <time>2026-08-18T02:23:38.000Z</time>
      </trkpt>
      <trkpt lat="22.874669" lon="110.629483">
        <ele>100.437520</ele>
        <time>2026-08-18T02:23:39.000Z</time>
      </trkpt>
      <trkpt lat="22.874692" lon="110.629527">
        <ele>100.453139</ele>
        <time>2026-08-18T02:23:40.000Z</time>
      </trkpt>
      <trkpt lat="22.874717" lon="110.629569">
        <ele>100.468578</ele>
        <time>2026-08-18T02:23:41.000Z</time>
      </trkpt>
      <trkpt lat="22.874742" lon="110.629611">
        <ele>100.484017</ele>
        <time>2026-08-18T02:23:42.000Z</time>
      </trkpt>
      <trkpt lat="22.874767" lon="110.629653">
        <ele>100.499456</ele>
        <time>2026-08-18T02:23:43.000Z</time>
      </trkpt>
      <trkpt lat="22.874794" lon="110.629695">
        <ele>100.515268</ele>
        <time>2026-08-18T02:23:44.000Z</time>
      </trkpt>
      <trkpt lat="22.874819" lon="110.629738">
        <ele>100.530968</ele>
        <time>2026-08-18T02:23:45.000Z</time>
      </trkpt>
      <trkpt lat="22.874844" lon="110.629780">
        <ele>100.546406</ele>
        <time>2026-08-18T02:23:46.000Z</time>
      </trkpt>
      <trkpt lat="22.874868" lon="110.629822">
        <ele>100.561666</ele>
        <time>2026-08-18T02:23:47.000Z</time>
      </trkpt>
      <trkpt lat="22.874892" lon="110.629863">
        <ele>100.576614</ele>
        <time>2026-08-18T02:23:48.000Z</time>
      </trkpt>
      <trkpt lat="22.874916" lon="110.629905">
        <ele>100.591014</ele>
        <time>2026-08-18T02:23:49.000Z</time>
      </trkpt>
      <trkpt lat="22.874939" lon="110.629947">
        <ele>100.605250</ele>
        <time>2026-08-18T02:23:50.000Z</time>
      </trkpt>
      <trkpt lat="22.874962" lon="110.629990">
        <ele>100.619737</ele>
        <time>2026-08-18T02:23:51.000Z</time>
      </trkpt>
      <trkpt lat="22.874984" lon="110.630035">
        <ele>100.634581</ele>
        <time>2026-08-18T02:23:52.000Z</time>
      </trkpt>
      <trkpt lat="22.875007" lon="110.630078">
        <ele>100.649068</ele>
        <time>2026-08-18T02:23:53.000Z</time>
      </trkpt>
      <trkpt lat="22.875027" lon="110.630120">
        <ele>100.662843</ele>
        <time>2026-08-18T02:23:54.000Z</time>
      </trkpt>
      <trkpt lat="22.875051" lon="110.630164">
        <ele>100.677741</ele>
        <time>2026-08-18T02:23:55.000Z</time>
      </trkpt>
      <trkpt lat="22.875074" lon="110.630205">
        <ele>100.691728</ele>
        <time>2026-08-18T02:23:56.000Z</time>
      </trkpt>
      <trkpt lat="22.875098" lon="110.630246">
        <ele>100.705881</ele>
        <time>2026-08-18T02:23:57.000Z</time>
      </trkpt>
      <trkpt lat="22.875121" lon="110.630288">
        <ele>100.720117</ele>
        <time>2026-08-18T02:23:58.000Z</time>
      </trkpt>
      <trkpt lat="22.875142" lon="110.630328">
        <ele>100.733531</ele>
        <time>2026-08-18T02:23:59.000Z</time>
      </trkpt>
      <trkpt lat="22.875162" lon="110.630367">
        <ele>100.746536</ele>
        <time>2026-08-18T02:24:00.000Z</time>
      </trkpt>
      <trkpt lat="22.875182" lon="110.630406">
        <ele>100.759541</ele>
        <time>2026-08-18T02:24:01.000Z</time>
      </trkpt>
      <trkpt lat="22.875201" lon="110.630446">
        <ele>100.772654</ele>
        <time>2026-08-18T02:24:02.000Z</time>
      </trkpt>
      <trkpt lat="22.875219" lon="110.630486">
        <ele>100.785624</ele>
        <time>2026-08-18T02:24:03.000Z</time>
      </trkpt>
      <trkpt lat="22.875238" lon="110.630522">
        <ele>100.797712</ele>
        <time>2026-08-18T02:24:04.000Z</time>
      </trkpt>
      <trkpt lat="22.875256" lon="110.630559">
        <ele>100.809904</ele>
        <time>2026-08-18T02:24:05.000Z</time>
      </trkpt>
      <trkpt lat="22.875276" lon="110.630596">
        <ele>100.822403</ele>
        <time>2026-08-18T02:24:06.000Z</time>
      </trkpt>
      <trkpt lat="22.875298" lon="110.630633">
        <ele>100.835233</ele>
        <time>2026-08-18T02:24:07.000Z</time>
      </trkpt>
      <trkpt lat="22.875318" lon="110.630672">
        <ele>100.848238</ele>
        <time>2026-08-18T02:24:08.000Z</time>
      </trkpt>
      <trkpt lat="22.875337" lon="110.630712">
        <ele>100.861351</ele>
        <time>2026-08-18T02:24:09.000Z</time>
      </trkpt>
      <trkpt lat="22.875358" lon="110.630756">
        <ele>100.875789</ele>
        <time>2026-08-18T02:24:10.000Z</time>
      </trkpt>
      <trkpt lat="22.875381" lon="110.630798">
        <ele>100.890025</ele>
        <time>2026-08-18T02:24:11.000Z</time>
      </trkpt>
      <trkpt lat="22.875404" lon="110.630840">
        <ele>100.904261</ele>
        <time>2026-08-18T02:24:12.000Z</time>
      </trkpt>
      <trkpt lat="22.875427" lon="110.630883">
        <ele>100.918748</ele>
        <time>2026-08-18T02:24:13.000Z</time>
      </trkpt>
      <trkpt lat="22.875451" lon="110.630929">
        <ele>100.934151</ele>
        <time>2026-08-18T02:24:14.000Z</time>
      </trkpt>
      <trkpt lat="22.875475" lon="110.630975">
        <ele>100.949554</ele>
        <time>2026-08-18T02:24:15.000Z</time>
      </trkpt>
      <trkpt lat="22.875499" lon="110.631024">
        <ele>100.965723</ele>
        <time>2026-08-18T02:24:16.000Z</time>
      </trkpt>
      <trkpt lat="22.875525" lon="110.631073">
        <ele>100.982198</ele>
        <time>2026-08-18T02:24:17.000Z</time>
      </trkpt>
      <trkpt lat="22.875551" lon="110.631121">
        <ele>100.998422</ele>
        <time>2026-08-18T02:24:18.000Z</time>
      </trkpt>
      <trkpt lat="22.875578" lon="110.631170">
        <ele>101.015057</ele>
        <time>2026-08-18T02:24:19.000Z</time>
      </trkpt>
      <trkpt lat="22.875604" lon="110.631220">
        <ele>101.031786</ele>
        <time>2026-08-18T02:24:20.000Z</time>
      </trkpt>
      <trkpt lat="22.875630" lon="110.631271">
        <ele>101.048769</ele>
        <time>2026-08-18T02:24:21.000Z</time>
      </trkpt>
      <trkpt lat="22.875656" lon="110.631322">
        <ele>101.065752</ele>
        <time>2026-08-18T02:24:22.000Z</time>
      </trkpt>
      <trkpt lat="22.875681" lon="110.631374">
        <ele>101.082841</ele>
        <time>2026-08-18T02:24:23.000Z</time>
      </trkpt>
      <trkpt lat="22.875706" lon="110.631422">
        <ele>101.098907</ele>
        <time>2026-08-18T02:24:24.000Z</time>
      </trkpt>
      <trkpt lat="22.875730" lon="110.631471">
        <ele>101.115076</ele>
        <time>2026-08-18T02:24:25.000Z</time>
      </trkpt>
      <trkpt lat="22.875752" lon="110.631516">
        <ele>101.129919</ele>
        <time>2026-08-18T02:24:26.000Z</time>
      </trkpt>
      <trkpt lat="22.875772" lon="110.631559">
        <ele>101.143954</ele>
        <time>2026-08-18T02:24:27.000Z</time>
      </trkpt>
      <trkpt lat="22.875792" lon="110.631597">
        <ele>101.326445</ele>
        <time>2026-08-18T02:24:28.000Z</time>
      </trkpt>
      <trkpt lat="22.875810" lon="110.631635">
        <ele>101.513242</ele>
        <time>2026-08-18T02:24:29.000Z</time>
      </trkpt>
      <trkpt lat="22.875826" lon="110.631669">
        <ele>101.680149</ele>
        <time>2026-08-18T02:24:30.000Z</time>
      </trkpt>
      <trkpt lat="22.875840" lon="110.631702">
        <ele>101.838977</ele>
        <time>2026-08-18T02:24:31.000Z</time>
      </trkpt>
      <trkpt lat="22.875855" lon="110.631732">
        <ele>101.988198</ele>
        <time>2026-08-18T02:24:32.000Z</time>
      </trkpt>
      <trkpt lat="22.875870" lon="110.631760">
        <ele>102.129796</ele>
        <time>2026-08-18T02:24:33.000Z</time>
      </trkpt>
      <trkpt lat="22.875882" lon="110.631787">
        <ele>102.260850</ele>
        <time>2026-08-18T02:24:34.000Z</time>
      </trkpt>
      <trkpt lat="22.875892" lon="110.631812">
        <ele>102.380000</ele>
        <time>2026-08-18T02:24:35.000Z</time>
      </trkpt>
      <trkpt lat="22.875902" lon="110.631833">
        <ele>102.483344</ele>
        <time>2026-08-18T02:24:36.000Z</time>
      </trkpt>
      <trkpt lat="22.875912" lon="110.631852">
        <ele>102.579006</ele>
        <time>2026-08-18T02:24:37.000Z</time>
      </trkpt>
      <trkpt lat="22.875918" lon="110.631873">
        <ele>102.675126</ele>
        <time>2026-08-18T02:24:38.000Z</time>
      </trkpt>
      <trkpt lat="22.875925" lon="110.631895">
        <ele>102.776879</ele>
        <time>2026-08-18T02:24:39.000Z</time>
      </trkpt>
      <trkpt lat="22.875928" lon="110.631915">
        <ele>102.865465</ele>
        <time>2026-08-18T02:24:40.000Z</time>
      </trkpt>
      <trkpt lat="22.875934" lon="110.631931">
        <ele>102.940986</ele>
        <time>2026-08-18T02:24:41.000Z</time>
      </trkpt>
      <trkpt lat="22.875947" lon="110.631946">
        <ele>103.031015</ele>
        <time>2026-08-18T02:24:42.000Z</time>
      </trkpt>
      <trkpt lat="22.875956" lon="110.631963">
        <ele>103.116731</ele>
        <time>2026-08-18T02:24:43.000Z</time>
      </trkpt>
      <trkpt lat="22.875961" lon="110.631980">
        <ele>103.194746</ele>
        <time>2026-08-18T02:24:44.000Z</time>
      </trkpt>
      <trkpt lat="22.875964" lon="110.631998">
        <ele>103.274715</ele>
        <time>2026-08-18T02:24:45.000Z</time>
      </trkpt>
      <trkpt lat="22.875970" lon="110.632008">
        <ele>103.326886</ele>
        <time>2026-08-18T02:24:46.000Z</time>
      </trkpt>
      <trkpt lat="22.875981" lon="110.632024">
        <ele>103.414161</ele>
        <time>2026-08-18T02:24:47.000Z</time>
      </trkpt>
      <trkpt lat="22.875993" lon="110.632041">
        <ele>103.507786</ele>
        <time>2026-08-18T02:24:48.000Z</time>
      </trkpt>
      <trkpt lat="22.876004" lon="110.632057">
        <ele>103.595062</ele>
        <time>2026-08-18T02:24:49.000Z</time>
      </trkpt>
      <trkpt lat="22.876014" lon="110.632073">
        <ele>103.679586</ele>
        <time>2026-08-18T02:24:50.000Z</time>
      </trkpt>
      <trkpt lat="22.876026" lon="110.632087">
        <ele>103.763181</ele>
        <time>2026-08-18T02:24:51.000Z</time>
      </trkpt>
      <trkpt lat="22.876038" lon="110.632101">
        <ele>103.846776</ele>
        <time>2026-08-18T02:24:52.000Z</time>
      </trkpt>
      <trkpt lat="22.876051" lon="110.632113">
        <ele>103.927752</ele>
        <time>2026-08-18T02:24:53.000Z</time>
      </trkpt>
      <trkpt lat="22.876067" lon="110.632128">
        <ele>104.028072</ele>
        <time>2026-08-18T02:24:54.000Z</time>
      </trkpt>
      <trkpt lat="22.876083" lon="110.632143">
        <ele>104.128392</ele>
        <time>2026-08-18T02:24:55.000Z</time>
      </trkpt>
      <trkpt lat="22.876100" lon="110.632154">
        <ele>104.222304</ele>
        <time>2026-08-18T02:24:56.000Z</time>
      </trkpt>
      <trkpt lat="22.876117" lon="110.632166">
        <ele>104.318527</ele>
        <time>2026-08-18T02:24:57.000Z</time>
      </trkpt>
      <trkpt lat="22.876134" lon="110.632178">
        <ele>104.414750</ele>
        <time>2026-08-18T02:24:58.000Z</time>
      </trkpt>
      <trkpt lat="22.876152" lon="110.632188">
        <ele>104.510698</ele>
        <time>2026-08-18T02:24:59.000Z</time>
      </trkpt>
      <trkpt lat="22.876168" lon="110.632199">
        <ele>104.600567</ele>
        <time>2026-08-18T02:25:00.000Z</time>
      </trkpt>
      <trkpt lat="22.876185" lon="110.632205">
        <ele>104.685389</ele>
        <time>2026-08-18T02:25:01.000Z</time>
      </trkpt>
      <trkpt lat="22.876200" lon="110.632213">
        <ele>104.764693</ele>
        <time>2026-08-18T02:25:02.000Z</time>
      </trkpt>
      <trkpt lat="22.876216" lon="110.632221">
        <ele>104.848281</ele>
        <time>2026-08-18T02:25:03.000Z</time>
      </trkpt>
      <trkpt lat="22.876233" lon="110.632230">
        <ele>104.938030</ele>
        <time>2026-08-18T02:25:04.000Z</time>
      </trkpt>
      <trkpt lat="22.876249" lon="110.632240">
        <ele>105.025637</ele>
        <time>2026-08-18T02:25:05.000Z</time>
      </trkpt>
      <trkpt lat="22.876263" lon="110.632251">
        <ele>105.107646</ele>
        <time>2026-08-18T02:25:06.000Z</time>
      </trkpt>
      <trkpt lat="22.876276" lon="110.632262">
        <ele>105.185861</ele>
        <time>2026-08-18T02:25:07.000Z</time>
      </trkpt>
      <trkpt lat="22.876291" lon="110.632273">
        <ele>105.271759</ele>
        <time>2026-08-18T02:25:08.000Z</time>
      </trkpt>
      <trkpt lat="22.876307" lon="110.632285">
        <ele>105.364041</ele>
        <time>2026-08-18T02:25:09.000Z</time>
      </trkpt>
      <trkpt lat="22.876323" lon="110.632296">
        <ele>105.453909</ele>
        <time>2026-08-18T02:25:10.000Z</time>
      </trkpt>
      <trkpt lat="22.876342" lon="110.632306">
        <ele>105.554104</ele>
        <time>2026-08-18T02:25:11.000Z</time>
      </trkpt>
      <trkpt lat="22.876361" lon="110.632318">
        <ele>105.658412</ele>
        <time>2026-08-18T02:25:12.000Z</time>
      </trkpt>
      <trkpt lat="22.876378" lon="110.632328">
        <ele>105.750161</ele>
        <time>2026-08-18T02:25:13.000Z</time>
      </trkpt>
      <trkpt lat="22.876393" lon="110.632340">
        <ele>105.838581</ele>
        <time>2026-08-18T02:25:14.000Z</time>
      </trkpt>
      <trkpt lat="22.876407" lon="110.632353">
        <ele>105.926004</ele>
        <time>2026-08-18T02:25:15.000Z</time>
      </trkpt>
      <trkpt lat="22.876421" lon="110.632367">
        <ele>106.016331</ele>
        <time>2026-08-18T02:25:16.000Z</time>
      </trkpt>
      <trkpt lat="22.876436" lon="110.632380">
        <ele>106.107412</ele>
        <time>2026-08-18T02:25:17.000Z</time>
      </trkpt>
      <trkpt lat="22.876451" lon="110.632394">
        <ele>106.201283</ele>
        <time>2026-08-18T02:25:18.000Z</time>
      </trkpt>
      <trkpt lat="22.876469" lon="110.632408">
        <ele>106.306359</ele>
        <time>2026-08-18T02:25:19.000Z</time>
      </trkpt>
      <trkpt lat="22.876484" lon="110.632422">
        <ele>106.400230</ele>
        <time>2026-08-18T02:25:20.000Z</time>
      </trkpt>
      <trkpt lat="22.876498" lon="110.632436">
        <ele>106.490556</ele>
        <time>2026-08-18T02:25:21.000Z</time>
      </trkpt>
      <trkpt lat="22.876513" lon="110.632453">
        <ele>106.593461</ele>
        <time>2026-08-18T02:25:22.000Z</time>
      </trkpt>
      <trkpt lat="22.876532" lon="110.632471">
        <ele>106.713128</ele>
        <time>2026-08-18T02:25:23.000Z</time>
      </trkpt>
      <trkpt lat="22.876551" lon="110.632488">
        <ele>106.829966</ele>
        <time>2026-08-18T02:25:24.000Z</time>
      </trkpt>
      <trkpt lat="22.876564" lon="110.632502">
        <ele>106.916863</ele>
        <time>2026-08-18T02:25:25.000Z</time>
      </trkpt>
      <trkpt lat="22.876582" lon="110.632521">
        <ele>107.036003</ele>
        <time>2026-08-18T02:25:26.000Z</time>
      </trkpt>
      <trkpt lat="22.876600" lon="110.632537">
        <ele>107.146400</ele>
        <time>2026-08-18T02:25:27.000Z</time>
      </trkpt>
      <trkpt lat="22.876614" lon="110.632553">
        <ele>107.242865</ele>
        <time>2026-08-18T02:25:28.000Z</time>
      </trkpt>
      <trkpt lat="22.876628" lon="110.632571">
        <ele>107.345847</ele>
        <time>2026-08-18T02:25:29.000Z</time>
      </trkpt>
      <trkpt lat="22.876643" lon="110.632587">
        <ele>107.445640</ele>
        <time>2026-08-18T02:25:30.000Z</time>
      </trkpt>
      <trkpt lat="22.876653" lon="110.632603">
        <ele>107.530163</ele>
        <time>2026-08-18T02:25:31.000Z</time>
      </trkpt>
      <trkpt lat="22.876665" lon="110.632616">
        <ele>107.610612</ele>
        <time>2026-08-18T02:25:32.000Z</time>
      </trkpt>
      <trkpt lat="22.876683" lon="110.632632">
        <ele>107.721009</ele>
        <time>2026-08-18T02:25:33.000Z</time>
      </trkpt>
      <trkpt lat="22.876696" lon="110.632650">
        <ele>107.820996</ele>
        <time>2026-08-18T02:25:34.000Z</time>
      </trkpt>
      <trkpt lat="22.876714" lon="110.632668">
        <ele>107.937130</ele>
        <time>2026-08-18T02:25:35.000Z</time>
      </trkpt>
      <trkpt lat="22.876730" lon="110.632684">
        <ele>108.040361</ele>
        <time>2026-08-18T02:25:36.000Z</time>
      </trkpt>
      <trkpt lat="22.876746" lon="110.632701">
        <ele>108.146602</ele>
        <time>2026-08-18T02:25:37.000Z</time>
      </trkpt>
      <trkpt lat="22.876759" lon="110.632718">
        <ele>108.243186</ele>
        <time>2026-08-18T02:25:38.000Z</time>
      </trkpt>
      <trkpt lat="22.876772" lon="110.632735">
        <ele>108.339769</ele>
        <time>2026-08-18T02:25:39.000Z</time>
      </trkpt>
      <trkpt lat="22.876781" lon="110.632751">
        <ele>108.421723</ele>
        <time>2026-08-18T02:25:40.000Z</time>
      </trkpt>
      <trkpt lat="22.876789" lon="110.632766">
        <ele>108.497494</ele>
        <time>2026-08-18T02:25:41.000Z</time>
      </trkpt>
      <trkpt lat="22.876798" lon="110.632780">
        <ele>108.572124</ele>
        <time>2026-08-18T02:25:42.000Z</time>
      </trkpt>
      <trkpt lat="22.876806" lon="110.632795">
        <ele>108.647895</ele>
        <time>2026-08-18T02:25:43.000Z</time>
      </trkpt>
      <trkpt lat="22.876816" lon="110.632809">
        <ele>108.725338</ele>
        <time>2026-08-18T02:25:44.000Z</time>
      </trkpt>
      <trkpt lat="22.876827" lon="110.632822">
        <ele>108.802502</ele>
        <time>2026-08-18T02:25:45.000Z</time>
      </trkpt>
      <trkpt lat="22.876843" lon="110.632835">
        <ele>108.897337</ele>
        <time>2026-08-18T02:25:46.000Z</time>
      </trkpt>
      <trkpt lat="22.876851" lon="110.632856">
        <ele>108.996682</ele>
        <time>2026-08-18T02:25:47.000Z</time>
      </trkpt>
      <trkpt lat="22.876857" lon="110.632871">
        <ele>109.068172</ele>
        <time>2026-08-18T02:25:48.000Z</time>
      </trkpt>
      <trkpt lat="22.876856" lon="110.632893">
        <ele>109.164467</ele>
        <time>2026-08-18T02:25:49.000Z</time>
      </trkpt>
      <trkpt lat="22.876859" lon="110.632907">
        <ele>109.227305</ele>
        <time>2026-08-18T02:25:50.000Z</time>
      </trkpt>
      <trkpt lat="22.876862" lon="110.632924">
        <ele>109.302976</ele>
        <time>2026-08-18T02:25:51.000Z</time>
      </trkpt>
      <trkpt lat="22.876874" lon="110.632945">
        <ele>109.411006</ele>
        <time>2026-08-18T02:25:52.000Z</time>
      </trkpt>
      <trkpt lat="22.876883" lon="110.632967">
        <ele>109.516239</ele>
        <time>2026-08-18T02:25:53.000Z</time>
      </trkpt>
      <trkpt lat="22.876932" lon="110.632973">
        <ele>109.638564</ele>
        <time>2026-08-18T02:25:54.000Z</time>
      </trkpt>
      <trkpt lat="22.876958" lon="110.632985">
        <ele>109.562157</ele>
        <time>2026-08-18T02:25:55.000Z</time>
      </trkpt>
      <trkpt lat="22.876991" lon="110.633006">
        <ele>109.458705</ele>
        <time>2026-08-18T02:25:56.000Z</time>
      </trkpt>
      <trkpt lat="22.877020" lon="110.633022">
        <ele>109.370727</ele>
        <time>2026-08-18T02:25:57.000Z</time>
      </trkpt>
      <trkpt lat="22.877049" lon="110.633041">
        <ele>109.279119</ele>
        <time>2026-08-18T02:25:58.000Z</time>
      </trkpt>
      <trkpt lat="22.877074" lon="110.633055">
        <ele>109.203041</ele>
        <time>2026-08-18T02:25:59.000Z</time>
      </trkpt>
      <trkpt lat="22.877107" lon="110.633069">
        <ele>109.107222</ele>
        <time>2026-08-18T02:26:00.000Z</time>
      </trkpt>
      <trkpt lat="22.877137" lon="110.633087">
        <ele>109.014520</ele>
        <time>2026-08-18T02:26:01.000Z</time>
      </trkpt>
      <trkpt lat="22.877171" lon="110.633097">
        <ele>108.919255</ele>
        <time>2026-08-18T02:26:02.000Z</time>
      </trkpt>
      <trkpt lat="22.877203" lon="110.633110">
        <ele>108.826852</ele>
        <time>2026-08-18T02:26:03.000Z</time>
      </trkpt>
      <trkpt lat="22.877237" lon="110.633130">
        <ele>108.722267</ele>
        <time>2026-08-18T02:26:04.000Z</time>
      </trkpt>
      <trkpt lat="22.877273" lon="110.633147">
        <ele>108.616095</ele>
        <time>2026-08-18T02:26:05.000Z</time>
      </trkpt>
      <trkpt lat="22.877308" lon="110.633165">
        <ele>108.511354</ele>
        <time>2026-08-18T02:26:06.000Z</time>
      </trkpt>
      <trkpt lat="22.877340" lon="110.633180">
        <ele>108.417088</ele>
        <time>2026-08-18T02:26:07.000Z</time>
      </trkpt>
      <trkpt lat="22.877373" lon="110.633196">
        <ele>108.319344</ele>
        <time>2026-08-18T02:26:08.000Z</time>
      </trkpt>
      <trkpt lat="22.877407" lon="110.633212">
        <ele>108.219125</ele>
        <time>2026-08-18T02:26:09.000Z</time>
      </trkpt>
      <trkpt lat="22.877439" lon="110.633228">
        <ele>108.123844</ele>
        <time>2026-08-18T02:26:10.000Z</time>
      </trkpt>
      <trkpt lat="22.877477" lon="110.633243">
        <ele>108.014493</ele>
        <time>2026-08-18T02:26:11.000Z</time>
      </trkpt>
      <trkpt lat="22.877510" lon="110.633257">
        <ele>107.918673</ele>
        <time>2026-08-18T02:26:12.000Z</time>
      </trkpt>
      <trkpt lat="22.877551" lon="110.633265">
        <ele>107.806017</ele>
        <time>2026-08-18T02:26:13.000Z</time>
      </trkpt>
      <trkpt lat="22.877596" lon="110.633281">
        <ele>107.677957</ele>
        <time>2026-08-18T02:26:14.000Z</time>
      </trkpt>
      <trkpt lat="22.877641" lon="110.633297">
        <ele>107.549897</ele>
        <time>2026-08-18T02:26:15.000Z</time>
      </trkpt>
      <trkpt lat="22.877692" lon="110.633320">
        <ele>107.400542</ele>
        <time>2026-08-18T02:26:16.000Z</time>
      </trkpt>
      <trkpt lat="22.877743" lon="110.633348">
        <ele>107.245978</ele>
        <time>2026-08-18T02:26:17.000Z</time>
      </trkpt>
      <trkpt lat="22.877790" lon="110.633380">
        <ele>107.095934</ele>
        <time>2026-08-18T02:26:18.000Z</time>
      </trkpt>
      <trkpt lat="22.877837" lon="110.633418">
        <ele>106.937440</ele>
        <time>2026-08-18T02:26:19.000Z</time>
      </trkpt>
      <trkpt lat="22.877883" lon="110.633458">
        <ele>106.778039</ele>
        <time>2026-08-18T02:26:20.000Z</time>
      </trkpt>
      <trkpt lat="22.877927" lon="110.633497">
        <ele>106.624409</ele>
        <time>2026-08-18T02:26:21.000Z</time>
      </trkpt>
      <trkpt lat="22.877971" lon="110.633533">
        <ele>106.475396</ele>
        <time>2026-08-18T02:26:22.000Z</time>
      </trkpt>
      <trkpt lat="22.878016" lon="110.633567">
        <ele>106.327117</ele>
        <time>2026-08-18T02:26:23.000Z</time>
      </trkpt>
      <trkpt lat="22.878062" lon="110.633599">
        <ele>106.179357</ele>
        <time>2026-08-18T02:26:24.000Z</time>
      </trkpt>
      <trkpt lat="22.878105" lon="110.633631">
        <ele>106.038360</ele>
        <time>2026-08-18T02:26:25.000Z</time>
      </trkpt>
      <trkpt lat="22.878150" lon="110.633663">
        <ele>105.892871</ele>
        <time>2026-08-18T02:26:26.000Z</time>
      </trkpt>
      <trkpt lat="22.878199" lon="110.633694">
        <ele>105.739488</ele>
        <time>2026-08-18T02:26:27.000Z</time>
      </trkpt>
      <trkpt lat="22.878249" lon="110.633731">
        <ele>105.575833</ele>
        <time>2026-08-18T02:26:28.000Z</time>
      </trkpt>
      <trkpt lat="22.878301" lon="110.633762">
        <ele>105.415390</ele>
        <time>2026-08-18T02:26:29.000Z</time>
      </trkpt>
      <trkpt lat="22.878354" lon="110.633799">
        <ele>105.244970</ele>
        <time>2026-08-18T02:26:30.000Z</time>
      </trkpt>
      <trkpt lat="22.878409" lon="110.633838">
        <ele>105.067300</ele>
        <time>2026-08-18T02:26:31.000Z</time>
      </trkpt>
      <trkpt lat="22.878460" lon="110.633881">
        <ele>104.892653</ele>
        <time>2026-08-18T02:26:32.000Z</time>
      </trkpt>
      <trkpt lat="22.878510" lon="110.633919">
        <ele>104.754961</ele>
        <time>2026-08-18T02:26:33.000Z</time>
      </trkpt>
      <trkpt lat="22.878555" lon="110.633963">
        <ele>104.642523</ele>
        <time>2026-08-18T02:26:34.000Z</time>
      </trkpt>
      <trkpt lat="22.878600" lon="110.634009">
        <ele>104.527768</ele>
        <time>2026-08-18T02:26:35.000Z</time>
      </trkpt>
      <trkpt lat="22.878646" lon="110.634055">
        <ele>104.411655</ele>
        <time>2026-08-18T02:26:36.000Z</time>
      </trkpt>
      <trkpt lat="22.878693" lon="110.634100">
        <ele>104.295308</ele>
        <time>2026-08-18T02:26:37.000Z</time>
      </trkpt>
      <trkpt lat="22.878742" lon="110.634147">
        <ele>104.173914</ele>
        <time>2026-08-18T02:26:38.000Z</time>
      </trkpt>
      <trkpt lat="22.878796" lon="110.634200">
        <ele>104.038760</ele>
        <time>2026-08-18T02:26:39.000Z</time>
      </trkpt>
      <trkpt lat="22.878848" lon="110.634259">
        <ele>103.899112</ele>
        <time>2026-08-18T02:26:40.000Z</time>
      </trkpt>
      <trkpt lat="22.878900" lon="110.634323">
        <ele>103.753164</ele>
        <time>2026-08-18T02:26:41.000Z</time>
      </trkpt>
      <trkpt lat="22.878950" lon="110.634393">
        <ele>103.601672</ele>
        <time>2026-08-18T02:26:42.000Z</time>
      </trkpt>
      <trkpt lat="22.878995" lon="110.634483">
        <ele>103.426532</ele>
        <time>2026-08-18T02:26:43.000Z</time>
      </trkpt>
      <trkpt lat="22.879035" lon="110.634571">
        <ele>103.258700</ele>
        <time>2026-08-18T02:26:44.000Z</time>
      </trkpt>
      <trkpt lat="22.879070" lon="110.634659">
        <ele>103.094762</ele>
        <time>2026-08-18T02:26:45.000Z</time>
      </trkpt>
      <trkpt lat="22.879105" lon="110.634751">
        <ele>102.924522</ele>
        <time>2026-08-18T02:26:46.000Z</time>
      </trkpt>
      <trkpt lat="22.879138" lon="110.634843">
        <ele>102.755665</ele>
        <time>2026-08-18T02:26:47.000Z</time>
      </trkpt>
      <trkpt lat="22.879171" lon="110.634933">
        <ele>102.589990</ele>
        <time>2026-08-18T02:26:48.000Z</time>
      </trkpt>
      <trkpt lat="22.879204" lon="110.635018">
        <ele>102.432229</ele>
        <time>2026-08-18T02:26:49.000Z</time>
      </trkpt>
      <trkpt lat="22.879234" lon="110.635096">
        <ele>102.287664</ele>
        <time>2026-08-18T02:26:50.000Z</time>
      </trkpt>
      <trkpt lat="22.879266" lon="110.635173">
        <ele>102.143188</ele>
        <time>2026-08-18T02:26:51.000Z</time>
      </trkpt>
      <trkpt lat="22.879293" lon="110.635239">
        <ele>102.019677</ele>
        <time>2026-08-18T02:26:52.000Z</time>
      </trkpt>
      <trkpt lat="22.879321" lon="110.635298">
        <ele>101.906165</ele>
        <time>2026-08-18T02:26:53.000Z</time>
      </trkpt>
      <trkpt lat="22.879344" lon="110.635353">
        <ele>101.802859</ele>
        <time>2026-08-18T02:26:54.000Z</time>
      </trkpt>
      <trkpt lat="22.879372" lon="110.635407">
        <ele>101.696877</ele>
        <time>2026-08-18T02:26:55.000Z</time>
      </trkpt>
      <trkpt lat="22.879401" lon="110.635455">
        <ele>101.598703</ele>
        <time>2026-08-18T02:26:56.000Z</time>
      </trkpt>
      <trkpt lat="22.879425" lon="110.635499">
        <ele>101.511248</ele>
        <time>2026-08-18T02:26:57.000Z</time>
      </trkpt>
      <trkpt lat="22.879450" lon="110.635542">
        <ele>101.476485</ele>
        <time>2026-08-18T02:26:58.000Z</time>
      </trkpt>
      <trkpt lat="22.879475" lon="110.635581">
        <ele>101.477429</ele>
        <time>2026-08-18T02:26:59.000Z</time>
      </trkpt>
      <trkpt lat="22.879499" lon="110.635621">
        <ele>101.478378</ele>
        <time>2026-08-18T02:27:00.000Z</time>
      </trkpt>
      <trkpt lat="22.879521" lon="110.635657">
        <ele>101.479237</ele>
        <time>2026-08-18T02:27:01.000Z</time>
      </trkpt>
      <trkpt lat="22.879544" lon="110.635695">
        <ele>101.480140</ele>
        <time>2026-08-18T02:27:02.000Z</time>
      </trkpt>
      <trkpt lat="22.879567" lon="110.635736">
        <ele>101.481094</ele>
        <time>2026-08-18T02:27:03.000Z</time>
      </trkpt>
      <trkpt lat="22.879593" lon="110.635775">
        <ele>101.482051</ele>
        <time>2026-08-18T02:27:04.000Z</time>
      </trkpt>
      <trkpt lat="22.879619" lon="110.635819">
        <ele>101.483090</ele>
        <time>2026-08-18T02:27:05.000Z</time>
      </trkpt>
      <trkpt lat="22.879645" lon="110.635861">
        <ele>101.484095</ele>
        <time>2026-08-18T02:27:06.000Z</time>
      </trkpt>
      <trkpt lat="22.879675" lon="110.635902">
        <ele>101.485136</ele>
        <time>2026-08-18T02:27:07.000Z</time>
      </trkpt>
      <trkpt lat="22.879707" lon="110.635941">
        <ele>101.486174</ele>
        <time>2026-08-18T02:27:08.000Z</time>
      </trkpt>
      <trkpt lat="22.879743" lon="110.635979">
        <ele>101.487257</ele>
        <time>2026-08-18T02:27:09.000Z</time>
      </trkpt>
      <trkpt lat="22.879778" lon="110.636014">
        <ele>101.488283</ele>
        <time>2026-08-18T02:27:10.000Z</time>
      </trkpt>
      <trkpt lat="22.879817" lon="110.636051">
        <ele>101.489401</ele>
        <time>2026-08-18T02:27:11.000Z</time>
      </trkpt>
      <trkpt lat="22.879855" lon="110.636083">
        <ele>101.490438</ele>
        <time>2026-08-18T02:27:12.000Z</time>
      </trkpt>
      <trkpt lat="22.879893" lon="110.636116">
        <ele>101.491488</ele>
        <time>2026-08-18T02:27:13.000Z</time>
      </trkpt>
      <trkpt lat="22.879931" lon="110.636151">
        <ele>101.492563</ele>
        <time>2026-08-18T02:27:14.000Z</time>
      </trkpt>
      <trkpt lat="22.879969" lon="110.636186">
        <ele>101.493638</ele>
        <time>2026-08-18T02:27:15.000Z</time>
      </trkpt>
      <trkpt lat="22.880007" lon="110.636219">
        <ele>101.494688</ele>
        <time>2026-08-18T02:27:16.000Z</time>
      </trkpt>
      <trkpt lat="22.880045" lon="110.636254">
        <ele>101.495763</ele>
        <time>2026-08-18T02:27:17.000Z</time>
      </trkpt>
      <trkpt lat="22.880085" lon="110.636288">
        <ele>101.496859</ele>
        <time>2026-08-18T02:27:18.000Z</time>
      </trkpt>
      <trkpt lat="22.880124" lon="110.636323">
        <ele>101.497950</ele>
        <time>2026-08-18T02:27:19.000Z</time>
      </trkpt>
      <trkpt lat="22.880161" lon="110.636359">
        <ele>101.499022</ele>
        <time>2026-08-18T02:27:20.000Z</time>
      </trkpt>
      <trkpt lat="22.880195" lon="110.636399">
        <ele>101.500104</ele>
        <time>2026-08-18T02:27:21.000Z</time>
      </trkpt>
      <trkpt lat="22.880227" lon="110.636438">
        <ele>101.501142</ele>
        <time>2026-08-18T02:27:22.000Z</time>
      </trkpt>
      <trkpt lat="22.880259" lon="110.636474">
        <ele>101.502136</ele>
        <time>2026-08-18T02:27:23.000Z</time>
      </trkpt>
      <trkpt lat="22.880290" lon="110.636509">
        <ele>101.503101</ele>
        <time>2026-08-18T02:27:24.000Z</time>
      </trkpt>
      <trkpt lat="22.880325" lon="110.636545">
        <ele>101.504141</ele>
        <time>2026-08-18T02:27:25.000Z</time>
      </trkpt>
      <trkpt lat="22.880354" lon="110.636574">
        <ele>101.504991</ele>
        <time>2026-08-18T02:27:26.000Z</time>
      </trkpt>
      <trkpt lat="22.880389" lon="110.636605">
        <ele>101.505966</ele>
        <time>2026-08-18T02:27:27.000Z</time>
      </trkpt>
      <trkpt lat="22.880424" lon="110.636644">
        <ele>101.507048</ele>
        <time>2026-08-18T02:27:28.000Z</time>
      </trkpt>
      <trkpt lat="22.880458" lon="110.636680">
        <ele>101.508072</ele>
        <time>2026-08-18T02:27:29.000Z</time>
      </trkpt>
      <trkpt lat="22.880489" lon="110.636720">
        <ele>101.509111</ele>
        <time>2026-08-18T02:27:30.000Z</time>
      </trkpt>
      <trkpt lat="22.880519" lon="110.636762">
        <ele>101.510167</ele>
        <time>2026-08-18T02:27:31.000Z</time>
      </trkpt>
      <trkpt lat="22.880550" lon="110.636805">
        <ele>101.511252</ele>
        <time>2026-08-18T02:27:32.000Z</time>
      </trkpt>
      <trkpt lat="22.880581" lon="110.636846">
        <ele>101.512307</ele>
        <time>2026-08-18T02:27:33.000Z</time>
      </trkpt>
      <trkpt lat="22.880613" lon="110.636883">
        <ele>101.513315</ele>
        <time>2026-08-18T02:27:34.000Z</time>
      </trkpt>
      <trkpt lat="22.880644" lon="110.636924">
        <ele>101.514369</ele>
        <time>2026-08-18T02:27:35.000Z</time>
      </trkpt>
      <trkpt lat="22.880671" lon="110.636969">
        <ele>101.510193</ele>
        <time>2026-08-18T02:27:36.000Z</time>
      </trkpt>
      <trkpt lat="22.880699" lon="110.637016">
        <ele>101.503556</ele>
        <time>2026-08-18T02:27:37.000Z</time>
      </trkpt>
      <trkpt lat="22.880725" lon="110.637065">
        <ele>101.496852</ele>
        <time>2026-08-18T02:27:38.000Z</time>
      </trkpt>
      <trkpt lat="22.880753" lon="110.637113">
        <ele>101.490116</ele>
        <time>2026-08-18T02:27:39.000Z</time>
      </trkpt>
      <trkpt lat="22.880783" lon="110.637161">
        <ele>101.483239</ele>
        <time>2026-08-18T02:27:40.000Z</time>
      </trkpt>
      <trkpt lat="22.880813" lon="110.637205">
        <ele>101.476749</ele>
        <time>2026-08-18T02:27:41.000Z</time>
      </trkpt>
      <trkpt lat="22.880848" lon="110.637247">
        <ele>101.470034</ele>
        <time>2026-08-18T02:27:42.000Z</time>
      </trkpt>
      <trkpt lat="22.880885" lon="110.637288">
        <ele>101.463229</ele>
        <time>2026-08-18T02:27:43.000Z</time>
      </trkpt>
      <trkpt lat="22.880921" lon="110.637326">
        <ele>101.456767</ele>
        <time>2026-08-18T02:27:44.000Z</time>
      </trkpt>
      <trkpt lat="22.880953" lon="110.637366">
        <ele>101.450486</ele>
        <time>2026-08-18T02:27:45.000Z</time>
      </trkpt>
      <trkpt lat="22.880996" lon="110.637407">
        <ele>101.443120</ele>
        <time>2026-08-18T02:27:46.000Z</time>
      </trkpt>
      <trkpt lat="22.881036" lon="110.637446">
        <ele>101.436200</ele>
        <time>2026-08-18T02:27:47.000Z</time>
      </trkpt>
      <trkpt lat="22.881079" lon="110.637488">
        <ele>101.428756</ele>
        <time>2026-08-18T02:27:48.000Z</time>
      </trkpt>
      <trkpt lat="22.881120" lon="110.637527">
        <ele>101.421740</ele>
        <time>2026-08-18T02:27:49.000Z</time>
      </trkpt>
      <trkpt lat="22.881159" lon="110.637570">
        <ele>101.414585</ele>
        <time>2026-08-18T02:27:50.000Z</time>
      </trkpt>
      <trkpt lat="22.881199" lon="110.637613">
        <ele>101.407340</ele>
        <time>2026-08-18T02:27:51.000Z</time>
      </trkpt>
      <trkpt lat="22.881235" lon="110.637655">
        <ele>101.400539</ele>
        <time>2026-08-18T02:27:52.000Z</time>
      </trkpt>
      <trkpt lat="22.881263" lon="110.637696">
        <ele>101.394487</ele>
        <time>2026-08-18T02:27:53.000Z</time>
      </trkpt>
      <trkpt lat="22.881295" lon="110.637737">
        <ele>101.388116</ele>
        <time>2026-08-18T02:27:54.000Z</time>
      </trkpt>
      <trkpt lat="22.881327" lon="110.637774">
        <ele>101.382099</ele>
        <time>2026-08-18T02:27:55.000Z</time>
      </trkpt>
      <trkpt lat="22.881361" lon="110.637809">
        <ele>101.376069</ele>
        <time>2026-08-18T02:27:56.000Z</time>
      </trkpt>
      <trkpt lat="22.881392" lon="110.637852">
        <ele>101.369595</ele>
        <time>2026-08-18T02:27:57.000Z</time>
      </trkpt>
      <trkpt lat="22.881425" lon="110.637892">
        <ele>101.363229</ele>
        <time>2026-08-18T02:27:58.000Z</time>
      </trkpt>
      <trkpt lat="22.881457" lon="110.637935">
        <ele>101.356675</ele>
        <time>2026-08-18T02:27:59.000Z</time>
      </trkpt>
      <trkpt lat="22.881491" lon="110.637977">
        <ele>101.350046</ele>
        <time>2026-08-18T02:28:00.000Z</time>
      </trkpt>
      <trkpt lat="22.881527" lon="110.638019">
        <ele>101.343244</ele>
        <time>2026-08-18T02:28:01.000Z</time>
      </trkpt>
      <trkpt lat="22.881565" lon="110.638060">
        <ele>101.336349</ele>
        <time>2026-08-18T02:28:02.000Z</time>
      </trkpt>
      <trkpt lat="22.881600" lon="110.638104">
        <ele>101.329457</ele>
        <time>2026-08-18T02:28:03.000Z</time>
      </trkpt>
      <trkpt lat="22.881640" lon="110.638148">
        <ele>101.322127</ele>
        <time>2026-08-18T02:28:04.000Z</time>
      </trkpt>
      <trkpt lat="22.881686" lon="110.638191">
        <ele>101.314315</ele>
        <time>2026-08-18T02:28:05.000Z</time>
      </trkpt>
      <trkpt lat="22.881731" lon="110.638237">
        <ele>101.306360</ele>
        <time>2026-08-18T02:28:06.000Z</time>
      </trkpt>
      <trkpt lat="22.881776" lon="110.638287">
        <ele>101.298072</ele>
        <time>2026-08-18T02:28:07.000Z</time>
      </trkpt>
      <trkpt lat="22.881820" lon="110.638344">
        <ele>101.289255</ele>
        <time>2026-08-18T02:28:08.000Z</time>
      </trkpt>
      <trkpt lat="22.881849" lon="110.638402">
        <ele>101.286553</ele>
        <time>2026-08-18T02:28:09.000Z</time>
      </trkpt>
      <trkpt lat="22.881863" lon="110.638477">
        <ele>101.303590</ele>
        <time>2026-08-18T02:28:10.000Z</time>
      </trkpt>
      <trkpt lat="22.881883" lon="110.638539">
        <ele>101.318215</ele>
        <time>2026-08-18T02:28:11.000Z</time>
      </trkpt>
      <trkpt lat="22.881892" lon="110.638590">
        <ele>101.329776</ele>
        <time>2026-08-18T02:28:12.000Z</time>
      </trkpt>
      <trkpt lat="22.881905" lon="110.638651">
        <ele>101.343716</ele>
        <time>2026-08-18T02:28:13.000Z</time>
      </trkpt>
      <trkpt lat="22.881912" lon="110.638706">
        <ele>101.356077</ele>
        <time>2026-08-18T02:28:14.000Z</time>
      </trkpt>
      <trkpt lat="22.881918" lon="110.638760">
        <ele>101.368187</ele>
        <time>2026-08-18T02:28:15.000Z</time>
      </trkpt>
      <trkpt lat="22.881930" lon="110.638803">
        <ele>101.378190</ele>
        <time>2026-08-18T02:28:16.000Z</time>
      </trkpt>
      <trkpt lat="22.881937" lon="110.638849">
        <ele>101.388570</ele>
        <time>2026-08-18T02:28:17.000Z</time>
      </trkpt>
      <trkpt lat="22.881946" lon="110.638889">
        <ele>101.397737</ele>
        <time>2026-08-18T02:28:18.000Z</time>
      </trkpt>
      <trkpt lat="22.881953" lon="110.638928">
        <ele>101.406584</ele>
        <time>2026-08-18T02:28:19.000Z</time>
      </trkpt>
      <trkpt lat="22.881957" lon="110.638961">
        <ele>101.413994</ele>
        <time>2026-08-18T02:28:20.000Z</time>
      </trkpt>
      <trkpt lat="22.881961" lon="110.638987">
        <ele>101.419863</ele>
        <time>2026-08-18T02:28:21.000Z</time>
      </trkpt>
      <trkpt lat="22.881962" lon="110.639017">
        <ele>101.426546</ele>
        <time>2026-08-18T02:28:22.000Z</time>
      </trkpt>
      <trkpt lat="22.881964" lon="110.639047">
        <ele>101.433243</ele>
        <time>2026-08-18T02:28:23.000Z</time>
      </trkpt>
      <trkpt lat="22.881967" lon="110.639076">
        <ele>101.439740</ele>
        <time>2026-08-18T02:28:24.000Z</time>
      </trkpt>
      <trkpt lat="22.881969" lon="110.639106">
        <ele>101.446437</ele>
        <time>2026-08-18T02:28:25.000Z</time>
      </trkpt>
      <trkpt lat="22.881973" lon="110.639137">
        <ele>101.453406</ele>
        <time>2026-08-18T02:28:26.000Z</time>
      </trkpt>
      <trkpt lat="22.881976" lon="110.639164">
        <ele>101.459461</ele>
        <time>2026-08-18T02:28:27.000Z</time>
      </trkpt>
      <trkpt lat="22.881981" lon="110.639193">
        <ele>101.466029</ele>
        <time>2026-08-18T02:28:28.000Z</time>
      </trkpt>
      <trkpt lat="22.881988" lon="110.639224">
        <ele>101.473135</ele>
        <time>2026-08-18T02:28:29.000Z</time>
      </trkpt>
      <trkpt lat="22.881992" lon="110.639260">
        <ele>101.481208</ele>
        <time>2026-08-18T02:28:30.000Z</time>
      </trkpt>
      <trkpt lat="22.881997" lon="110.639297">
        <ele>101.489534</ele>
        <time>2026-08-18T02:28:31.000Z</time>
      </trkpt>
      <trkpt lat="22.882007" lon="110.639337">
        <ele>101.498762</ele>
        <time>2026-08-18T02:28:32.000Z</time>
      </trkpt>
      <trkpt lat="22.882016" lon="110.639375">
        <ele>101.507497</ele>
        <time>2026-08-18T02:28:33.000Z</time>
      </trkpt>
      <trkpt lat="22.882024" lon="110.639416">
        <ele>101.516828</ele>
        <time>2026-08-18T02:28:34.000Z</time>
      </trkpt>
      <trkpt lat="22.882033" lon="110.639456">
        <ele>101.525995</ele>
        <time>2026-08-18T02:28:35.000Z</time>
      </trkpt>
      <trkpt lat="22.882040" lon="110.639497">
        <ele>101.535279</ele>
        <time>2026-08-18T02:28:36.000Z</time>
      </trkpt>
      <trkpt lat="22.882046" lon="110.639539">
        <ele>101.544741</ele>
        <time>2026-08-18T02:28:37.000Z</time>
      </trkpt>
      <trkpt lat="22.882050" lon="110.639580">
        <ele>101.553920</ele>
        <time>2026-08-18T02:28:38.000Z</time>
      </trkpt>
      <trkpt lat="22.882055" lon="110.639623">
        <ele>101.563570</ele>
        <time>2026-08-18T02:28:39.000Z</time>
      </trkpt>
      <trkpt lat="22.882061" lon="110.639668">
        <ele>101.573693</ele>
        <time>2026-08-18T02:28:40.000Z</time>
      </trkpt>
      <trkpt lat="22.882070" lon="110.639710">
        <ele>101.583293</ele>
        <time>2026-08-18T02:28:41.000Z</time>
      </trkpt>
      <trkpt lat="22.882080" lon="110.639755">
        <ele>101.593600</ele>
        <time>2026-08-18T02:28:42.000Z</time>
      </trkpt>
      <trkpt lat="22.882092" lon="110.639800">
        <ele>101.604030</ele>
        <time>2026-08-18T02:28:43.000Z</time>
      </trkpt>
      <trkpt lat="22.882103" lon="110.639842">
        <ele>101.613751</ele>
        <time>2026-08-18T02:28:44.000Z</time>
      </trkpt>
      <trkpt lat="22.882113" lon="110.639881">
        <ele>101.622764</ele>
        <time>2026-08-18T02:28:45.000Z</time>
      </trkpt>
      <trkpt lat="22.882120" lon="110.639929">
        <ele>101.633583</ele>
        <time>2026-08-18T02:28:46.000Z</time>
      </trkpt>
      <trkpt lat="22.882125" lon="110.639976">
        <ele>101.644117</ele>
        <time>2026-08-18T02:28:47.000Z</time>
      </trkpt>
      <trkpt lat="22.882130" lon="110.640024">
        <ele>101.654872</ele>
        <time>2026-08-18T02:28:48.000Z</time>
      </trkpt>
      <trkpt lat="22.882140" lon="110.640075">
        <ele>101.666481</ele>
        <time>2026-08-18T02:28:49.000Z</time>
      </trkpt>
      <trkpt lat="22.882144" lon="110.640124">
        <ele>101.677433</ele>
        <time>2026-08-18T02:28:50.000Z</time>
      </trkpt>
      <trkpt lat="22.882144" lon="110.640168">
        <ele>101.687229</ele>
        <time>2026-08-18T02:28:51.000Z</time>
      </trkpt>
      <trkpt lat="22.882147" lon="110.640219">
        <ele>101.698606</ele>
        <time>2026-08-18T02:28:52.000Z</time>
      </trkpt>
      <trkpt lat="22.882153" lon="110.640266">
        <ele>101.709170</ele>
        <time>2026-08-18T02:28:53.000Z</time>
      </trkpt>
      <trkpt lat="22.882153" lon="110.640314">
        <ele>101.717122</ele>
        <time>2026-08-18T02:28:54.000Z</time>
      </trkpt>
      <trkpt lat="22.882161" lon="110.640367">
        <ele>101.712683</ele>
        <time>2026-08-18T02:28:55.000Z</time>
      </trkpt>
      <trkpt lat="22.882168" lon="110.640420">
        <ele>101.708258</ele>
        <time>2026-08-18T02:28:56.000Z</time>
      </trkpt>
      <trkpt lat="22.882184" lon="110.640476">
        <ele>101.703412</ele>
        <time>2026-08-18T02:28:57.000Z</time>
      </trkpt>
      <trkpt lat="22.882201" lon="110.640530">
        <ele>101.698696</ele>
        <time>2026-08-18T02:28:58.000Z</time>
      </trkpt>
      <trkpt lat="22.882218" lon="110.640589">
        <ele>101.693586</ele>
        <time>2026-08-18T02:28:59.000Z</time>
      </trkpt>
      <trkpt lat="22.882239" lon="110.640649">
        <ele>101.688282</ele>
        <time>2026-08-18T02:29:00.000Z</time>
      </trkpt>
      <trkpt lat="22.882255" lon="110.640713">
        <ele>101.682801</ele>
        <time>2026-08-18T02:29:01.000Z</time>
      </trkpt>
      <trkpt lat="22.882268" lon="110.640780">
        <ele>101.677142</ele>
        <time>2026-08-18T02:29:02.000Z</time>
      </trkpt>
      <trkpt lat="22.882283" lon="110.640852">
        <ele>101.671041</ele>
        <time>2026-08-18T02:29:03.000Z</time>
      </trkpt>
      <trkpt lat="22.882312" lon="110.640930">
        <ele>101.664089</ele>
        <time>2026-08-18T02:29:04.000Z</time>
      </trkpt>
      <trkpt lat="22.882336" lon="110.641012">
        <ele>101.656978</ele>
        <time>2026-08-18T02:29:05.000Z</time>
      </trkpt>
      <trkpt lat="22.882357" lon="110.641090">
        <ele>101.650261</ele>
        <time>2026-08-18T02:29:06.000Z</time>
      </trkpt>
      <trkpt lat="22.882380" lon="110.641170">
        <ele>101.643335</ele>
        <time>2026-08-18T02:29:07.000Z</time>
      </trkpt>
      <trkpt lat="22.882399" lon="110.641255">
        <ele>101.636106</ele>
        <time>2026-08-18T02:29:08.000Z</time>
      </trkpt>
      <trkpt lat="22.882420" lon="110.641337">
        <ele>101.629072</ele>
        <time>2026-08-18T02:29:09.000Z</time>
      </trkpt>
      <trkpt lat="22.882438" lon="110.641418">
        <ele>101.622185</ele>
        <time>2026-08-18T02:29:10.000Z</time>
      </trkpt>
      <trkpt lat="22.882455" lon="110.641491">
        <ele>101.615962</ele>
        <time>2026-08-18T02:29:11.000Z</time>
      </trkpt>
      <trkpt lat="22.882470" lon="110.641567">
        <ele>101.609538</ele>
        <time>2026-08-18T02:29:12.000Z</time>
      </trkpt>
      <trkpt lat="22.882479" lon="110.641635">
        <ele>101.603860</ele>
        <time>2026-08-18T02:29:13.000Z</time>
      </trkpt>
      <trkpt lat="22.882486" lon="110.641700">
        <ele>101.598451</ele>
        <time>2026-08-18T02:29:14.000Z</time>
      </trkpt>
      <trkpt lat="22.882492" lon="110.641762">
        <ele>101.593299</ele>
        <time>2026-08-18T02:29:15.000Z</time>
      </trkpt>
      <trkpt lat="22.882501" lon="110.641816">
        <ele>101.588763</ele>
        <time>2026-08-18T02:29:16.000Z</time>
      </trkpt>
      <trkpt lat="22.882506" lon="110.641865">
        <ele>101.584689</ele>
        <time>2026-08-18T02:29:17.000Z</time>
      </trkpt>
      <trkpt lat="22.882512" lon="110.641911">
        <ele>101.580849</ele>
        <time>2026-08-18T02:29:18.000Z</time>
      </trkpt>
      <trkpt lat="22.882519" lon="110.641955">
        <ele>101.577158</ele>
        <time>2026-08-18T02:29:19.000Z</time>
      </trkpt>
      <trkpt lat="22.882528" lon="110.641999">
        <ele>101.573433</ele>
        <time>2026-08-18T02:29:20.000Z</time>
      </trkpt>
      <trkpt lat="22.882536" lon="110.642040">
        <ele>101.569969</ele>
        <time>2026-08-18T02:29:21.000Z</time>
      </trkpt>
      <trkpt lat="22.882542" lon="110.642082">
        <ele>101.566457</ele>
        <time>2026-08-18T02:29:22.000Z</time>
      </trkpt>
      <trkpt lat="22.882548" lon="110.642123">
        <ele>101.563026</ele>
        <time>2026-08-18T02:29:23.000Z</time>
      </trkpt>
      <trkpt lat="22.882554" lon="110.642164">
        <ele>101.559594</ele>
        <time>2026-08-18T02:29:24.000Z</time>
      </trkpt>
      <trkpt lat="22.882560" lon="110.642204">
        <ele>101.557704</ele>
        <time>2026-08-18T02:29:25.000Z</time>
      </trkpt>
      <trkpt lat="22.882567" lon="110.642247">
        <ele>101.574192</ele>
        <time>2026-08-18T02:29:26.000Z</time>
      </trkpt>
      <trkpt lat="22.882574" lon="110.642286">
        <ele>101.589195</ele>
        <time>2026-08-18T02:29:27.000Z</time>
      </trkpt>
      <trkpt lat="22.882581" lon="110.642325">
        <ele>101.604198</ele>
        <time>2026-08-18T02:29:28.000Z</time>
      </trkpt>
      <trkpt lat="22.882588" lon="110.642365">
        <ele>101.619572</ele>
        <time>2026-08-18T02:29:29.000Z</time>
      </trkpt>
      <trkpt lat="22.882596" lon="110.642405">
        <ele>101.635028</ele>
        <time>2026-08-18T02:29:30.000Z</time>
      </trkpt>
      <trkpt lat="22.882605" lon="110.642444">
        <ele>101.650209</ele>
        <time>2026-08-18T02:29:31.000Z</time>
      </trkpt>
      <trkpt lat="22.882617" lon="110.642485">
        <ele>101.666452</ele>
        <time>2026-08-18T02:29:32.000Z</time>
      </trkpt>
      <trkpt lat="22.882627" lon="110.642526">
        <ele>101.682467</ele>
        <time>2026-08-18T02:29:33.000Z</time>
      </trkpt>
      <trkpt lat="22.882640" lon="110.642568">
        <ele>101.699197</ele>
        <time>2026-08-18T02:29:34.000Z</time>
      </trkpt>
      <trkpt lat="22.882652" lon="110.642612">
        <ele>101.716524</ele>
        <time>2026-08-18T02:29:35.000Z</time>
      </trkpt>
      <trkpt lat="22.882663" lon="110.642654">
        <ele>101.733011</ele>
        <time>2026-08-18T02:29:36.000Z</time>
      </trkpt>
      <trkpt lat="22.882675" lon="110.642698">
        <ele>101.750338</ele>
        <time>2026-08-18T02:29:37.000Z</time>
      </trkpt>
      <trkpt lat="22.882691" lon="110.642744">
        <ele>101.768904</ele>
        <time>2026-08-18T02:29:38.000Z</time>
      </trkpt>
      <trkpt lat="22.882709" lon="110.642788">
        <ele>101.787082</ele>
        <time>2026-08-18T02:29:39.000Z</time>
      </trkpt>
      <trkpt lat="22.882727" lon="110.642834">
        <ele>101.805953</ele>
        <time>2026-08-18T02:29:40.000Z</time>
      </trkpt>
      <trkpt lat="22.882743" lon="110.642879">
        <ele>101.824166</ele>
        <time>2026-08-18T02:29:41.000Z</time>
      </trkpt>
      <trkpt lat="22.882757" lon="110.642924">
        <ele>101.842101</ele>
        <time>2026-08-18T02:29:42.000Z</time>
      </trkpt>
      <trkpt lat="22.882769" lon="110.642971">
        <ele>101.860516</ele>
        <time>2026-08-18T02:29:43.000Z</time>
      </trkpt>
      <trkpt lat="22.882781" lon="110.643018">
        <ele>101.878932</ele>
        <time>2026-08-18T02:29:44.000Z</time>
      </trkpt>
      <trkpt lat="22.882793" lon="110.643066">
        <ele>101.897712</ele>
        <time>2026-08-18T02:29:45.000Z</time>
      </trkpt>
      <trkpt lat="22.882808" lon="110.643113">
        <ele>101.916493</ele>
        <time>2026-08-18T02:29:46.000Z</time>
      </trkpt>
      <trkpt lat="22.882822" lon="110.643160">
        <ele>101.935145</ele>
        <time>2026-08-18T02:29:47.000Z</time>
      </trkpt>
      <trkpt lat="22.882832" lon="110.643208">
        <ele>101.953727</ele>
        <time>2026-08-18T02:29:48.000Z</time>
      </trkpt>
      <trkpt lat="22.882838" lon="110.643259">
        <ele>101.973140</ele>
        <time>2026-08-18T02:29:49.000Z</time>
      </trkpt>
      <trkpt lat="22.882843" lon="110.643311">
        <ele>101.992882</ele>
        <time>2026-08-18T02:29:50.000Z</time>
      </trkpt>
      <trkpt lat="22.882851" lon="110.643361">
        <ele>102.012044</ele>
        <time>2026-08-18T02:29:51.000Z</time>
      </trkpt>
      <trkpt lat="22.882861" lon="110.643411">
        <ele>102.031363</ele>
        <time>2026-08-18T02:29:52.000Z</time>
      </trkpt>
      <trkpt lat="22.882872" lon="110.643461">
        <ele>102.050774</ele>
        <time>2026-08-18T02:29:53.000Z</time>
      </trkpt>
      <trkpt lat="22.882884" lon="110.643512">
        <ele>102.070649</ele>
        <time>2026-08-18T02:29:54.000Z</time>
      </trkpt>
      <trkpt lat="22.882895" lon="110.643561">
        <ele>102.089693</ele>
        <time>2026-08-18T02:29:55.000Z</time>
      </trkpt>
      <trkpt lat="22.882906" lon="110.643609">
        <ele>102.108369</ele>
        <time>2026-08-18T02:29:56.000Z</time>
      </trkpt>
      <trkpt lat="22.882917" lon="110.643660">
        <ele>102.128147</ele>
        <time>2026-08-18T02:29:57.000Z</time>
      </trkpt>
      <trkpt lat="22.882926" lon="110.643710">
        <ele>102.147384</ele>
        <time>2026-08-18T02:29:58.000Z</time>
      </trkpt>
      <trkpt lat="22.882937" lon="110.643761">
        <ele>102.167162</ele>
        <time>2026-08-18T02:29:59.000Z</time>
      </trkpt>
      <trkpt lat="22.882946" lon="110.643812">
        <ele>102.186769</ele>
        <time>2026-08-18T02:30:00.000Z</time>
      </trkpt>
      <trkpt lat="22.882952" lon="110.643861">
        <ele>102.205434</ele>
        <time>2026-08-18T02:30:01.000Z</time>
      </trkpt>
      <trkpt lat="22.882957" lon="110.643912">
        <ele>102.224799</ele>
        <time>2026-08-18T02:30:02.000Z</time>
      </trkpt>
      <trkpt lat="22.882960" lon="110.643961">
        <ele>102.243342</ele>
        <time>2026-08-18T02:30:03.000Z</time>
      </trkpt>
      <trkpt lat="22.882962" lon="110.644013">
        <ele>102.262994</ele>
        <time>2026-08-18T02:30:04.000Z</time>
      </trkpt>
      <trkpt lat="22.882966" lon="110.644068">
        <ele>102.283826</ele>
        <time>2026-08-18T02:30:05.000Z</time>
      </trkpt>
      <trkpt lat="22.882969" lon="110.644124">
        <ele>102.317420</ele>
        <time>2026-08-18T02:30:06.000Z</time>
      </trkpt>
      <trkpt lat="22.882972" lon="110.644178">
        <ele>102.360221</ele>
        <time>2026-08-18T02:30:07.000Z</time>
      </trkpt>
      <trkpt lat="22.882975" lon="110.644234">
        <ele>102.404602</ele>
        <time>2026-08-18T02:30:08.000Z</time>
      </trkpt>
      <trkpt lat="22.882976" lon="110.644288">
        <ele>102.447334</ele>
        <time>2026-08-18T02:30:09.000Z</time>
      </trkpt>
      <trkpt lat="22.882978" lon="110.644344">
        <ele>102.491673</ele>
        <time>2026-08-18T02:30:10.000Z</time>
      </trkpt>
      <trkpt lat="22.882981" lon="110.644400">
        <ele>102.536054</ele>
        <time>2026-08-18T02:30:11.000Z</time>
      </trkpt>
      <trkpt lat="22.882983" lon="110.644455">
        <ele>102.579603</ele>
        <time>2026-08-18T02:30:12.000Z</time>
      </trkpt>
      <trkpt lat="22.882984" lon="110.644509">
        <ele>102.622335</ele>
        <time>2026-08-18T02:30:13.000Z</time>
      </trkpt>
      <trkpt lat="22.882986" lon="110.644563">
        <ele>102.665093</ele>
        <time>2026-08-18T02:30:14.000Z</time>
      </trkpt>
      <trkpt lat="22.882989" lon="110.644619">
        <ele>102.709473</ele>
        <time>2026-08-18T02:30:15.000Z</time>
      </trkpt>
      <trkpt lat="22.882991" lon="110.644673">
        <ele>102.752232</ele>
        <time>2026-08-18T02:30:16.000Z</time>
      </trkpt>
      <trkpt lat="22.882991" lon="110.644726">
        <ele>102.794164</ele>
        <time>2026-08-18T02:30:17.000Z</time>
      </trkpt>
      <trkpt lat="22.882990" lon="110.644778">
        <ele>102.835314</ele>
        <time>2026-08-18T02:30:18.000Z</time>
      </trkpt>
      <trkpt lat="22.882989" lon="110.644826">
        <ele>102.873300</ele>
        <time>2026-08-18T02:30:19.000Z</time>
      </trkpt>
      <trkpt lat="22.882991" lon="110.644876">
        <ele>102.912896</ele>
        <time>2026-08-18T02:30:20.000Z</time>
      </trkpt>
      <trkpt lat="22.882989" lon="110.644921">
        <ele>102.948541</ele>
        <time>2026-08-18T02:30:21.000Z</time>
      </trkpt>
      <trkpt lat="22.882988" lon="110.644965">
        <ele>102.983363</ele>
        <time>2026-08-18T02:30:22.000Z</time>
      </trkpt>
      <trkpt lat="22.882988" lon="110.645008">
        <ele>103.017384</ele>
        <time>2026-08-18T02:30:23.000Z</time>
      </trkpt>
      <trkpt lat="22.882987" lon="110.645051">
        <ele>103.051415</ele>
        <time>2026-08-18T02:30:24.000Z</time>
      </trkpt>
      <trkpt lat="22.882983" lon="110.645094">
        <ele>103.085609</ele>
        <time>2026-08-18T02:30:25.000Z</time>
      </trkpt>
      <trkpt lat="22.882975" lon="110.645136">
        <ele>103.119541</ele>
        <time>2026-08-18T02:30:26.000Z</time>
      </trkpt>
      <trkpt lat="22.882965" lon="110.645178">
        <ele>103.153862</ele>
        <time>2026-08-18T02:30:27.000Z</time>
      </trkpt>
      <trkpt lat="22.882953" lon="110.645217">
        <ele>103.186393</ele>
        <time>2026-08-18T02:30:28.000Z</time>
      </trkpt>
      <trkpt lat="22.882941" lon="110.645256">
        <ele>103.218924</ele>
        <time>2026-08-18T02:30:29.000Z</time>
      </trkpt>
      <trkpt lat="22.882923" lon="110.645291">
        <ele>103.250638</ele>
        <time>2026-08-18T02:30:30.000Z</time>
      </trkpt>
      <trkpt lat="22.882910" lon="110.645327">
        <ele>103.281230</ele>
        <time>2026-08-18T02:30:31.000Z</time>
      </trkpt>
      <trkpt lat="22.882898" lon="110.645362">
        <ele>103.310776</ele>
        <time>2026-08-18T02:30:32.000Z</time>
      </trkpt>
      <trkpt lat="22.882887" lon="110.645398">
        <ele>103.340784</ele>
        <time>2026-08-18T02:30:33.000Z</time>
      </trkpt>
      <trkpt lat="22.882878" lon="110.645433">
        <ele>103.369534</ele>
        <time>2026-08-18T02:30:34.000Z</time>
      </trkpt>
      <trkpt lat="22.882872" lon="110.645467">
        <ele>103.396923</ele>
        <time>2026-08-18T02:30:35.000Z</time>
      </trkpt>
      <trkpt lat="22.882867" lon="110.645503">
        <ele>103.425727</ele>
        <time>2026-08-18T02:30:36.000Z</time>
      </trkpt>
      <trkpt lat="22.882859" lon="110.645534">
        <ele>103.451198</ele>
        <time>2026-08-18T02:30:37.000Z</time>
      </trkpt>
      <trkpt lat="22.882849" lon="110.645561">
        <ele>103.474221</ele>
        <time>2026-08-18T02:30:38.000Z</time>
      </trkpt>
      <trkpt lat="22.882838" lon="110.645585">
        <ele>103.495429</ele>
        <time>2026-08-18T02:30:39.000Z</time>
      </trkpt>
      <trkpt lat="22.882828" lon="110.645612">
        <ele>103.518453</ele>
        <time>2026-08-18T02:30:40.000Z</time>
      </trkpt>
      <trkpt lat="22.882819" lon="110.645640">
        <ele>103.541915</ele>
        <time>2026-08-18T02:30:41.000Z</time>
      </trkpt>
      <trkpt lat="22.882812" lon="110.645673">
        <ele>103.568707</ele>
        <time>2026-08-18T02:30:42.000Z</time>
      </trkpt>
      <trkpt lat="22.882802" lon="110.645705">
        <ele>103.595442</ele>
        <time>2026-08-18T02:30:43.000Z</time>
      </trkpt>
      <trkpt lat="22.882787" lon="110.645736">
        <ele>103.623145</ele>
        <time>2026-08-18T02:30:44.000Z</time>
      </trkpt>
      <trkpt lat="22.882767" lon="110.645761">
        <ele>103.649341</ele>
        <time>2026-08-18T02:30:45.000Z</time>
      </trkpt>
      <trkpt lat="22.882743" lon="110.645785">
        <ele>103.677365</ele>
        <time>2026-08-18T02:30:46.000Z</time>
      </trkpt>
      <trkpt lat="22.882715" lon="110.645805">
        <ele>103.706149</ele>
        <time>2026-08-18T02:30:47.000Z</time>
      </trkpt>
      <trkpt lat="22.882684" lon="110.645820">
        <ele>103.735296</ele>
        <time>2026-08-18T02:30:48.000Z</time>
      </trkpt>
      <trkpt lat="22.882654" lon="110.645830">
        <ele>103.762247</ele>
        <time>2026-08-18T02:30:49.000Z</time>
      </trkpt>
      <trkpt lat="22.882625" lon="110.645839">
        <ele>103.788149</ele>
        <time>2026-08-18T02:30:50.000Z</time>
      </trkpt>
      <trkpt lat="22.882596" lon="110.645860">
        <ele>103.818086</ele>
        <time>2026-08-18T02:30:51.000Z</time>
      </trkpt>
      <trkpt lat="22.882566" lon="110.645879">
        <ele>103.841828</ele>
        <time>2026-08-18T02:30:52.000Z</time>
      </trkpt>
      <trkpt lat="22.882535" lon="110.645895">
        <ele>103.852689</ele>
        <time>2026-08-18T02:30:53.000Z</time>
      </trkpt>
      <trkpt lat="22.882503" lon="110.645909">
        <ele>103.863606</ele>
        <time>2026-08-18T02:30:54.000Z</time>
      </trkpt>
      <trkpt lat="22.882470" lon="110.645925">
        <ele>103.875042</ele>
        <time>2026-08-18T02:30:55.000Z</time>
      </trkpt>
      <trkpt lat="22.882437" lon="110.645940">
        <ele>103.886362</ele>
        <time>2026-08-18T02:30:56.000Z</time>
      </trkpt>
      <trkpt lat="22.882405" lon="110.645954">
        <ele>103.897278</ele>
        <time>2026-08-18T02:30:57.000Z</time>
      </trkpt>
      <trkpt lat="22.882373" lon="110.645971">
        <ele>103.908551</ele>
        <time>2026-08-18T02:30:58.000Z</time>
      </trkpt>
      <trkpt lat="22.882342" lon="110.645985">
        <ele>103.919175</ele>
        <time>2026-08-18T02:30:59.000Z</time>
      </trkpt>
      <trkpt lat="22.882312" lon="110.646000">
        <ele>103.929625</ele>
        <time>2026-08-18T02:31:00.000Z</time>
      </trkpt>
      <trkpt lat="22.882283" lon="110.646014">
        <ele>103.939668</ele>
        <time>2026-08-18T02:31:01.000Z</time>
      </trkpt>
      <trkpt lat="22.882253" lon="110.646026">
        <ele>103.949784</ele>
        <time>2026-08-18T02:31:02.000Z</time>
      </trkpt>
      <trkpt lat="22.882223" lon="110.646036">
        <ele>103.959714</ele>
        <time>2026-08-18T02:31:03.000Z</time>
      </trkpt>
      <trkpt lat="22.882193" lon="110.646045">
        <ele>103.969562</ele>
        <time>2026-08-18T02:31:04.000Z</time>
      </trkpt>
      <trkpt lat="22.882168" lon="110.646054">
        <ele>103.977896</ele>
        <time>2026-08-18T02:31:05.000Z</time>
      </trkpt>
      <trkpt lat="22.882151" lon="110.646061">
        <ele>103.983649</ele>
        <time>2026-08-18T02:31:06.000Z</time>
      </trkpt>
      <trkpt lat="22.882137" lon="110.646066">
        <ele>103.988312</ele>
        <time>2026-08-18T02:31:07.000Z</time>
      </trkpt>
      <trkpt lat="22.882128" lon="110.646071">
        <ele>103.991511</ele>
        <time>2026-08-18T02:31:08.000Z</time>
      </trkpt>
      <trkpt lat="22.882080" lon="110.646088">
        <ele>104.007487</ele>
        <time>2026-08-18T02:34:58.000Z</time>
      </trkpt>
      <trkpt lat="22.882065" lon="110.646102">
        <ele>104.013746</ele>
        <time>2026-08-18T02:34:59.000Z</time>
      </trkpt>
      <trkpt lat="22.882044" lon="110.646113">
        <ele>104.021124</ele>
        <time>2026-08-18T02:35:00.000Z</time>
      </trkpt>
      <trkpt lat="22.882024" lon="110.646125">
        <ele>104.028354</ele>
        <time>2026-08-18T02:35:01.000Z</time>
      </trkpt>
      <trkpt lat="22.882001" lon="110.646135">
        <ele>104.036194</ele>
        <time>2026-08-18T02:35:02.000Z</time>
      </trkpt>
      <trkpt lat="22.881978" lon="110.646147">
        <ele>104.044268</ele>
        <time>2026-08-18T02:35:03.000Z</time>
      </trkpt>
      <trkpt lat="22.881954" lon="110.646158">
        <ele>104.052511</ele>
        <time>2026-08-18T02:35:04.000Z</time>
      </trkpt>
      <trkpt lat="22.881929" lon="110.646171">
        <ele>104.061282</ele>
        <time>2026-08-18T02:35:05.000Z</time>
      </trkpt>
      <trkpt lat="22.881902" lon="110.646185">
        <ele>104.070750</ele>
        <time>2026-08-18T02:35:06.000Z</time>
      </trkpt>
      <trkpt lat="22.881876" lon="110.646196">
        <ele>104.079580</ele>
        <time>2026-08-18T02:35:07.000Z</time>
      </trkpt>
      <trkpt lat="22.881850" lon="110.646208">
        <ele>104.088519</ele>
        <time>2026-08-18T02:35:08.000Z</time>
      </trkpt>
      <trkpt lat="22.881824" lon="110.646223">
        <ele>104.097835</ele>
        <time>2026-08-18T02:35:09.000Z</time>
      </trkpt>
      <trkpt lat="22.881799" lon="110.646237">
        <ele>104.106736</ele>
        <time>2026-08-18T02:35:10.000Z</time>
      </trkpt>
      <trkpt lat="22.881771" lon="110.646251">
        <ele>104.116491</ele>
        <time>2026-08-18T02:35:11.000Z</time>
      </trkpt>
      <trkpt lat="22.881741" lon="110.646264">
        <ele>104.126711</ele>
        <time>2026-08-18T02:35:12.000Z</time>
      </trkpt>
      <trkpt lat="22.881711" lon="110.646276">
        <ele>104.136827</ele>
        <time>2026-08-18T02:35:13.000Z</time>
      </trkpt>
      <trkpt lat="22.881680" lon="110.646290">
        <ele>104.147451</ele>
        <time>2026-08-18T02:35:14.000Z</time>
      </trkpt>
      <trkpt lat="22.881650" lon="110.646305">
        <ele>104.157902</ele>
        <time>2026-08-18T02:35:15.000Z</time>
      </trkpt>
      <trkpt lat="22.881621" lon="110.646320">
        <ele>104.168066</ele>
        <time>2026-08-18T02:35:16.000Z</time>
      </trkpt>
      <trkpt lat="22.881591" lon="110.646333">
        <ele>104.178287</ele>
        <time>2026-08-18T02:35:17.000Z</time>
      </trkpt>
      <trkpt lat="22.881560" lon="110.646346">
        <ele>104.188802</ele>
        <time>2026-08-18T02:35:18.000Z</time>
      </trkpt>
      <trkpt lat="22.881529" lon="110.646361">
        <ele>104.199541</ele>
        <time>2026-08-18T02:35:19.000Z</time>
      </trkpt>
      <trkpt lat="22.881499" lon="110.646378">
        <ele>104.210249</ele>
        <time>2026-08-18T02:35:20.000Z</time>
      </trkpt>
      <trkpt lat="22.881469" lon="110.646395">
        <ele>104.220957</ele>
        <time>2026-08-18T02:35:21.000Z</time>
      </trkpt>
      <trkpt lat="22.881439" lon="110.646408">
        <ele>104.231178</ele>
        <time>2026-08-18T02:35:22.000Z</time>
      </trkpt>
      <trkpt lat="22.881407" lon="110.646421">
        <ele>104.241989</ele>
        <time>2026-08-18T02:35:23.000Z</time>
      </trkpt>
      <trkpt lat="22.881375" lon="110.646435">
        <ele>104.252906</ele>
        <time>2026-08-18T02:35:24.000Z</time>
      </trkpt>
      <trkpt lat="22.881341" lon="110.646450">
        <ele>104.264518</ele>
        <time>2026-08-18T02:35:25.000Z</time>
      </trkpt>
      <trkpt lat="22.881308" lon="110.646464">
        <ele>104.275729</ele>
        <time>2026-08-18T02:35:26.000Z</time>
      </trkpt>
      <trkpt lat="22.881276" lon="110.646477">
        <ele>104.286540</ele>
        <time>2026-08-18T02:35:27.000Z</time>
      </trkpt>
      <trkpt lat="22.881244" lon="110.646490">
        <ele>104.297351</ele>
        <time>2026-08-18T02:35:28.000Z</time>
      </trkpt>
      <trkpt lat="22.881216" lon="110.646507">
        <ele>104.307502</ele>
        <time>2026-08-18T02:35:29.000Z</time>
      </trkpt>
      <trkpt lat="22.881189" lon="110.646525">
        <ele>104.317528</ele>
        <time>2026-08-18T02:35:30.000Z</time>
      </trkpt>
      <trkpt lat="22.881164" lon="110.646540">
        <ele>104.326566</ele>
        <time>2026-08-18T02:35:31.000Z</time>
      </trkpt>
      <trkpt lat="22.881137" lon="110.646551">
        <ele>104.335691</ele>
        <time>2026-08-18T02:35:32.000Z</time>
      </trkpt>
      <trkpt lat="22.881110" lon="110.646562">
        <ele>104.344816</ele>
        <time>2026-08-18T02:35:33.000Z</time>
      </trkpt>
      <trkpt lat="22.881082" lon="110.646574">
        <ele>104.354341</ele>
        <time>2026-08-18T02:35:34.000Z</time>
      </trkpt>
      <trkpt lat="22.881057" lon="110.646586">
        <ele>104.362990</ele>
        <time>2026-08-18T02:35:35.000Z</time>
      </trkpt>
      <trkpt lat="22.881027" lon="110.646596">
        <ele>104.372920</ele>
        <time>2026-08-18T02:35:36.000Z</time>
      </trkpt>
      <trkpt lat="22.880993" lon="110.646609">
        <ele>104.384325</ele>
        <time>2026-08-18T02:35:37.000Z</time>
      </trkpt>
      <trkpt lat="22.880964" lon="110.646625">
        <ele>104.394618</ele>
        <time>2026-08-18T02:35:38.000Z</time>
      </trkpt>
      <trkpt lat="22.880939" lon="110.646641">
        <ele>104.403801</ele>
        <time>2026-08-18T02:35:39.000Z</time>
      </trkpt>
      <trkpt lat="22.880914" lon="110.646658">
        <ele>104.366234</ele>
        <time>2026-08-18T02:35:40.000Z</time>
      </trkpt>
      <trkpt lat="22.880886" lon="110.646674">
        <ele>104.294664</ele>
        <time>2026-08-18T02:35:41.000Z</time>
      </trkpt>
      <trkpt lat="22.880864" lon="110.646699">
        <ele>104.222623</ele>
        <time>2026-08-18T02:35:42.000Z</time>
      </trkpt>
      <trkpt lat="22.880838" lon="110.646725">
        <ele>104.142663</ele>
        <time>2026-08-18T02:35:43.000Z</time>
      </trkpt>
      <trkpt lat="22.880813" lon="110.646753">
        <ele>104.061413</ele>
        <time>2026-08-18T02:35:44.000Z</time>
      </trkpt>
      <trkpt lat="22.880783" lon="110.646780">
        <ele>103.973268</ele>
        <time>2026-08-18T02:35:45.000Z</time>
      </trkpt>
      <trkpt lat="22.880758" lon="110.646807">
        <ele>103.893501</ele>
        <time>2026-08-18T02:35:46.000Z</time>
      </trkpt>
      <trkpt lat="22.880736" lon="110.646838">
        <ele>103.811960</ele>
        <time>2026-08-18T02:35:47.000Z</time>
      </trkpt>
      <trkpt lat="22.880711" lon="110.646867">
        <ele>103.729200</ele>
        <time>2026-08-18T02:35:48.000Z</time>
      </trkpt>
      <trkpt lat="22.880688" lon="110.646900">
        <ele>103.642974</ele>
        <time>2026-08-18T02:35:49.000Z</time>
      </trkpt>
      <trkpt lat="22.880666" lon="110.646935">
        <ele>103.554684</ele>
        <time>2026-08-18T02:35:50.000Z</time>
      </trkpt>
      <trkpt lat="22.880644" lon="110.646972">
        <ele>103.462920</ele>
        <time>2026-08-18T02:35:51.000Z</time>
      </trkpt>
      <trkpt lat="22.880622" lon="110.647008">
        <ele>103.372900</ele>
        <time>2026-08-18T02:35:52.000Z</time>
      </trkpt>
      <trkpt lat="22.880601" lon="110.647046">
        <ele>103.280563</ele>
        <time>2026-08-18T02:35:53.000Z</time>
      </trkpt>
      <trkpt lat="22.880582" lon="110.647086">
        <ele>103.186784</ele>
        <time>2026-08-18T02:35:54.000Z</time>
      </trkpt>
      <trkpt lat="22.880559" lon="110.647127">
        <ele>103.086756</ele>
        <time>2026-08-18T02:35:55.000Z</time>
      </trkpt>
      <trkpt lat="22.880537" lon="110.647165">
        <ele>102.993235</ele>
        <time>2026-08-18T02:35:56.000Z</time>
      </trkpt>
      <trkpt lat="22.880517" lon="110.647204">
        <ele>102.900225</ele>
        <time>2026-08-18T02:35:57.000Z</time>
      </trkpt>
      <trkpt lat="22.880500" lon="110.647244">
        <ele>102.808431</ele>
        <time>2026-08-18T02:35:58.000Z</time>
      </trkpt>
      <trkpt lat="22.880484" lon="110.647285">
        <ele>102.715647</ele>
        <time>2026-08-18T02:35:59.000Z</time>
      </trkpt>
      <trkpt lat="22.880469" lon="110.647328">
        <ele>102.619835</ele>
        <time>2026-08-18T02:36:00.000Z</time>
      </trkpt>
      <trkpt lat="22.880454" lon="110.647368">
        <ele>102.529842</ele>
        <time>2026-08-18T02:36:01.000Z</time>
      </trkpt>
      <trkpt lat="22.880439" lon="110.647407">
        <ele>102.441776</ele>
        <time>2026-08-18T02:36:02.000Z</time>
      </trkpt>
      <trkpt lat="22.880423" lon="110.647448">
        <ele>102.348991</ele>
        <time>2026-08-18T02:36:03.000Z</time>
      </trkpt>
      <trkpt lat="22.880408" lon="110.647495">
        <ele>102.245342</ele>
        <time>2026-08-18T02:36:04.000Z</time>
      </trkpt>
      <trkpt lat="22.880396" lon="110.647540">
        <ele>102.147721</ele>
        <time>2026-08-18T02:36:05.000Z</time>
      </trkpt>
      <trkpt lat="22.880382" lon="110.647583">
        <ele>102.052687</ele>
        <time>2026-08-18T02:36:06.000Z</time>
      </trkpt>
      <trkpt lat="22.880372" lon="110.647629">
        <ele>101.954199</ele>
        <time>2026-08-18T02:36:07.000Z</time>
      </trkpt>
      <trkpt lat="22.880364" lon="110.647684">
        <ele>101.838169</ele>
        <time>2026-08-18T02:36:08.000Z</time>
      </trkpt>
      <trkpt lat="22.880355" lon="110.647739">
        <ele>101.721766</ele>
        <time>2026-08-18T02:36:09.000Z</time>
      </trkpt>
      <trkpt lat="22.880343" lon="110.647794">
        <ele>101.603986</ele>
        <time>2026-08-18T02:36:10.000Z</time>
      </trkpt>
      <trkpt lat="22.880332" lon="110.647849">
        <ele>101.486706</ele>
        <time>2026-08-18T02:36:11.000Z</time>
      </trkpt>
      <trkpt lat="22.880316" lon="110.647906">
        <ele>101.362538</ele>
        <time>2026-08-18T02:36:12.000Z</time>
      </trkpt>
      <trkpt lat="22.880291" lon="110.647959">
        <ele>101.238462</ele>
        <time>2026-08-18T02:36:13.000Z</time>
      </trkpt>
      <trkpt lat="22.880263" lon="110.648020">
        <ele>101.096447</ele>
        <time>2026-08-18T02:36:14.000Z</time>
      </trkpt>
      <trkpt lat="22.880231" lon="110.648079">
        <ele>100.953780</ele>
        <time>2026-08-18T02:36:15.000Z</time>
      </trkpt>
      <trkpt lat="22.880193" lon="110.648136">
        <ele>100.807167</ele>
        <time>2026-08-18T02:36:16.000Z</time>
      </trkpt>
      <trkpt lat="22.880150" lon="110.648196">
        <ele>100.648766</ele>
        <time>2026-08-18T02:36:17.000Z</time>
      </trkpt>
      <trkpt lat="22.880111" lon="110.648255">
        <ele>100.497450</ele>
        <time>2026-08-18T02:36:18.000Z</time>
      </trkpt>
      <trkpt lat="22.880070" lon="110.648318">
        <ele>100.337974</ele>
        <time>2026-08-18T02:36:19.000Z</time>
      </trkpt>
      <trkpt lat="22.880027" lon="110.648380">
        <ele>100.256460</ele>
        <time>2026-08-18T02:36:20.000Z</time>
      </trkpt>
      <trkpt lat="22.879982" lon="110.648436">
        <ele>100.178407</ele>
        <time>2026-08-18T02:36:21.000Z</time>
      </trkpt>
      <trkpt lat="22.879937" lon="110.648492">
        <ele>100.100355</ele>
        <time>2026-08-18T02:36:22.000Z</time>
      </trkpt>
      <trkpt lat="22.879887" lon="110.648545">
        <ele>100.020675</ele>
        <time>2026-08-18T02:36:23.000Z</time>
      </trkpt>
      <trkpt lat="22.879835" lon="110.648601">
        <ele>99.937160</ele>
        <time>2026-08-18T02:36:24.000Z</time>
      </trkpt>
      <trkpt lat="22.879781" lon="110.648653">
        <ele>99.854858</ele>
        <time>2026-08-18T02:36:25.000Z</time>
      </trkpt>
      <trkpt lat="22.879724" lon="110.648699">
        <ele>99.773877</ele>
        <time>2026-08-18T02:36:26.000Z</time>
      </trkpt>
      <trkpt lat="22.879665" lon="110.648743">
        <ele>99.692264</ele>
        <time>2026-08-18T02:36:27.000Z</time>
      </trkpt>
      <trkpt lat="22.879605" lon="110.648777">
        <ele>99.615097</ele>
        <time>2026-08-18T02:36:28.000Z</time>
      </trkpt>
      <trkpt lat="22.879542" lon="110.648807">
        <ele>99.536662</ele>
        <time>2026-08-18T02:36:29.000Z</time>
      </trkpt>
      <trkpt lat="22.879478" lon="110.648833">
        <ele>99.458752</ele>
        <time>2026-08-18T02:36:30.000Z</time>
      </trkpt>
      <trkpt lat="22.879414" lon="110.648858">
        <ele>99.381205</ele>
        <time>2026-08-18T02:36:31.000Z</time>
      </trkpt>
      <trkpt lat="22.879352" lon="110.648883">
        <ele>99.305798</ele>
        <time>2026-08-18T02:36:32.000Z</time>
      </trkpt>
      <trkpt lat="22.879292" lon="110.648907">
        <ele>99.232895</ele>
        <time>2026-08-18T02:36:33.000Z</time>
      </trkpt>
      <trkpt lat="22.879229" lon="110.648929">
        <ele>99.157443</ele>
        <time>2026-08-18T02:36:34.000Z</time>
      </trkpt>
      <trkpt lat="22.879168" lon="110.648953">
        <ele>99.083469</ele>
        <time>2026-08-18T02:36:35.000Z</time>
      </trkpt>
      <trkpt lat="22.879108" lon="110.648976">
        <ele>99.010922</ele>
        <time>2026-08-18T02:36:36.000Z</time>
      </trkpt>
      <trkpt lat="22.879049" lon="110.648991">
        <ele>98.941836</ele>
        <time>2026-08-18T02:36:37.000Z</time>
      </trkpt>
      <trkpt lat="22.878992" lon="110.649004">
        <ele>98.875431</ele>
        <time>2026-08-18T02:36:38.000Z</time>
      </trkpt>
      <trkpt lat="22.878936" lon="110.649016">
        <ele>98.810353</ele>
        <time>2026-08-18T02:36:39.000Z</time>
      </trkpt>
      <trkpt lat="22.878880" lon="110.649032">
        <ele>98.744333</ele>
        <time>2026-08-18T02:36:40.000Z</time>
      </trkpt>
      <trkpt lat="22.878820" lon="110.649051">
        <ele>98.673075</ele>
        <time>2026-08-18T02:36:41.000Z</time>
      </trkpt>
      <trkpt lat="22.878762" lon="110.649075">
        <ele>98.602307</ele>
        <time>2026-08-18T02:36:42.000Z</time>
      </trkpt>
      <trkpt lat="22.878703" lon="110.649094">
        <ele>98.532143</ele>
        <time>2026-08-18T02:36:43.000Z</time>
      </trkpt>
      <trkpt lat="22.878643" lon="110.649109">
        <ele>98.461946</ele>
        <time>2026-08-18T02:36:44.000Z</time>
      </trkpt>
      <trkpt lat="22.878585" lon="110.649127">
        <ele>98.393170</ele>
        <time>2026-08-18T02:36:45.000Z</time>
      </trkpt>
      <trkpt lat="22.878528" lon="110.649146">
        <ele>98.325189</ele>
        <time>2026-08-18T02:36:46.000Z</time>
      </trkpt>
      <trkpt lat="22.878472" lon="110.649165">
        <ele>98.292236</ele>
        <time>2026-08-18T02:36:47.000Z</time>
      </trkpt>
      <trkpt lat="22.878421" lon="110.649188">
        <ele>98.299745</ele>
        <time>2026-08-18T02:36:48.000Z</time>
      </trkpt>
      <trkpt lat="22.878366" lon="110.649204">
        <ele>98.307486</ele>
        <time>2026-08-18T02:36:49.000Z</time>
      </trkpt>
      <trkpt lat="22.878312" lon="110.649218">
        <ele>98.315034</ele>
        <time>2026-08-18T02:36:50.000Z</time>
      </trkpt>
      <trkpt lat="22.878257" lon="110.649235">
        <ele>98.322809</ele>
        <time>2026-08-18T02:36:51.000Z</time>
      </trkpt>
      <trkpt lat="22.878207" lon="110.649255">
        <ele>98.330054</ele>
        <time>2026-08-18T02:36:52.000Z</time>
      </trkpt>
      <trkpt lat="22.878164" lon="110.649280">
        <ele>98.336686</ele>
        <time>2026-08-18T02:36:53.000Z</time>
      </trkpt>
      <trkpt lat="22.878118" lon="110.649302">
        <ele>98.343521</ele>
        <time>2026-08-18T02:36:54.000Z</time>
      </trkpt>
      <trkpt lat="22.878072" lon="110.649324">
        <ele>98.350355</ele>
        <time>2026-08-18T02:36:55.000Z</time>
      </trkpt>
      <trkpt lat="22.878025" lon="110.649342">
        <ele>98.357131</ele>
        <time>2026-08-18T02:36:56.000Z</time>
      </trkpt>
      <trkpt lat="22.877978" lon="110.649361">
        <ele>98.363950</ele>
        <time>2026-08-18T02:36:57.000Z</time>
      </trkpt>
      <trkpt lat="22.877933" lon="110.649384">
        <ele>98.370712</ele>
        <time>2026-08-18T02:36:58.000Z</time>
      </trkpt>
      <trkpt lat="22.877890" lon="110.649406">
        <ele>98.377176</ele>
        <time>2026-08-18T02:36:59.000Z</time>
      </trkpt>
      <trkpt lat="22.877858" lon="110.649421">
        <ele>98.381915</ele>
        <time>2026-08-18T02:37:00.000Z</time>
      </trkpt>
      <trkpt lat="22.877831" lon="110.649431">
        <ele>98.385793</ele>
        <time>2026-08-18T02:37:01.000Z</time>
      </trkpt>
      <trkpt lat="22.877803" lon="110.649438">
        <ele>98.389700</ele>
        <time>2026-08-18T02:37:02.000Z</time>
      </trkpt>
      <trkpt lat="22.877779" lon="110.649442">
        <ele>98.393001</ele>
        <time>2026-08-18T02:37:03.000Z</time>
      </trkpt>
      <trkpt lat="22.877763" lon="110.649453">
        <ele>98.395576</ele>
        <time>2026-08-18T02:37:04.000Z</time>
      </trkpt>
      <trkpt lat="22.877751" lon="110.649454">
        <ele>98.397212</ele>
        <time>2026-08-18T02:37:05.000Z</time>
      </trkpt>
      <trkpt lat="22.877738" lon="110.649458">
        <ele>98.399049</ele>
        <time>2026-08-18T02:37:06.000Z</time>
      </trkpt>
      <trkpt lat="22.877719" lon="110.649456">
        <ele>98.401645</ele>
        <time>2026-08-18T02:37:07.000Z</time>
      </trkpt>
      <trkpt lat="22.877700" lon="110.649457">
        <ele>98.404231</ele>
        <time>2026-08-18T02:37:08.000Z</time>
      </trkpt>
      <trkpt lat="22.877675" lon="110.649458">
        <ele>98.407632</ele>
        <time>2026-08-18T02:37:09.000Z</time>
      </trkpt>
      <trkpt lat="22.877647" lon="110.649464">
        <ele>98.411513</ele>
        <time>2026-08-18T02:37:10.000Z</time>
      </trkpt>
      <trkpt lat="22.877617" lon="110.649472">
        <ele>98.415713</ele>
        <time>2026-08-18T02:37:11.000Z</time>
      </trkpt>
      <trkpt lat="22.877589" lon="110.649483">
        <ele>98.419761</ele>
        <time>2026-08-18T02:37:12.000Z</time>
      </trkpt>
      <trkpt lat="22.877557" lon="110.649494">
        <ele>98.424325</ele>
        <time>2026-08-18T02:37:13.000Z</time>
      </trkpt>
      <trkpt lat="22.877522" lon="110.649508">
        <ele>98.429396</ele>
        <time>2026-08-18T02:37:14.000Z</time>
      </trkpt>
      <trkpt lat="22.877487" lon="110.649522">
        <ele>98.434467</ele>
        <time>2026-08-18T02:37:15.000Z</time>
      </trkpt>
      <trkpt lat="22.877449" lon="110.649539">
        <ele>98.440056</ele>
        <time>2026-08-18T02:37:16.000Z</time>
      </trkpt>
      <trkpt lat="22.877411" lon="110.649556">
        <ele>98.445644</ele>
        <time>2026-08-18T02:37:17.000Z</time>
      </trkpt>
      <trkpt lat="22.877376" lon="110.649575">
        <ele>98.450964</ele>
        <time>2026-08-18T02:37:18.000Z</time>
      </trkpt>
      <trkpt lat="22.877342" lon="110.649597">
        <ele>98.456346</ele>
        <time>2026-08-18T02:37:19.000Z</time>
      </trkpt>
      <trkpt lat="22.877306" lon="110.649619">
        <ele>98.461963</ele>
        <time>2026-08-18T02:37:20.000Z</time>
      </trkpt>
      <trkpt lat="22.877272" lon="110.649640">
        <ele>98.467281</ele>
        <time>2026-08-18T02:37:21.000Z</time>
      </trkpt>
      <trkpt lat="22.877237" lon="110.649663">
        <ele>98.472844</ele>
        <time>2026-08-18T02:37:22.000Z</time>
      </trkpt>
      <trkpt lat="22.877200" lon="110.649685">
        <ele>98.478580</ele>
        <time>2026-08-18T02:37:23.000Z</time>
      </trkpt>
      <trkpt lat="22.877165" lon="110.649714">
        <ele>98.484567</ele>
        <time>2026-08-18T02:37:24.000Z</time>
      </trkpt>
      <trkpt lat="22.877133" lon="110.649740">
        <ele>98.490001</ele>
        <time>2026-08-18T02:37:25.000Z</time>
      </trkpt>
      <trkpt lat="22.877103" lon="110.649768">
        <ele>98.495381</ele>
        <time>2026-08-18T02:37:26.000Z</time>
      </trkpt>
      <trkpt lat="22.877076" lon="110.649805">
        <ele>98.501293</ele>
        <time>2026-08-18T02:37:27.000Z</time>
      </trkpt>
      <trkpt lat="22.877049" lon="110.649838">
        <ele>98.506821</ele>
        <time>2026-08-18T02:37:28.000Z</time>
      </trkpt>
      <trkpt lat="22.877027" lon="110.649872">
        <ele>98.512026</ele>
        <time>2026-08-18T02:37:29.000Z</time>
      </trkpt>
      <trkpt lat="22.877006" lon="110.649911">
        <ele>98.517684</ele>
        <time>2026-08-18T02:37:30.000Z</time>
      </trkpt>
      <trkpt lat="22.876985" lon="110.649947">
        <ele>98.523021</ele>
        <time>2026-08-18T02:37:31.000Z</time>
      </trkpt>
      <trkpt lat="22.876963" lon="110.649985">
        <ele>98.528643</ele>
        <time>2026-08-18T02:37:32.000Z</time>
      </trkpt>
      <trkpt lat="22.876938" lon="110.650019">
        <ele>98.528377</ele>
        <time>2026-08-18T02:37:33.000Z</time>
      </trkpt>
      <trkpt lat="22.876917" lon="110.650053">
        <ele>98.502083</ele>
        <time>2026-08-18T02:37:34.000Z</time>
      </trkpt>
      <trkpt lat="22.876894" lon="110.650091">
        <ele>98.472877</ele>
        <time>2026-08-18T02:37:35.000Z</time>
      </trkpt>
      <trkpt lat="22.876869" lon="110.650128">
        <ele>98.443404</ele>
        <time>2026-08-18T02:37:36.000Z</time>
      </trkpt>
      <trkpt lat="22.876847" lon="110.650167">
        <ele>98.414029</ele>
        <time>2026-08-18T02:37:37.000Z</time>
      </trkpt>
      <trkpt lat="22.876820" lon="110.650200">
        <ele>98.385679</ele>
        <time>2026-08-18T02:37:38.000Z</time>
      </trkpt>
      <trkpt lat="22.876790" lon="110.650230">
        <ele>98.357239</ele>
        <time>2026-08-18T02:37:39.000Z</time>
      </trkpt>
      <trkpt lat="22.876760" lon="110.650261">
        <ele>98.328360</ele>
        <time>2026-08-18T02:37:40.000Z</time>
      </trkpt>
      <trkpt lat="22.876723" lon="110.650287">
        <ele>98.297629</ele>
        <time>2026-08-18T02:37:41.000Z</time>
      </trkpt>
      <trkpt lat="22.876687" lon="110.650311">
        <ele>98.268173</ele>
        <time>2026-08-18T02:37:42.000Z</time>
      </trkpt>
      <trkpt lat="22.876654" lon="110.650333">
        <ele>98.241172</ele>
        <time>2026-08-18T02:37:43.000Z</time>
      </trkpt>
      <trkpt lat="22.876617" lon="110.650347">
        <ele>98.213853</ele>
        <time>2026-08-18T02:37:44.000Z</time>
      </trkpt>
      <trkpt lat="22.876581" lon="110.650350">
        <ele>98.188680</ele>
        <time>2026-08-18T02:37:45.000Z</time>
      </trkpt>
      <trkpt lat="22.876544" lon="110.650351">
        <ele>98.162875</ele>
        <time>2026-08-18T02:37:46.000Z</time>
      </trkpt>
      <trkpt lat="22.876502" lon="110.650346">
        <ele>98.133417</ele>
        <time>2026-08-18T02:37:47.000Z</time>
      </trkpt>
      <trkpt lat="22.876459" lon="110.650334">
        <ele>98.102462</ele>
        <time>2026-08-18T02:37:48.000Z</time>
      </trkpt>
      <trkpt lat="22.876421" lon="110.650316">
        <ele>98.073555</ele>
        <time>2026-08-18T02:37:49.000Z</time>
      </trkpt>
      <trkpt lat="22.876382" lon="110.650302">
        <ele>98.044916</ele>
        <time>2026-08-18T02:37:50.000Z</time>
      </trkpt>
      <trkpt lat="22.876343" lon="110.650286">
        <ele>98.015847</ele>
        <time>2026-08-18T02:37:51.000Z</time>
      </trkpt>
      <trkpt lat="22.876306" lon="110.650269">
        <ele>97.987835</ele>
        <time>2026-08-18T02:37:52.000Z</time>
      </trkpt>
      <trkpt lat="22.876266" lon="110.650254">
        <ele>97.958329</ele>
        <time>2026-08-18T02:37:53.000Z</time>
      </trkpt>
      <trkpt lat="22.876225" lon="110.650238">
        <ele>97.927952</ele>
        <time>2026-08-18T02:37:54.000Z</time>
      </trkpt>
      <trkpt lat="22.876185" lon="110.650220">
        <ele>97.897762</ele>
        <time>2026-08-18T02:37:55.000Z</time>
      </trkpt>
      <trkpt lat="22.876142" lon="110.650196">
        <ele>97.864051</ele>
        <time>2026-08-18T02:37:56.000Z</time>
      </trkpt>
      <trkpt lat="22.876098" lon="110.650176">
        <ele>97.830793</ele>
        <time>2026-08-18T02:37:57.000Z</time>
      </trkpt>
      <trkpt lat="22.876055" lon="110.650156">
        <ele>97.798176</ele>
        <time>2026-08-18T02:37:58.000Z</time>
      </trkpt>
      <trkpt lat="22.876012" lon="110.650137">
        <ele>97.765807</ele>
        <time>2026-08-18T02:37:59.000Z</time>
      </trkpt>
      <trkpt lat="22.875968" lon="110.650120">
        <ele>97.733245</ele>
        <time>2026-08-18T02:38:00.000Z</time>
      </trkpt>
      <trkpt lat="22.875932" lon="110.650101">
        <ele>97.705335</ele>
        <time>2026-08-18T02:38:01.000Z</time>
      </trkpt>
      <trkpt lat="22.875907" lon="110.650080">
        <ele>97.683295</ele>
        <time>2026-08-18T02:38:02.000Z</time>
      </trkpt>
      <trkpt lat="22.875889" lon="110.650065">
        <ele>97.667473</ele>
        <time>2026-08-18T02:38:03.000Z</time>
      </trkpt>
      <trkpt lat="22.875872" lon="110.650054">
        <ele>97.653674</ele>
        <time>2026-08-18T02:38:04.000Z</time>
      </trkpt>
      <trkpt lat="22.875851" lon="110.650047">
        <ele>97.638358</ele>
        <time>2026-08-18T02:38:05.000Z</time>
      </trkpt>
      <trkpt lat="22.875829" lon="110.650038">
        <ele>97.621966</ele>
        <time>2026-08-18T02:38:06.000Z</time>
      </trkpt>
      <trkpt lat="22.875804" lon="110.650029">
        <ele>97.603602</ele>
        <time>2026-08-18T02:38:07.000Z</time>
      </trkpt>
      <trkpt lat="22.875771" lon="110.650019">
        <ele>97.579715</ele>
        <time>2026-08-18T02:38:08.000Z</time>
      </trkpt>
      <trkpt lat="22.875736" lon="110.650009">
        <ele>97.554481</ele>
        <time>2026-08-18T02:38:09.000Z</time>
      </trkpt>
      <trkpt lat="22.875698" lon="110.650002">
        <ele>97.527609</ele>
        <time>2026-08-18T02:38:10.000Z</time>
      </trkpt>
      <trkpt lat="22.875660" lon="110.649995">
        <ele>97.500736</ele>
        <time>2026-08-18T02:38:11.000Z</time>
      </trkpt>
      <trkpt lat="22.875622" lon="110.649988">
        <ele>97.473864</ele>
        <time>2026-08-18T02:38:12.000Z</time>
      </trkpt>
      <trkpt lat="22.875580" lon="110.649982">
        <ele>97.444329</ele>
        <time>2026-08-18T02:38:13.000Z</time>
      </trkpt>
      <trkpt lat="22.875539" lon="110.649975">
        <ele>97.415392</ele>
        <time>2026-08-18T02:38:14.000Z</time>
      </trkpt>
      <trkpt lat="22.875499" lon="110.649968">
        <ele>97.387144</ele>
        <time>2026-08-18T02:38:15.000Z</time>
      </trkpt>
      <trkpt lat="22.875456" lon="110.649958">
        <ele>97.356484</ele>
        <time>2026-08-18T02:38:16.000Z</time>
      </trkpt>
      <trkpt lat="22.875414" lon="110.649950">
        <ele>97.326754</ele>
        <time>2026-08-18T02:38:17.000Z</time>
      </trkpt>
      <trkpt lat="22.875372" lon="110.649940">
        <ele>97.296775</ele>
        <time>2026-08-18T02:38:18.000Z</time>
      </trkpt>
      <trkpt lat="22.875333" lon="110.649932">
        <ele>97.289572</ele>
        <time>2026-08-18T02:38:19.000Z</time>
      </trkpt>
      <trkpt lat="22.875293" lon="110.649924">
        <ele>97.319026</ele>
        <time>2026-08-18T02:38:20.000Z</time>
      </trkpt>
      <trkpt lat="22.875253" lon="110.649915">
        <ele>97.348609</ele>
        <time>2026-08-18T02:38:21.000Z</time>
      </trkpt>
      <trkpt lat="22.875212" lon="110.649906">
        <ele>97.378901</ele>
        <time>2026-08-18T02:38:22.000Z</time>
      </trkpt>
      <trkpt lat="22.875171" lon="110.649896">
        <ele>97.409333</ele>
        <time>2026-08-18T02:38:23.000Z</time>
      </trkpt>
      <trkpt lat="22.875130" lon="110.649887">
        <ele>97.439625</ele>
        <time>2026-08-18T02:38:24.000Z</time>
      </trkpt>
      <trkpt lat="22.875090" lon="110.649881">
        <ele>97.468867</ele>
        <time>2026-08-18T02:38:25.000Z</time>
      </trkpt>
      <trkpt lat="22.875049" lon="110.649874">
        <ele>97.498924</ele>
        <time>2026-08-18T02:38:26.000Z</time>
      </trkpt>
      <trkpt lat="22.875007" lon="110.649868">
        <ele>97.529601</ele>
        <time>2026-08-18T02:38:27.000Z</time>
      </trkpt>
      <trkpt lat="22.874965" lon="110.649865">
        <ele>97.560082</ele>
        <time>2026-08-18T02:38:28.000Z</time>
      </trkpt>
      <trkpt lat="22.874925" lon="110.649864">
        <ele>97.589057</ele>
        <time>2026-08-18T02:38:29.000Z</time>
      </trkpt>
      <trkpt lat="22.874885" lon="110.649862">
        <ele>97.618054</ele>
        <time>2026-08-18T02:38:30.000Z</time>
      </trkpt>
      <trkpt lat="22.874846" lon="110.649857">
        <ele>97.646493</ele>
        <time>2026-08-18T02:38:31.000Z</time>
      </trkpt>
      <trkpt lat="22.874809" lon="110.649851">
        <ele>97.673585</ele>
        <time>2026-08-18T02:38:32.000Z</time>
      </trkpt>
      <trkpt lat="22.874771" lon="110.649843">
        <ele>97.701617</ele>
        <time>2026-08-18T02:38:33.000Z</time>
      </trkpt>
      <trkpt lat="22.874733" lon="110.649834">
        <ele>97.729783</ele>
        <time>2026-08-18T02:38:34.000Z</time>
      </trkpt>
      <trkpt lat="22.874696" lon="110.649826">
        <ele>97.757104</ele>
        <time>2026-08-18T02:38:35.000Z</time>
      </trkpt>
      <trkpt lat="22.874661" lon="110.649815">
        <ele>97.783491</ele>
        <time>2026-08-18T02:38:36.000Z</time>
      </trkpt>
      <trkpt lat="22.874627" lon="110.649804">
        <ele>97.809183</ele>
        <time>2026-08-18T02:38:37.000Z</time>
      </trkpt>
      <trkpt lat="22.874594" lon="110.649792">
        <ele>97.834387</ele>
        <time>2026-08-18T02:38:38.000Z</time>
      </trkpt>
      <trkpt lat="22.874560" lon="110.649784">
        <ele>97.859581</ele>
        <time>2026-08-18T02:38:39.000Z</time>
      </trkpt>
      <trkpt lat="22.874525" lon="110.649778">
        <ele>97.885241</ele>
        <time>2026-08-18T02:38:40.000Z</time>
      </trkpt>
      <trkpt lat="22.874489" lon="110.649770">
        <ele>97.911852</ele>
        <time>2026-08-18T02:38:41.000Z</time>
      </trkpt>
      <trkpt lat="22.874454" lon="110.649763">
        <ele>97.937625</ele>
        <time>2026-08-18T02:38:42.000Z</time>
      </trkpt>
      <trkpt lat="22.874418" lon="110.649755">
        <ele>97.964236</ele>
        <time>2026-08-18T02:38:43.000Z</time>
      </trkpt>
      <trkpt lat="22.874382" lon="110.649746">
        <ele>97.990988</ele>
        <time>2026-08-18T02:38:44.000Z</time>
      </trkpt>
      <trkpt lat="22.874345" lon="110.649739">
        <ele>98.018187</ele>
        <time>2026-08-18T02:38:45.000Z</time>
      </trkpt>
      <trkpt lat="22.874309" lon="110.649730">
        <ele>98.044940</ele>
        <time>2026-08-18T02:38:46.000Z</time>
      </trkpt>
      <trkpt lat="22.874273" lon="110.649721">
        <ele>98.071693</ele>
        <time>2026-08-18T02:38:47.000Z</time>
      </trkpt>
      <trkpt lat="22.874238" lon="110.649713">
        <ele>98.097595</ele>
        <time>2026-08-18T02:38:48.000Z</time>
      </trkpt>
      <trkpt lat="22.874205" lon="110.649701">
        <ele>98.122798</ele>
        <time>2026-08-18T02:38:49.000Z</time>
      </trkpt>
      <trkpt lat="22.874176" lon="110.649687">
        <ele>98.145783</ele>
        <time>2026-08-18T02:38:50.000Z</time>
      </trkpt>
      <trkpt lat="22.874143" lon="110.649678">
        <ele>98.170423</ele>
        <time>2026-08-18T02:38:51.000Z</time>
      </trkpt>
      <trkpt lat="22.874112" lon="110.649668">
        <ele>98.193843</ele>
        <time>2026-08-18T02:38:52.000Z</time>
      </trkpt>
      <trkpt lat="22.874083" lon="110.649659">
        <ele>98.215686</ele>
        <time>2026-08-18T02:38:53.000Z</time>
      </trkpt>
      <trkpt lat="22.874055" lon="110.649653">
        <ele>98.236354</ele>
        <time>2026-08-18T02:38:54.000Z</time>
      </trkpt>
      <trkpt lat="22.874027" lon="110.649649">
        <ele>98.256806</ele>
        <time>2026-08-18T02:38:55.000Z</time>
      </trkpt>
      <trkpt lat="22.874005" lon="110.649653">
        <ele>98.272960</ele>
        <time>2026-08-18T02:38:56.000Z</time>
      </trkpt>
      <trkpt lat="22.873981" lon="110.649658">
        <ele>98.290657</ele>
        <time>2026-08-18T02:38:57.000Z</time>
      </trkpt>
      <trkpt lat="22.873956" lon="110.649665">
        <ele>98.309354</ele>
        <time>2026-08-18T02:38:58.000Z</time>
      </trkpt>
      <trkpt lat="22.873927" lon="110.649669">
        <ele>98.330524</ele>
        <time>2026-08-18T02:38:59.000Z</time>
      </trkpt>
      <trkpt lat="22.873897" lon="110.649673">
        <ele>98.352412</ele>
        <time>2026-08-18T02:39:00.000Z</time>
      </trkpt>
      <trkpt lat="22.873864" lon="110.649672">
        <ele>98.376319</ele>
        <time>2026-08-18T02:39:01.000Z</time>
      </trkpt>
      <trkpt lat="22.873829" lon="110.649671">
        <ele>98.401674</ele>
        <time>2026-08-18T02:39:02.000Z</time>
      </trkpt>
      <trkpt lat="22.873795" lon="110.649668">
        <ele>98.426377</ele>
        <time>2026-08-18T02:39:03.000Z</time>
      </trkpt>
      <trkpt lat="22.873761" lon="110.649664">
        <ele>98.451143</ele>
        <time>2026-08-18T02:39:04.000Z</time>
      </trkpt>
      <trkpt lat="22.873727" lon="110.649660">
        <ele>98.475909</ele>
        <time>2026-08-18T02:39:05.000Z</time>
      </trkpt>
      <trkpt lat="22.873694" lon="110.649656">
        <ele>98.499956</ele>
        <time>2026-08-18T02:39:06.000Z</time>
      </trkpt>
      <trkpt lat="22.873668" lon="110.649648">
        <ele>98.519526</ele>
        <time>2026-08-18T02:39:07.000Z</time>
      </trkpt>
      <trkpt lat="22.873637" lon="110.649644">
        <ele>98.542134</ele>
        <time>2026-08-18T02:39:08.000Z</time>
      </trkpt>
      <trkpt lat="22.873606" lon="110.649638">
        <ele>98.564937</ele>
        <time>2026-08-18T02:39:09.000Z</time>
      </trkpt>
      <trkpt lat="22.873579" lon="110.649628">
        <ele>98.576868</ele>
        <time>2026-08-18T02:39:10.000Z</time>
      </trkpt>
      <trkpt lat="22.873550" lon="110.649626">
        <ele>98.551129</ele>
        <time>2026-08-18T02:39:11.000Z</time>
      </trkpt>
      <trkpt lat="22.873523" lon="110.649616">
        <ele>98.525858</ele>
        <time>2026-08-18T02:39:12.000Z</time>
      </trkpt>
      <trkpt lat="22.873499" lon="110.649610">
        <ele>98.504042</ele>
        <time>2026-08-18T02:39:13.000Z</time>
      </trkpt>
      <trkpt lat="22.873471" lon="110.649603">
        <ele>98.478591</ele>
        <time>2026-08-18T02:39:14.000Z</time>
      </trkpt>
      <trkpt lat="22.873432" lon="110.649600">
        <ele>98.443958</ele>
        <time>2026-08-18T02:39:15.000Z</time>
      </trkpt>
      <trkpt lat="22.873396" lon="110.649597">
        <ele>98.411976</ele>
        <time>2026-08-18T02:39:16.000Z</time>
      </trkpt>
      <trkpt lat="22.873367" lon="110.649587">
        <ele>98.385023</ele>
        <time>2026-08-18T02:39:17.000Z</time>
      </trkpt>
      <trkpt lat="22.873333" lon="110.649576">
        <ele>98.353597</ele>
        <time>2026-08-18T02:39:18.000Z</time>
      </trkpt>
      <trkpt lat="22.873296" lon="110.649552">
        <ele>98.315415</ele>
        <time>2026-08-18T02:39:19.000Z</time>
      </trkpt>
      <trkpt lat="22.873255" lon="110.649537">
        <ele>98.277090</ele>
        <time>2026-08-18T02:39:20.000Z</time>
      </trkpt>
      <trkpt lat="22.873217" lon="110.649523">
        <ele>98.241544</ele>
        <time>2026-08-18T02:39:21.000Z</time>
      </trkpt>
      <trkpt lat="22.873179" lon="110.649508">
        <ele>98.205727</ele>
        <time>2026-08-18T02:39:22.000Z</time>
      </trkpt>
      <trkpt lat="22.873139" lon="110.649490">
        <ele>98.167370</ele>
        <time>2026-08-18T02:39:23.000Z</time>
      </trkpt>
      <trkpt lat="22.873102" lon="110.649472">
        <ele>98.131454</ele>
        <time>2026-08-18T02:39:24.000Z</time>
      </trkpt>
      <trkpt lat="22.873061" lon="110.649453">
        <ele>98.091965</ele>
        <time>2026-08-18T02:39:25.000Z</time>
      </trkpt>
      <trkpt lat="22.873022" lon="110.649437">
        <ele>98.055034</ele>
        <time>2026-08-18T02:39:26.000Z</time>
      </trkpt>
      <trkpt lat="22.872987" lon="110.649426">
        <ele>98.022757</ele>
        <time>2026-08-18T02:39:27.000Z</time>
      </trkpt>
      <trkpt lat="22.872951" lon="110.649414">
        <ele>97.989399</ele>
        <time>2026-08-18T02:39:28.000Z</time>
      </trkpt>
      <trkpt lat="22.872916" lon="110.649400">
        <ele>97.956358</ele>
        <time>2026-08-18T02:39:29.000Z</time>
      </trkpt>
      <trkpt lat="22.872883" lon="110.649383">
        <ele>97.924001</ele>
        <time>2026-08-18T02:39:30.000Z</time>
      </trkpt>
      <trkpt lat="22.872850" lon="110.649369">
        <ele>97.892616</ele>
        <time>2026-08-18T02:39:31.000Z</time>
      </trkpt>
      <trkpt lat="22.872821" lon="110.649356">
        <ele>97.864824</ele>
        <time>2026-08-18T02:39:32.000Z</time>
      </trkpt>
      <trkpt lat="22.872786" lon="110.649348">
        <ele>97.833141</ele>
        <time>2026-08-18T02:39:33.000Z</time>
      </trkpt>
      <trkpt lat="22.872749" lon="110.649338">
        <ele>97.799366</ele>
        <time>2026-08-18T02:39:34.000Z</time>
      </trkpt>
      <trkpt lat="22.872714" lon="110.649332">
        <ele>97.767979</ele>
        <time>2026-08-18T02:39:35.000Z</time>
      </trkpt>
      <trkpt lat="22.872675" lon="110.649336">
        <ele>97.733279</ele>
        <time>2026-08-18T02:39:36.000Z</time>
      </trkpt>
      <trkpt lat="22.872631" lon="110.649345">
        <ele>97.693618</ele>
        <time>2026-08-18T02:39:37.000Z</time>
      </trkpt>
      <trkpt lat="22.872594" lon="110.649360">
        <ele>97.658632</ele>
        <time>2026-08-18T02:39:38.000Z</time>
      </trkpt>
      <trkpt lat="22.872561" lon="110.649369">
        <ele>97.628493</ele>
        <time>2026-08-18T02:39:39.000Z</time>
      </trkpt>
      <trkpt lat="22.872517" lon="110.649376">
        <ele>97.589101</ele>
        <time>2026-08-18T02:39:40.000Z</time>
      </trkpt>
      <trkpt lat="22.872478" lon="110.649398">
        <ele>97.550168</ele>
        <time>2026-08-18T02:39:41.000Z</time>
      </trkpt>
      <trkpt lat="22.872438" lon="110.649417">
        <ele>97.511492</ele>
        <time>2026-08-18T02:39:42.000Z</time>
      </trkpt>
      <trkpt lat="22.872400" lon="110.649431">
        <ele>97.475946</ele>
        <time>2026-08-18T02:39:43.000Z</time>
      </trkpt>
      <trkpt lat="22.872368" lon="110.649449">
        <ele>97.444020</ele>
        <time>2026-08-18T02:39:44.000Z</time>
      </trkpt>
      <trkpt lat="22.872334" lon="110.649467">
        <ele>97.410511</ele>
        <time>2026-08-18T02:39:45.000Z</time>
      </trkpt>
      <trkpt lat="22.872298" lon="110.649485">
        <ele>97.375401</ele>
        <time>2026-08-18T02:39:46.000Z</time>
      </trkpt>
      <trkpt lat="22.872265" lon="110.649512">
        <ele>97.338795</ele>
        <time>2026-08-18T02:39:47.000Z</time>
      </trkpt>
      <trkpt lat="22.872224" lon="110.649526">
        <ele>97.300722</ele>
        <time>2026-08-18T02:39:48.000Z</time>
      </trkpt>
      <trkpt lat="22.872168" lon="110.649535">
        <ele>97.250577</ele>
        <time>2026-08-18T02:39:49.000Z</time>
      </trkpt>
      <trkpt lat="22.872114" lon="110.649543">
        <ele>97.202301</ele>
        <time>2026-08-18T02:39:50.000Z</time>
      </trkpt>
      <trkpt lat="22.872057" lon="110.649551">
        <ele>97.151391</ele>
        <time>2026-08-18T02:39:51.000Z</time>
      </trkpt>
      <trkpt lat="22.871998" lon="110.649559">
        <ele>97.098723</ele>
        <time>2026-08-18T02:39:52.000Z</time>
      </trkpt>
      <trkpt lat="22.871933" lon="110.649566">
        <ele>97.040864</ele>
        <time>2026-08-18T02:39:53.000Z</time>
      </trkpt>
      <trkpt lat="22.871869" lon="110.649585">
        <ele>97.010974</ele>
        <time>2026-08-18T02:39:54.000Z</time>
      </trkpt>
      <trkpt lat="22.871807" lon="110.649610">
        <ele>97.218407</ele>
        <time>2026-08-18T02:39:55.000Z</time>
      </trkpt>
      <trkpt lat="22.871747" lon="110.649635">
        <ele>97.419971</ele>
        <time>2026-08-18T02:39:56.000Z</time>
      </trkpt>
      <trkpt lat="22.871689" lon="110.649660">
        <ele>97.615693</ele>
        <time>2026-08-18T02:39:57.000Z</time>
      </trkpt>
      <trkpt lat="22.871632" lon="110.649685">
        <ele>97.808503</ele>
        <time>2026-08-18T02:39:58.000Z</time>
      </trkpt>
      <trkpt lat="22.871579" lon="110.649708">
        <ele>97.987519</ele>
        <time>2026-08-18T02:39:59.000Z</time>
      </trkpt>
      <trkpt lat="22.871526" lon="110.649735">
        <ele>98.171139</ele>
        <time>2026-08-18T02:40:00.000Z</time>
      </trkpt>
      <trkpt lat="22.871476" lon="110.649761">
        <ele>98.345020</ele>
        <time>2026-08-18T02:40:01.000Z</time>
      </trkpt>
      <trkpt lat="22.871427" lon="110.649787">
        <ele>98.516078</ele>
        <time>2026-08-18T02:40:02.000Z</time>
      </trkpt>
      <trkpt lat="22.871379" lon="110.649814">
        <ele>98.685634</ele>
        <time>2026-08-18T02:40:03.000Z</time>
      </trkpt>
      <trkpt lat="22.871329" lon="110.649836">
        <ele>98.854842</ele>
        <time>2026-08-18T02:40:04.000Z</time>
      </trkpt>
      <trkpt lat="22.871282" lon="110.649856">
        <ele>99.013170</ele>
        <time>2026-08-18T02:40:05.000Z</time>
      </trkpt>
      <trkpt lat="22.871235" lon="110.649878">
        <ele>99.173698</ele>
        <time>2026-08-18T02:40:06.000Z</time>
      </trkpt>
      <trkpt lat="22.871189" lon="110.649900">
        <ele>99.331350</ele>
        <time>2026-08-18T02:40:07.000Z</time>
      </trkpt>
      <trkpt lat="22.871143" lon="110.649920">
        <ele>99.486762</ele>
        <time>2026-08-18T02:40:08.000Z</time>
      </trkpt>
      <trkpt lat="22.871100" lon="110.649939">
        <ele>99.632368</ele>
        <time>2026-08-18T02:40:09.000Z</time>
      </trkpt>
      <trkpt lat="22.871062" lon="110.649958">
        <ele>99.763584</ele>
        <time>2026-08-18T02:40:10.000Z</time>
      </trkpt>
      <trkpt lat="22.871028" lon="110.649977">
        <ele>99.883521</ele>
        <time>2026-08-18T02:40:11.000Z</time>
      </trkpt>
      <trkpt lat="22.870998" lon="110.649993">
        <ele>99.988354</ele>
        <time>2026-08-18T02:40:12.000Z</time>
      </trkpt>
      <trkpt lat="22.870973" lon="110.650005">
        <ele>100.074085</ele>
        <time>2026-08-18T02:40:13.000Z</time>
      </trkpt>
      <trkpt lat="22.870951" lon="110.650016">
        <ele>100.150052</ele>
        <time>2026-08-18T02:40:14.000Z</time>
      </trkpt>
      <trkpt lat="22.870933" lon="110.650026">
        <ele>100.213471</ele>
        <time>2026-08-18T02:40:15.000Z</time>
      </trkpt>
      <trkpt lat="22.870918" lon="110.650035">
        <ele>100.267224</ele>
        <time>2026-08-18T02:40:16.000Z</time>
      </trkpt>
      <trkpt lat="22.870902" lon="110.650041">
        <ele>100.320315</ele>
        <time>2026-08-18T02:40:17.000Z</time>
      </trkpt>
      <trkpt lat="22.870885" lon="110.650049">
        <ele>100.378427</ele>
        <time>2026-08-18T02:40:18.000Z</time>
      </trkpt>
      <trkpt lat="22.870871" lon="110.650057">
        <ele>100.428048</ele>
        <time>2026-08-18T02:40:19.000Z</time>
      </trkpt>
      <trkpt lat="22.870857" lon="110.650066">
        <ele>100.479080</ele>
        <time>2026-08-18T02:40:20.000Z</time>
      </trkpt>
      <trkpt lat="22.870844" lon="110.650077">
        <ele>100.530777</ele>
        <time>2026-08-18T02:40:21.000Z</time>
      </trkpt>
      <trkpt lat="22.870834" lon="110.650087">
        <ele>100.573422</ele>
        <time>2026-08-18T02:40:22.000Z</time>
      </trkpt>
      <trkpt lat="22.870819" lon="110.650101">
        <ele>100.635469</ele>
        <time>2026-08-18T02:40:23.000Z</time>
      </trkpt>
      <trkpt lat="22.870806" lon="110.650110">
        <ele>100.683828</ele>
        <time>2026-08-18T02:40:24.000Z</time>
      </trkpt>
      <trkpt lat="22.870796" lon="110.650122">
        <ele>100.730583</ele>
        <time>2026-08-18T02:40:25.000Z</time>
      </trkpt>
      <trkpt lat="22.870787" lon="110.650132">
        <ele>100.770978</ele>
        <time>2026-08-18T02:40:26.000Z</time>
      </trkpt>
      <trkpt lat="22.870775" lon="110.650140">
        <ele>100.815146</ele>
        <time>2026-08-18T02:40:27.000Z</time>
      </trkpt>
      <trkpt lat="22.870763" lon="110.650151">
        <ele>100.864408</ele>
        <time>2026-08-18T02:40:28.000Z</time>
      </trkpt>
      <trkpt lat="22.870751" lon="110.650161">
        <ele>100.911857</ele>
        <time>2026-08-18T02:40:29.000Z</time>
      </trkpt>
      <trkpt lat="22.870737" lon="110.650174">
        <ele>100.969641</ele>
        <time>2026-08-18T02:40:30.000Z</time>
      </trkpt>
      <trkpt lat="22.870724" lon="110.650188">
        <ele>101.027077</ele>
        <time>2026-08-18T02:40:31.000Z</time>
      </trkpt>
      <trkpt lat="22.870707" lon="110.650201">
        <ele>101.092298</ele>
        <time>2026-08-18T02:40:32.000Z</time>
      </trkpt>
      <trkpt lat="22.870690" lon="110.650215">
        <ele>101.159225</ele>
        <time>2026-08-18T02:40:33.000Z</time>
      </trkpt>
      <trkpt lat="22.870672" lon="110.650232">
        <ele>101.234059</ele>
        <time>2026-08-18T02:40:34.000Z</time>
      </trkpt>
      <trkpt lat="22.870655" lon="110.650249">
        <ele>101.306556</ele>
        <time>2026-08-18T02:40:35.000Z</time>
      </trkpt>
      <trkpt lat="22.870637" lon="110.650267">
        <ele>101.383317</ele>
        <time>2026-08-18T02:40:36.000Z</time>
      </trkpt>
      <trkpt lat="22.870617" lon="110.650282">
        <ele>101.459562</ele>
        <time>2026-08-18T02:40:37.000Z</time>
      </trkpt>
      <trkpt lat="22.870602" lon="110.650301">
        <ele>101.531863</ele>
        <time>2026-08-18T02:40:38.000Z</time>
      </trkpt>
      <trkpt lat="22.870587" lon="110.650321">
        <ele>101.606383</ele>
        <time>2026-08-18T02:40:39.000Z</time>
      </trkpt>
      <trkpt lat="22.870574" lon="110.650341">
        <ele>101.677111</ele>
        <time>2026-08-18T02:40:40.000Z</time>
      </trkpt>
      <trkpt lat="22.870562" lon="110.650360">
        <ele>101.743675</ele>
        <time>2026-08-18T02:40:41.000Z</time>
      </trkpt>
      <trkpt lat="22.870549" lon="110.650379">
        <ele>101.812061</ele>
        <time>2026-08-18T02:40:42.000Z</time>
      </trkpt>
      <trkpt lat="22.870535" lon="110.650397">
        <ele>101.880130</ele>
        <time>2026-08-18T02:40:43.000Z</time>
      </trkpt>
      <trkpt lat="22.870522" lon="110.650415">
        <ele>101.946219</ele>
        <time>2026-08-18T02:40:44.000Z</time>
      </trkpt>
      <trkpt lat="22.870508" lon="110.650433">
        <ele>102.014288</ele>
        <time>2026-08-18T02:40:45.000Z</time>
      </trkpt>
      <trkpt lat="22.870493" lon="110.650449">
        <ele>102.080248</ele>
        <time>2026-08-18T02:40:46.000Z</time>
      </trkpt>
      <trkpt lat="22.870478" lon="110.650466">
        <ele>102.148265</ele>
        <time>2026-08-18T02:40:47.000Z</time>
      </trkpt>
      <trkpt lat="22.870461" lon="110.650482">
        <ele>102.218836</ele>
        <time>2026-08-18T02:40:48.000Z</time>
      </trkpt>
      <trkpt lat="22.870445" lon="110.650500">
        <ele>102.291109</ele>
        <time>2026-08-18T02:40:49.000Z</time>
      </trkpt>
      <trkpt lat="22.870427" lon="110.650520">
        <ele>102.371899</ele>
        <time>2026-08-18T02:40:50.000Z</time>
      </trkpt>
      <trkpt lat="22.870411" lon="110.650535">
        <ele>102.438208</ele>
        <time>2026-08-18T02:40:51.000Z</time>
      </trkpt>
      <trkpt lat="22.870396" lon="110.650547">
        <ele>102.496650</ele>
        <time>2026-08-18T02:40:52.000Z</time>
      </trkpt>
      <trkpt lat="22.870381" lon="110.650560">
        <ele>102.556852</ele>
        <time>2026-08-18T02:40:53.000Z</time>
      </trkpt>
      <trkpt lat="22.870364" lon="110.650571">
        <ele>102.618924</ele>
        <time>2026-08-18T02:40:54.000Z</time>
      </trkpt>
      <trkpt lat="22.870346" lon="110.650582">
        <ele>102.700376</ele>
        <time>2026-08-18T02:40:55.000Z</time>
      </trkpt>
      <trkpt lat="22.870332" lon="110.650593">
        <ele>102.771221</ele>
        <time>2026-08-18T02:40:56.000Z</time>
      </trkpt>
      <trkpt lat="22.870319" lon="110.650603">
        <ele>102.836533</ele>
        <time>2026-08-18T02:40:57.000Z</time>
      </trkpt>
      <trkpt lat="22.870313" lon="110.650610">
        <ele>102.872641</ele>
        <time>2026-08-18T02:40:58.000Z</time>
      </trkpt>
      <trkpt lat="22.870234" lon="110.650607">
        <ele>103.196654</ele>
        <time>2026-08-18T02:42:40.000Z</time>
      </trkpt>
      <trkpt lat="22.870220" lon="110.650595">
        <ele>103.269777</ele>
        <time>2026-08-18T02:42:41.000Z</time>
      </trkpt>
      <trkpt lat="22.870203" lon="110.650585">
        <ele>103.349035</ele>
        <time>2026-08-18T02:42:42.000Z</time>
      </trkpt>
      <trkpt lat="22.870181" lon="110.650578">
        <ele>103.443007</ele>
        <time>2026-08-18T02:42:43.000Z</time>
      </trkpt>
      <trkpt lat="22.870157" lon="110.650572">
        <ele>103.543957</ele>
        <time>2026-08-18T02:42:44.000Z</time>
      </trkpt>
      <trkpt lat="22.870135" lon="110.650568">
        <ele>103.635390</ele>
        <time>2026-08-18T02:42:45.000Z</time>
      </trkpt>
      <trkpt lat="22.870112" lon="110.650565">
        <ele>103.730344</ele>
        <time>2026-08-18T02:42:46.000Z</time>
      </trkpt>
      <trkpt lat="22.870088" lon="110.650560">
        <ele>103.830514</ele>
        <time>2026-08-18T02:42:47.000Z</time>
      </trkpt>
      <trkpt lat="22.870062" lon="110.650556">
        <ele>103.938151</ele>
        <time>2026-08-18T02:42:48.000Z</time>
      </trkpt>
      <trkpt lat="22.870036" lon="110.650553">
        <ele>104.045324</ele>
        <time>2026-08-18T02:42:49.000Z</time>
      </trkpt>
      <trkpt lat="22.870010" lon="110.650550">
        <ele>104.152497</ele>
        <time>2026-08-18T02:42:50.000Z</time>
      </trkpt>
      <trkpt lat="22.869984" lon="110.650545">
        <ele>104.260729</ele>
        <time>2026-08-18T02:42:51.000Z</time>
      </trkpt>
      <trkpt lat="22.869957" lon="110.650539">
        <ele>104.373696</ele>
        <time>2026-08-18T02:42:52.000Z</time>
      </trkpt>
      <trkpt lat="22.869931" lon="110.650531">
        <ele>104.484468</ele>
        <time>2026-08-18T02:42:53.000Z</time>
      </trkpt>
      <trkpt lat="22.869907" lon="110.650524">
        <ele>104.586332</ele>
        <time>2026-08-18T02:42:54.000Z</time>
      </trkpt>
      <trkpt lat="22.869883" lon="110.650516">
        <ele>104.689242</ele>
        <time>2026-08-18T02:42:55.000Z</time>
      </trkpt>
      <trkpt lat="22.869860" lon="110.650508">
        <ele>104.788240</ele>
        <time>2026-08-18T02:42:56.000Z</time>
      </trkpt>
      <trkpt lat="22.869837" lon="110.650497">
        <ele>104.891263</ele>
        <time>2026-08-18T02:42:57.000Z</time>
      </trkpt>
      <trkpt lat="22.869814" lon="110.650487">
        <ele>104.992822</ele>
        <time>2026-08-18T02:42:58.000Z</time>
      </trkpt>
      <trkpt lat="22.869792" lon="110.650476">
        <ele>105.092108</ele>
        <time>2026-08-18T02:42:59.000Z</time>
      </trkpt>
      <trkpt lat="22.869772" lon="110.650465">
        <ele>105.184012</ele>
        <time>2026-08-18T02:43:00.000Z</time>
      </trkpt>
      <trkpt lat="22.869753" lon="110.650457">
        <ele>105.267547</ele>
        <time>2026-08-18T02:43:01.000Z</time>
      </trkpt>
      <trkpt lat="22.869737" lon="110.650452">
        <ele>105.335794</ele>
        <time>2026-08-18T02:43:02.000Z</time>
      </trkpt>
      <trkpt lat="22.869717" lon="110.650445">
        <ele>105.421930</ele>
        <time>2026-08-18T02:43:03.000Z</time>
      </trkpt>
      <trkpt lat="22.869695" lon="110.650437">
        <ele>105.517033</ele>
        <time>2026-08-18T02:43:04.000Z</time>
      </trkpt>
      <trkpt lat="22.869673" lon="110.650428">
        <ele>105.613403</ele>
        <time>2026-08-18T02:43:05.000Z</time>
      </trkpt>
      <trkpt lat="22.869652" lon="110.650419">
        <ele>105.705948</ele>
        <time>2026-08-18T02:43:06.000Z</time>
      </trkpt>
      <trkpt lat="22.869630" lon="110.650412">
        <ele>105.799920</ele>
        <time>2026-08-18T02:43:07.000Z</time>
      </trkpt>
      <trkpt lat="22.869606" lon="110.650405">
        <ele>105.901785</ele>
        <time>2026-08-18T02:43:08.000Z</time>
      </trkpt>
      <trkpt lat="22.869583" lon="110.650399">
        <ele>105.998745</ele>
        <time>2026-08-18T02:43:09.000Z</time>
      </trkpt>
      <trkpt lat="22.869560" lon="110.650391">
        <ele>106.097743</ele>
        <time>2026-08-18T02:43:10.000Z</time>
      </trkpt>
      <trkpt lat="22.869539" lon="110.650381">
        <ele>106.191742</ele>
        <time>2026-08-18T02:43:11.000Z</time>
      </trkpt>
      <trkpt lat="22.869518" lon="110.650370">
        <ele>106.287320</ele>
        <time>2026-08-18T02:43:12.000Z</time>
      </trkpt>
      <trkpt lat="22.869499" lon="110.650359">
        <ele>106.375587</ele>
        <time>2026-08-18T02:43:13.000Z</time>
      </trkpt>
      <trkpt lat="22.869480" lon="110.650347">
        <ele>106.465694</ele>
        <time>2026-08-18T02:43:14.000Z</time>
      </trkpt>
      <trkpt lat="22.869459" lon="110.650334">
        <ele>106.564789</ele>
        <time>2026-08-18T02:43:15.000Z</time>
      </trkpt>
      <trkpt lat="22.869440" lon="110.650320">
        <ele>106.658921</ele>
        <time>2026-08-18T02:43:16.000Z</time>
      </trkpt>
      <trkpt lat="22.869421" lon="110.650307">
        <ele>106.750985</ele>
        <time>2026-08-18T02:43:17.000Z</time>
      </trkpt>
      <trkpt lat="22.869401" lon="110.650295">
        <ele>106.844657</ele>
        <time>2026-08-18T02:43:18.000Z</time>
      </trkpt>
      <trkpt lat="22.869382" lon="110.650284">
        <ele>106.932925</ele>
        <time>2026-08-18T02:43:19.000Z</time>
      </trkpt>
      <trkpt lat="22.869365" lon="110.650271">
        <ele>107.018166</ele>
        <time>2026-08-18T02:43:20.000Z</time>
      </trkpt>
      <trkpt lat="22.869346" lon="110.650256">
        <ele>107.114470</ele>
        <time>2026-08-18T02:43:21.000Z</time>
      </trkpt>
      <trkpt lat="22.869330" lon="110.650240">
        <ele>107.203648</ele>
        <time>2026-08-18T02:43:22.000Z</time>
      </trkpt>
      <trkpt lat="22.869315" lon="110.650225">
        <ele>107.287251</ele>
        <time>2026-08-18T02:43:23.000Z</time>
      </trkpt>
      <trkpt lat="22.869300" lon="110.650209">
        <ele>107.373459</ele>
        <time>2026-08-18T02:43:24.000Z</time>
      </trkpt>
      <trkpt lat="22.869288" lon="110.650197">
        <ele>107.440342</ele>
        <time>2026-08-18T02:43:25.000Z</time>
      </trkpt>
      <trkpt lat="22.869279" lon="110.650181">
        <ele>107.511140</ele>
        <time>2026-08-18T02:43:26.000Z</time>
      </trkpt>
      <trkpt lat="22.869264" lon="110.650167">
        <ele>107.592232</ele>
        <time>2026-08-18T02:43:27.000Z</time>
      </trkpt>
      <trkpt lat="22.869251" lon="110.650155">
        <ele>107.662185</ele>
        <time>2026-08-18T02:43:28.000Z</time>
      </trkpt>
      <trkpt lat="22.869238" lon="110.650143">
        <ele>107.732138</ele>
        <time>2026-08-18T02:43:29.000Z</time>
      </trkpt>
      <trkpt lat="22.869222" lon="110.650134">
        <ele>107.806005</ele>
        <time>2026-08-18T02:43:30.000Z</time>
      </trkpt>
      <trkpt lat="22.869208" lon="110.650120">
        <ele>107.884036</ele>
        <time>2026-08-18T02:43:31.000Z</time>
      </trkpt>
      <trkpt lat="22.869198" lon="110.650106">
        <ele>107.950937</ele>
        <time>2026-08-18T02:43:32.000Z</time>
      </trkpt>
      <trkpt lat="22.869188" lon="110.650092">
        <ele>108.017838</ele>
        <time>2026-08-18T02:43:33.000Z</time>
      </trkpt>
      <trkpt lat="22.869181" lon="110.650075">
        <ele>108.088162</ele>
        <time>2026-08-18T02:43:34.000Z</time>
      </trkpt>
      <trkpt lat="22.869175" lon="110.650061">
        <ele>108.146476</ele>
        <time>2026-08-18T02:43:35.000Z</time>
      </trkpt>
      <trkpt lat="22.869167" lon="110.650048">
        <ele>108.205517</ele>
        <time>2026-08-18T02:43:36.000Z</time>
      </trkpt>
      <trkpt lat="22.869158" lon="110.650034">
        <ele>108.269989</ele>
        <time>2026-08-18T02:43:37.000Z</time>
      </trkpt>
      <trkpt lat="22.869147" lon="110.650014">
        <ele>108.357957</ele>
        <time>2026-08-18T02:43:38.000Z</time>
      </trkpt>
      <trkpt lat="22.869134" lon="110.649992">
        <ele>108.456664</ele>
        <time>2026-08-18T02:43:39.000Z</time>
      </trkpt>
      <trkpt lat="22.869122" lon="110.649974">
        <ele>108.540573</ele>
        <time>2026-08-18T02:43:40.000Z</time>
      </trkpt>
      <trkpt lat="22.869110" lon="110.649959">
        <ele>108.615598</ele>
        <time>2026-08-18T02:43:41.000Z</time>
      </trkpt>
      <trkpt lat="22.869096" lon="110.649945">
        <ele>108.693628</ele>
        <time>2026-08-18T02:43:42.000Z</time>
      </trkpt>
      <trkpt lat="22.869087" lon="110.649937">
        <ele>108.741312</ele>
        <time>2026-08-18T02:43:43.000Z</time>
      </trkpt>
      <trkpt lat="22.869073" lon="110.649922">
        <ele>108.821949</ele>
        <time>2026-08-18T02:43:44.000Z</time>
      </trkpt>
      <trkpt lat="22.869058" lon="110.649905">
        <ele>108.910845</ele>
        <time>2026-08-18T02:43:45.000Z</time>
      </trkpt>
      <trkpt lat="22.869039" lon="110.649887">
        <ele>109.014221</ele>
        <time>2026-08-18T02:43:46.000Z</time>
      </trkpt>
      <trkpt lat="22.869024" lon="110.649869">
        <ele>109.105882</ele>
        <time>2026-08-18T02:43:47.000Z</time>
      </trkpt>
      <trkpt lat="22.869006" lon="110.649847">
        <ele>109.217000</ele>
        <time>2026-08-18T02:43:48.000Z</time>
      </trkpt>
      <trkpt lat="22.868986" lon="110.649826">
        <ele>109.331065</ele>
        <time>2026-08-18T02:43:49.000Z</time>
      </trkpt>
      <trkpt lat="22.868966" lon="110.649809">
        <ele>109.435193</ele>
        <time>2026-08-18T02:43:50.000Z</time>
      </trkpt>
      <trkpt lat="22.868947" lon="110.649792">
        <ele>109.536126</ele>
        <time>2026-08-18T02:43:51.000Z</time>
      </trkpt>
      <trkpt lat="22.868929" lon="110.649782">
        <ele>109.619011</ele>
        <time>2026-08-18T02:43:52.000Z</time>
      </trkpt>
      <trkpt lat="22.868907" lon="110.649768">
        <ele>109.723546</ele>
        <time>2026-08-18T02:43:53.000Z</time>
      </trkpt>
      <trkpt lat="22.868886" lon="110.649754">
        <ele>109.824565</ele>
        <time>2026-08-18T02:43:54.000Z</time>
      </trkpt>
      <trkpt lat="22.868866" lon="110.649740">
        <ele>109.922116</ele>
        <time>2026-08-18T02:43:55.000Z</time>
      </trkpt>
      <trkpt lat="22.868843" lon="110.649729">
        <ele>109.996478</ele>
        <time>2026-08-18T02:43:56.000Z</time>
      </trkpt>
      <trkpt lat="22.868820" lon="110.649717">
        <ele>109.971970</ele>
        <time>2026-08-18T02:43:57.000Z</time>
      </trkpt>
      <trkpt lat="22.868794" lon="110.649705">
        <ele>109.944836</ele>
        <time>2026-08-18T02:43:58.000Z</time>
      </trkpt>
      <trkpt lat="22.868760" lon="110.649692">
        <ele>109.910217</ele>
        <time>2026-08-18T02:43:59.000Z</time>
      </trkpt>
      <trkpt lat="22.868726" lon="110.649683">
        <ele>109.876607</ele>
        <time>2026-08-18T02:44:00.000Z</time>
      </trkpt>
      <trkpt lat="22.868689" lon="110.649679">
        <ele>109.840898</ele>
        <time>2026-08-18T02:44:01.000Z</time>
      </trkpt>
      <trkpt lat="22.868644" lon="110.649685">
        <ele>109.797357</ele>
        <time>2026-08-18T02:44:02.000Z</time>
      </trkpt>
      <trkpt lat="22.868601" lon="110.649686">
        <ele>109.756052</ele>
        <time>2026-08-18T02:44:03.000Z</time>
      </trkpt>
      <trkpt lat="22.868566" lon="110.649691">
        <ele>109.722149</ele>
        <time>2026-08-18T02:44:04.000Z</time>
      </trkpt>
      <trkpt lat="22.868529" lon="110.649696">
        <ele>109.686341</ele>
        <time>2026-08-18T02:44:05.000Z</time>
      </trkpt>
      <trkpt lat="22.868490" lon="110.649703">
        <ele>109.648378</ele>
        <time>2026-08-18T02:44:06.000Z</time>
      </trkpt>
      <trkpt lat="22.868450" lon="110.649707">
        <ele>109.609801</ele>
        <time>2026-08-18T02:44:07.000Z</time>
      </trkpt>
      <trkpt lat="22.868415" lon="110.649716">
        <ele>109.575258</ele>
        <time>2026-08-18T02:44:08.000Z</time>
      </trkpt>
      <trkpt lat="22.868379" lon="110.649725">
        <ele>109.539779</ele>
        <time>2026-08-18T02:44:09.000Z</time>
      </trkpt>
      <trkpt lat="22.868343" lon="110.649733">
        <ele>109.504489</ele>
        <time>2026-08-18T02:44:10.000Z</time>
      </trkpt>
      <trkpt lat="22.868308" lon="110.649733">
        <ele>109.470876</ele>
        <time>2026-08-18T02:44:11.000Z</time>
      </trkpt>
      <trkpt lat="22.868270" lon="110.649736">
        <ele>109.434286</ele>
        <time>2026-08-18T02:44:12.000Z</time>
      </trkpt>
      <trkpt lat="22.868234" lon="110.649737">
        <ele>109.399702</ele>
        <time>2026-08-18T02:44:13.000Z</time>
      </trkpt>
      <trkpt lat="22.868195" lon="110.649739">
        <ele>109.362206</ele>
        <time>2026-08-18T02:44:14.000Z</time>
      </trkpt>
      <trkpt lat="22.868160" lon="110.649744">
        <ele>109.328303</ele>
        <time>2026-08-18T02:44:15.000Z</time>
      </trkpt>
      <trkpt lat="22.868124" lon="110.649751">
        <ele>109.293180</ele>
        <time>2026-08-18T02:44:16.000Z</time>
      </trkpt>
      <trkpt lat="22.868090" lon="110.649756">
        <ele>109.260229</ele>
        <time>2026-08-18T02:44:17.000Z</time>
      </trkpt>
      <trkpt lat="22.868056" lon="110.649760">
        <ele>109.227385</ele>
        <time>2026-08-18T02:44:18.000Z</time>
      </trkpt>
      <trkpt lat="22.868025" lon="110.649761">
        <ele>109.197601</ele>
        <time>2026-08-18T02:44:19.000Z</time>
      </trkpt>
      <trkpt lat="22.867997" lon="110.649771">
        <ele>109.169292</ele>
        <time>2026-08-18T02:44:20.000Z</time>
      </trkpt>
      <trkpt lat="22.867968" lon="110.649777">
        <ele>109.140940</ele>
        <time>2026-08-18T02:44:21.000Z</time>
      </trkpt>
      <trkpt lat="22.867936" lon="110.649777">
        <ele>109.110208</ele>
        <time>2026-08-18T02:44:22.000Z</time>
      </trkpt>
      <trkpt lat="22.867912" lon="110.649781">
        <ele>109.086890</ele>
        <time>2026-08-18T02:44:23.000Z</time>
      </trkpt>
      <trkpt lat="22.867893" lon="110.649786">
        <ele>109.068114</ele>
        <time>2026-08-18T02:44:24.000Z</time>
      </trkpt>
      <trkpt lat="22.867878" lon="110.649788">
        <ele>109.053600</ele>
        <time>2026-08-18T02:44:25.000Z</time>
      </trkpt>
      <trkpt lat="22.867865" lon="110.649794">
        <ele>109.040033</ele>
        <time>2026-08-18T02:44:26.000Z</time>
      </trkpt>
      <trkpt lat="22.867849" lon="110.649802">
        <ele>109.023115</ele>
        <time>2026-08-18T02:44:27.000Z</time>
      </trkpt>
      <trkpt lat="22.867837" lon="110.649810">
        <ele>109.009590</ele>
        <time>2026-08-18T02:44:28.000Z</time>
      </trkpt>
      <trkpt lat="22.867813" lon="110.649825">
        <ele>108.982993</ele>
        <time>2026-08-18T02:44:29.000Z</time>
      </trkpt>
      <trkpt lat="22.867793" lon="110.649846">
        <ele>108.956268</ele>
        <time>2026-08-18T02:44:30.000Z</time>
      </trkpt>
      <trkpt lat="22.867766" lon="110.649866">
        <ele>108.924874</ele>
        <time>2026-08-18T02:44:31.000Z</time>
      </trkpt>
      <trkpt lat="22.867728" lon="110.649882">
        <ele>108.885730</ele>
        <time>2026-08-18T02:44:32.000Z</time>
      </trkpt>
      <trkpt lat="22.867686" lon="110.649905">
        <ele>108.840551</ele>
        <time>2026-08-18T02:44:33.000Z</time>
      </trkpt>
      <trkpt lat="22.867635" lon="110.649930">
        <ele>108.786809</ele>
        <time>2026-08-18T02:44:34.000Z</time>
      </trkpt>
      <trkpt lat="22.867587" lon="110.649951">
        <ele>108.737107</ele>
        <time>2026-08-18T02:44:35.000Z</time>
      </trkpt>
      <trkpt lat="22.867539" lon="110.649962">
        <ele>108.689993</ele>
        <time>2026-08-18T02:44:36.000Z</time>
      </trkpt>
      <trkpt lat="22.867487" lon="110.649979">
        <ele>108.637837</ele>
        <time>2026-08-18T02:44:37.000Z</time>
      </trkpt>
      <trkpt lat="22.867436" lon="110.650001">
        <ele>108.585132</ele>
        <time>2026-08-18T02:44:38.000Z</time>
      </trkpt>
      <trkpt lat="22.867385" lon="110.650019">
        <ele>108.533628</ele>
        <time>2026-08-18T02:44:39.000Z</time>
      </trkpt>
      <trkpt lat="22.867333" lon="110.650036">
        <ele>108.481473</ele>
        <time>2026-08-18T02:44:40.000Z</time>
      </trkpt>
      <trkpt lat="22.867281" lon="110.650044">
        <ele>108.431035</ele>
        <time>2026-08-18T02:44:41.000Z</time>
      </trkpt>
      <trkpt lat="22.867226" lon="110.650045">
        <ele>108.378207</ele>
        <time>2026-08-18T02:44:42.000Z</time>
      </trkpt>
      <trkpt lat="22.867169" lon="110.650036">
        <ele>108.322891</ele>
        <time>2026-08-18T02:44:43.000Z</time>
      </trkpt>
      <trkpt lat="22.867116" lon="110.650024">
        <ele>108.262666</ele>
        <time>2026-08-18T02:44:44.000Z</time>
      </trkpt>
      <trkpt lat="22.867065" lon="110.650008">
        <ele>108.097436</ele>
        <time>2026-08-18T02:44:45.000Z</time>
      </trkpt>
      <trkpt lat="22.867011" lon="110.649987">
        <ele>107.918905</ele>
        <time>2026-08-18T02:44:46.000Z</time>
      </trkpt>
      <trkpt lat="22.866958" lon="110.649965">
        <ele>107.742296</ele>
        <time>2026-08-18T02:44:47.000Z</time>
      </trkpt>
      <trkpt lat="22.866917" lon="110.649941">
        <ele>107.597311</ele>
        <time>2026-08-18T02:44:48.000Z</time>
      </trkpt>
      <trkpt lat="22.866876" lon="110.649918">
        <ele>107.453665</ele>
        <time>2026-08-18T02:44:49.000Z</time>
      </trkpt>
      <trkpt lat="22.866830" lon="110.649898">
        <ele>107.299435</ele>
        <time>2026-08-18T02:44:50.000Z</time>
      </trkpt>
      <trkpt lat="22.866779" lon="110.649886">
        <ele>107.137017</ele>
        <time>2026-08-18T02:44:51.000Z</time>
      </trkpt>
      <trkpt lat="22.866727" lon="110.649876">
        <ele>106.972653</ele>
        <time>2026-08-18T02:44:52.000Z</time>
      </trkpt>
      <trkpt lat="22.866675" lon="110.649873">
        <ele>106.810582</ele>
        <time>2026-08-18T02:44:53.000Z</time>
      </trkpt>
      <trkpt lat="22.866625" lon="110.649887">
        <ele>106.649868</ele>
        <time>2026-08-18T02:44:54.000Z</time>
      </trkpt>
      <trkpt lat="22.866578" lon="110.649907">
        <ele>106.492744</ele>
        <time>2026-08-18T02:44:55.000Z</time>
      </trkpt>
      <trkpt lat="22.866531" lon="110.649933">
        <ele>106.328556</ele>
        <time>2026-08-18T02:44:56.000Z</time>
      </trkpt>
      <trkpt lat="22.866485" lon="110.649963">
        <ele>106.161526</ele>
        <time>2026-08-18T02:44:57.000Z</time>
      </trkpt>
      <trkpt lat="22.866443" lon="110.650001">
        <ele>105.991341</ele>
        <time>2026-08-18T02:44:58.000Z</time>
      </trkpt>
      <trkpt lat="22.866402" lon="110.650044">
        <ele>105.813887</ele>
        <time>2026-08-18T02:44:59.000Z</time>
      </trkpt>
      <trkpt lat="22.866367" lon="110.650091">
        <ele>105.640585</ele>
        <time>2026-08-18T02:45:00.000Z</time>
      </trkpt>
      <trkpt lat="22.866338" lon="110.650144">
        <ele>105.463813</ele>
        <time>2026-08-18T02:45:01.000Z</time>
      </trkpt>
      <trkpt lat="22.866312" lon="110.650198">
        <ele>105.289085</ele>
        <time>2026-08-18T02:45:02.000Z</time>
      </trkpt>
      <trkpt lat="22.866285" lon="110.650254">
        <ele>105.107832</ele>
        <time>2026-08-18T02:45:03.000Z</time>
      </trkpt>
      <trkpt lat="22.866259" lon="110.650312">
        <ele>104.922861</ele>
        <time>2026-08-18T02:45:04.000Z</time>
      </trkpt>
      <trkpt lat="22.866233" lon="110.650371">
        <ele>104.735307</ele>
        <time>2026-08-18T02:45:05.000Z</time>
      </trkpt>
      <trkpt lat="22.866210" lon="110.650430">
        <ele>104.551588</ele>
        <time>2026-08-18T02:45:06.000Z</time>
      </trkpt>
      <trkpt lat="22.866191" lon="110.650494">
        <ele>104.358759</ele>
        <time>2026-08-18T02:45:07.000Z</time>
      </trkpt>
      <trkpt lat="22.866167" lon="110.650553">
        <ele>104.173805</ele>
        <time>2026-08-18T02:45:08.000Z</time>
      </trkpt>
      <trkpt lat="22.866135" lon="110.650611">
        <ele>103.979936</ele>
        <time>2026-08-18T02:45:09.000Z</time>
      </trkpt>
      <trkpt lat="22.866078" lon="110.650656">
        <ele>103.760559</ele>
        <time>2026-08-18T02:45:10.000Z</time>
      </trkpt>
      <trkpt lat="22.866021" lon="110.650703">
        <ele>103.537759</ele>
        <time>2026-08-18T02:45:11.000Z</time>
      </trkpt>
      <trkpt lat="22.865955" lon="110.650742">
        <ele>103.303869</ele>
        <time>2026-08-18T02:45:12.000Z</time>
      </trkpt>
      <trkpt lat="22.865880" lon="110.650779">
        <ele>103.047456</ele>
        <time>2026-08-18T02:45:13.000Z</time>
      </trkpt>
      <trkpt lat="22.865803" lon="110.650816">
        <ele>102.785365</ele>
        <time>2026-08-18T02:45:14.000Z</time>
      </trkpt>
      <trkpt lat="22.865724" lon="110.650855">
        <ele>102.612898</ele>
        <time>2026-08-18T02:45:15.000Z</time>
      </trkpt>
      <trkpt lat="22.865646" lon="110.650897">
        <ele>102.505974</ele>
        <time>2026-08-18T02:45:16.000Z</time>
      </trkpt>
      <trkpt lat="22.865570" lon="110.650940">
        <ele>102.400726</ele>
        <time>2026-08-18T02:45:17.000Z</time>
      </trkpt>
      <trkpt lat="22.865492" lon="110.650983">
        <ele>102.293295</ele>
        <time>2026-08-18T02:45:18.000Z</time>
      </trkpt>
      <trkpt lat="22.865421" lon="110.651033">
        <ele>102.189361</ele>
        <time>2026-08-18T02:45:19.000Z</time>
      </trkpt>
      <trkpt lat="22.865355" lon="110.651087">
        <ele>102.087863</ele>
        <time>2026-08-18T02:45:20.000Z</time>
      </trkpt>
      <trkpt lat="22.865293" lon="110.651144">
        <ele>101.988082</ele>
        <time>2026-08-18T02:45:21.000Z</time>
      </trkpt>
      <trkpt lat="22.865240" lon="110.651202">
        <ele>101.895656</ele>
        <time>2026-08-18T02:45:22.000Z</time>
      </trkpt>
      <trkpt lat="22.865187" lon="110.651257">
        <ele>101.805608</ele>
        <time>2026-08-18T02:45:23.000Z</time>
      </trkpt>
      <trkpt lat="22.865139" lon="110.651313">
        <ele>101.719067</ele>
        <time>2026-08-18T02:45:24.000Z</time>
      </trkpt>
      <trkpt lat="22.865102" lon="110.651373">
        <ele>101.637377</ele>
        <time>2026-08-18T02:45:25.000Z</time>
      </trkpt>
      <trkpt lat="22.865072" lon="110.651440">
        <ele>101.553090</ele>
        <time>2026-08-18T02:45:26.000Z</time>
      </trkpt>
      <trkpt lat="22.865056" lon="110.651507">
        <ele>101.474775</ele>
        <time>2026-08-18T02:45:27.000Z</time>
      </trkpt>
      <trkpt lat="22.865053" lon="110.651577">
        <ele>101.395485</ele>
        <time>2026-08-18T02:45:28.000Z</time>
      </trkpt>
      <trkpt lat="22.865052" lon="110.651648">
        <ele>101.315140</ele>
        <time>2026-08-18T02:45:29.000Z</time>
      </trkpt>
      <trkpt lat="22.865056" lon="110.651724">
        <ele>101.229006</ele>
        <time>2026-08-18T02:45:30.000Z</time>
      </trkpt>
      <trkpt lat="22.865059" lon="110.651802">
        <ele>101.140673</ele>
        <time>2026-08-18T02:45:31.000Z</time>
      </trkpt>
      <trkpt lat="22.865058" lon="110.651877">
        <ele>101.055802</ele>
        <time>2026-08-18T02:45:32.000Z</time>
      </trkpt>
      <trkpt lat="22.865053" lon="110.651950">
        <ele>100.972975</ele>
        <time>2026-08-18T02:45:33.000Z</time>
      </trkpt>
      <trkpt lat="22.865044" lon="110.652024">
        <ele>100.888518</ele>
        <time>2026-08-18T02:45:34.000Z</time>
      </trkpt>
      <trkpt lat="22.865030" lon="110.652094">
        <ele>100.807469</ele>
        <time>2026-08-18T02:45:35.000Z</time>
      </trkpt>
      <trkpt lat="22.865010" lon="110.652159">
        <ele>100.729930</ele>
        <time>2026-08-18T02:45:36.000Z</time>
      </trkpt>
      <trkpt lat="22.864989" lon="110.652229">
        <ele>100.646633</ele>
        <time>2026-08-18T02:45:37.000Z</time>
      </trkpt>
      <trkpt lat="22.864967" lon="110.652290">
        <ele>100.572513</ele>
        <time>2026-08-18T02:45:38.000Z</time>
      </trkpt>
      <trkpt lat="22.864943" lon="110.652348">
        <ele>100.500573</ele>
        <time>2026-08-18T02:45:39.000Z</time>
      </trkpt>
      <trkpt lat="22.864921" lon="110.652404">
        <ele>100.481866</ele>
        <time>2026-08-18T02:45:40.000Z</time>
      </trkpt>
      <trkpt lat="22.864899" lon="110.652462">
        <ele>100.509432</ele>
        <time>2026-08-18T02:45:41.000Z</time>
      </trkpt>
      <trkpt lat="22.864875" lon="110.652516">
        <ele>100.535782</ele>
        <time>2026-08-18T02:45:42.000Z</time>
      </trkpt>
      <trkpt lat="22.864851" lon="110.652573">
        <ele>100.563325</ele>
        <time>2026-08-18T02:45:43.000Z</time>
      </trkpt>
      <trkpt lat="22.864829" lon="110.652631">
        <ele>100.590891</ele>
        <time>2026-08-18T02:45:44.000Z</time>
      </trkpt>
      <trkpt lat="22.864807" lon="110.652688">
        <ele>100.618052</ele>
        <time>2026-08-18T02:45:45.000Z</time>
      </trkpt>
      <trkpt lat="22.864782" lon="110.652745">
        <ele>100.645796</ele>
        <time>2026-08-18T02:45:46.000Z</time>
      </trkpt>
      <trkpt lat="22.864759" lon="110.652803">
        <ele>100.673548</ele>
        <time>2026-08-18T02:45:47.000Z</time>
      </trkpt>
      <trkpt lat="22.864737" lon="110.652861">
        <ele>100.701114</ele>
        <time>2026-08-18T02:45:48.000Z</time>
      </trkpt>
      <trkpt lat="22.864718" lon="110.652922">
        <ele>100.729414</ele>
        <time>2026-08-18T02:45:49.000Z</time>
      </trkpt>
      <trkpt lat="22.864701" lon="110.652980">
        <ele>100.756164</ele>
        <time>2026-08-18T02:45:50.000Z</time>
      </trkpt>
      <trkpt lat="22.864683" lon="110.653037">
        <ele>100.782646</ele>
        <time>2026-08-18T02:45:51.000Z</time>
      </trkpt>
      <trkpt lat="22.864661" lon="110.653089">
        <ele>100.807794</ele>
        <time>2026-08-18T02:45:52.000Z</time>
      </trkpt>
      <trkpt lat="22.864639" lon="110.653144">
        <ele>100.834145</ele>
        <time>2026-08-18T02:45:53.000Z</time>
      </trkpt>
      <trkpt lat="22.864614" lon="110.653196">
        <ele>100.859923</ele>
        <time>2026-08-18T02:45:54.000Z</time>
      </trkpt>
      <trkpt lat="22.864593" lon="110.653239">
        <ele>100.881312</ele>
        <time>2026-08-18T02:45:55.000Z</time>
      </trkpt>
      <trkpt lat="22.864568" lon="110.653286">
        <ele>100.905164</ele>
        <time>2026-08-18T02:45:56.000Z</time>
      </trkpt>
      <trkpt lat="22.864538" lon="110.653335">
        <ele>100.931020</ele>
        <time>2026-08-18T02:45:57.000Z</time>
      </trkpt>
      <trkpt lat="22.864506" lon="110.653380">
        <ele>100.956002</ele>
        <time>2026-08-18T02:45:58.000Z</time>
      </trkpt>
      <trkpt lat="22.864473" lon="110.653425">
        <ele>100.981279</ele>
        <time>2026-08-18T02:45:59.000Z</time>
      </trkpt>
      <trkpt lat="22.864442" lon="110.653468">
        <ele>101.005274</ele>
        <time>2026-08-18T02:46:00.000Z</time>
      </trkpt>
      <trkpt lat="22.864415" lon="110.653514">
        <ele>101.029245</ele>
        <time>2026-08-18T02:46:01.000Z</time>
      </trkpt>
      <trkpt lat="22.864389" lon="110.653562">
        <ele>101.053716</ele>
        <time>2026-08-18T02:46:02.000Z</time>
      </trkpt>
      <trkpt lat="22.864366" lon="110.653614">
        <ele>101.079067</ele>
        <time>2026-08-18T02:46:03.000Z</time>
      </trkpt>
      <trkpt lat="22.864349" lon="110.653668">
        <ele>101.104147</ele>
        <time>2026-08-18T02:46:04.000Z</time>
      </trkpt>
      <trkpt lat="22.864337" lon="110.653722">
        <ele>101.128560</ele>
        <time>2026-08-18T02:46:05.000Z</time>
      </trkpt>
      <trkpt lat="22.864327" lon="110.653775">
        <ele>101.152337</ele>
        <time>2026-08-18T02:46:06.000Z</time>
      </trkpt>
      <trkpt lat="22.864319" lon="110.653829">
        <ele>101.176375</ele>
        <time>2026-08-18T02:46:07.000Z</time>
      </trkpt>
      <trkpt lat="22.864310" lon="110.653883">
        <ele>101.200493</ele>
        <time>2026-08-18T02:46:08.000Z</time>
      </trkpt>
      <trkpt lat="22.864302" lon="110.653936">
        <ele>101.224097</ele>
        <time>2026-08-18T02:46:09.000Z</time>
      </trkpt>
      <trkpt lat="22.864295" lon="110.653990">
        <ele>101.248064</ele>
        <time>2026-08-18T02:46:10.000Z</time>
      </trkpt>
      <trkpt lat="22.864293" lon="110.654046">
        <ele>101.272695</ele>
        <time>2026-08-18T02:46:11.000Z</time>
      </trkpt>
      <trkpt lat="22.864290" lon="110.654098">
        <ele>101.295593</ele>
        <time>2026-08-18T02:46:12.000Z</time>
      </trkpt>
      <trkpt lat="22.864289" lon="110.654150">
        <ele>101.318453</ele>
        <time>2026-08-18T02:46:13.000Z</time>
      </trkpt>
      <trkpt lat="22.864287" lon="110.654202">
        <ele>101.354616</ele>
        <time>2026-08-18T02:46:14.000Z</time>
      </trkpt>
      <trkpt lat="22.864286" lon="110.654256">
        <ele>101.398597</ele>
        <time>2026-08-18T02:46:15.000Z</time>
      </trkpt>
      <trkpt lat="22.864281" lon="110.654305">
        <ele>101.438742</ele>
        <time>2026-08-18T02:46:16.000Z</time>
      </trkpt>
      <trkpt lat="22.864276" lon="110.654354">
        <ele>101.478886</ele>
        <time>2026-08-18T02:46:17.000Z</time>
      </trkpt>
      <trkpt lat="22.864271" lon="110.654404">
        <ele>101.519841</ele>
        <time>2026-08-18T02:46:18.000Z</time>
      </trkpt>
      <trkpt lat="22.864264" lon="110.654453">
        <ele>101.560218</ele>
        <time>2026-08-18T02:46:19.000Z</time>
      </trkpt>
      <trkpt lat="22.864256" lon="110.654504">
        <ele>101.602345</ele>
        <time>2026-08-18T02:46:20.000Z</time>
      </trkpt>
      <trkpt lat="22.864244" lon="110.654552">
        <ele>101.642845</ele>
        <time>2026-08-18T02:46:21.000Z</time>
      </trkpt>
      <trkpt lat="22.864231" lon="110.654602">
        <ele>101.685150</ele>
        <time>2026-08-18T02:46:22.000Z</time>
      </trkpt>
      <trkpt lat="22.864214" lon="110.654649">
        <ele>101.726265</ele>
        <time>2026-08-18T02:46:23.000Z</time>
      </trkpt>
      <trkpt lat="22.864198" lon="110.654697">
        <ele>101.767831</ele>
        <time>2026-08-18T02:46:24.000Z</time>
      </trkpt>
      <trkpt lat="22.864183" lon="110.654746">
        <ele>101.809876</ele>
        <time>2026-08-18T02:46:25.000Z</time>
      </trkpt>
      <trkpt lat="22.864176" lon="110.654796">
        <ele>101.851059</ele>
        <time>2026-08-18T02:46:26.000Z</time>
      </trkpt>
      <trkpt lat="22.864165" lon="110.654843">
        <ele>101.890546</ele>
        <time>2026-08-18T02:46:27.000Z</time>
      </trkpt>
      <trkpt lat="22.864150" lon="110.654888">
        <ele>101.929514</ele>
        <time>2026-08-18T02:46:28.000Z</time>
      </trkpt>
      <trkpt lat="22.864136" lon="110.654934">
        <ele>101.968962</ele>
        <time>2026-08-18T02:46:29.000Z</time>
      </trkpt>
      <trkpt lat="22.864122" lon="110.654978">
        <ele>102.006868</ele>
        <time>2026-08-18T02:46:30.000Z</time>
      </trkpt>
      <trkpt lat="22.864114" lon="110.655025">
        <ele>102.045788</ele>
        <time>2026-08-18T02:46:31.000Z</time>
      </trkpt>
      <trkpt lat="22.864103" lon="110.655072">
        <ele>102.085275</ele>
        <time>2026-08-18T02:46:32.000Z</time>
      </trkpt>
      <trkpt lat="22.864092" lon="110.655118">
        <ele>102.123974</ele>
        <time>2026-08-18T02:46:33.000Z</time>
      </trkpt>
      <trkpt lat="22.864081" lon="110.655165">
        <ele>102.163462</ele>
        <time>2026-08-18T02:46:34.000Z</time>
      </trkpt>
      <trkpt lat="22.864072" lon="110.655211">
        <ele>102.201755</ele>
        <time>2026-08-18T02:46:35.000Z</time>
      </trkpt>
      <trkpt lat="22.864064" lon="110.655257">
        <ele>102.239874</ele>
        <time>2026-08-18T02:46:36.000Z</time>
      </trkpt>
      <trkpt lat="22.864057" lon="110.655304">
        <ele>102.278643</ele>
        <time>2026-08-18T02:46:37.000Z</time>
      </trkpt>
      <trkpt lat="22.864055" lon="110.655352">
        <ele>102.317770</ele>
        <time>2026-08-18T02:46:38.000Z</time>
      </trkpt>
      <trkpt lat="22.864056" lon="110.655394">
        <ele>102.351982</ele>
        <time>2026-08-18T02:46:39.000Z</time>
      </trkpt>
      <trkpt lat="22.864054" lon="110.655440">
        <ele>102.389482</ele>
        <time>2026-08-18T02:46:40.000Z</time>
      </trkpt>
      <trkpt lat="22.864048" lon="110.655481">
        <ele>102.423287</ele>
        <time>2026-08-18T02:46:41.000Z</time>
      </trkpt>
      <trkpt lat="22.864041" lon="110.655523">
        <ele>102.458043</ele>
        <time>2026-08-18T02:46:42.000Z</time>
      </trkpt>
      <trkpt lat="22.864032" lon="110.655557">
        <ele>102.486849</ele>
        <time>2026-08-18T02:46:43.000Z</time>
      </trkpt>
      <trkpt lat="22.864019" lon="110.655598">
        <ele>102.522157</ele>
        <time>2026-08-18T02:46:44.000Z</time>
      </trkpt>
      <trkpt lat="22.864009" lon="110.655639">
        <ele>102.556693</ele>
        <time>2026-08-18T02:46:45.000Z</time>
      </trkpt>
      <trkpt lat="22.863997" lon="110.655679">
        <ele>102.590948</ele>
        <time>2026-08-18T02:46:46.000Z</time>
      </trkpt>
      <trkpt lat="22.863987" lon="110.655715">
        <ele>102.621566</ele>
        <time>2026-08-18T02:46:47.000Z</time>
      </trkpt>
      <trkpt lat="22.863975" lon="110.655751">
        <ele>102.652740</ele>
        <time>2026-08-18T02:46:48.000Z</time>
      </trkpt>
      <trkpt lat="22.863966" lon="110.655783">
        <ele>102.679985</ele>
        <time>2026-08-18T02:46:49.000Z</time>
      </trkpt>
      <trkpt lat="22.863963" lon="110.655818">
        <ele>102.708609</ele>
        <time>2026-08-18T02:46:50.000Z</time>
      </trkpt>
      <trkpt lat="22.863954" lon="110.655839">
        <ele>102.727468</ele>
        <time>2026-08-18T02:46:51.000Z</time>
      </trkpt>
      <trkpt lat="22.863945" lon="110.655861">
        <ele>102.747069</ele>
        <time>2026-08-18T02:46:52.000Z</time>
      </trkpt>
      <trkpt lat="22.863937" lon="110.655878">
        <ele>102.762613</ele>
        <time>2026-08-18T02:46:53.000Z</time>
      </trkpt>
      <trkpt lat="22.863926" lon="110.655895">
        <ele>102.779529</ele>
        <time>2026-08-18T02:46:54.000Z</time>
      </trkpt>
      <trkpt lat="22.863922" lon="110.655920">
        <ele>102.800191</ele>
        <time>2026-08-18T02:46:55.000Z</time>
      </trkpt>
      <trkpt lat="22.863919" lon="110.655928">
        <ele>102.807224</ele>
        <time>2026-08-18T02:46:56.000Z</time>
      </trkpt>
      <trkpt lat="22.863915" lon="110.655951">
        <ele>102.826284</ele>
        <time>2026-08-18T02:46:57.000Z</time>
      </trkpt>
      <trkpt lat="22.863907" lon="110.655966">
        <ele>102.840397</ele>
        <time>2026-08-18T02:46:58.000Z</time>
      </trkpt>
      <trkpt lat="22.863903" lon="110.655980">
        <ele>102.852333</ele>
        <time>2026-08-18T02:46:59.000Z</time>
      </trkpt>
      <trkpt lat="22.863894" lon="110.655994">
        <ele>102.866234</ele>
        <time>2026-08-18T02:47:00.000Z</time>
      </trkpt>
      <trkpt lat="22.863879" lon="110.656009">
        <ele>102.884259</ele>
        <time>2026-08-18T02:47:01.000Z</time>
      </trkpt>
      <trkpt lat="22.863874" lon="110.656030">
        <ele>102.901921</ele>
        <time>2026-08-18T02:47:02.000Z</time>
      </trkpt>
      <trkpt lat="22.863871" lon="110.656054">
        <ele>102.911392</ele>
        <time>2026-08-18T02:47:03.000Z</time>
      </trkpt>
      <trkpt lat="22.863861" lon="110.656075">
        <ele>102.899640</ele>
        <time>2026-08-18T02:47:04.000Z</time>
      </trkpt>
      <trkpt lat="22.863850" lon="110.656109">
        <ele>102.881725</ele>
        <time>2026-08-18T02:47:05.000Z</time>
      </trkpt>
      <trkpt lat="22.863840" lon="110.656149">
        <ele>102.861119</ele>
        <time>2026-08-18T02:47:06.000Z</time>
      </trkpt>
      <trkpt lat="22.863826" lon="110.656194">
        <ele>102.837506</ele>
        <time>2026-08-18T02:47:07.000Z</time>
      </trkpt>
      <trkpt lat="22.863812" lon="110.656237">
        <ele>102.814833</ele>
        <time>2026-08-18T02:47:08.000Z</time>
      </trkpt>
      <trkpt lat="22.863799" lon="110.656286">
        <ele>102.789483</ele>
        <time>2026-08-18T02:47:09.000Z</time>
      </trkpt>
      <trkpt lat="22.863792" lon="110.656335">
        <ele>102.764831</ele>
        <time>2026-08-18T02:47:10.000Z</time>
      </trkpt>
      <trkpt lat="22.863785" lon="110.656391">
        <ele>102.736735</ele>
        <time>2026-08-18T02:47:11.000Z</time>
      </trkpt>
      <trkpt lat="22.863776" lon="110.656447">
        <ele>102.708474</ele>
        <time>2026-08-18T02:47:12.000Z</time>
      </trkpt>
      <trkpt lat="22.863768" lon="110.656504">
        <ele>102.679809</ele>
        <time>2026-08-18T02:47:13.000Z</time>
      </trkpt>
      <trkpt lat="22.863765" lon="110.656563">
        <ele>102.650432</ele>
        <time>2026-08-18T02:47:14.000Z</time>
      </trkpt>
      <trkpt lat="22.863762" lon="110.656619">
        <ele>102.622544</ele>
        <time>2026-08-18T02:47:15.000Z</time>
      </trkpt>
      <trkpt lat="22.863762" lon="110.656674">
        <ele>102.595201</ele>
        <time>2026-08-18T02:47:16.000Z</time>
      </trkpt>
      <trkpt lat="22.863759" lon="110.656727">
        <ele>102.568801</ele>
        <time>2026-08-18T02:47:17.000Z</time>
      </trkpt>
      <trkpt lat="22.863756" lon="110.656784">
        <ele>102.540417</ele>
        <time>2026-08-18T02:47:18.000Z</time>
      </trkpt>
      <trkpt lat="22.863747" lon="110.656829">
        <ele>102.517524</ele>
        <time>2026-08-18T02:47:19.000Z</time>
      </trkpt>
      <trkpt lat="22.863744" lon="110.656877">
        <ele>102.493606</ele>
        <time>2026-08-18T02:47:20.000Z</time>
      </trkpt>
      <trkpt lat="22.863742" lon="110.656925">
        <ele>102.469718</ele>
        <time>2026-08-18T02:47:21.000Z</time>
      </trkpt>
      <trkpt lat="22.863739" lon="110.656971">
        <ele>102.446791</ele>
        <time>2026-08-18T02:47:22.000Z</time>
      </trkpt>
      <trkpt lat="22.863736" lon="110.657021">
        <ele>102.421881</ele>
        <time>2026-08-18T02:47:23.000Z</time>
      </trkpt>
      <trkpt lat="22.863736" lon="110.657072">
        <ele>102.396526</ele>
        <time>2026-08-18T02:47:24.000Z</time>
      </trkpt>
      <trkpt lat="22.863736" lon="110.657119">
        <ele>102.373159</ele>
        <time>2026-08-18T02:47:25.000Z</time>
      </trkpt>
      <trkpt lat="22.863733" lon="110.657165">
        <ele>102.350233</ele>
        <time>2026-08-18T02:47:26.000Z</time>
      </trkpt>
      <trkpt lat="22.863725" lon="110.657212">
        <ele>102.326471</ele>
        <time>2026-08-18T02:47:27.000Z</time>
      </trkpt>
      <trkpt lat="22.863718" lon="110.657259">
        <ele>102.302801</ele>
        <time>2026-08-18T02:47:28.000Z</time>
      </trkpt>
      <trkpt lat="22.863714" lon="110.657307">
        <ele>102.278840</ele>
        <time>2026-08-18T02:47:29.000Z</time>
      </trkpt>
      <trkpt lat="22.863714" lon="110.657355">
        <ele>102.254976</ele>
        <time>2026-08-18T02:47:30.000Z</time>
      </trkpt>
      <trkpt lat="22.863717" lon="110.657401">
        <ele>102.232050</ele>
        <time>2026-08-18T02:47:31.000Z</time>
      </trkpt>
      <trkpt lat="22.863721" lon="110.657445">
        <ele>102.210069</ele>
        <time>2026-08-18T02:47:32.000Z</time>
      </trkpt>
      <trkpt lat="22.863731" lon="110.657489">
        <ele>102.187538</ele>
        <time>2026-08-18T02:47:33.000Z</time>
      </trkpt>
      <trkpt lat="22.863744" lon="110.657533">
        <ele>102.164566</ele>
        <time>2026-08-18T02:47:34.000Z</time>
      </trkpt>
      <trkpt lat="22.863753" lon="110.657581">
        <ele>102.140213</ele>
        <time>2026-08-18T02:47:35.000Z</time>
      </trkpt>
      <trkpt lat="22.863759" lon="110.657635">
        <ele>102.113172</ele>
        <time>2026-08-18T02:47:36.000Z</time>
      </trkpt>
      <trkpt lat="22.863765" lon="110.657688">
        <ele>102.086625</ele>
        <time>2026-08-18T02:47:37.000Z</time>
      </trkpt>
      <trkpt lat="22.863775" lon="110.657744">
        <ele>102.058266</ele>
        <time>2026-08-18T02:47:38.000Z</time>
      </trkpt>
      <trkpt lat="22.863791" lon="110.657800">
        <ele>102.029117</ele>
        <time>2026-08-18T02:47:39.000Z</time>
      </trkpt>
      <trkpt lat="22.863810" lon="110.657854">
        <ele>102.000380</ele>
        <time>2026-08-18T02:47:40.000Z</time>
      </trkpt>
      <trkpt lat="22.863826" lon="110.657912">
        <ele>101.970280</ele>
        <time>2026-08-18T02:47:41.000Z</time>
      </trkpt>
      <trkpt lat="22.863848" lon="110.657967">
        <ele>101.955682</ele>
        <time>2026-08-18T02:47:42.000Z</time>
      </trkpt>
      <trkpt lat="22.863868" lon="110.658019">
        <ele>102.025668</ele>
        <time>2026-08-18T02:47:43.000Z</time>
      </trkpt>
      <trkpt lat="22.863886" lon="110.658070">
        <ele>102.093498</ele>
        <time>2026-08-18T02:47:44.000Z</time>
      </trkpt>
      <trkpt lat="22.863903" lon="110.658124">
        <ele>102.164373</ele>
        <time>2026-08-18T02:47:45.000Z</time>
      </trkpt>
      <trkpt lat="22.863925" lon="110.658179">
        <ele>102.238843</ele>
        <time>2026-08-18T02:47:46.000Z</time>
      </trkpt>
      <trkpt lat="22.863946" lon="110.658233">
        <ele>102.311640</ele>
        <time>2026-08-18T02:47:47.000Z</time>
      </trkpt>
      <trkpt lat="22.863966" lon="110.658287">
        <ele>102.383924</ele>
        <time>2026-08-18T02:47:48.000Z</time>
      </trkpt>
      <trkpt lat="22.863987" lon="110.658338">
        <ele>102.453304</ele>
        <time>2026-08-18T02:47:49.000Z</time>
      </trkpt>
      <trkpt lat="22.864009" lon="110.658390">
        <ele>102.524372</ele>
        <time>2026-08-18T02:47:50.000Z</time>
      </trkpt>
      <trkpt lat="22.864032" lon="110.658442">
        <ele>102.596012</ele>
        <time>2026-08-18T02:47:51.000Z</time>
      </trkpt>
      <trkpt lat="22.864051" lon="110.658497">
        <ele>102.668965</ele>
        <time>2026-08-18T02:47:52.000Z</time>
      </trkpt>
      <trkpt lat="22.864068" lon="110.658552">
        <ele>102.741017</ele>
        <time>2026-08-18T02:47:53.000Z</time>
      </trkpt>
      <trkpt lat="22.864082" lon="110.658603">
        <ele>102.807111</ele>
        <time>2026-08-18T02:47:54.000Z</time>
      </trkpt>
      <trkpt lat="22.864094" lon="110.658652">
        <ele>102.870082</ele>
        <time>2026-08-18T02:47:55.000Z</time>
      </trkpt>
      <trkpt lat="22.864103" lon="110.658704">
        <ele>102.935797</ele>
        <time>2026-08-18T02:47:56.000Z</time>
      </trkpt>
      <trkpt lat="22.864111" lon="110.658756">
        <ele>103.001275</ele>
        <time>2026-08-18T02:47:57.000Z</time>
      </trkpt>
      <trkpt lat="22.864116" lon="110.658807">
        <ele>103.064976</ele>
        <time>2026-08-18T02:47:58.000Z</time>
      </trkpt>
      <trkpt lat="22.864120" lon="110.658848">
        <ele>103.116183</ele>
        <time>2026-08-18T02:47:59.000Z</time>
      </trkpt>
      <trkpt lat="22.864123" lon="110.658890">
        <ele>103.168504</ele>
        <time>2026-08-18T02:48:00.000Z</time>
      </trkpt>
      <trkpt lat="22.864124" lon="110.658930">
        <ele>103.218202</ele>
        <time>2026-08-18T02:48:01.000Z</time>
      </trkpt>
      <trkpt lat="22.864124" lon="110.658967">
        <ele>103.264157</ele>
        <time>2026-08-18T02:48:02.000Z</time>
      </trkpt>
      <trkpt lat="22.864127" lon="110.659004">
        <ele>103.310289</ele>
        <time>2026-08-18T02:48:03.000Z</time>
      </trkpt>
      <trkpt lat="22.864132" lon="110.659036">
        <ele>103.350601</ele>
        <time>2026-08-18T02:48:04.000Z</time>
      </trkpt>
      <trkpt lat="22.864135" lon="110.659068">
        <ele>103.390550</ele>
        <time>2026-08-18T02:48:05.000Z</time>
      </trkpt>
      <trkpt lat="22.864131" lon="110.659088">
        <ele>103.415969</ele>
        <time>2026-08-18T02:48:06.000Z</time>
      </trkpt>
      <trkpt lat="22.864126" lon="110.659111">
        <ele>103.445320</ele>
        <time>2026-08-18T02:48:07.000Z</time>
      </trkpt>
      <trkpt lat="22.864123" lon="110.659142">
        <ele>103.484034</ele>
        <time>2026-08-18T02:48:08.000Z</time>
      </trkpt>
      <trkpt lat="22.864123" lon="110.659174">
        <ele>103.523778</ele>
        <time>2026-08-18T02:48:09.000Z</time>
      </trkpt>
      <trkpt lat="22.864120" lon="110.659206">
        <ele>103.563728</ele>
        <time>2026-08-18T02:48:10.000Z</time>
      </trkpt>
      <trkpt lat="22.864114" lon="110.659231">
        <ele>103.595814</ele>
        <time>2026-08-18T02:48:11.000Z</time>
      </trkpt>
      <trkpt lat="22.864111" lon="110.659260">
        <ele>103.632059</ele>
        <time>2026-08-18T02:48:12.000Z</time>
      </trkpt>
      <trkpt lat="22.864105" lon="110.659285">
        <ele>103.664145</ele>
        <time>2026-08-18T02:48:13.000Z</time>
      </trkpt>
      <trkpt lat="22.864096" lon="110.659314">
        <ele>103.702151</ele>
        <time>2026-08-18T02:48:14.000Z</time>
      </trkpt>
      <trkpt lat="22.864096" lon="110.659343">
        <ele>103.738170</ele>
        <time>2026-08-18T02:48:15.000Z</time>
      </trkpt>
      <trkpt lat="22.864093" lon="110.659370">
        <ele>103.771947</ele>
        <time>2026-08-18T02:48:16.000Z</time>
      </trkpt>
      <trkpt lat="22.864090" lon="110.659399">
        <ele>103.808192</ele>
        <time>2026-08-18T02:48:17.000Z</time>
      </trkpt>
      <trkpt lat="22.864087" lon="110.659431">
        <ele>103.848141</ele>
        <time>2026-08-18T02:48:18.000Z</time>
      </trkpt>
      <trkpt lat="22.864087" lon="110.659457">
        <ele>103.880434</ele>
        <time>2026-08-18T02:48:19.000Z</time>
      </trkpt>
      <trkpt lat="22.864087" lon="110.659484">
        <ele>103.913968</ele>
        <time>2026-08-18T02:48:20.000Z</time>
      </trkpt>
      <trkpt lat="22.864088" lon="110.659517">
        <ele>103.954977</ele>
        <time>2026-08-18T02:48:21.000Z</time>
      </trkpt>
      <trkpt lat="22.864084" lon="110.659550">
        <ele>103.996316</ele>
        <time>2026-08-18T02:48:22.000Z</time>
      </trkpt>
      <trkpt lat="22.864076" lon="110.659582">
        <ele>104.037497</ele>
        <time>2026-08-18T02:48:23.000Z</time>
      </trkpt>
      <trkpt lat="22.864066" lon="110.659611">
        <ele>104.075955</ele>
        <time>2026-08-18T02:48:24.000Z</time>
      </trkpt>
      <trkpt lat="22.864058" lon="110.659643">
        <ele>104.117137</ele>
        <time>2026-08-18T02:48:25.000Z</time>
      </trkpt>
      <trkpt lat="22.864051" lon="110.659671">
        <ele>104.153170</ele>
        <time>2026-08-18T02:48:26.000Z</time>
      </trkpt>
      <trkpt lat="22.864045" lon="110.659701">
        <ele>104.191298</ele>
        <time>2026-08-18T02:48:27.000Z</time>
      </trkpt>
      <trkpt lat="22.864039" lon="110.659733">
        <ele>104.231857</ele>
        <time>2026-08-18T02:48:28.000Z</time>
      </trkpt>
      <trkpt lat="22.864029" lon="110.659766">
        <ele>104.275003</ele>
        <time>2026-08-18T02:48:29.000Z</time>
      </trkpt>
      <trkpt lat="22.864018" lon="110.659799">
        <ele>104.318589</ele>
        <time>2026-08-18T02:48:30.000Z</time>
      </trkpt>
      <trkpt lat="22.864007" lon="110.659830">
        <ele>104.359848</ele>
        <time>2026-08-18T02:48:31.000Z</time>
      </trkpt>
      <trkpt lat="22.863996" lon="110.659861">
        <ele>104.385711</ele>
        <time>2026-08-18T02:48:32.000Z</time>
      </trkpt>
      <trkpt lat="22.863987" lon="110.659893">
        <ele>104.407186</ele>
        <time>2026-08-18T02:48:33.000Z</time>
      </trkpt>
      <trkpt lat="22.863975" lon="110.659922">
        <ele>104.427590</ele>
        <time>2026-08-18T02:48:34.000Z</time>
      </trkpt>
      <trkpt lat="22.863961" lon="110.659955">
        <ele>104.450908</ele>
        <time>2026-08-18T02:48:35.000Z</time>
      </trkpt>
      <trkpt lat="22.863946" lon="110.659986">
        <ele>104.473382</ele>
        <time>2026-08-18T02:48:36.000Z</time>
      </trkpt>
      <trkpt lat="22.863930" lon="110.660014">
        <ele>104.494529</ele>
        <time>2026-08-18T02:48:37.000Z</time>
      </trkpt>
      <trkpt lat="22.863914" lon="110.660043">
        <ele>104.516224</ele>
        <time>2026-08-18T02:48:38.000Z</time>
      </trkpt>
      <trkpt lat="22.863898" lon="110.660070">
        <ele>104.536828</ele>
        <time>2026-08-18T02:48:39.000Z</time>
      </trkpt>
      <trkpt lat="22.863881" lon="110.660099">
        <ele>104.558889</ele>
        <time>2026-08-18T02:48:40.000Z</time>
      </trkpt>
      <trkpt lat="22.863867" lon="110.660132">
        <ele>104.582207</ele>
        <time>2026-08-18T02:48:41.000Z</time>
      </trkpt>
      <trkpt lat="22.863855" lon="110.660170">
        <ele>104.607990</ele>
        <time>2026-08-18T02:48:42.000Z</time>
      </trkpt>
      <trkpt lat="22.863843" lon="110.660204">
        <ele>104.631359</ele>
        <time>2026-08-18T02:48:43.000Z</time>
      </trkpt>
      <trkpt lat="22.863826" lon="110.660237">
        <ele>104.655625</ele>
        <time>2026-08-18T02:48:44.000Z</time>
      </trkpt>
      <trkpt lat="22.863806" lon="110.660268">
        <ele>104.679915</ele>
        <time>2026-08-18T02:48:45.000Z</time>
      </trkpt>
      <trkpt lat="22.863791" lon="110.660300">
        <ele>104.702959</ele>
        <time>2026-08-18T02:48:46.000Z</time>
      </trkpt>
      <trkpt lat="22.863775" lon="110.660338">
        <ele>104.729775</ele>
        <time>2026-08-18T02:48:47.000Z</time>
      </trkpt>
      <trkpt lat="22.863759" lon="110.660371">
        <ele>104.753709</ele>
        <time>2026-08-18T02:48:48.000Z</time>
      </trkpt>
      <trkpt lat="22.863741" lon="110.660402">
        <ele>104.777227</ele>
        <time>2026-08-18T02:48:49.000Z</time>
      </trkpt>
      <trkpt lat="22.863720" lon="110.660426">
        <ele>104.798470</ele>
        <time>2026-08-18T02:48:50.000Z</time>
      </trkpt>
      <trkpt lat="22.863701" lon="110.660452">
        <ele>104.819769</ele>
        <time>2026-08-18T02:48:51.000Z</time>
      </trkpt>
      <trkpt lat="22.863684" lon="110.660472">
        <ele>104.837234</ele>
        <time>2026-08-18T02:48:52.000Z</time>
      </trkpt>
      <trkpt lat="22.863667" lon="110.660488">
        <ele>104.852908</ele>
        <time>2026-08-18T02:48:53.000Z</time>
      </trkpt>
      <trkpt lat="22.863654" lon="110.660504">
        <ele>104.866600</ele>
        <time>2026-08-18T02:48:54.000Z</time>
      </trkpt>
      <trkpt lat="22.863641" lon="110.660521">
        <ele>104.880780</ele>
        <time>2026-08-18T02:48:55.000Z</time>
      </trkpt>
      <trkpt lat="22.863628" lon="110.660539">
        <ele>104.895459</ele>
        <time>2026-08-18T02:48:56.000Z</time>
      </trkpt>
      <trkpt lat="22.863616" lon="110.660557">
        <ele>104.909719</ele>
        <time>2026-08-18T02:48:57.000Z</time>
      </trkpt>
      <trkpt lat="22.863603" lon="110.660574">
        <ele>104.923898</ele>
        <time>2026-08-18T02:48:58.000Z</time>
      </trkpt>
      <trkpt lat="22.863590" lon="110.660593">
        <ele>104.939088</ele>
        <time>2026-08-18T02:48:59.000Z</time>
      </trkpt>
      <trkpt lat="22.863579" lon="110.660614">
        <ele>104.954592</ele>
        <time>2026-08-18T02:49:00.000Z</time>
      </trkpt>
      <trkpt lat="22.863567" lon="110.660638">
        <ele>104.972118</ele>
        <time>2026-08-18T02:49:01.000Z</time>
      </trkpt>
      <trkpt lat="22.863557" lon="110.660660">
        <ele>104.987864</ele>
        <time>2026-08-18T02:49:02.000Z</time>
      </trkpt>
      <trkpt lat="22.863548" lon="110.660682">
        <ele>105.003313</ele>
        <time>2026-08-18T02:49:03.000Z</time>
      </trkpt>
      <trkpt lat="22.863541" lon="110.660706">
        <ele>105.019471</ele>
        <time>2026-08-18T02:49:04.000Z</time>
      </trkpt>
      <trkpt lat="22.863536" lon="110.660726">
        <ele>105.032772</ele>
        <time>2026-08-18T02:49:05.000Z</time>
      </trkpt>
      <trkpt lat="22.863531" lon="110.660743">
        <ele>105.044226</ele>
        <time>2026-08-18T02:49:06.000Z</time>
      </trkpt>
      <trkpt lat="22.863528" lon="110.660762">
        <ele>105.056599</ele>
        <time>2026-08-18T02:49:07.000Z</time>
      </trkpt>
      <trkpt lat="22.863524" lon="110.660782">
        <ele>105.069734</ele>
        <time>2026-08-18T02:49:08.000Z</time>
      </trkpt>
      <trkpt lat="22.863519" lon="110.660802">
        <ele>105.083035</ele>
        <time>2026-08-18T02:49:09.000Z</time>
      </trkpt>
      <trkpt lat="22.863513" lon="110.660822">
        <ele>105.096536</ele>
        <time>2026-08-18T02:49:10.000Z</time>
      </trkpt>
      <trkpt lat="22.863509" lon="110.660842">
        <ele>105.109671</ele>
        <time>2026-08-18T02:49:11.000Z</time>
      </trkpt>
      <trkpt lat="22.863503" lon="110.660862">
        <ele>105.123172</ele>
        <time>2026-08-18T02:49:12.000Z</time>
      </trkpt>
      <trkpt lat="22.863495" lon="110.660875">
        <ele>105.133205</ele>
        <time>2026-08-18T02:49:13.000Z</time>
      </trkpt>
      <trkpt lat="22.863493" lon="110.660890">
        <ele>105.142933</ele>
        <time>2026-08-18T02:49:14.000Z</time>
      </trkpt>
      <trkpt lat="22.863491" lon="110.660908">
        <ele>105.154570</ele>
        <time>2026-08-18T02:49:15.000Z</time>
      </trkpt>
      <trkpt lat="22.863488" lon="110.660926">
        <ele>105.166311</ele>
        <time>2026-08-18T02:49:16.000Z</time>
      </trkpt>
      <trkpt lat="22.863480" lon="110.660939">
        <ele>105.176345</ele>
        <time>2026-08-18T02:49:17.000Z</time>
      </trkpt>
      <trkpt lat="22.863467" lon="110.660951">
        <ele>105.188233</ele>
        <time>2026-08-18T02:49:18.000Z</time>
      </trkpt>
      <trkpt lat="22.863456" lon="110.660957">
        <ele>105.196808</ele>
        <time>2026-08-18T02:49:19.000Z</time>
      </trkpt>
      <trkpt lat="22.863448" lon="110.660972">
        <ele>105.207932</ele>
        <time>2026-08-18T02:49:20.000Z</time>
      </trkpt>
      <trkpt lat="22.863441" lon="110.660995">
        <ele>105.223479</ele>
        <time>2026-08-18T02:49:21.000Z</time>
      </trkpt>
      <trkpt lat="22.863433" lon="110.661016">
        <ele>105.238065</ele>
        <time>2026-08-18T02:49:22.000Z</time>
      </trkpt>
      <trkpt lat="22.863422" lon="110.661043">
        <ele>105.257013</ele>
        <time>2026-08-18T02:49:23.000Z</time>
      </trkpt>
      <trkpt lat="22.863413" lon="110.661072">
        <ele>105.276654</ele>
        <time>2026-08-18T02:49:24.000Z</time>
      </trkpt>
      <trkpt lat="22.863406" lon="110.661100">
        <ele>105.295275</ele>
        <time>2026-08-18T02:49:25.000Z</time>
      </trkpt>
      <trkpt lat="22.863394" lon="110.661123">
        <ele>105.312240</ele>
        <time>2026-08-18T02:49:26.000Z</time>
      </trkpt>
      <trkpt lat="22.863384" lon="110.661146">
        <ele>105.328563</ele>
        <time>2026-08-18T02:49:27.000Z</time>
      </trkpt>
      <trkpt lat="22.863370" lon="110.661174">
        <ele>105.349010</ele>
        <time>2026-08-18T02:49:28.000Z</time>
      </trkpt>
      <trkpt lat="22.863355" lon="110.661203">
        <ele>105.370356</ele>
        <time>2026-08-18T02:49:29.000Z</time>
      </trkpt>
      <trkpt lat="22.863338" lon="110.661233">
        <ele>105.392961</ele>
        <time>2026-08-18T02:49:30.000Z</time>
      </trkpt>
      <trkpt lat="22.863324" lon="110.661266">
        <ele>105.416279</ele>
        <time>2026-08-18T02:49:31.000Z</time>
      </trkpt>
      <trkpt lat="22.863309" lon="110.661298">
        <ele>105.439323</ele>
        <time>2026-08-18T02:49:32.000Z</time>
      </trkpt>
      <trkpt lat="22.863297" lon="110.661338">
        <ele>105.466324</ele>
        <time>2026-08-18T02:49:33.000Z</time>
      </trkpt>
      <trkpt lat="22.863278" lon="110.661383">
        <ele>105.498095</ele>
        <time>2026-08-18T02:49:34.000Z</time>
      </trkpt>
      <trkpt lat="22.863256" lon="110.661447">
        <ele>105.541938</ele>
        <time>2026-08-18T02:49:35.000Z</time>
      </trkpt>
      <trkpt lat="22.863234" lon="110.661514">
        <ele>105.587591</ele>
        <time>2026-08-18T02:49:36.000Z</time>
      </trkpt>
      <trkpt lat="22.863205" lon="110.661579">
        <ele>105.597351</ele>
        <time>2026-08-18T02:49:37.000Z</time>
      </trkpt>
      <trkpt lat="22.863172" lon="110.661653">
        <ele>105.486617</ele>
        <time>2026-08-18T02:49:38.000Z</time>
      </trkpt>
      <trkpt lat="22.863139" lon="110.661723">
        <ele>105.380706</ele>
        <time>2026-08-18T02:49:39.000Z</time>
      </trkpt>
      <trkpt lat="22.863102" lon="110.661795">
        <ele>105.269663</ele>
        <time>2026-08-18T02:49:40.000Z</time>
      </trkpt>
      <trkpt lat="22.863061" lon="110.661857">
        <ele>105.166870</ele>
        <time>2026-08-18T02:49:41.000Z</time>
      </trkpt>
      <trkpt lat="22.863019" lon="110.661920">
        <ele>105.062131</ele>
        <time>2026-08-18T02:49:42.000Z</time>
      </trkpt>
      <trkpt lat="22.862976" lon="110.661981">
        <ele>104.958680</ele>
        <time>2026-08-18T02:49:43.000Z</time>
      </trkpt>
      <trkpt lat="22.862940" lon="110.662039">
        <ele>104.864485</ele>
        <time>2026-08-18T02:49:44.000Z</time>
      </trkpt>
      <trkpt lat="22.862909" lon="110.662100">
        <ele>104.770653</ele>
        <time>2026-08-18T02:49:45.000Z</time>
      </trkpt>
      <trkpt lat="22.862884" lon="110.662158">
        <ele>104.684404</ele>
        <time>2026-08-18T02:49:46.000Z</time>
      </trkpt>
      <trkpt lat="22.862869" lon="110.662215">
        <ele>104.604558</ele>
        <time>2026-08-18T02:49:47.000Z</time>
      </trkpt>
      <trkpt lat="22.862858" lon="110.662269">
        <ele>104.530066</ele>
        <time>2026-08-18T02:49:48.000Z</time>
      </trkpt>
      <trkpt lat="22.862851" lon="110.662323">
        <ele>104.456614</ele>
        <time>2026-08-18T02:49:49.000Z</time>
      </trkpt>
      <trkpt lat="22.862845" lon="110.662377">
        <ele>104.383351</ele>
        <time>2026-08-18T02:49:50.000Z</time>
      </trkpt>
      <trkpt lat="22.862838" lon="110.662430">
        <ele>104.311233</ele>
        <time>2026-08-18T02:49:51.000Z</time>
      </trkpt>
      <trkpt lat="22.862835" lon="110.662474">
        <ele>104.251805</ele>
        <time>2026-08-18T02:49:52.000Z</time>
      </trkpt>
      <trkpt lat="22.862826" lon="110.662524">
        <ele>104.183184</ele>
        <time>2026-08-18T02:49:53.000Z</time>
      </trkpt>
      <trkpt lat="22.862814" lon="110.662572">
        <ele>104.116192</ele>
        <time>2026-08-18T02:49:54.000Z</time>
      </trkpt>
      <trkpt lat="22.862800" lon="110.662621">
        <ele>104.047091</ele>
        <time>2026-08-18T02:49:55.000Z</time>
      </trkpt>
      <trkpt lat="22.862790" lon="110.662680">
        <ele>103.966287</ele>
        <time>2026-08-18T02:49:56.000Z</time>
      </trkpt>
      <trkpt lat="22.862778" lon="110.662745">
        <ele>103.876995</ele>
        <time>2026-08-18T02:49:57.000Z</time>
      </trkpt>
      <trkpt lat="22.862765" lon="110.662806">
        <ele>103.792662</ele>
        <time>2026-08-18T02:49:58.000Z</time>
      </trkpt>
      <trkpt lat="22.862749" lon="110.662867">
        <ele>103.707233</ele>
        <time>2026-08-18T02:49:59.000Z</time>
      </trkpt>
      <trkpt lat="22.862731" lon="110.662929">
        <ele>103.619674</ele>
        <time>2026-08-18T02:50:00.000Z</time>
      </trkpt>
      <trkpt lat="22.862719" lon="110.662991">
        <ele>103.534340</ele>
        <time>2026-08-18T02:50:01.000Z</time>
      </trkpt>
      <trkpt lat="22.862702" lon="110.663050">
        <ele>103.451075</ele>
        <time>2026-08-18T02:50:02.000Z</time>
      </trkpt>
      <trkpt lat="22.862680" lon="110.663107">
        <ele>103.367835</ele>
        <time>2026-08-18T02:50:03.000Z</time>
      </trkpt>
      <trkpt lat="22.862662" lon="110.663166">
        <ele>103.284122</ele>
        <time>2026-08-18T02:50:04.000Z</time>
      </trkpt>
      <trkpt lat="22.862643" lon="110.663227">
        <ele>103.197390</ele>
        <time>2026-08-18T02:50:05.000Z</time>
      </trkpt>
      <trkpt lat="22.862627" lon="110.663283">
        <ele>103.118417</ele>
        <time>2026-08-18T02:50:06.000Z</time>
      </trkpt>
      <trkpt lat="22.862612" lon="110.663339">
        <ele>103.039865</ele>
        <time>2026-08-18T02:50:07.000Z</time>
      </trkpt>
      <trkpt lat="22.862595" lon="110.663397">
        <ele>103.038554</ele>
        <time>2026-08-18T02:50:08.000Z</time>
      </trkpt>
      <trkpt lat="22.862576" lon="110.663453">
        <ele>103.143483</ele>
        <time>2026-08-18T02:50:09.000Z</time>
      </trkpt>
      <trkpt lat="22.862555" lon="110.663507">
        <ele>103.246542</ele>
        <time>2026-08-18T02:50:10.000Z</time>
      </trkpt>
      <trkpt lat="22.862536" lon="110.663560">
        <ele>103.346538</ele>
        <time>2026-08-18T02:50:11.000Z</time>
      </trkpt>
      <trkpt lat="22.862520" lon="110.663611">
        <ele>103.441268</ele>
        <time>2026-08-18T02:50:12.000Z</time>
      </trkpt>
      <trkpt lat="22.862503" lon="110.663662">
        <ele>103.536630</ele>
        <time>2026-08-18T02:50:13.000Z</time>
      </trkpt>
      <trkpt lat="22.862484" lon="110.663712">
        <ele>103.631729</ele>
        <time>2026-08-18T02:50:14.000Z</time>
      </trkpt>
      <trkpt lat="22.862461" lon="110.663755">
        <ele>103.719152</ele>
        <time>2026-08-18T02:50:15.000Z</time>
      </trkpt>
      <trkpt lat="22.862438" lon="110.663801">
        <ele>103.811176</ele>
        <time>2026-08-18T02:50:16.000Z</time>
      </trkpt>
      <trkpt lat="22.862417" lon="110.663847">
        <ele>103.901441</ele>
        <time>2026-08-18T02:50:17.000Z</time>
      </trkpt>
      <trkpt lat="22.862396" lon="110.663892">
        <ele>103.990135</ele>
        <time>2026-08-18T02:50:18.000Z</time>
      </trkpt>
      <trkpt lat="22.862374" lon="110.663931">
        <ele>104.070540</ele>
        <time>2026-08-18T02:50:19.000Z</time>
      </trkpt>
      <trkpt lat="22.862355" lon="110.663971">
        <ele>104.149668</ele>
        <time>2026-08-18T02:50:20.000Z</time>
      </trkpt>
      <trkpt lat="22.862341" lon="110.664013">
        <ele>104.228201</ele>
        <time>2026-08-18T02:50:21.000Z</time>
      </trkpt>
      <trkpt lat="22.862316" lon="110.664048">
        <ele>104.306068</ele>
        <time>2026-08-18T02:50:22.000Z</time>
      </trkpt>
      <trkpt lat="22.862294" lon="110.664083">
        <ele>104.380565</ele>
        <time>2026-08-18T02:50:23.000Z</time>
      </trkpt>
      <trkpt lat="22.862272" lon="110.664117">
        <ele>104.453616</ele>
        <time>2026-08-18T02:50:24.000Z</time>
      </trkpt>
      <trkpt lat="22.862256" lon="110.664151">
        <ele>104.520744</ele>
        <time>2026-08-18T02:50:25.000Z</time>
      </trkpt>
      <trkpt lat="22.862242" lon="110.664183">
        <ele>104.583031</ele>
        <time>2026-08-18T02:50:26.000Z</time>
      </trkpt>
      <trkpt lat="22.862228" lon="110.664213">
        <ele>104.642160</ele>
        <time>2026-08-18T02:50:27.000Z</time>
      </trkpt>
      <trkpt lat="22.862215" lon="110.664245">
        <ele>104.703653</ele>
        <time>2026-08-18T02:50:28.000Z</time>
      </trkpt>
      <trkpt lat="22.862201" lon="110.664274">
        <ele>104.761219</ele>
        <time>2026-08-18T02:50:29.000Z</time>
      </trkpt>
      <trkpt lat="22.862193" lon="110.664305">
        <ele>104.817824</ele>
        <time>2026-08-18T02:50:30.000Z</time>
      </trkpt>
      <trkpt lat="22.862186" lon="110.664336">
        <ele>104.873945</ele>
        <time>2026-08-18T02:50:31.000Z</time>
      </trkpt>
      <trkpt lat="22.862177" lon="110.664367">
        <ele>104.931095</ele>
        <time>2026-08-18T02:50:32.000Z</time>
      </trkpt>
      <trkpt lat="22.862174" lon="110.664395">
        <ele>104.980660</ele>
        <time>2026-08-18T02:50:33.000Z</time>
      </trkpt>
      <trkpt lat="22.862167" lon="110.664422">
        <ele>105.029978</ele>
        <time>2026-08-18T02:50:34.000Z</time>
      </trkpt>
      <trkpt lat="22.862157" lon="110.664452">
        <ele>105.086074</ele>
        <time>2026-08-18T02:50:35.000Z</time>
      </trkpt>
      <trkpt lat="22.862148" lon="110.664483">
        <ele>105.143224</ele>
        <time>2026-08-18T02:50:36.000Z</time>
      </trkpt>
      <trkpt lat="22.862136" lon="110.664516">
        <ele>105.205603</ele>
        <time>2026-08-18T02:50:37.000Z</time>
      </trkpt>
      <trkpt lat="22.862124" lon="110.664548">
        <ele>105.266351</ele>
        <time>2026-08-18T02:50:38.000Z</time>
      </trkpt>
      <trkpt lat="22.862112" lon="110.664579">
        <ele>105.325474</ele>
        <time>2026-08-18T02:50:39.000Z</time>
      </trkpt>
      <trkpt lat="22.862100" lon="110.664609">
        <ele>105.382980</ele>
        <time>2026-08-18T02:50:40.000Z</time>
      </trkpt>
      <trkpt lat="22.862090" lon="110.664643">
        <ele>105.445735</ele>
        <time>2026-08-18T02:50:41.000Z</time>
      </trkpt>
      <trkpt lat="22.862080" lon="110.664675">
        <ele>105.505149</ele>
        <time>2026-08-18T02:50:42.000Z</time>
      </trkpt>
      <trkpt lat="22.862069" lon="110.664709">
        <ele>105.568510</ele>
        <time>2026-08-18T02:50:43.000Z</time>
      </trkpt>
      <trkpt lat="22.862059" lon="110.664744">
        <ele>105.632942</ele>
        <time>2026-08-18T02:50:44.000Z</time>
      </trkpt>
      <trkpt lat="22.862048" lon="110.664777">
        <ele>105.694647</ele>
        <time>2026-08-18T02:50:45.000Z</time>
      </trkpt>
      <trkpt lat="22.862038" lon="110.664807">
        <ele>105.750743</ele>
        <time>2026-08-18T02:50:46.000Z</time>
      </trkpt>
      <trkpt lat="22.862027" lon="110.664837">
        <ele>105.807516</ele>
        <time>2026-08-18T02:50:47.000Z</time>
      </trkpt>
      <trkpt lat="22.862018" lon="110.664869">
        <ele>105.866345</ele>
        <time>2026-08-18T02:50:48.000Z</time>
      </trkpt>
      <trkpt lat="22.862008" lon="110.664899">
        <ele>105.922440</ele>
        <time>2026-08-18T02:50:49.000Z</time>
      </trkpt>
      <trkpt lat="22.861997" lon="110.664934">
        <ele>105.987463</ele>
        <time>2026-08-18T02:50:50.000Z</time>
      </trkpt>
      <trkpt lat="22.861988" lon="110.664966">
        <ele>106.046292</ele>
        <time>2026-08-18T02:50:51.000Z</time>
      </trkpt>
      <trkpt lat="22.861978" lon="110.664998">
        <ele>106.105707</ele>
        <time>2026-08-18T02:50:52.000Z</time>
      </trkpt>
      <trkpt lat="22.861969" lon="110.665030">
        <ele>106.164536</ele>
        <time>2026-08-18T02:50:53.000Z</time>
      </trkpt>
      <trkpt lat="22.861960" lon="110.665062">
        <ele>106.223366</ele>
        <time>2026-08-18T02:50:54.000Z</time>
      </trkpt>
      <trkpt lat="22.861951" lon="110.665092">
        <ele>106.278841</ele>
        <time>2026-08-18T02:50:55.000Z</time>
      </trkpt>
      <trkpt lat="22.861940" lon="110.665122">
        <ele>106.335614</ele>
        <time>2026-08-18T02:50:56.000Z</time>
      </trkpt>
      <trkpt lat="22.861930" lon="110.665152">
        <ele>106.391709</ele>
        <time>2026-08-18T02:50:57.000Z</time>
      </trkpt>
      <trkpt lat="22.861921" lon="110.665186">
        <ele>106.421503</ele>
        <time>2026-08-18T02:50:58.000Z</time>
      </trkpt>
      <trkpt lat="22.861913" lon="110.665220">
        <ele>106.413767</ele>
        <time>2026-08-18T02:50:59.000Z</time>
      </trkpt>
      <trkpt lat="22.861902" lon="110.665251">
        <ele>106.406443</ele>
        <time>2026-08-18T02:51:00.000Z</time>
      </trkpt>
      <trkpt lat="22.861890" lon="110.665281">
        <ele>106.399233</ele>
        <time>2026-08-18T02:51:01.000Z</time>
      </trkpt>
      <trkpt lat="22.861877" lon="110.665311">
        <ele>106.391925</ele>
        <time>2026-08-18T02:51:02.000Z</time>
      </trkpt>
      <trkpt lat="22.861865" lon="110.665341">
        <ele>106.384715</ele>
        <time>2026-08-18T02:51:03.000Z</time>
      </trkpt>
      <trkpt lat="22.861854" lon="110.665372">
        <ele>106.377392</ele>
        <time>2026-08-18T02:51:04.000Z</time>
      </trkpt>
      <trkpt lat="22.861844" lon="110.665402">
        <ele>106.370358</ele>
        <time>2026-08-18T02:51:05.000Z</time>
      </trkpt>
      <trkpt lat="22.861834" lon="110.665433">
        <ele>106.363118</ele>
        <time>2026-08-18T02:51:06.000Z</time>
      </trkpt>
      <trkpt lat="22.861824" lon="110.665464">
        <ele>106.355877</ele>
        <time>2026-08-18T02:51:07.000Z</time>
      </trkpt>
      <trkpt lat="22.861812" lon="110.665494">
        <ele>106.348667</ele>
        <time>2026-08-18T02:51:08.000Z</time>
      </trkpt>
      <trkpt lat="22.861800" lon="110.665524">
        <ele>106.341457</ele>
        <time>2026-08-18T02:51:09.000Z</time>
      </trkpt>
      <trkpt lat="22.861790" lon="110.665555">
        <ele>106.334216</ele>
        <time>2026-08-18T02:51:10.000Z</time>
      </trkpt>
      <trkpt lat="22.861780" lon="110.665587">
        <ele>106.326767</ele>
        <time>2026-08-18T02:51:11.000Z</time>
      </trkpt>
      <trkpt lat="22.861770" lon="110.665617">
        <ele>106.319733</ele>
        <time>2026-08-18T02:51:12.000Z</time>
      </trkpt>
      <trkpt lat="22.861761" lon="110.665648">
        <ele>106.312568</ele>
        <time>2026-08-18T02:51:13.000Z</time>
      </trkpt>
      <trkpt lat="22.861754" lon="110.665682">
        <ele>106.304888</ele>
        <time>2026-08-18T02:51:14.000Z</time>
      </trkpt>
      <trkpt lat="22.861746" lon="110.665720">
        <ele>106.296294</ele>
        <time>2026-08-18T02:51:15.000Z</time>
      </trkpt>
      <trkpt lat="22.861739" lon="110.665763">
        <ele>106.286668</ele>
        <time>2026-08-18T02:51:16.000Z</time>
      </trkpt>
      <trkpt lat="22.861732" lon="110.665809">
        <ele>106.276390</ele>
        <time>2026-08-18T02:51:17.000Z</time>
      </trkpt>
      <trkpt lat="22.861726" lon="110.665859">
        <ele>106.265274</ele>
        <time>2026-08-18T02:51:18.000Z</time>
      </trkpt>
      <trkpt lat="22.861722" lon="110.665912">
        <ele>106.253550</ele>
        <time>2026-08-18T02:51:19.000Z</time>
      </trkpt>
      <trkpt lat="22.861718" lon="110.665971">
        <ele>106.240508</ele>
        <time>2026-08-18T02:51:20.000Z</time>
      </trkpt>
      <trkpt lat="22.861715" lon="110.666031">
        <ele>106.227261</ele>
        <time>2026-08-18T02:51:21.000Z</time>
      </trkpt>
      <trkpt lat="22.861717" lon="110.666091">
        <ele>106.214025</ele>
        <time>2026-08-18T02:51:22.000Z</time>
      </trkpt>
      <trkpt lat="22.861713" lon="110.666153">
        <ele>106.200323</ele>
        <time>2026-08-18T02:51:23.000Z</time>
      </trkpt>
      <trkpt lat="22.861710" lon="110.666212">
        <ele>106.187297</ele>
        <time>2026-08-18T02:51:24.000Z</time>
      </trkpt>
      <trkpt lat="22.861707" lon="110.666269">
        <ele>106.174710</ele>
        <time>2026-08-18T02:51:25.000Z</time>
      </trkpt>
      <trkpt lat="22.861700" lon="110.666322">
        <ele>106.162907</ele>
        <time>2026-08-18T02:51:26.000Z</time>
      </trkpt>
      <trkpt lat="22.861696" lon="110.666363">
        <ele>106.153817</ele>
        <time>2026-08-18T02:51:27.000Z</time>
      </trkpt>
      <trkpt lat="22.861692" lon="110.666391">
        <ele>106.147571</ele>
        <time>2026-08-18T02:51:28.000Z</time>
      </trkpt>
      <trkpt lat="22.861693" lon="110.666416">
        <ele>106.142054</ele>
        <time>2026-08-18T02:51:29.000Z</time>
      </trkpt>
      <trkpt lat="22.861692" lon="110.666440">
        <ele>106.136758</ele>
        <time>2026-08-18T02:51:30.000Z</time>
      </trkpt>
      <trkpt lat="22.861690" lon="110.666461">
        <ele>106.132103</ele>
        <time>2026-08-18T02:51:31.000Z</time>
      </trkpt>
      <trkpt lat="22.861690" lon="110.666485">
        <ele>106.126812</ele>
        <time>2026-08-18T02:51:32.000Z</time>
      </trkpt>
      <trkpt lat="22.861687" lon="110.666509">
        <ele>106.121473</ele>
        <time>2026-08-18T02:51:33.000Z</time>
      </trkpt>
      <trkpt lat="22.861683" lon="110.666528">
        <ele>106.117176</ele>
        <time>2026-08-18T02:51:34.000Z</time>
      </trkpt>
      <trkpt lat="22.861683" lon="110.666546">
        <ele>106.113208</ele>
        <time>2026-08-18T02:51:35.000Z</time>
      </trkpt>
      <trkpt lat="22.861682" lon="110.666567">
        <ele>106.108572</ele>
        <time>2026-08-18T02:51:36.000Z</time>
      </trkpt>
      <trkpt lat="22.861679" lon="110.666590">
        <ele>106.103451</ele>
        <time>2026-08-18T02:51:37.000Z</time>
      </trkpt>
      <trkpt lat="22.861683" lon="110.666614">
        <ele>106.098075</ele>
        <time>2026-08-18T02:51:38.000Z</time>
      </trkpt>
      <trkpt lat="22.861681" lon="110.666641">
        <ele>106.092103</ele>
        <time>2026-08-18T02:51:39.000Z</time>
      </trkpt>
      <trkpt lat="22.861677" lon="110.666668">
        <ele>106.086074</ele>
        <time>2026-08-18T02:51:40.000Z</time>
      </trkpt>
      <trkpt lat="22.861671" lon="110.666693">
        <ele>106.080379</ele>
        <time>2026-08-18T02:51:41.000Z</time>
      </trkpt>
      <trkpt lat="22.861668" lon="110.666720">
        <ele>106.074383</ele>
        <time>2026-08-18T02:51:42.000Z</time>
      </trkpt>
      <trkpt lat="22.861663" lon="110.666744">
        <ele>106.068959</ele>
        <time>2026-08-18T02:51:43.000Z</time>
      </trkpt>
      <trkpt lat="22.861656" lon="110.666773">
        <ele>106.062350</ele>
        <time>2026-08-18T02:51:44.000Z</time>
      </trkpt>
      <trkpt lat="22.861650" lon="110.666799">
        <ele>106.056441</ele>
        <time>2026-08-18T02:51:45.000Z</time>
      </trkpt>
      <trkpt lat="22.861646" lon="110.666827">
        <ele>106.050194</ele>
        <time>2026-08-18T02:51:46.000Z</time>
      </trkpt>
      <trkpt lat="22.861640" lon="110.666845">
        <ele>106.045975</ele>
        <time>2026-08-18T02:51:47.000Z</time>
      </trkpt>
      <trkpt lat="22.861636" lon="110.666867">
        <ele>106.041031</ele>
        <time>2026-08-18T02:51:48.000Z</time>
      </trkpt>
      <trkpt lat="22.861634" lon="110.666880">
        <ele>106.038125</ele>
        <time>2026-08-18T02:51:49.000Z</time>
      </trkpt>
      <trkpt lat="22.861631" lon="110.666905">
        <ele>106.032567</ele>
        <time>2026-08-18T02:51:50.000Z</time>
      </trkpt>
      <trkpt lat="22.861626" lon="110.666932">
        <ele>106.026496</ele>
        <time>2026-08-18T02:51:51.000Z</time>
      </trkpt>
      <trkpt lat="22.861617" lon="110.666962">
        <ele>106.019541</ele>
        <time>2026-08-18T02:51:52.000Z</time>
      </trkpt>
      <trkpt lat="22.861609" lon="110.666994">
        <ele>106.012231</ele>
        <time>2026-08-18T02:51:53.000Z</time>
      </trkpt>
      <trkpt lat="22.861602" lon="110.667027">
        <ele>106.004766</ele>
        <time>2026-08-18T02:51:54.000Z</time>
      </trkpt>
      <trkpt lat="22.861593" lon="110.667064">
        <ele>105.996329</ele>
        <time>2026-08-18T02:51:55.000Z</time>
      </trkpt>
      <trkpt lat="22.861584" lon="110.667101">
        <ele>105.985016</ele>
        <time>2026-08-18T02:51:56.000Z</time>
      </trkpt>
      <trkpt lat="22.861572" lon="110.667134">
        <ele>105.973930</ele>
        <time>2026-08-18T02:51:57.000Z</time>
      </trkpt>
      <trkpt lat="22.861566" lon="110.667171">
        <ele>105.962191</ele>
        <time>2026-08-18T02:51:58.000Z</time>
      </trkpt>
      <trkpt lat="22.861563" lon="110.667209">
        <ele>105.950273</ele>
        <time>2026-08-18T02:51:59.000Z</time>
      </trkpt>
      <trkpt lat="22.861557" lon="110.667249">
        <ele>105.937610</ele>
        <time>2026-08-18T02:52:00.000Z</time>
      </trkpt>
      <trkpt lat="22.861549" lon="110.667287">
        <ele>105.925429</ele>
        <time>2026-08-18T02:52:01.000Z</time>
      </trkpt>
      <trkpt lat="22.861537" lon="110.667325">
        <ele>105.912877</ele>
        <time>2026-08-18T02:52:02.000Z</time>
      </trkpt>
      <trkpt lat="22.861530" lon="110.667369">
        <ele>105.898925</ele>
        <time>2026-08-18T02:52:03.000Z</time>
      </trkpt>
      <trkpt lat="22.861521" lon="110.667415">
        <ele>105.884230</ele>
        <time>2026-08-18T02:52:04.000Z</time>
      </trkpt>
      <trkpt lat="22.861511" lon="110.667463">
        <ele>105.868853</ele>
        <time>2026-08-18T02:52:05.000Z</time>
      </trkpt>
      <trkpt lat="22.861504" lon="110.667507">
        <ele>105.854900</ele>
        <time>2026-08-18T02:52:06.000Z</time>
      </trkpt>
      <trkpt lat="22.861491" lon="110.667556">
        <ele>105.838967</ele>
        <time>2026-08-18T02:52:07.000Z</time>
      </trkpt>
      <trkpt lat="22.861482" lon="110.667613">
        <ele>105.820896</ele>
        <time>2026-08-18T02:52:08.000Z</time>
      </trkpt>
      <trkpt lat="22.861468" lon="110.667668">
        <ele>105.803066</ele>
        <time>2026-08-18T02:52:09.000Z</time>
      </trkpt>
      <trkpt lat="22.861456" lon="110.667720">
        <ele>105.786315</ele>
        <time>2026-08-18T02:52:10.000Z</time>
      </trkpt>
      <trkpt lat="22.861439" lon="110.667777">
        <ele>105.767594</ele>
        <time>2026-08-18T02:52:11.000Z</time>
      </trkpt>
      <trkpt lat="22.861423" lon="110.667831">
        <ele>105.749870</ele>
        <time>2026-08-18T02:52:12.000Z</time>
      </trkpt>
      <trkpt lat="22.861402" lon="110.667879">
        <ele>105.733266</ele>
        <time>2026-08-18T02:52:13.000Z</time>
      </trkpt>
      <trkpt lat="22.861379" lon="110.667922">
        <ele>105.717730</ele>
        <time>2026-08-18T02:52:14.000Z</time>
      </trkpt>
      <trkpt lat="22.861355" lon="110.667966">
        <ele>105.701752</ele>
        <time>2026-08-18T02:52:15.000Z</time>
      </trkpt>
      <trkpt lat="22.861331" lon="110.668010">
        <ele>105.685775</ele>
        <time>2026-08-18T02:52:16.000Z</time>
      </trkpt>
      <trkpt lat="22.861305" lon="110.668054">
        <ele>105.669442</ele>
        <time>2026-08-18T02:52:17.000Z</time>
      </trkpt>
      <trkpt lat="22.861278" lon="110.668097">
        <ele>105.653182</ele>
        <time>2026-08-18T02:52:18.000Z</time>
      </trkpt>
      <trkpt lat="22.861250" lon="110.668138">
        <ele>105.637235</ele>
        <time>2026-08-18T02:52:19.000Z</time>
      </trkpt>
      <trkpt lat="22.861222" lon="110.668179">
        <ele>105.621289</ele>
        <time>2026-08-18T02:52:20.000Z</time>
      </trkpt>
      <trkpt lat="22.861195" lon="110.668223">
        <ele>105.604770</ele>
        <time>2026-08-18T02:52:21.000Z</time>
      </trkpt>
      <trkpt lat="22.861170" lon="110.668269">
        <ele>105.588082</ele>
        <time>2026-08-18T02:52:22.000Z</time>
      </trkpt>
      <trkpt lat="22.861146" lon="110.668317">
        <ele>105.571017</ele>
        <time>2026-08-18T02:52:23.000Z</time>
      </trkpt>
      <trkpt lat="22.861126" lon="110.668361">
        <ele>105.555686</ele>
        <time>2026-08-18T02:52:24.000Z</time>
      </trkpt>
      <trkpt lat="22.861105" lon="110.668409">
        <ele>105.539082</ele>
        <time>2026-08-18T02:52:25.000Z</time>
      </trkpt>
      <trkpt lat="22.861089" lon="110.668455">
        <ele>105.523718</ele>
        <time>2026-08-18T02:52:26.000Z</time>
      </trkpt>
      <trkpt lat="22.861074" lon="110.668507">
        <ele>105.506692</ele>
        <time>2026-08-18T02:52:27.000Z</time>
      </trkpt>
      <trkpt lat="22.861061" lon="110.668557">
        <ele>105.490458</ele>
        <time>2026-08-18T02:52:28.000Z</time>
      </trkpt>
      <trkpt lat="22.861046" lon="110.668608">
        <ele>105.473729</ele>
        <time>2026-08-18T02:52:29.000Z</time>
      </trkpt>
      <trkpt lat="22.861033" lon="110.668659">
        <ele>105.457194</ele>
        <time>2026-08-18T02:52:30.000Z</time>
      </trkpt>
      <trkpt lat="22.861026" lon="110.668706">
        <ele>105.442317</ele>
        <time>2026-08-18T02:52:31.000Z</time>
      </trkpt>
      <trkpt lat="22.861010" lon="110.668749">
        <ele>105.427826</ele>
        <time>2026-08-18T02:52:32.000Z</time>
      </trkpt>
      <trkpt lat="22.860992" lon="110.668794">
        <ele>105.412497</ele>
        <time>2026-08-18T02:52:33.000Z</time>
      </trkpt>
      <trkpt lat="22.860973" lon="110.668840">
        <ele>105.396745</ele>
        <time>2026-08-18T02:52:34.000Z</time>
      </trkpt>
      <trkpt lat="22.860953" lon="110.668887">
        <ele>105.407207</ele>
        <time>2026-08-18T02:52:35.000Z</time>
      </trkpt>
      <trkpt lat="22.860935" lon="110.668931">
        <ele>105.486070</ele>
        <time>2026-08-18T02:52:36.000Z</time>
      </trkpt>
      <trkpt lat="22.860919" lon="110.668976">
        <ele>105.565084</ele>
        <time>2026-08-18T02:52:37.000Z</time>
      </trkpt>
      <trkpt lat="22.860902" lon="110.669018">
        <ele>105.640232</ele>
        <time>2026-08-18T02:52:38.000Z</time>
      </trkpt>
      <trkpt lat="22.860881" lon="110.669057">
        <ele>105.714229</ele>
        <time>2026-08-18T02:52:39.000Z</time>
      </trkpt>
      <trkpt lat="22.860861" lon="110.669096">
        <ele>105.787345</ele>
        <time>2026-08-18T02:52:40.000Z</time>
      </trkpt>
      <trkpt lat="22.860840" lon="110.669136">
        <ele>105.862761</ele>
        <time>2026-08-18T02:52:41.000Z</time>
      </trkpt>
      <trkpt lat="22.860821" lon="110.669175">
        <ele>105.935029</ele>
        <time>2026-08-18T02:52:42.000Z</time>
      </trkpt>
      <trkpt lat="22.860802" lon="110.669215">
        <ele>106.008749</ele>
        <time>2026-08-18T02:52:43.000Z</time>
      </trkpt>
      <trkpt lat="22.860782" lon="110.669252">
        <ele>106.079020</ele>
        <time>2026-08-18T02:52:44.000Z</time>
      </trkpt>
      <trkpt lat="22.860763" lon="110.669290">
        <ele>106.149844</ele>
        <time>2026-08-18T02:52:45.000Z</time>
      </trkpt>
      <trkpt lat="22.860743" lon="110.669328">
        <ele>106.221533</ele>
        <time>2026-08-18T02:52:46.000Z</time>
      </trkpt>
      <trkpt lat="22.860724" lon="110.669363">
        <ele>106.288079</ele>
        <time>2026-08-18T02:52:47.000Z</time>
      </trkpt>
      <trkpt lat="22.860704" lon="110.669398">
        <ele>106.355545</ele>
        <time>2026-08-18T02:52:48.000Z</time>
      </trkpt>
      <trkpt lat="22.860682" lon="110.669435">
        <ele>106.427680</ele>
        <time>2026-08-18T02:52:49.000Z</time>
      </trkpt>
      <trkpt lat="22.860662" lon="110.669470">
        <ele>106.495146</ele>
        <time>2026-08-18T02:52:50.000Z</time>
      </trkpt>
      <trkpt lat="22.860642" lon="110.669506">
        <ele>106.564009</ele>
        <time>2026-08-18T02:52:51.000Z</time>
      </trkpt>
      <trkpt lat="22.860622" lon="110.669542">
        <ele>106.632872</ele>
        <time>2026-08-18T02:52:52.000Z</time>
      </trkpt>
      <trkpt lat="22.860600" lon="110.669576">
        <ele>106.700930</ele>
        <time>2026-08-18T02:52:53.000Z</time>
      </trkpt>
      <trkpt lat="22.860576" lon="110.669609">
        <ele>106.769799</ele>
        <time>2026-08-18T02:52:54.000Z</time>
      </trkpt>
      <trkpt lat="22.860551" lon="110.669642">
        <ele>106.839783</ele>
        <time>2026-08-18T02:52:55.000Z</time>
      </trkpt>
      <trkpt lat="22.860527" lon="110.669675">
        <ele>106.908652</ele>
        <time>2026-08-18T02:52:56.000Z</time>
      </trkpt>
      <trkpt lat="22.860502" lon="110.669705">
        <ele>106.974914</ele>
        <time>2026-08-18T02:52:57.000Z</time>
      </trkpt>
      <trkpt lat="22.860479" lon="110.669736">
        <ele>107.040112</ele>
        <time>2026-08-18T02:52:58.000Z</time>
      </trkpt>
      <trkpt lat="22.860453" lon="110.669764">
        <ele>107.105231</ele>
        <time>2026-08-18T02:52:59.000Z</time>
      </trkpt>
      <trkpt lat="22.860425" lon="110.669793">
        <ele>107.174041</ele>
        <time>2026-08-18T02:53:00.000Z</time>
      </trkpt>
      <trkpt lat="22.860397" lon="110.669821">
        <ele>107.241730</ele>
        <time>2026-08-18T02:53:01.000Z</time>
      </trkpt>
      <trkpt lat="22.860368" lon="110.669849">
        <ele>107.310737</ele>
        <time>2026-08-18T02:53:02.000Z</time>
      </trkpt>
      <trkpt lat="22.860338" lon="110.669877">
        <ele>107.381083</ele>
        <time>2026-08-18T02:53:03.000Z</time>
      </trkpt>
      <trkpt lat="22.860309" lon="110.669903">
        <ele>107.447957</ele>
        <time>2026-08-18T02:53:04.000Z</time>
      </trkpt>
      <trkpt lat="22.860275" lon="110.669923">
        <ele>107.516710</ele>
        <time>2026-08-18T02:53:05.000Z</time>
      </trkpt>
      <trkpt lat="22.860243" lon="110.669945">
        <ele>107.584055</ele>
        <time>2026-08-18T02:53:06.000Z</time>
      </trkpt>
      <trkpt lat="22.860210" lon="110.669966">
        <ele>107.652065</ele>
        <time>2026-08-18T02:53:07.000Z</time>
      </trkpt>
      <trkpt lat="22.860177" lon="110.669986">
        <ele>107.719261</ele>
        <time>2026-08-18T02:53:08.000Z</time>
      </trkpt>
      <trkpt lat="22.860148" lon="110.670010">
        <ele>107.784098</ele>
        <time>2026-08-18T02:53:09.000Z</time>
      </trkpt>
      <trkpt lat="22.860118" lon="110.670036">
        <ele>107.852352</ele>
        <time>2026-08-18T02:53:10.000Z</time>
      </trkpt>
      <trkpt lat="22.860089" lon="110.670059">
        <ele>107.916209</ele>
        <time>2026-08-18T02:53:11.000Z</time>
      </trkpt>
      <trkpt lat="22.860060" lon="110.670082">
        <ele>107.980065</ele>
        <time>2026-08-18T02:53:12.000Z</time>
      </trkpt>
      <trkpt lat="22.860032" lon="110.670104">
        <ele>108.041521</ele>
        <time>2026-08-18T02:53:13.000Z</time>
      </trkpt>
      <trkpt lat="22.860005" lon="110.670128">
        <ele>108.103568</ele>
        <time>2026-08-18T02:53:14.000Z</time>
      </trkpt>
      <trkpt lat="22.859980" lon="110.670148">
        <ele>108.158783</ele>
        <time>2026-08-18T02:53:15.000Z</time>
      </trkpt>
      <trkpt lat="22.859955" lon="110.670166">
        <ele>108.212121</ele>
        <time>2026-08-18T02:53:16.000Z</time>
      </trkpt>
      <trkpt lat="22.859931" lon="110.670181">
        <ele>108.261358</ele>
        <time>2026-08-18T02:53:17.000Z</time>
      </trkpt>
      <trkpt lat="22.859906" lon="110.670197">
        <ele>108.312956</ele>
        <time>2026-08-18T02:53:18.000Z</time>
      </trkpt>
      <trkpt lat="22.859881" lon="110.670216">
        <ele>108.367216</ele>
        <time>2026-08-18T02:53:19.000Z</time>
      </trkpt>
      <trkpt lat="22.859857" lon="110.670235">
        <ele>108.420030</ele>
        <time>2026-08-18T02:53:20.000Z</time>
      </trkpt>
      <trkpt lat="22.859832" lon="110.670252">
        <ele>108.472479</ele>
        <time>2026-08-18T02:53:21.000Z</time>
      </trkpt>
      <trkpt lat="22.859803" lon="110.670270">
        <ele>108.531872</ele>
        <time>2026-08-18T02:53:22.000Z</time>
      </trkpt>
      <trkpt lat="22.859776" lon="110.670291">
        <ele>108.594883</ele>
        <time>2026-08-18T02:53:23.000Z</time>
      </trkpt>
      <trkpt lat="22.859747" lon="110.670310">
        <ele>108.683272</ele>
        <time>2026-08-18T02:53:24.000Z</time>
      </trkpt>
      <trkpt lat="22.859717" lon="110.670327">
        <ele>108.771579</ele>
        <time>2026-08-18T02:53:25.000Z</time>
      </trkpt>
      <trkpt lat="22.859687" lon="110.670344">
        <ele>108.859885</ele>
        <time>2026-08-18T02:53:26.000Z</time>
      </trkpt>
      <trkpt lat="22.859658" lon="110.670360">
        <ele>108.944771</ele>
        <time>2026-08-18T02:53:27.000Z</time>
      </trkpt>
      <trkpt lat="22.859630" lon="110.670378">
        <ele>109.029686</ele>
        <time>2026-08-18T02:53:28.000Z</time>
      </trkpt>
      <trkpt lat="22.859603" lon="110.670396">
        <ele>109.112367</ele>
        <time>2026-08-18T02:53:29.000Z</time>
      </trkpt>
      <trkpt lat="22.859576" lon="110.670413">
        <ele>109.193816</ele>
        <time>2026-08-18T02:53:30.000Z</time>
      </trkpt>
      <trkpt lat="22.859549" lon="110.670431">
        <ele>109.276497</ele>
        <time>2026-08-18T02:53:31.000Z</time>
      </trkpt>
      <trkpt lat="22.859520" lon="110.670449">
        <ele>109.363668</ele>
        <time>2026-08-18T02:53:32.000Z</time>
      </trkpt>
      <trkpt lat="22.859495" lon="110.670466">
        <ele>109.440647</ele>
        <time>2026-08-18T02:53:33.000Z</time>
      </trkpt>
      <trkpt lat="22.859472" lon="110.670484">
        <ele>109.514637</ele>
        <time>2026-08-18T02:53:34.000Z</time>
      </trkpt>
      <trkpt lat="22.859449" lon="110.670501">
        <ele>109.587247</ele>
        <time>2026-08-18T02:53:35.000Z</time>
      </trkpt>
      <trkpt lat="22.859428" lon="110.670520">
        <ele>109.658586</ele>
        <time>2026-08-18T02:53:36.000Z</time>
      </trkpt>
      <trkpt lat="22.859407" lon="110.670535">
        <ele>109.724184</ele>
        <time>2026-08-18T02:53:37.000Z</time>
      </trkpt>
      <trkpt lat="22.859387" lon="110.670549">
        <ele>109.786284</ele>
        <time>2026-08-18T02:53:38.000Z</time>
      </trkpt>
      <trkpt lat="22.859365" lon="110.670562">
        <ele>109.851645</ele>
        <time>2026-08-18T02:53:39.000Z</time>
      </trkpt>
      <trkpt lat="22.859344" lon="110.670572">
        <ele>109.911483</ele>
        <time>2026-08-18T02:53:40.000Z</time>
      </trkpt>
      <trkpt lat="22.859326" lon="110.670583">
        <ele>109.965384</ele>
        <time>2026-08-18T02:53:41.000Z</time>
      </trkpt>
      <trkpt lat="22.859309" lon="110.670593">
        <ele>110.015838</ele>
        <time>2026-08-18T02:53:42.000Z</time>
      </trkpt>
      <trkpt lat="22.859290" lon="110.670603">
        <ele>110.070937</ele>
        <time>2026-08-18T02:53:43.000Z</time>
      </trkpt>
      <trkpt lat="22.859271" lon="110.670615">
        <ele>110.128297</ele>
        <time>2026-08-18T02:53:44.000Z</time>
      </trkpt>
      <trkpt lat="22.859250" lon="110.670627">
        <ele>110.190223</ele>
        <time>2026-08-18T02:53:45.000Z</time>
      </trkpt>
      <trkpt lat="22.859229" lon="110.670641">
        <ele>110.254531</ele>
        <time>2026-08-18T02:53:46.000Z</time>
      </trkpt>
      <trkpt lat="22.859209" lon="110.670654">
        <ele>110.315361</ele>
        <time>2026-08-18T02:53:47.000Z</time>
      </trkpt>
      <trkpt lat="22.859186" lon="110.670665">
        <ele>110.380943</ele>
        <time>2026-08-18T02:53:48.000Z</time>
      </trkpt>
      <trkpt lat="22.859161" lon="110.670675">
        <ele>110.450464</ele>
        <time>2026-08-18T02:53:49.000Z</time>
      </trkpt>
      <trkpt lat="22.859135" lon="110.670684">
        <ele>110.521673</ele>
        <time>2026-08-18T02:53:50.000Z</time>
      </trkpt>
      <trkpt lat="22.859111" lon="110.670694">
        <ele>110.588752</ele>
        <time>2026-08-18T02:53:51.000Z</time>
      </trkpt>
      <trkpt lat="22.859086" lon="110.670705">
        <ele>110.659141</ele>
        <time>2026-08-18T02:53:52.000Z</time>
      </trkpt>
      <trkpt lat="22.859063" lon="110.670713">
        <ele>110.722161</ele>
        <time>2026-08-18T02:53:53.000Z</time>
      </trkpt>
      <trkpt lat="22.859040" lon="110.670719">
        <ele>110.783884</ele>
        <time>2026-08-18T02:53:54.000Z</time>
      </trkpt>
      <trkpt lat="22.859016" lon="110.670725">
        <ele>110.848146</ele>
        <time>2026-08-18T02:53:55.000Z</time>
      </trkpt>
      <trkpt lat="22.858994" lon="110.670733">
        <ele>110.908686</ele>
        <time>2026-08-18T02:53:56.000Z</time>
      </trkpt>
      <trkpt lat="22.858969" lon="110.670742">
        <ele>110.977413</ele>
        <time>2026-08-18T02:53:57.000Z</time>
      </trkpt>
      <trkpt lat="22.858945" lon="110.670752">
        <ele>111.044493</ele>
        <time>2026-08-18T02:53:58.000Z</time>
      </trkpt>
      <trkpt lat="22.858920" lon="110.670761">
        <ele>111.113220</ele>
        <time>2026-08-18T02:53:59.000Z</time>
      </trkpt>
      <trkpt lat="22.858895" lon="110.670770">
        <ele>111.181946</ele>
        <time>2026-08-18T02:54:00.000Z</time>
      </trkpt>
      <trkpt lat="22.858867" lon="110.670780">
        <ele>111.258860</ele>
        <time>2026-08-18T02:54:01.000Z</time>
      </trkpt>
      <trkpt lat="22.858841" lon="110.670793">
        <ele>111.333555</ele>
        <time>2026-08-18T02:54:02.000Z</time>
      </trkpt>
      <trkpt lat="22.858818" lon="110.670812">
        <ele>111.408977</ele>
        <time>2026-08-18T02:54:03.000Z</time>
      </trkpt>
      <trkpt lat="22.858794" lon="110.670830">
        <ele>111.485099</ele>
        <time>2026-08-18T02:54:04.000Z</time>
      </trkpt>
      <trkpt lat="22.858767" lon="110.670845">
        <ele>111.564244</ele>
        <time>2026-08-18T02:54:05.000Z</time>
      </trkpt>
      <trkpt lat="22.858740" lon="110.670859">
        <ele>111.642322</ele>
        <time>2026-08-18T02:54:06.000Z</time>
      </trkpt>
      <trkpt lat="22.858711" lon="110.670872">
        <ele>111.724192</ele>
        <time>2026-08-18T02:54:07.000Z</time>
      </trkpt>
      <trkpt lat="22.858683" lon="110.670888">
        <ele>111.806760</ele>
        <time>2026-08-18T02:54:08.000Z</time>
      </trkpt>
      <trkpt lat="22.858655" lon="110.670905">
        <ele>111.890476</ele>
        <time>2026-08-18T02:54:09.000Z</time>
      </trkpt>
      <trkpt lat="22.858628" lon="110.670926">
        <ele>111.977151</ele>
        <time>2026-08-18T02:54:10.000Z</time>
      </trkpt>
      <trkpt lat="22.858603" lon="110.670946">
        <ele>112.058191</ele>
        <time>2026-08-18T02:54:11.000Z</time>
      </trkpt>
      <trkpt lat="22.858578" lon="110.670966">
        <ele>112.139231</ele>
        <time>2026-08-18T02:54:12.000Z</time>
      </trkpt>
      <trkpt lat="22.858555" lon="110.670990">
        <ele>112.222486</ele>
        <time>2026-08-18T02:54:13.000Z</time>
      </trkpt>
      <trkpt lat="22.858532" lon="110.671014">
        <ele>112.305741</ele>
        <time>2026-08-18T02:54:14.000Z</time>
      </trkpt>
      <trkpt lat="22.858511" lon="110.671037">
        <ele>112.383590</ele>
        <time>2026-08-18T02:54:15.000Z</time>
      </trkpt>
      <trkpt lat="22.858491" lon="110.671060">
        <ele>112.459625</ele>
        <time>2026-08-18T02:54:16.000Z</time>
      </trkpt>
      <trkpt lat="22.858471" lon="110.671086">
        <ele>112.541057</ele>
        <time>2026-08-18T02:54:17.000Z</time>
      </trkpt>
      <trkpt lat="22.858454" lon="110.671110">
        <ele>112.613840</ele>
        <time>2026-08-18T02:54:18.000Z</time>
      </trkpt>
      <trkpt lat="22.858438" lon="110.671133">
        <ele>112.683129</ele>
        <time>2026-08-18T02:54:19.000Z</time>
      </trkpt>
      <trkpt lat="22.858426" lon="110.671154">
        <ele>112.742541</ele>
        <time>2026-08-18T02:54:20.000Z</time>
      </trkpt>
      <trkpt lat="22.858414" lon="110.671170">
        <ele>112.792143</ele>
        <time>2026-08-18T02:54:21.000Z</time>
      </trkpt>
      <trkpt lat="22.858402" lon="110.671183">
        <ele>112.836385</ele>
        <time>2026-08-18T02:54:22.000Z</time>
      </trkpt>
      <trkpt lat="22.858393" lon="110.671201">
        <ele>112.885623</ele>
        <time>2026-08-18T02:54:23.000Z</time>
      </trkpt>
      <trkpt lat="22.858381" lon="110.671216">
        <ele>112.933384</ele>
        <time>2026-08-18T02:54:24.000Z</time>
      </trkpt>
      <trkpt lat="22.858373" lon="110.671236">
        <ele>112.985806</ele>
        <time>2026-08-18T02:54:25.000Z</time>
      </trkpt>
      <trkpt lat="22.858366" lon="110.671256">
        <ele>113.037245</ele>
        <time>2026-08-18T02:54:26.000Z</time>
      </trkpt>
      <trkpt lat="22.858360" lon="110.671274">
        <ele>113.083268</ele>
        <time>2026-08-18T02:54:27.000Z</time>
      </trkpt>
      <trkpt lat="22.858354" lon="110.671294">
        <ele>113.133839</ele>
        <time>2026-08-18T02:54:28.000Z</time>
      </trkpt>
      <trkpt lat="22.858348" lon="110.671313">
        <ele>113.182130</ele>
        <time>2026-08-18T02:54:29.000Z</time>
      </trkpt>
      <trkpt lat="22.858343" lon="110.671334">
        <ele>113.234280</ele>
        <time>2026-08-18T02:54:30.000Z</time>
      </trkpt>
      <trkpt lat="22.858337" lon="110.671352">
        <ele>113.273444</ele>
        <time>2026-08-18T02:54:31.000Z</time>
      </trkpt>
      <trkpt lat="22.858330" lon="110.671369">
        <ele>113.252995</ele>
        <time>2026-08-18T02:54:32.000Z</time>
      </trkpt>
      <trkpt lat="22.858322" lon="110.671390">
        <ele>113.228039</ele>
        <time>2026-08-18T02:54:33.000Z</time>
      </trkpt>
      <trkpt lat="22.858313" lon="110.671413">
        <ele>113.200597</ele>
        <time>2026-08-18T02:54:34.000Z</time>
      </trkpt>
      <trkpt lat="22.858309" lon="110.671436">
        <ele>113.174892</ele>
        <time>2026-08-18T02:54:35.000Z</time>
      </trkpt>
      <trkpt lat="22.858307" lon="110.671463">
        <ele>113.145145</ele>
        <time>2026-08-18T02:54:36.000Z</time>
      </trkpt>
      <trkpt lat="22.858305" lon="110.671488">
        <ele>113.117586</ele>
        <time>2026-08-18T02:54:37.000Z</time>
      </trkpt>
      <trkpt lat="22.858303" lon="110.671515">
        <ele>113.087838</ele>
        <time>2026-08-18T02:54:38.000Z</time>
      </trkpt>
      <trkpt lat="22.858301" lon="110.671542">
        <ele>113.058091</ele>
        <time>2026-08-18T02:54:39.000Z</time>
      </trkpt>
      <trkpt lat="22.858297" lon="110.671568">
        <ele>113.029142</ele>
        <time>2026-08-18T02:54:40.000Z</time>
      </trkpt>
      <trkpt lat="22.858295" lon="110.671593">
        <ele>113.001583</ele>
        <time>2026-08-18T02:54:41.000Z</time>
      </trkpt>
      <trkpt lat="22.858295" lon="110.671619">
        <ele>112.973030</ele>
        <time>2026-08-18T02:54:42.000Z</time>
      </trkpt>
      <trkpt lat="22.858295" lon="110.671647">
        <ele>112.942280</ele>
        <time>2026-08-18T02:54:43.000Z</time>
      </trkpt>
      <trkpt lat="22.858300" lon="110.671674">
        <ele>112.912035</ele>
        <time>2026-08-18T02:54:44.000Z</time>
      </trkpt>
      <trkpt lat="22.858308" lon="110.671703">
        <ele>112.878790</ele>
        <time>2026-08-18T02:54:45.000Z</time>
      </trkpt>
      <trkpt lat="22.858320" lon="110.671735">
        <ele>112.840849</ele>
        <time>2026-08-18T02:54:46.000Z</time>
      </trkpt>
      <trkpt lat="22.858333" lon="110.671766">
        <ele>112.803444</ele>
        <time>2026-08-18T02:54:47.000Z</time>
      </trkpt>
      <trkpt lat="22.858345" lon="110.671801">
        <ele>112.762432</ele>
        <time>2026-08-18T02:54:48.000Z</time>
      </trkpt>
      <trkpt lat="22.858355" lon="110.671839">
        <ele>112.719031</ele>
        <time>2026-08-18T02:54:49.000Z</time>
      </trkpt>
      <trkpt lat="22.858367" lon="110.671877">
        <ele>112.674917</ele>
        <time>2026-08-18T02:54:50.000Z</time>
      </trkpt>
      <trkpt lat="22.858381" lon="110.671914">
        <ele>112.630990</ele>
        <time>2026-08-18T02:54:51.000Z</time>
      </trkpt>
      <trkpt lat="22.858396" lon="110.671953">
        <ele>112.584579</ele>
        <time>2026-08-18T02:54:52.000Z</time>
      </trkpt>
      <trkpt lat="22.858410" lon="110.671995">
        <ele>112.535528</ele>
        <time>2026-08-18T02:54:53.000Z</time>
      </trkpt>
      <trkpt lat="22.858424" lon="110.672037">
        <ele>112.486478</ele>
        <time>2026-08-18T02:54:54.000Z</time>
      </trkpt>
      <trkpt lat="22.858439" lon="110.672081">
        <ele>112.434956</ele>
        <time>2026-08-18T02:54:55.000Z</time>
      </trkpt>
      <trkpt lat="22.858456" lon="110.672122">
        <ele>112.385581</ele>
        <time>2026-08-18T02:54:56.000Z</time>
      </trkpt>
      <trkpt lat="22.858471" lon="110.672166">
        <ele>112.334058</ele>
        <time>2026-08-18T02:54:57.000Z</time>
      </trkpt>
      <trkpt lat="22.858488" lon="110.672210">
        <ele>112.281661</ele>
        <time>2026-08-18T02:54:58.000Z</time>
      </trkpt>
      <trkpt lat="22.858501" lon="110.672253">
        <ele>112.231961</ele>
        <time>2026-08-18T02:54:59.000Z</time>
      </trkpt>
      <trkpt lat="22.858512" lon="110.672298">
        <ele>112.180832</ele>
        <time>2026-08-18T02:55:00.000Z</time>
      </trkpt>
      <trkpt lat="22.858523" lon="110.672342">
        <ele>112.130764</ele>
        <time>2026-08-18T02:55:01.000Z</time>
      </trkpt>
      <trkpt lat="22.858531" lon="110.672386">
        <ele>112.081511</ele>
        <time>2026-08-18T02:55:02.000Z</time>
      </trkpt>
      <trkpt lat="22.858540" lon="110.672429">
        <ele>112.033085</ele>
        <time>2026-08-18T02:55:03.000Z</time>
      </trkpt>
      <trkpt lat="22.858551" lon="110.672469">
        <ele>111.987242</ele>
        <time>2026-08-18T02:55:04.000Z</time>
      </trkpt>
      <trkpt lat="22.858561" lon="110.672506">
        <ele>111.944896</ele>
        <time>2026-08-18T02:55:05.000Z</time>
      </trkpt>
      <trkpt lat="22.858570" lon="110.672544">
        <ele>111.901807</ele>
        <time>2026-08-18T02:55:06.000Z</time>
      </trkpt>
      <trkpt lat="22.858580" lon="110.672591">
        <ele>111.848833</ele>
        <time>2026-08-18T02:55:07.000Z</time>
      </trkpt>
      <trkpt lat="22.858592" lon="110.672640">
        <ele>111.793153</ele>
        <time>2026-08-18T02:55:08.000Z</time>
      </trkpt>
      <trkpt lat="22.858608" lon="110.672695">
        <ele>111.729812</ele>
        <time>2026-08-18T02:55:09.000Z</time>
      </trkpt>
      <trkpt lat="22.858623" lon="110.672754">
        <ele>111.662597</ele>
        <time>2026-08-18T02:55:10.000Z</time>
      </trkpt>
      <trkpt lat="22.858647" lon="110.672818">
        <ele>111.586714</ele>
        <time>2026-08-18T02:55:11.000Z</time>
      </trkpt>
      <trkpt lat="22.858675" lon="110.672880">
        <ele>111.510887</ele>
        <time>2026-08-18T02:55:12.000Z</time>
      </trkpt>
      <trkpt lat="22.858702" lon="110.672946">
        <ele>111.431583</ele>
        <time>2026-08-18T02:55:13.000Z</time>
      </trkpt>
      <trkpt lat="22.858727" lon="110.673012">
        <ele>111.353215</ele>
        <time>2026-08-18T02:55:14.000Z</time>
      </trkpt>
      <trkpt lat="22.858747" lon="110.673078">
        <ele>111.276915</ele>
        <time>2026-08-18T02:55:15.000Z</time>
      </trkpt>
      <trkpt lat="22.858763" lon="110.673143">
        <ele>111.203028</ele>
        <time>2026-08-18T02:55:16.000Z</time>
      </trkpt>
      <trkpt lat="22.858773" lon="110.673209">
        <ele>111.130482</ele>
        <time>2026-08-18T02:55:17.000Z</time>
      </trkpt>
      <trkpt lat="22.858784" lon="110.673272">
        <ele>111.086981</ele>
        <time>2026-08-18T02:55:18.000Z</time>
      </trkpt>
      <trkpt lat="22.858802" lon="110.673333">
        <ele>111.043528</ele>
        <time>2026-08-18T02:55:19.000Z</time>
      </trkpt>
      <trkpt lat="22.858819" lon="110.673392">
        <ele>111.001590</ele>
        <time>2026-08-18T02:55:20.000Z</time>
      </trkpt>
      <trkpt lat="22.858836" lon="110.673449">
        <ele>110.960946</ele>
        <time>2026-08-18T02:55:21.000Z</time>
      </trkpt>
      <trkpt lat="22.858855" lon="110.673508">
        <ele>110.918545</ele>
        <time>2026-08-18T02:55:22.000Z</time>
      </trkpt>
      <trkpt lat="22.858873" lon="110.673565">
        <ele>110.877668</ele>
        <time>2026-08-18T02:55:23.000Z</time>
      </trkpt>
      <trkpt lat="22.858892" lon="110.673620">
        <ele>110.837819</ele>
        <time>2026-08-18T02:55:24.000Z</time>
      </trkpt>
      <trkpt lat="22.858911" lon="110.673673">
        <ele>110.799238</ele>
        <time>2026-08-18T02:55:25.000Z</time>
      </trkpt>
      <trkpt lat="22.858931" lon="110.673727">
        <ele>110.759756</ele>
        <time>2026-08-18T02:55:26.000Z</time>
      </trkpt>
      <trkpt lat="22.858950" lon="110.673782">
        <ele>110.719907</ele>
        <time>2026-08-18T02:55:27.000Z</time>
      </trkpt>
      <trkpt lat="22.858970" lon="110.673838">
        <ele>110.679162</ele>
        <time>2026-08-18T02:55:28.000Z</time>
      </trkpt>
      <trkpt lat="22.858992" lon="110.673896">
        <ele>110.636611</ele>
        <time>2026-08-18T02:55:29.000Z</time>
      </trkpt>
      <trkpt lat="22.859012" lon="110.673953">
        <ele>110.595233</ele>
        <time>2026-08-18T02:55:30.000Z</time>
      </trkpt>
      <trkpt lat="22.859032" lon="110.674012">
        <ele>110.552584</ele>
        <time>2026-08-18T02:55:31.000Z</time>
      </trkpt>
      <trkpt lat="22.859054" lon="110.674070">
        <ele>110.510033</ele>
        <time>2026-08-18T02:55:32.000Z</time>
      </trkpt>
      <trkpt lat="22.859076" lon="110.674125">
        <ele>110.469356</ele>
        <time>2026-08-18T02:55:33.000Z</time>
      </trkpt>
      <trkpt lat="22.859100" lon="110.674177">
        <ele>110.429901</ele>
        <time>2026-08-18T02:55:34.000Z</time>
      </trkpt>
      <trkpt lat="22.859122" lon="110.674228">
        <ele>110.391699</ele>
        <time>2026-08-18T02:55:35.000Z</time>
      </trkpt>
      <trkpt lat="22.859142" lon="110.674280">
        <ele>110.353472</ele>
        <time>2026-08-18T02:55:36.000Z</time>
      </trkpt>
      <trkpt lat="22.859163" lon="110.674331">
        <ele>110.315575</ele>
        <time>2026-08-18T02:55:37.000Z</time>
      </trkpt>
      <trkpt lat="22.859183" lon="110.674384">
        <ele>110.276721</ele>
        <time>2026-08-18T02:55:38.000Z</time>
      </trkpt>
      <trkpt lat="22.859204" lon="110.674435">
        <ele>110.238825</ele>
        <time>2026-08-18T02:55:39.000Z</time>
      </trkpt>
      <trkpt lat="22.859224" lon="110.674487">
        <ele>110.200598</ele>
        <time>2026-08-18T02:55:40.000Z</time>
      </trkpt>
      <trkpt lat="22.859243" lon="110.674542">
        <ele>110.160750</ele>
        <time>2026-08-18T02:55:41.000Z</time>
      </trkpt>
      <trkpt lat="22.859260" lon="110.674594">
        <ele>110.123318</ele>
        <time>2026-08-18T02:55:42.000Z</time>
      </trkpt>
      <trkpt lat="22.859272" lon="110.674646">
        <ele>110.086951</ele>
        <time>2026-08-18T02:55:43.000Z</time>
      </trkpt>
      <trkpt lat="22.859278" lon="110.674695">
        <ele>110.053417</ele>
        <time>2026-08-18T02:55:44.000Z</time>
      </trkpt>
      <trkpt lat="22.859283" lon="110.674744">
        <ele>110.019971</ele>
        <time>2026-08-18T02:55:45.000Z</time>
      </trkpt>
      <trkpt lat="22.859285" lon="110.674794">
        <ele>109.986019</ele>
        <time>2026-08-18T02:55:46.000Z</time>
      </trkpt>
      <trkpt lat="22.859288" lon="110.674840">
        <ele>109.954734</ele>
        <time>2026-08-18T02:55:47.000Z</time>
      </trkpt>
      <trkpt lat="22.859287" lon="110.674888">
        <ele>109.922162</ele>
        <time>2026-08-18T02:55:48.000Z</time>
      </trkpt>
      <trkpt lat="22.859282" lon="110.674939">
        <ele>109.887368</ele>
        <time>2026-08-18T02:55:49.000Z</time>
      </trkpt>
      <trkpt lat="22.859281" lon="110.674987">
        <ele>109.854796</ele>
        <time>2026-08-18T02:55:50.000Z</time>
      </trkpt>
      <trkpt lat="22.859277" lon="110.675036">
        <ele>109.821423</ele>
        <time>2026-08-18T02:55:51.000Z</time>
      </trkpt>
      <trkpt lat="22.859271" lon="110.675082">
        <ele>109.812568</ele>
        <time>2026-08-18T02:55:52.000Z</time>
      </trkpt>
      <trkpt lat="22.859267" lon="110.675131">
        <ele>109.821624</ele>
        <time>2026-08-18T02:55:53.000Z</time>
      </trkpt>
      <trkpt lat="22.859262" lon="110.675178">
        <ele>109.830334</ele>
        <time>2026-08-18T02:55:54.000Z</time>
      </trkpt>
      <trkpt lat="22.859258" lon="110.675225">
        <ele>109.839023</ele>
        <time>2026-08-18T02:55:55.000Z</time>
      </trkpt>
      <trkpt lat="22.859250" lon="110.675271">
        <ele>109.847641</ele>
        <time>2026-08-18T02:55:56.000Z</time>
      </trkpt>
      <trkpt lat="22.859242" lon="110.675315">
        <ele>109.855897</ele>
        <time>2026-08-18T02:55:57.000Z</time>
      </trkpt>
      <trkpt lat="22.859230" lon="110.675362">
        <ele>109.864876</ele>
        <time>2026-08-18T02:55:58.000Z</time>
      </trkpt>
      <trkpt lat="22.859215" lon="110.675412">
        <ele>109.874556</ele>
        <time>2026-08-18T02:55:59.000Z</time>
      </trkpt>
      <trkpt lat="22.859204" lon="110.675465">
        <ele>109.884557</ele>
        <time>2026-08-18T02:56:00.000Z</time>
      </trkpt>
      <trkpt lat="22.859192" lon="110.675518">
        <ele>109.894605</ele>
        <time>2026-08-18T02:56:01.000Z</time>
      </trkpt>
      <trkpt lat="22.859181" lon="110.675569">
        <ele>109.904247</ele>
        <time>2026-08-18T02:56:02.000Z</time>
      </trkpt>
      <trkpt lat="22.859173" lon="110.675621">
        <ele>109.913953</ele>
        <time>2026-08-18T02:56:03.000Z</time>
      </trkpt>
      <trkpt lat="22.859164" lon="110.675672">
        <ele>109.923512</ele>
        <time>2026-08-18T02:56:04.000Z</time>
      </trkpt>
      <trkpt lat="22.859154" lon="110.675723">
        <ele>109.933111</ele>
        <time>2026-08-18T02:56:05.000Z</time>
      </trkpt>
      <trkpt lat="22.859143" lon="110.675774">
        <ele>109.942754</ele>
        <time>2026-08-18T02:56:06.000Z</time>
      </trkpt>
      <trkpt lat="22.859132" lon="110.675823">
        <ele>109.952038</ele>
        <time>2026-08-18T02:56:07.000Z</time>
      </trkpt>
      <trkpt lat="22.859120" lon="110.675873">
        <ele>109.961550</ele>
        <time>2026-08-18T02:56:08.000Z</time>
      </trkpt>
      <trkpt lat="22.859107" lon="110.675922">
        <ele>109.970937</ele>
        <time>2026-08-18T02:56:09.000Z</time>
      </trkpt>
      <trkpt lat="22.859093" lon="110.675971">
        <ele>109.980382</ele>
        <time>2026-08-18T02:56:10.000Z</time>
      </trkpt>
      <trkpt lat="22.859081" lon="110.676019">
        <ele>109.989538</ele>
        <time>2026-08-18T02:56:11.000Z</time>
      </trkpt>
      <trkpt lat="22.859068" lon="110.676065">
        <ele>109.998396</ele>
        <time>2026-08-18T02:56:12.000Z</time>
      </trkpt>
      <trkpt lat="22.859054" lon="110.676108">
        <ele>110.006791</ele>
        <time>2026-08-18T02:56:13.000Z</time>
      </trkpt>
      <trkpt lat="22.859040" lon="110.676149">
        <ele>110.014841</ele>
        <time>2026-08-18T02:56:14.000Z</time>
      </trkpt>
      <trkpt lat="22.859024" lon="110.676192">
        <ele>110.023378</ele>
        <time>2026-08-18T02:56:15.000Z</time>
      </trkpt>
      <trkpt lat="22.859004" lon="110.676235">
        <ele>110.032245</ele>
        <time>2026-08-18T02:56:16.000Z</time>
      </trkpt>
      <trkpt lat="22.858984" lon="110.676277">
        <ele>110.040949</ele>
        <time>2026-08-18T02:56:17.000Z</time>
      </trkpt>
      <trkpt lat="22.858963" lon="110.676320">
        <ele>110.049908</ele>
        <time>2026-08-18T02:56:18.000Z</time>
      </trkpt>
      <trkpt lat="22.858942" lon="110.676365">
        <ele>110.059194</ele>
        <time>2026-08-18T02:56:19.000Z</time>
      </trkpt>
      <trkpt lat="22.858923" lon="110.676410">
        <ele>110.068307</ele>
        <time>2026-08-18T02:56:20.000Z</time>
      </trkpt>
      <trkpt lat="22.858905" lon="110.676455">
        <ele>110.077338</ele>
        <time>2026-08-18T02:56:21.000Z</time>
      </trkpt>
      <trkpt lat="22.858885" lon="110.676499">
        <ele>110.086370</ele>
        <time>2026-08-18T02:56:22.000Z</time>
      </trkpt>
      <trkpt lat="22.858863" lon="110.676541">
        <ele>110.095264</ele>
        <time>2026-08-18T02:56:23.000Z</time>
      </trkpt>
      <trkpt lat="22.858842" lon="110.676581">
        <ele>110.103739</ele>
        <time>2026-08-18T02:56:24.000Z</time>
      </trkpt>
      <trkpt lat="22.858820" lon="110.676622">
        <ele>110.112473</ele>
        <time>2026-08-18T02:56:25.000Z</time>
      </trkpt>
      <trkpt lat="22.858799" lon="110.676664">
        <ele>110.121270</ele>
        <time>2026-08-18T02:56:26.000Z</time>
      </trkpt>
      <trkpt lat="22.858781" lon="110.676708">
        <ele>110.130133</ele>
        <time>2026-08-18T02:56:27.000Z</time>
      </trkpt>
      <trkpt lat="22.858764" lon="110.676752">
        <ele>110.138916</ele>
        <time>2026-08-18T02:56:28.000Z</time>
      </trkpt>
      <trkpt lat="22.858744" lon="110.676794">
        <ele>110.147620</ele>
        <time>2026-08-18T02:56:29.000Z</time>
      </trkpt>
      <trkpt lat="22.858722" lon="110.676838">
        <ele>110.156836</ele>
        <time>2026-08-18T02:56:30.000Z</time>
      </trkpt>
      <trkpt lat="22.858699" lon="110.676881">
        <ele>110.165989</ele>
        <time>2026-08-18T02:56:31.000Z</time>
      </trkpt>
      <trkpt lat="22.858678" lon="110.676925">
        <ele>110.131990</ele>
        <time>2026-08-18T02:56:32.000Z</time>
      </trkpt>
      <trkpt lat="22.858658" lon="110.676973">
        <ele>110.089654</ele>
        <time>2026-08-18T02:56:33.000Z</time>
      </trkpt>
      <trkpt lat="22.858639" lon="110.677018">
        <ele>110.049874</ele>
        <time>2026-08-18T02:56:34.000Z</time>
      </trkpt>
      <trkpt lat="22.858618" lon="110.677064">
        <ele>110.008617</ele>
        <time>2026-08-18T02:56:35.000Z</time>
      </trkpt>
      <trkpt lat="22.858598" lon="110.677110">
        <ele>109.967741</ele>
        <time>2026-08-18T02:56:36.000Z</time>
      </trkpt>
      <trkpt lat="22.858575" lon="110.677154">
        <ele>109.927086</ele>
        <time>2026-08-18T02:56:37.000Z</time>
      </trkpt>
      <trkpt lat="22.858552" lon="110.677198">
        <ele>109.886432</ele>
        <time>2026-08-18T02:56:38.000Z</time>
      </trkpt>
      <trkpt lat="22.858528" lon="110.677245">
        <ele>109.843248</ele>
        <time>2026-08-18T02:56:39.000Z</time>
      </trkpt>
      <trkpt lat="22.858503" lon="110.677289">
        <ele>109.801705</ele>
        <time>2026-08-18T02:56:40.000Z</time>
      </trkpt>
      <trkpt lat="22.858478" lon="110.677332">
        <ele>109.760844</ele>
        <time>2026-08-18T02:56:41.000Z</time>
      </trkpt>
      <trkpt lat="22.858451" lon="110.677375">
        <ele>109.719027</ele>
        <time>2026-08-18T02:56:42.000Z</time>
      </trkpt>
      <trkpt lat="22.858424" lon="110.677416">
        <ele>109.678527</ele>
        <time>2026-08-18T02:56:43.000Z</time>
      </trkpt>
      <trkpt lat="22.858398" lon="110.677459">
        <ele>109.637194</ele>
        <time>2026-08-18T02:56:44.000Z</time>
      </trkpt>
      <trkpt lat="22.858372" lon="110.677498">
        <ele>109.598509</ele>
        <time>2026-08-18T02:56:45.000Z</time>
      </trkpt>
      <trkpt lat="22.858345" lon="110.677537">
        <ele>109.559306</ele>
        <time>2026-08-18T02:56:46.000Z</time>
      </trkpt>
      <trkpt lat="22.858317" lon="110.677575">
        <ele>109.520204</ele>
        <time>2026-08-18T02:56:47.000Z</time>
      </trkpt>
      <trkpt lat="22.858287" lon="110.677612">
        <ele>109.480596</ele>
        <time>2026-08-18T02:56:48.000Z</time>
      </trkpt>
      <trkpt lat="22.858259" lon="110.677647">
        <ele>109.443346</ele>
        <time>2026-08-18T02:56:49.000Z</time>
      </trkpt>
      <trkpt lat="22.858229" lon="110.677680">
        <ele>109.406091</ele>
        <time>2026-08-18T02:56:50.000Z</time>
      </trkpt>
      <trkpt lat="22.858201" lon="110.677712">
        <ele>109.370627</ele>
        <time>2026-08-18T02:56:51.000Z</time>
      </trkpt>
      <trkpt lat="22.858178" lon="110.677743">
        <ele>109.338641</ele>
        <time>2026-08-18T02:56:52.000Z</time>
      </trkpt>
      <trkpt lat="22.858158" lon="110.677772">
        <ele>109.309531</ele>
        <time>2026-08-18T02:56:53.000Z</time>
      </trkpt>
      <trkpt lat="22.858135" lon="110.677804">
        <ele>109.276915</ele>
        <time>2026-08-18T02:56:54.000Z</time>
      </trkpt>
      <trkpt lat="22.858113" lon="110.677841">
        <ele>109.241527</ele>
        <time>2026-08-18T02:56:55.000Z</time>
      </trkpt>
      <trkpt lat="22.858091" lon="110.677882">
        <ele>109.203397</ele>
        <time>2026-08-18T02:56:56.000Z</time>
      </trkpt>
      <trkpt lat="22.858072" lon="110.677924">
        <ele>109.165795</ele>
        <time>2026-08-18T02:56:57.000Z</time>
      </trkpt>
      <trkpt lat="22.858058" lon="110.677974">
        <ele>109.123798</ele>
        <time>2026-08-18T02:56:58.000Z</time>
      </trkpt>
      <trkpt lat="22.858044" lon="110.678027">
        <ele>109.079489</ele>
        <time>2026-08-18T02:56:59.000Z</time>
      </trkpt>
      <trkpt lat="22.858032" lon="110.678082">
        <ele>109.034065</ele>
        <time>2026-08-18T02:57:00.000Z</time>
      </trkpt>
      <trkpt lat="22.858023" lon="110.678142">
        <ele>108.985211</ele>
        <time>2026-08-18T02:57:01.000Z</time>
      </trkpt>
      <trkpt lat="22.858010" lon="110.678205">
        <ele>108.933326</ele>
        <time>2026-08-18T02:57:02.000Z</time>
      </trkpt>
      <trkpt lat="22.857998" lon="110.678269">
        <ele>108.880838</ele>
        <time>2026-08-18T02:57:03.000Z</time>
      </trkpt>
      <trkpt lat="22.857986" lon="110.678332">
        <ele>108.829137</ele>
        <time>2026-08-18T02:57:04.000Z</time>
      </trkpt>
      <trkpt lat="22.857971" lon="110.678398">
        <ele>108.774506</ele>
        <time>2026-08-18T02:57:05.000Z</time>
      </trkpt>
      <trkpt lat="22.857958" lon="110.678461">
        <ele>108.722621</ele>
        <time>2026-08-18T02:57:06.000Z</time>
      </trkpt>
      <trkpt lat="22.857947" lon="110.678523">
        <ele>108.671879</ele>
        <time>2026-08-18T02:57:07.000Z</time>
      </trkpt>
      <trkpt lat="22.857936" lon="110.678583">
        <ele>108.622714</ele>
        <time>2026-08-18T02:57:08.000Z</time>
      </trkpt>
      <trkpt lat="22.857924" lon="110.678640">
        <ele>108.613784</ele>
        <time>2026-08-18T02:57:09.000Z</time>
      </trkpt>
      <trkpt lat="22.857911" lon="110.678697">
        <ele>108.645851</ele>
        <time>2026-08-18T02:57:10.000Z</time>
      </trkpt>
      <trkpt lat="22.857899" lon="110.678752">
        <ele>108.676716</ele>
        <time>2026-08-18T02:57:11.000Z</time>
      </trkpt>
      <trkpt lat="22.857887" lon="110.678804">
        <ele>108.705990</ele>
        <time>2026-08-18T02:57:12.000Z</time>
      </trkpt>
      <trkpt lat="22.857876" lon="110.678856">
        <ele>108.735125</ele>
        <time>2026-08-18T02:57:13.000Z</time>
      </trkpt>
      <trkpt lat="22.857867" lon="110.678908">
        <ele>108.764019</ele>
        <time>2026-08-18T02:57:14.000Z</time>
      </trkpt>
      <trkpt lat="22.857860" lon="110.678961">
        <ele>108.793257</ele>
        <time>2026-08-18T02:57:15.000Z</time>
      </trkpt>
      <trkpt lat="22.857855" lon="110.679015">
        <ele>108.822895</ele>
        <time>2026-08-18T02:57:16.000Z</time>
      </trkpt>
      <trkpt lat="22.857848" lon="110.679066">
        <ele>108.851053</ele>
        <time>2026-08-18T02:57:17.000Z</time>
      </trkpt>
      <trkpt lat="22.857841" lon="110.679118">
        <ele>108.879751</ele>
        <time>2026-08-18T02:57:18.000Z</time>
      </trkpt>
      <trkpt lat="22.857834" lon="110.679168">
        <ele>108.907369</ele>
        <time>2026-08-18T02:57:19.000Z</time>
      </trkpt>
      <trkpt lat="22.857827" lon="110.679216">
        <ele>108.933908</ele>
        <time>2026-08-18T02:57:20.000Z</time>
      </trkpt>
      <trkpt lat="22.857819" lon="110.679266">
        <ele>108.961621</ele>
        <time>2026-08-18T02:57:21.000Z</time>
      </trkpt>
      <trkpt lat="22.857813" lon="110.679315">
        <ele>108.988615</ele>
        <time>2026-08-18T02:57:22.000Z</time>
      </trkpt>
      <trkpt lat="22.857807" lon="110.679361">
        <ele>109.013985</ele>
        <time>2026-08-18T02:57:23.000Z</time>
      </trkpt>
      <trkpt lat="22.857802" lon="110.679410">
        <ele>109.040907</ele>
        <time>2026-08-18T02:57:24.000Z</time>
      </trkpt>
      <trkpt lat="22.857796" lon="110.679458">
        <ele>109.067360</ele>
        <time>2026-08-18T02:57:25.000Z</time>
      </trkpt>
      <trkpt lat="22.857790" lon="110.679505">
        <ele>109.093271</ele>
        <time>2026-08-18T02:57:26.000Z</time>
      </trkpt>
      <trkpt lat="22.857786" lon="110.679553">
        <ele>109.119591</ele>
        <time>2026-08-18T02:57:27.000Z</time>
      </trkpt>
      <trkpt lat="22.857783" lon="110.679598">
        <ele>109.144229</ele>
        <time>2026-08-18T02:57:28.000Z</time>
      </trkpt>
      <trkpt lat="22.857776" lon="110.679643">
        <ele>109.169151</ele>
        <time>2026-08-18T02:57:29.000Z</time>
      </trkpt>
      <trkpt lat="22.857769" lon="110.679687">
        <ele>109.193535</ele>
        <time>2026-08-18T02:57:30.000Z</time>
      </trkpt>
      <trkpt lat="22.857761" lon="110.679730">
        <ele>109.217490</ele>
        <time>2026-08-18T02:57:31.000Z</time>
      </trkpt>
      <trkpt lat="22.857752" lon="110.679776">
        <ele>109.243171</ele>
        <time>2026-08-18T02:57:32.000Z</time>
      </trkpt>
      <trkpt lat="22.857743" lon="110.679819">
        <ele>109.267251</ele>
        <time>2026-08-18T02:57:33.000Z</time>
      </trkpt>
      <trkpt lat="22.857735" lon="110.679862">
        <ele>109.291207</ele>
        <time>2026-08-18T02:57:34.000Z</time>
      </trkpt>
      <trkpt lat="22.857728" lon="110.679910">
        <ele>109.317745</ele>
        <time>2026-08-18T02:57:35.000Z</time>
      </trkpt>
      <trkpt lat="22.857720" lon="110.679953">
        <ele>109.341701</ele>
        <time>2026-08-18T02:57:36.000Z</time>
      </trkpt>
      <trkpt lat="22.857713" lon="110.679997">
        <ele>109.366085</ele>
        <time>2026-08-18T02:57:37.000Z</time>
      </trkpt>
      <trkpt lat="22.857706" lon="110.680042">
        <ele>109.391006</ele>
        <time>2026-08-18T02:57:38.000Z</time>
      </trkpt>
      <trkpt lat="22.857698" lon="110.680086">
        <ele>109.415498</ele>
        <time>2026-08-18T02:57:39.000Z</time>
      </trkpt>
      <trkpt lat="22.857689" lon="110.680131">
        <ele>109.440644</ele>
        <time>2026-08-18T02:57:40.000Z</time>
      </trkpt>
      <trkpt lat="22.857684" lon="110.680180">
        <ele>109.467566</ele>
        <time>2026-08-18T02:57:41.000Z</time>
      </trkpt>
      <trkpt lat="22.857679" lon="110.680229">
        <ele>109.494488</ele>
        <time>2026-08-18T02:57:42.000Z</time>
      </trkpt>
      <trkpt lat="22.857673" lon="110.680278">
        <ele>109.521482</ele>
        <time>2026-08-18T02:57:43.000Z</time>
      </trkpt>
      <trkpt lat="22.857666" lon="110.680329">
        <ele>109.549640</ele>
        <time>2026-08-18T02:57:44.000Z</time>
      </trkpt>
      <trkpt lat="22.857660" lon="110.680379">
        <ele>109.577175</ele>
        <time>2026-08-18T02:57:45.000Z</time>
      </trkpt>
      <trkpt lat="22.857654" lon="110.680432">
        <ele>109.606336</ele>
        <time>2026-08-18T02:57:46.000Z</time>
      </trkpt>
      <trkpt lat="22.857646" lon="110.680486">
        <ele>109.636204</ele>
        <time>2026-08-18T02:57:47.000Z</time>
      </trkpt>
      <trkpt lat="22.857635" lon="110.680540">
        <ele>109.674348</ele>
        <time>2026-08-18T02:57:48.000Z</time>
      </trkpt>
      <trkpt lat="22.857624" lon="110.680593">
        <ele>109.816913</ele>
        <time>2026-08-18T02:57:49.000Z</time>
      </trkpt>
      <trkpt lat="22.857616" lon="110.680645">
        <ele>109.955258</ele>
        <time>2026-08-18T02:57:50.000Z</time>
      </trkpt>
      <trkpt lat="22.857606" lon="110.680696">
        <ele>110.092086</ele>
        <time>2026-08-18T02:57:51.000Z</time>
      </trkpt>
      <trkpt lat="22.857598" lon="110.680748">
        <ele>110.230432</ele>
        <time>2026-08-18T02:57:52.000Z</time>
      </trkpt>
      <trkpt lat="22.857589" lon="110.680799">
        <ele>110.366696</ele>
        <time>2026-08-18T02:57:53.000Z</time>
      </trkpt>
      <trkpt lat="22.857581" lon="110.680851">
        <ele>110.505041</ele>
        <time>2026-08-18T02:57:54.000Z</time>
      </trkpt>
      <trkpt lat="22.857572" lon="110.680897">
        <ele>110.628443</ele>
        <time>2026-08-18T02:57:55.000Z</time>
      </trkpt>
      <trkpt lat="22.857562" lon="110.680943">
        <ele>110.752469</ele>
        <time>2026-08-18T02:57:56.000Z</time>
      </trkpt>
      <trkpt lat="22.857553" lon="110.680991">
        <ele>110.881009</ele>
        <time>2026-08-18T02:57:57.000Z</time>
      </trkpt>
      <trkpt lat="22.857544" lon="110.681037">
        <ele>111.004412</ele>
        <time>2026-08-18T02:57:58.000Z</time>
      </trkpt>
      <trkpt lat="22.857533" lon="110.681079">
        <ele>111.118992</ele>
        <time>2026-08-18T02:57:59.000Z</time>
      </trkpt>
      <trkpt lat="22.857520" lon="110.681121">
        <ele>111.235258</ele>
        <time>2026-08-18T02:58:00.000Z</time>
      </trkpt>
      <trkpt lat="22.857508" lon="110.681164">
        <ele>111.353159</ele>
        <time>2026-08-18T02:58:01.000Z</time>
      </trkpt>
      <trkpt lat="22.857494" lon="110.681204">
        <ele>111.465442</ele>
        <time>2026-08-18T02:58:02.000Z</time>
      </trkpt>
      <trkpt lat="22.857479" lon="110.681243">
        <ele>111.576341</ele>
        <time>2026-08-18T02:58:03.000Z</time>
      </trkpt>
      <trkpt lat="22.857464" lon="110.681280">
        <ele>111.682417</ele>
        <time>2026-08-18T02:58:04.000Z</time>
      </trkpt>
      <trkpt lat="22.857450" lon="110.681316">
        <ele>111.784955</ele>
        <time>2026-08-18T02:58:05.000Z</time>
      </trkpt>
      <trkpt lat="22.857437" lon="110.681350">
        <ele>111.881552</ele>
        <time>2026-08-18T02:58:06.000Z</time>
      </trkpt>
      <trkpt lat="22.857427" lon="110.681385">
        <ele>111.977712</ele>
        <time>2026-08-18T02:58:07.000Z</time>
      </trkpt>
      <trkpt lat="22.857416" lon="110.681417">
        <ele>112.067338</ele>
        <time>2026-08-18T02:58:08.000Z</time>
      </trkpt>
      <trkpt lat="22.857407" lon="110.681447">
        <ele>112.150130</ele>
        <time>2026-08-18T02:58:09.000Z</time>
      </trkpt>
      <trkpt lat="22.857399" lon="110.681480">
        <ele>112.239674</ele>
        <time>2026-08-18T02:58:10.000Z</time>
      </trkpt>
      <trkpt lat="22.857390" lon="110.681512">
        <ele>112.327471</ele>
        <time>2026-08-18T02:58:11.000Z</time>
      </trkpt>
      <trkpt lat="22.857382" lon="110.681544">
        <ele>112.414480</ele>
        <time>2026-08-18T02:58:12.000Z</time>
      </trkpt>
      <trkpt lat="22.857373" lon="110.681576">
        <ele>112.502278</ele>
        <time>2026-08-18T02:58:13.000Z</time>
      </trkpt>
      <trkpt lat="22.857365" lon="110.681609">
        <ele>112.591822</ele>
        <time>2026-08-18T02:58:14.000Z</time>
      </trkpt>
      <trkpt lat="22.857357" lon="110.681643">
        <ele>112.683906</ele>
        <time>2026-08-18T02:58:15.000Z</time>
      </trkpt>
      <trkpt lat="22.857348" lon="110.681676">
        <ele>112.774217</ele>
        <time>2026-08-18T02:58:16.000Z</time>
      </trkpt>
      <trkpt lat="22.857339" lon="110.681710">
        <ele>112.867047</ele>
        <time>2026-08-18T02:58:17.000Z</time>
      </trkpt>
      <trkpt lat="22.857329" lon="110.681742">
        <ele>112.955718</ele>
        <time>2026-08-18T02:58:18.000Z</time>
      </trkpt>
      <trkpt lat="22.857319" lon="110.681777">
        <ele>113.051877</ele>
        <time>2026-08-18T02:58:19.000Z</time>
      </trkpt>
      <trkpt lat="22.857310" lon="110.681809">
        <ele>113.139675</ele>
        <time>2026-08-18T02:58:20.000Z</time>
      </trkpt>
      <trkpt lat="22.857303" lon="110.681842">
        <ele>113.228537</ele>
        <time>2026-08-18T02:58:21.000Z</time>
      </trkpt>
      <trkpt lat="22.857292" lon="110.681876">
        <ele>113.323098</ele>
        <time>2026-08-18T02:58:22.000Z</time>
      </trkpt>
      <trkpt lat="22.857281" lon="110.681907">
        <ele>113.410270</ele>
        <time>2026-08-18T02:58:23.000Z</time>
      </trkpt>
      <trkpt lat="22.857271" lon="110.681941">
        <ele>113.503927</ele>
        <time>2026-08-18T02:58:24.000Z</time>
      </trkpt>
      <trkpt lat="22.857261" lon="110.681973">
        <ele>113.592597</ele>
        <time>2026-08-18T02:58:25.000Z</time>
      </trkpt>
      <trkpt lat="22.857253" lon="110.682001">
        <ele>113.669525</ele>
        <time>2026-08-18T02:58:26.000Z</time>
      </trkpt>
      <trkpt lat="22.857247" lon="110.682026">
        <ele>113.737318</ele>
        <time>2026-08-18T02:58:27.000Z</time>
      </trkpt>
      <trkpt lat="22.857248" lon="110.682044">
        <ele>113.784639</ele>
        <time>2026-08-18T02:58:28.000Z</time>
      </trkpt>
      <trkpt lat="22.857253" lon="110.682055">
        <ele>113.816825</ele>
        <time>2026-08-18T02:58:29.000Z</time>
      </trkpt>
      <trkpt lat="22.857259" lon="110.682073">
        <ele>113.867056</ele>
        <time>2026-08-18T02:58:30.000Z</time>
      </trkpt>
      <trkpt lat="22.857260" lon="110.682090">
        <ele>113.911757</ele>
        <time>2026-08-18T02:58:31.000Z</time>
      </trkpt>
      <trkpt lat="22.857257" lon="110.682111">
        <ele>113.967523</ele>
        <time>2026-08-18T02:58:32.000Z</time>
      </trkpt>
      <trkpt lat="22.857251" lon="110.682132">
        <ele>114.025219</ele>
        <time>2026-08-18T02:58:33.000Z</time>
      </trkpt>
      <trkpt lat="22.857245" lon="110.682150">
        <ele>114.075449</ele>
        <time>2026-08-18T02:58:34.000Z</time>
      </trkpt>
      <trkpt lat="22.857238" lon="110.682167">
        <ele>114.124312</ele>
        <time>2026-08-18T02:58:35.000Z</time>
      </trkpt>
      <trkpt lat="22.857234" lon="110.682185">
        <ele>114.172901</ele>
        <time>2026-08-18T02:58:36.000Z</time>
      </trkpt>
      <trkpt lat="22.857234" lon="110.682203">
        <ele>114.220136</ele>
        <time>2026-08-18T02:58:37.000Z</time>
      </trkpt>
      <trkpt lat="22.857233" lon="110.682224">
        <ele>114.275317</ele>
        <time>2026-08-18T02:58:38.000Z</time>
      </trkpt>
      <trkpt lat="22.857233" lon="110.682243">
        <ele>114.325176</ele>
        <time>2026-08-18T02:58:39.000Z</time>
      </trkpt>
      <trkpt lat="22.857236" lon="110.682264">
        <ele>114.380942</ele>
        <time>2026-08-18T02:58:40.000Z</time>
      </trkpt>
      <trkpt lat="22.857237" lon="110.682283">
        <ele>114.430882</ele>
        <time>2026-08-18T02:58:41.000Z</time>
      </trkpt>
      <trkpt lat="22.857236" lon="110.682303">
        <ele>114.483443</ele>
        <time>2026-08-18T02:58:42.000Z</time>
      </trkpt>
      <trkpt lat="22.857235" lon="110.682322">
        <ele>114.533383</ele>
        <time>2026-08-18T02:58:43.000Z</time>
      </trkpt>
      <trkpt lat="22.857236" lon="110.682342">
        <ele>114.585944</ele>
        <time>2026-08-18T02:58:44.000Z</time>
      </trkpt>
      <trkpt lat="22.857236" lon="110.682364">
        <ele>114.643676</ele>
        <time>2026-08-18T02:58:45.000Z</time>
      </trkpt>
      <trkpt lat="22.857236" lon="110.682387">
        <ele>114.704031</ele>
        <time>2026-08-18T02:58:46.000Z</time>
      </trkpt>
      <trkpt lat="22.857237" lon="110.682410">
        <ele>114.764454</ele>
        <time>2026-08-18T02:58:47.000Z</time>
      </trkpt>
      <trkpt lat="22.857236" lon="110.682435">
        <ele>114.781293</ele>
        <time>2026-08-18T02:58:48.000Z</time>
      </trkpt>
      <trkpt lat="22.857236" lon="110.682461">
        <ele>114.773195</ele>
        <time>2026-08-18T02:58:49.000Z</time>
      </trkpt>
      <trkpt lat="22.857237" lon="110.682486">
        <ele>114.765402</ele>
        <time>2026-08-18T02:58:50.000Z</time>
      </trkpt>
      <trkpt lat="22.857238" lon="110.682510">
        <ele>114.757920</ele>
        <time>2026-08-18T02:58:51.000Z</time>
      </trkpt>
      <trkpt lat="22.857240" lon="110.682535">
        <ele>114.750105</ele>
        <time>2026-08-18T02:58:52.000Z</time>
      </trkpt>
      <trkpt lat="22.857241" lon="110.682559">
        <ele>114.742623</ele>
        <time>2026-08-18T02:58:53.000Z</time>
      </trkpt>
      <trkpt lat="22.857243" lon="110.682585">
        <ele>114.734498</ele>
        <time>2026-08-18T02:58:54.000Z</time>
      </trkpt>
      <trkpt lat="22.857244" lon="110.682610">
        <ele>114.726704</ele>
        <time>2026-08-18T02:58:55.000Z</time>
      </trkpt>
      <trkpt lat="22.857246" lon="110.682636">
        <ele>114.718579</ele>
        <time>2026-08-18T02:58:56.000Z</time>
      </trkpt>
      <trkpt lat="22.857249" lon="110.682662">
        <ele>114.710418</ele>
        <time>2026-08-18T02:58:57.000Z</time>
      </trkpt>
      <trkpt lat="22.857253" lon="110.682690">
        <ele>114.701594</ele>
        <time>2026-08-18T02:58:58.000Z</time>
      </trkpt>
      <trkpt lat="22.857256" lon="110.682719">
        <ele>114.692506</ele>
        <time>2026-08-18T02:58:59.000Z</time>
      </trkpt>
      <trkpt lat="22.857260" lon="110.682749">
        <ele>114.683065</ele>
        <time>2026-08-18T02:59:00.000Z</time>
      </trkpt>
      <trkpt lat="22.857263" lon="110.682779">
        <ele>114.673667</ele>
        <time>2026-08-18T02:59:01.000Z</time>
      </trkpt>
      <trkpt lat="22.857266" lon="110.682812">
        <ele>114.663340</ele>
        <time>2026-08-18T02:59:02.000Z</time>
      </trkpt>
      <trkpt lat="22.857267" lon="110.682847">
        <ele>114.652435</ele>
        <time>2026-08-18T02:59:03.000Z</time>
      </trkpt>
      <trkpt lat="22.857265" lon="110.682884">
        <ele>114.640892</ele>
        <time>2026-08-18T02:59:04.000Z</time>
      </trkpt>
      <trkpt lat="22.857263" lon="110.682922">
        <ele>114.629038</ele>
        <time>2026-08-18T02:59:05.000Z</time>
      </trkpt>
      <trkpt lat="22.857261" lon="110.682961">
        <ele>114.616873</ele>
        <time>2026-08-18T02:59:06.000Z</time>
      </trkpt>
      <trkpt lat="22.857258" lon="110.683001">
        <ele>114.604375</ele>
        <time>2026-08-18T02:59:07.000Z</time>
      </trkpt>
      <trkpt lat="22.857257" lon="110.683043">
        <ele>114.591290</ele>
        <time>2026-08-18T02:59:08.000Z</time>
      </trkpt>
      <trkpt lat="22.857255" lon="110.683087">
        <ele>114.577570</ele>
        <time>2026-08-18T02:59:09.000Z</time>
      </trkpt>
      <trkpt lat="22.857255" lon="110.683131">
        <ele>114.563867</ele>
        <time>2026-08-18T02:59:10.000Z</time>
      </trkpt>
      <trkpt lat="22.857254" lon="110.683177">
        <ele>114.549537</ele>
        <time>2026-08-18T02:59:11.000Z</time>
      </trkpt>
      <trkpt lat="22.857253" lon="110.683224">
        <ele>114.534896</ele>
        <time>2026-08-18T02:59:12.000Z</time>
      </trkpt>
      <trkpt lat="22.857254" lon="110.683272">
        <ele>114.519943</ele>
        <time>2026-08-18T02:59:13.000Z</time>
      </trkpt>
      <trkpt lat="22.857254" lon="110.683319">
        <ele>114.505306</ele>
        <time>2026-08-18T02:59:14.000Z</time>
      </trkpt>
      <trkpt lat="22.857254" lon="110.683367">
        <ele>114.490357</ele>
        <time>2026-08-18T02:59:15.000Z</time>
      </trkpt>
      <trkpt lat="22.857256" lon="110.683414">
        <ele>114.475704</ele>
        <time>2026-08-18T02:59:16.000Z</time>
      </trkpt>
      <trkpt lat="22.857258" lon="110.683461">
        <ele>114.461051</ele>
        <time>2026-08-18T02:59:17.000Z</time>
      </trkpt>
      <trkpt lat="22.857259" lon="110.683507">
        <ele>114.446721</ele>
        <time>2026-08-18T02:59:18.000Z</time>
      </trkpt>
      <trkpt lat="22.857260" lon="110.683556">
        <ele>114.431457</ele>
        <time>2026-08-18T02:59:19.000Z</time>
      </trkpt>
      <trkpt lat="22.857262" lon="110.683602">
        <ele>114.417115</ele>
        <time>2026-08-18T02:59:20.000Z</time>
      </trkpt>
      <trkpt lat="22.857264" lon="110.683647">
        <ele>114.403084</ele>
        <time>2026-08-18T02:59:21.000Z</time>
      </trkpt>
      <trkpt lat="22.857271" lon="110.683693">
        <ele>114.388564</ele>
        <time>2026-08-18T02:59:22.000Z</time>
      </trkpt>
      <trkpt lat="22.857278" lon="110.683738">
        <ele>114.374351</ele>
        <time>2026-08-18T02:59:23.000Z</time>
      </trkpt>
      <trkpt lat="22.857286" lon="110.683783">
        <ele>114.360078</ele>
        <time>2026-08-18T02:59:24.000Z</time>
      </trkpt>
      <trkpt lat="22.857294" lon="110.683827">
        <ele>114.346111</ele>
        <time>2026-08-18T02:59:25.000Z</time>
      </trkpt>
      <trkpt lat="22.857300" lon="110.683874">
        <ele>114.331334</ele>
        <time>2026-08-18T02:59:26.000Z</time>
      </trkpt>
      <trkpt lat="22.857306" lon="110.683919">
        <ele>114.317173</ele>
        <time>2026-08-18T02:59:27.000Z</time>
      </trkpt>
      <trkpt lat="22.857313" lon="110.683963">
        <ele>114.303267</ele>
        <time>2026-08-18T02:59:28.000Z</time>
      </trkpt>
      <trkpt lat="22.857319" lon="110.684009">
        <ele>114.288799</ele>
        <time>2026-08-18T02:59:29.000Z</time>
      </trkpt>
      <trkpt lat="22.857326" lon="110.684055">
        <ele>114.274279</ele>
        <time>2026-08-18T02:59:30.000Z</time>
      </trkpt>
      <trkpt lat="22.857335" lon="110.684099">
        <ele>114.260242</ele>
        <time>2026-08-18T02:59:31.000Z</time>
      </trkpt>
      <trkpt lat="22.857344" lon="110.684141">
        <ele>114.246813</ele>
        <time>2026-08-18T02:59:32.000Z</time>
      </trkpt>
      <trkpt lat="22.857349" lon="110.684182">
        <ele>114.233933</ele>
        <time>2026-08-18T02:59:33.000Z</time>
      </trkpt>
      <trkpt lat="22.857355" lon="110.684223">
        <ele>114.221004</ele>
        <time>2026-08-18T02:59:34.000Z</time>
      </trkpt>
      <trkpt lat="22.857356" lon="110.684266">
        <ele>114.207608</ele>
        <time>2026-08-18T02:59:35.000Z</time>
      </trkpt>
      <trkpt lat="22.857359" lon="110.684311">
        <ele>114.193557</ele>
        <time>2026-08-18T02:59:36.000Z</time>
      </trkpt>
      <trkpt lat="22.857363" lon="110.684355">
        <ele>114.179787</ele>
        <time>2026-08-18T02:59:37.000Z</time>
      </trkpt>
      <trkpt lat="22.857369" lon="110.684399">
        <ele>114.151522</ele>
        <time>2026-08-18T02:59:38.000Z</time>
      </trkpt>
      <trkpt lat="22.857375" lon="110.684445">
        <ele>114.120561</ele>
        <time>2026-08-18T02:59:39.000Z</time>
      </trkpt>
      <trkpt lat="22.857382" lon="110.684493">
        <ele>114.088174</ele>
        <time>2026-08-18T02:59:40.000Z</time>
      </trkpt>
      <trkpt lat="22.857389" lon="110.684543">
        <ele>114.054470</ele>
        <time>2026-08-18T02:59:41.000Z</time>
      </trkpt>
      <trkpt lat="22.857392" lon="110.684597">
        <ele>114.018417</ele>
        <time>2026-08-18T02:59:42.000Z</time>
      </trkpt>
      <trkpt lat="22.857396" lon="110.684651">
        <ele>113.982314</ele>
        <time>2026-08-18T02:59:43.000Z</time>
      </trkpt>
      <trkpt lat="22.857400" lon="110.684710">
        <ele>113.942888</ele>
        <time>2026-08-18T02:59:44.000Z</time>
      </trkpt>
      <trkpt lat="22.857405" lon="110.684771">
        <ele>113.902075</ele>
        <time>2026-08-18T02:59:45.000Z</time>
      </trkpt>
      <trkpt lat="22.857407" lon="110.684833">
        <ele>113.860731</ele>
        <time>2026-08-18T02:59:46.000Z</time>
      </trkpt>
      <trkpt lat="22.857405" lon="110.684890">
        <ele>113.822717</ele>
        <time>2026-08-18T02:59:47.000Z</time>
      </trkpt>
      <trkpt lat="22.857397" lon="110.684951">
        <ele>113.781655</ele>
        <time>2026-08-18T02:59:48.000Z</time>
      </trkpt>
      <trkpt lat="22.857386" lon="110.685015">
        <ele>113.738268</ele>
        <time>2026-08-18T02:59:49.000Z</time>
      </trkpt>
      <trkpt lat="22.857370" lon="110.685081">
        <ele>113.692787</ele>
        <time>2026-08-18T02:59:50.000Z</time>
      </trkpt>
      <trkpt lat="22.857353" lon="110.685145">
        <ele>113.648398</ele>
        <time>2026-08-18T02:59:51.000Z</time>
      </trkpt>
      <trkpt lat="22.857337" lon="110.685210">
        <ele>113.603561</ele>
        <time>2026-08-18T02:59:52.000Z</time>
      </trkpt>
      <trkpt lat="22.857319" lon="110.685275">
        <ele>113.558329</ele>
        <time>2026-08-18T02:59:53.000Z</time>
      </trkpt>
      <trkpt lat="22.857302" lon="110.685339">
        <ele>113.513941</ele>
        <time>2026-08-18T02:59:54.000Z</time>
      </trkpt>
      <trkpt lat="22.857294" lon="110.685400">
        <ele>113.472879</ele>
        <time>2026-08-18T02:59:55.000Z</time>
      </trkpt>
      <trkpt lat="22.857293" lon="110.685457">
        <ele>113.434886</ele>
        <time>2026-08-18T02:59:56.000Z</time>
      </trkpt>
      <trkpt lat="22.857298" lon="110.685512">
        <ele>113.398054</ele>
        <time>2026-08-18T02:59:57.000Z</time>
      </trkpt>
      <trkpt lat="22.857310" lon="110.685564">
        <ele>113.362329</ele>
        <time>2026-08-18T02:59:58.000Z</time>
      </trkpt>
      <trkpt lat="22.857328" lon="110.685616">
        <ele>113.325310</ele>
        <time>2026-08-18T02:59:59.000Z</time>
      </trkpt>
      <trkpt lat="22.857348" lon="110.685668">
        <ele>113.287758</ele>
        <time>2026-08-18T03:00:00.000Z</time>
      </trkpt>
      <trkpt lat="22.857369" lon="110.685718">
        <ele>113.251139</ele>
        <time>2026-08-18T03:00:01.000Z</time>
      </trkpt>
      <trkpt lat="22.857388" lon="110.685770">
        <ele>113.213859</ele>
        <time>2026-08-18T03:00:02.000Z</time>
      </trkpt>
      <trkpt lat="22.857405" lon="110.685821">
        <ele>113.177716</ele>
        <time>2026-08-18T03:00:03.000Z</time>
      </trkpt>
      <trkpt lat="22.857423" lon="110.685869">
        <ele>113.143180</ele>
        <time>2026-08-18T03:00:04.000Z</time>
      </trkpt>
      <trkpt lat="22.857443" lon="110.685917">
        <ele>113.108073</ele>
        <time>2026-08-18T03:00:05.000Z</time>
      </trkpt>
      <trkpt lat="22.857463" lon="110.685967">
        <ele>113.071747</ele>
        <time>2026-08-18T03:00:06.000Z</time>
      </trkpt>
      <trkpt lat="22.857483" lon="110.686014">
        <ele>113.037246</ele>
        <time>2026-08-18T03:00:07.000Z</time>
      </trkpt>
      <trkpt lat="22.857504" lon="110.686059">
        <ele>113.003631</ele>
        <time>2026-08-18T03:00:08.000Z</time>
      </trkpt>
      <trkpt lat="22.857523" lon="110.686105">
        <ele>112.970036</ele>
        <time>2026-08-18T03:00:09.000Z</time>
      </trkpt>
      <trkpt lat="22.857543" lon="110.686150">
        <ele>112.936741</ele>
        <time>2026-08-18T03:00:10.000Z</time>
      </trkpt>
      <trkpt lat="22.857563" lon="110.686200">
        <ele>112.900415</ele>
        <time>2026-08-18T03:00:11.000Z</time>
      </trkpt>
      <trkpt lat="22.857580" lon="110.686246">
        <ele>112.890364</ele>
        <time>2026-08-18T03:00:12.000Z</time>
      </trkpt>
      <trkpt lat="22.857598" lon="110.686294">
        <ele>112.932332</ele>
        <time>2026-08-18T03:00:13.000Z</time>
      </trkpt>
      <trkpt lat="22.857616" lon="110.686338">
        <ele>112.971318</ele>
        <time>2026-08-18T03:00:14.000Z</time>
      </trkpt>
      <trkpt lat="22.857638" lon="110.686379">
        <ele>113.009741</ele>
        <time>2026-08-18T03:00:15.000Z</time>
      </trkpt>
      <trkpt lat="22.857659" lon="110.686418">
        <ele>113.046322</ele>
        <time>2026-08-18T03:00:16.000Z</time>
      </trkpt>
      <trkpt lat="22.857676" lon="110.686458">
        <ele>113.081995</ele>
        <time>2026-08-18T03:00:17.000Z</time>
      </trkpt>
      <trkpt lat="22.857695" lon="110.686504">
        <ele>113.122818</ele>
        <time>2026-08-18T03:00:18.000Z</time>
      </trkpt>
      <trkpt lat="22.857712" lon="110.686544">
        <ele>113.158491</ele>
        <time>2026-08-18T03:00:19.000Z</time>
      </trkpt>
      <trkpt lat="22.857731" lon="110.686586">
        <ele>113.196382</ele>
        <time>2026-08-18T03:00:20.000Z</time>
      </trkpt>
      <trkpt lat="22.857749" lon="110.686627">
        <ele>113.233162</ele>
        <time>2026-08-18T03:00:21.000Z</time>
      </trkpt>
      <trkpt lat="22.857767" lon="110.686667">
        <ele>113.269212</ele>
        <time>2026-08-18T03:00:22.000Z</time>
      </trkpt>
      <trkpt lat="22.857781" lon="110.686705">
        <ele>113.302354</ele>
        <time>2026-08-18T03:00:23.000Z</time>
      </trkpt>
      <trkpt lat="22.857796" lon="110.686741">
        <ele>113.334350</ele>
        <time>2026-08-18T03:00:24.000Z</time>
      </trkpt>
      <trkpt lat="22.857811" lon="110.686781">
        <ele>113.369323</ele>
        <time>2026-08-18T03:00:25.000Z</time>
      </trkpt>
      <trkpt lat="22.857824" lon="110.686814">
        <ele>113.398388</ele>
        <time>2026-08-18T03:00:26.000Z</time>
      </trkpt>
      <trkpt lat="22.857836" lon="110.686850">
        <ele>113.429391</ele>
        <time>2026-08-18T03:00:27.000Z</time>
      </trkpt>
      <trkpt lat="22.857844" lon="110.686890">
        <ele>113.462539</ele>
        <time>2026-08-18T03:00:28.000Z</time>
      </trkpt>
      <trkpt lat="22.857847" lon="110.686928">
        <ele>113.493425</ele>
        <time>2026-08-18T03:00:29.000Z</time>
      </trkpt>
      <trkpt lat="22.857844" lon="110.686961">
        <ele>113.520280</ele>
        <time>2026-08-18T03:00:30.000Z</time>
      </trkpt>
      <trkpt lat="22.857833" lon="110.687001">
        <ele>113.554085</ele>
        <time>2026-08-18T03:00:31.000Z</time>
      </trkpt>
      <trkpt lat="22.857816" lon="110.687030">
        <ele>113.581920</ele>
        <time>2026-08-18T03:00:32.000Z</time>
      </trkpt>
      <trkpt lat="22.857798" lon="110.687064">
        <ele>113.613675</ele>
        <time>2026-08-18T03:00:33.000Z</time>
      </trkpt>
      <trkpt lat="22.857778" lon="110.687091">
        <ele>113.641730</ele>
        <time>2026-08-18T03:00:34.000Z</time>
      </trkpt>
      <trkpt lat="22.857752" lon="110.687121">
        <ele>113.675082</ele>
        <time>2026-08-18T03:00:35.000Z</time>
      </trkpt>
      <trkpt lat="22.857733" lon="110.687144">
        <ele>113.700097</ele>
        <time>2026-08-18T03:00:36.000Z</time>
      </trkpt>
      <trkpt lat="22.857733" lon="110.687144">
        <ele>113.700097</ele>
        <time>2026-08-18T03:00:41.000Z</time>
      </trkpt>
      <trkpt lat="22.857534" lon="110.687293">
        <ele>113.912577</ele>
        <time>2026-08-18T03:00:44.000Z</time>
      </trkpt>
      <trkpt lat="22.857471" lon="110.687249">
        <ele>113.978420</ele>
        <time>2026-08-18T03:00:45.000Z</time>
      </trkpt>
      <trkpt lat="22.857440" lon="110.687250">
        <ele>114.005676</ele>
        <time>2026-08-18T03:00:46.000Z</time>
      </trkpt>
      <trkpt lat="22.857393" lon="110.687242">
        <ele>114.047487</ele>
        <time>2026-08-18T03:00:47.000Z</time>
      </trkpt>
      <trkpt lat="22.857355" lon="110.687246">
        <ele>114.081040</ele>
        <time>2026-08-18T03:00:48.000Z</time>
      </trkpt>
      <trkpt lat="22.857311" lon="110.687252">
        <ele>114.120014</ele>
        <time>2026-08-18T03:00:49.000Z</time>
      </trkpt>
      <trkpt lat="22.857259" lon="110.687252">
        <ele>114.165714</ele>
        <time>2026-08-18T03:00:50.000Z</time>
      </trkpt>
      <trkpt lat="22.857203" lon="110.687257">
        <ele>114.215096</ele>
        <time>2026-08-18T03:00:51.000Z</time>
      </trkpt>
      <trkpt lat="22.857164" lon="110.687263">
        <ele>114.249714</ele>
        <time>2026-08-18T03:00:52.000Z</time>
      </trkpt>
      <trkpt lat="22.857123" lon="110.687276">
        <ele>114.287254</ele>
        <time>2026-08-18T03:00:53.000Z</time>
      </trkpt>
      <trkpt lat="22.857088" lon="110.687288">
        <ele>114.319512</ele>
        <time>2026-08-18T03:00:54.000Z</time>
      </trkpt>
      <trkpt lat="22.857063" lon="110.687298">
        <ele>114.342929</ele>
        <time>2026-08-18T03:00:55.000Z</time>
      </trkpt>
      <trkpt lat="22.857037" lon="110.687311">
        <ele>114.368088</ele>
        <time>2026-08-18T03:00:56.000Z</time>
      </trkpt>
      <trkpt lat="22.857008" lon="110.687327">
        <ele>114.396679</ele>
        <time>2026-08-18T03:00:57.000Z</time>
      </trkpt>
      <trkpt lat="22.856979" lon="110.687334">
        <ele>114.422789</ele>
        <time>2026-08-18T03:00:58.000Z</time>
      </trkpt>
      <trkpt lat="22.856958" lon="110.687332">
        <ele>114.441315</ele>
        <time>2026-08-18T03:00:59.000Z</time>
      </trkpt>
      <trkpt lat="22.856932" lon="110.687318">
        <ele>114.494406</ele>
        <time>2026-08-18T03:01:00.000Z</time>
      </trkpt>
      <trkpt lat="22.856907" lon="110.687304">
        <ele>114.601074</ele>
        <time>2026-08-18T03:01:01.000Z</time>
      </trkpt>
      <trkpt lat="22.856896" lon="110.687305">
        <ele>114.642929</ele>
        <time>2026-08-18T03:01:02.000Z</time>
      </trkpt>
      <trkpt lat="22.856891" lon="110.687313">
        <ele>114.676703</ele>
        <time>2026-08-18T03:01:03.000Z</time>
      </trkpt>
      <trkpt lat="22.856888" lon="110.687312">
        <ele>114.688602</ele>
        <time>2026-08-18T03:01:04.000Z</time>
      </trkpt>
      <trkpt lat="22.856644" lon="110.687553">
        <ele>115.939588</ele>
        <time>2026-08-18T03:04:28.000Z</time>
      </trkpt>
      <trkpt lat="22.856644" lon="110.687569">
        <ele>115.995491</ele>
        <time>2026-08-18T03:04:29.000Z</time>
      </trkpt>
      <trkpt lat="22.856638" lon="110.687581">
        <ele>116.043193</ele>
        <time>2026-08-18T03:04:30.000Z</time>
      </trkpt>
      <trkpt lat="22.856644" lon="110.687594">
        <ele>116.093993</ele>
        <time>2026-08-18T03:04:31.000Z</time>
      </trkpt>
      <trkpt lat="22.856644" lon="110.687602">
        <ele>116.121944</ele>
        <time>2026-08-18T03:04:32.000Z</time>
      </trkpt>
      <trkpt lat="22.856646" lon="110.687615">
        <ele>116.167994</ele>
        <time>2026-08-18T03:04:33.000Z</time>
      </trkpt>
      <trkpt lat="22.856650" lon="110.687632">
        <ele>116.229297</ele>
        <time>2026-08-18T03:04:34.000Z</time>
      </trkpt>
      <trkpt lat="22.856653" lon="110.687648">
        <ele>116.286346</ele>
        <time>2026-08-18T03:04:35.000Z</time>
      </trkpt>
      <trkpt lat="22.856656" lon="110.687665">
        <ele>116.346822</ele>
        <time>2026-08-18T03:04:36.000Z</time>
      </trkpt>
      <trkpt lat="22.856665" lon="110.687682">
        <ele>116.415324</ele>
        <time>2026-08-18T03:04:37.000Z</time>
      </trkpt>
      <trkpt lat="22.856673" lon="110.687695">
        <ele>116.469943</ele>
        <time>2026-08-18T03:04:38.000Z</time>
      </trkpt>
      <trkpt lat="22.856679" lon="110.687713">
        <ele>116.536822</ele>
        <time>2026-08-18T03:04:39.000Z</time>
      </trkpt>
      <trkpt lat="22.856683" lon="110.687731">
        <ele>116.601516</ele>
        <time>2026-08-18T03:04:40.000Z</time>
      </trkpt>
      <trkpt lat="22.856688" lon="110.687747">
        <ele>116.660546</ele>
        <time>2026-08-18T03:04:41.000Z</time>
      </trkpt>
      <trkpt lat="22.856696" lon="110.687764">
        <ele>116.727240</ele>
        <time>2026-08-18T03:04:42.000Z</time>
      </trkpt>
      <trkpt lat="22.856699" lon="110.687779">
        <ele>116.780870</ele>
        <time>2026-08-18T03:04:43.000Z</time>
      </trkpt>
      <trkpt lat="22.856703" lon="110.687798">
        <ele>116.848965</ele>
        <time>2026-08-18T03:04:44.000Z</time>
      </trkpt>
      <trkpt lat="22.856708" lon="110.687816">
        <ele>116.914651</ele>
        <time>2026-08-18T03:04:45.000Z</time>
      </trkpt>
      <trkpt lat="22.856712" lon="110.687834">
        <ele>116.979345</ele>
        <time>2026-08-18T03:04:46.000Z</time>
      </trkpt>
      <trkpt lat="22.856719" lon="110.687853">
        <ele>117.050839</ele>
        <time>2026-08-18T03:04:47.000Z</time>
      </trkpt>
      <trkpt lat="22.856726" lon="110.687872">
        <ele>117.122334</ele>
        <time>2026-08-18T03:04:48.000Z</time>
      </trkpt>
      <trkpt lat="22.856731" lon="110.687890">
        <ele>117.188020</ele>
        <time>2026-08-18T03:04:49.000Z</time>
      </trkpt>
      <trkpt lat="22.856734" lon="110.687908">
        <ele>117.251931</ele>
        <time>2026-08-18T03:04:50.000Z</time>
      </trkpt>
      <trkpt lat="22.856738" lon="110.687926">
        <ele>117.316625</ele>
        <time>2026-08-18T03:04:51.000Z</time>
      </trkpt>
      <trkpt lat="22.856746" lon="110.687945">
        <ele>117.389612</ele>
        <time>2026-08-18T03:04:52.000Z</time>
      </trkpt>
      <trkpt lat="22.856752" lon="110.687961">
        <ele>117.449967</ele>
        <time>2026-08-18T03:04:53.000Z</time>
      </trkpt>
      <trkpt lat="22.856759" lon="110.687979">
        <ele>117.518229</ele>
        <time>2026-08-18T03:04:54.000Z</time>
      </trkpt>
      <trkpt lat="22.856766" lon="110.687998">
        <ele>117.589723</ele>
        <time>2026-08-18T03:04:55.000Z</time>
      </trkpt>
      <trkpt lat="22.856772" lon="110.688017">
        <ele>117.659898</ele>
        <time>2026-08-18T03:04:56.000Z</time>
      </trkpt>
      <trkpt lat="22.856778" lon="110.688034">
        <ele>117.723503</ele>
        <time>2026-08-18T03:04:57.000Z</time>
      </trkpt>
      <trkpt lat="22.856786" lon="110.688051">
        <ele>117.790197</ele>
        <time>2026-08-18T03:04:58.000Z</time>
      </trkpt>
      <trkpt lat="22.856792" lon="110.688066">
        <ele>117.847331</ele>
        <time>2026-08-18T03:04:59.000Z</time>
      </trkpt>
      <trkpt lat="22.856798" lon="110.688080">
        <ele>117.901277</ele>
        <time>2026-08-18T03:05:00.000Z</time>
      </trkpt>
      <trkpt lat="22.856803" lon="110.688094">
        <ele>117.953738</ele>
        <time>2026-08-18T03:05:01.000Z</time>
      </trkpt>
      <trkpt lat="22.856810" lon="110.688108">
        <ele>118.009390</ele>
        <time>2026-08-18T03:05:02.000Z</time>
      </trkpt>
      <trkpt lat="22.856817" lon="110.688122">
        <ele>118.065042</ele>
        <time>2026-08-18T03:05:03.000Z</time>
      </trkpt>
      <trkpt lat="22.856824" lon="110.688139">
        <ele>118.130099</ele>
        <time>2026-08-18T03:05:04.000Z</time>
      </trkpt>
      <trkpt lat="22.856828" lon="110.688154">
        <ele>118.184659</ele>
        <time>2026-08-18T03:05:05.000Z</time>
      </trkpt>
      <trkpt lat="22.856835" lon="110.688171">
        <ele>118.249716</ele>
        <time>2026-08-18T03:05:06.000Z</time>
      </trkpt>
      <trkpt lat="22.856843" lon="110.688191">
        <ele>118.325895</ele>
        <time>2026-08-18T03:05:07.000Z</time>
      </trkpt>
      <trkpt lat="22.856852" lon="110.688212">
        <ele>118.406815</ele>
        <time>2026-08-18T03:05:08.000Z</time>
      </trkpt>
      <trkpt lat="22.856860" lon="110.688235">
        <ele>118.492710</ele>
        <time>2026-08-18T03:05:09.000Z</time>
      </trkpt>
      <trkpt lat="22.856864" lon="110.688258">
        <ele>118.574489</ele>
        <time>2026-08-18T03:05:10.000Z</time>
      </trkpt>
      <trkpt lat="22.856866" lon="110.688284">
        <ele>118.665647</ele>
        <time>2026-08-18T03:05:11.000Z</time>
      </trkpt>
      <trkpt lat="22.856868" lon="110.688310">
        <ele>118.756806</ele>
        <time>2026-08-18T03:05:12.000Z</time>
      </trkpt>
      <trkpt lat="22.856869" lon="110.688338">
        <ele>118.854709</ele>
        <time>2026-08-18T03:05:13.000Z</time>
      </trkpt>
      <trkpt lat="22.856870" lon="110.688367">
        <ele>118.956105</ele>
        <time>2026-08-18T03:05:14.000Z</time>
      </trkpt>
      <trkpt lat="22.856871" lon="110.688396">
        <ele>119.057500</ele>
        <time>2026-08-18T03:05:15.000Z</time>
      </trkpt>
      <trkpt lat="22.856873" lon="110.688426">
        <ele>119.162592</ele>
        <time>2026-08-18T03:05:16.000Z</time>
      </trkpt>
      <trkpt lat="22.856875" lon="110.688459">
        <ele>119.278141</ele>
        <time>2026-08-18T03:05:17.000Z</time>
      </trkpt>
      <trkpt lat="22.856877" lon="110.688490">
        <ele>119.386718</ele>
        <time>2026-08-18T03:05:18.000Z</time>
      </trkpt>
      <trkpt lat="22.856880" lon="110.688523">
        <ele>119.502578</ele>
        <time>2026-08-18T03:05:19.000Z</time>
      </trkpt>
      <trkpt lat="22.856882" lon="110.688557">
        <ele>119.621613</ele>
        <time>2026-08-18T03:05:20.000Z</time>
      </trkpt>
      <trkpt lat="22.856884" lon="110.688591">
        <ele>119.740649</ele>
        <time>2026-08-18T03:05:21.000Z</time>
      </trkpt>
      <trkpt lat="22.856885" lon="110.688625">
        <ele>119.859503</ele>
        <time>2026-08-18T03:05:22.000Z</time>
      </trkpt>
      <trkpt lat="22.856887" lon="110.688659">
        <ele>119.978539</ele>
        <time>2026-08-18T03:05:23.000Z</time>
      </trkpt>
      <trkpt lat="22.856890" lon="110.688693">
        <ele>120.097876</ele>
        <time>2026-08-18T03:05:24.000Z</time>
      </trkpt>
      <trkpt lat="22.856892" lon="110.688728">
        <ele>120.220399</ele>
        <time>2026-08-18T03:05:25.000Z</time>
      </trkpt>
      <trkpt lat="22.856895" lon="110.688762">
        <ele>120.339736</ele>
        <time>2026-08-18T03:05:26.000Z</time>
      </trkpt>
      <trkpt lat="22.856899" lon="110.688797">
        <ele>120.462961</ele>
        <time>2026-08-18T03:05:27.000Z</time>
      </trkpt>
      <trkpt lat="22.856899" lon="110.688834">
        <ele>120.592237</ele>
        <time>2026-08-18T03:05:28.000Z</time>
      </trkpt>
      <trkpt lat="22.856901" lon="110.688869">
        <ele>120.714759</ele>
        <time>2026-08-18T03:05:29.000Z</time>
      </trkpt>
      <trkpt lat="22.856903" lon="110.688906">
        <ele>120.844257</ele>
        <time>2026-08-18T03:05:30.000Z</time>
      </trkpt>
      <trkpt lat="22.856905" lon="110.688942">
        <ele>120.970267</ele>
        <time>2026-08-18T03:05:31.000Z</time>
      </trkpt>
      <trkpt lat="22.856907" lon="110.688977">
        <ele>121.092790</ele>
        <time>2026-08-18T03:05:32.000Z</time>
      </trkpt>
      <trkpt lat="22.856910" lon="110.689013">
        <ele>121.219085</ele>
        <time>2026-08-18T03:05:33.000Z</time>
      </trkpt>
      <trkpt lat="22.856912" lon="110.689049">
        <ele>121.309911</ele>
        <time>2026-08-18T03:05:34.000Z</time>
      </trkpt>
      <trkpt lat="22.856914" lon="110.689085">
        <ele>121.369490</ele>
        <time>2026-08-18T03:05:35.000Z</time>
      </trkpt>
      <trkpt lat="22.856915" lon="110.689121">
        <ele>121.428988</ele>
        <time>2026-08-18T03:05:36.000Z</time>
      </trkpt>
      <trkpt lat="22.856917" lon="110.689159">
        <ele>121.491865</ele>
        <time>2026-08-18T03:05:37.000Z</time>
      </trkpt>
      <trkpt lat="22.856918" lon="110.689195">
        <ele>121.551363</ele>
        <time>2026-08-18T03:05:38.000Z</time>
      </trkpt>
      <trkpt lat="22.856920" lon="110.689231">
        <ele>121.610941</ele>
        <time>2026-08-18T03:05:39.000Z</time>
      </trkpt>
      <trkpt lat="22.856922" lon="110.689266">
        <ele>121.668871</ele>
        <time>2026-08-18T03:05:40.000Z</time>
      </trkpt>
      <trkpt lat="22.856923" lon="110.689301">
        <ele>121.726718</ele>
        <time>2026-08-18T03:05:41.000Z</time>
      </trkpt>
      <trkpt lat="22.856926" lon="110.689337">
        <ele>121.786431</ele>
        <time>2026-08-18T03:05:42.000Z</time>
      </trkpt>
      <trkpt lat="22.856928" lon="110.689374">
        <ele>121.847659</ele>
        <time>2026-08-18T03:05:43.000Z</time>
      </trkpt>
      <trkpt lat="22.856931" lon="110.689412">
        <ele>121.910664</ele>
        <time>2026-08-18T03:05:44.000Z</time>
      </trkpt>
      <trkpt lat="22.856933" lon="110.689448">
        <ele>121.970242</ele>
        <time>2026-08-18T03:05:45.000Z</time>
      </trkpt>
      <trkpt lat="22.856936" lon="110.689485">
        <ele>122.031601</ele>
        <time>2026-08-18T03:05:46.000Z</time>
      </trkpt>
      <trkpt lat="22.856938" lon="110.689523">
        <ele>122.094478</ele>
        <time>2026-08-18T03:05:47.000Z</time>
      </trkpt>
      <trkpt lat="22.856939" lon="110.689560">
        <ele>122.155627</ele>
        <time>2026-08-18T03:05:48.000Z</time>
      </trkpt>
      <trkpt lat="22.856941" lon="110.689597">
        <ele>122.216855</ele>
        <time>2026-08-18T03:05:49.000Z</time>
      </trkpt>
      <trkpt lat="22.856944" lon="110.689635">
        <ele>122.279860</ele>
        <time>2026-08-18T03:05:50.000Z</time>
      </trkpt>
      <trkpt lat="22.856946" lon="110.689672">
        <ele>122.341088</ele>
        <time>2026-08-18T03:05:51.000Z</time>
      </trkpt>
      <trkpt lat="22.856949" lon="110.689710">
        <ele>122.404092</ele>
        <time>2026-08-18T03:05:52.000Z</time>
      </trkpt>
      <trkpt lat="22.856952" lon="110.689747">
        <ele>122.465451</ele>
        <time>2026-08-18T03:05:53.000Z</time>
      </trkpt>
      <trkpt lat="22.856954" lon="110.689786">
        <ele>122.529977</ele>
        <time>2026-08-18T03:05:54.000Z</time>
      </trkpt>
      <trkpt lat="22.856956" lon="110.689824">
        <ele>122.592854</ele>
        <time>2026-08-18T03:05:55.000Z</time>
      </trkpt>
      <trkpt lat="22.856958" lon="110.689861">
        <ele>122.654082</ele>
        <time>2026-08-18T03:05:56.000Z</time>
      </trkpt>
      <trkpt lat="22.856960" lon="110.689899">
        <ele>122.716959</ele>
        <time>2026-08-18T03:05:57.000Z</time>
      </trkpt>
      <trkpt lat="22.856963" lon="110.689938">
        <ele>122.781610</ele>
        <time>2026-08-18T03:05:58.000Z</time>
      </trkpt>
      <trkpt lat="22.856964" lon="110.689976">
        <ele>122.844410</ele>
        <time>2026-08-18T03:05:59.000Z</time>
      </trkpt>
      <trkpt lat="22.856965" lon="110.690014">
        <ele>122.907210</ele>
        <time>2026-08-18T03:06:00.000Z</time>
      </trkpt>
      <trkpt lat="22.856967" lon="110.690051">
        <ele>122.968438</ele>
        <time>2026-08-18T03:06:01.000Z</time>
      </trkpt>
      <trkpt lat="22.856970" lon="110.690088">
        <ele>123.029797</ele>
        <time>2026-08-18T03:06:02.000Z</time>
      </trkpt>
      <trkpt lat="22.856973" lon="110.690126">
        <ele>123.092802</ele>
        <time>2026-08-18T03:06:03.000Z</time>
      </trkpt>
      <trkpt lat="22.856975" lon="110.690163">
        <ele>123.154029</ele>
        <time>2026-08-18T03:06:04.000Z</time>
      </trkpt>
      <trkpt lat="22.856978" lon="110.690200">
        <ele>123.215388</ele>
        <time>2026-08-18T03:06:05.000Z</time>
      </trkpt>
      <trkpt lat="22.856979" lon="110.690236">
        <ele>123.274886</ele>
        <time>2026-08-18T03:06:06.000Z</time>
      </trkpt>
      <trkpt lat="22.856981" lon="110.690272">
        <ele>123.334465</ele>
        <time>2026-08-18T03:06:07.000Z</time>
      </trkpt>
      <trkpt lat="22.856982" lon="110.690310">
        <ele>123.397265</ele>
        <time>2026-08-18T03:06:08.000Z</time>
      </trkpt>
      <trkpt lat="22.856983" lon="110.690346">
        <ele>123.456763</ele>
        <time>2026-08-18T03:06:09.000Z</time>
      </trkpt>
      <trkpt lat="22.856984" lon="110.690381">
        <ele>123.514609</ele>
        <time>2026-08-18T03:06:10.000Z</time>
      </trkpt>
      <trkpt lat="22.856985" lon="110.690418">
        <ele>123.575758</ele>
        <time>2026-08-18T03:06:11.000Z</time>
      </trkpt>
      <trkpt lat="22.856987" lon="110.690455">
        <ele>123.636986</ele>
        <time>2026-08-18T03:06:12.000Z</time>
      </trkpt>
      <trkpt lat="22.856990" lon="110.690493">
        <ele>123.699991</ele>
        <time>2026-08-18T03:06:13.000Z</time>
      </trkpt>
      <trkpt lat="22.856992" lon="110.690531">
        <ele>123.762868</ele>
        <time>2026-08-18T03:06:14.000Z</time>
      </trkpt>
      <trkpt lat="22.856993" lon="110.690568">
        <ele>123.824017</ele>
        <time>2026-08-18T03:06:15.000Z</time>
      </trkpt>
      <trkpt lat="22.856993" lon="110.690607">
        <ele>123.888443</ele>
        <time>2026-08-18T03:06:16.000Z</time>
      </trkpt>
      <trkpt lat="22.856994" lon="110.690646">
        <ele>123.952895</ele>
        <time>2026-08-18T03:06:17.000Z</time>
      </trkpt>
      <trkpt lat="22.856996" lon="110.690685">
        <ele>124.017421</ele>
        <time>2026-08-18T03:06:18.000Z</time>
      </trkpt>
      <trkpt lat="22.856999" lon="110.690724">
        <ele>124.082072</ele>
        <time>2026-08-18T03:06:19.000Z</time>
      </trkpt>
      <trkpt lat="22.857001" lon="110.690765">
        <ele>124.149897</ele>
        <time>2026-08-18T03:06:20.000Z</time>
      </trkpt>
      <trkpt lat="22.857001" lon="110.690807">
        <ele>124.219280</ele>
        <time>2026-08-18T03:06:21.000Z</time>
      </trkpt>
      <trkpt lat="22.857003" lon="110.690847">
        <ele>124.285456</ele>
        <time>2026-08-18T03:06:22.000Z</time>
      </trkpt>
      <trkpt lat="22.857005" lon="110.690887">
        <ele>124.351631</ele>
        <time>2026-08-18T03:06:23.000Z</time>
      </trkpt>
      <trkpt lat="22.857008" lon="110.690926">
        <ele>124.416282</ele>
        <time>2026-08-18T03:06:24.000Z</time>
      </trkpt>
      <trkpt lat="22.857009" lon="110.690968">
        <ele>124.485688</ele>
        <time>2026-08-18T03:06:25.000Z</time>
      </trkpt>
      <trkpt lat="22.857011" lon="110.691010">
        <ele>124.524817</ele>
        <time>2026-08-18T03:06:26.000Z</time>
      </trkpt>
      <trkpt lat="22.857013" lon="110.691054">
        <ele>124.555379</ele>
        <time>2026-08-18T03:06:27.000Z</time>
      </trkpt>
      <trkpt lat="22.857017" lon="110.691099">
        <ele>124.586741</ele>
        <time>2026-08-18T03:06:28.000Z</time>
      </trkpt>
      <trkpt lat="22.857020" lon="110.691144">
        <ele>124.618041</ele>
        <time>2026-08-18T03:06:29.000Z</time>
      </trkpt>
      <trkpt lat="22.857022" lon="110.691189">
        <ele>124.649295</ele>
        <time>2026-08-18T03:06:30.000Z</time>
      </trkpt>
      <trkpt lat="22.857024" lon="110.691233">
        <ele>124.679856</ele>
        <time>2026-08-18T03:06:31.000Z</time>
      </trkpt>
      <trkpt lat="22.857030" lon="110.691278">
        <ele>124.711399</ele>
        <time>2026-08-18T03:06:32.000Z</time>
      </trkpt>
      <trkpt lat="22.857036" lon="110.691322">
        <ele>124.742256</ele>
        <time>2026-08-18T03:06:33.000Z</time>
      </trkpt>
      <trkpt lat="22.857040" lon="110.691367">
        <ele>124.773619</ele>
        <time>2026-08-18T03:06:34.000Z</time>
      </trkpt>
      <trkpt lat="22.857042" lon="110.691411">
        <ele>124.804180</ele>
        <time>2026-08-18T03:06:35.000Z</time>
      </trkpt>
      <trkpt lat="22.857044" lon="110.691457">
        <ele>124.836127</ele>
        <time>2026-08-18T03:06:36.000Z</time>
      </trkpt>
      <trkpt lat="22.857046" lon="110.691505">
        <ele>124.869460</ele>
        <time>2026-08-18T03:06:37.000Z</time>
      </trkpt>
      <trkpt lat="22.857049" lon="110.691552">
        <ele>124.902144</ele>
        <time>2026-08-18T03:06:38.000Z</time>
      </trkpt>
      <trkpt lat="22.857051" lon="110.691599">
        <ele>124.934784</ele>
        <time>2026-08-18T03:06:39.000Z</time>
      </trkpt>
      <trkpt lat="22.857053" lon="110.691645">
        <ele>124.966731</ele>
        <time>2026-08-18T03:06:40.000Z</time>
      </trkpt>
      <trkpt lat="22.857055" lon="110.691692">
        <ele>124.999371</ele>
        <time>2026-08-18T03:06:41.000Z</time>
      </trkpt>
      <trkpt lat="22.857057" lon="110.691739">
        <ele>125.032011</ele>
        <time>2026-08-18T03:06:42.000Z</time>
      </trkpt>
      <trkpt lat="22.857057" lon="110.691786">
        <ele>125.064617</ele>
        <time>2026-08-18T03:06:43.000Z</time>
      </trkpt>
      <trkpt lat="22.857059" lon="110.691832">
        <ele>125.096564</ele>
        <time>2026-08-18T03:06:44.000Z</time>
      </trkpt>
      <trkpt lat="22.857063" lon="110.691880">
        <ele>125.129999</ele>
        <time>2026-08-18T03:06:45.000Z</time>
      </trkpt>
      <trkpt lat="22.857064" lon="110.691926">
        <ele>125.161919</ele>
        <time>2026-08-18T03:06:46.000Z</time>
      </trkpt>
      <trkpt lat="22.857065" lon="110.691973">
        <ele>125.194533</ele>
        <time>2026-08-18T03:06:47.000Z</time>
      </trkpt>
      <trkpt lat="22.857068" lon="110.692021">
        <ele>125.227909</ele>
        <time>2026-08-18T03:06:48.000Z</time>
      </trkpt>
      <trkpt lat="22.857070" lon="110.692067">
        <ele>125.259856</ele>
        <time>2026-08-18T03:06:49.000Z</time>
      </trkpt>
      <trkpt lat="22.857070" lon="110.692115">
        <ele>125.293155</ele>
        <time>2026-08-18T03:06:50.000Z</time>
      </trkpt>
      <trkpt lat="22.857072" lon="110.692163">
        <ele>125.326488</ele>
        <time>2026-08-18T03:06:51.000Z</time>
      </trkpt>
      <trkpt lat="22.857075" lon="110.692213">
        <ele>125.361248</ele>
        <time>2026-08-18T03:06:52.000Z</time>
      </trkpt>
      <trkpt lat="22.857079" lon="110.692264">
        <ele>125.396756</ele>
        <time>2026-08-18T03:06:53.000Z</time>
      </trkpt>
      <trkpt lat="22.857085" lon="110.692313">
        <ele>125.431048</ele>
        <time>2026-08-18T03:06:54.000Z</time>
      </trkpt>
      <trkpt lat="22.857091" lon="110.692362">
        <ele>125.465340</ele>
        <time>2026-08-18T03:06:55.000Z</time>
      </trkpt>
      <trkpt lat="22.857097" lon="110.692411">
        <ele>125.499631</ele>
        <time>2026-08-18T03:06:56.000Z</time>
      </trkpt>
      <trkpt lat="22.857101" lon="110.692461">
        <ele>125.534448</ele>
        <time>2026-08-18T03:06:57.000Z</time>
      </trkpt>
      <trkpt lat="22.857102" lon="110.692511">
        <ele>125.569143</ele>
        <time>2026-08-18T03:06:58.000Z</time>
      </trkpt>
      <trkpt lat="22.857104" lon="110.692561">
        <ele>125.603862</ele>
        <time>2026-08-18T03:06:59.000Z</time>
      </trkpt>
      <trkpt lat="22.857108" lon="110.692612">
        <ele>125.639370</ele>
        <time>2026-08-18T03:07:00.000Z</time>
      </trkpt>
      <trkpt lat="22.857113" lon="110.692661">
        <ele>125.673571</ele>
        <time>2026-08-18T03:07:01.000Z</time>
      </trkpt>
      <trkpt lat="22.857117" lon="110.692712">
        <ele>125.709079</ele>
        <time>2026-08-18T03:07:02.000Z</time>
      </trkpt>
      <trkpt lat="22.857120" lon="110.692763">
        <ele>125.744532</ele>
        <time>2026-08-18T03:07:03.000Z</time>
      </trkpt>
      <trkpt lat="22.857123" lon="110.692815">
        <ele>125.780676</ele>
        <time>2026-08-18T03:07:04.000Z</time>
      </trkpt>
      <trkpt lat="22.857126" lon="110.692867">
        <ele>125.816821</ele>
        <time>2026-08-18T03:07:05.000Z</time>
      </trkpt>
      <trkpt lat="22.857129" lon="110.692919">
        <ele>125.852965</ele>
        <time>2026-08-18T03:07:06.000Z</time>
      </trkpt>
      <trkpt lat="22.857132" lon="110.692970">
        <ele>125.980499</ele>
        <time>2026-08-18T03:07:07.000Z</time>
      </trkpt>
      <trkpt lat="22.857136" lon="110.693020">
        <ele>126.117202</ele>
        <time>2026-08-18T03:07:08.000Z</time>
      </trkpt>
      <trkpt lat="22.857140" lon="110.693070">
        <ele>126.253905</ele>
        <time>2026-08-18T03:07:09.000Z</time>
      </trkpt>
      <trkpt lat="22.857145" lon="110.693120">
        <ele>126.390895</ele>
        <time>2026-08-18T03:07:10.000Z</time>
      </trkpt>
      <trkpt lat="22.857148" lon="110.693169">
        <ele>126.524656</ele>
        <time>2026-08-18T03:07:11.000Z</time>
      </trkpt>
      <trkpt lat="22.857148" lon="110.693216">
        <ele>126.652675</ele>
        <time>2026-08-18T03:07:12.000Z</time>
      </trkpt>
      <trkpt lat="22.857149" lon="110.693261">
        <ele>126.775282</ele>
        <time>2026-08-18T03:07:13.000Z</time>
      </trkpt>
      <trkpt lat="22.857151" lon="110.693308">
        <ele>126.903438</ele>
        <time>2026-08-18T03:07:14.000Z</time>
      </trkpt>
      <trkpt lat="22.857154" lon="110.693353">
        <ele>127.026330</ele>
        <time>2026-08-18T03:07:15.000Z</time>
      </trkpt>
      <trkpt lat="22.857158" lon="110.693398">
        <ele>127.149470</ele>
        <time>2026-08-18T03:07:16.000Z</time>
      </trkpt>
      <trkpt lat="22.857160" lon="110.693440">
        <ele>127.264023</ele>
        <time>2026-08-18T03:07:17.000Z</time>
      </trkpt>
      <trkpt lat="22.857162" lon="110.693482">
        <ele>127.378576</ele>
        <time>2026-08-18T03:07:18.000Z</time>
      </trkpt>
      <trkpt lat="22.857164" lon="110.693522">
        <ele>127.487689</ele>
        <time>2026-08-18T03:07:19.000Z</time>
      </trkpt>
      <trkpt lat="22.857165" lon="110.693561">
        <ele>127.593959</ele>
        <time>2026-08-18T03:07:20.000Z</time>
      </trkpt>
      <trkpt lat="22.857168" lon="110.693600">
        <ele>127.700557</ele>
        <time>2026-08-18T03:07:21.000Z</time>
      </trkpt>
      <trkpt lat="22.857173" lon="110.693638">
        <ele>127.805111</ele>
        <time>2026-08-18T03:07:22.000Z</time>
      </trkpt>
      <trkpt lat="22.857179" lon="110.693676">
        <ele>127.910125</ele>
        <time>2026-08-18T03:07:23.000Z</time>
      </trkpt>
      <trkpt lat="22.857187" lon="110.693713">
        <ele>128.013643</ele>
        <time>2026-08-18T03:07:24.000Z</time>
      </trkpt>
      <trkpt lat="22.857194" lon="110.693750">
        <ele>128.116526</ele>
        <time>2026-08-18T03:07:25.000Z</time>
      </trkpt>
      <trkpt lat="22.857197" lon="110.693789">
        <ele>128.223124</ele>
        <time>2026-08-18T03:07:26.000Z</time>
      </trkpt>
      <trkpt lat="22.857201" lon="110.693827">
        <ele>128.327302</ele>
        <time>2026-08-18T03:07:27.000Z</time>
      </trkpt>
      <trkpt lat="22.857205" lon="110.693863">
        <ele>128.426070</ele>
        <time>2026-08-18T03:07:28.000Z</time>
      </trkpt>
      <trkpt lat="22.857208" lon="110.693900">
        <ele>128.527240</ele>
        <time>2026-08-18T03:07:29.000Z</time>
      </trkpt>
      <trkpt lat="22.857212" lon="110.693936">
        <ele>128.626008</ele>
        <time>2026-08-18T03:07:30.000Z</time>
      </trkpt>
      <trkpt lat="22.857214" lon="110.693972">
        <ele>128.724243</ele>
        <time>2026-08-18T03:07:31.000Z</time>
      </trkpt>
      <trkpt lat="22.857217" lon="110.694008">
        <ele>128.822700</ele>
        <time>2026-08-18T03:07:32.000Z</time>
      </trkpt>
      <trkpt lat="22.857220" lon="110.694045">
        <ele>128.923871</ele>
        <time>2026-08-18T03:07:33.000Z</time>
      </trkpt>
      <trkpt lat="22.857223" lon="110.694081">
        <ele>129.022328</ele>
        <time>2026-08-18T03:07:34.000Z</time>
      </trkpt>
      <trkpt lat="22.857225" lon="110.694115">
        <ele>129.115126</ele>
        <time>2026-08-18T03:07:35.000Z</time>
      </trkpt>
      <trkpt lat="22.857230" lon="110.694150">
        <ele>129.211598</ele>
        <time>2026-08-18T03:07:36.000Z</time>
      </trkpt>
      <trkpt lat="22.857233" lon="110.694184">
        <ele>129.304631</ele>
        <time>2026-08-18T03:07:37.000Z</time>
      </trkpt>
      <trkpt lat="22.857235" lon="110.694220">
        <ele>129.402867</ele>
        <time>2026-08-18T03:07:38.000Z</time>
      </trkpt>
      <trkpt lat="22.857234" lon="110.694254">
        <ele>129.495523</ele>
        <time>2026-08-18T03:07:39.000Z</time>
      </trkpt>
      <trkpt lat="22.857235" lon="110.694288">
        <ele>129.588180</ele>
        <time>2026-08-18T03:07:40.000Z</time>
      </trkpt>
      <trkpt lat="22.857235" lon="110.694321">
        <ele>129.678066</ele>
        <time>2026-08-18T03:07:41.000Z</time>
      </trkpt>
      <trkpt lat="22.857236" lon="110.694354">
        <ele>129.768000</ele>
        <time>2026-08-18T03:07:42.000Z</time>
      </trkpt>
      <trkpt lat="22.857239" lon="110.694388">
        <ele>129.861033</ele>
        <time>2026-08-18T03:07:43.000Z</time>
      </trkpt>
      <trkpt lat="22.857243" lon="110.694422">
        <ele>129.954395</ele>
        <time>2026-08-18T03:07:44.000Z</time>
      </trkpt>
      <trkpt lat="22.857247" lon="110.694457">
        <ele>130.050459</ele>
        <time>2026-08-18T03:07:45.000Z</time>
      </trkpt>
      <trkpt lat="22.857250" lon="110.694491">
        <ele>130.143492</ele>
        <time>2026-08-18T03:07:46.000Z</time>
      </trkpt>
      <trkpt lat="22.857254" lon="110.694524">
        <ele>130.234152</ele>
        <time>2026-08-18T03:07:47.000Z</time>
      </trkpt>
      <trkpt lat="22.857258" lon="110.694557">
        <ele>130.324812</ele>
        <time>2026-08-18T03:07:48.000Z</time>
      </trkpt>
      <trkpt lat="22.857262" lon="110.694588">
        <ele>130.410074</ele>
        <time>2026-08-18T03:07:49.000Z</time>
      </trkpt>
      <trkpt lat="22.857264" lon="110.694619">
        <ele>130.494719</ele>
        <time>2026-08-18T03:07:50.000Z</time>
      </trkpt>
      <trkpt lat="22.857266" lon="110.694648">
        <ele>130.573930</ele>
        <time>2026-08-18T03:07:51.000Z</time>
      </trkpt>
      <trkpt lat="22.857269" lon="110.694678">
        <ele>130.656124</ele>
        <time>2026-08-18T03:07:52.000Z</time>
      </trkpt>
      <trkpt lat="22.857270" lon="110.694708">
        <ele>130.737892</ele>
        <time>2026-08-18T03:07:53.000Z</time>
      </trkpt>
      <trkpt lat="22.857272" lon="110.694734">
        <ele>130.808957</ele>
        <time>2026-08-18T03:07:54.000Z</time>
      </trkpt>
      <trkpt lat="22.857279" lon="110.694760">
        <ele>130.882737</ele>
        <time>2026-08-18T03:07:55.000Z</time>
      </trkpt>
      <trkpt lat="22.857286" lon="110.694785">
        <ele>130.953907</ele>
        <time>2026-08-18T03:07:56.000Z</time>
      </trkpt>
      <trkpt lat="22.857291" lon="110.694812">
        <ele>131.028920</ele>
        <time>2026-08-18T03:07:57.000Z</time>
      </trkpt>
      <trkpt lat="22.857294" lon="110.694839">
        <ele>131.102995</ele>
        <time>2026-08-18T03:07:58.000Z</time>
      </trkpt>
      <trkpt lat="22.857298" lon="110.694865">
        <ele>131.175635</ele>
        <time>2026-08-18T03:07:59.000Z</time>
      </trkpt>
      <trkpt lat="22.857303" lon="110.694890">
        <ele>131.294419</ele>
        <time>2026-08-18T03:08:00.000Z</time>
      </trkpt>
      <trkpt lat="22.857307" lon="110.694917">
        <ele>131.421397</ele>
        <time>2026-08-18T03:08:01.000Z</time>
      </trkpt>
      <trkpt lat="22.857310" lon="110.694944">
        <ele>131.547673</ele>
        <time>2026-08-18T03:08:02.000Z</time>
      </trkpt>
      <trkpt lat="22.857314" lon="110.694971">
        <ele>131.674651</ele>
        <time>2026-08-18T03:08:03.000Z</time>
      </trkpt>
      <trkpt lat="22.857317" lon="110.694997">
        <ele>131.796319</ele>
        <time>2026-08-18T03:08:04.000Z</time>
      </trkpt>
      <trkpt lat="22.857321" lon="110.695024">
        <ele>131.923297</ele>
        <time>2026-08-18T03:08:05.000Z</time>
      </trkpt>
      <trkpt lat="22.857324" lon="110.695051">
        <ele>132.049573</ele>
        <time>2026-08-18T03:08:06.000Z</time>
      </trkpt>
      <trkpt lat="22.857329" lon="110.695078">
        <ele>132.177447</ele>
        <time>2026-08-18T03:08:07.000Z</time>
      </trkpt>
      <trkpt lat="22.857334" lon="110.695105">
        <ele>132.305322</ele>
        <time>2026-08-18T03:08:08.000Z</time>
      </trkpt>
      <trkpt lat="22.857339" lon="110.695132">
        <ele>132.433196</ele>
        <time>2026-08-18T03:08:09.000Z</time>
      </trkpt>
      <trkpt lat="22.857341" lon="110.695160">
        <ele>132.563597</ele>
        <time>2026-08-18T03:08:10.000Z</time>
      </trkpt>
      <trkpt lat="22.857344" lon="110.695188">
        <ele>132.694484</ele>
        <time>2026-08-18T03:08:11.000Z</time>
      </trkpt>
      <trkpt lat="22.857346" lon="110.695216">
        <ele>132.824886</ele>
        <time>2026-08-18T03:08:12.000Z</time>
      </trkpt>
      <trkpt lat="22.857348" lon="110.695244">
        <ele>132.955287</ele>
        <time>2026-08-18T03:08:13.000Z</time>
      </trkpt>
      <trkpt lat="22.857350" lon="110.695272">
        <ele>133.085688</ele>
        <time>2026-08-18T03:08:14.000Z</time>
      </trkpt>
      <trkpt lat="22.857354" lon="110.695301">
        <ele>133.221843</ele>
        <time>2026-08-18T03:08:15.000Z</time>
      </trkpt>
      <trkpt lat="22.857360" lon="110.695331">
        <ele>133.364384</ele>
        <time>2026-08-18T03:08:16.000Z</time>
      </trkpt>
      <trkpt lat="22.857366" lon="110.695362">
        <ele>133.511465</ele>
        <time>2026-08-18T03:08:17.000Z</time>
      </trkpt>
      <trkpt lat="22.857370" lon="110.695392">
        <ele>133.652214</ele>
        <time>2026-08-18T03:08:18.000Z</time>
      </trkpt>
      <trkpt lat="22.857374" lon="110.695421">
        <ele>133.788368</ele>
        <time>2026-08-18T03:08:19.000Z</time>
      </trkpt>
      <trkpt lat="22.857376" lon="110.695451">
        <ele>133.928030</ele>
        <time>2026-08-18T03:08:20.000Z</time>
      </trkpt>
      <trkpt lat="22.857377" lon="110.695479">
        <ele>134.058139</ele>
        <time>2026-08-18T03:08:21.000Z</time>
      </trkpt>
      <trkpt lat="22.857378" lon="110.695506">
        <ele>134.183608</ele>
        <time>2026-08-18T03:08:22.000Z</time>
      </trkpt>
      <trkpt lat="22.857382" lon="110.695535">
        <ele>134.319762</ele>
        <time>2026-08-18T03:08:23.000Z</time>
      </trkpt>
      <trkpt lat="22.857387" lon="110.695563">
        <ele>134.452192</ele>
        <time>2026-08-18T03:08:24.000Z</time>
      </trkpt>
      <trkpt lat="22.857390" lon="110.695590">
        <ele>134.578468</ele>
        <time>2026-08-18T03:08:25.000Z</time>
      </trkpt>
      <trkpt lat="22.857392" lon="110.695617">
        <ele>134.704241</ele>
        <time>2026-08-18T03:08:26.000Z</time>
      </trkpt>
      <trkpt lat="22.857394" lon="110.695646">
        <ele>134.839272</ele>
        <time>2026-08-18T03:08:27.000Z</time>
      </trkpt>
      <trkpt lat="22.857396" lon="110.695674">
        <ele>134.969673</ele>
        <time>2026-08-18T03:08:28.000Z</time>
      </trkpt>
      <trkpt lat="22.857399" lon="110.695703">
        <ele>135.105173</ele>
        <time>2026-08-18T03:08:29.000Z</time>
      </trkpt>
      <trkpt lat="22.857401" lon="110.695731">
        <ele>135.235574</ele>
        <time>2026-08-18T03:08:30.000Z</time>
      </trkpt>
      <trkpt lat="22.857405" lon="110.695757">
        <ele>135.357970</ele>
        <time>2026-08-18T03:08:31.000Z</time>
      </trkpt>
      <trkpt lat="22.857410" lon="110.695784">
        <ele>135.485844</ele>
        <time>2026-08-18T03:08:32.000Z</time>
      </trkpt>
      <trkpt lat="22.857413" lon="110.695812">
        <ele>135.616731</ele>
        <time>2026-08-18T03:08:33.000Z</time>
      </trkpt>
      <trkpt lat="22.857416" lon="110.695839">
        <ele>135.743007</ele>
        <time>2026-08-18T03:08:34.000Z</time>
      </trkpt>
      <trkpt lat="22.857419" lon="110.695864">
        <ele>135.860069</ele>
        <time>2026-08-18T03:08:35.000Z</time>
      </trkpt>
      <trkpt lat="22.857423" lon="110.695890">
        <ele>135.982464</ele>
        <time>2026-08-18T03:08:36.000Z</time>
      </trkpt>
      <trkpt lat="22.857426" lon="110.695916">
        <ele>136.104132</ele>
        <time>2026-08-18T03:08:37.000Z</time>
      </trkpt>
      <trkpt lat="22.857429" lon="110.695941">
        <ele>136.221193</ele>
        <time>2026-08-18T03:08:38.000Z</time>
      </trkpt>
      <trkpt lat="22.857431" lon="110.695967">
        <ele>136.342338</ele>
        <time>2026-08-18T03:08:39.000Z</time>
      </trkpt>
      <trkpt lat="22.857434" lon="110.695994">
        <ele>136.468614</ele>
        <time>2026-08-18T03:08:40.000Z</time>
      </trkpt>
      <trkpt lat="22.857437" lon="110.696019">
        <ele>136.585675</ele>
        <time>2026-08-18T03:08:41.000Z</time>
      </trkpt>
      <trkpt lat="22.857442" lon="110.696045">
        <ele>136.709001</ele>
        <time>2026-08-18T03:08:42.000Z</time>
      </trkpt>
      <trkpt lat="22.857446" lon="110.696071">
        <ele>136.831396</ele>
        <time>2026-08-18T03:08:43.000Z</time>
      </trkpt>
      <trkpt lat="22.857449" lon="110.696098">
        <ele>136.957672</ele>
        <time>2026-08-18T03:08:44.000Z</time>
      </trkpt>
      <trkpt lat="22.857452" lon="110.696125">
        <ele>137.083948</ele>
        <time>2026-08-18T03:08:45.000Z</time>
      </trkpt>
      <trkpt lat="22.857455" lon="110.696151">
        <ele>137.205616</ele>
        <time>2026-08-18T03:08:46.000Z</time>
      </trkpt>
      <trkpt lat="22.857458" lon="110.696177">
        <ele>137.327283</ele>
        <time>2026-08-18T03:08:47.000Z</time>
      </trkpt>
      <trkpt lat="22.857461" lon="110.696202">
        <ele>137.444344</ele>
        <time>2026-08-18T03:08:48.000Z</time>
      </trkpt>
      <trkpt lat="22.857464" lon="110.696227">
        <ele>137.561406</ele>
        <time>2026-08-18T03:08:49.000Z</time>
      </trkpt>
      <trkpt lat="22.857467" lon="110.696253">
        <ele>137.683073</ele>
        <time>2026-08-18T03:08:50.000Z</time>
      </trkpt>
      <trkpt lat="22.857470" lon="110.696279">
        <ele>137.804740</ele>
        <time>2026-08-18T03:08:51.000Z</time>
      </trkpt>
      <trkpt lat="22.857473" lon="110.696307">
        <ele>137.935627</ele>
        <time>2026-08-18T03:08:52.000Z</time>
      </trkpt>
      <trkpt lat="22.857477" lon="110.696333">
        <ele>138.058023</ele>
        <time>2026-08-18T03:08:53.000Z</time>
      </trkpt>
      <trkpt lat="22.857479" lon="110.696360">
        <ele>138.183795</ele>
        <time>2026-08-18T03:08:54.000Z</time>
      </trkpt>
      <trkpt lat="22.857481" lon="110.696386">
        <ele>138.304940</ele>
        <time>2026-08-18T03:08:55.000Z</time>
      </trkpt>
      <trkpt lat="22.857483" lon="110.696412">
        <ele>138.426084</ele>
        <time>2026-08-18T03:08:56.000Z</time>
      </trkpt>
      <trkpt lat="22.857487" lon="110.696437">
        <ele>138.543902</ele>
        <time>2026-08-18T03:08:57.000Z</time>
      </trkpt>
      <trkpt lat="22.857490" lon="110.696462">
        <ele>138.660964</ele>
        <time>2026-08-18T03:08:58.000Z</time>
      </trkpt>
      <trkpt lat="22.857494" lon="110.696488">
        <ele>138.783359</ele>
        <time>2026-08-18T03:08:59.000Z</time>
      </trkpt>
      <trkpt lat="22.857498" lon="110.696515">
        <ele>138.910337</ele>
        <time>2026-08-18T03:09:00.000Z</time>
      </trkpt>
      <trkpt lat="22.857499" lon="110.696542">
        <ele>139.035806</ele>
        <time>2026-08-18T03:09:01.000Z</time>
      </trkpt>
      <trkpt lat="22.857501" lon="110.696569">
        <ele>139.161578</ele>
        <time>2026-08-18T03:09:02.000Z</time>
      </trkpt>
      <trkpt lat="22.857503" lon="110.696596">
        <ele>139.287350</ele>
        <time>2026-08-18T03:09:03.000Z</time>
      </trkpt>
      <trkpt lat="22.857506" lon="110.696622">
        <ele>139.409018</ele>
        <time>2026-08-18T03:09:04.000Z</time>
      </trkpt>
      <trkpt lat="22.857510" lon="110.696649">
        <ele>139.535995</ele>
        <time>2026-08-18T03:09:05.000Z</time>
      </trkpt>
      <trkpt lat="22.857515" lon="110.696675">
        <ele>139.659321</ele>
        <time>2026-08-18T03:09:06.000Z</time>
      </trkpt>
      <trkpt lat="22.857519" lon="110.696700">
        <ele>139.777139</ele>
        <time>2026-08-18T03:09:07.000Z</time>
      </trkpt>
      <trkpt lat="22.857521" lon="110.696726">
        <ele>139.898283</ele>
        <time>2026-08-18T03:09:08.000Z</time>
      </trkpt>
      <trkpt lat="22.857523" lon="110.696751">
        <ele>140.014801</ele>
        <time>2026-08-18T03:09:09.000Z</time>
      </trkpt>
      <trkpt lat="22.857526" lon="110.696777">
        <ele>140.136469</ele>
        <time>2026-08-18T03:09:10.000Z</time>
      </trkpt>
      <trkpt lat="22.857530" lon="110.696804">
        <ele>140.255761</ele>
        <time>2026-08-18T03:09:11.000Z</time>
      </trkpt>
      <trkpt lat="22.857535" lon="110.696831">
        <ele>140.346676</ele>
        <time>2026-08-18T03:09:12.000Z</time>
      </trkpt>
      <trkpt lat="22.857539" lon="110.696859">
        <ele>140.440215</ele>
        <time>2026-08-18T03:09:13.000Z</time>
      </trkpt>
      <trkpt lat="22.857544" lon="110.696885">
        <ele>140.527896</ele>
        <time>2026-08-18T03:09:14.000Z</time>
      </trkpt>
      <trkpt lat="22.857547" lon="110.696909">
        <ele>140.607851</ele>
        <time>2026-08-18T03:09:15.000Z</time>
      </trkpt>
      <trkpt lat="22.857549" lon="110.696935">
        <ele>140.693981</ele>
        <time>2026-08-18T03:09:16.000Z</time>
      </trkpt>
      <trkpt lat="22.857552" lon="110.696961">
        <ele>140.780483</ele>
        <time>2026-08-18T03:09:17.000Z</time>
      </trkpt>
      <trkpt lat="22.857554" lon="110.696987">
        <ele>140.866613</ele>
        <time>2026-08-18T03:09:18.000Z</time>
      </trkpt>
      <trkpt lat="22.857557" lon="110.697013">
        <ele>140.953115</ele>
        <time>2026-08-18T03:09:19.000Z</time>
      </trkpt>
      <trkpt lat="22.857558" lon="110.697040">
        <ele>141.042320</ele>
        <time>2026-08-18T03:09:20.000Z</time>
      </trkpt>
      <trkpt lat="22.857560" lon="110.697066">
        <ele>141.128451</ele>
        <time>2026-08-18T03:09:21.000Z</time>
      </trkpt>
      <trkpt lat="22.857565" lon="110.697093">
        <ele>141.219366</ele>
        <time>2026-08-18T03:09:22.000Z</time>
      </trkpt>
      <trkpt lat="22.857568" lon="110.697121">
        <ele>141.312423</ele>
        <time>2026-08-18T03:09:23.000Z</time>
      </trkpt>
      <trkpt lat="22.857569" lon="110.697146">
        <ele>141.395031</ele>
        <time>2026-08-18T03:09:24.000Z</time>
      </trkpt>
      <trkpt lat="22.857571" lon="110.697171">
        <ele>141.477872</ele>
        <time>2026-08-18T03:09:25.000Z</time>
      </trkpt>
      <trkpt lat="22.857574" lon="110.697197">
        <ele>141.564374</ele>
        <time>2026-08-18T03:09:26.000Z</time>
      </trkpt>
      <trkpt lat="22.857577" lon="110.697223">
        <ele>141.650876</ele>
        <time>2026-08-18T03:09:27.000Z</time>
      </trkpt>
      <trkpt lat="22.857579" lon="110.697250">
        <ele>141.740296</ele>
        <time>2026-08-18T03:09:28.000Z</time>
      </trkpt>
      <trkpt lat="22.857581" lon="110.697277">
        <ele>141.829717</ele>
        <time>2026-08-18T03:09:29.000Z</time>
      </trkpt>
      <trkpt lat="22.857583" lon="110.697305">
        <ele>141.922428</ele>
        <time>2026-08-18T03:09:30.000Z</time>
      </trkpt>
      <trkpt lat="22.857586" lon="110.697330">
        <ele>142.005656</ele>
        <time>2026-08-18T03:09:31.000Z</time>
      </trkpt>
      <trkpt lat="22.857589" lon="110.697354">
        <ele>142.085611</ele>
        <time>2026-08-18T03:09:32.000Z</time>
      </trkpt>
      <trkpt lat="22.857593" lon="110.697381">
        <ele>142.175888</ele>
        <time>2026-08-18T03:09:33.000Z</time>
      </trkpt>
      <trkpt lat="22.857596" lon="110.697408">
        <ele>142.265667</ele>
        <time>2026-08-18T03:09:34.000Z</time>
      </trkpt>
      <trkpt lat="22.857599" lon="110.697436">
        <ele>142.358724</ele>
        <time>2026-08-18T03:09:35.000Z</time>
      </trkpt>
      <trkpt lat="22.857601" lon="110.697462">
        <ele>142.444854</ele>
        <time>2026-08-18T03:09:36.000Z</time>
      </trkpt>
      <trkpt lat="22.857603" lon="110.697489">
        <ele>142.534274</ele>
        <time>2026-08-18T03:09:37.000Z</time>
      </trkpt>
      <trkpt lat="22.857603" lon="110.697514">
        <ele>142.616805</ele>
        <time>2026-08-18T03:09:38.000Z</time>
      </trkpt>
      <trkpt lat="22.857604" lon="110.697539">
        <ele>142.699413</ele>
        <time>2026-08-18T03:09:39.000Z</time>
      </trkpt>
      <trkpt lat="22.857605" lon="110.697563">
        <ele>142.778723</ele>
        <time>2026-08-18T03:09:40.000Z</time>
      </trkpt>
      <trkpt lat="22.857607" lon="110.697588">
        <ele>142.861564</ele>
        <time>2026-08-18T03:09:41.000Z</time>
      </trkpt>
      <trkpt lat="22.857609" lon="110.697612">
        <ele>142.941117</ele>
        <time>2026-08-18T03:09:42.000Z</time>
      </trkpt>
      <trkpt lat="22.857611" lon="110.697638">
        <ele>143.027247</ele>
        <time>2026-08-18T03:09:43.000Z</time>
      </trkpt>
      <trkpt lat="22.857612" lon="110.697665">
        <ele>143.116452</ele>
        <time>2026-08-18T03:09:44.000Z</time>
      </trkpt>
      <trkpt lat="22.857614" lon="110.697693">
        <ele>143.209164</ele>
        <time>2026-08-18T03:09:45.000Z</time>
      </trkpt>
      <trkpt lat="22.857618" lon="110.697720">
        <ele>143.299441</ele>
        <time>2026-08-18T03:09:46.000Z</time>
      </trkpt>
      <trkpt lat="22.857619" lon="110.697746">
        <ele>143.385348</ele>
        <time>2026-08-18T03:09:47.000Z</time>
      </trkpt>
      <trkpt lat="22.857620" lon="110.697770">
        <ele>143.464658</ele>
        <time>2026-08-18T03:09:48.000Z</time>
      </trkpt>
      <trkpt lat="22.857622" lon="110.697794">
        <ele>143.544210</ele>
        <time>2026-08-18T03:09:49.000Z</time>
      </trkpt>
      <trkpt lat="22.857625" lon="110.697818">
        <ele>143.624165</ele>
        <time>2026-08-18T03:09:50.000Z</time>
      </trkpt>
      <trkpt lat="22.857627" lon="110.697841">
        <ele>143.700431</ele>
        <time>2026-08-18T03:09:51.000Z</time>
      </trkpt>
      <trkpt lat="22.857632" lon="110.697866">
        <ele>143.784883</ele>
        <time>2026-08-18T03:09:52.000Z</time>
      </trkpt>
      <trkpt lat="22.857636" lon="110.697893">
        <ele>143.875160</ele>
        <time>2026-08-18T03:09:53.000Z</time>
      </trkpt>
      <trkpt lat="22.857637" lon="110.697921">
        <ele>143.967664</ele>
        <time>2026-08-18T03:09:54.000Z</time>
      </trkpt>
      <trkpt lat="22.857640" lon="110.697949">
        <ele>144.060721</ele>
        <time>2026-08-18T03:09:55.000Z</time>
      </trkpt>
      <trkpt lat="22.857642" lon="110.697976">
        <ele>144.150141</ele>
        <time>2026-08-18T03:09:56.000Z</time>
      </trkpt>
      <trkpt lat="22.857642" lon="110.698002">
        <ele>144.235973</ele>
        <time>2026-08-18T03:09:57.000Z</time>
      </trkpt>
      <trkpt lat="22.857642" lon="110.698030">
        <ele>144.328407</ele>
        <time>2026-08-18T03:09:58.000Z</time>
      </trkpt>
      <trkpt lat="22.857640" lon="110.698055">
        <ele>144.411248</ele>
        <time>2026-08-18T03:09:59.000Z</time>
      </trkpt>
      <trkpt lat="22.857641" lon="110.698078">
        <ele>144.487260</ele>
        <time>2026-08-18T03:10:00.000Z</time>
      </trkpt>
      <trkpt lat="22.857639" lon="110.698102">
        <ele>144.566813</ele>
        <time>2026-08-18T03:10:01.000Z</time>
      </trkpt>
      <trkpt lat="22.857638" lon="110.698127">
        <ele>144.649421</ele>
        <time>2026-08-18T03:10:02.000Z</time>
      </trkpt>
      <trkpt lat="22.857639" lon="110.698149">
        <ele>144.722136</ele>
        <time>2026-08-18T03:10:03.000Z</time>
      </trkpt>
      <trkpt lat="22.857639" lon="110.698170">
        <ele>144.791462</ele>
        <time>2026-08-18T03:10:04.000Z</time>
      </trkpt>
      <trkpt lat="22.857639" lon="110.698186">
        <ele>144.844281</ele>
        <time>2026-08-18T03:10:05.000Z</time>
      </trkpt>
      <trkpt lat="22.857641" lon="110.698203">
        <ele>144.900858</ele>
        <time>2026-08-18T03:10:06.000Z</time>
      </trkpt>
      <trkpt lat="22.857640" lon="110.698221">
        <ele>144.960387</ele>
        <time>2026-08-18T03:10:07.000Z</time>
      </trkpt>
      <trkpt lat="22.857638" lon="110.698243">
        <ele>145.033367</ele>
        <time>2026-08-18T03:10:08.000Z</time>
      </trkpt>
      <trkpt lat="22.857639" lon="110.698266">
        <ele>145.109379</ele>
        <time>2026-08-18T03:10:09.000Z</time>
      </trkpt>
      <trkpt lat="22.857640" lon="110.698292">
        <ele>145.195286</ele>
        <time>2026-08-18T03:10:10.000Z</time>
      </trkpt>
      <trkpt lat="22.857637" lon="110.698317">
        <ele>145.278513</ele>
        <time>2026-08-18T03:10:11.000Z</time>
      </trkpt>
      <trkpt lat="22.857634" lon="110.698341">
        <ele>145.358468</ele>
        <time>2026-08-18T03:10:12.000Z</time>
      </trkpt>
      <trkpt lat="22.857631" lon="110.698364">
        <ele>145.435153</ele>
        <time>2026-08-18T03:10:13.000Z</time>
      </trkpt>
      <trkpt lat="22.857627" lon="110.698384">
        <ele>145.502715</ele>
        <time>2026-08-18T03:10:14.000Z</time>
      </trkpt>
      <trkpt lat="22.857623" lon="110.698405">
        <ele>145.573506</ele>
        <time>2026-08-18T03:10:15.000Z</time>
      </trkpt>
      <trkpt lat="22.857620" lon="110.698429">
        <ele>145.653461</ele>
        <time>2026-08-18T03:10:16.000Z</time>
      </trkpt>
      <trkpt lat="22.857620" lon="110.698453">
        <ele>145.732690</ele>
        <time>2026-08-18T03:10:17.000Z</time>
      </trkpt>
      <trkpt lat="22.857619" lon="110.698478">
        <ele>145.815298</ele>
        <time>2026-08-18T03:10:18.000Z</time>
      </trkpt>
      <trkpt lat="22.857616" lon="110.698505">
        <ele>145.905077</ele>
        <time>2026-08-18T03:10:19.000Z</time>
      </trkpt>
      <trkpt lat="22.857614" lon="110.698533">
        <ele>145.997788</ele>
        <time>2026-08-18T03:10:20.000Z</time>
      </trkpt>
      <trkpt lat="22.857613" lon="110.698558">
        <ele>146.080396</ele>
        <time>2026-08-18T03:10:21.000Z</time>
      </trkpt>
      <trkpt lat="22.857610" lon="110.698581">
        <ele>146.157081</ele>
        <time>2026-08-18T03:10:22.000Z</time>
      </trkpt>
      <trkpt lat="22.857605" lon="110.698604">
        <ele>146.235094</ele>
        <time>2026-08-18T03:10:23.000Z</time>
      </trkpt>
      <trkpt lat="22.857602" lon="110.698625">
        <ele>146.305248</ele>
        <time>2026-08-18T03:10:24.000Z</time>
      </trkpt>
      <trkpt lat="22.857597" lon="110.698651">
        <ele>146.392928</ele>
        <time>2026-08-18T03:10:25.000Z</time>
      </trkpt>
      <trkpt lat="22.857594" lon="110.698675">
        <ele>146.472883</ele>
        <time>2026-08-18T03:10:26.000Z</time>
      </trkpt>
      <trkpt lat="22.857593" lon="110.698705">
        <ele>146.571985</ele>
        <time>2026-08-18T03:10:27.000Z</time>
      </trkpt>
      <trkpt lat="22.857589" lon="110.698735">
        <ele>146.672053</ele>
        <time>2026-08-18T03:10:28.000Z</time>
      </trkpt>
      <trkpt lat="22.857587" lon="110.698762">
        <ele>146.695728</ele>
        <time>2026-08-18T03:10:29.000Z</time>
      </trkpt>
      <trkpt lat="22.857586" lon="110.698791">
        <ele>146.713668</ele>
        <time>2026-08-18T03:10:30.000Z</time>
      </trkpt>
      <trkpt lat="22.857581" lon="110.698818">
        <ele>146.730693</ele>
        <time>2026-08-18T03:10:31.000Z</time>
      </trkpt>
      <trkpt lat="22.857578" lon="110.698845">
        <ele>146.747505</ele>
        <time>2026-08-18T03:10:32.000Z</time>
      </trkpt>
      <trkpt lat="22.857574" lon="110.698872">
        <ele>146.764410</ele>
        <time>2026-08-18T03:10:33.000Z</time>
      </trkpt>
      <trkpt lat="22.857569" lon="110.698901">
        <ele>146.782649</ele>
        <time>2026-08-18T03:10:34.000Z</time>
      </trkpt>
      <trkpt lat="22.857564" lon="110.698933">
        <ele>146.802714</ele>
        <time>2026-08-18T03:10:35.000Z</time>
      </trkpt>
      <trkpt lat="22.857561" lon="110.698964">
        <ele>146.821983</ele>
        <time>2026-08-18T03:10:36.000Z</time>
      </trkpt>
      <trkpt lat="22.857557" lon="110.698994">
        <ele>146.840722</ele>
        <time>2026-08-18T03:10:37.000Z</time>
      </trkpt>
      <trkpt lat="22.857554" lon="110.699025">
        <ele>146.859991</ele>
        <time>2026-08-18T03:10:38.000Z</time>
      </trkpt>
      <trkpt lat="22.857548" lon="110.699056">
        <ele>146.879573</ele>
        <time>2026-08-18T03:10:39.000Z</time>
      </trkpt>
      <trkpt lat="22.857542" lon="110.699088">
        <ele>146.899761</ele>
        <time>2026-08-18T03:10:40.000Z</time>
      </trkpt>
      <trkpt lat="22.857535" lon="110.699119">
        <ele>146.919492</ele>
        <time>2026-08-18T03:10:41.000Z</time>
      </trkpt>
      <trkpt lat="22.857529" lon="110.699149">
        <ele>146.938469</ele>
        <time>2026-08-18T03:10:42.000Z</time>
      </trkpt>
      <trkpt lat="22.857523" lon="110.699185">
        <ele>146.961085</ele>
        <time>2026-08-18T03:10:43.000Z</time>
      </trkpt>
      <trkpt lat="22.857515" lon="110.699219">
        <ele>146.982778</ele>
        <time>2026-08-18T03:10:44.000Z</time>
      </trkpt>
      <trkpt lat="22.857510" lon="110.699251">
        <ele>147.002843</ele>
        <time>2026-08-18T03:10:45.000Z</time>
      </trkpt>
      <trkpt lat="22.857503" lon="110.699284">
        <ele>147.023777</ele>
        <time>2026-08-18T03:10:46.000Z</time>
      </trkpt>
      <trkpt lat="22.857495" lon="110.699319">
        <ele>147.046069</ele>
        <time>2026-08-18T03:10:47.000Z</time>
      </trkpt>
      <trkpt lat="22.857488" lon="110.699354">
        <ele>147.068209</ele>
        <time>2026-08-18T03:10:48.000Z</time>
      </trkpt>
      <trkpt lat="22.857480" lon="110.699389">
        <ele>147.090502</ele>
        <time>2026-08-18T03:10:49.000Z</time>
      </trkpt>
      <trkpt lat="22.857472" lon="110.699424">
        <ele>147.112794</ele>
        <time>2026-08-18T03:10:50.000Z</time>
      </trkpt>
      <trkpt lat="22.857464" lon="110.699459">
        <ele>147.135087</ele>
        <time>2026-08-18T03:10:51.000Z</time>
      </trkpt>
      <trkpt lat="22.857456" lon="110.699494">
        <ele>147.157379</ele>
        <time>2026-08-18T03:10:52.000Z</time>
      </trkpt>
      <trkpt lat="22.857447" lon="110.699530">
        <ele>147.180438</ele>
        <time>2026-08-18T03:10:53.000Z</time>
      </trkpt>
      <trkpt lat="22.857437" lon="110.699565">
        <ele>147.203091</ele>
        <time>2026-08-18T03:10:54.000Z</time>
      </trkpt>
      <trkpt lat="22.857425" lon="110.699600">
        <ele>147.226177</ele>
        <time>2026-08-18T03:10:55.000Z</time>
      </trkpt>
      <trkpt lat="22.857414" lon="110.699635">
        <ele>147.249038</ele>
        <time>2026-08-18T03:10:56.000Z</time>
      </trkpt>
      <trkpt lat="22.857402" lon="110.699670">
        <ele>147.272124</ele>
        <time>2026-08-18T03:10:57.000Z</time>
      </trkpt>
      <trkpt lat="22.857391" lon="110.699705">
        <ele>147.294984</ele>
        <time>2026-08-18T03:10:58.000Z</time>
      </trkpt>
      <trkpt lat="22.857379" lon="110.699743">
        <ele>147.319817</ele>
        <time>2026-08-18T03:10:59.000Z</time>
      </trkpt>
      <trkpt lat="22.857364" lon="110.699781">
        <ele>147.345373</ele>
        <time>2026-08-18T03:11:00.000Z</time>
      </trkpt>
      <trkpt lat="22.857349" lon="110.699819">
        <ele>147.370929</ele>
        <time>2026-08-18T03:11:01.000Z</time>
      </trkpt>
      <trkpt lat="22.857337" lon="110.699856">
        <ele>147.395177</ele>
        <time>2026-08-18T03:11:02.000Z</time>
      </trkpt>
      <trkpt lat="22.857325" lon="110.699893">
        <ele>147.419426</ele>
        <time>2026-08-18T03:11:03.000Z</time>
      </trkpt>
      <trkpt lat="22.857309" lon="110.699931">
        <ele>147.445253</ele>
        <time>2026-08-18T03:11:04.000Z</time>
      </trkpt>
      <trkpt lat="22.857295" lon="110.699970">
        <ele>147.471128</ele>
        <time>2026-08-18T03:11:05.000Z</time>
      </trkpt>
      <trkpt lat="22.857280" lon="110.700011">
        <ele>147.498398</ele>
        <time>2026-08-18T03:11:06.000Z</time>
      </trkpt>
      <trkpt lat="22.857266" lon="110.700051">
        <ele>147.524849</ele>
        <time>2026-08-18T03:11:07.000Z</time>
      </trkpt>
      <trkpt lat="22.857251" lon="110.700093">
        <ele>147.552695</ele>
        <time>2026-08-18T03:11:08.000Z</time>
      </trkpt>
      <trkpt lat="22.857237" lon="110.700132">
        <ele>147.578570</ele>
        <time>2026-08-18T03:11:09.000Z</time>
      </trkpt>
      <trkpt lat="22.857222" lon="110.700171">
        <ele>147.604695</ele>
        <time>2026-08-18T03:11:10.000Z</time>
      </trkpt>
      <trkpt lat="22.857204" lon="110.700212">
        <ele>147.632771</ele>
        <time>2026-08-18T03:11:11.000Z</time>
      </trkpt>
      <trkpt lat="22.857186" lon="110.700251">
        <ele>147.659735</ele>
        <time>2026-08-18T03:11:12.000Z</time>
      </trkpt>
      <trkpt lat="22.857167" lon="110.700290">
        <ele>147.687007</ele>
        <time>2026-08-18T03:11:13.000Z</time>
      </trkpt>
      <trkpt lat="22.857149" lon="110.700330">
        <ele>147.714526</ele>
        <time>2026-08-18T03:11:14.000Z</time>
      </trkpt>
      <trkpt lat="22.857132" lon="110.700370">
        <ele>147.741757</ele>
        <time>2026-08-18T03:11:15.000Z</time>
      </trkpt>
      <trkpt lat="22.857119" lon="110.700411">
        <ele>147.768561</ele>
        <time>2026-08-18T03:11:16.000Z</time>
      </trkpt>
      <trkpt lat="22.857106" lon="110.700452">
        <ele>147.795366</ele>
        <time>2026-08-18T03:11:17.000Z</time>
      </trkpt>
      <trkpt lat="22.857091" lon="110.700492">
        <ele>147.822063</ele>
        <time>2026-08-18T03:11:18.000Z</time>
      </trkpt>
      <trkpt lat="22.857074" lon="110.700530">
        <ele>147.848176</ele>
        <time>2026-08-18T03:11:19.000Z</time>
      </trkpt>
      <trkpt lat="22.857051" lon="110.700565">
        <ele>147.874751</ele>
        <time>2026-08-18T03:11:20.000Z</time>
      </trkpt>
      <trkpt lat="22.857026" lon="110.700601">
        <ele>147.879823</ele>
        <time>2026-08-18T03:11:21.000Z</time>
      </trkpt>
      <trkpt lat="22.857004" lon="110.700639">
        <ele>147.866442</ele>
        <time>2026-08-18T03:11:22.000Z</time>
      </trkpt>
      <trkpt lat="22.856983" lon="110.700679">
        <ele>147.852715</ele>
        <time>2026-08-18T03:11:23.000Z</time>
      </trkpt>
      <trkpt lat="22.856962" lon="110.700718">
        <ele>147.839246</ele>
        <time>2026-08-18T03:11:24.000Z</time>
      </trkpt>
      <trkpt lat="22.856941" lon="110.700758">
        <ele>147.825519</ele>
        <time>2026-08-18T03:11:25.000Z</time>
      </trkpt>
      <trkpt lat="22.856919" lon="110.700799">
        <ele>147.811373</ele>
        <time>2026-08-18T03:11:26.000Z</time>
      </trkpt>
      <trkpt lat="22.856898" lon="110.700841">
        <ele>147.797125</ele>
        <time>2026-08-18T03:11:27.000Z</time>
      </trkpt>
      <trkpt lat="22.856877" lon="110.700881">
        <ele>147.783398</ele>
        <time>2026-08-18T03:11:28.000Z</time>
      </trkpt>
      <trkpt lat="22.856856" lon="110.700923">
        <ele>147.769150</ele>
        <time>2026-08-18T03:11:29.000Z</time>
      </trkpt>
      <trkpt lat="22.856834" lon="110.700965">
        <ele>147.754744</ele>
        <time>2026-08-18T03:11:30.000Z</time>
      </trkpt>
      <trkpt lat="22.856811" lon="110.701006">
        <ele>147.740432</ele>
        <time>2026-08-18T03:11:31.000Z</time>
      </trkpt>
      <trkpt lat="22.856788" lon="110.701048">
        <ele>147.725864</ele>
        <time>2026-08-18T03:11:32.000Z</time>
      </trkpt>
      <trkpt lat="22.856765" lon="110.701090">
        <ele>147.711297</ele>
        <time>2026-08-18T03:11:33.000Z</time>
      </trkpt>
      <trkpt lat="22.856742" lon="110.701134">
        <ele>147.696213</ele>
        <time>2026-08-18T03:11:34.000Z</time>
      </trkpt>
      <trkpt lat="22.856718" lon="110.701177">
        <ele>147.681223</ele>
        <time>2026-08-18T03:11:35.000Z</time>
      </trkpt>
      <trkpt lat="22.856694" lon="110.701219">
        <ele>147.666487</ele>
        <time>2026-08-18T03:11:36.000Z</time>
      </trkpt>
      <trkpt lat="22.856670" lon="110.701262">
        <ele>147.651497</ele>
        <time>2026-08-18T03:11:37.000Z</time>
      </trkpt>
      <trkpt lat="22.856647" lon="110.701305">
        <ele>147.636672</ele>
        <time>2026-08-18T03:11:38.000Z</time>
      </trkpt>
      <trkpt lat="22.856624" lon="110.701348">
        <ele>147.621847</ele>
        <time>2026-08-18T03:11:39.000Z</time>
      </trkpt>
      <trkpt lat="22.856600" lon="110.701392">
        <ele>147.606601</ele>
        <time>2026-08-18T03:11:40.000Z</time>
      </trkpt>
      <trkpt lat="22.856573" lon="110.701433">
        <ele>147.591575</ele>
        <time>2026-08-18T03:11:41.000Z</time>
      </trkpt>
      <trkpt lat="22.856548" lon="110.701477">
        <ele>147.576162</ele>
        <time>2026-08-18T03:11:42.000Z</time>
      </trkpt>
      <trkpt lat="22.856523" lon="110.701520">
        <ele>147.561002</ele>
        <time>2026-08-18T03:11:43.000Z</time>
      </trkpt>
      <trkpt lat="22.856497" lon="110.701563">
        <ele>147.545667</ele>
        <time>2026-08-18T03:11:44.000Z</time>
      </trkpt>
      <trkpt lat="22.856471" lon="110.701608">
        <ele>147.529829</ele>
        <time>2026-08-18T03:11:45.000Z</time>
      </trkpt>
      <trkpt lat="22.856445" lon="110.701654">
        <ele>147.513739</ele>
        <time>2026-08-18T03:11:46.000Z</time>
      </trkpt>
      <trkpt lat="22.856419" lon="110.701700">
        <ele>147.497648</ele>
        <time>2026-08-18T03:11:47.000Z</time>
      </trkpt>
      <trkpt lat="22.856391" lon="110.701745">
        <ele>147.481458</ele>
        <time>2026-08-18T03:11:48.000Z</time>
      </trkpt>
      <trkpt lat="22.856365" lon="110.701793">
        <ele>147.464856</ele>
        <time>2026-08-18T03:11:49.000Z</time>
      </trkpt>
      <trkpt lat="22.856339" lon="110.701843">
        <ele>147.447737</ele>
        <time>2026-08-18T03:11:50.000Z</time>
      </trkpt>
      <trkpt lat="22.856311" lon="110.701892">
        <ele>147.430545</ele>
        <time>2026-08-18T03:11:51.000Z</time>
      </trkpt>
      <trkpt lat="22.856283" lon="110.701941">
        <ele>147.413354</ele>
        <time>2026-08-18T03:11:52.000Z</time>
      </trkpt>
      <trkpt lat="22.856255" lon="110.701990">
        <ele>147.396162</ele>
        <time>2026-08-18T03:11:53.000Z</time>
      </trkpt>
      <trkpt lat="22.856229" lon="110.702041">
        <ele>147.378783</ele>
        <time>2026-08-18T03:11:54.000Z</time>
      </trkpt>
      <trkpt lat="22.856201" lon="110.702092">
        <ele>147.361081</ele>
        <time>2026-08-18T03:11:55.000Z</time>
      </trkpt>
      <trkpt lat="22.856175" lon="110.702139">
        <ele>147.344736</ele>
        <time>2026-08-18T03:11:56.000Z</time>
      </trkpt>
      <trkpt lat="22.856150" lon="110.702188">
        <ele>147.328035</ele>
        <time>2026-08-18T03:11:57.000Z</time>
      </trkpt>
      <trkpt lat="22.856127" lon="110.702237">
        <ele>147.311638</ele>
        <time>2026-08-18T03:11:58.000Z</time>
      </trkpt>
      <trkpt lat="22.856107" lon="110.702286">
        <ele>147.294446</ele>
        <time>2026-08-18T03:11:59.000Z</time>
      </trkpt>
      <trkpt lat="22.856085" lon="110.702333">
        <ele>147.276736</ele>
        <time>2026-08-18T03:12:00.000Z</time>
      </trkpt>
      <trkpt lat="22.856059" lon="110.702377">
        <ele>147.259176</ele>
        <time>2026-08-18T03:12:01.000Z</time>
      </trkpt>
      <trkpt lat="22.856030" lon="110.702419">
        <ele>147.241545</ele>
        <time>2026-08-18T03:12:02.000Z</time>
      </trkpt>
      <trkpt lat="22.856003" lon="110.702464">
        <ele>147.223505</ele>
        <time>2026-08-18T03:12:03.000Z</time>
      </trkpt>
      <trkpt lat="22.855976" lon="110.702508">
        <ele>147.205746</ele>
        <time>2026-08-18T03:12:04.000Z</time>
      </trkpt>
      <trkpt lat="22.855950" lon="110.702552">
        <ele>147.188186</ele>
        <time>2026-08-18T03:12:05.000Z</time>
      </trkpt>
      <trkpt lat="22.855924" lon="110.702596">
        <ele>147.170626</ele>
        <time>2026-08-18T03:12:06.000Z</time>
      </trkpt>
      <trkpt lat="22.855898" lon="110.702641">
        <ele>147.152782</ele>
        <time>2026-08-18T03:12:07.000Z</time>
      </trkpt>
      <trkpt lat="22.855874" lon="110.702685">
        <ele>147.135605</ele>
        <time>2026-08-18T03:12:08.000Z</time>
      </trkpt>
      <trkpt lat="22.855850" lon="110.702730">
        <ele>147.118138</ele>
        <time>2026-08-18T03:12:09.000Z</time>
      </trkpt>
      <trkpt lat="22.855827" lon="110.702774">
        <ele>147.101144</ele>
        <time>2026-08-18T03:12:10.000Z</time>
      </trkpt>
      <trkpt lat="22.855802" lon="110.702817">
        <ele>147.084063</ele>
        <time>2026-08-18T03:12:11.000Z</time>
      </trkpt>
      <trkpt lat="22.855777" lon="110.702859">
        <ele>147.067265</ele>
        <time>2026-08-18T03:12:12.000Z</time>
      </trkpt>
      <trkpt lat="22.855753" lon="110.702902">
        <ele>147.050376</ele>
        <time>2026-08-18T03:12:13.000Z</time>
      </trkpt>
      <trkpt lat="22.855730" lon="110.702945">
        <ele>147.033673</ele>
        <time>2026-08-18T03:12:14.000Z</time>
      </trkpt>
      <trkpt lat="22.855705" lon="110.702988">
        <ele>147.016593</ele>
        <time>2026-08-18T03:12:15.000Z</time>
      </trkpt>
      <trkpt lat="22.855683" lon="110.703031">
        <ele>147.000070</ele>
        <time>2026-08-18T03:12:16.000Z</time>
      </trkpt>
      <trkpt lat="22.855660" lon="110.703074">
        <ele>146.983366</ele>
        <time>2026-08-18T03:12:17.000Z</time>
      </trkpt>
      <trkpt lat="22.855636" lon="110.703116">
        <ele>146.966764</ele>
        <time>2026-08-18T03:12:18.000Z</time>
      </trkpt>
      <trkpt lat="22.855611" lon="110.703158">
        <ele>146.949966</ele>
        <time>2026-08-18T03:12:19.000Z</time>
      </trkpt>
      <trkpt lat="22.855585" lon="110.703201">
        <ele>146.932688</ele>
        <time>2026-08-18T03:12:20.000Z</time>
      </trkpt>
      <trkpt lat="22.855560" lon="110.703244">
        <ele>146.915608</ele>
        <time>2026-08-18T03:12:21.000Z</time>
      </trkpt>
      <trkpt lat="22.855536" lon="110.703286">
        <ele>146.899005</ele>
        <time>2026-08-18T03:12:22.000Z</time>
      </trkpt>
      <trkpt lat="22.855513" lon="110.703328">
        <ele>146.882592</ele>
        <time>2026-08-18T03:12:23.000Z</time>
      </trkpt>
      <trkpt lat="22.855488" lon="110.703370">
        <ele>146.865794</ele>
        <time>2026-08-18T03:12:24.000Z</time>
      </trkpt>
      <trkpt lat="22.855465" lon="110.703412">
        <ele>146.849381</ele>
        <time>2026-08-18T03:12:25.000Z</time>
      </trkpt>
      <trkpt lat="22.855441" lon="110.703455">
        <ele>146.832492</ele>
        <time>2026-08-18T03:12:26.000Z</time>
      </trkpt>
      <trkpt lat="22.855416" lon="110.703498">
        <ele>146.815411</ele>
        <time>2026-08-18T03:12:27.000Z</time>
      </trkpt>
      <trkpt lat="22.855390" lon="110.703541">
        <ele>146.798133</ele>
        <time>2026-08-18T03:12:28.000Z</time>
      </trkpt>
      <trkpt lat="22.855367" lon="110.703584">
        <ele>146.781430</ele>
        <time>2026-08-18T03:12:29.000Z</time>
      </trkpt>
      <trkpt lat="22.855344" lon="110.703627">
        <ele>146.764727</ele>
        <time>2026-08-18T03:12:30.000Z</time>
      </trkpt>
      <trkpt lat="22.855322" lon="110.703670">
        <ele>146.748204</ele>
        <time>2026-08-18T03:12:31.000Z</time>
      </trkpt>
      <trkpt lat="22.855299" lon="110.703713">
        <ele>146.731501</ele>
        <time>2026-08-18T03:12:32.000Z</time>
      </trkpt>
      <trkpt lat="22.855275" lon="110.703754">
        <ele>146.715182</ele>
        <time>2026-08-18T03:12:33.000Z</time>
      </trkpt>
      <trkpt lat="22.855251" lon="110.703796">
        <ele>146.698580</ele>
        <time>2026-08-18T03:12:34.000Z</time>
      </trkpt>
      <trkpt lat="22.855227" lon="110.703839">
        <ele>146.681691</ele>
        <time>2026-08-18T03:12:35.000Z</time>
      </trkpt>
      <trkpt lat="22.855204" lon="110.703882">
        <ele>146.664988</ele>
        <time>2026-08-18T03:12:36.000Z</time>
      </trkpt>
      <trkpt lat="22.855181" lon="110.703924">
        <ele>146.649007</ele>
        <time>2026-08-18T03:12:37.000Z</time>
      </trkpt>
      <trkpt lat="22.855156" lon="110.703967">
        <ele>146.639944</ele>
        <time>2026-08-18T03:12:38.000Z</time>
      </trkpt>
      <trkpt lat="22.855132" lon="110.704010">
        <ele>146.630983</ele>
        <time>2026-08-18T03:12:39.000Z</time>
      </trkpt>
      <trkpt lat="22.855109" lon="110.704053">
        <ele>146.622120</ele>
        <time>2026-08-18T03:12:40.000Z</time>
      </trkpt>
      <trkpt lat="22.855087" lon="110.704094">
        <ele>146.613663</ele>
        <time>2026-08-18T03:12:41.000Z</time>
      </trkpt>
      <trkpt lat="22.855066" lon="110.704135">
        <ele>146.605301</ele>
        <time>2026-08-18T03:12:42.000Z</time>
      </trkpt>
      <trkpt lat="22.855045" lon="110.704178">
        <ele>146.596626</ele>
        <time>2026-08-18T03:12:43.000Z</time>
      </trkpt>
      <trkpt lat="22.855023" lon="110.704220">
        <ele>146.588014</ele>
        <time>2026-08-18T03:12:44.000Z</time>
      </trkpt>
      <trkpt lat="22.855000" lon="110.704261">
        <ele>146.579458</ele>
        <time>2026-08-18T03:12:45.000Z</time>
      </trkpt>
      <trkpt lat="22.854976" lon="110.704302">
        <ele>146.570800</ele>
        <time>2026-08-18T03:12:46.000Z</time>
      </trkpt>
      <trkpt lat="22.854954" lon="110.704343">
        <ele>146.562342</ele>
        <time>2026-08-18T03:12:47.000Z</time>
      </trkpt>
      <trkpt lat="22.854934" lon="110.704384">
        <ele>146.554073</ele>
        <time>2026-08-18T03:12:48.000Z</time>
      </trkpt>
      <trkpt lat="22.854910" lon="110.704426">
        <ele>146.545264</ele>
        <time>2026-08-18T03:12:49.000Z</time>
      </trkpt>
      <trkpt lat="22.854887" lon="110.704469">
        <ele>146.536401</ele>
        <time>2026-08-18T03:12:50.000Z</time>
      </trkpt>
      <trkpt lat="22.854866" lon="110.704511">
        <ele>146.527883</ele>
        <time>2026-08-18T03:12:51.000Z</time>
      </trkpt>
      <trkpt lat="22.854844" lon="110.704555">
        <ele>146.518960</ele>
        <time>2026-08-18T03:12:52.000Z</time>
      </trkpt>
      <trkpt lat="22.854820" lon="110.704595">
        <ele>146.510451</ele>
        <time>2026-08-18T03:12:53.000Z</time>
      </trkpt>
      <trkpt lat="22.854798" lon="110.704636">
        <ele>146.501994</ele>
        <time>2026-08-18T03:12:54.000Z</time>
      </trkpt>
      <trkpt lat="22.854776" lon="110.704680">
        <ele>146.493070</ele>
        <time>2026-08-18T03:12:55.000Z</time>
      </trkpt>
      <trkpt lat="22.854756" lon="110.704725">
        <ele>146.484164</ele>
        <time>2026-08-18T03:12:56.000Z</time>
      </trkpt>
      <trkpt lat="22.854737" lon="110.704769">
        <ele>146.475503</ele>
        <time>2026-08-18T03:12:57.000Z</time>
      </trkpt>
      <trkpt lat="22.854718" lon="110.704815">
        <ele>146.466517</ele>
        <time>2026-08-18T03:12:58.000Z</time>
      </trkpt>
      <trkpt lat="22.854697" lon="110.704860">
        <ele>146.457525</ele>
        <time>2026-08-18T03:12:59.000Z</time>
      </trkpt>
      <trkpt lat="22.854675" lon="110.704904">
        <ele>146.448602</ele>
        <time>2026-08-18T03:13:00.000Z</time>
      </trkpt>
      <trkpt lat="22.854653" lon="110.704946">
        <ele>146.439990</ele>
        <time>2026-08-18T03:13:01.000Z</time>
      </trkpt>
      <trkpt lat="22.854632" lon="110.704990">
        <ele>146.431157</ele>
        <time>2026-08-18T03:13:02.000Z</time>
      </trkpt>
      <trkpt lat="22.854611" lon="110.705035">
        <ele>146.422165</ele>
        <time>2026-08-18T03:13:03.000Z</time>
      </trkpt>
      <trkpt lat="22.854591" lon="110.705080">
        <ele>146.413260</ele>
        <time>2026-08-18T03:13:04.000Z</time>
      </trkpt>
      <trkpt lat="22.854571" lon="110.705126">
        <ele>146.404193</ele>
        <time>2026-08-18T03:13:05.000Z</time>
      </trkpt>
      <trkpt lat="22.854551" lon="110.705173">
        <ele>146.394965</ele>
        <time>2026-08-18T03:13:06.000Z</time>
      </trkpt>
      <trkpt lat="22.854530" lon="110.705220">
        <ele>146.385654</ele>
        <time>2026-08-18T03:13:07.000Z</time>
      </trkpt>
      <trkpt lat="22.854511" lon="110.705267">
        <ele>146.376505</ele>
        <time>2026-08-18T03:13:08.000Z</time>
      </trkpt>
      <trkpt lat="22.854491" lon="110.705314">
        <ele>146.367277</ele>
        <time>2026-08-18T03:13:09.000Z</time>
      </trkpt>
      <trkpt lat="22.854471" lon="110.705361">
        <ele>146.358048</ele>
        <time>2026-08-18T03:13:10.000Z</time>
      </trkpt>
      <trkpt lat="22.854455" lon="110.705410">
        <ele>146.348782</ele>
        <time>2026-08-18T03:13:11.000Z</time>
      </trkpt>
      <trkpt lat="22.854437" lon="110.705459">
        <ele>146.339379</ele>
        <time>2026-08-18T03:13:12.000Z</time>
      </trkpt>
      <trkpt lat="22.854418" lon="110.705507">
        <ele>146.330066</ele>
        <time>2026-08-18T03:13:13.000Z</time>
      </trkpt>
      <trkpt lat="22.854399" lon="110.705553">
        <ele>146.321080</ele>
        <time>2026-08-18T03:13:14.000Z</time>
      </trkpt>
      <trkpt lat="22.854381" lon="110.705600">
        <ele>146.312007</ele>
        <time>2026-08-18T03:13:15.000Z</time>
      </trkpt>
      <trkpt lat="22.854364" lon="110.705646">
        <ele>146.303173</ele>
        <time>2026-08-18T03:13:16.000Z</time>
      </trkpt>
      <trkpt lat="22.854349" lon="110.705693">
        <ele>146.292026</ele>
        <time>2026-08-18T03:13:17.000Z</time>
      </trkpt>
      <trkpt lat="22.854333" lon="110.705741">
        <ele>146.280066</ele>
        <time>2026-08-18T03:13:18.000Z</time>
      </trkpt>
      <trkpt lat="22.854319" lon="110.705789">
        <ele>146.268270</ele>
        <time>2026-08-18T03:13:19.000Z</time>
      </trkpt>
      <trkpt lat="22.854305" lon="110.705837">
        <ele>146.256473</ele>
        <time>2026-08-18T03:13:20.000Z</time>
      </trkpt>
      <trkpt lat="22.854289" lon="110.705884">
        <ele>146.244734</ele>
        <time>2026-08-18T03:13:21.000Z</time>
      </trkpt>
      <trkpt lat="22.854274" lon="110.705931">
        <ele>146.233080</ele>
        <time>2026-08-18T03:13:22.000Z</time>
      </trkpt>
      <trkpt lat="22.854258" lon="110.705978">
        <ele>146.221340</ele>
        <time>2026-08-18T03:13:23.000Z</time>
      </trkpt>
      <trkpt lat="22.854244" lon="110.706028">
        <ele>146.209096</ele>
        <time>2026-08-18T03:13:24.000Z</time>
      </trkpt>
      <trkpt lat="22.854229" lon="110.706075">
        <ele>146.197442</ele>
        <time>2026-08-18T03:13:25.000Z</time>
      </trkpt>
      <trkpt lat="22.854215" lon="110.706123">
        <ele>146.185646</ele>
        <time>2026-08-18T03:13:26.000Z</time>
      </trkpt>
      <trkpt lat="22.854201" lon="110.706171">
        <ele>146.173849</ele>
        <time>2026-08-18T03:13:27.000Z</time>
      </trkpt>
      <trkpt lat="22.854188" lon="110.706220">
        <ele>146.161902</ele>
        <time>2026-08-18T03:13:28.000Z</time>
      </trkpt>
      <trkpt lat="22.854175" lon="110.706269">
        <ele>146.149955</ele>
        <time>2026-08-18T03:13:29.000Z</time>
      </trkpt>
      <trkpt lat="22.854162" lon="110.706319">
        <ele>146.137782</ele>
        <time>2026-08-18T03:13:30.000Z</time>
      </trkpt>
      <trkpt lat="22.854148" lon="110.706368">
        <ele>146.125762</ele>
        <time>2026-08-18T03:13:31.000Z</time>
      </trkpt>
      <trkpt lat="22.854135" lon="110.706417">
        <ele>146.113815</ele>
        <time>2026-08-18T03:13:32.000Z</time>
      </trkpt>
      <trkpt lat="22.854122" lon="110.706467">
        <ele>146.101643</ele>
        <time>2026-08-18T03:13:33.000Z</time>
      </trkpt>
      <trkpt lat="22.854109" lon="110.706516">
        <ele>146.089696</ele>
        <time>2026-08-18T03:13:34.000Z</time>
      </trkpt>
      <trkpt lat="22.854096" lon="110.706566">
        <ele>146.077523</ele>
        <time>2026-08-18T03:13:35.000Z</time>
      </trkpt>
      <trkpt lat="22.854085" lon="110.706617">
        <ele>146.065251</ele>
        <time>2026-08-18T03:13:36.000Z</time>
      </trkpt>
      <trkpt lat="22.854074" lon="110.706669">
        <ele>146.052750</ele>
        <time>2026-08-18T03:13:37.000Z</time>
      </trkpt>
      <trkpt lat="22.854063" lon="110.706720">
        <ele>146.040478</ele>
        <time>2026-08-18T03:13:38.000Z</time>
      </trkpt>
      <trkpt lat="22.854053" lon="110.706771">
        <ele>146.028261</ele>
        <time>2026-08-18T03:13:39.000Z</time>
      </trkpt>
      <trkpt lat="22.854044" lon="110.706823">
        <ele>146.015864</ele>
        <time>2026-08-18T03:13:40.000Z</time>
      </trkpt>
      <trkpt lat="22.854036" lon="110.706875">
        <ele>146.003512</ele>
        <time>2026-08-18T03:13:41.000Z</time>
      </trkpt>
      <trkpt lat="22.854027" lon="110.706926">
        <ele>145.991345</ele>
        <time>2026-08-18T03:13:42.000Z</time>
      </trkpt>
      <trkpt lat="22.854017" lon="110.706977">
        <ele>145.979128</ele>
        <time>2026-08-18T03:13:43.000Z</time>
      </trkpt>
      <trkpt lat="22.854007" lon="110.707030">
        <ele>145.966453</ele>
        <time>2026-08-18T03:13:44.000Z</time>
      </trkpt>
      <trkpt lat="22.853997" lon="110.707083">
        <ele>145.953777</ele>
        <time>2026-08-18T03:13:45.000Z</time>
      </trkpt>
      <trkpt lat="22.853988" lon="110.707135">
        <ele>145.941380</ele>
        <time>2026-08-18T03:13:46.000Z</time>
      </trkpt>
      <trkpt lat="22.853980" lon="110.707188">
        <ele>145.928797</ele>
        <time>2026-08-18T03:13:47.000Z</time>
      </trkpt>
      <trkpt lat="22.853972" lon="110.707240">
        <ele>145.916444</ele>
        <time>2026-08-18T03:13:48.000Z</time>
      </trkpt>
      <trkpt lat="22.853962" lon="110.707292">
        <ele>145.903998</ele>
        <time>2026-08-18T03:13:49.000Z</time>
      </trkpt>
      <trkpt lat="22.853953" lon="110.707346">
        <ele>145.891140</ele>
        <time>2026-08-18T03:13:50.000Z</time>
      </trkpt>
      <trkpt lat="22.853946" lon="110.707399">
        <ele>145.878595</ele>
        <time>2026-08-18T03:13:51.000Z</time>
      </trkpt>
      <trkpt lat="22.853941" lon="110.707452">
        <ele>145.866113</ele>
        <time>2026-08-18T03:13:52.000Z</time>
      </trkpt>
      <trkpt lat="22.853934" lon="110.707506">
        <ele>145.853336</ele>
        <time>2026-08-18T03:13:53.000Z</time>
      </trkpt>
      <trkpt lat="22.853927" lon="110.707560">
        <ele>145.837078</ele>
        <time>2026-08-18T03:13:54.000Z</time>
      </trkpt>
      <trkpt lat="22.853921" lon="110.707614">
        <ele>145.812264</ele>
        <time>2026-08-18T03:13:55.000Z</time>
      </trkpt>
      <trkpt lat="22.853915" lon="110.707667">
        <ele>145.787902</ele>
        <time>2026-08-18T03:13:56.000Z</time>
      </trkpt>
      <trkpt lat="22.853910" lon="110.707721">
        <ele>145.763142</ele>
        <time>2026-08-18T03:13:57.000Z</time>
      </trkpt>
      <trkpt lat="22.853906" lon="110.707773">
        <ele>145.739335</ele>
        <time>2026-08-18T03:13:58.000Z</time>
      </trkpt>
      <trkpt lat="22.853902" lon="110.707827">
        <ele>145.714620</ele>
        <time>2026-08-18T03:13:59.000Z</time>
      </trkpt>
      <trkpt lat="22.853900" lon="110.707880">
        <ele>145.690419</ele>
        <time>2026-08-18T03:14:00.000Z</time>
      </trkpt>
      <trkpt lat="22.853896" lon="110.707935">
        <ele>145.665249</ele>
        <time>2026-08-18T03:14:01.000Z</time>
      </trkpt>
      <trkpt lat="22.853892" lon="110.707989">
        <ele>145.640533</ele>
        <time>2026-08-18T03:14:02.000Z</time>
      </trkpt>
      <trkpt lat="22.853889" lon="110.708043">
        <ele>145.615852</ele>
        <time>2026-08-18T03:14:03.000Z</time>
      </trkpt>
      <trkpt lat="22.853886" lon="110.708097">
        <ele>145.591171</ele>
        <time>2026-08-18T03:14:04.000Z</time>
      </trkpt>
      <trkpt lat="22.853882" lon="110.708152">
        <ele>145.566001</ele>
        <time>2026-08-18T03:14:05.000Z</time>
      </trkpt>
      <trkpt lat="22.853878" lon="110.708205">
        <ele>145.541740</ele>
        <time>2026-08-18T03:14:06.000Z</time>
      </trkpt>
      <trkpt lat="22.853874" lon="110.708259">
        <ele>145.517024</ele>
        <time>2026-08-18T03:14:07.000Z</time>
      </trkpt>
      <trkpt lat="22.853871" lon="110.708314">
        <ele>145.491888</ele>
        <time>2026-08-18T03:14:08.000Z</time>
      </trkpt>
      <trkpt lat="22.853868" lon="110.708369">
        <ele>145.466751</ele>
        <time>2026-08-18T03:14:09.000Z</time>
      </trkpt>
      <trkpt lat="22.853865" lon="110.708424">
        <ele>145.441615</ele>
        <time>2026-08-18T03:14:10.000Z</time>
      </trkpt>
      <trkpt lat="22.853864" lon="110.708480">
        <ele>145.416061</ele>
        <time>2026-08-18T03:14:11.000Z</time>
      </trkpt>
      <trkpt lat="22.853863" lon="110.708535">
        <ele>145.390964</ele>
        <time>2026-08-18T03:14:12.000Z</time>
      </trkpt>
      <trkpt lat="22.853862" lon="110.708591">
        <ele>145.365410</ele>
        <time>2026-08-18T03:14:13.000Z</time>
      </trkpt>
      <trkpt lat="22.853860" lon="110.708645">
        <ele>145.340754</ele>
        <time>2026-08-18T03:14:14.000Z</time>
      </trkpt>
      <trkpt lat="22.853857" lon="110.708698">
        <ele>145.316529</ele>
        <time>2026-08-18T03:14:15.000Z</time>
      </trkpt>
      <trkpt lat="22.853855" lon="110.708752">
        <ele>145.291872</ele>
        <time>2026-08-18T03:14:16.000Z</time>
      </trkpt>
      <trkpt lat="22.853854" lon="110.708806">
        <ele>145.267231</ele>
        <time>2026-08-18T03:14:17.000Z</time>
      </trkpt>
      <trkpt lat="22.853852" lon="110.708860">
        <ele>145.242575</ele>
        <time>2026-08-18T03:14:18.000Z</time>
      </trkpt>
      <trkpt lat="22.853850" lon="110.708914">
        <ele>145.217919</ele>
        <time>2026-08-18T03:14:19.000Z</time>
      </trkpt>
      <trkpt lat="22.853847" lon="110.708967">
        <ele>145.193693</ele>
        <time>2026-08-18T03:14:20.000Z</time>
      </trkpt>
      <trkpt lat="22.853847" lon="110.709021">
        <ele>145.169057</ele>
        <time>2026-08-18T03:14:21.000Z</time>
      </trkpt>
      <trkpt lat="22.853846" lon="110.709075">
        <ele>145.144416</ele>
        <time>2026-08-18T03:14:22.000Z</time>
      </trkpt>
      <trkpt lat="22.853844" lon="110.709128">
        <ele>145.120215</ele>
        <time>2026-08-18T03:14:23.000Z</time>
      </trkpt>
      <trkpt lat="22.853843" lon="110.709183">
        <ele>145.095118</ele>
        <time>2026-08-18T03:14:24.000Z</time>
      </trkpt>
      <trkpt lat="22.853843" lon="110.709237">
        <ele>145.070482</ele>
        <time>2026-08-18T03:14:25.000Z</time>
      </trkpt>
      <trkpt lat="22.853841" lon="110.709292">
        <ele>145.045370</ele>
        <time>2026-08-18T03:14:26.000Z</time>
      </trkpt>
      <trkpt lat="22.853839" lon="110.709346">
        <ele>145.020714</ele>
        <time>2026-08-18T03:14:27.000Z</time>
      </trkpt>
      <trkpt lat="22.853837" lon="110.709401">
        <ele>144.995602</ele>
        <time>2026-08-18T03:14:28.000Z</time>
      </trkpt>
      <trkpt lat="22.853835" lon="110.709457">
        <ele>144.970034</ele>
        <time>2026-08-18T03:14:29.000Z</time>
      </trkpt>
      <trkpt lat="22.853835" lon="110.709511">
        <ele>144.958455</ele>
        <time>2026-08-18T03:14:30.000Z</time>
      </trkpt>
      <trkpt lat="22.853835" lon="110.709566">
        <ele>144.972647</ele>
        <time>2026-08-18T03:14:31.000Z</time>
      </trkpt>
      <trkpt lat="22.853832" lon="110.709622">
        <ele>144.987120</ele>
        <time>2026-08-18T03:14:32.000Z</time>
      </trkpt>
      <trkpt lat="22.853830" lon="110.709678">
        <ele>145.001581</ele>
        <time>2026-08-18T03:14:33.000Z</time>
      </trkpt>
      <trkpt lat="22.853830" lon="110.709733">
        <ele>145.015772</ele>
        <time>2026-08-18T03:14:34.000Z</time>
      </trkpt>
      <trkpt lat="22.853829" lon="110.709788">
        <ele>145.029966</ele>
        <time>2026-08-18T03:14:35.000Z</time>
      </trkpt>
      <trkpt lat="22.853827" lon="110.709842">
        <ele>145.043911</ele>
        <time>2026-08-18T03:14:36.000Z</time>
      </trkpt>
      <trkpt lat="22.853826" lon="110.709895">
        <ele>145.057589</ele>
        <time>2026-08-18T03:14:37.000Z</time>
      </trkpt>
      <trkpt lat="22.853825" lon="110.709947">
        <ele>145.071009</ele>
        <time>2026-08-18T03:14:38.000Z</time>
      </trkpt>
      <trkpt lat="22.853821" lon="110.710001">
        <ele>145.084987</ele>
        <time>2026-08-18T03:14:39.000Z</time>
      </trkpt>
      <trkpt lat="22.853818" lon="110.710052">
        <ele>145.098173</ele>
        <time>2026-08-18T03:14:40.000Z</time>
      </trkpt>
      <trkpt lat="22.853816" lon="110.710104">
        <ele>145.111602</ele>
        <time>2026-08-18T03:14:41.000Z</time>
      </trkpt>
      <trkpt lat="22.853814" lon="110.710154">
        <ele>145.124515</ele>
        <time>2026-08-18T03:14:42.000Z</time>
      </trkpt>
      <trkpt lat="22.853814" lon="110.710205">
        <ele>145.137675</ele>
        <time>2026-08-18T03:14:43.000Z</time>
      </trkpt>
      <trkpt lat="22.853816" lon="110.710256">
        <ele>145.150846</ele>
        <time>2026-08-18T03:14:44.000Z</time>
      </trkpt>
      <trkpt lat="22.853817" lon="110.710307">
        <ele>145.164008</ele>
        <time>2026-08-18T03:14:45.000Z</time>
      </trkpt>
      <trkpt lat="22.853815" lon="110.710359">
        <ele>145.177437</ele>
        <time>2026-08-18T03:14:46.000Z</time>
      </trkpt>
      <trkpt lat="22.853811" lon="110.710410">
        <ele>145.190644</ele>
        <time>2026-08-18T03:14:47.000Z</time>
      </trkpt>
      <trkpt lat="22.853808" lon="110.710460">
        <ele>145.203572</ele>
        <time>2026-08-18T03:14:48.000Z</time>
      </trkpt>
      <trkpt lat="22.853806" lon="110.710510">
        <ele>145.216486</ele>
        <time>2026-08-18T03:14:49.000Z</time>
      </trkpt>
      <trkpt lat="22.853807" lon="110.710561">
        <ele>145.229648</ele>
        <time>2026-08-18T03:14:50.000Z</time>
      </trkpt>
      <trkpt lat="22.853807" lon="110.710612">
        <ele>145.242807</ele>
        <time>2026-08-18T03:14:51.000Z</time>
      </trkpt>
      <trkpt lat="22.853806" lon="110.710663">
        <ele>145.255969</ele>
        <time>2026-08-18T03:14:52.000Z</time>
      </trkpt>
      <trkpt lat="22.853804" lon="110.710713">
        <ele>145.268883</ele>
        <time>2026-08-18T03:14:53.000Z</time>
      </trkpt>
      <trkpt lat="22.853802" lon="110.710764">
        <ele>145.282054</ele>
        <time>2026-08-18T03:14:54.000Z</time>
      </trkpt>
      <trkpt lat="22.853801" lon="110.710814">
        <ele>145.294958</ele>
        <time>2026-08-18T03:14:55.000Z</time>
      </trkpt>
      <trkpt lat="22.853800" lon="110.710865">
        <ele>145.308120</ele>
        <time>2026-08-18T03:14:56.000Z</time>
      </trkpt>
      <trkpt lat="22.853799" lon="110.710915">
        <ele>145.321024</ele>
        <time>2026-08-18T03:14:57.000Z</time>
      </trkpt>
      <trkpt lat="22.853797" lon="110.710967">
        <ele>145.334453</ele>
        <time>2026-08-18T03:14:58.000Z</time>
      </trkpt>
      <trkpt lat="22.853795" lon="110.711019">
        <ele>145.347882</ele>
        <time>2026-08-18T03:14:59.000Z</time>
      </trkpt>
      <trkpt lat="22.853794" lon="110.711069">
        <ele>145.360787</ele>
        <time>2026-08-18T03:15:00.000Z</time>
      </trkpt>
      <trkpt lat="22.853794" lon="110.711120">
        <ele>145.373946</ele>
        <time>2026-08-18T03:15:01.000Z</time>
      </trkpt>
      <trkpt lat="22.853793" lon="110.711169">
        <ele>145.386592</ele>
        <time>2026-08-18T03:15:02.000Z</time>
      </trkpt>
      <trkpt lat="22.853791" lon="110.711218">
        <ele>145.399248</ele>
        <time>2026-08-18T03:15:03.000Z</time>
      </trkpt>
      <trkpt lat="22.853789" lon="110.711268">
        <ele>145.412161</ele>
        <time>2026-08-18T03:15:04.000Z</time>
      </trkpt>
      <trkpt lat="22.853786" lon="110.711318">
        <ele>145.425089</ele>
        <time>2026-08-18T03:15:05.000Z</time>
      </trkpt>
      <trkpt lat="22.853785" lon="110.711368">
        <ele>145.437994</ele>
        <time>2026-08-18T03:15:06.000Z</time>
      </trkpt>
      <trkpt lat="22.853785" lon="110.711417">
        <ele>145.450637</ele>
        <time>2026-08-18T03:15:07.000Z</time>
      </trkpt>
      <trkpt lat="22.853783" lon="110.711466">
        <ele>145.496879</ele>
        <time>2026-08-18T03:15:08.000Z</time>
      </trkpt>
      <trkpt lat="22.853783" lon="110.711513">
        <ele>145.577742</ele>
        <time>2026-08-18T03:15:09.000Z</time>
      </trkpt>
      <trkpt lat="22.853783" lon="110.711561">
        <ele>145.660326</ele>
        <time>2026-08-18T03:15:10.000Z</time>
      </trkpt>
      <trkpt lat="22.853782" lon="110.711608">
        <ele>145.741211</ele>
        <time>2026-08-18T03:15:11.000Z</time>
      </trkpt>
      <trkpt lat="22.853780" lon="110.711655">
        <ele>145.822161</ele>
        <time>2026-08-18T03:15:12.000Z</time>
      </trkpt>
      <trkpt lat="22.853778" lon="110.711702">
        <ele>145.903111</ele>
        <time>2026-08-18T03:15:13.000Z</time>
      </trkpt>
      <trkpt lat="22.853777" lon="110.711747">
        <ele>145.980556</ele>
        <time>2026-08-18T03:15:14.000Z</time>
      </trkpt>
      <trkpt lat="22.853776" lon="110.711793">
        <ele>146.059721</ele>
        <time>2026-08-18T03:15:15.000Z</time>
      </trkpt>
      <trkpt lat="22.853776" lon="110.711838">
        <ele>146.137144</ele>
        <time>2026-08-18T03:15:16.000Z</time>
      </trkpt>
      <trkpt lat="22.853774" lon="110.711883">
        <ele>146.214656</ele>
        <time>2026-08-18T03:15:17.000Z</time>
      </trkpt>
      <trkpt lat="22.853773" lon="110.711927">
        <ele>146.290381</ele>
        <time>2026-08-18T03:15:18.000Z</time>
      </trkpt>
      <trkpt lat="22.853773" lon="110.711970">
        <ele>146.364363</ele>
        <time>2026-08-18T03:15:19.000Z</time>
      </trkpt>
      <trkpt lat="22.853771" lon="110.712013">
        <ele>146.438438</ele>
        <time>2026-08-18T03:15:20.000Z</time>
      </trkpt>
      <trkpt lat="22.853769" lon="110.712054">
        <ele>146.509078</ele>
        <time>2026-08-18T03:15:21.000Z</time>
      </trkpt>
      <trkpt lat="22.853768" lon="110.712096">
        <ele>146.581363</ele>
        <time>2026-08-18T03:15:22.000Z</time>
      </trkpt>
      <trkpt lat="22.853765" lon="110.712137">
        <ele>146.652126</ele>
        <time>2026-08-18T03:15:23.000Z</time>
      </trkpt>
      <trkpt lat="22.853763" lon="110.712178">
        <ele>146.722765</ele>
        <time>2026-08-18T03:15:24.000Z</time>
      </trkpt>
      <trkpt lat="22.853763" lon="110.712219">
        <ele>146.793305</ele>
        <time>2026-08-18T03:15:25.000Z</time>
      </trkpt>
      <trkpt lat="22.853763" lon="110.712262">
        <ele>146.867287</ele>
        <time>2026-08-18T03:15:26.000Z</time>
      </trkpt>
      <trkpt lat="22.853763" lon="110.712302">
        <ele>146.936107</ele>
        <time>2026-08-18T03:15:27.000Z</time>
      </trkpt>
      <trkpt lat="22.853764" lon="110.712343">
        <ele>147.006672</ele>
        <time>2026-08-18T03:15:28.000Z</time>
      </trkpt>
      <trkpt lat="22.853763" lon="110.712383">
        <ele>147.075518</ele>
        <time>2026-08-18T03:15:29.000Z</time>
      </trkpt>
      <trkpt lat="22.853762" lon="110.712424">
        <ele>147.146083</ele>
        <time>2026-08-18T03:15:30.000Z</time>
      </trkpt>
      <trkpt lat="22.853762" lon="110.712464">
        <ele>147.214903</ele>
        <time>2026-08-18T03:15:31.000Z</time>
      </trkpt>
      <trkpt lat="22.853760" lon="110.712504">
        <ele>147.283824</ele>
        <time>2026-08-18T03:15:32.000Z</time>
      </trkpt>
      <trkpt lat="22.853760" lon="110.712543">
        <ele>147.350924</ele>
        <time>2026-08-18T03:15:33.000Z</time>
      </trkpt>
      <trkpt lat="22.853760" lon="110.712581">
        <ele>147.416303</ele>
        <time>2026-08-18T03:15:34.000Z</time>
      </trkpt>
      <trkpt lat="22.853758" lon="110.712616">
        <ele>147.476636</ele>
        <time>2026-08-18T03:15:35.000Z</time>
      </trkpt>
      <trkpt lat="22.853755" lon="110.712652">
        <ele>147.538827</ele>
        <time>2026-08-18T03:15:36.000Z</time>
      </trkpt>
      <trkpt lat="22.853755" lon="110.712689">
        <ele>147.602485</ele>
        <time>2026-08-18T03:15:37.000Z</time>
      </trkpt>
      <trkpt lat="22.853754" lon="110.712724">
        <ele>147.662732</ele>
        <time>2026-08-18T03:15:38.000Z</time>
      </trkpt>
      <trkpt lat="22.853752" lon="110.712761">
        <ele>147.726500</ele>
        <time>2026-08-18T03:15:39.000Z</time>
      </trkpt>
      <trkpt lat="22.853750" lon="110.712799">
        <ele>147.791986</ele>
        <time>2026-08-18T03:15:40.000Z</time>
      </trkpt>
      <trkpt lat="22.853751" lon="110.712838">
        <ele>147.859111</ele>
        <time>2026-08-18T03:15:41.000Z</time>
      </trkpt>
      <trkpt lat="22.853752" lon="110.712877">
        <ele>147.926237</ele>
        <time>2026-08-18T03:15:42.000Z</time>
      </trkpt>
      <trkpt lat="22.853754" lon="110.712914">
        <ele>147.990005</ele>
        <time>2026-08-18T03:15:43.000Z</time>
      </trkpt>
      <trkpt lat="22.853755" lon="110.712953">
        <ele>148.057130</ele>
        <time>2026-08-18T03:15:44.000Z</time>
      </trkpt>
      <trkpt lat="22.853754" lon="110.712990">
        <ele>148.120816</ele>
        <time>2026-08-18T03:15:45.000Z</time>
      </trkpt>
      <trkpt lat="22.853754" lon="110.713026">
        <ele>148.182754</ele>
        <time>2026-08-18T03:15:46.000Z</time>
      </trkpt>
      <trkpt lat="22.853754" lon="110.713062">
        <ele>148.244692</ele>
        <time>2026-08-18T03:15:47.000Z</time>
      </trkpt>
      <trkpt lat="22.853754" lon="110.713097">
        <ele>148.304910</ele>
        <time>2026-08-18T03:15:48.000Z</time>
      </trkpt>
      <trkpt lat="22.853752" lon="110.713137">
        <ele>148.373831</ele>
        <time>2026-08-18T03:15:49.000Z</time>
      </trkpt>
      <trkpt lat="22.853750" lon="110.713176">
        <ele>148.441034</ele>
        <time>2026-08-18T03:15:50.000Z</time>
      </trkpt>
      <trkpt lat="22.853748" lon="110.713212">
        <ele>148.503085</ele>
        <time>2026-08-18T03:15:51.000Z</time>
      </trkpt>
      <trkpt lat="22.853744" lon="110.713249">
        <ele>148.567180</ele>
        <time>2026-08-18T03:15:52.000Z</time>
      </trkpt>
      <trkpt lat="22.853743" lon="110.713287">
        <ele>148.632586</ele>
        <time>2026-08-18T03:15:53.000Z</time>
      </trkpt>
      <trkpt lat="22.853743" lon="110.713325">
        <ele>148.697965</ele>
        <time>2026-08-18T03:15:54.000Z</time>
      </trkpt>
      <trkpt lat="22.853741" lon="110.713362">
        <ele>148.761733</ele>
        <time>2026-08-18T03:15:55.000Z</time>
      </trkpt>
      <trkpt lat="22.853740" lon="110.713400">
        <ele>148.829662</ele>
        <time>2026-08-18T03:15:56.000Z</time>
      </trkpt>
      <trkpt lat="22.853739" lon="110.713438">
        <ele>148.909319</ele>
        <time>2026-08-18T03:15:57.000Z</time>
      </trkpt>
      <trkpt lat="22.853738" lon="110.713475">
        <ele>148.986882</ele>
        <time>2026-08-18T03:15:58.000Z</time>
      </trkpt>
      <trkpt lat="22.853734" lon="110.713510">
        <ele>149.060782</ele>
        <time>2026-08-18T03:15:59.000Z</time>
      </trkpt>
      <trkpt lat="22.853731" lon="110.713545">
        <ele>149.134438</ele>
        <time>2026-08-18T03:16:00.000Z</time>
      </trkpt>
      <trkpt lat="22.853732" lon="110.713582">
        <ele>149.212000</ele>
        <time>2026-08-18T03:16:01.000Z</time>
      </trkpt>
      <trkpt lat="22.853732" lon="110.713618">
        <ele>149.287434</ele>
        <time>2026-08-18T03:16:02.000Z</time>
      </trkpt>
      <trkpt lat="22.853732" lon="110.713656">
        <ele>149.367059</ele>
        <time>2026-08-18T03:16:03.000Z</time>
      </trkpt>
      <trkpt lat="22.853731" lon="110.713692">
        <ele>149.442527</ele>
        <time>2026-08-18T03:16:04.000Z</time>
      </trkpt>
      <trkpt lat="22.853730" lon="110.713727">
        <ele>149.515901</ele>
        <time>2026-08-18T03:16:05.000Z</time>
      </trkpt>
      <trkpt lat="22.853729" lon="110.713764">
        <ele>149.593463</ele>
        <time>2026-08-18T03:16:06.000Z</time>
      </trkpt>
      <trkpt lat="22.853727" lon="110.713799">
        <ele>149.666943</ele>
        <time>2026-08-18T03:16:07.000Z</time>
      </trkpt>
      <trkpt lat="22.853726" lon="110.713835">
        <ele>149.742411</ele>
        <time>2026-08-18T03:16:08.000Z</time>
      </trkpt>
      <trkpt lat="22.853724" lon="110.713871">
        <ele>149.817982</ele>
        <time>2026-08-18T03:16:09.000Z</time>
      </trkpt>
      <trkpt lat="22.853722" lon="110.713910">
        <ele>149.899828</ele>
        <time>2026-08-18T03:16:10.000Z</time>
      </trkpt>
      <trkpt lat="22.853721" lon="110.713946">
        <ele>149.975297</ele>
        <time>2026-08-18T03:16:11.000Z</time>
      </trkpt>
      <trkpt lat="22.853720" lon="110.713982">
        <ele>150.050765</ele>
        <time>2026-08-18T03:16:12.000Z</time>
      </trkpt>
      <trkpt lat="22.853718" lon="110.714018">
        <ele>150.126336</ele>
        <time>2026-08-18T03:16:13.000Z</time>
      </trkpt>
      <trkpt lat="22.853717" lon="110.714056">
        <ele>150.205993</ele>
        <time>2026-08-18T03:16:14.000Z</time>
      </trkpt>
      <trkpt lat="22.853717" lon="110.714093">
        <ele>150.283522</ele>
        <time>2026-08-18T03:16:15.000Z</time>
      </trkpt>
      <trkpt lat="22.853718" lon="110.714132">
        <ele>150.365274</ele>
        <time>2026-08-18T03:16:16.000Z</time>
      </trkpt>
      <trkpt lat="22.853719" lon="110.714172">
        <ele>150.449120</ele>
        <time>2026-08-18T03:16:17.000Z</time>
      </trkpt>
      <trkpt lat="22.853718" lon="110.714210">
        <ele>150.528777</ele>
        <time>2026-08-18T03:16:18.000Z</time>
      </trkpt>
      <trkpt lat="22.853717" lon="110.714248">
        <ele>150.608435</ele>
        <time>2026-08-18T03:16:19.000Z</time>
      </trkpt>
      <trkpt lat="22.853717" lon="110.714285">
        <ele>150.685964</ele>
        <time>2026-08-18T03:16:20.000Z</time>
      </trkpt>
      <trkpt lat="22.853716" lon="110.714323">
        <ele>150.765621</ele>
        <time>2026-08-18T03:16:21.000Z</time>
      </trkpt>
      <trkpt lat="22.853716" lon="110.714362">
        <ele>150.847341</ele>
        <time>2026-08-18T03:16:22.000Z</time>
      </trkpt>
      <trkpt lat="22.853717" lon="110.714400">
        <ele>150.926998</ele>
        <time>2026-08-18T03:16:23.000Z</time>
      </trkpt>
      <trkpt lat="22.853716" lon="110.714439">
        <ele>151.008750</ele>
        <time>2026-08-18T03:16:24.000Z</time>
      </trkpt>
      <trkpt lat="22.853717" lon="110.714477">
        <ele>151.088407</ele>
        <time>2026-08-18T03:16:25.000Z</time>
      </trkpt>
      <trkpt lat="22.853716" lon="110.714514">
        <ele>151.165970</ele>
        <time>2026-08-18T03:16:26.000Z</time>
      </trkpt>
      <trkpt lat="22.853716" lon="110.714552">
        <ele>151.245595</ele>
        <time>2026-08-18T03:16:27.000Z</time>
      </trkpt>
      <trkpt lat="22.853716" lon="110.714589">
        <ele>151.323124</ele>
        <time>2026-08-18T03:16:28.000Z</time>
      </trkpt>
      <trkpt lat="22.853717" lon="110.714626">
        <ele>151.400686</ele>
        <time>2026-08-18T03:16:29.000Z</time>
      </trkpt>
      <trkpt lat="22.853717" lon="110.714662">
        <ele>151.476120</ele>
        <time>2026-08-18T03:16:30.000Z</time>
      </trkpt>
      <trkpt lat="22.853717" lon="110.714699">
        <ele>151.553650</ele>
        <time>2026-08-18T03:16:31.000Z</time>
      </trkpt>
      <trkpt lat="22.853717" lon="110.714736">
        <ele>151.631179</ele>
        <time>2026-08-18T03:16:32.000Z</time>
      </trkpt>
      <trkpt lat="22.853716" lon="110.714772">
        <ele>151.706647</ele>
        <time>2026-08-18T03:16:33.000Z</time>
      </trkpt>
      <trkpt lat="22.853716" lon="110.714810">
        <ele>151.786272</ele>
        <time>2026-08-18T03:16:34.000Z</time>
      </trkpt>
      <trkpt lat="22.853714" lon="110.714847">
        <ele>151.863935</ele>
        <time>2026-08-18T03:16:35.000Z</time>
      </trkpt>
      <trkpt lat="22.853712" lon="110.714884">
        <ele>151.941597</ele>
        <time>2026-08-18T03:16:36.000Z</time>
      </trkpt>
      <trkpt lat="22.853712" lon="110.714921">
        <ele>152.019126</ele>
        <time>2026-08-18T03:16:37.000Z</time>
      </trkpt>
      <trkpt lat="22.853712" lon="110.714958">
        <ele>152.096656</ele>
        <time>2026-08-18T03:16:38.000Z</time>
      </trkpt>
      <trkpt lat="22.853713" lon="110.714997">
        <ele>152.178407</ele>
        <time>2026-08-18T03:16:39.000Z</time>
      </trkpt>
      <trkpt lat="22.853713" lon="110.715034">
        <ele>152.255937</ele>
        <time>2026-08-18T03:16:40.000Z</time>
      </trkpt>
      <trkpt lat="22.853712" lon="110.715071">
        <ele>152.333499</ele>
        <time>2026-08-18T03:16:41.000Z</time>
      </trkpt>
      <trkpt lat="22.853711" lon="110.715108">
        <ele>152.411062</ele>
        <time>2026-08-18T03:16:42.000Z</time>
      </trkpt>
      <trkpt lat="22.853711" lon="110.715146">
        <ele>152.490687</ele>
        <time>2026-08-18T03:16:43.000Z</time>
      </trkpt>
      <trkpt lat="22.853709" lon="110.715185">
        <ele>152.572533</ele>
        <time>2026-08-18T03:16:44.000Z</time>
      </trkpt>
      <trkpt lat="22.853709" lon="110.715224">
        <ele>152.654253</ele>
        <time>2026-08-18T03:16:45.000Z</time>
      </trkpt>
      <trkpt lat="22.853709" lon="110.715262">
        <ele>152.733878</ele>
        <time>2026-08-18T03:16:46.000Z</time>
      </trkpt>
      <trkpt lat="22.853708" lon="110.715299">
        <ele>152.811441</ele>
        <time>2026-08-18T03:16:47.000Z</time>
      </trkpt>
      <trkpt lat="22.853708" lon="110.715338">
        <ele>152.893161</ele>
        <time>2026-08-18T03:16:48.000Z</time>
      </trkpt>
      <trkpt lat="22.853709" lon="110.715379">
        <ele>152.954972</ele>
        <time>2026-08-18T03:16:49.000Z</time>
      </trkpt>
      <trkpt lat="22.853710" lon="110.715418">
        <ele>153.009934</ele>
        <time>2026-08-18T03:16:50.000Z</time>
      </trkpt>
      <trkpt lat="22.853710" lon="110.715455">
        <ele>153.062056</ele>
        <time>2026-08-18T03:16:51.000Z</time>
      </trkpt>
      <trkpt lat="22.853709" lon="110.715493">
        <ele>153.115610</ele>
        <time>2026-08-18T03:16:52.000Z</time>
      </trkpt>
      <trkpt lat="22.853708" lon="110.715530">
        <ele>153.167755</ele>
        <time>2026-08-18T03:16:53.000Z</time>
      </trkpt>
      <trkpt lat="22.853707" lon="110.715567">
        <ele>153.219900</ele>
        <time>2026-08-18T03:16:54.000Z</time>
      </trkpt>
      <trkpt lat="22.853707" lon="110.715604">
        <ele>153.272023</ele>
        <time>2026-08-18T03:16:55.000Z</time>
      </trkpt>
      <trkpt lat="22.853707" lon="110.715641">
        <ele>153.324145</ele>
        <time>2026-08-18T03:16:56.000Z</time>
      </trkpt>
      <trkpt lat="22.853709" lon="110.715680">
        <ele>153.379170</ele>
        <time>2026-08-18T03:16:57.000Z</time>
      </trkpt>
      <trkpt lat="22.853709" lon="110.715716">
        <ele>153.429884</ele>
        <time>2026-08-18T03:16:58.000Z</time>
      </trkpt>
      <trkpt lat="22.853709" lon="110.715753">
        <ele>153.482007</ele>
        <time>2026-08-18T03:16:59.000Z</time>
      </trkpt>
      <trkpt lat="22.853711" lon="110.715791">
        <ele>153.535626</ele>
        <time>2026-08-18T03:17:00.000Z</time>
      </trkpt>
      <trkpt lat="22.853713" lon="110.715829">
        <ele>153.589244</ele>
        <time>2026-08-18T03:17:01.000Z</time>
      </trkpt>
      <trkpt lat="22.853714" lon="110.715867">
        <ele>153.642798</ele>
        <time>2026-08-18T03:17:02.000Z</time>
      </trkpt>
      <trkpt lat="22.853715" lon="110.715905">
        <ele>153.696351</ele>
        <time>2026-08-18T03:17:03.000Z</time>
      </trkpt>
      <trkpt lat="22.853716" lon="110.715942">
        <ele>153.748496</ele>
        <time>2026-08-18T03:17:04.000Z</time>
      </trkpt>
      <trkpt lat="22.853718" lon="110.715979">
        <ele>153.800708</ele>
        <time>2026-08-18T03:17:05.000Z</time>
      </trkpt>
      <trkpt lat="22.853720" lon="110.716017">
        <ele>153.854327</ele>
        <time>2026-08-18T03:17:06.000Z</time>
      </trkpt>
      <trkpt lat="22.853721" lon="110.716055">
        <ele>153.907880</ele>
        <time>2026-08-18T03:17:07.000Z</time>
      </trkpt>
      <trkpt lat="22.853722" lon="110.716092">
        <ele>153.960025</ele>
        <time>2026-08-18T03:17:08.000Z</time>
      </trkpt>
      <trkpt lat="22.853723" lon="110.716132">
        <ele>154.016395</ele>
        <time>2026-08-18T03:17:09.000Z</time>
      </trkpt>
      <trkpt lat="22.853726" lon="110.716170">
        <ele>154.070122</ele>
        <time>2026-08-18T03:17:10.000Z</time>
      </trkpt>
      <trkpt lat="22.853727" lon="110.716207">
        <ele>154.122267</ele>
        <time>2026-08-18T03:17:11.000Z</time>
      </trkpt>
      <trkpt lat="22.853729" lon="110.716243">
        <ele>154.173073</ele>
        <time>2026-08-18T03:17:12.000Z</time>
      </trkpt>
      <trkpt lat="22.853731" lon="110.716278">
        <ele>154.222473</ele>
        <time>2026-08-18T03:17:13.000Z</time>
      </trkpt>
      <trkpt lat="22.853733" lon="110.716313">
        <ele>154.271873</ele>
        <time>2026-08-18T03:17:14.000Z</time>
      </trkpt>
      <trkpt lat="22.853732" lon="110.716349">
        <ele>154.322610</ele>
        <time>2026-08-18T03:17:15.000Z</time>
      </trkpt>
      <trkpt lat="22.853733" lon="110.716384">
        <ele>154.371939</ele>
        <time>2026-08-18T03:17:16.000Z</time>
      </trkpt>
      <trkpt lat="22.853734" lon="110.716420">
        <ele>154.422676</ele>
        <time>2026-08-18T03:17:17.000Z</time>
      </trkpt>
      <trkpt lat="22.853734" lon="110.716454">
        <ele>154.470573</ele>
        <time>2026-08-18T03:17:18.000Z</time>
      </trkpt>
      <trkpt lat="22.853735" lon="110.716488">
        <ele>154.518494</ele>
        <time>2026-08-18T03:17:19.000Z</time>
      </trkpt>
      <trkpt lat="22.853736" lon="110.716520">
        <ele>154.563599</ele>
        <time>2026-08-18T03:17:20.000Z</time>
      </trkpt>
      <trkpt lat="22.853738" lon="110.716553">
        <ele>154.610187</ele>
        <time>2026-08-18T03:17:21.000Z</time>
      </trkpt>
      <trkpt lat="22.853739" lon="110.716585">
        <ele>154.655292</ele>
        <time>2026-08-18T03:17:22.000Z</time>
      </trkpt>
      <trkpt lat="22.853740" lon="110.716619">
        <ele>154.703213</ele>
        <time>2026-08-18T03:17:23.000Z</time>
      </trkpt>
      <trkpt lat="22.853740" lon="110.716653">
        <ele>154.751109</ele>
        <time>2026-08-18T03:17:24.000Z</time>
      </trkpt>
      <trkpt lat="22.853740" lon="110.716686">
        <ele>154.797597</ele>
        <time>2026-08-18T03:17:25.000Z</time>
      </trkpt>
      <trkpt lat="22.853740" lon="110.716719">
        <ele>154.844085</ele>
        <time>2026-08-18T03:17:26.000Z</time>
      </trkpt>
      <trkpt lat="22.853739" lon="110.716753">
        <ele>154.892006</ele>
        <time>2026-08-18T03:17:27.000Z</time>
      </trkpt>
      <trkpt lat="22.853741" lon="110.716788">
        <ele>154.941406</ele>
        <time>2026-08-18T03:17:28.000Z</time>
      </trkpt>
      <trkpt lat="22.853742" lon="110.716822">
        <ele>154.989327</ele>
        <time>2026-08-18T03:17:29.000Z</time>
      </trkpt>
      <trkpt lat="22.853744" lon="110.716857">
        <ele>155.038726</ele>
        <time>2026-08-18T03:17:30.000Z</time>
      </trkpt>
      <trkpt lat="22.853747" lon="110.716893">
        <ele>155.089647</ele>
        <time>2026-08-18T03:17:31.000Z</time>
      </trkpt>
      <trkpt lat="22.853749" lon="110.716927">
        <ele>155.137641</ele>
        <time>2026-08-18T03:17:32.000Z</time>
      </trkpt>
      <trkpt lat="22.853752" lon="110.716961">
        <ele>155.185757</ele>
        <time>2026-08-18T03:17:33.000Z</time>
      </trkpt>
      <trkpt lat="22.853753" lon="110.716997">
        <ele>155.236494</ele>
        <time>2026-08-18T03:17:34.000Z</time>
      </trkpt>
      <trkpt lat="22.853756" lon="110.717033">
        <ele>155.287415</ele>
        <time>2026-08-18T03:17:35.000Z</time>
      </trkpt>
      <trkpt lat="22.853759" lon="110.717070">
        <ele>155.339739</ele>
        <time>2026-08-18T03:17:36.000Z</time>
      </trkpt>
      <trkpt lat="22.853761" lon="110.717108">
        <ele>155.393357</ele>
        <time>2026-08-18T03:17:37.000Z</time>
      </trkpt>
      <trkpt lat="22.853760" lon="110.717144">
        <ele>155.444094</ele>
        <time>2026-08-18T03:17:38.000Z</time>
      </trkpt>
      <trkpt lat="22.853760" lon="110.717181">
        <ele>155.496217</ele>
        <time>2026-08-18T03:17:39.000Z</time>
      </trkpt>
      <trkpt lat="22.853761" lon="110.717219">
        <ele>155.549770</ele>
        <time>2026-08-18T03:17:40.000Z</time>
      </trkpt>
      <trkpt lat="22.853762" lon="110.717256">
        <ele>155.601915</ele>
        <time>2026-08-18T03:17:41.000Z</time>
      </trkpt>
      <trkpt lat="22.853762" lon="110.717293">
        <ele>155.654038</ele>
        <time>2026-08-18T03:17:42.000Z</time>
      </trkpt>
      <trkpt lat="22.853762" lon="110.717329">
        <ele>155.701650</ele>
        <time>2026-08-18T03:17:43.000Z</time>
      </trkpt>
      <trkpt lat="22.853763" lon="110.717366">
        <ele>155.750538</ele>
        <time>2026-08-18T03:17:44.000Z</time>
      </trkpt>
      <trkpt lat="22.853764" lon="110.717402">
        <ele>155.798105</ele>
        <time>2026-08-18T03:17:45.000Z</time>
      </trkpt>
      <trkpt lat="22.853766" lon="110.717439">
        <ele>155.847055</ele>
        <time>2026-08-18T03:17:46.000Z</time>
      </trkpt>
      <trkpt lat="22.853767" lon="110.717477">
        <ele>155.897262</ele>
        <time>2026-08-18T03:17:47.000Z</time>
      </trkpt>
      <trkpt lat="22.853767" lon="110.717515">
        <ele>155.947449</ele>
        <time>2026-08-18T03:17:48.000Z</time>
      </trkpt>
      <trkpt lat="22.853769" lon="110.717552">
        <ele>155.996400</ele>
        <time>2026-08-18T03:17:49.000Z</time>
      </trkpt>
      <trkpt lat="22.853771" lon="110.717590">
        <ele>156.046668</ele>
        <time>2026-08-18T03:17:50.000Z</time>
      </trkpt>
      <trkpt lat="22.853771" lon="110.717628">
        <ele>156.096855</ele>
        <time>2026-08-18T03:17:51.000Z</time>
      </trkpt>
      <trkpt lat="22.853771" lon="110.717666">
        <ele>156.147042</ele>
        <time>2026-08-18T03:17:52.000Z</time>
      </trkpt>
      <trkpt lat="22.853773" lon="110.717705">
        <ele>156.198630</ele>
        <time>2026-08-18T03:17:53.000Z</time>
      </trkpt>
      <trkpt lat="22.853773" lon="110.717743">
        <ele>156.248816</ele>
        <time>2026-08-18T03:17:54.000Z</time>
      </trkpt>
      <trkpt lat="22.853773" lon="110.717780">
        <ele>156.297683</ele>
        <time>2026-08-18T03:17:55.000Z</time>
      </trkpt>
      <trkpt lat="22.853773" lon="110.717818">
        <ele>156.347870</ele>
        <time>2026-08-18T03:17:56.000Z</time>
      </trkpt>
      <trkpt lat="22.853776" lon="110.717856">
        <ele>156.398240</ele>
        <time>2026-08-18T03:17:57.000Z</time>
      </trkpt>
      <trkpt lat="22.853777" lon="110.717893">
        <ele>156.447128</ele>
        <time>2026-08-18T03:17:58.000Z</time>
      </trkpt>
      <trkpt lat="22.853778" lon="110.717931">
        <ele>156.497335</ele>
        <time>2026-08-18T03:17:59.000Z</time>
      </trkpt>
      <trkpt lat="22.853779" lon="110.717969">
        <ele>156.547543</ele>
        <time>2026-08-18T03:18:00.000Z</time>
      </trkpt>
      <trkpt lat="22.853780" lon="110.718008">
        <ele>156.599070</ele>
        <time>2026-08-18T03:18:01.000Z</time>
      </trkpt>
      <trkpt lat="22.853781" lon="110.718048">
        <ele>156.651918</ele>
        <time>2026-08-18T03:18:02.000Z</time>
      </trkpt>
      <trkpt lat="22.853782" lon="110.718088">
        <ele>156.704766</ele>
        <time>2026-08-18T03:18:03.000Z</time>
      </trkpt>
      <trkpt lat="22.853784" lon="110.718129">
        <ele>156.758991</ele>
        <time>2026-08-18T03:18:04.000Z</time>
      </trkpt>
      <trkpt lat="22.853785" lon="110.718170">
        <ele>156.813159</ele>
        <time>2026-08-18T03:18:05.000Z</time>
      </trkpt>
      <trkpt lat="22.853787" lon="110.718211">
        <ele>156.867384</ele>
        <time>2026-08-18T03:18:06.000Z</time>
      </trkpt>
      <trkpt lat="22.853789" lon="110.718251">
        <ele>156.920290</ele>
        <time>2026-08-18T03:18:07.000Z</time>
      </trkpt>
      <trkpt lat="22.853790" lon="110.718291">
        <ele>156.973137</ele>
        <time>2026-08-18T03:18:08.000Z</time>
      </trkpt>
      <trkpt lat="22.853791" lon="110.718332">
        <ele>157.027305</ele>
        <time>2026-08-18T03:18:09.000Z</time>
      </trkpt>
      <trkpt lat="22.853793" lon="110.718372">
        <ele>157.080212</ele>
        <time>2026-08-18T03:18:10.000Z</time>
      </trkpt>
      <trkpt lat="22.853794" lon="110.718412">
        <ele>157.133059</ele>
        <time>2026-08-18T03:18:11.000Z</time>
      </trkpt>
      <trkpt lat="22.853796" lon="110.718451">
        <ele>157.184647</ele>
        <time>2026-08-18T03:18:12.000Z</time>
      </trkpt>
      <trkpt lat="22.853798" lon="110.718491">
        <ele>157.237553</ele>
        <time>2026-08-18T03:18:13.000Z</time>
      </trkpt>
      <trkpt lat="22.853799" lon="110.718529">
        <ele>157.287760</ele>
        <time>2026-08-18T03:18:14.000Z</time>
      </trkpt>
      <trkpt lat="22.853800" lon="110.718567">
        <ele>157.337968</ele>
        <time>2026-08-18T03:18:15.000Z</time>
      </trkpt>
      <trkpt lat="22.853803" lon="110.718606">
        <ele>157.389654</ele>
        <time>2026-08-18T03:18:16.000Z</time>
      </trkpt>
      <trkpt lat="22.853805" lon="110.718644">
        <ele>157.439923</ele>
        <time>2026-08-18T03:18:17.000Z</time>
      </trkpt>
      <trkpt lat="22.853807" lon="110.718681">
        <ele>157.488873</ele>
        <time>2026-08-18T03:18:18.000Z</time>
      </trkpt>
      <trkpt lat="22.853809" lon="110.718719">
        <ele>157.539142</ele>
        <time>2026-08-18T03:18:19.000Z</time>
      </trkpt>
      <trkpt lat="22.853810" lon="110.718757">
        <ele>157.589349</ele>
        <time>2026-08-18T03:18:20.000Z</time>
      </trkpt>
      <trkpt lat="22.853809" lon="110.718794">
        <ele>157.638237</ele>
        <time>2026-08-18T03:18:21.000Z</time>
      </trkpt>
      <trkpt lat="22.853810" lon="110.718831">
        <ele>157.687124</ele>
        <time>2026-08-18T03:18:22.000Z</time>
      </trkpt>
      <trkpt lat="22.853810" lon="110.718868">
        <ele>157.735990</ele>
        <time>2026-08-18T03:18:23.000Z</time>
      </trkpt>
      <trkpt lat="22.853811" lon="110.718906">
        <ele>157.786198</ele>
        <time>2026-08-18T03:18:24.000Z</time>
      </trkpt>
      <trkpt lat="22.853811" lon="110.718945">
        <ele>157.837705</ele>
        <time>2026-08-18T03:18:25.000Z</time>
      </trkpt>
      <trkpt lat="22.853811" lon="110.718984">
        <ele>157.889213</ele>
        <time>2026-08-18T03:18:26.000Z</time>
      </trkpt>
      <trkpt lat="22.853812" lon="110.719023">
        <ele>157.940740</ele>
        <time>2026-08-18T03:18:27.000Z</time>
      </trkpt>
      <trkpt lat="22.853812" lon="110.719063">
        <ele>157.993569</ele>
        <time>2026-08-18T03:18:28.000Z</time>
      </trkpt>
      <trkpt lat="22.853813" lon="110.719102">
        <ele>158.045096</ele>
        <time>2026-08-18T03:18:29.000Z</time>
      </trkpt>
      <trkpt lat="22.853815" lon="110.719141">
        <ele>158.096684</ele>
        <time>2026-08-18T03:18:30.000Z</time>
      </trkpt>
      <trkpt lat="22.853817" lon="110.719183">
        <ele>158.152227</ele>
        <time>2026-08-18T03:18:31.000Z</time>
      </trkpt>
      <trkpt lat="22.853818" lon="110.719224">
        <ele>158.206395</ele>
        <time>2026-08-18T03:18:32.000Z</time>
      </trkpt>
      <trkpt lat="22.853817" lon="110.719265">
        <ele>158.232396</ele>
        <time>2026-08-18T03:18:33.000Z</time>
      </trkpt>
      <trkpt lat="22.853815" lon="110.719305">
        <ele>158.231328</ele>
        <time>2026-08-18T03:18:34.000Z</time>
      </trkpt>
      <trkpt lat="22.853814" lon="110.719346">
        <ele>158.230236</ele>
        <time>2026-08-18T03:18:35.000Z</time>
      </trkpt>
      <trkpt lat="22.853816" lon="110.719387">
        <ele>158.229142</ele>
        <time>2026-08-18T03:18:36.000Z</time>
      </trkpt>
      <trkpt lat="22.853817" lon="110.719429">
        <ele>158.228023</ele>
        <time>2026-08-18T03:18:37.000Z</time>
      </trkpt>
      <trkpt lat="22.853817" lon="110.719472">
        <ele>158.226877</ele>
        <time>2026-08-18T03:18:38.000Z</time>
      </trkpt>
      <trkpt lat="22.853818" lon="110.719515">
        <ele>158.225731</ele>
        <time>2026-08-18T03:18:39.000Z</time>
      </trkpt>
      <trkpt lat="22.853818" lon="110.719558">
        <ele>158.224586</ele>
        <time>2026-08-18T03:18:40.000Z</time>
      </trkpt>
      <trkpt lat="22.853819" lon="110.719600">
        <ele>158.223467</ele>
        <time>2026-08-18T03:18:41.000Z</time>
      </trkpt>
      <trkpt lat="22.853820" lon="110.719643">
        <ele>158.222321</ele>
        <time>2026-08-18T03:18:42.000Z</time>
      </trkpt>
      <trkpt lat="22.853818" lon="110.719684">
        <ele>158.221227</ele>
        <time>2026-08-18T03:18:43.000Z</time>
      </trkpt>
      <trkpt lat="22.853819" lon="110.719727">
        <ele>158.220081</ele>
        <time>2026-08-18T03:18:44.000Z</time>
      </trkpt>
      <trkpt lat="22.853818" lon="110.719768">
        <ele>158.218989</ele>
        <time>2026-08-18T03:18:45.000Z</time>
      </trkpt>
      <trkpt lat="22.853817" lon="110.719810">
        <ele>158.217869</ele>
        <time>2026-08-18T03:18:46.000Z</time>
      </trkpt>
      <trkpt lat="22.853815" lon="110.719852">
        <ele>158.216749</ele>
        <time>2026-08-18T03:18:47.000Z</time>
      </trkpt>
      <trkpt lat="22.853813" lon="110.719895">
        <ele>158.215602</ele>
        <time>2026-08-18T03:18:48.000Z</time>
      </trkpt>
      <trkpt lat="22.853811" lon="110.719939">
        <ele>158.214429</ele>
        <time>2026-08-18T03:18:49.000Z</time>
      </trkpt>
      <trkpt lat="22.853808" lon="110.719983">
        <ele>158.213253</ele>
        <time>2026-08-18T03:18:50.000Z</time>
      </trkpt>
      <trkpt lat="22.853805" lon="110.720029">
        <ele>158.212025</ele>
        <time>2026-08-18T03:18:51.000Z</time>
      </trkpt>
      <trkpt lat="22.853802" lon="110.720076">
        <ele>158.210770</ele>
        <time>2026-08-18T03:18:52.000Z</time>
      </trkpt>
      <trkpt lat="22.853799" lon="110.720124">
        <ele>158.209488</ele>
        <time>2026-08-18T03:18:53.000Z</time>
      </trkpt>
      <trkpt lat="22.853798" lon="110.720171">
        <ele>158.208236</ele>
        <time>2026-08-18T03:18:54.000Z</time>
      </trkpt>
      <trkpt lat="22.853796" lon="110.720217">
        <ele>158.207009</ele>
        <time>2026-08-18T03:18:55.000Z</time>
      </trkpt>
      <trkpt lat="22.853794" lon="110.720264">
        <ele>158.205755</ele>
        <time>2026-08-18T03:18:56.000Z</time>
      </trkpt>
      <trkpt lat="22.853790" lon="110.720311">
        <ele>158.204498</ele>
        <time>2026-08-18T03:18:57.000Z</time>
      </trkpt>
      <trkpt lat="22.853787" lon="110.720358">
        <ele>158.203243</ele>
        <time>2026-08-18T03:18:58.000Z</time>
      </trkpt>
      <trkpt lat="22.853782" lon="110.720406">
        <ele>158.201956</ele>
        <time>2026-08-18T03:18:59.000Z</time>
      </trkpt>
      <trkpt lat="22.853776" lon="110.720455">
        <ele>158.200639</ele>
        <time>2026-08-18T03:19:00.000Z</time>
      </trkpt>
      <trkpt lat="22.853768" lon="110.720506">
        <ele>158.199261</ele>
        <time>2026-08-18T03:19:01.000Z</time>
      </trkpt>
      <trkpt lat="22.853762" lon="110.720557">
        <ele>158.197891</ele>
        <time>2026-08-18T03:19:02.000Z</time>
      </trkpt>
      <trkpt lat="22.853756" lon="110.720608">
        <ele>158.196522</ele>
        <time>2026-08-18T03:19:03.000Z</time>
      </trkpt>
      <trkpt lat="22.853750" lon="110.720658">
        <ele>158.195179</ele>
        <time>2026-08-18T03:19:04.000Z</time>
      </trkpt>
      <trkpt lat="22.853742" lon="110.720708">
        <ele>158.193827</ele>
        <time>2026-08-18T03:19:05.000Z</time>
      </trkpt>
      <trkpt lat="22.853732" lon="110.720758">
        <ele>158.192464</ele>
        <time>2026-08-18T03:19:06.000Z</time>
      </trkpt>
      <trkpt lat="22.853723" lon="110.720809">
        <ele>158.191080</ele>
        <time>2026-08-18T03:19:07.000Z</time>
      </trkpt>
      <trkpt lat="22.853712" lon="110.720861">
        <ele>158.189659</ele>
        <time>2026-08-18T03:19:08.000Z</time>
      </trkpt>
      <trkpt lat="22.853700" lon="110.720913">
        <ele>158.188231</ele>
        <time>2026-08-18T03:19:09.000Z</time>
      </trkpt>
      <trkpt lat="22.853689" lon="110.720965">
        <ele>158.186810</ele>
        <time>2026-08-18T03:19:10.000Z</time>
      </trkpt>
      <trkpt lat="22.853678" lon="110.721018">
        <ele>158.185362</ele>
        <time>2026-08-18T03:19:11.000Z</time>
      </trkpt>
      <trkpt lat="22.853668" lon="110.721072">
        <ele>158.183895</ele>
        <time>2026-08-18T03:19:12.000Z</time>
      </trkpt>
      <trkpt lat="22.853659" lon="110.721123">
        <ele>158.182512</ele>
        <time>2026-08-18T03:19:13.000Z</time>
      </trkpt>
      <trkpt lat="22.853648" lon="110.721176">
        <ele>158.181065</ele>
        <time>2026-08-18T03:19:14.000Z</time>
      </trkpt>
      <trkpt lat="22.853638" lon="110.721229">
        <ele>158.084982</ele>
        <time>2026-08-18T03:19:15.000Z</time>
      </trkpt>
      <trkpt lat="22.853625" lon="110.721280">
        <ele>157.983424</ele>
        <time>2026-08-18T03:19:16.000Z</time>
      </trkpt>
      <trkpt lat="22.853610" lon="110.721332">
        <ele>157.878847</ele>
        <time>2026-08-18T03:19:17.000Z</time>
      </trkpt>
      <trkpt lat="22.853594" lon="110.721384">
        <ele>157.773629</ele>
        <time>2026-08-18T03:19:18.000Z</time>
      </trkpt>
      <trkpt lat="22.853577" lon="110.721437">
        <ele>157.665922</ele>
        <time>2026-08-18T03:19:19.000Z</time>
      </trkpt>
      <trkpt lat="22.853561" lon="110.721490">
        <ele>157.558881</ele>
        <time>2026-08-18T03:19:20.000Z</time>
      </trkpt>
      <trkpt lat="22.853546" lon="110.721543">
        <ele>157.452471</ele>
        <time>2026-08-18T03:19:21.000Z</time>
      </trkpt>
      <trkpt lat="22.853529" lon="110.721596">
        <ele>157.344764</ele>
        <time>2026-08-18T03:19:22.000Z</time>
      </trkpt>
      <trkpt lat="22.853511" lon="110.721650">
        <ele>157.234551</ele>
        <time>2026-08-18T03:19:23.000Z</time>
      </trkpt>
      <trkpt lat="22.853492" lon="110.721704">
        <ele>157.123613</ele>
        <time>2026-08-18T03:19:24.000Z</time>
      </trkpt>
      <trkpt lat="22.853472" lon="110.721758">
        <ele>157.011915</ele>
        <time>2026-08-18T03:19:25.000Z</time>
      </trkpt>
      <trkpt lat="22.853453" lon="110.721812">
        <ele>156.900977</ele>
        <time>2026-08-18T03:19:26.000Z</time>
      </trkpt>
      <trkpt lat="22.853434" lon="110.721867">
        <ele>156.788243</ele>
        <time>2026-08-18T03:19:27.000Z</time>
      </trkpt>
      <trkpt lat="22.853415" lon="110.721923">
        <ele>156.673711</ele>
        <time>2026-08-18T03:19:28.000Z</time>
      </trkpt>
      <trkpt lat="22.853396" lon="110.721979">
        <ele>156.559178</ele>
        <time>2026-08-18T03:19:29.000Z</time>
      </trkpt>
      <trkpt lat="22.853375" lon="110.722036">
        <ele>156.441361</ele>
        <time>2026-08-18T03:19:30.000Z</time>
      </trkpt>
      <trkpt lat="22.853353" lon="110.722091">
        <ele>156.326285</ele>
        <time>2026-08-18T03:19:31.000Z</time>
      </trkpt>
      <trkpt lat="22.853331" lon="110.722146">
        <ele>156.211210</ele>
        <time>2026-08-18T03:19:32.000Z</time>
      </trkpt>
      <trkpt lat="22.853308" lon="110.722199">
        <ele>156.098773</ele>
        <time>2026-08-18T03:19:33.000Z</time>
      </trkpt>
      <trkpt lat="22.853284" lon="110.722254">
        <ele>155.981976</ele>
        <time>2026-08-18T03:19:34.000Z</time>
      </trkpt>
      <trkpt lat="22.853259" lon="110.722310">
        <ele>155.862549</ele>
        <time>2026-08-18T03:19:35.000Z</time>
      </trkpt>
      <trkpt lat="22.853233" lon="110.722364">
        <ele>155.745614</ele>
        <time>2026-08-18T03:19:36.000Z</time>
      </trkpt>
      <trkpt lat="22.853206" lon="110.722419">
        <ele>155.626010</ele>
        <time>2026-08-18T03:19:37.000Z</time>
      </trkpt>
      <trkpt lat="22.853180" lon="110.722476">
        <ele>155.503943</ele>
        <time>2026-08-18T03:19:38.000Z</time>
      </trkpt>
      <trkpt lat="22.853151" lon="110.722532">
        <ele>155.380655</ele>
        <time>2026-08-18T03:19:39.000Z</time>
      </trkpt>
      <trkpt lat="22.853124" lon="110.722587">
        <ele>155.261050</ele>
        <time>2026-08-18T03:19:40.000Z</time>
      </trkpt>
      <trkpt lat="22.853096" lon="110.722641">
        <ele>155.142129</ele>
        <time>2026-08-18T03:19:41.000Z</time>
      </trkpt>
      <trkpt lat="22.853068" lon="110.722697">
        <ele>155.019848</ele>
        <time>2026-08-18T03:19:42.000Z</time>
      </trkpt>
      <trkpt lat="22.853036" lon="110.722754">
        <ele>154.891746</ele>
        <time>2026-08-18T03:19:43.000Z</time>
      </trkpt>
      <trkpt lat="22.853004" lon="110.722809">
        <ele>154.766907</ele>
        <time>2026-08-18T03:19:44.000Z</time>
      </trkpt>
      <trkpt lat="22.852971" lon="110.722866">
        <ele>154.637709</ele>
        <time>2026-08-18T03:19:45.000Z</time>
      </trkpt>
      <trkpt lat="22.852938" lon="110.722920">
        <ele>154.513349</ele>
        <time>2026-08-18T03:19:46.000Z</time>
      </trkpt>
      <trkpt lat="22.852903" lon="110.722973">
        <ele>154.394309</ele>
        <time>2026-08-18T03:19:47.000Z</time>
      </trkpt>
      <trkpt lat="22.852868" lon="110.723027">
        <ele>154.284194</ele>
        <time>2026-08-18T03:19:48.000Z</time>
      </trkpt>
      <trkpt lat="22.852832" lon="110.723081">
        <ele>154.173029</ele>
        <time>2026-08-18T03:19:49.000Z</time>
      </trkpt>
      <trkpt lat="22.852797" lon="110.723137">
        <ele>154.060169</ele>
        <time>2026-08-18T03:19:50.000Z</time>
      </trkpt>
      <trkpt lat="22.852762" lon="110.723195">
        <ele>153.944534</ele>
        <time>2026-08-18T03:19:51.000Z</time>
      </trkpt>
      <trkpt lat="22.852727" lon="110.723252">
        <ele>153.830290</ele>
        <time>2026-08-18T03:19:52.000Z</time>
      </trkpt>
      <trkpt lat="22.852691" lon="110.723308">
        <ele>153.716405</ele>
        <time>2026-08-18T03:19:53.000Z</time>
      </trkpt>
      <trkpt lat="22.852654" lon="110.723364">
        <ele>153.601474</ele>
        <time>2026-08-18T03:19:54.000Z</time>
      </trkpt>
      <trkpt lat="22.852616" lon="110.723421">
        <ele>153.484132</ele>
        <time>2026-08-18T03:19:55.000Z</time>
      </trkpt>
      <trkpt lat="22.852576" lon="110.723477">
        <ele>153.365955</ele>
        <time>2026-08-18T03:19:56.000Z</time>
      </trkpt>
      <trkpt lat="22.852536" lon="110.723533">
        <ele>153.247778</ele>
        <time>2026-08-18T03:19:57.000Z</time>
      </trkpt>
      <trkpt lat="22.852498" lon="110.723589">
        <ele>153.131783</ele>
        <time>2026-08-18T03:19:58.000Z</time>
      </trkpt>
      <trkpt lat="22.852459" lon="110.723646">
        <ele>153.013371</ele>
        <time>2026-08-18T03:19:59.000Z</time>
      </trkpt>
      <trkpt lat="22.852419" lon="110.723703">
        <ele>152.893872</ele>
        <time>2026-08-18T03:20:00.000Z</time>
      </trkpt>
      <trkpt lat="22.852380" lon="110.723759">
        <ele>152.776795</ele>
        <time>2026-08-18T03:20:01.000Z</time>
      </trkpt>
      <trkpt lat="22.852341" lon="110.723817">
        <ele>152.657039</ele>
        <time>2026-08-18T03:20:02.000Z</time>
      </trkpt>
      <trkpt lat="22.852301" lon="110.723873">
        <ele>152.538862</ele>
        <time>2026-08-18T03:20:03.000Z</time>
      </trkpt>
      <trkpt lat="22.852260" lon="110.723930">
        <ele>152.418257</ele>
        <time>2026-08-18T03:20:04.000Z</time>
      </trkpt>
      <trkpt lat="22.852219" lon="110.723985">
        <ele>152.300264</ele>
        <time>2026-08-18T03:20:05.000Z</time>
      </trkpt>
      <trkpt lat="22.852177" lon="110.724040">
        <ele>152.181124</ele>
        <time>2026-08-18T03:20:06.000Z</time>
      </trkpt>
      <trkpt lat="22.852138" lon="110.724096">
        <ele>152.064047</ele>
        <time>2026-08-18T03:20:07.000Z</time>
      </trkpt>
      <trkpt lat="22.852099" lon="110.724153">
        <ele>151.945635</ele>
        <time>2026-08-18T03:20:08.000Z</time>
      </trkpt>
      <trkpt lat="22.852062" lon="110.724209">
        <ele>151.830704</ele>
        <time>2026-08-18T03:20:09.000Z</time>
      </trkpt>
      <trkpt lat="22.852026" lon="110.724261">
        <ele>151.722223</ele>
        <time>2026-08-18T03:20:10.000Z</time>
      </trkpt>
      <trkpt lat="22.851990" lon="110.724312">
        <ele>151.615070</ele>
        <time>2026-08-18T03:20:11.000Z</time>
      </trkpt>
      <trkpt lat="22.851955" lon="110.724364">
        <ele>151.507666</ele>
        <time>2026-08-18T03:20:12.000Z</time>
      </trkpt>
      <trkpt lat="22.851921" lon="110.724415">
        <ele>151.402676</ele>
        <time>2026-08-18T03:20:13.000Z</time>
      </trkpt>
      <trkpt lat="22.851887" lon="110.724466">
        <ele>151.297686</ele>
        <time>2026-08-18T03:20:14.000Z</time>
      </trkpt>
      <trkpt lat="22.851854" lon="110.724516">
        <ele>151.195106</ele>
        <time>2026-08-18T03:20:15.000Z</time>
      </trkpt>
      <trkpt lat="22.851822" lon="110.724567">
        <ele>151.257574</ele>
        <time>2026-08-18T03:20:16.000Z</time>
      </trkpt>
      <trkpt lat="22.851789" lon="110.724616">
        <ele>151.348545</ele>
        <time>2026-08-18T03:20:17.000Z</time>
      </trkpt>
      <trkpt lat="22.851757" lon="110.724665">
        <ele>151.438565</ele>
        <time>2026-08-18T03:20:18.000Z</time>
      </trkpt>
      <trkpt lat="22.851726" lon="110.724714">
        <ele>151.527654</ele>
        <time>2026-08-18T03:20:19.000Z</time>
      </trkpt>
      <trkpt lat="22.851697" lon="110.724762">
        <ele>151.613687</ele>
        <time>2026-08-18T03:20:20.000Z</time>
      </trkpt>
      <trkpt lat="22.851668" lon="110.724810">
        <ele>151.699719</ele>
        <time>2026-08-18T03:20:21.000Z</time>
      </trkpt>
      <trkpt lat="22.851641" lon="110.724858">
        <ele>151.784011</ele>
        <time>2026-08-18T03:20:22.000Z</time>
      </trkpt>
      <trkpt lat="22.851615" lon="110.724907">
        <ele>151.868763</ele>
        <time>2026-08-18T03:20:23.000Z</time>
      </trkpt>
      <trkpt lat="22.851590" lon="110.724954">
        <ele>151.950106</ele>
        <time>2026-08-18T03:20:24.000Z</time>
      </trkpt>
      <trkpt lat="22.851567" lon="110.725001">
        <ele>152.029872</ele>
        <time>2026-08-18T03:20:25.000Z</time>
      </trkpt>
      <trkpt lat="22.851542" lon="110.725048">
        <ele>152.111215</ele>
        <time>2026-08-18T03:20:26.000Z</time>
      </trkpt>
      <trkpt lat="22.851518" lon="110.725093">
        <ele>152.189148</ele>
        <time>2026-08-18T03:20:27.000Z</time>
      </trkpt>
      <trkpt lat="22.851494" lon="110.725138">
        <ele>152.267081</ele>
        <time>2026-08-18T03:20:28.000Z</time>
      </trkpt>
      <trkpt lat="22.851472" lon="110.725183">
        <ele>152.343437</ele>
        <time>2026-08-18T03:20:29.000Z</time>
      </trkpt>
      <trkpt lat="22.851452" lon="110.725226">
        <ele>152.415635</ele>
        <time>2026-08-18T03:20:30.000Z</time>
      </trkpt>
      <trkpt lat="22.851432" lon="110.725267">
        <ele>152.485169</ele>
        <time>2026-08-18T03:20:31.000Z</time>
      </trkpt>
      <trkpt lat="22.851414" lon="110.725308">
        <ele>152.553243</ele>
        <time>2026-08-18T03:20:32.000Z</time>
      </trkpt>
      <trkpt lat="22.851396" lon="110.725349">
        <ele>152.621316</ele>
        <time>2026-08-18T03:20:33.000Z</time>
      </trkpt>
      <trkpt lat="22.851379" lon="110.725388">
        <ele>152.685984</ele>
        <time>2026-08-18T03:20:34.000Z</time>
      </trkpt>
      <trkpt lat="22.851362" lon="110.725426">
        <ele>152.749300</ele>
        <time>2026-08-18T03:20:35.000Z</time>
      </trkpt>
      <trkpt lat="22.851345" lon="110.725463">
        <ele>152.811271</ele>
        <time>2026-08-18T03:20:36.000Z</time>
      </trkpt>
      <trkpt lat="22.851331" lon="110.725501">
        <ele>152.872613</ele>
        <time>2026-08-18T03:20:37.000Z</time>
      </trkpt>
      <trkpt lat="22.851317" lon="110.725539">
        <ele>152.933955</ele>
        <time>2026-08-18T03:20:38.000Z</time>
      </trkpt>
      <trkpt lat="22.851303" lon="110.725577">
        <ele>152.995297</ele>
        <time>2026-08-18T03:20:39.000Z</time>
      </trkpt>
      <trkpt lat="22.851288" lon="110.725612">
        <ele>153.053155</ele>
        <time>2026-08-18T03:20:40.000Z</time>
      </trkpt>
      <trkpt lat="22.851273" lon="110.725649">
        <ele>153.113745</ele>
        <time>2026-08-18T03:20:41.000Z</time>
      </trkpt>
      <trkpt lat="22.851260" lon="110.725686">
        <ele>153.173099</ele>
        <time>2026-08-18T03:20:42.000Z</time>
      </trkpt>
      <trkpt lat="22.851247" lon="110.725722">
        <ele>153.231055</ele>
        <time>2026-08-18T03:20:43.000Z</time>
      </trkpt>
      <trkpt lat="22.851235" lon="110.725758">
        <ele>153.288438</ele>
        <time>2026-08-18T03:20:44.000Z</time>
      </trkpt>
      <trkpt lat="22.851222" lon="110.725794">
        <ele>153.346394</ele>
        <time>2026-08-18T03:20:45.000Z</time>
      </trkpt>
      <trkpt lat="22.851211" lon="110.725831">
        <ele>153.404669</ele>
        <time>2026-08-18T03:20:46.000Z</time>
      </trkpt>
      <trkpt lat="22.851201" lon="110.725870">
        <ele>153.465347</ele>
        <time>2026-08-18T03:20:47.000Z</time>
      </trkpt>
      <trkpt lat="22.851190" lon="110.725908">
        <ele>153.525050</ele>
        <time>2026-08-18T03:20:48.000Z</time>
      </trkpt>
      <trkpt lat="22.851180" lon="110.725946">
        <ele>153.584286</ele>
        <time>2026-08-18T03:20:49.000Z</time>
      </trkpt>
      <trkpt lat="22.851169" lon="110.725985">
        <ele>153.645420</ele>
        <time>2026-08-18T03:20:50.000Z</time>
      </trkpt>
      <trkpt lat="22.851158" lon="110.726023">
        <ele>153.705123</ele>
        <time>2026-08-18T03:20:51.000Z</time>
      </trkpt>
      <trkpt lat="22.851146" lon="110.726062">
        <ele>153.766754</ele>
        <time>2026-08-18T03:20:52.000Z</time>
      </trkpt>
      <trkpt lat="22.851134" lon="110.726102">
        <ele>153.829807</ele>
        <time>2026-08-18T03:20:53.000Z</time>
      </trkpt>
      <trkpt lat="22.851124" lon="110.726140">
        <ele>153.889043</ele>
        <time>2026-08-18T03:20:54.000Z</time>
      </trkpt>
      <trkpt lat="22.851114" lon="110.726178">
        <ele>153.948279</ele>
        <time>2026-08-18T03:20:55.000Z</time>
      </trkpt>
      <trkpt lat="22.851104" lon="110.726217">
        <ele>154.008958</ele>
        <time>2026-08-18T03:20:56.000Z</time>
      </trkpt>
      <trkpt lat="22.851095" lon="110.726255">
        <ele>154.067767</ele>
        <time>2026-08-18T03:20:57.000Z</time>
      </trkpt>
      <trkpt lat="22.851086" lon="110.726292">
        <ele>154.132472</ele>
        <time>2026-08-18T03:20:58.000Z</time>
      </trkpt>
      <trkpt lat="22.851078" lon="110.726332">
        <ele>154.216132</ele>
        <time>2026-08-18T03:20:59.000Z</time>
      </trkpt>
      <trkpt lat="22.851071" lon="110.726369">
        <ele>154.293335</ele>
        <time>2026-08-18T03:21:00.000Z</time>
      </trkpt>
      <trkpt lat="22.851063" lon="110.726406">
        <ele>154.371013</ele>
        <time>2026-08-18T03:21:01.000Z</time>
      </trkpt>
      <trkpt lat="22.851056" lon="110.726444">
        <ele>154.450219</ele>
        <time>2026-08-18T03:21:02.000Z</time>
      </trkpt>
      <trkpt lat="22.851048" lon="110.726482">
        <ele>154.529889</ele>
        <time>2026-08-18T03:21:03.000Z</time>
      </trkpt>
      <trkpt lat="22.851040" lon="110.726519">
        <ele>154.607568</ele>
        <time>2026-08-18T03:21:04.000Z</time>
      </trkpt>
      <trkpt lat="22.851033" lon="110.726559">
        <ele>154.690786</ele>
        <time>2026-08-18T03:21:05.000Z</time>
      </trkpt>
      <trkpt lat="22.851026" lon="110.726598">
        <ele>154.771996</ele>
        <time>2026-08-18T03:21:06.000Z</time>
      </trkpt>
      <trkpt lat="22.851019" lon="110.726636">
        <ele>154.851202</ele>
        <time>2026-08-18T03:21:07.000Z</time>
      </trkpt>
      <trkpt lat="22.851014" lon="110.726673">
        <ele>154.927636</ele>
        <time>2026-08-18T03:21:08.000Z</time>
      </trkpt>
      <trkpt lat="22.851010" lon="110.726712">
        <ele>155.007841</ele>
        <time>2026-08-18T03:21:09.000Z</time>
      </trkpt>
      <trkpt lat="22.851005" lon="110.726751">
        <ele>155.088321</ele>
        <time>2026-08-18T03:21:10.000Z</time>
      </trkpt>
      <trkpt lat="22.851000" lon="110.726790">
        <ele>155.168802</ele>
        <time>2026-08-18T03:21:11.000Z</time>
      </trkpt>
      <trkpt lat="22.850994" lon="110.726828">
        <ele>155.247603</ele>
        <time>2026-08-18T03:21:12.000Z</time>
      </trkpt>
      <trkpt lat="22.850988" lon="110.726868">
        <ele>155.330436</ele>
        <time>2026-08-18T03:21:13.000Z</time>
      </trkpt>
      <trkpt lat="22.850982" lon="110.726906">
        <ele>155.409236</ele>
        <time>2026-08-18T03:21:14.000Z</time>
      </trkpt>
      <trkpt lat="22.850977" lon="110.726946">
        <ele>155.491742</ele>
        <time>2026-08-18T03:21:15.000Z</time>
      </trkpt>
      <trkpt lat="22.850973" lon="110.726987">
        <ele>155.576011</ele>
        <time>2026-08-18T03:21:16.000Z</time>
      </trkpt>
      <trkpt lat="22.850971" lon="110.727028">
        <ele>155.659929</ele>
        <time>2026-08-18T03:21:17.000Z</time>
      </trkpt>
      <trkpt lat="22.850969" lon="110.727070">
        <ele>155.745888</ele>
        <time>2026-08-18T03:21:18.000Z</time>
      </trkpt>
      <trkpt lat="22.850966" lon="110.727110">
        <ele>155.827915</ele>
        <time>2026-08-18T03:21:19.000Z</time>
      </trkpt>
      <trkpt lat="22.850964" lon="110.727149">
        <ele>155.907752</ele>
        <time>2026-08-18T03:21:20.000Z</time>
      </trkpt>
      <trkpt lat="22.850961" lon="110.727189">
        <ele>155.989779</ele>
        <time>2026-08-18T03:21:21.000Z</time>
      </trkpt>
      <trkpt lat="22.850958" lon="110.727229">
        <ele>156.071806</ele>
        <time>2026-08-18T03:21:22.000Z</time>
      </trkpt>
      <trkpt lat="22.850954" lon="110.727269">
        <ele>156.154043</ele>
        <time>2026-08-18T03:21:23.000Z</time>
      </trkpt>
      <trkpt lat="22.850950" lon="110.727309">
        <ele>156.236279</ele>
        <time>2026-08-18T03:21:24.000Z</time>
      </trkpt>
      <trkpt lat="22.850947" lon="110.727348">
        <ele>156.316269</ele>
        <time>2026-08-18T03:21:25.000Z</time>
      </trkpt>
      <trkpt lat="22.850943" lon="110.727389">
        <ele>156.400539</ele>
        <time>2026-08-18T03:21:26.000Z</time>
      </trkpt>
      <trkpt lat="22.850940" lon="110.727428">
        <ele>156.480529</ele>
        <time>2026-08-18T03:21:27.000Z</time>
      </trkpt>
      <trkpt lat="22.850938" lon="110.727467">
        <ele>156.560365</ele>
        <time>2026-08-18T03:21:28.000Z</time>
      </trkpt>
      <trkpt lat="22.850935" lon="110.727507">
        <ele>156.642392</ele>
        <time>2026-08-18T03:21:29.000Z</time>
      </trkpt>
      <trkpt lat="22.850932" lon="110.727545">
        <ele>156.720346</ele>
        <time>2026-08-18T03:21:30.000Z</time>
      </trkpt>
      <trkpt lat="22.850930" lon="110.727583">
        <ele>156.798141</ele>
        <time>2026-08-18T03:21:31.000Z</time>
      </trkpt>
      <trkpt lat="22.850926" lon="110.727622">
        <ele>156.878346</ele>
        <time>2026-08-18T03:21:32.000Z</time>
      </trkpt>
      <trkpt lat="22.850921" lon="110.727660">
        <ele>156.956803</ele>
        <time>2026-08-18T03:21:33.000Z</time>
      </trkpt>
      <trkpt lat="22.850918" lon="110.727698">
        <ele>157.034756</ele>
        <time>2026-08-18T03:21:34.000Z</time>
      </trkpt>
      <trkpt lat="22.850915" lon="110.727737">
        <ele>157.114747</ele>
        <time>2026-08-18T03:21:35.000Z</time>
      </trkpt>
      <trkpt lat="22.850914" lon="110.727775">
        <ele>157.192447</ele>
        <time>2026-08-18T03:21:36.000Z</time>
      </trkpt>
      <trkpt lat="22.850911" lon="110.727812">
        <ele>157.268364</ele>
        <time>2026-08-18T03:21:37.000Z</time>
      </trkpt>
      <trkpt lat="22.850908" lon="110.727850">
        <ele>157.346318</ele>
        <time>2026-08-18T03:21:38.000Z</time>
      </trkpt>
      <trkpt lat="22.850906" lon="110.727885">
        <ele>157.417993</ele>
        <time>2026-08-18T03:21:39.000Z</time>
      </trkpt>
      <trkpt lat="22.850905" lon="110.727920">
        <ele>157.489564</ele>
        <time>2026-08-18T03:21:40.000Z</time>
      </trkpt>
      <trkpt lat="22.850902" lon="110.727954">
        <ele>157.559375</ele>
        <time>2026-08-18T03:21:41.000Z</time>
      </trkpt>
      <trkpt lat="22.850899" lon="110.727987">
        <ele>157.627152</ele>
        <time>2026-08-18T03:21:42.000Z</time>
      </trkpt>
      <trkpt lat="22.850897" lon="110.728020">
        <ele>157.694747</ele>
        <time>2026-08-18T03:21:43.000Z</time>
      </trkpt>
      <trkpt lat="22.850895" lon="110.728052">
        <ele>157.760303</ele>
        <time>2026-08-18T03:21:44.000Z</time>
      </trkpt>
      <trkpt lat="22.850894" lon="110.728085">
        <ele>157.827789</ele>
        <time>2026-08-18T03:21:45.000Z</time>
      </trkpt>
      <trkpt lat="22.850892" lon="110.728118">
        <ele>157.895384</ele>
        <time>2026-08-18T03:21:46.000Z</time>
      </trkpt>
      <trkpt lat="22.850889" lon="110.728150">
        <ele>157.961127</ele>
        <time>2026-08-18T03:21:47.000Z</time>
      </trkpt>
      <trkpt lat="22.850886" lon="110.728183">
        <ele>158.028904</ele>
        <time>2026-08-18T03:21:48.000Z</time>
      </trkpt>
      <trkpt lat="22.850884" lon="110.728216">
        <ele>158.097154</ele>
        <time>2026-08-18T03:21:49.000Z</time>
      </trkpt>
      <trkpt lat="22.850883" lon="110.728248">
        <ele>158.182102</ele>
        <time>2026-08-18T03:21:50.000Z</time>
      </trkpt>
      <trkpt lat="22.850881" lon="110.728281">
        <ele>158.269843</ele>
        <time>2026-08-18T03:21:51.000Z</time>
      </trkpt>
      <trkpt lat="22.850878" lon="110.728315">
        <ele>158.360461</ele>
        <time>2026-08-18T03:21:52.000Z</time>
      </trkpt>
      <trkpt lat="22.850876" lon="110.728347">
        <ele>158.445555</ele>
        <time>2026-08-18T03:21:53.000Z</time>
      </trkpt>
      <trkpt lat="22.850874" lon="110.728379">
        <ele>158.530649</ele>
        <time>2026-08-18T03:21:54.000Z</time>
      </trkpt>
      <trkpt lat="22.850872" lon="110.728412">
        <ele>158.618391</ele>
        <time>2026-08-18T03:21:55.000Z</time>
      </trkpt>
      <trkpt lat="22.850871" lon="110.728445">
        <ele>158.705990</ele>
        <time>2026-08-18T03:21:56.000Z</time>
      </trkpt>
      <trkpt lat="22.850868" lon="110.728478">
        <ele>158.793968</ele>
        <time>2026-08-18T03:21:57.000Z</time>
      </trkpt>
      <trkpt lat="22.850866" lon="110.728510">
        <ele>158.879062</ele>
        <time>2026-08-18T03:21:58.000Z</time>
      </trkpt>
      <trkpt lat="22.850864" lon="110.728542">
        <ele>158.964156</ele>
        <time>2026-08-18T03:21:59.000Z</time>
      </trkpt>
      <trkpt lat="22.850861" lon="110.728574">
        <ele>159.049493</ele>
        <time>2026-08-18T03:22:00.000Z</time>
      </trkpt>
      <trkpt lat="22.850858" lon="110.728605">
        <ele>159.132192</ele>
        <time>2026-08-18T03:22:01.000Z</time>
      </trkpt>
      <trkpt lat="22.850855" lon="110.728636">
        <ele>159.214890</ele>
        <time>2026-08-18T03:22:02.000Z</time>
      </trkpt>
      <trkpt lat="22.850852" lon="110.728668">
        <ele>159.300228</ele>
        <time>2026-08-18T03:22:03.000Z</time>
      </trkpt>
      <trkpt lat="22.850848" lon="110.728699">
        <ele>159.383276</ele>
        <time>2026-08-18T03:22:04.000Z</time>
      </trkpt>
      <trkpt lat="22.850846" lon="110.728729">
        <ele>159.463077</ele>
        <time>2026-08-18T03:22:05.000Z</time>
      </trkpt>
      <trkpt lat="22.850842" lon="110.728760">
        <ele>159.546125</ele>
        <time>2026-08-18T03:22:06.000Z</time>
      </trkpt>
      <trkpt lat="22.850839" lon="110.728791">
        <ele>159.628824</ele>
        <time>2026-08-18T03:22:07.000Z</time>
      </trkpt>
      <trkpt lat="22.850837" lon="110.728822">
        <ele>159.711271</ele>
        <time>2026-08-18T03:22:08.000Z</time>
      </trkpt>
      <trkpt lat="22.850834" lon="110.728854">
        <ele>159.796608</ele>
        <time>2026-08-18T03:22:09.000Z</time>
      </trkpt>
      <trkpt lat="22.850832" lon="110.728885">
        <ele>159.879056</ele>
        <time>2026-08-18T03:22:10.000Z</time>
      </trkpt>
      <trkpt lat="22.850829" lon="110.728916">
        <ele>159.961754</ele>
        <time>2026-08-18T03:22:11.000Z</time>
      </trkpt>
      <trkpt lat="22.850826" lon="110.728947">
        <ele>160.044453</ele>
        <time>2026-08-18T03:22:12.000Z</time>
      </trkpt>
      <trkpt lat="22.850823" lon="110.728979">
        <ele>160.129790</ele>
        <time>2026-08-18T03:22:13.000Z</time>
      </trkpt>
      <trkpt lat="22.850822" lon="110.729010">
        <ele>160.212086</ele>
        <time>2026-08-18T03:22:14.000Z</time>
      </trkpt>
      <trkpt lat="22.850820" lon="110.729041">
        <ele>160.294534</ele>
        <time>2026-08-18T03:22:15.000Z</time>
      </trkpt>
      <trkpt lat="22.850817" lon="110.729071">
        <ele>160.374594</ele>
        <time>2026-08-18T03:22:16.000Z</time>
      </trkpt>
      <trkpt lat="22.850816" lon="110.729103">
        <ele>160.459542</ele>
        <time>2026-08-18T03:22:17.000Z</time>
      </trkpt>
      <trkpt lat="22.850813" lon="110.729133">
        <ele>160.539602</ele>
        <time>2026-08-18T03:22:18.000Z</time>
      </trkpt>
      <trkpt lat="22.850811" lon="110.729165">
        <ele>160.624697</ele>
        <time>2026-08-18T03:22:19.000Z</time>
      </trkpt>
      <trkpt lat="22.850809" lon="110.729197">
        <ele>160.709791</ele>
        <time>2026-08-18T03:22:20.000Z</time>
      </trkpt>
      <trkpt lat="22.850807" lon="110.729228">
        <ele>160.792238</ele>
        <time>2026-08-18T03:22:21.000Z</time>
      </trkpt>
      <trkpt lat="22.850805" lon="110.729260">
        <ele>160.877332</ele>
        <time>2026-08-18T03:22:22.000Z</time>
      </trkpt>
      <trkpt lat="22.850801" lon="110.729293">
        <ele>160.965639</ele>
        <time>2026-08-18T03:22:23.000Z</time>
      </trkpt>
      <trkpt lat="22.850798" lon="110.729325">
        <ele>161.050976</ele>
        <time>2026-08-18T03:22:24.000Z</time>
      </trkpt>
      <trkpt lat="22.850795" lon="110.729357">
        <ele>161.136314</ele>
        <time>2026-08-18T03:22:25.000Z</time>
      </trkpt>
      <trkpt lat="22.850793" lon="110.729389">
        <ele>161.221408</ele>
        <time>2026-08-18T03:22:26.000Z</time>
      </trkpt>
      <trkpt lat="22.850790" lon="110.729420">
        <ele>161.304106</ele>
        <time>2026-08-18T03:22:27.000Z</time>
      </trkpt>
      <trkpt lat="22.850788" lon="110.729450">
        <ele>161.383907</ele>
        <time>2026-08-18T03:22:28.000Z</time>
      </trkpt>
      <trkpt lat="22.850787" lon="110.729481">
        <ele>161.466204</ele>
        <time>2026-08-18T03:22:29.000Z</time>
      </trkpt>
      <trkpt lat="22.850787" lon="110.729513">
        <ele>161.551103</ele>
        <time>2026-08-18T03:22:30.000Z</time>
      </trkpt>
      <trkpt lat="22.850786" lon="110.729544">
        <ele>161.633400</ele>
        <time>2026-08-18T03:22:31.000Z</time>
      </trkpt>
      <trkpt lat="22.850785" lon="110.729575">
        <ele>161.715696</ele>
        <time>2026-08-18T03:22:32.000Z</time>
      </trkpt>
      <trkpt lat="22.850783" lon="110.729606">
        <ele>161.798143</ele>
        <time>2026-08-18T03:22:33.000Z</time>
      </trkpt>
      <trkpt lat="22.850781" lon="110.729637">
        <ele>161.880591</ele>
        <time>2026-08-18T03:22:34.000Z</time>
      </trkpt>
      <trkpt lat="22.850779" lon="110.729668">
        <ele>161.963038</ele>
        <time>2026-08-18T03:22:35.000Z</time>
      </trkpt>
      <trkpt lat="22.850778" lon="110.729699">
        <ele>162.045335</ele>
        <time>2026-08-18T03:22:36.000Z</time>
      </trkpt>
      <trkpt lat="22.850775" lon="110.729729">
        <ele>162.125395</ele>
        <time>2026-08-18T03:22:37.000Z</time>
      </trkpt>
      <trkpt lat="22.850772" lon="110.729760">
        <ele>162.208094</ele>
        <time>2026-08-18T03:22:38.000Z</time>
      </trkpt>
      <trkpt lat="22.850770" lon="110.729791">
        <ele>162.290541</ele>
        <time>2026-08-18T03:22:39.000Z</time>
      </trkpt>
      <trkpt lat="22.850768" lon="110.729822">
        <ele>162.372988</ele>
        <time>2026-08-18T03:22:40.000Z</time>
      </trkpt>
      <trkpt lat="22.850767" lon="110.729852">
        <ele>162.452633</ele>
        <time>2026-08-18T03:22:41.000Z</time>
      </trkpt>
      <trkpt lat="22.850764" lon="110.729881">
        <ele>162.530057</ele>
        <time>2026-08-18T03:22:42.000Z</time>
      </trkpt>
      <trkpt lat="22.850761" lon="110.729911">
        <ele>162.610117</ele>
        <time>2026-08-18T03:22:43.000Z</time>
      </trkpt>
      <trkpt lat="22.850758" lon="110.729942">
        <ele>162.692815</ele>
        <time>2026-08-18T03:22:44.000Z</time>
      </trkpt>
      <trkpt lat="22.850755" lon="110.729973">
        <ele>162.775514</ele>
        <time>2026-08-18T03:22:45.000Z</time>
      </trkpt>
      <trkpt lat="22.850751" lon="110.730004">
        <ele>162.858562</ele>
        <time>2026-08-18T03:22:46.000Z</time>
      </trkpt>
      <trkpt lat="22.850749" lon="110.730035">
        <ele>162.941010</ele>
        <time>2026-08-18T03:22:47.000Z</time>
      </trkpt>
      <trkpt lat="22.850745" lon="110.730065">
        <ele>163.021432</ele>
        <time>2026-08-18T03:22:48.000Z</time>
      </trkpt>
      <trkpt lat="22.850742" lon="110.730097">
        <ele>163.106769</ele>
        <time>2026-08-18T03:22:49.000Z</time>
      </trkpt>
      <trkpt lat="22.850739" lon="110.730127">
        <ele>163.186829</ele>
        <time>2026-08-18T03:22:50.000Z</time>
      </trkpt>
      <trkpt lat="22.850735" lon="110.730159">
        <ele>163.272506</ele>
        <time>2026-08-18T03:22:51.000Z</time>
      </trkpt>
      <trkpt lat="22.850731" lon="110.730191">
        <ele>163.316989</ele>
        <time>2026-08-18T03:22:52.000Z</time>
      </trkpt>
      <trkpt lat="22.850725" lon="110.730223">
        <ele>163.361883</ele>
        <time>2026-08-18T03:22:53.000Z</time>
      </trkpt>
      <trkpt lat="22.850720" lon="110.730255">
        <ele>163.406504</ele>
        <time>2026-08-18T03:22:54.000Z</time>
      </trkpt>
      <trkpt lat="22.850715" lon="110.730287">
        <ele>163.451125</ele>
        <time>2026-08-18T03:22:55.000Z</time>
      </trkpt>
      <trkpt lat="22.850710" lon="110.730318">
        <ele>163.494391</ele>
        <time>2026-08-18T03:22:56.000Z</time>
      </trkpt>
      <trkpt lat="22.850704" lon="110.730348">
        <ele>163.536594</ele>
        <time>2026-08-18T03:22:57.000Z</time>
      </trkpt>
      <trkpt lat="22.850701" lon="110.730379">
        <ele>163.579447</ele>
        <time>2026-08-18T03:22:58.000Z</time>
      </trkpt>
      <trkpt lat="22.850698" lon="110.730410">
        <ele>163.622299</ele>
        <time>2026-08-18T03:22:59.000Z</time>
      </trkpt>
      <trkpt lat="22.850692" lon="110.730441">
        <ele>163.665847</ele>
        <time>2026-08-18T03:23:00.000Z</time>
      </trkpt>
      <trkpt lat="22.850684" lon="110.730472">
        <ele>163.710105</ele>
        <time>2026-08-18T03:23:01.000Z</time>
      </trkpt>
      <trkpt lat="22.850680" lon="110.730503">
        <ele>163.753139</ele>
        <time>2026-08-18T03:23:02.000Z</time>
      </trkpt>
      <trkpt lat="22.850675" lon="110.730533">
        <ele>163.795051</ele>
        <time>2026-08-18T03:23:03.000Z</time>
      </trkpt>
      <trkpt lat="22.850668" lon="110.730563">
        <ele>163.837596</ele>
        <time>2026-08-18T03:23:04.000Z</time>
      </trkpt>
      <trkpt lat="22.850661" lon="110.730595">
        <ele>163.882812</ele>
        <time>2026-08-18T03:23:05.000Z</time>
      </trkpt>
      <trkpt lat="22.850653" lon="110.730627">
        <ele>163.928395</ele>
        <time>2026-08-18T03:23:06.000Z</time>
      </trkpt>
      <trkpt lat="22.850645" lon="110.730659">
        <ele>163.973978</ele>
        <time>2026-08-18T03:23:07.000Z</time>
      </trkpt>
      <trkpt lat="22.850637" lon="110.730691">
        <ele>164.019561</ele>
        <time>2026-08-18T03:23:08.000Z</time>
      </trkpt>
      <trkpt lat="22.850629" lon="110.730722">
        <ele>164.063819</ele>
        <time>2026-08-18T03:23:09.000Z</time>
      </trkpt>
      <trkpt lat="22.850621" lon="110.730755">
        <ele>164.110730</ele>
        <time>2026-08-18T03:23:10.000Z</time>
      </trkpt>
      <trkpt lat="22.850614" lon="110.730788">
        <ele>164.157284</ele>
        <time>2026-08-18T03:23:11.000Z</time>
      </trkpt>
      <trkpt lat="22.850606" lon="110.730819">
        <ele>164.201542</ele>
        <time>2026-08-18T03:23:12.000Z</time>
      </trkpt>
      <trkpt lat="22.850600" lon="110.730851">
        <ele>164.246436</ele>
        <time>2026-08-18T03:23:13.000Z</time>
      </trkpt>
      <trkpt lat="22.850592" lon="110.730883">
        <ele>164.292020</ele>
        <time>2026-08-18T03:23:14.000Z</time>
      </trkpt>
      <trkpt lat="22.850583" lon="110.730915">
        <ele>164.338016</ele>
        <time>2026-08-18T03:23:15.000Z</time>
      </trkpt>
      <trkpt lat="22.850572" lon="110.730948">
        <ele>164.386260</ele>
        <time>2026-08-18T03:23:16.000Z</time>
      </trkpt>
      <trkpt lat="22.850561" lon="110.730979">
        <ele>164.431929</ele>
        <time>2026-08-18T03:23:17.000Z</time>
      </trkpt>
      <trkpt lat="22.850549" lon="110.731009">
        <ele>164.476890</ele>
        <time>2026-08-18T03:23:18.000Z</time>
      </trkpt>
      <trkpt lat="22.850538" lon="110.731040">
        <ele>164.522559</ele>
        <time>2026-08-18T03:23:19.000Z</time>
      </trkpt>
      <trkpt lat="22.850527" lon="110.731072">
        <ele>164.569513</ele>
        <time>2026-08-18T03:23:20.000Z</time>
      </trkpt>
      <trkpt lat="22.850515" lon="110.731103">
        <ele>164.615738</ele>
        <time>2026-08-18T03:23:21.000Z</time>
      </trkpt>
      <trkpt lat="22.850503" lon="110.731134">
        <ele>164.661964</ele>
        <time>2026-08-18T03:23:22.000Z</time>
      </trkpt>
      <trkpt lat="22.850492" lon="110.731167">
        <ele>164.710209</ele>
        <time>2026-08-18T03:23:23.000Z</time>
      </trkpt>
      <trkpt lat="22.850478" lon="110.731199">
        <ele>164.758908</ele>
        <time>2026-08-18T03:23:24.000Z</time>
      </trkpt>
      <trkpt lat="22.850465" lon="110.731230">
        <ele>164.805731</ele>
        <time>2026-08-18T03:23:25.000Z</time>
      </trkpt>
      <trkpt lat="22.850453" lon="110.731262">
        <ele>164.853227</ele>
        <time>2026-08-18T03:23:26.000Z</time>
      </trkpt>
      <trkpt lat="22.850439" lon="110.731294">
        <ele>164.901927</ele>
        <time>2026-08-18T03:23:27.000Z</time>
      </trkpt>
      <trkpt lat="22.850424" lon="110.731325">
        <ele>164.950063</ele>
        <time>2026-08-18T03:23:28.000Z</time>
      </trkpt>
      <trkpt lat="22.850410" lon="110.731358">
        <ele>165.000007</ele>
        <time>2026-08-18T03:23:29.000Z</time>
      </trkpt>
      <trkpt lat="22.850396" lon="110.731388">
        <ele>165.046238</ele>
        <time>2026-08-18T03:23:30.000Z</time>
      </trkpt>
      <trkpt lat="22.850381" lon="110.731418">
        <ele>165.093161</ele>
        <time>2026-08-18T03:23:31.000Z</time>
      </trkpt>
      <trkpt lat="22.850365" lon="110.731448">
        <ele>165.140814</ele>
        <time>2026-08-18T03:23:32.000Z</time>
      </trkpt>
      <trkpt lat="22.850350" lon="110.731479">
        <ele>165.188950</ele>
        <time>2026-08-18T03:23:33.000Z</time>
      </trkpt>
      <trkpt lat="22.850336" lon="110.731509">
        <ele>165.235180</ele>
        <time>2026-08-18T03:23:34.000Z</time>
      </trkpt>
      <trkpt lat="22.850320" lon="110.731538">
        <ele>165.281648</ele>
        <time>2026-08-18T03:23:35.000Z</time>
      </trkpt>
      <trkpt lat="22.850304" lon="110.731568">
        <ele>165.329301</ele>
        <time>2026-08-18T03:23:36.000Z</time>
      </trkpt>
      <trkpt lat="22.850286" lon="110.731597">
        <ele>165.377370</ele>
        <time>2026-08-18T03:23:37.000Z</time>
      </trkpt>
      <trkpt lat="22.850269" lon="110.731627">
        <ele>165.425788</ele>
        <time>2026-08-18T03:23:38.000Z</time>
      </trkpt>
      <trkpt lat="22.850252" lon="110.731660">
        <ele>165.477763</ele>
        <time>2026-08-18T03:23:39.000Z</time>
      </trkpt>
      <trkpt lat="22.850235" lon="110.731692">
        <ele>165.528543</ele>
        <time>2026-08-18T03:23:40.000Z</time>
      </trkpt>
      <trkpt lat="22.850217" lon="110.731724">
        <ele>165.580084</ele>
        <time>2026-08-18T03:23:41.000Z</time>
      </trkpt>
      <trkpt lat="22.850197" lon="110.731753">
        <ele>165.629882</ele>
        <time>2026-08-18T03:23:42.000Z</time>
      </trkpt>
      <trkpt lat="22.850180" lon="110.731783">
        <ele>165.678299</ele>
        <time>2026-08-18T03:23:43.000Z</time>
      </trkpt>
      <trkpt lat="22.850163" lon="110.731813">
        <ele>165.726716</ele>
        <time>2026-08-18T03:23:44.000Z</time>
      </trkpt>
      <trkpt lat="22.850144" lon="110.731844">
        <ele>165.777900</ele>
        <time>2026-08-18T03:23:45.000Z</time>
      </trkpt>
      <trkpt lat="22.850127" lon="110.731874">
        <ele>165.826318</ele>
        <time>2026-08-18T03:23:46.000Z</time>
      </trkpt>
      <trkpt lat="22.850109" lon="110.731902">
        <ele>165.873253</ele>
        <time>2026-08-18T03:23:47.000Z</time>
      </trkpt>
      <trkpt lat="22.850093" lon="110.731929">
        <ele>165.917384</ele>
        <time>2026-08-18T03:23:48.000Z</time>
      </trkpt>
      <trkpt lat="22.850074" lon="110.731958">
        <ele>165.962745</ele>
        <time>2026-08-18T03:23:49.000Z</time>
      </trkpt>
      <trkpt lat="22.850055" lon="110.731983">
        <ele>165.991898</ele>
        <time>2026-08-18T03:23:50.000Z</time>
      </trkpt>
      <trkpt lat="22.850036" lon="110.732009">
        <ele>166.021750</ele>
        <time>2026-08-18T03:23:51.000Z</time>
      </trkpt>
      <trkpt lat="22.850017" lon="110.732035">
        <ele>166.051602</ele>
        <time>2026-08-18T03:23:52.000Z</time>
      </trkpt>
      <trkpt lat="22.849998" lon="110.732062">
        <ele>166.082164</ele>
        <time>2026-08-18T03:23:53.000Z</time>
      </trkpt>
      <trkpt lat="22.849978" lon="110.732090">
        <ele>166.114034</ele>
        <time>2026-08-18T03:23:54.000Z</time>
      </trkpt>
      <trkpt lat="22.849958" lon="110.732117">
        <ele>166.145198</ele>
        <time>2026-08-18T03:23:55.000Z</time>
      </trkpt>
      <trkpt lat="22.849937" lon="110.732145">
        <ele>166.177675</ele>
        <time>2026-08-18T03:23:56.000Z</time>
      </trkpt>
      <trkpt lat="22.849917" lon="110.732173">
        <ele>166.209546</ele>
        <time>2026-08-18T03:23:57.000Z</time>
      </trkpt>
      <trkpt lat="22.849895" lon="110.732200">
        <ele>166.241969</ele>
        <time>2026-08-18T03:23:58.000Z</time>
      </trkpt>
      <trkpt lat="22.849875" lon="110.732228">
        <ele>166.273839</ele>
        <time>2026-08-18T03:23:59.000Z</time>
      </trkpt>
      <trkpt lat="22.849854" lon="110.732256">
        <ele>166.306316</ele>
        <time>2026-08-18T03:24:00.000Z</time>
      </trkpt>
      <trkpt lat="22.849833" lon="110.732283">
        <ele>166.338101</ele>
        <time>2026-08-18T03:24:01.000Z</time>
      </trkpt>
      <trkpt lat="22.849813" lon="110.732311">
        <ele>166.369972</ele>
        <time>2026-08-18T03:24:02.000Z</time>
      </trkpt>
      <trkpt lat="22.849792" lon="110.732338">
        <ele>166.401756</ele>
        <time>2026-08-18T03:24:03.000Z</time>
      </trkpt>
      <trkpt lat="22.849769" lon="110.732365">
        <ele>166.434834</ele>
        <time>2026-08-18T03:24:04.000Z</time>
      </trkpt>
      <trkpt lat="22.849746" lon="110.732393">
        <ele>166.468578</ele>
        <time>2026-08-18T03:24:05.000Z</time>
      </trkpt>
      <trkpt lat="22.849723" lon="110.732422">
        <ele>166.502999</ele>
        <time>2026-08-18T03:24:06.000Z</time>
      </trkpt>
      <trkpt lat="22.849701" lon="110.732453">
        <ele>166.538199</ele>
        <time>2026-08-18T03:24:07.000Z</time>
      </trkpt>
      <trkpt lat="22.849680" lon="110.732483">
        <ele>166.572091</ele>
        <time>2026-08-18T03:24:08.000Z</time>
      </trkpt>
      <trkpt lat="22.849657" lon="110.732513">
        <ele>166.607198</ele>
        <time>2026-08-18T03:24:09.000Z</time>
      </trkpt>
      <trkpt lat="22.849634" lon="110.732541">
        <ele>166.640942</ele>
        <time>2026-08-18T03:24:10.000Z</time>
      </trkpt>
      <trkpt lat="22.849611" lon="110.732571">
        <ele>166.676050</ele>
        <time>2026-08-18T03:24:11.000Z</time>
      </trkpt>
      <trkpt lat="22.849589" lon="110.732599">
        <ele>166.709152</ele>
        <time>2026-08-18T03:24:12.000Z</time>
      </trkpt>
      <trkpt lat="22.849567" lon="110.732630">
        <ele>166.744352</ele>
        <time>2026-08-18T03:24:13.000Z</time>
      </trkpt>
      <trkpt lat="22.849544" lon="110.732661">
        <ele>166.780156</ele>
        <time>2026-08-18T03:24:14.000Z</time>
      </trkpt>
      <trkpt lat="22.849521" lon="110.732691">
        <ele>166.815263</ele>
        <time>2026-08-18T03:24:15.000Z</time>
      </trkpt>
      <trkpt lat="22.849500" lon="110.732722">
        <ele>166.849876</ele>
        <time>2026-08-18T03:24:16.000Z</time>
      </trkpt>
      <trkpt lat="22.849480" lon="110.732753">
        <ele>166.883920</ele>
        <time>2026-08-18T03:24:17.000Z</time>
      </trkpt>
      <trkpt lat="22.849459" lon="110.732785">
        <ele>166.919261</ele>
        <time>2026-08-18T03:24:18.000Z</time>
      </trkpt>
      <trkpt lat="22.849439" lon="110.732816">
        <ele>166.953305</ele>
        <time>2026-08-18T03:24:19.000Z</time>
      </trkpt>
      <trkpt lat="22.849416" lon="110.732843">
        <ele>166.986383</ele>
        <time>2026-08-18T03:24:20.000Z</time>
      </trkpt>
      <trkpt lat="22.849394" lon="110.732873">
        <ele>167.020874</ele>
        <time>2026-08-18T03:24:21.000Z</time>
      </trkpt>
      <trkpt lat="22.849369" lon="110.732903">
        <ele>167.057261</ele>
        <time>2026-08-18T03:24:22.000Z</time>
      </trkpt>
      <trkpt lat="22.849345" lon="110.732933">
        <ele>167.093001</ele>
        <time>2026-08-18T03:24:23.000Z</time>
      </trkpt>
      <trkpt lat="22.849320" lon="110.732963">
        <ele>167.129388</ele>
        <time>2026-08-18T03:24:24.000Z</time>
      </trkpt>
      <trkpt lat="22.849297" lon="110.732991">
        <ele>167.163132</ele>
        <time>2026-08-18T03:24:25.000Z</time>
      </trkpt>
      <trkpt lat="22.849273" lon="110.733021">
        <ele>167.198872</ele>
        <time>2026-08-18T03:24:26.000Z</time>
      </trkpt>
      <trkpt lat="22.849250" lon="110.733052">
        <ele>167.234676</ele>
        <time>2026-08-18T03:24:27.000Z</time>
      </trkpt>
      <trkpt lat="22.849228" lon="110.733084">
        <ele>167.270593</ele>
        <time>2026-08-18T03:24:28.000Z</time>
      </trkpt>
      <trkpt lat="22.849206" lon="110.733117">
        <ele>167.307234</ele>
        <time>2026-08-18T03:24:29.000Z</time>
      </trkpt>
      <trkpt lat="22.849185" lon="110.733150">
        <ele>167.343313</ele>
        <time>2026-08-18T03:24:30.000Z</time>
      </trkpt>
      <trkpt lat="22.849163" lon="110.733181">
        <ele>167.378512</ele>
        <time>2026-08-18T03:24:31.000Z</time>
      </trkpt>
      <trkpt lat="22.849140" lon="110.733215">
        <ele>167.416456</ele>
        <time>2026-08-18T03:24:32.000Z</time>
      </trkpt>
      <trkpt lat="22.849116" lon="110.733249">
        <ele>167.454986</ele>
        <time>2026-08-18T03:24:33.000Z</time>
      </trkpt>
      <trkpt lat="22.849094" lon="110.733282">
        <ele>167.491627</ele>
        <time>2026-08-18T03:24:34.000Z</time>
      </trkpt>
      <trkpt lat="22.849074" lon="110.733317">
        <ele>167.528677</ele>
        <time>2026-08-18T03:24:35.000Z</time>
      </trkpt>
      <trkpt lat="22.849053" lon="110.733350">
        <ele>167.564755</ele>
        <time>2026-08-18T03:24:36.000Z</time>
      </trkpt>
      <trkpt lat="22.849034" lon="110.733385">
        <ele>167.601299</ele>
        <time>2026-08-18T03:24:37.000Z</time>
      </trkpt>
      <trkpt lat="22.849014" lon="110.733419">
        <ele>167.637586</ele>
        <time>2026-08-18T03:24:38.000Z</time>
      </trkpt>
      <trkpt lat="22.848997" lon="110.733456">
        <ele>167.674780</ele>
        <time>2026-08-18T03:24:39.000Z</time>
      </trkpt>
      <trkpt lat="22.848979" lon="110.733492">
        <ele>167.711627</ele>
        <time>2026-08-18T03:24:40.000Z</time>
      </trkpt>
      <trkpt lat="22.848961" lon="110.733527">
        <ele>167.753416</ele>
        <time>2026-08-18T03:24:41.000Z</time>
      </trkpt>
      <trkpt lat="22.848941" lon="110.733564">
        <ele>167.798185</ele>
        <time>2026-08-18T03:24:42.000Z</time>
      </trkpt>
      <trkpt lat="22.848923" lon="110.733604">
        <ele>167.844644</ele>
        <time>2026-08-18T03:24:43.000Z</time>
      </trkpt>
      <trkpt lat="22.848903" lon="110.733640">
        <ele>167.888517</ele>
        <time>2026-08-18T03:24:44.000Z</time>
      </trkpt>
      <trkpt lat="22.848885" lon="110.733677">
        <ele>167.932184</ele>
        <time>2026-08-18T03:24:45.000Z</time>
      </trkpt>
      <trkpt lat="22.848867" lon="110.733716">
        <ele>167.977708</ele>
        <time>2026-08-18T03:24:46.000Z</time>
      </trkpt>
      <trkpt lat="22.848849" lon="110.733756">
        <ele>168.024167</ele>
        <time>2026-08-18T03:24:47.000Z</time>
      </trkpt>
      <trkpt lat="22.848831" lon="110.733795">
        <ele>168.069690</ele>
        <time>2026-08-18T03:24:48.000Z</time>
      </trkpt>
      <trkpt lat="22.848814" lon="110.733834">
        <ele>168.114718</ele>
        <time>2026-08-18T03:24:49.000Z</time>
      </trkpt>
      <trkpt lat="22.848798" lon="110.733873">
        <ele>168.159273</ele>
        <time>2026-08-18T03:24:50.000Z</time>
      </trkpt>
      <trkpt lat="22.848782" lon="110.733914">
        <ele>168.205743</ele>
        <time>2026-08-18T03:24:51.000Z</time>
      </trkpt>
      <trkpt lat="22.848765" lon="110.733953">
        <ele>168.250771</ele>
        <time>2026-08-18T03:24:52.000Z</time>
      </trkpt>
      <trkpt lat="22.848749" lon="110.733994">
        <ele>168.297241</ele>
        <time>2026-08-18T03:24:53.000Z</time>
      </trkpt>
      <trkpt lat="22.848735" lon="110.734034">
        <ele>168.341899</ele>
        <time>2026-08-18T03:24:54.000Z</time>
      </trkpt>
      <trkpt lat="22.848721" lon="110.734074">
        <ele>168.386556</ele>
        <time>2026-08-18T03:24:55.000Z</time>
      </trkpt>
      <trkpt lat="22.848708" lon="110.734116">
        <ele>168.432797</ele>
        <time>2026-08-18T03:24:56.000Z</time>
      </trkpt>
      <trkpt lat="22.848695" lon="110.734158">
        <ele>168.479039</ele>
        <time>2026-08-18T03:24:57.000Z</time>
      </trkpt>
      <trkpt lat="22.848682" lon="110.734198">
        <ele>168.523307</ele>
        <time>2026-08-18T03:24:58.000Z</time>
      </trkpt>
      <trkpt lat="22.848670" lon="110.734239">
        <ele>168.568204</ele>
        <time>2026-08-18T03:24:59.000Z</time>
      </trkpt>
      <trkpt lat="22.848658" lon="110.734281">
        <ele>168.614098</ele>
        <time>2026-08-18T03:25:00.000Z</time>
      </trkpt>
      <trkpt lat="22.848647" lon="110.734323">
        <ele>168.659669</ele>
        <time>2026-08-18T03:25:01.000Z</time>
      </trkpt>
      <trkpt lat="22.848636" lon="110.734363">
        <ele>168.703236</ele>
        <time>2026-08-18T03:25:02.000Z</time>
      </trkpt>
      <trkpt lat="22.848626" lon="110.734402">
        <ele>168.745486</ele>
        <time>2026-08-18T03:25:03.000Z</time>
      </trkpt>
      <trkpt lat="22.848618" lon="110.734441">
        <ele>168.787186</ele>
        <time>2026-08-18T03:25:04.000Z</time>
      </trkpt>
      <trkpt lat="22.848609" lon="110.734481">
        <ele>168.830160</ele>
        <time>2026-08-18T03:25:05.000Z</time>
      </trkpt>
      <trkpt lat="22.848600" lon="110.734521">
        <ele>168.873134</ele>
        <time>2026-08-18T03:25:06.000Z</time>
      </trkpt>
      <trkpt lat="22.848593" lon="110.734562">
        <ele>168.916654</ele>
        <time>2026-08-18T03:25:07.000Z</time>
      </trkpt>
      <trkpt lat="22.848585" lon="110.734606">
        <ele>168.963461</ele>
        <time>2026-08-18T03:25:08.000Z</time>
      </trkpt>
      <trkpt lat="22.848578" lon="110.734650">
        <ele>169.010063</ele>
        <time>2026-08-18T03:25:09.000Z</time>
      </trkpt>
      <trkpt lat="22.848571" lon="110.734693">
        <ele>169.055636</ele>
        <time>2026-08-18T03:25:10.000Z</time>
      </trkpt>
      <trkpt lat="22.848564" lon="110.734735">
        <ele>169.100183</ele>
        <time>2026-08-18T03:25:11.000Z</time>
      </trkpt>
      <trkpt lat="22.848559" lon="110.734776">
        <ele>169.143347</ele>
        <time>2026-08-18T03:25:12.000Z</time>
      </trkpt>
      <trkpt lat="22.848554" lon="110.734819">
        <ele>169.188582</ele>
        <time>2026-08-18T03:25:13.000Z</time>
      </trkpt>
      <trkpt lat="22.848547" lon="110.734862">
        <ele>169.234155</ele>
        <time>2026-08-18T03:25:14.000Z</time>
      </trkpt>
      <trkpt lat="22.848540" lon="110.734904">
        <ele>169.278701</ele>
        <time>2026-08-18T03:25:15.000Z</time>
      </trkpt>
      <trkpt lat="22.848533" lon="110.734946">
        <ele>169.323248</ele>
        <time>2026-08-18T03:25:16.000Z</time>
      </trkpt>
      <trkpt lat="22.848526" lon="110.734986">
        <ele>169.365741</ele>
        <time>2026-08-18T03:25:17.000Z</time>
      </trkpt>
      <trkpt lat="22.848519" lon="110.735023">
        <ele>169.405163</ele>
        <time>2026-08-18T03:25:18.000Z</time>
      </trkpt>
      <trkpt lat="22.848514" lon="110.735054">
        <ele>169.438010</ele>
        <time>2026-08-18T03:25:19.000Z</time>
      </trkpt>
      <trkpt lat="22.848510" lon="110.735074">
        <ele>169.459369</ele>
        <time>2026-08-18T03:25:20.000Z</time>
      </trkpt>
      <trkpt lat="22.848509" lon="110.735083">
        <ele>169.468831</ele>
        <time>2026-08-18T03:25:21.000Z</time>
      </trkpt>
      <trkpt lat="22.848510" lon="110.735094">
        <ele>169.480367</ele>
        <time>2026-08-18T03:26:48.000Z</time>
      </trkpt>
      <trkpt lat="22.848513" lon="110.735120">
        <ele>169.507715</ele>
        <time>2026-08-18T03:26:49.000Z</time>
      </trkpt>
      <trkpt lat="22.848514" lon="110.735158">
        <ele>169.547391</ele>
        <time>2026-08-18T03:26:50.000Z</time>
      </trkpt>
      <trkpt lat="22.848513" lon="110.735186">
        <ele>169.576637</ele>
        <time>2026-08-18T03:26:51.000Z</time>
      </trkpt>
      <trkpt lat="22.848511" lon="110.735219">
        <ele>169.611153</ele>
        <time>2026-08-18T03:26:52.000Z</time>
      </trkpt>
      <trkpt lat="22.848509" lon="110.735252">
        <ele>169.645669</ele>
        <time>2026-08-18T03:26:53.000Z</time>
      </trkpt>
      <trkpt lat="22.848511" lon="110.735284">
        <ele>169.679144</ele>
        <time>2026-08-18T03:26:54.000Z</time>
      </trkpt>
      <trkpt lat="22.848514" lon="110.735313">
        <ele>169.709601</ele>
        <time>2026-08-18T03:26:55.000Z</time>
      </trkpt>
      <trkpt lat="22.848515" lon="110.735347">
        <ele>169.745105</ele>
        <time>2026-08-18T03:26:56.000Z</time>
      </trkpt>
      <trkpt lat="22.848516" lon="110.735383">
        <ele>169.788269</ele>
        <time>2026-08-18T03:26:57.000Z</time>
      </trkpt>
      <trkpt lat="22.848516" lon="110.735418">
        <ele>169.830836</ele>
        <time>2026-08-18T03:26:58.000Z</time>
      </trkpt>
      <trkpt lat="22.848513" lon="110.735452">
        <ele>169.872376</ele>
        <time>2026-08-18T03:26:59.000Z</time>
      </trkpt>
      <trkpt lat="22.848511" lon="110.735487">
        <ele>169.915024</ele>
        <time>2026-08-18T03:27:00.000Z</time>
      </trkpt>
      <trkpt lat="22.848511" lon="110.735522">
        <ele>169.957591</ele>
        <time>2026-08-18T03:27:01.000Z</time>
      </trkpt>
      <trkpt lat="22.848516" lon="110.735559">
        <ele>170.003072</ele>
        <time>2026-08-18T03:27:02.000Z</time>
      </trkpt>
      <trkpt lat="22.848519" lon="110.735595">
        <ele>170.047033</ele>
        <time>2026-08-18T03:27:03.000Z</time>
      </trkpt>
      <trkpt lat="22.848525" lon="110.735632">
        <ele>170.092724</ele>
        <time>2026-08-18T03:27:04.000Z</time>
      </trkpt>
      <trkpt lat="22.848531" lon="110.735672">
        <ele>170.142012</ele>
        <time>2026-08-18T03:27:05.000Z</time>
      </trkpt>
      <trkpt lat="22.848538" lon="110.735711">
        <ele>170.190335</ele>
        <time>2026-08-18T03:27:06.000Z</time>
      </trkpt>
      <trkpt lat="22.848546" lon="110.735751">
        <ele>170.240115</ele>
        <time>2026-08-18T03:27:07.000Z</time>
      </trkpt>
      <trkpt lat="22.848551" lon="110.735790">
        <ele>170.288004</ele>
        <time>2026-08-18T03:27:08.000Z</time>
      </trkpt>
      <trkpt lat="22.848556" lon="110.735829">
        <ele>170.335892</ele>
        <time>2026-08-18T03:27:09.000Z</time>
      </trkpt>
      <trkpt lat="22.848563" lon="110.735872">
        <ele>170.388998</ele>
        <time>2026-08-18T03:27:10.000Z</time>
      </trkpt>
      <trkpt lat="22.848571" lon="110.735912">
        <ele>170.438779</ele>
        <time>2026-08-18T03:27:11.000Z</time>
      </trkpt>
      <trkpt lat="22.848578" lon="110.735951">
        <ele>170.487102</ele>
        <time>2026-08-18T03:27:12.000Z</time>
      </trkpt>
      <trkpt lat="22.848586" lon="110.735990">
        <ele>170.535694</ele>
        <time>2026-08-18T03:27:13.000Z</time>
      </trkpt>
      <trkpt lat="22.848592" lon="110.736031">
        <ele>170.586183</ele>
        <time>2026-08-18T03:27:14.000Z</time>
      </trkpt>
      <trkpt lat="22.848600" lon="110.736071">
        <ele>170.635963</ele>
        <time>2026-08-18T03:27:15.000Z</time>
      </trkpt>
      <trkpt lat="22.848611" lon="110.736112">
        <ele>170.687897</ele>
        <time>2026-08-18T03:27:16.000Z</time>
      </trkpt>
      <trkpt lat="22.848622" lon="110.736155">
        <ele>170.742171</ele>
        <time>2026-08-18T03:27:17.000Z</time>
      </trkpt>
      <trkpt lat="22.848634" lon="110.736198">
        <ele>170.796813</ele>
        <time>2026-08-18T03:27:18.000Z</time>
      </trkpt>
      <trkpt lat="22.848641" lon="110.736239">
        <ele>170.847526</ele>
        <time>2026-08-18T03:27:19.000Z</time>
      </trkpt>
      <trkpt lat="22.848653" lon="110.736279">
        <ele>170.898686</ele>
        <time>2026-08-18T03:27:20.000Z</time>
      </trkpt>
      <trkpt lat="22.848664" lon="110.736318">
        <ele>170.948290</ele>
        <time>2026-08-18T03:27:21.000Z</time>
      </trkpt>
      <trkpt lat="22.848674" lon="110.736356">
        <ele>170.996353</ele>
        <time>2026-08-18T03:27:22.000Z</time>
      </trkpt>
      <trkpt lat="22.848688" lon="110.736398">
        <ele>171.050672</ele>
        <time>2026-08-18T03:27:23.000Z</time>
      </trkpt>
      <trkpt lat="22.848701" lon="110.736440">
        <ele>171.104556</ele>
        <time>2026-08-18T03:27:24.000Z</time>
      </trkpt>
      <trkpt lat="22.848715" lon="110.736480">
        <ele>171.156595</ele>
        <time>2026-08-18T03:27:25.000Z</time>
      </trkpt>
      <trkpt lat="22.848730" lon="110.736521">
        <ele>171.210244</ele>
        <time>2026-08-18T03:27:26.000Z</time>
      </trkpt>
      <trkpt lat="22.848744" lon="110.736561">
        <ele>171.262283</ele>
        <time>2026-08-18T03:27:27.000Z</time>
      </trkpt>
      <trkpt lat="22.848759" lon="110.736601">
        <ele>171.314804</ele>
        <time>2026-08-18T03:27:28.000Z</time>
      </trkpt>
      <trkpt lat="22.848775" lon="110.736641">
        <ele>171.367837</ele>
        <time>2026-08-18T03:27:29.000Z</time>
      </trkpt>
      <trkpt lat="22.848791" lon="110.736678">
        <ele>171.417544</ele>
        <time>2026-08-18T03:27:30.000Z</time>
      </trkpt>
      <trkpt lat="22.848808" lon="110.736717">
        <ele>171.470014</ele>
        <time>2026-08-18T03:27:31.000Z</time>
      </trkpt>
      <trkpt lat="22.848823" lon="110.736756">
        <ele>171.521411</ele>
        <time>2026-08-18T03:27:32.000Z</time>
      </trkpt>
      <trkpt lat="22.848839" lon="110.736796">
        <ele>171.574444</ele>
        <time>2026-08-18T03:27:33.000Z</time>
      </trkpt>
      <trkpt lat="22.848856" lon="110.736837">
        <ele>171.629123</ele>
        <time>2026-08-18T03:27:34.000Z</time>
      </trkpt>
      <trkpt lat="22.848875" lon="110.736879">
        <ele>171.686026</ele>
        <time>2026-08-18T03:27:35.000Z</time>
      </trkpt>
      <trkpt lat="22.848894" lon="110.736921">
        <ele>171.742929</ele>
        <time>2026-08-18T03:27:36.000Z</time>
      </trkpt>
      <trkpt lat="22.848913" lon="110.736963">
        <ele>171.799832</ele>
        <time>2026-08-18T03:27:37.000Z</time>
      </trkpt>
      <trkpt lat="22.848935" lon="110.737005">
        <ele>171.858587</ele>
        <time>2026-08-18T03:27:38.000Z</time>
      </trkpt>
      <trkpt lat="22.848955" lon="110.737046">
        <ele>171.915006</ele>
        <time>2026-08-18T03:27:39.000Z</time>
      </trkpt>
      <trkpt lat="22.848978" lon="110.737087">
        <ele>171.973382</ele>
        <time>2026-08-18T03:27:40.000Z</time>
      </trkpt>
      <trkpt lat="22.849000" lon="110.737128">
        <ele>172.031083</ele>
        <time>2026-08-18T03:27:41.000Z</time>
      </trkpt>
      <trkpt lat="22.849017" lon="110.737164">
        <ele>172.080280</ele>
        <time>2026-08-18T03:27:42.000Z</time>
      </trkpt>
      <trkpt lat="22.849034" lon="110.737201">
        <ele>172.138224</ele>
        <time>2026-08-18T03:27:43.000Z</time>
      </trkpt>
      <trkpt lat="22.849053" lon="110.737239">
        <ele>172.242230</ele>
        <time>2026-08-18T03:27:44.000Z</time>
      </trkpt>
      <trkpt lat="22.849074" lon="110.737278">
        <ele>172.350895</ele>
        <time>2026-08-18T03:27:45.000Z</time>
      </trkpt>
      <trkpt lat="22.849096" lon="110.737318">
        <ele>172.462959</ele>
        <time>2026-08-18T03:27:46.000Z</time>
      </trkpt>
      <trkpt lat="22.849114" lon="110.737355">
        <ele>172.563612</ele>
        <time>2026-08-18T03:27:47.000Z</time>
      </trkpt>
      <trkpt lat="22.849137" lon="110.737394">
        <ele>172.675002</ele>
        <time>2026-08-18T03:27:48.000Z</time>
      </trkpt>
      <trkpt lat="22.849158" lon="110.737432">
        <ele>172.781597</ele>
        <time>2026-08-18T03:27:49.000Z</time>
      </trkpt>
      <trkpt lat="22.849183" lon="110.737470">
        <ele>172.893920</ele>
        <time>2026-08-18T03:27:50.000Z</time>
      </trkpt>
      <trkpt lat="22.849205" lon="110.737506">
        <ele>172.997838</ele>
        <time>2026-08-18T03:27:51.000Z</time>
      </trkpt>
      <trkpt lat="22.849229" lon="110.737544">
        <ele>173.108664</ele>
        <time>2026-08-18T03:27:52.000Z</time>
      </trkpt>
      <trkpt lat="22.849251" lon="110.737583">
        <ele>173.218669</ele>
        <time>2026-08-18T03:27:53.000Z</time>
      </trkpt>
      <trkpt lat="22.849274" lon="110.737621">
        <ele>173.328040</ele>
        <time>2026-08-18T03:27:54.000Z</time>
      </trkpt>
      <trkpt lat="22.849298" lon="110.737659">
        <ele>173.438867</ele>
        <time>2026-08-18T03:27:55.000Z</time>
      </trkpt>
      <trkpt lat="22.849321" lon="110.737698">
        <ele>173.550257</ele>
        <time>2026-08-18T03:27:56.000Z</time>
      </trkpt>
      <trkpt lat="22.849343" lon="110.737735">
        <ele>173.656188</ele>
        <time>2026-08-18T03:27:57.000Z</time>
      </trkpt>
      <trkpt lat="22.849365" lon="110.737772">
        <ele>173.762119</ele>
        <time>2026-08-18T03:27:58.000Z</time>
      </trkpt>
      <trkpt lat="22.849387" lon="110.737807">
        <ele>173.864041</ele>
        <time>2026-08-18T03:27:59.000Z</time>
      </trkpt>
      <trkpt lat="22.849410" lon="110.737843">
        <ele>173.969424</ele>
        <time>2026-08-18T03:28:00.000Z</time>
      </trkpt>
      <trkpt lat="22.849433" lon="110.737879">
        <ele>174.074807</ele>
        <time>2026-08-18T03:28:01.000Z</time>
      </trkpt>
      <trkpt lat="22.849455" lon="110.737916">
        <ele>174.180738</ele>
        <time>2026-08-18T03:28:02.000Z</time>
      </trkpt>
      <trkpt lat="22.849477" lon="110.737955">
        <ele>174.290743</ele>
        <time>2026-08-18T03:28:03.000Z</time>
      </trkpt>
      <trkpt lat="22.849499" lon="110.737992">
        <ele>174.396674</ele>
        <time>2026-08-18T03:28:04.000Z</time>
      </trkpt>
      <trkpt lat="22.849521" lon="110.738031">
        <ele>174.506679</ele>
        <time>2026-08-18T03:28:05.000Z</time>
      </trkpt>
      <trkpt lat="22.849541" lon="110.738067">
        <ele>174.607805</ele>
        <time>2026-08-18T03:28:06.000Z</time>
      </trkpt>
      <trkpt lat="22.849562" lon="110.738102">
        <ele>174.708278</ele>
        <time>2026-08-18T03:28:07.000Z</time>
      </trkpt>
      <trkpt lat="22.849583" lon="110.738137">
        <ele>174.808752</ele>
        <time>2026-08-18T03:28:08.000Z</time>
      </trkpt>
      <trkpt lat="22.849605" lon="110.738171">
        <ele>174.908695</ele>
        <time>2026-08-18T03:28:09.000Z</time>
      </trkpt>
      <trkpt lat="22.849626" lon="110.738205">
        <ele>175.007162</ele>
        <time>2026-08-18T03:28:10.000Z</time>
      </trkpt>
      <trkpt lat="22.849648" lon="110.738239">
        <ele>175.107105</ele>
        <time>2026-08-18T03:28:11.000Z</time>
      </trkpt>
      <trkpt lat="22.849672" lon="110.738271">
        <ele>175.206361</ele>
        <time>2026-08-18T03:28:12.000Z</time>
      </trkpt>
      <trkpt lat="22.849699" lon="110.738303">
        <ele>175.310737</ele>
        <time>2026-08-18T03:28:13.000Z</time>
      </trkpt>
      <trkpt lat="22.849720" lon="110.738334">
        <ele>175.403295</ele>
        <time>2026-08-18T03:28:14.000Z</time>
      </trkpt>
      <trkpt lat="22.849741" lon="110.738366">
        <ele>175.497803</ele>
        <time>2026-08-18T03:28:15.000Z</time>
      </trkpt>
      <trkpt lat="22.849761" lon="110.738399">
        <ele>175.592821</ele>
        <time>2026-08-18T03:28:16.000Z</time>
      </trkpt>
      <trkpt lat="22.849779" lon="110.738430">
        <ele>175.680967</ele>
        <time>2026-08-18T03:28:17.000Z</time>
      </trkpt>
      <trkpt lat="22.849797" lon="110.738460">
        <ele>175.767087</ele>
        <time>2026-08-18T03:28:18.000Z</time>
      </trkpt>
      <trkpt lat="22.849815" lon="110.738489">
        <ele>175.851201</ele>
        <time>2026-08-18T03:28:19.000Z</time>
      </trkpt>
      <trkpt lat="22.849834" lon="110.738518">
        <ele>175.936802</ele>
        <time>2026-08-18T03:28:20.000Z</time>
      </trkpt>
      <trkpt lat="22.849851" lon="110.738546">
        <ele>176.017466</ele>
        <time>2026-08-18T03:28:21.000Z</time>
      </trkpt>
      <trkpt lat="22.849868" lon="110.738573">
        <ele>176.096134</ele>
        <time>2026-08-18T03:28:22.000Z</time>
      </trkpt>
      <trkpt lat="22.849884" lon="110.738601">
        <ele>176.175392</ele>
        <time>2026-08-18T03:28:23.000Z</time>
      </trkpt>
      <trkpt lat="22.849899" lon="110.738629">
        <ele>176.253307</ele>
        <time>2026-08-18T03:28:24.000Z</time>
      </trkpt>
      <trkpt lat="22.849916" lon="110.738657">
        <ele>176.333971</ele>
        <time>2026-08-18T03:28:25.000Z</time>
      </trkpt>
      <trkpt lat="22.849932" lon="110.738683">
        <ele>176.409184</ele>
        <time>2026-08-18T03:28:26.000Z</time>
      </trkpt>
      <trkpt lat="22.849949" lon="110.738708">
        <ele>176.483927</ele>
        <time>2026-08-18T03:28:27.000Z</time>
      </trkpt>
      <trkpt lat="22.849967" lon="110.738734">
        <ele>176.562160</ele>
        <time>2026-08-18T03:28:28.000Z</time>
      </trkpt>
      <trkpt lat="22.849984" lon="110.738760">
        <ele>176.638853</ele>
        <time>2026-08-18T03:28:29.000Z</time>
      </trkpt>
      <trkpt lat="22.850000" lon="110.738787">
        <ele>176.716077</ele>
        <time>2026-08-18T03:28:30.000Z</time>
      </trkpt>
      <trkpt lat="22.850017" lon="110.738813">
        <ele>176.792770</ele>
        <time>2026-08-18T03:28:31.000Z</time>
      </trkpt>
      <trkpt lat="22.850034" lon="110.738839">
        <ele>176.895896</ele>
        <time>2026-08-18T03:28:32.000Z</time>
      </trkpt>
      <trkpt lat="22.850052" lon="110.738862">
        <ele>177.005908</ele>
        <time>2026-08-18T03:28:33.000Z</time>
      </trkpt>
      <trkpt lat="22.850071" lon="110.738887">
        <ele>177.124051</ele>
        <time>2026-08-18T03:28:34.000Z</time>
      </trkpt>
      <trkpt lat="22.850087" lon="110.738914">
        <ele>177.241083</ele>
        <time>2026-08-18T03:28:35.000Z</time>
      </trkpt>
      <trkpt lat="22.850102" lon="110.738942">
        <ele>177.359162</ele>
        <time>2026-08-18T03:28:36.000Z</time>
      </trkpt>
      <trkpt lat="22.850116" lon="110.738968">
        <ele>177.468948</ele>
        <time>2026-08-18T03:28:37.000Z</time>
      </trkpt>
      <trkpt lat="22.850132" lon="110.738994">
        <ele>177.582931</ele>
        <time>2026-08-18T03:28:38.000Z</time>
      </trkpt>
      <trkpt lat="22.850149" lon="110.739022">
        <ele>177.705177</ele>
        <time>2026-08-18T03:28:39.000Z</time>
      </trkpt>
      <trkpt lat="22.850165" lon="110.739049">
        <ele>177.822210</ele>
        <time>2026-08-18T03:28:40.000Z</time>
      </trkpt>
      <trkpt lat="22.850181" lon="110.739075">
        <ele>177.936193</ele>
        <time>2026-08-18T03:28:41.000Z</time>
      </trkpt>
      <trkpt lat="22.850198" lon="110.739103">
        <ele>178.058439</ele>
        <time>2026-08-18T03:28:42.000Z</time>
      </trkpt>
      <trkpt lat="22.850215" lon="110.739130">
        <ele>178.177658</ele>
        <time>2026-08-18T03:28:43.000Z</time>
      </trkpt>
      <trkpt lat="22.850231" lon="110.739157">
        <ele>178.294690</ele>
        <time>2026-08-18T03:28:44.000Z</time>
      </trkpt>
      <trkpt lat="22.850247" lon="110.739183">
        <ele>178.408673</ele>
        <time>2026-08-18T03:28:45.000Z</time>
      </trkpt>
      <trkpt lat="22.850262" lon="110.739208">
        <ele>178.517434</ele>
        <time>2026-08-18T03:28:46.000Z</time>
      </trkpt>
      <trkpt lat="22.850278" lon="110.739233">
        <ele>178.628404</ele>
        <time>2026-08-18T03:28:47.000Z</time>
      </trkpt>
      <trkpt lat="22.850292" lon="110.739258">
        <ele>178.735058</ele>
        <time>2026-08-18T03:28:48.000Z</time>
      </trkpt>
      <trkpt lat="22.850306" lon="110.739283">
        <ele>178.841712</ele>
        <time>2026-08-18T03:28:49.000Z</time>
      </trkpt>
      <trkpt lat="22.850319" lon="110.739307">
        <ele>178.943207</ele>
        <time>2026-08-18T03:28:50.000Z</time>
      </trkpt>
      <trkpt lat="22.850333" lon="110.739333">
        <ele>179.052993</ele>
        <time>2026-08-18T03:28:51.000Z</time>
      </trkpt>
      <trkpt lat="22.850348" lon="110.739359">
        <ele>179.164828</ele>
        <time>2026-08-18T03:28:52.000Z</time>
      </trkpt>
      <trkpt lat="22.850362" lon="110.739383">
        <ele>179.268383</ele>
        <time>2026-08-18T03:28:53.000Z</time>
      </trkpt>
      <trkpt lat="22.850377" lon="110.739407">
        <ele>179.374108</ele>
        <time>2026-08-18T03:28:54.000Z</time>
      </trkpt>
      <trkpt lat="22.850391" lon="110.739429">
        <ele>179.471581</ele>
        <time>2026-08-18T03:28:55.000Z</time>
      </trkpt>
      <trkpt lat="22.850407" lon="110.739453">
        <ele>179.579576</ele>
        <time>2026-08-18T03:28:56.000Z</time>
      </trkpt>
      <trkpt lat="22.850422" lon="110.739478">
        <ele>179.688337</ele>
        <time>2026-08-18T03:28:57.000Z</time>
      </trkpt>
      <trkpt lat="22.850434" lon="110.739502">
        <ele>179.787886</ele>
        <time>2026-08-18T03:28:58.000Z</time>
      </trkpt>
      <trkpt lat="22.850448" lon="110.739527">
        <ele>179.894540</ele>
        <time>2026-08-18T03:28:59.000Z</time>
      </trkpt>
      <trkpt lat="22.850462" lon="110.739550">
        <ele>179.995034</ele>
        <time>2026-08-18T03:29:00.000Z</time>
      </trkpt>
      <trkpt lat="22.850477" lon="110.739575">
        <ele>180.103796</ele>
        <time>2026-08-18T03:29:01.000Z</time>
      </trkpt>
      <trkpt lat="22.850490" lon="110.739601">
        <ele>180.211640</ele>
        <time>2026-08-18T03:29:02.000Z</time>
      </trkpt>
      <trkpt lat="22.850504" lon="110.739628">
        <ele>180.324588</ele>
        <time>2026-08-18T03:29:03.000Z</time>
      </trkpt>
      <trkpt lat="22.850518" lon="110.739654">
        <ele>180.434374</ele>
        <time>2026-08-18T03:29:04.000Z</time>
      </trkpt>
      <trkpt lat="22.850534" lon="110.739679">
        <ele>180.545344</ele>
        <time>2026-08-18T03:29:05.000Z</time>
      </trkpt>
      <trkpt lat="22.850549" lon="110.739706">
        <ele>180.660284</ele>
        <time>2026-08-18T03:29:06.000Z</time>
      </trkpt>
      <trkpt lat="22.850562" lon="110.739731">
        <ele>180.764939</ele>
        <time>2026-08-18T03:29:07.000Z</time>
      </trkpt>
      <trkpt lat="22.850574" lon="110.739757">
        <ele>180.870953</ele>
        <time>2026-08-18T03:29:08.000Z</time>
      </trkpt>
      <trkpt lat="22.850587" lon="110.739784">
        <ele>180.982015</ele>
        <time>2026-08-18T03:29:09.000Z</time>
      </trkpt>
      <trkpt lat="22.850601" lon="110.739810">
        <ele>181.091801</ele>
        <time>2026-08-18T03:29:10.000Z</time>
      </trkpt>
      <trkpt lat="22.850615" lon="110.739837">
        <ele>181.204750</ele>
        <time>2026-08-18T03:29:11.000Z</time>
      </trkpt>
      <trkpt lat="22.850629" lon="110.739864">
        <ele>181.317699</ele>
        <time>2026-08-18T03:29:12.000Z</time>
      </trkpt>
      <trkpt lat="22.850643" lon="110.739892">
        <ele>181.433838</ele>
        <time>2026-08-18T03:29:13.000Z</time>
      </trkpt>
      <trkpt lat="22.850658" lon="110.739920">
        <ele>181.551916</ele>
        <time>2026-08-18T03:29:14.000Z</time>
      </trkpt>
      <trkpt lat="22.850673" lon="110.739946">
        <ele>181.663750</ele>
        <time>2026-08-18T03:29:15.000Z</time>
      </trkpt>
      <trkpt lat="22.850687" lon="110.739973">
        <ele>181.776699</ele>
        <time>2026-08-18T03:29:16.000Z</time>
      </trkpt>
      <trkpt lat="22.850700" lon="110.740001">
        <ele>181.891005</ele>
        <time>2026-08-18T03:29:17.000Z</time>
      </trkpt>
      <trkpt lat="22.850713" lon="110.740030">
        <ele>182.008578</ele>
        <time>2026-08-18T03:29:18.000Z</time>
      </trkpt>
      <trkpt lat="22.850726" lon="110.740057">
        <ele>182.119640</ele>
        <time>2026-08-18T03:29:19.000Z</time>
      </trkpt>
      <trkpt lat="22.850740" lon="110.740086">
        <ele>182.238997</ele>
        <time>2026-08-18T03:29:20.000Z</time>
      </trkpt>
      <trkpt lat="22.850752" lon="110.740114">
        <ele>182.351578</ele>
        <time>2026-08-18T03:29:21.000Z</time>
      </trkpt>
      <trkpt lat="22.850766" lon="110.740141">
        <ele>182.464527</ele>
        <time>2026-08-18T03:29:22.000Z</time>
      </trkpt>
      <trkpt lat="22.850779" lon="110.740170">
        <ele>182.582100</ele>
        <time>2026-08-18T03:29:23.000Z</time>
      </trkpt>
      <trkpt lat="22.850793" lon="110.740199">
        <ele>182.701457</ele>
        <time>2026-08-18T03:29:24.000Z</time>
      </trkpt>
      <trkpt lat="22.850806" lon="110.740228">
        <ele>182.819030</ele>
        <time>2026-08-18T03:29:25.000Z</time>
      </trkpt>
      <trkpt lat="22.850819" lon="110.740257">
        <ele>182.936603</ele>
        <time>2026-08-18T03:29:26.000Z</time>
      </trkpt>
      <trkpt lat="22.850834" lon="110.740285">
        <ele>183.054681</ele>
        <time>2026-08-18T03:29:27.000Z</time>
      </trkpt>
      <trkpt lat="22.850848" lon="110.740312">
        <ele>183.167629</ele>
        <time>2026-08-18T03:29:28.000Z</time>
      </trkpt>
      <trkpt lat="22.850862" lon="110.740339">
        <ele>183.280578</ele>
        <time>2026-08-18T03:29:29.000Z</time>
      </trkpt>
      <trkpt lat="22.850874" lon="110.740365">
        <ele>183.386592</ele>
        <time>2026-08-18T03:29:30.000Z</time>
      </trkpt>
      <trkpt lat="22.850885" lon="110.740391">
        <ele>183.490894</ele>
        <time>2026-08-18T03:29:31.000Z</time>
      </trkpt>
      <trkpt lat="22.850897" lon="110.740416">
        <ele>183.593662</ele>
        <time>2026-08-18T03:29:32.000Z</time>
      </trkpt>
      <trkpt lat="22.850910" lon="110.740442">
        <ele>183.701506</ele>
        <time>2026-08-18T03:29:33.000Z</time>
      </trkpt>
      <trkpt lat="22.850922" lon="110.740469">
        <ele>183.810792</ele>
        <time>2026-08-18T03:29:34.000Z</time>
      </trkpt>
      <trkpt lat="22.850933" lon="110.740495">
        <ele>183.915094</ele>
        <time>2026-08-18T03:29:35.000Z</time>
      </trkpt>
      <trkpt lat="22.850942" lon="110.740522">
        <ele>184.008800</ele>
        <time>2026-08-18T03:29:36.000Z</time>
      </trkpt>
      <trkpt lat="22.850952" lon="110.740549">
        <ele>184.101304</ele>
        <time>2026-08-18T03:29:37.000Z</time>
      </trkpt>
      <trkpt lat="22.850962" lon="110.740577">
        <ele>184.196766</ele>
        <time>2026-08-18T03:29:38.000Z</time>
      </trkpt>
      <trkpt lat="22.850972" lon="110.740604">
        <ele>184.289270</ele>
        <time>2026-08-18T03:29:39.000Z</time>
      </trkpt>
      <trkpt lat="22.850984" lon="110.740631">
        <ele>184.384563</ele>
        <time>2026-08-18T03:29:40.000Z</time>
      </trkpt>
      <trkpt lat="22.850996" lon="110.740660">
        <ele>184.485620</ele>
        <time>2026-08-18T03:29:41.000Z</time>
      </trkpt>
      <trkpt lat="22.851007" lon="110.740688">
        <ele>184.582382</ele>
        <time>2026-08-18T03:29:42.000Z</time>
      </trkpt>
      <trkpt lat="22.851018" lon="110.740715">
        <ele>184.676227</ele>
        <time>2026-08-18T03:29:43.000Z</time>
      </trkpt>
      <trkpt lat="22.851030" lon="110.740743">
        <ele>184.774393</ele>
        <time>2026-08-18T03:29:44.000Z</time>
      </trkpt>
      <trkpt lat="22.851042" lon="110.740771">
        <ele>184.872559</ele>
        <time>2026-08-18T03:29:45.000Z</time>
      </trkpt>
      <trkpt lat="22.851052" lon="110.740798">
        <ele>184.965063</ele>
        <time>2026-08-18T03:29:46.000Z</time>
      </trkpt>
      <trkpt lat="22.851063" lon="110.740826">
        <ele>185.061825</ele>
        <time>2026-08-18T03:29:47.000Z</time>
      </trkpt>
      <trkpt lat="22.851074" lon="110.740854">
        <ele>185.158586</ele>
        <time>2026-08-18T03:29:48.000Z</time>
      </trkpt>
      <trkpt lat="22.851085" lon="110.740883">
        <ele>185.258280</ele>
        <time>2026-08-18T03:29:49.000Z</time>
      </trkpt>
      <trkpt lat="22.851096" lon="110.740911">
        <ele>185.355042</ele>
        <time>2026-08-18T03:29:50.000Z</time>
      </trkpt>
      <trkpt lat="22.851107" lon="110.740939">
        <ele>185.451803</ele>
        <time>2026-08-18T03:29:51.000Z</time>
      </trkpt>
      <trkpt lat="22.851117" lon="110.740967">
        <ele>185.547265</ele>
        <time>2026-08-18T03:29:52.000Z</time>
      </trkpt>
      <trkpt lat="22.851128" lon="110.740995">
        <ele>185.644026</ele>
        <time>2026-08-18T03:29:53.000Z</time>
      </trkpt>
      <trkpt lat="22.851138" lon="110.741023">
        <ele>185.739488</ele>
        <time>2026-08-18T03:29:54.000Z</time>
      </trkpt>
      <trkpt lat="22.851149" lon="110.741051">
        <ele>185.836249</ele>
        <time>2026-08-18T03:29:55.000Z</time>
      </trkpt>
      <trkpt lat="22.851160" lon="110.741080">
        <ele>185.935943</ele>
        <time>2026-08-18T03:29:56.000Z</time>
      </trkpt>
      <trkpt lat="22.851172" lon="110.741110">
        <ele>186.039908</ele>
        <time>2026-08-18T03:29:57.000Z</time>
      </trkpt>
      <trkpt lat="22.851183" lon="110.741141">
        <ele>186.145509</ele>
        <time>2026-08-18T03:29:58.000Z</time>
      </trkpt>
      <trkpt lat="22.851194" lon="110.741172">
        <ele>186.251109</ele>
        <time>2026-08-18T03:29:59.000Z</time>
      </trkpt>
      <trkpt lat="22.851206" lon="110.741203">
        <ele>186.357998</ele>
        <time>2026-08-18T03:30:00.000Z</time>
      </trkpt>
      <trkpt lat="22.851218" lon="110.741234">
        <ele>186.464887</ele>
        <time>2026-08-18T03:30:01.000Z</time>
      </trkpt>
      <trkpt lat="22.851228" lon="110.741263">
        <ele>186.563319</ele>
        <time>2026-08-18T03:30:02.000Z</time>
      </trkpt>
      <trkpt lat="22.851238" lon="110.741294">
        <ele>186.667729</ele>
        <time>2026-08-18T03:30:03.000Z</time>
      </trkpt>
      <trkpt lat="22.851246" lon="110.741326">
        <ele>186.773132</ele>
        <time>2026-08-18T03:30:04.000Z</time>
      </trkpt>
      <trkpt lat="22.851254" lon="110.741356">
        <ele>186.872413</ele>
        <time>2026-08-18T03:30:05.000Z</time>
      </trkpt>
      <trkpt lat="22.851263" lon="110.741387">
        <ele>186.975736</ele>
        <time>2026-08-18T03:30:06.000Z</time>
      </trkpt>
      <trkpt lat="22.851274" lon="110.741418">
        <ele>187.081336</ele>
        <time>2026-08-18T03:30:07.000Z</time>
      </trkpt>
      <trkpt lat="22.851283" lon="110.741448">
        <ele>187.181631</ele>
        <time>2026-08-18T03:30:08.000Z</time>
      </trkpt>
      <trkpt lat="22.851292" lon="110.741479">
        <ele>187.284953</ele>
        <time>2026-08-18T03:30:09.000Z</time>
      </trkpt>
      <trkpt lat="22.851300" lon="110.741510">
        <ele>187.387291</ele>
        <time>2026-08-18T03:30:10.000Z</time>
      </trkpt>
      <trkpt lat="22.851310" lon="110.741539">
        <ele>187.485724</ele>
        <time>2026-08-18T03:30:11.000Z</time>
      </trkpt>
      <trkpt lat="22.851322" lon="110.741569">
        <ele>187.589689</ele>
        <time>2026-08-18T03:30:12.000Z</time>
      </trkpt>
      <trkpt lat="22.851332" lon="110.741598">
        <ele>187.688121</ele>
        <time>2026-08-18T03:30:13.000Z</time>
      </trkpt>
      <trkpt lat="22.851342" lon="110.741626">
        <ele>187.783582</ele>
        <time>2026-08-18T03:30:14.000Z</time>
      </trkpt>
      <trkpt lat="22.851354" lon="110.741655">
        <ele>187.884639</ele>
        <time>2026-08-18T03:30:15.000Z</time>
      </trkpt>
      <trkpt lat="22.851365" lon="110.741685">
        <ele>187.987279</ele>
        <time>2026-08-18T03:30:16.000Z</time>
      </trkpt>
      <trkpt lat="22.851375" lon="110.741715">
        <ele>188.088695</ele>
        <time>2026-08-18T03:30:17.000Z</time>
      </trkpt>
      <trkpt lat="22.851384" lon="110.741746">
        <ele>188.192017</ele>
        <time>2026-08-18T03:30:18.000Z</time>
      </trkpt>
      <trkpt lat="22.851393" lon="110.741777">
        <ele>188.295339</ele>
        <time>2026-08-18T03:30:19.000Z</time>
      </trkpt>
      <trkpt lat="22.851402" lon="110.741808">
        <ele>188.398661</ele>
        <time>2026-08-18T03:30:20.000Z</time>
      </trkpt>
      <trkpt lat="22.851411" lon="110.741840">
        <ele>188.505019</ele>
        <time>2026-08-18T03:30:21.000Z</time>
      </trkpt>
      <trkpt lat="22.851419" lon="110.741873">
        <ele>188.613493</ele>
        <time>2026-08-18T03:30:22.000Z</time>
      </trkpt>
      <trkpt lat="22.851429" lon="110.741906">
        <ele>188.723925</ele>
        <time>2026-08-18T03:30:23.000Z</time>
      </trkpt>
      <trkpt lat="22.851440" lon="110.741939">
        <ele>188.835482</ele>
        <time>2026-08-18T03:30:24.000Z</time>
      </trkpt>
      <trkpt lat="22.851449" lon="110.741972">
        <ele>188.944885</ele>
        <time>2026-08-18T03:30:25.000Z</time>
      </trkpt>
      <trkpt lat="22.851459" lon="110.742005">
        <ele>189.055316</ele>
        <time>2026-08-18T03:30:26.000Z</time>
      </trkpt>
      <trkpt lat="22.851469" lon="110.742039">
        <ele>189.168771</ele>
        <time>2026-08-18T03:30:27.000Z</time>
      </trkpt>
      <trkpt lat="22.851479" lon="110.742072">
        <ele>189.279203</ele>
        <time>2026-08-18T03:30:28.000Z</time>
      </trkpt>
      <trkpt lat="22.851487" lon="110.742104">
        <ele>189.384605</ele>
        <time>2026-08-18T03:30:29.000Z</time>
      </trkpt>
      <trkpt lat="22.851497" lon="110.742135">
        <ele>189.489016</ele>
        <time>2026-08-18T03:30:30.000Z</time>
      </trkpt>
      <trkpt lat="22.851507" lon="110.742167">
        <ele>189.596432</ele>
        <time>2026-08-18T03:30:31.000Z</time>
      </trkpt>
      <trkpt lat="22.851516" lon="110.742200">
        <ele>189.705835</ele>
        <time>2026-08-18T03:30:32.000Z</time>
      </trkpt>
      <trkpt lat="22.851525" lon="110.742232">
        <ele>189.812193</ele>
        <time>2026-08-18T03:30:33.000Z</time>
      </trkpt>
      <trkpt lat="22.851534" lon="110.742262">
        <ele>189.912487</ele>
        <time>2026-08-18T03:30:34.000Z</time>
      </trkpt>
      <trkpt lat="22.851543" lon="110.742292">
        <ele>190.012782</ele>
        <time>2026-08-18T03:30:35.000Z</time>
      </trkpt>
      <trkpt lat="22.851553" lon="110.742323">
        <ele>190.117192</ele>
        <time>2026-08-18T03:30:36.000Z</time>
      </trkpt>
      <trkpt lat="22.851561" lon="110.742354">
        <ele>190.254235</ele>
        <time>2026-08-18T03:30:37.000Z</time>
      </trkpt>
      <trkpt lat="22.851569" lon="110.742385">
        <ele>190.400583</ele>
        <time>2026-08-18T03:30:38.000Z</time>
      </trkpt>
      <trkpt lat="22.851578" lon="110.742414">
        <ele>190.539694</ele>
        <time>2026-08-18T03:30:39.000Z</time>
      </trkpt>
      <trkpt lat="22.851587" lon="110.742440">
        <ele>190.665955</ele>
        <time>2026-08-18T03:30:40.000Z</time>
      </trkpt>
      <trkpt lat="22.851596" lon="110.742463">
        <ele>190.779550</ele>
        <time>2026-08-18T03:30:41.000Z</time>
      </trkpt>
      <trkpt lat="22.851603" lon="110.742489">
        <ele>190.902688</ele>
        <time>2026-08-18T03:30:42.000Z</time>
      </trkpt>
      <trkpt lat="22.851611" lon="110.742516">
        <ele>191.031619</ele>
        <time>2026-08-18T03:30:43.000Z</time>
      </trkpt>
      <trkpt lat="22.851619" lon="110.742543">
        <ele>191.160551</ele>
        <time>2026-08-18T03:30:44.000Z</time>
      </trkpt>
      <trkpt lat="22.851627" lon="110.742568">
        <ele>191.280859</ele>
        <time>2026-08-18T03:30:45.000Z</time>
      </trkpt>
      <trkpt lat="22.851635" lon="110.742592">
        <ele>191.396883</ele>
        <time>2026-08-18T03:30:46.000Z</time>
      </trkpt>
      <trkpt lat="22.851645" lon="110.742616">
        <ele>191.516622</ele>
        <time>2026-08-18T03:30:47.000Z</time>
      </trkpt>
      <trkpt lat="22.851652" lon="110.742641">
        <ele>191.635403</ele>
        <time>2026-08-18T03:30:48.000Z</time>
      </trkpt>
      <trkpt lat="22.851655" lon="110.742666">
        <ele>191.750014</ele>
        <time>2026-08-18T03:30:49.000Z</time>
      </trkpt>
      <trkpt lat="22.851661" lon="110.742692">
        <ele>191.871860</ele>
        <time>2026-08-18T03:30:50.000Z</time>
      </trkpt>
      <trkpt lat="22.851668" lon="110.742716">
        <ele>191.986300</ele>
        <time>2026-08-18T03:30:51.000Z</time>
      </trkpt>
      <trkpt lat="22.851673" lon="110.742738">
        <ele>192.089309</ele>
        <time>2026-08-18T03:30:52.000Z</time>
      </trkpt>
      <trkpt lat="22.851683" lon="110.742764">
        <ele>192.217388</ele>
        <time>2026-08-18T03:30:53.000Z</time>
      </trkpt>
      <trkpt lat="22.851694" lon="110.742790">
        <ele>192.347446</ele>
        <time>2026-08-18T03:30:54.000Z</time>
      </trkpt>
      <trkpt lat="22.851702" lon="110.742814">
        <ele>192.463470</ele>
        <time>2026-08-18T03:30:55.000Z</time>
      </trkpt>
      <trkpt lat="22.851711" lon="110.742839">
        <ele>192.585485</ele>
        <time>2026-08-18T03:30:56.000Z</time>
      </trkpt>
      <trkpt lat="22.851719" lon="110.742865">
        <ele>192.710097</ele>
        <time>2026-08-18T03:30:57.000Z</time>
      </trkpt>
      <trkpt lat="22.851726" lon="110.742891">
        <ele>192.833235</ele>
        <time>2026-08-18T03:30:58.000Z</time>
      </trkpt>
      <trkpt lat="22.851734" lon="110.742917">
        <ele>192.957846</ele>
        <time>2026-08-18T03:30:59.000Z</time>
      </trkpt>
      <trkpt lat="22.851741" lon="110.742944">
        <ele>193.085354</ele>
        <time>2026-08-18T03:31:00.000Z</time>
      </trkpt>
      <trkpt lat="22.851749" lon="110.742969">
        <ele>193.205662</ele>
        <time>2026-08-18T03:31:01.000Z</time>
      </trkpt>
      <trkpt lat="22.851759" lon="110.742996">
        <ele>193.337948</ele>
        <time>2026-08-18T03:31:02.000Z</time>
      </trkpt>
      <trkpt lat="22.851768" lon="110.743022">
        <ele>193.464208</ele>
        <time>2026-08-18T03:31:03.000Z</time>
      </trkpt>
      <trkpt lat="22.851778" lon="110.743047">
        <ele>193.588104</ele>
        <time>2026-08-18T03:31:04.000Z</time>
      </trkpt>
      <trkpt lat="22.851786" lon="110.743071">
        <ele>193.704127</ele>
        <time>2026-08-18T03:31:05.000Z</time>
      </trkpt>
      <trkpt lat="22.851795" lon="110.743096">
        <ele>193.826143</ele>
        <time>2026-08-18T03:31:06.000Z</time>
      </trkpt>
      <trkpt lat="22.851804" lon="110.743121">
        <ele>193.948158</ele>
        <time>2026-08-18T03:31:07.000Z</time>
      </trkpt>
      <trkpt lat="22.851813" lon="110.743148">
        <ele>194.078684</ele>
        <time>2026-08-18T03:31:08.000Z</time>
      </trkpt>
      <trkpt lat="22.851822" lon="110.743174">
        <ele>194.204945</ele>
        <time>2026-08-18T03:31:09.000Z</time>
      </trkpt>
      <trkpt lat="22.851831" lon="110.743200">
        <ele>194.331205</ele>
        <time>2026-08-18T03:31:10.000Z</time>
      </trkpt>
      <trkpt lat="22.851840" lon="110.743226">
        <ele>194.457466</ele>
        <time>2026-08-18T03:31:11.000Z</time>
      </trkpt>
      <trkpt lat="22.851850" lon="110.743251">
        <ele>194.581362</ele>
        <time>2026-08-18T03:31:12.000Z</time>
      </trkpt>
      <trkpt lat="22.851861" lon="110.743275">
        <ele>194.703216</ele>
        <time>2026-08-18T03:31:13.000Z</time>
      </trkpt>
      <trkpt lat="22.851872" lon="110.743299">
        <ele>194.825071</ele>
        <time>2026-08-18T03:31:14.000Z</time>
      </trkpt>
      <trkpt lat="22.851885" lon="110.743321">
        <ele>194.943879</ele>
        <time>2026-08-18T03:31:15.000Z</time>
      </trkpt>
      <trkpt lat="22.851897" lon="110.743344">
        <ele>195.064033</ele>
        <time>2026-08-18T03:31:16.000Z</time>
      </trkpt>
      <trkpt lat="22.851907" lon="110.743368">
        <ele>195.183772</ele>
        <time>2026-08-18T03:31:17.000Z</time>
      </trkpt>
      <trkpt lat="22.851914" lon="110.743393">
        <ele>195.302553</ele>
        <time>2026-08-18T03:31:18.000Z</time>
      </trkpt>
      <trkpt lat="22.851923" lon="110.743417">
        <ele>195.420346</ele>
        <time>2026-08-18T03:31:19.000Z</time>
      </trkpt>
      <trkpt lat="22.851933" lon="110.743439">
        <ele>195.531864</ele>
        <time>2026-08-18T03:31:20.000Z</time>
      </trkpt>
      <trkpt lat="22.851943" lon="110.743463">
        <ele>195.651603</ele>
        <time>2026-08-18T03:31:21.000Z</time>
      </trkpt>
      <trkpt lat="22.851952" lon="110.743486">
        <ele>195.765197</ele>
        <time>2026-08-18T03:31:22.000Z</time>
      </trkpt>
      <trkpt lat="22.851961" lon="110.743510">
        <ele>195.882990</ele>
        <time>2026-08-18T03:31:23.000Z</time>
      </trkpt>
      <trkpt lat="22.851973" lon="110.743534">
        <ele>196.007120</ele>
        <time>2026-08-18T03:31:24.000Z</time>
      </trkpt>
      <trkpt lat="22.851987" lon="110.743559">
        <ele>196.140110</ele>
        <time>2026-08-18T03:31:25.000Z</time>
      </trkpt>
      <trkpt lat="22.851999" lon="110.743583">
        <ele>196.264241</ele>
        <time>2026-08-18T03:31:26.000Z</time>
      </trkpt>
      <trkpt lat="22.852012" lon="110.743603">
        <ele>196.375503</ele>
        <time>2026-08-18T03:31:27.000Z</time>
      </trkpt>
      <trkpt lat="22.852026" lon="110.743627">
        <ele>196.504630</ele>
        <time>2026-08-18T03:31:28.000Z</time>
      </trkpt>
      <trkpt lat="22.852036" lon="110.743650">
        <ele>196.620242</ele>
        <time>2026-08-18T03:31:29.000Z</time>
      </trkpt>
      <trkpt lat="22.852046" lon="110.743673">
        <ele>196.735854</ele>
        <time>2026-08-18T03:31:30.000Z</time>
      </trkpt>
      <trkpt lat="22.852059" lon="110.743697">
        <ele>196.862411</ele>
        <time>2026-08-18T03:31:31.000Z</time>
      </trkpt>
      <trkpt lat="22.852074" lon="110.743719">
        <ele>196.986823</ele>
        <time>2026-08-18T03:31:32.000Z</time>
      </trkpt>
      <trkpt lat="22.852087" lon="110.743740">
        <ele>197.101831</ele>
        <time>2026-08-18T03:31:33.000Z</time>
      </trkpt>
      <trkpt lat="22.852101" lon="110.743764">
        <ele>197.230958</ele>
        <time>2026-08-18T03:31:34.000Z</time>
      </trkpt>
      <trkpt lat="22.852116" lon="110.743786">
        <ele>197.355369</ele>
        <time>2026-08-18T03:31:35.000Z</time>
      </trkpt>
      <trkpt lat="22.852128" lon="110.743807">
        <ele>197.467700</ele>
        <time>2026-08-18T03:31:36.000Z</time>
      </trkpt>
      <trkpt lat="22.852137" lon="110.743829">
        <ele>197.577125</ele>
        <time>2026-08-18T03:31:37.000Z</time>
      </trkpt>
      <trkpt lat="22.852148" lon="110.743853">
        <ele>197.698979</ele>
        <time>2026-08-18T03:31:38.000Z</time>
      </trkpt>
      <trkpt lat="22.852158" lon="110.743875">
        <ele>197.810497</ele>
        <time>2026-08-18T03:31:39.000Z</time>
      </trkpt>
      <trkpt lat="22.852167" lon="110.743897">
        <ele>197.919921</ele>
        <time>2026-08-18T03:31:40.000Z</time>
      </trkpt>
      <trkpt lat="22.852178" lon="110.743918">
        <ele>198.029733</ele>
        <time>2026-08-18T03:31:41.000Z</time>
      </trkpt>
      <trkpt lat="22.852190" lon="110.743941">
        <ele>198.149887</ele>
        <time>2026-08-18T03:31:42.000Z</time>
      </trkpt>
      <trkpt lat="22.852200" lon="110.743962">
        <ele>198.257346</ele>
        <time>2026-08-18T03:31:43.000Z</time>
      </trkpt>
      <trkpt lat="22.852211" lon="110.743985">
        <ele>198.375147</ele>
        <time>2026-08-18T03:31:44.000Z</time>
      </trkpt>
      <trkpt lat="22.852222" lon="110.744006">
        <ele>198.484959</ele>
        <time>2026-08-18T03:31:45.000Z</time>
      </trkpt>
      <trkpt lat="22.852234" lon="110.744029">
        <ele>198.605113</ele>
        <time>2026-08-18T03:31:46.000Z</time>
      </trkpt>
      <trkpt lat="22.852243" lon="110.744047">
        <ele>198.698210</ele>
        <time>2026-08-18T03:31:47.000Z</time>
      </trkpt>
      <trkpt lat="22.852253" lon="110.744066">
        <ele>198.797679</ele>
        <time>2026-08-18T03:31:48.000Z</time>
      </trkpt>
      <trkpt lat="22.852262" lon="110.744086">
        <ele>198.898861</ele>
        <time>2026-08-18T03:31:49.000Z</time>
      </trkpt>
      <trkpt lat="22.852273" lon="110.744107">
        <ele>199.008673</ele>
        <time>2026-08-18T03:31:50.000Z</time>
      </trkpt>
      <trkpt lat="22.852284" lon="110.744126">
        <ele>199.126801</ele>
        <time>2026-08-18T03:31:51.000Z</time>
      </trkpt>
      <trkpt lat="22.852296" lon="110.744144">
        <ele>199.244289</ele>
        <time>2026-08-18T03:31:52.000Z</time>
      </trkpt>
      <trkpt lat="22.852310" lon="110.744164">
        <ele>199.377109</ele>
        <time>2026-08-18T03:31:53.000Z</time>
      </trkpt>
      <trkpt lat="22.852321" lon="110.744183">
        <ele>199.495771</ele>
        <time>2026-08-18T03:31:54.000Z</time>
      </trkpt>
      <trkpt lat="22.852331" lon="110.744201">
        <ele>199.606921</ele>
        <time>2026-08-18T03:31:55.000Z</time>
      </trkpt>
      <trkpt lat="22.852341" lon="110.744219">
        <ele>199.718071</ele>
        <time>2026-08-18T03:31:56.000Z</time>
      </trkpt>
      <trkpt lat="22.852351" lon="110.744238">
        <ele>199.833782</ele>
        <time>2026-08-18T03:31:57.000Z</time>
      </trkpt>
      <trkpt lat="22.852360" lon="110.744257">
        <ele>199.946757</ele>
        <time>2026-08-18T03:31:58.000Z</time>
      </trkpt>
      <trkpt lat="22.852371" lon="110.744275">
        <ele>200.060976</ele>
        <time>2026-08-18T03:31:59.000Z</time>
      </trkpt>
      <trkpt lat="22.852382" lon="110.744296">
        <ele>200.188718</ele>
        <time>2026-08-18T03:32:00.000Z</time>
      </trkpt>
      <trkpt lat="22.852392" lon="110.744313">
        <ele>200.295374</ele>
        <time>2026-08-18T03:32:01.000Z</time>
      </trkpt>
      <trkpt lat="22.852403" lon="110.744331">
        <ele>200.409593</ele>
        <time>2026-08-18T03:32:02.000Z</time>
      </trkpt>
      <trkpt lat="22.852414" lon="110.744350">
        <ele>200.528255</ele>
        <time>2026-08-18T03:32:03.000Z</time>
      </trkpt>
      <trkpt lat="22.852425" lon="110.744369">
        <ele>200.646916</ele>
        <time>2026-08-18T03:32:04.000Z</time>
      </trkpt>
      <trkpt lat="22.852436" lon="110.744387">
        <ele>200.761135</ele>
        <time>2026-08-18T03:32:05.000Z</time>
      </trkpt>
      <trkpt lat="22.852448" lon="110.744405">
        <ele>200.878623</ele>
        <time>2026-08-18T03:32:06.000Z</time>
      </trkpt>
      <trkpt lat="22.852459" lon="110.744424">
        <ele>200.997285</ele>
        <time>2026-08-18T03:32:07.000Z</time>
      </trkpt>
      <trkpt lat="22.852469" lon="110.744443">
        <ele>201.112996</ele>
        <time>2026-08-18T03:32:08.000Z</time>
      </trkpt>
      <trkpt lat="22.852479" lon="110.744462">
        <ele>201.228707</ele>
        <time>2026-08-18T03:32:09.000Z</time>
      </trkpt>
      <trkpt lat="22.852490" lon="110.744483">
        <ele>201.356449</ele>
        <time>2026-08-18T03:32:10.000Z</time>
      </trkpt>
      <trkpt lat="22.852500" lon="110.744502">
        <ele>201.472160</ele>
        <time>2026-08-18T03:32:11.000Z</time>
      </trkpt>
      <trkpt lat="22.852512" lon="110.744521">
        <ele>201.593971</ele>
        <time>2026-08-18T03:32:12.000Z</time>
      </trkpt>
      <trkpt lat="22.852523" lon="110.744541">
        <ele>201.717143</ele>
        <time>2026-08-18T03:32:13.000Z</time>
      </trkpt>
      <trkpt lat="22.852535" lon="110.744558">
        <ele>201.830389</ele>
        <time>2026-08-18T03:32:14.000Z</time>
      </trkpt>
      <trkpt lat="22.852545" lon="110.744577">
        <ele>201.946100</ele>
        <time>2026-08-18T03:32:15.000Z</time>
      </trkpt>
      <trkpt lat="22.852555" lon="110.744595">
        <ele>202.057250</ele>
        <time>2026-08-18T03:32:16.000Z</time>
      </trkpt>
      <trkpt lat="22.852566" lon="110.744613">
        <ele>202.171468</ele>
        <time>2026-08-18T03:32:17.000Z</time>
      </trkpt>
      <trkpt lat="22.852577" lon="110.744632">
        <ele>202.290130</ele>
        <time>2026-08-18T03:32:18.000Z</time>
      </trkpt>
      <trkpt lat="22.852588" lon="110.744653">
        <ele>202.417872</ele>
        <time>2026-08-18T03:32:19.000Z</time>
      </trkpt>
      <trkpt lat="22.852599" lon="110.744672">
        <ele>202.536534</ele>
        <time>2026-08-18T03:32:20.000Z</time>
      </trkpt>
      <trkpt lat="22.852611" lon="110.744688">
        <ele>202.645628</ele>
        <time>2026-08-18T03:32:21.000Z</time>
      </trkpt>
      <trkpt lat="22.852622" lon="110.744707">
        <ele>202.764290</ele>
        <time>2026-08-18T03:32:22.000Z</time>
      </trkpt>
      <trkpt lat="22.852633" lon="110.744727">
        <ele>202.887462</ele>
        <time>2026-08-18T03:32:23.000Z</time>
      </trkpt>
      <trkpt lat="22.852643" lon="110.744747">
        <ele>203.007794</ele>
        <time>2026-08-18T03:32:24.000Z</time>
      </trkpt>
      <trkpt lat="22.852653" lon="110.744767">
        <ele>203.128125</ele>
        <time>2026-08-18T03:32:25.000Z</time>
      </trkpt>
      <trkpt lat="22.852665" lon="110.744787">
        <ele>203.254334</ele>
        <time>2026-08-18T03:32:26.000Z</time>
      </trkpt>
      <trkpt lat="22.852678" lon="110.744806">
        <ele>203.379480</ele>
        <time>2026-08-18T03:32:27.000Z</time>
      </trkpt>
      <trkpt lat="22.852692" lon="110.744824">
        <ele>203.504043</ele>
        <time>2026-08-18T03:32:28.000Z</time>
      </trkpt>
      <trkpt lat="22.852704" lon="110.744842">
        <ele>203.621530</ele>
        <time>2026-08-18T03:32:29.000Z</time>
      </trkpt>
      <trkpt lat="22.852714" lon="110.744862">
        <ele>203.741862</ele>
        <time>2026-08-18T03:32:30.000Z</time>
      </trkpt>
      <trkpt lat="22.852724" lon="110.744881">
        <ele>203.857573</ele>
        <time>2026-08-18T03:32:31.000Z</time>
      </trkpt>
      <trkpt lat="22.852736" lon="110.744902">
        <ele>203.988245</ele>
        <time>2026-08-18T03:32:32.000Z</time>
      </trkpt>
      <trkpt lat="22.852747" lon="110.744922">
        <ele>204.111417</ele>
        <time>2026-08-18T03:32:33.000Z</time>
      </trkpt>
      <trkpt lat="22.852759" lon="110.744941">
        <ele>204.233229</ele>
        <time>2026-08-18T03:32:34.000Z</time>
      </trkpt>
      <trkpt lat="22.852771" lon="110.744960">
        <ele>204.355040</ele>
        <time>2026-08-18T03:32:35.000Z</time>
      </trkpt>
      <trkpt lat="22.852782" lon="110.744979">
        <ele>204.473702</ele>
        <time>2026-08-18T03:32:36.000Z</time>
      </trkpt>
      <trkpt lat="22.852792" lon="110.744999">
        <ele>204.594034</ele>
        <time>2026-08-18T03:32:37.000Z</time>
      </trkpt>
      <trkpt lat="22.852803" lon="110.745018">
        <ele>204.712695</ele>
        <time>2026-08-18T03:32:38.000Z</time>
      </trkpt>
      <trkpt lat="22.852813" lon="110.745038">
        <ele>204.833027</ele>
        <time>2026-08-18T03:32:39.000Z</time>
      </trkpt>
      <trkpt lat="22.852822" lon="110.745058">
        <ele>204.950730</ele>
        <time>2026-08-18T03:32:40.000Z</time>
      </trkpt>
      <trkpt lat="22.852833" lon="110.745078">
        <ele>205.073901</ele>
        <time>2026-08-18T03:32:41.000Z</time>
      </trkpt>
      <trkpt lat="22.852846" lon="110.745097">
        <ele>205.199047</ele>
        <time>2026-08-18T03:32:42.000Z</time>
      </trkpt>
      <trkpt lat="22.852859" lon="110.745114">
        <ele>205.315871</ele>
        <time>2026-08-18T03:32:43.000Z</time>
      </trkpt>
      <trkpt lat="22.852872" lon="110.745132">
        <ele>205.436811</ele>
        <time>2026-08-18T03:32:44.000Z</time>
      </trkpt>
      <trkpt lat="22.852881" lon="110.745149">
        <ele>205.540492</ele>
        <time>2026-08-18T03:32:45.000Z</time>
      </trkpt>
      <trkpt lat="22.852892" lon="110.745168">
        <ele>205.659154</ele>
        <time>2026-08-18T03:32:46.000Z</time>
      </trkpt>
      <trkpt lat="22.852902" lon="110.745189">
        <ele>205.784159</ele>
        <time>2026-08-18T03:32:47.000Z</time>
      </trkpt>
      <trkpt lat="22.852912" lon="110.745211">
        <ele>205.913885</ele>
        <time>2026-08-18T03:32:48.000Z</time>
      </trkpt>
      <trkpt lat="22.852922" lon="110.745232">
        <ele>206.038890</ele>
        <time>2026-08-18T03:32:49.000Z</time>
      </trkpt>
      <trkpt lat="22.852933" lon="110.745253">
        <ele>206.166631</ele>
        <time>2026-08-18T03:32:50.000Z</time>
      </trkpt>
      <trkpt lat="22.852943" lon="110.745273">
        <ele>206.286962</ele>
        <time>2026-08-18T03:32:51.000Z</time>
      </trkpt>
      <trkpt lat="22.852952" lon="110.745295">
        <ele>206.414254</ele>
        <time>2026-08-18T03:32:52.000Z</time>
      </trkpt>
      <trkpt lat="22.852962" lon="110.745316">
        <ele>206.539259</ele>
        <time>2026-08-18T03:32:53.000Z</time>
      </trkpt>
      <trkpt lat="22.852973" lon="110.745339">
        <ele>206.676294</ele>
        <time>2026-08-18T03:32:54.000Z</time>
      </trkpt>
      <trkpt lat="22.852983" lon="110.745361">
        <ele>206.806020</ele>
        <time>2026-08-18T03:32:55.000Z</time>
      </trkpt>
      <trkpt lat="22.852993" lon="110.745382">
        <ele>206.931025</ele>
        <time>2026-08-18T03:32:56.000Z</time>
      </trkpt>
      <trkpt lat="22.853006" lon="110.745403">
        <ele>207.064811</ele>
        <time>2026-08-18T03:32:57.000Z</time>
      </trkpt>
      <trkpt lat="22.853019" lon="110.745424">
        <ele>207.198597</ele>
        <time>2026-08-18T03:32:58.000Z</time>
      </trkpt>
      <trkpt lat="22.853031" lon="110.745445">
        <ele>207.329269</ele>
        <time>2026-08-18T03:32:59.000Z</time>
      </trkpt>
      <trkpt lat="22.853042" lon="110.745466">
        <ele>207.457010</ele>
        <time>2026-08-18T03:33:00.000Z</time>
      </trkpt>
      <trkpt lat="22.853053" lon="110.745487">
        <ele>207.584752</ele>
        <time>2026-08-18T03:33:01.000Z</time>
      </trkpt>
      <trkpt lat="22.853066" lon="110.745509">
        <ele>207.722959</ele>
        <time>2026-08-18T03:33:02.000Z</time>
      </trkpt>
      <trkpt lat="22.853076" lon="110.745531">
        <ele>207.852684</ele>
        <time>2026-08-18T03:33:03.000Z</time>
      </trkpt>
      <trkpt lat="22.853086" lon="110.745552">
        <ele>207.977689</ele>
        <time>2026-08-18T03:33:04.000Z</time>
      </trkpt>
      <trkpt lat="22.853096" lon="110.745575">
        <ele>208.112178</ele>
        <time>2026-08-18T03:33:05.000Z</time>
      </trkpt>
      <trkpt lat="22.853106" lon="110.745597">
        <ele>208.241904</ele>
        <time>2026-08-18T03:33:06.000Z</time>
      </trkpt>
      <trkpt lat="22.853117" lon="110.745621">
        <ele>208.383654</ele>
        <time>2026-08-18T03:33:07.000Z</time>
      </trkpt>
      <trkpt lat="22.853128" lon="110.745642">
        <ele>208.511395</ele>
        <time>2026-08-18T03:33:08.000Z</time>
      </trkpt>
      <trkpt lat="22.853140" lon="110.745663">
        <ele>208.642068</ele>
        <time>2026-08-18T03:33:09.000Z</time>
      </trkpt>
      <trkpt lat="22.853152" lon="110.745687">
        <ele>208.786465</ele>
        <time>2026-08-18T03:33:10.000Z</time>
      </trkpt>
      <trkpt lat="22.853163" lon="110.745710">
        <ele>208.923501</ele>
        <time>2026-08-18T03:33:11.000Z</time>
      </trkpt>
      <trkpt lat="22.853173" lon="110.745733">
        <ele>209.057989</ele>
        <time>2026-08-18T03:33:12.000Z</time>
      </trkpt>
      <trkpt lat="22.853182" lon="110.745754">
        <ele>209.180466</ele>
        <time>2026-08-18T03:33:13.000Z</time>
      </trkpt>
      <trkpt lat="22.853194" lon="110.745774">
        <ele>209.306675</ele>
        <time>2026-08-18T03:33:14.000Z</time>
      </trkpt>
      <trkpt lat="22.853206" lon="110.745794">
        <ele>209.414809</ele>
        <time>2026-08-18T03:33:15.000Z</time>
      </trkpt>
      <trkpt lat="22.853216" lon="110.745815">
        <ele>209.516990</ele>
        <time>2026-08-18T03:33:16.000Z</time>
      </trkpt>
      <trkpt lat="22.853228" lon="110.745837">
        <ele>209.627502</ele>
        <time>2026-08-18T03:33:17.000Z</time>
      </trkpt>
      <trkpt lat="22.853239" lon="110.745860">
        <ele>209.739518</ele>
        <time>2026-08-18T03:33:18.000Z</time>
      </trkpt>
      <trkpt lat="22.853251" lon="110.745884">
        <ele>209.857551</ele>
        <time>2026-08-18T03:33:19.000Z</time>
      </trkpt>
      <trkpt lat="22.853262" lon="110.745906">
        <ele>209.965748</ele>
        <time>2026-08-18T03:33:20.000Z</time>
      </trkpt>
      <trkpt lat="22.853275" lon="110.745930">
        <ele>210.086090</ele>
        <time>2026-08-18T03:33:21.000Z</time>
      </trkpt>
      <trkpt lat="22.853288" lon="110.745953">
        <ele>210.202725</ele>
        <time>2026-08-18T03:33:22.000Z</time>
      </trkpt>
      <trkpt lat="22.853301" lon="110.745977">
        <ele>210.323066</ele>
        <time>2026-08-18T03:33:23.000Z</time>
      </trkpt>
      <trkpt lat="22.853313" lon="110.746000">
        <ele>210.437319</ele>
        <time>2026-08-18T03:33:24.000Z</time>
      </trkpt>
      <trkpt lat="22.853324" lon="110.746023">
        <ele>210.549335</ele>
        <time>2026-08-18T03:33:25.000Z</time>
      </trkpt>
      <trkpt lat="22.853334" lon="110.746046">
        <ele>210.659268</ele>
        <time>2026-08-18T03:33:26.000Z</time>
      </trkpt>
      <trkpt lat="22.853344" lon="110.746069">
        <ele>210.769202</ele>
        <time>2026-08-18T03:33:27.000Z</time>
      </trkpt>
      <trkpt lat="22.853355" lon="110.746093">
        <ele>210.885072</ele>
        <time>2026-08-18T03:33:28.000Z</time>
      </trkpt>
      <trkpt lat="22.853366" lon="110.746117">
        <ele>211.000941</ele>
        <time>2026-08-18T03:33:29.000Z</time>
      </trkpt>
      <trkpt lat="22.853376" lon="110.746141">
        <ele>211.114799</ele>
        <time>2026-08-18T03:33:30.000Z</time>
      </trkpt>
      <trkpt lat="22.853385" lon="110.746163">
        <ele>211.218850</ele>
        <time>2026-08-18T03:33:31.000Z</time>
      </trkpt>
      <trkpt lat="22.853395" lon="110.746187">
        <ele>211.332708</ele>
        <time>2026-08-18T03:33:32.000Z</time>
      </trkpt>
      <trkpt lat="22.853405" lon="110.746211">
        <ele>211.446566</ele>
        <time>2026-08-18T03:33:33.000Z</time>
      </trkpt>
      <trkpt lat="22.853415" lon="110.746234">
        <ele>211.556499</ele>
        <time>2026-08-18T03:33:34.000Z</time>
      </trkpt>
      <trkpt lat="22.853424" lon="110.746259">
        <ele>211.672522</ele>
        <time>2026-08-18T03:33:35.000Z</time>
      </trkpt>
      <trkpt lat="22.853433" lon="110.746283">
        <ele>211.784529</ele>
        <time>2026-08-18T03:33:36.000Z</time>
      </trkpt>
      <trkpt lat="22.853443" lon="110.746306">
        <ele>211.894462</ele>
        <time>2026-08-18T03:33:37.000Z</time>
      </trkpt>
      <trkpt lat="22.853452" lon="110.746331">
        <ele>212.010485</ele>
        <time>2026-08-18T03:33:38.000Z</time>
      </trkpt>
      <trkpt lat="22.853460" lon="110.746355">
        <ele>212.120809</ele>
        <time>2026-08-18T03:33:39.000Z</time>
      </trkpt>
      <trkpt lat="22.853469" lon="110.746378">
        <ele>212.228824</ele>
        <time>2026-08-18T03:33:40.000Z</time>
      </trkpt>
      <trkpt lat="22.853479" lon="110.746400">
        <ele>212.334864</ele>
        <time>2026-08-18T03:33:41.000Z</time>
      </trkpt>
      <trkpt lat="22.853490" lon="110.746423">
        <ele>212.446880</ele>
        <time>2026-08-18T03:33:42.000Z</time>
      </trkpt>
      <trkpt lat="22.853500" lon="110.746447">
        <ele>212.560738</ele>
        <time>2026-08-18T03:33:43.000Z</time>
      </trkpt>
      <trkpt lat="22.853510" lon="110.746469">
        <ele>212.666778</ele>
        <time>2026-08-18T03:33:44.000Z</time>
      </trkpt>
      <trkpt lat="22.853519" lon="110.746493">
        <ele>212.778785</ele>
        <time>2026-08-18T03:33:45.000Z</time>
      </trkpt>
      <trkpt lat="22.853529" lon="110.746516">
        <ele>212.888719</ele>
        <time>2026-08-18T03:33:46.000Z</time>
      </trkpt>
      <trkpt lat="22.853535" lon="110.746537">
        <ele>212.983759</ele>
        <time>2026-08-18T03:33:47.000Z</time>
      </trkpt>
      <trkpt lat="22.853541" lon="110.746559">
        <ele>213.082937</ele>
        <time>2026-08-18T03:33:48.000Z</time>
      </trkpt>
      <trkpt lat="22.853548" lon="110.746582">
        <ele>213.187642</ele>
        <time>2026-08-18T03:33:49.000Z</time>
      </trkpt>
      <trkpt lat="22.853557" lon="110.746605">
        <ele>213.295657</ele>
        <time>2026-08-18T03:33:50.000Z</time>
      </trkpt>
      <trkpt lat="22.853566" lon="110.746628">
        <ele>213.403672</ele>
        <time>2026-08-18T03:33:51.000Z</time>
      </trkpt>
      <trkpt lat="22.853573" lon="110.746652">
        <ele>213.512490</ele>
        <time>2026-08-18T03:33:52.000Z</time>
      </trkpt>
      <trkpt lat="22.853583" lon="110.746676">
        <ele>213.626348</ele>
        <time>2026-08-18T03:33:53.000Z</time>
      </trkpt>
      <trkpt lat="22.853591" lon="110.746700">
        <ele>213.736673</ele>
        <time>2026-08-18T03:33:54.000Z</time>
      </trkpt>
      <trkpt lat="22.853599" lon="110.746723">
        <ele>213.842942</ele>
        <time>2026-08-18T03:33:55.000Z</time>
      </trkpt>
      <trkpt lat="22.853607" lon="110.746747">
        <ele>213.953266</ele>
        <time>2026-08-18T03:33:56.000Z</time>
      </trkpt>
      <trkpt lat="22.853616" lon="110.746772">
        <ele>214.069288</ele>
        <time>2026-08-18T03:33:57.000Z</time>
      </trkpt>
      <trkpt lat="22.853625" lon="110.746797">
        <ele>214.185310</ele>
        <time>2026-08-18T03:33:58.000Z</time>
      </trkpt>
      <trkpt lat="22.853634" lon="110.746823">
        <ele>214.305369</ele>
        <time>2026-08-18T03:33:59.000Z</time>
      </trkpt>
      <trkpt lat="22.853642" lon="110.746847">
        <ele>214.415693</ele>
        <time>2026-08-18T03:34:00.000Z</time>
      </trkpt>
      <trkpt lat="22.853651" lon="110.746871">
        <ele>214.527700</ele>
        <time>2026-08-18T03:34:01.000Z</time>
      </trkpt>
      <trkpt lat="22.853658" lon="110.746897">
        <ele>214.644790</ele>
        <time>2026-08-18T03:34:02.000Z</time>
      </trkpt>
      <trkpt lat="22.853666" lon="110.746921">
        <ele>214.755114</ele>
        <time>2026-08-18T03:34:03.000Z</time>
      </trkpt>
      <trkpt lat="22.853675" lon="110.746945">
        <ele>214.867121</ele>
        <time>2026-08-18T03:34:04.000Z</time>
      </trkpt>
      <trkpt lat="22.853683" lon="110.746968">
        <ele>214.973390</ele>
        <time>2026-08-18T03:34:05.000Z</time>
      </trkpt>
      <trkpt lat="22.853693" lon="110.746993">
        <ele>215.091200</ele>
        <time>2026-08-18T03:34:06.000Z</time>
      </trkpt>
      <trkpt lat="22.853705" lon="110.747018">
        <ele>215.213050</ele>
        <time>2026-08-18T03:34:07.000Z</time>
      </trkpt>
      <trkpt lat="22.853714" lon="110.747044">
        <ele>215.333109</ele>
        <time>2026-08-18T03:34:08.000Z</time>
      </trkpt>
      <trkpt lat="22.853721" lon="110.747070">
        <ele>215.450198</ele>
        <time>2026-08-18T03:34:09.000Z</time>
      </trkpt>
      <trkpt lat="22.853726" lon="110.747095">
        <ele>215.560782</ele>
        <time>2026-08-18T03:34:10.000Z</time>
      </trkpt>
      <trkpt lat="22.853730" lon="110.747119">
        <ele>215.666211</ele>
        <time>2026-08-18T03:34:11.000Z</time>
      </trkpt>
      <trkpt lat="22.853735" lon="110.747144">
        <ele>215.776795</ele>
        <time>2026-08-18T03:34:12.000Z</time>
      </trkpt>
      <trkpt lat="22.853742" lon="110.747169">
        <ele>215.889742</ele>
        <time>2026-08-18T03:34:13.000Z</time>
      </trkpt>
      <trkpt lat="22.853749" lon="110.747194">
        <ele>216.002688</ele>
        <time>2026-08-18T03:34:14.000Z</time>
      </trkpt>
      <trkpt lat="22.853756" lon="110.747218">
        <ele>216.111506</ele>
        <time>2026-08-18T03:34:15.000Z</time>
      </trkpt>
      <trkpt lat="22.853763" lon="110.747243">
        <ele>216.224453</ele>
        <time>2026-08-18T03:34:16.000Z</time>
      </trkpt>
      <trkpt lat="22.853771" lon="110.747268">
        <ele>216.338851</ele>
        <time>2026-08-18T03:34:17.000Z</time>
      </trkpt>
      <trkpt lat="22.853777" lon="110.747293">
        <ele>216.450524</ele>
        <time>2026-08-18T03:34:18.000Z</time>
      </trkpt>
      <trkpt lat="22.853785" lon="110.747318">
        <ele>216.564923</ele>
        <time>2026-08-18T03:34:19.000Z</time>
      </trkpt>
      <trkpt lat="22.853793" lon="110.747343">
        <ele>216.679322</ele>
        <time>2026-08-18T03:34:20.000Z</time>
      </trkpt>
      <trkpt lat="22.853802" lon="110.747366">
        <ele>216.787337</ele>
        <time>2026-08-18T03:34:21.000Z</time>
      </trkpt>
      <trkpt lat="22.853812" lon="110.747391">
        <ele>216.905147</ele>
        <time>2026-08-18T03:34:22.000Z</time>
      </trkpt>
      <trkpt lat="22.853821" lon="110.747417">
        <ele>217.025205</ele>
        <time>2026-08-18T03:34:23.000Z</time>
      </trkpt>
      <trkpt lat="22.853831" lon="110.747441">
        <ele>217.139063</ele>
        <time>2026-08-18T03:34:24.000Z</time>
      </trkpt>
      <trkpt lat="22.853838" lon="110.747467">
        <ele>217.256152</ele>
        <time>2026-08-18T03:34:25.000Z</time>
      </trkpt>
      <trkpt lat="22.853846" lon="110.747495">
        <ele>217.382873</ele>
        <time>2026-08-18T03:34:26.000Z</time>
      </trkpt>
      <trkpt lat="22.853853" lon="110.747522">
        <ele>217.504117</ele>
        <time>2026-08-18T03:34:27.000Z</time>
      </trkpt>
      <trkpt lat="22.853860" lon="110.747548">
        <ele>217.621207</ele>
        <time>2026-08-18T03:34:28.000Z</time>
      </trkpt>
      <trkpt lat="22.853867" lon="110.747574">
        <ele>217.738296</ele>
        <time>2026-08-18T03:34:29.000Z</time>
      </trkpt>
      <trkpt lat="22.853876" lon="110.747601">
        <ele>217.781117</ele>
        <time>2026-08-18T03:34:30.000Z</time>
      </trkpt>
      <trkpt lat="22.853884" lon="110.747626">
        <ele>217.793490</ele>
        <time>2026-08-18T03:34:31.000Z</time>
      </trkpt>
      <trkpt lat="22.853892" lon="110.747651">
        <ele>217.805864</ele>
        <time>2026-08-18T03:34:32.000Z</time>
      </trkpt>
      <trkpt lat="22.853898" lon="110.747678">
        <ele>217.818849</ele>
        <time>2026-08-18T03:34:33.000Z</time>
      </trkpt>
      <trkpt lat="22.853903" lon="110.747704">
        <ele>217.831267</ele>
        <time>2026-08-18T03:34:34.000Z</time>
      </trkpt>
      <trkpt lat="22.853910" lon="110.747731">
        <ele>217.844381</ele>
        <time>2026-08-18T03:34:35.000Z</time>
      </trkpt>
      <trkpt lat="22.853918" lon="110.747757">
        <ele>217.857197</ele>
        <time>2026-08-18T03:34:36.000Z</time>
      </trkpt>
      <trkpt lat="22.853924" lon="110.747784">
        <ele>217.870182</ele>
        <time>2026-08-18T03:34:37.000Z</time>
      </trkpt>
      <trkpt lat="22.853930" lon="110.747810">
        <ele>217.882714</ele>
        <time>2026-08-18T03:34:38.000Z</time>
      </trkpt>
      <trkpt lat="22.853935" lon="110.747834">
        <ele>217.894218</ele>
        <time>2026-08-18T03:34:39.000Z</time>
      </trkpt>
      <trkpt lat="22.853942" lon="110.747858">
        <ele>217.905987</ele>
        <time>2026-08-18T03:34:40.000Z</time>
      </trkpt>
      <trkpt lat="22.853949" lon="110.747882">
        <ele>217.917757</ele>
        <time>2026-08-18T03:34:41.000Z</time>
      </trkpt>
      <trkpt lat="22.853958" lon="110.747908">
        <ele>217.930742</ele>
        <time>2026-08-18T03:34:42.000Z</time>
      </trkpt>
      <trkpt lat="22.853965" lon="110.747934">
        <ele>217.943407</ele>
        <time>2026-08-18T03:34:43.000Z</time>
      </trkpt>
      <trkpt lat="22.853969" lon="110.747957">
        <ele>217.954350</ele>
        <time>2026-08-18T03:34:44.000Z</time>
      </trkpt>
      <trkpt lat="22.853975" lon="110.747981">
        <ele>217.965977</ele>
        <time>2026-08-18T03:34:45.000Z</time>
      </trkpt>
      <trkpt lat="22.853982" lon="110.748007">
        <ele>217.978641</ele>
        <time>2026-08-18T03:34:46.000Z</time>
      </trkpt>
      <trkpt lat="22.853989" lon="110.748032">
        <ele>217.990857</ele>
        <time>2026-08-18T03:34:47.000Z</time>
      </trkpt>
      <trkpt lat="22.853994" lon="110.748055">
        <ele>218.001906</ele>
        <time>2026-08-18T03:34:48.000Z</time>
      </trkpt>
      <trkpt lat="22.854001" lon="110.748077">
        <ele>218.012787</ele>
        <time>2026-08-18T03:34:49.000Z</time>
      </trkpt>
      <trkpt lat="22.854011" lon="110.748103">
        <ele>218.025960</ele>
        <time>2026-08-18T03:34:50.000Z</time>
      </trkpt>
      <trkpt lat="22.854018" lon="110.748127">
        <ele>218.037729</ele>
        <time>2026-08-18T03:34:51.000Z</time>
      </trkpt>
      <trkpt lat="22.854026" lon="110.748153">
        <ele>218.050545</ele>
        <time>2026-08-18T03:34:52.000Z</time>
      </trkpt>
      <trkpt lat="22.854032" lon="110.748178">
        <ele>218.062624</ele>
        <time>2026-08-18T03:34:53.000Z</time>
      </trkpt>
      <trkpt lat="22.854037" lon="110.748204">
        <ele>218.075042</ele>
        <time>2026-08-18T03:34:54.000Z</time>
      </trkpt>
      <trkpt lat="22.854042" lon="110.748234">
        <ele>218.089295</ele>
        <time>2026-08-18T03:34:55.000Z</time>
      </trkpt>
      <trkpt lat="22.854048" lon="110.748261">
        <ele>218.102281</ele>
        <time>2026-08-18T03:34:56.000Z</time>
      </trkpt>
      <trkpt lat="22.854057" lon="110.748287">
        <ele>218.115266</ele>
        <time>2026-08-18T03:34:57.000Z</time>
      </trkpt>
      <trkpt lat="22.854067" lon="110.748312">
        <ele>218.128009</ele>
        <time>2026-08-18T03:34:58.000Z</time>
      </trkpt>
      <trkpt lat="22.854074" lon="110.748337">
        <ele>218.140225</ele>
        <time>2026-08-18T03:34:59.000Z</time>
      </trkpt>
      <trkpt lat="22.854083" lon="110.748362">
        <ele>218.152774</ele>
        <time>2026-08-18T03:35:00.000Z</time>
      </trkpt>
      <trkpt lat="22.854092" lon="110.748388">
        <ele>218.165759</ele>
        <time>2026-08-18T03:35:01.000Z</time>
      </trkpt>
      <trkpt lat="22.854099" lon="110.748417">
        <ele>218.179775</ele>
        <time>2026-08-18T03:35:02.000Z</time>
      </trkpt>
      <trkpt lat="22.854108" lon="110.748446">
        <ele>218.194082</ele>
        <time>2026-08-18T03:35:03.000Z</time>
      </trkpt>
      <trkpt lat="22.854118" lon="110.748473">
        <ele>218.207687</ele>
        <time>2026-08-18T03:35:04.000Z</time>
      </trkpt>
      <trkpt lat="22.854129" lon="110.748499">
        <ele>218.221063</ele>
        <time>2026-08-18T03:35:05.000Z</time>
      </trkpt>
      <trkpt lat="22.854137" lon="110.748525">
        <ele>218.233879</ele>
        <time>2026-08-18T03:35:06.000Z</time>
      </trkpt>
      <trkpt lat="22.854145" lon="110.748552">
        <ele>218.247139</ele>
        <time>2026-08-18T03:35:07.000Z</time>
      </trkpt>
      <trkpt lat="22.854154" lon="110.748580">
        <ele>218.261004</ele>
        <time>2026-08-18T03:35:08.000Z</time>
      </trkpt>
      <trkpt lat="22.854164" lon="110.748608">
        <ele>218.275044</ele>
        <time>2026-08-18T03:35:09.000Z</time>
      </trkpt>
      <trkpt lat="22.854171" lon="110.748638">
        <ele>218.289513</ele>
        <time>2026-08-18T03:35:10.000Z</time>
      </trkpt>
      <trkpt lat="22.854179" lon="110.748668">
        <ele>218.304114</ele>
        <time>2026-08-18T03:35:11.000Z</time>
      </trkpt>
      <trkpt lat="22.854188" lon="110.748698">
        <ele>218.318865</ele>
        <time>2026-08-18T03:35:12.000Z</time>
      </trkpt>
      <trkpt lat="22.854195" lon="110.748730">
        <ele>218.334242</ele>
        <time>2026-08-18T03:35:13.000Z</time>
      </trkpt>
      <trkpt lat="22.854202" lon="110.748762">
        <ele>218.349619</ele>
        <time>2026-08-18T03:35:14.000Z</time>
      </trkpt>
      <trkpt lat="22.854210" lon="110.748794">
        <ele>218.365121</ele>
        <time>2026-08-18T03:35:15.000Z</time>
      </trkpt>
      <trkpt lat="22.854218" lon="110.748828">
        <ele>218.381528</ele>
        <time>2026-08-18T03:35:16.000Z</time>
      </trkpt>
      <trkpt lat="22.854228" lon="110.748862">
        <ele>218.398214</ele>
        <time>2026-08-18T03:35:17.000Z</time>
      </trkpt>
      <trkpt lat="22.854238" lon="110.748895">
        <ele>218.414456</ele>
        <time>2026-08-18T03:35:18.000Z</time>
      </trkpt>
      <trkpt lat="22.854247" lon="110.748931">
        <ele>218.431896</ele>
        <time>2026-08-18T03:35:19.000Z</time>
      </trkpt>
      <trkpt lat="22.854258" lon="110.748965">
        <ele>218.448743</ele>
        <time>2026-08-18T03:35:20.000Z</time>
      </trkpt>
      <trkpt lat="22.854269" lon="110.749000">
        <ele>218.466033</ele>
        <time>2026-08-18T03:35:21.000Z</time>
      </trkpt>
      <trkpt lat="22.854280" lon="110.749036">
        <ele>218.483765</ele>
        <time>2026-08-18T03:35:22.000Z</time>
      </trkpt>
      <trkpt lat="22.854292" lon="110.749073">
        <ele>218.502104</ele>
        <time>2026-08-18T03:35:23.000Z</time>
      </trkpt>
      <trkpt lat="22.854304" lon="110.749109">
        <ele>218.520003</ele>
        <time>2026-08-18T03:35:24.000Z</time>
      </trkpt>
      <trkpt lat="22.854316" lon="110.749146">
        <ele>218.538342</ele>
        <time>2026-08-18T03:35:25.000Z</time>
      </trkpt>
      <trkpt lat="22.854331" lon="110.749174">
        <ele>218.553485</ele>
        <time>2026-08-18T03:35:26.000Z</time>
      </trkpt>
      <trkpt lat="22.854344" lon="110.749215">
        <ele>218.573757</ele>
        <time>2026-08-18T03:35:27.000Z</time>
      </trkpt>
      <trkpt lat="22.854342" lon="110.749262">
        <ele>218.595755</ele>
        <time>2026-08-18T03:35:28.000Z</time>
      </trkpt>
      <trkpt lat="22.854342" lon="110.749301">
        <ele>218.613989</ele>
        <time>2026-08-18T03:35:29.000Z</time>
      </trkpt>
      <trkpt lat="22.854341" lon="110.749320">
        <ele>218.622887</ele>
        <time>2026-08-18T03:35:30.000Z</time>
      </trkpt>
      <trkpt lat="22.854337" lon="110.749328">
        <ele>218.627142</ele>
        <time>2026-08-18T03:35:31.000Z</time>
      </trkpt>
      <trkpt lat="22.854356" lon="110.749371">
        <ele>218.649438</ele>
        <time>2026-08-18T03:36:52.000Z</time>
      </trkpt>
      <trkpt lat="22.854359" lon="110.749388">
        <ele>218.657531</ele>
        <time>2026-08-18T03:36:53.000Z</time>
      </trkpt>
      <trkpt lat="22.854362" lon="110.749404">
        <ele>218.665165</ele>
        <time>2026-08-18T03:36:54.000Z</time>
      </trkpt>
      <trkpt lat="22.854366" lon="110.749425">
        <ele>218.675191</ele>
        <time>2026-08-18T03:36:55.000Z</time>
      </trkpt>
      <trkpt lat="22.854373" lon="110.749455">
        <ele>218.634376</ele>
        <time>2026-08-18T03:36:56.000Z</time>
      </trkpt>
      <trkpt lat="22.854382" lon="110.749486">
        <ele>218.505282</ele>
        <time>2026-08-18T03:36:57.000Z</time>
      </trkpt>
      <trkpt lat="22.854395" lon="110.749520">
        <ele>218.359076</ele>
        <time>2026-08-18T03:36:58.000Z</time>
      </trkpt>
      <trkpt lat="22.854408" lon="110.749555">
        <ele>218.209193</ele>
        <time>2026-08-18T03:36:59.000Z</time>
      </trkpt>
      <trkpt lat="22.854423" lon="110.749590">
        <ele>218.055879</ele>
        <time>2026-08-18T03:37:00.000Z</time>
      </trkpt>
      <trkpt lat="22.854434" lon="110.749625">
        <ele>217.909002</ele>
        <time>2026-08-18T03:37:01.000Z</time>
      </trkpt>
      <trkpt lat="22.854445" lon="110.749665">
        <ele>217.743204</ele>
        <time>2026-08-18T03:37:02.000Z</time>
      </trkpt>
      <trkpt lat="22.854455" lon="110.749708">
        <ele>217.567060</ele>
        <time>2026-08-18T03:37:03.000Z</time>
      </trkpt>
      <trkpt lat="22.854467" lon="110.749753">
        <ele>217.380993</ele>
        <time>2026-08-18T03:37:04.000Z</time>
      </trkpt>
      <trkpt lat="22.854478" lon="110.749799">
        <ele>217.192236</ele>
        <time>2026-08-18T03:37:05.000Z</time>
      </trkpt>
      <trkpt lat="22.854489" lon="110.749849">
        <ele>216.988063</ele>
        <time>2026-08-18T03:37:06.000Z</time>
      </trkpt>
      <trkpt lat="22.854503" lon="110.749900">
        <ele>216.776701</ele>
        <time>2026-08-18T03:37:07.000Z</time>
      </trkpt>
      <trkpt lat="22.854520" lon="110.749951">
        <ele>216.561292</ele>
        <time>2026-08-18T03:37:08.000Z</time>
      </trkpt>
      <trkpt lat="22.854537" lon="110.750003">
        <ele>216.342143</ele>
        <time>2026-08-18T03:37:09.000Z</time>
      </trkpt>
      <trkpt lat="22.854557" lon="110.750056">
        <ele>216.114668</ele>
        <time>2026-08-18T03:37:10.000Z</time>
      </trkpt>
      <trkpt lat="22.854578" lon="110.750111">
        <ele>215.878207</ele>
        <time>2026-08-18T03:37:11.000Z</time>
      </trkpt>
      <trkpt lat="22.854595" lon="110.750168">
        <ele>215.640249</ele>
        <time>2026-08-18T03:37:12.000Z</time>
      </trkpt>
      <trkpt lat="22.854615" lon="110.750225">
        <ele>215.397997</ele>
        <time>2026-08-18T03:37:13.000Z</time>
      </trkpt>
      <trkpt lat="22.854637" lon="110.750283">
        <ele>215.148877</ele>
        <time>2026-08-18T03:37:14.000Z</time>
      </trkpt>
      <trkpt lat="22.854662" lon="110.750345">
        <ele>214.880079</ele>
        <time>2026-08-18T03:37:15.000Z</time>
      </trkpt>
      <trkpt lat="22.854686" lon="110.750406">
        <ele>214.616637</ele>
        <time>2026-08-18T03:37:16.000Z</time>
      </trkpt>
      <trkpt lat="22.854713" lon="110.750467">
        <ele>214.347855</ele>
        <time>2026-08-18T03:37:17.000Z</time>
      </trkpt>
      <trkpt lat="22.854742" lon="110.750526">
        <ele>214.082263</ele>
        <time>2026-08-18T03:37:18.000Z</time>
      </trkpt>
      <trkpt lat="22.854773" lon="110.750589">
        <ele>213.798597</ele>
        <time>2026-08-18T03:37:19.000Z</time>
      </trkpt>
      <trkpt lat="22.854806" lon="110.750652">
        <ele>213.510770</ele>
        <time>2026-08-18T03:37:20.000Z</time>
      </trkpt>
      <trkpt lat="22.854840" lon="110.750718">
        <ele>213.210446</ele>
        <time>2026-08-18T03:37:21.000Z</time>
      </trkpt>
      <trkpt lat="22.854877" lon="110.750784">
        <ele>212.903605</ele>
        <time>2026-08-18T03:37:22.000Z</time>
      </trkpt>
      <trkpt lat="22.854917" lon="110.750850">
        <ele>212.589849</ele>
        <time>2026-08-18T03:37:23.000Z</time>
      </trkpt>
      <trkpt lat="22.854957" lon="110.750915">
        <ele>212.279404</ele>
        <time>2026-08-18T03:37:24.000Z</time>
      </trkpt>
      <trkpt lat="22.855000" lon="110.750983">
        <ele>211.951842</ele>
        <time>2026-08-18T03:37:25.000Z</time>
      </trkpt>
      <trkpt lat="22.855048" lon="110.751053">
        <ele>211.605283</ele>
        <time>2026-08-18T03:37:26.000Z</time>
      </trkpt>
      <trkpt lat="22.855099" lon="110.751124">
        <ele>211.247728</ele>
        <time>2026-08-18T03:37:27.000Z</time>
      </trkpt>
      <trkpt lat="22.855152" lon="110.751195">
        <ele>210.873408</ele>
        <time>2026-08-18T03:37:28.000Z</time>
      </trkpt>
      <trkpt lat="22.855203" lon="110.751264">
        <ele>210.435880</ele>
        <time>2026-08-18T03:37:29.000Z</time>
      </trkpt>
      <trkpt lat="22.855253" lon="110.751331">
        <ele>210.009424</ele>
        <time>2026-08-18T03:37:30.000Z</time>
      </trkpt>
      <trkpt lat="22.855304" lon="110.751399">
        <ele>209.575744</ele>
        <time>2026-08-18T03:37:31.000Z</time>
      </trkpt>
      <trkpt lat="22.855356" lon="110.751467">
        <ele>209.138656</ele>
        <time>2026-08-18T03:37:32.000Z</time>
      </trkpt>
      <trkpt lat="22.855411" lon="110.751537">
        <ele>208.683631</ele>
        <time>2026-08-18T03:37:33.000Z</time>
      </trkpt>
      <trkpt lat="22.855464" lon="110.751605">
        <ele>208.243096</ele>
        <time>2026-08-18T03:37:34.000Z</time>
      </trkpt>
      <trkpt lat="22.855518" lon="110.751673">
        <ele>207.799076</ele>
        <time>2026-08-18T03:37:35.000Z</time>
      </trkpt>
      <trkpt lat="22.855574" lon="110.751739">
        <ele>207.355301</ele>
        <time>2026-08-18T03:37:36.000Z</time>
      </trkpt>
      <trkpt lat="22.855630" lon="110.751807">
        <ele>206.904200</ele>
        <time>2026-08-18T03:37:37.000Z</time>
      </trkpt>
      <trkpt lat="22.855685" lon="110.751877">
        <ele>206.449175</ele>
        <time>2026-08-18T03:37:38.000Z</time>
      </trkpt>
      <trkpt lat="22.855738" lon="110.751948">
        <ele>205.997209</ele>
        <time>2026-08-18T03:37:39.000Z</time>
      </trkpt>
      <trkpt lat="22.855794" lon="110.752022">
        <ele>205.523566</ele>
        <time>2026-08-18T03:37:40.000Z</time>
      </trkpt>
      <trkpt lat="22.855849" lon="110.752096">
        <ele>205.053311</ele>
        <time>2026-08-18T03:37:41.000Z</time>
      </trkpt>
      <trkpt lat="22.855908" lon="110.752173">
        <ele>204.557971</ele>
        <time>2026-08-18T03:37:42.000Z</time>
      </trkpt>
      <trkpt lat="22.855968" lon="110.752251">
        <ele>204.055395</ele>
        <time>2026-08-18T03:37:43.000Z</time>
      </trkpt>
      <trkpt lat="22.856030" lon="110.752329">
        <ele>203.545872</ele>
        <time>2026-08-18T03:37:44.000Z</time>
      </trkpt>
      <trkpt lat="22.856095" lon="110.752405">
        <ele>203.032983</ele>
        <time>2026-08-18T03:37:45.000Z</time>
      </trkpt>
      <trkpt lat="22.856162" lon="110.752483">
        <ele>202.505539</ele>
        <time>2026-08-18T03:37:46.000Z</time>
      </trkpt>
      <trkpt lat="22.856232" lon="110.752565">
        <ele>201.952639</ele>
        <time>2026-08-18T03:37:47.000Z</time>
      </trkpt>
      <trkpt lat="22.856301" lon="110.752651">
        <ele>201.388605</ele>
        <time>2026-08-18T03:37:48.000Z</time>
      </trkpt>
      <trkpt lat="22.856370" lon="110.752741">
        <ele>200.726147</ele>
        <time>2026-08-18T03:37:49.000Z</time>
      </trkpt>
      <trkpt lat="22.856437" lon="110.752833">
        <ele>200.042589</ele>
        <time>2026-08-18T03:37:50.000Z</time>
      </trkpt>
      <trkpt lat="22.856507" lon="110.752929">
        <ele>199.328971</ele>
        <time>2026-08-18T03:37:51.000Z</time>
      </trkpt>
      <trkpt lat="22.856578" lon="110.753030">
        <ele>198.588455</ele>
        <time>2026-08-18T03:37:52.000Z</time>
      </trkpt>
      <trkpt lat="22.856647" lon="110.753132">
        <ele>197.850853</ele>
        <time>2026-08-18T03:37:53.000Z</time>
      </trkpt>
      <trkpt lat="22.856715" lon="110.753240">
        <ele>197.088364</ele>
        <time>2026-08-18T03:37:54.000Z</time>
      </trkpt>
      <trkpt lat="22.856782" lon="110.753352">
        <ele>196.309976</ele>
        <time>2026-08-18T03:37:55.000Z</time>
      </trkpt>
      <trkpt lat="22.856845" lon="110.753469">
        <ele>195.520048</ele>
        <time>2026-08-18T03:37:56.000Z</time>
      </trkpt>
      <trkpt lat="22.856904" lon="110.753591">
        <ele>194.716889</ele>
        <time>2026-08-18T03:37:57.000Z</time>
      </trkpt>
      <trkpt lat="22.856961" lon="110.753716">
        <ele>193.903896</ele>
        <time>2026-08-18T03:37:58.000Z</time>
      </trkpt>
      <trkpt lat="22.857013" lon="110.753844">
        <ele>193.088458</ele>
        <time>2026-08-18T03:37:59.000Z</time>
      </trkpt>
      <trkpt lat="22.857060" lon="110.753974">
        <ele>192.274417</ele>
        <time>2026-08-18T03:38:00.000Z</time>
      </trkpt>
      <trkpt lat="22.857098" lon="110.754105">
        <ele>191.473844</ele>
        <time>2026-08-18T03:38:01.000Z</time>
      </trkpt>
      <trkpt lat="22.857134" lon="110.754237">
        <ele>190.671391</ele>
        <time>2026-08-18T03:38:02.000Z</time>
      </trkpt>
      <trkpt lat="22.857165" lon="110.754373">
        <ele>189.855944</ele>
        <time>2026-08-18T03:38:03.000Z</time>
      </trkpt>
      <trkpt lat="22.857192" lon="110.754513">
        <ele>189.045593</ele>
        <time>2026-08-18T03:38:04.000Z</time>
      </trkpt>
      <trkpt lat="22.857214" lon="110.754655">
        <ele>188.229806</ele>
        <time>2026-08-18T03:38:05.000Z</time>
      </trkpt>
      <trkpt lat="22.857232" lon="110.754799">
        <ele>187.406507</ele>
        <time>2026-08-18T03:38:06.000Z</time>
      </trkpt>
      <trkpt lat="22.857246" lon="110.754944">
        <ele>186.580517</ele>
        <time>2026-08-18T03:38:07.000Z</time>
      </trkpt>
      <trkpt lat="22.857256" lon="110.755089">
        <ele>185.756728</ele>
        <time>2026-08-18T03:38:08.000Z</time>
      </trkpt>
      <trkpt lat="22.857263" lon="110.755234">
        <ele>184.934109</ele>
        <time>2026-08-18T03:38:09.000Z</time>
      </trkpt>
      <trkpt lat="22.857267" lon="110.755380">
        <ele>184.106586</ele>
        <time>2026-08-18T03:38:10.000Z</time>
      </trkpt>
      <trkpt lat="22.857269" lon="110.755525">
        <ele>183.285002</ele>
        <time>2026-08-18T03:38:11.000Z</time>
      </trkpt>
      <trkpt lat="22.857268" lon="110.755669">
        <ele>182.469152</ele>
        <time>2026-08-18T03:38:12.000Z</time>
      </trkpt>
      <trkpt lat="22.857266" lon="110.755813">
        <ele>181.653233</ele>
        <time>2026-08-18T03:38:13.000Z</time>
      </trkpt>
      <trkpt lat="22.857267" lon="110.755957">
        <ele>180.837383</ele>
        <time>2026-08-18T03:38:14.000Z</time>
      </trkpt>
      <trkpt lat="22.857269" lon="110.756100">
        <ele>180.027129</ele>
        <time>2026-08-18T03:38:15.000Z</time>
      </trkpt>
      <trkpt lat="22.857272" lon="110.756245">
        <ele>179.205430</ele>
        <time>2026-08-18T03:38:16.000Z</time>
      </trkpt>
      <trkpt lat="22.857275" lon="110.756389">
        <ele>178.425165</ele>
        <time>2026-08-18T03:38:17.000Z</time>
      </trkpt>
      <trkpt lat="22.857281" lon="110.756531">
        <ele>177.683784</ele>
        <time>2026-08-18T03:38:18.000Z</time>
      </trkpt>
      <trkpt lat="22.857292" lon="110.756675">
        <ele>176.930174</ele>
        <time>2026-08-18T03:38:19.000Z</time>
      </trkpt>
      <trkpt lat="22.857309" lon="110.756818">
        <ele>176.178174</ele>
        <time>2026-08-18T03:38:20.000Z</time>
      </trkpt>
      <trkpt lat="22.857329" lon="110.756960">
        <ele>175.428971</ele>
        <time>2026-08-18T03:38:21.000Z</time>
      </trkpt>
      <trkpt lat="22.857355" lon="110.757099">
        <ele>174.689229</ele>
        <time>2026-08-18T03:38:22.000Z</time>
      </trkpt>
      <trkpt lat="22.857382" lon="110.757236">
        <ele>173.958545</ele>
        <time>2026-08-18T03:38:23.000Z</time>
      </trkpt>
      <trkpt lat="22.857411" lon="110.757372">
        <ele>173.230492</ele>
        <time>2026-08-18T03:38:24.000Z</time>
      </trkpt>
      <trkpt lat="22.857444" lon="110.757507">
        <ele>172.502046</ele>
        <time>2026-08-18T03:38:25.000Z</time>
      </trkpt>
      <trkpt lat="22.857482" lon="110.757641">
        <ele>171.770821</ele>
        <time>2026-08-18T03:38:26.000Z</time>
      </trkpt>
      <trkpt lat="22.857523" lon="110.757774">
        <ele>171.039372</ele>
        <time>2026-08-18T03:38:27.000Z</time>
      </trkpt>
      <trkpt lat="22.857567" lon="110.757904">
        <ele>170.317067</ele>
        <time>2026-08-18T03:38:28.000Z</time>
      </trkpt>
      <trkpt lat="22.857615" lon="110.758029">
        <ele>169.610786</ele>
        <time>2026-08-18T03:38:29.000Z</time>
      </trkpt>
      <trkpt lat="22.857668" lon="110.758150">
        <ele>168.912043</ele>
        <time>2026-08-18T03:38:30.000Z</time>
      </trkpt>
      <trkpt lat="22.857725" lon="110.758267">
        <ele>168.486370</ele>
        <time>2026-08-18T03:38:31.000Z</time>
      </trkpt>
      <trkpt lat="22.857785" lon="110.758381">
        <ele>168.215495</ele>
        <time>2026-08-18T03:38:32.000Z</time>
      </trkpt>
      <trkpt lat="22.857850" lon="110.758493">
        <ele>167.942397</ele>
        <time>2026-08-18T03:38:33.000Z</time>
      </trkpt>
      <trkpt lat="22.857916" lon="110.758601">
        <ele>167.675015</ele>
        <time>2026-08-18T03:38:34.000Z</time>
      </trkpt>
      <trkpt lat="22.857984" lon="110.758706">
        <ele>167.410220</ele>
        <time>2026-08-18T03:38:35.000Z</time>
      </trkpt>
      <trkpt lat="22.858053" lon="110.758808">
        <ele>167.149145</ele>
        <time>2026-08-18T03:38:36.000Z</time>
      </trkpt>
      <trkpt lat="22.858123" lon="110.758906">
        <ele>166.893312</ele>
        <time>2026-08-18T03:38:37.000Z</time>
      </trkpt>
      <trkpt lat="22.858194" lon="110.758999">
        <ele>166.644128</ele>
        <time>2026-08-18T03:38:38.000Z</time>
      </trkpt>
      <trkpt lat="22.858267" lon="110.759088">
        <ele>166.398289</ele>
        <time>2026-08-18T03:38:39.000Z</time>
      </trkpt>
      <trkpt lat="22.858338" lon="110.759173">
        <ele>166.161582</ele>
        <time>2026-08-18T03:38:40.000Z</time>
      </trkpt>
      <trkpt lat="22.858417" lon="110.759256">
        <ele>165.915378</ele>
        <time>2026-08-18T03:38:41.000Z</time>
      </trkpt>
      <trkpt lat="22.858496" lon="110.759336">
        <ele>165.673440</ele>
        <time>2026-08-18T03:38:42.000Z</time>
      </trkpt>
      <trkpt lat="22.858609" lon="110.759434">
        <ele>165.349554</ele>
        <time>2026-08-18T03:38:43.000Z</time>
      </trkpt>
      <trkpt lat="22.858690" lon="110.759508">
        <ele>165.112477</ele>
        <time>2026-08-18T03:38:44.000Z</time>
      </trkpt>
      <trkpt lat="22.858771" lon="110.759581">
        <ele>164.876724</ele>
        <time>2026-08-18T03:38:45.000Z</time>
      </trkpt>
      <trkpt lat="22.858847" lon="110.759649">
        <ele>164.656174</ele>
        <time>2026-08-18T03:38:46.000Z</time>
      </trkpt>
      <trkpt lat="22.858923" lon="110.759715">
        <ele>164.487536</ele>
        <time>2026-08-18T03:38:47.000Z</time>
      </trkpt>
      <trkpt lat="22.858997" lon="110.759778">
        <ele>164.330472</ele>
        <time>2026-08-18T03:38:48.000Z</time>
      </trkpt>
      <trkpt lat="22.859071" lon="110.759841">
        <ele>164.173409</ele>
        <time>2026-08-18T03:38:49.000Z</time>
      </trkpt>
      <trkpt lat="22.859145" lon="110.759905">
        <ele>164.015392</ele>
        <time>2026-08-18T03:38:50.000Z</time>
      </trkpt>
      <trkpt lat="22.859218" lon="110.759966">
        <ele>163.861536</ele>
        <time>2026-08-18T03:38:51.000Z</time>
      </trkpt>
      <trkpt lat="22.859287" lon="110.760025">
        <ele>163.714841</ele>
        <time>2026-08-18T03:38:52.000Z</time>
      </trkpt>
      <trkpt lat="22.859357" lon="110.760084">
        <ele>163.566831</ele>
        <time>2026-08-18T03:38:53.000Z</time>
      </trkpt>
      <trkpt lat="22.859426" lon="110.760143">
        <ele>163.420136</ele>
        <time>2026-08-18T03:38:54.000Z</time>
      </trkpt>
      <trkpt lat="22.859495" lon="110.760201">
        <ele>163.274388</ele>
        <time>2026-08-18T03:38:55.000Z</time>
      </trkpt>
      <trkpt lat="22.859564" lon="110.760258">
        <ele>163.129578</ele>
        <time>2026-08-18T03:38:56.000Z</time>
      </trkpt>
      <trkpt lat="22.859633" lon="110.760315">
        <ele>162.984768</ele>
        <time>2026-08-18T03:38:57.000Z</time>
      </trkpt>
      <trkpt lat="22.859701" lon="110.760371">
        <ele>162.842218</ele>
        <time>2026-08-18T03:38:58.000Z</time>
      </trkpt>
      <trkpt lat="22.859766" lon="110.760425">
        <ele>162.705519</ele>
        <time>2026-08-18T03:38:59.000Z</time>
      </trkpt>
      <trkpt lat="22.859830" lon="110.760481">
        <ele>162.568231</ele>
        <time>2026-08-18T03:39:00.000Z</time>
      </trkpt>
      <trkpt lat="22.859895" lon="110.760537">
        <ele>162.429639</ele>
        <time>2026-08-18T03:39:01.000Z</time>
      </trkpt>
      <trkpt lat="22.859960" lon="110.760592">
        <ele>162.291999</ele>
        <time>2026-08-18T03:39:02.000Z</time>
      </trkpt>
      <trkpt lat="22.860025" lon="110.760647">
        <ele>162.154359</ele>
        <time>2026-08-18T03:39:03.000Z</time>
      </trkpt>
      <trkpt lat="22.860089" lon="110.760702">
        <ele>162.018031</ele>
        <time>2026-08-18T03:39:04.000Z</time>
      </trkpt>
      <trkpt lat="22.860153" lon="110.760758">
        <ele>161.880744</ele>
        <time>2026-08-18T03:39:05.000Z</time>
      </trkpt>
      <trkpt lat="22.860217" lon="110.760813">
        <ele>161.744417</ele>
        <time>2026-08-18T03:39:06.000Z</time>
      </trkpt>
      <trkpt lat="22.860282" lon="110.760869">
        <ele>161.571872</ele>
        <time>2026-08-18T03:39:07.000Z</time>
      </trkpt>
      <trkpt lat="22.860346" lon="110.760923">
        <ele>161.234652</ele>
        <time>2026-08-18T03:39:08.000Z</time>
      </trkpt>
      <trkpt lat="22.860412" lon="110.760978">
        <ele>160.888505</ele>
        <time>2026-08-18T03:39:09.000Z</time>
      </trkpt>
      <trkpt lat="22.860478" lon="110.761033">
        <ele>160.542358</ele>
        <time>2026-08-18T03:39:10.000Z</time>
      </trkpt>
      <trkpt lat="22.860545" lon="110.761089">
        <ele>160.190577</ele>
        <time>2026-08-18T03:39:11.000Z</time>
      </trkpt>
      <trkpt lat="22.860614" lon="110.761145">
        <ele>159.832169</ele>
        <time>2026-08-18T03:39:12.000Z</time>
      </trkpt>
      <trkpt lat="22.860682" lon="110.761202">
        <ele>159.474753</ele>
        <time>2026-08-18T03:39:13.000Z</time>
      </trkpt>
      <trkpt lat="22.860750" lon="110.761261">
        <ele>159.112601</ele>
        <time>2026-08-18T03:39:14.000Z</time>
      </trkpt>
      <trkpt lat="22.860822" lon="110.761321">
        <ele>158.734987</ele>
        <time>2026-08-18T03:39:15.000Z</time>
      </trkpt>
      <trkpt lat="22.860894" lon="110.761381">
        <ele>158.357372</ele>
        <time>2026-08-18T03:39:16.000Z</time>
      </trkpt>
      <trkpt lat="22.860966" lon="110.761441">
        <ele>157.979758</ele>
        <time>2026-08-18T03:39:17.000Z</time>
      </trkpt>
      <trkpt lat="22.861040" lon="110.761502">
        <ele>157.593206</ele>
        <time>2026-08-18T03:39:18.000Z</time>
      </trkpt>
      <trkpt lat="22.861114" lon="110.761566">
        <ele>157.199591</ele>
        <time>2026-08-18T03:39:19.000Z</time>
      </trkpt>
      <trkpt lat="22.861189" lon="110.761631">
        <ele>156.800335</ele>
        <time>2026-08-18T03:39:20.000Z</time>
      </trkpt>
      <trkpt lat="22.861266" lon="110.761696">
        <ele>156.394544</ele>
        <time>2026-08-18T03:39:21.000Z</time>
      </trkpt>
      <trkpt lat="22.861342" lon="110.761762">
        <ele>155.989646</ele>
        <time>2026-08-18T03:39:22.000Z</time>
      </trkpt>
      <trkpt lat="22.861422" lon="110.761830">
        <ele>155.566943</ele>
        <time>2026-08-18T03:39:23.000Z</time>
      </trkpt>
      <trkpt lat="22.861503" lon="110.761897">
        <ele>155.143292</ele>
        <time>2026-08-18T03:39:24.000Z</time>
      </trkpt>
      <trkpt lat="22.861585" lon="110.761966">
        <ele>154.711671</ele>
        <time>2026-08-18T03:39:25.000Z</time>
      </trkpt>
      <trkpt lat="22.861671" lon="110.762037">
        <ele>154.262184</ele>
        <time>2026-08-18T03:39:26.000Z</time>
      </trkpt>
      <trkpt lat="22.861754" lon="110.762109">
        <ele>153.982032</ele>
        <time>2026-08-18T03:39:27.000Z</time>
      </trkpt>
      <trkpt lat="22.861839" lon="110.762182">
        <ele>153.754644</ele>
        <time>2026-08-18T03:39:28.000Z</time>
      </trkpt>
      <trkpt lat="22.861926" lon="110.762256">
        <ele>153.522765</ele>
        <time>2026-08-18T03:39:29.000Z</time>
      </trkpt>
      <trkpt lat="22.862012" lon="110.762329">
        <ele>153.293730</ele>
        <time>2026-08-18T03:39:30.000Z</time>
      </trkpt>
      <trkpt lat="22.862100" lon="110.762402">
        <ele>153.061375</ele>
        <time>2026-08-18T03:39:31.000Z</time>
      </trkpt>
      <trkpt lat="22.862188" lon="110.762475">
        <ele>152.829020</ele>
        <time>2026-08-18T03:39:32.000Z</time>
      </trkpt>
      <trkpt lat="22.862272" lon="110.762547">
        <ele>152.604478</ele>
        <time>2026-08-18T03:39:33.000Z</time>
      </trkpt>
      <trkpt lat="22.862356" lon="110.762618">
        <ele>152.381128</ele>
        <time>2026-08-18T03:39:34.000Z</time>
      </trkpt>
      <trkpt lat="22.862438" lon="110.762688">
        <ele>152.162274</ele>
        <time>2026-08-18T03:39:35.000Z</time>
      </trkpt>
      <trkpt lat="22.862519" lon="110.762756">
        <ele>151.947452</ele>
        <time>2026-08-18T03:39:36.000Z</time>
      </trkpt>
      <trkpt lat="22.862600" lon="110.762825">
        <ele>151.731441</ele>
        <time>2026-08-18T03:39:37.000Z</time>
      </trkpt>
      <trkpt lat="22.862678" lon="110.762892">
        <ele>151.522766</ele>
        <time>2026-08-18T03:39:38.000Z</time>
      </trkpt>
      <trkpt lat="22.862754" lon="110.762958">
        <ele>151.318578</ele>
        <time>2026-08-18T03:39:39.000Z</time>
      </trkpt>
      <trkpt lat="22.862829" lon="110.763023">
        <ele>151.117235</ele>
        <time>2026-08-18T03:39:40.000Z</time>
      </trkpt>
      <trkpt lat="22.862903" lon="110.763086">
        <ele>150.919937</ele>
        <time>2026-08-18T03:39:41.000Z</time>
      </trkpt>
      <trkpt lat="22.862977" lon="110.763147">
        <ele>150.725001</ele>
        <time>2026-08-18T03:39:42.000Z</time>
      </trkpt>
      <trkpt lat="22.863048" lon="110.763208">
        <ele>150.535038</ele>
        <time>2026-08-18T03:39:43.000Z</time>
      </trkpt>
      <trkpt lat="22.863118" lon="110.763269">
        <ele>150.371656</ele>
        <time>2026-08-18T03:39:44.000Z</time>
      </trkpt>
      <trkpt lat="22.863187" lon="110.763326">
        <ele>150.358603</ele>
        <time>2026-08-18T03:39:45.000Z</time>
      </trkpt>
      <trkpt lat="22.863254" lon="110.763383">
        <ele>150.345788</ele>
        <time>2026-08-18T03:39:46.000Z</time>
      </trkpt>
      <trkpt lat="22.863320" lon="110.763439">
        <ele>150.333176</ele>
        <time>2026-08-18T03:39:47.000Z</time>
      </trkpt>
      <trkpt lat="22.863385" lon="110.763493">
        <ele>150.320854</ele>
        <time>2026-08-18T03:39:48.000Z</time>
      </trkpt>
      <trkpt lat="22.863449" lon="110.763546">
        <ele>150.308735</ele>
        <time>2026-08-18T03:39:49.000Z</time>
      </trkpt>
      <trkpt lat="22.863510" lon="110.763601">
        <ele>150.296797</ele>
        <time>2026-08-18T03:39:50.000Z</time>
      </trkpt>
      <trkpt lat="22.863572" lon="110.763655">
        <ele>150.284830</ele>
        <time>2026-08-18T03:39:51.000Z</time>
      </trkpt>
      <trkpt lat="22.863633" lon="110.763707">
        <ele>150.273154</ele>
        <time>2026-08-18T03:39:52.000Z</time>
      </trkpt>
      <trkpt lat="22.863693" lon="110.763758">
        <ele>150.261681</ele>
        <time>2026-08-18T03:39:53.000Z</time>
      </trkpt>
      <trkpt lat="22.863751" lon="110.763808">
        <ele>150.250531</ele>
        <time>2026-08-18T03:39:54.000Z</time>
      </trkpt>
      <trkpt lat="22.863808" lon="110.763857">
        <ele>150.239585</ele>
        <time>2026-08-18T03:39:55.000Z</time>
      </trkpt>
      <trkpt lat="22.863863" lon="110.763906">
        <ele>150.228873</ele>
        <time>2026-08-18T03:39:56.000Z</time>
      </trkpt>
      <trkpt lat="22.863916" lon="110.763957">
        <ele>150.218211</ele>
        <time>2026-08-18T03:39:57.000Z</time>
      </trkpt>
      <trkpt lat="22.863968" lon="110.764008">
        <ele>150.207660</ele>
        <time>2026-08-18T03:39:58.000Z</time>
      </trkpt>
      <trkpt lat="22.864020" lon="110.764056">
        <ele>150.197384</ele>
        <time>2026-08-18T03:39:59.000Z</time>
      </trkpt>
      <trkpt lat="22.864072" lon="110.764099">
        <ele>150.187543</ele>
        <time>2026-08-18T03:40:00.000Z</time>
      </trkpt>
      <trkpt lat="22.864125" lon="110.764141">
        <ele>150.177664</ele>
        <time>2026-08-18T03:40:01.000Z</time>
      </trkpt>
      <trkpt lat="22.864176" lon="110.764186">
        <ele>150.167770</ele>
        <time>2026-08-18T03:40:02.000Z</time>
      </trkpt>
      <trkpt lat="22.864227" lon="110.764232">
        <ele>150.157787</ele>
        <time>2026-08-18T03:40:03.000Z</time>
      </trkpt>
      <trkpt lat="22.864277" lon="110.764275">
        <ele>150.148184</ele>
        <time>2026-08-18T03:40:04.000Z</time>
      </trkpt>
      <trkpt lat="22.864325" lon="110.764320">
        <ele>150.138636</ele>
        <time>2026-08-18T03:40:05.000Z</time>
      </trkpt>
      <trkpt lat="22.864372" lon="110.764365">
        <ele>150.129201</ele>
        <time>2026-08-18T03:40:06.000Z</time>
      </trkpt>
      <trkpt lat="22.864418" lon="110.764408">
        <ele>150.120062</ele>
        <time>2026-08-18T03:40:07.000Z</time>
      </trkpt>
      <trkpt lat="22.864465" lon="110.764448">
        <ele>150.111071</ele>
        <time>2026-08-18T03:40:08.000Z</time>
      </trkpt>
      <trkpt lat="22.864511" lon="110.764491">
        <ele>150.099873</ele>
        <time>2026-08-18T03:40:09.000Z</time>
      </trkpt>
      <trkpt lat="22.864556" lon="110.764536">
        <ele>150.069541</ele>
        <time>2026-08-18T03:40:10.000Z</time>
      </trkpt>
      <trkpt lat="22.864600" lon="110.764579">
        <ele>150.040190</ele>
        <time>2026-08-18T03:40:11.000Z</time>
      </trkpt>
      <trkpt lat="22.864643" lon="110.764622">
        <ele>150.011206</ele>
        <time>2026-08-18T03:40:12.000Z</time>
      </trkpt>
      <trkpt lat="22.864685" lon="110.764664">
        <ele>149.982895</ele>
        <time>2026-08-18T03:40:13.000Z</time>
      </trkpt>
      <trkpt lat="22.864728" lon="110.764708">
        <ele>149.953600</ele>
        <time>2026-08-18T03:40:14.000Z</time>
      </trkpt>
      <trkpt lat="22.864769" lon="110.764751">
        <ele>149.925336</ele>
        <time>2026-08-18T03:40:15.000Z</time>
      </trkpt>
      <trkpt lat="22.864810" lon="110.764792">
        <ele>149.897700</ele>
        <time>2026-08-18T03:40:16.000Z</time>
      </trkpt>
      <trkpt lat="22.864847" lon="110.764835">
        <ele>149.870827</ele>
        <time>2026-08-18T03:40:17.000Z</time>
      </trkpt>
      <trkpt lat="22.864886" lon="110.764877">
        <ele>149.843592</ele>
        <time>2026-08-18T03:40:18.000Z</time>
      </trkpt>
      <trkpt lat="22.864923" lon="110.764919">
        <ele>149.817051</ele>
        <time>2026-08-18T03:40:19.000Z</time>
      </trkpt>
      <trkpt lat="22.864957" lon="110.764962">
        <ele>149.791171</ele>
        <time>2026-08-18T03:40:20.000Z</time>
      </trkpt>
      <trkpt lat="22.864992" lon="110.765002">
        <ele>149.765975</ele>
        <time>2026-08-18T03:40:21.000Z</time>
      </trkpt>
      <trkpt lat="22.865032" lon="110.765040">
        <ele>149.739623</ele>
        <time>2026-08-18T03:40:22.000Z</time>
      </trkpt>
      <trkpt lat="22.865073" lon="110.765078">
        <ele>149.712897</ele>
        <time>2026-08-18T03:40:23.000Z</time>
      </trkpt>
      <trkpt lat="22.865108" lon="110.765117">
        <ele>149.688030</ele>
        <time>2026-08-18T03:40:24.000Z</time>
      </trkpt>
      <trkpt lat="22.865144" lon="110.765160">
        <ele>149.661494</ele>
        <time>2026-08-18T03:40:25.000Z</time>
      </trkpt>
      <trkpt lat="22.865180" lon="110.765204">
        <ele>149.634617</ele>
        <time>2026-08-18T03:40:26.000Z</time>
      </trkpt>
      <trkpt lat="22.865219" lon="110.765246">
        <ele>149.607382</ele>
        <time>2026-08-18T03:40:27.000Z</time>
      </trkpt>
      <trkpt lat="22.865257" lon="110.765288">
        <ele>149.580496</ele>
        <time>2026-08-18T03:40:28.000Z</time>
      </trkpt>
      <trkpt lat="22.865295" lon="110.765333">
        <ele>149.552616</ele>
        <time>2026-08-18T03:40:29.000Z</time>
      </trkpt>
      <trkpt lat="22.865330" lon="110.765380">
        <ele>149.525014</ele>
        <time>2026-08-18T03:40:30.000Z</time>
      </trkpt>
      <trkpt lat="22.865364" lon="110.765427">
        <ele>149.497721</ele>
        <time>2026-08-18T03:40:31.000Z</time>
      </trkpt>
      <trkpt lat="22.865405" lon="110.765476">
        <ele>149.467489</ele>
        <time>2026-08-18T03:40:32.000Z</time>
      </trkpt>
      <trkpt lat="22.865441" lon="110.765521">
        <ele>149.440269</ele>
        <time>2026-08-18T03:40:33.000Z</time>
      </trkpt>
      <trkpt lat="22.865477" lon="110.765564">
        <ele>149.413732</ele>
        <time>2026-08-18T03:40:34.000Z</time>
      </trkpt>
      <trkpt lat="22.865510" lon="110.765607">
        <ele>149.388172</ele>
        <time>2026-08-18T03:40:35.000Z</time>
      </trkpt>
      <trkpt lat="22.865543" lon="110.765655">
        <ele>149.360818</ele>
        <time>2026-08-18T03:40:36.000Z</time>
      </trkpt>
      <trkpt lat="22.865576" lon="110.765703">
        <ele>149.333463</ele>
        <time>2026-08-18T03:40:37.000Z</time>
      </trkpt>
      <trkpt lat="22.865607" lon="110.765750">
        <ele>149.307063</ele>
        <time>2026-08-18T03:40:38.000Z</time>
      </trkpt>
      <trkpt lat="22.865638" lon="110.765796">
        <ele>149.281032</ele>
        <time>2026-08-18T03:40:39.000Z</time>
      </trkpt>
      <trkpt lat="22.865673" lon="110.765842">
        <ele>149.253784</ele>
        <time>2026-08-18T03:40:40.000Z</time>
      </trkpt>
      <trkpt lat="22.865707" lon="110.765891">
        <ele>149.225767</ele>
        <time>2026-08-18T03:40:41.000Z</time>
      </trkpt>
      <trkpt lat="22.865740" lon="110.765941">
        <ele>149.178325</ele>
        <time>2026-08-18T03:40:42.000Z</time>
      </trkpt>
      <trkpt lat="22.865771" lon="110.765990">
        <ele>149.112424</ele>
        <time>2026-08-18T03:40:43.000Z</time>
      </trkpt>
      <trkpt lat="22.865796" lon="110.766037">
        <ele>149.052254</ele>
        <time>2026-08-18T03:40:44.000Z</time>
      </trkpt>
      <trkpt lat="22.865824" lon="110.766088">
        <ele>148.986431</ele>
        <time>2026-08-18T03:40:45.000Z</time>
      </trkpt>
      <trkpt lat="22.865860" lon="110.766137">
        <ele>148.916947</ele>
        <time>2026-08-18T03:40:46.000Z</time>
      </trkpt>
      <trkpt lat="22.865894" lon="110.766189">
        <ele>148.846252</ele>
        <time>2026-08-18T03:40:47.000Z</time>
      </trkpt>
      <trkpt lat="22.865928" lon="110.766241">
        <ele>148.775557</ele>
        <time>2026-08-18T03:40:48.000Z</time>
      </trkpt>
      <trkpt lat="22.865963" lon="110.766295">
        <ele>148.702357</ele>
        <time>2026-08-18T03:40:49.000Z</time>
      </trkpt>
      <trkpt lat="22.865998" lon="110.766349">
        <ele>148.629156</ele>
        <time>2026-08-18T03:40:50.000Z</time>
      </trkpt>
      <trkpt lat="22.866034" lon="110.766402">
        <ele>148.556153</ele>
        <time>2026-08-18T03:40:51.000Z</time>
      </trkpt>
      <trkpt lat="22.866069" lon="110.766455">
        <ele>148.483856</ele>
        <time>2026-08-18T03:40:52.000Z</time>
      </trkpt>
      <trkpt lat="22.866105" lon="110.766509">
        <ele>148.409957</ele>
        <time>2026-08-18T03:40:53.000Z</time>
      </trkpt>
      <trkpt lat="22.866138" lon="110.766565">
        <ele>148.336256</ele>
        <time>2026-08-18T03:40:54.000Z</time>
      </trkpt>
      <trkpt lat="22.866169" lon="110.766622">
        <ele>148.262871</ele>
        <time>2026-08-18T03:40:55.000Z</time>
      </trkpt>
      <trkpt lat="22.866199" lon="110.766677">
        <ele>148.192007</ele>
        <time>2026-08-18T03:40:56.000Z</time>
      </trkpt>
      <trkpt lat="22.866233" lon="110.766735">
        <ele>148.115789</ele>
        <time>2026-08-18T03:40:57.000Z</time>
      </trkpt>
      <trkpt lat="22.866267" lon="110.766792">
        <ele>148.040505</ele>
        <time>2026-08-18T03:40:58.000Z</time>
      </trkpt>
      <trkpt lat="22.866299" lon="110.766848">
        <ele>147.967445</ele>
        <time>2026-08-18T03:40:59.000Z</time>
      </trkpt>
      <trkpt lat="22.866330" lon="110.766904">
        <ele>147.895013</ele>
        <time>2026-08-18T03:41:00.000Z</time>
      </trkpt>
      <trkpt lat="22.866361" lon="110.766959">
        <ele>147.823528</ele>
        <time>2026-08-18T03:41:01.000Z</time>
      </trkpt>
      <trkpt lat="22.866392" lon="110.767016">
        <ele>147.750143</ele>
        <time>2026-08-18T03:41:02.000Z</time>
      </trkpt>
      <trkpt lat="22.866423" lon="110.767077">
        <ele>147.672906</ele>
        <time>2026-08-18T03:41:03.000Z</time>
      </trkpt>
      <trkpt lat="22.866457" lon="110.767138">
        <ele>147.593862</ele>
        <time>2026-08-18T03:41:04.000Z</time>
      </trkpt>
      <trkpt lat="22.866485" lon="110.767202">
        <ele>147.515310</ele>
        <time>2026-08-18T03:41:05.000Z</time>
      </trkpt>
      <trkpt lat="22.866507" lon="110.767262">
        <ele>147.443713</ele>
        <time>2026-08-18T03:41:06.000Z</time>
      </trkpt>
      <trkpt lat="22.866534" lon="110.767322">
        <ele>147.369680</ele>
        <time>2026-08-18T03:41:07.000Z</time>
      </trkpt>
      <trkpt lat="22.866564" lon="110.767382">
        <ele>147.293992</ele>
        <time>2026-08-18T03:41:08.000Z</time>
      </trkpt>
      <trkpt lat="22.866594" lon="110.767443">
        <ele>147.217329</ele>
        <time>2026-08-18T03:41:09.000Z</time>
      </trkpt>
      <trkpt lat="22.866621" lon="110.767504">
        <ele>147.142298</ele>
        <time>2026-08-18T03:41:10.000Z</time>
      </trkpt>
      <trkpt lat="22.866648" lon="110.767565">
        <ele>147.067267</ele>
        <time>2026-08-18T03:41:11.000Z</time>
      </trkpt>
      <trkpt lat="22.866676" lon="110.767626">
        <ele>146.967830</ele>
        <time>2026-08-18T03:41:12.000Z</time>
      </trkpt>
      <trkpt lat="22.866705" lon="110.767683">
        <ele>146.864428</ele>
        <time>2026-08-18T03:41:13.000Z</time>
      </trkpt>
      <trkpt lat="22.866736" lon="110.767743">
        <ele>146.755187</ele>
        <time>2026-08-18T03:41:14.000Z</time>
      </trkpt>
      <trkpt lat="22.866760" lon="110.767805">
        <ele>146.648391</ele>
        <time>2026-08-18T03:41:15.000Z</time>
      </trkpt>
      <trkpt lat="22.866785" lon="110.767869">
        <ele>146.537999</ele>
        <time>2026-08-18T03:41:16.000Z</time>
      </trkpt>
      <trkpt lat="22.866811" lon="110.767932">
        <ele>146.428374</ele>
        <time>2026-08-18T03:41:17.000Z</time>
      </trkpt>
      <trkpt lat="22.866831" lon="110.767991">
        <ele>146.328539</ele>
        <time>2026-08-18T03:41:18.000Z</time>
      </trkpt>
      <trkpt lat="22.866853" lon="110.768052">
        <ele>146.224512</ele>
        <time>2026-08-18T03:41:19.000Z</time>
      </trkpt>
      <trkpt lat="22.866873" lon="110.768113">
        <ele>146.121690</ele>
        <time>2026-08-18T03:41:20.000Z</time>
      </trkpt>
      <trkpt lat="22.866894" lon="110.768175">
        <ele>146.016789</ele>
        <time>2026-08-18T03:41:21.000Z</time>
      </trkpt>
      <trkpt lat="22.866913" lon="110.768238">
        <ele>145.911518</ele>
        <time>2026-08-18T03:41:22.000Z</time>
      </trkpt>
      <trkpt lat="22.866933" lon="110.768302">
        <ele>145.804196</ele>
        <time>2026-08-18T03:41:23.000Z</time>
      </trkpt>
      <trkpt lat="22.866953" lon="110.768366">
        <ele>145.696874</ele>
        <time>2026-08-18T03:41:24.000Z</time>
      </trkpt>
      <trkpt lat="22.866972" lon="110.768432">
        <ele>145.587066</ele>
        <time>2026-08-18T03:41:25.000Z</time>
      </trkpt>
      <trkpt lat="22.866991" lon="110.768498">
        <ele>145.477258</ele>
        <time>2026-08-18T03:41:26.000Z</time>
      </trkpt>
      <trkpt lat="22.867009" lon="110.768564">
        <ele>145.367951</ele>
        <time>2026-08-18T03:41:27.000Z</time>
      </trkpt>
      <trkpt lat="22.867028" lon="110.768631">
        <ele>145.256626</ele>
        <time>2026-08-18T03:41:28.000Z</time>
      </trkpt>
      <trkpt lat="22.867047" lon="110.768698">
        <ele>145.145301</ele>
        <time>2026-08-18T03:41:29.000Z</time>
      </trkpt>
      <trkpt lat="22.867065" lon="110.768765">
        <ele>145.034471</ele>
        <time>2026-08-18T03:41:30.000Z</time>
      </trkpt>
      <trkpt lat="22.867081" lon="110.768833">
        <ele>144.923018</ele>
        <time>2026-08-18T03:41:31.000Z</time>
      </trkpt>
      <trkpt lat="22.867096" lon="110.768902">
        <ele>144.810433</ele>
        <time>2026-08-18T03:41:32.000Z</time>
      </trkpt>
      <trkpt lat="22.867111" lon="110.768971">
        <ele>144.697849</ele>
        <time>2026-08-18T03:41:33.000Z</time>
      </trkpt>
      <trkpt lat="22.867128" lon="110.769041">
        <ele>144.582889</ele>
        <time>2026-08-18T03:41:34.000Z</time>
      </trkpt>
      <trkpt lat="22.867143" lon="110.769111">
        <ele>144.468758</ele>
        <time>2026-08-18T03:41:35.000Z</time>
      </trkpt>
      <trkpt lat="22.867159" lon="110.769182">
        <ele>144.352683</ele>
        <time>2026-08-18T03:41:36.000Z</time>
      </trkpt>
      <trkpt lat="22.867173" lon="110.769252">
        <ele>144.238931</ele>
        <time>2026-08-18T03:41:37.000Z</time>
      </trkpt>
      <trkpt lat="22.867187" lon="110.769325">
        <ele>144.120518</ele>
        <time>2026-08-18T03:41:38.000Z</time>
      </trkpt>
      <trkpt lat="22.867202" lon="110.769398">
        <ele>144.001743</ele>
        <time>2026-08-18T03:41:39.000Z</time>
      </trkpt>
      <trkpt lat="22.867216" lon="110.769473">
        <ele>143.875300</ele>
        <time>2026-08-18T03:41:40.000Z</time>
      </trkpt>
      <trkpt lat="22.867229" lon="110.769545">
        <ele>143.750197</ele>
        <time>2026-08-18T03:41:41.000Z</time>
      </trkpt>
      <trkpt lat="22.867242" lon="110.769618">
        <ele>143.623420</ele>
        <time>2026-08-18T03:41:42.000Z</time>
      </trkpt>
      <trkpt lat="22.867256" lon="110.769690">
        <ele>143.497948</ele>
        <time>2026-08-18T03:41:43.000Z</time>
      </trkpt>
      <trkpt lat="22.867267" lon="110.769763">
        <ele>143.371822</ele>
        <time>2026-08-18T03:41:44.000Z</time>
      </trkpt>
      <trkpt lat="22.867277" lon="110.769835">
        <ele>143.247667</ele>
        <time>2026-08-18T03:41:45.000Z</time>
      </trkpt>
      <trkpt lat="22.867288" lon="110.769908">
        <ele>143.121540</ele>
        <time>2026-08-18T03:41:46.000Z</time>
      </trkpt>
      <trkpt lat="22.867299" lon="110.769981">
        <ele>142.995414</ele>
        <time>2026-08-18T03:41:47.000Z</time>
      </trkpt>
      <trkpt lat="22.867313" lon="110.770054">
        <ele>142.868273</ele>
        <time>2026-08-18T03:41:48.000Z</time>
      </trkpt>
      <trkpt lat="22.867327" lon="110.770127">
        <ele>142.741132</ele>
        <time>2026-08-18T03:41:49.000Z</time>
      </trkpt>
      <trkpt lat="22.867339" lon="110.770200">
        <ele>142.614694</ele>
        <time>2026-08-18T03:41:50.000Z</time>
      </trkpt>
      <trkpt lat="22.867350" lon="110.770273">
        <ele>142.488567</ele>
        <time>2026-08-18T03:41:51.000Z</time>
      </trkpt>
      <trkpt lat="22.867360" lon="110.770347">
        <ele>142.361039</ele>
        <time>2026-08-18T03:41:52.000Z</time>
      </trkpt>
      <trkpt lat="22.867368" lon="110.770422">
        <ele>142.232302</ele>
        <time>2026-08-18T03:41:53.000Z</time>
      </trkpt>
      <trkpt lat="22.867374" lon="110.770496">
        <ele>142.105636</ele>
        <time>2026-08-18T03:41:54.000Z</time>
      </trkpt>
      <trkpt lat="22.867380" lon="110.770571">
        <ele>141.977272</ele>
        <time>2026-08-18T03:41:55.000Z</time>
      </trkpt>
      <trkpt lat="22.867388" lon="110.770646">
        <ele>141.848535</ele>
        <time>2026-08-18T03:41:56.000Z</time>
      </trkpt>
      <trkpt lat="22.867396" lon="110.770721">
        <ele>141.719798</ele>
        <time>2026-08-18T03:41:57.000Z</time>
      </trkpt>
      <trkpt lat="22.867405" lon="110.770796">
        <ele>141.590834</ele>
        <time>2026-08-18T03:41:58.000Z</time>
      </trkpt>
      <trkpt lat="22.867415" lon="110.770870">
        <ele>141.463307</ele>
        <time>2026-08-18T03:41:59.000Z</time>
      </trkpt>
      <trkpt lat="22.867424" lon="110.770946">
        <ele>141.332652</ele>
        <time>2026-08-18T03:42:00.000Z</time>
      </trkpt>
      <trkpt lat="22.867431" lon="110.771022">
        <ele>141.202418</ele>
        <time>2026-08-18T03:42:01.000Z</time>
      </trkpt>
      <trkpt lat="22.867440" lon="110.771097">
        <ele>141.073455</ele>
        <time>2026-08-18T03:42:02.000Z</time>
      </trkpt>
      <trkpt lat="22.867450" lon="110.771172">
        <ele>140.944240</ele>
        <time>2026-08-18T03:42:03.000Z</time>
      </trkpt>
      <trkpt lat="22.867460" lon="110.771248">
        <ele>140.813337</ele>
        <time>2026-08-18T03:42:04.000Z</time>
      </trkpt>
      <trkpt lat="22.867470" lon="110.771322">
        <ele>140.685809</ele>
        <time>2026-08-18T03:42:05.000Z</time>
      </trkpt>
      <trkpt lat="22.867481" lon="110.771398">
        <ele>140.569784</ele>
        <time>2026-08-18T03:42:06.000Z</time>
      </trkpt>
      <trkpt lat="22.867491" lon="110.771475">
        <ele>140.468658</ele>
        <time>2026-08-18T03:42:07.000Z</time>
      </trkpt>
      <trkpt lat="22.867503" lon="110.771550">
        <ele>140.369664</ele>
        <time>2026-08-18T03:42:08.000Z</time>
      </trkpt>
      <trkpt lat="22.867515" lon="110.771625">
        <ele>140.270669</ele>
        <time>2026-08-18T03:42:09.000Z</time>
      </trkpt>
      <trkpt lat="22.867525" lon="110.771700">
        <ele>140.172118</ele>
        <time>2026-08-18T03:42:10.000Z</time>
      </trkpt>
      <trkpt lat="22.867536" lon="110.771777">
        <ele>140.070786</ele>
        <time>2026-08-18T03:42:11.000Z</time>
      </trkpt>
      <trkpt lat="22.867548" lon="110.771852">
        <ele>139.971791</ele>
        <time>2026-08-18T03:42:12.000Z</time>
      </trkpt>
      <trkpt lat="22.867560" lon="110.771927">
        <ele>139.872796</ele>
        <time>2026-08-18T03:42:13.000Z</time>
      </trkpt>
      <trkpt lat="22.867572" lon="110.772003">
        <ele>139.772520</ele>
        <time>2026-08-18T03:42:14.000Z</time>
      </trkpt>
      <trkpt lat="22.867584" lon="110.772078">
        <ele>139.673526</ele>
        <time>2026-08-18T03:42:15.000Z</time>
      </trkpt>
      <trkpt lat="22.867596" lon="110.772153">
        <ele>139.574531</ele>
        <time>2026-08-18T03:42:16.000Z</time>
      </trkpt>
      <trkpt lat="22.867609" lon="110.772230">
        <ele>139.472728</ele>
        <time>2026-08-18T03:42:17.000Z</time>
      </trkpt>
      <trkpt lat="22.867622" lon="110.772305">
        <ele>139.373482</ele>
        <time>2026-08-18T03:42:18.000Z</time>
      </trkpt>
      <trkpt lat="22.867636" lon="110.772379">
        <ele>139.275240</ele>
        <time>2026-08-18T03:42:19.000Z</time>
      </trkpt>
      <trkpt lat="22.867650" lon="110.772453">
        <ele>139.176998</ele>
        <time>2026-08-18T03:42:20.000Z</time>
      </trkpt>
      <trkpt lat="22.867665" lon="110.772525">
        <ele>139.081001</ele>
        <time>2026-08-18T03:42:21.000Z</time>
      </trkpt>
      <trkpt lat="22.867680" lon="110.772598">
        <ele>138.983735</ele>
        <time>2026-08-18T03:42:22.000Z</time>
      </trkpt>
      <trkpt lat="22.867695" lon="110.772671">
        <ele>138.886469</ele>
        <time>2026-08-18T03:42:23.000Z</time>
      </trkpt>
      <trkpt lat="22.867710" lon="110.772742">
        <ele>138.791740</ele>
        <time>2026-08-18T03:42:24.000Z</time>
      </trkpt>
      <trkpt lat="22.867726" lon="110.772812">
        <ele>138.697948</ele>
        <time>2026-08-18T03:42:25.000Z</time>
      </trkpt>
      <trkpt lat="22.867743" lon="110.772882">
        <ele>138.603806</ele>
        <time>2026-08-18T03:42:26.000Z</time>
      </trkpt>
      <trkpt lat="22.867761" lon="110.772953">
        <ele>138.508042</ele>
        <time>2026-08-18T03:42:27.000Z</time>
      </trkpt>
      <trkpt lat="22.867778" lon="110.773023">
        <ele>138.413900</ele>
        <time>2026-08-18T03:42:28.000Z</time>
      </trkpt>
      <trkpt lat="22.867797" lon="110.773093">
        <ele>138.319000</ele>
        <time>2026-08-18T03:42:29.000Z</time>
      </trkpt>
      <trkpt lat="22.867815" lon="110.773162">
        <ele>138.225741</ele>
        <time>2026-08-18T03:42:30.000Z</time>
      </trkpt>
      <trkpt lat="22.867833" lon="110.773230">
        <ele>138.133733</ele>
        <time>2026-08-18T03:42:31.000Z</time>
      </trkpt>
      <trkpt lat="22.867853" lon="110.773297">
        <ele>138.061011</ele>
        <time>2026-08-18T03:42:32.000Z</time>
      </trkpt>
      <trkpt lat="22.867873" lon="110.773363">
        <ele>138.015827</ele>
        <time>2026-08-18T03:42:33.000Z</time>
      </trkpt>
      <trkpt lat="22.867893" lon="110.773430">
        <ele>137.970025</ele>
        <time>2026-08-18T03:42:34.000Z</time>
      </trkpt>
      <trkpt lat="22.867915" lon="110.773496">
        <ele>137.924380</ele>
        <time>2026-08-18T03:42:35.000Z</time>
      </trkpt>
      <trkpt lat="22.867936" lon="110.773560">
        <ele>137.880198</ele>
        <time>2026-08-18T03:42:36.000Z</time>
      </trkpt>
      <trkpt lat="22.867957" lon="110.773625">
        <ele>137.835403</ele>
        <time>2026-08-18T03:42:37.000Z</time>
      </trkpt>
      <trkpt lat="22.867978" lon="110.773690">
        <ele>137.790608</ele>
        <time>2026-08-18T03:42:38.000Z</time>
      </trkpt>
      <trkpt lat="22.868000" lon="110.773755">
        <ele>137.745575</ele>
        <time>2026-08-18T03:42:39.000Z</time>
      </trkpt>
      <trkpt lat="22.868021" lon="110.773817">
        <ele>137.702616</ele>
        <time>2026-08-18T03:42:40.000Z</time>
      </trkpt>
      <trkpt lat="22.868041" lon="110.773880">
        <ele>137.659281</ele>
        <time>2026-08-18T03:42:41.000Z</time>
      </trkpt>
      <trkpt lat="22.868063" lon="110.773944">
        <ele>137.614857</ele>
        <time>2026-08-18T03:42:42.000Z</time>
      </trkpt>
      <trkpt lat="22.868085" lon="110.774006">
        <ele>137.571650</ele>
        <time>2026-08-18T03:42:43.000Z</time>
      </trkpt>
      <trkpt lat="22.868108" lon="110.774070">
        <ele>137.526975</ele>
        <time>2026-08-18T03:42:44.000Z</time>
      </trkpt>
      <trkpt lat="22.868132" lon="110.774133">
        <ele>137.482640</ele>
        <time>2026-08-18T03:42:45.000Z</time>
      </trkpt>
      <trkpt lat="22.868156" lon="110.774195">
        <ele>137.438905</ele>
        <time>2026-08-18T03:42:46.000Z</time>
      </trkpt>
      <trkpt lat="22.868180" lon="110.774257">
        <ele>137.395171</ele>
        <time>2026-08-18T03:42:47.000Z</time>
      </trkpt>
      <trkpt lat="22.868204" lon="110.774317">
        <ele>137.352632</ele>
        <time>2026-08-18T03:42:48.000Z</time>
      </trkpt>
      <trkpt lat="22.868229" lon="110.774378">
        <ele>137.309214</ele>
        <time>2026-08-18T03:42:49.000Z</time>
      </trkpt>
      <trkpt lat="22.868255" lon="110.774438">
        <ele>137.266094</ele>
        <time>2026-08-18T03:42:50.000Z</time>
      </trkpt>
      <trkpt lat="22.868278" lon="110.774497">
        <ele>137.224432</ele>
        <time>2026-08-18T03:42:51.000Z</time>
      </trkpt>
      <trkpt lat="22.868303" lon="110.774557">
        <ele>137.181608</ele>
        <time>2026-08-18T03:42:52.000Z</time>
      </trkpt>
      <trkpt lat="22.868328" lon="110.774617">
        <ele>137.138783</ele>
        <time>2026-08-18T03:42:53.000Z</time>
      </trkpt>
      <trkpt lat="22.868355" lon="110.774677">
        <ele>137.095358</ele>
        <time>2026-08-18T03:42:54.000Z</time>
      </trkpt>
      <trkpt lat="22.868382" lon="110.774737">
        <ele>137.051933</ele>
        <time>2026-08-18T03:42:55.000Z</time>
      </trkpt>
      <trkpt lat="22.868408" lon="110.774797">
        <ele>137.008813</ele>
        <time>2026-08-18T03:42:56.000Z</time>
      </trkpt>
      <trkpt lat="22.868436" lon="110.774856">
        <ele>136.965653</ele>
        <time>2026-08-18T03:42:57.000Z</time>
      </trkpt>
      <trkpt lat="22.868466" lon="110.774916">
        <ele>136.921258</ele>
        <time>2026-08-18T03:42:58.000Z</time>
      </trkpt>
      <trkpt lat="22.868495" lon="110.774975">
        <ele>136.877770</ele>
        <time>2026-08-18T03:42:59.000Z</time>
      </trkpt>
      <trkpt lat="22.868525" lon="110.775033">
        <ele>136.834514</ele>
        <time>2026-08-18T03:43:00.000Z</time>
      </trkpt>
      <trkpt lat="22.868554" lon="110.775092">
        <ele>136.786182</ele>
        <time>2026-08-18T03:43:01.000Z</time>
      </trkpt>
      <trkpt lat="22.868583" lon="110.775150">
        <ele>136.732527</ele>
        <time>2026-08-18T03:43:02.000Z</time>
      </trkpt>
      <trkpt lat="22.868612" lon="110.775207">
        <ele>136.679584</ele>
        <time>2026-08-18T03:43:03.000Z</time>
      </trkpt>
      <trkpt lat="22.868639" lon="110.775264">
        <ele>136.627472</ele>
        <time>2026-08-18T03:43:04.000Z</time>
      </trkpt>
      <trkpt lat="22.868669" lon="110.775322">
        <ele>136.573391</ele>
        <time>2026-08-18T03:43:05.000Z</time>
      </trkpt>
      <trkpt lat="22.868697" lon="110.775378">
        <ele>136.521585</ele>
        <time>2026-08-18T03:43:06.000Z</time>
      </trkpt>
      <trkpt lat="22.868725" lon="110.775434">
        <ele>136.469780</ele>
        <time>2026-08-18T03:43:07.000Z</time>
      </trkpt>
      <trkpt lat="22.868754" lon="110.775490">
        <ele>136.417548</ele>
        <time>2026-08-18T03:43:08.000Z</time>
      </trkpt>
      <trkpt lat="22.868784" lon="110.775546">
        <ele>136.364878</ele>
        <time>2026-08-18T03:43:09.000Z</time>
      </trkpt>
      <trkpt lat="22.868813" lon="110.775602">
        <ele>136.312647</ele>
        <time>2026-08-18T03:43:10.000Z</time>
      </trkpt>
      <trkpt lat="22.868842" lon="110.775657">
        <ele>136.261122</ele>
        <time>2026-08-18T03:43:11.000Z</time>
      </trkpt>
      <trkpt lat="22.868870" lon="110.775713">
        <ele>136.209317</ele>
        <time>2026-08-18T03:43:12.000Z</time>
      </trkpt>
      <trkpt lat="22.868898" lon="110.775769">
        <ele>136.157512</ele>
        <time>2026-08-18T03:43:13.000Z</time>
      </trkpt>
      <trkpt lat="22.868925" lon="110.775824">
        <ele>136.106841</ele>
        <time>2026-08-18T03:43:14.000Z</time>
      </trkpt>
      <trkpt lat="22.868952" lon="110.775879">
        <ele>136.056170</ele>
        <time>2026-08-18T03:43:15.000Z</time>
      </trkpt>
      <trkpt lat="22.868981" lon="110.775935">
        <ele>136.003938</ele>
        <time>2026-08-18T03:43:16.000Z</time>
      </trkpt>
      <trkpt lat="22.869009" lon="110.775992">
        <ele>135.951417</ele>
        <time>2026-08-18T03:43:17.000Z</time>
      </trkpt>
      <trkpt lat="22.869038" lon="110.776047">
        <ele>135.899892</ele>
        <time>2026-08-18T03:43:18.000Z</time>
      </trkpt>
      <trkpt lat="22.869067" lon="110.776103">
        <ele>135.847660</ele>
        <time>2026-08-18T03:43:19.000Z</time>
      </trkpt>
      <trkpt lat="22.869097" lon="110.776157">
        <ele>135.796390</ele>
        <time>2026-08-18T03:43:20.000Z</time>
      </trkpt>
      <trkpt lat="22.869128" lon="110.776211">
        <ele>135.744658</ele>
        <time>2026-08-18T03:43:21.000Z</time>
      </trkpt>
      <trkpt lat="22.869159" lon="110.776265">
        <ele>135.692927</ele>
        <time>2026-08-18T03:43:22.000Z</time>
      </trkpt>
      <trkpt lat="22.869189" lon="110.776318">
        <ele>135.642351</ele>
        <time>2026-08-18T03:43:23.000Z</time>
      </trkpt>
      <trkpt lat="22.869219" lon="110.776371">
        <ele>135.591775</ele>
        <time>2026-08-18T03:43:24.000Z</time>
      </trkpt>
      <trkpt lat="22.869248" lon="110.776426">
        <ele>135.540251</ele>
        <time>2026-08-18T03:43:25.000Z</time>
      </trkpt>
      <trkpt lat="22.869277" lon="110.776480">
        <ele>135.489430</ele>
        <time>2026-08-18T03:43:26.000Z</time>
      </trkpt>
      <trkpt lat="22.869305" lon="110.776535">
        <ele>135.438339</ele>
        <time>2026-08-18T03:43:27.000Z</time>
      </trkpt>
      <trkpt lat="22.869334" lon="110.776588">
        <ele>135.388219</ele>
        <time>2026-08-18T03:43:28.000Z</time>
      </trkpt>
      <trkpt lat="22.869362" lon="110.776642">
        <ele>135.337837</ele>
        <time>2026-08-18T03:43:29.000Z</time>
      </trkpt>
      <trkpt lat="22.869388" lon="110.776694">
        <ele>135.289733</ele>
        <time>2026-08-18T03:43:30.000Z</time>
      </trkpt>
      <trkpt lat="22.869416" lon="110.776749">
        <ele>135.238641</ele>
        <time>2026-08-18T03:43:31.000Z</time>
      </trkpt>
      <trkpt lat="22.869444" lon="110.776802">
        <ele>135.202088</ele>
        <time>2026-08-18T03:43:32.000Z</time>
      </trkpt>
      <trkpt lat="22.869474" lon="110.776856">
        <ele>135.170491</ele>
        <time>2026-08-18T03:43:33.000Z</time>
      </trkpt>
      <trkpt lat="22.869502" lon="110.776909">
        <ele>135.139877</ele>
        <time>2026-08-18T03:43:34.000Z</time>
      </trkpt>
      <trkpt lat="22.869529" lon="110.776963">
        <ele>135.109090</ele>
        <time>2026-08-18T03:43:35.000Z</time>
      </trkpt>
      <trkpt lat="22.869555" lon="110.777017">
        <ele>135.078559</ele>
        <time>2026-08-18T03:43:36.000Z</time>
      </trkpt>
      <trkpt lat="22.869583" lon="110.777070">
        <ele>135.047945</ele>
        <time>2026-08-18T03:43:37.000Z</time>
      </trkpt>
      <trkpt lat="22.869611" lon="110.777120">
        <ele>135.018625</ele>
        <time>2026-08-18T03:43:38.000Z</time>
      </trkpt>
      <trkpt lat="22.869640" lon="110.777172">
        <ele>134.988167</ele>
        <time>2026-08-18T03:43:39.000Z</time>
      </trkpt>
      <trkpt lat="22.869669" lon="110.777225">
        <ele>134.957279</ele>
        <time>2026-08-18T03:43:40.000Z</time>
      </trkpt>
      <trkpt lat="22.869696" lon="110.777279">
        <ele>134.926492</ele>
        <time>2026-08-18T03:43:41.000Z</time>
      </trkpt>
      <trkpt lat="22.869725" lon="110.777330">
        <ele>134.896461</ele>
        <time>2026-08-18T03:43:42.000Z</time>
      </trkpt>
      <trkpt lat="22.869754" lon="110.777382">
        <ele>134.866003</ele>
        <time>2026-08-18T03:43:43.000Z</time>
      </trkpt>
      <trkpt lat="22.869781" lon="110.777434">
        <ele>134.836093</ele>
        <time>2026-08-18T03:43:44.000Z</time>
      </trkpt>
      <trkpt lat="22.869809" lon="110.777486">
        <ele>134.805912</ele>
        <time>2026-08-18T03:43:45.000Z</time>
      </trkpt>
      <trkpt lat="22.869837" lon="110.777539">
        <ele>134.775298</ele>
        <time>2026-08-18T03:43:46.000Z</time>
      </trkpt>
      <trkpt lat="22.869865" lon="110.777594">
        <ele>134.743811</ele>
        <time>2026-08-18T03:43:47.000Z</time>
      </trkpt>
      <trkpt lat="22.869895" lon="110.777649">
        <ele>134.711783</ele>
        <time>2026-08-18T03:43:48.000Z</time>
      </trkpt>
      <trkpt lat="22.869924" lon="110.777702">
        <ele>134.680895</ele>
        <time>2026-08-18T03:43:49.000Z</time>
      </trkpt>
      <trkpt lat="22.869953" lon="110.777753">
        <ele>134.650864</ele>
        <time>2026-08-18T03:43:50.000Z</time>
      </trkpt>
      <trkpt lat="22.869982" lon="110.777805">
        <ele>134.620406</ele>
        <time>2026-08-18T03:43:51.000Z</time>
      </trkpt>
      <trkpt lat="22.870010" lon="110.777858">
        <ele>134.589792</ele>
        <time>2026-08-18T03:43:52.000Z</time>
      </trkpt>
      <trkpt lat="22.870040" lon="110.777913">
        <ele>134.557764</ele>
        <time>2026-08-18T03:43:53.000Z</time>
      </trkpt>
      <trkpt lat="22.870070" lon="110.777969">
        <ele>134.525305</ele>
        <time>2026-08-18T03:43:54.000Z</time>
      </trkpt>
      <trkpt lat="22.870101" lon="110.778024">
        <ele>134.492997</ele>
        <time>2026-08-18T03:43:55.000Z</time>
      </trkpt>
      <trkpt lat="22.870130" lon="110.778079">
        <ele>134.461243</ele>
        <time>2026-08-18T03:43:56.000Z</time>
      </trkpt>
      <trkpt lat="22.870158" lon="110.778133">
        <ele>134.430193</ele>
        <time>2026-08-18T03:43:57.000Z</time>
      </trkpt>
      <trkpt lat="22.870187" lon="110.778189">
        <ele>134.398003</ele>
        <time>2026-08-18T03:43:58.000Z</time>
      </trkpt>
      <trkpt lat="22.870216" lon="110.778242">
        <ele>134.367115</ele>
        <time>2026-08-18T03:43:59.000Z</time>
      </trkpt>
      <trkpt lat="22.870245" lon="110.778297">
        <ele>134.335361</ele>
        <time>2026-08-18T03:44:00.000Z</time>
      </trkpt>
      <trkpt lat="22.870274" lon="110.778350">
        <ele>134.304473</ele>
        <time>2026-08-18T03:44:01.000Z</time>
      </trkpt>
      <trkpt lat="22.870304" lon="110.778405">
        <ele>134.272446</ele>
        <time>2026-08-18T03:44:02.000Z</time>
      </trkpt>
      <trkpt lat="22.870335" lon="110.778459">
        <ele>134.239665</ele>
        <time>2026-08-18T03:44:03.000Z</time>
      </trkpt>
      <trkpt lat="22.870364" lon="110.778515">
        <ele>134.200910</ele>
        <time>2026-08-18T03:44:04.000Z</time>
      </trkpt>
      <trkpt lat="22.870394" lon="110.778570">
        <ele>134.162351</ele>
        <time>2026-08-18T03:44:05.000Z</time>
      </trkpt>
      <trkpt lat="22.870426" lon="110.778627">
        <ele>134.122083</ele>
        <time>2026-08-18T03:44:06.000Z</time>
      </trkpt>
      <trkpt lat="22.870458" lon="110.778683">
        <ele>134.082329</ele>
        <time>2026-08-18T03:44:07.000Z</time>
      </trkpt>
      <trkpt lat="22.870488" lon="110.778740">
        <ele>134.042727</ele>
        <time>2026-08-18T03:44:08.000Z</time>
      </trkpt>
      <trkpt lat="22.870516" lon="110.778799">
        <ele>134.002689</ele>
        <time>2026-08-18T03:44:09.000Z</time>
      </trkpt>
      <trkpt lat="22.870546" lon="110.778859">
        <ele>133.961505</ele>
        <time>2026-08-18T03:44:10.000Z</time>
      </trkpt>
      <trkpt lat="22.870577" lon="110.778919">
        <ele>133.920005</ele>
        <time>2026-08-18T03:44:11.000Z</time>
      </trkpt>
      <trkpt lat="22.870608" lon="110.778977">
        <ele>133.879554</ele>
        <time>2026-08-18T03:44:12.000Z</time>
      </trkpt>
      <trkpt lat="22.870637" lon="110.779037">
        <ele>133.838678</ele>
        <time>2026-08-18T03:44:13.000Z</time>
      </trkpt>
      <trkpt lat="22.870667" lon="110.779098">
        <ele>133.796963</ele>
        <time>2026-08-18T03:44:14.000Z</time>
      </trkpt>
      <trkpt lat="22.870695" lon="110.779158">
        <ele>133.756388</ele>
        <time>2026-08-18T03:44:15.000Z</time>
      </trkpt>
      <trkpt lat="22.870720" lon="110.779220">
        <ele>133.715559</ele>
        <time>2026-08-18T03:44:16.000Z</time>
      </trkpt>
      <trkpt lat="22.870745" lon="110.779282">
        <ele>133.674730</ele>
        <time>2026-08-18T03:44:17.000Z</time>
      </trkpt>
      <trkpt lat="22.870771" lon="110.779345">
        <ele>133.633085</ele>
        <time>2026-08-18T03:44:18.000Z</time>
      </trkpt>
      <trkpt lat="22.870798" lon="110.779406">
        <ele>133.592258</ele>
        <time>2026-08-18T03:44:19.000Z</time>
      </trkpt>
      <trkpt lat="22.870825" lon="110.779467">
        <ele>133.551432</ele>
        <time>2026-08-18T03:44:20.000Z</time>
      </trkpt>
      <trkpt lat="22.870851" lon="110.779530">
        <ele>133.509786</ele>
        <time>2026-08-18T03:44:21.000Z</time>
      </trkpt>
      <trkpt lat="22.870875" lon="110.779593">
        <ele>133.468659</ele>
        <time>2026-08-18T03:44:22.000Z</time>
      </trkpt>
      <trkpt lat="22.870898" lon="110.779654">
        <ele>133.428896</ele>
        <time>2026-08-18T03:44:23.000Z</time>
      </trkpt>
      <trkpt lat="22.870920" lon="110.779716">
        <ele>133.388814</ele>
        <time>2026-08-18T03:44:24.000Z</time>
      </trkpt>
      <trkpt lat="22.870940" lon="110.779777">
        <ele>133.349753</ele>
        <time>2026-08-18T03:44:25.000Z</time>
      </trkpt>
      <trkpt lat="22.870961" lon="110.779839">
        <ele>133.309902</ele>
        <time>2026-08-18T03:44:26.000Z</time>
      </trkpt>
      <trkpt lat="22.870982" lon="110.779900">
        <ele>133.270617</ele>
        <time>2026-08-18T03:44:27.000Z</time>
      </trkpt>
      <trkpt lat="22.871003" lon="110.779963">
        <ele>133.230199</ele>
        <time>2026-08-18T03:44:28.000Z</time>
      </trkpt>
      <trkpt lat="22.871023" lon="110.780025">
        <ele>133.190569</ele>
        <time>2026-08-18T03:44:29.000Z</time>
      </trkpt>
      <trkpt lat="22.871042" lon="110.780087">
        <ele>133.151151</ele>
        <time>2026-08-18T03:44:30.000Z</time>
      </trkpt>
      <trkpt lat="22.871059" lon="110.780150">
        <ele>133.111548</ele>
        <time>2026-08-18T03:44:31.000Z</time>
      </trkpt>
      <trkpt lat="22.871075" lon="110.780212">
        <ele>133.072704</ele>
        <time>2026-08-18T03:44:32.000Z</time>
      </trkpt>
      <trkpt lat="22.871093" lon="110.780275">
        <ele>133.041790</ele>
        <time>2026-08-18T03:44:33.000Z</time>
      </trkpt>
      <trkpt lat="22.871109" lon="110.780339">
        <ele>133.012116</ele>
        <time>2026-08-18T03:44:34.000Z</time>
      </trkpt>
      <trkpt lat="22.871122" lon="110.780402">
        <ele>132.983227</ele>
        <time>2026-08-18T03:44:35.000Z</time>
      </trkpt>
      <trkpt lat="22.871136" lon="110.780466">
        <ele>132.953792</ele>
        <time>2026-08-18T03:44:36.000Z</time>
      </trkpt>
      <trkpt lat="22.871149" lon="110.780530">
        <ele>132.924465</ele>
        <time>2026-08-18T03:44:37.000Z</time>
      </trkpt>
      <trkpt lat="22.871160" lon="110.780594">
        <ele>132.895332</ele>
        <time>2026-08-18T03:44:38.000Z</time>
      </trkpt>
      <trkpt lat="22.871174" lon="110.780658">
        <ele>132.865898</ele>
        <time>2026-08-18T03:44:39.000Z</time>
      </trkpt>
      <trkpt lat="22.871187" lon="110.780723">
        <ele>132.836134</ele>
        <time>2026-08-18T03:44:40.000Z</time>
      </trkpt>
      <trkpt lat="22.871200" lon="110.780787">
        <ele>132.806807</ele>
        <time>2026-08-18T03:44:41.000Z</time>
      </trkpt>
      <trkpt lat="22.871210" lon="110.780853">
        <ele>132.776877</ele>
        <time>2026-08-18T03:44:42.000Z</time>
      </trkpt>
      <trkpt lat="22.871220" lon="110.780918">
        <ele>132.747388</ele>
        <time>2026-08-18T03:44:43.000Z</time>
      </trkpt>
      <trkpt lat="22.871228" lon="110.780983">
        <ele>132.718044</ele>
        <time>2026-08-18T03:44:44.000Z</time>
      </trkpt>
      <trkpt lat="22.871237" lon="110.781049">
        <ele>132.688188</ele>
        <time>2026-08-18T03:44:45.000Z</time>
      </trkpt>
      <trkpt lat="22.871246" lon="110.781115">
        <ele>132.658333</ele>
        <time>2026-08-18T03:44:46.000Z</time>
      </trkpt>
      <trkpt lat="22.871255" lon="110.781181">
        <ele>132.628477</ele>
        <time>2026-08-18T03:44:47.000Z</time>
      </trkpt>
      <trkpt lat="22.871262" lon="110.781246">
        <ele>132.599193</ele>
        <time>2026-08-18T03:44:48.000Z</time>
      </trkpt>
      <trkpt lat="22.871269" lon="110.781312">
        <ele>132.569464</ele>
        <time>2026-08-18T03:44:49.000Z</time>
      </trkpt>
      <trkpt lat="22.871277" lon="110.781378">
        <ele>132.539676</ele>
        <time>2026-08-18T03:44:50.000Z</time>
      </trkpt>
      <trkpt lat="22.871281" lon="110.781444">
        <ele>132.510078</ele>
        <time>2026-08-18T03:44:51.000Z</time>
      </trkpt>
      <trkpt lat="22.871285" lon="110.781513">
        <ele>132.479141</ele>
        <time>2026-08-18T03:44:52.000Z</time>
      </trkpt>
      <trkpt lat="22.871287" lon="110.781579">
        <ele>132.449592</ele>
        <time>2026-08-18T03:44:53.000Z</time>
      </trkpt>
      <trkpt lat="22.871291" lon="110.781644">
        <ele>132.420441</ele>
        <time>2026-08-18T03:44:54.000Z</time>
      </trkpt>
      <trkpt lat="22.871296" lon="110.781712">
        <ele>132.389915</ele>
        <time>2026-08-18T03:44:55.000Z</time>
      </trkpt>
      <trkpt lat="22.871300" lon="110.781779">
        <ele>132.359871</ele>
        <time>2026-08-18T03:44:56.000Z</time>
      </trkpt>
      <trkpt lat="22.871303" lon="110.781846">
        <ele>132.329854</ele>
        <time>2026-08-18T03:44:57.000Z</time>
      </trkpt>
      <trkpt lat="22.871307" lon="110.781913">
        <ele>132.299810</ele>
        <time>2026-08-18T03:44:58.000Z</time>
      </trkpt>
      <trkpt lat="22.871308" lon="110.781980">
        <ele>132.269825</ele>
        <time>2026-08-18T03:44:59.000Z</time>
      </trkpt>
      <trkpt lat="22.871310" lon="110.782047">
        <ele>132.239828</ele>
        <time>2026-08-18T03:45:00.000Z</time>
      </trkpt>
      <trkpt lat="22.871311" lon="110.782116">
        <ele>132.208948</ele>
        <time>2026-08-18T03:45:01.000Z</time>
      </trkpt>
      <trkpt lat="22.871311" lon="110.782185">
        <ele>132.230744</ele>
        <time>2026-08-18T03:45:02.000Z</time>
      </trkpt>
      <trkpt lat="22.871310" lon="110.782253">
        <ele>132.302523</ele>
        <time>2026-08-18T03:45:03.000Z</time>
      </trkpt>
      <trkpt lat="22.871312" lon="110.782321">
        <ele>132.374330</ele>
        <time>2026-08-18T03:45:04.000Z</time>
      </trkpt>
      <trkpt lat="22.871314" lon="110.782391">
        <ele>132.448246</ele>
        <time>2026-08-18T03:45:05.000Z</time>
      </trkpt>
      <trkpt lat="22.871314" lon="110.782459">
        <ele>132.520016</ele>
        <time>2026-08-18T03:45:06.000Z</time>
      </trkpt>
      <trkpt lat="22.871311" lon="110.782528">
        <ele>132.592922</ele>
        <time>2026-08-18T03:45:07.000Z</time>
      </trkpt>
      <trkpt lat="22.871311" lon="110.782597">
        <ele>132.665747</ele>
        <time>2026-08-18T03:45:08.000Z</time>
      </trkpt>
      <trkpt lat="22.871311" lon="110.782665">
        <ele>132.737517</ele>
        <time>2026-08-18T03:45:09.000Z</time>
      </trkpt>
      <trkpt lat="22.871312" lon="110.782731">
        <ele>132.807185</ele>
        <time>2026-08-18T03:45:10.000Z</time>
      </trkpt>
      <trkpt lat="22.871314" lon="110.782798">
        <ele>132.877936</ele>
        <time>2026-08-18T03:45:11.000Z</time>
      </trkpt>
      <trkpt lat="22.871314" lon="110.782863">
        <ele>132.946540</ele>
        <time>2026-08-18T03:45:12.000Z</time>
      </trkpt>
      <trkpt lat="22.871314" lon="110.782927">
        <ele>133.014088</ele>
        <time>2026-08-18T03:45:13.000Z</time>
      </trkpt>
      <trkpt lat="22.871316" lon="110.782994">
        <ele>133.084839</ele>
        <time>2026-08-18T03:45:14.000Z</time>
      </trkpt>
      <trkpt lat="22.871316" lon="110.783057">
        <ele>133.151332</ele>
        <time>2026-08-18T03:45:15.000Z</time>
      </trkpt>
      <trkpt lat="22.871317" lon="110.783121">
        <ele>133.218890</ele>
        <time>2026-08-18T03:45:16.000Z</time>
      </trkpt>
      <trkpt lat="22.871319" lon="110.783185">
        <ele>133.286476</ele>
        <time>2026-08-18T03:45:17.000Z</time>
      </trkpt>
      <trkpt lat="22.871318" lon="110.783247">
        <ele>133.351924</ele>
        <time>2026-08-18T03:45:18.000Z</time>
      </trkpt>
      <trkpt lat="22.871318" lon="110.783308">
        <ele>133.416305</ele>
        <time>2026-08-18T03:45:19.000Z</time>
      </trkpt>
      <trkpt lat="22.871318" lon="110.783367">
        <ele>133.478576</ele>
        <time>2026-08-18T03:45:20.000Z</time>
      </trkpt>
      <trkpt lat="22.871319" lon="110.783426">
        <ele>133.540857</ele>
        <time>2026-08-18T03:45:21.000Z</time>
      </trkpt>
      <trkpt lat="22.871319" lon="110.783483">
        <ele>133.601017</ele>
        <time>2026-08-18T03:45:22.000Z</time>
      </trkpt>
      <trkpt lat="22.871319" lon="110.783541">
        <ele>133.662233</ele>
        <time>2026-08-18T03:45:23.000Z</time>
      </trkpt>
      <trkpt lat="22.871316" lon="110.783596">
        <ele>133.720383</ele>
        <time>2026-08-18T03:45:24.000Z</time>
      </trkpt>
      <trkpt lat="22.871315" lon="110.783647">
        <ele>133.774223</ele>
        <time>2026-08-18T03:45:25.000Z</time>
      </trkpt>
      <trkpt lat="22.871315" lon="110.783700">
        <ele>133.830161</ele>
        <time>2026-08-18T03:45:26.000Z</time>
      </trkpt>
      <trkpt lat="22.871317" lon="110.783749">
        <ele>133.881928</ele>
        <time>2026-08-18T03:45:27.000Z</time>
      </trkpt>
      <trkpt lat="22.871319" lon="110.783798">
        <ele>133.933695</ele>
        <time>2026-08-18T03:45:28.000Z</time>
      </trkpt>
      <trkpt lat="22.871321" lon="110.783846">
        <ele>133.984408</ele>
        <time>2026-08-18T03:45:29.000Z</time>
      </trkpt>
      <trkpt lat="22.871321" lon="110.783893">
        <ele>134.034014</ele>
        <time>2026-08-18T03:45:30.000Z</time>
      </trkpt>
      <trkpt lat="22.871321" lon="110.783939">
        <ele>134.082564</ele>
        <time>2026-08-18T03:45:31.000Z</time>
      </trkpt>
      <trkpt lat="22.871322" lon="110.783984">
        <ele>134.130072</ele>
        <time>2026-08-18T03:45:32.000Z</time>
      </trkpt>
      <trkpt lat="22.871324" lon="110.784029">
        <ele>134.177622</ele>
        <time>2026-08-18T03:45:33.000Z</time>
      </trkpt>
      <trkpt lat="22.871325" lon="110.784072">
        <ele>134.223021</ele>
        <time>2026-08-18T03:45:34.000Z</time>
      </trkpt>
      <trkpt lat="22.871327" lon="110.784115">
        <ele>134.300341</ele>
        <time>2026-08-18T03:45:35.000Z</time>
      </trkpt>
      <trkpt lat="22.871329" lon="110.784155">
        <ele>134.436426</ele>
        <time>2026-08-18T03:45:36.000Z</time>
      </trkpt>
      <trkpt lat="22.871330" lon="110.784191">
        <ele>134.558779</ele>
        <time>2026-08-18T03:45:37.000Z</time>
      </trkpt>
      <trkpt lat="22.871330" lon="110.784227">
        <ele>134.681076</ele>
        <time>2026-08-18T03:45:38.000Z</time>
      </trkpt>
      <trkpt lat="22.871330" lon="110.784262">
        <ele>134.799976</ele>
        <time>2026-08-18T03:45:39.000Z</time>
      </trkpt>
      <trkpt lat="22.871328" lon="110.784298">
        <ele>134.922495</ele>
        <time>2026-08-18T03:45:40.000Z</time>
      </trkpt>
      <trkpt lat="22.871326" lon="110.784333">
        <ele>135.041623</ele>
        <time>2026-08-18T03:45:41.000Z</time>
      </trkpt>
      <trkpt lat="22.871327" lon="110.784368">
        <ele>135.160580</ele>
        <time>2026-08-18T03:45:42.000Z</time>
      </trkpt>
      <trkpt lat="22.871327" lon="110.784402">
        <ele>135.276083</ele>
        <time>2026-08-18T03:45:43.000Z</time>
      </trkpt>
      <trkpt lat="22.871326" lon="110.784438">
        <ele>135.398435</ele>
        <time>2026-08-18T03:45:44.000Z</time>
      </trkpt>
      <trkpt lat="22.871326" lon="110.784474">
        <ele>135.520732</ele>
        <time>2026-08-18T03:45:45.000Z</time>
      </trkpt>
      <trkpt lat="22.871325" lon="110.784508">
        <ele>135.636294</ele>
        <time>2026-08-18T03:45:46.000Z</time>
      </trkpt>
      <trkpt lat="22.871324" lon="110.784543">
        <ele>135.755251</ele>
        <time>2026-08-18T03:45:47.000Z</time>
      </trkpt>
      <trkpt lat="22.871326" lon="110.784579">
        <ele>135.877770</ele>
        <time>2026-08-18T03:45:48.000Z</time>
      </trkpt>
      <trkpt lat="22.871327" lon="110.784613">
        <ele>135.993332</ele>
        <time>2026-08-18T03:45:49.000Z</time>
      </trkpt>
      <trkpt lat="22.871328" lon="110.784646">
        <ele>136.105498</ele>
        <time>2026-08-18T03:45:50.000Z</time>
      </trkpt>
      <trkpt lat="22.871330" lon="110.784680">
        <ele>136.221236</ele>
        <time>2026-08-18T03:45:51.000Z</time>
      </trkpt>
      <trkpt lat="22.871333" lon="110.784713">
        <ele>136.333886</ele>
        <time>2026-08-18T03:45:52.000Z</time>
      </trkpt>
      <trkpt lat="22.871337" lon="110.784747">
        <ele>136.450326</ele>
        <time>2026-08-18T03:45:53.000Z</time>
      </trkpt>
      <trkpt lat="22.871341" lon="110.784781">
        <ele>136.566767</ele>
        <time>2026-08-18T03:45:54.000Z</time>
      </trkpt>
      <trkpt lat="22.871344" lon="110.784814">
        <ele>136.679417</ele>
        <time>2026-08-18T03:45:55.000Z</time>
      </trkpt>
      <trkpt lat="22.871344" lon="110.784847">
        <ele>136.791522</ele>
        <time>2026-08-18T03:45:56.000Z</time>
      </trkpt>
      <trkpt lat="22.871344" lon="110.784878">
        <ele>136.896833</ele>
        <time>2026-08-18T03:45:57.000Z</time>
      </trkpt>
      <trkpt lat="22.871345" lon="110.784911">
        <ele>137.009000</ele>
        <time>2026-08-18T03:45:58.000Z</time>
      </trkpt>
      <trkpt lat="22.871347" lon="110.784943">
        <ele>137.117958</ele>
        <time>2026-08-18T03:45:59.000Z</time>
      </trkpt>
      <trkpt lat="22.871348" lon="110.784976">
        <ele>137.230124</ele>
        <time>2026-08-18T03:46:00.000Z</time>
      </trkpt>
      <trkpt lat="22.871347" lon="110.785010">
        <ele>137.345686</ele>
        <time>2026-08-18T03:46:01.000Z</time>
      </trkpt>
      <trkpt lat="22.871347" lon="110.785043">
        <ele>137.457791</ele>
        <time>2026-08-18T03:46:02.000Z</time>
      </trkpt>
      <trkpt lat="22.871347" lon="110.785076">
        <ele>137.569897</ele>
        <time>2026-08-18T03:46:03.000Z</time>
      </trkpt>
      <trkpt lat="22.871349" lon="110.785108">
        <ele>137.678855</ele>
        <time>2026-08-18T03:46:04.000Z</time>
      </trkpt>
      <trkpt lat="22.871349" lon="110.785140">
        <ele>137.787563</ele>
        <time>2026-08-18T03:46:05.000Z</time>
      </trkpt>
      <trkpt lat="22.871349" lon="110.785172">
        <ele>137.896272</ele>
        <time>2026-08-18T03:46:06.000Z</time>
      </trkpt>
      <trkpt lat="22.871347" lon="110.785204">
        <ele>138.005230</ele>
        <time>2026-08-18T03:46:07.000Z</time>
      </trkpt>
      <trkpt lat="22.871348" lon="110.785236">
        <ele>138.114001</ele>
        <time>2026-08-18T03:46:08.000Z</time>
      </trkpt>
      <trkpt lat="22.871350" lon="110.785268">
        <ele>138.222959</ele>
        <time>2026-08-18T03:46:09.000Z</time>
      </trkpt>
      <trkpt lat="22.871351" lon="110.785301">
        <ele>138.335125</ele>
        <time>2026-08-18T03:46:10.000Z</time>
      </trkpt>
      <trkpt lat="22.871351" lon="110.785334">
        <ele>138.447231</ele>
        <time>2026-08-18T03:46:11.000Z</time>
      </trkpt>
      <trkpt lat="22.871350" lon="110.785368">
        <ele>138.562793</ele>
        <time>2026-08-18T03:46:12.000Z</time>
      </trkpt>
      <trkpt lat="22.871352" lon="110.785403">
        <ele>138.681921</ele>
        <time>2026-08-18T03:46:13.000Z</time>
      </trkpt>
      <trkpt lat="22.871353" lon="110.785436">
        <ele>138.794087</ele>
        <time>2026-08-18T03:46:14.000Z</time>
      </trkpt>
      <trkpt lat="22.871354" lon="110.785468">
        <ele>138.902858</ele>
        <time>2026-08-18T03:46:15.000Z</time>
      </trkpt>
      <trkpt lat="22.871355" lon="110.785498">
        <ele>139.004839</ele>
        <time>2026-08-18T03:46:16.000Z</time>
      </trkpt>
      <trkpt lat="22.871356" lon="110.785526">
        <ele>139.100030</ele>
        <time>2026-08-18T03:46:17.000Z</time>
      </trkpt>
      <trkpt lat="22.871358" lon="110.785555">
        <ele>139.198823</ele>
        <time>2026-08-18T03:46:18.000Z</time>
      </trkpt>
      <trkpt lat="22.871357" lon="110.785584">
        <ele>139.297409</ele>
        <time>2026-08-18T03:46:19.000Z</time>
      </trkpt>
      <trkpt lat="22.871356" lon="110.785612">
        <ele>139.392600</ele>
        <time>2026-08-18T03:46:20.000Z</time>
      </trkpt>
      <trkpt lat="22.871354" lon="110.785639">
        <ele>139.484619</ele>
        <time>2026-08-18T03:46:21.000Z</time>
      </trkpt>
      <trkpt lat="22.871353" lon="110.785667">
        <ele>139.579810</ele>
        <time>2026-08-18T03:46:22.000Z</time>
      </trkpt>
      <trkpt lat="22.871353" lon="110.785694">
        <ele>139.671533</ele>
        <time>2026-08-18T03:46:23.000Z</time>
      </trkpt>
      <trkpt lat="22.871354" lon="110.785723">
        <ele>139.770119</ele>
        <time>2026-08-18T03:46:24.000Z</time>
      </trkpt>
      <trkpt lat="22.871355" lon="110.785751">
        <ele>139.865310</ele>
        <time>2026-08-18T03:46:25.000Z</time>
      </trkpt>
      <trkpt lat="22.871355" lon="110.785778">
        <ele>139.957033</ele>
        <time>2026-08-18T03:46:26.000Z</time>
      </trkpt>
      <trkpt lat="22.871355" lon="110.785805">
        <ele>140.048755</ele>
        <time>2026-08-18T03:46:27.000Z</time>
      </trkpt>
      <trkpt lat="22.871356" lon="110.785831">
        <ele>140.137158</ele>
        <time>2026-08-18T03:46:28.000Z</time>
      </trkpt>
      <trkpt lat="22.871357" lon="110.785857">
        <ele>140.225561</ele>
        <time>2026-08-18T03:46:29.000Z</time>
      </trkpt>
      <trkpt lat="22.871358" lon="110.785881">
        <ele>140.307175</ele>
        <time>2026-08-18T03:46:30.000Z</time>
      </trkpt>
      <trkpt lat="22.871359" lon="110.785908">
        <ele>140.398972</ele>
        <time>2026-08-18T03:46:31.000Z</time>
      </trkpt>
      <trkpt lat="22.871360" lon="110.785935">
        <ele>140.490769</ele>
        <time>2026-08-18T03:46:32.000Z</time>
      </trkpt>
      <trkpt lat="22.871360" lon="110.785960">
        <ele>140.575697</ele>
        <time>2026-08-18T03:46:33.000Z</time>
      </trkpt>
      <trkpt lat="22.871361" lon="110.785986">
        <ele>140.664100</ele>
        <time>2026-08-18T03:46:34.000Z</time>
      </trkpt>
      <trkpt lat="22.871363" lon="110.786011">
        <ele>140.749348</ele>
        <time>2026-08-18T03:46:35.000Z</time>
      </trkpt>
      <trkpt lat="22.871364" lon="110.786037">
        <ele>140.837750</ele>
        <time>2026-08-18T03:46:36.000Z</time>
      </trkpt>
      <trkpt lat="22.871366" lon="110.786062">
        <ele>140.892816</ele>
        <time>2026-08-18T03:46:37.000Z</time>
      </trkpt>
      <trkpt lat="22.871368" lon="110.786088">
        <ele>140.909701</ele>
        <time>2026-08-18T03:46:38.000Z</time>
      </trkpt>
      <trkpt lat="22.871369" lon="110.786115">
        <ele>140.927188</ele>
        <time>2026-08-18T03:46:39.000Z</time>
      </trkpt>
      <trkpt lat="22.871365" lon="110.786140">
        <ele>140.943609</ele>
        <time>2026-08-18T03:46:40.000Z</time>
      </trkpt>
      <trkpt lat="22.871365" lon="110.786167">
        <ele>140.961082</ele>
        <time>2026-08-18T03:46:41.000Z</time>
      </trkpt>
      <trkpt lat="22.871364" lon="110.786192">
        <ele>140.977277</ele>
        <time>2026-08-18T03:46:42.000Z</time>
      </trkpt>
      <trkpt lat="22.871364" lon="110.786220">
        <ele>140.995397</ele>
        <time>2026-08-18T03:46:43.000Z</time>
      </trkpt>
      <trkpt lat="22.871362" lon="110.786248">
        <ele>141.013572</ele>
        <time>2026-08-18T03:46:44.000Z</time>
      </trkpt>
      <trkpt lat="22.871360" lon="110.786275">
        <ele>141.031102</ele>
        <time>2026-08-18T03:46:45.000Z</time>
      </trkpt>
      <trkpt lat="22.871360" lon="110.786303">
        <ele>141.049222</ele>
        <time>2026-08-18T03:46:46.000Z</time>
      </trkpt>
      <trkpt lat="22.871360" lon="110.786329">
        <ele>141.066048</ele>
        <time>2026-08-18T03:46:47.000Z</time>
      </trkpt>
      <trkpt lat="22.871359" lon="110.786355">
        <ele>141.082889</ele>
        <time>2026-08-18T03:46:48.000Z</time>
      </trkpt>
      <trkpt lat="22.871362" lon="110.786382">
        <ele>141.100489</ele>
        <time>2026-08-18T03:46:49.000Z</time>
      </trkpt>
      <trkpt lat="22.871363" lon="110.786409">
        <ele>141.117977</ele>
        <time>2026-08-18T03:46:50.000Z</time>
      </trkpt>
      <trkpt lat="22.871362" lon="110.786440">
        <ele>141.138051</ele>
        <time>2026-08-18T03:46:51.000Z</time>
      </trkpt>
      <trkpt lat="22.871360" lon="110.786470">
        <ele>141.157517</ele>
        <time>2026-08-18T03:46:52.000Z</time>
      </trkpt>
      <trkpt lat="22.871358" lon="110.786500">
        <ele>141.176982</ele>
        <time>2026-08-18T03:46:53.000Z</time>
      </trkpt>
      <trkpt lat="22.871358" lon="110.786531">
        <ele>141.197044</ele>
        <time>2026-08-18T03:46:54.000Z</time>
      </trkpt>
      <trkpt lat="22.871359" lon="110.786562">
        <ele>141.217118</ele>
        <time>2026-08-18T03:46:55.000Z</time>
      </trkpt>
      <trkpt lat="22.871362" lon="110.786594">
        <ele>141.237934</ele>
        <time>2026-08-18T03:46:56.000Z</time>
      </trkpt>
      <trkpt lat="22.871361" lon="110.786625">
        <ele>141.258009</ele>
        <time>2026-08-18T03:46:57.000Z</time>
      </trkpt>
      <trkpt lat="22.871362" lon="110.786656">
        <ele>141.278083</ele>
        <time>2026-08-18T03:46:58.000Z</time>
      </trkpt>
      <trkpt lat="22.871360" lon="110.786687">
        <ele>141.298194</ele>
        <time>2026-08-18T03:46:59.000Z</time>
      </trkpt>
      <trkpt lat="22.871358" lon="110.786719">
        <ele>141.318951</ele>
        <time>2026-08-18T03:47:00.000Z</time>
      </trkpt>
      <trkpt lat="22.871360" lon="110.786752">
        <ele>141.340353</ele>
        <time>2026-08-18T03:47:01.000Z</time>
      </trkpt>
      <trkpt lat="22.871361" lon="110.786785">
        <ele>141.361721</ele>
        <time>2026-08-18T03:47:02.000Z</time>
      </trkpt>
      <trkpt lat="22.871361" lon="110.786817">
        <ele>141.382430</ele>
        <time>2026-08-18T03:47:03.000Z</time>
      </trkpt>
      <trkpt lat="22.871360" lon="110.786851">
        <ele>141.404445</ele>
        <time>2026-08-18T03:47:04.000Z</time>
      </trkpt>
      <trkpt lat="22.871363" lon="110.786885">
        <ele>141.426549</ele>
        <time>2026-08-18T03:47:05.000Z</time>
      </trkpt>
      <trkpt lat="22.871362" lon="110.786921">
        <ele>141.449857</ele>
        <time>2026-08-18T03:47:06.000Z</time>
      </trkpt>
      <trkpt lat="22.871363" lon="110.786957">
        <ele>141.473166</ele>
        <time>2026-08-18T03:47:07.000Z</time>
      </trkpt>
      <trkpt lat="22.871365" lon="110.786995">
        <ele>141.497798</ele>
        <time>2026-08-18T03:47:08.000Z</time>
      </trkpt>
      <trkpt lat="22.871362" lon="110.787031">
        <ele>141.521191</ele>
        <time>2026-08-18T03:47:09.000Z</time>
      </trkpt>
      <trkpt lat="22.871361" lon="110.787070">
        <ele>141.546440</ele>
        <time>2026-08-18T03:47:10.000Z</time>
      </trkpt>
      <trkpt lat="22.871358" lon="110.787108">
        <ele>141.571122</ele>
        <time>2026-08-18T03:47:11.000Z</time>
      </trkpt>
      <trkpt lat="22.871355" lon="110.787144">
        <ele>141.594515</ele>
        <time>2026-08-18T03:47:12.000Z</time>
      </trkpt>
      <trkpt lat="22.871356" lon="110.787183">
        <ele>141.619764</ele>
        <time>2026-08-18T03:47:13.000Z</time>
      </trkpt>
      <trkpt lat="22.871356" lon="110.787220">
        <ele>141.643709</ele>
        <time>2026-08-18T03:47:14.000Z</time>
      </trkpt>
      <trkpt lat="22.871357" lon="110.787258">
        <ele>141.668311</ele>
        <time>2026-08-18T03:47:15.000Z</time>
      </trkpt>
      <trkpt lat="22.871355" lon="110.787298">
        <ele>141.694235</ele>
        <time>2026-08-18T03:47:16.000Z</time>
      </trkpt>
      <trkpt lat="22.871354" lon="110.787338">
        <ele>141.720131</ele>
        <time>2026-08-18T03:47:17.000Z</time>
      </trkpt>
      <trkpt lat="22.871355" lon="110.787377">
        <ele>141.745380</ele>
        <time>2026-08-18T03:47:18.000Z</time>
      </trkpt>
      <trkpt lat="22.871353" lon="110.787416">
        <ele>141.770659</ele>
        <time>2026-08-18T03:47:19.000Z</time>
      </trkpt>
      <trkpt lat="22.871350" lon="110.787455">
        <ele>141.795986</ele>
        <time>2026-08-18T03:47:20.000Z</time>
      </trkpt>
      <trkpt lat="22.871349" lon="110.787497">
        <ele>141.823176</ele>
        <time>2026-08-18T03:47:21.000Z</time>
      </trkpt>
      <trkpt lat="22.871349" lon="110.787541">
        <ele>141.851651</ele>
        <time>2026-08-18T03:47:22.000Z</time>
      </trkpt>
      <trkpt lat="22.871353" lon="110.787586">
        <ele>141.880908</ele>
        <time>2026-08-18T03:47:23.000Z</time>
      </trkpt>
      <trkpt lat="22.871356" lon="110.787633">
        <ele>141.911398</ele>
        <time>2026-08-18T03:47:24.000Z</time>
      </trkpt>
      <trkpt lat="22.871357" lon="110.787680">
        <ele>141.941822</ele>
        <time>2026-08-18T03:47:25.000Z</time>
      </trkpt>
      <trkpt lat="22.871357" lon="110.787728">
        <ele>141.972886</ele>
        <time>2026-08-18T03:47:26.000Z</time>
      </trkpt>
      <trkpt lat="22.871359" lon="110.787777">
        <ele>142.004628</ele>
        <time>2026-08-18T03:47:27.000Z</time>
      </trkpt>
      <trkpt lat="22.871361" lon="110.787827">
        <ele>142.037016</ele>
        <time>2026-08-18T03:47:28.000Z</time>
      </trkpt>
      <trkpt lat="22.871362" lon="110.787878">
        <ele>142.070029</ele>
        <time>2026-08-18T03:47:29.000Z</time>
      </trkpt>
      <trkpt lat="22.871362" lon="110.787930">
        <ele>142.103681</ele>
        <time>2026-08-18T03:47:30.000Z</time>
      </trkpt>
      <trkpt lat="22.871363" lon="110.787983">
        <ele>142.137988</ele>
        <time>2026-08-18T03:47:31.000Z</time>
      </trkpt>
      <trkpt lat="22.871363" lon="110.788040">
        <ele>142.059176</ele>
        <time>2026-08-18T03:47:32.000Z</time>
      </trkpt>
      <trkpt lat="22.871363" lon="110.788095">
        <ele>141.935328</ele>
        <time>2026-08-18T03:47:33.000Z</time>
      </trkpt>
      <trkpt lat="22.871366" lon="110.788153">
        <ele>141.804518</ele>
        <time>2026-08-18T03:47:34.000Z</time>
      </trkpt>
      <trkpt lat="22.871365" lon="110.788206">
        <ele>141.685149</ele>
        <time>2026-08-18T03:47:35.000Z</time>
      </trkpt>
      <trkpt lat="22.871364" lon="110.788262">
        <ele>141.559025</ele>
        <time>2026-08-18T03:47:36.000Z</time>
      </trkpt>
      <trkpt lat="22.871366" lon="110.788323">
        <ele>141.421579</ele>
        <time>2026-08-18T03:47:37.000Z</time>
      </trkpt>
      <trkpt lat="22.871370" lon="110.788387">
        <ele>141.277133</ele>
        <time>2026-08-18T03:47:38.000Z</time>
      </trkpt>
      <trkpt lat="22.871372" lon="110.788454">
        <ele>141.126184</ele>
        <time>2026-08-18T03:47:39.000Z</time>
      </trkpt>
      <trkpt lat="22.871371" lon="110.788520">
        <ele>140.977546</ele>
        <time>2026-08-18T03:47:40.000Z</time>
      </trkpt>
      <trkpt lat="22.871373" lon="110.788586">
        <ele>140.828848</ele>
        <time>2026-08-18T03:47:41.000Z</time>
      </trkpt>
      <trkpt lat="22.871380" lon="110.788655">
        <ele>140.672535</ele>
        <time>2026-08-18T03:47:42.000Z</time>
      </trkpt>
      <trkpt lat="22.871385" lon="110.788725">
        <ele>140.514437</ele>
        <time>2026-08-18T03:47:43.000Z</time>
      </trkpt>
      <trkpt lat="22.871386" lon="110.788795">
        <ele>140.356793</ele>
        <time>2026-08-18T03:47:44.000Z</time>
      </trkpt>
      <trkpt lat="22.871389" lon="110.788867">
        <ele>140.194499</ele>
        <time>2026-08-18T03:47:45.000Z</time>
      </trkpt>
      <trkpt lat="22.871389" lon="110.788940">
        <ele>140.030118</ele>
        <time>2026-08-18T03:47:46.000Z</time>
      </trkpt>
      <trkpt lat="22.871389" lon="110.789015">
        <ele>139.861234</ele>
        <time>2026-08-18T03:47:47.000Z</time>
      </trkpt>
      <trkpt lat="22.871391" lon="110.789091">
        <ele>139.690029</ele>
        <time>2026-08-18T03:47:48.000Z</time>
      </trkpt>
      <trkpt lat="22.871392" lon="110.789167">
        <ele>139.518875</ele>
        <time>2026-08-18T03:47:49.000Z</time>
      </trkpt>
      <trkpt lat="22.871393" lon="110.789246">
        <ele>139.340967</ele>
        <time>2026-08-18T03:47:50.000Z</time>
      </trkpt>
      <trkpt lat="22.871394" lon="110.789325">
        <ele>139.163059</ele>
        <time>2026-08-18T03:47:51.000Z</time>
      </trkpt>
      <trkpt lat="22.871396" lon="110.789404">
        <ele>138.985101</ele>
        <time>2026-08-18T03:47:52.000Z</time>
      </trkpt>
      <trkpt lat="22.871400" lon="110.789484">
        <ele>138.804693</ele>
        <time>2026-08-18T03:47:53.000Z</time>
      </trkpt>
      <trkpt lat="22.871405" lon="110.789563">
        <ele>138.626382</ele>
        <time>2026-08-18T03:47:54.000Z</time>
      </trkpt>
      <trkpt lat="22.871411" lon="110.789643">
        <ele>138.445644</ele>
        <time>2026-08-18T03:47:55.000Z</time>
      </trkpt>
      <trkpt lat="22.871416" lon="110.789722">
        <ele>138.267333</ele>
        <time>2026-08-18T03:47:56.000Z</time>
      </trkpt>
      <trkpt lat="22.871423" lon="110.789801">
        <ele>138.088621</ele>
        <time>2026-08-18T03:47:57.000Z</time>
      </trkpt>
      <trkpt lat="22.871430" lon="110.789879">
        <ele>137.912151</ele>
        <time>2026-08-18T03:47:58.000Z</time>
      </trkpt>
      <trkpt lat="22.871439" lon="110.789958">
        <ele>137.740361</ele>
        <time>2026-08-18T03:47:59.000Z</time>
      </trkpt>
      <trkpt lat="22.871448" lon="110.790036">
        <ele>137.628100</ele>
        <time>2026-08-18T03:48:00.000Z</time>
      </trkpt>
      <trkpt lat="22.871457" lon="110.790112">
        <ele>137.518672</ele>
        <time>2026-08-18T03:48:01.000Z</time>
      </trkpt>
      <trkpt lat="22.871468" lon="110.790188">
        <ele>137.408806</ele>
        <time>2026-08-18T03:48:02.000Z</time>
      </trkpt>
      <trkpt lat="22.871479" lon="110.790263">
        <ele>137.300351</ele>
        <time>2026-08-18T03:48:03.000Z</time>
      </trkpt>
      <trkpt lat="22.871492" lon="110.790338">
        <ele>137.191365</ele>
        <time>2026-08-18T03:48:04.000Z</time>
      </trkpt>
      <trkpt lat="22.871506" lon="110.790411">
        <ele>137.084880</ele>
        <time>2026-08-18T03:48:05.000Z</time>
      </trkpt>
      <trkpt lat="22.871521" lon="110.790483">
        <ele>136.979462</ele>
        <time>2026-08-18T03:48:06.000Z</time>
      </trkpt>
      <trkpt lat="22.871536" lon="110.790555">
        <ele>136.874044</ele>
        <time>2026-08-18T03:48:07.000Z</time>
      </trkpt>
      <trkpt lat="22.871554" lon="110.790627">
        <ele>136.767503</ele>
        <time>2026-08-18T03:48:08.000Z</time>
      </trkpt>
      <trkpt lat="22.871575" lon="110.790700">
        <ele>136.658290</ele>
        <time>2026-08-18T03:48:09.000Z</time>
      </trkpt>
      <trkpt lat="22.871596" lon="110.790772">
        <ele>136.550438</ele>
        <time>2026-08-18T03:48:10.000Z</time>
      </trkpt>
      <trkpt lat="22.871619" lon="110.790844">
        <ele>136.441612</ele>
        <time>2026-08-18T03:48:11.000Z</time>
      </trkpt>
      <trkpt lat="22.871642" lon="110.790915">
        <ele>136.334133</ele>
        <time>2026-08-18T03:48:12.000Z</time>
      </trkpt>
      <trkpt lat="22.871666" lon="110.790987">
        <ele>136.224788</ele>
        <time>2026-08-18T03:48:13.000Z</time>
      </trkpt>
      <trkpt lat="22.871692" lon="110.791058">
        <ele>136.115679</ele>
        <time>2026-08-18T03:48:14.000Z</time>
      </trkpt>
      <trkpt lat="22.871720" lon="110.791130">
        <ele>136.004073</ele>
        <time>2026-08-18T03:48:15.000Z</time>
      </trkpt>
      <trkpt lat="22.871749" lon="110.791201">
        <ele>135.893163</ele>
        <time>2026-08-18T03:48:16.000Z</time>
      </trkpt>
      <trkpt lat="22.871778" lon="110.791271">
        <ele>135.783556</ele>
        <time>2026-08-18T03:48:17.000Z</time>
      </trkpt>
      <trkpt lat="22.871809" lon="110.791340">
        <ele>135.673928</ele>
        <time>2026-08-18T03:48:18.000Z</time>
      </trkpt>
      <trkpt lat="22.871841" lon="110.791408">
        <ele>135.564885</ele>
        <time>2026-08-18T03:48:19.000Z</time>
      </trkpt>
      <trkpt lat="22.871874" lon="110.791475">
        <ele>135.456390</ele>
        <time>2026-08-18T03:48:20.000Z</time>
      </trkpt>
      <trkpt lat="22.871909" lon="110.791542">
        <ele>135.346399</ele>
        <time>2026-08-18T03:48:21.000Z</time>
      </trkpt>
      <trkpt lat="22.871944" lon="110.791609">
        <ele>135.236409</ele>
        <time>2026-08-18T03:48:22.000Z</time>
      </trkpt>
      <trkpt lat="22.871980" lon="110.791676">
        <ele>135.125646</ele>
        <time>2026-08-18T03:48:23.000Z</time>
      </trkpt>
      <trkpt lat="22.872018" lon="110.791739">
        <ele>135.018112</ele>
        <time>2026-08-18T03:48:24.000Z</time>
      </trkpt>
      <trkpt lat="22.872056" lon="110.791802">
        <ele>134.947948</ele>
        <time>2026-08-18T03:48:25.000Z</time>
      </trkpt>
      <trkpt lat="22.872094" lon="110.791863">
        <ele>134.914367</ele>
        <time>2026-08-18T03:48:26.000Z</time>
      </trkpt>
      <trkpt lat="22.872131" lon="110.791924">
        <ele>134.881061</ele>
        <time>2026-08-18T03:48:27.000Z</time>
      </trkpt>
      <trkpt lat="22.872170" lon="110.791985">
        <ele>134.847200</ele>
        <time>2026-08-18T03:48:28.000Z</time>
      </trkpt>
      <trkpt lat="22.872210" lon="110.792044">
        <ele>134.813794</ele>
        <time>2026-08-18T03:48:29.000Z</time>
      </trkpt>
      <trkpt lat="22.872252" lon="110.792102">
        <ele>134.780151</ele>
        <time>2026-08-18T03:48:30.000Z</time>
      </trkpt>
      <trkpt lat="22.872293" lon="110.792157">
        <ele>134.747887</ele>
        <time>2026-08-18T03:48:31.000Z</time>
      </trkpt>
      <trkpt lat="22.872335" lon="110.792211">
        <ele>134.715659</ele>
        <time>2026-08-18T03:48:32.000Z</time>
      </trkpt>
      <trkpt lat="22.872378" lon="110.792266">
        <ele>134.682763</ele>
        <time>2026-08-18T03:48:33.000Z</time>
      </trkpt>
      <trkpt lat="22.872419" lon="110.792319">
        <ele>134.651203</ele>
        <time>2026-08-18T03:48:34.000Z</time>
      </trkpt>
      <trkpt lat="22.872462" lon="110.792371">
        <ele>134.619337</ele>
        <time>2026-08-18T03:48:35.000Z</time>
      </trkpt>
      <trkpt lat="22.872504" lon="110.792421">
        <ele>134.588481</ele>
        <time>2026-08-18T03:48:36.000Z</time>
      </trkpt>
      <trkpt lat="22.872546" lon="110.792470">
        <ele>134.557960</ele>
        <time>2026-08-18T03:48:37.000Z</time>
      </trkpt>
      <trkpt lat="22.872587" lon="110.792521">
        <ele>134.527092</ele>
        <time>2026-08-18T03:48:38.000Z</time>
      </trkpt>
      <trkpt lat="22.872628" lon="110.792570">
        <ele>134.496906</ele>
        <time>2026-08-18T03:48:39.000Z</time>
      </trkpt>
      <trkpt lat="22.872669" lon="110.792619">
        <ele>134.466720</ele>
        <time>2026-08-18T03:48:40.000Z</time>
      </trkpt>
      <trkpt lat="22.872712" lon="110.792669">
        <ele>134.435528</ele>
        <time>2026-08-18T03:48:41.000Z</time>
      </trkpt>
      <trkpt lat="22.872754" lon="110.792718">
        <ele>134.405007</ele>
        <time>2026-08-18T03:48:42.000Z</time>
      </trkpt>
      <trkpt lat="22.872799" lon="110.792767">
        <ele>134.373456</ele>
        <time>2026-08-18T03:48:43.000Z</time>
      </trkpt>
      <trkpt lat="22.872843" lon="110.792819">
        <ele>134.341258</ele>
        <time>2026-08-18T03:48:44.000Z</time>
      </trkpt>
      <trkpt lat="22.872890" lon="110.792867">
        <ele>134.309314</ele>
        <time>2026-08-18T03:48:45.000Z</time>
      </trkpt>
      <trkpt lat="22.872935" lon="110.792917">
        <ele>134.277439</ele>
        <time>2026-08-18T03:48:46.000Z</time>
      </trkpt>
      <trkpt lat="22.872981" lon="110.792966">
        <ele>134.245536</ele>
        <time>2026-08-18T03:48:47.000Z</time>
      </trkpt>
      <trkpt lat="22.873026" lon="110.793017">
        <ele>134.213332</ele>
        <time>2026-08-18T03:48:48.000Z</time>
      </trkpt>
      <trkpt lat="22.873071" lon="110.793068">
        <ele>134.181129</ele>
        <time>2026-08-18T03:48:49.000Z</time>
      </trkpt>
      <trkpt lat="22.873114" lon="110.793119">
        <ele>134.149602</ele>
        <time>2026-08-18T03:48:50.000Z</time>
      </trkpt>
      <trkpt lat="22.873159" lon="110.793172">
        <ele>134.116733</ele>
        <time>2026-08-18T03:48:51.000Z</time>
      </trkpt>
      <trkpt lat="22.873201" lon="110.793225">
        <ele>134.084853</ele>
        <time>2026-08-18T03:48:52.000Z</time>
      </trkpt>
      <trkpt lat="22.873245" lon="110.793278">
        <ele>134.052953</ele>
        <time>2026-08-18T03:48:53.000Z</time>
      </trkpt>
      <trkpt lat="22.873288" lon="110.793333">
        <ele>134.020969</ele>
        <time>2026-08-18T03:48:54.000Z</time>
      </trkpt>
      <trkpt lat="22.873330" lon="110.793389">
        <ele>133.988953</ele>
        <time>2026-08-18T03:48:55.000Z</time>
      </trkpt>
      <trkpt lat="22.873375" lon="110.793442">
        <ele>133.956996</ele>
        <time>2026-08-18T03:48:56.000Z</time>
      </trkpt>
      <trkpt lat="22.873420" lon="110.793493">
        <ele>133.925686</ele>
        <time>2026-08-18T03:48:57.000Z</time>
      </trkpt>
      <trkpt lat="22.873467" lon="110.793544">
        <ele>133.893702</ele>
        <time>2026-08-18T03:48:58.000Z</time>
      </trkpt>
      <trkpt lat="22.873512" lon="110.793594">
        <ele>133.862711</ele>
        <time>2026-08-18T03:48:59.000Z</time>
      </trkpt>
      <trkpt lat="22.873556" lon="110.793645">
        <ele>133.831732</ele>
        <time>2026-08-18T03:49:00.000Z</time>
      </trkpt>
      <trkpt lat="22.873601" lon="110.793696">
        <ele>133.800421</ele>
        <time>2026-08-18T03:49:01.000Z</time>
      </trkpt>
      <trkpt lat="22.873646" lon="110.793745">
        <ele>133.769746</ele>
        <time>2026-08-18T03:49:02.000Z</time>
      </trkpt>
      <trkpt lat="22.873689" lon="110.793795">
        <ele>133.739419</ele>
        <time>2026-08-18T03:49:03.000Z</time>
      </trkpt>
      <trkpt lat="22.873731" lon="110.793844">
        <ele>133.709745</ele>
        <time>2026-08-18T03:49:04.000Z</time>
      </trkpt>
      <trkpt lat="22.873773" lon="110.793894">
        <ele>133.679744</ele>
        <time>2026-08-18T03:49:05.000Z</time>
      </trkpt>
      <trkpt lat="22.873816" lon="110.793942">
        <ele>133.650059</ele>
        <time>2026-08-18T03:49:06.000Z</time>
      </trkpt>
      <trkpt lat="22.873858" lon="110.793990">
        <ele>133.620708</ele>
        <time>2026-08-18T03:49:07.000Z</time>
      </trkpt>
      <trkpt lat="22.873900" lon="110.794038">
        <ele>133.591357</ele>
        <time>2026-08-18T03:49:08.000Z</time>
      </trkpt>
      <trkpt lat="22.873940" lon="110.794087">
        <ele>133.562330</ele>
        <time>2026-08-18T03:49:09.000Z</time>
      </trkpt>
      <trkpt lat="22.873983" lon="110.794134">
        <ele>133.532962</ele>
        <time>2026-08-18T03:49:10.000Z</time>
      </trkpt>
      <trkpt lat="22.874025" lon="110.794181">
        <ele>133.503930</ele>
        <time>2026-08-18T03:49:11.000Z</time>
      </trkpt>
      <trkpt lat="22.874066" lon="110.794229">
        <ele>133.474909</ele>
        <time>2026-08-18T03:49:12.000Z</time>
      </trkpt>
      <trkpt lat="22.874108" lon="110.794277">
        <ele>133.445557</ele>
        <time>2026-08-18T03:49:13.000Z</time>
      </trkpt>
      <trkpt lat="22.874147" lon="110.794326">
        <ele>133.416847</ele>
        <time>2026-08-18T03:49:14.000Z</time>
      </trkpt>
      <trkpt lat="22.874190" lon="110.794374">
        <ele>133.387163</ele>
        <time>2026-08-18T03:49:15.000Z</time>
      </trkpt>
      <trkpt lat="22.874231" lon="110.794422">
        <ele>133.358141</ele>
        <time>2026-08-18T03:49:16.000Z</time>
      </trkpt>
      <trkpt lat="22.874271" lon="110.794468">
        <ele>133.330095</ele>
        <time>2026-08-18T03:49:17.000Z</time>
      </trkpt>
      <trkpt lat="22.874311" lon="110.794516">
        <ele>133.301398</ele>
        <time>2026-08-18T03:49:18.000Z</time>
      </trkpt>
      <trkpt lat="22.874351" lon="110.794564">
        <ele>133.272702</ele>
        <time>2026-08-18T03:49:19.000Z</time>
      </trkpt>
      <trkpt lat="22.874393" lon="110.794610">
        <ele>133.243987</ele>
        <time>2026-08-18T03:49:20.000Z</time>
      </trkpt>
      <trkpt lat="22.874435" lon="110.794655">
        <ele>133.215586</ele>
        <time>2026-08-18T03:49:21.000Z</time>
      </trkpt>
      <trkpt lat="22.874476" lon="110.794701">
        <ele>133.149365</ele>
        <time>2026-08-18T03:49:22.000Z</time>
      </trkpt>
      <trkpt lat="22.874518" lon="110.794748">
        <ele>133.071338</ele>
        <time>2026-08-18T03:49:23.000Z</time>
      </trkpt>
      <trkpt lat="22.874558" lon="110.794794">
        <ele>132.995961</ele>
        <time>2026-08-18T03:49:24.000Z</time>
      </trkpt>
      <trkpt lat="22.874598" lon="110.794840">
        <ele>132.920584</ele>
        <time>2026-08-18T03:49:25.000Z</time>
      </trkpt>
      <trkpt lat="22.874640" lon="110.794887">
        <ele>132.842557</ele>
        <time>2026-08-18T03:49:26.000Z</time>
      </trkpt>
      <trkpt lat="22.874681" lon="110.794933">
        <ele>132.766287</ele>
        <time>2026-08-18T03:49:27.000Z</time>
      </trkpt>
      <trkpt lat="22.874722" lon="110.794979">
        <ele>132.690016</ele>
        <time>2026-08-18T03:49:28.000Z</time>
      </trkpt>
      <trkpt lat="22.874763" lon="110.795026">
        <ele>132.612884</ele>
        <time>2026-08-18T03:49:29.000Z</time>
      </trkpt>
      <trkpt lat="22.874804" lon="110.795073">
        <ele>132.535753</ele>
        <time>2026-08-18T03:49:30.000Z</time>
      </trkpt>
      <trkpt lat="22.874844" lon="110.795118">
        <ele>132.461238</ele>
        <time>2026-08-18T03:49:31.000Z</time>
      </trkpt>
      <trkpt lat="22.874885" lon="110.795166">
        <ele>132.383237</ele>
        <time>2026-08-18T03:49:32.000Z</time>
      </trkpt>
      <trkpt lat="22.874927" lon="110.795213">
        <ele>132.305210</ele>
        <time>2026-08-18T03:49:33.000Z</time>
      </trkpt>
      <trkpt lat="22.874968" lon="110.795260">
        <ele>132.228079</ele>
        <time>2026-08-18T03:49:34.000Z</time>
      </trkpt>
      <trkpt lat="22.875007" lon="110.795308">
        <ele>132.151812</ele>
        <time>2026-08-18T03:49:35.000Z</time>
      </trkpt>
      <trkpt lat="22.875050" lon="110.795356">
        <ele>132.072030</ele>
        <time>2026-08-18T03:49:36.000Z</time>
      </trkpt>
      <trkpt lat="22.875091" lon="110.795403">
        <ele>131.994898</ele>
        <time>2026-08-18T03:49:37.000Z</time>
      </trkpt>
      <trkpt lat="22.875133" lon="110.795449">
        <ele>131.917723</ele>
        <time>2026-08-18T03:49:38.000Z</time>
      </trkpt>
      <trkpt lat="22.875174" lon="110.795496">
        <ele>131.840592</ele>
        <time>2026-08-18T03:49:39.000Z</time>
      </trkpt>
      <trkpt lat="22.875216" lon="110.795544">
        <ele>131.761705</ele>
        <time>2026-08-18T03:49:40.000Z</time>
      </trkpt>
      <trkpt lat="22.875257" lon="110.795592">
        <ele>131.683704</ele>
        <time>2026-08-18T03:49:41.000Z</time>
      </trkpt>
      <trkpt lat="22.875299" lon="110.795641">
        <ele>131.603950</ele>
        <time>2026-08-18T03:49:42.000Z</time>
      </trkpt>
      <trkpt lat="22.875340" lon="110.795689">
        <ele>131.525949</ele>
        <time>2026-08-18T03:49:43.000Z</time>
      </trkpt>
      <trkpt lat="22.875382" lon="110.795738">
        <ele>131.446194</ele>
        <time>2026-08-18T03:49:44.000Z</time>
      </trkpt>
      <trkpt lat="22.875424" lon="110.795786">
        <ele>131.367308</ele>
        <time>2026-08-18T03:49:45.000Z</time>
      </trkpt>
      <trkpt lat="22.875466" lon="110.795832">
        <ele>131.290133</ele>
        <time>2026-08-18T03:49:46.000Z</time>
      </trkpt>
      <trkpt lat="22.875508" lon="110.795880">
        <ele>131.211246</ele>
        <time>2026-08-18T03:49:47.000Z</time>
      </trkpt>
      <trkpt lat="22.875550" lon="110.795927">
        <ele>131.133220</ele>
        <time>2026-08-18T03:49:48.000Z</time>
      </trkpt>
      <trkpt lat="22.875592" lon="110.795973">
        <ele>131.056045</ele>
        <time>2026-08-18T03:49:49.000Z</time>
      </trkpt>
      <trkpt lat="22.875632" lon="110.796021">
        <ele>130.978917</ele>
        <time>2026-08-18T03:49:50.000Z</time>
      </trkpt>
      <trkpt lat="22.875669" lon="110.796069">
        <ele>130.904337</ele>
        <time>2026-08-18T03:49:51.000Z</time>
      </trkpt>
      <trkpt lat="22.875708" lon="110.796116">
        <ele>130.784982</ele>
        <time>2026-08-18T03:49:52.000Z</time>
      </trkpt>
      <trkpt lat="22.875749" lon="110.796166">
        <ele>130.640583</ele>
        <time>2026-08-18T03:49:53.000Z</time>
      </trkpt>
      <trkpt lat="22.875791" lon="110.796214">
        <ele>130.497775</ele>
        <time>2026-08-18T03:49:54.000Z</time>
      </trkpt>
      <trkpt lat="22.875831" lon="110.796264">
        <ele>130.354922</ele>
        <time>2026-08-18T03:49:55.000Z</time>
      </trkpt>
      <trkpt lat="22.875875" lon="110.796314">
        <ele>130.205761</ele>
        <time>2026-08-18T03:49:56.000Z</time>
      </trkpt>
      <trkpt lat="22.875919" lon="110.796360">
        <ele>130.062716</ele>
        <time>2026-08-18T03:49:57.000Z</time>
      </trkpt>
      <trkpt lat="22.875963" lon="110.796406">
        <ele>129.919671</ele>
        <time>2026-08-18T03:49:58.000Z</time>
      </trkpt>
      <trkpt lat="22.876006" lon="110.796454">
        <ele>129.775241</ele>
        <time>2026-08-18T03:49:59.000Z</time>
      </trkpt>
      <trkpt lat="22.876050" lon="110.796503">
        <ele>129.627632</ele>
        <time>2026-08-18T03:50:00.000Z</time>
      </trkpt>
      <trkpt lat="22.876094" lon="110.796555">
        <ele>129.475322</ele>
        <time>2026-08-18T03:50:01.000Z</time>
      </trkpt>
      <trkpt lat="22.876137" lon="110.796606">
        <ele>129.326184</ele>
        <time>2026-08-18T03:50:02.000Z</time>
      </trkpt>
      <trkpt lat="22.876181" lon="110.796656">
        <ele>129.177023</ele>
        <time>2026-08-18T03:50:03.000Z</time>
      </trkpt>
      <trkpt lat="22.876225" lon="110.796709">
        <ele>129.023117</ele>
        <time>2026-08-18T03:50:04.000Z</time>
      </trkpt>
      <trkpt lat="22.876268" lon="110.796762">
        <ele>128.870768</ele>
        <time>2026-08-18T03:50:05.000Z</time>
      </trkpt>
      <trkpt lat="22.876313" lon="110.796813">
        <ele>128.718430</ele>
        <time>2026-08-18T03:50:06.000Z</time>
      </trkpt>
      <trkpt lat="22.876360" lon="110.796864">
        <ele>128.562816</ele>
        <time>2026-08-18T03:50:07.000Z</time>
      </trkpt>
      <trkpt lat="22.876406" lon="110.796920">
        <ele>128.400965</ele>
        <time>2026-08-18T03:50:08.000Z</time>
      </trkpt>
      <trkpt lat="22.876453" lon="110.796979">
        <ele>128.232705</ele>
        <time>2026-08-18T03:50:09.000Z</time>
      </trkpt>
      <trkpt lat="22.876506" lon="110.797037">
        <ele>128.056477</ele>
        <time>2026-08-18T03:50:10.000Z</time>
      </trkpt>
      <trkpt lat="22.876556" lon="110.797095">
        <ele>127.885124</ele>
        <time>2026-08-18T03:50:11.000Z</time>
      </trkpt>
      <trkpt lat="22.876606" lon="110.797149">
        <ele>127.719966</ele>
        <time>2026-08-18T03:50:12.000Z</time>
      </trkpt>
      <trkpt lat="22.876655" lon="110.797206">
        <ele>127.551787</ele>
        <time>2026-08-18T03:50:13.000Z</time>
      </trkpt>
      <trkpt lat="22.876702" lon="110.797262">
        <ele>127.388369</ele>
        <time>2026-08-18T03:50:14.000Z</time>
      </trkpt>
      <trkpt lat="22.876750" lon="110.797317">
        <ele>127.224937</ele>
        <time>2026-08-18T03:50:15.000Z</time>
      </trkpt>
      <trkpt lat="22.876796" lon="110.797372">
        <ele>127.064690</ele>
        <time>2026-08-18T03:50:16.000Z</time>
      </trkpt>
      <trkpt lat="22.876841" lon="110.797418">
        <ele>126.919950</ele>
        <time>2026-08-18T03:50:17.000Z</time>
      </trkpt>
      <trkpt lat="22.876885" lon="110.797468">
        <ele>126.770789</ele>
        <time>2026-08-18T03:50:18.000Z</time>
      </trkpt>
      <trkpt lat="22.876924" lon="110.797520">
        <ele>126.633109</ele>
        <time>2026-08-18T03:50:19.000Z</time>
      </trkpt>
      <trkpt lat="22.876960" lon="110.797570">
        <ele>126.517123</ele>
        <time>2026-08-18T03:50:20.000Z</time>
      </trkpt>
      <trkpt lat="22.876993" lon="110.797616">
        <ele>126.410562</ele>
        <time>2026-08-18T03:50:21.000Z</time>
      </trkpt>
      <trkpt lat="22.877019" lon="110.797658">
        <ele>126.318076</ele>
        <time>2026-08-18T03:50:22.000Z</time>
      </trkpt>
      <trkpt lat="22.877046" lon="110.797708">
        <ele>126.212145</ele>
        <time>2026-08-18T03:50:23.000Z</time>
      </trkpt>
      <trkpt lat="22.877076" lon="110.797758">
        <ele>126.103084</ele>
        <time>2026-08-18T03:50:24.000Z</time>
      </trkpt>
      <trkpt lat="22.877104" lon="110.797809">
        <ele>125.994571</ele>
        <time>2026-08-18T03:50:25.000Z</time>
      </trkpt>
      <trkpt lat="22.877132" lon="110.797863">
        <ele>125.881312</ele>
        <time>2026-08-18T03:50:26.000Z</time>
      </trkpt>
      <trkpt lat="22.877162" lon="110.797913">
        <ele>125.772252</ele>
        <time>2026-08-18T03:50:27.000Z</time>
      </trkpt>
      <trkpt lat="22.877192" lon="110.797957">
        <ele>125.672202</ele>
        <time>2026-08-18T03:50:28.000Z</time>
      </trkpt>
      <trkpt lat="22.877225" lon="110.797997">
        <ele>125.574062</ele>
        <time>2026-08-18T03:50:29.000Z</time>
      </trkpt>
      <trkpt lat="22.877256" lon="110.798033">
        <ele>125.483996</ele>
        <time>2026-08-18T03:50:30.000Z</time>
      </trkpt>
      <trkpt lat="22.877290" lon="110.798068">
        <ele>125.391033</ele>
        <time>2026-08-18T03:50:31.000Z</time>
      </trkpt>
      <trkpt lat="22.877319" lon="110.798101">
        <ele>125.307678</ele>
        <time>2026-08-18T03:50:32.000Z</time>
      </trkpt>
      <trkpt lat="22.877347" lon="110.798126">
        <ele>125.235750</ele>
        <time>2026-08-18T03:50:33.000Z</time>
      </trkpt>
      <trkpt lat="22.877374" lon="110.798142">
        <ele>125.174723</ele>
        <time>2026-08-18T03:50:34.000Z</time>
      </trkpt>
      <trkpt lat="22.877402" lon="110.798155">
        <ele>125.114306</ele>
        <time>2026-08-18T03:50:35.000Z</time>
      </trkpt>
      <trkpt lat="22.877425" lon="110.798171">
        <ele>125.060110</ele>
        <time>2026-08-18T03:50:36.000Z</time>
      </trkpt>
      <trkpt lat="22.877440" lon="110.798184">
        <ele>125.022029</ele>
        <time>2026-08-18T03:50:37.000Z</time>
      </trkpt>
      <trkpt lat="22.877456" lon="110.798200">
        <ele>124.978869</ele>
        <time>2026-08-18T03:50:38.000Z</time>
      </trkpt>
      <trkpt lat="22.877467" lon="110.798218">
        <ele>124.939390</ele>
        <time>2026-08-18T03:50:39.000Z</time>
      </trkpt>
      <trkpt lat="22.877479" lon="110.798236">
        <ele>124.898780</ele>
        <time>2026-08-18T03:50:40.000Z</time>
      </trkpt>
      <trkpt lat="22.877493" lon="110.798255">
        <ele>124.854311</ele>
        <time>2026-08-18T03:50:41.000Z</time>
      </trkpt>
      <trkpt lat="22.877510" lon="110.798273">
        <ele>124.807196</ele>
        <time>2026-08-18T03:50:42.000Z</time>
      </trkpt>
      <trkpt lat="22.877533" lon="110.798290">
        <ele>124.751992</ele>
        <time>2026-08-18T03:50:43.000Z</time>
      </trkpt>
      <trkpt lat="22.877559" lon="110.798311">
        <ele>124.687698</ele>
        <time>2026-08-18T03:50:44.000Z</time>
      </trkpt>
      <trkpt lat="22.877589" lon="110.798341">
        <ele>124.606773</ele>
        <time>2026-08-18T03:50:45.000Z</time>
      </trkpt>
      <trkpt lat="22.877615" lon="110.798371">
        <ele>124.531491</ele>
        <time>2026-08-18T03:50:46.000Z</time>
      </trkpt>
      <trkpt lat="22.877642" lon="110.798403">
        <ele>124.452181</ele>
        <time>2026-08-18T03:50:47.000Z</time>
      </trkpt>
      <trkpt lat="22.877671" lon="110.798438">
        <ele>124.366144</ele>
        <time>2026-08-18T03:50:48.000Z</time>
      </trkpt>
      <trkpt lat="22.877701" lon="110.798472">
        <ele>124.280097</ele>
        <time>2026-08-18T03:50:49.000Z</time>
      </trkpt>
      <trkpt lat="22.877736" lon="110.798506">
        <ele>124.186913</ele>
        <time>2026-08-18T03:50:50.000Z</time>
      </trkpt>
      <trkpt lat="22.877773" lon="110.798542">
        <ele>124.088335</ele>
        <time>2026-08-18T03:50:51.000Z</time>
      </trkpt>
      <trkpt lat="22.877811" lon="110.798580">
        <ele>123.985830</ele>
        <time>2026-08-18T03:50:52.000Z</time>
      </trkpt>
      <trkpt lat="22.877848" lon="110.798620">
        <ele>123.882229</ele>
        <time>2026-08-18T03:50:53.000Z</time>
      </trkpt>
      <trkpt lat="22.877883" lon="110.798662">
        <ele>123.778718</ele>
        <time>2026-08-18T03:50:54.000Z</time>
      </trkpt>
      <trkpt lat="22.877918" lon="110.798702">
        <ele>123.677889</ele>
        <time>2026-08-18T03:50:55.000Z</time>
      </trkpt>
      <trkpt lat="22.877954" lon="110.798746">
        <ele>123.570333</ele>
        <time>2026-08-18T03:50:56.000Z</time>
      </trkpt>
      <trkpt lat="22.877988" lon="110.798786">
        <ele>123.470859</ele>
        <time>2026-08-18T03:50:57.000Z</time>
      </trkpt>
      <trkpt lat="22.878021" lon="110.798827">
        <ele>123.371351</ele>
        <time>2026-08-18T03:50:58.000Z</time>
      </trkpt>
      <trkpt lat="22.878055" lon="110.798871">
        <ele>123.266387</ele>
        <time>2026-08-18T03:50:59.000Z</time>
      </trkpt>
      <trkpt lat="22.878086" lon="110.798915">
        <ele>123.165145</ele>
        <time>2026-08-18T03:51:00.000Z</time>
      </trkpt>
      <trkpt lat="22.878119" lon="110.798960">
        <ele>123.106324</ele>
        <time>2026-08-18T03:51:01.000Z</time>
      </trkpt>
      <trkpt lat="22.878155" lon="110.799006">
        <ele>123.113420</ele>
        <time>2026-08-18T03:51:02.000Z</time>
      </trkpt>
      <trkpt lat="22.878192" lon="110.799054">
        <ele>123.120779</ele>
        <time>2026-08-18T03:51:03.000Z</time>
      </trkpt>
      <trkpt lat="22.878227" lon="110.799104">
        <ele>123.128162</ele>
        <time>2026-08-18T03:51:04.000Z</time>
      </trkpt>
      <trkpt lat="22.878257" lon="110.799153">
        <ele>123.135079</ele>
        <time>2026-08-18T03:51:05.000Z</time>
      </trkpt>
      <trkpt lat="22.878289" lon="110.799202">
        <ele>123.142140</ele>
        <time>2026-08-18T03:51:06.000Z</time>
      </trkpt>
      <trkpt lat="22.878321" lon="110.799247">
        <ele>123.148824</ele>
        <time>2026-08-18T03:51:07.000Z</time>
      </trkpt>
      <trkpt lat="22.878351" lon="110.799291">
        <ele>123.155259</ele>
        <time>2026-08-18T03:51:08.000Z</time>
      </trkpt>
      <trkpt lat="22.878381" lon="110.799339">
        <ele>123.162079</ele>
        <time>2026-08-18T03:51:09.000Z</time>
      </trkpt>
      <trkpt lat="22.878411" lon="110.799385">
        <ele>123.168705</ele>
        <time>2026-08-18T03:51:10.000Z</time>
      </trkpt>
      <trkpt lat="22.878441" lon="110.799429">
        <ele>123.175141</ele>
        <time>2026-08-18T03:51:11.000Z</time>
      </trkpt>
      <trkpt lat="22.878471" lon="110.799473">
        <ele>123.181576</ele>
        <time>2026-08-18T03:51:12.000Z</time>
      </trkpt>
      <trkpt lat="22.878502" lon="110.799519">
        <ele>123.188277</ele>
        <time>2026-08-18T03:51:13.000Z</time>
      </trkpt>
      <trkpt lat="22.878530" lon="110.799560">
        <ele>123.194277</ele>
        <time>2026-08-18T03:51:14.000Z</time>
      </trkpt>
      <trkpt lat="22.878559" lon="110.799604">
        <ele>123.200638</ele>
        <time>2026-08-18T03:51:15.000Z</time>
      </trkpt>
      <trkpt lat="22.878586" lon="110.799647">
        <ele>123.206756</ele>
        <time>2026-08-18T03:51:16.000Z</time>
      </trkpt>
      <trkpt lat="22.878612" lon="110.799691">
        <ele>123.212902</ele>
        <time>2026-08-18T03:51:17.000Z</time>
      </trkpt>
      <trkpt lat="22.878640" lon="110.799733">
        <ele>123.218997</ele>
        <time>2026-08-18T03:51:18.000Z</time>
      </trkpt>
      <trkpt lat="22.878667" lon="110.799778">
        <ele>123.225311</ele>
        <time>2026-08-18T03:51:19.000Z</time>
      </trkpt>
      <trkpt lat="22.878692" lon="110.799823">
        <ele>123.231489</ele>
        <time>2026-08-18T03:51:20.000Z</time>
      </trkpt>
      <trkpt lat="22.878719" lon="110.799868">
        <ele>123.237803</ele>
        <time>2026-08-18T03:51:21.000Z</time>
      </trkpt>
      <trkpt lat="22.878746" lon="110.799911">
        <ele>123.243921</ele>
        <time>2026-08-18T03:51:22.000Z</time>
      </trkpt>
      <trkpt lat="22.878773" lon="110.799955">
        <ele>123.250136</ele>
        <time>2026-08-18T03:51:23.000Z</time>
      </trkpt>
      <trkpt lat="22.878800" lon="110.800001">
        <ele>123.256549</ele>
        <time>2026-08-18T03:51:24.000Z</time>
      </trkpt>
      <trkpt lat="22.878825" lon="110.800045">
        <ele>123.262627</ele>
        <time>2026-08-18T03:51:25.000Z</time>
      </trkpt>
      <trkpt lat="22.878851" lon="110.800088">
        <ele>123.268674</ele>
        <time>2026-08-18T03:51:26.000Z</time>
      </trkpt>
      <trkpt lat="22.878876" lon="110.800131">
        <ele>123.274652</ele>
        <time>2026-08-18T03:51:27.000Z</time>
      </trkpt>
      <trkpt lat="22.878900" lon="110.800174">
        <ele>123.280563</ele>
        <time>2026-08-18T03:51:28.000Z</time>
      </trkpt>
      <trkpt lat="22.878925" lon="110.800216">
        <ele>123.286442</ele>
        <time>2026-08-18T03:51:29.000Z</time>
      </trkpt>
      <trkpt lat="22.878948" lon="110.800257">
        <ele>123.292085</ele>
        <time>2026-08-18T03:51:30.000Z</time>
      </trkpt>
      <trkpt lat="22.878970" lon="110.800297">
        <ele>123.297562</ele>
        <time>2026-08-18T03:51:31.000Z</time>
      </trkpt>
      <trkpt lat="22.878992" lon="110.800338">
        <ele>123.303141</ele>
        <time>2026-08-18T03:51:32.000Z</time>
      </trkpt>
      <trkpt lat="22.879016" lon="110.800379">
        <ele>123.308852</ele>
        <time>2026-08-18T03:51:33.000Z</time>
      </trkpt>
      <trkpt lat="22.879039" lon="110.800417">
        <ele>123.314197</ele>
        <time>2026-08-18T03:51:34.000Z</time>
      </trkpt>
      <trkpt lat="22.879061" lon="110.800458">
        <ele>123.319776</ele>
        <time>2026-08-18T03:51:35.000Z</time>
      </trkpt>
      <trkpt lat="22.879082" lon="110.800499">
        <ele>123.325291</ele>
        <time>2026-08-18T03:51:36.000Z</time>
      </trkpt>
      <trkpt lat="22.879103" lon="110.800540">
        <ele>123.330806</ele>
        <time>2026-08-18T03:51:37.000Z</time>
      </trkpt>
      <trkpt lat="22.879124" lon="110.800581">
        <ele>123.371588</ele>
        <time>2026-08-18T03:51:38.000Z</time>
      </trkpt>
      <trkpt lat="22.879147" lon="110.800622">
        <ele>123.438125</ele>
        <time>2026-08-18T03:51:39.000Z</time>
      </trkpt>
      <trkpt lat="22.879167" lon="110.800661">
        <ele>123.499993</ele>
        <time>2026-08-18T03:51:40.000Z</time>
      </trkpt>
      <trkpt lat="22.879189" lon="110.800698">
        <ele>123.561033</ele>
        <time>2026-08-18T03:51:41.000Z</time>
      </trkpt>
      <trkpt lat="22.879210" lon="110.800737">
        <ele>123.623647</ele>
        <time>2026-08-18T03:51:42.000Z</time>
      </trkpt>
      <trkpt lat="22.879232" lon="110.800776">
        <ele>123.687034</ele>
        <time>2026-08-18T03:51:43.000Z</time>
      </trkpt>
      <trkpt lat="22.879254" lon="110.800813">
        <ele>123.748073</ele>
        <time>2026-08-18T03:51:44.000Z</time>
      </trkpt>
      <trkpt lat="22.879276" lon="110.800853">
        <ele>123.812646</ele>
        <time>2026-08-18T03:51:45.000Z</time>
      </trkpt>
      <trkpt lat="22.879297" lon="110.800891">
        <ele>123.874068</ele>
        <time>2026-08-18T03:51:46.000Z</time>
      </trkpt>
      <trkpt lat="22.879317" lon="110.800929">
        <ele>123.934729</ele>
        <time>2026-08-18T03:51:47.000Z</time>
      </trkpt>
      <trkpt lat="22.879338" lon="110.800967">
        <ele>123.996150</ele>
        <time>2026-08-18T03:51:48.000Z</time>
      </trkpt>
      <trkpt lat="22.879359" lon="110.801007">
        <ele>124.059965</ele>
        <time>2026-08-18T03:51:49.000Z</time>
      </trkpt>
      <trkpt lat="22.879380" lon="110.801047">
        <ele>124.123780</ele>
        <time>2026-08-18T03:51:50.000Z</time>
      </trkpt>
      <trkpt lat="22.879399" lon="110.801086">
        <ele>124.184931</ele>
        <time>2026-08-18T03:51:51.000Z</time>
      </trkpt>
      <trkpt lat="22.879421" lon="110.801126">
        <ele>124.249504</ele>
        <time>2026-08-18T03:51:52.000Z</time>
      </trkpt>
      <trkpt lat="22.879442" lon="110.801164">
        <ele>124.310925</ele>
        <time>2026-08-18T03:51:53.000Z</time>
      </trkpt>
      <trkpt lat="22.879462" lon="110.801202">
        <ele>124.371586</ele>
        <time>2026-08-18T03:51:54.000Z</time>
      </trkpt>
      <trkpt lat="22.879481" lon="110.801238">
        <ele>124.429094</ele>
        <time>2026-08-18T03:51:55.000Z</time>
      </trkpt>
      <trkpt lat="22.879501" lon="110.801276">
        <ele>124.489755</ele>
        <time>2026-08-18T03:51:56.000Z</time>
      </trkpt>
      <trkpt lat="22.879523" lon="110.801313">
        <ele>124.550795</ele>
        <time>2026-08-18T03:51:57.000Z</time>
      </trkpt>
      <trkpt lat="22.879543" lon="110.801350">
        <ele>124.610256</ele>
        <time>2026-08-18T03:51:58.000Z</time>
      </trkpt>
      <trkpt lat="22.879562" lon="110.801389">
        <ele>124.671407</ele>
        <time>2026-08-18T03:51:59.000Z</time>
      </trkpt>
      <trkpt lat="22.879579" lon="110.801430">
        <ele>124.733728</ele>
        <time>2026-08-18T03:52:00.000Z</time>
      </trkpt>
      <trkpt lat="22.879592" lon="110.801470">
        <ele>124.792521</ele>
        <time>2026-08-18T03:52:01.000Z</time>
      </trkpt>
      <trkpt lat="22.879606" lon="110.801511">
        <ele>124.853130</ele>
        <time>2026-08-18T03:52:02.000Z</time>
      </trkpt>
      <trkpt lat="22.879622" lon="110.801552">
        <ele>124.914848</ele>
        <time>2026-08-18T03:52:03.000Z</time>
      </trkpt>
      <trkpt lat="22.879639" lon="110.801593">
        <ele>124.977169</ele>
        <time>2026-08-18T03:52:04.000Z</time>
      </trkpt>
      <trkpt lat="22.879658" lon="110.801634">
        <ele>125.040784</ele>
        <time>2026-08-18T03:52:05.000Z</time>
      </trkpt>
      <trkpt lat="22.879679" lon="110.801675">
        <ele>125.105807</ele>
        <time>2026-08-18T03:52:06.000Z</time>
      </trkpt>
      <trkpt lat="22.879700" lon="110.801716">
        <ele>125.170829</ele>
        <time>2026-08-18T03:52:07.000Z</time>
      </trkpt>
      <trkpt lat="22.879719" lon="110.801755">
        <ele>125.231980</ele>
        <time>2026-08-18T03:52:08.000Z</time>
      </trkpt>
      <trkpt lat="22.879739" lon="110.801796">
        <ele>125.296285</ele>
        <time>2026-08-18T03:52:09.000Z</time>
      </trkpt>
      <trkpt lat="22.879759" lon="110.801835">
        <ele>125.358154</ele>
        <time>2026-08-18T03:52:10.000Z</time>
      </trkpt>
      <trkpt lat="22.879779" lon="110.801875">
        <ele>125.421237</ele>
        <time>2026-08-18T03:52:11.000Z</time>
      </trkpt>
      <trkpt lat="22.879798" lon="110.801914">
        <ele>125.482388</ele>
        <time>2026-08-18T03:52:12.000Z</time>
      </trkpt>
      <trkpt lat="22.879819" lon="110.801954">
        <ele>125.546202</ele>
        <time>2026-08-18T03:52:13.000Z</time>
      </trkpt>
      <trkpt lat="22.879840" lon="110.801992">
        <ele>125.607624</ele>
        <time>2026-08-18T03:52:14.000Z</time>
      </trkpt>
      <trkpt lat="22.879861" lon="110.802028">
        <ele>125.666685</ele>
        <time>2026-08-18T03:52:15.000Z</time>
      </trkpt>
      <trkpt lat="22.879882" lon="110.802064">
        <ele>125.725746</ele>
        <time>2026-08-18T03:52:16.000Z</time>
      </trkpt>
      <trkpt lat="22.879903" lon="110.802099">
        <ele>125.783641</ele>
        <time>2026-08-18T03:52:17.000Z</time>
      </trkpt>
      <trkpt lat="22.879924" lon="110.802135">
        <ele>125.842702</ele>
        <time>2026-08-18T03:52:18.000Z</time>
      </trkpt>
      <trkpt lat="22.879944" lon="110.802170">
        <ele>125.899789</ele>
        <time>2026-08-18T03:52:19.000Z</time>
      </trkpt>
      <trkpt lat="22.879962" lon="110.802204">
        <ele>125.954144</ele>
        <time>2026-08-18T03:52:20.000Z</time>
      </trkpt>
      <trkpt lat="22.879982" lon="110.802239">
        <ele>126.011231</ele>
        <time>2026-08-18T03:52:21.000Z</time>
      </trkpt>
      <trkpt lat="22.880003" lon="110.802275">
        <ele>126.066105</ele>
        <time>2026-08-18T03:52:22.000Z</time>
      </trkpt>
      <trkpt lat="22.880023" lon="110.802311">
        <ele>126.116557</ele>
        <time>2026-08-18T03:52:23.000Z</time>
      </trkpt>
      <trkpt lat="22.880043" lon="110.802348">
        <ele>126.168041</ele>
        <time>2026-08-18T03:52:24.000Z</time>
      </trkpt>
      <trkpt lat="22.880065" lon="110.802385">
        <ele>126.220890</ele>
        <time>2026-08-18T03:52:25.000Z</time>
      </trkpt>
      <trkpt lat="22.880088" lon="110.802420">
        <ele>126.272485</ele>
        <time>2026-08-18T03:52:26.000Z</time>
      </trkpt>
      <trkpt lat="22.880114" lon="110.802455">
        <ele>126.326443</ele>
        <time>2026-08-18T03:52:27.000Z</time>
      </trkpt>
      <trkpt lat="22.880137" lon="110.802490">
        <ele>126.378038</ele>
        <time>2026-08-18T03:52:28.000Z</time>
      </trkpt>
      <trkpt lat="22.880163" lon="110.802525">
        <ele>126.431996</ele>
        <time>2026-08-18T03:52:29.000Z</time>
      </trkpt>
      <trkpt lat="22.880187" lon="110.802559">
        <ele>126.483400</ele>
        <time>2026-08-18T03:52:30.000Z</time>
      </trkpt>
      <trkpt lat="22.880210" lon="110.802594">
        <ele>126.534995</ele>
        <time>2026-08-18T03:52:31.000Z</time>
      </trkpt>
      <trkpt lat="22.880231" lon="110.802629">
        <ele>126.585122</ele>
        <time>2026-08-18T03:52:32.000Z</time>
      </trkpt>
      <trkpt lat="22.880254" lon="110.802662">
        <ele>126.634782</ele>
        <time>2026-08-18T03:52:33.000Z</time>
      </trkpt>
      <trkpt lat="22.880276" lon="110.802694">
        <ele>126.682700</ele>
        <time>2026-08-18T03:52:34.000Z</time>
      </trkpt>
      <trkpt lat="22.880299" lon="110.802728">
        <ele>126.733323</ele>
        <time>2026-08-18T03:52:35.000Z</time>
      </trkpt>
      <trkpt lat="22.880323" lon="110.802763">
        <ele>126.785684</ele>
        <time>2026-08-18T03:52:36.000Z</time>
      </trkpt>
      <trkpt lat="22.880346" lon="110.802798">
        <ele>126.837279</ele>
        <time>2026-08-18T03:52:37.000Z</time>
      </trkpt>
      <trkpt lat="22.880370" lon="110.802831">
        <ele>126.887736</ele>
        <time>2026-08-18T03:52:38.000Z</time>
      </trkpt>
      <trkpt lat="22.880396" lon="110.802865">
        <ele>126.940765</ele>
        <time>2026-08-18T03:52:39.000Z</time>
      </trkpt>
      <trkpt lat="22.880422" lon="110.802899">
        <ele>126.993794</ele>
        <time>2026-08-18T03:52:40.000Z</time>
      </trkpt>
      <trkpt lat="22.880448" lon="110.802933">
        <ele>127.046823</ele>
        <time>2026-08-18T03:52:41.000Z</time>
      </trkpt>
      <trkpt lat="22.880475" lon="110.802968">
        <ele>127.101608</ele>
        <time>2026-08-18T03:52:42.000Z</time>
      </trkpt>
      <trkpt lat="22.880499" lon="110.803003">
        <ele>127.153970</ele>
        <time>2026-08-18T03:52:43.000Z</time>
      </trkpt>
      <trkpt lat="22.880522" lon="110.803038">
        <ele>127.205564</ele>
        <time>2026-08-18T03:52:44.000Z</time>
      </trkpt>
      <trkpt lat="22.880548" lon="110.803072">
        <ele>127.258593</ele>
        <time>2026-08-18T03:52:45.000Z</time>
      </trkpt>
      <trkpt lat="22.880574" lon="110.803106">
        <ele>127.311622</ele>
        <time>2026-08-18T03:52:46.000Z</time>
      </trkpt>
      <trkpt lat="22.880600" lon="110.803139">
        <ele>127.363733</ele>
        <time>2026-08-18T03:52:47.000Z</time>
      </trkpt>
      <trkpt lat="22.880625" lon="110.803173">
        <ele>127.415940</ele>
        <time>2026-08-18T03:52:48.000Z</time>
      </trkpt>
      <trkpt lat="22.880651" lon="110.803207">
        <ele>127.468969</ele>
        <time>2026-08-18T03:52:49.000Z</time>
      </trkpt>
      <trkpt lat="22.880679" lon="110.803241">
        <ele>127.523698</ele>
        <time>2026-08-18T03:52:50.000Z</time>
      </trkpt>
      <trkpt lat="22.880707" lon="110.803273">
        <ele>127.576662</ele>
        <time>2026-08-18T03:52:51.000Z</time>
      </trkpt>
      <trkpt lat="22.880734" lon="110.803307">
        <ele>127.630533</ele>
        <time>2026-08-18T03:52:52.000Z</time>
      </trkpt>
      <trkpt lat="22.880760" lon="110.803341">
        <ele>127.683561</ele>
        <time>2026-08-18T03:52:53.000Z</time>
      </trkpt>
      <trkpt lat="22.880787" lon="110.803377">
        <ele>127.739272</ele>
        <time>2026-08-18T03:52:54.000Z</time>
      </trkpt>
      <trkpt lat="22.880815" lon="110.803413">
        <ele>127.795813</ele>
        <time>2026-08-18T03:52:55.000Z</time>
      </trkpt>
      <trkpt lat="22.880843" lon="110.803447">
        <ele>127.850543</ele>
        <time>2026-08-18T03:52:56.000Z</time>
      </trkpt>
      <trkpt lat="22.880872" lon="110.803480">
        <ele>127.905274</ele>
        <time>2026-08-18T03:52:57.000Z</time>
      </trkpt>
      <trkpt lat="22.880901" lon="110.803513">
        <ele>127.960006</ele>
        <time>2026-08-18T03:52:58.000Z</time>
      </trkpt>
      <trkpt lat="22.880931" lon="110.803546">
        <ele>128.015644</ele>
        <time>2026-08-18T03:52:59.000Z</time>
      </trkpt>
      <trkpt lat="22.880961" lon="110.803579">
        <ele>128.071283</ele>
        <time>2026-08-18T03:53:00.000Z</time>
      </trkpt>
      <trkpt lat="22.880992" lon="110.803612">
        <ele>128.127844</ele>
        <time>2026-08-18T03:53:01.000Z</time>
      </trkpt>
      <trkpt lat="22.881022" lon="110.803646">
        <ele>128.184343</ele>
        <time>2026-08-18T03:53:02.000Z</time>
      </trkpt>
      <trkpt lat="22.881052" lon="110.803678">
        <ele>128.239134</ele>
        <time>2026-08-18T03:53:03.000Z</time>
      </trkpt>
      <trkpt lat="22.881083" lon="110.803712">
        <ele>128.296542</ele>
        <time>2026-08-18T03:53:04.000Z</time>
      </trkpt>
      <trkpt lat="22.881113" lon="110.803744">
        <ele>128.351332</ele>
        <time>2026-08-18T03:53:05.000Z</time>
      </trkpt>
      <trkpt lat="22.881145" lon="110.803778">
        <ele>128.381622</ele>
        <time>2026-08-18T03:53:06.000Z</time>
      </trkpt>
      <trkpt lat="22.881176" lon="110.803811">
        <ele>128.380759</ele>
        <time>2026-08-18T03:53:07.000Z</time>
      </trkpt>
      <trkpt lat="22.881207" lon="110.803843">
        <ele>128.379908</ele>
        <time>2026-08-18T03:53:08.000Z</time>
      </trkpt>
      <trkpt lat="22.881239" lon="110.803875">
        <ele>128.379043</ele>
        <time>2026-08-18T03:53:09.000Z</time>
      </trkpt>
      <trkpt lat="22.881271" lon="110.803907">
        <ele>128.378178</ele>
        <time>2026-08-18T03:53:10.000Z</time>
      </trkpt>
      <trkpt lat="22.881301" lon="110.803938">
        <ele>128.377355</ele>
        <time>2026-08-18T03:53:11.000Z</time>
      </trkpt>
      <trkpt lat="22.881332" lon="110.803968">
        <ele>128.376529</ele>
        <time>2026-08-18T03:53:12.000Z</time>
      </trkpt>
      <trkpt lat="22.881364" lon="110.803998">
        <ele>128.375689</ele>
        <time>2026-08-18T03:53:13.000Z</time>
      </trkpt>
      <trkpt lat="22.881397" lon="110.804028">
        <ele>128.374833</ele>
        <time>2026-08-18T03:53:14.000Z</time>
      </trkpt>
      <trkpt lat="22.881429" lon="110.804058">
        <ele>128.373992</ele>
        <time>2026-08-18T03:53:15.000Z</time>
      </trkpt>
      <trkpt lat="22.881461" lon="110.804088">
        <ele>128.373151</ele>
        <time>2026-08-18T03:53:16.000Z</time>
      </trkpt>
      <trkpt lat="22.881493" lon="110.804116">
        <ele>128.372334</ele>
        <time>2026-08-18T03:53:17.000Z</time>
      </trkpt>
      <trkpt lat="22.881517" lon="110.804140">
        <ele>128.371686</ele>
        <time>2026-08-18T03:53:18.000Z</time>
      </trkpt>
      <trkpt lat="22.881537" lon="110.804162">
        <ele>128.371119</ele>
        <time>2026-08-18T03:53:19.000Z</time>
      </trkpt>
      <trkpt lat="22.881555" lon="110.804181">
        <ele>128.370620</ele>
        <time>2026-08-18T03:53:20.000Z</time>
      </trkpt>
      <trkpt lat="22.881570" lon="110.804196">
        <ele>128.370215</ele>
        <time>2026-08-18T03:53:21.000Z</time>
      </trkpt>
      <trkpt lat="22.881586" lon="110.804209">
        <ele>128.369818</ele>
        <time>2026-08-18T03:53:22.000Z</time>
      </trkpt>
      <trkpt lat="22.881601" lon="110.804221">
        <ele>128.369447</ele>
        <time>2026-08-18T03:53:23.000Z</time>
      </trkpt>
      <trkpt lat="22.881611" lon="110.804230">
        <ele>128.369189</ele>
        <time>2026-08-18T03:53:24.000Z</time>
      </trkpt>
      <trkpt lat="22.881615" lon="110.804233">
        <ele>128.369092</ele>
        <time>2026-08-18T03:53:25.000Z</time>
      </trkpt>
      <trkpt lat="22.881617" lon="110.804237">
        <ele>128.369009</ele>
        <time>2026-08-18T03:53:37.000Z</time>
      </trkpt>
      <trkpt lat="22.881632" lon="110.804253">
        <ele>128.368591</ele>
        <time>2026-08-18T03:53:38.000Z</time>
      </trkpt>
      <trkpt lat="22.881654" lon="110.804270">
        <ele>128.368054</ele>
        <time>2026-08-18T03:53:39.000Z</time>
      </trkpt>
      <trkpt lat="22.881677" lon="110.804288">
        <ele>128.367490</ele>
        <time>2026-08-18T03:53:40.000Z</time>
      </trkpt>
      <trkpt lat="22.881702" lon="110.804310">
        <ele>128.366850</ele>
        <time>2026-08-18T03:53:41.000Z</time>
      </trkpt>
      <trkpt lat="22.881731" lon="110.804335">
        <ele>128.366114</ele>
        <time>2026-08-18T03:53:42.000Z</time>
      </trkpt>
      <trkpt lat="22.881761" lon="110.804360">
        <ele>128.365362</ele>
        <time>2026-08-18T03:53:43.000Z</time>
      </trkpt>
      <trkpt lat="22.881792" lon="110.804384">
        <ele>128.364605</ele>
        <time>2026-08-18T03:53:44.000Z</time>
      </trkpt>
      <trkpt lat="22.881824" lon="110.804408">
        <ele>128.363832</ele>
        <time>2026-08-18T03:53:45.000Z</time>
      </trkpt>
      <trkpt lat="22.881858" lon="110.804433">
        <ele>128.363015</ele>
        <time>2026-08-18T03:53:46.000Z</time>
      </trkpt>
      <trkpt lat="22.881894" lon="110.804462">
        <ele>128.362124</ele>
        <time>2026-08-18T03:53:47.000Z</time>
      </trkpt>
      <trkpt lat="22.881929" lon="110.804489">
        <ele>128.361270</ele>
        <time>2026-08-18T03:53:48.000Z</time>
      </trkpt>
      <trkpt lat="22.881966" lon="110.804514">
        <ele>128.360404</ele>
        <time>2026-08-18T03:53:49.000Z</time>
      </trkpt>
      <trkpt lat="22.882003" lon="110.804540">
        <ele>128.359528</ele>
        <time>2026-08-18T03:53:50.000Z</time>
      </trkpt>
      <trkpt lat="22.882044" lon="110.804571">
        <ele>128.358534</ele>
        <time>2026-08-18T03:53:51.000Z</time>
      </trkpt>
      <trkpt lat="22.882083" lon="110.804602">
        <ele>128.357573</ele>
        <time>2026-08-18T03:53:52.000Z</time>
      </trkpt>
      <trkpt lat="22.882123" lon="110.804631">
        <ele>128.356617</ele>
        <time>2026-08-18T03:53:53.000Z</time>
      </trkpt>
      <trkpt lat="22.882163" lon="110.804661">
        <ele>128.355650</ele>
        <time>2026-08-18T03:53:54.000Z</time>
      </trkpt>
      <trkpt lat="22.882202" lon="110.804689">
        <ele>128.354721</ele>
        <time>2026-08-18T03:53:55.000Z</time>
      </trkpt>
      <trkpt lat="22.882242" lon="110.804717">
        <ele>128.353775</ele>
        <time>2026-08-18T03:53:56.000Z</time>
      </trkpt>
      <trkpt lat="22.882283" lon="110.804743">
        <ele>128.352831</ele>
        <time>2026-08-18T03:53:57.000Z</time>
      </trkpt>
      <trkpt lat="22.882324" lon="110.804766">
        <ele>128.351913</ele>
        <time>2026-08-18T03:53:58.000Z</time>
      </trkpt>
      <trkpt lat="22.882366" lon="110.804788">
        <ele>128.350986</ele>
        <time>2026-08-18T03:53:59.000Z</time>
      </trkpt>
      <trkpt lat="22.882410" lon="110.804815">
        <ele>128.349981</ele>
        <time>2026-08-18T03:54:00.000Z</time>
      </trkpt>
      <trkpt lat="22.882456" lon="110.804838">
        <ele>128.348974</ele>
        <time>2026-08-18T03:54:01.000Z</time>
      </trkpt>
      <trkpt lat="22.882502" lon="110.804866">
        <ele>128.347926</ele>
        <time>2026-08-18T03:54:02.000Z</time>
      </trkpt>
      <trkpt lat="22.882546" lon="110.804894">
        <ele>128.346912</ele>
        <time>2026-08-18T03:54:03.000Z</time>
      </trkpt>
      <trkpt lat="22.882592" lon="110.804921">
        <ele>128.329494</ele>
        <time>2026-08-18T03:54:04.000Z</time>
      </trkpt>
      <trkpt lat="22.882639" lon="110.804947">
        <ele>128.286921</ele>
        <time>2026-08-18T03:54:05.000Z</time>
      </trkpt>
      <trkpt lat="22.882684" lon="110.804973">
        <ele>128.245779</ele>
        <time>2026-08-18T03:54:06.000Z</time>
      </trkpt>
      <trkpt lat="22.882728" lon="110.804998">
        <ele>128.205698</ele>
        <time>2026-08-18T03:54:07.000Z</time>
      </trkpt>
      <trkpt lat="22.882773" lon="110.805023">
        <ele>128.164901</ele>
        <time>2026-08-18T03:54:08.000Z</time>
      </trkpt>
      <trkpt lat="22.882819" lon="110.805049">
        <ele>128.123045</ele>
        <time>2026-08-18T03:54:09.000Z</time>
      </trkpt>
      <trkpt lat="22.882865" lon="110.805075">
        <ele>128.081190</ele>
        <time>2026-08-18T03:54:10.000Z</time>
      </trkpt>
      <trkpt lat="22.882912" lon="110.805099">
        <ele>128.039271</ele>
        <time>2026-08-18T03:54:11.000Z</time>
      </trkpt>
      <trkpt lat="22.882959" lon="110.805123">
        <ele>127.997352</ele>
        <time>2026-08-18T03:54:12.000Z</time>
      </trkpt>
      <trkpt lat="22.883006" lon="110.805148">
        <ele>127.955111</ele>
        <time>2026-08-18T03:54:13.000Z</time>
      </trkpt>
      <trkpt lat="22.883055" lon="110.805173">
        <ele>127.911416</ele>
        <time>2026-08-18T03:54:14.000Z</time>
      </trkpt>
      <trkpt lat="22.883103" lon="110.805199">
        <ele>127.868122</ele>
        <time>2026-08-18T03:54:15.000Z</time>
      </trkpt>
      <trkpt lat="22.883151" lon="110.805225">
        <ele>127.824828</ele>
        <time>2026-08-18T03:54:16.000Z</time>
      </trkpt>
      <trkpt lat="22.883199" lon="110.805252">
        <ele>127.781197</ele>
        <time>2026-08-18T03:54:17.000Z</time>
      </trkpt>
      <trkpt lat="22.883247" lon="110.805274">
        <ele>127.739147</ele>
        <time>2026-08-18T03:54:18.000Z</time>
      </trkpt>
      <trkpt lat="22.883297" lon="110.805297">
        <ele>127.695321</ele>
        <time>2026-08-18T03:54:19.000Z</time>
      </trkpt>
      <trkpt lat="22.883347" lon="110.805321">
        <ele>127.651200</ele>
        <time>2026-08-18T03:54:20.000Z</time>
      </trkpt>
      <trkpt lat="22.883396" lon="110.805348">
        <ele>127.606851</ele>
        <time>2026-08-18T03:54:21.000Z</time>
      </trkpt>
      <trkpt lat="22.883443" lon="110.805375">
        <ele>127.563935</ele>
        <time>2026-08-18T03:54:22.000Z</time>
      </trkpt>
      <trkpt lat="22.883490" lon="110.805401">
        <ele>127.521362</ele>
        <time>2026-08-18T03:54:23.000Z</time>
      </trkpt>
      <trkpt lat="22.883539" lon="110.805427">
        <ele>127.477345</ele>
        <time>2026-08-18T03:54:24.000Z</time>
      </trkpt>
      <trkpt lat="22.883587" lon="110.805454">
        <ele>127.433714</ele>
        <time>2026-08-18T03:54:25.000Z</time>
      </trkpt>
      <trkpt lat="22.883637" lon="110.805480">
        <ele>127.388970</ele>
        <time>2026-08-18T03:54:26.000Z</time>
      </trkpt>
      <trkpt lat="22.883687" lon="110.805508">
        <ele>127.343564</ele>
        <time>2026-08-18T03:54:27.000Z</time>
      </trkpt>
      <trkpt lat="22.883738" lon="110.805535">
        <ele>127.297770</ele>
        <time>2026-08-18T03:54:28.000Z</time>
      </trkpt>
      <trkpt lat="22.883790" lon="110.805560">
        <ele>127.251872</ele>
        <time>2026-08-18T03:54:29.000Z</time>
      </trkpt>
      <trkpt lat="22.883840" lon="110.805587">
        <ele>127.206802</ele>
        <time>2026-08-18T03:54:30.000Z</time>
      </trkpt>
      <trkpt lat="22.883889" lon="110.805615">
        <ele>127.162112</ele>
        <time>2026-08-18T03:54:31.000Z</time>
      </trkpt>
      <trkpt lat="22.883940" lon="110.805644">
        <ele>127.115647</ele>
        <time>2026-08-18T03:54:32.000Z</time>
      </trkpt>
      <trkpt lat="22.883990" lon="110.805674">
        <ele>127.069540</ele>
        <time>2026-08-18T03:54:33.000Z</time>
      </trkpt>
      <trkpt lat="22.884041" lon="110.805702">
        <ele>127.023415</ele>
        <time>2026-08-18T03:54:34.000Z</time>
      </trkpt>
      <trkpt lat="22.884091" lon="110.805729">
        <ele>126.978345</ele>
        <time>2026-08-18T03:54:35.000Z</time>
      </trkpt>
      <trkpt lat="22.884143" lon="110.805756">
        <ele>126.931825</ele>
        <time>2026-08-18T03:54:36.000Z</time>
      </trkpt>
      <trkpt lat="22.884193" lon="110.805784">
        <ele>126.886589</ele>
        <time>2026-08-18T03:54:37.000Z</time>
      </trkpt>
      <trkpt lat="22.884243" lon="110.805813">
        <ele>126.841778</ele>
        <time>2026-08-18T03:54:38.000Z</time>
      </trkpt>
      <trkpt lat="22.884292" lon="110.805839">
        <ele>126.798665</ele>
        <time>2026-08-18T03:54:39.000Z</time>
      </trkpt>
      <trkpt lat="22.884342" lon="110.805865">
        <ele>126.754841</ele>
        <time>2026-08-18T03:54:40.000Z</time>
      </trkpt>
      <trkpt lat="22.884391" lon="110.805894">
        <ele>126.710725</ele>
        <time>2026-08-18T03:54:41.000Z</time>
      </trkpt>
      <trkpt lat="22.884439" lon="110.805926">
        <ele>126.666198</ele>
        <time>2026-08-18T03:54:42.000Z</time>
      </trkpt>
      <trkpt lat="22.884484" lon="110.805956">
        <ele>126.624454</ele>
        <time>2026-08-18T03:54:43.000Z</time>
      </trkpt>
      <trkpt lat="22.884532" lon="110.805984">
        <ele>126.581380</ele>
        <time>2026-08-18T03:54:44.000Z</time>
      </trkpt>
      <trkpt lat="22.884582" lon="110.806011">
        <ele>126.537236</ele>
        <time>2026-08-18T03:54:45.000Z</time>
      </trkpt>
      <trkpt lat="22.884631" lon="110.806039">
        <ele>126.493464</ele>
        <time>2026-08-18T03:54:46.000Z</time>
      </trkpt>
      <trkpt lat="22.884681" lon="110.806066">
        <ele>126.449320</ele>
        <time>2026-08-18T03:54:47.000Z</time>
      </trkpt>
      <trkpt lat="22.884732" lon="110.806093">
        <ele>126.404468</ele>
        <time>2026-08-18T03:54:48.000Z</time>
      </trkpt>
      <trkpt lat="22.884783" lon="110.806121">
        <ele>126.359291</ele>
        <time>2026-08-18T03:54:49.000Z</time>
      </trkpt>
      <trkpt lat="22.884834" lon="110.806148">
        <ele>126.314438</ele>
        <time>2026-08-18T03:54:50.000Z</time>
      </trkpt>
      <trkpt lat="22.884885" lon="110.806174">
        <ele>126.269900</ele>
        <time>2026-08-18T03:54:51.000Z</time>
      </trkpt>
      <trkpt lat="22.884937" lon="110.806199">
        <ele>126.224944</ele>
        <time>2026-08-18T03:54:52.000Z</time>
      </trkpt>
      <trkpt lat="22.884988" lon="110.806223">
        <ele>126.181005</ele>
        <time>2026-08-18T03:54:53.000Z</time>
      </trkpt>
      <trkpt lat="22.885041" lon="110.806248">
        <ele>126.135326</ele>
        <time>2026-08-18T03:54:54.000Z</time>
      </trkpt>
      <trkpt lat="22.885093" lon="110.806274">
        <ele>126.090071</ele>
        <time>2026-08-18T03:54:55.000Z</time>
      </trkpt>
      <trkpt lat="22.885145" lon="110.806299">
        <ele>126.045116</ele>
        <time>2026-08-18T03:54:56.000Z</time>
      </trkpt>
      <trkpt lat="22.885199" lon="110.806326">
        <ele>125.998120</ele>
        <time>2026-08-18T03:54:57.000Z</time>
      </trkpt>
      <trkpt lat="22.885253" lon="110.806354">
        <ele>125.950815</ele>
        <time>2026-08-18T03:54:58.000Z</time>
      </trkpt>
      <trkpt lat="22.885306" lon="110.806381">
        <ele>125.904536</ele>
        <time>2026-08-18T03:54:59.000Z</time>
      </trkpt>
      <trkpt lat="22.885359" lon="110.806409">
        <ele>125.857943</ele>
        <time>2026-08-18T03:55:00.000Z</time>
      </trkpt>
      <trkpt lat="22.885412" lon="110.806437">
        <ele>125.811350</ele>
        <time>2026-08-18T03:55:01.000Z</time>
      </trkpt>
      <trkpt lat="22.885466" lon="110.806466">
        <ele>125.763727</ele>
        <time>2026-08-18T03:55:02.000Z</time>
      </trkpt>
      <trkpt lat="22.885519" lon="110.806495">
        <ele>125.716811</ele>
        <time>2026-08-18T03:55:03.000Z</time>
      </trkpt>
      <trkpt lat="22.885572" lon="110.806523">
        <ele>125.670218</ele>
        <time>2026-08-18T03:55:04.000Z</time>
      </trkpt>
      <trkpt lat="22.885626" lon="110.806550">
        <ele>125.623222</ele>
        <time>2026-08-18T03:55:05.000Z</time>
      </trkpt>
      <trkpt lat="22.885681" lon="110.806577">
        <ele>125.575508</ele>
        <time>2026-08-18T03:55:06.000Z</time>
      </trkpt>
      <trkpt lat="22.885734" lon="110.806605">
        <ele>125.528915</ele>
        <time>2026-08-18T03:55:07.000Z</time>
      </trkpt>
      <trkpt lat="22.885789" lon="110.806634">
        <ele>125.480582</ele>
        <time>2026-08-18T03:55:08.000Z</time>
      </trkpt>
      <trkpt lat="22.885844" lon="110.806664">
        <ele>125.375312</ele>
        <time>2026-08-18T03:55:09.000Z</time>
      </trkpt>
      <trkpt lat="22.885901" lon="110.806695">
        <ele>125.255383</ele>
        <time>2026-08-18T03:55:10.000Z</time>
      </trkpt>
      <trkpt lat="22.885958" lon="110.806726">
        <ele>125.135454</ele>
        <time>2026-08-18T03:55:11.000Z</time>
      </trkpt>
      <trkpt lat="22.886016" lon="110.806759">
        <ele>125.012270</ele>
        <time>2026-08-18T03:55:12.000Z</time>
      </trkpt>
      <trkpt lat="22.886073" lon="110.806789">
        <ele>124.893108</ele>
        <time>2026-08-18T03:55:13.000Z</time>
      </trkpt>
      <trkpt lat="22.886129" lon="110.806819">
        <ele>124.775635</ele>
        <time>2026-08-18T03:55:14.000Z</time>
      </trkpt>
      <trkpt lat="22.886184" lon="110.806849">
        <ele>124.659846</ele>
        <time>2026-08-18T03:55:15.000Z</time>
      </trkpt>
      <trkpt lat="22.886238" lon="110.806879">
        <ele>124.545735</ele>
        <time>2026-08-18T03:55:16.000Z</time>
      </trkpt>
      <trkpt lat="22.886292" lon="110.806909">
        <ele>124.431623</ele>
        <time>2026-08-18T03:55:17.000Z</time>
      </trkpt>
      <trkpt lat="22.886347" lon="110.806938">
        <ele>124.316602</ele>
        <time>2026-08-18T03:55:18.000Z</time>
      </trkpt>
      <trkpt lat="22.886403" lon="110.806969">
        <ele>124.198352</ele>
        <time>2026-08-18T03:55:19.000Z</time>
      </trkpt>
      <trkpt lat="22.886457" lon="110.807001">
        <ele>124.082620</ele>
        <time>2026-08-18T03:55:20.000Z</time>
      </trkpt>
      <trkpt lat="22.886511" lon="110.807031">
        <ele>123.968509</ele>
        <time>2026-08-18T03:55:21.000Z</time>
      </trkpt>
      <trkpt lat="22.886568" lon="110.807060">
        <ele>123.850092</ele>
        <time>2026-08-18T03:55:22.000Z</time>
      </trkpt>
      <trkpt lat="22.886625" lon="110.807089">
        <ele>123.731676</ele>
        <time>2026-08-18T03:55:23.000Z</time>
      </trkpt>
      <trkpt lat="22.886685" lon="110.807119">
        <ele>123.607411</ele>
        <time>2026-08-18T03:55:24.000Z</time>
      </trkpt>
      <trkpt lat="22.886744" lon="110.807151">
        <ele>123.483342</ele>
        <time>2026-08-18T03:55:25.000Z</time>
      </trkpt>
      <trkpt lat="22.886802" lon="110.807183">
        <ele>123.360953</ele>
        <time>2026-08-18T03:55:26.000Z</time>
      </trkpt>
      <trkpt lat="22.886863" lon="110.807214">
        <ele>123.234253</ele>
        <time>2026-08-18T03:55:27.000Z</time>
      </trkpt>
      <trkpt lat="22.886923" lon="110.807246">
        <ele>123.108498</ele>
        <time>2026-08-18T03:55:28.000Z</time>
      </trkpt>
      <trkpt lat="22.886984" lon="110.807279">
        <ele>122.980289</ele>
        <time>2026-08-18T03:55:29.000Z</time>
      </trkpt>
      <trkpt lat="22.887045" lon="110.807313">
        <ele>122.851298</ele>
        <time>2026-08-18T03:55:30.000Z</time>
      </trkpt>
      <trkpt lat="22.887108" lon="110.807347">
        <ele>122.718949</ele>
        <time>2026-08-18T03:55:31.000Z</time>
      </trkpt>
      <trkpt lat="22.887169" lon="110.807381">
        <ele>122.589958</ele>
        <time>2026-08-18T03:55:32.000Z</time>
      </trkpt>
      <trkpt lat="22.887232" lon="110.807414">
        <ele>122.458371</ele>
        <time>2026-08-18T03:55:33.000Z</time>
      </trkpt>
      <trkpt lat="22.887296" lon="110.807448">
        <ele>122.324335</ele>
        <time>2026-08-18T03:55:34.000Z</time>
      </trkpt>
      <trkpt lat="22.887362" lon="110.807482">
        <ele>122.186910</ele>
        <time>2026-08-18T03:55:35.000Z</time>
      </trkpt>
      <trkpt lat="22.887427" lon="110.807517">
        <ele>122.042912</ele>
        <time>2026-08-18T03:55:36.000Z</time>
      </trkpt>
      <trkpt lat="22.887492" lon="110.807552">
        <ele>121.880220</ele>
        <time>2026-08-18T03:55:37.000Z</time>
      </trkpt>
      <trkpt lat="22.887555" lon="110.807588">
        <ele>121.720581</ele>
        <time>2026-08-18T03:55:38.000Z</time>
      </trkpt>
      <trkpt lat="22.887620" lon="110.807624">
        <ele>121.556960</ele>
        <time>2026-08-18T03:55:39.000Z</time>
      </trkpt>
      <trkpt lat="22.887687" lon="110.807658">
        <ele>121.391124</ele>
        <time>2026-08-18T03:55:40.000Z</time>
      </trkpt>
      <trkpt lat="22.887754" lon="110.807692">
        <ele>121.225288</ele>
        <time>2026-08-18T03:55:41.000Z</time>
      </trkpt>
      <trkpt lat="22.887821" lon="110.807728">
        <ele>121.057660</ele>
        <time>2026-08-18T03:55:42.000Z</time>
      </trkpt>
      <trkpt lat="22.887889" lon="110.807765">
        <ele>120.887105</ele>
        <time>2026-08-18T03:55:43.000Z</time>
      </trkpt>
      <trkpt lat="22.887957" lon="110.807802">
        <ele>120.716549</ele>
        <time>2026-08-18T03:55:44.000Z</time>
      </trkpt>
      <trkpt lat="22.888026" lon="110.807838">
        <ele>120.544891</ele>
        <time>2026-08-18T03:55:45.000Z</time>
      </trkpt>
      <trkpt lat="22.888095" lon="110.807875">
        <ele>120.372328</ele>
        <time>2026-08-18T03:55:46.000Z</time>
      </trkpt>
      <trkpt lat="22.888165" lon="110.807911">
        <ele>120.198646</ele>
        <time>2026-08-18T03:55:47.000Z</time>
      </trkpt>
      <trkpt lat="22.888234" lon="110.807949">
        <ele>120.025159</ele>
        <time>2026-08-18T03:55:48.000Z</time>
      </trkpt>
      <trkpt lat="22.888303" lon="110.807986">
        <ele>119.852596</ele>
        <time>2026-08-18T03:55:49.000Z</time>
      </trkpt>
      <trkpt lat="22.888372" lon="110.808023">
        <ele>119.680033</ele>
        <time>2026-08-18T03:55:50.000Z</time>
      </trkpt>
      <trkpt lat="22.888441" lon="110.808061">
        <ele>119.506545</ele>
        <time>2026-08-18T03:55:51.000Z</time>
      </trkpt>
      <trkpt lat="22.888510" lon="110.808099">
        <ele>119.333057</ele>
        <time>2026-08-18T03:55:52.000Z</time>
      </trkpt>
      <trkpt lat="22.888581" lon="110.808137">
        <ele>119.155559</ele>
        <time>2026-08-18T03:55:53.000Z</time>
      </trkpt>
      <trkpt lat="22.888652" lon="110.808175">
        <ele>118.978060</ele>
        <time>2026-08-18T03:55:54.000Z</time>
      </trkpt>
      <trkpt lat="22.888722" lon="110.808214">
        <ele>118.801636</ele>
        <time>2026-08-18T03:55:55.000Z</time>
      </trkpt>
      <trkpt lat="22.888793" lon="110.808254">
        <ele>118.622273</ele>
        <time>2026-08-18T03:55:56.000Z</time>
      </trkpt>
      <trkpt lat="22.888863" lon="110.808293">
        <ele>118.445849</ele>
        <time>2026-08-18T03:55:57.000Z</time>
      </trkpt>
      <trkpt lat="22.888933" lon="110.808334">
        <ele>118.267501</ele>
        <time>2026-08-18T03:55:58.000Z</time>
      </trkpt>
      <trkpt lat="22.889001" lon="110.808376">
        <ele>118.092074</ele>
        <time>2026-08-18T03:55:59.000Z</time>
      </trkpt>
      <trkpt lat="22.889070" lon="110.808418">
        <ele>118.042436</ele>
        <time>2026-08-18T03:56:00.000Z</time>
      </trkpt>
      <trkpt lat="22.889136" lon="110.808460">
        <ele>118.025359</ele>
        <time>2026-08-18T03:56:01.000Z</time>
      </trkpt>
      <trkpt lat="22.889203" lon="110.808504">
        <ele>118.007879</ele>
        <time>2026-08-18T03:56:02.000Z</time>
      </trkpt>
      <trkpt lat="22.889268" lon="110.808547">
        <ele>117.990888</ele>
        <time>2026-08-18T03:56:03.000Z</time>
      </trkpt>
      <trkpt lat="22.889332" lon="110.808590">
        <ele>117.974087</ele>
        <time>2026-08-18T03:56:04.000Z</time>
      </trkpt>
      <trkpt lat="22.889394" lon="110.808633">
        <ele>117.957663</ele>
        <time>2026-08-18T03:56:05.000Z</time>
      </trkpt>
      <trkpt lat="22.889456" lon="110.808676">
        <ele>117.941240</ele>
        <time>2026-08-18T03:56:06.000Z</time>
      </trkpt>
      <trkpt lat="22.889518" lon="110.808719">
        <ele>117.924817</ele>
        <time>2026-08-18T03:56:07.000Z</time>
      </trkpt>
      <trkpt lat="22.889577" lon="110.808762">
        <ele>117.908954</ele>
        <time>2026-08-18T03:56:08.000Z</time>
      </trkpt>
      <trkpt lat="22.889636" lon="110.808805">
        <ele>117.893091</ele>
        <time>2026-08-18T03:56:09.000Z</time>
      </trkpt>
      <trkpt lat="22.889694" lon="110.808850">
        <ele>117.877177</ele>
        <time>2026-08-18T03:56:10.000Z</time>
      </trkpt>
      <trkpt lat="22.889750" lon="110.808893">
        <ele>117.861866</ele>
        <time>2026-08-18T03:56:11.000Z</time>
      </trkpt>
      <trkpt lat="22.889806" lon="110.808936">
        <ele>117.846554</ele>
        <time>2026-08-18T03:56:12.000Z</time>
      </trkpt>
      <trkpt lat="22.889861" lon="110.808978">
        <ele>117.831543</ele>
        <time>2026-08-18T03:56:13.000Z</time>
      </trkpt>
      <trkpt lat="22.889915" lon="110.809021">
        <ele>117.816594</ele>
        <time>2026-08-18T03:56:14.000Z</time>
      </trkpt>
      <trkpt lat="22.889966" lon="110.809063">
        <ele>117.802304</ele>
        <time>2026-08-18T03:56:15.000Z</time>
      </trkpt>
      <trkpt lat="22.890014" lon="110.809105">
        <ele>117.788542</ele>
        <time>2026-08-18T03:56:16.000Z</time>
      </trkpt>
      <trkpt lat="22.890061" lon="110.809146">
        <ele>117.775083</ele>
        <time>2026-08-18T03:56:17.000Z</time>
      </trkpt>
      <trkpt lat="22.890108" lon="110.809187">
        <ele>117.761624</ele>
        <time>2026-08-18T03:56:18.000Z</time>
      </trkpt>
      <trkpt lat="22.890155" lon="110.809227">
        <ele>117.748292</ele>
        <time>2026-08-18T03:56:19.000Z</time>
      </trkpt>
      <trkpt lat="22.890201" lon="110.809266">
        <ele>117.735263</ele>
        <time>2026-08-18T03:56:20.000Z</time>
      </trkpt>
      <trkpt lat="22.890247" lon="110.809307">
        <ele>117.721977</ele>
        <time>2026-08-18T03:56:21.000Z</time>
      </trkpt>
      <trkpt lat="22.890294" lon="110.809348">
        <ele>117.708518</ele>
        <time>2026-08-18T03:56:22.000Z</time>
      </trkpt>
      <trkpt lat="22.890340" lon="110.809390">
        <ele>117.695101</ele>
        <time>2026-08-18T03:56:23.000Z</time>
      </trkpt>
      <trkpt lat="22.890385" lon="110.809431">
        <ele>117.681986</ele>
        <time>2026-08-18T03:56:24.000Z</time>
      </trkpt>
      <trkpt lat="22.890430" lon="110.809470">
        <ele>117.669133</ele>
        <time>2026-08-18T03:56:25.000Z</time>
      </trkpt>
      <trkpt lat="22.890474" lon="110.809510">
        <ele>117.656322</ele>
        <time>2026-08-18T03:56:26.000Z</time>
      </trkpt>
      <trkpt lat="22.890516" lon="110.809551">
        <ele>117.698601</ele>
        <time>2026-08-18T03:56:27.000Z</time>
      </trkpt>
      <trkpt lat="22.890557" lon="110.809590">
        <ele>117.745242</ele>
        <time>2026-08-18T03:56:28.000Z</time>
      </trkpt>
      <trkpt lat="22.890598" lon="110.809631">
        <ele>117.792936</ele>
        <time>2026-08-18T03:56:29.000Z</time>
      </trkpt>
      <trkpt lat="22.890638" lon="110.809670">
        <ele>117.838937</ele>
        <time>2026-08-18T03:56:30.000Z</time>
      </trkpt>
      <trkpt lat="22.890678" lon="110.809707">
        <ele>117.883900</ele>
        <time>2026-08-18T03:56:31.000Z</time>
      </trkpt>
      <trkpt lat="22.890715" lon="110.809744">
        <ele>117.926942</ele>
        <time>2026-08-18T03:56:32.000Z</time>
      </trkpt>
      <trkpt lat="22.890752" lon="110.809781">
        <ele>117.969983</ele>
        <time>2026-08-18T03:56:33.000Z</time>
      </trkpt>
      <trkpt lat="22.890790" lon="110.809818">
        <ele>118.013658</ele>
        <time>2026-08-18T03:56:34.000Z</time>
      </trkpt>
      <trkpt lat="22.890828" lon="110.809853">
        <ele>118.056296</ele>
        <time>2026-08-18T03:56:35.000Z</time>
      </trkpt>
      <trkpt lat="22.890865" lon="110.809889">
        <ele>118.098807</ele>
        <time>2026-08-18T03:56:36.000Z</time>
      </trkpt>
      <trkpt lat="22.890901" lon="110.809927">
        <ele>118.141769</ele>
        <time>2026-08-18T03:56:37.000Z</time>
      </trkpt>
      <trkpt lat="22.890938" lon="110.809963">
        <ele>118.184281</ele>
        <time>2026-08-18T03:56:38.000Z</time>
      </trkpt>
      <trkpt lat="22.890973" lon="110.809997">
        <ele>118.224466</ele>
        <time>2026-08-18T03:56:39.000Z</time>
      </trkpt>
      <trkpt lat="22.891007" lon="110.810031">
        <ele>118.264017</ele>
        <time>2026-08-18T03:56:40.000Z</time>
      </trkpt>
      <trkpt lat="22.891042" lon="110.810067">
        <ele>118.305270</ele>
        <time>2026-08-18T03:56:41.000Z</time>
      </trkpt>
      <trkpt lat="22.891078" lon="110.810101">
        <ele>118.346097</ele>
        <time>2026-08-18T03:56:42.000Z</time>
      </trkpt>
      <trkpt lat="22.891114" lon="110.810136">
        <ele>118.387445</ele>
        <time>2026-08-18T03:56:43.000Z</time>
      </trkpt>
      <trkpt lat="22.891150" lon="110.810171">
        <ele>118.428793</ele>
        <time>2026-08-18T03:56:44.000Z</time>
      </trkpt>
      <trkpt lat="22.891185" lon="110.810205">
        <ele>118.468978</ele>
        <time>2026-08-18T03:56:45.000Z</time>
      </trkpt>
      <trkpt lat="22.891221" lon="110.810239">
        <ele>118.509805</ele>
        <time>2026-08-18T03:56:46.000Z</time>
      </trkpt>
      <trkpt lat="22.891257" lon="110.810276">
        <ele>118.552221</ele>
        <time>2026-08-18T03:56:47.000Z</time>
      </trkpt>
      <trkpt lat="22.891291" lon="110.810313">
        <ele>118.593412</ele>
        <time>2026-08-18T03:56:48.000Z</time>
      </trkpt>
      <trkpt lat="22.891326" lon="110.810352">
        <ele>118.636325</ele>
        <time>2026-08-18T03:56:49.000Z</time>
      </trkpt>
      <trkpt lat="22.891360" lon="110.810389">
        <ele>118.677516</ele>
        <time>2026-08-18T03:56:50.000Z</time>
      </trkpt>
      <trkpt lat="22.891395" lon="110.810428">
        <ele>118.720429</ele>
        <time>2026-08-18T03:56:51.000Z</time>
      </trkpt>
      <trkpt lat="22.891429" lon="110.810463">
        <ele>118.760519</ele>
        <time>2026-08-18T03:56:52.000Z</time>
      </trkpt>
      <trkpt lat="22.891462" lon="110.810498">
        <ele>118.799992</ele>
        <time>2026-08-18T03:56:53.000Z</time>
      </trkpt>
      <trkpt lat="22.891495" lon="110.810535">
        <ele>118.840583</ele>
        <time>2026-08-18T03:56:54.000Z</time>
      </trkpt>
      <trkpt lat="22.891529" lon="110.810570">
        <ele>118.880673</ele>
        <time>2026-08-18T03:56:55.000Z</time>
      </trkpt>
      <trkpt lat="22.891563" lon="110.810607">
        <ele>118.921863</ele>
        <time>2026-08-18T03:56:56.000Z</time>
      </trkpt>
      <trkpt lat="22.891600" lon="110.810644">
        <ele>118.964905</ele>
        <time>2026-08-18T03:56:57.000Z</time>
      </trkpt>
      <trkpt lat="22.891637" lon="110.810680">
        <ele>119.007416</ele>
        <time>2026-08-18T03:56:58.000Z</time>
      </trkpt>
      <trkpt lat="22.891672" lon="110.810718">
        <ele>119.049769</ele>
        <time>2026-08-18T03:56:59.000Z</time>
      </trkpt>
      <trkpt lat="22.891707" lon="110.810757">
        <ele>119.092682</ele>
        <time>2026-08-18T03:57:00.000Z</time>
      </trkpt>
      <trkpt lat="22.891743" lon="110.810793">
        <ele>119.134560</ele>
        <time>2026-08-18T03:57:01.000Z</time>
      </trkpt>
      <trkpt lat="22.891778" lon="110.810830">
        <ele>119.176359</ele>
        <time>2026-08-18T03:57:02.000Z</time>
      </trkpt>
      <trkpt lat="22.891813" lon="110.810868">
        <ele>119.213108</ele>
        <time>2026-08-18T03:57:03.000Z</time>
      </trkpt>
      <trkpt lat="22.891848" lon="110.810904">
        <ele>119.245035</ele>
        <time>2026-08-18T03:57:04.000Z</time>
      </trkpt>
      <trkpt lat="22.891883" lon="110.810940">
        <ele>119.276962</ele>
        <time>2026-08-18T03:57:05.000Z</time>
      </trkpt>
      <trkpt lat="22.891919" lon="110.810976">
        <ele>119.309373</ele>
        <time>2026-08-18T03:57:06.000Z</time>
      </trkpt>
      <trkpt lat="22.891956" lon="110.811012">
        <ele>119.342273</ele>
        <time>2026-08-18T03:57:07.000Z</time>
      </trkpt>
      <trkpt lat="22.891992" lon="110.811048">
        <ele>119.374684</ele>
        <time>2026-08-18T03:57:08.000Z</time>
      </trkpt>
      <trkpt lat="22.892027" lon="110.811085">
        <ele>119.407033</ele>
        <time>2026-08-18T03:57:09.000Z</time>
      </trkpt>
      <trkpt lat="22.892063" lon="110.811123">
        <ele>119.440283</ele>
        <time>2026-08-18T03:57:10.000Z</time>
      </trkpt>
      <trkpt lat="22.892098" lon="110.811161">
        <ele>119.473061</ele>
        <time>2026-08-18T03:57:11.000Z</time>
      </trkpt>
      <trkpt lat="22.892133" lon="110.811198">
        <ele>119.505410</ele>
        <time>2026-08-18T03:57:12.000Z</time>
      </trkpt>
      <trkpt lat="22.892169" lon="110.811233">
        <ele>119.537411</ele>
        <time>2026-08-18T03:57:13.000Z</time>
      </trkpt>
      <trkpt lat="22.892204" lon="110.811269">
        <ele>119.569337</ele>
        <time>2026-08-18T03:57:14.000Z</time>
      </trkpt>
      <trkpt lat="22.892238" lon="110.811304">
        <ele>119.600364</ele>
        <time>2026-08-18T03:57:15.000Z</time>
      </trkpt>
      <trkpt lat="22.892271" lon="110.811340">
        <ele>119.631343</ele>
        <time>2026-08-18T03:57:16.000Z</time>
      </trkpt>
      <trkpt lat="22.892306" lon="110.811376">
        <ele>119.663270</ele>
        <time>2026-08-18T03:57:17.000Z</time>
      </trkpt>
      <trkpt lat="22.892341" lon="110.811411">
        <ele>119.694780</ele>
        <time>2026-08-18T03:57:18.000Z</time>
      </trkpt>
      <trkpt lat="22.892376" lon="110.811446">
        <ele>119.726290</ele>
        <time>2026-08-18T03:57:19.000Z</time>
      </trkpt>
      <trkpt lat="22.892411" lon="110.811482">
        <ele>119.758217</ele>
        <time>2026-08-18T03:57:20.000Z</time>
      </trkpt>
      <trkpt lat="22.892448" lon="110.811518">
        <ele>119.791118</ele>
        <time>2026-08-18T03:57:21.000Z</time>
      </trkpt>
      <trkpt lat="22.892483" lon="110.811554">
        <ele>119.823045</ele>
        <time>2026-08-18T03:57:22.000Z</time>
      </trkpt>
      <trkpt lat="22.892517" lon="110.811590">
        <ele>119.854494</ele>
        <time>2026-08-18T03:57:23.000Z</time>
      </trkpt>
      <trkpt lat="22.892552" lon="110.811625">
        <ele>119.886004</ele>
        <time>2026-08-18T03:57:24.000Z</time>
      </trkpt>
      <trkpt lat="22.892586" lon="110.811661">
        <ele>119.917454</ele>
        <time>2026-08-18T03:57:25.000Z</time>
      </trkpt>
      <trkpt lat="22.892620" lon="110.811698">
        <ele>119.949332</ele>
        <time>2026-08-18T03:57:26.000Z</time>
      </trkpt>
      <trkpt lat="22.892654" lon="110.811734">
        <ele>119.980781</ele>
        <time>2026-08-18T03:57:27.000Z</time>
      </trkpt>
      <trkpt lat="22.892689" lon="110.811769">
        <ele>120.012292</ele>
        <time>2026-08-18T03:57:28.000Z</time>
      </trkpt>
      <trkpt lat="22.892721" lon="110.811804">
        <ele>120.042371</ele>
        <time>2026-08-18T03:57:29.000Z</time>
      </trkpt>
      <trkpt lat="22.892753" lon="110.811840">
        <ele>120.072887</ele>
        <time>2026-08-18T03:57:30.000Z</time>
      </trkpt>
      <trkpt lat="22.892786" lon="110.811875">
        <ele>120.103436</ele>
        <time>2026-08-18T03:57:31.000Z</time>
      </trkpt>
      <trkpt lat="22.892821" lon="110.811911">
        <ele>120.135363</ele>
        <time>2026-08-18T03:57:32.000Z</time>
      </trkpt>
      <trkpt lat="22.892854" lon="110.811946">
        <ele>120.165912</ele>
        <time>2026-08-18T03:57:33.000Z</time>
      </trkpt>
      <trkpt lat="22.892888" lon="110.811982">
        <ele>120.197362</ele>
        <time>2026-08-18T03:57:34.000Z</time>
      </trkpt>
      <trkpt lat="22.892922" lon="110.812018">
        <ele>120.228811</ele>
        <time>2026-08-18T03:57:35.000Z</time>
      </trkpt>
      <trkpt lat="22.892957" lon="110.812053">
        <ele>120.260321</ele>
        <time>2026-08-18T03:57:36.000Z</time>
      </trkpt>
      <trkpt lat="22.892990" lon="110.812089">
        <ele>120.291300</ele>
        <time>2026-08-18T03:57:37.000Z</time>
      </trkpt>
      <trkpt lat="22.893026" lon="110.812126">
        <ele>120.324127</ele>
        <time>2026-08-18T03:57:38.000Z</time>
      </trkpt>
      <trkpt lat="22.893061" lon="110.812162">
        <ele>120.356054</ele>
        <time>2026-08-18T03:57:39.000Z</time>
      </trkpt>
      <trkpt lat="22.893094" lon="110.812199">
        <ele>120.387606</ele>
        <time>2026-08-18T03:57:40.000Z</time>
      </trkpt>
      <trkpt lat="22.893127" lon="110.812234">
        <ele>120.419789</ele>
        <time>2026-08-18T03:57:41.000Z</time>
      </trkpt>
      <trkpt lat="22.893162" lon="110.812268">
        <ele>120.452553</ele>
        <time>2026-08-18T03:57:42.000Z</time>
      </trkpt>
      <trkpt lat="22.893196" lon="110.812303">
        <ele>120.485239</ele>
        <time>2026-08-18T03:57:43.000Z</time>
      </trkpt>
      <trkpt lat="22.893229" lon="110.812341">
        <ele>120.518798</ele>
        <time>2026-08-18T03:57:44.000Z</time>
      </trkpt>
      <trkpt lat="22.893260" lon="110.812379">
        <ele>120.551416</ele>
        <time>2026-08-18T03:57:45.000Z</time>
      </trkpt>
      <trkpt lat="22.893293" lon="110.812416">
        <ele>120.584511</ele>
        <time>2026-08-18T03:57:46.000Z</time>
      </trkpt>
      <trkpt lat="22.893326" lon="110.812451">
        <ele>120.616694</ele>
        <time>2026-08-18T03:57:47.000Z</time>
      </trkpt>
      <trkpt lat="22.893361" lon="110.812487">
        <ele>120.650329</ele>
        <time>2026-08-18T03:57:48.000Z</time>
      </trkpt>
      <trkpt lat="22.893396" lon="110.812523">
        <ele>120.683963</ele>
        <time>2026-08-18T03:57:49.000Z</time>
      </trkpt>
      <trkpt lat="22.893430" lon="110.812558">
        <ele>120.716649</ele>
        <time>2026-08-18T03:57:50.000Z</time>
      </trkpt>
      <trkpt lat="22.893465" lon="110.812594">
        <ele>120.750283</ele>
        <time>2026-08-18T03:57:51.000Z</time>
      </trkpt>
      <trkpt lat="22.893499" lon="110.812629">
        <ele>120.782970</ele>
        <time>2026-08-18T03:57:52.000Z</time>
      </trkpt>
      <trkpt lat="22.893534" lon="110.812662">
        <ele>120.815308</ele>
        <time>2026-08-18T03:57:53.000Z</time>
      </trkpt>
      <trkpt lat="22.893568" lon="110.812695">
        <ele>120.847124</ele>
        <time>2026-08-18T03:57:54.000Z</time>
      </trkpt>
      <trkpt lat="22.893603" lon="110.812729">
        <ele>120.879887</ele>
        <time>2026-08-18T03:57:55.000Z</time>
      </trkpt>
      <trkpt lat="22.893635" lon="110.812763">
        <ele>120.911123</ele>
        <time>2026-08-18T03:57:56.000Z</time>
      </trkpt>
      <trkpt lat="22.893667" lon="110.812795">
        <ele>120.941473</ele>
        <time>2026-08-18T03:57:57.000Z</time>
      </trkpt>
      <trkpt lat="22.893699" lon="110.812829">
        <ele>120.972708</ele>
        <time>2026-08-18T03:57:58.000Z</time>
      </trkpt>
      <trkpt lat="22.893732" lon="110.812865">
        <ele>121.005344</ele>
        <time>2026-08-18T03:57:59.000Z</time>
      </trkpt>
      <trkpt lat="22.893766" lon="110.812899">
        <ele>121.037591</ele>
        <time>2026-08-18T03:58:00.000Z</time>
      </trkpt>
      <trkpt lat="22.893800" lon="110.812933">
        <ele>121.069839</ele>
        <time>2026-08-18T03:58:01.000Z</time>
      </trkpt>
      <trkpt lat="22.893833" lon="110.812968">
        <ele>121.102022</ele>
        <time>2026-08-18T03:58:02.000Z</time>
      </trkpt>
      <trkpt lat="22.893866" lon="110.813002">
        <ele>121.133760</ele>
        <time>2026-08-18T03:58:03.000Z</time>
      </trkpt>
      <trkpt lat="22.893900" lon="110.813036">
        <ele>121.166007</ele>
        <time>2026-08-18T03:58:04.000Z</time>
      </trkpt>
      <trkpt lat="22.893933" lon="110.813070">
        <ele>121.197745</ele>
        <time>2026-08-18T03:58:05.000Z</time>
      </trkpt>
      <trkpt lat="22.893966" lon="110.813103">
        <ele>121.229043</ele>
        <time>2026-08-18T03:58:06.000Z</time>
      </trkpt>
      <trkpt lat="22.894000" lon="110.813136">
        <ele>121.260859</ele>
        <time>2026-08-18T03:58:07.000Z</time>
      </trkpt>
      <trkpt lat="22.894033" lon="110.813171">
        <ele>121.293042</ele>
        <time>2026-08-18T03:58:08.000Z</time>
      </trkpt>
      <trkpt lat="22.894066" lon="110.813206">
        <ele>121.325225</ele>
        <time>2026-08-18T03:58:09.000Z</time>
      </trkpt>
      <trkpt lat="22.894099" lon="110.813240">
        <ele>121.356963</ele>
        <time>2026-08-18T03:58:10.000Z</time>
      </trkpt>
      <trkpt lat="22.894133" lon="110.813274">
        <ele>121.389210</ele>
        <time>2026-08-18T03:58:11.000Z</time>
      </trkpt>
      <trkpt lat="22.894167" lon="110.813309">
        <ele>121.421896</ele>
        <time>2026-08-18T03:58:12.000Z</time>
      </trkpt>
      <trkpt lat="22.894201" lon="110.813344">
        <ele>121.454582</ele>
        <time>2026-08-18T03:58:13.000Z</time>
      </trkpt>
      <trkpt lat="22.894235" lon="110.813378">
        <ele>121.486829</ele>
        <time>2026-08-18T03:58:14.000Z</time>
      </trkpt>
      <trkpt lat="22.894268" lon="110.813413">
        <ele>121.519013</ele>
        <time>2026-08-18T03:58:15.000Z</time>
      </trkpt>
      <trkpt lat="22.894303" lon="110.813449">
        <ele>121.552647</ele>
        <time>2026-08-18T03:58:16.000Z</time>
      </trkpt>
      <trkpt lat="22.894337" lon="110.813483">
        <ele>121.584894</ele>
        <time>2026-08-18T03:58:17.000Z</time>
      </trkpt>
      <trkpt lat="22.894370" lon="110.813517">
        <ele>121.616632</ele>
        <time>2026-08-18T03:58:18.000Z</time>
      </trkpt>
      <trkpt lat="22.894404" lon="110.813551">
        <ele>121.640816</ele>
        <time>2026-08-18T03:58:19.000Z</time>
      </trkpt>
      <trkpt lat="22.894438" lon="110.813585">
        <ele>121.645157</ele>
        <time>2026-08-18T03:58:20.000Z</time>
      </trkpt>
      <trkpt lat="22.894472" lon="110.813618">
        <ele>121.649440</ele>
        <time>2026-08-18T03:58:21.000Z</time>
      </trkpt>
      <trkpt lat="22.894507" lon="110.813652">
        <ele>121.653851</ele>
        <time>2026-08-18T03:58:22.000Z</time>
      </trkpt>
      <trkpt lat="22.894541" lon="110.813684">
        <ele>121.658077</ele>
        <time>2026-08-18T03:58:23.000Z</time>
      </trkpt>
      <trkpt lat="22.894576" lon="110.813716">
        <ele>121.662375</ele>
        <time>2026-08-18T03:58:24.000Z</time>
      </trkpt>
      <trkpt lat="22.894609" lon="110.813749">
        <ele>121.666589</ele>
        <time>2026-08-18T03:58:25.000Z</time>
      </trkpt>
      <trkpt lat="22.894643" lon="110.813782">
        <ele>121.670872</ele>
        <time>2026-08-18T03:58:26.000Z</time>
      </trkpt>
      <trkpt lat="22.894679" lon="110.813814">
        <ele>121.675242</ele>
        <time>2026-08-18T03:58:27.000Z</time>
      </trkpt>
      <trkpt lat="22.894713" lon="110.813846">
        <ele>121.679468</ele>
        <time>2026-08-18T03:58:28.000Z</time>
      </trkpt>
      <trkpt lat="22.894749" lon="110.813878">
        <ele>121.683838</ele>
        <time>2026-08-18T03:58:29.000Z</time>
      </trkpt>
      <trkpt lat="22.894785" lon="110.813908">
        <ele>121.688100</ele>
        <time>2026-08-18T03:58:30.000Z</time>
      </trkpt>
      <trkpt lat="22.894820" lon="110.813938">
        <ele>121.692288</ele>
        <time>2026-08-18T03:58:31.000Z</time>
      </trkpt>
      <trkpt lat="22.894857" lon="110.813969">
        <ele>121.696678</ele>
        <time>2026-08-18T03:58:32.000Z</time>
      </trkpt>
      <trkpt lat="22.894893" lon="110.813999">
        <ele>121.700940</ele>
        <time>2026-08-18T03:58:33.000Z</time>
      </trkpt>
      <trkpt lat="22.894931" lon="110.814030">
        <ele>121.705404</ele>
        <time>2026-08-18T03:58:34.000Z</time>
      </trkpt>
      <trkpt lat="22.894967" lon="110.814062">
        <ele>121.709774</ele>
        <time>2026-08-18T03:58:35.000Z</time>
      </trkpt>
      <trkpt lat="22.895004" lon="110.814093">
        <ele>121.714163</ele>
        <time>2026-08-18T03:58:36.000Z</time>
      </trkpt>
      <trkpt lat="22.895041" lon="110.814125">
        <ele>121.718606</ele>
        <time>2026-08-18T03:58:37.000Z</time>
      </trkpt>
      <trkpt lat="22.895078" lon="110.814156">
        <ele>121.722996</ele>
        <time>2026-08-18T03:58:38.000Z</time>
      </trkpt>
      <trkpt lat="22.895116" lon="110.814186">
        <ele>121.727409</ele>
        <time>2026-08-18T03:58:39.000Z</time>
      </trkpt>
      <trkpt lat="22.895154" lon="110.814215">
        <ele>121.731771</ele>
        <time>2026-08-18T03:58:40.000Z</time>
      </trkpt>
      <trkpt lat="22.895191" lon="110.814244">
        <ele>121.736057</ele>
        <time>2026-08-18T03:58:41.000Z</time>
      </trkpt>
      <trkpt lat="22.895228" lon="110.814272">
        <ele>121.740293</ele>
        <time>2026-08-18T03:58:42.000Z</time>
      </trkpt>
      <trkpt lat="22.895265" lon="110.814300">
        <ele>121.744529</ele>
        <time>2026-08-18T03:58:43.000Z</time>
      </trkpt>
      <trkpt lat="22.895303" lon="110.814328">
        <ele>121.748842</ele>
        <time>2026-08-18T03:58:44.000Z</time>
      </trkpt>
      <trkpt lat="22.895341" lon="110.814355">
        <ele>121.753107</ele>
        <time>2026-08-18T03:58:45.000Z</time>
      </trkpt>
      <trkpt lat="22.895379" lon="110.814383">
        <ele>121.757420</ele>
        <time>2026-08-18T03:58:46.000Z</time>
      </trkpt>
      <trkpt lat="22.895417" lon="110.814410">
        <ele>121.761686</ele>
        <time>2026-08-18T03:58:47.000Z</time>
      </trkpt>
      <trkpt lat="22.895456" lon="110.814436">
        <ele>121.765984</ele>
        <time>2026-08-18T03:58:48.000Z</time>
      </trkpt>
      <trkpt lat="22.895495" lon="110.814462">
        <ele>121.770282</ele>
        <time>2026-08-18T03:58:49.000Z</time>
      </trkpt>
      <trkpt lat="22.895534" lon="110.814488">
        <ele>121.774580</ele>
        <time>2026-08-18T03:58:50.000Z</time>
      </trkpt>
      <trkpt lat="22.895575" lon="110.814515">
        <ele>121.779084</ele>
        <time>2026-08-18T03:58:51.000Z</time>
      </trkpt>
      <trkpt lat="22.895615" lon="110.814542">
        <ele>121.783507</ele>
        <time>2026-08-18T03:58:52.000Z</time>
      </trkpt>
      <trkpt lat="22.895657" lon="110.814568">
        <ele>121.788048</ele>
        <time>2026-08-18T03:58:53.000Z</time>
      </trkpt>
      <trkpt lat="22.895699" lon="110.814594">
        <ele>121.792589</ele>
        <time>2026-08-18T03:58:54.000Z</time>
      </trkpt>
      <trkpt lat="22.895741" lon="110.814619">
        <ele>121.797087</ele>
        <time>2026-08-18T03:58:55.000Z</time>
      </trkpt>
      <trkpt lat="22.895783" lon="110.814644">
        <ele>121.801586</ele>
        <time>2026-08-18T03:58:56.000Z</time>
      </trkpt>
      <trkpt lat="22.895828" lon="110.814669">
        <ele>121.806333</ele>
        <time>2026-08-18T03:58:57.000Z</time>
      </trkpt>
      <trkpt lat="22.895871" lon="110.814696">
        <ele>121.788537</ele>
        <time>2026-08-18T03:58:58.000Z</time>
      </trkpt>
      <trkpt lat="22.895913" lon="110.814723">
        <ele>121.752254</ele>
        <time>2026-08-18T03:58:59.000Z</time>
      </trkpt>
      <trkpt lat="22.895957" lon="110.814749">
        <ele>121.715016</ele>
        <time>2026-08-18T03:59:00.000Z</time>
      </trkpt>
      <trkpt lat="22.896001" lon="110.814775">
        <ele>121.677779</ele>
        <time>2026-08-18T03:59:01.000Z</time>
      </trkpt>
      <trkpt lat="22.896046" lon="110.814802">
        <ele>121.639560</ele>
        <time>2026-08-18T03:59:02.000Z</time>
      </trkpt>
      <trkpt lat="22.896092" lon="110.814827">
        <ele>121.601322</ele>
        <time>2026-08-18T03:59:03.000Z</time>
      </trkpt>
      <trkpt lat="22.896140" lon="110.814851">
        <ele>121.562040</ele>
        <time>2026-08-18T03:59:04.000Z</time>
      </trkpt>
      <trkpt lat="22.896187" lon="110.814875">
        <ele>121.523432</ele>
        <time>2026-08-18T03:59:05.000Z</time>
      </trkpt>
      <trkpt lat="22.896235" lon="110.814898">
        <ele>121.484432</ele>
        <time>2026-08-18T03:59:06.000Z</time>
      </trkpt>
      <trkpt lat="22.896282" lon="110.814921">
        <ele>121.446110</ele>
        <time>2026-08-18T03:59:07.000Z</time>
      </trkpt>
      <trkpt lat="22.896333" lon="110.814945">
        <ele>121.404793</ele>
        <time>2026-08-18T03:59:08.000Z</time>
      </trkpt>
      <trkpt lat="22.896381" lon="110.814970">
        <ele>121.365219</ele>
        <time>2026-08-18T03:59:09.000Z</time>
      </trkpt>
      <trkpt lat="22.896432" lon="110.814993">
        <ele>121.324169</ele>
        <time>2026-08-18T03:59:10.000Z</time>
      </trkpt>
      <trkpt lat="22.896482" lon="110.815018">
        <ele>121.283250</ele>
        <time>2026-08-18T03:59:11.000Z</time>
      </trkpt>
      <trkpt lat="22.896533" lon="110.815043">
        <ele>121.241656</ele>
        <time>2026-08-18T03:59:12.000Z</time>
      </trkpt>
      <trkpt lat="22.896582" lon="110.815068">
        <ele>121.201411</ele>
        <time>2026-08-18T03:59:13.000Z</time>
      </trkpt>
      <trkpt lat="22.896633" lon="110.815093">
        <ele>121.159816</ele>
        <time>2026-08-18T03:59:14.000Z</time>
      </trkpt>
      <trkpt lat="22.896685" lon="110.815118">
        <ele>121.117543</ele>
        <time>2026-08-18T03:59:15.000Z</time>
      </trkpt>
      <trkpt lat="22.896737" lon="110.815142">
        <ele>121.075542</ele>
        <time>2026-08-18T03:59:16.000Z</time>
      </trkpt>
      <trkpt lat="22.896789" lon="110.815168">
        <ele>121.032986</ele>
        <time>2026-08-18T03:59:17.000Z</time>
      </trkpt>
      <trkpt lat="22.896841" lon="110.815192">
        <ele>120.990986</ele>
        <time>2026-08-18T03:59:18.000Z</time>
      </trkpt>
      <trkpt lat="22.896893" lon="110.815216">
        <ele>120.948985</ele>
        <time>2026-08-18T03:59:19.000Z</time>
      </trkpt>
      <trkpt lat="22.896945" lon="110.815241">
        <ele>120.906711</ele>
        <time>2026-08-18T03:59:20.000Z</time>
      </trkpt>
      <trkpt lat="22.896998" lon="110.815266">
        <ele>120.863757</ele>
        <time>2026-08-18T03:59:21.000Z</time>
      </trkpt>
      <trkpt lat="22.897050" lon="110.815292">
        <ele>120.821202</ele>
        <time>2026-08-18T03:59:22.000Z</time>
      </trkpt>
      <trkpt lat="22.897103" lon="110.815318">
        <ele>120.777970</ele>
        <time>2026-08-18T03:59:23.000Z</time>
      </trkpt>
      <trkpt lat="22.897156" lon="110.815343">
        <ele>120.735016</ele>
        <time>2026-08-18T03:59:24.000Z</time>
      </trkpt>
      <trkpt lat="22.897209" lon="110.815367">
        <ele>120.692330</ele>
        <time>2026-08-18T03:59:25.000Z</time>
      </trkpt>
      <trkpt lat="22.897261" lon="110.815393">
        <ele>120.649775</ele>
        <time>2026-08-18T03:59:26.000Z</time>
      </trkpt>
      <trkpt lat="22.897313" lon="110.815417">
        <ele>120.607774</ele>
        <time>2026-08-18T03:59:27.000Z</time>
      </trkpt>
      <trkpt lat="22.897366" lon="110.815443">
        <ele>120.564543</ele>
        <time>2026-08-18T03:59:28.000Z</time>
      </trkpt>
      <trkpt lat="22.897419" lon="110.815470">
        <ele>120.521025</ele>
        <time>2026-08-18T03:59:29.000Z</time>
      </trkpt>
      <trkpt lat="22.897472" lon="110.815497">
        <ele>120.477507</ele>
        <time>2026-08-18T03:59:30.000Z</time>
      </trkpt>
      <trkpt lat="22.897526" lon="110.815524">
        <ele>120.429267</ele>
        <time>2026-08-18T03:59:31.000Z</time>
      </trkpt>
      <trkpt lat="22.897579" lon="110.815552">
        <ele>120.380813</ele>
        <time>2026-08-18T03:59:32.000Z</time>
      </trkpt>
      <trkpt lat="22.897633" lon="110.815580">
        <ele>120.331618</ele>
        <time>2026-08-18T03:59:33.000Z</time>
      </trkpt>
      <trkpt lat="22.897685" lon="110.815609">
        <ele>120.283560</ele>
        <time>2026-08-18T03:59:34.000Z</time>
      </trkpt>
      <trkpt lat="22.897738" lon="110.815642">
        <ele>120.233333</ele>
        <time>2026-08-18T03:59:35.000Z</time>
      </trkpt>
      <trkpt lat="22.897792" lon="110.815673">
        <ele>120.183117</ele>
        <time>2026-08-18T03:59:36.000Z</time>
      </trkpt>
      <trkpt lat="22.897848" lon="110.815705">
        <ele>120.131094</ele>
        <time>2026-08-18T03:59:37.000Z</time>
      </trkpt>
      <trkpt lat="22.897901" lon="110.815738">
        <ele>120.080867</ele>
        <time>2026-08-18T03:59:38.000Z</time>
      </trkpt>
      <trkpt lat="22.897954" lon="110.815774">
        <ele>120.029472</ele>
        <time>2026-08-18T03:59:39.000Z</time>
      </trkpt>
      <trkpt lat="22.898007" lon="110.815811">
        <ele>119.977671</ele>
        <time>2026-08-18T03:59:40.000Z</time>
      </trkpt>
      <trkpt lat="22.898061" lon="110.815850">
        <ele>119.924353</ele>
        <time>2026-08-18T03:59:41.000Z</time>
      </trkpt>
      <trkpt lat="22.898116" lon="110.815887">
        <ele>119.871163</ele>
        <time>2026-08-18T03:59:42.000Z</time>
      </trkpt>
      <trkpt lat="22.898168" lon="110.815927">
        <ele>119.818772</ele>
        <time>2026-08-18T03:59:43.000Z</time>
      </trkpt>
      <trkpt lat="22.898218" lon="110.815967">
        <ele>119.767713</ele>
        <time>2026-08-18T03:59:44.000Z</time>
      </trkpt>
      <trkpt lat="22.898267" lon="110.816010">
        <ele>119.715917</ele>
        <time>2026-08-18T03:59:45.000Z</time>
      </trkpt>
      <trkpt lat="22.898315" lon="110.816051">
        <ele>119.665708</ele>
        <time>2026-08-18T03:59:46.000Z</time>
      </trkpt>
      <trkpt lat="22.898362" lon="110.816095">
        <ele>119.614688</ele>
        <time>2026-08-18T03:59:47.000Z</time>
      </trkpt>
      <trkpt lat="22.898411" lon="110.816136">
        <ele>119.563831</ele>
        <time>2026-08-18T03:59:48.000Z</time>
      </trkpt>
      <trkpt lat="22.898458" lon="110.816180">
        <ele>119.512811</ele>
        <time>2026-08-18T03:59:49.000Z</time>
      </trkpt>
      <trkpt lat="22.898503" lon="110.816224">
        <ele>119.463025</ele>
        <time>2026-08-18T03:59:50.000Z</time>
      </trkpt>
      <trkpt lat="22.898548" lon="110.816269">
        <ele>119.412729</ele>
        <time>2026-08-18T03:59:51.000Z</time>
      </trkpt>
      <trkpt lat="22.898591" lon="110.816316">
        <ele>119.362567</ele>
        <time>2026-08-18T03:59:52.000Z</time>
      </trkpt>
      <trkpt lat="22.898634" lon="110.816364">
        <ele>119.311864</ele>
        <time>2026-08-18T03:59:53.000Z</time>
      </trkpt>
      <trkpt lat="22.898676" lon="110.816412">
        <ele>119.261731</ele>
        <time>2026-08-18T03:59:54.000Z</time>
      </trkpt>
      <trkpt lat="22.898719" lon="110.816461">
        <ele>119.210483</ele>
        <time>2026-08-18T03:59:55.000Z</time>
      </trkpt>
      <trkpt lat="22.898759" lon="110.816511">
        <ele>119.160335</ele>
        <time>2026-08-18T03:59:56.000Z</time>
      </trkpt>
      <trkpt lat="22.898798" lon="110.816563">
        <ele>119.109556</ele>
        <time>2026-08-18T03:59:57.000Z</time>
      </trkpt>
      <trkpt lat="22.898837" lon="110.816615">
        <ele>119.058777</ele>
        <time>2026-08-18T03:59:58.000Z</time>
      </trkpt>
      <trkpt lat="22.898876" lon="110.816668">
        <ele>119.007409</ele>
        <time>2026-08-18T03:59:59.000Z</time>
      </trkpt>
      <trkpt lat="22.898912" lon="110.816722">
        <ele>118.953708</ele>
        <time>2026-08-18T04:00:00.000Z</time>
      </trkpt>
      <trkpt lat="22.898947" lon="110.816777">
        <ele>118.898556</ele>
        <time>2026-08-18T04:00:01.000Z</time>
      </trkpt>
      <trkpt lat="22.898982" lon="110.816832">
        <ele>118.843404</ele>
        <time>2026-08-18T04:00:02.000Z</time>
      </trkpt>
      <trkpt lat="22.899016" lon="110.816890">
        <ele>118.786683</ele>
        <time>2026-08-18T04:00:03.000Z</time>
      </trkpt>
      <trkpt lat="22.899050" lon="110.816944">
        <ele>118.732718</ele>
        <time>2026-08-18T04:00:04.000Z</time>
      </trkpt>
      <trkpt lat="22.899087" lon="110.816995">
        <ele>118.679159</ele>
        <time>2026-08-18T04:00:05.000Z</time>
      </trkpt>
      <trkpt lat="22.899125" lon="110.817048">
        <ele>118.623747</ele>
        <time>2026-08-18T04:00:06.000Z</time>
      </trkpt>
      <trkpt lat="22.899159" lon="110.817103">
        <ele>118.569099</ele>
        <time>2026-08-18T04:00:07.000Z</time>
      </trkpt>
      <trkpt lat="22.899194" lon="110.817160">
        <ele>118.512582</ele>
        <time>2026-08-18T04:00:08.000Z</time>
      </trkpt>
      <trkpt lat="22.899227" lon="110.817218">
        <ele>118.456337</ele>
        <time>2026-08-18T04:00:09.000Z</time>
      </trkpt>
      <trkpt lat="22.899260" lon="110.817278">
        <ele>118.398682</ele>
        <time>2026-08-18T04:00:10.000Z</time>
      </trkpt>
      <trkpt lat="22.899290" lon="110.817340">
        <ele>118.340902</ele>
        <time>2026-08-18T04:00:11.000Z</time>
      </trkpt>
      <trkpt lat="22.899320" lon="110.817402">
        <ele>118.283122</ele>
        <time>2026-08-18T04:00:12.000Z</time>
      </trkpt>
      <trkpt lat="22.899350" lon="110.817464">
        <ele>118.225342</ele>
        <time>2026-08-18T04:00:13.000Z</time>
      </trkpt>
      <trkpt lat="22.899378" lon="110.817525">
        <ele>118.169112</ele>
        <time>2026-08-18T04:00:14.000Z</time>
      </trkpt>
      <trkpt lat="22.899408" lon="110.817587">
        <ele>118.111332</ele>
        <time>2026-08-18T04:00:15.000Z</time>
      </trkpt>
      <trkpt lat="22.899438" lon="110.817649">
        <ele>118.053552</ele>
        <time>2026-08-18T04:00:16.000Z</time>
      </trkpt>
      <trkpt lat="22.899467" lon="110.817711">
        <ele>117.996183</ele>
        <time>2026-08-18T04:00:17.000Z</time>
      </trkpt>
      <trkpt lat="22.899497" lon="110.817773">
        <ele>117.938402</ele>
        <time>2026-08-18T04:00:18.000Z</time>
      </trkpt>
      <trkpt lat="22.899525" lon="110.817836">
        <ele>117.880691</ele>
        <time>2026-08-18T04:00:19.000Z</time>
      </trkpt>
      <trkpt lat="22.899553" lon="110.817898">
        <ele>117.823722</ele>
        <time>2026-08-18T04:00:20.000Z</time>
      </trkpt>
      <trkpt lat="22.899582" lon="110.817962">
        <ele>117.764877</ele>
        <time>2026-08-18T04:00:21.000Z</time>
      </trkpt>
      <trkpt lat="22.899611" lon="110.818026">
        <ele>117.706032</ele>
        <time>2026-08-18T04:00:22.000Z</time>
      </trkpt>
      <trkpt lat="22.899639" lon="110.818089">
        <ele>117.648320</ele>
        <time>2026-08-18T04:00:23.000Z</time>
      </trkpt>
      <trkpt lat="22.899668" lon="110.818151">
        <ele>117.590951</ele>
        <time>2026-08-18T04:00:24.000Z</time>
      </trkpt>
      <trkpt lat="22.899698" lon="110.818213">
        <ele>117.533171</ele>
        <time>2026-08-18T04:00:25.000Z</time>
      </trkpt>
      <trkpt lat="22.899727" lon="110.818275">
        <ele>117.475802</ele>
        <time>2026-08-18T04:00:26.000Z</time>
      </trkpt>
      <trkpt lat="22.899756" lon="110.818338">
        <ele>117.417696</ele>
        <time>2026-08-18T04:00:27.000Z</time>
      </trkpt>
      <trkpt lat="22.899785" lon="110.818400">
        <ele>117.387972</ele>
        <time>2026-08-18T04:00:28.000Z</time>
      </trkpt>
      <trkpt lat="22.899813" lon="110.818461">
        <ele>117.403377</ele>
        <time>2026-08-18T04:00:29.000Z</time>
      </trkpt>
      <trkpt lat="22.899844" lon="110.818520">
        <ele>117.418729</ele>
        <time>2026-08-18T04:00:30.000Z</time>
      </trkpt>
      <trkpt lat="22.899872" lon="110.818579">
        <ele>117.433731</ele>
        <time>2026-08-18T04:00:31.000Z</time>
      </trkpt>
      <trkpt lat="22.899901" lon="110.818637">
        <ele>117.448647</ele>
        <time>2026-08-18T04:00:32.000Z</time>
      </trkpt>
      <trkpt lat="22.899931" lon="110.818693">
        <ele>117.463290</ele>
        <time>2026-08-18T04:00:33.000Z</time>
      </trkpt>
      <trkpt lat="22.899961" lon="110.818748">
        <ele>117.477737</ele>
        <time>2026-08-18T04:00:34.000Z</time>
      </trkpt>
      <trkpt lat="22.899991" lon="110.818803">
        <ele>117.492185</ele>
        <time>2026-08-18T04:00:35.000Z</time>
      </trkpt>
      <trkpt lat="22.900020" lon="110.818858">
        <ele>117.506509</ele>
        <time>2026-08-18T04:00:36.000Z</time>
      </trkpt>
      <trkpt lat="22.900050" lon="110.818910">
        <ele>117.520377</ele>
        <time>2026-08-18T04:00:37.000Z</time>
      </trkpt>
      <trkpt lat="22.900080" lon="110.818962">
        <ele>117.534245</ele>
        <time>2026-08-18T04:00:38.000Z</time>
      </trkpt>
      <trkpt lat="22.900112" lon="110.819012">
        <ele>117.548006</ele>
        <time>2026-08-18T04:00:39.000Z</time>
      </trkpt>
      <trkpt lat="22.900143" lon="110.819061">
        <ele>117.561442</ele>
        <time>2026-08-18T04:00:40.000Z</time>
      </trkpt>
      <trkpt lat="22.900175" lon="110.819108">
        <ele>117.574652</ele>
        <time>2026-08-18T04:00:41.000Z</time>
      </trkpt>
      <trkpt lat="22.900206" lon="110.819154">
        <ele>117.587535</ele>
        <time>2026-08-18T04:00:42.000Z</time>
      </trkpt>
      <trkpt lat="22.900239" lon="110.819200">
        <ele>117.600713</ele>
        <time>2026-08-18T04:00:43.000Z</time>
      </trkpt>
      <trkpt lat="22.900272" lon="110.819243">
        <ele>117.613364</ele>
        <time>2026-08-18T04:00:44.000Z</time>
      </trkpt>
      <trkpt lat="22.900305" lon="110.819286">
        <ele>117.626014</ele>
        <time>2026-08-18T04:00:45.000Z</time>
      </trkpt>
      <trkpt lat="22.900338" lon="110.819329">
        <ele>117.638664</ele>
        <time>2026-08-18T04:00:46.000Z</time>
      </trkpt>
      <trkpt lat="22.900371" lon="110.819371">
        <ele>117.651141</ele>
        <time>2026-08-18T04:00:47.000Z</time>
      </trkpt>
      <trkpt lat="22.900405" lon="110.819411">
        <ele>117.663443</ele>
        <time>2026-08-18T04:00:48.000Z</time>
      </trkpt>
      <trkpt lat="22.900440" lon="110.819450">
        <ele>117.675750</ele>
        <time>2026-08-18T04:00:49.000Z</time>
      </trkpt>
      <trkpt lat="22.900474" lon="110.819488">
        <ele>117.687724</ele>
        <time>2026-08-18T04:00:50.000Z</time>
      </trkpt>
      <trkpt lat="22.900508" lon="110.819526">
        <ele>117.699697</ele>
        <time>2026-08-18T04:00:51.000Z</time>
      </trkpt>
      <trkpt lat="22.900542" lon="110.819565">
        <ele>117.711834</ele>
        <time>2026-08-18T04:00:52.000Z</time>
      </trkpt>
      <trkpt lat="22.900577" lon="110.819603">
        <ele>117.723980</ele>
        <time>2026-08-18T04:00:53.000Z</time>
      </trkpt>
      <trkpt lat="22.900613" lon="110.819641">
        <ele>117.736301</ele>
        <time>2026-08-18T04:00:54.000Z</time>
      </trkpt>
      <trkpt lat="22.900649" lon="110.819678">
        <ele>117.748465</ele>
        <time>2026-08-18T04:00:55.000Z</time>
      </trkpt>
      <trkpt lat="22.900685" lon="110.819713">
        <ele>117.760323</ele>
        <time>2026-08-18T04:00:56.000Z</time>
      </trkpt>
      <trkpt lat="22.900723" lon="110.819749">
        <ele>117.772698</ele>
        <time>2026-08-18T04:00:57.000Z</time>
      </trkpt>
      <trkpt lat="22.900761" lon="110.819784">
        <ele>117.784926</ele>
        <time>2026-08-18T04:00:58.000Z</time>
      </trkpt>
      <trkpt lat="22.900799" lon="110.819817">
        <ele>117.796866</ele>
        <time>2026-08-18T04:00:59.000Z</time>
      </trkpt>
      <trkpt lat="22.900836" lon="110.819851">
        <ele>117.808761</ele>
        <time>2026-08-18T04:01:00.000Z</time>
      </trkpt>
      <trkpt lat="22.900874" lon="110.819883">
        <ele>117.820561</ele>
        <time>2026-08-18T04:01:01.000Z</time>
      </trkpt>
      <trkpt lat="22.900912" lon="110.819914">
        <ele>117.867182</ele>
        <time>2026-08-18T04:01:02.000Z</time>
      </trkpt>
      <trkpt lat="22.900951" lon="110.819945">
        <ele>117.925793</ele>
        <time>2026-08-18T04:01:03.000Z</time>
      </trkpt>
      <trkpt lat="22.900990" lon="110.819975">
        <ele>117.983752</ele>
        <time>2026-08-18T04:01:04.000Z</time>
      </trkpt>
      <trkpt lat="22.901030" lon="110.820004">
        <ele>118.042076</ele>
        <time>2026-08-18T04:01:05.000Z</time>
      </trkpt>
      <trkpt lat="22.901069" lon="110.820034">
        <ele>118.100034</ele>
        <time>2026-08-18T04:01:06.000Z</time>
      </trkpt>
      <trkpt lat="22.901108" lon="110.820062">
        <ele>118.156730</ele>
        <time>2026-08-18T04:01:07.000Z</time>
      </trkpt>
      <trkpt lat="22.901147" lon="110.820091">
        <ele>118.214050</ele>
        <time>2026-08-18T04:01:08.000Z</time>
      </trkpt>
      <trkpt lat="22.901186" lon="110.820118">
        <ele>118.270138</ele>
        <time>2026-08-18T04:01:09.000Z</time>
      </trkpt>
      <trkpt lat="22.901226" lon="110.820144">
        <ele>118.326669</ele>
        <time>2026-08-18T04:01:10.000Z</time>
      </trkpt>
      <trkpt lat="22.901267" lon="110.820170">
        <ele>118.384245</ele>
        <time>2026-08-18T04:01:11.000Z</time>
      </trkpt>
      <trkpt lat="22.901308" lon="110.820195">
        <ele>118.441265</ele>
        <time>2026-08-18T04:01:12.000Z</time>
      </trkpt>
      <trkpt lat="22.901350" lon="110.820223">
        <ele>118.501029</ele>
        <time>2026-08-18T04:01:13.000Z</time>
      </trkpt>
      <trkpt lat="22.901391" lon="110.820249">
        <ele>118.558604</ele>
        <time>2026-08-18T04:01:14.000Z</time>
      </trkpt>
      <trkpt lat="22.901434" lon="110.820273">
        <ele>118.617232</ele>
        <time>2026-08-18T04:01:15.000Z</time>
      </trkpt>
      <trkpt lat="22.901477" lon="110.820299">
        <ele>118.676914</ele>
        <time>2026-08-18T04:01:16.000Z</time>
      </trkpt>
      <trkpt lat="22.901521" lon="110.820325">
        <ele>118.737658</ele>
        <time>2026-08-18T04:01:17.000Z</time>
      </trkpt>
      <trkpt lat="22.901565" lon="110.820349">
        <ele>118.797367</ele>
        <time>2026-08-18T04:01:18.000Z</time>
      </trkpt>
      <trkpt lat="22.901610" lon="110.820372">
        <ele>118.857677</ele>
        <time>2026-08-18T04:01:19.000Z</time>
      </trkpt>
      <trkpt lat="22.901655" lon="110.820394">
        <ele>118.917519</ele>
        <time>2026-08-18T04:01:20.000Z</time>
      </trkpt>
      <trkpt lat="22.901700" lon="110.820415">
        <ele>118.976912</ele>
        <time>2026-08-18T04:01:21.000Z</time>
      </trkpt>
      <trkpt lat="22.901745" lon="110.820435">
        <ele>119.035873</ele>
        <time>2026-08-18T04:01:22.000Z</time>
      </trkpt>
      <trkpt lat="22.901789" lon="110.820458">
        <ele>119.095088</ele>
        <time>2026-08-18T04:01:23.000Z</time>
      </trkpt>
      <trkpt lat="22.901833" lon="110.820480">
        <ele>119.153828</ele>
        <time>2026-08-18T04:01:24.000Z</time>
      </trkpt>
      <trkpt lat="22.901878" lon="110.820500">
        <ele>119.212788</ele>
        <time>2026-08-18T04:01:25.000Z</time>
      </trkpt>
      <trkpt lat="22.901921" lon="110.820522">
        <ele>119.270429</ele>
        <time>2026-08-18T04:01:26.000Z</time>
      </trkpt>
      <trkpt lat="22.901964" lon="110.820542">
        <ele>119.327153</ele>
        <time>2026-08-18T04:01:27.000Z</time>
      </trkpt>
      <trkpt lat="22.902006" lon="110.820561">
        <ele>119.382325</ele>
        <time>2026-08-18T04:01:28.000Z</time>
      </trkpt>
      <trkpt lat="22.902048" lon="110.820580">
        <ele>119.437497</ele>
        <time>2026-08-18T04:01:29.000Z</time>
      </trkpt>
      <trkpt lat="22.902090" lon="110.820601">
        <ele>119.493566</ele>
        <time>2026-08-18T04:01:30.000Z</time>
      </trkpt>
      <trkpt lat="22.902130" lon="110.820620">
        <ele>119.546508</ele>
        <time>2026-08-18T04:01:31.000Z</time>
      </trkpt>
      <trkpt lat="22.902170" lon="110.820637">
        <ele>119.598595</ele>
        <time>2026-08-18T04:01:32.000Z</time>
      </trkpt>
      <trkpt lat="22.902211" lon="110.820654">
        <ele>119.651812</ele>
        <time>2026-08-18T04:01:33.000Z</time>
      </trkpt>
      <trkpt lat="22.902249" lon="110.820671">
        <ele>119.701648</ele>
        <time>2026-08-18T04:01:34.000Z</time>
      </trkpt>
      <trkpt lat="22.902285" lon="110.820688">
        <ele>119.749251</ele>
        <time>2026-08-18T04:01:35.000Z</time>
      </trkpt>
      <trkpt lat="22.902321" lon="110.820704">
        <ele>119.796420</ele>
        <time>2026-08-18T04:01:36.000Z</time>
      </trkpt>
      <trkpt lat="22.902356" lon="110.820721">
        <ele>119.842913</ele>
        <time>2026-08-18T04:01:37.000Z</time>
      </trkpt>
      <trkpt lat="22.902392" lon="110.820737">
        <ele>119.890082</ele>
        <time>2026-08-18T04:01:38.000Z</time>
      </trkpt>
      <trkpt lat="22.902429" lon="110.820751">
        <ele>119.937593</ele>
        <time>2026-08-18T04:01:39.000Z</time>
      </trkpt>
      <trkpt lat="22.902467" lon="110.820767">
        <ele>119.987015</ele>
        <time>2026-08-18T04:01:40.000Z</time>
      </trkpt>
      <trkpt lat="22.902503" lon="110.820784">
        <ele>120.040929</ele>
        <time>2026-08-18T04:01:41.000Z</time>
      </trkpt>
      <trkpt lat="22.902541" lon="110.820797">
        <ele>120.099298</ele>
        <time>2026-08-18T04:01:42.000Z</time>
      </trkpt>
      <trkpt lat="22.902580" lon="110.820811">
        <ele>120.159475</ele>
        <time>2026-08-18T04:01:43.000Z</time>
      </trkpt>
      <trkpt lat="22.902617" lon="110.820826">
        <ele>120.217337</ele>
        <time>2026-08-18T04:01:44.000Z</time>
      </trkpt>
      <trkpt lat="22.902654" lon="110.820841">
        <ele>120.275198</ele>
        <time>2026-08-18T04:01:45.000Z</time>
      </trkpt>
      <trkpt lat="22.902690" lon="110.820858">
        <ele>120.332712</ele>
        <time>2026-08-18T04:01:46.000Z</time>
      </trkpt>
      <trkpt lat="22.902726" lon="110.820875">
        <ele>120.390225</ele>
        <time>2026-08-18T04:01:47.000Z</time>
      </trkpt>
      <trkpt lat="22.902764" lon="110.820891">
        <ele>120.449936</ele>
        <time>2026-08-18T04:01:48.000Z</time>
      </trkpt>
      <trkpt lat="22.902800" lon="110.820908">
        <ele>120.507449</ele>
        <time>2026-08-18T04:01:49.000Z</time>
      </trkpt>
      <trkpt lat="22.902837" lon="110.820923">
        <ele>120.565311</ele>
        <time>2026-08-18T04:01:50.000Z</time>
      </trkpt>
      <trkpt lat="22.902872" lon="110.820940">
        <ele>120.621484</ele>
        <time>2026-08-18T04:01:51.000Z</time>
      </trkpt>
      <trkpt lat="22.902908" lon="110.820957">
        <ele>120.678997</ele>
        <time>2026-08-18T04:01:52.000Z</time>
      </trkpt>
      <trkpt lat="22.902943" lon="110.820974">
        <ele>120.735170</ele>
        <time>2026-08-18T04:01:53.000Z</time>
      </trkpt>
      <trkpt lat="22.902979" lon="110.820991">
        <ele>120.792684</ele>
        <time>2026-08-18T04:01:54.000Z</time>
      </trkpt>
      <trkpt lat="22.903017" lon="110.821006">
        <ele>120.851920</ele>
        <time>2026-08-18T04:01:55.000Z</time>
      </trkpt>
      <trkpt lat="22.903054" lon="110.821022">
        <ele>120.910267</ele>
        <time>2026-08-18T04:01:56.000Z</time>
      </trkpt>
      <trkpt lat="22.903093" lon="110.821039">
        <ele>120.971836</ele>
        <time>2026-08-18T04:01:57.000Z</time>
      </trkpt>
      <trkpt lat="22.903131" lon="110.821054">
        <ele>121.031072</ele>
        <time>2026-08-18T04:01:58.000Z</time>
      </trkpt>
      <trkpt lat="22.903169" lon="110.821070">
        <ele>121.090782</ele>
        <time>2026-08-18T04:01:59.000Z</time>
      </trkpt>
      <trkpt lat="22.903206" lon="110.821087">
        <ele>121.149642</ele>
        <time>2026-08-18T04:02:00.000Z</time>
      </trkpt>
      <trkpt lat="22.903243" lon="110.821103">
        <ele>121.207989</ele>
        <time>2026-08-18T04:02:01.000Z</time>
      </trkpt>
      <trkpt lat="22.903280" lon="110.821120">
        <ele>121.266849</ele>
        <time>2026-08-18T04:02:02.000Z</time>
      </trkpt>
      <trkpt lat="22.903316" lon="110.821137">
        <ele>121.324362</ele>
        <time>2026-08-18T04:02:03.000Z</time>
      </trkpt>
      <trkpt lat="22.903353" lon="110.821154">
        <ele>121.383222</ele>
        <time>2026-08-18T04:02:04.000Z</time>
      </trkpt>
      <trkpt lat="22.903390" lon="110.821172">
        <ele>121.442621</ele>
        <time>2026-08-18T04:02:05.000Z</time>
      </trkpt>
      <trkpt lat="22.903427" lon="110.821189">
        <ele>121.501481</ele>
        <time>2026-08-18T04:02:06.000Z</time>
      </trkpt>
      <trkpt lat="22.903464" lon="110.821207">
        <ele>121.560880</ele>
        <time>2026-08-18T04:02:07.000Z</time>
      </trkpt>
      <trkpt lat="22.903500" lon="110.821226">
        <ele>121.619522</ele>
        <time>2026-08-18T04:02:08.000Z</time>
      </trkpt>
      <trkpt lat="22.903537" lon="110.821244">
        <ele>121.678921</ele>
        <time>2026-08-18T04:02:09.000Z</time>
      </trkpt>
      <trkpt lat="22.903574" lon="110.821262">
        <ele>121.738320</ele>
        <time>2026-08-18T04:02:10.000Z</time>
      </trkpt>
      <trkpt lat="22.903611" lon="110.821279">
        <ele>121.797180</ele>
        <time>2026-08-18T04:02:11.000Z</time>
      </trkpt>
      <trkpt lat="22.903647" lon="110.821297">
        <ele>121.855245</ele>
        <time>2026-08-18T04:02:12.000Z</time>
      </trkpt>
      <trkpt lat="22.903684" lon="110.821316">
        <ele>121.915208</ele>
        <time>2026-08-18T04:02:13.000Z</time>
      </trkpt>
      <trkpt lat="22.903719" lon="110.821335">
        <ele>121.972536</ele>
        <time>2026-08-18T04:02:14.000Z</time>
      </trkpt>
      <trkpt lat="22.903754" lon="110.821353">
        <ele>122.029274</ele>
        <time>2026-08-18T04:02:15.000Z</time>
      </trkpt>
      <trkpt lat="22.903790" lon="110.821372">
        <ele>122.087916</ele>
        <time>2026-08-18T04:02:16.000Z</time>
      </trkpt>
      <trkpt lat="22.903825" lon="110.821393">
        <ele>122.146501</ele>
        <time>2026-08-18T04:02:17.000Z</time>
      </trkpt>
      <trkpt lat="22.903861" lon="110.821412">
        <ele>122.205144</ele>
        <time>2026-08-18T04:02:18.000Z</time>
      </trkpt>
      <trkpt lat="22.903897" lon="110.821431">
        <ele>122.263786</ele>
        <time>2026-08-18T04:02:19.000Z</time>
      </trkpt>
      <trkpt lat="22.903932" lon="110.821452">
        <ele>122.322371</ele>
        <time>2026-08-18T04:02:20.000Z</time>
      </trkpt>
      <trkpt lat="22.903964" lon="110.821475">
        <ele>122.378595</ele>
        <time>2026-08-18T04:02:21.000Z</time>
      </trkpt>
      <trkpt lat="22.903998" lon="110.821500">
        <ele>122.438755</ele>
        <time>2026-08-18T04:02:22.000Z</time>
      </trkpt>
      <trkpt lat="22.904032" lon="110.821525">
        <ele>122.498915</ele>
        <time>2026-08-18T04:02:23.000Z</time>
      </trkpt>
      <trkpt lat="22.904066" lon="110.821548">
        <ele>122.557604</ele>
        <time>2026-08-18T04:02:24.000Z</time>
      </trkpt>
      <trkpt lat="22.904100" lon="110.821571">
        <ele>122.616293</ele>
        <time>2026-08-18T04:02:25.000Z</time>
      </trkpt>
      <trkpt lat="22.904135" lon="110.821591">
        <ele>122.662730</ele>
        <time>2026-08-18T04:02:26.000Z</time>
      </trkpt>
      <trkpt lat="22.904171" lon="110.821613">
        <ele>122.703313</ele>
        <time>2026-08-18T04:02:27.000Z</time>
      </trkpt>
      <trkpt lat="22.904204" lon="110.821637">
        <ele>122.742332</ele>
        <time>2026-08-18T04:02:28.000Z</time>
      </trkpt>
      <trkpt lat="22.904237" lon="110.821661">
        <ele>122.781352</ele>
        <time>2026-08-18T04:02:29.000Z</time>
      </trkpt>
      <trkpt lat="22.904271" lon="110.821684">
        <ele>122.820705</ele>
        <time>2026-08-18T04:02:30.000Z</time>
      </trkpt>
      <trkpt lat="22.904305" lon="110.821709">
        <ele>122.861045</ele>
        <time>2026-08-18T04:02:31.000Z</time>
      </trkpt>
      <trkpt lat="22.904340" lon="110.821732">
        <ele>122.901235</ele>
        <time>2026-08-18T04:02:32.000Z</time>
      </trkpt>
      <trkpt lat="22.904375" lon="110.821755">
        <ele>122.941426</ele>
        <time>2026-08-18T04:02:33.000Z</time>
      </trkpt>
      <trkpt lat="22.904408" lon="110.821779">
        <ele>122.980446</ele>
        <time>2026-08-18T04:02:34.000Z</time>
      </trkpt>
      <trkpt lat="22.904441" lon="110.821801">
        <ele>123.018487</ele>
        <time>2026-08-18T04:02:35.000Z</time>
      </trkpt>
      <trkpt lat="22.904475" lon="110.821824">
        <ele>123.057841</ele>
        <time>2026-08-18T04:02:36.000Z</time>
      </trkpt>
      <trkpt lat="22.904508" lon="110.821849">
        <ele>123.097371</ele>
        <time>2026-08-18T04:02:37.000Z</time>
      </trkpt>
      <trkpt lat="22.904540" lon="110.821873">
        <ele>123.135579</ele>
        <time>2026-08-18T04:02:38.000Z</time>
      </trkpt>
      <trkpt lat="22.904572" lon="110.821899">
        <ele>123.174843</ele>
        <time>2026-08-18T04:02:39.000Z</time>
      </trkpt>
      <trkpt lat="22.904604" lon="110.821925">
        <ele>123.214107</ele>
        <time>2026-08-18T04:02:40.000Z</time>
      </trkpt>
      <trkpt lat="22.904637" lon="110.821949">
        <ele>123.253127</ele>
        <time>2026-08-18T04:02:41.000Z</time>
      </trkpt>
      <trkpt lat="22.904670" lon="110.821978">
        <ele>123.294834</ele>
        <time>2026-08-18T04:02:42.000Z</time>
      </trkpt>
      <trkpt lat="22.904702" lon="110.822006">
        <ele>123.335209</ele>
        <time>2026-08-18T04:02:43.000Z</time>
      </trkpt>
      <trkpt lat="22.904735" lon="110.822033">
        <ele>123.375802</ele>
        <time>2026-08-18T04:02:44.000Z</time>
      </trkpt>
      <trkpt lat="22.904768" lon="110.822061">
        <ele>123.416946</ele>
        <time>2026-08-18T04:02:45.000Z</time>
      </trkpt>
      <trkpt lat="22.904800" lon="110.822091">
        <ele>123.458480</ele>
        <time>2026-08-18T04:02:46.000Z</time>
      </trkpt>
      <trkpt lat="22.904831" lon="110.822121">
        <ele>123.499276</ele>
        <time>2026-08-18T04:02:47.000Z</time>
      </trkpt>
      <trkpt lat="22.904863" lon="110.822146">
        <ele>123.538005</ele>
        <time>2026-08-18T04:02:48.000Z</time>
      </trkpt>
      <trkpt lat="22.904897" lon="110.822170">
        <ele>123.577844</ele>
        <time>2026-08-18T04:02:49.000Z</time>
      </trkpt>
      <trkpt lat="22.904929" lon="110.822200">
        <ele>123.619378</ele>
        <time>2026-08-18T04:02:50.000Z</time>
      </trkpt>
      <trkpt lat="22.904961" lon="110.822230">
        <ele>123.660912</ele>
        <time>2026-08-18T04:02:51.000Z</time>
      </trkpt>
      <trkpt lat="22.904993" lon="110.822260">
        <ele>123.702447</ele>
        <time>2026-08-18T04:02:52.000Z</time>
      </trkpt>
      <trkpt lat="22.905024" lon="110.822291">
        <ele>123.743850</ele>
        <time>2026-08-18T04:02:53.000Z</time>
      </trkpt>
      <trkpt lat="22.905054" lon="110.822324">
        <ele>123.785805</ele>
        <time>2026-08-18T04:02:54.000Z</time>
      </trkpt>
      <trkpt lat="22.905080" lon="110.822357">
        <ele>123.825099</ele>
        <time>2026-08-18T04:02:55.000Z</time>
      </trkpt>
      <trkpt lat="22.905107" lon="110.822393">
        <ele>123.867107</ele>
        <time>2026-08-18T04:02:56.000Z</time>
      </trkpt>
      <trkpt lat="22.905134" lon="110.822432">
        <ele>123.911253</ele>
        <time>2026-08-18T04:02:57.000Z</time>
      </trkpt>
      <trkpt lat="22.905163" lon="110.822469">
        <ele>123.955214</ele>
        <time>2026-08-18T04:02:58.000Z</time>
      </trkpt>
      <trkpt lat="22.905192" lon="110.822503">
        <ele>123.997143</ele>
        <time>2026-08-18T04:02:59.000Z</time>
      </trkpt>
      <trkpt lat="22.905220" lon="110.822539">
        <ele>124.039778</ele>
        <time>2026-08-18T04:03:00.000Z</time>
      </trkpt>
      <trkpt lat="22.905248" lon="110.822577">
        <ele>124.083812</ele>
        <time>2026-08-18T04:03:01.000Z</time>
      </trkpt>
      <trkpt lat="22.905278" lon="110.822618">
        <ele>124.131192</ele>
        <time>2026-08-18T04:03:02.000Z</time>
      </trkpt>
      <trkpt lat="22.905306" lon="110.822658">
        <ele>124.176653</ele>
        <time>2026-08-18T04:03:03.000Z</time>
      </trkpt>
      <trkpt lat="22.905334" lon="110.822699">
        <ele>124.222837</ele>
        <time>2026-08-18T04:03:04.000Z</time>
      </trkpt>
      <trkpt lat="22.905360" lon="110.822741">
        <ele>124.268627</ele>
        <time>2026-08-18T04:03:05.000Z</time>
      </trkpt>
      <trkpt lat="22.905387" lon="110.822785">
        <ele>124.316467</ele>
        <time>2026-08-18T04:03:06.000Z</time>
      </trkpt>
      <trkpt lat="22.905414" lon="110.822827">
        <ele>124.362813</ele>
        <time>2026-08-18T04:03:07.000Z</time>
      </trkpt>
      <trkpt lat="22.905442" lon="110.822869">
        <ele>124.406175</ele>
        <time>2026-08-18T04:03:08.000Z</time>
      </trkpt>
      <trkpt lat="22.905469" lon="110.822913">
        <ele>124.405961</ele>
        <time>2026-08-18T04:03:09.000Z</time>
      </trkpt>
      <trkpt lat="22.905495" lon="110.822958">
        <ele>124.405746</ele>
        <time>2026-08-18T04:03:10.000Z</time>
      </trkpt>
      <trkpt lat="22.905521" lon="110.823004">
        <ele>124.405527</ele>
        <time>2026-08-18T04:03:11.000Z</time>
      </trkpt>
      <trkpt lat="22.905547" lon="110.823049">
        <ele>124.405312</ele>
        <time>2026-08-18T04:03:12.000Z</time>
      </trkpt>
      <trkpt lat="22.905572" lon="110.823095">
        <ele>124.405095</ele>
        <time>2026-08-18T04:03:13.000Z</time>
      </trkpt>
      <trkpt lat="22.905597" lon="110.823141">
        <ele>124.404879</ele>
        <time>2026-08-18T04:03:14.000Z</time>
      </trkpt>
      <trkpt lat="22.905623" lon="110.823186">
        <ele>124.404664</ele>
        <time>2026-08-18T04:03:15.000Z</time>
      </trkpt>
      <trkpt lat="22.905647" lon="110.823233">
        <ele>124.404446</ele>
        <time>2026-08-18T04:03:16.000Z</time>
      </trkpt>
      <trkpt lat="22.905671" lon="110.823282">
        <ele>124.404221</ele>
        <time>2026-08-18T04:03:17.000Z</time>
      </trkpt>
      <trkpt lat="22.905695" lon="110.823330">
        <ele>124.404000</ele>
        <time>2026-08-18T04:03:18.000Z</time>
      </trkpt>
      <trkpt lat="22.905717" lon="110.823378">
        <ele>124.403782</ele>
        <time>2026-08-18T04:03:19.000Z</time>
      </trkpt>
      <trkpt lat="22.905740" lon="110.823426">
        <ele>124.403563</ele>
        <time>2026-08-18T04:03:20.000Z</time>
      </trkpt>
      <trkpt lat="22.905763" lon="110.823475">
        <ele>124.403340</ele>
        <time>2026-08-18T04:03:21.000Z</time>
      </trkpt>
      <trkpt lat="22.905786" lon="110.823524">
        <ele>124.403118</ele>
        <time>2026-08-18T04:03:22.000Z</time>
      </trkpt>
      <trkpt lat="22.905806" lon="110.823573">
        <ele>124.402900</ele>
        <time>2026-08-18T04:03:23.000Z</time>
      </trkpt>
      <trkpt lat="22.905826" lon="110.823623">
        <ele>124.402680</ele>
        <time>2026-08-18T04:03:24.000Z</time>
      </trkpt>
      <trkpt lat="22.905844" lon="110.823674">
        <ele>124.402458</ele>
        <time>2026-08-18T04:03:25.000Z</time>
      </trkpt>
      <trkpt lat="22.905860" lon="110.823723">
        <ele>124.402248</ele>
        <time>2026-08-18T04:03:26.000Z</time>
      </trkpt>
      <trkpt lat="22.905878" lon="110.823773">
        <ele>124.402030</ele>
        <time>2026-08-18T04:03:27.000Z</time>
      </trkpt>
      <trkpt lat="22.905896" lon="110.823825">
        <ele>124.401805</ele>
        <time>2026-08-18T04:03:28.000Z</time>
      </trkpt>
      <trkpt lat="22.905912" lon="110.823877">
        <ele>124.401583</ele>
        <time>2026-08-18T04:03:29.000Z</time>
      </trkpt>
      <trkpt lat="22.905927" lon="110.823930">
        <ele>124.401358</ele>
        <time>2026-08-18T04:03:30.000Z</time>
      </trkpt>
      <trkpt lat="22.905942" lon="110.823984">
        <ele>124.401130</ele>
        <time>2026-08-18T04:03:31.000Z</time>
      </trkpt>
      <trkpt lat="22.905958" lon="110.824037">
        <ele>124.400904</ele>
        <time>2026-08-18T04:03:32.000Z</time>
      </trkpt>
      <trkpt lat="22.905973" lon="110.824091">
        <ele>124.400675</ele>
        <time>2026-08-18T04:03:33.000Z</time>
      </trkpt>
      <trkpt lat="22.905987" lon="110.824144">
        <ele>124.400452</ele>
        <time>2026-08-18T04:03:34.000Z</time>
      </trkpt>
      <trkpt lat="22.906000" lon="110.824198">
        <ele>124.400226</ele>
        <time>2026-08-18T04:03:35.000Z</time>
      </trkpt>
      <trkpt lat="22.906013" lon="110.824251">
        <ele>124.400003</ele>
        <time>2026-08-18T04:03:36.000Z</time>
      </trkpt>
      <trkpt lat="22.906026" lon="110.824305">
        <ele>124.399777</ele>
        <time>2026-08-18T04:03:37.000Z</time>
      </trkpt>
      <trkpt lat="22.906037" lon="110.824359">
        <ele>124.399553</ele>
        <time>2026-08-18T04:03:38.000Z</time>
      </trkpt>
      <trkpt lat="22.906047" lon="110.824414">
        <ele>124.399326</ele>
        <time>2026-08-18T04:03:39.000Z</time>
      </trkpt>
      <trkpt lat="22.906058" lon="110.824468">
        <ele>124.399102</ele>
        <time>2026-08-18T04:03:40.000Z</time>
      </trkpt>
      <trkpt lat="22.906067" lon="110.824522">
        <ele>124.398879</ele>
        <time>2026-08-18T04:03:41.000Z</time>
      </trkpt>
      <trkpt lat="22.906075" lon="110.824575">
        <ele>124.398662</ele>
        <time>2026-08-18T04:03:42.000Z</time>
      </trkpt>
      <trkpt lat="22.906082" lon="110.824630">
        <ele>124.398437</ele>
        <time>2026-08-18T04:03:43.000Z</time>
      </trkpt>
      <trkpt lat="22.906089" lon="110.824685">
        <ele>124.387863</ele>
        <time>2026-08-18T04:03:44.000Z</time>
      </trkpt>
      <trkpt lat="22.906097" lon="110.824739">
        <ele>124.353477</ele>
        <time>2026-08-18T04:03:45.000Z</time>
      </trkpt>
      <trkpt lat="22.906102" lon="110.824793">
        <ele>124.319355</ele>
        <time>2026-08-18T04:03:46.000Z</time>
      </trkpt>
      <trkpt lat="22.906108" lon="110.824849">
        <ele>124.283910</ele>
        <time>2026-08-18T04:03:47.000Z</time>
      </trkpt>
      <trkpt lat="22.906113" lon="110.824904">
        <ele>124.249162</ele>
        <time>2026-08-18T04:03:48.000Z</time>
      </trkpt>
      <trkpt lat="22.906117" lon="110.824961">
        <ele>124.213222</ele>
        <time>2026-08-18T04:03:49.000Z</time>
      </trkpt>
      <trkpt lat="22.906121" lon="110.825019">
        <ele>124.176654</ele>
        <time>2026-08-18T04:03:50.000Z</time>
      </trkpt>
      <trkpt lat="22.906124" lon="110.825076">
        <ele>124.140759</ele>
        <time>2026-08-18T04:03:51.000Z</time>
      </trkpt>
      <trkpt lat="22.906128" lon="110.825132">
        <ele>124.105445</ele>
        <time>2026-08-18T04:03:52.000Z</time>
      </trkpt>
      <trkpt lat="22.906130" lon="110.825189">
        <ele>124.069583</ele>
        <time>2026-08-18T04:03:53.000Z</time>
      </trkpt>
      <trkpt lat="22.906131" lon="110.825249">
        <ele>124.031854</ele>
        <time>2026-08-18T04:03:54.000Z</time>
      </trkpt>
      <trkpt lat="22.906131" lon="110.825308">
        <ele>123.994760</ele>
        <time>2026-08-18T04:03:55.000Z</time>
      </trkpt>
      <trkpt lat="22.906131" lon="110.825368">
        <ele>123.957037</ele>
        <time>2026-08-18T04:03:56.000Z</time>
      </trkpt>
      <trkpt lat="22.906132" lon="110.825427">
        <ele>123.919936</ele>
        <time>2026-08-18T04:03:57.000Z</time>
      </trkpt>
      <trkpt lat="22.906133" lon="110.825485">
        <ele>123.883465</ele>
        <time>2026-08-18T04:03:58.000Z</time>
      </trkpt>
      <trkpt lat="22.906134" lon="110.825545">
        <ele>123.845736</ele>
        <time>2026-08-18T04:03:59.000Z</time>
      </trkpt>
      <trkpt lat="22.906133" lon="110.825606">
        <ele>123.807378</ele>
        <time>2026-08-18T04:04:00.000Z</time>
      </trkpt>
      <trkpt lat="22.906133" lon="110.825666">
        <ele>123.769655</ele>
        <time>2026-08-18T04:04:01.000Z</time>
      </trkpt>
      <trkpt lat="22.906130" lon="110.825726">
        <ele>123.731877</ele>
        <time>2026-08-18T04:04:02.000Z</time>
      </trkpt>
      <trkpt lat="22.906126" lon="110.825786">
        <ele>123.694055</ele>
        <time>2026-08-18T04:04:03.000Z</time>
      </trkpt>
      <trkpt lat="22.906122" lon="110.825846">
        <ele>123.656234</ele>
        <time>2026-08-18T04:04:04.000Z</time>
      </trkpt>
      <trkpt lat="22.906118" lon="110.825907">
        <ele>123.617785</ele>
        <time>2026-08-18T04:04:05.000Z</time>
      </trkpt>
      <trkpt lat="22.906114" lon="110.825969">
        <ele>123.578710</ele>
        <time>2026-08-18T04:04:06.000Z</time>
      </trkpt>
      <trkpt lat="22.906110" lon="110.826030">
        <ele>123.540261</ele>
        <time>2026-08-18T04:04:07.000Z</time>
      </trkpt>
      <trkpt lat="22.906106" lon="110.826090">
        <ele>123.502439</ele>
        <time>2026-08-18T04:04:08.000Z</time>
      </trkpt>
      <trkpt lat="22.906102" lon="110.826152">
        <ele>123.463364</ele>
        <time>2026-08-18T04:04:09.000Z</time>
      </trkpt>
      <trkpt lat="22.906096" lon="110.826212">
        <ele>123.425419</ele>
        <time>2026-08-18T04:04:10.000Z</time>
      </trkpt>
      <trkpt lat="22.906091" lon="110.826273">
        <ele>123.386916</ele>
        <time>2026-08-18T04:04:11.000Z</time>
      </trkpt>
      <trkpt lat="22.906088" lon="110.826334">
        <ele>123.348510</ele>
        <time>2026-08-18T04:04:12.000Z</time>
      </trkpt>
      <trkpt lat="22.906084" lon="110.826396">
        <ele>123.309434</ele>
        <time>2026-08-18T04:04:13.000Z</time>
      </trkpt>
      <trkpt lat="22.906077" lon="110.826457">
        <ele>123.270786</ele>
        <time>2026-08-18T04:04:14.000Z</time>
      </trkpt>
      <trkpt lat="22.906071" lon="110.826519">
        <ele>123.231591</ele>
        <time>2026-08-18T04:04:15.000Z</time>
      </trkpt>
      <trkpt lat="22.906064" lon="110.826580">
        <ele>123.192943</ele>
        <time>2026-08-18T04:04:16.000Z</time>
      </trkpt>
      <trkpt lat="22.906058" lon="110.826641">
        <ele>123.153441</ele>
        <time>2026-08-18T04:04:17.000Z</time>
      </trkpt>
      <trkpt lat="22.906051" lon="110.826702">
        <ele>123.112575</ele>
        <time>2026-08-18T04:04:18.000Z</time>
      </trkpt>
      <trkpt lat="22.906044" lon="110.826763">
        <ele>123.071710</ele>
        <time>2026-08-18T04:04:19.000Z</time>
      </trkpt>
      <trkpt lat="22.906038" lon="110.826824">
        <ele>123.030928</ele>
        <time>2026-08-18T04:04:20.000Z</time>
      </trkpt>
      <trkpt lat="22.906031" lon="110.826886">
        <ele>122.989402</ele>
        <time>2026-08-18T04:04:21.000Z</time>
      </trkpt>
      <trkpt lat="22.906025" lon="110.826948">
        <ele>122.947959</ele>
        <time>2026-08-18T04:04:22.000Z</time>
      </trkpt>
      <trkpt lat="22.906017" lon="110.827010">
        <ele>122.906340</ele>
        <time>2026-08-18T04:04:23.000Z</time>
      </trkpt>
      <trkpt lat="22.906010" lon="110.827071">
        <ele>122.865475</ele>
        <time>2026-08-18T04:04:24.000Z</time>
      </trkpt>
      <trkpt lat="22.906005" lon="110.827132">
        <ele>122.824763</ele>
        <time>2026-08-18T04:04:25.000Z</time>
      </trkpt>
      <trkpt lat="22.905997" lon="110.827193">
        <ele>122.783802</ele>
        <time>2026-08-18T04:04:26.000Z</time>
      </trkpt>
      <trkpt lat="22.905990" lon="110.827253">
        <ele>122.743596</ele>
        <time>2026-08-18T04:04:27.000Z</time>
      </trkpt>
      <trkpt lat="22.905984" lon="110.827315">
        <ele>122.702153</ele>
        <time>2026-08-18T04:04:28.000Z</time>
      </trkpt>
      <trkpt lat="22.905978" lon="110.827377">
        <ele>122.660709</ele>
        <time>2026-08-18T04:04:29.000Z</time>
      </trkpt>
      <trkpt lat="22.905972" lon="110.827439">
        <ele>122.619266</ele>
        <time>2026-08-18T04:04:30.000Z</time>
      </trkpt>
      <trkpt lat="22.905964" lon="110.827502">
        <ele>122.576988</ele>
        <time>2026-08-18T04:04:31.000Z</time>
      </trkpt>
      <trkpt lat="22.905958" lon="110.827565">
        <ele>122.534883</ele>
        <time>2026-08-18T04:04:32.000Z</time>
      </trkpt>
      <trkpt lat="22.905951" lon="110.827629">
        <ele>122.492038</ele>
        <time>2026-08-18T04:04:33.000Z</time>
      </trkpt>
      <trkpt lat="22.905943" lon="110.827692">
        <ele>122.449761</ele>
        <time>2026-08-18T04:04:34.000Z</time>
      </trkpt>
      <trkpt lat="22.905936" lon="110.827755">
        <ele>122.407576</ele>
        <time>2026-08-18T04:04:35.000Z</time>
      </trkpt>
      <trkpt lat="22.905929" lon="110.827819">
        <ele>122.364731</ele>
        <time>2026-08-18T04:04:36.000Z</time>
      </trkpt>
      <trkpt lat="22.905922" lon="110.827882">
        <ele>122.322546</ele>
        <time>2026-08-18T04:04:37.000Z</time>
      </trkpt>
      <trkpt lat="22.905916" lon="110.827947">
        <ele>122.279118</ele>
        <time>2026-08-18T04:04:38.000Z</time>
      </trkpt>
      <trkpt lat="22.905909" lon="110.828012">
        <ele>122.235613</ele>
        <time>2026-08-18T04:04:39.000Z</time>
      </trkpt>
      <trkpt lat="22.905902" lon="110.828075">
        <ele>122.193428</ele>
        <time>2026-08-18T04:04:40.000Z</time>
      </trkpt>
      <trkpt lat="22.905894" lon="110.828139">
        <ele>122.150492</ele>
        <time>2026-08-18T04:04:41.000Z</time>
      </trkpt>
      <trkpt lat="22.905886" lon="110.828205">
        <ele>122.106238</ele>
        <time>2026-08-18T04:04:42.000Z</time>
      </trkpt>
      <trkpt lat="22.905879" lon="110.828271">
        <ele>122.062072</ele>
        <time>2026-08-18T04:04:43.000Z</time>
      </trkpt>
      <trkpt lat="22.905873" lon="110.828337">
        <ele>122.017983</ele>
        <time>2026-08-18T04:04:44.000Z</time>
      </trkpt>
      <trkpt lat="22.905867" lon="110.828406">
        <ele>121.971909</ele>
        <time>2026-08-18T04:04:45.000Z</time>
      </trkpt>
      <trkpt lat="22.905860" lon="110.828475">
        <ele>121.925761</ele>
        <time>2026-08-18T04:04:46.000Z</time>
      </trkpt>
      <trkpt lat="22.905853" lon="110.828542">
        <ele>121.880935</ele>
        <time>2026-08-18T04:04:47.000Z</time>
      </trkpt>
      <trkpt lat="22.905847" lon="110.828608">
        <ele>121.897762</ele>
        <time>2026-08-18T04:04:48.000Z</time>
      </trkpt>
      <trkpt lat="22.905841" lon="110.828674">
        <ele>121.928852</ele>
        <time>2026-08-18T04:04:49.000Z</time>
      </trkpt>
      <trkpt lat="22.905834" lon="110.828739">
        <ele>121.959531</ele>
        <time>2026-08-18T04:04:50.000Z</time>
      </trkpt>
      <trkpt lat="22.905826" lon="110.828805">
        <ele>121.990738</ele>
        <time>2026-08-18T04:04:51.000Z</time>
      </trkpt>
      <trkpt lat="22.905816" lon="110.828869">
        <ele>122.021169</ele>
        <time>2026-08-18T04:04:52.000Z</time>
      </trkpt>
      <trkpt lat="22.905807" lon="110.828933">
        <ele>122.051519</ele>
        <time>2026-08-18T04:04:53.000Z</time>
      </trkpt>
      <trkpt lat="22.905800" lon="110.828997">
        <ele>122.081732</ele>
        <time>2026-08-18T04:04:54.000Z</time>
      </trkpt>
      <trkpt lat="22.905796" lon="110.829060">
        <ele>122.111335</ele>
        <time>2026-08-18T04:04:55.000Z</time>
      </trkpt>
      <trkpt lat="22.905792" lon="110.829123">
        <ele>122.140939</ele>
        <time>2026-08-18T04:04:56.000Z</time>
      </trkpt>
      <trkpt lat="22.905787" lon="110.829183">
        <ele>122.169181</ele>
        <time>2026-08-18T04:04:57.000Z</time>
      </trkpt>
      <trkpt lat="22.905779" lon="110.829244">
        <ele>122.198066</ele>
        <time>2026-08-18T04:04:58.000Z</time>
      </trkpt>
      <trkpt lat="22.905771" lon="110.829305">
        <ele>122.226950</ele>
        <time>2026-08-18T04:04:59.000Z</time>
      </trkpt>
      <trkpt lat="22.905765" lon="110.829365">
        <ele>122.255242</ele>
        <time>2026-08-18T04:05:00.000Z</time>
      </trkpt>
      <trkpt lat="22.905761" lon="110.829425">
        <ele>122.283443</ele>
        <time>2026-08-18T04:05:01.000Z</time>
      </trkpt>
      <trkpt lat="22.905756" lon="110.829485">
        <ele>122.311685</ele>
        <time>2026-08-18T04:05:02.000Z</time>
      </trkpt>
      <trkpt lat="22.905752" lon="110.829544">
        <ele>122.339419</ele>
        <time>2026-08-18T04:05:03.000Z</time>
      </trkpt>
      <trkpt lat="22.905747" lon="110.829604">
        <ele>122.367661</ele>
        <time>2026-08-18T04:05:04.000Z</time>
      </trkpt>
      <trkpt lat="22.905740" lon="110.829663">
        <ele>122.395548</ele>
        <time>2026-08-18T04:05:05.000Z</time>
      </trkpt>
      <trkpt lat="22.905734" lon="110.829720">
        <ele>122.422442</ele>
        <time>2026-08-18T04:05:06.000Z</time>
      </trkpt>
      <trkpt lat="22.905728" lon="110.829779">
        <ele>122.450269</ele>
        <time>2026-08-18T04:05:07.000Z</time>
      </trkpt>
      <trkpt lat="22.905722" lon="110.829837">
        <ele>122.477630</ele>
        <time>2026-08-18T04:05:08.000Z</time>
      </trkpt>
      <trkpt lat="22.905715" lon="110.829893">
        <ele>122.504122</ele>
        <time>2026-08-18T04:05:09.000Z</time>
      </trkpt>
      <trkpt lat="22.905708" lon="110.829949">
        <ele>122.530615</ele>
        <time>2026-08-18T04:05:10.000Z</time>
      </trkpt>
      <trkpt lat="22.905702" lon="110.830005">
        <ele>122.557044</ele>
        <time>2026-08-18T04:05:11.000Z</time>
      </trkpt>
      <trkpt lat="22.905695" lon="110.830061">
        <ele>122.583537</ele>
        <time>2026-08-18T04:05:12.000Z</time>
      </trkpt>
      <trkpt lat="22.905688" lon="110.830116">
        <ele>122.609565</ele>
        <time>2026-08-18T04:05:13.000Z</time>
      </trkpt>
      <trkpt lat="22.905683" lon="110.830172">
        <ele>122.635940</ele>
        <time>2026-08-18T04:05:14.000Z</time>
      </trkpt>
      <trkpt lat="22.905678" lon="110.830228">
        <ele>122.662315</ele>
        <time>2026-08-18T04:05:15.000Z</time>
      </trkpt>
      <trkpt lat="22.905674" lon="110.830284">
        <ele>122.688646</ele>
        <time>2026-08-18T04:05:16.000Z</time>
      </trkpt>
      <trkpt lat="22.905668" lon="110.830340">
        <ele>122.715075</ele>
        <time>2026-08-18T04:05:17.000Z</time>
      </trkpt>
      <trkpt lat="22.905662" lon="110.830395">
        <ele>122.741039</ele>
        <time>2026-08-18T04:05:18.000Z</time>
      </trkpt>
      <trkpt lat="22.905655" lon="110.830451">
        <ele>122.767532</ele>
        <time>2026-08-18T04:05:19.000Z</time>
      </trkpt>
      <trkpt lat="22.905649" lon="110.830508">
        <ele>122.792484</ele>
        <time>2026-08-18T04:05:20.000Z</time>
      </trkpt>
      <trkpt lat="22.905636" lon="110.830561">
        <ele>122.810508</ele>
        <time>2026-08-18T04:05:21.000Z</time>
      </trkpt>
      <trkpt lat="22.905623" lon="110.830615">
        <ele>122.828850</ele>
        <time>2026-08-18T04:05:22.000Z</time>
      </trkpt>
      <trkpt lat="22.905612" lon="110.830670">
        <ele>122.847346</ele>
        <time>2026-08-18T04:05:23.000Z</time>
      </trkpt>
      <trkpt lat="22.905603" lon="110.830722">
        <ele>122.864734</ele>
        <time>2026-08-18T04:05:24.000Z</time>
      </trkpt>
      <trkpt lat="22.905593" lon="110.830776">
        <ele>122.882835</ele>
        <time>2026-08-18T04:05:25.000Z</time>
      </trkpt>
      <trkpt lat="22.905589" lon="110.830829">
        <ele>122.900310</ele>
        <time>2026-08-18T04:05:26.000Z</time>
      </trkpt>
      <trkpt lat="22.905582" lon="110.830883">
        <ele>122.918231</ele>
        <time>2026-08-18T04:05:27.000Z</time>
      </trkpt>
      <trkpt lat="22.905571" lon="110.830942">
        <ele>122.938013</ele>
        <time>2026-08-18T04:05:28.000Z</time>
      </trkpt>
      <trkpt lat="22.905569" lon="110.830998">
        <ele>122.956430</ele>
        <time>2026-08-18T04:05:29.000Z</time>
      </trkpt>
      <trkpt lat="22.905564" lon="110.831054">
        <ele>122.974920</ele>
        <time>2026-08-18T04:05:30.000Z</time>
      </trkpt>
      <trkpt lat="22.905554" lon="110.831104">
        <ele>122.991734</ele>
        <time>2026-08-18T04:05:31.000Z</time>
      </trkpt>
      <trkpt lat="22.905544" lon="110.831158">
        <ele>123.009835</ele>
        <time>2026-08-18T04:05:32.000Z</time>
      </trkpt>
      <trkpt lat="22.905543" lon="110.831209">
        <ele>123.026598</ele>
        <time>2026-08-18T04:05:33.000Z</time>
      </trkpt>
      <trkpt lat="22.905540" lon="110.831261">
        <ele>123.043721</ele>
        <time>2026-08-18T04:05:34.000Z</time>
      </trkpt>
      <trkpt lat="22.905536" lon="110.831314">
        <ele>123.061196</ele>
        <time>2026-08-18T04:05:35.000Z</time>
      </trkpt>
      <trkpt lat="22.905530" lon="110.831359">
        <ele>123.076139</ele>
        <time>2026-08-18T04:05:36.000Z</time>
      </trkpt>
      <trkpt lat="22.905523" lon="110.831407">
        <ele>123.092109</ele>
        <time>2026-08-18T04:05:37.000Z</time>
      </trkpt>
      <trkpt lat="22.905521" lon="110.831454">
        <ele>123.107571</ele>
        <time>2026-08-18T04:05:38.000Z</time>
      </trkpt>
      <trkpt lat="22.905521" lon="110.831502">
        <ele>123.123345</ele>
        <time>2026-08-18T04:05:39.000Z</time>
      </trkpt>
      <trkpt lat="22.905516" lon="110.831552">
        <ele>123.139873</ele>
        <time>2026-08-18T04:05:40.000Z</time>
      </trkpt>
      <trkpt lat="22.905512" lon="110.831602">
        <ele>123.156366</ele>
        <time>2026-08-18T04:05:41.000Z</time>
      </trkpt>
      <trkpt lat="22.905508" lon="110.831651">
        <ele>123.172532</ele>
        <time>2026-08-18T04:05:42.000Z</time>
      </trkpt>
      <trkpt lat="22.905504" lon="110.831702">
        <ele>123.189353</ele>
        <time>2026-08-18T04:05:43.000Z</time>
      </trkpt>
      <trkpt lat="22.905499" lon="110.831754">
        <ele>123.206534</ele>
        <time>2026-08-18T04:05:44.000Z</time>
      </trkpt>
      <trkpt lat="22.905494" lon="110.831807">
        <ele>123.224043</ele>
        <time>2026-08-18T04:05:45.000Z</time>
      </trkpt>
      <trkpt lat="22.905491" lon="110.831860">
        <ele>123.241493</ele>
        <time>2026-08-18T04:05:46.000Z</time>
      </trkpt>
      <trkpt lat="22.905486" lon="110.831912">
        <ele>123.258674</ele>
        <time>2026-08-18T04:05:47.000Z</time>
      </trkpt>
      <trkpt lat="22.905481" lon="110.831964">
        <ele>123.275856</ele>
        <time>2026-08-18T04:05:48.000Z</time>
      </trkpt>
      <trkpt lat="22.905476" lon="110.832017">
        <ele>123.293364</ele>
        <time>2026-08-18T04:05:49.000Z</time>
      </trkpt>
      <trkpt lat="22.905470" lon="110.832066">
        <ele>123.309609</ele>
        <time>2026-08-18T04:05:50.000Z</time>
      </trkpt>
      <trkpt lat="22.905463" lon="110.832116">
        <ele>123.326229</ele>
        <time>2026-08-18T04:05:51.000Z</time>
      </trkpt>
      <trkpt lat="22.905457" lon="110.832165">
        <ele>123.342473</ele>
        <time>2026-08-18T04:05:52.000Z</time>
      </trkpt>
      <trkpt lat="22.905451" lon="110.832213">
        <ele>123.358392</ele>
        <time>2026-08-18T04:05:53.000Z</time>
      </trkpt>
      <trkpt lat="22.905447" lon="110.832262">
        <ele>123.374558</ele>
        <time>2026-08-18T04:05:54.000Z</time>
      </trkpt>
      <trkpt lat="22.905443" lon="110.832311">
        <ele>123.390724</ele>
        <time>2026-08-18T04:05:55.000Z</time>
      </trkpt>
      <trkpt lat="22.905440" lon="110.832361">
        <ele>123.407190</ele>
        <time>2026-08-18T04:05:56.000Z</time>
      </trkpt>
      <trkpt lat="22.905435" lon="110.832409">
        <ele>123.423064</ele>
        <time>2026-08-18T04:05:57.000Z</time>
      </trkpt>
      <trkpt lat="22.905429" lon="110.832461">
        <ele>123.446275</ele>
        <time>2026-08-18T04:05:58.000Z</time>
      </trkpt>
      <trkpt lat="22.905424" lon="110.832510">
        <ele>123.471565</ele>
        <time>2026-08-18T04:05:59.000Z</time>
      </trkpt>
      <trkpt lat="22.905418" lon="110.832559">
        <ele>123.496923</ele>
        <time>2026-08-18T04:06:00.000Z</time>
      </trkpt>
      <trkpt lat="22.905414" lon="110.832608">
        <ele>123.522158</ele>
        <time>2026-08-18T04:06:01.000Z</time>
      </trkpt>
      <trkpt lat="22.905409" lon="110.832660">
        <ele>123.548979</ele>
        <time>2026-08-18T04:06:02.000Z</time>
      </trkpt>
      <trkpt lat="22.905404" lon="110.832709">
        <ele>123.574269</ele>
        <time>2026-08-18T04:06:03.000Z</time>
      </trkpt>
      <trkpt lat="22.905399" lon="110.832756">
        <ele>123.598540</ele>
        <time>2026-08-18T04:06:04.000Z</time>
      </trkpt>
      <trkpt lat="22.905393" lon="110.832804">
        <ele>123.623390</ele>
        <time>2026-08-18T04:06:05.000Z</time>
      </trkpt>
      <trkpt lat="22.905388" lon="110.832853">
        <ele>123.648680</ele>
        <time>2026-08-18T04:06:06.000Z</time>
      </trkpt>
      <trkpt lat="22.905383" lon="110.832901">
        <ele>123.673461</ele>
        <time>2026-08-18T04:06:07.000Z</time>
      </trkpt>
      <trkpt lat="22.905379" lon="110.832949">
        <ele>123.698185</ele>
        <time>2026-08-18T04:06:08.000Z</time>
      </trkpt>
      <trkpt lat="22.905374" lon="110.832997">
        <ele>123.722966</ele>
        <time>2026-08-18T04:06:09.000Z</time>
      </trkpt>
      <trkpt lat="22.905370" lon="110.833046">
        <ele>123.748201</ele>
        <time>2026-08-18T04:06:10.000Z</time>
      </trkpt>
      <trkpt lat="22.905366" lon="110.833093">
        <ele>123.772414</ele>
        <time>2026-08-18T04:06:11.000Z</time>
      </trkpt>
      <trkpt lat="22.905360" lon="110.833139">
        <ele>123.796247</ele>
        <time>2026-08-18T04:06:12.000Z</time>
      </trkpt>
      <trkpt lat="22.905354" lon="110.833185">
        <ele>123.820080</ele>
        <time>2026-08-18T04:06:13.000Z</time>
      </trkpt>
      <trkpt lat="22.905349" lon="110.833233">
        <ele>123.844861</ele>
        <time>2026-08-18T04:06:14.000Z</time>
      </trkpt>
      <trkpt lat="22.905345" lon="110.833281">
        <ele>123.869585</ele>
        <time>2026-08-18T04:06:15.000Z</time>
      </trkpt>
      <trkpt lat="22.905340" lon="110.833328">
        <ele>123.893856</ele>
        <time>2026-08-18T04:06:16.000Z</time>
      </trkpt>
      <trkpt lat="22.905334" lon="110.833376">
        <ele>123.918706</ele>
        <time>2026-08-18T04:06:17.000Z</time>
      </trkpt>
      <trkpt lat="22.905329" lon="110.833424">
        <ele>123.943486</ele>
        <time>2026-08-18T04:06:18.000Z</time>
      </trkpt>
      <trkpt lat="22.905325" lon="110.833470">
        <ele>123.967189</ele>
        <time>2026-08-18T04:06:19.000Z</time>
      </trkpt>
      <trkpt lat="22.905321" lon="110.833517">
        <ele>123.991402</ele>
        <time>2026-08-18T04:06:20.000Z</time>
      </trkpt>
      <trkpt lat="22.905316" lon="110.833566">
        <ele>124.016693</ele>
        <time>2026-08-18T04:06:21.000Z</time>
      </trkpt>
      <trkpt lat="22.905312" lon="110.833613">
        <ele>124.040906</ele>
        <time>2026-08-18T04:06:22.000Z</time>
      </trkpt>
      <trkpt lat="22.905306" lon="110.833661">
        <ele>124.065755</ele>
        <time>2026-08-18T04:06:23.000Z</time>
      </trkpt>
      <trkpt lat="22.905300" lon="110.833709">
        <ele>124.090605</ele>
        <time>2026-08-18T04:06:24.000Z</time>
      </trkpt>
      <trkpt lat="22.905294" lon="110.833757">
        <ele>124.115454</ele>
        <time>2026-08-18T04:06:25.000Z</time>
      </trkpt>
      <trkpt lat="22.905291" lon="110.833804">
        <ele>124.139623</ele>
        <time>2026-08-18T04:06:26.000Z</time>
      </trkpt>
      <trkpt lat="22.905286" lon="110.833851">
        <ele>124.163894</ele>
        <time>2026-08-18T04:06:27.000Z</time>
      </trkpt>
      <trkpt lat="22.905282" lon="110.833899">
        <ele>124.188618</ele>
        <time>2026-08-18T04:06:28.000Z</time>
      </trkpt>
      <trkpt lat="22.905276" lon="110.833947">
        <ele>124.213467</ele>
        <time>2026-08-18T04:06:29.000Z</time>
      </trkpt>
      <trkpt lat="22.905271" lon="110.833995">
        <ele>124.238248</ele>
        <time>2026-08-18T04:06:30.000Z</time>
      </trkpt>
      <trkpt lat="22.905265" lon="110.834041">
        <ele>124.262081</ele>
        <time>2026-08-18T04:06:31.000Z</time>
      </trkpt>
      <trkpt lat="22.905259" lon="110.834089">
        <ele>124.286931</ele>
        <time>2026-08-18T04:06:32.000Z</time>
      </trkpt>
      <trkpt lat="22.905254" lon="110.834135">
        <ele>124.310692</ele>
        <time>2026-08-18T04:06:33.000Z</time>
      </trkpt>
      <trkpt lat="22.905250" lon="110.834181">
        <ele>124.334395</ele>
        <time>2026-08-18T04:06:34.000Z</time>
      </trkpt>
      <trkpt lat="22.905246" lon="110.834228">
        <ele>124.358608</ele>
        <time>2026-08-18T04:06:35.000Z</time>
      </trkpt>
      <trkpt lat="22.905241" lon="110.834274">
        <ele>124.382370</ele>
        <time>2026-08-18T04:06:36.000Z</time>
      </trkpt>
      <trkpt lat="22.905237" lon="110.834322">
        <ele>124.407094</ele>
        <time>2026-08-18T04:06:37.000Z</time>
      </trkpt>
      <trkpt lat="22.905233" lon="110.834370">
        <ele>124.430959</ele>
        <time>2026-08-18T04:06:38.000Z</time>
      </trkpt>
      <trkpt lat="22.905229" lon="110.834417">
        <ele>124.415897</ele>
        <time>2026-08-18T04:06:39.000Z</time>
      </trkpt>
      <trkpt lat="22.905224" lon="110.834464">
        <ele>124.400799</ele>
        <time>2026-08-18T04:06:40.000Z</time>
      </trkpt>
      <trkpt lat="22.905219" lon="110.834511">
        <ele>124.385701</ele>
        <time>2026-08-18T04:06:41.000Z</time>
      </trkpt>
      <trkpt lat="22.905213" lon="110.834556">
        <ele>124.371192</ele>
        <time>2026-08-18T04:06:42.000Z</time>
      </trkpt>
      <trkpt lat="22.905207" lon="110.834601">
        <ele>124.356682</ele>
        <time>2026-08-18T04:06:43.000Z</time>
      </trkpt>
      <trkpt lat="22.905201" lon="110.834646">
        <ele>124.342173</ele>
        <time>2026-08-18T04:06:44.000Z</time>
      </trkpt>
      <trkpt lat="22.905196" lon="110.834692">
        <ele>124.327392</ele>
        <time>2026-08-18T04:06:45.000Z</time>
      </trkpt>
      <trkpt lat="22.905191" lon="110.834738">
        <ele>124.312611</ele>
        <time>2026-08-18T04:06:46.000Z</time>
      </trkpt>
      <trkpt lat="22.905186" lon="110.834783">
        <ele>124.298147</ele>
        <time>2026-08-18T04:06:47.000Z</time>
      </trkpt>
      <trkpt lat="22.905182" lon="110.834830">
        <ele>124.283085</ele>
        <time>2026-08-18T04:06:48.000Z</time>
      </trkpt>
      <trkpt lat="22.905177" lon="110.834877">
        <ele>124.267987</ele>
        <time>2026-08-18T04:06:49.000Z</time>
      </trkpt>
      <trkpt lat="22.905172" lon="110.834925">
        <ele>124.252573</ele>
        <time>2026-08-18T04:06:50.000Z</time>
      </trkpt>
      <trkpt lat="22.905166" lon="110.834972">
        <ele>124.237431</ele>
        <time>2026-08-18T04:06:51.000Z</time>
      </trkpt>
      <trkpt lat="22.905161" lon="110.835020">
        <ele>124.222016</ele>
        <time>2026-08-18T04:06:52.000Z</time>
      </trkpt>
      <trkpt lat="22.905157" lon="110.835068">
        <ele>124.206636</ele>
        <time>2026-08-18T04:06:53.000Z</time>
      </trkpt>
      <trkpt lat="22.905152" lon="110.835116">
        <ele>124.191222</ele>
        <time>2026-08-18T04:06:54.000Z</time>
      </trkpt>
      <trkpt lat="22.905147" lon="110.835165">
        <ele>124.175490</ele>
        <time>2026-08-18T04:06:55.000Z</time>
      </trkpt>
      <trkpt lat="22.905141" lon="110.835212">
        <ele>124.160348</ele>
        <time>2026-08-18T04:06:56.000Z</time>
      </trkpt>
      <trkpt lat="22.905137" lon="110.835261">
        <ele>124.144651</ele>
        <time>2026-08-18T04:06:57.000Z</time>
      </trkpt>
      <trkpt lat="22.905132" lon="110.835310">
        <ele>124.128919</ele>
        <time>2026-08-18T04:06:58.000Z</time>
      </trkpt>
      <trkpt lat="22.905127" lon="110.835359">
        <ele>124.113187</ele>
        <time>2026-08-18T04:06:59.000Z</time>
      </trkpt>
      <trkpt lat="22.905123" lon="110.835408">
        <ele>124.097489</ele>
        <time>2026-08-18T04:07:00.000Z</time>
      </trkpt>
      <trkpt lat="22.905118" lon="110.835457">
        <ele>124.081757</ele>
        <time>2026-08-18T04:07:01.000Z</time>
      </trkpt>
      <trkpt lat="22.905110" lon="110.835507">
        <ele>124.065563</ele>
        <time>2026-08-18T04:07:02.000Z</time>
      </trkpt>
      <trkpt lat="22.905103" lon="110.835556">
        <ele>124.049739</ele>
        <time>2026-08-18T04:07:03.000Z</time>
      </trkpt>
      <trkpt lat="22.905097" lon="110.835606">
        <ele>124.033649</ele>
        <time>2026-08-18T04:07:04.000Z</time>
      </trkpt>
      <trkpt lat="22.905090" lon="110.835655">
        <ele>124.017826</ele>
        <time>2026-08-18T04:07:05.000Z</time>
      </trkpt>
      <trkpt lat="22.905084" lon="110.835705">
        <ele>124.001736</ele>
        <time>2026-08-18T04:07:06.000Z</time>
      </trkpt>
      <trkpt lat="22.905079" lon="110.835754">
        <ele>123.986004</ele>
        <time>2026-08-18T04:07:07.000Z</time>
      </trkpt>
      <trkpt lat="22.905074" lon="110.835805">
        <ele>123.969637</ele>
        <time>2026-08-18T04:07:08.000Z</time>
      </trkpt>
      <trkpt lat="22.905069" lon="110.835856">
        <ele>123.953271</ele>
        <time>2026-08-18T04:07:09.000Z</time>
      </trkpt>
      <trkpt lat="22.905063" lon="110.835906">
        <ele>123.937180</ele>
        <time>2026-08-18T04:07:10.000Z</time>
      </trkpt>
      <trkpt lat="22.905058" lon="110.835957">
        <ele>123.920814</ele>
        <time>2026-08-18T04:07:11.000Z</time>
      </trkpt>
      <trkpt lat="22.905053" lon="110.836009">
        <ele>123.904130</ele>
        <time>2026-08-18T04:07:12.000Z</time>
      </trkpt>
      <trkpt lat="22.905047" lon="110.836062">
        <ele>123.887090</ele>
        <time>2026-08-18T04:07:13.000Z</time>
      </trkpt>
      <trkpt lat="22.905042" lon="110.836116">
        <ele>123.869771</ele>
        <time>2026-08-18T04:07:14.000Z</time>
      </trkpt>
      <trkpt lat="22.905036" lon="110.836169">
        <ele>123.852731</ele>
        <time>2026-08-18T04:07:15.000Z</time>
      </trkpt>
      <trkpt lat="22.905030" lon="110.836224">
        <ele>123.835058</ele>
        <time>2026-08-18T04:07:16.000Z</time>
      </trkpt>
      <trkpt lat="22.905024" lon="110.836278">
        <ele>123.817701</ele>
        <time>2026-08-18T04:07:17.000Z</time>
      </trkpt>
      <trkpt lat="22.905018" lon="110.836333">
        <ele>123.780442</ele>
        <time>2026-08-18T04:07:18.000Z</time>
      </trkpt>
      <trkpt lat="22.905011" lon="110.836389">
        <ele>123.719165</ele>
        <time>2026-08-18T04:07:19.000Z</time>
      </trkpt>
      <trkpt lat="22.905005" lon="110.836445">
        <ele>123.658035</ele>
        <time>2026-08-18T04:07:20.000Z</time>
      </trkpt>
      <trkpt lat="22.905000" lon="110.836502">
        <ele>123.595950</ele>
        <time>2026-08-18T04:07:21.000Z</time>
      </trkpt>
      <trkpt lat="22.904994" lon="110.836560">
        <ele>123.532666</ele>
        <time>2026-08-18T04:07:22.000Z</time>
      </trkpt>
      <trkpt lat="22.904989" lon="110.836617">
        <ele>123.470581</ele>
        <time>2026-08-18T04:07:23.000Z</time>
      </trkpt>
      <trkpt lat="22.904984" lon="110.836675">
        <ele>123.407417</ele>
        <time>2026-08-18T04:07:24.000Z</time>
      </trkpt>
      <trkpt lat="22.904979" lon="110.836733">
        <ele>123.344253</ele>
        <time>2026-08-18T04:07:25.000Z</time>
      </trkpt>
      <trkpt lat="22.904972" lon="110.836789">
        <ele>123.282976</ele>
        <time>2026-08-18T04:07:26.000Z</time>
      </trkpt>
      <trkpt lat="22.904966" lon="110.836847">
        <ele>123.219691</ele>
        <time>2026-08-18T04:07:27.000Z</time>
      </trkpt>
      <trkpt lat="22.904959" lon="110.836906">
        <ele>123.155189</ele>
        <time>2026-08-18T04:07:28.000Z</time>
      </trkpt>
      <trkpt lat="22.904954" lon="110.836966">
        <ele>123.089866</ele>
        <time>2026-08-18T04:07:29.000Z</time>
      </trkpt>
      <trkpt lat="22.904947" lon="110.837025">
        <ele>123.025364</ele>
        <time>2026-08-18T04:07:30.000Z</time>
      </trkpt>
      <trkpt lat="22.904940" lon="110.837085">
        <ele>122.959786</ele>
        <time>2026-08-18T04:07:31.000Z</time>
      </trkpt>
      <trkpt lat="22.904933" lon="110.837146">
        <ele>122.893133</ele>
        <time>2026-08-18T04:07:32.000Z</time>
      </trkpt>
      <trkpt lat="22.904927" lon="110.837208">
        <ele>122.825536</ele>
        <time>2026-08-18T04:07:33.000Z</time>
      </trkpt>
      <trkpt lat="22.904920" lon="110.837270">
        <ele>122.757807</ele>
        <time>2026-08-18T04:07:34.000Z</time>
      </trkpt>
      <trkpt lat="22.904913" lon="110.837334">
        <ele>122.687924</ele>
        <time>2026-08-18T04:07:35.000Z</time>
      </trkpt>
      <trkpt lat="22.904906" lon="110.837397">
        <ele>122.619118</ele>
        <time>2026-08-18T04:07:36.000Z</time>
      </trkpt>
      <trkpt lat="22.904899" lon="110.837460">
        <ele>122.550312</ele>
        <time>2026-08-18T04:07:37.000Z</time>
      </trkpt>
      <trkpt lat="22.904893" lon="110.837524">
        <ele>122.480559</ele>
        <time>2026-08-18T04:07:38.000Z</time>
      </trkpt>
      <trkpt lat="22.904886" lon="110.837588">
        <ele>122.410676</ele>
        <time>2026-08-18T04:07:39.000Z</time>
      </trkpt>
      <trkpt lat="22.904879" lon="110.837653">
        <ele>122.339717</ele>
        <time>2026-08-18T04:07:40.000Z</time>
      </trkpt>
      <trkpt lat="22.904872" lon="110.837718">
        <ele>122.268757</ele>
        <time>2026-08-18T04:07:41.000Z</time>
      </trkpt>
      <trkpt lat="22.904865" lon="110.837784">
        <ele>122.196721</ele>
        <time>2026-08-18T04:07:42.000Z</time>
      </trkpt>
      <trkpt lat="22.904857" lon="110.837852">
        <ele>122.122390</ele>
        <time>2026-08-18T04:07:43.000Z</time>
      </trkpt>
      <trkpt lat="22.904848" lon="110.837920">
        <ele>122.047900</ele>
        <time>2026-08-18T04:07:44.000Z</time>
      </trkpt>
      <trkpt lat="22.904841" lon="110.837987">
        <ele>121.974786</ele>
        <time>2026-08-18T04:07:45.000Z</time>
      </trkpt>
      <trkpt lat="22.904833" lon="110.838054">
        <ele>121.901531</ele>
        <time>2026-08-18T04:07:46.000Z</time>
      </trkpt>
      <trkpt lat="22.904826" lon="110.838120">
        <ele>121.829494</ele>
        <time>2026-08-18T04:07:47.000Z</time>
      </trkpt>
      <trkpt lat="22.904819" lon="110.838188">
        <ele>121.755303</ele>
        <time>2026-08-18T04:07:48.000Z</time>
      </trkpt>
      <trkpt lat="22.904814" lon="110.838256">
        <ele>121.681723</ele>
        <time>2026-08-18T04:07:49.000Z</time>
      </trkpt>
      <trkpt lat="22.904809" lon="110.838325">
        <ele>121.609679</ele>
        <time>2026-08-18T04:07:50.000Z</time>
      </trkpt>
      <trkpt lat="22.904804" lon="110.838394">
        <ele>121.537635</ele>
        <time>2026-08-18T04:07:51.000Z</time>
      </trkpt>
      <trkpt lat="22.904798" lon="110.838463">
        <ele>121.465494</ele>
        <time>2026-08-18T04:07:52.000Z</time>
      </trkpt>
      <trkpt lat="22.904792" lon="110.838533">
        <ele>121.392317</ele>
        <time>2026-08-18T04:07:53.000Z</time>
      </trkpt>
      <trkpt lat="22.904787" lon="110.838601">
        <ele>121.321311</ele>
        <time>2026-08-18T04:07:54.000Z</time>
      </trkpt>
      <trkpt lat="22.904783" lon="110.838669">
        <ele>121.250386</ele>
        <time>2026-08-18T04:07:55.000Z</time>
      </trkpt>
      <trkpt lat="22.904779" lon="110.838738">
        <ele>121.178422</ele>
        <time>2026-08-18T04:07:56.000Z</time>
      </trkpt>
      <trkpt lat="22.904775" lon="110.838805">
        <ele>121.108536</ele>
        <time>2026-08-18T04:07:57.000Z</time>
      </trkpt>
      <trkpt lat="22.904769" lon="110.838872">
        <ele>121.038467</ele>
        <time>2026-08-18T04:07:58.000Z</time>
      </trkpt>
      <trkpt lat="22.904764" lon="110.838938">
        <ele>120.969536</ele>
        <time>2026-08-18T04:07:59.000Z</time>
      </trkpt>
      <trkpt lat="22.904760" lon="110.839007">
        <ele>120.897572</ele>
        <time>2026-08-18T04:08:00.000Z</time>
      </trkpt>
      <trkpt lat="22.904759" lon="110.839074">
        <ele>120.827823</ele>
        <time>2026-08-18T04:08:01.000Z</time>
      </trkpt>
      <trkpt lat="22.904758" lon="110.839141">
        <ele>120.758074</ele>
        <time>2026-08-18T04:08:02.000Z</time>
      </trkpt>
      <trkpt lat="22.904757" lon="110.839208">
        <ele>120.688324</ele>
        <time>2026-08-18T04:08:03.000Z</time>
      </trkpt>
      <trkpt lat="22.904758" lon="110.839275">
        <ele>120.618575</ele>
        <time>2026-08-18T04:08:04.000Z</time>
      </trkpt>
      <trkpt lat="22.904760" lon="110.839343">
        <ele>120.547758</ele>
        <time>2026-08-18T04:08:05.000Z</time>
      </trkpt>
      <trkpt lat="22.904762" lon="110.839409">
        <ele>120.479022</ele>
        <time>2026-08-18T04:08:06.000Z</time>
      </trkpt>
      <trkpt lat="22.904765" lon="110.839476">
        <ele>120.409200</ele>
        <time>2026-08-18T04:08:07.000Z</time>
      </trkpt>
      <trkpt lat="22.904768" lon="110.839543">
        <ele>120.339377</ele>
        <time>2026-08-18T04:08:08.000Z</time>
      </trkpt>
      <trkpt lat="22.904774" lon="110.839611">
        <ele>120.268273</ele>
        <time>2026-08-18T04:08:09.000Z</time>
      </trkpt>
      <trkpt lat="22.904778" lon="110.839678">
        <ele>120.198386</ele>
        <time>2026-08-18T04:08:10.000Z</time>
      </trkpt>
      <trkpt lat="22.904784" lon="110.839745">
        <ele>120.128317</ele>
        <time>2026-08-18T04:08:11.000Z</time>
      </trkpt>
      <trkpt lat="22.904791" lon="110.839812">
        <ele>120.058130</ele>
        <time>2026-08-18T04:08:12.000Z</time>
      </trkpt>
      <trkpt lat="22.904798" lon="110.839879">
        <ele>119.987943</ele>
        <time>2026-08-18T04:08:13.000Z</time>
      </trkpt>
      <trkpt lat="22.904806" lon="110.839948">
        <ele>119.915555</ele>
        <time>2026-08-18T04:08:14.000Z</time>
      </trkpt>
      <trkpt lat="22.904815" lon="110.840015">
        <ele>119.845077</ele>
        <time>2026-08-18T04:08:15.000Z</time>
      </trkpt>
      <trkpt lat="22.904827" lon="110.840083">
        <ele>119.773009</ele>
        <time>2026-08-18T04:08:16.000Z</time>
      </trkpt>
      <trkpt lat="22.904838" lon="110.840150">
        <ele>119.702170</ele>
        <time>2026-08-18T04:08:17.000Z</time>
      </trkpt>
      <trkpt lat="22.904850" lon="110.840218">
        <ele>119.626914</ele>
        <time>2026-08-18T04:08:18.000Z</time>
      </trkpt>
      <trkpt lat="22.904861" lon="110.840287">
        <ele>119.545854</ele>
        <time>2026-08-18T04:08:19.000Z</time>
      </trkpt>
      <trkpt lat="22.904873" lon="110.840356">
        <ele>119.464570</ele>
        <time>2026-08-18T04:08:20.000Z</time>
      </trkpt>
      <trkpt lat="22.904885" lon="110.840422">
        <ele>119.386696</ele>
        <time>2026-08-18T04:08:21.000Z</time>
      </trkpt>
      <trkpt lat="22.904899" lon="110.840488">
        <ele>119.308296</ele>
        <time>2026-08-18T04:08:22.000Z</time>
      </trkpt>
      <trkpt lat="22.904914" lon="110.840554">
        <ele>119.229605</ele>
        <time>2026-08-18T04:08:23.000Z</time>
      </trkpt>
      <trkpt lat="22.904931" lon="110.840619">
        <ele>119.151389</ele>
        <time>2026-08-18T04:08:24.000Z</time>
      </trkpt>
      <trkpt lat="22.904947" lon="110.840685">
        <ele>119.072387</ele>
        <time>2026-08-18T04:08:25.000Z</time>
      </trkpt>
      <trkpt lat="22.904964" lon="110.840750">
        <ele>118.994170</ele>
        <time>2026-08-18T04:08:26.000Z</time>
      </trkpt>
      <trkpt lat="22.904979" lon="110.840814">
        <ele>118.917725</ele>
        <time>2026-08-18T04:08:27.000Z</time>
      </trkpt>
      <trkpt lat="22.904995" lon="110.840878">
        <ele>118.840960</ele>
        <time>2026-08-18T04:08:28.000Z</time>
      </trkpt>
      <trkpt lat="22.905012" lon="110.840943">
        <ele>118.762744</ele>
        <time>2026-08-18T04:08:29.000Z</time>
      </trkpt>
      <trkpt lat="22.905029" lon="110.841007">
        <ele>118.685640</ele>
        <time>2026-08-18T04:08:30.000Z</time>
      </trkpt>
      <trkpt lat="22.905047" lon="110.841070">
        <ele>118.609285</ele>
        <time>2026-08-18T04:08:31.000Z</time>
      </trkpt>
      <trkpt lat="22.905068" lon="110.841133">
        <ele>118.531730</ele>
        <time>2026-08-18T04:08:32.000Z</time>
      </trkpt>
      <trkpt lat="22.905089" lon="110.841197">
        <ele>118.453085</ele>
        <time>2026-08-18T04:08:33.000Z</time>
      </trkpt>
      <trkpt lat="22.905111" lon="110.841259">
        <ele>118.376175</ele>
        <time>2026-08-18T04:08:34.000Z</time>
      </trkpt>
      <trkpt lat="22.905134" lon="110.841324">
        <ele>118.295572</ele>
        <time>2026-08-18T04:08:35.000Z</time>
      </trkpt>
      <trkpt lat="22.905157" lon="110.841388">
        <ele>118.216049</ele>
        <time>2026-08-18T04:08:36.000Z</time>
      </trkpt>
      <trkpt lat="22.905181" lon="110.841453">
        <ele>118.134987</ele>
        <time>2026-08-18T04:08:37.000Z</time>
      </trkpt>
      <trkpt lat="22.905206" lon="110.841516">
        <ele>118.055580</ele>
        <time>2026-08-18T04:08:38.000Z</time>
      </trkpt>
      <trkpt lat="22.905231" lon="110.841578">
        <ele>117.977236</ele>
        <time>2026-08-18T04:08:39.000Z</time>
      </trkpt>
      <trkpt lat="22.905254" lon="110.841641">
        <ele>117.898790</ele>
        <time>2026-08-18T04:08:40.000Z</time>
      </trkpt>
      <trkpt lat="22.905277" lon="110.841705">
        <ele>117.819266</ele>
        <time>2026-08-18T04:08:41.000Z</time>
      </trkpt>
      <trkpt lat="22.905301" lon="110.841769">
        <ele>117.739278</ele>
        <time>2026-08-18T04:08:42.000Z</time>
      </trkpt>
      <trkpt lat="22.905326" lon="110.841832">
        <ele>117.659871</ele>
        <time>2026-08-18T04:08:43.000Z</time>
      </trkpt>
      <trkpt lat="22.905350" lon="110.841893">
        <ele>117.583088</ele>
        <time>2026-08-18T04:08:44.000Z</time>
      </trkpt>
      <trkpt lat="22.905376" lon="110.841956">
        <ele>117.503176</ele>
        <time>2026-08-18T04:08:45.000Z</time>
      </trkpt>
      <trkpt lat="22.905401" lon="110.842018">
        <ele>117.424832</ele>
        <time>2026-08-18T04:08:46.000Z</time>
      </trkpt>
      <trkpt lat="22.905428" lon="110.842081">
        <ele>117.364684</ele>
        <time>2026-08-18T04:08:47.000Z</time>
      </trkpt>
      <trkpt lat="22.905453" lon="110.842143">
        <ele>117.315851</ele>
        <time>2026-08-18T04:08:48.000Z</time>
      </trkpt>
      <trkpt lat="22.905479" lon="110.842206">
        <ele>117.266040</ele>
        <time>2026-08-18T04:08:49.000Z</time>
      </trkpt>
      <trkpt lat="22.905504" lon="110.842270">
        <ele>117.215882</ele>
        <time>2026-08-18T04:08:50.000Z</time>
      </trkpt>
      <trkpt lat="22.905529" lon="110.842334">
        <ele>117.165723</ele>
        <time>2026-08-18T04:08:51.000Z</time>
      </trkpt>
      <trkpt lat="22.905554" lon="110.842397">
        <ele>117.116228</ele>
        <time>2026-08-18T04:08:52.000Z</time>
      </trkpt>
      <trkpt lat="22.905580" lon="110.842459">
        <ele>117.067075</ele>
        <time>2026-08-18T04:08:53.000Z</time>
      </trkpt>
      <trkpt lat="22.905605" lon="110.842522">
        <ele>117.017580</ele>
        <time>2026-08-18T04:08:54.000Z</time>
      </trkpt>
      <trkpt lat="22.905630" lon="110.842585">
        <ele>116.968085</ele>
        <time>2026-08-18T04:08:55.000Z</time>
      </trkpt>
      <trkpt lat="22.905655" lon="110.842648">
        <ele>116.918590</ele>
        <time>2026-08-18T04:08:56.000Z</time>
      </trkpt>
      <trkpt lat="22.905680" lon="110.842712">
        <ele>116.868431</ele>
        <time>2026-08-18T04:08:57.000Z</time>
      </trkpt>
      <trkpt lat="22.905704" lon="110.842778">
        <ele>116.817234</ele>
        <time>2026-08-18T04:08:58.000Z</time>
      </trkpt>
      <trkpt lat="22.905731" lon="110.842843">
        <ele>116.765786</ele>
        <time>2026-08-18T04:08:59.000Z</time>
      </trkpt>
      <trkpt lat="22.905757" lon="110.842908">
        <ele>116.714655</ele>
        <time>2026-08-18T04:09:00.000Z</time>
      </trkpt>
      <trkpt lat="22.905783" lon="110.842972">
        <ele>116.664186</ele>
        <time>2026-08-18T04:09:01.000Z</time>
      </trkpt>
      <trkpt lat="22.905808" lon="110.843036">
        <ele>116.614027</ele>
        <time>2026-08-18T04:09:02.000Z</time>
      </trkpt>
      <trkpt lat="22.905834" lon="110.843101">
        <ele>116.562897</ele>
        <time>2026-08-18T04:09:03.000Z</time>
      </trkpt>
      <trkpt lat="22.905859" lon="110.843167">
        <ele>116.511407</ele>
        <time>2026-08-18T04:09:04.000Z</time>
      </trkpt>
      <trkpt lat="22.905885" lon="110.843233">
        <ele>116.459613</ele>
        <time>2026-08-18T04:09:05.000Z</time>
      </trkpt>
      <trkpt lat="22.905911" lon="110.843299">
        <ele>116.407820</ele>
        <time>2026-08-18T04:09:06.000Z</time>
      </trkpt>
      <trkpt lat="22.905938" lon="110.843366">
        <ele>116.355054</ele>
        <time>2026-08-18T04:09:07.000Z</time>
      </trkpt>
      <trkpt lat="22.905965" lon="110.843433">
        <ele>116.302288</ele>
        <time>2026-08-18T04:09:08.000Z</time>
      </trkpt>
      <trkpt lat="22.905992" lon="110.843500">
        <ele>116.249521</ele>
        <time>2026-08-18T04:09:09.000Z</time>
      </trkpt>
      <trkpt lat="22.906018" lon="110.843566">
        <ele>116.197728</ele>
        <time>2026-08-18T04:09:10.000Z</time>
      </trkpt>
      <trkpt lat="22.906044" lon="110.843633">
        <ele>116.145271</ele>
        <time>2026-08-18T04:09:11.000Z</time>
      </trkpt>
      <trkpt lat="22.906071" lon="110.843700">
        <ele>116.092505</ele>
        <time>2026-08-18T04:09:12.000Z</time>
      </trkpt>
      <trkpt lat="22.906097" lon="110.843768">
        <ele>116.039382</ele>
        <time>2026-08-18T04:09:13.000Z</time>
      </trkpt>
      <trkpt lat="22.906124" lon="110.843835">
        <ele>115.995753</ele>
        <time>2026-08-18T04:09:14.000Z</time>
      </trkpt>
      <trkpt lat="22.906149" lon="110.843903">
        <ele>116.117592</ele>
        <time>2026-08-18T04:09:15.000Z</time>
      </trkpt>
      <trkpt lat="22.906175" lon="110.843971">
        <ele>116.240112</ele>
        <time>2026-08-18T04:09:16.000Z</time>
      </trkpt>
      <trkpt lat="22.906201" lon="110.844038">
        <ele>116.361096</ele>
        <time>2026-08-18T04:09:17.000Z</time>
      </trkpt>
      <trkpt lat="22.906227" lon="110.844104">
        <ele>116.480549</ele>
        <time>2026-08-18T04:09:18.000Z</time>
      </trkpt>
      <trkpt lat="22.906253" lon="110.844170">
        <ele>116.600002</ele>
        <time>2026-08-18T04:09:19.000Z</time>
      </trkpt>
      <trkpt lat="22.906278" lon="110.844235">
        <ele>116.717218</ele>
        <time>2026-08-18T04:09:20.000Z</time>
      </trkpt>
      <trkpt lat="22.906302" lon="110.844300">
        <ele>116.833751</ele>
        <time>2026-08-18T04:09:21.000Z</time>
      </trkpt>
      <trkpt lat="22.906326" lon="110.844363">
        <ele>116.947200</ele>
        <time>2026-08-18T04:09:22.000Z</time>
      </trkpt>
      <trkpt lat="22.906349" lon="110.844426">
        <ele>117.059972</ele>
        <time>2026-08-18T04:09:23.000Z</time>
      </trkpt>
      <trkpt lat="22.906374" lon="110.844488">
        <ele>117.172598</ele>
        <time>2026-08-18T04:09:24.000Z</time>
      </trkpt>
      <trkpt lat="22.906399" lon="110.844547">
        <ele>117.280670</ele>
        <time>2026-08-18T04:09:25.000Z</time>
      </trkpt>
      <trkpt lat="22.906422" lon="110.844606">
        <ele>117.387281</ele>
        <time>2026-08-18T04:09:26.000Z</time>
      </trkpt>
      <trkpt lat="22.906444" lon="110.844663">
        <ele>117.490125</ele>
        <time>2026-08-18T04:09:27.000Z</time>
      </trkpt>
      <trkpt lat="22.906466" lon="110.844720">
        <ele>117.592968</ele>
        <time>2026-08-18T04:09:28.000Z</time>
      </trkpt>
      <trkpt lat="22.906488" lon="110.844776">
        <ele>117.694279</ele>
        <time>2026-08-18T04:09:29.000Z</time>
      </trkpt>
      <trkpt lat="22.906508" lon="110.844829">
        <ele>117.789590</ele>
        <time>2026-08-18T04:09:30.000Z</time>
      </trkpt>
      <trkpt lat="22.906530" lon="110.844883">
        <ele>117.887848</ele>
        <time>2026-08-18T04:09:31.000Z</time>
      </trkpt>
      <trkpt lat="22.906550" lon="110.844933">
        <ele>117.978558</ele>
        <time>2026-08-18T04:09:32.000Z</time>
      </trkpt>
      <trkpt lat="22.906571" lon="110.844983">
        <ele>118.070004</ele>
        <time>2026-08-18T04:09:33.000Z</time>
      </trkpt>
      <trkpt lat="22.906590" lon="110.845032">
        <ele>118.158474</ele>
        <time>2026-08-18T04:09:34.000Z</time>
      </trkpt>
      <trkpt lat="22.906609" lon="110.845080">
        <ele>118.245414</ele>
        <time>2026-08-18T04:09:35.000Z</time>
      </trkpt>
      <trkpt lat="22.906627" lon="110.845126">
        <ele>118.328582</ele>
        <time>2026-08-18T04:09:36.000Z</time>
      </trkpt>
      <trkpt lat="22.906645" lon="110.845171">
        <ele>118.410222</ele>
        <time>2026-08-18T04:09:37.000Z</time>
      </trkpt>
      <trkpt lat="22.906664" lon="110.845215">
        <ele>118.491088</ele>
        <time>2026-08-18T04:09:38.000Z</time>
      </trkpt>
      <trkpt lat="22.906681" lon="110.845259">
        <ele>118.570488</ele>
        <time>2026-08-18T04:09:39.000Z</time>
      </trkpt>
      <trkpt lat="22.906698" lon="110.845303">
        <ele>118.649888</ele>
        <time>2026-08-18T04:09:40.000Z</time>
      </trkpt>
      <trkpt lat="22.906714" lon="110.845345">
        <ele>118.725522</ele>
        <time>2026-08-18T04:09:41.000Z</time>
      </trkpt>
      <trkpt lat="22.906730" lon="110.845385">
        <ele>118.798090</ele>
        <time>2026-08-18T04:09:42.000Z</time>
      </trkpt>
      <trkpt lat="22.906746" lon="110.845422">
        <ele>118.866109</ele>
        <time>2026-08-18T04:09:43.000Z</time>
      </trkpt>
      <trkpt lat="22.906760" lon="110.845458">
        <ele>118.931136</ele>
        <time>2026-08-18T04:09:44.000Z</time>
      </trkpt>
      <trkpt lat="22.906775" lon="110.845494">
        <ele>118.996887</ele>
        <time>2026-08-18T04:09:45.000Z</time>
      </trkpt>
      <trkpt lat="22.906789" lon="110.845528">
        <ele>119.058862</ele>
        <time>2026-08-18T04:09:46.000Z</time>
      </trkpt>
      <trkpt lat="22.906803" lon="110.845562">
        <ele>119.120836</ele>
        <time>2026-08-18T04:09:47.000Z</time>
      </trkpt>
      <trkpt lat="22.906815" lon="110.845592">
        <ele>119.175263</ele>
        <time>2026-08-18T04:09:48.000Z</time>
      </trkpt>
      <trkpt lat="22.906828" lon="110.845625">
        <ele>119.234989</ele>
        <time>2026-08-18T04:09:49.000Z</time>
      </trkpt>
      <trkpt lat="22.906839" lon="110.845657">
        <ele>119.351108</ele>
        <time>2026-08-18T04:09:50.000Z</time>
      </trkpt>
      <trkpt lat="22.906850" lon="110.845688">
        <ele>119.468109</ele>
        <time>2026-08-18T04:09:51.000Z</time>
      </trkpt>
      <trkpt lat="22.906860" lon="110.845718">
        <ele>119.580473</ele>
        <time>2026-08-18T04:09:52.000Z</time>
      </trkpt>
      <trkpt lat="22.906870" lon="110.845747">
        <ele>119.689532</ele>
        <time>2026-08-18T04:09:53.000Z</time>
      </trkpt>
      <trkpt lat="22.906883" lon="110.845777">
        <ele>119.806298</ele>
        <time>2026-08-18T04:09:54.000Z</time>
      </trkpt>
      <trkpt lat="22.906895" lon="110.845808">
        <ele>119.924728</ele>
        <time>2026-08-18T04:09:55.000Z</time>
      </trkpt>
      <trkpt lat="22.906907" lon="110.845839">
        <ele>120.043157</ele>
        <time>2026-08-18T04:09:56.000Z</time>
      </trkpt>
      <trkpt lat="22.906919" lon="110.845869">
        <ele>120.158348</ele>
        <time>2026-08-18T04:09:57.000Z</time>
      </trkpt>
      <trkpt lat="22.906932" lon="110.845900">
        <ele>120.278310</ele>
        <time>2026-08-18T04:09:58.000Z</time>
      </trkpt>
      <trkpt lat="22.906945" lon="110.845932">
        <ele>120.401486</ele>
        <time>2026-08-18T04:09:59.000Z</time>
      </trkpt>
      <trkpt lat="22.906958" lon="110.845963">
        <ele>120.521449</ele>
        <time>2026-08-18T04:10:00.000Z</time>
      </trkpt>
      <trkpt lat="22.906971" lon="110.845994">
        <ele>120.641411</ele>
        <time>2026-08-18T04:10:01.000Z</time>
      </trkpt>
      <trkpt lat="22.906981" lon="110.846027">
        <ele>120.763763</ele>
        <time>2026-08-18T04:10:02.000Z</time>
      </trkpt>
      <trkpt lat="22.906994" lon="110.846059">
        <ele>120.886940</ele>
        <time>2026-08-18T04:10:03.000Z</time>
      </trkpt>
      <trkpt lat="22.907006" lon="110.846090">
        <ele>121.005369</ele>
        <time>2026-08-18T04:10:04.000Z</time>
      </trkpt>
      <trkpt lat="22.907018" lon="110.846120">
        <ele>121.120560</ele>
        <time>2026-08-18T04:10:05.000Z</time>
      </trkpt>
      <trkpt lat="22.907031" lon="110.846150">
        <ele>121.237326</ele>
        <time>2026-08-18T04:10:06.000Z</time>
      </trkpt>
      <trkpt lat="22.907042" lon="110.846178">
        <ele>121.344535</ele>
        <time>2026-08-18T04:10:07.000Z</time>
      </trkpt>
      <trkpt lat="22.907053" lon="110.846207">
        <ele>121.454992</ele>
        <time>2026-08-18T04:10:08.000Z</time>
      </trkpt>
      <trkpt lat="22.907063" lon="110.846235">
        <ele>121.560759</ele>
        <time>2026-08-18T04:10:09.000Z</time>
      </trkpt>
      <trkpt lat="22.907073" lon="110.846263">
        <ele>121.666526</ele>
        <time>2026-08-18T04:10:10.000Z</time>
      </trkpt>
      <trkpt lat="22.907083" lon="110.846290">
        <ele>121.769018</ele>
        <time>2026-08-18T04:10:11.000Z</time>
      </trkpt>
      <trkpt lat="22.907093" lon="110.846316">
        <ele>121.868250</ele>
        <time>2026-08-18T04:10:12.000Z</time>
      </trkpt>
      <trkpt lat="22.907105" lon="110.846343">
        <ele>121.973833</ele>
        <time>2026-08-18T04:10:13.000Z</time>
      </trkpt>
      <trkpt lat="22.907115" lon="110.846370">
        <ele>122.076324</ele>
        <time>2026-08-18T04:10:14.000Z</time>
      </trkpt>
      <trkpt lat="22.907125" lon="110.846396">
        <ele>122.175557</ele>
        <time>2026-08-18T04:10:15.000Z</time>
      </trkpt>
      <trkpt lat="22.907134" lon="110.846420">
        <ele>122.266820</ele>
        <time>2026-08-18T04:10:16.000Z</time>
      </trkpt>
      <trkpt lat="22.907144" lon="110.846444">
        <ele>122.359592</ele>
        <time>2026-08-18T04:10:17.000Z</time>
      </trkpt>
      <trkpt lat="22.907153" lon="110.846467">
        <ele>122.447603</ele>
        <time>2026-08-18T04:10:18.000Z</time>
      </trkpt>
      <trkpt lat="22.907163" lon="110.846491">
        <ele>122.540375</ele>
        <time>2026-08-18T04:10:19.000Z</time>
      </trkpt>
      <trkpt lat="22.907172" lon="110.846514">
        <ele>122.628386</ele>
        <time>2026-08-18T04:10:20.000Z</time>
      </trkpt>
      <trkpt lat="22.907182" lon="110.846536">
        <ele>122.714789</ele>
        <time>2026-08-18T04:10:21.000Z</time>
      </trkpt>
      <trkpt lat="22.907192" lon="110.846559">
        <ele>122.804364</ele>
        <time>2026-08-18T04:10:22.000Z</time>
      </trkpt>
      <trkpt lat="22.907202" lon="110.846583">
        <ele>122.897136</ele>
        <time>2026-08-18T04:10:23.000Z</time>
      </trkpt>
      <trkpt lat="22.907211" lon="110.846606">
        <ele>122.985146</ele>
        <time>2026-08-18T04:10:24.000Z</time>
      </trkpt>
      <trkpt lat="22.907220" lon="110.846630">
        <ele>123.076409</ele>
        <time>2026-08-18T04:10:25.000Z</time>
      </trkpt>
      <trkpt lat="22.907227" lon="110.846654">
        <ele>123.165072</ele>
        <time>2026-08-18T04:10:26.000Z</time>
      </trkpt>
      <trkpt lat="22.907236" lon="110.846677">
        <ele>123.253083</ele>
        <time>2026-08-18T04:10:27.000Z</time>
      </trkpt>
      <trkpt lat="22.907246" lon="110.846699">
        <ele>123.339486</ele>
        <time>2026-08-18T04:10:28.000Z</time>
      </trkpt>
      <trkpt lat="22.907258" lon="110.846723">
        <ele>123.435662</ele>
        <time>2026-08-18T04:10:29.000Z</time>
      </trkpt>
      <trkpt lat="22.907269" lon="110.846745">
        <ele>123.523824</ele>
        <time>2026-08-18T04:10:30.000Z</time>
      </trkpt>
      <trkpt lat="22.907279" lon="110.846768">
        <ele>123.613399</ele>
        <time>2026-08-18T04:10:31.000Z</time>
      </trkpt>
      <trkpt lat="22.907289" lon="110.846791">
        <ele>123.702973</ele>
        <time>2026-08-18T04:10:32.000Z</time>
      </trkpt>
      <trkpt lat="22.907298" lon="110.846814">
        <ele>123.790984</ele>
        <time>2026-08-18T04:10:33.000Z</time>
      </trkpt>
      <trkpt lat="22.907307" lon="110.846838">
        <ele>123.882247</ele>
        <time>2026-08-18T04:10:34.000Z</time>
      </trkpt>
      <trkpt lat="22.907317" lon="110.846861">
        <ele>123.971822</ele>
        <time>2026-08-18T04:10:35.000Z</time>
      </trkpt>
      <trkpt lat="22.907326" lon="110.846885">
        <ele>124.063085</ele>
        <time>2026-08-18T04:10:36.000Z</time>
      </trkpt>
      <trkpt lat="22.907336" lon="110.846907">
        <ele>124.149487</ele>
        <time>2026-08-18T04:10:37.000Z</time>
      </trkpt>
      <trkpt lat="22.907345" lon="110.846932">
        <ele>124.244022</ele>
        <time>2026-08-18T04:10:38.000Z</time>
      </trkpt>
      <trkpt lat="22.907355" lon="110.846958">
        <ele>124.343254</ele>
        <time>2026-08-18T04:10:39.000Z</time>
      </trkpt>
      <trkpt lat="22.907366" lon="110.846983">
        <ele>124.440832</ele>
        <time>2026-08-18T04:10:40.000Z</time>
      </trkpt>
      <trkpt lat="22.907378" lon="110.847008">
        <ele>124.540117</ele>
        <time>2026-08-18T04:10:41.000Z</time>
      </trkpt>
      <trkpt lat="22.907388" lon="110.847033">
        <ele>124.636109</ele>
        <time>2026-08-18T04:10:42.000Z</time>
      </trkpt>
      <trkpt lat="22.907396" lon="110.847060">
        <ele>124.736000</ele>
        <time>2026-08-18T04:10:43.000Z</time>
      </trkpt>
      <trkpt lat="22.907405" lon="110.847085">
        <ele>124.830534</ele>
        <time>2026-08-18T04:10:44.000Z</time>
      </trkpt>
      <trkpt lat="22.907414" lon="110.847109">
        <ele>124.921797</ele>
        <time>2026-08-18T04:10:45.000Z</time>
      </trkpt>
      <trkpt lat="22.907423" lon="110.847134">
        <ele>125.016331</ele>
        <time>2026-08-18T04:10:46.000Z</time>
      </trkpt>
      <trkpt lat="22.907432" lon="110.847158">
        <ele>125.107593</ele>
        <time>2026-08-18T04:10:47.000Z</time>
      </trkpt>
      <trkpt lat="22.907442" lon="110.847180">
        <ele>125.193996</ele>
        <time>2026-08-18T04:10:48.000Z</time>
      </trkpt>
      <trkpt lat="22.907453" lon="110.847205">
        <ele>125.291574</ele>
        <time>2026-08-18T04:10:49.000Z</time>
      </trkpt>
      <trkpt lat="22.907463" lon="110.847231">
        <ele>125.390806</ele>
        <time>2026-08-18T04:10:50.000Z</time>
      </trkpt>
      <trkpt lat="22.907473" lon="110.847258">
        <ele>125.493298</ele>
        <time>2026-08-18T04:10:51.000Z</time>
      </trkpt>
      <trkpt lat="22.907483" lon="110.847284">
        <ele>125.592530</ele>
        <time>2026-08-18T04:10:52.000Z</time>
      </trkpt>
      <trkpt lat="22.907493" lon="110.847311">
        <ele>125.695021</ele>
        <time>2026-08-18T04:10:53.000Z</time>
      </trkpt>
      <trkpt lat="22.907504" lon="110.847337">
        <ele>125.795788</ele>
        <time>2026-08-18T04:10:54.000Z</time>
      </trkpt>
      <trkpt lat="22.907516" lon="110.847364">
        <ele>125.901371</ele>
        <time>2026-08-18T04:10:55.000Z</time>
      </trkpt>
      <trkpt lat="22.907526" lon="110.847391">
        <ele>126.003862</ele>
        <time>2026-08-18T04:10:56.000Z</time>
      </trkpt>
      <trkpt lat="22.907537" lon="110.847418">
        <ele>126.107840</ele>
        <time>2026-08-18T04:10:57.000Z</time>
      </trkpt>
      <trkpt lat="22.907548" lon="110.847446">
        <ele>126.109843</ele>
        <time>2026-08-18T04:10:58.000Z</time>
      </trkpt>
      <trkpt lat="22.907558" lon="110.847474">
        <ele>126.103493</ele>
        <time>2026-08-18T04:10:59.000Z</time>
      </trkpt>
      <trkpt lat="22.907569" lon="110.847502">
        <ele>126.097057</ele>
        <time>2026-08-18T04:11:00.000Z</time>
      </trkpt>
      <trkpt lat="22.907580" lon="110.847529">
        <ele>126.090814</ele>
        <time>2026-08-18T04:11:01.000Z</time>
      </trkpt>
      <trkpt lat="22.907591" lon="110.847556">
        <ele>126.084572</ele>
        <time>2026-08-18T04:11:02.000Z</time>
      </trkpt>
      <trkpt lat="22.907602" lon="110.847582">
        <ele>126.078523</ele>
        <time>2026-08-18T04:11:03.000Z</time>
      </trkpt>
      <trkpt lat="22.907614" lon="110.847609">
        <ele>126.072184</ele>
        <time>2026-08-18T04:11:04.000Z</time>
      </trkpt>
      <trkpt lat="22.907626" lon="110.847637">
        <ele>126.065654</ele>
        <time>2026-08-18T04:11:05.000Z</time>
      </trkpt>
      <trkpt lat="22.907638" lon="110.847664">
        <ele>126.059316</ele>
        <time>2026-08-18T04:11:06.000Z</time>
      </trkpt>
      <trkpt lat="22.907649" lon="110.847692">
        <ele>126.052879</ele>
        <time>2026-08-18T04:11:07.000Z</time>
      </trkpt>
      <trkpt lat="22.907660" lon="110.847722">
        <ele>126.046052</ele>
        <time>2026-08-18T04:11:08.000Z</time>
      </trkpt>
      <trkpt lat="22.907670" lon="110.847754">
        <ele>126.038907</ele>
        <time>2026-08-18T04:11:09.000Z</time>
      </trkpt>
      <trkpt lat="22.907681" lon="110.847786">
        <ele>126.031686</ele>
        <time>2026-08-18T04:11:10.000Z</time>
      </trkpt>
      <trkpt lat="22.907692" lon="110.847819">
        <ele>126.024265</ele>
        <time>2026-08-18T04:11:11.000Z</time>
      </trkpt>
      <trkpt lat="22.907702" lon="110.847851">
        <ele>126.017120</ele>
        <time>2026-08-18T04:11:12.000Z</time>
      </trkpt>
      <trkpt lat="22.907712" lon="110.847881">
        <ele>126.010375</ele>
        <time>2026-08-18T04:11:13.000Z</time>
      </trkpt>
      <trkpt lat="22.907723" lon="110.847908">
        <ele>126.004132</ele>
        <time>2026-08-18T04:11:14.000Z</time>
      </trkpt>
      <trkpt lat="22.907734" lon="110.847934">
        <ele>125.998083</ele>
        <time>2026-08-18T04:11:15.000Z</time>
      </trkpt>
      <trkpt lat="22.907744" lon="110.847959">
        <ele>125.992320</ele>
        <time>2026-08-18T04:11:16.000Z</time>
      </trkpt>
      <trkpt lat="22.907753" lon="110.847982">
        <ele>125.987036</ele>
        <time>2026-08-18T04:11:17.000Z</time>
      </trkpt>
      <trkpt lat="22.907760" lon="110.848004">
        <ele>125.982115</ele>
        <time>2026-08-18T04:11:18.000Z</time>
      </trkpt>
      <trkpt lat="22.907767" lon="110.848027">
        <ele>125.976993</ele>
        <time>2026-08-18T04:11:19.000Z</time>
      </trkpt>
      <trkpt lat="22.907771" lon="110.848050">
        <ele>125.972044</ele>
        <time>2026-08-18T04:11:20.000Z</time>
      </trkpt>
      <trkpt lat="22.907780" lon="110.848077">
        <ele>125.965973</ele>
        <time>2026-08-18T04:11:21.000Z</time>
      </trkpt>
      <trkpt lat="22.907789" lon="110.848101">
        <ele>125.960494</ele>
        <time>2026-08-18T04:11:22.000Z</time>
      </trkpt>
      <trkpt lat="22.907798" lon="110.848128">
        <ele>125.954423</ele>
        <time>2026-08-18T04:11:23.000Z</time>
      </trkpt>
      <trkpt lat="22.907810" lon="110.848157">
        <ele>125.947701</ele>
        <time>2026-08-18T04:11:24.000Z</time>
      </trkpt>
      <trkpt lat="22.907823" lon="110.848185">
        <ele>125.941071</ele>
        <time>2026-08-18T04:11:25.000Z</time>
      </trkpt>
      <trkpt lat="22.907836" lon="110.848213">
        <ele>125.934441</ele>
        <time>2026-08-18T04:11:26.000Z</time>
      </trkpt>
      <trkpt lat="22.907848" lon="110.848243">
        <ele>125.927526</ele>
        <time>2026-08-18T04:11:27.000Z</time>
      </trkpt>
      <trkpt lat="22.907858" lon="110.848274">
        <ele>125.920581</ele>
        <time>2026-08-18T04:11:28.000Z</time>
      </trkpt>
      <trkpt lat="22.907872" lon="110.848305">
        <ele>125.913281</ele>
        <time>2026-08-18T04:11:29.000Z</time>
      </trkpt>
      <trkpt lat="22.907888" lon="110.848338">
        <ele>125.905396</ele>
        <time>2026-08-18T04:11:30.000Z</time>
      </trkpt>
      <trkpt lat="22.907902" lon="110.848370">
        <ele>125.897906</ele>
        <time>2026-08-18T04:11:31.000Z</time>
      </trkpt>
      <trkpt lat="22.907913" lon="110.848401">
        <ele>125.890882</ele>
        <time>2026-08-18T04:11:32.000Z</time>
      </trkpt>
      <trkpt lat="22.907920" lon="110.848429">
        <ele>125.884747</ele>
        <time>2026-08-18T04:11:33.000Z</time>
      </trkpt>
      <trkpt lat="22.907931" lon="110.848460">
        <ele>125.877723</ele>
        <time>2026-08-18T04:11:34.000Z</time>
      </trkpt>
      <trkpt lat="22.907945" lon="110.848492">
        <ele>125.870233</ele>
        <time>2026-08-18T04:11:35.000Z</time>
      </trkpt>
      <trkpt lat="22.907958" lon="110.848524">
        <ele>125.862838</ele>
        <time>2026-08-18T04:11:36.000Z</time>
      </trkpt>
      <trkpt lat="22.907972" lon="110.848559">
        <ele>125.854770</ele>
        <time>2026-08-18T04:11:37.000Z</time>
      </trkpt>
      <trkpt lat="22.907985" lon="110.848595">
        <ele>125.846594</ele>
        <time>2026-08-18T04:11:38.000Z</time>
      </trkpt>
      <trkpt lat="22.907996" lon="110.848632">
        <ele>125.838373</ele>
        <time>2026-08-18T04:11:39.000Z</time>
      </trkpt>
      <trkpt lat="22.908009" lon="110.848671">
        <ele>125.829604</ele>
        <time>2026-08-18T04:11:40.000Z</time>
      </trkpt>
      <trkpt lat="22.908027" lon="110.848709">
        <ele>125.820569</ele>
        <time>2026-08-18T04:11:41.000Z</time>
      </trkpt>
      <trkpt lat="22.908045" lon="110.848747">
        <ele>125.811534</ele>
        <time>2026-08-18T04:11:42.000Z</time>
      </trkpt>
      <trkpt lat="22.908061" lon="110.848788">
        <ele>125.802120</ele>
        <time>2026-08-18T04:11:43.000Z</time>
      </trkpt>
      <trkpt lat="22.908077" lon="110.848828">
        <ele>125.792899</ele>
        <time>2026-08-18T04:11:44.000Z</time>
      </trkpt>
      <trkpt lat="22.908091" lon="110.848867">
        <ele>125.784049</ele>
        <time>2026-08-18T04:11:45.000Z</time>
      </trkpt>
      <trkpt lat="22.908107" lon="110.848908">
        <ele>125.774634</ele>
        <time>2026-08-18T04:11:46.000Z</time>
      </trkpt>
      <trkpt lat="22.908122" lon="110.848950">
        <ele>125.765110</ele>
        <time>2026-08-18T04:11:47.000Z</time>
      </trkpt>
      <trkpt lat="22.908140" lon="110.848990">
        <ele>125.755697</ele>
        <time>2026-08-18T04:11:48.000Z</time>
      </trkpt>
      <trkpt lat="22.908157" lon="110.849031">
        <ele>125.746190</ele>
        <time>2026-08-18T04:11:49.000Z</time>
      </trkpt>
      <trkpt lat="22.908175" lon="110.849073">
        <ele>125.736395</ele>
        <time>2026-08-18T04:11:50.000Z</time>
      </trkpt>
      <trkpt lat="22.908194" lon="110.849116">
        <ele>125.726312</ele>
        <time>2026-08-18T04:11:51.000Z</time>
      </trkpt>
      <trkpt lat="22.908211" lon="110.849160">
        <ele>125.716223</ele>
        <time>2026-08-18T04:11:52.000Z</time>
      </trkpt>
      <trkpt lat="22.908230" lon="110.849204">
        <ele>125.705948</ele>
        <time>2026-08-18T04:11:53.000Z</time>
      </trkpt>
      <trkpt lat="22.908248" lon="110.849248">
        <ele>125.589814</ele>
        <time>2026-08-18T04:11:54.000Z</time>
      </trkpt>
      <trkpt lat="22.908269" lon="110.849293">
        <ele>125.421482</ele>
        <time>2026-08-18T04:11:55.000Z</time>
      </trkpt>
      <trkpt lat="22.908289" lon="110.849338">
        <ele>125.254757</ele>
        <time>2026-08-18T04:11:56.000Z</time>
      </trkpt>
      <trkpt lat="22.908308" lon="110.849384">
        <ele>125.086535</ele>
        <time>2026-08-18T04:11:57.000Z</time>
      </trkpt>
      <trkpt lat="22.908327" lon="110.849432">
        <ele>124.912202</ele>
        <time>2026-08-18T04:11:58.000Z</time>
      </trkpt>
      <trkpt lat="22.908348" lon="110.849483">
        <ele>124.725791</ele>
        <time>2026-08-18T04:11:59.000Z</time>
      </trkpt>
      <trkpt lat="22.908368" lon="110.849534">
        <ele>124.540829</ele>
        <time>2026-08-18T04:12:00.000Z</time>
      </trkpt>
      <trkpt lat="22.908388" lon="110.849587">
        <ele>124.349709</ele>
        <time>2026-08-18T04:12:01.000Z</time>
      </trkpt>
      <trkpt lat="22.908409" lon="110.849641">
        <ele>124.154116</ele>
        <time>2026-08-18T04:12:02.000Z</time>
      </trkpt>
      <trkpt lat="22.908430" lon="110.849697">
        <ele>123.952359</ele>
        <time>2026-08-18T04:12:03.000Z</time>
      </trkpt>
      <trkpt lat="22.908453" lon="110.849753">
        <ele>123.747759</ele>
        <time>2026-08-18T04:12:04.000Z</time>
      </trkpt>
      <trkpt lat="22.908477" lon="110.849812">
        <ele>123.532540</ele>
        <time>2026-08-18T04:12:05.000Z</time>
      </trkpt>
      <trkpt lat="22.908500" lon="110.849873">
        <ele>123.312598</ele>
        <time>2026-08-18T04:12:06.000Z</time>
      </trkpt>
      <trkpt lat="22.908523" lon="110.849937">
        <ele>123.083360</ele>
        <time>2026-08-18T04:12:07.000Z</time>
      </trkpt>
      <trkpt lat="22.908546" lon="110.850002">
        <ele>122.851009</ele>
        <time>2026-08-18T04:12:08.000Z</time>
      </trkpt>
      <trkpt lat="22.908570" lon="110.850068">
        <ele>122.614235</ele>
        <time>2026-08-18T04:12:09.000Z</time>
      </trkpt>
      <trkpt lat="22.908595" lon="110.850132">
        <ele>122.382265</ele>
        <time>2026-08-18T04:12:10.000Z</time>
      </trkpt>
      <trkpt lat="22.908622" lon="110.850199">
        <ele>122.138235</ele>
        <time>2026-08-18T04:12:11.000Z</time>
      </trkpt>
      <trkpt lat="22.908647" lon="110.850268">
        <ele>121.890819</ele>
        <time>2026-08-18T04:12:12.000Z</time>
      </trkpt>
      <trkpt lat="22.908674" lon="110.850339">
        <ele>121.634504</ele>
        <time>2026-08-18T04:12:13.000Z</time>
      </trkpt>
      <trkpt lat="22.908702" lon="110.850410">
        <ele>121.376786</ele>
        <time>2026-08-18T04:12:14.000Z</time>
      </trkpt>
      <trkpt lat="22.908730" lon="110.850482">
        <ele>121.115996</ele>
        <time>2026-08-18T04:12:15.000Z</time>
      </trkpt>
      <trkpt lat="22.908758" lon="110.850557">
        <ele>120.845957</ele>
        <time>2026-08-18T04:12:16.000Z</time>
      </trkpt>
      <trkpt lat="22.908786" lon="110.850633">
        <ele>120.572821</ele>
        <time>2026-08-18T04:12:17.000Z</time>
      </trkpt>
      <trkpt lat="22.908815" lon="110.850709">
        <ele>120.298320</ele>
        <time>2026-08-18T04:12:18.000Z</time>
      </trkpt>
      <trkpt lat="22.908842" lon="110.850787">
        <ele>120.020273</ele>
        <time>2026-08-18T04:12:19.000Z</time>
      </trkpt>
      <trkpt lat="22.908871" lon="110.850865">
        <ele>119.739594</ele>
        <time>2026-08-18T04:12:20.000Z</time>
      </trkpt>
      <trkpt lat="22.908898" lon="110.850943">
        <ele>119.461547</ele>
        <time>2026-08-18T04:12:21.000Z</time>
      </trkpt>
      <trkpt lat="22.908922" lon="110.851025">
        <ele>119.181893</ele>
        <time>2026-08-18T04:12:22.000Z</time>
      </trkpt>
      <trkpt lat="22.908941" lon="110.851107">
        <ele>119.064989</ele>
        <time>2026-08-18T04:12:23.000Z</time>
      </trkpt>
      <trkpt lat="22.908960" lon="110.851189">
        <ele>118.948086</ele>
        <time>2026-08-18T04:12:24.000Z</time>
      </trkpt>
      <trkpt lat="22.908979" lon="110.851273">
        <ele>118.828499</ele>
        <time>2026-08-18T04:12:25.000Z</time>
      </trkpt>
      <trkpt lat="22.908996" lon="110.851358">
        <ele>118.708242</ele>
        <time>2026-08-18T04:12:26.000Z</time>
      </trkpt>
      <trkpt lat="22.909012" lon="110.851441">
        <ele>118.591001</ele>
        <time>2026-08-18T04:12:27.000Z</time>
      </trkpt>
      <trkpt lat="22.909026" lon="110.851524">
        <ele>118.474339</ele>
        <time>2026-08-18T04:12:28.000Z</time>
      </trkpt>
      <trkpt lat="22.909035" lon="110.851607">
        <ele>118.358793</ele>
        <time>2026-08-18T04:12:29.000Z</time>
      </trkpt>
      <trkpt lat="22.909040" lon="110.851691">
        <ele>118.242414</ele>
        <time>2026-08-18T04:12:30.000Z</time>
      </trkpt>
      <trkpt lat="22.909045" lon="110.851774">
        <ele>118.127415</ele>
        <time>2026-08-18T04:12:31.000Z</time>
      </trkpt>
      <trkpt lat="22.909050" lon="110.851856">
        <ele>118.013795</ele>
        <time>2026-08-18T04:12:32.000Z</time>
      </trkpt>
      <trkpt lat="22.909057" lon="110.851939">
        <ele>117.898561</ele>
        <time>2026-08-18T04:12:33.000Z</time>
      </trkpt>
      <trkpt lat="22.909062" lon="110.852022">
        <ele>117.783562</ele>
        <time>2026-08-18T04:12:34.000Z</time>
      </trkpt>
      <trkpt lat="22.909065" lon="110.852104">
        <ele>117.670101</ele>
        <time>2026-08-18T04:12:35.000Z</time>
      </trkpt>
      <trkpt lat="22.909065" lon="110.852186">
        <ele>117.556730</ele>
        <time>2026-08-18T04:12:36.000Z</time>
      </trkpt>
      <trkpt lat="22.909061" lon="110.852266">
        <ele>117.445961</ele>
        <time>2026-08-18T04:12:37.000Z</time>
      </trkpt>
      <trkpt lat="22.909056" lon="110.852345">
        <ele>117.336479</ele>
        <time>2026-08-18T04:12:38.000Z</time>
      </trkpt>
      <trkpt lat="22.909052" lon="110.852425">
        <ele>117.225710</ele>
        <time>2026-08-18T04:12:39.000Z</time>
      </trkpt>
      <trkpt lat="22.909047" lon="110.852504">
        <ele>117.116229</ele>
        <time>2026-08-18T04:12:40.000Z</time>
      </trkpt>
      <trkpt lat="22.909040" lon="110.852578">
        <ele>117.013380</ele>
        <time>2026-08-18T04:12:41.000Z</time>
      </trkpt>
      <trkpt lat="22.909030" lon="110.852653">
        <ele>116.908606</ele>
        <time>2026-08-18T04:12:42.000Z</time>
      </trkpt>
      <trkpt lat="22.909016" lon="110.852727">
        <ele>116.804159</ele>
        <time>2026-08-18T04:12:43.000Z</time>
      </trkpt>
      <trkpt lat="22.909005" lon="110.852801">
        <ele>116.700525</ele>
        <time>2026-08-18T04:12:44.000Z</time>
      </trkpt>
      <trkpt lat="22.908993" lon="110.852873">
        <ele>116.599363</ele>
        <time>2026-08-18T04:12:45.000Z</time>
      </trkpt>
      <trkpt lat="22.908981" lon="110.852944">
        <ele>116.499561</ele>
        <time>2026-08-18T04:12:46.000Z</time>
      </trkpt>
      <trkpt lat="22.908968" lon="110.853016">
        <ele>116.479844</ele>
        <time>2026-08-18T04:12:47.000Z</time>
      </trkpt>
      <trkpt lat="22.908956" lon="110.853086">
        <ele>116.471457</ele>
        <time>2026-08-18T04:12:48.000Z</time>
      </trkpt>
      <trkpt lat="22.908941" lon="110.853157">
        <ele>116.462877</ele>
        <time>2026-08-18T04:12:49.000Z</time>
      </trkpt>
      <trkpt lat="22.908923" lon="110.853226">
        <ele>116.454429</ele>
        <time>2026-08-18T04:12:50.000Z</time>
      </trkpt>
      <trkpt lat="22.908903" lon="110.853294">
        <ele>116.446021</ele>
        <time>2026-08-18T04:12:51.000Z</time>
      </trkpt>
      <trkpt lat="22.908883" lon="110.853363">
        <ele>116.437500</ele>
        <time>2026-08-18T04:12:52.000Z</time>
      </trkpt>
      <trkpt lat="22.908866" lon="110.853432">
        <ele>116.429087</ele>
        <time>2026-08-18T04:12:53.000Z</time>
      </trkpt>
      <trkpt lat="22.908848" lon="110.853501">
        <ele>116.420640</ele>
        <time>2026-08-18T04:12:54.000Z</time>
      </trkpt>
      <trkpt lat="22.908836" lon="110.853570">
        <ele>116.412368</ele>
        <time>2026-08-18T04:12:55.000Z</time>
      </trkpt>
      <trkpt lat="22.908826" lon="110.853637">
        <ele>116.404373</ele>
        <time>2026-08-18T04:12:56.000Z</time>
      </trkpt>
      <trkpt lat="22.908815" lon="110.853704">
        <ele>116.396357</ele>
        <time>2026-08-18T04:12:57.000Z</time>
      </trkpt>
      <trkpt lat="22.908803" lon="110.853771">
        <ele>116.388317</ele>
        <time>2026-08-18T04:12:58.000Z</time>
      </trkpt>
      <trkpt lat="22.908793" lon="110.853839">
        <ele>116.380206</ele>
        <time>2026-08-18T04:12:59.000Z</time>
      </trkpt>
      <trkpt lat="22.908782" lon="110.853905">
        <ele>116.372305</ele>
        <time>2026-08-18T04:13:00.000Z</time>
      </trkpt>
      <trkpt lat="22.908771" lon="110.853972">
        <ele>116.364289</ele>
        <time>2026-08-18T04:13:01.000Z</time>
      </trkpt>
      <trkpt lat="22.908758" lon="110.854037">
        <ele>116.356454</ele>
        <time>2026-08-18T04:13:02.000Z</time>
      </trkpt>
      <trkpt lat="22.908747" lon="110.854102">
        <ele>116.348669</ele>
        <time>2026-08-18T04:13:03.000Z</time>
      </trkpt>
      <trkpt lat="22.908739" lon="110.854164">
        <ele>116.341294</ele>
        <time>2026-08-18T04:13:04.000Z</time>
      </trkpt>
      <trkpt lat="22.908729" lon="110.854226">
        <ele>116.333880</ele>
        <time>2026-08-18T04:13:05.000Z</time>
      </trkpt>
      <trkpt lat="22.908719" lon="110.854288">
        <ele>116.326466</ele>
        <time>2026-08-18T04:13:06.000Z</time>
      </trkpt>
      <trkpt lat="22.908713" lon="110.854350">
        <ele>116.319123</ele>
        <time>2026-08-18T04:13:07.000Z</time>
      </trkpt>
      <trkpt lat="22.908708" lon="110.854412">
        <ele>116.311792</ele>
        <time>2026-08-18T04:13:08.000Z</time>
      </trkpt>
      <trkpt lat="22.908701" lon="110.854475">
        <ele>116.304317</ele>
        <time>2026-08-18T04:13:09.000Z</time>
      </trkpt>
      <trkpt lat="22.908693" lon="110.854538">
        <ele>116.296826</ele>
        <time>2026-08-18T04:13:10.000Z</time>
      </trkpt>
      <trkpt lat="22.908684" lon="110.854601">
        <ele>116.289316</ele>
        <time>2026-08-18T04:13:11.000Z</time>
      </trkpt>
      <trkpt lat="22.908678" lon="110.854663">
        <ele>116.281973</ele>
        <time>2026-08-18T04:13:12.000Z</time>
      </trkpt>
      <trkpt lat="22.908669" lon="110.854727">
        <ele>116.274347</ele>
        <time>2026-08-18T04:13:13.000Z</time>
      </trkpt>
      <trkpt lat="22.908656" lon="110.854790">
        <ele>116.266742</ele>
        <time>2026-08-18T04:13:14.000Z</time>
      </trkpt>
      <trkpt lat="22.908640" lon="110.854850">
        <ele>116.259384</ele>
        <time>2026-08-18T04:13:15.000Z</time>
      </trkpt>
      <trkpt lat="22.908623" lon="110.854910">
        <ele>116.286085</ele>
        <time>2026-08-18T04:13:16.000Z</time>
      </trkpt>
      <trkpt lat="22.908605" lon="110.854974">
        <ele>116.327452</ele>
        <time>2026-08-18T04:13:17.000Z</time>
      </trkpt>
      <trkpt lat="22.908587" lon="110.855037">
        <ele>116.368228</ele>
        <time>2026-08-18T04:13:18.000Z</time>
      </trkpt>
      <trkpt lat="22.908577" lon="110.855096">
        <ele>116.405314</ele>
        <time>2026-08-18T04:13:19.000Z</time>
      </trkpt>
      <trkpt lat="22.908570" lon="110.855154">
        <ele>116.441475</ele>
        <time>2026-08-18T04:13:20.000Z</time>
      </trkpt>
      <trkpt lat="22.908562" lon="110.855212">
        <ele>116.477730</ele>
        <time>2026-08-18T04:13:21.000Z</time>
      </trkpt>
      <trkpt lat="22.908557" lon="110.855268">
        <ele>116.512511</ele>
        <time>2026-08-18T04:13:22.000Z</time>
      </trkpt>
      <trkpt lat="22.908551" lon="110.855323">
        <ele>116.546749</ele>
        <time>2026-08-18T04:13:23.000Z</time>
      </trkpt>
      <trkpt lat="22.908546" lon="110.855378">
        <ele>116.580915</ele>
        <time>2026-08-18T04:13:24.000Z</time>
      </trkpt>
      <trkpt lat="22.908539" lon="110.855435">
        <ele>116.616463</ele>
        <time>2026-08-18T04:13:25.000Z</time>
      </trkpt>
      <trkpt lat="22.908533" lon="110.855490">
        <ele>116.650701</ele>
        <time>2026-08-18T04:13:26.000Z</time>
      </trkpt>
      <trkpt lat="22.908530" lon="110.855543">
        <ele>116.683527</ele>
        <time>2026-08-18T04:13:27.000Z</time>
      </trkpt>
      <trkpt lat="22.908524" lon="110.855595">
        <ele>116.715924</ele>
        <time>2026-08-18T04:13:28.000Z</time>
      </trkpt>
      <trkpt lat="22.908519" lon="110.855647">
        <ele>116.748245</ele>
        <time>2026-08-18T04:13:29.000Z</time>
      </trkpt>
      <trkpt lat="22.908514" lon="110.855699">
        <ele>116.780565</ele>
        <time>2026-08-18T04:13:30.000Z</time>
      </trkpt>
      <trkpt lat="22.908510" lon="110.855749">
        <ele>116.811591</ele>
        <time>2026-08-18T04:13:31.000Z</time>
      </trkpt>
      <trkpt lat="22.908508" lon="110.855798">
        <ele>116.841912</ele>
        <time>2026-08-18T04:13:32.000Z</time>
      </trkpt>
      <trkpt lat="22.908506" lon="110.855847">
        <ele>116.872233</ele>
        <time>2026-08-18T04:13:33.000Z</time>
      </trkpt>
      <trkpt lat="22.908505" lon="110.855898">
        <ele>116.903768</ele>
        <time>2026-08-18T04:13:34.000Z</time>
      </trkpt>
      <trkpt lat="22.908505" lon="110.855949">
        <ele>116.935295</ele>
        <time>2026-08-18T04:13:35.000Z</time>
      </trkpt>
      <trkpt lat="22.908507" lon="110.856000">
        <ele>116.966852</ele>
        <time>2026-08-18T04:13:36.000Z</time>
      </trkpt>
      <trkpt lat="22.908508" lon="110.856050">
        <ele>116.997768</ele>
        <time>2026-08-18T04:13:37.000Z</time>
      </trkpt>
      <trkpt lat="22.908510" lon="110.856099">
        <ele>117.028089</ele>
        <time>2026-08-18T04:13:38.000Z</time>
      </trkpt>
      <trkpt lat="22.908512" lon="110.856147">
        <ele>117.057793</ele>
        <time>2026-08-18T04:13:39.000Z</time>
      </trkpt>
      <trkpt lat="22.908514" lon="110.856196">
        <ele>117.088114</ele>
        <time>2026-08-18T04:13:40.000Z</time>
      </trkpt>
      <trkpt lat="22.908517" lon="110.856244">
        <ele>117.117855</ele>
        <time>2026-08-18T04:13:41.000Z</time>
      </trkpt>
      <trkpt lat="22.908521" lon="110.856291">
        <ele>117.147034</ele>
        <time>2026-08-18T04:13:42.000Z</time>
      </trkpt>
      <trkpt lat="22.908525" lon="110.856338">
        <ele>117.176212</ele>
        <time>2026-08-18T04:13:43.000Z</time>
      </trkpt>
      <trkpt lat="22.908531" lon="110.856385">
        <ele>117.205545</ele>
        <time>2026-08-18T04:13:44.000Z</time>
      </trkpt>
      <trkpt lat="22.908538" lon="110.856432">
        <ele>117.234977</ele>
        <time>2026-08-18T04:13:45.000Z</time>
      </trkpt>
      <trkpt lat="22.908543" lon="110.856479">
        <ele>117.264225</ele>
        <time>2026-08-18T04:13:46.000Z</time>
      </trkpt>
      <trkpt lat="22.908548" lon="110.856526">
        <ele>117.293473</ele>
        <time>2026-08-18T04:13:47.000Z</time>
      </trkpt>
      <trkpt lat="22.908553" lon="110.856574">
        <ele>117.323336</ele>
        <time>2026-08-18T04:13:48.000Z</time>
      </trkpt>
      <trkpt lat="22.908559" lon="110.856622">
        <ele>117.353281</ele>
        <time>2026-08-18T04:13:49.000Z</time>
      </trkpt>
      <trkpt lat="22.908565" lon="110.856667">
        <ele>117.381389</ele>
        <time>2026-08-18T04:13:50.000Z</time>
      </trkpt>
      <trkpt lat="22.908573" lon="110.856712">
        <ele>117.409721</ele>
        <time>2026-08-18T04:13:51.000Z</time>
      </trkpt>
      <trkpt lat="22.908581" lon="110.856756">
        <ele>117.437446</ele>
        <time>2026-08-18T04:13:52.000Z</time>
      </trkpt>
      <trkpt lat="22.908591" lon="110.856799">
        <ele>117.465190</ele>
        <time>2026-08-18T04:13:53.000Z</time>
      </trkpt>
      <trkpt lat="22.908603" lon="110.856846">
        <ele>117.527671</ele>
        <time>2026-08-18T04:13:54.000Z</time>
      </trkpt>
      <trkpt lat="22.908615" lon="110.856891">
        <ele>117.587686</ele>
        <time>2026-08-18T04:13:55.000Z</time>
      </trkpt>
      <trkpt lat="22.908626" lon="110.856936">
        <ele>117.647329</ele>
        <time>2026-08-18T04:13:56.000Z</time>
      </trkpt>
      <trkpt lat="22.908637" lon="110.856980">
        <ele>117.705735</ele>
        <time>2026-08-18T04:13:57.000Z</time>
      </trkpt>
      <trkpt lat="22.908649" lon="110.857022">
        <ele>117.762069</ele>
        <time>2026-08-18T04:13:58.000Z</time>
      </trkpt>
      <trkpt lat="22.908658" lon="110.857064">
        <ele>117.817310</ele>
        <time>2026-08-18T04:13:59.000Z</time>
      </trkpt>
      <trkpt lat="22.908668" lon="110.857105">
        <ele>117.871644</ele>
        <time>2026-08-18T04:14:00.000Z</time>
      </trkpt>
      <trkpt lat="22.908681" lon="110.857147">
        <ele>117.928405</ele>
        <time>2026-08-18T04:14:01.000Z</time>
      </trkpt>
      <trkpt lat="22.908695" lon="110.857190">
        <ele>117.986831</ele>
        <time>2026-08-18T04:14:02.000Z</time>
      </trkpt>
      <trkpt lat="22.908708" lon="110.857231">
        <ele>118.042379</ele>
        <time>2026-08-18T04:14:03.000Z</time>
      </trkpt>
      <trkpt lat="22.908721" lon="110.857273">
        <ele>118.099140</ele>
        <time>2026-08-18T04:14:04.000Z</time>
      </trkpt>
      <trkpt lat="22.908734" lon="110.857315">
        <ele>118.155901</ele>
        <time>2026-08-18T04:14:05.000Z</time>
      </trkpt>
      <trkpt lat="22.908747" lon="110.857357">
        <ele>118.212662</ele>
        <time>2026-08-18T04:14:06.000Z</time>
      </trkpt>
      <trkpt lat="22.908763" lon="110.857400">
        <ele>118.272073</ele>
        <time>2026-08-18T04:14:07.000Z</time>
      </trkpt>
      <trkpt lat="22.908779" lon="110.857441">
        <ele>118.329116</ele>
        <time>2026-08-18T04:14:08.000Z</time>
      </trkpt>
      <trkpt lat="22.908795" lon="110.857481">
        <ele>118.384981</ele>
        <time>2026-08-18T04:14:09.000Z</time>
      </trkpt>
      <trkpt lat="22.908810" lon="110.857521">
        <ele>118.440307</ele>
        <time>2026-08-18T04:14:10.000Z</time>
      </trkpt>
      <trkpt lat="22.908826" lon="110.857561">
        <ele>118.496173</ele>
        <time>2026-08-18T04:14:11.000Z</time>
      </trkpt>
      <trkpt lat="22.908842" lon="110.857601">
        <ele>118.552038</ele>
        <time>2026-08-18T04:14:12.000Z</time>
      </trkpt>
      <trkpt lat="22.908857" lon="110.857642">
        <ele>118.608553</ele>
        <time>2026-08-18T04:14:13.000Z</time>
      </trkpt>
      <trkpt lat="22.908874" lon="110.857683">
        <ele>118.666153</ele>
        <time>2026-08-18T04:14:14.000Z</time>
      </trkpt>
      <trkpt lat="22.908892" lon="110.857725">
        <ele>118.725496</ele>
        <time>2026-08-18T04:14:15.000Z</time>
      </trkpt>
      <trkpt lat="22.908909" lon="110.857766">
        <ele>118.783096</ele>
        <time>2026-08-18T04:14:16.000Z</time>
      </trkpt>
      <trkpt lat="22.908923" lon="110.857806">
        <ele>118.837913</ele>
        <time>2026-08-18T04:14:17.000Z</time>
      </trkpt>
      <trkpt lat="22.908937" lon="110.857846">
        <ele>118.892730</ele>
        <time>2026-08-18T04:14:18.000Z</time>
      </trkpt>
      <trkpt lat="22.908953" lon="110.857885">
        <ele>118.947422</ele>
        <time>2026-08-18T04:14:19.000Z</time>
      </trkpt>
      <trkpt lat="22.908969" lon="110.857923">
        <ele>119.000947</ele>
        <time>2026-08-18T04:14:20.000Z</time>
      </trkpt>
      <trkpt lat="22.908983" lon="110.857963">
        <ele>119.055764</ele>
        <time>2026-08-18T04:14:21.000Z</time>
      </trkpt>
      <trkpt lat="22.908998" lon="110.858002">
        <ele>119.109906</ele>
        <time>2026-08-18T04:14:22.000Z</time>
      </trkpt>
      <trkpt lat="22.909015" lon="110.858043">
        <ele>119.167506</ele>
        <time>2026-08-18T04:14:23.000Z</time>
      </trkpt>
      <trkpt lat="22.909031" lon="110.858082">
        <ele>119.222199</ele>
        <time>2026-08-18T04:14:24.000Z</time>
      </trkpt>
      <trkpt lat="22.909046" lon="110.858123">
        <ele>119.278713</ele>
        <time>2026-08-18T04:14:25.000Z</time>
      </trkpt>
      <trkpt lat="22.909062" lon="110.858164">
        <ele>119.335756</ele>
        <time>2026-08-18T04:14:26.000Z</time>
      </trkpt>
      <trkpt lat="22.909077" lon="110.858205">
        <ele>119.392271</ele>
        <time>2026-08-18T04:14:27.000Z</time>
      </trkpt>
      <trkpt lat="22.909094" lon="110.858245">
        <ele>119.448705</ele>
        <time>2026-08-18T04:14:28.000Z</time>
      </trkpt>
      <trkpt lat="22.909109" lon="110.858285">
        <ele>119.504031</ele>
        <time>2026-08-18T04:14:29.000Z</time>
      </trkpt>
      <trkpt lat="22.909126" lon="110.858325">
        <ele>119.560465</ele>
        <time>2026-08-18T04:14:30.000Z</time>
      </trkpt>
      <trkpt lat="22.909143" lon="110.858364">
        <ele>119.615738</ele>
        <time>2026-08-18T04:14:31.000Z</time>
      </trkpt>
      <trkpt lat="22.909160" lon="110.858404">
        <ele>119.672171</ele>
        <time>2026-08-18T04:14:32.000Z</time>
      </trkpt>
      <trkpt lat="22.909175" lon="110.858443">
        <ele>119.726313</ele>
        <time>2026-08-18T04:14:33.000Z</time>
      </trkpt>
      <trkpt lat="22.909190" lon="110.858481">
        <ele>119.779275</ele>
        <time>2026-08-18T04:14:34.000Z</time>
      </trkpt>
      <trkpt lat="22.909206" lon="110.858520">
        <ele>119.833968</ele>
        <time>2026-08-18T04:14:35.000Z</time>
      </trkpt>
      <trkpt lat="22.909223" lon="110.858558">
        <ele>119.888086</ele>
        <time>2026-08-18T04:14:36.000Z</time>
      </trkpt>
      <trkpt lat="22.909238" lon="110.858596">
        <ele>119.941048</ele>
        <time>2026-08-18T04:14:37.000Z</time>
      </trkpt>
      <trkpt lat="22.909252" lon="110.858635">
        <ele>120.002260</ele>
        <time>2026-08-18T04:14:38.000Z</time>
      </trkpt>
      <trkpt lat="22.909267" lon="110.858674">
        <ele>120.070756</ele>
        <time>2026-08-18T04:14:39.000Z</time>
      </trkpt>
      <trkpt lat="22.909283" lon="110.858711">
        <ele>120.137001</ele>
        <time>2026-08-18T04:14:40.000Z</time>
      </trkpt>
      <trkpt lat="22.909299" lon="110.858748">
        <ele>120.203246</ele>
        <time>2026-08-18T04:14:41.000Z</time>
      </trkpt>
      <trkpt lat="22.909315" lon="110.858786">
        <ele>120.270961</ele>
        <time>2026-08-18T04:14:42.000Z</time>
      </trkpt>
      <trkpt lat="22.909331" lon="110.858823">
        <ele>120.337206</ele>
        <time>2026-08-18T04:14:43.000Z</time>
      </trkpt>
      <trkpt lat="22.909346" lon="110.858858">
        <ele>120.399770</ele>
        <time>2026-08-18T04:14:44.000Z</time>
      </trkpt>
      <trkpt lat="22.909358" lon="110.858895">
        <ele>120.463344</ele>
        <time>2026-08-18T04:14:45.000Z</time>
      </trkpt>
      <trkpt lat="22.909371" lon="110.858934">
        <ele>120.530562</ele>
        <time>2026-08-18T04:14:46.000Z</time>
      </trkpt>
      <trkpt lat="22.909385" lon="110.858972">
        <ele>120.596892</ele>
        <time>2026-08-18T04:14:47.000Z</time>
      </trkpt>
      <trkpt lat="22.909399" lon="110.859011">
        <ele>120.664729</ele>
        <time>2026-08-18T04:14:48.000Z</time>
      </trkpt>
      <trkpt lat="22.909413" lon="110.859049">
        <ele>120.731059</ele>
        <time>2026-08-18T04:14:49.000Z</time>
      </trkpt>
      <trkpt lat="22.909429" lon="110.859089">
        <ele>120.801735</ele>
        <time>2026-08-18T04:14:50.000Z</time>
      </trkpt>
      <trkpt lat="22.909448" lon="110.859128">
        <ele>120.873238</ele>
        <time>2026-08-18T04:14:51.000Z</time>
      </trkpt>
      <trkpt lat="22.909465" lon="110.859164">
        <ele>120.938803</ele>
        <time>2026-08-18T04:14:52.000Z</time>
      </trkpt>
      <trkpt lat="22.909484" lon="110.859200">
        <ele>121.006047</ele>
        <time>2026-08-18T04:14:53.000Z</time>
      </trkpt>
      <trkpt lat="22.909501" lon="110.859237">
        <ele>121.073058</ele>
        <time>2026-08-18T04:14:54.000Z</time>
      </trkpt>
      <trkpt lat="22.909515" lon="110.859275">
        <ele>121.139388</ele>
        <time>2026-08-18T04:14:55.000Z</time>
      </trkpt>
      <trkpt lat="22.909530" lon="110.859312">
        <ele>121.204904</ele>
        <time>2026-08-18T04:14:56.000Z</time>
      </trkpt>
      <trkpt lat="22.909543" lon="110.859351">
        <ele>121.272123</ele>
        <time>2026-08-18T04:14:57.000Z</time>
      </trkpt>
      <trkpt lat="22.909558" lon="110.859387">
        <ele>121.336159</ele>
        <time>2026-08-18T04:14:58.000Z</time>
      </trkpt>
      <trkpt lat="22.909572" lon="110.859421">
        <ele>121.396517</ele>
        <time>2026-08-18T04:14:59.000Z</time>
      </trkpt>
      <trkpt lat="22.909587" lon="110.859458">
        <ele>121.462034</ele>
        <time>2026-08-18T04:15:00.000Z</time>
      </trkpt>
      <trkpt lat="22.909601" lon="110.859496">
        <ele>121.528364</ele>
        <time>2026-08-18T04:15:01.000Z</time>
      </trkpt>
      <trkpt lat="22.909614" lon="110.859532">
        <ele>121.591032</ele>
        <time>2026-08-18T04:15:02.000Z</time>
      </trkpt>
      <trkpt lat="22.909629" lon="110.859571">
        <ele>121.659527</ele>
        <time>2026-08-18T04:15:03.000Z</time>
      </trkpt>
      <trkpt lat="22.909645" lon="110.859608">
        <ele>121.725772</ele>
        <time>2026-08-18T04:15:04.000Z</time>
      </trkpt>
      <trkpt lat="22.909660" lon="110.859645">
        <ele>121.791288</ele>
        <time>2026-08-18T04:15:05.000Z</time>
      </trkpt>
      <trkpt lat="22.909675" lon="110.859683">
        <ele>121.858291</ele>
        <time>2026-08-18T04:15:06.000Z</time>
      </trkpt>
      <trkpt lat="22.909690" lon="110.859720">
        <ele>121.923808</ele>
        <time>2026-08-18T04:15:07.000Z</time>
      </trkpt>
      <trkpt lat="22.909706" lon="110.859758">
        <ele>121.991523</ele>
        <time>2026-08-18T04:15:08.000Z</time>
      </trkpt>
      <trkpt lat="22.909720" lon="110.859796">
        <ele>122.057853</ele>
        <time>2026-08-18T04:15:09.000Z</time>
      </trkpt>
      <trkpt lat="22.909736" lon="110.859836">
        <ele>122.128529</ele>
        <time>2026-08-18T04:15:10.000Z</time>
      </trkpt>
      <trkpt lat="22.909751" lon="110.859874">
        <ele>122.195532</ele>
        <time>2026-08-18T04:15:11.000Z</time>
      </trkpt>
      <trkpt lat="22.909767" lon="110.859914">
        <ele>122.266208</ele>
        <time>2026-08-18T04:15:12.000Z</time>
      </trkpt>
      <trkpt lat="22.909784" lon="110.859954">
        <ele>122.337603</ele>
        <time>2026-08-18T04:15:13.000Z</time>
      </trkpt>
      <trkpt lat="22.909800" lon="110.859994">
        <ele>122.408279</ele>
        <time>2026-08-18T04:15:14.000Z</time>
      </trkpt>
      <trkpt lat="22.909817" lon="110.860034">
        <ele>122.479674</ele>
        <time>2026-08-18T04:15:15.000Z</time>
      </trkpt>
      <trkpt lat="22.909832" lon="110.860074">
        <ele>122.549668</ele>
        <time>2026-08-18T04:15:16.000Z</time>
      </trkpt>
      <trkpt lat="22.909847" lon="110.860113">
        <ele>122.618164</ele>
        <time>2026-08-18T04:15:17.000Z</time>
      </trkpt>
      <trkpt lat="22.909861" lon="110.860153">
        <ele>122.687513</ele>
        <time>2026-08-18T04:15:18.000Z</time>
      </trkpt>
      <trkpt lat="22.909877" lon="110.860194">
        <ele>122.759679</ele>
        <time>2026-08-18T04:15:19.000Z</time>
      </trkpt>
      <trkpt lat="22.909893" lon="110.860235">
        <ele>122.831844</ele>
        <time>2026-08-18T04:15:20.000Z</time>
      </trkpt>
      <trkpt lat="22.909908" lon="110.860275">
        <ele>122.901838</ele>
        <time>2026-08-18T04:15:21.000Z</time>
      </trkpt>
      <trkpt lat="22.909923" lon="110.860314">
        <ele>122.970334</ele>
        <time>2026-08-18T04:15:22.000Z</time>
      </trkpt>
      <trkpt lat="22.909940" lon="110.860353">
        <ele>123.040260</ele>
        <time>2026-08-18T04:15:23.000Z</time>
      </trkpt>
      <trkpt lat="22.909956" lon="110.860391">
        <ele>123.107976</ele>
        <time>2026-08-18T04:15:24.000Z</time>
      </trkpt>
      <trkpt lat="22.909972" lon="110.860429">
        <ele>123.173810</ele>
        <time>2026-08-18T04:15:25.000Z</time>
      </trkpt>
      <trkpt lat="22.909988" lon="110.860468">
        <ele>123.240110</ele>
        <time>2026-08-18T04:15:26.000Z</time>
      </trkpt>
      <trkpt lat="22.910007" lon="110.860508">
        <ele>123.310000</ele>
        <time>2026-08-18T04:15:27.000Z</time>
      </trkpt>
      <trkpt lat="22.910025" lon="110.860545">
        <ele>123.374981</ele>
        <time>2026-08-18T04:15:28.000Z</time>
      </trkpt>
      <trkpt lat="22.910040" lon="110.860581">
        <ele>123.436340</ele>
        <time>2026-08-18T04:15:29.000Z</time>
      </trkpt>
      <trkpt lat="22.910054" lon="110.860619">
        <ele>123.499897</ele>
        <time>2026-08-18T04:15:30.000Z</time>
      </trkpt>
      <trkpt lat="22.910070" lon="110.860655">
        <ele>123.561970</ele>
        <time>2026-08-18T04:15:31.000Z</time>
      </trkpt>
      <trkpt lat="22.910086" lon="110.860693">
        <ele>123.626854</ele>
        <time>2026-08-18T04:15:32.000Z</time>
      </trkpt>
      <trkpt lat="22.910101" lon="110.860730">
        <ele>123.689632</ele>
        <time>2026-08-18T04:15:33.000Z</time>
      </trkpt>
      <trkpt lat="22.910115" lon="110.860767">
        <ele>123.751749</ele>
        <time>2026-08-18T04:15:34.000Z</time>
      </trkpt>
      <trkpt lat="22.910130" lon="110.860803">
        <ele>123.813109</ele>
        <time>2026-08-18T04:15:35.000Z</time>
      </trkpt>
      <trkpt lat="22.910145" lon="110.860841">
        <ele>123.877310</ele>
        <time>2026-08-18T04:15:36.000Z</time>
      </trkpt>
      <trkpt lat="22.910159" lon="110.860879">
        <ele>123.940867</ele>
        <time>2026-08-18T04:15:37.000Z</time>
      </trkpt>
      <trkpt lat="22.910173" lon="110.860916">
        <ele>124.002985</ele>
        <time>2026-08-18T04:15:38.000Z</time>
      </trkpt>
      <trkpt lat="22.910188" lon="110.860953">
        <ele>124.065762</ele>
        <time>2026-08-18T04:15:39.000Z</time>
      </trkpt>
      <trkpt lat="22.910203" lon="110.860992">
        <ele>124.131394</ele>
        <time>2026-08-18T04:15:40.000Z</time>
      </trkpt>
      <trkpt lat="22.910219" lon="110.861029">
        <ele>124.194869</ele>
        <time>2026-08-18T04:15:41.000Z</time>
      </trkpt>
      <trkpt lat="22.910234" lon="110.861065">
        <ele>124.256229</ele>
        <time>2026-08-18T04:15:42.000Z</time>
      </trkpt>
      <trkpt lat="22.910250" lon="110.861101">
        <ele>124.318302</ele>
        <time>2026-08-18T04:15:43.000Z</time>
      </trkpt>
      <trkpt lat="22.910267" lon="110.861136">
        <ele>124.379748</ele>
        <time>2026-08-18T04:15:44.000Z</time>
      </trkpt>
      <trkpt lat="22.910282" lon="110.861171">
        <ele>124.439696</ele>
        <time>2026-08-18T04:15:45.000Z</time>
      </trkpt>
      <trkpt lat="22.910297" lon="110.861208">
        <ele>124.502473</ele>
        <time>2026-08-18T04:15:46.000Z</time>
      </trkpt>
      <trkpt lat="22.910311" lon="110.861244">
        <ele>124.563157</ele>
        <time>2026-08-18T04:15:47.000Z</time>
      </trkpt>
      <trkpt lat="22.910326" lon="110.861282">
        <ele>124.627359</ele>
        <time>2026-08-18T04:15:48.000Z</time>
      </trkpt>
      <trkpt lat="22.910341" lon="110.861319">
        <ele>124.690136</ele>
        <time>2026-08-18T04:15:49.000Z</time>
      </trkpt>
      <trkpt lat="22.910354" lon="110.861357">
        <ele>124.753086</ele>
        <time>2026-08-18T04:15:50.000Z</time>
      </trkpt>
      <trkpt lat="22.910369" lon="110.861396">
        <ele>124.818718</ele>
        <time>2026-08-18T04:15:51.000Z</time>
      </trkpt>
      <trkpt lat="22.910385" lon="110.861434">
        <ele>124.883603</ele>
        <time>2026-08-18T04:15:52.000Z</time>
      </trkpt>
      <trkpt lat="22.910402" lon="110.861472">
        <ele>124.949206</ele>
        <time>2026-08-18T04:15:53.000Z</time>
      </trkpt>
      <trkpt lat="22.910419" lon="110.861511">
        <ele>125.016209</ele>
        <time>2026-08-18T04:15:54.000Z</time>
      </trkpt>
      <trkpt lat="22.910435" lon="110.861548">
        <ele>125.079685</ele>
        <time>2026-08-18T04:15:55.000Z</time>
      </trkpt>
      <trkpt lat="22.910454" lon="110.861585">
        <ele>125.145469</ele>
        <time>2026-08-18T04:15:56.000Z</time>
      </trkpt>
      <trkpt lat="22.910468" lon="110.861621">
        <ele>125.206153</ele>
        <time>2026-08-18T04:15:57.000Z</time>
      </trkpt>
      <trkpt lat="22.910482" lon="110.861655">
        <ele>125.263988</ele>
        <time>2026-08-18T04:15:58.000Z</time>
      </trkpt>
      <trkpt lat="22.910499" lon="110.861693">
        <ele>125.329591</ele>
        <time>2026-08-18T04:15:59.000Z</time>
      </trkpt>
      <trkpt lat="22.910514" lon="110.861728">
        <ele>125.389538</ele>
        <time>2026-08-18T04:16:00.000Z</time>
      </trkpt>
      <trkpt lat="22.910529" lon="110.861763">
        <ele>125.449486</ele>
        <time>2026-08-18T04:16:01.000Z</time>
      </trkpt>
      <trkpt lat="22.910543" lon="110.861799">
        <ele>125.510170</ele>
        <time>2026-08-18T04:16:02.000Z</time>
      </trkpt>
      <trkpt lat="22.910557" lon="110.861836">
        <ele>125.572287</ele>
        <time>2026-08-18T04:16:03.000Z</time>
      </trkpt>
      <trkpt lat="22.910571" lon="110.861874">
        <ele>125.635844</ele>
        <time>2026-08-18T04:16:04.000Z</time>
      </trkpt>
      <trkpt lat="22.910586" lon="110.861914">
        <ele>125.702911</ele>
        <time>2026-08-18T04:16:05.000Z</time>
      </trkpt>
      <trkpt lat="22.910600" lon="110.861952">
        <ele>125.766468</ele>
        <time>2026-08-18T04:16:06.000Z</time>
      </trkpt>
      <trkpt lat="22.910616" lon="110.861990">
        <ele>125.831352</ele>
        <time>2026-08-18T04:16:07.000Z</time>
      </trkpt>
      <trkpt lat="22.910632" lon="110.862027">
        <ele>125.894827</ele>
        <time>2026-08-18T04:16:08.000Z</time>
      </trkpt>
      <trkpt lat="22.910647" lon="110.862064">
        <ele>125.957605</ele>
        <time>2026-08-18T04:16:09.000Z</time>
      </trkpt>
      <trkpt lat="22.910664" lon="110.862100">
        <ele>126.020429</ele>
        <time>2026-08-18T04:16:10.000Z</time>
      </trkpt>
      <trkpt lat="22.910682" lon="110.862138">
        <ele>126.086785</ele>
        <time>2026-08-18T04:16:11.000Z</time>
      </trkpt>
      <trkpt lat="22.910699" lon="110.862176">
        <ele>126.152389</ele>
        <time>2026-08-18T04:16:12.000Z</time>
      </trkpt>
      <trkpt lat="22.910717" lon="110.862213">
        <ele>126.217009</ele>
        <time>2026-08-18T04:16:13.000Z</time>
      </trkpt>
      <trkpt lat="22.910734" lon="110.862250">
        <ele>126.280793</ele>
        <time>2026-08-18T04:16:14.000Z</time>
      </trkpt>
      <trkpt lat="22.910749" lon="110.862286">
        <ele>126.341745</ele>
        <time>2026-08-18T04:16:15.000Z</time>
      </trkpt>
      <trkpt lat="22.910763" lon="110.862321">
        <ele>126.400609</ele>
        <time>2026-08-18T04:16:16.000Z</time>
      </trkpt>
      <trkpt lat="22.910776" lon="110.862359">
        <ele>126.463141</ele>
        <time>2026-08-18T04:16:17.000Z</time>
      </trkpt>
      <trkpt lat="22.910791" lon="110.862397">
        <ele>126.526918</ele>
        <time>2026-08-18T04:16:18.000Z</time>
      </trkpt>
      <trkpt lat="22.910805" lon="110.862434">
        <ele>126.588623</ele>
        <time>2026-08-18T04:16:19.000Z</time>
      </trkpt>
      <trkpt lat="22.910819" lon="110.862472">
        <ele>126.651758</ele>
        <time>2026-08-18T04:16:20.000Z</time>
      </trkpt>
      <trkpt lat="22.910833" lon="110.862510">
        <ele>126.714894</ele>
        <time>2026-08-18T04:16:21.000Z</time>
      </trkpt>
      <trkpt lat="22.910848" lon="110.862549">
        <ele>126.780090</ele>
        <time>2026-08-18T04:16:22.000Z</time>
      </trkpt>
      <trkpt lat="22.910864" lon="110.862587">
        <ele>126.844545</ele>
        <time>2026-08-18T04:16:23.000Z</time>
      </trkpt>
      <trkpt lat="22.910879" lon="110.862624">
        <ele>126.906906</ele>
        <time>2026-08-18T04:16:24.000Z</time>
      </trkpt>
      <trkpt lat="22.910893" lon="110.862661">
        <ele>126.968611</ele>
        <time>2026-08-18T04:16:25.000Z</time>
      </trkpt>
      <trkpt lat="22.910908" lon="110.862699">
        <ele>127.032388</ele>
        <time>2026-08-18T04:16:26.000Z</time>
      </trkpt>
      <trkpt lat="22.910922" lon="110.862736">
        <ele>127.094093</ele>
        <time>2026-08-18T04:16:27.000Z</time>
      </trkpt>
      <trkpt lat="22.910937" lon="110.862772">
        <ele>127.155045</ele>
        <time>2026-08-18T04:16:28.000Z</time>
      </trkpt>
      <trkpt lat="22.910951" lon="110.862807">
        <ele>127.213909</ele>
        <time>2026-08-18T04:16:29.000Z</time>
      </trkpt>
      <trkpt lat="22.910964" lon="110.862842">
        <ele>127.272125</ele>
        <time>2026-08-18T04:16:30.000Z</time>
      </trkpt>
      <trkpt lat="22.910977" lon="110.862880">
        <ele>127.334658</ele>
        <time>2026-08-18T04:16:31.000Z</time>
      </trkpt>
      <trkpt lat="22.910991" lon="110.862917">
        <ele>127.396363</ele>
        <time>2026-08-18T04:16:32.000Z</time>
      </trkpt>
      <trkpt lat="22.911006" lon="110.862953">
        <ele>127.457316</ele>
        <time>2026-08-18T04:16:33.000Z</time>
      </trkpt>
      <trkpt lat="22.911021" lon="110.862989">
        <ele>127.518268</ele>
        <time>2026-08-18T04:16:34.000Z</time>
      </trkpt>
      <trkpt lat="22.911037" lon="110.863025">
        <ele>127.579930</ele>
        <time>2026-08-18T04:16:35.000Z</time>
      </trkpt>
      <trkpt lat="22.911051" lon="110.863062">
        <ele>127.641635</ele>
        <time>2026-08-18T04:16:36.000Z</time>
      </trkpt>
      <trkpt lat="22.911065" lon="110.863099">
        <ele>127.703341</ele>
        <time>2026-08-18T04:16:37.000Z</time>
      </trkpt>
      <trkpt lat="22.911081" lon="110.863134">
        <ele>127.763616</ele>
        <time>2026-08-18T04:16:38.000Z</time>
      </trkpt>
      <trkpt lat="22.911097" lon="110.863169">
        <ele>127.823892</ele>
        <time>2026-08-18T04:16:39.000Z</time>
      </trkpt>
      <trkpt lat="22.911112" lon="110.863202">
        <ele>127.880660</ele>
        <time>2026-08-18T04:16:40.000Z</time>
      </trkpt>
      <trkpt lat="22.911125" lon="110.863236">
        <ele>127.937449</ele>
        <time>2026-08-18T04:16:41.000Z</time>
      </trkpt>
      <trkpt lat="22.911139" lon="110.863271">
        <ele>127.996312</ele>
        <time>2026-08-18T04:16:42.000Z</time>
      </trkpt>
      <trkpt lat="22.911155" lon="110.863306">
        <ele>128.056588</ele>
        <time>2026-08-18T04:16:43.000Z</time>
      </trkpt>
      <trkpt lat="22.911172" lon="110.863341">
        <ele>128.117627</ele>
        <time>2026-08-18T04:16:44.000Z</time>
      </trkpt>
      <trkpt lat="22.911188" lon="110.863378">
        <ele>128.180681</ele>
        <time>2026-08-18T04:16:45.000Z</time>
      </trkpt>
      <trkpt lat="22.911203" lon="110.863414">
        <ele>128.241633</ele>
        <time>2026-08-18T04:16:46.000Z</time>
      </trkpt>
      <trkpt lat="22.911217" lon="110.863450">
        <ele>128.301915</ele>
        <time>2026-08-18T04:16:47.000Z</time>
      </trkpt>
      <trkpt lat="22.911229" lon="110.863486">
        <ele>128.360974</ele>
        <time>2026-08-18T04:16:48.000Z</time>
      </trkpt>
      <trkpt lat="22.911243" lon="110.863522">
        <ele>128.421255</ele>
        <time>2026-08-18T04:16:49.000Z</time>
      </trkpt>
      <trkpt lat="22.911258" lon="110.863557">
        <ele>128.480805</ele>
        <time>2026-08-18T04:16:50.000Z</time>
      </trkpt>
      <trkpt lat="22.911273" lon="110.863593">
        <ele>128.541758</ele>
        <time>2026-08-18T04:16:51.000Z</time>
      </trkpt>
      <trkpt lat="22.911288" lon="110.863628">
        <ele>128.601308</ele>
        <time>2026-08-18T04:16:52.000Z</time>
      </trkpt>
      <trkpt lat="22.911302" lon="110.863664">
        <ele>128.661589</ele>
        <time>2026-08-18T04:16:53.000Z</time>
      </trkpt>
      <trkpt lat="22.911315" lon="110.863701">
        <ele>128.722678</ele>
        <time>2026-08-18T04:16:54.000Z</time>
      </trkpt>
      <trkpt lat="22.911328" lon="110.863737">
        <ele>128.782328</ele>
        <time>2026-08-18T04:16:55.000Z</time>
      </trkpt>
      <trkpt lat="22.911341" lon="110.863775">
        <ele>128.844860</ele>
        <time>2026-08-18T04:16:56.000Z</time>
      </trkpt>
      <trkpt lat="22.911355" lon="110.863811">
        <ele>128.905141</ele>
        <time>2026-08-18T04:16:57.000Z</time>
      </trkpt>
      <trkpt lat="22.911371" lon="110.863848">
        <ele>128.968196</ele>
        <time>2026-08-18T04:16:58.000Z</time>
      </trkpt>
      <trkpt lat="22.911387" lon="110.863884">
        <ele>129.029857</ele>
        <time>2026-08-18T04:16:59.000Z</time>
      </trkpt>
      <trkpt lat="22.911404" lon="110.863921">
        <ele>129.093641</ele>
        <time>2026-08-18T04:17:00.000Z</time>
      </trkpt>
      <trkpt lat="22.911420" lon="110.863958">
        <ele>129.156695</ele>
        <time>2026-08-18T04:17:01.000Z</time>
      </trkpt>
      <trkpt lat="22.911435" lon="110.863994">
        <ele>129.234033</ele>
        <time>2026-08-18T04:17:02.000Z</time>
      </trkpt>
      <trkpt lat="22.911449" lon="110.864029">
        <ele>129.315707</ele>
        <time>2026-08-18T04:17:03.000Z</time>
      </trkpt>
      <trkpt lat="22.911463" lon="110.864063">
        <ele>129.395422</ele>
        <time>2026-08-18T04:17:04.000Z</time>
      </trkpt>
      <trkpt lat="22.911476" lon="110.864100">
        <ele>129.480183</ele>
        <time>2026-08-18T04:17:05.000Z</time>
      </trkpt>
      <trkpt lat="22.911490" lon="110.864138">
        <ele>129.567784</ele>
        <time>2026-08-18T04:17:06.000Z</time>
      </trkpt>
      <trkpt lat="22.911502" lon="110.864175">
        <ele>129.651746</ele>
        <time>2026-08-18T04:17:07.000Z</time>
      </trkpt>
      <trkpt lat="22.911515" lon="110.864212">
        <ele>129.736507</ele>
        <time>2026-08-18T04:17:08.000Z</time>
      </trkpt>
      <trkpt lat="22.911529" lon="110.864247">
        <ele>129.818181</ele>
        <time>2026-08-18T04:17:09.000Z</time>
      </trkpt>
      <trkpt lat="22.911545" lon="110.864283">
        <ele>129.903737</ele>
        <time>2026-08-18T04:17:10.000Z</time>
      </trkpt>
      <trkpt lat="22.911561" lon="110.864320">
        <ele>129.991226</ele>
        <time>2026-08-18T04:17:11.000Z</time>
      </trkpt>
      <trkpt lat="22.911577" lon="110.864356">
        <ele>130.076782</ele>
        <time>2026-08-18T04:17:12.000Z</time>
      </trkpt>
      <trkpt lat="22.911592" lon="110.864393">
        <ele>130.163309</ele>
        <time>2026-08-18T04:17:13.000Z</time>
      </trkpt>
      <trkpt lat="22.911606" lon="110.864430">
        <ele>130.248927</ele>
        <time>2026-08-18T04:17:14.000Z</time>
      </trkpt>
      <trkpt lat="22.911622" lon="110.864467">
        <ele>130.336415</ele>
        <time>2026-08-18T04:17:15.000Z</time>
      </trkpt>
      <trkpt lat="22.911635" lon="110.864503">
        <ele>130.419181</ele>
        <time>2026-08-18T04:17:16.000Z</time>
      </trkpt>
      <trkpt lat="22.911650" lon="110.864538">
        <ele>130.501807</ele>
        <time>2026-08-18T04:17:17.000Z</time>
      </trkpt>
      <trkpt lat="22.911666" lon="110.864574">
        <ele>130.587364</ele>
        <time>2026-08-18T04:17:18.000Z</time>
      </trkpt>
      <trkpt lat="22.911680" lon="110.864610">
        <ele>130.671005</ele>
        <time>2026-08-18T04:17:19.000Z</time>
      </trkpt>
      <trkpt lat="22.911696" lon="110.864647">
        <ele>130.758494</ele>
        <time>2026-08-18T04:17:20.000Z</time>
      </trkpt>
      <trkpt lat="22.911711" lon="110.864684">
        <ele>130.845020</ele>
        <time>2026-08-18T04:17:21.000Z</time>
      </trkpt>
      <trkpt lat="22.911725" lon="110.864721">
        <ele>130.930638</ele>
        <time>2026-08-18T04:17:22.000Z</time>
      </trkpt>
      <trkpt lat="22.911738" lon="110.864760">
        <ele>131.019412</ele>
        <time>2026-08-18T04:17:23.000Z</time>
      </trkpt>
      <trkpt lat="22.911753" lon="110.864796">
        <ele>131.103984</ele>
        <time>2026-08-18T04:17:24.000Z</time>
      </trkpt>
      <trkpt lat="22.911768" lon="110.864834">
        <ele>131.192474</ele>
        <time>2026-08-18T04:17:25.000Z</time>
      </trkpt>
      <trkpt lat="22.911783" lon="110.864872">
        <ele>131.280964</ele>
        <time>2026-08-18T04:17:26.000Z</time>
      </trkpt>
      <trkpt lat="22.911796" lon="110.864909">
        <ele>131.365726</ele>
        <time>2026-08-18T04:17:27.000Z</time>
      </trkpt>
      <trkpt lat="22.911811" lon="110.864946">
        <ele>131.452253</ele>
        <time>2026-08-18T04:17:28.000Z</time>
      </trkpt>
      <trkpt lat="22.911825" lon="110.864981">
        <ele>131.533926</ele>
        <time>2026-08-18T04:17:29.000Z</time>
      </trkpt>
      <trkpt lat="22.911839" lon="110.865016">
        <ele>131.615600</ele>
        <time>2026-08-18T04:17:30.000Z</time>
      </trkpt>
      <trkpt lat="22.911853" lon="110.865050">
        <ele>131.695314</ele>
        <time>2026-08-18T04:17:31.000Z</time>
      </trkpt>
      <trkpt lat="22.911867" lon="110.865085">
        <ele>131.776988</ele>
        <time>2026-08-18T04:17:32.000Z</time>
      </trkpt>
      <trkpt lat="22.911883" lon="110.865119">
        <ele>131.858710</ele>
        <time>2026-08-18T04:17:33.000Z</time>
      </trkpt>
      <trkpt lat="22.911899" lon="110.865152">
        <ele>131.938531</ele>
        <time>2026-08-18T04:17:34.000Z</time>
      </trkpt>
      <trkpt lat="22.911914" lon="110.865186">
        <ele>132.019222</ele>
        <time>2026-08-18T04:17:35.000Z</time>
      </trkpt>
      <trkpt lat="22.911929" lon="110.865221">
        <ele>132.101849</ele>
        <time>2026-08-18T04:17:36.000Z</time>
      </trkpt>
      <trkpt lat="22.911942" lon="110.865255">
        <ele>132.180644</ele>
        <time>2026-08-18T04:17:37.000Z</time>
      </trkpt>
      <trkpt lat="22.911955" lon="110.865289">
        <ele>132.259439</ele>
        <time>2026-08-18T04:17:38.000Z</time>
      </trkpt>
      <trkpt lat="22.911969" lon="110.865324">
        <ele>132.341112</ele>
        <time>2026-08-18T04:17:39.000Z</time>
      </trkpt>
      <trkpt lat="22.911980" lon="110.865359">
        <ele>132.420268</ele>
        <time>2026-08-18T04:17:40.000Z</time>
      </trkpt>
      <trkpt lat="22.911992" lon="110.865395">
        <ele>132.502213</ele>
        <time>2026-08-18T04:17:41.000Z</time>
      </trkpt>
      <trkpt lat="22.912004" lon="110.865431">
        <ele>132.584159</ele>
        <time>2026-08-18T04:17:42.000Z</time>
      </trkpt>
      <trkpt lat="22.912019" lon="110.865467">
        <ele>132.668731</ele>
        <time>2026-08-18T04:17:43.000Z</time>
      </trkpt>
      <trkpt lat="22.912036" lon="110.865502">
        <ele>132.753423</ele>
        <time>2026-08-18T04:17:44.000Z</time>
      </trkpt>
      <trkpt lat="22.912051" lon="110.865535">
        <ele>132.832189</ele>
        <time>2026-08-18T04:17:45.000Z</time>
      </trkpt>
      <trkpt lat="22.912066" lon="110.865567">
        <ele>132.909041</ele>
        <time>2026-08-18T04:17:46.000Z</time>
      </trkpt>
      <trkpt lat="22.912080" lon="110.865599">
        <ele>132.984868</ele>
        <time>2026-08-18T04:17:47.000Z</time>
      </trkpt>
      <trkpt lat="22.912093" lon="110.865631">
        <ele>133.059727</ele>
        <time>2026-08-18T04:17:48.000Z</time>
      </trkpt>
      <trkpt lat="22.912106" lon="110.865663">
        <ele>133.134586</ele>
        <time>2026-08-18T04:17:49.000Z</time>
      </trkpt>
      <trkpt lat="22.912120" lon="110.865695">
        <ele>133.210413</ele>
        <time>2026-08-18T04:17:50.000Z</time>
      </trkpt>
      <trkpt lat="22.912131" lon="110.865727">
        <ele>133.283520</ele>
        <time>2026-08-18T04:17:51.000Z</time>
      </trkpt>
      <trkpt lat="22.912143" lon="110.865757">
        <ele>133.353526</ele>
        <time>2026-08-18T04:17:52.000Z</time>
      </trkpt>
      <trkpt lat="22.912155" lon="110.865789">
        <ele>133.435146</ele>
        <time>2026-08-18T04:17:53.000Z</time>
      </trkpt>
      <trkpt lat="22.912167" lon="110.865820">
        <ele>133.514731</ele>
        <time>2026-08-18T04:17:54.000Z</time>
      </trkpt>
      <trkpt lat="22.912180" lon="110.865851">
        <ele>133.595346</ele>
        <time>2026-08-18T04:17:55.000Z</time>
      </trkpt>
      <trkpt lat="22.912192" lon="110.865881">
        <ele>133.672754</ele>
        <time>2026-08-18T04:17:56.000Z</time>
      </trkpt>
      <trkpt lat="22.912204" lon="110.865911">
        <ele>133.750163</ele>
        <time>2026-08-18T04:17:57.000Z</time>
      </trkpt>
      <trkpt lat="22.912216" lon="110.865940">
        <ele>133.825406</ele>
        <time>2026-08-18T04:17:58.000Z</time>
      </trkpt>
      <trkpt lat="22.912228" lon="110.865969">
        <ele>133.900650</ele>
        <time>2026-08-18T04:17:59.000Z</time>
      </trkpt>
      <trkpt lat="22.912239" lon="110.865997">
        <ele>133.972694</ele>
        <time>2026-08-18T04:18:00.000Z</time>
      </trkpt>
      <trkpt lat="22.912249" lon="110.866027">
        <ele>134.048203</ele>
        <time>2026-08-18T04:18:01.000Z</time>
      </trkpt>
      <trkpt lat="22.912260" lon="110.866055">
        <ele>134.120247</ele>
        <time>2026-08-18T04:18:02.000Z</time>
      </trkpt>
      <trkpt lat="22.912274" lon="110.866082">
        <ele>134.193579</ele>
        <time>2026-08-18T04:18:03.000Z</time>
      </trkpt>
      <trkpt lat="22.912290" lon="110.866108">
        <ele>134.267584</ele>
        <time>2026-08-18T04:18:04.000Z</time>
      </trkpt>
      <trkpt lat="22.912303" lon="110.866136">
        <ele>134.341796</ele>
        <time>2026-08-18T04:18:05.000Z</time>
      </trkpt>
      <trkpt lat="22.912315" lon="110.866163">
        <ele>134.412748</ele>
        <time>2026-08-18T04:18:06.000Z</time>
      </trkpt>
      <trkpt lat="22.912326" lon="110.866190">
        <ele>134.482621</ele>
        <time>2026-08-18T04:18:07.000Z</time>
      </trkpt>
      <trkpt lat="22.912338" lon="110.866218">
        <ele>134.555712</ele>
        <time>2026-08-18T04:18:08.000Z</time>
      </trkpt>
      <trkpt lat="22.912350" lon="110.866247">
        <ele>134.630956</ele>
        <time>2026-08-18T04:18:09.000Z</time>
      </trkpt>
      <trkpt lat="22.912361" lon="110.866276">
        <ele>134.705183</ele>
        <time>2026-08-18T04:18:10.000Z</time>
      </trkpt>
      <trkpt lat="22.912372" lon="110.866305">
        <ele>134.779410</ele>
        <time>2026-08-18T04:18:11.000Z</time>
      </trkpt>
      <trkpt lat="22.912385" lon="110.866332">
        <ele>134.851516</ele>
        <time>2026-08-18T04:18:12.000Z</time>
      </trkpt>
      <trkpt lat="22.912400" lon="110.866359">
        <ele>134.926142</ele>
        <time>2026-08-18T04:18:13.000Z</time>
      </trkpt>
      <trkpt lat="22.912414" lon="110.866387">
        <ele>135.001544</ele>
        <time>2026-08-18T04:18:14.000Z</time>
      </trkpt>
      <trkpt lat="22.912427" lon="110.866415">
        <ele>135.075756</ele>
        <time>2026-08-18T04:18:15.000Z</time>
      </trkpt>
      <trkpt lat="22.912440" lon="110.866444">
        <ele>135.152088</ele>
        <time>2026-08-18T04:18:16.000Z</time>
      </trkpt>
      <trkpt lat="22.912452" lon="110.866474">
        <ele>135.229496</ele>
        <time>2026-08-18T04:18:17.000Z</time>
      </trkpt>
      <trkpt lat="22.912462" lon="110.866503">
        <ele>135.302784</ele>
        <time>2026-08-18T04:18:18.000Z</time>
      </trkpt>
      <trkpt lat="22.912473" lon="110.866531">
        <ele>135.374828</ele>
        <time>2026-08-18T04:18:19.000Z</time>
      </trkpt>
      <trkpt lat="22.912484" lon="110.866560">
        <ele>135.449056</ele>
        <time>2026-08-18T04:18:20.000Z</time>
      </trkpt>
      <trkpt lat="22.912497" lon="110.866586">
        <ele>135.519073</ele>
        <time>2026-08-18T04:18:21.000Z</time>
      </trkpt>
      <trkpt lat="22.912507" lon="110.866613">
        <ele>135.587947</ele>
        <time>2026-08-18T04:18:22.000Z</time>
      </trkpt>
      <trkpt lat="22.912518" lon="110.866642">
        <ele>135.662174</ele>
        <time>2026-08-18T04:18:23.000Z</time>
      </trkpt>
      <trkpt lat="22.912530" lon="110.866671">
        <ele>135.737418</ele>
        <time>2026-08-18T04:18:24.000Z</time>
      </trkpt>
      <trkpt lat="22.912543" lon="110.866699">
        <ele>135.811629</ele>
        <time>2026-08-18T04:18:25.000Z</time>
      </trkpt>
      <trkpt lat="22.912557" lon="110.866727">
        <ele>135.887032</ele>
        <time>2026-08-18T04:18:26.000Z</time>
      </trkpt>
      <trkpt lat="22.912571" lon="110.866754">
        <ele>135.960363</ele>
        <time>2026-08-18T04:18:27.000Z</time>
      </trkpt>
      <trkpt lat="22.912586" lon="110.866780">
        <ele>136.032972</ele>
        <time>2026-08-18T04:18:28.000Z</time>
      </trkpt>
      <trkpt lat="22.912600" lon="110.866806">
        <ele>136.104250</ele>
        <time>2026-08-18T04:18:29.000Z</time>
      </trkpt>
      <trkpt lat="22.912616" lon="110.866833">
        <ele>136.180235</ele>
        <time>2026-08-18T04:18:30.000Z</time>
      </trkpt>
      <trkpt lat="22.912629" lon="110.866860">
        <ele>136.252341</ele>
        <time>2026-08-18T04:18:31.000Z</time>
      </trkpt>
      <trkpt lat="22.912641" lon="110.866888">
        <ele>136.325431</ele>
        <time>2026-08-18T04:18:32.000Z</time>
      </trkpt>
      <trkpt lat="22.912654" lon="110.866915">
        <ele>136.397537</ele>
        <time>2026-08-18T04:18:33.000Z</time>
      </trkpt>
      <trkpt lat="22.912669" lon="110.866941">
        <ele>136.470146</ele>
        <time>2026-08-18T04:18:34.000Z</time>
      </trkpt>
      <trkpt lat="22.912686" lon="110.866967">
        <ele>136.545609</ele>
        <time>2026-08-18T04:18:35.000Z</time>
      </trkpt>
      <trkpt lat="22.912701" lon="110.866995">
        <ele>136.622270</ele>
        <time>2026-08-18T04:18:36.000Z</time>
      </trkpt>
      <trkpt lat="22.912719" lon="110.867022">
        <ele>136.701154</ele>
        <time>2026-08-18T04:18:37.000Z</time>
      </trkpt>
      <trkpt lat="22.912735" lon="110.867050">
        <ele>136.779139</ele>
        <time>2026-08-18T04:18:38.000Z</time>
      </trkpt>
      <trkpt lat="22.912751" lon="110.867079">
        <ele>136.859145</ele>
        <time>2026-08-18T04:18:39.000Z</time>
      </trkpt>
      <trkpt lat="22.912767" lon="110.867107">
        <ele>136.937130</ele>
        <time>2026-08-18T04:18:40.000Z</time>
      </trkpt>
      <trkpt lat="22.912783" lon="110.867135">
        <ele>137.015115</ele>
        <time>2026-08-18T04:18:41.000Z</time>
      </trkpt>
      <trkpt lat="22.912801" lon="110.867163">
        <ele>137.095928</ele>
        <time>2026-08-18T04:18:42.000Z</time>
      </trkpt>
      <trkpt lat="22.912819" lon="110.867191">
        <ele>137.176740</ele>
        <time>2026-08-18T04:18:43.000Z</time>
      </trkpt>
      <trkpt lat="22.912837" lon="110.867218">
        <ele>137.255623</ele>
        <time>2026-08-18T04:18:44.000Z</time>
      </trkpt>
      <trkpt lat="22.912856" lon="110.867245">
        <ele>137.336040</ele>
        <time>2026-08-18T04:18:45.000Z</time>
      </trkpt>
      <trkpt lat="22.912874" lon="110.867272">
        <ele>137.414923</ele>
        <time>2026-08-18T04:18:46.000Z</time>
      </trkpt>
      <trkpt lat="22.912894" lon="110.867299">
        <ele>137.496925</ele>
        <time>2026-08-18T04:18:47.000Z</time>
      </trkpt>
      <trkpt lat="22.912912" lon="110.867325">
        <ele>137.573903</ele>
        <time>2026-08-18T04:18:48.000Z</time>
      </trkpt>
      <trkpt lat="22.912931" lon="110.867351">
        <ele>137.652452</ele>
        <time>2026-08-18T04:18:49.000Z</time>
      </trkpt>
      <trkpt lat="22.912949" lon="110.867380">
        <ele>137.735217</ele>
        <time>2026-08-18T04:18:50.000Z</time>
      </trkpt>
      <trkpt lat="22.912969" lon="110.867408">
        <ele>137.819076</ele>
        <time>2026-08-18T04:18:51.000Z</time>
      </trkpt>
      <trkpt lat="22.912990" lon="110.867435">
        <ele>137.902712</ele>
        <time>2026-08-18T04:18:52.000Z</time>
      </trkpt>
      <trkpt lat="22.913012" lon="110.867463">
        <ele>137.968973</ele>
        <time>2026-08-18T04:18:53.000Z</time>
      </trkpt>
      <trkpt lat="22.913036" lon="110.867491">
        <ele>137.917529</ele>
        <time>2026-08-18T04:18:54.000Z</time>
      </trkpt>
      <trkpt lat="22.913059" lon="110.867519">
        <ele>137.867069</ele>
        <time>2026-08-18T04:18:55.000Z</time>
      </trkpt>
      <trkpt lat="22.913081" lon="110.867549">
        <ele>137.815493</ele>
        <time>2026-08-18T04:18:56.000Z</time>
      </trkpt>
      <trkpt lat="22.913102" lon="110.867579">
        <ele>137.764813</ele>
        <time>2026-08-18T04:18:57.000Z</time>
      </trkpt>
      <trkpt lat="22.913123" lon="110.867611">
        <ele>137.711967</ele>
        <time>2026-08-18T04:18:58.000Z</time>
      </trkpt>
      <trkpt lat="22.913143" lon="110.867642">
        <ele>137.661061</ele>
        <time>2026-08-18T04:18:59.000Z</time>
      </trkpt>
      <trkpt lat="22.913165" lon="110.867674">
        <ele>137.607354</ele>
        <time>2026-08-18T04:19:00.000Z</time>
      </trkpt>
      <trkpt lat="22.913188" lon="110.867706">
        <ele>137.552761</ele>
        <time>2026-08-18T04:19:01.000Z</time>
      </trkpt>
      <trkpt lat="22.913212" lon="110.867735">
        <ele>137.500325</ele>
        <time>2026-08-18T04:19:02.000Z</time>
      </trkpt>
      <trkpt lat="22.913238" lon="110.867765">
        <ele>137.444922</ele>
        <time>2026-08-18T04:19:03.000Z</time>
      </trkpt>
      <trkpt lat="22.913266" lon="110.867795">
        <ele>137.387478</ele>
        <time>2026-08-18T04:19:04.000Z</time>
      </trkpt>
      <trkpt lat="22.913293" lon="110.867826">
        <ele>137.330095</ele>
        <time>2026-08-18T04:19:05.000Z</time>
      </trkpt>
      <trkpt lat="22.913321" lon="110.867858">
        <ele>137.270731</ele>
        <time>2026-08-18T04:19:06.000Z</time>
      </trkpt>
      <trkpt lat="22.913351" lon="110.867889">
        <ele>137.210254</ele>
        <time>2026-08-18T04:19:07.000Z</time>
      </trkpt>
      <trkpt lat="22.913380" lon="110.867921">
        <ele>137.149875</ele>
        <time>2026-08-18T04:19:08.000Z</time>
      </trkpt>
      <trkpt lat="22.913409" lon="110.867951">
        <ele>137.091383</ele>
        <time>2026-08-18T04:19:09.000Z</time>
      </trkpt>
      <trkpt lat="22.913437" lon="110.867983">
        <ele>137.032018</ele>
        <time>2026-08-18T04:19:10.000Z</time>
      </trkpt>
      <trkpt lat="22.913466" lon="110.868015">
        <ele>136.971639</ele>
        <time>2026-08-18T04:19:11.000Z</time>
      </trkpt>
      <trkpt lat="22.913496" lon="110.868048">
        <ele>136.909277</ele>
        <time>2026-08-18T04:19:12.000Z</time>
      </trkpt>
      <trkpt lat="22.913526" lon="110.868082">
        <ele>136.845951</ele>
        <time>2026-08-18T04:19:13.000Z</time>
      </trkpt>
      <trkpt lat="22.913558" lon="110.868117">
        <ele>136.779623</ele>
        <time>2026-08-18T04:19:14.000Z</time>
      </trkpt>
      <trkpt lat="22.913588" lon="110.868149">
        <ele>136.718211</ele>
        <time>2026-08-18T04:19:15.000Z</time>
      </trkpt>
      <trkpt lat="22.913619" lon="110.868181">
        <ele>136.655749</ele>
        <time>2026-08-18T04:19:16.000Z</time>
      </trkpt>
      <trkpt lat="22.913652" lon="110.868212">
        <ele>136.592027</ele>
        <time>2026-08-18T04:19:17.000Z</time>
      </trkpt>
      <trkpt lat="22.913687" lon="110.868243">
        <ele>136.526069</ele>
        <time>2026-08-18T04:19:18.000Z</time>
      </trkpt>
      <trkpt lat="22.913723" lon="110.868275">
        <ele>136.458130</ele>
        <time>2026-08-18T04:19:19.000Z</time>
      </trkpt>
      <trkpt lat="22.913759" lon="110.868309">
        <ele>136.388455</ele>
        <time>2026-08-18T04:19:20.000Z</time>
      </trkpt>
      <trkpt lat="22.913794" lon="110.868344">
        <ele>136.318971</ele>
        <time>2026-08-18T04:19:21.000Z</time>
      </trkpt>
      <trkpt lat="22.913831" lon="110.868380">
        <ele>136.246421</ele>
        <time>2026-08-18T04:19:22.000Z</time>
      </trkpt>
      <trkpt lat="22.913869" lon="110.868418">
        <ele>136.170981</ele>
        <time>2026-08-18T04:19:23.000Z</time>
      </trkpt>
      <trkpt lat="22.913909" lon="110.868454">
        <ele>136.095113</ele>
        <time>2026-08-18T04:19:24.000Z</time>
      </trkpt>
      <trkpt lat="22.913949" lon="110.868493">
        <ele>136.016608</ele>
        <time>2026-08-18T04:19:25.000Z</time>
      </trkpt>
      <trkpt lat="22.913990" lon="110.868531">
        <ele>135.937890</ele>
        <time>2026-08-18T04:19:26.000Z</time>
      </trkpt>
      <trkpt lat="22.914033" lon="110.868570">
        <ele>135.856073</ele>
        <time>2026-08-18T04:19:27.000Z</time>
      </trkpt>
      <trkpt lat="22.914076" lon="110.868609">
        <ele>135.774257</ele>
        <time>2026-08-18T04:19:28.000Z</time>
      </trkpt>
      <trkpt lat="22.914120" lon="110.868647">
        <ele>135.692158</ele>
        <time>2026-08-18T04:19:29.000Z</time>
      </trkpt>
      <trkpt lat="22.914165" lon="110.868682">
        <ele>135.611326</ele>
        <time>2026-08-18T04:19:30.000Z</time>
      </trkpt>
      <trkpt lat="22.914210" lon="110.868719">
        <ele>135.528899</ele>
        <time>2026-08-18T04:19:31.000Z</time>
      </trkpt>
      <trkpt lat="22.914252" lon="110.868756">
        <ele>135.449919</ele>
        <time>2026-08-18T04:19:32.000Z</time>
      </trkpt>
      <trkpt lat="22.914294" lon="110.868792">
        <ele>135.371780</ele>
        <time>2026-08-18T04:19:33.000Z</time>
      </trkpt>
      <trkpt lat="22.914339" lon="110.868830">
        <ele>135.249256</ele>
        <time>2026-08-18T04:19:34.000Z</time>
      </trkpt>
      <trkpt lat="22.914383" lon="110.868868">
        <ele>135.114795</ele>
        <time>2026-08-18T04:19:35.000Z</time>
      </trkpt>
      <trkpt lat="22.914428" lon="110.868905">
        <ele>134.979797</ele>
        <time>2026-08-18T04:19:36.000Z</time>
      </trkpt>
      <trkpt lat="22.914473" lon="110.868941">
        <ele>134.846116</ele>
        <time>2026-08-18T04:19:37.000Z</time>
      </trkpt>
      <trkpt lat="22.914517" lon="110.868979">
        <ele>134.711656</ele>
        <time>2026-08-18T04:19:38.000Z</time>
      </trkpt>
      <trkpt lat="22.914561" lon="110.869017">
        <ele>134.577196</ele>
        <time>2026-08-18T04:19:39.000Z</time>
      </trkpt>
      <trkpt lat="22.914607" lon="110.869056">
        <ele>134.437616</ele>
        <time>2026-08-18T04:19:40.000Z</time>
      </trkpt>
      <trkpt lat="22.914651" lon="110.869095">
        <ele>134.301773</ele>
        <time>2026-08-18T04:19:41.000Z</time>
      </trkpt>
      <trkpt lat="22.914696" lon="110.869136">
        <ele>134.161279</ele>
        <time>2026-08-18T04:19:42.000Z</time>
      </trkpt>
      <trkpt lat="22.914742" lon="110.869177">
        <ele>134.018945</ele>
        <time>2026-08-18T04:19:43.000Z</time>
      </trkpt>
      <trkpt lat="22.914787" lon="110.869216">
        <ele>133.881242</ele>
        <time>2026-08-18T04:19:44.000Z</time>
      </trkpt>
      <trkpt lat="22.914833" lon="110.869255">
        <ele>133.741662</ele>
        <time>2026-08-18T04:19:45.000Z</time>
      </trkpt>
      <trkpt lat="22.914880" lon="110.869294">
        <ele>133.600189</ele>
        <time>2026-08-18T04:19:46.000Z</time>
      </trkpt>
      <trkpt lat="22.914927" lon="110.869332">
        <ele>133.460043</ele>
        <time>2026-08-18T04:19:47.000Z</time>
      </trkpt>
      <trkpt lat="22.914973" lon="110.869371">
        <ele>133.320463</ele>
        <time>2026-08-18T04:19:48.000Z</time>
      </trkpt>
      <trkpt lat="22.915019" lon="110.869410">
        <ele>133.180883</ele>
        <time>2026-08-18T04:19:49.000Z</time>
      </trkpt>
      <trkpt lat="22.915067" lon="110.869449">
        <ele>133.037503</ele>
        <time>2026-08-18T04:19:50.000Z</time>
      </trkpt>
      <trkpt lat="22.915113" lon="110.869487">
        <ele>132.899268</ele>
        <time>2026-08-18T04:19:51.000Z</time>
      </trkpt>
      <trkpt lat="22.915160" lon="110.869526">
        <ele>132.757795</ele>
        <time>2026-08-18T04:19:52.000Z</time>
      </trkpt>
      <trkpt lat="22.915206" lon="110.869564">
        <ele>132.619560</ele>
        <time>2026-08-18T04:19:53.000Z</time>
      </trkpt>
      <trkpt lat="22.915255" lon="110.869602">
        <ele>132.475549</ele>
        <time>2026-08-18T04:19:54.000Z</time>
      </trkpt>
      <trkpt lat="22.915303" lon="110.869640">
        <ele>132.333478</ele>
        <time>2026-08-18T04:19:55.000Z</time>
      </trkpt>
      <trkpt lat="22.915353" lon="110.869678">
        <ele>132.187515</ele>
        <time>2026-08-18T04:19:56.000Z</time>
      </trkpt>
      <trkpt lat="22.915404" lon="110.869716">
        <ele>132.039587</ele>
        <time>2026-08-18T04:19:57.000Z</time>
      </trkpt>
      <trkpt lat="22.915453" lon="110.869758">
        <ele>131.890283</ele>
        <time>2026-08-18T04:19:58.000Z</time>
      </trkpt>
      <trkpt lat="22.915501" lon="110.869798">
        <ele>131.745572</ele>
        <time>2026-08-18T04:19:59.000Z</time>
      </trkpt>
      <trkpt lat="22.915549" lon="110.869837">
        <ele>131.602192</ele>
        <time>2026-08-18T04:20:00.000Z</time>
      </trkpt>
      <trkpt lat="22.915596" lon="110.869878">
        <ele>131.458002</ele>
        <time>2026-08-18T04:20:01.000Z</time>
      </trkpt>
      <trkpt lat="22.915645" lon="110.869920">
        <ele>131.308698</ele>
        <time>2026-08-18T04:20:02.000Z</time>
      </trkpt>
      <trkpt lat="22.915697" lon="110.869961">
        <ele>131.155004</ele>
        <time>2026-08-18T04:20:03.000Z</time>
      </trkpt>
      <trkpt lat="22.915747" lon="110.870002">
        <ele>131.006371</ele>
        <time>2026-08-18T04:20:04.000Z</time>
      </trkpt>
      <trkpt lat="22.915796" lon="110.870043">
        <ele>130.862566</ele>
        <time>2026-08-18T04:20:05.000Z</time>
      </trkpt>
      <trkpt lat="22.915850" lon="110.870084">
        <ele>130.709391</ele>
        <time>2026-08-18T04:20:06.000Z</time>
      </trkpt>
      <trkpt lat="22.915902" lon="110.870127">
        <ele>130.557446</ele>
        <time>2026-08-18T04:20:07.000Z</time>
      </trkpt>
      <trkpt lat="22.915955" lon="110.870172">
        <ele>130.401045</ele>
        <time>2026-08-18T04:20:08.000Z</time>
      </trkpt>
      <trkpt lat="22.916007" lon="110.870216">
        <ele>130.247794</ele>
        <time>2026-08-18T04:20:09.000Z</time>
      </trkpt>
      <trkpt lat="22.916062" lon="110.870262">
        <ele>130.086407</ele>
        <time>2026-08-18T04:20:10.000Z</time>
      </trkpt>
      <trkpt lat="22.916113" lon="110.870309">
        <ele>129.930905</ele>
        <time>2026-08-18T04:20:11.000Z</time>
      </trkpt>
      <trkpt lat="22.916164" lon="110.870355">
        <ele>129.776780</ele>
        <time>2026-08-18T04:20:12.000Z</time>
      </trkpt>
      <trkpt lat="22.916219" lon="110.870403">
        <ele>129.612745</ele>
        <time>2026-08-18T04:20:13.000Z</time>
      </trkpt>
      <trkpt lat="22.916272" lon="110.870449">
        <ele>129.455015</ele>
        <time>2026-08-18T04:20:14.000Z</time>
      </trkpt>
      <trkpt lat="22.916327" lon="110.870490">
        <ele>129.299930</ele>
        <time>2026-08-18T04:20:15.000Z</time>
      </trkpt>
      <trkpt lat="22.916383" lon="110.870534">
        <ele>129.139243</ele>
        <time>2026-08-18T04:20:16.000Z</time>
      </trkpt>
      <trkpt lat="22.916439" lon="110.870578">
        <ele>128.978556</ele>
        <time>2026-08-18T04:20:17.000Z</time>
      </trkpt>
      <trkpt lat="22.916494" lon="110.870622">
        <ele>128.819747</ele>
        <time>2026-08-18T04:20:18.000Z</time>
      </trkpt>
      <trkpt lat="22.916550" lon="110.870668">
        <ele>128.656512</ele>
        <time>2026-08-18T04:20:19.000Z</time>
      </trkpt>
      <trkpt lat="22.916606" lon="110.870716">
        <ele>128.490659</ele>
        <time>2026-08-18T04:20:20.000Z</time>
      </trkpt>
      <trkpt lat="22.916661" lon="110.870762">
        <ele>128.329273</ele>
        <time>2026-08-18T04:20:21.000Z</time>
      </trkpt>
      <trkpt lat="22.916716" lon="110.870811">
        <ele>128.163888</ele>
        <time>2026-08-18T04:20:22.000Z</time>
      </trkpt>
      <trkpt lat="22.916773" lon="110.870859">
        <ele>127.996205</ele>
        <time>2026-08-18T04:20:23.000Z</time>
      </trkpt>
      <trkpt lat="22.916832" lon="110.870908">
        <ele>127.823532</ele>
        <time>2026-08-18T04:20:24.000Z</time>
      </trkpt>
      <trkpt lat="22.916892" lon="110.870957">
        <ele>127.649007</ele>
        <time>2026-08-18T04:20:25.000Z</time>
      </trkpt>
      <trkpt lat="22.916953" lon="110.871006">
        <ele>127.472618</ele>
        <time>2026-08-18T04:20:26.000Z</time>
      </trkpt>
      <trkpt lat="22.917010" lon="110.871058">
        <ele>127.299553</ele>
        <time>2026-08-18T04:20:27.000Z</time>
      </trkpt>
      <trkpt lat="22.917072" lon="110.871114">
        <ele>127.112079</ele>
        <time>2026-08-18T04:20:28.000Z</time>
      </trkpt>
      <trkpt lat="22.917134" lon="110.871167">
        <ele>126.928645</ele>
        <time>2026-08-18T04:20:29.000Z</time>
      </trkpt>
      <trkpt lat="22.917195" lon="110.871217">
        <ele>126.741505</ele>
        <time>2026-08-18T04:20:30.000Z</time>
      </trkpt>
      <trkpt lat="22.917258" lon="110.871269">
        <ele>126.542605</ele>
        <time>2026-08-18T04:20:31.000Z</time>
      </trkpt>
      <trkpt lat="22.917321" lon="110.871323">
        <ele>126.340870</ele>
        <time>2026-08-18T04:20:32.000Z</time>
      </trkpt>
      <trkpt lat="22.917386" lon="110.871377">
        <ele>126.135166</ele>
        <time>2026-08-18T04:20:33.000Z</time>
      </trkpt>
      <trkpt lat="22.917451" lon="110.871434">
        <ele>125.925170</ele>
        <time>2026-08-18T04:20:34.000Z</time>
      </trkpt>
      <trkpt lat="22.917516" lon="110.871493">
        <ele>125.712233</ele>
        <time>2026-08-18T04:20:35.000Z</time>
      </trkpt>
      <trkpt lat="22.917585" lon="110.871553">
        <ele>125.490051</ele>
        <time>2026-08-18T04:20:36.000Z</time>
      </trkpt>
      <trkpt lat="22.917651" lon="110.871613">
        <ele>125.273701</ele>
        <time>2026-08-18T04:20:37.000Z</time>
      </trkpt>
      <trkpt lat="22.917716" lon="110.871673">
        <ele>125.059273</ele>
        <time>2026-08-18T04:20:38.000Z</time>
      </trkpt>
      <trkpt lat="22.917779" lon="110.871736">
        <ele>124.844006</ele>
        <time>2026-08-18T04:20:39.000Z</time>
      </trkpt>
      <trkpt lat="22.917844" lon="110.871800">
        <ele>124.623468</ele>
        <time>2026-08-18T04:20:40.000Z</time>
      </trkpt>
      <trkpt lat="22.917908" lon="110.871864">
        <ele>124.404784</ele>
        <time>2026-08-18T04:20:41.000Z</time>
      </trkpt>
      <trkpt lat="22.917972" lon="110.871931">
        <ele>124.181337</ele>
        <time>2026-08-18T04:20:42.000Z</time>
      </trkpt>
      <trkpt lat="22.918035" lon="110.872000">
        <ele>123.956429</ele>
        <time>2026-08-18T04:20:43.000Z</time>
      </trkpt>
      <trkpt lat="22.918095" lon="110.872067">
        <ele>123.740106</ele>
        <time>2026-08-18T04:20:44.000Z</time>
      </trkpt>
      <trkpt lat="22.918155" lon="110.872136">
        <ele>123.520441</ele>
        <time>2026-08-18T04:20:45.000Z</time>
      </trkpt>
      <trkpt lat="22.918213" lon="110.872207">
        <ele>123.300753</ele>
        <time>2026-08-18T04:20:46.000Z</time>
      </trkpt>
      <trkpt lat="22.918272" lon="110.872276">
        <ele>123.082805</ele>
        <time>2026-08-18T04:20:47.000Z</time>
      </trkpt>
      <trkpt lat="22.918330" lon="110.872347">
        <ele>122.863118</ele>
        <time>2026-08-18T04:20:48.000Z</time>
      </trkpt>
      <trkpt lat="22.918385" lon="110.872419">
        <ele>122.646582</ele>
        <time>2026-08-18T04:20:49.000Z</time>
      </trkpt>
      <trkpt lat="22.918438" lon="110.872492">
        <ele>122.431408</ele>
        <time>2026-08-18T04:20:50.000Z</time>
      </trkpt>
      <trkpt lat="22.918486" lon="110.872563">
        <ele>122.311670</ele>
        <time>2026-08-18T04:20:51.000Z</time>
      </trkpt>
      <trkpt lat="22.918530" lon="110.872636">
        <ele>122.251844</ele>
        <time>2026-08-18T04:20:52.000Z</time>
      </trkpt>
      <trkpt lat="22.918571" lon="110.872709">
        <ele>122.193211</ele>
        <time>2026-08-18T04:20:53.000Z</time>
      </trkpt>
      <trkpt lat="22.918613" lon="110.872783">
        <ele>122.133605</ele>
        <time>2026-08-18T04:20:54.000Z</time>
      </trkpt>
      <trkpt lat="22.918655" lon="110.872856">
        <ele>122.074581</ele>
        <time>2026-08-18T04:20:55.000Z</time>
      </trkpt>
      <trkpt lat="22.918696" lon="110.872930">
        <ele>122.015362</ele>
        <time>2026-08-18T04:20:56.000Z</time>
      </trkpt>
      <trkpt lat="22.918734" lon="110.873001">
        <ele>121.959050</ele>
        <time>2026-08-18T04:20:57.000Z</time>
      </trkpt>
      <trkpt lat="22.918773" lon="110.873072">
        <ele>121.902361</ele>
        <time>2026-08-18T04:20:58.000Z</time>
      </trkpt>
      <trkpt lat="22.918809" lon="110.873145">
        <ele>121.845578</ele>
        <time>2026-08-18T04:20:59.000Z</time>
      </trkpt>
      <trkpt lat="22.918842" lon="110.873217">
        <ele>121.790428</ele>
        <time>2026-08-18T04:21:00.000Z</time>
      </trkpt>
      <trkpt lat="22.918873" lon="110.873290">
        <ele>121.735304</ele>
        <time>2026-08-18T04:21:01.000Z</time>
      </trkpt>
      <trkpt lat="22.918905" lon="110.873363">
        <ele>121.679864</ele>
        <time>2026-08-18T04:21:02.000Z</time>
      </trkpt>
      <trkpt lat="22.918934" lon="110.873436">
        <ele>121.625347</ele>
        <time>2026-08-18T04:21:03.000Z</time>
      </trkpt>
      <trkpt lat="22.918965" lon="110.873508">
        <ele>121.570845</ele>
        <time>2026-08-18T04:21:04.000Z</time>
      </trkpt>
      <trkpt lat="22.918998" lon="110.873582">
        <ele>121.514465</ele>
        <time>2026-08-18T04:21:05.000Z</time>
      </trkpt>
      <trkpt lat="22.919026" lon="110.873655">
        <ele>121.460238</ele>
        <time>2026-08-18T04:21:06.000Z</time>
      </trkpt>
      <trkpt lat="22.919056" lon="110.873728">
        <ele>121.405421</ele>
        <time>2026-08-18T04:21:07.000Z</time>
      </trkpt>
      <trkpt lat="22.919086" lon="110.873801">
        <ele>121.350605</ele>
        <time>2026-08-18T04:21:08.000Z</time>
      </trkpt>
      <trkpt lat="22.919125" lon="110.873873">
        <ele>121.293326</ele>
        <time>2026-08-18T04:21:09.000Z</time>
      </trkpt>
      <trkpt lat="22.919161" lon="110.873944">
        <ele>121.237748</ele>
        <time>2026-08-18T04:21:10.000Z</time>
      </trkpt>
      <trkpt lat="22.919195" lon="110.874018">
        <ele>121.181039</ele>
        <time>2026-08-18T04:21:11.000Z</time>
      </trkpt>
      <trkpt lat="22.919228" lon="110.874087">
        <ele>121.127724</ele>
        <time>2026-08-18T04:21:12.000Z</time>
      </trkpt>
      <trkpt lat="22.919261" lon="110.874153">
        <ele>121.076226</ele>
        <time>2026-08-18T04:21:13.000Z</time>
      </trkpt>
      <trkpt lat="22.919289" lon="110.874219">
        <ele>121.026396</ele>
        <time>2026-08-18T04:21:14.000Z</time>
      </trkpt>
      <trkpt lat="22.919318" lon="110.874284">
        <ele>121.070620</ele>
        <time>2026-08-18T04:21:15.000Z</time>
      </trkpt>
      <trkpt lat="22.919346" lon="110.874349">
        <ele>121.169817</ele>
        <time>2026-08-18T04:21:16.000Z</time>
      </trkpt>
      <trkpt lat="22.919372" lon="110.874413">
        <ele>121.266513</ele>
        <time>2026-08-18T04:21:17.000Z</time>
      </trkpt>
      <trkpt lat="22.919401" lon="110.874479">
        <ele>121.367601</ele>
        <time>2026-08-18T04:21:18.000Z</time>
      </trkpt>
      <trkpt lat="22.919428" lon="110.874546">
        <ele>121.468698</ele>
        <time>2026-08-18T04:21:19.000Z</time>
      </trkpt>
      <trkpt lat="22.919456" lon="110.874615">
        <ele>121.572929</ele>
        <time>2026-08-18T04:21:20.000Z</time>
      </trkpt>
      <trkpt lat="22.919479" lon="110.874683">
        <ele>121.673069</ele>
        <time>2026-08-18T04:21:21.000Z</time>
      </trkpt>
      <trkpt lat="22.919504" lon="110.874749">
        <ele>121.771721</ele>
        <time>2026-08-18T04:21:22.000Z</time>
      </trkpt>
      <trkpt lat="22.919533" lon="110.874811">
        <ele>121.867847</ele>
        <time>2026-08-18T04:21:23.000Z</time>
      </trkpt>
      <trkpt lat="22.919564" lon="110.874873">
        <ele>121.965370</ele>
        <time>2026-08-18T04:21:24.000Z</time>
      </trkpt>
      <trkpt lat="22.919592" lon="110.874931">
        <ele>122.055894</ele>
        <time>2026-08-18T04:21:25.000Z</time>
      </trkpt>
      <trkpt lat="22.919617" lon="110.874990">
        <ele>122.145671</ele>
        <time>2026-08-18T04:21:26.000Z</time>
      </trkpt>
      <trkpt lat="22.919641" lon="110.875049">
        <ele>122.234832</ele>
        <time>2026-08-18T04:21:27.000Z</time>
      </trkpt>
      <trkpt lat="22.919666" lon="110.875109">
        <ele>122.325867</ele>
        <time>2026-08-18T04:21:28.000Z</time>
      </trkpt>
      <trkpt lat="22.919693" lon="110.875163">
        <ele>122.410806</ele>
        <time>2026-08-18T04:21:29.000Z</time>
      </trkpt>
      <trkpt lat="22.919718" lon="110.875214">
        <ele>122.490670</ele>
        <time>2026-08-18T04:21:30.000Z</time>
      </trkpt>
      <trkpt lat="22.919744" lon="110.875264">
        <ele>122.570044</ele>
        <time>2026-08-18T04:21:31.000Z</time>
      </trkpt>
      <trkpt lat="22.919763" lon="110.875312">
        <ele>122.642267</ele>
        <time>2026-08-18T04:21:32.000Z</time>
      </trkpt>
      <trkpt lat="22.919786" lon="110.875360">
        <ele>122.717063</ele>
        <time>2026-08-18T04:21:33.000Z</time>
      </trkpt>
      <trkpt lat="22.919808" lon="110.875405">
        <ele>122.787490</ele>
        <time>2026-08-18T04:21:34.000Z</time>
      </trkpt>
      <trkpt lat="22.919832" lon="110.875449">
        <ele>122.858181</ele>
        <time>2026-08-18T04:21:35.000Z</time>
      </trkpt>
      <trkpt lat="22.919853" lon="110.875489">
        <ele>122.921828</ele>
        <time>2026-08-18T04:21:36.000Z</time>
      </trkpt>
      <trkpt lat="22.919869" lon="110.875533">
        <ele>122.987222</ele>
        <time>2026-08-18T04:21:37.000Z</time>
      </trkpt>
      <trkpt lat="22.919889" lon="110.875577">
        <ele>123.055050</ele>
        <time>2026-08-18T04:21:38.000Z</time>
      </trkpt>
      <trkpt lat="22.919907" lon="110.875615">
        <ele>123.114120</ele>
        <time>2026-08-18T04:21:39.000Z</time>
      </trkpt>
      <trkpt lat="22.919924" lon="110.875654">
        <ele>123.173766</ele>
        <time>2026-08-18T04:21:40.000Z</time>
      </trkpt>
      <trkpt lat="22.919942" lon="110.875689">
        <ele>123.229181</ele>
        <time>2026-08-18T04:21:41.000Z</time>
      </trkpt>
      <trkpt lat="22.919958" lon="110.875725">
        <ele>123.284437</ele>
        <time>2026-08-18T04:21:42.000Z</time>
      </trkpt>
      <trkpt lat="22.919975" lon="110.875760">
        <ele>123.339136</ele>
        <time>2026-08-18T04:21:43.000Z</time>
      </trkpt>
      <trkpt lat="22.919993" lon="110.875792">
        <ele>123.390969</ele>
        <time>2026-08-18T04:21:44.000Z</time>
      </trkpt>
      <trkpt lat="22.920005" lon="110.875822">
        <ele>123.436183</ele>
        <time>2026-08-18T04:21:45.000Z</time>
      </trkpt>
      <trkpt lat="22.920020" lon="110.875854">
        <ele>123.485818</ele>
        <time>2026-08-18T04:21:46.000Z</time>
      </trkpt>
      <trkpt lat="22.920042" lon="110.875888">
        <ele>123.543258</ele>
        <time>2026-08-18T04:21:47.000Z</time>
      </trkpt>
      <trkpt lat="22.920061" lon="110.875922">
        <ele>123.598233</ele>
        <time>2026-08-18T04:21:48.000Z</time>
      </trkpt>
      <trkpt lat="22.920076" lon="110.875958">
        <ele>123.652854</ele>
        <time>2026-08-18T04:21:49.000Z</time>
      </trkpt>
      <trkpt lat="22.920092" lon="110.875994">
        <ele>123.709236</ele>
        <time>2026-08-18T04:21:50.000Z</time>
      </trkpt>
      <trkpt lat="22.920105" lon="110.876019">
        <ele>123.820810</ele>
        <time>2026-08-18T04:21:51.000Z</time>
      </trkpt>
      <trkpt lat="22.920119" lon="110.876049">
        <ele>123.951512</ele>
        <time>2026-08-18T04:21:52.000Z</time>
      </trkpt>
      <trkpt lat="22.920131" lon="110.876075">
        <ele>124.064534</ele>
        <time>2026-08-18T04:21:53.000Z</time>
      </trkpt>
      <trkpt lat="22.920140" lon="110.876102">
        <ele>124.176125</ele>
        <time>2026-08-18T04:21:54.000Z</time>
      </trkpt>
      <trkpt lat="22.920150" lon="110.876127">
        <ele>124.282051</ele>
        <time>2026-08-18T04:21:55.000Z</time>
      </trkpt>
      <trkpt lat="22.920160" lon="110.876151">
        <ele>124.384424</ele>
        <time>2026-08-18T04:21:56.000Z</time>
      </trkpt>
      <trkpt lat="22.920173" lon="110.876179">
        <ele>124.506285</ele>
        <time>2026-08-18T04:21:57.000Z</time>
      </trkpt>
      <trkpt lat="22.920185" lon="110.876209">
        <ele>124.633396</ele>
        <time>2026-08-18T04:21:58.000Z</time>
      </trkpt>
      <trkpt lat="22.920198" lon="110.876237">
        <ele>124.755258</ele>
        <time>2026-08-18T04:21:59.000Z</time>
      </trkpt>
      <trkpt lat="22.920211" lon="110.876262">
        <ele>124.866831</ele>
        <time>2026-08-18T04:22:00.000Z</time>
      </trkpt>
      <trkpt lat="22.920220" lon="110.876291">
        <ele>124.985762</ele>
        <time>2026-08-18T04:22:01.000Z</time>
      </trkpt>
      <trkpt lat="22.920230" lon="110.876317">
        <ele>125.095263</ele>
        <time>2026-08-18T04:22:02.000Z</time>
      </trkpt>
      <trkpt lat="22.920242" lon="110.876341">
        <ele>125.201393</ele>
        <time>2026-08-18T04:22:03.000Z</time>
      </trkpt>
      <trkpt lat="22.920253" lon="110.876365">
        <ele>125.305575</ele>
        <time>2026-08-18T04:22:04.000Z</time>
      </trkpt>
      <trkpt lat="22.920265" lon="110.876390">
        <ele>125.415136</ele>
        <time>2026-08-18T04:22:05.000Z</time>
      </trkpt>
      <trkpt lat="22.920273" lon="110.876412">
        <ele>125.507058</ele>
        <time>2026-08-18T04:22:06.000Z</time>
      </trkpt>
      <trkpt lat="22.920281" lon="110.876433">
        <ele>125.595377</ele>
        <time>2026-08-18T04:22:07.000Z</time>
      </trkpt>
      <trkpt lat="22.920288" lon="110.876452">
        <ele>125.674906</ele>
        <time>2026-08-18T04:22:08.000Z</time>
      </trkpt>
      <trkpt lat="22.920298" lon="110.876472">
        <ele>125.763348</ele>
        <time>2026-08-18T04:22:09.000Z</time>
      </trkpt>
      <trkpt lat="22.920306" lon="110.876491">
        <ele>125.844538</ele>
        <time>2026-08-18T04:22:10.000Z</time>
      </trkpt>
      <trkpt lat="22.920316" lon="110.876510">
        <ele>125.929584</ele>
        <time>2026-08-18T04:22:11.000Z</time>
      </trkpt>
      <trkpt lat="22.920325" lon="110.876529">
        <ele>126.012618</ele>
        <time>2026-08-18T04:22:12.000Z</time>
      </trkpt>
      <trkpt lat="22.920334" lon="110.876547">
        <ele>126.092215</ele>
        <time>2026-08-18T04:22:13.000Z</time>
      </trkpt>
      <trkpt lat="22.920342" lon="110.876565">
        <ele>126.169888</ele>
        <time>2026-08-18T04:22:14.000Z</time>
      </trkpt>
      <trkpt lat="22.920347" lon="110.876579">
        <ele>126.228244</ele>
        <time>2026-08-18T04:22:15.000Z</time>
      </trkpt>
      <trkpt lat="22.920352" lon="110.876594">
        <ele>126.290239</ele>
        <time>2026-08-18T04:22:16.000Z</time>
      </trkpt>
      <trkpt lat="22.920358" lon="110.876607">
        <ele>126.346750</ele>
        <time>2026-08-18T04:22:17.000Z</time>
      </trkpt>
      <trkpt lat="22.920367" lon="110.876622">
        <ele>126.416324</ele>
        <time>2026-08-18T04:22:18.000Z</time>
      </trkpt>
      <trkpt lat="22.920371" lon="110.876639">
        <ele>126.484513</ele>
        <time>2026-08-18T04:22:19.000Z</time>
      </trkpt>
      <trkpt lat="22.920377" lon="110.876659">
        <ele>126.566259</ele>
        <time>2026-08-18T04:22:20.000Z</time>
      </trkpt>
      <trkpt lat="22.920388" lon="110.876677">
        <ele>126.650211</ele>
        <time>2026-08-18T04:22:21.000Z</time>
      </trkpt>
      <trkpt lat="22.920396" lon="110.876695">
        <ele>126.727884</ele>
        <time>2026-08-18T04:22:22.000Z</time>
      </trkpt>
      <trkpt lat="22.920403" lon="110.876712">
        <ele>126.800253</ele>
        <time>2026-08-18T04:22:23.000Z</time>
      </trkpt>
      <trkpt lat="22.920410" lon="110.876730">
        <ele>126.876188</ele>
        <time>2026-08-18T04:22:24.000Z</time>
      </trkpt>
      <trkpt lat="22.920419" lon="110.876750">
        <ele>126.962695</ele>
        <time>2026-08-18T04:22:25.000Z</time>
      </trkpt>
      <trkpt lat="22.920428" lon="110.876769">
        <ele>127.045729</ele>
        <time>2026-08-18T04:22:26.000Z</time>
      </trkpt>
      <trkpt lat="22.920438" lon="110.876790">
        <ele>127.137605</ele>
        <time>2026-08-18T04:22:27.000Z</time>
      </trkpt>
      <trkpt lat="22.920449" lon="110.876809">
        <ele>127.224821</ele>
        <time>2026-08-18T04:22:28.000Z</time>
      </trkpt>
      <trkpt lat="22.920458" lon="110.876830">
        <ele>127.314837</ele>
        <time>2026-08-18T04:22:29.000Z</time>
      </trkpt>
      <trkpt lat="22.920469" lon="110.876847">
        <ele>127.395579</ele>
        <time>2026-08-18T04:22:30.000Z</time>
      </trkpt>
      <trkpt lat="22.920482" lon="110.876868">
        <ele>127.493913</ele>
        <time>2026-08-18T04:22:31.000Z</time>
      </trkpt>
      <trkpt lat="22.920492" lon="110.876888">
        <ele>127.582354</ele>
        <time>2026-08-18T04:22:32.000Z</time>
      </trkpt>
      <trkpt lat="22.920503" lon="110.876909">
        <ele>127.676243</ele>
        <time>2026-08-18T04:22:33.000Z</time>
      </trkpt>
      <trkpt lat="22.920512" lon="110.876929">
        <ele>127.762751</ele>
        <time>2026-08-18T04:22:34.000Z</time>
      </trkpt>
      <trkpt lat="22.920522" lon="110.876950">
        <ele>127.854626</ele>
        <time>2026-08-18T04:22:35.000Z</time>
      </trkpt>
      <trkpt lat="22.920525" lon="110.876968">
        <ele>127.925716</ele>
        <time>2026-08-18T04:22:36.000Z</time>
      </trkpt>
      <trkpt lat="22.920535" lon="110.876990">
        <ele>128.021061</ele>
        <time>2026-08-18T04:22:37.000Z</time>
      </trkpt>
      <trkpt lat="22.920547" lon="110.877012">
        <ele>128.120429</ele>
        <time>2026-08-18T04:22:38.000Z</time>
      </trkpt>
      <trkpt lat="22.920558" lon="110.877032">
        <ele>128.210959</ele>
        <time>2026-08-18T04:22:39.000Z</time>
      </trkpt>
      <trkpt lat="22.920566" lon="110.877052">
        <ele>128.295699</ele>
        <time>2026-08-18T04:22:40.000Z</time>
      </trkpt>
      <trkpt lat="22.920578" lon="110.877072">
        <ele>128.388464</ele>
        <time>2026-08-18T04:22:41.000Z</time>
      </trkpt>
      <trkpt lat="22.920591" lon="110.877093">
        <ele>128.486798</ele>
        <time>2026-08-18T04:22:42.000Z</time>
      </trkpt>
      <trkpt lat="22.920604" lon="110.877114">
        <ele>128.585132</ele>
        <time>2026-08-18T04:22:43.000Z</time>
      </trkpt>
      <trkpt lat="22.920614" lon="110.877135">
        <ele>128.677008</ele>
        <time>2026-08-18T04:22:44.000Z</time>
      </trkpt>
      <trkpt lat="22.920621" lon="110.877158">
        <ele>128.771147</ele>
        <time>2026-08-18T04:22:45.000Z</time>
      </trkpt>
      <trkpt lat="22.920631" lon="110.877181">
        <ele>128.869992</ele>
        <time>2026-08-18T04:22:46.000Z</time>
      </trkpt>
      <trkpt lat="22.920642" lon="110.877202">
        <ele>128.963880</ele>
        <time>2026-08-18T04:22:47.000Z</time>
      </trkpt>
      <trkpt lat="22.920652" lon="110.877224">
        <ele>129.059224</ele>
        <time>2026-08-18T04:22:48.000Z</time>
      </trkpt>
      <trkpt lat="22.920661" lon="110.877247">
        <ele>129.156343</ele>
        <time>2026-08-18T04:22:49.000Z</time>
      </trkpt>
      <trkpt lat="22.920672" lon="110.877269">
        <ele>129.253628</ele>
        <time>2026-08-18T04:22:50.000Z</time>
      </trkpt>
      <trkpt lat="22.920682" lon="110.877290">
        <ele>129.345503</ele>
        <time>2026-08-18T04:22:51.000Z</time>
      </trkpt>
      <trkpt lat="22.920691" lon="110.877313">
        <ele>129.442622</ele>
        <time>2026-08-18T04:22:52.000Z</time>
      </trkpt>
      <trkpt lat="22.920699" lon="110.877337">
        <ele>129.541814</ele>
        <time>2026-08-18T04:22:53.000Z</time>
      </trkpt>
      <trkpt lat="22.920707" lon="110.877362">
        <ele>129.644670</ele>
        <time>2026-08-18T04:22:54.000Z</time>
      </trkpt>
      <trkpt lat="22.920716" lon="110.877388">
        <ele>129.752615</ele>
        <time>2026-08-18T04:22:55.000Z</time>
      </trkpt>
      <trkpt lat="22.920725" lon="110.877411">
        <ele>129.849733</ele>
        <time>2026-08-18T04:22:56.000Z</time>
      </trkpt>
      <trkpt lat="22.920736" lon="110.877431">
        <ele>129.940263</ele>
        <time>2026-08-18T04:22:57.000Z</time>
      </trkpt>
      <trkpt lat="22.920743" lon="110.877454">
        <ele>130.034403</ele>
        <time>2026-08-18T04:22:58.000Z</time>
      </trkpt>
      <trkpt lat="22.920754" lon="110.877474">
        <ele>130.124933</ele>
        <time>2026-08-18T04:22:59.000Z</time>
      </trkpt>
      <trkpt lat="22.920765" lon="110.877494">
        <ele>130.215463</ele>
        <time>2026-08-18T04:23:00.000Z</time>
      </trkpt>
      <trkpt lat="22.920776" lon="110.877516">
        <ele>130.312749</ele>
        <time>2026-08-18T04:23:01.000Z</time>
      </trkpt>
      <trkpt lat="22.920786" lon="110.877540">
        <ele>130.415121</ele>
        <time>2026-08-18T04:23:02.000Z</time>
      </trkpt>
      <trkpt lat="22.920796" lon="110.877564">
        <ele>130.517493</ele>
        <time>2026-08-18T04:23:03.000Z</time>
      </trkpt>
      <trkpt lat="22.920807" lon="110.877588">
        <ele>130.621676</ele>
        <time>2026-08-18T04:23:04.000Z</time>
      </trkpt>
      <trkpt lat="22.920819" lon="110.877611">
        <ele>130.724406</ele>
        <time>2026-08-18T04:23:05.000Z</time>
      </trkpt>
      <trkpt lat="22.920830" lon="110.877638">
        <ele>130.839144</ele>
        <time>2026-08-18T04:23:06.000Z</time>
      </trkpt>
      <trkpt lat="22.920843" lon="110.877661">
        <ele>130.944019</ele>
        <time>2026-08-18T04:23:07.000Z</time>
      </trkpt>
      <trkpt lat="22.920855" lon="110.877683">
        <ele>131.043387</ele>
        <time>2026-08-18T04:23:08.000Z</time>
      </trkpt>
      <trkpt lat="22.920868" lon="110.877709">
        <ele>131.158360</ele>
        <time>2026-08-18T04:23:09.000Z</time>
      </trkpt>
      <trkpt lat="22.920880" lon="110.877732">
        <ele>131.261091</ele>
        <time>2026-08-18T04:23:10.000Z</time>
      </trkpt>
      <trkpt lat="22.920889" lon="110.877755">
        <ele>131.314745</ele>
        <time>2026-08-18T04:23:11.000Z</time>
      </trkpt>
      <trkpt lat="22.920899" lon="110.877778">
        <ele>131.343579</ele>
        <time>2026-08-18T04:23:12.000Z</time>
      </trkpt>
      <trkpt lat="22.920911" lon="110.877801">
        <ele>131.373547</ele>
        <time>2026-08-18T04:23:13.000Z</time>
      </trkpt>
      <trkpt lat="22.920926" lon="110.877823">
        <ele>131.404579</ele>
        <time>2026-08-18T04:23:14.000Z</time>
      </trkpt>
      <trkpt lat="22.920938" lon="110.877847">
        <ele>131.435538</ele>
        <time>2026-08-18T04:23:15.000Z</time>
      </trkpt>
      <trkpt lat="22.920950" lon="110.877871">
        <ele>131.466497</ele>
        <time>2026-08-18T04:23:16.000Z</time>
      </trkpt>
      <trkpt lat="22.920961" lon="110.877894">
        <ele>131.495878</ele>
        <time>2026-08-18T04:23:17.000Z</time>
      </trkpt>
      <trkpt lat="22.920971" lon="110.877919">
        <ele>131.526777</ele>
        <time>2026-08-18T04:23:18.000Z</time>
      </trkpt>
      <trkpt lat="22.920981" lon="110.877943">
        <ele>131.556641</ele>
        <time>2026-08-18T04:23:19.000Z</time>
      </trkpt>
      <trkpt lat="22.920991" lon="110.877966">
        <ele>131.585475</ele>
        <time>2026-08-18T04:23:20.000Z</time>
      </trkpt>
      <trkpt lat="22.921002" lon="110.877989">
        <ele>131.614855</ele>
        <time>2026-08-18T04:23:21.000Z</time>
      </trkpt>
      <trkpt lat="22.921012" lon="110.878012">
        <ele>131.643690</ele>
        <time>2026-08-18T04:23:22.000Z</time>
      </trkpt>
      <trkpt lat="22.921019" lon="110.878035">
        <ele>131.671151</ele>
        <time>2026-08-18T04:23:23.000Z</time>
      </trkpt>
      <trkpt lat="22.921030" lon="110.878058">
        <ele>131.700532</ele>
        <time>2026-08-18T04:23:24.000Z</time>
      </trkpt>
      <trkpt lat="22.921041" lon="110.878080">
        <ele>131.728911</ele>
        <time>2026-08-18T04:23:25.000Z</time>
      </trkpt>
      <trkpt lat="22.921052" lon="110.878104">
        <ele>131.759302</ele>
        <time>2026-08-18T04:23:26.000Z</time>
      </trkpt>
      <trkpt lat="22.921066" lon="110.878125">
        <ele>131.788692</ele>
        <time>2026-08-18T04:23:27.000Z</time>
      </trkpt>
      <trkpt lat="22.921077" lon="110.878147">
        <ele>131.817071</ele>
        <time>2026-08-18T04:23:28.000Z</time>
      </trkpt>
      <trkpt lat="22.921086" lon="110.878169">
        <ele>131.844362</ele>
        <time>2026-08-18T04:23:29.000Z</time>
      </trkpt>
      <trkpt lat="22.921096" lon="110.878192">
        <ele>131.873196</ele>
        <time>2026-08-18T04:23:30.000Z</time>
      </trkpt>
      <trkpt lat="22.921107" lon="110.878214">
        <ele>131.901575</ele>
        <time>2026-08-18T04:23:31.000Z</time>
      </trkpt>
      <trkpt lat="22.921119" lon="110.878236">
        <ele>131.930562</ele>
        <time>2026-08-18T04:23:32.000Z</time>
      </trkpt>
      <trkpt lat="22.921128" lon="110.878257">
        <ele>131.956821</ele>
        <time>2026-08-18T04:23:33.000Z</time>
      </trkpt>
      <trkpt lat="22.921138" lon="110.878280">
        <ele>131.985655</ele>
        <time>2026-08-18T04:23:34.000Z</time>
      </trkpt>
      <trkpt lat="22.921148" lon="110.878303">
        <ele>132.014489</ele>
        <time>2026-08-18T04:23:35.000Z</time>
      </trkpt>
      <trkpt lat="22.921157" lon="110.878326">
        <ele>132.042819</ele>
        <time>2026-08-18T04:23:36.000Z</time>
      </trkpt>
      <trkpt lat="22.921163" lon="110.878345">
        <ele>132.065590</ele>
        <time>2026-08-18T04:23:37.000Z</time>
      </trkpt>
      <trkpt lat="22.921173" lon="110.878368">
        <ele>132.094424</ele>
        <time>2026-08-18T04:23:38.000Z</time>
      </trkpt>
      <trkpt lat="22.921183" lon="110.878391">
        <ele>132.123259</ele>
        <time>2026-08-18T04:23:39.000Z</time>
      </trkpt>
      <trkpt lat="22.921191" lon="110.878414">
        <ele>132.151131</ele>
        <time>2026-08-18T04:23:40.000Z</time>
      </trkpt>
      <trkpt lat="22.921200" lon="110.878439">
        <ele>132.181561</ele>
        <time>2026-08-18T04:23:41.000Z</time>
      </trkpt>
      <trkpt lat="22.921211" lon="110.878462">
        <ele>132.210942</ele>
        <time>2026-08-18T04:23:42.000Z</time>
      </trkpt>
      <trkpt lat="22.921214" lon="110.878479">
        <ele>132.230565</ele>
        <time>2026-08-18T04:23:43.000Z</time>
      </trkpt>
      <trkpt lat="22.921217" lon="110.878495">
        <ele>132.249076</ele>
        <time>2026-08-18T04:23:44.000Z</time>
      </trkpt>
      <trkpt lat="22.921228" lon="110.878519">
        <ele>132.279467</ele>
        <time>2026-08-18T04:23:45.000Z</time>
      </trkpt>
      <trkpt lat="22.921239" lon="110.878544">
        <ele>132.310878</ele>
        <time>2026-08-18T04:23:46.000Z</time>
      </trkpt>
      <trkpt lat="22.921250" lon="110.878570">
        <ele>132.343314</ele>
        <time>2026-08-18T04:23:47.000Z</time>
      </trkpt>
      <trkpt lat="22.921261" lon="110.878597">
        <ele>132.376785</ele>
        <time>2026-08-18T04:23:48.000Z</time>
      </trkpt>
      <trkpt lat="22.921272" lon="110.878624">
        <ele>132.410255</ele>
        <time>2026-08-18T04:23:49.000Z</time>
      </trkpt>
      <trkpt lat="22.921281" lon="110.878650">
        <ele>132.441744</ele>
        <time>2026-08-18T04:23:50.000Z</time>
      </trkpt>
      <trkpt lat="22.921289" lon="110.878676">
        <ele>132.472821</ele>
        <time>2026-08-18T04:23:51.000Z</time>
      </trkpt>
      <trkpt lat="22.921300" lon="110.878702">
        <ele>132.505258</ele>
        <time>2026-08-18T04:23:52.000Z</time>
      </trkpt>
      <trkpt lat="22.921310" lon="110.878730">
        <ele>132.539304</ele>
        <time>2026-08-18T04:23:53.000Z</time>
      </trkpt>
      <trkpt lat="22.921321" lon="110.878759">
        <ele>132.574860</ele>
        <time>2026-08-18T04:23:54.000Z</time>
      </trkpt>
      <trkpt lat="22.921332" lon="110.878788">
        <ele>132.610416</ele>
        <time>2026-08-18T04:23:55.000Z</time>
      </trkpt>
      <trkpt lat="22.921343" lon="110.878816">
        <ele>132.644926</ele>
        <time>2026-08-18T04:23:56.000Z</time>
      </trkpt>
      <trkpt lat="22.921353" lon="110.878847">
        <ele>132.682164</ele>
        <time>2026-08-18T04:23:57.000Z</time>
      </trkpt>
      <trkpt lat="22.921364" lon="110.878879">
        <ele>132.720886</ele>
        <time>2026-08-18T04:23:58.000Z</time>
      </trkpt>
      <trkpt lat="22.921373" lon="110.878913">
        <ele>132.760992</ele>
        <time>2026-08-18T04:23:59.000Z</time>
      </trkpt>
      <trkpt lat="22.921383" lon="110.878945">
        <ele>132.799301</ele>
        <time>2026-08-18T04:24:00.000Z</time>
      </trkpt>
      <trkpt lat="22.921396" lon="110.878976">
        <ele>132.837917</ele>
        <time>2026-08-18T04:24:01.000Z</time>
      </trkpt>
      <trkpt lat="22.921406" lon="110.879010">
        <ele>132.878380</ele>
        <time>2026-08-18T04:24:02.000Z</time>
      </trkpt>
      <trkpt lat="22.921417" lon="110.879045">
        <ele>132.920305</ele>
        <time>2026-08-18T04:24:03.000Z</time>
      </trkpt>
      <trkpt lat="22.921429" lon="110.879080">
        <ele>132.962644</ele>
        <time>2026-08-18T04:24:04.000Z</time>
      </trkpt>
      <trkpt lat="22.921440" lon="110.879115">
        <ele>133.004570</ele>
        <time>2026-08-18T04:24:05.000Z</time>
      </trkpt>
      <trkpt lat="22.921451" lon="110.879150">
        <ele>133.046495</ele>
        <time>2026-08-18T04:24:06.000Z</time>
      </trkpt>
      <trkpt lat="22.921461" lon="110.879186">
        <ele>133.089124</ele>
        <time>2026-08-18T04:24:07.000Z</time>
      </trkpt>
      <trkpt lat="22.921471" lon="110.879223">
        <ele>133.132839</ele>
        <time>2026-08-18T04:24:08.000Z</time>
      </trkpt>
      <trkpt lat="22.921480" lon="110.879260">
        <ele>133.176223</ele>
        <time>2026-08-18T04:24:09.000Z</time>
      </trkpt>
      <trkpt lat="22.921491" lon="110.879300">
        <ele>133.223549</ele>
        <time>2026-08-18T04:24:10.000Z</time>
      </trkpt>
      <trkpt lat="22.921502" lon="110.879340">
        <ele>133.270875</ele>
        <time>2026-08-18T04:24:11.000Z</time>
      </trkpt>
      <trkpt lat="22.921514" lon="110.879378">
        <ele>133.316417</ele>
        <time>2026-08-18T04:24:12.000Z</time>
      </trkpt>
      <trkpt lat="22.921525" lon="110.879415">
        <ele>133.360494</ele>
        <time>2026-08-18T04:24:13.000Z</time>
      </trkpt>
      <trkpt lat="22.921537" lon="110.879454">
        <ele>133.407110</ele>
        <time>2026-08-18T04:24:14.000Z</time>
      </trkpt>
      <trkpt lat="22.921548" lon="110.879497">
        <ele>133.457704</ele>
        <time>2026-08-18T04:24:15.000Z</time>
      </trkpt>
      <trkpt lat="22.921559" lon="110.879541">
        <ele>133.509391</ele>
        <time>2026-08-18T04:24:16.000Z</time>
      </trkpt>
      <trkpt lat="22.921569" lon="110.879588">
        <ele>133.306739</ele>
        <time>2026-08-18T04:24:17.000Z</time>
      </trkpt>
      <trkpt lat="22.921580" lon="110.879635">
        <ele>133.096398</ele>
        <time>2026-08-18T04:24:18.000Z</time>
      </trkpt>
      <trkpt lat="22.921591" lon="110.879683">
        <ele>132.881850</ele>
        <time>2026-08-18T04:24:19.000Z</time>
      </trkpt>
      <trkpt lat="22.921603" lon="110.879732">
        <ele>132.661928</ele>
        <time>2026-08-18T04:24:20.000Z</time>
      </trkpt>
      <trkpt lat="22.921613" lon="110.879780">
        <ele>132.448468</ele>
        <time>2026-08-18T04:24:21.000Z</time>
      </trkpt>
      <trkpt lat="22.921624" lon="110.879832">
        <ele>132.217046</ele>
        <time>2026-08-18T04:24:22.000Z</time>
      </trkpt>
      <trkpt lat="22.921634" lon="110.879887">
        <ele>131.973880</ele>
        <time>2026-08-18T04:24:23.000Z</time>
      </trkpt>
      <trkpt lat="22.921647" lon="110.879941">
        <ele>131.731786</ele>
        <time>2026-08-18T04:24:24.000Z</time>
      </trkpt>
      <trkpt lat="22.921660" lon="110.879998">
        <ele>131.477081</ele>
        <time>2026-08-18T04:24:25.000Z</time>
      </trkpt>
      <trkpt lat="22.921671" lon="110.880058">
        <ele>131.211726</ele>
        <time>2026-08-18T04:24:26.000Z</time>
      </trkpt>
      <trkpt lat="22.921680" lon="110.880120">
        <ele>130.939482</ele>
        <time>2026-08-18T04:24:27.000Z</time>
      </trkpt>
      <trkpt lat="22.921690" lon="110.880184">
        <ele>130.657916</ele>
        <time>2026-08-18T04:24:28.000Z</time>
      </trkpt>
      <trkpt lat="22.921699" lon="110.880249">
        <ele>130.372810</ele>
        <time>2026-08-18T04:24:29.000Z</time>
      </trkpt>
      <trkpt lat="22.921707" lon="110.880318">
        <ele>130.071161</ele>
        <time>2026-08-18T04:24:30.000Z</time>
      </trkpt>
      <trkpt lat="22.921715" lon="110.880388">
        <ele>129.765208</ele>
        <time>2026-08-18T04:24:31.000Z</time>
      </trkpt>
      <trkpt lat="22.921721" lon="110.880460">
        <ele>129.451633</ele>
        <time>2026-08-18T04:24:32.000Z</time>
      </trkpt>
      <trkpt lat="22.921726" lon="110.880537">
        <ele>129.116817</ele>
        <time>2026-08-18T04:24:33.000Z</time>
      </trkpt>
      <trkpt lat="22.921730" lon="110.880618">
        <ele>128.764975</ele>
        <time>2026-08-18T04:24:34.000Z</time>
      </trkpt>
      <trkpt lat="22.921734" lon="110.880701">
        <ele>128.404470</ele>
        <time>2026-08-18T04:24:35.000Z</time>
      </trkpt>
      <trkpt lat="22.921736" lon="110.880787">
        <ele>128.031327</ele>
        <time>2026-08-18T04:24:36.000Z</time>
      </trkpt>
      <trkpt lat="22.921737" lon="110.880876">
        <ele>127.645261</ele>
        <time>2026-08-18T04:24:37.000Z</time>
      </trkpt>
      <trkpt lat="22.921738" lon="110.880967">
        <ele>127.250521</ele>
        <time>2026-08-18T04:24:38.000Z</time>
      </trkpt>
      <trkpt lat="22.921737" lon="110.881061">
        <ele>126.842769</ele>
        <time>2026-08-18T04:24:39.000Z</time>
      </trkpt>
      <trkpt lat="22.921734" lon="110.881156">
        <ele>126.430465</ele>
        <time>2026-08-18T04:24:40.000Z</time>
      </trkpt>
      <trkpt lat="22.921731" lon="110.881253">
        <ele>126.009491</ele>
        <time>2026-08-18T04:24:41.000Z</time>
      </trkpt>
      <trkpt lat="22.921727" lon="110.881353">
        <ele>125.575333</ele>
        <time>2026-08-18T04:24:42.000Z</time>
      </trkpt>
      <trkpt lat="22.921720" lon="110.881457">
        <ele>125.123031</ele>
        <time>2026-08-18T04:24:43.000Z</time>
      </trkpt>
      <trkpt lat="22.921712" lon="110.881562">
        <ele>124.685749</ele>
        <time>2026-08-18T04:24:44.000Z</time>
      </trkpt>
      <trkpt lat="22.921702" lon="110.881668">
        <ele>124.247910</ele>
        <time>2026-08-18T04:24:45.000Z</time>
      </trkpt>
      <trkpt lat="22.921689" lon="110.881775">
        <ele>123.804431</ele>
        <time>2026-08-18T04:24:46.000Z</time>
      </trkpt>
      <trkpt lat="22.921677" lon="110.881885">
        <ele>123.349275</ele>
        <time>2026-08-18T04:24:47.000Z</time>
      </trkpt>
      <trkpt lat="22.921660" lon="110.881995">
        <ele>122.890960</ele>
        <time>2026-08-18T04:24:48.000Z</time>
      </trkpt>
      <trkpt lat="22.921641" lon="110.882106">
        <ele>122.427044</ele>
        <time>2026-08-18T04:24:49.000Z</time>
      </trkpt>
      <trkpt lat="22.921619" lon="110.882219">
        <ele>121.952460</ele>
        <time>2026-08-18T04:24:50.000Z</time>
      </trkpt>
      <trkpt lat="22.921594" lon="110.882332">
        <ele>121.474928</ele>
        <time>2026-08-18T04:24:51.000Z</time>
      </trkpt>
      <trkpt lat="22.921566" lon="110.882445">
        <ele>120.994095</ele>
        <time>2026-08-18T04:24:52.000Z</time>
      </trkpt>
      <trkpt lat="22.921535" lon="110.882559">
        <ele>120.505672</ele>
        <time>2026-08-18T04:24:53.000Z</time>
      </trkpt>
      <trkpt lat="22.921504" lon="110.882674">
        <ele>120.013306</ele>
        <time>2026-08-18T04:24:54.000Z</time>
      </trkpt>
      <trkpt lat="22.921470" lon="110.882788">
        <ele>119.520926</ele>
        <time>2026-08-18T04:24:55.000Z</time>
      </trkpt>
      <trkpt lat="22.921432" lon="110.882901">
        <ele>119.026620</ele>
        <time>2026-08-18T04:24:56.000Z</time>
      </trkpt>
      <trkpt lat="22.921392" lon="110.883014">
        <ele>118.529184</ele>
        <time>2026-08-18T04:24:57.000Z</time>
      </trkpt>
      <trkpt lat="22.921347" lon="110.883126">
        <ele>118.027085</ele>
        <time>2026-08-18T04:24:58.000Z</time>
      </trkpt>
      <trkpt lat="22.921302" lon="110.883237">
        <ele>117.528750</ele>
        <time>2026-08-18T04:24:59.000Z</time>
      </trkpt>
      <trkpt lat="22.921255" lon="110.883347">
        <ele>117.030484</ele>
        <time>2026-08-18T04:25:00.000Z</time>
      </trkpt>
      <trkpt lat="22.921205" lon="110.883453">
        <ele>116.929118</ele>
        <time>2026-08-18T04:25:01.000Z</time>
      </trkpt>
      <trkpt lat="22.921153" lon="110.883557">
        <ele>116.840195</ele>
        <time>2026-08-18T04:25:02.000Z</time>
      </trkpt>
      <trkpt lat="22.921102" lon="110.883659">
        <ele>116.752982</ele>
        <time>2026-08-18T04:25:03.000Z</time>
      </trkpt>
      <trkpt lat="22.921051" lon="110.883759">
        <ele>116.667087</ele>
        <time>2026-08-18T04:25:04.000Z</time>
      </trkpt>
      <trkpt lat="22.920999" lon="110.883854">
        <ele>116.584045</ele>
        <time>2026-08-18T04:25:05.000Z</time>
      </trkpt>
      <trkpt lat="22.920947" lon="110.883946">
        <ele>116.502932</ele>
        <time>2026-08-18T04:25:06.000Z</time>
      </trkpt>
      <trkpt lat="22.920896" lon="110.884035">
        <ele>116.424167</ele>
        <time>2026-08-18T04:25:07.000Z</time>
      </trkpt>
      <trkpt lat="22.920845" lon="110.884122">
        <ele>116.346673</ele>
        <time>2026-08-18T04:25:08.000Z</time>
      </trkpt>
      <trkpt lat="22.920795" lon="110.884206">
        <ele>116.271517</ele>
        <time>2026-08-18T04:25:09.000Z</time>
      </trkpt>
      <trkpt lat="22.920744" lon="110.884290">
        <ele>116.195915</ele>
        <time>2026-08-18T04:25:10.000Z</time>
      </trkpt>
      <trkpt lat="22.920695" lon="110.884372">
        <ele>116.122465</ele>
        <time>2026-08-18T04:25:11.000Z</time>
      </trkpt>
      <trkpt lat="22.920646" lon="110.884450">
        <ele>116.051516</ele>
        <time>2026-08-18T04:25:12.000Z</time>
      </trkpt>
      <trkpt lat="22.920600" lon="110.884527">
        <ele>115.982550</ele>
        <time>2026-08-18T04:25:13.000Z</time>
      </trkpt>
      <trkpt lat="22.920554" lon="110.884601">
        <ele>115.915463</ele>
        <time>2026-08-18T04:25:14.000Z</time>
      </trkpt>
      <trkpt lat="22.920509" lon="110.884673">
        <ele>115.850078</ele>
        <time>2026-08-18T04:25:15.000Z</time>
      </trkpt>
      <trkpt lat="22.920466" lon="110.884744">
        <ele>115.786225</ele>
        <time>2026-08-18T04:25:16.000Z</time>
      </trkpt>
      <trkpt lat="22.920425" lon="110.884815">
        <ele>115.723253</ele>
        <time>2026-08-18T04:25:17.000Z</time>
      </trkpt>
      <trkpt lat="22.920384" lon="110.884883">
        <ele>115.662180</ele>
        <time>2026-08-18T04:25:18.000Z</time>
      </trkpt>
      <trkpt lat="22.920344" lon="110.884951">
        <ele>115.601549</ele>
        <time>2026-08-18T04:25:19.000Z</time>
      </trkpt>
      <trkpt lat="22.920304" lon="110.885016">
        <ele>115.548241</ele>
        <time>2026-08-18T04:25:20.000Z</time>
      </trkpt>
      <trkpt lat="22.920266" lon="110.885078">
        <ele>115.545638</ele>
        <time>2026-08-18T04:25:21.000Z</time>
      </trkpt>
      <trkpt lat="22.920229" lon="110.885139">
        <ele>115.543084</ele>
        <time>2026-08-18T04:25:22.000Z</time>
      </trkpt>
      <trkpt lat="22.920191" lon="110.885198">
        <ele>115.540567</ele>
        <time>2026-08-18T04:25:23.000Z</time>
      </trkpt>
      <trkpt lat="22.920155" lon="110.885256">
        <ele>115.538121</ele>
        <time>2026-08-18T04:25:24.000Z</time>
      </trkpt>
      <trkpt lat="22.920119" lon="110.885312">
        <ele>115.535734</ele>
        <time>2026-08-18T04:25:25.000Z</time>
      </trkpt>
      <trkpt lat="22.920084" lon="110.885368">
        <ele>115.533368</ele>
        <time>2026-08-18T04:25:26.000Z</time>
      </trkpt>
      <trkpt lat="22.920050" lon="110.885424">
        <ele>115.531022</ele>
        <time>2026-08-18T04:25:27.000Z</time>
      </trkpt>
      <trkpt lat="22.920016" lon="110.885480">
        <ele>115.528677</ele>
        <time>2026-08-18T04:25:28.000Z</time>
      </trkpt>
      <trkpt lat="22.919981" lon="110.885535">
        <ele>115.526340</ele>
        <time>2026-08-18T04:25:29.000Z</time>
      </trkpt>
      <trkpt lat="22.919948" lon="110.885589">
        <ele>115.524074</ele>
        <time>2026-08-18T04:25:30.000Z</time>
      </trkpt>
      <trkpt lat="22.919914" lon="110.885641">
        <ele>115.521845</ele>
        <time>2026-08-18T04:25:31.000Z</time>
      </trkpt>
      <trkpt lat="22.919882" lon="110.885694">
        <ele>115.519629</ele>
        <time>2026-08-18T04:25:32.000Z</time>
      </trkpt>
      <trkpt lat="22.919850" lon="110.885746">
        <ele>115.517442</ele>
        <time>2026-08-18T04:25:33.000Z</time>
      </trkpt>
      <trkpt lat="22.919820" lon="110.885798">
        <ele>115.515297</ele>
        <time>2026-08-18T04:25:34.000Z</time>
      </trkpt>
      <trkpt lat="22.919790" lon="110.885849">
        <ele>115.513181</ele>
        <time>2026-08-18T04:25:35.000Z</time>
      </trkpt>
      <trkpt lat="22.919760" lon="110.885898">
        <ele>115.511124</ele>
        <time>2026-08-18T04:25:36.000Z</time>
      </trkpt>
      <trkpt lat="22.919731" lon="110.885948">
        <ele>115.509058</ele>
        <time>2026-08-18T04:25:37.000Z</time>
      </trkpt>
      <trkpt lat="22.919701" lon="110.885996">
        <ele>115.507030</ele>
        <time>2026-08-18T04:25:38.000Z</time>
      </trkpt>
      <trkpt lat="22.919671" lon="110.886044">
        <ele>115.505002</ele>
        <time>2026-08-18T04:25:39.000Z</time>
      </trkpt>
      <trkpt lat="22.919642" lon="110.886092">
        <ele>115.502995</ele>
        <time>2026-08-18T04:25:40.000Z</time>
      </trkpt>
      <trkpt lat="22.919613" lon="110.886139">
        <ele>115.501017</ele>
        <time>2026-08-18T04:25:41.000Z</time>
      </trkpt>
      <trkpt lat="22.919584" lon="110.886187">
        <ele>115.499010</ele>
        <time>2026-08-18T04:25:42.000Z</time>
      </trkpt>
      <trkpt lat="22.919556" lon="110.886234">
        <ele>115.497053</ele>
        <time>2026-08-18T04:25:43.000Z</time>
      </trkpt>
      <trkpt lat="22.919528" lon="110.886282">
        <ele>115.495066</ele>
        <time>2026-08-18T04:25:44.000Z</time>
      </trkpt>
      <trkpt lat="22.919500" lon="110.886327">
        <ele>115.493167</ele>
        <time>2026-08-18T04:25:45.000Z</time>
      </trkpt>
      <trkpt lat="22.919472" lon="110.886373">
        <ele>115.491240</ele>
        <time>2026-08-18T04:25:46.000Z</time>
      </trkpt>
      <trkpt lat="22.919444" lon="110.886418">
        <ele>115.489341</ele>
        <time>2026-08-18T04:25:47.000Z</time>
      </trkpt>
      <trkpt lat="22.919416" lon="110.886464">
        <ele>115.487413</ele>
        <time>2026-08-18T04:25:48.000Z</time>
      </trkpt>
      <trkpt lat="22.919388" lon="110.886510">
        <ele>115.485485</ele>
        <time>2026-08-18T04:25:49.000Z</time>
      </trkpt>
      <trkpt lat="22.919361" lon="110.886556">
        <ele>115.483578</ele>
        <time>2026-08-18T04:25:50.000Z</time>
      </trkpt>
      <trkpt lat="22.919333" lon="110.886602">
        <ele>115.481650</ele>
        <time>2026-08-18T04:25:51.000Z</time>
      </trkpt>
      <trkpt lat="22.919305" lon="110.886649">
        <ele>115.481358</ele>
        <time>2026-08-18T04:25:52.000Z</time>
      </trkpt>
      <trkpt lat="22.919278" lon="110.886696">
        <ele>115.485434</ele>
        <time>2026-08-18T04:25:53.000Z</time>
      </trkpt>
      <trkpt lat="22.919251" lon="110.886742">
        <ele>115.489447</ele>
        <time>2026-08-18T04:25:54.000Z</time>
      </trkpt>
      <trkpt lat="22.919223" lon="110.886789">
        <ele>115.493565</ele>
        <time>2026-08-18T04:25:55.000Z</time>
      </trkpt>
      <trkpt lat="22.919195" lon="110.886835">
        <ele>115.497622</ele>
        <time>2026-08-18T04:25:56.000Z</time>
      </trkpt>
      <trkpt lat="22.919167" lon="110.886881">
        <ele>115.501679</ele>
        <time>2026-08-18T04:25:57.000Z</time>
      </trkpt>
      <trkpt lat="22.919138" lon="110.886927">
        <ele>115.505781</ele>
        <time>2026-08-18T04:25:58.000Z</time>
      </trkpt>
      <trkpt lat="22.919110" lon="110.886972">
        <ele>115.509777</ele>
        <time>2026-08-18T04:25:59.000Z</time>
      </trkpt>
      <trkpt lat="22.919082" lon="110.887017">
        <ele>115.513772</ele>
        <time>2026-08-18T04:26:00.000Z</time>
      </trkpt>
      <trkpt lat="22.919055" lon="110.887063">
        <ele>115.517786</ele>
        <time>2026-08-18T04:26:01.000Z</time>
      </trkpt>
      <trkpt lat="22.919026" lon="110.887112">
        <ele>115.522071</ele>
        <time>2026-08-18T04:26:02.000Z</time>
      </trkpt>
      <trkpt lat="22.918998" lon="110.887160">
        <ele>115.526252</ele>
        <time>2026-08-18T04:26:03.000Z</time>
      </trkpt>
      <trkpt lat="22.918969" lon="110.887206">
        <ele>115.530353</ele>
        <time>2026-08-18T04:26:04.000Z</time>
      </trkpt>
      <trkpt lat="22.918941" lon="110.887254">
        <ele>115.534534</ele>
        <time>2026-08-18T04:26:05.000Z</time>
      </trkpt>
      <trkpt lat="22.918914" lon="110.887300">
        <ele>115.538547</ele>
        <time>2026-08-18T04:26:06.000Z</time>
      </trkpt>
      <trkpt lat="22.918886" lon="110.887345">
        <ele>115.542543</ele>
        <time>2026-08-18T04:26:07.000Z</time>
      </trkpt>
      <trkpt lat="22.918858" lon="110.887390">
        <ele>115.546539</ele>
        <time>2026-08-18T04:26:08.000Z</time>
      </trkpt>
      <trkpt lat="22.918830" lon="110.887435">
        <ele>115.550534</ele>
        <time>2026-08-18T04:26:09.000Z</time>
      </trkpt>
      <trkpt lat="22.918803" lon="110.887481">
        <ele>115.554548</ele>
        <time>2026-08-18T04:26:10.000Z</time>
      </trkpt>
      <trkpt lat="22.918775" lon="110.887527">
        <ele>115.558605</ele>
        <time>2026-08-18T04:26:11.000Z</time>
      </trkpt>
      <trkpt lat="22.918749" lon="110.887573">
        <ele>115.562576</ele>
        <time>2026-08-18T04:26:12.000Z</time>
      </trkpt>
      <trkpt lat="22.918722" lon="110.887619">
        <ele>115.566589</ele>
        <time>2026-08-18T04:26:13.000Z</time>
      </trkpt>
      <trkpt lat="22.918694" lon="110.887664">
        <ele>115.570585</ele>
        <time>2026-08-18T04:26:14.000Z</time>
      </trkpt>
      <trkpt lat="22.918667" lon="110.887710">
        <ele>115.574598</ele>
        <time>2026-08-18T04:26:15.000Z</time>
      </trkpt>
      <trkpt lat="22.918640" lon="110.887756">
        <ele>115.578612</ele>
        <time>2026-08-18T04:26:16.000Z</time>
      </trkpt>
      <trkpt lat="22.918612" lon="110.887803">
        <ele>115.582730</ele>
        <time>2026-08-18T04:26:17.000Z</time>
      </trkpt>
      <trkpt lat="22.918584" lon="110.887850">
        <ele>115.586849</ele>
        <time>2026-08-18T04:26:18.000Z</time>
      </trkpt>
      <trkpt lat="22.918555" lon="110.887897">
        <ele>115.591011</ele>
        <time>2026-08-18T04:26:19.000Z</time>
      </trkpt>
      <trkpt lat="22.918527" lon="110.887944">
        <ele>115.595130</ele>
        <time>2026-08-18T04:26:20.000Z</time>
      </trkpt>
      <trkpt lat="22.918499" lon="110.887990">
        <ele>115.599187</ele>
        <time>2026-08-18T04:26:21.000Z</time>
      </trkpt>
      <trkpt lat="22.918471" lon="110.888037">
        <ele>115.603305</ele>
        <time>2026-08-18T04:26:22.000Z</time>
      </trkpt>
      <trkpt lat="22.918443" lon="110.888084">
        <ele>115.607424</ele>
        <time>2026-08-18T04:26:23.000Z</time>
      </trkpt>
      <trkpt lat="22.918416" lon="110.888131">
        <ele>115.611499</ele>
        <time>2026-08-18T04:26:24.000Z</time>
      </trkpt>
      <trkpt lat="22.918386" lon="110.888179">
        <ele>115.615768</ele>
        <time>2026-08-18T04:26:25.000Z</time>
      </trkpt>
      <trkpt lat="22.918358" lon="110.888227">
        <ele>115.619948</ele>
        <time>2026-08-18T04:26:26.000Z</time>
      </trkpt>
      <trkpt lat="22.918331" lon="110.888275">
        <ele>115.623557</ele>
        <time>2026-08-18T04:26:27.000Z</time>
      </trkpt>
      <trkpt lat="22.918302" lon="110.888323">
        <ele>115.614854</ele>
        <time>2026-08-18T04:26:28.000Z</time>
      </trkpt>
      <trkpt lat="22.918271" lon="110.888371">
        <ele>115.605967</ele>
        <time>2026-08-18T04:26:29.000Z</time>
      </trkpt>
      <trkpt lat="22.918242" lon="110.888419">
        <ele>115.597265</ele>
        <time>2026-08-18T04:26:30.000Z</time>
      </trkpt>
      <trkpt lat="22.918213" lon="110.888469">
        <ele>115.588308</ele>
        <time>2026-08-18T04:26:31.000Z</time>
      </trkpt>
      <trkpt lat="22.918184" lon="110.888518">
        <ele>115.579479</ele>
        <time>2026-08-18T04:26:32.000Z</time>
      </trkpt>
      <trkpt lat="22.918153" lon="110.888567">
        <ele>115.570467</ele>
        <time>2026-08-18T04:26:33.000Z</time>
      </trkpt>
      <trkpt lat="22.918123" lon="110.888615">
        <ele>115.561674</ele>
        <time>2026-08-18T04:26:34.000Z</time>
      </trkpt>
      <trkpt lat="22.918093" lon="110.888665">
        <ele>115.552628</ele>
        <time>2026-08-18T04:26:35.000Z</time>
      </trkpt>
      <trkpt lat="22.918064" lon="110.888714">
        <ele>115.543798</ele>
        <time>2026-08-18T04:26:36.000Z</time>
      </trkpt>
      <trkpt lat="22.918035" lon="110.888762">
        <ele>115.535096</ele>
        <time>2026-08-18T04:26:37.000Z</time>
      </trkpt>
      <trkpt lat="22.918006" lon="110.888811">
        <ele>115.526267</ele>
        <time>2026-08-18T04:26:38.000Z</time>
      </trkpt>
      <trkpt lat="22.917976" lon="110.888860">
        <ele>115.517347</ele>
        <time>2026-08-18T04:26:39.000Z</time>
      </trkpt>
      <trkpt lat="22.917946" lon="110.888909">
        <ele>115.508428</ele>
        <time>2026-08-18T04:26:40.000Z</time>
      </trkpt>
      <trkpt lat="22.917917" lon="110.888958">
        <ele>115.499598</ele>
        <time>2026-08-18T04:26:41.000Z</time>
      </trkpt>
      <trkpt lat="22.917886" lon="110.889008">
        <ele>115.490462</ele>
        <time>2026-08-18T04:26:42.000Z</time>
      </trkpt>
      <trkpt lat="22.917855" lon="110.889058">
        <ele>115.481325</ele>
        <time>2026-08-18T04:26:43.000Z</time>
      </trkpt>
      <trkpt lat="22.917824" lon="110.889108">
        <ele>115.472188</ele>
        <time>2026-08-18T04:26:44.000Z</time>
      </trkpt>
      <trkpt lat="22.917793" lon="110.889158">
        <ele>115.463051</ele>
        <time>2026-08-18T04:26:45.000Z</time>
      </trkpt>
      <trkpt lat="22.917764" lon="110.889209">
        <ele>115.453965</ele>
        <time>2026-08-18T04:26:46.000Z</time>
      </trkpt>
      <trkpt lat="22.917734" lon="110.889259">
        <ele>115.444919</ele>
        <time>2026-08-18T04:26:47.000Z</time>
      </trkpt>
      <trkpt lat="22.917703" lon="110.889308">
        <ele>115.435907</ele>
        <time>2026-08-18T04:26:48.000Z</time>
      </trkpt>
      <trkpt lat="22.917673" lon="110.889358">
        <ele>115.426861</ele>
        <time>2026-08-18T04:26:49.000Z</time>
      </trkpt>
      <trkpt lat="22.917642" lon="110.889407">
        <ele>115.417850</ele>
        <time>2026-08-18T04:26:50.000Z</time>
      </trkpt>
      <trkpt lat="22.917613" lon="110.889457">
        <ele>115.408892</ele>
        <time>2026-08-18T04:26:51.000Z</time>
      </trkpt>
      <trkpt lat="22.917583" lon="110.889508">
        <ele>115.399719</ele>
        <time>2026-08-18T04:26:52.000Z</time>
      </trkpt>
      <trkpt lat="22.917552" lon="110.889559">
        <ele>115.390456</ele>
        <time>2026-08-18T04:26:53.000Z</time>
      </trkpt>
      <trkpt lat="22.917522" lon="110.889607">
        <ele>115.381662</ele>
        <time>2026-08-18T04:26:54.000Z</time>
      </trkpt>
      <trkpt lat="22.917493" lon="110.889657">
        <ele>115.372705</ele>
        <time>2026-08-18T04:26:55.000Z</time>
      </trkpt>
      <trkpt lat="22.917463" lon="110.889708">
        <ele>115.363532</ele>
        <time>2026-08-18T04:26:56.000Z</time>
      </trkpt>
      <trkpt lat="22.917433" lon="110.889759">
        <ele>115.354358</ele>
        <time>2026-08-18T04:26:57.000Z</time>
      </trkpt>
      <trkpt lat="22.917405" lon="110.889809">
        <ele>115.345488</ele>
        <time>2026-08-18T04:26:58.000Z</time>
      </trkpt>
      <trkpt lat="22.917377" lon="110.889859">
        <ele>115.336617</ele>
        <time>2026-08-18T04:26:59.000Z</time>
      </trkpt>
      <trkpt lat="22.917348" lon="110.889910">
        <ele>115.327985</ele>
        <time>2026-08-18T04:27:00.000Z</time>
      </trkpt>
      <trkpt lat="22.917317" lon="110.889962">
        <ele>115.330673</ele>
        <time>2026-08-18T04:27:01.000Z</time>
      </trkpt>
      <trkpt lat="22.917285" lon="110.890014">
        <ele>115.333388</ele>
        <time>2026-08-18T04:27:02.000Z</time>
      </trkpt>
      <trkpt lat="22.917253" lon="110.890063">
        <ele>115.335996</ele>
        <time>2026-08-18T04:27:03.000Z</time>
      </trkpt>
      <trkpt lat="22.917221" lon="110.890115">
        <ele>115.338711</ele>
        <time>2026-08-18T04:27:04.000Z</time>
      </trkpt>
      <trkpt lat="22.917191" lon="110.890166">
        <ele>115.341337</ele>
        <time>2026-08-18T04:27:05.000Z</time>
      </trkpt>
      <trkpt lat="22.917161" lon="110.890217">
        <ele>115.343964</ele>
        <time>2026-08-18T04:27:06.000Z</time>
      </trkpt>
      <trkpt lat="22.917131" lon="110.890267">
        <ele>115.346555</ele>
        <time>2026-08-18T04:27:07.000Z</time>
      </trkpt>
      <trkpt lat="22.917101" lon="110.890318">
        <ele>115.349182</ele>
        <time>2026-08-18T04:27:08.000Z</time>
      </trkpt>
      <trkpt lat="22.917071" lon="110.890366">
        <ele>115.351700</ele>
        <time>2026-08-18T04:27:09.000Z</time>
      </trkpt>
      <trkpt lat="22.917042" lon="110.890413">
        <ele>115.354156</ele>
        <time>2026-08-18T04:27:10.000Z</time>
      </trkpt>
      <trkpt lat="22.917011" lon="110.890462">
        <ele>115.356736</ele>
        <time>2026-08-18T04:27:11.000Z</time>
      </trkpt>
      <trkpt lat="22.916982" lon="110.890510">
        <ele>115.359228</ele>
        <time>2026-08-18T04:27:12.000Z</time>
      </trkpt>
      <trkpt lat="22.916951" lon="110.890559">
        <ele>115.361809</ele>
        <time>2026-08-18T04:27:13.000Z</time>
      </trkpt>
      <trkpt lat="22.916920" lon="110.890609">
        <ele>115.364425</ele>
        <time>2026-08-18T04:27:14.000Z</time>
      </trkpt>
      <trkpt lat="22.916890" lon="110.890660">
        <ele>115.367052</ele>
        <time>2026-08-18T04:27:15.000Z</time>
      </trkpt>
      <trkpt lat="22.916860" lon="110.890710">
        <ele>115.369642</ele>
        <time>2026-08-18T04:27:16.000Z</time>
      </trkpt>
      <trkpt lat="22.916829" lon="110.890761">
        <ele>115.372295</ele>
        <time>2026-08-18T04:27:17.000Z</time>
      </trkpt>
      <trkpt lat="22.916797" lon="110.890811">
        <ele>115.374938</ele>
        <time>2026-08-18T04:27:18.000Z</time>
      </trkpt>
      <trkpt lat="22.916765" lon="110.890862">
        <ele>115.377617</ele>
        <time>2026-08-18T04:27:19.000Z</time>
      </trkpt>
      <trkpt lat="22.916734" lon="110.890912">
        <ele>115.380233</ele>
        <time>2026-08-18T04:27:20.000Z</time>
      </trkpt>
      <trkpt lat="22.916703" lon="110.890962">
        <ele>115.382850</ele>
        <time>2026-08-18T04:27:21.000Z</time>
      </trkpt>
      <trkpt lat="22.916672" lon="110.891012">
        <ele>115.385466</ele>
        <time>2026-08-18T04:27:22.000Z</time>
      </trkpt>
      <trkpt lat="22.916641" lon="110.891064">
        <ele>115.388155</ele>
        <time>2026-08-18T04:27:23.000Z</time>
      </trkpt>
      <trkpt lat="22.916610" lon="110.891114">
        <ele>115.390771</ele>
        <time>2026-08-18T04:27:24.000Z</time>
      </trkpt>
      <trkpt lat="22.916582" lon="110.891165">
        <ele>115.393349</ele>
        <time>2026-08-18T04:27:25.000Z</time>
      </trkpt>
      <trkpt lat="22.916551" lon="110.891217">
        <ele>115.396038</ele>
        <time>2026-08-18T04:27:26.000Z</time>
      </trkpt>
      <trkpt lat="22.916520" lon="110.891269">
        <ele>115.398727</ele>
        <time>2026-08-18T04:27:27.000Z</time>
      </trkpt>
      <trkpt lat="22.916491" lon="110.891320">
        <ele>115.401328</ele>
        <time>2026-08-18T04:27:28.000Z</time>
      </trkpt>
      <trkpt lat="22.916461" lon="110.891370">
        <ele>115.403919</ele>
        <time>2026-08-18T04:27:29.000Z</time>
      </trkpt>
      <trkpt lat="22.916430" lon="110.891421">
        <ele>115.406571</ele>
        <time>2026-08-18T04:27:30.000Z</time>
      </trkpt>
      <trkpt lat="22.916399" lon="110.891473">
        <ele>115.409260</ele>
        <time>2026-08-18T04:27:31.000Z</time>
      </trkpt>
      <trkpt lat="22.916369" lon="110.891524">
        <ele>115.411887</ele>
        <time>2026-08-18T04:27:32.000Z</time>
      </trkpt>
      <trkpt lat="22.916338" lon="110.891575">
        <ele>115.420786</ele>
        <time>2026-08-18T04:27:33.000Z</time>
      </trkpt>
      <trkpt lat="22.916306" lon="110.891626">
        <ele>115.432337</ele>
        <time>2026-08-18T04:27:34.000Z</time>
      </trkpt>
      <trkpt lat="22.916275" lon="110.891675">
        <ele>115.443465</ele>
        <time>2026-08-18T04:27:35.000Z</time>
      </trkpt>
      <trkpt lat="22.916243" lon="110.891726">
        <ele>115.455016</ele>
        <time>2026-08-18T04:27:36.000Z</time>
      </trkpt>
      <trkpt lat="22.916213" lon="110.891776">
        <ele>115.466186</ele>
        <time>2026-08-18T04:27:37.000Z</time>
      </trkpt>
      <trkpt lat="22.916182" lon="110.891827">
        <ele>115.477624</ele>
        <time>2026-08-18T04:27:38.000Z</time>
      </trkpt>
      <trkpt lat="22.916149" lon="110.891878">
        <ele>115.489291</ele>
        <time>2026-08-18T04:27:39.000Z</time>
      </trkpt>
      <trkpt lat="22.916118" lon="110.891930">
        <ele>115.500886</ele>
        <time>2026-08-18T04:27:40.000Z</time>
      </trkpt>
      <trkpt lat="22.916087" lon="110.891981">
        <ele>115.512324</ele>
        <time>2026-08-18T04:27:41.000Z</time>
      </trkpt>
      <trkpt lat="22.916057" lon="110.892033">
        <ele>115.523810</ele>
        <time>2026-08-18T04:27:42.000Z</time>
      </trkpt>
      <trkpt lat="22.916026" lon="110.892084">
        <ele>115.535248</ele>
        <time>2026-08-18T04:27:43.000Z</time>
      </trkpt>
      <trkpt lat="22.915994" lon="110.892133">
        <ele>115.546492</ele>
        <time>2026-08-18T04:27:44.000Z</time>
      </trkpt>
      <trkpt lat="22.915962" lon="110.892184">
        <ele>115.558043</ele>
        <time>2026-08-18T04:27:45.000Z</time>
      </trkpt>
      <trkpt lat="22.915933" lon="110.892236">
        <ele>115.569422</ele>
        <time>2026-08-18T04:27:46.000Z</time>
      </trkpt>
      <trkpt lat="22.915903" lon="110.892287">
        <ele>115.580750</ele>
        <time>2026-08-18T04:27:47.000Z</time>
      </trkpt>
      <trkpt lat="22.915872" lon="110.892338">
        <ele>115.592188</ele>
        <time>2026-08-18T04:27:48.000Z</time>
      </trkpt>
      <trkpt lat="22.915840" lon="110.892391">
        <ele>115.604051</ele>
        <time>2026-08-18T04:27:49.000Z</time>
      </trkpt>
      <trkpt lat="22.915809" lon="110.892443">
        <ele>115.615646</ele>
        <time>2026-08-18T04:27:50.000Z</time>
      </trkpt>
      <trkpt lat="22.915778" lon="110.892496">
        <ele>115.627398</ele>
        <time>2026-08-18T04:27:51.000Z</time>
      </trkpt>
      <trkpt lat="22.915745" lon="110.892550">
        <ele>115.639529</ele>
        <time>2026-08-18T04:27:52.000Z</time>
      </trkpt>
      <trkpt lat="22.915714" lon="110.892602">
        <ele>115.651124</ele>
        <time>2026-08-18T04:27:53.000Z</time>
      </trkpt>
      <trkpt lat="22.915682" lon="110.892654">
        <ele>115.662830</ele>
        <time>2026-08-18T04:27:54.000Z</time>
      </trkpt>
      <trkpt lat="22.915649" lon="110.892707">
        <ele>115.674805</ele>
        <time>2026-08-18T04:27:55.000Z</time>
      </trkpt>
      <trkpt lat="22.915615" lon="110.892760">
        <ele>115.686896</ele>
        <time>2026-08-18T04:27:56.000Z</time>
      </trkpt>
      <trkpt lat="22.915584" lon="110.892810">
        <ele>115.698178</ele>
        <time>2026-08-18T04:27:57.000Z</time>
      </trkpt>
      <trkpt lat="22.915552" lon="110.892862">
        <ele>115.709885</ele>
        <time>2026-08-18T04:27:58.000Z</time>
      </trkpt>
      <trkpt lat="22.915520" lon="110.892915">
        <ele>115.721747</ele>
        <time>2026-08-18T04:27:59.000Z</time>
      </trkpt>
      <trkpt lat="22.915489" lon="110.892966">
        <ele>115.733185</ele>
        <time>2026-08-18T04:28:00.000Z</time>
      </trkpt>
      <trkpt lat="22.915458" lon="110.893017">
        <ele>115.744624</ele>
        <time>2026-08-18T04:28:01.000Z</time>
      </trkpt>
      <trkpt lat="22.915426" lon="110.893069">
        <ele>115.756330</ele>
        <time>2026-08-18T04:28:02.000Z</time>
      </trkpt>
      <trkpt lat="22.915396" lon="110.893121">
        <ele>115.767816</ele>
        <time>2026-08-18T04:28:03.000Z</time>
      </trkpt>
      <trkpt lat="22.915366" lon="110.893172">
        <ele>115.779749</ele>
        <time>2026-08-18T04:28:04.000Z</time>
      </trkpt>
      <trkpt lat="22.915335" lon="110.893225">
        <ele>115.798984</ele>
        <time>2026-08-18T04:28:05.000Z</time>
      </trkpt>
      <trkpt lat="22.915305" lon="110.893277">
        <ele>115.817782</ele>
        <time>2026-08-18T04:28:06.000Z</time>
      </trkpt>
      <trkpt lat="22.915274" lon="110.893329">
        <ele>115.836759</ele>
        <time>2026-08-18T04:28:07.000Z</time>
      </trkpt>
      <trkpt lat="22.915244" lon="110.893381">
        <ele>115.855557</ele>
        <time>2026-08-18T04:28:08.000Z</time>
      </trkpt>
      <trkpt lat="22.915212" lon="110.893431">
        <ele>115.874210</ele>
        <time>2026-08-18T04:28:09.000Z</time>
      </trkpt>
      <trkpt lat="22.915181" lon="110.893482">
        <ele>115.892931</ele>
        <time>2026-08-18T04:28:10.000Z</time>
      </trkpt>
      <trkpt lat="22.915150" lon="110.893533">
        <ele>115.911651</ele>
        <time>2026-08-18T04:28:11.000Z</time>
      </trkpt>
      <trkpt lat="22.915119" lon="110.893584">
        <ele>115.930372</ele>
        <time>2026-08-18T04:28:12.000Z</time>
      </trkpt>
      <trkpt lat="22.915088" lon="110.893634">
        <ele>115.948837</ele>
        <time>2026-08-18T04:28:13.000Z</time>
      </trkpt>
      <trkpt lat="22.915057" lon="110.893684">
        <ele>115.967303</ele>
        <time>2026-08-18T04:28:14.000Z</time>
      </trkpt>
      <trkpt lat="22.915026" lon="110.893734">
        <ele>115.985768</ele>
        <time>2026-08-18T04:28:15.000Z</time>
      </trkpt>
      <trkpt lat="22.914997" lon="110.893785">
        <ele>116.004131</ele>
        <time>2026-08-18T04:28:16.000Z</time>
      </trkpt>
      <trkpt lat="22.914966" lon="110.893836">
        <ele>116.022851</ele>
        <time>2026-08-18T04:28:17.000Z</time>
      </trkpt>
      <trkpt lat="22.914937" lon="110.893885">
        <ele>116.040695</ele>
        <time>2026-08-18T04:28:18.000Z</time>
      </trkpt>
      <trkpt lat="22.914907" lon="110.893936">
        <ele>116.059235</ele>
        <time>2026-08-18T04:28:19.000Z</time>
      </trkpt>
      <trkpt lat="22.914877" lon="110.893986">
        <ele>116.077516</ele>
        <time>2026-08-18T04:28:20.000Z</time>
      </trkpt>
      <trkpt lat="22.914846" lon="110.894036">
        <ele>116.095982</ele>
        <time>2026-08-18T04:28:21.000Z</time>
      </trkpt>
      <trkpt lat="22.914816" lon="110.894085">
        <ele>116.114008</ele>
        <time>2026-08-18T04:28:22.000Z</time>
      </trkpt>
      <trkpt lat="22.914786" lon="110.894134">
        <ele>116.132034</ele>
        <time>2026-08-18T04:28:23.000Z</time>
      </trkpt>
      <trkpt lat="22.914755" lon="110.894185">
        <ele>116.150754</ele>
        <time>2026-08-18T04:28:24.000Z</time>
      </trkpt>
      <trkpt lat="22.914725" lon="110.894235">
        <ele>116.169036</ele>
        <time>2026-08-18T04:28:25.000Z</time>
      </trkpt>
      <trkpt lat="22.914694" lon="110.894283">
        <ele>116.186997</ele>
        <time>2026-08-18T04:28:26.000Z</time>
      </trkpt>
      <trkpt lat="22.914663" lon="110.894333">
        <ele>116.205462</ele>
        <time>2026-08-18T04:28:27.000Z</time>
      </trkpt>
      <trkpt lat="22.914634" lon="110.894382">
        <ele>116.223306</ele>
        <time>2026-08-18T04:28:28.000Z</time>
      </trkpt>
      <trkpt lat="22.914604" lon="110.894432">
        <ele>116.241588</ele>
        <time>2026-08-18T04:28:29.000Z</time>
      </trkpt>
      <trkpt lat="22.914575" lon="110.894481">
        <ele>116.259432</ele>
        <time>2026-08-18T04:28:30.000Z</time>
      </trkpt>
      <trkpt lat="22.914546" lon="110.894530">
        <ele>116.277276</ele>
        <time>2026-08-18T04:28:31.000Z</time>
      </trkpt>
      <trkpt lat="22.914517" lon="110.894578">
        <ele>116.294863</ele>
        <time>2026-08-18T04:28:32.000Z</time>
      </trkpt>
      <trkpt lat="22.914487" lon="110.894627">
        <ele>116.312889</ele>
        <time>2026-08-18T04:28:33.000Z</time>
      </trkpt>
      <trkpt lat="22.914458" lon="110.894675">
        <ele>116.330476</ele>
        <time>2026-08-18T04:28:34.000Z</time>
      </trkpt>
      <trkpt lat="22.914428" lon="110.894725">
        <ele>116.348758</ele>
        <time>2026-08-18T04:28:35.000Z</time>
      </trkpt>
      <trkpt lat="22.914398" lon="110.894774">
        <ele>116.366784</ele>
        <time>2026-08-18T04:28:36.000Z</time>
      </trkpt>
      <trkpt lat="22.914369" lon="110.894824">
        <ele>116.381290</ele>
        <time>2026-08-18T04:28:37.000Z</time>
      </trkpt>
      <trkpt lat="22.914339" lon="110.894871">
        <ele>116.391336</ele>
        <time>2026-08-18T04:28:38.000Z</time>
      </trkpt>
      <trkpt lat="22.914310" lon="110.894920">
        <ele>116.401568</ele>
        <time>2026-08-18T04:28:39.000Z</time>
      </trkpt>
      <trkpt lat="22.914281" lon="110.894967">
        <ele>116.411507</ele>
        <time>2026-08-18T04:28:40.000Z</time>
      </trkpt>
      <trkpt lat="22.914253" lon="110.895014">
        <ele>116.421341</ele>
        <time>2026-08-18T04:28:41.000Z</time>
      </trkpt>
      <trkpt lat="22.914225" lon="110.895062">
        <ele>116.431323</ele>
        <time>2026-08-18T04:28:42.000Z</time>
      </trkpt>
      <trkpt lat="22.914196" lon="110.895107">
        <ele>116.440972</ele>
        <time>2026-08-18T04:28:43.000Z</time>
      </trkpt>
      <trkpt lat="22.914168" lon="110.895153">
        <ele>116.450659</ele>
        <time>2026-08-18T04:28:44.000Z</time>
      </trkpt>
      <trkpt lat="22.914140" lon="110.895199">
        <ele>116.460346</ele>
        <time>2026-08-18T04:28:45.000Z</time>
      </trkpt>
      <trkpt lat="22.914112" lon="110.895245">
        <ele>116.470032</ele>
        <time>2026-08-18T04:28:46.000Z</time>
      </trkpt>
      <trkpt lat="22.914085" lon="110.895289">
        <ele>116.479321</ele>
        <time>2026-08-18T04:28:47.000Z</time>
      </trkpt>
      <trkpt lat="22.914057" lon="110.895334">
        <ele>116.488862</ele>
        <time>2026-08-18T04:28:48.000Z</time>
      </trkpt>
      <trkpt lat="22.914028" lon="110.895381">
        <ele>116.498801</ele>
        <time>2026-08-18T04:28:49.000Z</time>
      </trkpt>
      <trkpt lat="22.913999" lon="110.895427">
        <ele>116.508594</ele>
        <time>2026-08-18T04:28:50.000Z</time>
      </trkpt>
      <trkpt lat="22.913972" lon="110.895472">
        <ele>116.518029</ele>
        <time>2026-08-18T04:28:51.000Z</time>
      </trkpt>
      <trkpt lat="22.913945" lon="110.895519">
        <ele>116.527761</ele>
        <time>2026-08-18T04:28:52.000Z</time>
      </trkpt>
      <trkpt lat="22.913917" lon="110.895565">
        <ele>116.537448</ele>
        <time>2026-08-18T04:28:53.000Z</time>
      </trkpt>
      <trkpt lat="22.913888" lon="110.895612">
        <ele>116.547386</ele>
        <time>2026-08-18T04:28:54.000Z</time>
      </trkpt>
      <trkpt lat="22.913859" lon="110.895658">
        <ele>116.557180</ele>
        <time>2026-08-18T04:28:55.000Z</time>
      </trkpt>
      <trkpt lat="22.913830" lon="110.895705">
        <ele>116.567119</ele>
        <time>2026-08-18T04:28:56.000Z</time>
      </trkpt>
      <trkpt lat="22.913803" lon="110.895752">
        <ele>116.576850</ele>
        <time>2026-08-18T04:28:57.000Z</time>
      </trkpt>
      <trkpt lat="22.913775" lon="110.895800">
        <ele>116.586832</ele>
        <time>2026-08-18T04:28:58.000Z</time>
      </trkpt>
      <trkpt lat="22.913748" lon="110.895846">
        <ele>116.596415</ele>
        <time>2026-08-18T04:28:59.000Z</time>
      </trkpt>
      <trkpt lat="22.913720" lon="110.895892">
        <ele>116.606102</ele>
        <time>2026-08-18T04:29:00.000Z</time>
      </trkpt>
      <trkpt lat="22.913692" lon="110.895938">
        <ele>116.615789</ele>
        <time>2026-08-18T04:29:01.000Z</time>
      </trkpt>
      <trkpt lat="22.913663" lon="110.895983">
        <ele>116.625438</ele>
        <time>2026-08-18T04:29:02.000Z</time>
      </trkpt>
      <trkpt lat="22.913635" lon="110.896028">
        <ele>116.634979</ele>
        <time>2026-08-18T04:29:03.000Z</time>
      </trkpt>
      <trkpt lat="22.913607" lon="110.896075">
        <ele>116.644812</ele>
        <time>2026-08-18T04:29:04.000Z</time>
      </trkpt>
      <trkpt lat="22.913579" lon="110.896123">
        <ele>116.654794</ele>
        <time>2026-08-18T04:29:05.000Z</time>
      </trkpt>
      <trkpt lat="22.913551" lon="110.896170">
        <ele>116.664628</ele>
        <time>2026-08-18T04:29:06.000Z</time>
      </trkpt>
      <trkpt lat="22.913522" lon="110.896217">
        <ele>116.674567</ele>
        <time>2026-08-18T04:29:07.000Z</time>
      </trkpt>
      <trkpt lat="22.913491" lon="110.896263">
        <ele>116.684581</ele>
        <time>2026-08-18T04:29:08.000Z</time>
      </trkpt>
      <trkpt lat="22.913460" lon="110.896311">
        <ele>116.694880</ele>
        <time>2026-08-18T04:29:09.000Z</time>
      </trkpt>
      <trkpt lat="22.913432" lon="110.896359">
        <ele>116.704862</ele>
        <time>2026-08-18T04:29:10.000Z</time>
      </trkpt>
      <trkpt lat="22.913405" lon="110.896406">
        <ele>116.714594</ele>
        <time>2026-08-18T04:29:11.000Z</time>
      </trkpt>
      <trkpt lat="22.913377" lon="110.896452">
        <ele>116.732392</ele>
        <time>2026-08-18T04:29:12.000Z</time>
      </trkpt>
      <trkpt lat="22.913347" lon="110.896498">
        <ele>116.759180</ele>
        <time>2026-08-18T04:29:13.000Z</time>
      </trkpt>
      <trkpt lat="22.913316" lon="110.896543">
        <ele>116.785887</ele>
        <time>2026-08-18T04:29:14.000Z</time>
      </trkpt>
      <trkpt lat="22.913287" lon="110.896591">
        <ele>116.813170</ele>
        <time>2026-08-18T04:29:15.000Z</time>
      </trkpt>
      <trkpt lat="22.913258" lon="110.896640">
        <ele>116.840851</ele>
        <time>2026-08-18T04:29:16.000Z</time>
      </trkpt>
      <trkpt lat="22.913230" lon="110.896689">
        <ele>116.868257</ele>
        <time>2026-08-18T04:29:17.000Z</time>
      </trkpt>
      <trkpt lat="22.913202" lon="110.896739">
        <ele>116.896068</ele>
        <time>2026-08-18T04:29:18.000Z</time>
      </trkpt>
      <trkpt lat="22.913173" lon="110.896787">
        <ele>116.923351</ele>
        <time>2026-08-18T04:29:19.000Z</time>
      </trkpt>
      <trkpt lat="22.913144" lon="110.896835">
        <ele>116.950633</ele>
        <time>2026-08-18T04:29:20.000Z</time>
      </trkpt>
      <trkpt lat="22.913115" lon="110.896883">
        <ele>116.977916</ele>
        <time>2026-08-18T04:29:21.000Z</time>
      </trkpt>
      <trkpt lat="22.913085" lon="110.896931">
        <ele>117.005485</ele>
        <time>2026-08-18T04:29:22.000Z</time>
      </trkpt>
      <trkpt lat="22.913056" lon="110.896979">
        <ele>117.032768</ele>
        <time>2026-08-18T04:29:23.000Z</time>
      </trkpt>
      <trkpt lat="22.913028" lon="110.897029">
        <ele>117.060579</ele>
        <time>2026-08-18T04:29:24.000Z</time>
      </trkpt>
      <trkpt lat="22.912998" lon="110.897079">
        <ele>117.088940</ele>
        <time>2026-08-18T04:29:25.000Z</time>
      </trkpt>
      <trkpt lat="22.912969" lon="110.897128">
        <ele>117.116622</ele>
        <time>2026-08-18T04:29:26.000Z</time>
      </trkpt>
      <trkpt lat="22.912939" lon="110.897179">
        <ele>117.145382</ele>
        <time>2026-08-18T04:29:27.000Z</time>
      </trkpt>
      <trkpt lat="22.912910" lon="110.897227">
        <ele>117.172665</ele>
        <time>2026-08-18T04:29:28.000Z</time>
      </trkpt>
      <trkpt lat="22.912880" lon="110.897275">
        <ele>117.200234</ele>
        <time>2026-08-18T04:29:29.000Z</time>
      </trkpt>
      <trkpt lat="22.912851" lon="110.897324">
        <ele>117.227915</ele>
        <time>2026-08-18T04:29:30.000Z</time>
      </trkpt>
      <trkpt lat="22.912822" lon="110.897373">
        <ele>117.255597</ele>
        <time>2026-08-18T04:29:31.000Z</time>
      </trkpt>
      <trkpt lat="22.912793" lon="110.897419">
        <ele>117.282090</ele>
        <time>2026-08-18T04:29:32.000Z</time>
      </trkpt>
      <trkpt lat="22.912763" lon="110.897465">
        <ele>117.308878</ele>
        <time>2026-08-18T04:29:33.000Z</time>
      </trkpt>
      <trkpt lat="22.912734" lon="110.897512">
        <ele>117.335765</ele>
        <time>2026-08-18T04:29:34.000Z</time>
      </trkpt>
      <trkpt lat="22.912706" lon="110.897558">
        <ele>117.361970</ele>
        <time>2026-08-18T04:29:35.000Z</time>
      </trkpt>
      <trkpt lat="22.912678" lon="110.897605">
        <ele>117.388573</ele>
        <time>2026-08-18T04:29:36.000Z</time>
      </trkpt>
      <trkpt lat="22.912649" lon="110.897651">
        <ele>117.415066</ele>
        <time>2026-08-18T04:29:37.000Z</time>
      </trkpt>
      <trkpt lat="22.912620" lon="110.897698">
        <ele>117.441953</ele>
        <time>2026-08-18T04:29:38.000Z</time>
      </trkpt>
      <trkpt lat="22.912591" lon="110.897744">
        <ele>117.468446</ele>
        <time>2026-08-18T04:29:39.000Z</time>
      </trkpt>
      <trkpt lat="22.912564" lon="110.897791">
        <ele>117.494772</ele>
        <time>2026-08-18T04:29:40.000Z</time>
      </trkpt>
      <trkpt lat="22.912537" lon="110.897837">
        <ele>117.520697</ele>
        <time>2026-08-18T04:29:41.000Z</time>
      </trkpt>
      <trkpt lat="22.912508" lon="110.897884">
        <ele>117.547583</ele>
        <time>2026-08-18T04:29:42.000Z</time>
      </trkpt>
      <trkpt lat="22.912481" lon="110.897932">
        <ele>117.574314</ele>
        <time>2026-08-18T04:29:43.000Z</time>
      </trkpt>
      <trkpt lat="22.912452" lon="110.897979">
        <ele>117.601201</ele>
        <time>2026-08-18T04:29:44.000Z</time>
      </trkpt>
      <trkpt lat="22.912423" lon="110.898025">
        <ele>117.627694</ele>
        <time>2026-08-18T04:29:45.000Z</time>
      </trkpt>
      <trkpt lat="22.912394" lon="110.898074">
        <ele>117.663230</ele>
        <time>2026-08-18T04:29:46.000Z</time>
      </trkpt>
      <trkpt lat="22.912365" lon="110.898122">
        <ele>117.718077</ele>
        <time>2026-08-18T04:29:47.000Z</time>
      </trkpt>
      <trkpt lat="22.912336" lon="110.898169">
        <ele>117.772129</ele>
        <time>2026-08-18T04:29:48.000Z</time>
      </trkpt>
      <trkpt lat="22.912306" lon="110.898215">
        <ele>117.825982</ele>
        <time>2026-08-18T04:29:49.000Z</time>
      </trkpt>
      <trkpt lat="22.912274" lon="110.898261">
        <ele>117.881060</ele>
        <time>2026-08-18T04:29:50.000Z</time>
      </trkpt>
      <trkpt lat="22.912247" lon="110.898309">
        <ele>117.934798</ele>
        <time>2026-08-18T04:29:51.000Z</time>
      </trkpt>
      <trkpt lat="22.912220" lon="110.898356">
        <ele>117.987723</ele>
        <time>2026-08-18T04:29:52.000Z</time>
      </trkpt>
      <trkpt lat="22.912191" lon="110.898401">
        <ele>118.040197</ele>
        <time>2026-08-18T04:29:53.000Z</time>
      </trkpt>
      <trkpt lat="22.912161" lon="110.898448">
        <ele>118.094833</ele>
        <time>2026-08-18T04:29:54.000Z</time>
      </trkpt>
      <trkpt lat="22.912133" lon="110.898496">
        <ele>118.149119</ele>
        <time>2026-08-18T04:29:55.000Z</time>
      </trkpt>
      <trkpt lat="22.912107" lon="110.898546">
        <ele>118.203980</ele>
        <time>2026-08-18T04:29:56.000Z</time>
      </trkpt>
      <trkpt lat="22.912080" lon="110.898593">
        <ele>118.256905</ele>
        <time>2026-08-18T04:29:57.000Z</time>
      </trkpt>
      <trkpt lat="22.912053" lon="110.898637">
        <ele>118.307420</ele>
        <time>2026-08-18T04:29:58.000Z</time>
      </trkpt>
      <trkpt lat="22.912029" lon="110.898684">
        <ele>118.358766</ele>
        <time>2026-08-18T04:29:59.000Z</time>
      </trkpt>
      <trkpt lat="22.912007" lon="110.898730">
        <ele>118.408290</ele>
        <time>2026-08-18T04:30:00.000Z</time>
      </trkpt>
      <trkpt lat="22.911984" lon="110.898777">
        <ele>118.459141</ele>
        <time>2026-08-18T04:30:01.000Z</time>
      </trkpt>
      <trkpt lat="22.911959" lon="110.898823">
        <ele>118.510173</ele>
        <time>2026-08-18T04:30:02.000Z</time>
      </trkpt>
      <trkpt lat="22.911935" lon="110.898870">
        <ele>118.561519</ele>
        <time>2026-08-18T04:30:03.000Z</time>
      </trkpt>
      <trkpt lat="22.911911" lon="110.898917">
        <ele>118.612865</ele>
        <time>2026-08-18T04:30:04.000Z</time>
      </trkpt>
      <trkpt lat="22.911886" lon="110.898962">
        <ele>118.663076</ele>
        <time>2026-08-18T04:30:05.000Z</time>
      </trkpt>
      <trkpt lat="22.911861" lon="110.899006">
        <ele>118.712472</ele>
        <time>2026-08-18T04:30:06.000Z</time>
      </trkpt>
      <trkpt lat="22.911838" lon="110.899051">
        <ele>118.761644</ele>
        <time>2026-08-18T04:30:07.000Z</time>
      </trkpt>
      <trkpt lat="22.911813" lon="110.899096">
        <ele>118.811855</ele>
        <time>2026-08-18T04:30:08.000Z</time>
      </trkpt>
      <trkpt lat="22.911791" lon="110.899143">
        <ele>118.862228</ele>
        <time>2026-08-18T04:30:09.000Z</time>
      </trkpt>
      <trkpt lat="22.911769" lon="110.899190">
        <ele>118.912602</ele>
        <time>2026-08-18T04:30:10.000Z</time>
      </trkpt>
      <trkpt lat="22.911748" lon="110.899238">
        <ele>118.963375</ele>
        <time>2026-08-18T04:30:11.000Z</time>
      </trkpt>
      <trkpt lat="22.911729" lon="110.899286">
        <ele>119.013293</ele>
        <time>2026-08-18T04:30:12.000Z</time>
      </trkpt>
      <trkpt lat="22.911707" lon="110.899334">
        <ele>119.064519</ele>
        <time>2026-08-18T04:30:13.000Z</time>
      </trkpt>
      <trkpt lat="22.911685" lon="110.899381">
        <ele>119.114892</ele>
        <time>2026-08-18T04:30:14.000Z</time>
      </trkpt>
      <trkpt lat="22.911665" lon="110.899429">
        <ele>119.165229</ele>
        <time>2026-08-18T04:30:15.000Z</time>
      </trkpt>
      <trkpt lat="22.911646" lon="110.899476">
        <ele>119.214271</ele>
        <time>2026-08-18T04:30:16.000Z</time>
      </trkpt>
      <trkpt lat="22.911628" lon="110.899523">
        <ele>119.262905</ele>
        <time>2026-08-18T04:30:17.000Z</time>
      </trkpt>
      <trkpt lat="22.911609" lon="110.899569">
        <ele>119.311074</ele>
        <time>2026-08-18T04:30:18.000Z</time>
      </trkpt>
      <trkpt lat="22.911592" lon="110.899617">
        <ele>119.360210</ele>
        <time>2026-08-18T04:30:19.000Z</time>
      </trkpt>
      <trkpt lat="22.911575" lon="110.899664">
        <ele>119.408455</ele>
        <time>2026-08-18T04:30:20.000Z</time>
      </trkpt>
      <trkpt lat="22.911557" lon="110.899713">
        <ele>119.458859</ele>
        <time>2026-08-18T04:30:21.000Z</time>
      </trkpt>
      <trkpt lat="22.911540" lon="110.899761">
        <ele>119.507995</ele>
        <time>2026-08-18T04:30:22.000Z</time>
      </trkpt>
      <trkpt lat="22.911524" lon="110.899809">
        <ele>119.625539</ele>
        <time>2026-08-18T04:30:23.000Z</time>
      </trkpt>
      <trkpt lat="22.911509" lon="110.899857">
        <ele>119.750681</ele>
        <time>2026-08-18T04:30:24.000Z</time>
      </trkpt>
      <trkpt lat="22.911495" lon="110.899902">
        <ele>119.867948</ele>
        <time>2026-08-18T04:30:25.000Z</time>
      </trkpt>
      <trkpt lat="22.911481" lon="110.899948">
        <ele>119.987557</ele>
        <time>2026-08-18T04:30:26.000Z</time>
      </trkpt>
      <trkpt lat="22.911466" lon="110.899992">
        <ele>120.103391</ele>
        <time>2026-08-18T04:30:27.000Z</time>
      </trkpt>
      <trkpt lat="22.911451" lon="110.900036">
        <ele>120.219224</ele>
        <time>2026-08-18T04:30:28.000Z</time>
      </trkpt>
      <trkpt lat="22.911438" lon="110.900081">
        <ele>120.335661</ele>
        <time>2026-08-18T04:30:29.000Z</time>
      </trkpt>
      <trkpt lat="22.911426" lon="110.900125">
        <ele>120.448955</ele>
        <time>2026-08-18T04:30:30.000Z</time>
      </trkpt>
      <trkpt lat="22.911414" lon="110.900171">
        <ele>120.566992</ele>
        <time>2026-08-18T04:30:31.000Z</time>
      </trkpt>
      <trkpt lat="22.911402" lon="110.900216">
        <ele>120.682655</ele>
        <time>2026-08-18T04:30:32.000Z</time>
      </trkpt>
      <trkpt lat="22.911391" lon="110.900261">
        <ele>120.797602</ele>
        <time>2026-08-18T04:30:33.000Z</time>
      </trkpt>
      <trkpt lat="22.911380" lon="110.900305">
        <ele>120.910164</ele>
        <time>2026-08-18T04:30:34.000Z</time>
      </trkpt>
      <trkpt lat="22.911369" lon="110.900350">
        <ele>121.025111</ele>
        <time>2026-08-18T04:30:35.000Z</time>
      </trkpt>
      <trkpt lat="22.911359" lon="110.900394">
        <ele>121.137001</ele>
        <time>2026-08-18T04:30:36.000Z</time>
      </trkpt>
      <trkpt lat="22.911349" lon="110.900437">
        <ele>121.246496</ele>
        <time>2026-08-18T04:30:37.000Z</time>
      </trkpt>
      <trkpt lat="22.911341" lon="110.900480">
        <ele>121.354803</ele>
        <time>2026-08-18T04:30:38.000Z</time>
      </trkpt>
      <trkpt lat="22.911332" lon="110.900523">
        <ele>121.463672</ele>
        <time>2026-08-18T04:30:39.000Z</time>
      </trkpt>
      <trkpt lat="22.911324" lon="110.900567">
        <ele>121.574401</ele>
        <time>2026-08-18T04:30:40.000Z</time>
      </trkpt>
      <trkpt lat="22.911317" lon="110.900610">
        <ele>121.682209</ele>
        <time>2026-08-18T04:30:41.000Z</time>
      </trkpt>
      <trkpt lat="22.911310" lon="110.900652">
        <ele>121.787587</ele>
        <time>2026-08-18T04:30:42.000Z</time>
      </trkpt>
      <trkpt lat="22.911303" lon="110.900695">
        <ele>121.895396</ele>
        <time>2026-08-18T04:30:43.000Z</time>
      </trkpt>
      <trkpt lat="22.911297" lon="110.900737">
        <ele>122.000330</ele>
        <time>2026-08-18T04:30:44.000Z</time>
      </trkpt>
      <trkpt lat="22.911291" lon="110.900778">
        <ele>122.102825</ele>
        <time>2026-08-18T04:30:45.000Z</time>
      </trkpt>
      <trkpt lat="22.911286" lon="110.900818">
        <ele>122.202487</ele>
        <time>2026-08-18T04:30:46.000Z</time>
      </trkpt>
      <trkpt lat="22.911281" lon="110.900858">
        <ele>122.302149</ele>
        <time>2026-08-18T04:30:47.000Z</time>
      </trkpt>
      <trkpt lat="22.911276" lon="110.900896">
        <ele>122.396920</ele>
        <time>2026-08-18T04:30:48.000Z</time>
      </trkpt>
      <trkpt lat="22.911269" lon="110.900934">
        <ele>122.492596</ele>
        <time>2026-08-18T04:30:49.000Z</time>
      </trkpt>
      <trkpt lat="22.911264" lon="110.900971">
        <ele>122.584924</ele>
        <time>2026-08-18T04:30:50.000Z</time>
      </trkpt>
      <trkpt lat="22.911260" lon="110.901008">
        <ele>122.676901</ele>
        <time>2026-08-18T04:30:51.000Z</time>
      </trkpt>
      <trkpt lat="22.911254" lon="110.901045">
        <ele>122.769655</ele>
        <time>2026-08-18T04:30:52.000Z</time>
      </trkpt>
      <trkpt lat="22.911251" lon="110.901081">
        <ele>122.858899</ele>
        <time>2026-08-18T04:30:53.000Z</time>
      </trkpt>
      <trkpt lat="22.911248" lon="110.901118">
        <ele>122.950602</ele>
        <time>2026-08-18T04:30:54.000Z</time>
      </trkpt>
      <trkpt lat="22.911245" lon="110.901153">
        <ele>123.037388</ele>
        <time>2026-08-18T04:30:55.000Z</time>
      </trkpt>
      <trkpt lat="22.911242" lon="110.901186">
        <ele>123.119258</ele>
        <time>2026-08-18T04:30:56.000Z</time>
      </trkpt>
      <trkpt lat="22.911239" lon="110.901215">
        <ele>123.191307</ele>
        <time>2026-08-18T04:30:57.000Z</time>
      </trkpt>
      <trkpt lat="22.911239" lon="110.901246">
        <ele>123.267843</ele>
        <time>2026-08-18T04:30:58.000Z</time>
      </trkpt>
      <trkpt lat="22.911236" lon="110.901279">
        <ele>123.349713</ele>
        <time>2026-08-18T04:30:59.000Z</time>
      </trkpt>
      <trkpt lat="22.911232" lon="110.901311">
        <ele>123.429442</ele>
        <time>2026-08-18T04:31:00.000Z</time>
      </trkpt>
      <trkpt lat="22.911229" lon="110.901344">
        <ele>123.511312</ele>
        <time>2026-08-18T04:31:01.000Z</time>
      </trkpt>
      <trkpt lat="22.911226" lon="110.901379">
        <ele>123.598098</ele>
        <time>2026-08-18T04:31:02.000Z</time>
      </trkpt>
      <trkpt lat="22.911223" lon="110.901413">
        <ele>123.682425</ele>
        <time>2026-08-18T04:31:03.000Z</time>
      </trkpt>
      <trkpt lat="22.911221" lon="110.901448">
        <ele>123.769003</ele>
        <time>2026-08-18T04:31:04.000Z</time>
      </trkpt>
      <trkpt lat="22.911219" lon="110.901485">
        <ele>123.860510</ele>
        <time>2026-08-18T04:31:05.000Z</time>
      </trkpt>
      <trkpt lat="22.911217" lon="110.901520">
        <ele>123.947089</ele>
        <time>2026-08-18T04:31:06.000Z</time>
      </trkpt>
      <trkpt lat="22.911218" lon="110.901553">
        <ele>124.028607</ele>
        <time>2026-08-18T04:31:07.000Z</time>
      </trkpt>
      <trkpt lat="22.911218" lon="110.901586">
        <ele>124.110081</ele>
        <time>2026-08-18T04:31:08.000Z</time>
      </trkpt>
      <trkpt lat="22.911217" lon="110.901619">
        <ele>124.191599</ele>
        <time>2026-08-18T04:31:09.000Z</time>
      </trkpt>
      <trkpt lat="22.911213" lon="110.901650">
        <ele>124.268883</ele>
        <time>2026-08-18T04:31:10.000Z</time>
      </trkpt>
      <trkpt lat="22.911211" lon="110.901682">
        <ele>124.353449</ele>
        <time>2026-08-18T04:31:11.000Z</time>
      </trkpt>
      <trkpt lat="22.911212" lon="110.901715">
        <ele>124.467007</ele>
        <time>2026-08-18T04:31:12.000Z</time>
      </trkpt>
      <trkpt lat="22.911211" lon="110.901747">
        <ele>124.577128</ele>
        <time>2026-08-18T04:31:13.000Z</time>
      </trkpt>
      <trkpt lat="22.911211" lon="110.901779">
        <ele>124.687186</ele>
        <time>2026-08-18T04:31:14.000Z</time>
      </trkpt>
      <trkpt lat="22.911212" lon="110.901811">
        <ele>124.797307</ele>
        <time>2026-08-18T04:31:15.000Z</time>
      </trkpt>
      <trkpt lat="22.911213" lon="110.901843">
        <ele>124.907428</ele>
        <time>2026-08-18T04:31:16.000Z</time>
      </trkpt>
      <trkpt lat="22.911212" lon="110.901877">
        <ele>125.024424</ele>
        <time>2026-08-18T04:31:17.000Z</time>
      </trkpt>
      <trkpt lat="22.911212" lon="110.901908">
        <ele>125.131043</ele>
        <time>2026-08-18T04:31:18.000Z</time>
      </trkpt>
      <trkpt lat="22.911211" lon="110.901939">
        <ele>125.237726</ele>
        <time>2026-08-18T04:31:19.000Z</time>
      </trkpt>
      <trkpt lat="22.911211" lon="110.901970">
        <ele>125.344345</ele>
        <time>2026-08-18T04:31:20.000Z</time>
      </trkpt>
      <trkpt lat="22.911212" lon="110.902002">
        <ele>125.454466</ele>
        <time>2026-08-18T04:31:21.000Z</time>
      </trkpt>
      <trkpt lat="22.911213" lon="110.902035">
        <ele>125.568025</ele>
        <time>2026-08-18T04:31:22.000Z</time>
      </trkpt>
      <trkpt lat="22.911214" lon="110.902066">
        <ele>125.674708</ele>
        <time>2026-08-18T04:31:23.000Z</time>
      </trkpt>
      <trkpt lat="22.911215" lon="110.902095">
        <ele>125.774518</ele>
        <time>2026-08-18T04:31:24.000Z</time>
      </trkpt>
      <trkpt lat="22.911216" lon="110.902126">
        <ele>125.881202</ele>
        <time>2026-08-18T04:31:25.000Z</time>
      </trkpt>
      <trkpt lat="22.911219" lon="110.902157">
        <ele>125.988407</ele>
        <time>2026-08-18T04:31:26.000Z</time>
      </trkpt>
      <trkpt lat="22.911221" lon="110.902188">
        <ele>126.095287</ele>
        <time>2026-08-18T04:31:27.000Z</time>
      </trkpt>
      <trkpt lat="22.911220" lon="110.902216">
        <ele>126.191660</ele>
        <time>2026-08-18T04:31:28.000Z</time>
      </trkpt>
      <trkpt lat="22.911220" lon="110.902247">
        <ele>126.298278</ele>
        <time>2026-08-18T04:31:29.000Z</time>
      </trkpt>
      <trkpt lat="22.911220" lon="110.902277">
        <ele>126.401458</ele>
        <time>2026-08-18T04:31:30.000Z</time>
      </trkpt>
      <trkpt lat="22.911222" lon="110.902307">
        <ele>126.504907</ele>
        <time>2026-08-18T04:31:31.000Z</time>
      </trkpt>
      <trkpt lat="22.911224" lon="110.902338">
        <ele>126.611786</ele>
        <time>2026-08-18T04:31:32.000Z</time>
      </trkpt>
      <trkpt lat="22.911226" lon="110.902372">
        <ele>126.728961</ele>
        <time>2026-08-18T04:31:33.000Z</time>
      </trkpt>
      <trkpt lat="22.911228" lon="110.902404">
        <ele>126.839272</ele>
        <time>2026-08-18T04:31:34.000Z</time>
      </trkpt>
      <trkpt lat="22.911231" lon="110.902435">
        <ele>126.946477</ele>
        <time>2026-08-18T04:31:35.000Z</time>
      </trkpt>
      <trkpt lat="22.911235" lon="110.902468">
        <ele>127.060953</ele>
        <time>2026-08-18T04:31:36.000Z</time>
      </trkpt>
      <trkpt lat="22.911238" lon="110.902500">
        <ele>127.171579</ele>
        <time>2026-08-18T04:31:37.000Z</time>
      </trkpt>
      <trkpt lat="22.911242" lon="110.902530">
        <ele>127.275834</ele>
        <time>2026-08-18T04:31:38.000Z</time>
      </trkpt>
      <trkpt lat="22.911247" lon="110.902561">
        <ele>127.384074</ele>
        <time>2026-08-18T04:31:39.000Z</time>
      </trkpt>
      <trkpt lat="22.911251" lon="110.902591">
        <ele>127.488329</ele>
        <time>2026-08-18T04:31:40.000Z</time>
      </trkpt>
      <trkpt lat="22.911254" lon="110.902622">
        <ele>127.595534</ele>
        <time>2026-08-18T04:31:41.000Z</time>
      </trkpt>
      <trkpt lat="22.911257" lon="110.902653">
        <ele>127.702739</ele>
        <time>2026-08-18T04:31:42.000Z</time>
      </trkpt>
      <trkpt lat="22.911259" lon="110.902685">
        <ele>127.813050</ele>
        <time>2026-08-18T04:31:43.000Z</time>
      </trkpt>
      <trkpt lat="22.911261" lon="110.902715">
        <ele>127.916499</ele>
        <time>2026-08-18T04:31:44.000Z</time>
      </trkpt>
      <trkpt lat="22.911264" lon="110.902744">
        <ele>128.016866</ele>
        <time>2026-08-18T04:31:45.000Z</time>
      </trkpt>
      <trkpt lat="22.911266" lon="110.902771">
        <ele>128.110027</ele>
        <time>2026-08-18T04:31:46.000Z</time>
      </trkpt>
      <trkpt lat="22.911267" lon="110.902799">
        <ele>128.206400</ele>
        <time>2026-08-18T04:31:47.000Z</time>
      </trkpt>
      <trkpt lat="22.911271" lon="110.902827">
        <ele>128.303852</ele>
        <time>2026-08-18T04:31:48.000Z</time>
      </trkpt>
      <trkpt lat="22.911276" lon="110.902859">
        <ele>128.415482</ele>
        <time>2026-08-18T04:31:49.000Z</time>
      </trkpt>
      <trkpt lat="22.911280" lon="110.902893">
        <ele>128.533368</ele>
        <time>2026-08-18T04:31:50.000Z</time>
      </trkpt>
      <trkpt lat="22.911283" lon="110.902924">
        <ele>128.640573</ele>
        <time>2026-08-18T04:31:51.000Z</time>
      </trkpt>
      <trkpt lat="22.911286" lon="110.902955">
        <ele>128.747779</ele>
        <time>2026-08-18T04:31:52.000Z</time>
      </trkpt>
      <trkpt lat="22.911288" lon="110.902986">
        <ele>128.854658</ele>
        <time>2026-08-18T04:31:53.000Z</time>
      </trkpt>
      <trkpt lat="22.911289" lon="110.903017">
        <ele>128.961342</ele>
        <time>2026-08-18T04:31:54.000Z</time>
      </trkpt>
      <trkpt lat="22.911291" lon="110.903048">
        <ele>129.068222</ele>
        <time>2026-08-18T04:31:55.000Z</time>
      </trkpt>
      <trkpt lat="22.911293" lon="110.903078">
        <ele>129.171671</ele>
        <time>2026-08-18T04:31:56.000Z</time>
      </trkpt>
      <trkpt lat="22.911296" lon="110.903107">
        <ele>129.272037</ele>
        <time>2026-08-18T04:31:57.000Z</time>
      </trkpt>
      <trkpt lat="22.911298" lon="110.903138">
        <ele>129.378917</ele>
        <time>2026-08-18T04:31:58.000Z</time>
      </trkpt>
      <trkpt lat="22.911299" lon="110.903167">
        <ele>129.478727</ele>
        <time>2026-08-18T04:31:59.000Z</time>
      </trkpt>
      <trkpt lat="22.911300" lon="110.903196">
        <ele>129.578536</ele>
        <time>2026-08-18T04:32:00.000Z</time>
      </trkpt>
      <trkpt lat="22.911302" lon="110.903225">
        <ele>129.678555</ele>
        <time>2026-08-18T04:32:01.000Z</time>
      </trkpt>
      <trkpt lat="22.911302" lon="110.903255">
        <ele>129.781735</ele>
        <time>2026-08-18T04:32:02.000Z</time>
      </trkpt>
      <trkpt lat="22.911304" lon="110.903285">
        <ele>129.885184</ele>
        <time>2026-08-18T04:32:03.000Z</time>
      </trkpt>
      <trkpt lat="22.911307" lon="110.903315">
        <ele>129.988969</ele>
        <time>2026-08-18T04:32:04.000Z</time>
      </trkpt>
      <trkpt lat="22.911311" lon="110.903345">
        <ele>130.093223</ele>
        <time>2026-08-18T04:32:05.000Z</time>
      </trkpt>
      <trkpt lat="22.911317" lon="110.903374">
        <ele>130.195448</ele>
        <time>2026-08-18T04:32:06.000Z</time>
      </trkpt>
      <trkpt lat="22.911322" lon="110.903404">
        <ele>130.300303</ele>
        <time>2026-08-18T04:32:07.000Z</time>
      </trkpt>
      <trkpt lat="22.911327" lon="110.903433">
        <ele>130.401775</ele>
        <time>2026-08-18T04:32:08.000Z</time>
      </trkpt>
      <trkpt lat="22.911331" lon="110.903463">
        <ele>130.506029</ele>
        <time>2026-08-18T04:32:09.000Z</time>
      </trkpt>
      <trkpt lat="22.911334" lon="110.903492">
        <ele>130.606396</ele>
        <time>2026-08-18T04:32:10.000Z</time>
      </trkpt>
      <trkpt lat="22.911338" lon="110.903520">
        <ele>130.703848</ele>
        <time>2026-08-18T04:32:11.000Z</time>
      </trkpt>
      <trkpt lat="22.911342" lon="110.903551">
        <ele>130.811507</ele>
        <time>2026-08-18T04:32:12.000Z</time>
      </trkpt>
      <trkpt lat="22.911346" lon="110.903581">
        <ele>130.915762</ele>
        <time>2026-08-18T04:32:13.000Z</time>
      </trkpt>
      <trkpt lat="22.911351" lon="110.903610">
        <ele>131.017234</ele>
        <time>2026-08-18T04:32:14.000Z</time>
      </trkpt>
      <trkpt lat="22.911356" lon="110.903640">
        <ele>131.062573</ele>
        <time>2026-08-18T04:32:15.000Z</time>
      </trkpt>
      <trkpt lat="22.911360" lon="110.903670">
        <ele>131.080406</ele>
        <time>2026-08-18T04:32:16.000Z</time>
      </trkpt>
      <trkpt lat="22.911366" lon="110.903699">
        <ele>131.097891</ele>
        <time>2026-08-18T04:32:17.000Z</time>
      </trkpt>
      <trkpt lat="22.911371" lon="110.903729">
        <ele>131.115826</ele>
        <time>2026-08-18T04:32:18.000Z</time>
      </trkpt>
      <trkpt lat="22.911375" lon="110.903759">
        <ele>131.133659</ele>
        <time>2026-08-18T04:32:19.000Z</time>
      </trkpt>
      <trkpt lat="22.911378" lon="110.903791">
        <ele>131.152581</ele>
        <time>2026-08-18T04:32:20.000Z</time>
      </trkpt>
      <trkpt lat="22.911382" lon="110.903825">
        <ele>131.172745</ele>
        <time>2026-08-18T04:32:21.000Z</time>
      </trkpt>
      <trkpt lat="22.911386" lon="110.903858">
        <ele>131.192326</ele>
        <time>2026-08-18T04:32:22.000Z</time>
      </trkpt>
      <trkpt lat="22.911390" lon="110.903890">
        <ele>131.211323</ele>
        <time>2026-08-18T04:32:23.000Z</time>
      </trkpt>
      <trkpt lat="22.911393" lon="110.903923">
        <ele>131.230831</ele>
        <time>2026-08-18T04:32:24.000Z</time>
      </trkpt>
      <trkpt lat="22.911395" lon="110.903956">
        <ele>131.250286</ele>
        <time>2026-08-18T04:32:25.000Z</time>
      </trkpt>
      <trkpt lat="22.911399" lon="110.903988">
        <ele>131.269284</ele>
        <time>2026-08-18T04:32:26.000Z</time>
      </trkpt>
      <trkpt lat="22.911404" lon="110.904021">
        <ele>131.288958</ele>
        <time>2026-08-18T04:32:27.000Z</time>
      </trkpt>
      <trkpt lat="22.911409" lon="110.904053">
        <ele>131.308052</ele>
        <time>2026-08-18T04:32:28.000Z</time>
      </trkpt>
      <trkpt lat="22.911414" lon="110.904086">
        <ele>131.327726</ele>
        <time>2026-08-18T04:32:29.000Z</time>
      </trkpt>
      <trkpt lat="22.911417" lon="110.904120">
        <ele>131.347820</ele>
        <time>2026-08-18T04:32:30.000Z</time>
      </trkpt>
      <trkpt lat="22.911420" lon="110.904153">
        <ele>131.367327</ele>
        <time>2026-08-18T04:32:31.000Z</time>
      </trkpt>
      <trkpt lat="22.911424" lon="110.904186">
        <ele>131.386908</ele>
        <time>2026-08-18T04:32:32.000Z</time>
      </trkpt>
      <trkpt lat="22.911428" lon="110.904220">
        <ele>131.407072</ele>
        <time>2026-08-18T04:32:33.000Z</time>
      </trkpt>
      <trkpt lat="22.911432" lon="110.904253">
        <ele>131.426653</ele>
        <time>2026-08-18T04:32:34.000Z</time>
      </trkpt>
      <trkpt lat="22.911436" lon="110.904287">
        <ele>131.446817</ele>
        <time>2026-08-18T04:32:35.000Z</time>
      </trkpt>
      <trkpt lat="22.911439" lon="110.904322">
        <ele>131.467496</ele>
        <time>2026-08-18T04:32:36.000Z</time>
      </trkpt>
      <trkpt lat="22.911443" lon="110.904357">
        <ele>131.488243</ele>
        <time>2026-08-18T04:32:37.000Z</time>
      </trkpt>
      <trkpt lat="22.911447" lon="110.904390">
        <ele>131.507824</ele>
        <time>2026-08-18T04:32:38.000Z</time>
      </trkpt>
      <trkpt lat="22.911451" lon="110.904423">
        <ele>131.527405</ele>
        <time>2026-08-18T04:32:39.000Z</time>
      </trkpt>
      <trkpt lat="22.911455" lon="110.904459">
        <ele>131.548737</ele>
        <time>2026-08-18T04:32:40.000Z</time>
      </trkpt>
      <trkpt lat="22.911460" lon="110.904495">
        <ele>131.570154</ele>
        <time>2026-08-18T04:32:41.000Z</time>
      </trkpt>
      <trkpt lat="22.911464" lon="110.904531">
        <ele>131.591486</ele>
        <time>2026-08-18T04:32:42.000Z</time>
      </trkpt>
      <trkpt lat="22.911468" lon="110.904568">
        <ele>131.613402</ele>
        <time>2026-08-18T04:32:43.000Z</time>
      </trkpt>
      <trkpt lat="22.911473" lon="110.904604">
        <ele>131.634819</ele>
        <time>2026-08-18T04:32:44.000Z</time>
      </trkpt>
      <trkpt lat="22.911476" lon="110.904640">
        <ele>131.656084</ele>
        <time>2026-08-18T04:32:45.000Z</time>
      </trkpt>
      <trkpt lat="22.911481" lon="110.904678">
        <ele>131.678666</ele>
        <time>2026-08-18T04:32:46.000Z</time>
      </trkpt>
      <trkpt lat="22.911486" lon="110.904716">
        <ele>131.701247</ele>
        <time>2026-08-18T04:32:47.000Z</time>
      </trkpt>
      <trkpt lat="22.911491" lon="110.904754">
        <ele>131.723829</ele>
        <time>2026-08-18T04:32:48.000Z</time>
      </trkpt>
      <trkpt lat="22.911494" lon="110.904792">
        <ele>131.746266</ele>
        <time>2026-08-18T04:32:49.000Z</time>
      </trkpt>
      <trkpt lat="22.911499" lon="110.904830">
        <ele>131.768847</ele>
        <time>2026-08-18T04:32:50.000Z</time>
      </trkpt>
      <trkpt lat="22.911503" lon="110.904870">
        <ele>131.792517</ele>
        <time>2026-08-18T04:32:51.000Z</time>
      </trkpt>
      <trkpt lat="22.911508" lon="110.904911">
        <ele>131.816847</ele>
        <time>2026-08-18T04:32:52.000Z</time>
      </trkpt>
      <trkpt lat="22.911512" lon="110.904953">
        <ele>131.841687</ele>
        <time>2026-08-18T04:32:53.000Z</time>
      </trkpt>
      <trkpt lat="22.911517" lon="110.904995">
        <ele>131.866600</ele>
        <time>2026-08-18T04:32:54.000Z</time>
      </trkpt>
      <trkpt lat="22.911523" lon="110.905039">
        <ele>131.892766</ele>
        <time>2026-08-18T04:32:55.000Z</time>
      </trkpt>
      <trkpt lat="22.911530" lon="110.905083">
        <ele>131.919034</ele>
        <time>2026-08-18T04:32:56.000Z</time>
      </trkpt>
      <trkpt lat="22.911536" lon="110.905128">
        <ele>131.945783</ele>
        <time>2026-08-18T04:32:57.000Z</time>
      </trkpt>
      <trkpt lat="22.911542" lon="110.905174">
        <ele>131.973114</ele>
        <time>2026-08-18T04:32:58.000Z</time>
      </trkpt>
      <trkpt lat="22.911547" lon="110.905220">
        <ele>132.000362</ele>
        <time>2026-08-18T04:32:59.000Z</time>
      </trkpt>
      <trkpt lat="22.911553" lon="110.905268">
        <ele>132.028859</ele>
        <time>2026-08-18T04:33:00.000Z</time>
      </trkpt>
      <trkpt lat="22.911559" lon="110.905316">
        <ele>132.057355</ele>
        <time>2026-08-18T04:33:01.000Z</time>
      </trkpt>
      <trkpt lat="22.911565" lon="110.905365">
        <ele>132.086435</ele>
        <time>2026-08-18T04:33:02.000Z</time>
      </trkpt>
      <trkpt lat="22.911571" lon="110.905416">
        <ele>132.116681</ele>
        <time>2026-08-18T04:33:03.000Z</time>
      </trkpt>
      <trkpt lat="22.911576" lon="110.905467">
        <ele>132.146853</ele>
        <time>2026-08-18T04:33:04.000Z</time>
      </trkpt>
      <trkpt lat="22.911582" lon="110.905519">
        <ele>132.177682</ele>
        <time>2026-08-18T04:33:05.000Z</time>
      </trkpt>
      <trkpt lat="22.911589" lon="110.905573">
        <ele>132.166904</ele>
        <time>2026-08-18T04:33:06.000Z</time>
      </trkpt>
      <trkpt lat="22.911595" lon="110.905630">
        <ele>132.065875</ele>
        <time>2026-08-18T04:33:07.000Z</time>
      </trkpt>
      <trkpt lat="22.911603" lon="110.905688">
        <ele>131.962600</ele>
        <time>2026-08-18T04:33:08.000Z</time>
      </trkpt>
      <trkpt lat="22.911609" lon="110.905748">
        <ele>131.856320</ele>
        <time>2026-08-18T04:33:09.000Z</time>
      </trkpt>
      <trkpt lat="22.911616" lon="110.905809">
        <ele>131.748070</ele>
        <time>2026-08-18T04:33:10.000Z</time>
      </trkpt>
      <trkpt lat="22.911623" lon="110.905870">
        <ele>131.639820</ele>
        <time>2026-08-18T04:33:11.000Z</time>
      </trkpt>
      <trkpt lat="22.911632" lon="110.905932">
        <ele>131.529292</ele>
        <time>2026-08-18T04:33:12.000Z</time>
      </trkpt>
      <trkpt lat="22.911640" lon="110.905995">
        <ele>131.417301</ele>
        <time>2026-08-18T04:33:13.000Z</time>
      </trkpt>
      <trkpt lat="22.911644" lon="110.906060">
        <ele>131.302582</ele>
        <time>2026-08-18T04:33:14.000Z</time>
      </trkpt>
      <trkpt lat="22.911649" lon="110.906123">
        <ele>131.191229</ele>
        <time>2026-08-18T04:33:15.000Z</time>
      </trkpt>
      <trkpt lat="22.911656" lon="110.906188">
        <ele>131.075986</ele>
        <time>2026-08-18T04:33:16.000Z</time>
      </trkpt>
      <trkpt lat="22.911663" lon="110.906254">
        <ele>130.958993</ele>
        <time>2026-08-18T04:33:17.000Z</time>
      </trkpt>
      <trkpt lat="22.911671" lon="110.906321">
        <ele>130.840021</ele>
        <time>2026-08-18T04:33:18.000Z</time>
      </trkpt>
      <trkpt lat="22.911680" lon="110.906388">
        <ele>130.720787</ele>
        <time>2026-08-18T04:33:19.000Z</time>
      </trkpt>
      <trkpt lat="22.911688" lon="110.906456">
        <ele>130.600068</ele>
        <time>2026-08-18T04:33:20.000Z</time>
      </trkpt>
      <trkpt lat="22.911697" lon="110.906524">
        <ele>130.479091</ele>
        <time>2026-08-18T04:33:21.000Z</time>
      </trkpt>
      <trkpt lat="22.911706" lon="110.906593">
        <ele>130.356372</ele>
        <time>2026-08-18T04:33:22.000Z</time>
      </trkpt>
      <trkpt lat="22.911714" lon="110.906663">
        <ele>130.232158</ele>
        <time>2026-08-18T04:33:23.000Z</time>
      </trkpt>
      <trkpt lat="22.911724" lon="110.906735">
        <ele>130.103934</ele>
        <time>2026-08-18T04:33:24.000Z</time>
      </trkpt>
      <trkpt lat="22.911732" lon="110.906806">
        <ele>129.977973</ele>
        <time>2026-08-18T04:33:25.000Z</time>
      </trkpt>
      <trkpt lat="22.911740" lon="110.906878">
        <ele>129.850263</ele>
        <time>2026-08-18T04:33:26.000Z</time>
      </trkpt>
      <trkpt lat="22.911750" lon="110.906951">
        <ele>129.720298</ele>
        <time>2026-08-18T04:33:27.000Z</time>
      </trkpt>
      <trkpt lat="22.911762" lon="110.907023">
        <ele>129.591449</ele>
        <time>2026-08-18T04:33:28.000Z</time>
      </trkpt>
      <trkpt lat="22.911771" lon="110.907096">
        <ele>129.461751</ele>
        <time>2026-08-18T04:33:29.000Z</time>
      </trkpt>
      <trkpt lat="22.911780" lon="110.907172">
        <ele>129.326816</ele>
        <time>2026-08-18T04:33:30.000Z</time>
      </trkpt>
      <trkpt lat="22.911787" lon="110.907246">
        <ele>129.195818</ele>
        <time>2026-08-18T04:33:31.000Z</time>
      </trkpt>
      <trkpt lat="22.911795" lon="110.907320">
        <ele>129.064611</ele>
        <time>2026-08-18T04:33:32.000Z</time>
      </trkpt>
      <trkpt lat="22.911802" lon="110.907395">
        <ele>128.931862</ele>
        <time>2026-08-18T04:33:33.000Z</time>
      </trkpt>
      <trkpt lat="22.911809" lon="110.907472">
        <ele>128.795608</ele>
        <time>2026-08-18T04:33:34.000Z</time>
      </trkpt>
      <trkpt lat="22.911816" lon="110.907548">
        <ele>128.761822</ele>
        <time>2026-08-18T04:33:35.000Z</time>
      </trkpt>
      <trkpt lat="22.911821" lon="110.907621">
        <ele>128.763708</ele>
        <time>2026-08-18T04:33:36.000Z</time>
      </trkpt>
      <trkpt lat="22.911830" lon="110.907697">
        <ele>128.765682</ele>
        <time>2026-08-18T04:33:37.000Z</time>
      </trkpt>
      <trkpt lat="22.911840" lon="110.907772">
        <ele>128.767635</ele>
        <time>2026-08-18T04:33:38.000Z</time>
      </trkpt>
      <trkpt lat="22.911851" lon="110.907847">
        <ele>128.769592</ele>
        <time>2026-08-18T04:33:39.000Z</time>
      </trkpt>
      <trkpt lat="22.911860" lon="110.907922">
        <ele>128.771541</ele>
        <time>2026-08-18T04:33:40.000Z</time>
      </trkpt>
      <trkpt lat="22.911868" lon="110.907996">
        <ele>128.773461</ele>
        <time>2026-08-18T04:33:41.000Z</time>
      </trkpt>
      <trkpt lat="22.911878" lon="110.908069">
        <ele>128.775362</ele>
        <time>2026-08-18T04:33:42.000Z</time>
      </trkpt>
      <trkpt lat="22.911887" lon="110.908142">
        <ele>128.777260</ele>
        <time>2026-08-18T04:33:43.000Z</time>
      </trkpt>
      <trkpt lat="22.911895" lon="110.908213">
        <ele>128.779103</ele>
        <time>2026-08-18T04:33:44.000Z</time>
      </trkpt>
      <trkpt lat="22.911903" lon="110.908286">
        <ele>128.780997</ele>
        <time>2026-08-18T04:33:45.000Z</time>
      </trkpt>
      <trkpt lat="22.911912" lon="110.908359">
        <ele>128.782895</ele>
        <time>2026-08-18T04:33:46.000Z</time>
      </trkpt>
      <trkpt lat="22.911921" lon="110.908434">
        <ele>128.784844</ele>
        <time>2026-08-18T04:33:47.000Z</time>
      </trkpt>
      <trkpt lat="22.911930" lon="110.908508">
        <ele>128.786767</ele>
        <time>2026-08-18T04:33:48.000Z</time>
      </trkpt>
      <trkpt lat="22.911939" lon="110.908582">
        <ele>128.788691</ele>
        <time>2026-08-18T04:33:49.000Z</time>
      </trkpt>
      <trkpt lat="22.911949" lon="110.908655">
        <ele>128.790592</ele>
        <time>2026-08-18T04:33:50.000Z</time>
      </trkpt>
      <trkpt lat="22.911958" lon="110.908727">
        <ele>128.792464</ele>
        <time>2026-08-18T04:33:51.000Z</time>
      </trkpt>
      <trkpt lat="22.911966" lon="110.908798">
        <ele>128.794308</ele>
        <time>2026-08-18T04:33:52.000Z</time>
      </trkpt>
      <trkpt lat="22.911974" lon="110.908868">
        <ele>128.796125</ele>
        <time>2026-08-18T04:33:53.000Z</time>
      </trkpt>
      <trkpt lat="22.911982" lon="110.908940">
        <ele>128.797994</ele>
        <time>2026-08-18T04:33:54.000Z</time>
      </trkpt>
      <trkpt lat="22.911989" lon="110.909011">
        <ele>128.799834</ele>
        <time>2026-08-18T04:33:55.000Z</time>
      </trkpt>
      <trkpt lat="22.911995" lon="110.909081">
        <ele>128.801645</ele>
        <time>2026-08-18T04:33:56.000Z</time>
      </trkpt>
      <trkpt lat="22.912002" lon="110.909151">
        <ele>128.803459</ele>
        <time>2026-08-18T04:33:57.000Z</time>
      </trkpt>
      <trkpt lat="22.912007" lon="110.909220">
        <ele>128.805243</ele>
        <time>2026-08-18T04:33:58.000Z</time>
      </trkpt>
      <trkpt lat="22.912012" lon="110.909286">
        <ele>128.806949</ele>
        <time>2026-08-18T04:33:59.000Z</time>
      </trkpt>
      <trkpt lat="22.912019" lon="110.909352">
        <ele>128.808661</ele>
        <time>2026-08-18T04:34:00.000Z</time>
      </trkpt>
      <trkpt lat="22.912026" lon="110.909414">
        <ele>128.810270</ele>
        <time>2026-08-18T04:34:01.000Z</time>
      </trkpt>
      <trkpt lat="22.912033" lon="110.909477">
        <ele>128.878588</ele>
        <time>2026-08-18T04:34:02.000Z</time>
      </trkpt>
      <trkpt lat="22.912041" lon="110.909541">
        <ele>128.971130</ele>
        <time>2026-08-18T04:34:03.000Z</time>
      </trkpt>
      <trkpt lat="22.912048" lon="110.909602">
        <ele>129.059209</ele>
        <time>2026-08-18T04:34:04.000Z</time>
      </trkpt>
      <trkpt lat="22.912056" lon="110.909662">
        <ele>129.146075</ele>
        <time>2026-08-18T04:34:05.000Z</time>
      </trkpt>
      <trkpt lat="22.912063" lon="110.909719">
        <ele>129.228470</ele>
        <time>2026-08-18T04:34:06.000Z</time>
      </trkpt>
      <trkpt lat="22.912070" lon="110.909773">
        <ele>129.306605</ele>
        <time>2026-08-18T04:34:07.000Z</time>
      </trkpt>
      <trkpt lat="22.912077" lon="110.909825">
        <ele>129.381904</ele>
        <time>2026-08-18T04:34:08.000Z</time>
      </trkpt>
      <trkpt lat="22.912084" lon="110.909876">
        <ele>129.455786</ele>
        <time>2026-08-18T04:34:09.000Z</time>
      </trkpt>
      <trkpt lat="22.912090" lon="110.909925">
        <ele>129.526613</ele>
        <time>2026-08-18T04:34:10.000Z</time>
      </trkpt>
      <trkpt lat="22.912096" lon="110.909973">
        <ele>129.596019</ele>
        <time>2026-08-18T04:34:11.000Z</time>
      </trkpt>
      <trkpt lat="22.912103" lon="110.910022">
        <ele>129.667068</ele>
        <time>2026-08-18T04:34:12.000Z</time>
      </trkpt>
      <trkpt lat="22.912109" lon="110.910071">
        <ele>129.737894</ele>
        <time>2026-08-18T04:34:13.000Z</time>
      </trkpt>
      <trkpt lat="22.912116" lon="110.910116">
        <ele>129.803285</ele>
        <time>2026-08-18T04:34:14.000Z</time>
      </trkpt>
      <trkpt lat="22.912122" lon="110.910161">
        <ele>129.868435</ele>
        <time>2026-08-18T04:34:15.000Z</time>
      </trkpt>
      <trkpt lat="22.912128" lon="110.910207">
        <ele>129.935003</ele>
        <time>2026-08-18T04:34:16.000Z</time>
      </trkpt>
      <trkpt lat="22.912135" lon="110.910251">
        <ele>129.998981</ele>
        <time>2026-08-18T04:34:17.000Z</time>
      </trkpt>
      <trkpt lat="22.912140" lon="110.910297">
        <ele>130.065349</ele>
        <time>2026-08-18T04:34:18.000Z</time>
      </trkpt>
      <trkpt lat="22.912142" lon="110.910339">
        <ele>130.125608</ele>
        <time>2026-08-18T04:34:19.000Z</time>
      </trkpt>
      <trkpt lat="22.912144" lon="110.910380">
        <ele>130.184437</ele>
        <time>2026-08-18T04:34:20.000Z</time>
      </trkpt>
      <trkpt lat="22.912149" lon="110.910425">
        <ele>130.249382</ele>
        <time>2026-08-18T04:34:21.000Z</time>
      </trkpt>
      <trkpt lat="22.912154" lon="110.910468">
        <ele>130.311483</ele>
        <time>2026-08-18T04:34:22.000Z</time>
      </trkpt>
      <trkpt lat="22.912162" lon="110.910511">
        <ele>130.374339</ele>
        <time>2026-08-18T04:34:23.000Z</time>
      </trkpt>
      <trkpt lat="22.912171" lon="110.910554">
        <ele>130.437522</ele>
        <time>2026-08-18T04:34:24.000Z</time>
      </trkpt>
      <trkpt lat="22.912177" lon="110.910595">
        <ele>130.497005</ele>
        <time>2026-08-18T04:34:25.000Z</time>
      </trkpt>
      <trkpt lat="22.912181" lon="110.910639">
        <ele>130.560356</ele>
        <time>2026-08-18T04:34:26.000Z</time>
      </trkpt>
      <trkpt lat="22.912187" lon="110.910688">
        <ele>130.631183</ele>
        <time>2026-08-18T04:34:27.000Z</time>
      </trkpt>
      <trkpt lat="22.912192" lon="110.910735">
        <ele>130.698973</ele>
        <time>2026-08-18T04:34:28.000Z</time>
      </trkpt>
      <trkpt lat="22.912199" lon="110.910780">
        <ele>130.764364</ele>
        <time>2026-08-18T04:34:29.000Z</time>
      </trkpt>
      <trkpt lat="22.912205" lon="110.910827">
        <ele>130.832351</ele>
        <time>2026-08-18T04:34:30.000Z</time>
      </trkpt>
      <trkpt lat="22.912211" lon="110.910876">
        <ele>130.903178</ele>
        <time>2026-08-18T04:34:31.000Z</time>
      </trkpt>
      <trkpt lat="22.912216" lon="110.910924">
        <ele>130.972392</ele>
        <time>2026-08-18T04:34:32.000Z</time>
      </trkpt>
      <trkpt lat="22.912221" lon="110.910969">
        <ele>131.037337</ele>
        <time>2026-08-18T04:34:33.000Z</time>
      </trkpt>
      <trkpt lat="22.912227" lon="110.911014">
        <ele>131.102487</ele>
        <time>2026-08-18T04:34:34.000Z</time>
      </trkpt>
      <trkpt lat="22.912233" lon="110.911060">
        <ele>131.169055</ele>
        <time>2026-08-18T04:34:35.000Z</time>
      </trkpt>
      <trkpt lat="22.912239" lon="110.911106">
        <ele>131.235623</ele>
        <time>2026-08-18T04:34:36.000Z</time>
      </trkpt>
      <trkpt lat="22.912244" lon="110.911153">
        <ele>131.303414</ele>
        <time>2026-08-18T04:34:37.000Z</time>
      </trkpt>
      <trkpt lat="22.912249" lon="110.911198">
        <ele>131.368359</ele>
        <time>2026-08-18T04:34:38.000Z</time>
      </trkpt>
      <trkpt lat="22.912256" lon="110.911242">
        <ele>131.432337</ele>
        <time>2026-08-18T04:34:39.000Z</time>
      </trkpt>
      <trkpt lat="22.912261" lon="110.911286">
        <ele>131.495860</ele>
        <time>2026-08-18T04:34:40.000Z</time>
      </trkpt>
      <trkpt lat="22.912265" lon="110.911330">
        <ele>131.559211</ele>
        <time>2026-08-18T04:34:41.000Z</time>
      </trkpt>
      <trkpt lat="22.912269" lon="110.911374">
        <ele>131.627696</ele>
        <time>2026-08-18T04:34:42.000Z</time>
      </trkpt>
      <trkpt lat="22.912272" lon="110.911418">
        <ele>131.714151</ele>
        <time>2026-08-18T04:34:43.000Z</time>
      </trkpt>
      <trkpt lat="22.912277" lon="110.911461">
        <ele>131.799078</ele>
        <time>2026-08-18T04:34:44.000Z</time>
      </trkpt>
      <trkpt lat="22.912283" lon="110.911505">
        <ele>131.886236</ele>
        <time>2026-08-18T04:34:45.000Z</time>
      </trkpt>
      <trkpt lat="22.912289" lon="110.911549">
        <ele>131.973394</ele>
        <time>2026-08-18T04:34:46.000Z</time>
      </trkpt>
      <trkpt lat="22.912293" lon="110.911592">
        <ele>132.058081</ele>
        <time>2026-08-18T04:34:47.000Z</time>
      </trkpt>
      <trkpt lat="22.912299" lon="110.911634">
        <ele>132.141365</ele>
        <time>2026-08-18T04:34:48.000Z</time>
      </trkpt>
      <trkpt lat="22.912302" lon="110.911676">
        <ele>132.223911</ele>
        <time>2026-08-18T04:34:49.000Z</time>
      </trkpt>
      <trkpt lat="22.912305" lon="110.911719">
        <ele>132.308411</ele>
        <time>2026-08-18T04:34:50.000Z</time>
      </trkpt>
      <trkpt lat="22.912309" lon="110.911764">
        <ele>132.396999</ele>
        <time>2026-08-18T04:34:51.000Z</time>
      </trkpt>
      <trkpt lat="22.912311" lon="110.911807">
        <ele>132.481365</ele>
        <time>2026-08-18T04:34:52.000Z</time>
      </trkpt>
      <trkpt lat="22.912314" lon="110.911851">
        <ele>132.567819</ele>
        <time>2026-08-18T04:34:53.000Z</time>
      </trkpt>
      <trkpt lat="22.912319" lon="110.911895">
        <ele>132.654691</ele>
        <time>2026-08-18T04:34:54.000Z</time>
      </trkpt>
      <trkpt lat="22.912324" lon="110.911937">
        <ele>132.737674</ele>
        <time>2026-08-18T04:34:55.000Z</time>
      </trkpt>
      <trkpt lat="22.912330" lon="110.911981">
        <ele>132.824832</ele>
        <time>2026-08-18T04:34:56.000Z</time>
      </trkpt>
      <trkpt lat="22.912334" lon="110.912024">
        <ele>132.909520</ele>
        <time>2026-08-18T04:34:57.000Z</time>
      </trkpt>
      <trkpt lat="22.912338" lon="110.912068">
        <ele>132.996157</ele>
        <time>2026-08-18T04:34:58.000Z</time>
      </trkpt>
      <trkpt lat="22.912341" lon="110.912112">
        <ele>133.082611</ele>
        <time>2026-08-18T04:34:59.000Z</time>
      </trkpt>
      <trkpt lat="22.912344" lon="110.912156">
        <ele>133.169065</ele>
        <time>2026-08-18T04:35:00.000Z</time>
      </trkpt>
      <trkpt lat="22.912349" lon="110.912199">
        <ele>133.253993</ele>
        <time>2026-08-18T04:35:01.000Z</time>
      </trkpt>
      <trkpt lat="22.912353" lon="110.912243">
        <ele>133.340630</ele>
        <time>2026-08-18T04:35:02.000Z</time>
      </trkpt>
      <trkpt lat="22.912358" lon="110.912287">
        <ele>133.427502</ele>
        <time>2026-08-18T04:35:03.000Z</time>
      </trkpt>
      <trkpt lat="22.912362" lon="110.912331">
        <ele>133.514139</ele>
        <time>2026-08-18T04:35:04.000Z</time>
      </trkpt>
      <trkpt lat="22.912366" lon="110.912375">
        <ele>133.600776</ele>
        <time>2026-08-18T04:35:05.000Z</time>
      </trkpt>
      <trkpt lat="22.912369" lon="110.912419">
        <ele>133.687230</ele>
        <time>2026-08-18T04:35:06.000Z</time>
      </trkpt>
      <trkpt lat="22.912372" lon="110.912462">
        <ele>133.771730</ele>
        <time>2026-08-18T04:35:07.000Z</time>
      </trkpt>
      <trkpt lat="22.912376" lon="110.912506">
        <ele>133.858367</ele>
        <time>2026-08-18T04:35:08.000Z</time>
      </trkpt>
      <trkpt lat="22.912382" lon="110.912548">
        <ele>133.941650</ele>
        <time>2026-08-18T04:35:09.000Z</time>
      </trkpt>
      <trkpt lat="22.912386" lon="110.912592">
        <ele>134.028287</ele>
        <time>2026-08-18T04:35:10.000Z</time>
      </trkpt>
      <trkpt lat="22.912389" lon="110.912635">
        <ele>134.112787</ele>
        <time>2026-08-18T04:35:11.000Z</time>
      </trkpt>
      <trkpt lat="22.912392" lon="110.912678">
        <ele>134.197288</ele>
        <time>2026-08-18T04:35:12.000Z</time>
      </trkpt>
      <trkpt lat="22.912396" lon="110.912721">
        <ele>134.281975</ele>
        <time>2026-08-18T04:35:13.000Z</time>
      </trkpt>
      <trkpt lat="22.912401" lon="110.912764">
        <ele>134.366902</ele>
        <time>2026-08-18T04:35:14.000Z</time>
      </trkpt>
      <trkpt lat="22.912406" lon="110.912808">
        <ele>134.453774</ele>
        <time>2026-08-18T04:35:15.000Z</time>
      </trkpt>
      <trkpt lat="22.912411" lon="110.912851">
        <ele>134.538702</ele>
        <time>2026-08-18T04:35:16.000Z</time>
      </trkpt>
      <trkpt lat="22.912416" lon="110.912892">
        <ele>134.619742</ele>
        <time>2026-08-18T04:35:17.000Z</time>
      </trkpt>
      <trkpt lat="22.912421" lon="110.912933">
        <ele>134.700783</ele>
        <time>2026-08-18T04:35:18.000Z</time>
      </trkpt>
      <trkpt lat="22.912424" lon="110.912973">
        <ele>134.779423</ele>
        <time>2026-08-18T04:35:19.000Z</time>
      </trkpt>
      <trkpt lat="22.912427" lon="110.913014">
        <ele>134.860015</ele>
        <time>2026-08-18T04:35:20.000Z</time>
      </trkpt>
      <trkpt lat="22.912432" lon="110.913055">
        <ele>134.941056</ele>
        <time>2026-08-18T04:35:21.000Z</time>
      </trkpt>
      <trkpt lat="22.912435" lon="110.913096">
        <ele>135.021649</ele>
        <time>2026-08-18T04:35:22.000Z</time>
      </trkpt>
      <trkpt lat="22.912438" lon="110.913135">
        <ele>135.098336</ele>
        <time>2026-08-18T04:35:23.000Z</time>
      </trkpt>
      <trkpt lat="22.912441" lon="110.913174">
        <ele>135.175022</ele>
        <time>2026-08-18T04:35:24.000Z</time>
      </trkpt>
      <trkpt lat="22.912444" lon="110.913212">
        <ele>135.249756</ele>
        <time>2026-08-18T04:35:25.000Z</time>
      </trkpt>
      <trkpt lat="22.912446" lon="110.913247">
        <ele>135.318471</ele>
        <time>2026-08-18T04:35:26.000Z</time>
      </trkpt>
      <trkpt lat="22.912448" lon="110.913280">
        <ele>135.383274</ele>
        <time>2026-08-18T04:35:27.000Z</time>
      </trkpt>
      <trkpt lat="22.912450" lon="110.913312">
        <ele>135.457301</ele>
        <time>2026-08-18T04:35:28.000Z</time>
      </trkpt>
      <trkpt lat="22.912453" lon="110.913345">
        <ele>135.587213</ele>
        <time>2026-08-18T04:35:29.000Z</time>
      </trkpt>
      <trkpt lat="22.912456" lon="110.913378">
        <ele>135.717125</ele>
        <time>2026-08-18T04:35:30.000Z</time>
      </trkpt>
      <trkpt lat="22.912457" lon="110.913414">
        <ele>135.858226</ele>
        <time>2026-08-18T04:35:31.000Z</time>
      </trkpt>
      <trkpt lat="22.912457" lon="110.913450">
        <ele>135.999263</ele>
        <time>2026-08-18T04:35:32.000Z</time>
      </trkpt>
      <trkpt lat="22.912457" lon="110.913485">
        <ele>136.136383</ele>
        <time>2026-08-18T04:35:33.000Z</time>
      </trkpt>
      <trkpt lat="22.912458" lon="110.913519">
        <ele>136.269652</ele>
        <time>2026-08-18T04:35:34.000Z</time>
      </trkpt>
      <trkpt lat="22.912461" lon="110.913551">
        <ele>136.395666</ele>
        <time>2026-08-18T04:35:35.000Z</time>
      </trkpt>
      <trkpt lat="22.912466" lon="110.913583">
        <ele>136.522823</ele>
        <time>2026-08-18T04:35:36.000Z</time>
      </trkpt>
      <trkpt lat="22.912468" lon="110.913612">
        <ele>136.636754</ele>
        <time>2026-08-18T04:35:37.000Z</time>
      </trkpt>
      <trkpt lat="22.912471" lon="110.913641">
        <ele>136.751081</ele>
        <time>2026-08-18T04:35:38.000Z</time>
      </trkpt>
      <trkpt lat="22.912473" lon="110.913671">
        <ele>136.868920</ele>
        <time>2026-08-18T04:35:39.000Z</time>
      </trkpt>
      <trkpt lat="22.912473" lon="110.913700">
        <ele>136.982533</ele>
        <time>2026-08-18T04:35:40.000Z</time>
      </trkpt>
      <trkpt lat="22.912470" lon="110.913726">
        <ele>137.085189</ele>
        <time>2026-08-18T04:35:41.000Z</time>
      </trkpt>
      <trkpt lat="22.912470" lon="110.913754">
        <ele>137.194884</ele>
        <time>2026-08-18T04:35:42.000Z</time>
      </trkpt>
      <trkpt lat="22.912469" lon="110.913779">
        <ele>137.292919</ele>
        <time>2026-08-18T04:35:43.000Z</time>
      </trkpt>
      <trkpt lat="22.912468" lon="110.913803">
        <ele>137.387040</ele>
        <time>2026-08-18T04:35:44.000Z</time>
      </trkpt>
      <trkpt lat="22.912467" lon="110.913827">
        <ele>137.481160</ele>
        <time>2026-08-18T04:35:45.000Z</time>
      </trkpt>
      <trkpt lat="22.912468" lon="110.913852">
        <ele>137.579195</ele>
        <time>2026-08-18T04:35:46.000Z</time>
      </trkpt>
      <trkpt lat="22.912468" lon="110.913877">
        <ele>137.677137</ele>
        <time>2026-08-18T04:35:47.000Z</time>
      </trkpt>
      <trkpt lat="22.912466" lon="110.913905">
        <ele>137.787162</ele>
        <time>2026-08-18T04:35:48.000Z</time>
      </trkpt>
      <trkpt lat="22.912467" lon="110.913933">
        <ele>137.896940</ele>
        <time>2026-08-18T04:35:49.000Z</time>
      </trkpt>
      <trkpt lat="22.912468" lon="110.913958">
        <ele>137.994974</ele>
        <time>2026-08-18T04:35:50.000Z</time>
      </trkpt>
      <trkpt lat="22.912466" lon="110.913983">
        <ele>138.093285</ele>
        <time>2026-08-18T04:35:51.000Z</time>
      </trkpt>
      <trkpt lat="22.912467" lon="110.914008">
        <ele>138.191320</ele>
        <time>2026-08-18T04:35:52.000Z</time>
      </trkpt>
      <trkpt lat="22.912468" lon="110.914036">
        <ele>138.301098</ele>
        <time>2026-08-18T04:35:53.000Z</time>
      </trkpt>
      <trkpt lat="22.912469" lon="110.914065">
        <ele>138.414790</ele>
        <time>2026-08-18T04:35:54.000Z</time>
      </trkpt>
      <trkpt lat="22.912473" lon="110.914092">
        <ele>138.521928</ele>
        <time>2026-08-18T04:35:55.000Z</time>
      </trkpt>
      <trkpt lat="22.912477" lon="110.914120">
        <ele>138.632934</ele>
        <time>2026-08-18T04:35:56.000Z</time>
      </trkpt>
      <trkpt lat="22.912480" lon="110.914146">
        <ele>138.735591</ele>
        <time>2026-08-18T04:35:57.000Z</time>
      </trkpt>
      <trkpt lat="22.912484" lon="110.914176">
        <ele>138.854346</ele>
        <time>2026-08-18T04:35:58.000Z</time>
      </trkpt>
      <trkpt lat="22.912485" lon="110.914205">
        <ele>138.968039</ele>
        <time>2026-08-18T04:35:59.000Z</time>
      </trkpt>
      <trkpt lat="22.912488" lon="110.914233">
        <ele>139.078474</ele>
        <time>2026-08-18T04:36:00.000Z</time>
      </trkpt>
      <trkpt lat="22.912493" lon="110.914261">
        <ele>139.190212</ele>
        <time>2026-08-18T04:36:01.000Z</time>
      </trkpt>
      <trkpt lat="22.912499" lon="110.914285">
        <ele>139.287638</ele>
        <time>2026-08-18T04:36:02.000Z</time>
      </trkpt>
      <trkpt lat="22.912502" lon="110.914312">
        <ele>139.394182</ele>
        <time>2026-08-18T04:36:03.000Z</time>
      </trkpt>
      <trkpt lat="22.912503" lon="110.914340">
        <ele>139.503960</ele>
        <time>2026-08-18T04:36:04.000Z</time>
      </trkpt>
      <trkpt lat="22.912504" lon="110.914368">
        <ele>139.613738</ele>
        <time>2026-08-18T04:36:05.000Z</time>
      </trkpt>
      <trkpt lat="22.912505" lon="110.914397">
        <ele>139.727431</ele>
        <time>2026-08-18T04:36:06.000Z</time>
      </trkpt>
      <trkpt lat="22.912506" lon="110.914427">
        <ele>139.845038</ele>
        <time>2026-08-18T04:36:07.000Z</time>
      </trkpt>
      <trkpt lat="22.912506" lon="110.914455">
        <ele>139.954734</ele>
        <time>2026-08-18T04:36:08.000Z</time>
      </trkpt>
      <trkpt lat="22.912508" lon="110.914482">
        <ele>140.060853</ele>
        <time>2026-08-18T04:36:09.000Z</time>
      </trkpt>
      <trkpt lat="22.912510" lon="110.914511">
        <ele>140.174784</ele>
        <time>2026-08-18T04:36:10.000Z</time>
      </trkpt>
      <trkpt lat="22.912512" lon="110.914536">
        <ele>140.273095</ele>
        <time>2026-08-18T04:36:11.000Z</time>
      </trkpt>
      <trkpt lat="22.912513" lon="110.914560">
        <ele>140.367216</ele>
        <time>2026-08-18T04:36:12.000Z</time>
      </trkpt>
      <trkpt lat="22.912516" lon="110.914583">
        <ele>140.458221</ele>
        <time>2026-08-18T04:36:13.000Z</time>
      </trkpt>
      <trkpt lat="22.912520" lon="110.914607">
        <ele>140.553773</ele>
        <time>2026-08-18T04:36:14.000Z</time>
      </trkpt>
      <trkpt lat="22.912521" lon="110.914631">
        <ele>140.647894</ele>
        <time>2026-08-18T04:36:15.000Z</time>
      </trkpt>
      <trkpt lat="22.912522" lon="110.914655">
        <ele>140.742014</ele>
        <time>2026-08-18T04:36:16.000Z</time>
      </trkpt>
      <trkpt lat="22.912525" lon="110.914679">
        <ele>140.836901</ele>
        <time>2026-08-18T04:36:17.000Z</time>
      </trkpt>
      <trkpt lat="22.912527" lon="110.914702">
        <ele>140.927408</ele>
        <time>2026-08-18T04:36:18.000Z</time>
      </trkpt>
      <trkpt lat="22.912529" lon="110.914727">
        <ele>141.025719</ele>
        <time>2026-08-18T04:36:19.000Z</time>
      </trkpt>
      <trkpt lat="22.912530" lon="110.914754">
        <ele>141.131582</ele>
        <time>2026-08-18T04:36:20.000Z</time>
      </trkpt>
      <trkpt lat="22.912531" lon="110.914782">
        <ele>141.241360</ele>
        <time>2026-08-18T04:36:21.000Z</time>
      </trkpt>
      <trkpt lat="22.912531" lon="110.914811">
        <ele>141.354973</ele>
        <time>2026-08-18T04:36:22.000Z</time>
      </trkpt>
      <trkpt lat="22.912531" lon="110.914840">
        <ele>141.468586</ele>
        <time>2026-08-18T04:36:23.000Z</time>
      </trkpt>
      <trkpt lat="22.912531" lon="110.914867">
        <ele>141.574364</ele>
        <time>2026-08-18T04:36:24.000Z</time>
      </trkpt>
      <trkpt lat="22.912531" lon="110.914896">
        <ele>141.687977</ele>
        <time>2026-08-18T04:36:25.000Z</time>
      </trkpt>
      <trkpt lat="22.912534" lon="110.914924">
        <ele>141.798412</ele>
        <time>2026-08-18T04:36:26.000Z</time>
      </trkpt>
      <trkpt lat="22.912535" lon="110.914951">
        <ele>141.904275</ele>
        <time>2026-08-18T04:36:27.000Z</time>
      </trkpt>
      <trkpt lat="22.912535" lon="110.914976">
        <ele>142.002217</ele>
        <time>2026-08-18T04:36:28.000Z</time>
      </trkpt>
      <trkpt lat="22.912536" lon="110.915002">
        <ele>142.104166</ele>
        <time>2026-08-18T04:36:29.000Z</time>
      </trkpt>
      <trkpt lat="22.912538" lon="110.915029">
        <ele>142.210285</ele>
        <time>2026-08-18T04:36:30.000Z</time>
      </trkpt>
      <trkpt lat="22.912538" lon="110.915054">
        <ele>142.308227</ele>
        <time>2026-08-18T04:36:31.000Z</time>
      </trkpt>
      <trkpt lat="22.912535" lon="110.915079">
        <ele>142.406997</ele>
        <time>2026-08-18T04:36:32.000Z</time>
      </trkpt>
      <trkpt lat="22.912535" lon="110.915104">
        <ele>142.504939</ele>
        <time>2026-08-18T04:36:33.000Z</time>
      </trkpt>
      <trkpt lat="22.912537" lon="110.915131">
        <ele>142.611059</ele>
        <time>2026-08-18T04:36:34.000Z</time>
      </trkpt>
      <trkpt lat="22.912538" lon="110.915162">
        <ele>142.732581</ele>
        <time>2026-08-18T04:36:35.000Z</time>
      </trkpt>
      <trkpt lat="22.912536" lon="110.915187">
        <ele>142.830892</ele>
        <time>2026-08-18T04:36:36.000Z</time>
      </trkpt>
      <trkpt lat="22.912534" lon="110.915211">
        <ele>142.925301</ele>
        <time>2026-08-18T04:36:37.000Z</time>
      </trkpt>
      <trkpt lat="22.912535" lon="110.915237">
        <ele>143.027250</ele>
        <time>2026-08-18T04:36:38.000Z</time>
      </trkpt>
      <trkpt lat="22.912536" lon="110.915265">
        <ele>143.138906</ele>
        <time>2026-08-18T04:36:39.000Z</time>
      </trkpt>
      <trkpt lat="22.912534" lon="110.915293">
        <ele>143.252907</ele>
        <time>2026-08-18T04:36:40.000Z</time>
      </trkpt>
      <trkpt lat="22.912531" lon="110.915322">
        <ele>143.371367</ele>
        <time>2026-08-18T04:36:41.000Z</time>
      </trkpt>
      <trkpt lat="22.912529" lon="110.915352">
        <ele>143.493464</ele>
        <time>2026-08-18T04:36:42.000Z</time>
      </trkpt>
      <trkpt lat="22.912527" lon="110.915382">
        <ele>143.615562</ele>
        <time>2026-08-18T04:36:43.000Z</time>
      </trkpt>
      <trkpt lat="22.912526" lon="110.915411">
        <ele>143.733363</ele>
        <time>2026-08-18T04:36:44.000Z</time>
      </trkpt>
      <trkpt lat="22.912523" lon="110.915438">
        <ele>143.843759</ele>
        <time>2026-08-18T04:36:45.000Z</time>
      </trkpt>
      <trkpt lat="22.912521" lon="110.915465">
        <ele>143.953714</ele>
        <time>2026-08-18T04:36:46.000Z</time>
      </trkpt>
      <trkpt lat="22.912519" lon="110.915492">
        <ele>144.063668</ele>
        <time>2026-08-18T04:36:47.000Z</time>
      </trkpt>
      <trkpt lat="22.912518" lon="110.915519">
        <ele>144.173358</ele>
        <time>2026-08-18T04:36:48.000Z</time>
      </trkpt>
      <trkpt lat="22.912518" lon="110.915548">
        <ele>144.291077</ele>
        <time>2026-08-18T04:36:49.000Z</time>
      </trkpt>
      <trkpt lat="22.912517" lon="110.915575">
        <ele>144.400767</ele>
        <time>2026-08-18T04:36:50.000Z</time>
      </trkpt>
      <trkpt lat="22.912517" lon="110.915604">
        <ele>144.518486</ele>
        <time>2026-08-18T04:36:51.000Z</time>
      </trkpt>
      <trkpt lat="22.912516" lon="110.915634">
        <ele>144.640345</ele>
        <time>2026-08-18T04:36:52.000Z</time>
      </trkpt>
      <trkpt lat="22.912515" lon="110.915663">
        <ele>144.758147</ele>
        <time>2026-08-18T04:36:53.000Z</time>
      </trkpt>
      <trkpt lat="22.912514" lon="110.915692">
        <ele>144.875949</ele>
        <time>2026-08-18T04:36:54.000Z</time>
      </trkpt>
      <trkpt lat="22.912512" lon="110.915721">
        <ele>144.993998</ele>
        <time>2026-08-18T04:36:55.000Z</time>
      </trkpt>
      <trkpt lat="22.912512" lon="110.915750">
        <ele>145.111717</ele>
        <time>2026-08-18T04:36:56.000Z</time>
      </trkpt>
      <trkpt lat="22.912511" lon="110.915779">
        <ele>145.229519</ele>
        <time>2026-08-18T04:36:57.000Z</time>
      </trkpt>
      <trkpt lat="22.912512" lon="110.915808">
        <ele>145.347321</ele>
        <time>2026-08-18T04:36:58.000Z</time>
      </trkpt>
      <trkpt lat="22.912512" lon="110.915834">
        <ele>145.452863</ele>
        <time>2026-08-18T04:36:59.000Z</time>
      </trkpt>
      <trkpt lat="22.912512" lon="110.915860">
        <ele>145.558404</ele>
        <time>2026-08-18T04:37:00.000Z</time>
      </trkpt>
      <trkpt lat="22.912513" lon="110.915888">
        <ele>145.672150</ele>
        <time>2026-08-18T04:37:01.000Z</time>
      </trkpt>
      <trkpt lat="22.912506" lon="110.915910">
        <ele>145.766632</ele>
        <time>2026-08-18T04:37:02.000Z</time>
      </trkpt>
      <trkpt lat="22.912501" lon="110.915936">
        <ele>145.874450</ele>
        <time>2026-08-18T04:37:03.000Z</time>
      </trkpt>
      <trkpt lat="22.912498" lon="110.915957">
        <ele>145.960714</ele>
        <time>2026-08-18T04:37:04.000Z</time>
      </trkpt>
      <trkpt lat="22.912498" lon="110.915983">
        <ele>146.066256</ele>
        <time>2026-08-18T04:37:05.000Z</time>
      </trkpt>
      <trkpt lat="22.912496" lon="110.916008">
        <ele>146.168120</ele>
        <time>2026-08-18T04:37:06.000Z</time>
      </trkpt>
      <trkpt lat="22.912495" lon="110.916034">
        <ele>146.273754</ele>
        <time>2026-08-18T04:37:07.000Z</time>
      </trkpt>
      <trkpt lat="22.912496" lon="110.916063">
        <ele>146.391555</ele>
        <time>2026-08-18T04:37:08.000Z</time>
      </trkpt>
      <trkpt lat="22.912494" lon="110.916090">
        <ele>146.501510</ele>
        <time>2026-08-18T04:37:09.000Z</time>
      </trkpt>
      <trkpt lat="22.912495" lon="110.916119">
        <ele>146.619312</ele>
        <time>2026-08-18T04:37:10.000Z</time>
      </trkpt>
      <trkpt lat="22.912494" lon="110.916146">
        <ele>146.729002</ele>
        <time>2026-08-18T04:37:11.000Z</time>
      </trkpt>
      <trkpt lat="22.912494" lon="110.916177">
        <ele>146.854840</ele>
        <time>2026-08-18T04:37:12.000Z</time>
      </trkpt>
      <trkpt lat="22.912495" lon="110.916207">
        <ele>146.976698</ele>
        <time>2026-08-18T04:37:13.000Z</time>
      </trkpt>
      <trkpt lat="22.912497" lon="110.916240">
        <ele>147.110945</ele>
        <time>2026-08-18T04:37:14.000Z</time>
      </trkpt>
      <trkpt lat="22.912498" lon="110.916270">
        <ele>147.232803</ele>
        <time>2026-08-18T04:37:15.000Z</time>
      </trkpt>
      <trkpt lat="22.912497" lon="110.916299">
        <ele>147.350605</ele>
        <time>2026-08-18T04:37:16.000Z</time>
      </trkpt>
      <trkpt lat="22.912494" lon="110.916316">
        <ele>147.420868</ele>
        <time>2026-08-18T04:37:17.000Z</time>
      </trkpt>
      <trkpt lat="22.912493" lon="110.916340">
        <ele>147.518391</ele>
        <time>2026-08-18T04:37:18.000Z</time>
      </trkpt>
      <trkpt lat="22.912491" lon="110.916367">
        <ele>147.628346</ele>
        <time>2026-08-18T04:37:19.000Z</time>
      </trkpt>
      <trkpt lat="22.912490" lon="110.916396">
        <ele>147.746147</ele>
        <time>2026-08-18T04:37:20.000Z</time>
      </trkpt>
      <trkpt lat="22.912487" lon="110.916422">
        <ele>147.852514</ele>
        <time>2026-08-18T04:37:21.000Z</time>
      </trkpt>
      <trkpt lat="22.912484" lon="110.916454">
        <ele>147.983082</ele>
        <time>2026-08-18T04:37:22.000Z</time>
      </trkpt>
      <trkpt lat="22.912484" lon="110.916485">
        <ele>148.108921</ele>
        <time>2026-08-18T04:37:23.000Z</time>
      </trkpt>
      <trkpt lat="22.912485" lon="110.916517">
        <ele>148.238893</ele>
        <time>2026-08-18T04:37:24.000Z</time>
      </trkpt>
      <trkpt lat="22.912484" lon="110.916548">
        <ele>148.364808</ele>
        <time>2026-08-18T04:37:25.000Z</time>
      </trkpt>
      <trkpt lat="22.912484" lon="110.916577">
        <ele>148.482527</ele>
        <time>2026-08-18T04:37:26.000Z</time>
      </trkpt>
      <trkpt lat="22.912484" lon="110.916607">
        <ele>148.604306</ele>
        <time>2026-08-18T04:37:27.000Z</time>
      </trkpt>
      <trkpt lat="22.912483" lon="110.916636">
        <ele>148.722108</ele>
        <time>2026-08-18T04:37:28.000Z</time>
      </trkpt>
      <trkpt lat="22.912482" lon="110.916663">
        <ele>148.831798</ele>
        <time>2026-08-18T04:37:29.000Z</time>
      </trkpt>
      <trkpt lat="22.912481" lon="110.916690">
        <ele>148.941487</ele>
        <time>2026-08-18T04:37:30.000Z</time>
      </trkpt>
      <trkpt lat="22.912479" lon="110.916718">
        <ele>149.055489</ele>
        <time>2026-08-18T04:37:31.000Z</time>
      </trkpt>
      <trkpt lat="22.912477" lon="110.916747">
        <ele>149.173538</ele>
        <time>2026-08-18T04:37:32.000Z</time>
      </trkpt>
      <trkpt lat="22.912472" lon="110.916776">
        <ele>149.293302</ele>
        <time>2026-08-18T04:37:33.000Z</time>
      </trkpt>
      <trkpt lat="22.912469" lon="110.916806">
        <ele>149.415796</ele>
        <time>2026-08-18T04:37:34.000Z</time>
      </trkpt>
      <trkpt lat="22.912469" lon="110.916836">
        <ele>149.537575</ele>
        <time>2026-08-18T04:37:35.000Z</time>
      </trkpt>
      <trkpt lat="22.912468" lon="110.916865">
        <ele>149.655377</ele>
        <time>2026-08-18T04:37:36.000Z</time>
      </trkpt>
      <trkpt lat="22.912467" lon="110.916892">
        <ele>149.765066</ele>
        <time>2026-08-18T04:37:37.000Z</time>
      </trkpt>
      <trkpt lat="22.912466" lon="110.916920">
        <ele>149.878812</ele>
        <time>2026-08-18T04:37:38.000Z</time>
      </trkpt>
      <trkpt lat="22.912465" lon="110.916947">
        <ele>149.988502</ele>
        <time>2026-08-18T04:37:39.000Z</time>
      </trkpt>
      <trkpt lat="22.912463" lon="110.916974">
        <ele>150.098456</ele>
        <time>2026-08-18T04:37:40.000Z</time>
      </trkpt>
      <trkpt lat="22.912459" lon="110.916999">
        <ele>150.201458</ele>
        <time>2026-08-18T04:37:41.000Z</time>
      </trkpt>
      <trkpt lat="22.912455" lon="110.917025">
        <ele>150.308462</ele>
        <time>2026-08-18T04:37:42.000Z</time>
      </trkpt>
      <trkpt lat="22.912451" lon="110.917051">
        <ele>150.415466</ele>
        <time>2026-08-18T04:37:43.000Z</time>
      </trkpt>
      <trkpt lat="22.912445" lon="110.917076">
        <ele>150.520336</ele>
        <time>2026-08-18T04:37:44.000Z</time>
      </trkpt>
      <trkpt lat="22.912442" lon="110.917106">
        <ele>150.642831</ele>
        <time>2026-08-18T04:37:45.000Z</time>
      </trkpt>
      <trkpt lat="22.912440" lon="110.917137">
        <ele>150.768977</ele>
        <time>2026-08-18T04:37:46.000Z</time>
      </trkpt>
      <trkpt lat="22.912438" lon="110.917169">
        <ele>150.899173</ele>
        <time>2026-08-18T04:37:47.000Z</time>
      </trkpt>
      <trkpt lat="22.912437" lon="110.917201">
        <ele>151.014518</ele>
        <time>2026-08-18T04:37:48.000Z</time>
      </trkpt>
      <trkpt lat="22.912435" lon="110.917232">
        <ele>151.035001</ele>
        <time>2026-08-18T04:37:49.000Z</time>
      </trkpt>
      <trkpt lat="22.912433" lon="110.917263">
        <ele>151.055484</ele>
        <time>2026-08-18T04:37:50.000Z</time>
      </trkpt>
      <trkpt lat="22.912434" lon="110.917295">
        <ele>151.076588</ele>
        <time>2026-08-18T04:37:51.000Z</time>
      </trkpt>
      <trkpt lat="22.912435" lon="110.917328">
        <ele>151.098350</ele>
        <time>2026-08-18T04:37:52.000Z</time>
      </trkpt>
      <trkpt lat="22.912436" lon="110.917361">
        <ele>151.120113</ele>
        <time>2026-08-18T04:37:53.000Z</time>
      </trkpt>
      <trkpt lat="22.912435" lon="110.917392">
        <ele>151.140558</ele>
        <time>2026-08-18T04:37:54.000Z</time>
      </trkpt>
      <trkpt lat="22.912434" lon="110.917424">
        <ele>151.161662</ele>
        <time>2026-08-18T04:37:55.000Z</time>
      </trkpt>
      <trkpt lat="22.912430" lon="110.917454">
        <ele>151.181641</ele>
        <time>2026-08-18T04:37:56.000Z</time>
      </trkpt>
      <trkpt lat="22.912426" lon="110.917484">
        <ele>151.201621</ele>
        <time>2026-08-18T04:37:57.000Z</time>
      </trkpt>
      <trkpt lat="22.912423" lon="110.917516">
        <ele>151.222822</ele>
        <time>2026-08-18T04:37:58.000Z</time>
      </trkpt>
      <trkpt lat="22.912422" lon="110.917546">
        <ele>151.242608</ele>
        <time>2026-08-18T04:37:59.000Z</time>
      </trkpt>
      <trkpt lat="22.912419" lon="110.917575">
        <ele>151.261843</ele>
        <time>2026-08-18T04:38:00.000Z</time>
      </trkpt>
      <trkpt lat="22.912418" lon="110.917604">
        <ele>151.280970</ele>
        <time>2026-08-18T04:38:01.000Z</time>
      </trkpt>
      <trkpt lat="22.912414" lon="110.917631">
        <ele>151.298995</ele>
        <time>2026-08-18T04:38:02.000Z</time>
      </trkpt>
      <trkpt lat="22.912411" lon="110.917658">
        <ele>151.316920</ele>
        <time>2026-08-18T04:38:03.000Z</time>
      </trkpt>
      <trkpt lat="22.912407" lon="110.917682">
        <ele>151.332996</ele>
        <time>2026-08-18T04:38:04.000Z</time>
      </trkpt>
      <trkpt lat="22.912403" lon="110.917707">
        <ele>151.349721</ele>
        <time>2026-08-18T04:38:05.000Z</time>
      </trkpt>
      <trkpt lat="22.912399" lon="110.917730">
        <ele>151.365148</ele>
        <time>2026-08-18T04:38:06.000Z</time>
      </trkpt>
      <trkpt lat="22.912392" lon="110.917753">
        <ele>151.381114</ele>
        <time>2026-08-18T04:38:07.000Z</time>
      </trkpt>
      <trkpt lat="22.912387" lon="110.917774">
        <ele>151.395410</ele>
        <time>2026-08-18T04:38:08.000Z</time>
      </trkpt>
      <trkpt lat="22.912381" lon="110.917793">
        <ele>151.408649</ele>
        <time>2026-08-18T04:38:09.000Z</time>
      </trkpt>
      <trkpt lat="22.912376" lon="110.917811">
        <ele>151.421041</ele>
        <time>2026-08-18T04:38:10.000Z</time>
      </trkpt>
      <trkpt lat="22.912374" lon="110.917826">
        <ele>151.431031</ele>
        <time>2026-08-18T04:38:11.000Z</time>
      </trkpt>
      <trkpt lat="22.912360" lon="110.917855">
        <ele>151.452611</ele>
        <time>2026-08-18T04:40:39.000Z</time>
      </trkpt>
      <trkpt lat="22.912346" lon="110.917848">
        <ele>151.463641</ele>
        <time>2026-08-18T04:40:40.000Z</time>
      </trkpt>
      <trkpt lat="22.912333" lon="110.917841">
        <ele>151.474024</ele>
        <time>2026-08-18T04:40:41.000Z</time>
      </trkpt>
      <trkpt lat="22.912325" lon="110.917845">
        <ele>151.480327</ele>
        <time>2026-08-18T04:40:42.000Z</time>
      </trkpt>
      <trkpt lat="22.912317" lon="110.917850">
        <ele>151.486932</ele>
        <time>2026-08-18T04:40:43.000Z</time>
      </trkpt>
      <trkpt lat="22.912448" lon="110.917909">
        <ele>151.588419</ele>
        <time>2026-08-18T04:41:40.000Z</time>
      </trkpt>
      <trkpt lat="22.912459" lon="110.917918">
        <ele>151.598275</ele>
        <time>2026-08-18T04:41:41.000Z</time>
      </trkpt>
      <trkpt lat="22.912470" lon="110.917929">
        <ele>151.608977</ele>
        <time>2026-08-18T04:41:42.000Z</time>
      </trkpt>
      <trkpt lat="22.912474" lon="110.917947">
        <ele>151.621181</ele>
        <time>2026-08-18T04:41:43.000Z</time>
      </trkpt>
      <trkpt lat="22.912476" lon="110.917969">
        <ele>151.635752</ele>
        <time>2026-08-18T04:41:44.000Z</time>
      </trkpt>
      <trkpt lat="22.912477" lon="110.917993">
        <ele>151.651587</ele>
        <time>2026-08-18T04:41:45.000Z</time>
      </trkpt>
      <trkpt lat="22.912478" lon="110.918018">
        <ele>151.668081</ele>
        <time>2026-08-18T04:41:46.000Z</time>
      </trkpt>
      <trkpt lat="22.912477" lon="110.918040">
        <ele>151.682599</ele>
        <time>2026-08-18T04:41:47.000Z</time>
      </trkpt>
      <trkpt lat="22.912482" lon="110.918064">
        <ele>151.698817</ele>
        <time>2026-08-18T04:41:48.000Z</time>
      </trkpt>
      <trkpt lat="22.912490" lon="110.918082">
        <ele>151.711990</ele>
        <time>2026-08-18T04:41:49.000Z</time>
      </trkpt>
      <trkpt lat="22.912492" lon="110.918105">
        <ele>151.727217</ele>
        <time>2026-08-18T04:41:50.000Z</time>
      </trkpt>
      <trkpt lat="22.912489" lon="110.918128">
        <ele>151.742528</ele>
        <time>2026-08-18T04:41:51.000Z</time>
      </trkpt>
      <trkpt lat="22.912486" lon="110.918153">
        <ele>151.759145</ele>
        <time>2026-08-18T04:41:52.000Z</time>
      </trkpt>
      <trkpt lat="22.912481" lon="110.918180">
        <ele>151.777297</ele>
        <time>2026-08-18T04:41:53.000Z</time>
      </trkpt>
      <trkpt lat="22.912473" lon="110.918204">
        <ele>151.794120</ele>
        <time>2026-08-18T04:41:54.000Z</time>
      </trkpt>
      <trkpt lat="22.912468" lon="110.918230">
        <ele>151.811627</ele>
        <time>2026-08-18T04:41:55.000Z</time>
      </trkpt>
      <trkpt lat="22.912465" lon="110.918255">
        <ele>151.828244</ele>
        <time>2026-08-18T04:41:56.000Z</time>
      </trkpt>
      <trkpt lat="22.912464" lon="110.918282">
        <ele>151.846054</ele>
        <time>2026-08-18T04:41:57.000Z</time>
      </trkpt>
      <trkpt lat="22.912462" lon="110.918307">
        <ele>151.862594</ele>
        <time>2026-08-18T04:41:58.000Z</time>
      </trkpt>
      <trkpt lat="22.912458" lon="110.918332">
        <ele>151.879319</ele>
        <time>2026-08-18T04:41:59.000Z</time>
      </trkpt>
      <trkpt lat="22.912454" lon="110.918359">
        <ele>151.897344</ele>
        <time>2026-08-18T04:42:00.000Z</time>
      </trkpt>
      <trkpt lat="22.912449" lon="110.918384">
        <ele>151.914206</ele>
        <time>2026-08-18T04:42:01.000Z</time>
      </trkpt>
      <trkpt lat="22.912443" lon="110.918410">
        <ele>151.931872</ele>
        <time>2026-08-18T04:42:02.000Z</time>
      </trkpt>
      <trkpt lat="22.912439" lon="110.918439">
        <ele>151.951200</ele>
        <time>2026-08-18T04:42:03.000Z</time>
      </trkpt>
      <trkpt lat="22.912433" lon="110.918466">
        <ele>151.969507</ele>
        <time>2026-08-18T04:42:04.000Z</time>
      </trkpt>
      <trkpt lat="22.912427" lon="110.918494">
        <ele>151.988455</ele>
        <time>2026-08-18T04:42:05.000Z</time>
      </trkpt>
      <trkpt lat="22.912421" lon="110.918526">
        <ele>152.009979</ele>
        <time>2026-08-18T04:42:06.000Z</time>
      </trkpt>
      <trkpt lat="22.912414" lon="110.918556">
        <ele>152.030377</ele>
        <time>2026-08-18T04:42:07.000Z</time>
      </trkpt>
      <trkpt lat="22.912408" lon="110.918588">
        <ele>152.051901</ele>
        <time>2026-08-18T04:42:08.000Z</time>
      </trkpt>
      <trkpt lat="22.912400" lon="110.918621">
        <ele>152.074393</ele>
        <time>2026-08-18T04:42:09.000Z</time>
      </trkpt>
      <trkpt lat="22.912394" lon="110.918654">
        <ele>152.096563</ele>
        <time>2026-08-18T04:42:10.000Z</time>
      </trkpt>
      <trkpt lat="22.912389" lon="110.918690">
        <ele>152.120560</ele>
        <time>2026-08-18T04:42:11.000Z</time>
      </trkpt>
      <trkpt lat="22.912383" lon="110.918727">
        <ele>152.145322</ele>
        <time>2026-08-18T04:42:12.000Z</time>
      </trkpt>
      <trkpt lat="22.912377" lon="110.918767">
        <ele>152.172034</ele>
        <time>2026-08-18T04:42:13.000Z</time>
      </trkpt>
      <trkpt lat="22.912369" lon="110.918808">
        <ele>152.199657</ele>
        <time>2026-08-18T04:42:14.000Z</time>
      </trkpt>
      <trkpt lat="22.912362" lon="110.918850">
        <ele>152.227790</ele>
        <time>2026-08-18T04:42:15.000Z</time>
      </trkpt>
      <trkpt lat="22.912353" lon="110.918894">
        <ele>152.257497</ele>
        <time>2026-08-18T04:42:16.000Z</time>
      </trkpt>
      <trkpt lat="22.912345" lon="110.918940">
        <ele>152.288352</ele>
        <time>2026-08-18T04:42:17.000Z</time>
      </trkpt>
      <trkpt lat="22.912339" lon="110.918988">
        <ele>152.205159</ele>
        <time>2026-08-18T04:42:18.000Z</time>
      </trkpt>
      <trkpt lat="22.912332" lon="110.919034">
        <ele>152.071609</ele>
        <time>2026-08-18T04:42:19.000Z</time>
      </trkpt>
      <trkpt lat="22.912324" lon="110.919081">
        <ele>151.934701</ele>
        <time>2026-08-18T04:42:20.000Z</time>
      </trkpt>
      <trkpt lat="22.912315" lon="110.919131">
        <ele>151.788771</ele>
        <time>2026-08-18T04:42:21.000Z</time>
      </trkpt>
      <trkpt lat="22.912306" lon="110.919182">
        <ele>151.640027</ele>
        <time>2026-08-18T04:42:22.000Z</time>
      </trkpt>
      <trkpt lat="22.912296" lon="110.919233">
        <ele>151.490668</ele>
        <time>2026-08-18T04:42:23.000Z</time>
      </trkpt>
      <trkpt lat="22.912287" lon="110.919286">
        <ele>151.336294</ele>
        <time>2026-08-18T04:42:24.000Z</time>
      </trkpt>
      <trkpt lat="22.912279" lon="110.919344">
        <ele>151.168305</ele>
        <time>2026-08-18T04:42:25.000Z</time>
      </trkpt>
      <trkpt lat="22.912271" lon="110.919402">
        <ele>151.000315</ele>
        <time>2026-08-18T04:42:26.000Z</time>
      </trkpt>
      <trkpt lat="22.912263" lon="110.919463">
        <ele>150.823822</ele>
        <time>2026-08-18T04:42:27.000Z</time>
      </trkpt>
      <trkpt lat="22.912255" lon="110.919526">
        <ele>150.641656</ele>
        <time>2026-08-18T04:42:28.000Z</time>
      </trkpt>
      <trkpt lat="22.912245" lon="110.919589">
        <ele>150.458536</ele>
        <time>2026-08-18T04:42:29.000Z</time>
      </trkpt>
      <trkpt lat="22.912235" lon="110.919656">
        <ele>150.264116</ele>
        <time>2026-08-18T04:42:30.000Z</time>
      </trkpt>
      <trkpt lat="22.912226" lon="110.919722">
        <ele>150.073002</ele>
        <time>2026-08-18T04:42:31.000Z</time>
      </trkpt>
      <trkpt lat="22.912214" lon="110.919785">
        <ele>149.888725</ele>
        <time>2026-08-18T04:42:32.000Z</time>
      </trkpt>
      <trkpt lat="22.912204" lon="110.919852">
        <ele>149.694304</ele>
        <time>2026-08-18T04:42:33.000Z</time>
      </trkpt>
      <trkpt lat="22.912195" lon="110.919923">
        <ele>149.489012</ele>
        <time>2026-08-18T04:42:34.000Z</time>
      </trkpt>
      <trkpt lat="22.912186" lon="110.919993">
        <ele>149.286557</ele>
        <time>2026-08-18T04:42:35.000Z</time>
      </trkpt>
      <trkpt lat="22.912172" lon="110.920067">
        <ele>149.070164</ele>
        <time>2026-08-18T04:42:36.000Z</time>
      </trkpt>
      <trkpt lat="22.912157" lon="110.920138">
        <ele>148.861508</ele>
        <time>2026-08-18T04:42:37.000Z</time>
      </trkpt>
      <trkpt lat="22.912143" lon="110.920211">
        <ele>148.647919</ele>
        <time>2026-08-18T04:42:38.000Z</time>
      </trkpt>
      <trkpt lat="22.912132" lon="110.920283">
        <ele>148.438862</ele>
        <time>2026-08-18T04:42:39.000Z</time>
      </trkpt>
      <trkpt lat="22.912124" lon="110.920357">
        <ele>148.225439</ele>
        <time>2026-08-18T04:42:40.000Z</time>
      </trkpt>
      <trkpt lat="22.912117" lon="110.920430">
        <ele>148.015204</ele>
        <time>2026-08-18T04:42:41.000Z</time>
      </trkpt>
      <trkpt lat="22.912109" lon="110.920502">
        <ele>147.807470</ele>
        <time>2026-08-18T04:42:42.000Z</time>
      </trkpt>
      <trkpt lat="22.912098" lon="110.920580">
        <ele>147.581440</ele>
        <time>2026-08-18T04:42:43.000Z</time>
      </trkpt>
      <trkpt lat="22.912085" lon="110.920656">
        <ele>147.360020</ele>
        <time>2026-08-18T04:42:44.000Z</time>
      </trkpt>
      <trkpt lat="22.912075" lon="110.920732">
        <ele>147.140113</ele>
        <time>2026-08-18T04:42:45.000Z</time>
      </trkpt>
      <trkpt lat="22.912065" lon="110.920810">
        <ele>146.914533</ele>
        <time>2026-08-18T04:42:46.000Z</time>
      </trkpt>
      <trkpt lat="22.912053" lon="110.920886">
        <ele>146.695778</ele>
        <time>2026-08-18T04:42:47.000Z</time>
      </trkpt>
      <trkpt lat="22.912038" lon="110.920967">
        <ele>146.502043</ele>
        <time>2026-08-18T04:42:48.000Z</time>
      </trkpt>
      <trkpt lat="22.912024" lon="110.921053">
        <ele>146.297258</ele>
        <time>2026-08-18T04:42:49.000Z</time>
      </trkpt>
      <trkpt lat="22.912011" lon="110.921138">
        <ele>146.095215</ele>
        <time>2026-08-18T04:42:50.000Z</time>
      </trkpt>
      <trkpt lat="22.912001" lon="110.921221">
        <ele>145.898933</ele>
        <time>2026-08-18T04:42:51.000Z</time>
      </trkpt>
      <trkpt lat="22.911995" lon="110.921305">
        <ele>145.701372</ele>
        <time>2026-08-18T04:42:52.000Z</time>
      </trkpt>
      <trkpt lat="22.911985" lon="110.921392">
        <ele>145.495786</ele>
        <time>2026-08-18T04:42:53.000Z</time>
      </trkpt>
      <trkpt lat="22.911970" lon="110.921477">
        <ele>145.292847</ele>
        <time>2026-08-18T04:42:54.000Z</time>
      </trkpt>
      <trkpt lat="22.911955" lon="110.921563">
        <ele>145.087604</ele>
        <time>2026-08-18T04:42:55.000Z</time>
      </trkpt>
      <trkpt lat="22.911939" lon="110.921648">
        <ele>144.884171</ele>
        <time>2026-08-18T04:42:56.000Z</time>
      </trkpt>
      <trkpt lat="22.911927" lon="110.921732">
        <ele>144.684846</ele>
        <time>2026-08-18T04:42:57.000Z</time>
      </trkpt>
      <trkpt lat="22.911915" lon="110.921818">
        <ele>144.480886</ele>
        <time>2026-08-18T04:42:58.000Z</time>
      </trkpt>
      <trkpt lat="22.911902" lon="110.921905">
        <ele>144.274215</ele>
        <time>2026-08-18T04:42:59.000Z</time>
      </trkpt>
      <trkpt lat="22.911889" lon="110.921992">
        <ele>144.067544</ele>
        <time>2026-08-18T04:43:00.000Z</time>
      </trkpt>
      <trkpt lat="22.911879" lon="110.922081">
        <ele>143.857303</ele>
        <time>2026-08-18T04:43:01.000Z</time>
      </trkpt>
      <trkpt lat="22.911868" lon="110.922168">
        <ele>143.651386</ele>
        <time>2026-08-18T04:43:02.000Z</time>
      </trkpt>
      <trkpt lat="22.911854" lon="110.922255">
        <ele>143.444292</ele>
        <time>2026-08-18T04:43:03.000Z</time>
      </trkpt>
      <trkpt lat="22.911838" lon="110.922343">
        <ele>143.233962</ele>
        <time>2026-08-18T04:43:04.000Z</time>
      </trkpt>
      <trkpt lat="22.911817" lon="110.922432">
        <ele>143.018529</ele>
        <time>2026-08-18T04:43:05.000Z</time>
      </trkpt>
      <trkpt lat="22.911799" lon="110.922520">
        <ele>142.807153</ele>
        <time>2026-08-18T04:43:06.000Z</time>
      </trkpt>
      <trkpt lat="22.911782" lon="110.922605">
        <ele>142.603194</ele>
        <time>2026-08-18T04:43:07.000Z</time>
      </trkpt>
      <trkpt lat="22.911766" lon="110.922691">
        <ele>142.397463</ele>
        <time>2026-08-18T04:43:08.000Z</time>
      </trkpt>
      <trkpt lat="22.911753" lon="110.922776">
        <ele>142.195419</ele>
        <time>2026-08-18T04:43:09.000Z</time>
      </trkpt>
      <trkpt lat="22.911740" lon="110.922864">
        <ele>142.076856</ele>
        <time>2026-08-18T04:43:10.000Z</time>
      </trkpt>
      <trkpt lat="22.911729" lon="110.922951">
        <ele>142.003879</ele>
        <time>2026-08-18T04:43:11.000Z</time>
      </trkpt>
      <trkpt lat="22.911720" lon="110.923023">
        <ele>141.943496</ele>
        <time>2026-08-18T04:43:12.000Z</time>
      </trkpt>
      <trkpt lat="22.911719" lon="110.923088">
        <ele>141.889472</ele>
        <time>2026-08-18T04:43:13.000Z</time>
      </trkpt>
      <trkpt lat="22.911723" lon="110.923149">
        <ele>141.838651</ele>
        <time>2026-08-18T04:43:14.000Z</time>
      </trkpt>
      <trkpt lat="22.911727" lon="110.923210">
        <ele>141.787830</ele>
        <time>2026-08-18T04:43:15.000Z</time>
      </trkpt>
      <trkpt lat="22.911728" lon="110.923272">
        <ele>141.736299</ele>
        <time>2026-08-18T04:43:16.000Z</time>
      </trkpt>
      <trkpt lat="22.911723" lon="110.923335">
        <ele>141.683750</ele>
        <time>2026-08-18T04:43:17.000Z</time>
      </trkpt>
      <trkpt lat="22.911721" lon="110.923392">
        <ele>141.636347</ele>
        <time>2026-08-18T04:43:18.000Z</time>
      </trkpt>
      <trkpt lat="22.911708" lon="110.923452">
        <ele>141.585125</ele>
        <time>2026-08-18T04:43:19.000Z</time>
      </trkpt>
      <trkpt lat="22.911693" lon="110.923513">
        <ele>141.532657</ele>
        <time>2026-08-18T04:43:20.000Z</time>
      </trkpt>
      <trkpt lat="22.911677" lon="110.923580">
        <ele>141.475137</ele>
        <time>2026-08-18T04:43:21.000Z</time>
      </trkpt>
      <trkpt lat="22.911663" lon="110.923651">
        <ele>141.414797</ele>
        <time>2026-08-18T04:43:22.000Z</time>
      </trkpt>
      <trkpt lat="22.911647" lon="110.923723">
        <ele>141.353246</ele>
        <time>2026-08-18T04:43:23.000Z</time>
      </trkpt>
      <trkpt lat="22.911633" lon="110.923795">
        <ele>141.292094</ele>
        <time>2026-08-18T04:43:24.000Z</time>
      </trkpt>
      <trkpt lat="22.911620" lon="110.923867">
        <ele>141.231121</ele>
        <time>2026-08-18T04:43:25.000Z</time>
      </trkpt>
      <trkpt lat="22.911606" lon="110.923939">
        <ele>141.169969</ele>
        <time>2026-08-18T04:43:26.000Z</time>
      </trkpt>
      <trkpt lat="22.911595" lon="110.924010">
        <ele>141.110137</ele>
        <time>2026-08-18T04:43:27.000Z</time>
      </trkpt>
      <trkpt lat="22.911585" lon="110.924080">
        <ele>141.051269</ele>
        <time>2026-08-18T04:43:28.000Z</time>
      </trkpt>
      <trkpt lat="22.911571" lon="110.924153">
        <ele>140.989303</ele>
        <time>2026-08-18T04:43:29.000Z</time>
      </trkpt>
      <trkpt lat="22.911558" lon="110.924226">
        <ele>140.927515</ele>
        <time>2026-08-18T04:43:30.000Z</time>
      </trkpt>
      <trkpt lat="22.911542" lon="110.924297">
        <ele>140.866772</ele>
        <time>2026-08-18T04:43:31.000Z</time>
      </trkpt>
      <trkpt lat="22.911529" lon="110.924368">
        <ele>140.806614</ele>
        <time>2026-08-18T04:43:32.000Z</time>
      </trkpt>
      <trkpt lat="22.911515" lon="110.924439">
        <ele>140.746274</ele>
        <time>2026-08-18T04:43:33.000Z</time>
      </trkpt>
      <trkpt lat="22.911504" lon="110.924510">
        <ele>140.686443</ele>
        <time>2026-08-18T04:43:34.000Z</time>
      </trkpt>
      <trkpt lat="22.911493" lon="110.924581">
        <ele>140.626611</ele>
        <time>2026-08-18T04:43:35.000Z</time>
      </trkpt>
      <trkpt lat="22.911480" lon="110.924651">
        <ele>140.567268</ele>
        <time>2026-08-18T04:43:36.000Z</time>
      </trkpt>
      <trkpt lat="22.911471" lon="110.924721">
        <ele>140.508532</ele>
        <time>2026-08-18T04:43:37.000Z</time>
      </trkpt>
      <trkpt lat="22.911462" lon="110.924793">
        <ele>140.467835</ele>
        <time>2026-08-18T04:43:38.000Z</time>
      </trkpt>
      <trkpt lat="22.911455" lon="110.924863">
        <ele>140.430039</ele>
        <time>2026-08-18T04:43:39.000Z</time>
      </trkpt>
      <trkpt lat="22.911445" lon="110.924931">
        <ele>140.393076</ele>
        <time>2026-08-18T04:43:40.000Z</time>
      </trkpt>
      <trkpt lat="22.911436" lon="110.924998">
        <ele>140.356730</ele>
        <time>2026-08-18T04:43:41.000Z</time>
      </trkpt>
      <trkpt lat="22.911429" lon="110.925068">
        <ele>140.318935</ele>
        <time>2026-08-18T04:43:42.000Z</time>
      </trkpt>
      <trkpt lat="22.911423" lon="110.925135">
        <ele>140.282800</ele>
        <time>2026-08-18T04:43:43.000Z</time>
      </trkpt>
      <trkpt lat="22.911412" lon="110.925202">
        <ele>140.246269</ele>
        <time>2026-08-18T04:43:44.000Z</time>
      </trkpt>
      <trkpt lat="22.911401" lon="110.925269">
        <ele>140.209737</ele>
        <time>2026-08-18T04:43:45.000Z</time>
      </trkpt>
      <trkpt lat="22.911391" lon="110.925338">
        <ele>140.172243</ele>
        <time>2026-08-18T04:43:46.000Z</time>
      </trkpt>
      <trkpt lat="22.911376" lon="110.925405">
        <ele>140.135232</ele>
        <time>2026-08-18T04:43:47.000Z</time>
      </trkpt>
      <trkpt lat="22.911363" lon="110.925470">
        <ele>140.099527</ele>
        <time>2026-08-18T04:43:48.000Z</time>
      </trkpt>
      <trkpt lat="22.911350" lon="110.925536">
        <ele>140.063299</ele>
        <time>2026-08-18T04:43:49.000Z</time>
      </trkpt>
      <trkpt lat="22.911340" lon="110.925604">
        <ele>140.026335</ele>
        <time>2026-08-18T04:43:50.000Z</time>
      </trkpt>
      <trkpt lat="22.911329" lon="110.925672">
        <ele>139.989275</ele>
        <time>2026-08-18T04:43:51.000Z</time>
      </trkpt>
      <trkpt lat="22.911320" lon="110.925738">
        <ele>139.953461</ele>
        <time>2026-08-18T04:43:52.000Z</time>
      </trkpt>
      <trkpt lat="22.911308" lon="110.925805">
        <ele>139.916822</ele>
        <time>2026-08-18T04:43:53.000Z</time>
      </trkpt>
      <trkpt lat="22.911298" lon="110.925872">
        <ele>139.880388</ele>
        <time>2026-08-18T04:43:54.000Z</time>
      </trkpt>
      <trkpt lat="22.911290" lon="110.925939">
        <ele>139.844123</ele>
        <time>2026-08-18T04:43:55.000Z</time>
      </trkpt>
      <trkpt lat="22.911285" lon="110.926011">
        <ele>139.805364</ele>
        <time>2026-08-18T04:43:56.000Z</time>
      </trkpt>
      <trkpt lat="22.911274" lon="110.926080">
        <ele>139.767776</ele>
        <time>2026-08-18T04:43:57.000Z</time>
      </trkpt>
      <trkpt lat="22.911265" lon="110.926150">
        <ele>139.729836</ele>
        <time>2026-08-18T04:43:58.000Z</time>
      </trkpt>
      <trkpt lat="22.911253" lon="110.926221">
        <ele>139.691088</ele>
        <time>2026-08-18T04:43:59.000Z</time>
      </trkpt>
      <trkpt lat="22.911237" lon="110.926293">
        <ele>139.651330</ele>
        <time>2026-08-18T04:44:00.000Z</time>
      </trkpt>
      <trkpt lat="22.911219" lon="110.926366">
        <ele>139.610765</ele>
        <time>2026-08-18T04:44:01.000Z</time>
      </trkpt>
      <trkpt lat="22.911202" lon="110.926439">
        <ele>139.570347</ele>
        <time>2026-08-18T04:44:02.000Z</time>
      </trkpt>
      <trkpt lat="22.911186" lon="110.926511">
        <ele>139.530589</ele>
        <time>2026-08-18T04:44:03.000Z</time>
      </trkpt>
      <trkpt lat="22.911171" lon="110.926582">
        <ele>139.491488</ele>
        <time>2026-08-18T04:44:04.000Z</time>
      </trkpt>
      <trkpt lat="22.911150" lon="110.926648">
        <ele>139.455741</ele>
        <time>2026-08-18T04:44:05.000Z</time>
      </trkpt>
      <trkpt lat="22.911124" lon="110.926712">
        <ele>139.459925</ele>
        <time>2026-08-18T04:44:06.000Z</time>
      </trkpt>
      <trkpt lat="22.911090" lon="110.926772">
        <ele>139.464140</ele>
        <time>2026-08-18T04:44:07.000Z</time>
      </trkpt>
      <trkpt lat="22.911048" lon="110.926826">
        <ele>139.468368</ele>
        <time>2026-08-18T04:44:08.000Z</time>
      </trkpt>
      <trkpt lat="22.911002" lon="110.926880">
        <ele>139.472768</ele>
        <time>2026-08-18T04:44:09.000Z</time>
      </trkpt>
      <trkpt lat="22.910952" lon="110.926928">
        <ele>139.477104</ele>
        <time>2026-08-18T04:44:10.000Z</time>
      </trkpt>
      <trkpt lat="22.910904" lon="110.926972">
        <ele>139.481184</ele>
        <time>2026-08-18T04:44:11.000Z</time>
      </trkpt>
      <trkpt lat="22.910863" lon="110.927009">
        <ele>139.484647</ele>
        <time>2026-08-18T04:44:12.000Z</time>
      </trkpt>
      <trkpt lat="22.910826" lon="110.927037">
        <ele>139.487576</ele>
        <time>2026-08-18T04:44:13.000Z</time>
      </trkpt>
      <trkpt lat="22.910789" lon="110.927058">
        <ele>139.490288</ele>
        <time>2026-08-18T04:44:14.000Z</time>
      </trkpt>
      <trkpt lat="22.910757" lon="110.927071">
        <ele>139.492507</ele>
        <time>2026-08-18T04:44:15.000Z</time>
      </trkpt>
      <trkpt lat="22.910731" lon="110.927082">
        <ele>139.494319</ele>
        <time>2026-08-18T04:44:16.000Z</time>
      </trkpt>
      <trkpt lat="22.910714" lon="110.927088">
        <ele>139.495480</ele>
        <time>2026-08-18T04:44:17.000Z</time>
      </trkpt>
      <trkpt lat="22.910702" lon="110.927090">
        <ele>139.496269</ele>
        <time>2026-08-18T04:44:18.000Z</time>
      </trkpt>
      <trkpt lat="22.910695" lon="110.927092">
        <ele>139.496739</ele>
        <time>2026-08-18T04:44:19.000Z</time>
      </trkpt>
      <trkpt lat="22.910692" lon="110.927093">
        <ele>139.496943</ele>
        <time>2026-08-18T04:44:20.000Z</time>
      </trkpt>
      <trkpt lat="22.910666" lon="110.927109">
        <ele>139.498884</ele>
        <time>2026-08-18T04:45:22.000Z</time>
      </trkpt>
      <trkpt lat="22.910650" lon="110.927113">
        <ele>139.499951</ele>
        <time>2026-08-18T04:45:23.000Z</time>
      </trkpt>
      <trkpt lat="22.910636" lon="110.927122">
        <ele>139.501007</ele>
        <time>2026-08-18T04:45:24.000Z</time>
      </trkpt>
      <trkpt lat="22.910618" lon="110.927129">
        <ele>139.502249</ele>
        <time>2026-08-18T04:45:25.000Z</time>
      </trkpt>
      <trkpt lat="22.910600" lon="110.927134">
        <ele>139.503456</ele>
        <time>2026-08-18T04:45:26.000Z</time>
      </trkpt>
      <trkpt lat="22.910582" lon="110.927138">
        <ele>139.504649</ele>
        <time>2026-08-18T04:45:27.000Z</time>
      </trkpt>
      <trkpt lat="22.910562" lon="110.927141">
        <ele>139.505961</ele>
        <time>2026-08-18T04:45:28.000Z</time>
      </trkpt>
      <trkpt lat="22.910542" lon="110.927146">
        <ele>139.507294</ele>
        <time>2026-08-18T04:45:29.000Z</time>
      </trkpt>
      <trkpt lat="22.910520" lon="110.927147">
        <ele>139.508724</ele>
        <time>2026-08-18T04:45:30.000Z</time>
      </trkpt>
      <trkpt lat="22.910495" lon="110.927154">
        <ele>139.510401</ele>
        <time>2026-08-18T04:45:31.000Z</time>
      </trkpt>
      <trkpt lat="22.910467" lon="110.927160">
        <ele>139.512254</ele>
        <time>2026-08-18T04:45:32.000Z</time>
      </trkpt>
      <trkpt lat="22.910437" lon="110.927168">
        <ele>139.514261</ele>
        <time>2026-08-18T04:45:33.000Z</time>
      </trkpt>
      <trkpt lat="22.910408" lon="110.927176">
        <ele>139.516204</ele>
        <time>2026-08-18T04:45:34.000Z</time>
      </trkpt>
      <trkpt lat="22.910377" lon="110.927186">
        <ele>139.518305</ele>
        <time>2026-08-18T04:45:35.000Z</time>
      </trkpt>
      <trkpt lat="22.910345" lon="110.927195">
        <ele>139.520452</ele>
        <time>2026-08-18T04:45:36.000Z</time>
      </trkpt>
      <trkpt lat="22.910312" lon="110.927205">
        <ele>139.522677</ele>
        <time>2026-08-18T04:45:37.000Z</time>
      </trkpt>
      <trkpt lat="22.910278" lon="110.927217">
        <ele>139.524999</ele>
        <time>2026-08-18T04:45:38.000Z</time>
      </trkpt>
      <trkpt lat="22.910244" lon="110.927225">
        <ele>139.527259</ele>
        <time>2026-08-18T04:45:39.000Z</time>
      </trkpt>
      <trkpt lat="22.910210" lon="110.927234">
        <ele>139.529532</ele>
        <time>2026-08-18T04:45:40.000Z</time>
      </trkpt>
      <trkpt lat="22.910176" lon="110.927245">
        <ele>139.531836</ele>
        <time>2026-08-18T04:45:41.000Z</time>
      </trkpt>
      <trkpt lat="22.910139" lon="110.927259">
        <ele>139.534381</ele>
        <time>2026-08-18T04:45:42.000Z</time>
      </trkpt>
      <trkpt lat="22.910103" lon="110.927270">
        <ele>139.536810</ele>
        <time>2026-08-18T04:45:43.000Z</time>
      </trkpt>
      <trkpt lat="22.910066" lon="110.927282">
        <ele>139.539318</ele>
        <time>2026-08-18T04:45:44.000Z</time>
      </trkpt>
      <trkpt lat="22.910030" lon="110.927294">
        <ele>139.541764</ele>
        <time>2026-08-18T04:45:45.000Z</time>
      </trkpt>
      <trkpt lat="22.909994" lon="110.927310">
        <ele>139.544291</ele>
        <time>2026-08-18T04:45:46.000Z</time>
      </trkpt>
      <trkpt lat="22.909958" lon="110.927325">
        <ele>139.546795</ele>
        <time>2026-08-18T04:45:47.000Z</time>
      </trkpt>
      <trkpt lat="22.909922" lon="110.927340">
        <ele>139.549300</ele>
        <time>2026-08-18T04:45:48.000Z</time>
      </trkpt>
      <trkpt lat="22.909885" lon="110.927354">
        <ele>139.551845</ele>
        <time>2026-08-18T04:45:49.000Z</time>
      </trkpt>
      <trkpt lat="22.909848" lon="110.927365">
        <ele>139.554336</ele>
        <time>2026-08-18T04:45:50.000Z</time>
      </trkpt>
      <trkpt lat="22.909810" lon="110.927376">
        <ele>139.556891</ele>
        <time>2026-08-18T04:45:51.000Z</time>
      </trkpt>
      <trkpt lat="22.909773" lon="110.927388">
        <ele>139.559399</ele>
        <time>2026-08-18T04:45:52.000Z</time>
      </trkpt>
      <trkpt lat="22.909737" lon="110.927403">
        <ele>139.561903</ele>
        <time>2026-08-18T04:45:53.000Z</time>
      </trkpt>
      <trkpt lat="22.909700" lon="110.927419">
        <ele>139.564490</ele>
        <time>2026-08-18T04:45:54.000Z</time>
      </trkpt>
      <trkpt lat="22.909663" lon="110.927435">
        <ele>139.567077</ele>
        <time>2026-08-18T04:45:55.000Z</time>
      </trkpt>
      <trkpt lat="22.909624" lon="110.927453">
        <ele>139.569829</ele>
        <time>2026-08-18T04:45:56.000Z</time>
      </trkpt>
      <trkpt lat="22.909588" lon="110.927470">
        <ele>139.572379</ele>
        <time>2026-08-18T04:45:57.000Z</time>
      </trkpt>
      <trkpt lat="22.909552" lon="110.927489">
        <ele>139.578763</ele>
        <time>2026-08-18T04:45:58.000Z</time>
      </trkpt>
      <trkpt lat="22.909517" lon="110.927508">
        <ele>139.585019</ele>
        <time>2026-08-18T04:45:59.000Z</time>
      </trkpt>
      <trkpt lat="22.909482" lon="110.927528">
        <ele>139.591342</ele>
        <time>2026-08-18T04:46:00.000Z</time>
      </trkpt>
      <trkpt lat="22.909445" lon="110.927547">
        <ele>139.597885</ele>
        <time>2026-08-18T04:46:01.000Z</time>
      </trkpt>
      <trkpt lat="22.909408" lon="110.927568">
        <ele>139.604560</ele>
        <time>2026-08-18T04:46:02.000Z</time>
      </trkpt>
      <trkpt lat="22.909371" lon="110.927591">
        <ele>139.611376</ele>
        <time>2026-08-18T04:46:03.000Z</time>
      </trkpt>
      <trkpt lat="22.909335" lon="110.927613">
        <ele>139.617980</ele>
        <time>2026-08-18T04:46:04.000Z</time>
      </trkpt>
      <trkpt lat="22.909298" lon="110.927636">
        <ele>139.624796</ele>
        <time>2026-08-18T04:46:05.000Z</time>
      </trkpt>
      <trkpt lat="22.909263" lon="110.927661">
        <ele>139.631493</ele>
        <time>2026-08-18T04:46:06.000Z</time>
      </trkpt>
      <trkpt lat="22.909226" lon="110.927688">
        <ele>139.638620</ele>
        <time>2026-08-18T04:46:07.000Z</time>
      </trkpt>
      <trkpt lat="22.909190" lon="110.927715">
        <ele>139.645615</ele>
        <time>2026-08-18T04:46:08.000Z</time>
      </trkpt>
      <trkpt lat="22.909154" lon="110.927741">
        <ele>139.652527</ele>
        <time>2026-08-18T04:46:09.000Z</time>
      </trkpt>
      <trkpt lat="22.909119" lon="110.927770">
        <ele>139.659566</ele>
        <time>2026-08-18T04:46:10.000Z</time>
      </trkpt>
      <trkpt lat="22.909084" lon="110.927799">
        <ele>139.666605</ele>
        <time>2026-08-18T04:46:11.000Z</time>
      </trkpt>
      <trkpt lat="22.909048" lon="110.927828">
        <ele>139.673771</ele>
        <time>2026-08-18T04:46:12.000Z</time>
      </trkpt>
      <trkpt lat="22.909013" lon="110.927859">
        <ele>139.680992</ele>
        <time>2026-08-18T04:46:13.000Z</time>
      </trkpt>
      <trkpt lat="22.908979" lon="110.927890">
        <ele>139.688090</ele>
        <time>2026-08-18T04:46:14.000Z</time>
      </trkpt>
      <trkpt lat="22.908945" lon="110.927922">
        <ele>139.695283</ele>
        <time>2026-08-18T04:46:15.000Z</time>
      </trkpt>
      <trkpt lat="22.908911" lon="110.927954">
        <ele>139.702477</ele>
        <time>2026-08-18T04:46:16.000Z</time>
      </trkpt>
      <trkpt lat="22.908876" lon="110.927987">
        <ele>139.709888</ele>
        <time>2026-08-18T04:46:17.000Z</time>
      </trkpt>
      <trkpt lat="22.908843" lon="110.928020">
        <ele>139.717060</ele>
        <time>2026-08-18T04:46:18.000Z</time>
      </trkpt>
      <trkpt lat="22.908812" lon="110.928054">
        <ele>139.724105</ele>
        <time>2026-08-18T04:46:19.000Z</time>
      </trkpt>
      <trkpt lat="22.908780" lon="110.928086">
        <ele>139.731060</ele>
        <time>2026-08-18T04:46:20.000Z</time>
      </trkpt>
      <trkpt lat="22.908748" lon="110.928119">
        <ele>139.738116</ele>
        <time>2026-08-18T04:46:21.000Z</time>
      </trkpt>
      <trkpt lat="22.908715" lon="110.928154">
        <ele>139.745491</ele>
        <time>2026-08-18T04:46:22.000Z</time>
      </trkpt>
      <trkpt lat="22.908682" lon="110.928188">
        <ele>139.752764</ele>
        <time>2026-08-18T04:46:23.000Z</time>
      </trkpt>
      <trkpt lat="22.908652" lon="110.928223">
        <ele>139.759804</ele>
        <time>2026-08-18T04:46:24.000Z</time>
      </trkpt>
      <trkpt lat="22.908624" lon="110.928261">
        <ele>139.766969</ele>
        <time>2026-08-18T04:46:25.000Z</time>
      </trkpt>
      <trkpt lat="22.908594" lon="110.928298">
        <ele>139.774228</ele>
        <time>2026-08-18T04:46:26.000Z</time>
      </trkpt>
      <trkpt lat="22.908566" lon="110.928336">
        <ele>139.781394</ele>
        <time>2026-08-18T04:46:27.000Z</time>
      </trkpt>
      <trkpt lat="22.908539" lon="110.928374">
        <ele>139.788461</ele>
        <time>2026-08-18T04:46:28.000Z</time>
      </trkpt>
      <trkpt lat="22.908511" lon="110.928415">
        <ele>139.795976</ele>
        <time>2026-08-18T04:46:29.000Z</time>
      </trkpt>
      <trkpt lat="22.908485" lon="110.928455">
        <ele>139.803185</ele>
        <time>2026-08-18T04:46:30.000Z</time>
      </trkpt>
      <trkpt lat="22.908459" lon="110.928496">
        <ele>139.810515</ele>
        <time>2026-08-18T04:46:31.000Z</time>
      </trkpt>
      <trkpt lat="22.908435" lon="110.928537">
        <ele>139.817668</ele>
        <time>2026-08-18T04:46:32.000Z</time>
      </trkpt>
      <trkpt lat="22.908410" lon="110.928577">
        <ele>139.824786</ele>
        <time>2026-08-18T04:46:33.000Z</time>
      </trkpt>
      <trkpt lat="22.908384" lon="110.928619">
        <ele>139.832238</ele>
        <time>2026-08-18T04:46:34.000Z</time>
      </trkpt>
      <trkpt lat="22.908360" lon="110.928662">
        <ele>139.839642</ele>
        <time>2026-08-18T04:46:35.000Z</time>
      </trkpt>
      <trkpt lat="22.908337" lon="110.928705">
        <ele>139.846964</ele>
        <time>2026-08-18T04:46:36.000Z</time>
      </trkpt>
      <trkpt lat="22.908315" lon="110.928749">
        <ele>139.854336</ele>
        <time>2026-08-18T04:46:37.000Z</time>
      </trkpt>
      <trkpt lat="22.908293" lon="110.928793">
        <ele>139.864862</ele>
        <time>2026-08-18T04:46:38.000Z</time>
      </trkpt>
      <trkpt lat="22.908272" lon="110.928837">
        <ele>139.885065</ele>
        <time>2026-08-18T04:46:39.000Z</time>
      </trkpt>
      <trkpt lat="22.908251" lon="110.928883">
        <ele>139.905995</ele>
        <time>2026-08-18T04:46:40.000Z</time>
      </trkpt>
      <trkpt lat="22.908232" lon="110.928929">
        <ele>139.926548</ele>
        <time>2026-08-18T04:46:41.000Z</time>
      </trkpt>
      <trkpt lat="22.908213" lon="110.928976">
        <ele>139.947474</ele>
        <time>2026-08-18T04:46:42.000Z</time>
      </trkpt>
      <trkpt lat="22.908195" lon="110.929023">
        <ele>139.968225</ele>
        <time>2026-08-18T04:46:43.000Z</time>
      </trkpt>
      <trkpt lat="22.908177" lon="110.929070">
        <ele>139.988977</ele>
        <time>2026-08-18T04:46:44.000Z</time>
      </trkpt>
      <trkpt lat="22.908159" lon="110.929118">
        <ele>140.010105</ele>
        <time>2026-08-18T04:46:45.000Z</time>
      </trkpt>
      <trkpt lat="22.908142" lon="110.929165">
        <ele>140.030691</ele>
        <time>2026-08-18T04:46:46.000Z</time>
      </trkpt>
      <trkpt lat="22.908126" lon="110.929212">
        <ele>140.051119</ele>
        <time>2026-08-18T04:46:47.000Z</time>
      </trkpt>
      <trkpt lat="22.908109" lon="110.929259">
        <ele>140.071704</ele>
        <time>2026-08-18T04:46:48.000Z</time>
      </trkpt>
      <trkpt lat="22.908093" lon="110.929306">
        <ele>140.092132</ele>
        <time>2026-08-18T04:46:49.000Z</time>
      </trkpt>
      <trkpt lat="22.908078" lon="110.929354">
        <ele>140.112797</ele>
        <time>2026-08-18T04:46:50.000Z</time>
      </trkpt>
      <trkpt lat="22.908063" lon="110.929403">
        <ele>140.133848</ele>
        <time>2026-08-18T04:46:51.000Z</time>
      </trkpt>
      <trkpt lat="22.908048" lon="110.929451">
        <ele>140.154512</ele>
        <time>2026-08-18T04:46:52.000Z</time>
      </trkpt>
      <trkpt lat="22.908033" lon="110.929498">
        <ele>140.174791</ele>
        <time>2026-08-18T04:46:53.000Z</time>
      </trkpt>
      <trkpt lat="22.908018" lon="110.929545">
        <ele>140.195070</ele>
        <time>2026-08-18T04:46:54.000Z</time>
      </trkpt>
      <trkpt lat="22.908003" lon="110.929591">
        <ele>140.214964</ele>
        <time>2026-08-18T04:46:55.000Z</time>
      </trkpt>
      <trkpt lat="22.907990" lon="110.929638">
        <ele>140.234971</ele>
        <time>2026-08-18T04:46:56.000Z</time>
      </trkpt>
      <trkpt lat="22.907976" lon="110.929685">
        <ele>140.255109</ele>
        <time>2026-08-18T04:46:57.000Z</time>
      </trkpt>
      <trkpt lat="22.907963" lon="110.929733">
        <ele>140.275506</ele>
        <time>2026-08-18T04:46:58.000Z</time>
      </trkpt>
      <trkpt lat="22.907951" lon="110.929779">
        <ele>140.294998</ele>
        <time>2026-08-18T04:46:59.000Z</time>
      </trkpt>
      <trkpt lat="22.907940" lon="110.929826">
        <ele>140.314768</ele>
        <time>2026-08-18T04:47:00.000Z</time>
      </trkpt>
      <trkpt lat="22.907927" lon="110.929872">
        <ele>140.334384</ele>
        <time>2026-08-18T04:47:01.000Z</time>
      </trkpt>
      <trkpt lat="22.907915" lon="110.929918">
        <ele>140.353876</ele>
        <time>2026-08-18T04:47:02.000Z</time>
      </trkpt>
      <trkpt lat="22.907903" lon="110.929964">
        <ele>140.373367</ele>
        <time>2026-08-18T04:47:03.000Z</time>
      </trkpt>
      <trkpt lat="22.907891" lon="110.930011">
        <ele>140.393251</ele>
        <time>2026-08-18T04:47:04.000Z</time>
      </trkpt>
      <trkpt lat="22.907880" lon="110.930059">
        <ele>140.413416</ele>
        <time>2026-08-18T04:47:05.000Z</time>
      </trkpt>
      <trkpt lat="22.907868" lon="110.930107">
        <ele>140.433693</ele>
        <time>2026-08-18T04:47:06.000Z</time>
      </trkpt>
      <trkpt lat="22.907857" lon="110.930155">
        <ele>140.453859</ele>
        <time>2026-08-18T04:47:07.000Z</time>
      </trkpt>
      <trkpt lat="22.907844" lon="110.930203">
        <ele>140.474256</ele>
        <time>2026-08-18T04:47:08.000Z</time>
      </trkpt>
      <trkpt lat="22.907832" lon="110.930252">
        <ele>140.494927</ele>
        <time>2026-08-18T04:47:09.000Z</time>
      </trkpt>
      <trkpt lat="22.907821" lon="110.930299">
        <ele>140.514697</ele>
        <time>2026-08-18T04:47:10.000Z</time>
      </trkpt>
      <trkpt lat="22.907811" lon="110.930345">
        <ele>140.533966</ele>
        <time>2026-08-18T04:47:11.000Z</time>
      </trkpt>
      <trkpt lat="22.907800" lon="110.930391">
        <ele>140.553341</ele>
        <time>2026-08-18T04:47:12.000Z</time>
      </trkpt>
      <trkpt lat="22.907789" lon="110.930436">
        <ele>140.572322</ele>
        <time>2026-08-18T04:47:13.000Z</time>
      </trkpt>
      <trkpt lat="22.907780" lon="110.930481">
        <ele>140.591096</ele>
        <time>2026-08-18T04:47:14.000Z</time>
      </trkpt>
      <trkpt lat="22.907771" lon="110.930525">
        <ele>140.609471</ele>
        <time>2026-08-18T04:47:15.000Z</time>
      </trkpt>
      <trkpt lat="22.907762" lon="110.930569">
        <ele>140.627846</ele>
        <time>2026-08-18T04:47:16.000Z</time>
      </trkpt>
      <trkpt lat="22.907753" lon="110.930613">
        <ele>140.646222</ele>
        <time>2026-08-18T04:47:17.000Z</time>
      </trkpt>
      <trkpt lat="22.907745" lon="110.930657">
        <ele>140.679588</ele>
        <time>2026-08-18T04:47:18.000Z</time>
      </trkpt>
      <trkpt lat="22.907736" lon="110.930701">
        <ele>140.730528</ele>
        <time>2026-08-18T04:47:19.000Z</time>
      </trkpt>
      <trkpt lat="22.907730" lon="110.930745">
        <ele>140.780798</ele>
        <time>2026-08-18T04:47:20.000Z</time>
      </trkpt>
      <trkpt lat="22.907722" lon="110.930788">
        <ele>140.830378</ele>
        <time>2026-08-18T04:47:21.000Z</time>
      </trkpt>
      <trkpt lat="22.907711" lon="110.930832">
        <ele>140.881905</ele>
        <time>2026-08-18T04:47:22.000Z</time>
      </trkpt>
      <trkpt lat="22.907701" lon="110.930874">
        <ele>140.930933</ele>
        <time>2026-08-18T04:47:23.000Z</time>
      </trkpt>
      <trkpt lat="22.907691" lon="110.930918">
        <ele>140.982153</ele>
        <time>2026-08-18T04:47:24.000Z</time>
      </trkpt>
      <trkpt lat="22.907682" lon="110.930962">
        <ele>141.033093</ele>
        <time>2026-08-18T04:47:25.000Z</time>
      </trkpt>
      <trkpt lat="22.907670" lon="110.931005">
        <ele>141.083873</ele>
        <time>2026-08-18T04:47:26.000Z</time>
      </trkpt>
      <trkpt lat="22.907660" lon="110.931051">
        <ele>141.137290</ele>
        <time>2026-08-18T04:47:27.000Z</time>
      </trkpt>
      <trkpt lat="22.907650" lon="110.931098">
        <ele>141.191807</ele>
        <time>2026-08-18T04:47:28.000Z</time>
      </trkpt>
      <trkpt lat="22.907640" lon="110.931144">
        <ele>141.245224</ele>
        <time>2026-08-18T04:47:29.000Z</time>
      </trkpt>
      <trkpt lat="22.907629" lon="110.931189">
        <ele>141.297843</ele>
        <time>2026-08-18T04:47:30.000Z</time>
      </trkpt>
      <trkpt lat="22.907616" lon="110.931234">
        <ele>141.351145</ele>
        <time>2026-08-18T04:47:31.000Z</time>
      </trkpt>
      <trkpt lat="22.907605" lon="110.931279">
        <ele>141.403764</ele>
        <time>2026-08-18T04:47:32.000Z</time>
      </trkpt>
      <trkpt lat="22.907596" lon="110.931325">
        <ele>141.456912</ele>
        <time>2026-08-18T04:47:33.000Z</time>
      </trkpt>
      <trkpt lat="22.907586" lon="110.931368">
        <ele>141.507036</ele>
        <time>2026-08-18T04:47:34.000Z</time>
      </trkpt>
      <trkpt lat="22.907576" lon="110.931412">
        <ele>141.558255</ele>
        <time>2026-08-18T04:47:35.000Z</time>
      </trkpt>
      <trkpt lat="22.907566" lon="110.931456">
        <ele>141.609475</ele>
        <time>2026-08-18T04:47:36.000Z</time>
      </trkpt>
      <trkpt lat="22.907556" lon="110.931500">
        <ele>141.660695</ele>
        <time>2026-08-18T04:47:37.000Z</time>
      </trkpt>
      <trkpt lat="22.907545" lon="110.931545">
        <ele>141.713314</ele>
        <time>2026-08-18T04:47:38.000Z</time>
      </trkpt>
      <trkpt lat="22.907535" lon="110.931589">
        <ele>141.764534</ele>
        <time>2026-08-18T04:47:39.000Z</time>
      </trkpt>
      <trkpt lat="22.907527" lon="110.931633">
        <ele>141.815222</ele>
        <time>2026-08-18T04:47:40.000Z</time>
      </trkpt>
      <trkpt lat="22.907519" lon="110.931677">
        <ele>141.865910</ele>
        <time>2026-08-18T04:47:41.000Z</time>
      </trkpt>
      <trkpt lat="22.907509" lon="110.931722">
        <ele>141.918228</ele>
        <time>2026-08-18T04:47:42.000Z</time>
      </trkpt>
      <trkpt lat="22.907502" lon="110.931768">
        <ele>141.970921</ele>
        <time>2026-08-18T04:47:43.000Z</time>
      </trkpt>
      <trkpt lat="22.907494" lon="110.931813">
        <ele>142.022719</ele>
        <time>2026-08-18T04:47:44.000Z</time>
      </trkpt>
      <trkpt lat="22.907486" lon="110.931858">
        <ele>142.074516</ele>
        <time>2026-08-18T04:47:45.000Z</time>
      </trkpt>
      <trkpt lat="22.907477" lon="110.931902">
        <ele>142.125456</ele>
        <time>2026-08-18T04:47:46.000Z</time>
      </trkpt>
      <trkpt lat="22.907469" lon="110.931947">
        <ele>142.177253</ele>
        <time>2026-08-18T04:47:47.000Z</time>
      </trkpt>
      <trkpt lat="22.907461" lon="110.931992">
        <ele>142.229050</ele>
        <time>2026-08-18T04:47:48.000Z</time>
      </trkpt>
      <trkpt lat="22.907453" lon="110.932037">
        <ele>142.280848</ele>
        <time>2026-08-18T04:47:49.000Z</time>
      </trkpt>
      <trkpt lat="22.907445" lon="110.932083">
        <ele>142.333755</ele>
        <time>2026-08-18T04:47:50.000Z</time>
      </trkpt>
      <trkpt lat="22.907436" lon="110.932129">
        <ele>142.386904</ele>
        <time>2026-08-18T04:47:51.000Z</time>
      </trkpt>
      <trkpt lat="22.907428" lon="110.932175">
        <ele>142.439811</ele>
        <time>2026-08-18T04:47:52.000Z</time>
      </trkpt>
      <trkpt lat="22.907419" lon="110.932222">
        <ele>142.494066</ele>
        <time>2026-08-18T04:47:53.000Z</time>
      </trkpt>
      <trkpt lat="22.907411" lon="110.932270">
        <ele>142.549196</ele>
        <time>2026-08-18T04:47:54.000Z</time>
      </trkpt>
      <trkpt lat="22.907400" lon="110.932313">
        <ele>142.599634</ele>
        <time>2026-08-18T04:47:55.000Z</time>
      </trkpt>
      <trkpt lat="22.907389" lon="110.932356">
        <ele>142.650072</ele>
        <time>2026-08-18T04:47:56.000Z</time>
      </trkpt>
      <trkpt lat="22.907377" lon="110.932403">
        <ele>142.705194</ele>
        <time>2026-08-18T04:47:57.000Z</time>
      </trkpt>
      <trkpt lat="22.907363" lon="110.932448">
        <ele>142.758875</ele>
        <time>2026-08-18T04:47:58.000Z</time>
      </trkpt>
      <trkpt lat="22.907350" lon="110.932492">
        <ele>142.811099</ele>
        <time>2026-08-18T04:47:59.000Z</time>
      </trkpt>
      <trkpt lat="22.907336" lon="110.932537">
        <ele>142.865524</ele>
        <time>2026-08-18T04:48:00.000Z</time>
      </trkpt>
      <trkpt lat="22.907322" lon="110.932581">
        <ele>142.938484</ele>
        <time>2026-08-18T04:48:01.000Z</time>
      </trkpt>
      <trkpt lat="22.907308" lon="110.932626">
        <ele>143.012927</ele>
        <time>2026-08-18T04:48:02.000Z</time>
      </trkpt>
      <trkpt lat="22.907295" lon="110.932671">
        <ele>143.086843</ele>
        <time>2026-08-18T04:48:03.000Z</time>
      </trkpt>
      <trkpt lat="22.907284" lon="110.932715">
        <ele>143.158299</ele>
        <time>2026-08-18T04:48:04.000Z</time>
      </trkpt>
      <trkpt lat="22.907275" lon="110.932760">
        <ele>143.230472</ele>
        <time>2026-08-18T04:48:05.000Z</time>
      </trkpt>
      <trkpt lat="22.907265" lon="110.932806">
        <ele>143.304548</ele>
        <time>2026-08-18T04:48:06.000Z</time>
      </trkpt>
      <trkpt lat="22.907255" lon="110.932849">
        <ele>143.374057</ele>
        <time>2026-08-18T04:48:07.000Z</time>
      </trkpt>
      <trkpt lat="22.907244" lon="110.932892">
        <ele>143.444002</ele>
        <time>2026-08-18T04:48:08.000Z</time>
      </trkpt>
      <trkpt lat="22.907233" lon="110.932934">
        <ele>143.512439</ele>
        <time>2026-08-18T04:48:09.000Z</time>
      </trkpt>
      <trkpt lat="22.907222" lon="110.932976">
        <ele>143.580875</ele>
        <time>2026-08-18T04:48:10.000Z</time>
      </trkpt>
      <trkpt lat="22.907211" lon="110.933018">
        <ele>143.649311</ele>
        <time>2026-08-18T04:48:11.000Z</time>
      </trkpt>
      <trkpt lat="22.907202" lon="110.933063">
        <ele>143.721483</ele>
        <time>2026-08-18T04:48:12.000Z</time>
      </trkpt>
      <trkpt lat="22.907193" lon="110.933110">
        <ele>143.796721</ele>
        <time>2026-08-18T04:48:13.000Z</time>
      </trkpt>
      <trkpt lat="22.907184" lon="110.933153">
        <ele>143.865834</ele>
        <time>2026-08-18T04:48:14.000Z</time>
      </trkpt>
      <trkpt lat="22.907175" lon="110.933195">
        <ele>143.933418</ele>
        <time>2026-08-18T04:48:15.000Z</time>
      </trkpt>
      <trkpt lat="22.907165" lon="110.933240">
        <ele>144.005971</ele>
        <time>2026-08-18T04:48:16.000Z</time>
      </trkpt>
      <trkpt lat="22.907156" lon="110.933284">
        <ele>144.076612</ele>
        <time>2026-08-18T04:48:17.000Z</time>
      </trkpt>
      <trkpt lat="22.907148" lon="110.933327">
        <ele>144.145368</ele>
        <time>2026-08-18T04:48:18.000Z</time>
      </trkpt>
      <trkpt lat="22.907139" lon="110.933371">
        <ele>144.216009</ele>
        <time>2026-08-18T04:48:19.000Z</time>
      </trkpt>
      <trkpt lat="22.907129" lon="110.933415">
        <ele>144.287039</ele>
        <time>2026-08-18T04:48:20.000Z</time>
      </trkpt>
      <trkpt lat="22.907119" lon="110.933458">
        <ele>144.356548</ele>
        <time>2026-08-18T04:48:21.000Z</time>
      </trkpt>
      <trkpt lat="22.907111" lon="110.933500">
        <ele>144.423767</ele>
        <time>2026-08-18T04:48:22.000Z</time>
      </trkpt>
      <trkpt lat="22.907102" lon="110.933542">
        <ele>144.491352</ele>
        <time>2026-08-18T04:48:23.000Z</time>
      </trkpt>
      <trkpt lat="22.907092" lon="110.933585">
        <ele>144.560861</ele>
        <time>2026-08-18T04:48:24.000Z</time>
      </trkpt>
      <trkpt lat="22.907084" lon="110.933629">
        <ele>144.631154</ele>
        <time>2026-08-18T04:48:25.000Z</time>
      </trkpt>
      <trkpt lat="22.907077" lon="110.933671">
        <ele>144.698050</ele>
        <time>2026-08-18T04:48:26.000Z</time>
      </trkpt>
      <trkpt lat="22.907066" lon="110.933711">
        <ele>144.763476</ele>
        <time>2026-08-18T04:48:27.000Z</time>
      </trkpt>
      <trkpt lat="22.907057" lon="110.933752">
        <ele>144.829535</ele>
        <time>2026-08-18T04:48:28.000Z</time>
      </trkpt>
      <trkpt lat="22.907048" lon="110.933795">
        <ele>144.898648</ele>
        <time>2026-08-18T04:48:29.000Z</time>
      </trkpt>
      <trkpt lat="22.907038" lon="110.933838">
        <ele>144.968157</ele>
        <time>2026-08-18T04:48:30.000Z</time>
      </trkpt>
      <trkpt lat="22.907028" lon="110.933879">
        <ele>145.034631</ele>
        <time>2026-08-18T04:48:31.000Z</time>
      </trkpt>
      <trkpt lat="22.907019" lon="110.933922">
        <ele>145.103743</ele>
        <time>2026-08-18T04:48:32.000Z</time>
      </trkpt>
      <trkpt lat="22.907011" lon="110.933965">
        <ele>145.172499</ele>
        <time>2026-08-18T04:48:33.000Z</time>
      </trkpt>
      <trkpt lat="22.907002" lon="110.934007">
        <ele>145.240084</ele>
        <time>2026-08-18T04:48:34.000Z</time>
      </trkpt>
      <trkpt lat="22.906991" lon="110.934048">
        <ele>145.307014</ele>
        <time>2026-08-18T04:48:35.000Z</time>
      </trkpt>
      <trkpt lat="22.906979" lon="110.934091">
        <ele>145.377433</ele>
        <time>2026-08-18T04:48:36.000Z</time>
      </trkpt>
      <trkpt lat="22.906969" lon="110.934134">
        <ele>145.446942</ele>
        <time>2026-08-18T04:48:37.000Z</time>
      </trkpt>
      <trkpt lat="22.906960" lon="110.934175">
        <ele>145.513001</ele>
        <time>2026-08-18T04:48:38.000Z</time>
      </trkpt>
      <trkpt lat="22.906952" lon="110.934216">
        <ele>145.578687</ele>
        <time>2026-08-18T04:48:39.000Z</time>
      </trkpt>
      <trkpt lat="22.906945" lon="110.934256">
        <ele>145.642501</ele>
        <time>2026-08-18T04:48:40.000Z</time>
      </trkpt>
      <trkpt lat="22.906938" lon="110.934297">
        <ele>145.707855</ele>
        <time>2026-08-18T04:48:41.000Z</time>
      </trkpt>
      <trkpt lat="22.906931" lon="110.934337">
        <ele>145.771669</ele>
        <time>2026-08-18T04:48:42.000Z</time>
      </trkpt>
      <trkpt lat="22.906923" lon="110.934376">
        <ele>145.834292</ele>
        <time>2026-08-18T04:48:43.000Z</time>
      </trkpt>
      <trkpt lat="22.906915" lon="110.934415">
        <ele>145.896914</ele>
        <time>2026-08-18T04:48:44.000Z</time>
      </trkpt>
      <trkpt lat="22.906906" lon="110.934454">
        <ele>145.970904</ele>
        <time>2026-08-18T04:48:45.000Z</time>
      </trkpt>
      <trkpt lat="22.906897" lon="110.934491">
        <ele>146.048827</ele>
        <time>2026-08-18T04:48:46.000Z</time>
      </trkpt>
      <trkpt lat="22.906887" lon="110.934529">
        <ele>146.129299</ele>
        <time>2026-08-18T04:48:47.000Z</time>
      </trkpt>
      <trkpt lat="22.906878" lon="110.934566">
        <ele>146.207221</ele>
        <time>2026-08-18T04:48:48.000Z</time>
      </trkpt>
      <trkpt lat="22.906870" lon="110.934605">
        <ele>146.288579</ele>
        <time>2026-08-18T04:48:49.000Z</time>
      </trkpt>
      <trkpt lat="22.906864" lon="110.934644">
        <ele>146.369091</ele>
        <time>2026-08-18T04:48:50.000Z</time>
      </trkpt>
      <trkpt lat="22.906857" lon="110.934682">
        <ele>146.447999</ele>
        <time>2026-08-18T04:48:51.000Z</time>
      </trkpt>
      <trkpt lat="22.906848" lon="110.934719">
        <ele>146.525921</ele>
        <time>2026-08-18T04:48:52.000Z</time>
      </trkpt>
      <trkpt lat="22.906836" lon="110.934756">
        <ele>146.605795</ele>
        <time>2026-08-18T04:48:53.000Z</time>
      </trkpt>
      <trkpt lat="22.906823" lon="110.934793">
        <ele>146.686429</ele>
        <time>2026-08-18T04:48:54.000Z</time>
      </trkpt>
      <trkpt lat="22.906813" lon="110.934829">
        <ele>146.762993</ele>
        <time>2026-08-18T04:48:55.000Z</time>
      </trkpt>
      <trkpt lat="22.906804" lon="110.934867">
        <ele>146.842886</ele>
        <time>2026-08-18T04:48:56.000Z</time>
      </trkpt>
      <trkpt lat="22.906794" lon="110.934906">
        <ele>146.925318</ele>
        <time>2026-08-18T04:48:57.000Z</time>
      </trkpt>
      <trkpt lat="22.906786" lon="110.934945">
        <ele>147.006675</ele>
        <time>2026-08-18T04:48:58.000Z</time>
      </trkpt>
      <trkpt lat="22.906776" lon="110.934983">
        <ele>147.087147</ele>
        <time>2026-08-18T04:48:59.000Z</time>
      </trkpt>
      <trkpt lat="22.906766" lon="110.935021">
        <ele>147.167619</ele>
        <time>2026-08-18T04:49:00.000Z</time>
      </trkpt>
      <trkpt lat="22.906758" lon="110.935061">
        <ele>147.250965</ele>
        <time>2026-08-18T04:49:01.000Z</time>
      </trkpt>
      <trkpt lat="22.906749" lon="110.935099">
        <ele>147.330858</ele>
        <time>2026-08-18T04:49:02.000Z</time>
      </trkpt>
      <trkpt lat="22.906740" lon="110.935138">
        <ele>147.412725</ele>
        <time>2026-08-18T04:49:03.000Z</time>
      </trkpt>
      <trkpt lat="22.906731" lon="110.935179">
        <ele>147.498547</ele>
        <time>2026-08-18T04:49:04.000Z</time>
      </trkpt>
      <trkpt lat="22.906722" lon="110.935217">
        <ele>147.578440</ele>
        <time>2026-08-18T04:49:05.000Z</time>
      </trkpt>
      <trkpt lat="22.906713" lon="110.935256">
        <ele>147.660307</ele>
        <time>2026-08-18T04:49:06.000Z</time>
      </trkpt>
      <trkpt lat="22.906704" lon="110.935296">
        <ele>147.744150</ele>
        <time>2026-08-18T04:49:07.000Z</time>
      </trkpt>
      <trkpt lat="22.906696" lon="110.935336">
        <ele>147.827496</ele>
        <time>2026-08-18T04:49:08.000Z</time>
      </trkpt>
      <trkpt lat="22.906688" lon="110.935375">
        <ele>147.908854</ele>
        <time>2026-08-18T04:49:09.000Z</time>
      </trkpt>
      <trkpt lat="22.906680" lon="110.935416">
        <ele>147.994191</ele>
        <time>2026-08-18T04:49:10.000Z</time>
      </trkpt>
      <trkpt lat="22.906671" lon="110.935455">
        <ele>148.076058</ele>
        <time>2026-08-18T04:49:11.000Z</time>
      </trkpt>
      <trkpt lat="22.906662" lon="110.935495">
        <ele>148.159901</ele>
        <time>2026-08-18T04:49:12.000Z</time>
      </trkpt>
      <trkpt lat="22.906652" lon="110.935534">
        <ele>148.242333</ele>
        <time>2026-08-18T04:49:13.000Z</time>
      </trkpt>
      <trkpt lat="22.906642" lon="110.935573">
        <ele>148.324765</ele>
        <time>2026-08-18T04:49:14.000Z</time>
      </trkpt>
      <trkpt lat="22.906632" lon="110.935612">
        <ele>148.407196</ele>
        <time>2026-08-18T04:49:15.000Z</time>
      </trkpt>
      <trkpt lat="22.906622" lon="110.935653">
        <ele>148.493558</ele>
        <time>2026-08-18T04:49:16.000Z</time>
      </trkpt>
      <trkpt lat="22.906612" lon="110.935690">
        <ele>148.572074</ele>
        <time>2026-08-18T04:49:17.000Z</time>
      </trkpt>
      <trkpt lat="22.906603" lon="110.935726">
        <ele>148.648030</ele>
        <time>2026-08-18T04:49:18.000Z</time>
      </trkpt>
      <trkpt lat="22.906593" lon="110.935763">
        <ele>148.726546</ele>
        <time>2026-08-18T04:49:19.000Z</time>
      </trkpt>
      <trkpt lat="22.906585" lon="110.935800">
        <ele>148.803933</ele>
        <time>2026-08-18T04:49:20.000Z</time>
      </trkpt>
      <trkpt lat="22.906578" lon="110.935838">
        <ele>148.882842</ele>
        <time>2026-08-18T04:49:21.000Z</time>
      </trkpt>
      <trkpt lat="22.906570" lon="110.935879">
        <ele>148.968179</ele>
        <time>2026-08-18T04:49:22.000Z</time>
      </trkpt>
      <trkpt lat="22.906561" lon="110.935920">
        <ele>149.054002</ele>
        <time>2026-08-18T04:49:23.000Z</time>
      </trkpt>
      <trkpt lat="22.906552" lon="110.935960">
        <ele>149.137845</ele>
        <time>2026-08-18T04:49:24.000Z</time>
      </trkpt>
      <trkpt lat="22.906546" lon="110.936002">
        <ele>149.224389</ele>
        <time>2026-08-18T04:49:25.000Z</time>
      </trkpt>
      <trkpt lat="22.906538" lon="110.936043">
        <ele>149.309726</ele>
        <time>2026-08-18T04:49:26.000Z</time>
      </trkpt>
      <trkpt lat="22.906531" lon="110.936084">
        <ele>149.394633</ele>
        <time>2026-08-18T04:49:27.000Z</time>
      </trkpt>
      <trkpt lat="22.906525" lon="110.936123">
        <ele>149.475145</ele>
        <time>2026-08-18T04:49:28.000Z</time>
      </trkpt>
      <trkpt lat="22.906518" lon="110.936162">
        <ele>149.556051</ele>
        <time>2026-08-18T04:49:29.000Z</time>
      </trkpt>
      <trkpt lat="22.906512" lon="110.936201">
        <ele>149.636564</ele>
        <time>2026-08-18T04:49:30.000Z</time>
      </trkpt>
      <trkpt lat="22.906505" lon="110.936243">
        <ele>149.723474</ele>
        <time>2026-08-18T04:49:31.000Z</time>
      </trkpt>
      <trkpt lat="22.906499" lon="110.936285">
        <ele>149.810017</ele>
        <time>2026-08-18T04:49:32.000Z</time>
      </trkpt>
      <trkpt lat="22.906492" lon="110.936327">
        <ele>149.896927</ele>
        <time>2026-08-18T04:49:33.000Z</time>
      </trkpt>
      <trkpt lat="22.906485" lon="110.936367">
        <ele>149.993329</ele>
        <time>2026-08-18T04:49:34.000Z</time>
      </trkpt>
      <trkpt lat="22.906478" lon="110.936406">
        <ele>150.087780</ele>
        <time>2026-08-18T04:49:35.000Z</time>
      </trkpt>
      <trkpt lat="22.906471" lon="110.936447">
        <ele>150.186901</ele>
        <time>2026-08-18T04:49:36.000Z</time>
      </trkpt>
      <trkpt lat="22.906465" lon="110.936490">
        <ele>150.290283</ele>
        <time>2026-08-18T04:49:37.000Z</time>
      </trkpt>
      <trkpt lat="22.906460" lon="110.936532">
        <ele>150.390952</ele>
        <time>2026-08-18T04:49:38.000Z</time>
      </trkpt>
      <trkpt lat="22.906454" lon="110.936571">
        <ele>150.484943</ele>
        <time>2026-08-18T04:49:39.000Z</time>
      </trkpt>
      <trkpt lat="22.906449" lon="110.936611">
        <ele>150.580899</ele>
        <time>2026-08-18T04:49:40.000Z</time>
      </trkpt>
      <trkpt lat="22.906443" lon="110.936651">
        <ele>150.677235</ele>
        <time>2026-08-18T04:49:41.000Z</time>
      </trkpt>
      <trkpt lat="22.906440" lon="110.936691">
        <ele>150.772634</ele>
        <time>2026-08-18T04:49:42.000Z</time>
      </trkpt>
      <trkpt lat="22.906435" lon="110.936731">
        <ele>150.868590</ele>
        <time>2026-08-18T04:49:43.000Z</time>
      </trkpt>
      <trkpt lat="22.906430" lon="110.936771">
        <ele>150.964546</ele>
        <time>2026-08-18T04:49:44.000Z</time>
      </trkpt>
      <trkpt lat="22.906427" lon="110.936811">
        <ele>151.059944</ele>
        <time>2026-08-18T04:49:45.000Z</time>
      </trkpt>
      <trkpt lat="22.906423" lon="110.936849">
        <ele>151.150862</ele>
        <time>2026-08-18T04:49:46.000Z</time>
      </trkpt>
      <trkpt lat="22.906419" lon="110.936888">
        <ele>151.244142</ele>
        <time>2026-08-18T04:49:47.000Z</time>
      </trkpt>
      <trkpt lat="22.906416" lon="110.936928">
        <ele>151.339541</ele>
        <time>2026-08-18T04:49:48.000Z</time>
      </trkpt>
      <trkpt lat="22.906413" lon="110.936967">
        <ele>151.432571</ele>
        <time>2026-08-18T04:49:49.000Z</time>
      </trkpt>
      <trkpt lat="22.906409" lon="110.937004">
        <ele>151.521128</ele>
        <time>2026-08-18T04:49:50.000Z</time>
      </trkpt>
      <trkpt lat="22.906405" lon="110.937043">
        <ele>151.614408</ele>
        <time>2026-08-18T04:49:51.000Z</time>
      </trkpt>
      <trkpt lat="22.906401" lon="110.937083">
        <ele>151.710051</ele>
        <time>2026-08-18T04:49:52.000Z</time>
      </trkpt>
      <trkpt lat="22.906398" lon="110.937121">
        <ele>151.800712</ele>
        <time>2026-08-18T04:49:53.000Z</time>
      </trkpt>
      <trkpt lat="22.906397" lon="110.937161">
        <ele>151.895831</ele>
        <time>2026-08-18T04:49:54.000Z</time>
      </trkpt>
      <trkpt lat="22.906396" lon="110.937205">
        <ele>152.000456</ele>
        <time>2026-08-18T04:49:55.000Z</time>
      </trkpt>
      <trkpt lat="22.906398" lon="110.937242">
        <ele>152.088560</ele>
        <time>2026-08-18T04:49:56.000Z</time>
      </trkpt>
      <trkpt lat="22.906403" lon="110.937282">
        <ele>152.184516</ele>
        <time>2026-08-18T04:49:57.000Z</time>
      </trkpt>
      <trkpt lat="22.906406" lon="110.937323">
        <ele>152.282284</ele>
        <time>2026-08-18T04:49:58.000Z</time>
      </trkpt>
      <trkpt lat="22.906410" lon="110.937364">
        <ele>152.380290</ele>
        <time>2026-08-18T04:49:59.000Z</time>
      </trkpt>
      <trkpt lat="22.906414" lon="110.937408">
        <ele>152.485391</ele>
        <time>2026-08-18T04:50:00.000Z</time>
      </trkpt>
      <trkpt lat="22.906417" lon="110.937450">
        <ele>152.585529</ele>
        <time>2026-08-18T04:50:01.000Z</time>
      </trkpt>
      <trkpt lat="22.906420" lon="110.937491">
        <ele>152.683298</ele>
        <time>2026-08-18T04:50:02.000Z</time>
      </trkpt>
      <trkpt lat="22.906421" lon="110.937532">
        <ele>152.780793</ele>
        <time>2026-08-18T04:50:03.000Z</time>
      </trkpt>
      <trkpt lat="22.906424" lon="110.937573">
        <ele>152.878562</ele>
        <time>2026-08-18T04:50:04.000Z</time>
      </trkpt>
      <trkpt lat="22.906429" lon="110.937615">
        <ele>152.979230</ele>
        <time>2026-08-18T04:50:05.000Z</time>
      </trkpt>
      <trkpt lat="22.906434" lon="110.937654">
        <ele>153.072831</ele>
        <time>2026-08-18T04:50:06.000Z</time>
      </trkpt>
      <trkpt lat="22.906440" lon="110.937691">
        <ele>153.162136</ele>
        <time>2026-08-18T04:50:07.000Z</time>
      </trkpt>
      <trkpt lat="22.906445" lon="110.937730">
        <ele>153.255737</ele>
        <time>2026-08-18T04:50:08.000Z</time>
      </trkpt>
      <trkpt lat="22.906451" lon="110.937767">
        <ele>153.345043</ele>
        <time>2026-08-18T04:50:09.000Z</time>
      </trkpt>
      <trkpt lat="22.906457" lon="110.937805">
        <ele>153.436690</ele>
        <time>2026-08-18T04:50:10.000Z</time>
      </trkpt>
      <trkpt lat="22.906463" lon="110.937846">
        <ele>153.535374</ele>
        <time>2026-08-18T04:50:11.000Z</time>
      </trkpt>
      <trkpt lat="22.906465" lon="110.937890">
        <ele>153.640094</ele>
        <time>2026-08-18T04:50:12.000Z</time>
      </trkpt>
      <trkpt lat="22.906469" lon="110.937931">
        <ele>153.738100</ele>
        <time>2026-08-18T04:50:13.000Z</time>
      </trkpt>
      <trkpt lat="22.906473" lon="110.937970">
        <ele>153.831380</ele>
        <time>2026-08-18T04:50:14.000Z</time>
      </trkpt>
      <trkpt lat="22.906479" lon="110.938008">
        <ele>153.923027</ele>
        <time>2026-08-18T04:50:15.000Z</time>
      </trkpt>
      <trkpt lat="22.906485" lon="110.938044">
        <ele>154.009993</ele>
        <time>2026-08-18T04:50:16.000Z</time>
      </trkpt>
      <trkpt lat="22.906494" lon="110.938076">
        <ele>154.089527</ele>
        <time>2026-08-18T04:50:17.000Z</time>
      </trkpt>
      <trkpt lat="22.906500" lon="110.938110">
        <ele>154.171818</ele>
        <time>2026-08-18T04:50:18.000Z</time>
      </trkpt>
      <trkpt lat="22.906507" lon="110.938145">
        <ele>154.256955</ele>
        <time>2026-08-18T04:50:19.000Z</time>
      </trkpt>
      <trkpt lat="22.906514" lon="110.938180">
        <ele>154.342092</ele>
        <time>2026-08-18T04:50:20.000Z</time>
      </trkpt>
      <trkpt lat="22.906521" lon="110.938215">
        <ele>154.427229</ele>
        <time>2026-08-18T04:50:21.000Z</time>
      </trkpt>
      <trkpt lat="22.906528" lon="110.938250">
        <ele>154.512367</ele>
        <time>2026-08-18T04:50:22.000Z</time>
      </trkpt>
      <trkpt lat="22.906535" lon="110.938284">
        <ele>154.603343</ele>
        <time>2026-08-18T04:50:23.000Z</time>
      </trkpt>
      <trkpt lat="22.906545" lon="110.938316">
        <ele>154.695723</ele>
        <time>2026-08-18T04:50:24.000Z</time>
      </trkpt>
      <trkpt lat="22.906552" lon="110.938351">
        <ele>154.793636</ele>
        <time>2026-08-18T04:50:25.000Z</time>
      </trkpt>
      <trkpt lat="22.906561" lon="110.938384">
        <ele>154.887724</ele>
        <time>2026-08-18T04:50:26.000Z</time>
      </trkpt>
      <trkpt lat="22.906568" lon="110.938418">
        <ele>154.982968</ele>
        <time>2026-08-18T04:50:27.000Z</time>
      </trkpt>
      <trkpt lat="22.906577" lon="110.938449">
        <ele>155.071826</ele>
        <time>2026-08-18T04:50:28.000Z</time>
      </trkpt>
      <trkpt lat="22.906585" lon="110.938481">
        <ele>155.162474</ele>
        <time>2026-08-18T04:50:29.000Z</time>
      </trkpt>
      <trkpt lat="22.906593" lon="110.938514">
        <ele>155.255762</ele>
        <time>2026-08-18T04:50:30.000Z</time>
      </trkpt>
      <trkpt lat="22.906602" lon="110.938547">
        <ele>155.349850</ele>
        <time>2026-08-18T04:50:31.000Z</time>
      </trkpt>
      <trkpt lat="22.906609" lon="110.938580">
        <ele>155.442428</ele>
        <time>2026-08-18T04:50:32.000Z</time>
      </trkpt>
      <trkpt lat="22.906617" lon="110.938612">
        <ele>155.533075</ele>
        <time>2026-08-18T04:50:33.000Z</time>
      </trkpt>
      <trkpt lat="22.906628" lon="110.938643">
        <ele>155.623895</ele>
        <time>2026-08-18T04:50:34.000Z</time>
      </trkpt>
      <trkpt lat="22.906636" lon="110.938675">
        <ele>155.714542</ele>
        <time>2026-08-18T04:50:35.000Z</time>
      </trkpt>
      <trkpt lat="22.906646" lon="110.938707">
        <ele>155.806922</ele>
        <time>2026-08-18T04:50:36.000Z</time>
      </trkpt>
      <trkpt lat="22.906657" lon="110.938738">
        <ele>155.897741</ele>
        <time>2026-08-18T04:50:37.000Z</time>
      </trkpt>
      <trkpt lat="22.906670" lon="110.938770">
        <ele>155.993354</ele>
        <time>2026-08-18T04:50:38.000Z</time>
      </trkpt>
      <trkpt lat="22.906682" lon="110.938802">
        <ele>156.087808</ele>
        <time>2026-08-18T04:50:39.000Z</time>
      </trkpt>
      <trkpt lat="22.906693" lon="110.938834">
        <ele>156.181184</ele>
        <time>2026-08-18T04:50:40.000Z</time>
      </trkpt>
      <trkpt lat="22.906703" lon="110.938864">
        <ele>156.268404</ele>
        <time>2026-08-18T04:50:41.000Z</time>
      </trkpt>
      <trkpt lat="22.906715" lon="110.938894">
        <ele>156.357818</ele>
        <time>2026-08-18T04:50:42.000Z</time>
      </trkpt>
      <trkpt lat="22.906725" lon="110.938924">
        <ele>156.445038</ele>
        <time>2026-08-18T04:50:43.000Z</time>
      </trkpt>
      <trkpt lat="22.906735" lon="110.938955">
        <ele>156.534833</ele>
        <time>2026-08-18T04:50:44.000Z</time>
      </trkpt>
      <trkpt lat="22.906745" lon="110.938985">
        <ele>156.622053</ele>
        <time>2026-08-18T04:50:45.000Z</time>
      </trkpt>
      <trkpt lat="22.906756" lon="110.939013">
        <ele>156.705271</ele>
        <time>2026-08-18T04:50:46.000Z</time>
      </trkpt>
      <trkpt lat="22.906768" lon="110.939043">
        <ele>156.794685</ele>
        <time>2026-08-18T04:50:47.000Z</time>
      </trkpt>
      <trkpt lat="22.906777" lon="110.939073">
        <ele>156.880940</ele>
        <time>2026-08-18T04:50:48.000Z</time>
      </trkpt>
      <trkpt lat="22.906788" lon="110.939103">
        <ele>156.969213</ele>
        <time>2026-08-18T04:50:49.000Z</time>
      </trkpt>
      <trkpt lat="22.906798" lon="110.939133">
        <ele>157.056433</ele>
        <time>2026-08-18T04:50:50.000Z</time>
      </trkpt>
      <trkpt lat="22.906806" lon="110.939165">
        <ele>157.147080</ele>
        <time>2026-08-18T04:50:51.000Z</time>
      </trkpt>
      <trkpt lat="22.906805" lon="110.939199">
        <ele>157.240078</ele>
        <time>2026-08-18T04:50:52.000Z</time>
      </trkpt>
      <trkpt lat="22.906812" lon="110.939230">
        <ele>157.327336</ele>
        <time>2026-08-18T04:50:53.000Z</time>
      </trkpt>
      <trkpt lat="22.906821" lon="110.939260">
        <ele>157.413591</ele>
        <time>2026-08-18T04:50:54.000Z</time>
      </trkpt>
      <trkpt lat="22.906833" lon="110.939291">
        <ele>157.505519</ele>
        <time>2026-08-18T04:50:55.000Z</time>
      </trkpt>
      <trkpt lat="22.906848" lon="110.939319">
        <ele>157.594070</ele>
        <time>2026-08-18T04:50:56.000Z</time>
      </trkpt>
      <trkpt lat="22.906861" lon="110.939349">
        <ele>157.684707</ele>
        <time>2026-08-18T04:50:57.000Z</time>
      </trkpt>
      <trkpt lat="22.906873" lon="110.939378">
        <ele>157.771620</ele>
        <time>2026-08-18T04:50:58.000Z</time>
      </trkpt>
      <trkpt lat="22.906887" lon="110.939407">
        <ele>157.861129</ele>
        <time>2026-08-18T04:50:59.000Z</time>
      </trkpt>
      <trkpt lat="22.906901" lon="110.939436">
        <ele>157.950639</ele>
        <time>2026-08-18T04:51:00.000Z</time>
      </trkpt>
      <trkpt lat="22.906912" lon="110.939466">
        <ele>158.038912</ele>
        <time>2026-08-18T04:51:01.000Z</time>
      </trkpt>
      <trkpt lat="22.906926" lon="110.939495">
        <ele>158.128422</ele>
        <time>2026-08-18T04:51:02.000Z</time>
      </trkpt>
      <trkpt lat="22.906936" lon="110.939525">
        <ele>158.215641</ele>
        <time>2026-08-18T04:51:03.000Z</time>
      </trkpt>
      <trkpt lat="22.906948" lon="110.939555">
        <ele>158.305055</ele>
        <time>2026-08-18T04:51:04.000Z</time>
      </trkpt>
      <trkpt lat="22.906960" lon="110.939584">
        <ele>158.391968</ele>
        <time>2026-08-18T04:51:05.000Z</time>
      </trkpt>
      <trkpt lat="22.906975" lon="110.939611">
        <ele>158.478167</ele>
        <time>2026-08-18T04:51:06.000Z</time>
      </trkpt>
      <trkpt lat="22.906991" lon="110.939635">
        <ele>158.559160</ele>
        <time>2026-08-18T04:51:07.000Z</time>
      </trkpt>
      <trkpt lat="22.907006" lon="110.939661">
        <ele>158.643030</ele>
        <time>2026-08-18T04:51:08.000Z</time>
      </trkpt>
      <trkpt lat="22.907016" lon="110.939688">
        <ele>158.722586</ele>
        <time>2026-08-18T04:51:09.000Z</time>
      </trkpt>
      <trkpt lat="22.907028" lon="110.939715">
        <ele>158.804542</ele>
        <time>2026-08-18T04:51:10.000Z</time>
      </trkpt>
      <trkpt lat="22.907035" lon="110.939744">
        <ele>158.886500</ele>
        <time>2026-08-18T04:51:11.000Z</time>
      </trkpt>
      <trkpt lat="22.907043" lon="110.939769">
        <ele>158.958852</ele>
        <time>2026-08-18T04:51:12.000Z</time>
      </trkpt>
      <trkpt lat="22.907056" lon="110.939792">
        <ele>159.032624</ele>
        <time>2026-08-18T04:51:13.000Z</time>
      </trkpt>
      <trkpt lat="22.907065" lon="110.939815">
        <ele>159.100940</ele>
        <time>2026-08-18T04:51:14.000Z</time>
      </trkpt>
      <trkpt lat="22.907073" lon="110.939838">
        <ele>159.168152</ele>
        <time>2026-08-18T04:51:15.000Z</time>
      </trkpt>
      <trkpt lat="22.907084" lon="110.939860">
        <ele>159.236585</ele>
        <time>2026-08-18T04:51:16.000Z</time>
      </trkpt>
      <trkpt lat="22.907095" lon="110.939882">
        <ele>159.305018</ele>
        <time>2026-08-18T04:51:17.000Z</time>
      </trkpt>
      <trkpt lat="22.907105" lon="110.939905">
        <ele>159.374549</ele>
        <time>2026-08-18T04:51:18.000Z</time>
      </trkpt>
      <trkpt lat="22.907116" lon="110.939929">
        <ele>159.447834</ele>
        <time>2026-08-18T04:51:19.000Z</time>
      </trkpt>
      <trkpt lat="22.907127" lon="110.939952">
        <ele>159.518682</ele>
        <time>2026-08-18T04:51:20.000Z</time>
      </trkpt>
      <trkpt lat="22.907138" lon="110.939976">
        <ele>159.591967</ele>
        <time>2026-08-18T04:51:21.000Z</time>
      </trkpt>
      <trkpt lat="22.907149" lon="110.940000">
        <ele>159.665252</ele>
        <time>2026-08-18T04:51:22.000Z</time>
      </trkpt>
      <trkpt lat="22.907155" lon="110.940024">
        <ele>159.733237</ele>
        <time>2026-08-18T04:51:23.000Z</time>
      </trkpt>
      <trkpt lat="22.907160" lon="110.940047">
        <ele>159.797843</ele>
        <time>2026-08-18T04:51:24.000Z</time>
      </trkpt>
      <trkpt lat="22.907169" lon="110.940072">
        <ele>159.871222</ele>
        <time>2026-08-18T04:51:25.000Z</time>
      </trkpt>
      <trkpt lat="22.907179" lon="110.940096">
        <ele>159.946985</ele>
        <time>2026-08-18T04:51:26.000Z</time>
      </trkpt>
      <trkpt lat="22.907192" lon="110.940121">
        <ele>160.030048</ele>
        <time>2026-08-18T04:51:27.000Z</time>
      </trkpt>
      <trkpt lat="22.907199" lon="110.940141">
        <ele>160.091952</ele>
        <time>2026-08-18T04:51:28.000Z</time>
      </trkpt>
      <trkpt lat="22.907209" lon="110.940163">
        <ele>160.162934</ele>
        <time>2026-08-18T04:51:29.000Z</time>
      </trkpt>
      <trkpt lat="22.907218" lon="110.940187">
        <ele>160.237908</ele>
        <time>2026-08-18T04:51:30.000Z</time>
      </trkpt>
      <trkpt lat="22.907230" lon="110.940212">
        <ele>160.319473</ele>
        <time>2026-08-18T04:51:31.000Z</time>
      </trkpt>
      <trkpt lat="22.907249" lon="110.940235">
        <ele>160.408861</ele>
        <time>2026-08-18T04:51:32.000Z</time>
      </trkpt>
      <trkpt lat="22.907263" lon="110.940259">
        <ele>160.491054</ele>
        <time>2026-08-18T04:51:33.000Z</time>
      </trkpt>
      <trkpt lat="22.907274" lon="110.940287">
        <ele>160.579128</ele>
        <time>2026-08-18T04:51:34.000Z</time>
      </trkpt>
      <trkpt lat="22.907289" lon="110.940315">
        <ele>160.672846</ele>
        <time>2026-08-18T04:51:35.000Z</time>
      </trkpt>
      <trkpt lat="22.907302" lon="110.940344">
        <ele>160.766162</ele>
        <time>2026-08-18T04:51:36.000Z</time>
      </trkpt>
      <trkpt lat="22.907318" lon="110.940372">
        <ele>160.861498</ele>
        <time>2026-08-18T04:51:37.000Z</time>
      </trkpt>
      <trkpt lat="22.907332" lon="110.940400">
        <ele>160.953677</ele>
        <time>2026-08-18T04:51:38.000Z</time>
      </trkpt>
      <trkpt lat="22.907347" lon="110.940426">
        <ele>161.042441</ele>
        <time>2026-08-18T04:51:39.000Z</time>
      </trkpt>
      <trkpt lat="22.907362" lon="110.940452">
        <ele>161.131204</ele>
        <time>2026-08-18T04:51:40.000Z</time>
      </trkpt>
      <trkpt lat="22.907379" lon="110.940478">
        <ele>161.223456</ele>
        <time>2026-08-18T04:51:41.000Z</time>
      </trkpt>
      <trkpt lat="22.907394" lon="110.940504">
        <ele>161.312220</ele>
        <time>2026-08-18T04:51:42.000Z</time>
      </trkpt>
      <trkpt lat="22.907408" lon="110.940529">
        <ele>161.396872</ele>
        <time>2026-08-18T04:51:43.000Z</time>
      </trkpt>
      <trkpt lat="22.907422" lon="110.940556">
        <ele>161.486519</ele>
        <time>2026-08-18T04:51:44.000Z</time>
      </trkpt>
      <trkpt lat="22.907434" lon="110.940583">
        <ele>161.573257</ele>
        <time>2026-08-18T04:51:45.000Z</time>
      </trkpt>
      <trkpt lat="22.907446" lon="110.940612">
        <ele>161.665241</ele>
        <time>2026-08-18T04:51:46.000Z</time>
      </trkpt>
      <trkpt lat="22.907456" lon="110.940639">
        <ele>161.749440</ele>
        <time>2026-08-18T04:51:47.000Z</time>
      </trkpt>
      <trkpt lat="22.907468" lon="110.940662">
        <ele>161.825920</ele>
        <time>2026-08-18T04:51:48.000Z</time>
      </trkpt>
      <trkpt lat="22.907482" lon="110.940686">
        <ele>161.908113</ele>
        <time>2026-08-18T04:51:49.000Z</time>
      </trkpt>
      <trkpt lat="22.907498" lon="110.940710">
        <ele>161.993832</ele>
        <time>2026-08-18T04:51:50.000Z</time>
      </trkpt>
      <trkpt lat="22.907512" lon="110.940736">
        <ele>162.080969</ele>
        <time>2026-08-18T04:51:51.000Z</time>
      </trkpt>
      <trkpt lat="22.907525" lon="110.940762">
        <ele>162.166563</ele>
        <time>2026-08-18T04:51:52.000Z</time>
      </trkpt>
      <trkpt lat="22.907537" lon="110.940788">
        <ele>162.250705</ele>
        <time>2026-08-18T04:51:53.000Z</time>
      </trkpt>
      <trkpt lat="22.907552" lon="110.940815">
        <ele>162.341934</ele>
        <time>2026-08-18T04:51:54.000Z</time>
      </trkpt>
      <trkpt lat="22.907568" lon="110.940843">
        <ele>162.437270</ele>
        <time>2026-08-18T04:51:55.000Z</time>
      </trkpt>
      <trkpt lat="22.907585" lon="110.940869">
        <ele>162.529521</ele>
        <time>2026-08-18T04:51:56.000Z</time>
      </trkpt>
      <trkpt lat="22.907600" lon="110.940896">
        <ele>162.620750</ele>
        <time>2026-08-18T04:51:57.000Z</time>
      </trkpt>
      <trkpt lat="22.907614" lon="110.940922">
        <ele>162.707887</ele>
        <time>2026-08-18T04:51:58.000Z</time>
      </trkpt>
      <trkpt lat="22.907629" lon="110.940948">
        <ele>162.796651</ele>
        <time>2026-08-18T04:51:59.000Z</time>
      </trkpt>
      <trkpt lat="22.907645" lon="110.940973">
        <ele>162.884729</ele>
        <time>2026-08-18T04:52:00.000Z</time>
      </trkpt>
      <trkpt lat="22.907659" lon="110.941000">
        <ele>162.974376</ele>
        <time>2026-08-18T04:52:01.000Z</time>
      </trkpt>
      <trkpt lat="22.907672" lon="110.941026">
        <ele>163.059971</ele>
        <time>2026-08-18T04:52:02.000Z</time>
      </trkpt>
      <trkpt lat="22.907685" lon="110.941053">
        <ele>163.148119</ele>
        <time>2026-08-18T04:52:03.000Z</time>
      </trkpt>
      <trkpt lat="22.907697" lon="110.941079">
        <ele>163.232261</ele>
        <time>2026-08-18T04:52:04.000Z</time>
      </trkpt>
      <trkpt lat="22.907711" lon="110.941106">
        <ele>163.321907</ele>
        <time>2026-08-18T04:52:05.000Z</time>
      </trkpt>
      <trkpt lat="22.907728" lon="110.941133">
        <ele>163.416533</ele>
        <time>2026-08-18T04:52:06.000Z</time>
      </trkpt>
      <trkpt lat="22.907743" lon="110.941161">
        <ele>163.510251</ele>
        <time>2026-08-18T04:52:07.000Z</time>
      </trkpt>
      <trkpt lat="22.907759" lon="110.941190">
        <ele>163.608058</ele>
        <time>2026-08-18T04:52:08.000Z</time>
      </trkpt>
      <trkpt lat="22.907775" lon="110.941215">
        <ele>163.696137</ele>
        <time>2026-08-18T04:52:09.000Z</time>
      </trkpt>
      <trkpt lat="22.907792" lon="110.941241">
        <ele>163.788388</ele>
        <time>2026-08-18T04:52:10.000Z</time>
      </trkpt>
      <trkpt lat="22.907806" lon="110.941271">
        <ele>163.885692</ele>
        <time>2026-08-18T04:52:11.000Z</time>
      </trkpt>
      <trkpt lat="22.907814" lon="110.941299">
        <ele>163.970513</ele>
        <time>2026-08-18T04:52:12.000Z</time>
      </trkpt>
      <trkpt lat="22.907827" lon="110.941330">
        <ele>164.069064</ele>
        <time>2026-08-18T04:52:13.000Z</time>
      </trkpt>
      <trkpt lat="22.907840" lon="110.941363">
        <ele>164.172909</ele>
        <time>2026-08-18T04:52:14.000Z</time>
      </trkpt>
      <trkpt lat="22.907851" lon="110.941396">
        <ele>164.274449</ele>
        <time>2026-08-18T04:52:15.000Z</time>
      </trkpt>
      <trkpt lat="22.907865" lon="110.941426">
        <ele>164.371752</ele>
        <time>2026-08-18T04:52:16.000Z</time>
      </trkpt>
      <trkpt lat="22.907877" lon="110.941457">
        <ele>164.469044</ele>
        <time>2026-08-18T04:52:17.000Z</time>
      </trkpt>
      <trkpt lat="22.907887" lon="110.941488">
        <ele>164.564078</ele>
        <time>2026-08-18T04:52:18.000Z</time>
      </trkpt>
      <trkpt lat="22.907900" lon="110.941521">
        <ele>164.667923</ele>
        <time>2026-08-18T04:52:19.000Z</time>
      </trkpt>
      <trkpt lat="22.907909" lon="110.941555">
        <ele>164.770278</ele>
        <time>2026-08-18T04:52:20.000Z</time>
      </trkpt>
      <trkpt lat="22.907921" lon="110.941587">
        <ele>164.870243</ele>
        <time>2026-08-18T04:52:21.000Z</time>
      </trkpt>
      <trkpt lat="22.907936" lon="110.941621">
        <ele>164.979317</ele>
        <time>2026-08-18T04:52:22.000Z</time>
      </trkpt>
      <trkpt lat="22.907950" lon="110.941653">
        <ele>165.081816</ele>
        <time>2026-08-18T04:52:23.000Z</time>
      </trkpt>
      <trkpt lat="22.907964" lon="110.941687">
        <ele>165.189571</ele>
        <time>2026-08-18T04:52:24.000Z</time>
      </trkpt>
      <trkpt lat="22.907983" lon="110.941720">
        <ele>165.302168</ele>
        <time>2026-08-18T04:52:25.000Z</time>
      </trkpt>
      <trkpt lat="22.907999" lon="110.941752">
        <ele>165.407515</ele>
        <time>2026-08-18T04:52:26.000Z</time>
      </trkpt>
      <trkpt lat="22.908016" lon="110.941784">
        <ele>165.514396</ele>
        <time>2026-08-18T04:52:27.000Z</time>
      </trkpt>
      <trkpt lat="22.908030" lon="110.941817">
        <ele>165.593941</ele>
        <time>2026-08-18T04:52:28.000Z</time>
      </trkpt>
      <trkpt lat="22.908043" lon="110.941852">
        <ele>165.672412</ele>
        <time>2026-08-18T04:52:29.000Z</time>
      </trkpt>
      <trkpt lat="22.908053" lon="110.941885">
        <ele>165.744649</ele>
        <time>2026-08-18T04:52:30.000Z</time>
      </trkpt>
      <trkpt lat="22.908066" lon="110.941920">
        <ele>165.823120</ele>
        <time>2026-08-18T04:52:31.000Z</time>
      </trkpt>
      <trkpt lat="22.908077" lon="110.941957">
        <ele>165.903964</ele>
        <time>2026-08-18T04:52:32.000Z</time>
      </trkpt>
      <trkpt lat="22.908087" lon="110.941993">
        <ele>165.982150</ele>
        <time>2026-08-18T04:52:33.000Z</time>
      </trkpt>
      <trkpt lat="22.908096" lon="110.942028">
        <ele>166.057710</ele>
        <time>2026-08-18T04:52:34.000Z</time>
      </trkpt>
      <trkpt lat="22.908107" lon="110.942061">
        <ele>166.130684</ele>
        <time>2026-08-18T04:52:35.000Z</time>
      </trkpt>
      <trkpt lat="22.908118" lon="110.942095">
        <ele>166.205616</ele>
        <time>2026-08-18T04:52:36.000Z</time>
      </trkpt>
      <trkpt lat="22.908130" lon="110.942129">
        <ele>166.281326</ele>
        <time>2026-08-18T04:52:37.000Z</time>
      </trkpt>
      <trkpt lat="22.908141" lon="110.942162">
        <ele>166.354299</ele>
        <time>2026-08-18T04:52:38.000Z</time>
      </trkpt>
      <trkpt lat="22.908150" lon="110.942197">
        <ele>166.429859</ele>
        <time>2026-08-18T04:52:39.000Z</time>
      </trkpt>
      <trkpt lat="22.908161" lon="110.942233">
        <ele>166.508727</ele>
        <time>2026-08-18T04:52:40.000Z</time>
      </trkpt>
      <trkpt lat="22.908173" lon="110.942271">
        <ele>166.592257</ele>
        <time>2026-08-18T04:52:41.000Z</time>
      </trkpt>
      <trkpt lat="22.908184" lon="110.942306">
        <ele>166.669153</ele>
        <time>2026-08-18T04:52:42.000Z</time>
      </trkpt>
      <trkpt lat="22.908196" lon="110.942340">
        <ele>166.744863</ele>
        <time>2026-08-18T04:52:43.000Z</time>
      </trkpt>
      <trkpt lat="22.908208" lon="110.942374">
        <ele>166.820573</ele>
        <time>2026-08-18T04:52:44.000Z</time>
      </trkpt>
      <trkpt lat="22.908219" lon="110.942407">
        <ele>166.893547</ele>
        <time>2026-08-18T04:52:45.000Z</time>
      </trkpt>
      <trkpt lat="22.908229" lon="110.942440">
        <ele>166.965783</ele>
        <time>2026-08-18T04:52:46.000Z</time>
      </trkpt>
      <trkpt lat="22.908239" lon="110.942474">
        <ele>167.039998</ele>
        <time>2026-08-18T04:52:47.000Z</time>
      </trkpt>
      <trkpt lat="22.908248" lon="110.942506">
        <ele>167.109569</ele>
        <time>2026-08-18T04:52:48.000Z</time>
      </trkpt>
      <trkpt lat="22.908258" lon="110.942539">
        <ele>167.181806</ele>
        <time>2026-08-18T04:52:49.000Z</time>
      </trkpt>
      <trkpt lat="22.908268" lon="110.942573">
        <ele>167.256020</ele>
        <time>2026-08-18T04:52:50.000Z</time>
      </trkpt>
      <trkpt lat="22.908279" lon="110.942606">
        <ele>167.328993</ele>
        <time>2026-08-18T04:52:51.000Z</time>
      </trkpt>
      <trkpt lat="22.908288" lon="110.942638">
        <ele>167.398565</ele>
        <time>2026-08-18T04:52:52.000Z</time>
      </trkpt>
      <trkpt lat="22.908296" lon="110.942672">
        <ele>167.471533</ele>
        <time>2026-08-18T04:52:53.000Z</time>
      </trkpt>
      <trkpt lat="22.908304" lon="110.942706">
        <ele>167.544501</ele>
        <time>2026-08-18T04:52:54.000Z</time>
      </trkpt>
      <trkpt lat="22.908312" lon="110.942740">
        <ele>167.617469</ele>
        <time>2026-08-18T04:52:55.000Z</time>
      </trkpt>
      <trkpt lat="22.908320" lon="110.942776">
        <ele>167.694473</ele>
        <time>2026-08-18T04:52:56.000Z</time>
      </trkpt>
      <trkpt lat="22.908329" lon="110.942812">
        <ele>167.772038</ele>
        <time>2026-08-18T04:52:57.000Z</time>
      </trkpt>
      <trkpt lat="22.908338" lon="110.942847">
        <ele>167.847598</ele>
        <time>2026-08-18T04:52:58.000Z</time>
      </trkpt>
      <trkpt lat="22.908347" lon="110.942882">
        <ele>167.923158</ele>
        <time>2026-08-18T04:52:59.000Z</time>
      </trkpt>
      <trkpt lat="22.908356" lon="110.942918">
        <ele>168.000722</ele>
        <time>2026-08-18T04:53:00.000Z</time>
      </trkpt>
      <trkpt lat="22.908362" lon="110.942954">
        <ele>168.076794</ele>
        <time>2026-08-18T04:53:01.000Z</time>
      </trkpt>
      <trkpt lat="22.908369" lon="110.942988">
        <ele>168.149237</ele>
        <time>2026-08-18T04:53:02.000Z</time>
      </trkpt>
      <trkpt lat="22.908377" lon="110.943022">
        <ele>168.222205</ele>
        <time>2026-08-18T04:53:03.000Z</time>
      </trkpt>
      <trkpt lat="22.908386" lon="110.943054">
        <ele>168.291776</ele>
        <time>2026-08-18T04:53:04.000Z</time>
      </trkpt>
      <trkpt lat="22.908398" lon="110.943083">
        <ele>168.357883</ele>
        <time>2026-08-18T04:53:05.000Z</time>
      </trkpt>
      <trkpt lat="22.908409" lon="110.943114">
        <ele>168.426960</ele>
        <time>2026-08-18T04:53:06.000Z</time>
      </trkpt>
      <trkpt lat="22.908417" lon="110.943148">
        <ele>168.499928</ele>
        <time>2026-08-18T04:53:07.000Z</time>
      </trkpt>
      <trkpt lat="22.908423" lon="110.943182">
        <ele>168.571911</ele>
        <time>2026-08-18T04:53:08.000Z</time>
      </trkpt>
      <trkpt lat="22.908427" lon="110.943216">
        <ele>168.643183</ele>
        <time>2026-08-18T04:53:09.000Z</time>
      </trkpt>
      <trkpt lat="22.908428" lon="110.943253">
        <ele>168.720152</ele>
        <time>2026-08-18T04:53:10.000Z</time>
      </trkpt>
      <trkpt lat="22.908429" lon="110.943291">
        <ele>168.799200</ele>
        <time>2026-08-18T04:53:11.000Z</time>
      </trkpt>
      <trkpt lat="22.908431" lon="110.943328">
        <ele>168.876268</ele>
        <time>2026-08-18T04:53:12.000Z</time>
      </trkpt>
      <trkpt lat="22.908434" lon="110.943366">
        <ele>168.955573</ele>
        <time>2026-08-18T04:53:13.000Z</time>
      </trkpt>
      <trkpt lat="22.908439" lon="110.943404">
        <ele>169.035390</ele>
        <time>2026-08-18T04:53:14.000Z</time>
      </trkpt>
      <trkpt lat="22.908445" lon="110.943442">
        <ele>169.115558</ele>
        <time>2026-08-18T04:53:15.000Z</time>
      </trkpt>
      <trkpt lat="22.908451" lon="110.943480">
        <ele>169.195726</ele>
        <time>2026-08-18T04:53:16.000Z</time>
      </trkpt>
      <trkpt lat="22.908458" lon="110.943518">
        <ele>169.276306</ele>
        <time>2026-08-18T04:53:17.000Z</time>
      </trkpt>
      <trkpt lat="22.908465" lon="110.943558">
        <ele>169.360967</ele>
        <time>2026-08-18T04:53:18.000Z</time>
      </trkpt>
      <trkpt lat="22.908471" lon="110.943597">
        <ele>169.443185</ele>
        <time>2026-08-18T04:53:19.000Z</time>
      </trkpt>
      <trkpt lat="22.908476" lon="110.943638">
        <ele>169.529182</ele>
        <time>2026-08-18T04:53:20.000Z</time>
      </trkpt>
      <trkpt lat="22.908480" lon="110.943679">
        <ele>169.605573</ele>
        <time>2026-08-18T04:53:21.000Z</time>
      </trkpt>
      <trkpt lat="22.908485" lon="110.943719">
        <ele>169.659430</ele>
        <time>2026-08-18T04:53:22.000Z</time>
      </trkpt>
      <trkpt lat="22.908491" lon="110.943760">
        <ele>169.714818</ele>
        <time>2026-08-18T04:53:23.000Z</time>
      </trkpt>
      <trkpt lat="22.908496" lon="110.943802">
        <ele>169.771320</ele>
        <time>2026-08-18T04:53:24.000Z</time>
      </trkpt>
      <trkpt lat="22.908502" lon="110.943843">
        <ele>169.826708</ele>
        <time>2026-08-18T04:53:25.000Z</time>
      </trkpt>
      <trkpt lat="22.908506" lon="110.943884">
        <ele>169.881716</ele>
        <time>2026-08-18T04:53:26.000Z</time>
      </trkpt>
      <trkpt lat="22.908509" lon="110.943925">
        <ele>169.936590</ele>
        <time>2026-08-18T04:53:27.000Z</time>
      </trkpt>
      <trkpt lat="22.908510" lon="110.943965">
        <ele>169.989978</ele>
        <time>2026-08-18T04:53:28.000Z</time>
      </trkpt>
      <trkpt lat="22.908510" lon="110.944007">
        <ele>170.046014</ele>
        <time>2026-08-18T04:53:29.000Z</time>
      </trkpt>
      <trkpt lat="22.908510" lon="110.944050">
        <ele>170.103384</ele>
        <time>2026-08-18T04:53:30.000Z</time>
      </trkpt>
      <trkpt lat="22.908513" lon="110.944092">
        <ele>170.159588</ele>
        <time>2026-08-18T04:53:31.000Z</time>
      </trkpt>
      <trkpt lat="22.908516" lon="110.944136">
        <ele>170.218453</ele>
        <time>2026-08-18T04:53:32.000Z</time>
      </trkpt>
      <trkpt lat="22.908520" lon="110.944179">
        <ele>170.276116</ele>
        <time>2026-08-18T04:53:33.000Z</time>
      </trkpt>
      <trkpt lat="22.908525" lon="110.944222">
        <ele>170.333941</ele>
        <time>2026-08-18T04:53:34.000Z</time>
      </trkpt>
      <trkpt lat="22.908529" lon="110.944264">
        <ele>170.390276</ele>
        <time>2026-08-18T04:53:35.000Z</time>
      </trkpt>
      <trkpt lat="22.908534" lon="110.944304">
        <ele>170.444133</ele>
        <time>2026-08-18T04:53:36.000Z</time>
      </trkpt>
      <trkpt lat="22.908539" lon="110.944343">
        <ele>170.496668</ele>
        <time>2026-08-18T04:53:37.000Z</time>
      </trkpt>
      <trkpt lat="22.908544" lon="110.944382">
        <ele>170.549203</ele>
        <time>2026-08-18T04:53:38.000Z</time>
      </trkpt>
      <trkpt lat="22.908549" lon="110.944423">
        <ele>170.604382</ele>
        <time>2026-08-18T04:53:39.000Z</time>
      </trkpt>
      <trkpt lat="22.908553" lon="110.944463">
        <ele>170.658063</ele>
        <time>2026-08-18T04:53:40.000Z</time>
      </trkpt>
      <trkpt lat="22.908558" lon="110.944504">
        <ele>170.713243</ele>
        <time>2026-08-18T04:53:41.000Z</time>
      </trkpt>
      <trkpt lat="22.908562" lon="110.944544">
        <ele>170.766924</ele>
        <time>2026-08-18T04:53:42.000Z</time>
      </trkpt>
      <trkpt lat="22.908567" lon="110.944583">
        <ele>170.819459</ele>
        <time>2026-08-18T04:53:43.000Z</time>
      </trkpt>
      <trkpt lat="22.908572" lon="110.944623">
        <ele>170.873316</ele>
        <time>2026-08-18T04:53:44.000Z</time>
      </trkpt>
      <trkpt lat="22.908575" lon="110.944663">
        <ele>170.926860</ele>
        <time>2026-08-18T04:53:45.000Z</time>
      </trkpt>
      <trkpt lat="22.908576" lon="110.944704">
        <ele>170.981581</ele>
        <time>2026-08-18T04:53:46.000Z</time>
      </trkpt>
      <trkpt lat="22.908575" lon="110.944745">
        <ele>171.036302</ele>
        <time>2026-08-18T04:53:47.000Z</time>
      </trkpt>
      <trkpt lat="22.908574" lon="110.944786">
        <ele>171.091023</ele>
        <time>2026-08-18T04:53:48.000Z</time>
      </trkpt>
      <trkpt lat="22.908575" lon="110.944827">
        <ele>171.145744</ele>
        <time>2026-08-18T04:53:49.000Z</time>
      </trkpt>
      <trkpt lat="22.908577" lon="110.944869">
        <ele>171.201855</ele>
        <time>2026-08-18T04:53:50.000Z</time>
      </trkpt>
      <trkpt lat="22.908580" lon="110.944910">
        <ele>171.256729</ele>
        <time>2026-08-18T04:53:51.000Z</time>
      </trkpt>
      <trkpt lat="22.908584" lon="110.944952">
        <ele>171.313064</ele>
        <time>2026-08-18T04:53:52.000Z</time>
      </trkpt>
      <trkpt lat="22.908590" lon="110.944994">
        <ele>171.369770</ele>
        <time>2026-08-18T04:53:53.000Z</time>
      </trkpt>
      <trkpt lat="22.908595" lon="110.945037">
        <ele>171.427595</ele>
        <time>2026-08-18T04:53:54.000Z</time>
      </trkpt>
      <trkpt lat="22.908599" lon="110.945079">
        <ele>171.483930</ele>
        <time>2026-08-18T04:53:55.000Z</time>
      </trkpt>
      <trkpt lat="22.908603" lon="110.945121">
        <ele>171.540265</ele>
        <time>2026-08-18T04:53:56.000Z</time>
      </trkpt>
      <trkpt lat="22.908607" lon="110.945161">
        <ele>171.593946</ele>
        <time>2026-08-18T04:53:57.000Z</time>
      </trkpt>
      <trkpt lat="22.908611" lon="110.945201">
        <ele>171.647627</ele>
        <time>2026-08-18T04:53:58.000Z</time>
      </trkpt>
      <trkpt lat="22.908614" lon="110.945240">
        <ele>171.699842</ele>
        <time>2026-08-18T04:53:59.000Z</time>
      </trkpt>
      <trkpt lat="22.908618" lon="110.945280">
        <ele>171.753523</ele>
        <time>2026-08-18T04:54:00.000Z</time>
      </trkpt>
      <trkpt lat="22.908621" lon="110.945321">
        <ele>171.808397</ele>
        <time>2026-08-18T04:54:01.000Z</time>
      </trkpt>
      <trkpt lat="22.908625" lon="110.945360">
        <ele>171.860752</ele>
        <time>2026-08-18T04:54:02.000Z</time>
      </trkpt>
      <trkpt lat="22.908629" lon="110.945400">
        <ele>171.914434</ele>
        <time>2026-08-18T04:54:03.000Z</time>
      </trkpt>
      <trkpt lat="22.908632" lon="110.945441">
        <ele>171.969308</ele>
        <time>2026-08-18T04:54:04.000Z</time>
      </trkpt>
      <trkpt lat="22.908635" lon="110.945481">
        <ele>172.022852</ele>
        <time>2026-08-18T04:54:05.000Z</time>
      </trkpt>
      <trkpt lat="22.908639" lon="110.945522">
        <ele>172.077860</ele>
        <time>2026-08-18T04:54:06.000Z</time>
      </trkpt>
      <trkpt lat="22.908642" lon="110.945563">
        <ele>172.132734</ele>
        <time>2026-08-18T04:54:07.000Z</time>
      </trkpt>
      <trkpt lat="22.908645" lon="110.945602">
        <ele>172.184949</ele>
        <time>2026-08-18T04:54:08.000Z</time>
      </trkpt>
      <trkpt lat="22.908647" lon="110.945642">
        <ele>172.229832</ele>
        <time>2026-08-18T04:54:09.000Z</time>
      </trkpt>
      <trkpt lat="22.908651" lon="110.945683">
        <ele>172.274213</ele>
        <time>2026-08-18T04:54:10.000Z</time>
      </trkpt>
      <trkpt lat="22.908656" lon="110.945723">
        <ele>172.317665</ele>
        <time>2026-08-18T04:54:11.000Z</time>
      </trkpt>
      <trkpt lat="22.908660" lon="110.945764">
        <ele>172.362046</ele>
        <time>2026-08-18T04:54:12.000Z</time>
      </trkpt>
      <trkpt lat="22.908664" lon="110.945804">
        <ele>172.405357</ele>
        <time>2026-08-18T04:54:13.000Z</time>
      </trkpt>
      <trkpt lat="22.908668" lon="110.945845">
        <ele>172.449738</ele>
        <time>2026-08-18T04:54:14.000Z</time>
      </trkpt>
      <trkpt lat="22.908671" lon="110.945885">
        <ele>172.492939</ele>
        <time>2026-08-18T04:54:15.000Z</time>
      </trkpt>
      <trkpt lat="22.908675" lon="110.945926">
        <ele>172.537320</ele>
        <time>2026-08-18T04:54:16.000Z</time>
      </trkpt>
      <trkpt lat="22.908678" lon="110.945968">
        <ele>172.582666</ele>
        <time>2026-08-18T04:54:17.000Z</time>
      </trkpt>
      <trkpt lat="22.908680" lon="110.946008">
        <ele>172.625787</ele>
        <time>2026-08-18T04:54:18.000Z</time>
      </trkpt>
      <trkpt lat="22.908684" lon="110.946047">
        <ele>172.668028</ele>
        <time>2026-08-18T04:54:19.000Z</time>
      </trkpt>
      <trkpt lat="22.908689" lon="110.946086">
        <ele>172.710414</ele>
        <time>2026-08-18T04:54:20.000Z</time>
      </trkpt>
      <trkpt lat="22.908694" lon="110.946126">
        <ele>172.753867</ele>
        <time>2026-08-18T04:54:21.000Z</time>
      </trkpt>
      <trkpt lat="22.908698" lon="110.946165">
        <ele>172.796108</ele>
        <time>2026-08-18T04:54:22.000Z</time>
      </trkpt>
      <trkpt lat="22.908701" lon="110.946205">
        <ele>172.839308</ele>
        <time>2026-08-18T04:54:23.000Z</time>
      </trkpt>
      <trkpt lat="22.908705" lon="110.946246">
        <ele>172.883689</ele>
        <time>2026-08-18T04:54:24.000Z</time>
      </trkpt>
      <trkpt lat="22.908710" lon="110.946286">
        <ele>172.927142</ele>
        <time>2026-08-18T04:54:25.000Z</time>
      </trkpt>
      <trkpt lat="22.908716" lon="110.946325">
        <ele>172.969705</ele>
        <time>2026-08-18T04:54:26.000Z</time>
      </trkpt>
      <trkpt lat="22.908722" lon="110.946364">
        <ele>173.012267</ele>
        <time>2026-08-18T04:54:27.000Z</time>
      </trkpt>
      <trkpt lat="22.908727" lon="110.946402">
        <ele>173.053588</ele>
        <time>2026-08-18T04:54:28.000Z</time>
      </trkpt>
      <trkpt lat="22.908730" lon="110.946441">
        <ele>173.095715</ele>
        <time>2026-08-18T04:54:29.000Z</time>
      </trkpt>
      <trkpt lat="22.908735" lon="110.946479">
        <ele>173.137035</ele>
        <time>2026-08-18T04:54:30.000Z</time>
      </trkpt>
      <trkpt lat="22.908741" lon="110.946518">
        <ele>173.179598</ele>
        <time>2026-08-18T04:54:31.000Z</time>
      </trkpt>
      <trkpt lat="22.908746" lon="110.946558">
        <ele>173.223051</ele>
        <time>2026-08-18T04:54:32.000Z</time>
      </trkpt>
      <trkpt lat="22.908751" lon="110.946598">
        <ele>173.266503</ele>
        <time>2026-08-18T04:54:33.000Z</time>
      </trkpt>
      <trkpt lat="22.908757" lon="110.946639">
        <ele>173.311191</ele>
        <time>2026-08-18T04:54:34.000Z</time>
      </trkpt>
      <trkpt lat="22.908761" lon="110.946678">
        <ele>173.353432</ele>
        <time>2026-08-18T04:54:35.000Z</time>
      </trkpt>
      <trkpt lat="22.908764" lon="110.946718">
        <ele>173.396632</ele>
        <time>2026-08-18T04:54:36.000Z</time>
      </trkpt>
      <trkpt lat="22.908768" lon="110.946759">
        <ele>173.441013</ele>
        <time>2026-08-18T04:54:37.000Z</time>
      </trkpt>
      <trkpt lat="22.908773" lon="110.946800">
        <ele>173.485533</ele>
        <time>2026-08-18T04:54:38.000Z</time>
      </trkpt>
      <trkpt lat="22.908778" lon="110.946841">
        <ele>173.530052</ele>
        <time>2026-08-18T04:54:39.000Z</time>
      </trkpt>
      <trkpt lat="22.908784" lon="110.946880">
        <ele>173.572615</ele>
        <time>2026-08-18T04:54:40.000Z</time>
      </trkpt>
      <trkpt lat="22.908791" lon="110.946921">
        <ele>173.617501</ele>
        <time>2026-08-18T04:54:41.000Z</time>
      </trkpt>
      <trkpt lat="22.908797" lon="110.946961">
        <ele>173.661126</ele>
        <time>2026-08-18T04:54:42.000Z</time>
      </trkpt>
      <trkpt lat="22.908801" lon="110.947001">
        <ele>173.704436</ele>
        <time>2026-08-18T04:54:43.000Z</time>
      </trkpt>
      <trkpt lat="22.908806" lon="110.947040">
        <ele>173.746823</ele>
        <time>2026-08-18T04:54:44.000Z</time>
      </trkpt>
      <trkpt lat="22.908812" lon="110.947080">
        <ele>173.790447</ele>
        <time>2026-08-18T04:54:45.000Z</time>
      </trkpt>
      <trkpt lat="22.908818" lon="110.947120">
        <ele>173.834072</ele>
        <time>2026-08-18T04:54:46.000Z</time>
      </trkpt>
      <trkpt lat="22.908822" lon="110.947159">
        <ele>173.876313</ele>
        <time>2026-08-18T04:54:47.000Z</time>
      </trkpt>
      <trkpt lat="22.908826" lon="110.947199">
        <ele>173.919624</ele>
        <time>2026-08-18T04:54:48.000Z</time>
      </trkpt>
      <trkpt lat="22.908830" lon="110.947240">
        <ele>173.964005</ele>
        <time>2026-08-18T04:54:49.000Z</time>
      </trkpt>
      <trkpt lat="22.908834" lon="110.947281">
        <ele>174.008386</ele>
        <time>2026-08-18T04:54:50.000Z</time>
      </trkpt>
      <trkpt lat="22.908839" lon="110.947323">
        <ele>174.053973</ele>
        <time>2026-08-18T04:54:51.000Z</time>
      </trkpt>
      <trkpt lat="22.908844" lon="110.947362">
        <ele>174.096359</ele>
        <time>2026-08-18T04:54:52.000Z</time>
      </trkpt>
      <trkpt lat="22.908849" lon="110.947403">
        <ele>174.140878</ele>
        <time>2026-08-18T04:54:53.000Z</time>
      </trkpt>
      <trkpt lat="22.908853" lon="110.947444">
        <ele>174.185259</ele>
        <time>2026-08-18T04:54:54.000Z</time>
      </trkpt>
      <trkpt lat="22.908855" lon="110.947486">
        <ele>174.230530</ele>
        <time>2026-08-18T04:54:55.000Z</time>
      </trkpt>
      <trkpt lat="22.908860" lon="110.947527">
        <ele>174.275050</ele>
        <time>2026-08-18T04:54:56.000Z</time>
      </trkpt>
      <trkpt lat="22.908866" lon="110.947566">
        <ele>174.303458</ele>
        <time>2026-08-18T04:54:57.000Z</time>
      </trkpt>
      <trkpt lat="22.908872" lon="110.947606">
        <ele>174.318515</ele>
        <time>2026-08-18T04:54:58.000Z</time>
      </trkpt>
      <trkpt lat="22.908876" lon="110.947649">
        <ele>174.334573</ele>
        <time>2026-08-18T04:54:59.000Z</time>
      </trkpt>
      <trkpt lat="22.908879" lon="110.947695">
        <ele>174.351707</ele>
        <time>2026-08-18T04:55:00.000Z</time>
      </trkpt>
      <trkpt lat="22.908881" lon="110.947740">
        <ele>174.368445</ele>
        <time>2026-08-18T04:55:01.000Z</time>
      </trkpt>
      <trkpt lat="22.908886" lon="110.947783">
        <ele>174.384549</ele>
        <time>2026-08-18T04:55:02.000Z</time>
      </trkpt>
      <trkpt lat="22.908889" lon="110.947826">
        <ele>174.400571</ele>
        <time>2026-08-18T04:55:03.000Z</time>
      </trkpt>
      <trkpt lat="22.908892" lon="110.947870">
        <ele>174.416963</ele>
        <time>2026-08-18T04:55:04.000Z</time>
      </trkpt>
      <trkpt lat="22.908899" lon="110.947912">
        <ele>174.432822</ele>
        <time>2026-08-18T04:55:05.000Z</time>
      </trkpt>
      <trkpt lat="22.908905" lon="110.947956">
        <ele>174.449348</ele>
        <time>2026-08-18T04:55:06.000Z</time>
      </trkpt>
      <trkpt lat="22.908908" lon="110.948002">
        <ele>174.466481</ele>
        <time>2026-08-18T04:55:07.000Z</time>
      </trkpt>
      <trkpt lat="22.908911" lon="110.948048">
        <ele>174.483615</ele>
        <time>2026-08-18T04:55:08.000Z</time>
      </trkpt>
      <trkpt lat="22.908913" lon="110.948093">
        <ele>174.500354</ele>
        <time>2026-08-18T04:55:09.000Z</time>
      </trkpt>
      <trkpt lat="22.908916" lon="110.948138">
        <ele>174.517117</ele>
        <time>2026-08-18T04:55:10.000Z</time>
      </trkpt>
      <trkpt lat="22.908920" lon="110.948186">
        <ele>174.535024</ele>
        <time>2026-08-18T04:55:11.000Z</time>
      </trkpt>
      <trkpt lat="22.908925" lon="110.948231">
        <ele>174.551865</ele>
        <time>2026-08-18T04:55:12.000Z</time>
      </trkpt>
      <trkpt lat="22.908930" lon="110.948275">
        <ele>174.568337</ele>
        <time>2026-08-18T04:55:13.000Z</time>
      </trkpt>
      <trkpt lat="22.908937" lon="110.948316">
        <ele>174.583829</ele>
        <time>2026-08-18T04:55:14.000Z</time>
      </trkpt>
      <trkpt lat="22.908940" lon="110.948361">
        <ele>174.600592</ele>
        <time>2026-08-18T04:55:15.000Z</time>
      </trkpt>
      <trkpt lat="22.908941" lon="110.948407">
        <ele>174.617688</ele>
        <time>2026-08-18T04:55:16.000Z</time>
      </trkpt>
      <trkpt lat="22.908943" lon="110.948453">
        <ele>174.634798</ele>
        <time>2026-08-18T04:55:17.000Z</time>
      </trkpt>
      <trkpt lat="22.908945" lon="110.948500">
        <ele>174.652279</ele>
        <time>2026-08-18T04:55:18.000Z</time>
      </trkpt>
      <trkpt lat="22.908948" lon="110.948547">
        <ele>174.669784</ele>
        <time>2026-08-18T04:55:19.000Z</time>
      </trkpt>
      <trkpt lat="22.908953" lon="110.948595">
        <ele>174.687732</ele>
        <time>2026-08-18T04:55:20.000Z</time>
      </trkpt>
      <trkpt lat="22.908958" lon="110.948641">
        <ele>174.704941</ele>
        <time>2026-08-18T04:55:21.000Z</time>
      </trkpt>
      <trkpt lat="22.908961" lon="110.948685">
        <ele>174.721334</ele>
        <time>2026-08-18T04:55:22.000Z</time>
      </trkpt>
      <trkpt lat="22.908965" lon="110.948731">
        <ele>174.738501</ele>
        <time>2026-08-18T04:55:23.000Z</time>
      </trkpt>
      <trkpt lat="22.908968" lon="110.948778">
        <ele>174.756005</ele>
        <time>2026-08-18T04:55:24.000Z</time>
      </trkpt>
      <trkpt lat="22.908972" lon="110.948825">
        <ele>174.773542</ele>
        <time>2026-08-18T04:55:25.000Z</time>
      </trkpt>
      <trkpt lat="22.908977" lon="110.948871">
        <ele>174.790752</ele>
        <time>2026-08-18T04:55:26.000Z</time>
      </trkpt>
      <trkpt lat="22.908981" lon="110.948919">
        <ele>174.808658</ele>
        <time>2026-08-18T04:55:27.000Z</time>
      </trkpt>
      <trkpt lat="22.908985" lon="110.948968">
        <ele>174.826935</ele>
        <time>2026-08-18T04:55:28.000Z</time>
      </trkpt>
      <trkpt lat="22.908988" lon="110.949016">
        <ele>174.844810</ele>
        <time>2026-08-18T04:55:29.000Z</time>
      </trkpt>
      <trkpt lat="22.908992" lon="110.949064">
        <ele>174.862717</ele>
        <time>2026-08-18T04:55:30.000Z</time>
      </trkpt>
      <trkpt lat="22.908996" lon="110.949112">
        <ele>174.880624</ele>
        <time>2026-08-18T04:55:31.000Z</time>
      </trkpt>
      <trkpt lat="22.908999" lon="110.949158">
        <ele>174.897758</ele>
        <time>2026-08-18T04:55:32.000Z</time>
      </trkpt>
      <trkpt lat="22.909003" lon="110.949207">
        <ele>174.916035</ele>
        <time>2026-08-18T04:55:33.000Z</time>
      </trkpt>
      <trkpt lat="22.909007" lon="110.949254">
        <ele>174.933572</ele>
        <time>2026-08-18T04:55:34.000Z</time>
      </trkpt>
      <trkpt lat="22.909012" lon="110.949302">
        <ele>174.951520</ele>
        <time>2026-08-18T04:55:35.000Z</time>
      </trkpt>
      <trkpt lat="22.909015" lon="110.949352">
        <ele>174.970136</ele>
        <time>2026-08-18T04:55:36.000Z</time>
      </trkpt>
      <trkpt lat="22.909019" lon="110.949399">
        <ele>174.987673</ele>
        <time>2026-08-18T04:55:37.000Z</time>
      </trkpt>
      <trkpt lat="22.909022" lon="110.949447">
        <ele>175.005548</ele>
        <time>2026-08-18T04:55:38.000Z</time>
      </trkpt>
      <trkpt lat="22.909027" lon="110.949486">
        <ele>175.020178</ele>
        <time>2026-08-18T04:55:39.000Z</time>
      </trkpt>
      <trkpt lat="22.909031" lon="110.949531">
        <ele>175.032791</ele>
        <time>2026-08-18T04:55:40.000Z</time>
      </trkpt>
      <trkpt lat="22.909034" lon="110.949578">
        <ele>175.045565</ele>
        <time>2026-08-18T04:55:41.000Z</time>
      </trkpt>
      <trkpt lat="22.909038" lon="110.949627">
        <ele>175.058902</ele>
        <time>2026-08-18T04:55:42.000Z</time>
      </trkpt>
      <trkpt lat="22.909042" lon="110.949676">
        <ele>175.072240</ele>
        <time>2026-08-18T04:55:43.000Z</time>
      </trkpt>
      <trkpt lat="22.909047" lon="110.949726">
        <ele>175.085876</ele>
        <time>2026-08-18T04:55:44.000Z</time>
      </trkpt>
      <trkpt lat="22.909054" lon="110.949778">
        <ele>175.100124</ele>
        <time>2026-08-18T04:55:45.000Z</time>
      </trkpt>
      <trkpt lat="22.909059" lon="110.949824">
        <ele>175.112683</ele>
        <time>2026-08-18T04:55:46.000Z</time>
      </trkpt>
      <trkpt lat="22.909064" lon="110.949872">
        <ele>175.125780</ele>
        <time>2026-08-18T04:55:47.000Z</time>
      </trkpt>
      <trkpt lat="22.909069" lon="110.949919">
        <ele>175.138608</ele>
        <time>2026-08-18T04:55:48.000Z</time>
      </trkpt>
      <trkpt lat="22.909071" lon="110.949967">
        <ele>175.151635</ele>
        <time>2026-08-18T04:55:49.000Z</time>
      </trkpt>
      <trkpt lat="22.909074" lon="110.950017">
        <ele>175.165220</ele>
        <time>2026-08-18T04:55:50.000Z</time>
      </trkpt>
      <trkpt lat="22.909079" lon="110.950068">
        <ele>175.179126</ele>
        <time>2026-08-18T04:55:51.000Z</time>
      </trkpt>
      <trkpt lat="22.909084" lon="110.950119">
        <ele>175.193032</ele>
        <time>2026-08-18T04:55:52.000Z</time>
      </trkpt>
      <trkpt lat="22.909089" lon="110.950170">
        <ele>175.206937</ele>
        <time>2026-08-18T04:55:53.000Z</time>
      </trkpt>
      <trkpt lat="22.909091" lon="110.950221">
        <ele>175.220778</ele>
        <time>2026-08-18T04:55:54.000Z</time>
      </trkpt>
      <trkpt lat="22.909092" lon="110.950272">
        <ele>175.234608</ele>
        <time>2026-08-18T04:55:55.000Z</time>
      </trkpt>
      <trkpt lat="22.909092" lon="110.950323">
        <ele>175.248436</ele>
        <time>2026-08-18T04:55:56.000Z</time>
      </trkpt>
      <trkpt lat="22.909094" lon="110.950374">
        <ele>175.262276</ele>
        <time>2026-08-18T04:55:57.000Z</time>
      </trkpt>
      <trkpt lat="22.909096" lon="110.950423">
        <ele>175.275574</ele>
        <time>2026-08-18T04:55:58.000Z</time>
      </trkpt>
      <trkpt lat="22.909099" lon="110.950473">
        <ele>175.289160</ele>
        <time>2026-08-18T04:55:59.000Z</time>
      </trkpt>
      <trkpt lat="22.909103" lon="110.950523">
        <ele>175.302767</ele>
        <time>2026-08-18T04:56:00.000Z</time>
      </trkpt>
      <trkpt lat="22.909107" lon="110.950572">
        <ele>175.316105</ele>
        <time>2026-08-18T04:56:01.000Z</time>
      </trkpt>
      <trkpt lat="22.909112" lon="110.950622">
        <ele>175.329741</ele>
        <time>2026-08-18T04:56:02.000Z</time>
      </trkpt>
      <trkpt lat="22.909118" lon="110.950672">
        <ele>175.343412</ele>
        <time>2026-08-18T04:56:03.000Z</time>
      </trkpt>
      <trkpt lat="22.909122" lon="110.950722">
        <ele>175.357019</ele>
        <time>2026-08-18T04:56:04.000Z</time>
      </trkpt>
      <trkpt lat="22.909127" lon="110.950771">
        <ele>175.370386</ele>
        <time>2026-08-18T04:56:05.000Z</time>
      </trkpt>
      <trkpt lat="22.909132" lon="110.950821">
        <ele>175.384022</ele>
        <time>2026-08-18T04:56:06.000Z</time>
      </trkpt>
      <trkpt lat="22.909137" lon="110.950871">
        <ele>175.397658</ele>
        <time>2026-08-18T04:56:07.000Z</time>
      </trkpt>
      <trkpt lat="22.909142" lon="110.950921">
        <ele>175.411294</ele>
        <time>2026-08-18T04:56:08.000Z</time>
      </trkpt>
      <trkpt lat="22.909146" lon="110.950970">
        <ele>175.424632</ele>
        <time>2026-08-18T04:56:09.000Z</time>
      </trkpt>
      <trkpt lat="22.909150" lon="110.951019">
        <ele>175.437969</ele>
        <time>2026-08-18T04:56:10.000Z</time>
      </trkpt>
      <trkpt lat="22.909154" lon="110.951069">
        <ele>175.451576</ele>
        <time>2026-08-18T04:56:11.000Z</time>
      </trkpt>
      <trkpt lat="22.909157" lon="110.951118">
        <ele>175.464891</ele>
        <time>2026-08-18T04:56:12.000Z</time>
      </trkpt>
      <trkpt lat="22.909160" lon="110.951170">
        <ele>175.479017</ele>
        <time>2026-08-18T04:56:13.000Z</time>
      </trkpt>
      <trkpt lat="22.909161" lon="110.951221">
        <ele>175.492848</ele>
        <time>2026-08-18T04:56:14.000Z</time>
      </trkpt>
      <trkpt lat="22.909163" lon="110.951271">
        <ele>175.506417</ele>
        <time>2026-08-18T04:56:15.000Z</time>
      </trkpt>
      <trkpt lat="22.909166" lon="110.951323">
        <ele>175.520544</ele>
        <time>2026-08-18T04:56:16.000Z</time>
      </trkpt>
      <trkpt lat="22.909171" lon="110.951375">
        <ele>175.534719</ele>
        <time>2026-08-18T04:56:17.000Z</time>
      </trkpt>
      <trkpt lat="22.909177" lon="110.951427">
        <ele>175.548928</ele>
        <time>2026-08-18T04:56:18.000Z</time>
      </trkpt>
      <trkpt lat="22.909183" lon="110.951479">
        <ele>175.576600</ele>
        <time>2026-08-18T04:56:19.000Z</time>
      </trkpt>
      <trkpt lat="22.909188" lon="110.951531">
        <ele>175.606395</ele>
        <time>2026-08-18T04:56:20.000Z</time>
      </trkpt>
      <trkpt lat="22.909194" lon="110.951583">
        <ele>175.636260</ele>
        <time>2026-08-18T04:56:21.000Z</time>
      </trkpt>
      <trkpt lat="22.909198" lon="110.951635">
        <ele>175.665997</ele>
        <time>2026-08-18T04:56:22.000Z</time>
      </trkpt>
      <trkpt lat="22.909204" lon="110.951687">
        <ele>175.695862</ele>
        <time>2026-08-18T04:56:23.000Z</time>
      </trkpt>
      <trkpt lat="22.909210" lon="110.951738">
        <ele>175.725162</ele>
        <time>2026-08-18T04:56:24.000Z</time>
      </trkpt>
      <trkpt lat="22.909216" lon="110.951789">
        <ele>175.754462</ele>
        <time>2026-08-18T04:56:25.000Z</time>
      </trkpt>
      <trkpt lat="22.909223" lon="110.951840">
        <ele>175.783847</ele>
        <time>2026-08-18T04:56:26.000Z</time>
      </trkpt>
      <trkpt lat="22.909229" lon="110.951891">
        <ele>175.813147</ele>
        <time>2026-08-18T04:56:27.000Z</time>
      </trkpt>
      <trkpt lat="22.909236" lon="110.951942">
        <ele>175.842532</ele>
        <time>2026-08-18T04:56:28.000Z</time>
      </trkpt>
      <trkpt lat="22.909241" lon="110.951995">
        <ele>175.872893</ele>
        <time>2026-08-18T04:56:29.000Z</time>
      </trkpt>
      <trkpt lat="22.909247" lon="110.952048">
        <ele>175.903324</ele>
        <time>2026-08-18T04:56:30.000Z</time>
      </trkpt>
      <trkpt lat="22.909254" lon="110.952102">
        <ele>175.934401</ele>
        <time>2026-08-18T04:56:31.000Z</time>
      </trkpt>
      <trkpt lat="22.909263" lon="110.952158">
        <ele>175.966796</ele>
        <time>2026-08-18T04:56:32.000Z</time>
      </trkpt>
      <trkpt lat="22.909272" lon="110.952210">
        <ele>175.996948</ele>
        <time>2026-08-18T04:56:33.000Z</time>
      </trkpt>
      <trkpt lat="22.909283" lon="110.952262">
        <ele>176.027353</ele>
        <time>2026-08-18T04:56:34.000Z</time>
      </trkpt>
      <trkpt lat="22.909292" lon="110.952316">
        <ele>176.058626</ele>
        <time>2026-08-18T04:56:35.000Z</time>
      </trkpt>
      <trkpt lat="22.909302" lon="110.952368">
        <ele>176.088899</ele>
        <time>2026-08-18T04:56:36.000Z</time>
      </trkpt>
      <trkpt lat="22.909311" lon="110.952418">
        <ele>176.117932</ele>
        <time>2026-08-18T04:56:37.000Z</time>
      </trkpt>
      <trkpt lat="22.909319" lon="110.952469">
        <ele>176.147414</ele>
        <time>2026-08-18T04:56:38.000Z</time>
      </trkpt>
      <trkpt lat="22.909326" lon="110.952520">
        <ele>176.176799</ele>
        <time>2026-08-18T04:56:39.000Z</time>
      </trkpt>
      <trkpt lat="22.909330" lon="110.952569">
        <ele>176.204832</ele>
        <time>2026-08-18T04:56:40.000Z</time>
      </trkpt>
      <trkpt lat="22.909336" lon="110.952620">
        <ele>176.234132</ele>
        <time>2026-08-18T04:56:41.000Z</time>
      </trkpt>
      <trkpt lat="22.909342" lon="110.952671">
        <ele>176.263432</ele>
        <time>2026-08-18T04:56:42.000Z</time>
      </trkpt>
      <trkpt lat="22.909348" lon="110.952722">
        <ele>176.292732</ele>
        <time>2026-08-18T04:56:43.000Z</time>
      </trkpt>
      <trkpt lat="22.909352" lon="110.952772">
        <ele>176.321333</ele>
        <time>2026-08-18T04:56:44.000Z</time>
      </trkpt>
      <trkpt lat="22.909356" lon="110.952823">
        <ele>176.350502</ele>
        <time>2026-08-18T04:56:45.000Z</time>
      </trkpt>
      <trkpt lat="22.909363" lon="110.952872">
        <ele>176.378759</ele>
        <time>2026-08-18T04:56:46.000Z</time>
      </trkpt>
      <trkpt lat="22.909371" lon="110.952919">
        <ele>176.405997</ele>
        <time>2026-08-18T04:56:47.000Z</time>
      </trkpt>
      <trkpt lat="22.909381" lon="110.952969">
        <ele>176.435155</ele>
        <time>2026-08-18T04:56:48.000Z</time>
      </trkpt>
      <trkpt lat="22.909390" lon="110.953019">
        <ele>176.464188</ele>
        <time>2026-08-18T04:56:49.000Z</time>
      </trkpt>
      <trkpt lat="22.909399" lon="110.953067">
        <ele>176.492103</ele>
        <time>2026-08-18T04:56:50.000Z</time>
      </trkpt>
      <trkpt lat="22.909408" lon="110.953115">
        <ele>176.520018</ele>
        <time>2026-08-18T04:56:51.000Z</time>
      </trkpt>
      <trkpt lat="22.909417" lon="110.953163">
        <ele>176.547933</ele>
        <time>2026-08-18T04:56:52.000Z</time>
      </trkpt>
      <trkpt lat="22.909427" lon="110.953213">
        <ele>176.577091</ele>
        <time>2026-08-18T04:56:53.000Z</time>
      </trkpt>
      <trkpt lat="22.909436" lon="110.953265">
        <ele>176.607243</ele>
        <time>2026-08-18T04:56:54.000Z</time>
      </trkpt>
      <trkpt lat="22.909448" lon="110.953314">
        <ele>176.636137</ele>
        <time>2026-08-18T04:56:55.000Z</time>
      </trkpt>
      <trkpt lat="22.909458" lon="110.953364">
        <ele>176.658490</ele>
        <time>2026-08-18T04:56:56.000Z</time>
      </trkpt>
      <trkpt lat="22.909462" lon="110.953412">
        <ele>176.568837</ele>
        <time>2026-08-18T04:56:57.000Z</time>
      </trkpt>
      <trkpt lat="22.909469" lon="110.953461">
        <ele>176.476599</ele>
        <time>2026-08-18T04:56:58.000Z</time>
      </trkpt>
      <trkpt lat="22.909471" lon="110.953507">
        <ele>176.390936</ele>
        <time>2026-08-18T04:56:59.000Z</time>
      </trkpt>
      <trkpt lat="22.909481" lon="110.953555">
        <ele>176.299392</ele>
        <time>2026-08-18T04:57:00.000Z</time>
      </trkpt>
      <trkpt lat="22.909490" lon="110.953602">
        <ele>176.210095</ele>
        <time>2026-08-18T04:57:01.000Z</time>
      </trkpt>
      <trkpt lat="22.909497" lon="110.953646">
        <ele>176.127036</ele>
        <time>2026-08-18T04:57:02.000Z</time>
      </trkpt>
      <trkpt lat="22.909500" lon="110.953688">
        <ele>176.048674</ele>
        <time>2026-08-18T04:57:03.000Z</time>
      </trkpt>
      <trkpt lat="22.909501" lon="110.953723">
        <ele>175.983537</ele>
        <time>2026-08-18T04:57:04.000Z</time>
      </trkpt>
      <trkpt lat="22.909503" lon="110.953750">
        <ele>175.933150</ele>
        <time>2026-08-18T04:57:05.000Z</time>
      </trkpt>
      <trkpt lat="22.909505" lon="110.953766">
        <ele>175.903114</ele>
        <time>2026-08-18T04:57:06.000Z</time>
      </trkpt>
      <trkpt lat="22.909522" lon="110.953806">
        <ele>175.821169</ele>
        <time>2026-08-18T04:58:36.000Z</time>
      </trkpt>
      <trkpt lat="22.909535" lon="110.953826">
        <ele>175.775636</ele>
        <time>2026-08-18T04:58:37.000Z</time>
      </trkpt>
      <trkpt lat="22.909553" lon="110.953841">
        <ele>175.729811</ele>
        <time>2026-08-18T04:58:38.000Z</time>
      </trkpt>
      <trkpt lat="22.909570" lon="110.953856">
        <ele>175.685571</ele>
        <time>2026-08-18T04:58:39.000Z</time>
      </trkpt>
      <trkpt lat="22.909583" lon="110.953874">
        <ele>175.643023</ele>
        <time>2026-08-18T04:58:40.000Z</time>
      </trkpt>
      <trkpt lat="22.909593" lon="110.953892">
        <ele>175.603922</ele>
        <time>2026-08-18T04:58:41.000Z</time>
      </trkpt>
      <trkpt lat="22.909600" lon="110.953912">
        <ele>175.564123</ele>
        <time>2026-08-18T04:58:42.000Z</time>
      </trkpt>
      <trkpt lat="22.909607" lon="110.953933">
        <ele>175.522580</ele>
        <time>2026-08-18T04:58:43.000Z</time>
      </trkpt>
      <trkpt lat="22.909614" lon="110.953952">
        <ele>175.484515</ele>
        <time>2026-08-18T04:58:44.000Z</time>
      </trkpt>
      <trkpt lat="22.909621" lon="110.953970">
        <ele>175.448170</ele>
        <time>2026-08-18T04:58:45.000Z</time>
      </trkpt>
      <trkpt lat="22.909628" lon="110.953988">
        <ele>175.411825</ele>
        <time>2026-08-18T04:58:46.000Z</time>
      </trkpt>
      <trkpt lat="22.909635" lon="110.954003">
        <ele>175.380546</ele>
        <time>2026-08-18T04:58:47.000Z</time>
      </trkpt>
      <trkpt lat="22.909642" lon="110.954014">
        <ele>175.355676</ele>
        <time>2026-08-18T04:58:48.000Z</time>
      </trkpt>
      <trkpt lat="22.909651" lon="110.954022">
        <ele>175.332186</ele>
        <time>2026-08-18T04:58:49.000Z</time>
      </trkpt>
      <trkpt lat="22.909656" lon="110.954030">
        <ele>175.314202</ele>
        <time>2026-08-18T04:58:50.000Z</time>
      </trkpt>
      <trkpt lat="22.909678" lon="110.954078">
        <ele>175.214471</ele>
        <time>2026-08-18T04:58:59.000Z</time>
      </trkpt>
      <trkpt lat="22.909686" lon="110.954094">
        <ele>175.180607</ele>
        <time>2026-08-18T04:59:00.000Z</time>
      </trkpt>
      <trkpt lat="22.909697" lon="110.954112">
        <ele>175.140425</ele>
        <time>2026-08-18T04:59:01.000Z</time>
      </trkpt>
      <trkpt lat="22.909711" lon="110.954131">
        <ele>175.095165</ele>
        <time>2026-08-18T04:59:02.000Z</time>
      </trkpt>
      <trkpt lat="22.909728" lon="110.954152">
        <ele>175.043159</ele>
        <time>2026-08-18T04:59:03.000Z</time>
      </trkpt>
      <trkpt lat="22.909750" lon="110.954167">
        <ele>174.990696</ele>
        <time>2026-08-18T04:59:04.000Z</time>
      </trkpt>
      <trkpt lat="22.909778" lon="110.954173">
        <ele>174.933060</ele>
        <time>2026-08-18T04:59:05.000Z</time>
      </trkpt>
      <trkpt lat="22.909808" lon="110.954171">
        <ele>174.872362</ele>
        <time>2026-08-18T04:59:06.000Z</time>
      </trkpt>
      <trkpt lat="22.909839" lon="110.954161">
        <ele>174.807053</ele>
        <time>2026-08-18T04:59:07.000Z</time>
      </trkpt>
      <trkpt lat="22.909870" lon="110.954144">
        <ele>174.736916</ele>
        <time>2026-08-18T04:59:08.000Z</time>
      </trkpt>
      <trkpt lat="22.909898" lon="110.954118">
        <ele>174.662509</ele>
        <time>2026-08-18T04:59:09.000Z</time>
      </trkpt>
      <trkpt lat="22.909922" lon="110.954089">
        <ele>174.589989</ele>
        <time>2026-08-18T04:59:10.000Z</time>
      </trkpt>
      <trkpt lat="22.909946" lon="110.954057">
        <ele>174.513228</ele>
        <time>2026-08-18T04:59:11.000Z</time>
      </trkpt>
      <trkpt lat="22.909970" lon="110.954026">
        <ele>174.437900</ele>
        <time>2026-08-18T04:59:12.000Z</time>
      </trkpt>
      <trkpt lat="22.909996" lon="110.953995">
        <ele>174.359912</ele>
        <time>2026-08-18T04:59:13.000Z</time>
      </trkpt>
      <trkpt lat="22.910026" lon="110.953964">
        <ele>174.276271</ele>
        <time>2026-08-18T04:59:14.000Z</time>
      </trkpt>
      <trkpt lat="22.910059" lon="110.953937">
        <ele>174.192823</ele>
        <time>2026-08-18T04:59:15.000Z</time>
      </trkpt>
      <trkpt lat="22.910096" lon="110.953914">
        <ele>174.106721</ele>
        <time>2026-08-18T04:59:16.000Z</time>
      </trkpt>
      <trkpt lat="22.910137" lon="110.953891">
        <ele>174.013522</ele>
        <time>2026-08-18T04:59:17.000Z</time>
      </trkpt>
      <trkpt lat="22.910182" lon="110.953871">
        <ele>173.915326</ele>
        <time>2026-08-18T04:59:18.000Z</time>
      </trkpt>
      <trkpt lat="22.910230" lon="110.953859">
        <ele>173.815855</ele>
        <time>2026-08-18T04:59:19.000Z</time>
      </trkpt>
      <trkpt lat="22.910278" lon="110.953851">
        <ele>173.717785</ele>
        <time>2026-08-18T04:59:20.000Z</time>
      </trkpt>
      <trkpt lat="22.910327" lon="110.953840">
        <ele>173.616738</ele>
        <time>2026-08-18T04:59:21.000Z</time>
      </trkpt>
      <trkpt lat="22.910376" lon="110.953827">
        <ele>173.514872</ele>
        <time>2026-08-18T04:59:22.000Z</time>
      </trkpt>
      <trkpt lat="22.910426" lon="110.953816">
        <ele>173.411847</ele>
        <time>2026-08-18T04:59:23.000Z</time>
      </trkpt>
      <trkpt lat="22.910480" lon="110.953808">
        <ele>173.301785</ele>
        <time>2026-08-18T04:59:24.000Z</time>
      </trkpt>
      <trkpt lat="22.910537" lon="110.953798">
        <ele>173.185182</ele>
        <time>2026-08-18T04:59:25.000Z</time>
      </trkpt>
      <trkpt lat="22.910598" lon="110.953786">
        <ele>173.059989</ele>
        <time>2026-08-18T04:59:26.000Z</time>
      </trkpt>
      <trkpt lat="22.910661" lon="110.953775">
        <ele>172.817764</ele>
        <time>2026-08-18T04:59:27.000Z</time>
      </trkpt>
      <trkpt lat="22.910729" lon="110.953762">
        <ele>172.520692</ele>
        <time>2026-08-18T04:59:28.000Z</time>
      </trkpt>
      <trkpt lat="22.910799" lon="110.953747">
        <ele>172.213706</ele>
        <time>2026-08-18T04:59:29.000Z</time>
      </trkpt>
      <trkpt lat="22.910873" lon="110.953731">
        <ele>171.889068</ele>
        <time>2026-08-18T04:59:30.000Z</time>
      </trkpt>
      <trkpt lat="22.910948" lon="110.953712">
        <ele>171.557712</ele>
        <time>2026-08-18T04:59:31.000Z</time>
      </trkpt>
      <trkpt lat="22.911023" lon="110.953694">
        <ele>171.227233</ele>
        <time>2026-08-18T04:59:32.000Z</time>
      </trkpt>
      <trkpt lat="22.911101" lon="110.953678">
        <ele>170.885700</ele>
        <time>2026-08-18T04:59:33.000Z</time>
      </trkpt>
      <trkpt lat="22.911181" lon="110.953662">
        <ele>170.535708</ele>
        <time>2026-08-18T04:59:34.000Z</time>
      </trkpt>
      <trkpt lat="22.911262" lon="110.953647">
        <ele>170.182172</ele>
        <time>2026-08-18T04:59:35.000Z</time>
      </trkpt>
      <trkpt lat="22.911341" lon="110.953632">
        <ele>169.837115</ele>
        <time>2026-08-18T04:59:36.000Z</time>
      </trkpt>
      <trkpt lat="22.911420" lon="110.953617">
        <ele>169.492058</ele>
        <time>2026-08-18T04:59:37.000Z</time>
      </trkpt>
      <trkpt lat="22.911498" lon="110.953602">
        <ele>169.151239</ele>
        <time>2026-08-18T04:59:38.000Z</time>
      </trkpt>
      <trkpt lat="22.911576" lon="110.953588">
        <ele>168.811088</ele>
        <time>2026-08-18T04:59:39.000Z</time>
      </trkpt>
      <trkpt lat="22.911653" lon="110.953572">
        <ele>168.473782</ele>
        <time>2026-08-18T04:59:40.000Z</time>
      </trkpt>
      <trkpt lat="22.911730" lon="110.953556">
        <ele>168.136476</ele>
        <time>2026-08-18T04:59:41.000Z</time>
      </trkpt>
      <trkpt lat="22.911805" lon="110.953538">
        <ele>167.805997</ele>
        <time>2026-08-18T04:59:42.000Z</time>
      </trkpt>
      <trkpt lat="22.911880" lon="110.953520">
        <ele>167.475519</ele>
        <time>2026-08-18T04:59:43.000Z</time>
      </trkpt>
      <trkpt lat="22.911956" lon="110.953505">
        <ele>167.143169</ele>
        <time>2026-08-18T04:59:44.000Z</time>
      </trkpt>
      <trkpt lat="22.912031" lon="110.953485">
        <ele>166.810890</ele>
        <time>2026-08-18T04:59:45.000Z</time>
      </trkpt>
      <trkpt lat="22.912105" lon="110.953470">
        <ele>166.487003</ele>
        <time>2026-08-18T04:59:46.000Z</time>
      </trkpt>
      <trkpt lat="22.912179" lon="110.953458">
        <ele>166.165086</ele>
        <time>2026-08-18T04:59:47.000Z</time>
      </trkpt>
      <trkpt lat="22.912253" lon="110.953446">
        <ele>165.843168</ele>
        <time>2026-08-18T04:59:48.000Z</time>
      </trkpt>
      <trkpt lat="22.912327" lon="110.953434">
        <ele>165.521251</ele>
        <time>2026-08-18T04:59:49.000Z</time>
      </trkpt>
      <trkpt lat="22.912399" lon="110.953417">
        <ele>165.230251</ele>
        <time>2026-08-18T04:59:50.000Z</time>
      </trkpt>
      <trkpt lat="22.912466" lon="110.953401">
        <ele>165.021866</ele>
        <time>2026-08-18T04:59:51.000Z</time>
      </trkpt>
      <trkpt lat="22.912528" lon="110.953390">
        <ele>164.831036</ele>
        <time>2026-08-18T04:59:52.000Z</time>
      </trkpt>
      <trkpt lat="22.912586" lon="110.953378">
        <ele>164.651684</ele>
        <time>2026-08-18T04:59:53.000Z</time>
      </trkpt>
      <trkpt lat="22.912635" lon="110.953365">
        <ele>164.498461</ele>
        <time>2026-08-18T04:59:54.000Z</time>
      </trkpt>
      <trkpt lat="22.912681" lon="110.953354">
        <ele>164.355382</ele>
        <time>2026-08-18T04:59:55.000Z</time>
      </trkpt>
      <trkpt lat="22.912725" lon="110.953344">
        <ele>164.218830</ele>
        <time>2026-08-18T04:59:56.000Z</time>
      </trkpt>
      <trkpt lat="22.912765" lon="110.953344">
        <ele>164.097326</ele>
        <time>2026-08-18T04:59:57.000Z</time>
      </trkpt>
      <trkpt lat="22.912797" lon="110.953344">
        <ele>164.000122</ele>
        <time>2026-08-18T04:59:58.000Z</time>
      </trkpt>
      <trkpt lat="22.912827" lon="110.953360">
        <ele>163.898592</ele>
        <time>2026-08-18T04:59:59.000Z</time>
      </trkpt>
      <trkpt lat="22.912851" lon="110.953379">
        <ele>163.808365</ele>
        <time>2026-08-18T05:00:00.000Z</time>
      </trkpt>
      <trkpt lat="22.912862" lon="110.953404">
        <ele>163.730846</ele>
        <time>2026-08-18T05:00:01.000Z</time>
      </trkpt>
      <trkpt lat="22.912876" lon="110.953429">
        <ele>163.648984</ele>
        <time>2026-08-18T05:00:02.000Z</time>
      </trkpt>
      <trkpt lat="22.912886" lon="110.953474">
        <ele>163.519465</ele>
        <time>2026-08-18T05:00:03.000Z</time>
      </trkpt>
      <trkpt lat="22.912892" lon="110.953518">
        <ele>163.395014</ele>
        <time>2026-08-18T05:00:04.000Z</time>
      </trkpt>
      <trkpt lat="22.912904" lon="110.953565">
        <ele>163.258553</ele>
        <time>2026-08-18T05:00:05.000Z</time>
      </trkpt>
      <trkpt lat="22.912911" lon="110.953616">
        <ele>163.114283</ele>
        <time>2026-08-18T05:00:06.000Z</time>
      </trkpt>
      <trkpt lat="22.912919" lon="110.953671">
        <ele>162.958489</ele>
        <time>2026-08-18T05:00:07.000Z</time>
      </trkpt>
      <trkpt lat="22.912928" lon="110.953726">
        <ele>162.802194</ele>
        <time>2026-08-18T05:00:08.000Z</time>
      </trkpt>
      <trkpt lat="22.912938" lon="110.953779">
        <ele>162.650824</ele>
        <time>2026-08-18T05:00:09.000Z</time>
      </trkpt>
      <trkpt lat="22.912947" lon="110.953835">
        <ele>162.491773</ele>
        <time>2026-08-18T05:00:10.000Z</time>
      </trkpt>
      <trkpt lat="22.912958" lon="110.953895">
        <ele>162.320604</ele>
        <time>2026-08-18T05:00:11.000Z</time>
      </trkpt>
      <trkpt lat="22.912966" lon="110.953955">
        <ele>162.150978</ele>
        <time>2026-08-18T05:00:12.000Z</time>
      </trkpt>
      <trkpt lat="22.912979" lon="110.954017">
        <ele>161.973068</ele>
        <time>2026-08-18T05:00:13.000Z</time>
      </trkpt>
      <trkpt lat="22.912988" lon="110.954081">
        <ele>161.791926</ele>
        <time>2026-08-18T05:00:14.000Z</time>
      </trkpt>
      <trkpt lat="22.913002" lon="110.954143">
        <ele>161.613318</ele>
        <time>2026-08-18T05:00:15.000Z</time>
      </trkpt>
      <trkpt lat="22.913015" lon="110.954208">
        <ele>161.427214</ele>
        <time>2026-08-18T05:00:16.000Z</time>
      </trkpt>
      <trkpt lat="22.913023" lon="110.954274">
        <ele>161.240959</ele>
        <time>2026-08-18T05:00:17.000Z</time>
      </trkpt>
      <trkpt lat="22.913031" lon="110.954339">
        <ele>161.057477</ele>
        <time>2026-08-18T05:00:18.000Z</time>
      </trkpt>
      <trkpt lat="22.913038" lon="110.954402">
        <ele>160.879929</ele>
        <time>2026-08-18T05:00:19.000Z</time>
      </trkpt>
      <trkpt lat="22.913049" lon="110.954457">
        <ele>160.722457</ele>
        <time>2026-08-18T05:00:20.000Z</time>
      </trkpt>
      <trkpt lat="22.913058" lon="110.954517">
        <ele>160.552370</ele>
        <time>2026-08-18T05:00:21.000Z</time>
      </trkpt>
      <trkpt lat="22.913067" lon="110.954575">
        <ele>160.387804</ele>
        <time>2026-08-18T05:00:22.000Z</time>
      </trkpt>
      <trkpt lat="22.913077" lon="110.954625">
        <ele>160.244647</ele>
        <time>2026-08-18T05:00:23.000Z</time>
      </trkpt>
      <trkpt lat="22.913085" lon="110.954673">
        <ele>160.108166</ele>
        <time>2026-08-18T05:00:24.000Z</time>
      </trkpt>
      <trkpt lat="22.913098" lon="110.954716">
        <ele>159.981540</ele>
        <time>2026-08-18T05:00:25.000Z</time>
      </trkpt>
      <trkpt lat="22.913123" lon="110.954749">
        <ele>159.861991</ele>
        <time>2026-08-18T05:00:26.000Z</time>
      </trkpt>
      <trkpt lat="22.913153" lon="110.954773">
        <ele>159.820869</ele>
        <time>2026-08-18T05:00:27.000Z</time>
      </trkpt>
      <trkpt lat="22.913186" lon="110.954790">
        <ele>159.809413</ele>
        <time>2026-08-18T05:00:28.000Z</time>
      </trkpt>
      <trkpt lat="22.913220" lon="110.954800">
        <ele>159.798364</ele>
        <time>2026-08-18T05:00:29.000Z</time>
      </trkpt>
      <trkpt lat="22.913253" lon="110.954803">
        <ele>159.787978</ele>
        <time>2026-08-18T05:00:30.000Z</time>
      </trkpt>
      <trkpt lat="22.913289" lon="110.954805">
        <ele>159.776672</ele>
        <time>2026-08-18T05:00:31.000Z</time>
      </trkpt>
      <trkpt lat="22.913326" lon="110.954804">
        <ele>159.765064</ele>
        <time>2026-08-18T05:00:32.000Z</time>
      </trkpt>
      <trkpt lat="22.913365" lon="110.954799">
        <ele>159.752747</ele>
        <time>2026-08-18T05:00:33.000Z</time>
      </trkpt>
      <trkpt lat="22.913405" lon="110.954793">
        <ele>159.740082</ele>
        <time>2026-08-18T05:00:34.000Z</time>
      </trkpt>
      <trkpt lat="22.913445" lon="110.954788">
        <ele>159.727453</ele>
        <time>2026-08-18T05:00:35.000Z</time>
      </trkpt>
      <trkpt lat="22.913487" lon="110.954781">
        <ele>159.714126</ele>
        <time>2026-08-18T05:00:36.000Z</time>
      </trkpt>
      <trkpt lat="22.913520" lon="110.954772">
        <ele>159.703454</ele>
        <time>2026-08-18T05:00:37.000Z</time>
      </trkpt>
      <trkpt lat="22.913552" lon="110.954755">
        <ele>159.692281</ele>
        <time>2026-08-18T05:00:38.000Z</time>
      </trkpt>
      <trkpt lat="22.913592" lon="110.954742">
        <ele>159.679185</ele>
        <time>2026-08-18T05:00:39.000Z</time>
      </trkpt>
      <trkpt lat="22.913631" lon="110.954736">
        <ele>159.666831</ele>
        <time>2026-08-18T05:00:40.000Z</time>
      </trkpt>
      <trkpt lat="22.913673" lon="110.954726">
        <ele>159.653345</ele>
        <time>2026-08-18T05:00:41.000Z</time>
      </trkpt>
      <trkpt lat="22.913717" lon="110.954719">
        <ele>159.639397</ele>
        <time>2026-08-18T05:00:42.000Z</time>
      </trkpt>
      <trkpt lat="22.913760" lon="110.954711">
        <ele>159.625714</ele>
        <time>2026-08-18T05:00:43.000Z</time>
      </trkpt>
      <trkpt lat="22.913802" lon="110.954703">
        <ele>159.612340</ele>
        <time>2026-08-18T05:00:44.000Z</time>
      </trkpt>
      <trkpt lat="22.913844" lon="110.954694">
        <ele>159.598913</ele>
        <time>2026-08-18T05:00:45.000Z</time>
      </trkpt>
      <trkpt lat="22.913886" lon="110.954684">
        <ele>159.585427</ele>
        <time>2026-08-18T05:00:46.000Z</time>
      </trkpt>
      <trkpt lat="22.913930" lon="110.954678">
        <ele>159.571518</ele>
        <time>2026-08-18T05:00:47.000Z</time>
      </trkpt>
      <trkpt lat="22.913975" lon="110.954673">
        <ele>159.557330</ele>
        <time>2026-08-18T05:00:48.000Z</time>
      </trkpt>
      <trkpt lat="22.914023" lon="110.954668">
        <ele>159.542206</ele>
        <time>2026-08-18T05:00:49.000Z</time>
      </trkpt>
      <trkpt lat="22.914070" lon="110.954662">
        <ele>159.527364</ele>
        <time>2026-08-18T05:00:50.000Z</time>
      </trkpt>
      <trkpt lat="22.914114" lon="110.954657">
        <ele>159.513488</ele>
        <time>2026-08-18T05:00:51.000Z</time>
      </trkpt>
      <trkpt lat="22.914157" lon="110.954651">
        <ele>159.499891</ele>
        <time>2026-08-18T05:00:52.000Z</time>
      </trkpt>
      <trkpt lat="22.914201" lon="110.954646">
        <ele>159.486015</ele>
        <time>2026-08-18T05:00:53.000Z</time>
      </trkpt>
      <trkpt lat="22.914245" lon="110.954641">
        <ele>159.472139</ele>
        <time>2026-08-18T05:00:54.000Z</time>
      </trkpt>
      <trkpt lat="22.914287" lon="110.954632">
        <ele>159.458712</ele>
        <time>2026-08-18T05:00:55.000Z</time>
      </trkpt>
      <trkpt lat="22.914330" lon="110.954620">
        <ele>159.444787</ele>
        <time>2026-08-18T05:00:56.000Z</time>
      </trkpt>
      <trkpt lat="22.914374" lon="110.954607">
        <ele>159.430485</ele>
        <time>2026-08-18T05:00:57.000Z</time>
      </trkpt>
      <trkpt lat="22.914419" lon="110.954599">
        <ele>159.416183</ele>
        <time>2026-08-18T05:00:58.000Z</time>
      </trkpt>
      <trkpt lat="22.914465" lon="110.954594">
        <ele>159.401684</ele>
        <time>2026-08-18T05:00:59.000Z</time>
      </trkpt>
      <trkpt lat="22.914508" lon="110.954587">
        <ele>159.388046</ele>
        <time>2026-08-18T05:01:00.000Z</time>
      </trkpt>
      <trkpt lat="22.914552" lon="110.954576">
        <ele>159.373885</ele>
        <time>2026-08-18T05:01:01.000Z</time>
      </trkpt>
      <trkpt lat="22.914594" lon="110.954565">
        <ele>159.360334</ele>
        <time>2026-08-18T05:01:02.000Z</time>
      </trkpt>
      <trkpt lat="22.914635" lon="110.954555">
        <ele>159.347154</ele>
        <time>2026-08-18T05:01:03.000Z</time>
      </trkpt>
      <trkpt lat="22.914676" lon="110.954547">
        <ele>159.334089</ele>
        <time>2026-08-18T05:01:04.000Z</time>
      </trkpt>
      <trkpt lat="22.914714" lon="110.954546">
        <ele>159.322167</ele>
        <time>2026-08-18T05:01:05.000Z</time>
      </trkpt>
      <trkpt lat="22.914750" lon="110.954551">
        <ele>159.310784</ele>
        <time>2026-08-18T05:01:06.000Z</time>
      </trkpt>
      <trkpt lat="22.914781" lon="110.954562">
        <ele>159.300555</ele>
        <time>2026-08-18T05:01:07.000Z</time>
      </trkpt>
      <trkpt lat="22.914806" lon="110.954586">
        <ele>159.290088</ele>
        <time>2026-08-18T05:01:08.000Z</time>
      </trkpt>
      <trkpt lat="22.914821" lon="110.954613">
        <ele>159.280979</ele>
        <time>2026-08-18T05:01:09.000Z</time>
      </trkpt>
      <trkpt lat="22.914826" lon="110.954647">
        <ele>159.271032</ele>
        <time>2026-08-18T05:01:10.000Z</time>
      </trkpt>
      <trkpt lat="22.914833" lon="110.954680">
        <ele>159.255877</ele>
        <time>2026-08-18T05:01:11.000Z</time>
      </trkpt>
      <trkpt lat="22.914841" lon="110.954712">
        <ele>159.232717</ele>
        <time>2026-08-18T05:01:12.000Z</time>
      </trkpt>
      <trkpt lat="22.914846" lon="110.954746">
        <ele>159.208668</ele>
        <time>2026-08-18T05:01:13.000Z</time>
      </trkpt>
      <trkpt lat="22.914854" lon="110.954784">
        <ele>159.181441</ele>
        <time>2026-08-18T05:01:14.000Z</time>
      </trkpt>
      <trkpt lat="22.914863" lon="110.954818">
        <ele>159.156731</ele>
        <time>2026-08-18T05:01:15.000Z</time>
      </trkpt>
      <trkpt lat="22.914868" lon="110.954853">
        <ele>159.131992</ele>
        <time>2026-08-18T05:01:16.000Z</time>
      </trkpt>
      <trkpt lat="22.914880" lon="110.954889">
        <ele>159.105250</ele>
        <time>2026-08-18T05:01:17.000Z</time>
      </trkpt>
      <trkpt lat="22.914887" lon="110.954914">
        <ele>159.086999</ele>
        <time>2026-08-18T05:01:18.000Z</time>
      </trkpt>
      <trkpt lat="22.914891" lon="110.954938">
        <ele>159.069963</ele>
        <time>2026-08-18T05:01:19.000Z</time>
      </trkpt>
      <trkpt lat="22.914886" lon="110.954951">
        <ele>159.060123</ele>
        <time>2026-08-18T05:01:20.000Z</time>
      </trkpt>
      <trkpt lat="22.914891" lon="110.954965">
        <ele>159.049635</ele>
        <time>2026-08-18T05:01:21.000Z</time>
      </trkpt>
      <trkpt lat="22.914890" lon="110.954975">
        <ele>159.042609</ele>
        <time>2026-08-18T05:01:22.000Z</time>
      </trkpt>
      <trkpt lat="22.914891" lon="110.954980">
        <ele>159.039035</ele>
        <time>2026-08-18T05:01:23.000Z</time>
      </trkpt>
      <trkpt lat="22.914885" lon="110.954983">
        <ele>159.034026</ele>
        <time>2026-08-18T05:01:24.000Z</time>
      </trkpt>
      <trkpt lat="22.914840" lon="110.955184">
        <ele>158.889542</ele>
        <time>2026-08-18T05:40:00.000Z</time>
      </trkpt>
      <trkpt lat="22.914845" lon="110.955198">
        <ele>158.879054</ele>
        <time>2026-08-18T05:40:01.000Z</time>
      </trkpt>
      <trkpt lat="22.914844" lon="110.955212">
        <ele>158.869246</ele>
        <time>2026-08-18T05:40:02.000Z</time>
      </trkpt>
      <trkpt lat="22.914846" lon="110.955224">
        <ele>158.860728</ele>
        <time>2026-08-18T05:40:03.000Z</time>
      </trkpt>
      <trkpt lat="22.914848" lon="110.955238">
        <ele>158.850832</ele>
        <time>2026-08-18T05:40:04.000Z</time>
      </trkpt>
      <trkpt lat="22.914842" lon="110.955251">
        <ele>158.840675</ele>
        <time>2026-08-18T05:40:05.000Z</time>
      </trkpt>
      <trkpt lat="22.914844" lon="110.955264">
        <ele>158.831469</ele>
        <time>2026-08-18T05:40:06.000Z</time>
      </trkpt>
      <trkpt lat="22.914846" lon="110.955277">
        <ele>158.822263</ele>
        <time>2026-08-18T05:40:07.000Z</time>
      </trkpt>
      <trkpt lat="22.914848" lon="110.955289">
        <ele>158.813745</ele>
        <time>2026-08-18T05:40:08.000Z</time>
      </trkpt>
      <trkpt lat="22.914867" lon="110.955327">
        <ele>158.783544</ele>
        <time>2026-08-18T05:40:24.000Z</time>
      </trkpt>
      <trkpt lat="22.914873" lon="110.955342">
        <ele>158.772122</ele>
        <time>2026-08-18T05:40:25.000Z</time>
      </trkpt>
      <trkpt lat="22.914878" lon="110.955357">
        <ele>158.760979</ele>
        <time>2026-08-18T05:40:26.000Z</time>
      </trkpt>
      <trkpt lat="22.914877" lon="110.955373">
        <ele>158.749778</ele>
        <time>2026-08-18T05:40:27.000Z</time>
      </trkpt>
      <trkpt lat="22.914882" lon="110.955393">
        <ele>158.735303</ele>
        <time>2026-08-18T05:40:28.000Z</time>
      </trkpt>
      <trkpt lat="22.914890" lon="110.955414">
        <ele>158.719429</ele>
        <time>2026-08-18T05:40:29.000Z</time>
      </trkpt>
      <trkpt lat="22.914894" lon="110.955433">
        <ele>158.705816</ele>
        <time>2026-08-18T05:40:30.000Z</time>
      </trkpt>
      <trkpt lat="22.914900" lon="110.955455">
        <ele>158.689790</ele>
        <time>2026-08-18T05:40:31.000Z</time>
      </trkpt>
      <trkpt lat="22.914906" lon="110.955476">
        <ele>158.674432</ele>
        <time>2026-08-18T05:40:32.000Z</time>
      </trkpt>
      <trkpt lat="22.914910" lon="110.955499">
        <ele>158.658083</ele>
        <time>2026-08-18T05:40:33.000Z</time>
      </trkpt>
      <trkpt lat="22.914922" lon="110.955524">
        <ele>158.638392</ele>
        <time>2026-08-18T05:40:34.000Z</time>
      </trkpt>
      <trkpt lat="22.914935" lon="110.955548">
        <ele>158.618944</ele>
        <time>2026-08-18T05:40:35.000Z</time>
      </trkpt>
      <trkpt lat="22.914944" lon="110.955570">
        <ele>158.602130</ele>
        <time>2026-08-18T05:40:36.000Z</time>
      </trkpt>
      <trkpt lat="22.914949" lon="110.955594">
        <ele>158.584943</ele>
        <time>2026-08-18T05:40:37.000Z</time>
      </trkpt>
      <trkpt lat="22.914972" lon="110.955618">
        <ele>158.560752</ele>
        <time>2026-08-18T05:40:38.000Z</time>
      </trkpt>
      <trkpt lat="22.914978" lon="110.955642">
        <ele>158.543381</ele>
        <time>2026-08-18T05:40:39.000Z</time>
      </trkpt>
      <trkpt lat="22.914972" lon="110.955661">
        <ele>158.529352</ele>
        <time>2026-08-18T05:40:40.000Z</time>
      </trkpt>
      <trkpt lat="22.914958" lon="110.955685">
        <ele>158.509509</ele>
        <time>2026-08-18T05:40:41.000Z</time>
      </trkpt>
      <trkpt lat="22.914948" lon="110.955708">
        <ele>158.491744</ele>
        <time>2026-08-18T05:40:42.000Z</time>
      </trkpt>
      <trkpt lat="22.914941" lon="110.955733">
        <ele>158.473493</ele>
        <time>2026-08-18T05:40:43.000Z</time>
      </trkpt>
      <trkpt lat="22.914938" lon="110.955763">
        <ele>158.452415</ele>
        <time>2026-08-18T05:40:44.000Z</time>
      </trkpt>
      <trkpt lat="22.914933" lon="110.955794">
        <ele>158.430433</ele>
        <time>2026-08-18T05:40:45.000Z</time>
      </trkpt>
      <trkpt lat="22.914930" lon="110.955825">
        <ele>158.408660</ele>
        <time>2026-08-18T05:40:46.000Z</time>
      </trkpt>
      <trkpt lat="22.914924" lon="110.955856">
        <ele>158.386534</ele>
        <time>2026-08-18T05:40:47.000Z</time>
      </trkpt>
      <trkpt lat="22.914922" lon="110.955890">
        <ele>158.362737</ele>
        <time>2026-08-18T05:40:48.000Z</time>
      </trkpt>
      <trkpt lat="22.914919" lon="110.955930">
        <ele>158.334705</ele>
        <time>2026-08-18T05:40:49.000Z</time>
      </trkpt>
      <trkpt lat="22.914914" lon="110.955972">
        <ele>158.305125</ele>
        <time>2026-08-18T05:40:50.000Z</time>
      </trkpt>
      <trkpt lat="22.914908" lon="110.956015">
        <ele>158.274747</ele>
        <time>2026-08-18T05:40:51.000Z</time>
      </trkpt>
      <trkpt lat="22.914902" lon="110.956054">
        <ele>158.247129</ele>
        <time>2026-08-18T05:40:52.000Z</time>
      </trkpt>
      <trkpt lat="22.914896" lon="110.956093">
        <ele>158.219511</ele>
        <time>2026-08-18T05:40:53.000Z</time>
      </trkpt>
      <trkpt lat="22.914890" lon="110.956135">
        <ele>158.189823</ele>
        <time>2026-08-18T05:40:54.000Z</time>
      </trkpt>
      <trkpt lat="22.914886" lon="110.956177">
        <ele>158.160331</ele>
        <time>2026-08-18T05:40:55.000Z</time>
      </trkpt>
      <trkpt lat="22.914886" lon="110.956220">
        <ele>158.130296</ele>
        <time>2026-08-18T05:40:56.000Z</time>
      </trkpt>
      <trkpt lat="22.914886" lon="110.956263">
        <ele>158.100261</ele>
        <time>2026-08-18T05:40:57.000Z</time>
      </trkpt>
      <trkpt lat="22.914885" lon="110.956307">
        <ele>158.069518</ele>
        <time>2026-08-18T05:40:58.000Z</time>
      </trkpt>
      <trkpt lat="22.914884" lon="110.956351">
        <ele>158.038775</ele>
        <time>2026-08-18T05:40:59.000Z</time>
      </trkpt>
      <trkpt lat="22.914881" lon="110.956394">
        <ele>158.008654</ele>
        <time>2026-08-18T05:41:00.000Z</time>
      </trkpt>
      <trkpt lat="22.914877" lon="110.956436">
        <ele>157.979161</ele>
        <time>2026-08-18T05:41:01.000Z</time>
      </trkpt>
      <trkpt lat="22.914873" lon="110.956480">
        <ele>157.948279</ele>
        <time>2026-08-18T05:41:02.000Z</time>
      </trkpt>
      <trkpt lat="22.914870" lon="110.956525">
        <ele>157.916764</ele>
        <time>2026-08-18T05:41:03.000Z</time>
      </trkpt>
      <trkpt lat="22.914868" lon="110.956570">
        <ele>157.880412</ele>
        <time>2026-08-18T05:41:04.000Z</time>
      </trkpt>
      <trkpt lat="22.914867" lon="110.956615">
        <ele>157.839236</ele>
        <time>2026-08-18T05:41:05.000Z</time>
      </trkpt>
      <trkpt lat="22.914866" lon="110.956661">
        <ele>157.797146</ele>
        <time>2026-08-18T05:41:06.000Z</time>
      </trkpt>
      <trkpt lat="22.914861" lon="110.956707">
        <ele>157.754776</ele>
        <time>2026-08-18T05:41:07.000Z</time>
      </trkpt>
      <trkpt lat="22.914853" lon="110.956754">
        <ele>157.711055</ele>
        <time>2026-08-18T05:41:08.000Z</time>
      </trkpt>
      <trkpt lat="22.914848" lon="110.956801">
        <ele>157.667776</ele>
        <time>2026-08-18T05:41:09.000Z</time>
      </trkpt>
      <trkpt lat="22.914847" lon="110.956851">
        <ele>157.622028</ele>
        <time>2026-08-18T05:41:10.000Z</time>
      </trkpt>
      <trkpt lat="22.914845" lon="110.956901">
        <ele>157.576248</ele>
        <time>2026-08-18T05:41:11.000Z</time>
      </trkpt>
      <trkpt lat="22.914840" lon="110.956950">
        <ele>157.531151</ele>
        <time>2026-08-18T05:41:12.000Z</time>
      </trkpt>
      <trkpt lat="22.914835" lon="110.956999">
        <ele>157.486055</ele>
        <time>2026-08-18T05:41:13.000Z</time>
      </trkpt>
      <trkpt lat="22.914831" lon="110.957049">
        <ele>157.440145</ele>
        <time>2026-08-18T05:41:14.000Z</time>
      </trkpt>
      <trkpt lat="22.914828" lon="110.957100">
        <ele>157.393398</ele>
        <time>2026-08-18T05:41:15.000Z</time>
      </trkpt>
      <trkpt lat="22.914826" lon="110.957152">
        <ele>157.345790</ele>
        <time>2026-08-18T05:41:16.000Z</time>
      </trkpt>
      <trkpt lat="22.914826" lon="110.957205">
        <ele>157.297309</ele>
        <time>2026-08-18T05:41:17.000Z</time>
      </trkpt>
      <trkpt lat="22.914824" lon="110.957257">
        <ele>157.249700</ele>
        <time>2026-08-18T05:41:18.000Z</time>
      </trkpt>
      <trkpt lat="22.914822" lon="110.957309">
        <ele>157.202092</ele>
        <time>2026-08-18T05:41:19.000Z</time>
      </trkpt>
      <trkpt lat="22.914820" lon="110.957362">
        <ele>157.153570</ele>
        <time>2026-08-18T05:41:20.000Z</time>
      </trkpt>
      <trkpt lat="22.914817" lon="110.957415">
        <ele>157.104997</ele>
        <time>2026-08-18T05:41:21.000Z</time>
      </trkpt>
      <trkpt lat="22.914816" lon="110.957467">
        <ele>157.057420</ele>
        <time>2026-08-18T05:41:22.000Z</time>
      </trkpt>
      <trkpt lat="22.914813" lon="110.957521">
        <ele>157.007934</ele>
        <time>2026-08-18T05:41:23.000Z</time>
      </trkpt>
      <trkpt lat="22.914811" lon="110.957573">
        <ele>156.960326</ele>
        <time>2026-08-18T05:41:24.000Z</time>
      </trkpt>
      <trkpt lat="22.914809" lon="110.957627">
        <ele>156.910890</ele>
        <time>2026-08-18T05:41:25.000Z</time>
      </trkpt>
      <trkpt lat="22.914806" lon="110.957681">
        <ele>156.861404</ele>
        <time>2026-08-18T05:41:26.000Z</time>
      </trkpt>
      <trkpt lat="22.914802" lon="110.957736">
        <ele>156.810936</ele>
        <time>2026-08-18T05:41:27.000Z</time>
      </trkpt>
      <trkpt lat="22.914798" lon="110.957792">
        <ele>156.759556</ele>
        <time>2026-08-18T05:41:28.000Z</time>
      </trkpt>
      <trkpt lat="22.914796" lon="110.957846">
        <ele>156.710120</ele>
        <time>2026-08-18T05:41:29.000Z</time>
      </trkpt>
      <trkpt lat="22.914791" lon="110.957900">
        <ele>156.660475</ele>
        <time>2026-08-18T05:41:30.000Z</time>
      </trkpt>
      <trkpt lat="22.914787" lon="110.957953">
        <ele>156.611831</ele>
        <time>2026-08-18T05:41:31.000Z</time>
      </trkpt>
      <trkpt lat="22.914783" lon="110.958007">
        <ele>156.562275</ele>
        <time>2026-08-18T05:41:32.000Z</time>
      </trkpt>
      <trkpt lat="22.914780" lon="110.958062">
        <ele>156.511876</ele>
        <time>2026-08-18T05:41:33.000Z</time>
      </trkpt>
      <trkpt lat="22.914777" lon="110.958117">
        <ele>156.461477</ele>
        <time>2026-08-18T05:41:34.000Z</time>
      </trkpt>
      <trkpt lat="22.914774" lon="110.958173">
        <ele>156.410165</ele>
        <time>2026-08-18T05:41:35.000Z</time>
      </trkpt>
      <trkpt lat="22.914770" lon="110.958229">
        <ele>156.358785</ele>
        <time>2026-08-18T05:41:36.000Z</time>
      </trkpt>
      <trkpt lat="22.914765" lon="110.958285">
        <ele>156.307319</ele>
        <time>2026-08-18T05:41:37.000Z</time>
      </trkpt>
      <trkpt lat="22.914761" lon="110.958337">
        <ele>156.259587</ele>
        <time>2026-08-18T05:41:38.000Z</time>
      </trkpt>
      <trkpt lat="22.914752" lon="110.958394">
        <ele>156.206686</ele>
        <time>2026-08-18T05:41:39.000Z</time>
      </trkpt>
      <trkpt lat="22.914749" lon="110.958447">
        <ele>156.158113</ele>
        <time>2026-08-18T05:41:40.000Z</time>
      </trkpt>
      <trkpt lat="22.914744" lon="110.958503">
        <ele>156.104799</ele>
        <time>2026-08-18T05:41:41.000Z</time>
      </trkpt>
      <trkpt lat="22.914742" lon="110.958559">
        <ele>156.041925</ele>
        <time>2026-08-18T05:41:42.000Z</time>
      </trkpt>
      <trkpt lat="22.914741" lon="110.958612">
        <ele>155.982452</ele>
        <time>2026-08-18T05:41:43.000Z</time>
      </trkpt>
      <trkpt lat="22.914739" lon="110.958665">
        <ele>155.922941</ele>
        <time>2026-08-18T05:41:44.000Z</time>
      </trkpt>
      <trkpt lat="22.914736" lon="110.958721">
        <ele>155.860008</ele>
        <time>2026-08-18T05:41:45.000Z</time>
      </trkpt>
      <trkpt lat="22.914731" lon="110.958777">
        <ele>155.796886</ele>
        <time>2026-08-18T05:41:46.000Z</time>
      </trkpt>
      <trkpt lat="22.914728" lon="110.958830">
        <ele>155.737313</ele>
        <time>2026-08-18T05:41:47.000Z</time>
      </trkpt>
      <trkpt lat="22.914721" lon="110.958887">
        <ele>155.672798</ele>
        <time>2026-08-18T05:41:48.000Z</time>
      </trkpt>
      <trkpt lat="22.914715" lon="110.958946">
        <ele>155.606204</ele>
        <time>2026-08-18T05:41:49.000Z</time>
      </trkpt>
      <trkpt lat="22.914709" lon="110.959008">
        <ele>155.536262</ele>
        <time>2026-08-18T05:41:50.000Z</time>
      </trkpt>
      <trkpt lat="22.914703" lon="110.959068">
        <ele>155.468552</ele>
        <time>2026-08-18T05:41:51.000Z</time>
      </trkpt>
      <trkpt lat="22.914697" lon="110.959126">
        <ele>155.403073</ele>
        <time>2026-08-18T05:41:52.000Z</time>
      </trkpt>
      <trkpt lat="22.914692" lon="110.959184">
        <ele>155.337718</ele>
        <time>2026-08-18T05:41:53.000Z</time>
      </trkpt>
      <trkpt lat="22.914688" lon="110.959241">
        <ele>155.273583</ele>
        <time>2026-08-18T05:41:54.000Z</time>
      </trkpt>
      <trkpt lat="22.914687" lon="110.959298">
        <ele>155.209623</ele>
        <time>2026-08-18T05:41:55.000Z</time>
      </trkpt>
      <trkpt lat="22.914686" lon="110.959356">
        <ele>155.144541</ele>
        <time>2026-08-18T05:41:56.000Z</time>
      </trkpt>
      <trkpt lat="22.914685" lon="110.959414">
        <ele>155.079459</ele>
        <time>2026-08-18T05:41:57.000Z</time>
      </trkpt>
      <trkpt lat="22.914686" lon="110.959472">
        <ele>155.014377</ele>
        <time>2026-08-18T05:41:58.000Z</time>
      </trkpt>
      <trkpt lat="22.914689" lon="110.959531">
        <ele>154.948084</ele>
        <time>2026-08-18T05:41:59.000Z</time>
      </trkpt>
      <trkpt lat="22.914691" lon="110.959590">
        <ele>154.881846</ele>
        <time>2026-08-18T05:42:00.000Z</time>
      </trkpt>
      <trkpt lat="22.914693" lon="110.959649">
        <ele>154.815609</ele>
        <time>2026-08-18T05:42:01.000Z</time>
      </trkpt>
      <trkpt lat="22.914696" lon="110.959709">
        <ele>154.748195</ele>
        <time>2026-08-18T05:42:02.000Z</time>
      </trkpt>
      <trkpt lat="22.914698" lon="110.959768">
        <ele>154.681958</ele>
        <time>2026-08-18T05:42:03.000Z</time>
      </trkpt>
      <trkpt lat="22.914701" lon="110.959826">
        <ele>154.616785</ele>
        <time>2026-08-18T05:42:04.000Z</time>
      </trkpt>
      <trkpt lat="22.914705" lon="110.959885">
        <ele>154.550413</ele>
        <time>2026-08-18T05:42:05.000Z</time>
      </trkpt>
      <trkpt lat="22.914711" lon="110.959944">
        <ele>154.483818</ele>
        <time>2026-08-18T05:42:06.000Z</time>
      </trkpt>
      <trkpt lat="22.914719" lon="110.960003">
        <ele>154.416912</ele>
        <time>2026-08-18T05:42:07.000Z</time>
      </trkpt>
      <trkpt lat="22.914728" lon="110.960062">
        <ele>154.349818</ele>
        <time>2026-08-18T05:42:08.000Z</time>
      </trkpt>
      <trkpt lat="22.914739" lon="110.960122">
        <ele>154.281183</ele>
        <time>2026-08-18T05:42:09.000Z</time>
      </trkpt>
      <trkpt lat="22.914751" lon="110.960181">
        <ele>154.213396</ele>
        <time>2026-08-18T05:42:10.000Z</time>
      </trkpt>
      <trkpt lat="22.914763" lon="110.960241">
        <ele>154.144513</ele>
        <time>2026-08-18T05:42:11.000Z</time>
      </trkpt>
      <trkpt lat="22.914773" lon="110.960302">
        <ele>154.075001</ele>
        <time>2026-08-18T05:42:12.000Z</time>
      </trkpt>
      <trkpt lat="22.914781" lon="110.960364">
        <ele>154.004764</ele>
        <time>2026-08-18T05:42:13.000Z</time>
      </trkpt>
      <trkpt lat="22.914790" lon="110.960426">
        <ele>153.934347</ele>
        <time>2026-08-18T05:42:14.000Z</time>
      </trkpt>
      <trkpt lat="22.914800" lon="110.960488">
        <ele>153.848278</ele>
        <time>2026-08-18T05:42:15.000Z</time>
      </trkpt>
      <trkpt lat="22.914812" lon="110.960550">
        <ele>153.758981</ele>
        <time>2026-08-18T05:42:16.000Z</time>
      </trkpt>
      <trkpt lat="22.914823" lon="110.960612">
        <ele>153.669985</ele>
        <time>2026-08-18T05:42:17.000Z</time>
      </trkpt>
      <trkpt lat="22.914832" lon="110.960676">
        <ele>153.578732</ele>
        <time>2026-08-18T05:42:18.000Z</time>
      </trkpt>
      <trkpt lat="22.914841" lon="110.960740">
        <ele>153.487479</ele>
        <time>2026-08-18T05:42:19.000Z</time>
      </trkpt>
      <trkpt lat="22.914852" lon="110.960804">
        <ele>153.395714</ele>
        <time>2026-08-18T05:42:20.000Z</time>
      </trkpt>
      <trkpt lat="22.914865" lon="110.960868">
        <ele>153.303339</ele>
        <time>2026-08-18T05:42:21.000Z</time>
      </trkpt>
      <trkpt lat="22.914878" lon="110.960933">
        <ele>153.209586</ele>
        <time>2026-08-18T05:42:22.000Z</time>
      </trkpt>
      <trkpt lat="22.914891" lon="110.960998">
        <ele>153.115834</ele>
        <time>2026-08-18T05:42:23.000Z</time>
      </trkpt>
      <trkpt lat="22.914903" lon="110.961065">
        <ele>153.019629</ele>
        <time>2026-08-18T05:42:24.000Z</time>
      </trkpt>
      <trkpt lat="22.914913" lon="110.961132">
        <ele>152.923961</ele>
        <time>2026-08-18T05:42:25.000Z</time>
      </trkpt>
      <trkpt lat="22.914922" lon="110.961197">
        <ele>152.831314</ele>
        <time>2026-08-18T05:42:26.000Z</time>
      </trkpt>
      <trkpt lat="22.914929" lon="110.961262">
        <ele>152.739073</ele>
        <time>2026-08-18T05:42:27.000Z</time>
      </trkpt>
      <trkpt lat="22.914935" lon="110.961328">
        <ele>152.645594</ele>
        <time>2026-08-18T05:42:28.000Z</time>
      </trkpt>
      <trkpt lat="22.914940" lon="110.961396">
        <ele>152.549443</ele>
        <time>2026-08-18T05:42:29.000Z</time>
      </trkpt>
      <trkpt lat="22.914945" lon="110.961463">
        <ele>152.454697</ele>
        <time>2026-08-18T05:42:30.000Z</time>
      </trkpt>
      <trkpt lat="22.914948" lon="110.961531">
        <ele>152.358741</ele>
        <time>2026-08-18T05:42:31.000Z</time>
      </trkpt>
      <trkpt lat="22.914949" lon="110.961600">
        <ele>152.261474</ele>
        <time>2026-08-18T05:42:32.000Z</time>
      </trkpt>
      <trkpt lat="22.914950" lon="110.961669">
        <ele>152.164207</ele>
        <time>2026-08-18T05:42:33.000Z</time>
      </trkpt>
      <trkpt lat="22.914952" lon="110.961737">
        <ele>152.068312</ele>
        <time>2026-08-18T05:42:34.000Z</time>
      </trkpt>
      <trkpt lat="22.914954" lon="110.961805">
        <ele>151.972417</ele>
        <time>2026-08-18T05:42:35.000Z</time>
      </trkpt>
      <trkpt lat="22.914953" lon="110.961874">
        <ele>151.875150</ele>
        <time>2026-08-18T05:42:36.000Z</time>
      </trkpt>
      <trkpt lat="22.914951" lon="110.961943">
        <ele>151.777847</ele>
        <time>2026-08-18T05:42:37.000Z</time>
      </trkpt>
      <trkpt lat="22.914948" lon="110.962013">
        <ele>151.679075</ele>
        <time>2026-08-18T05:42:38.000Z</time>
      </trkpt>
      <trkpt lat="22.914945" lon="110.962082">
        <ele>151.581711</ele>
        <time>2026-08-18T05:42:39.000Z</time>
      </trkpt>
      <trkpt lat="22.914941" lon="110.962151">
        <ele>151.484264</ele>
        <time>2026-08-18T05:42:40.000Z</time>
      </trkpt>
      <trkpt lat="22.914935" lon="110.962220">
        <ele>151.386576</ele>
        <time>2026-08-18T05:42:41.000Z</time>
      </trkpt>
      <trkpt lat="22.914929" lon="110.962289">
        <ele>151.288888</ele>
        <time>2026-08-18T05:42:42.000Z</time>
      </trkpt>
      <trkpt lat="22.914924" lon="110.962358">
        <ele>151.191332</ele>
        <time>2026-08-18T05:42:43.000Z</time>
      </trkpt>
      <trkpt lat="22.914921" lon="110.962427">
        <ele>151.100879</ele>
        <time>2026-08-18T05:42:44.000Z</time>
      </trkpt>
      <trkpt lat="22.914918" lon="110.962496">
        <ele>151.012180</ele>
        <time>2026-08-18T05:42:45.000Z</time>
      </trkpt>
      <trkpt lat="22.914916" lon="110.962567">
        <ele>150.920970</ele>
        <time>2026-08-18T05:42:46.000Z</time>
      </trkpt>
      <trkpt lat="22.914912" lon="110.962638">
        <ele>150.829631</ele>
        <time>2026-08-18T05:42:47.000Z</time>
      </trkpt>
      <trkpt lat="22.914906" lon="110.962708">
        <ele>150.739358</ele>
        <time>2026-08-18T05:42:48.000Z</time>
      </trkpt>
      <trkpt lat="22.914901" lon="110.962779">
        <ele>150.647924</ele>
        <time>2026-08-18T05:42:49.000Z</time>
      </trkpt>
      <trkpt lat="22.914895" lon="110.962850">
        <ele>150.556373</ele>
        <time>2026-08-18T05:42:50.000Z</time>
      </trkpt>
      <trkpt lat="22.914890" lon="110.962921">
        <ele>150.464939</ele>
        <time>2026-08-18T05:42:51.000Z</time>
      </trkpt>
      <trkpt lat="22.914884" lon="110.962992">
        <ele>150.373388</ele>
        <time>2026-08-18T05:42:52.000Z</time>
      </trkpt>
      <trkpt lat="22.914879" lon="110.963063">
        <ele>150.281953</ele>
        <time>2026-08-18T05:42:53.000Z</time>
      </trkpt>
      <trkpt lat="22.914874" lon="110.963134">
        <ele>150.190519</ele>
        <time>2026-08-18T05:42:54.000Z</time>
      </trkpt>
      <trkpt lat="22.914869" lon="110.963205">
        <ele>150.099085</ele>
        <time>2026-08-18T05:42:55.000Z</time>
      </trkpt>
      <trkpt lat="22.914865" lon="110.963275">
        <ele>150.009028</ele>
        <time>2026-08-18T05:42:56.000Z</time>
      </trkpt>
      <trkpt lat="22.914861" lon="110.963347">
        <ele>149.916408</ele>
        <time>2026-08-18T05:42:57.000Z</time>
      </trkpt>
      <trkpt lat="22.914857" lon="110.963418">
        <ele>149.825069</ele>
        <time>2026-08-18T05:42:58.000Z</time>
      </trkpt>
      <trkpt lat="22.914852" lon="110.963490">
        <ele>149.732354</ele>
        <time>2026-08-18T05:42:59.000Z</time>
      </trkpt>
      <trkpt lat="22.914848" lon="110.963562">
        <ele>149.639734</ele>
        <time>2026-08-18T05:43:00.000Z</time>
      </trkpt>
      <trkpt lat="22.914842" lon="110.963634">
        <ele>149.546904</ele>
        <time>2026-08-18T05:43:01.000Z</time>
      </trkpt>
      <trkpt lat="22.914837" lon="110.963703">
        <ele>149.458030</ele>
        <time>2026-08-18T05:43:02.000Z</time>
      </trkpt>
      <trkpt lat="22.914834" lon="110.963769">
        <ele>149.373179</ele>
        <time>2026-08-18T05:43:03.000Z</time>
      </trkpt>
      <trkpt lat="22.914828" lon="110.963837">
        <ele>149.285463</ele>
        <time>2026-08-18T05:43:04.000Z</time>
      </trkpt>
      <trkpt lat="22.914825" lon="110.963907">
        <ele>149.195482</ele>
        <time>2026-08-18T05:43:05.000Z</time>
      </trkpt>
      <trkpt lat="22.914821" lon="110.963978">
        <ele>149.104143</ele>
        <time>2026-08-18T05:43:06.000Z</time>
      </trkpt>
      <trkpt lat="22.914818" lon="110.964051">
        <ele>149.010314</ele>
        <time>2026-08-18T05:43:07.000Z</time>
      </trkpt>
      <trkpt lat="22.914814" lon="110.964123">
        <ele>148.917693</ele>
        <time>2026-08-18T05:43:08.000Z</time>
      </trkpt>
      <trkpt lat="22.914811" lon="110.964195">
        <ele>148.825146</ele>
        <time>2026-08-18T05:43:09.000Z</time>
      </trkpt>
      <trkpt lat="22.914808" lon="110.964266">
        <ele>148.733882</ele>
        <time>2026-08-18T05:43:10.000Z</time>
      </trkpt>
      <trkpt lat="22.914806" lon="110.964337">
        <ele>148.653189</ele>
        <time>2026-08-18T05:43:11.000Z</time>
      </trkpt>
      <trkpt lat="22.914806" lon="110.964408">
        <ele>148.606605</ele>
        <time>2026-08-18T05:43:12.000Z</time>
      </trkpt>
      <trkpt lat="22.914807" lon="110.964479">
        <ele>148.560015</ele>
        <time>2026-08-18T05:43:13.000Z</time>
      </trkpt>
      <trkpt lat="22.914810" lon="110.964550">
        <ele>148.513382</ele>
        <time>2026-08-18T05:43:14.000Z</time>
      </trkpt>
      <trkpt lat="22.914815" lon="110.964621">
        <ele>148.466662</ele>
        <time>2026-08-18T05:43:15.000Z</time>
      </trkpt>
      <trkpt lat="22.914819" lon="110.964694">
        <ele>148.418681</ele>
        <time>2026-08-18T05:43:16.000Z</time>
      </trkpt>
      <trkpt lat="22.914823" lon="110.964765">
        <ele>148.372010</ele>
        <time>2026-08-18T05:43:17.000Z</time>
      </trkpt>
      <trkpt lat="22.914829" lon="110.964837">
        <ele>148.324577</ele>
        <time>2026-08-18T05:43:18.000Z</time>
      </trkpt>
      <trkpt lat="22.914838" lon="110.964907">
        <ele>148.278204</ele>
        <time>2026-08-18T05:43:19.000Z</time>
      </trkpt>
      <trkpt lat="22.914851" lon="110.964977">
        <ele>148.231352</ele>
        <time>2026-08-18T05:43:20.000Z</time>
      </trkpt>
      <trkpt lat="22.914865" lon="110.965046">
        <ele>148.184995</ele>
        <time>2026-08-18T05:43:21.000Z</time>
      </trkpt>
      <trkpt lat="22.914878" lon="110.965115">
        <ele>148.138786</ele>
        <time>2026-08-18T05:43:22.000Z</time>
      </trkpt>
      <trkpt lat="22.914887" lon="110.965184">
        <ele>148.093062</ele>
        <time>2026-08-18T05:43:23.000Z</time>
      </trkpt>
      <trkpt lat="22.914898" lon="110.965251">
        <ele>148.048410</ele>
        <time>2026-08-18T05:43:24.000Z</time>
      </trkpt>
      <trkpt lat="22.914912" lon="110.965316">
        <ele>148.004612</ele>
        <time>2026-08-18T05:43:25.000Z</time>
      </trkpt>
      <trkpt lat="22.914927" lon="110.965380">
        <ele>147.961283</ele>
        <time>2026-08-18T05:43:26.000Z</time>
      </trkpt>
      <trkpt lat="22.914944" lon="110.965444">
        <ele>147.917580</ele>
        <time>2026-08-18T05:43:27.000Z</time>
      </trkpt>
      <trkpt lat="22.914960" lon="110.965508">
        <ele>147.874070</ele>
        <time>2026-08-18T05:43:28.000Z</time>
      </trkpt>
      <trkpt lat="22.914976" lon="110.965574">
        <ele>147.829292</ele>
        <time>2026-08-18T05:43:29.000Z</time>
      </trkpt>
      <trkpt lat="22.914992" lon="110.965639">
        <ele>147.785148</ele>
        <time>2026-08-18T05:43:30.000Z</time>
      </trkpt>
      <trkpt lat="22.915010" lon="110.965703">
        <ele>147.741243</ele>
        <time>2026-08-18T05:43:31.000Z</time>
      </trkpt>
      <trkpt lat="22.915026" lon="110.965768">
        <ele>147.697099</ele>
        <time>2026-08-18T05:43:32.000Z</time>
      </trkpt>
      <trkpt lat="22.915041" lon="110.965833">
        <ele>147.653134</ele>
        <time>2026-08-18T05:43:33.000Z</time>
      </trkpt>
      <trkpt lat="22.915054" lon="110.965896">
        <ele>147.610774</ele>
        <time>2026-08-18T05:43:34.000Z</time>
      </trkpt>
      <trkpt lat="22.915066" lon="110.965960">
        <ele>147.567922</ele>
        <time>2026-08-18T05:43:35.000Z</time>
      </trkpt>
      <trkpt lat="22.915081" lon="110.966023">
        <ele>147.525228</ele>
        <time>2026-08-18T05:43:36.000Z</time>
      </trkpt>
      <trkpt lat="22.915096" lon="110.966086">
        <ele>147.482534</ele>
        <time>2026-08-18T05:43:37.000Z</time>
      </trkpt>
      <trkpt lat="22.915113" lon="110.966148">
        <ele>147.440091</ele>
        <time>2026-08-18T05:43:38.000Z</time>
      </trkpt>
      <trkpt lat="22.915130" lon="110.966211">
        <ele>147.397019</ele>
        <time>2026-08-18T05:43:39.000Z</time>
      </trkpt>
      <trkpt lat="22.915145" lon="110.966272">
        <ele>147.360760</ele>
        <time>2026-08-18T05:43:40.000Z</time>
      </trkpt>
      <trkpt lat="22.915159" lon="110.966335">
        <ele>147.326267</ele>
        <time>2026-08-18T05:43:41.000Z</time>
      </trkpt>
      <trkpt lat="22.915175" lon="110.966398">
        <ele>147.291484</ele>
        <time>2026-08-18T05:43:42.000Z</time>
      </trkpt>
      <trkpt lat="22.915190" lon="110.966462">
        <ele>147.256335</ele>
        <time>2026-08-18T05:43:43.000Z</time>
      </trkpt>
      <trkpt lat="22.915204" lon="110.966526">
        <ele>147.221324</ele>
        <time>2026-08-18T05:43:44.000Z</time>
      </trkpt>
      <trkpt lat="22.915218" lon="110.966589">
        <ele>147.186830</ele>
        <time>2026-08-18T05:43:45.000Z</time>
      </trkpt>
      <trkpt lat="22.915232" lon="110.966649">
        <ele>147.153887</ele>
        <time>2026-08-18T05:43:46.000Z</time>
      </trkpt>
      <trkpt lat="22.915247" lon="110.966710">
        <ele>147.120283</ele>
        <time>2026-08-18T05:43:47.000Z</time>
      </trkpt>
      <trkpt lat="22.915263" lon="110.966771">
        <ele>147.086525</ele>
        <time>2026-08-18T05:43:48.000Z</time>
      </trkpt>
      <trkpt lat="22.915279" lon="110.966833">
        <ele>147.052255</ele>
        <time>2026-08-18T05:43:49.000Z</time>
      </trkpt>
      <trkpt lat="22.915294" lon="110.966894">
        <ele>147.018651</ele>
        <time>2026-08-18T05:43:50.000Z</time>
      </trkpt>
      <trkpt lat="22.915311" lon="110.966955">
        <ele>146.984731</ele>
        <time>2026-08-18T05:43:51.000Z</time>
      </trkpt>
      <trkpt lat="22.915328" lon="110.967017">
        <ele>146.950300</ele>
        <time>2026-08-18T05:43:52.000Z</time>
      </trkpt>
      <trkpt lat="22.915342" lon="110.967079">
        <ele>146.916324</ele>
        <time>2026-08-18T05:43:53.000Z</time>
      </trkpt>
      <trkpt lat="22.915357" lon="110.967140">
        <ele>146.882720</ele>
        <time>2026-08-18T05:43:54.000Z</time>
      </trkpt>
      <trkpt lat="22.915373" lon="110.967202">
        <ele>146.848450</ele>
        <time>2026-08-18T05:43:55.000Z</time>
      </trkpt>
      <trkpt lat="22.915389" lon="110.967262">
        <ele>146.815204</ele>
        <time>2026-08-18T05:43:56.000Z</time>
      </trkpt>
      <trkpt lat="22.915405" lon="110.967323">
        <ele>146.781446</ele>
        <time>2026-08-18T05:43:57.000Z</time>
      </trkpt>
      <trkpt lat="22.915420" lon="110.967384">
        <ele>146.747842</ele>
        <time>2026-08-18T05:43:58.000Z</time>
      </trkpt>
      <trkpt lat="22.915434" lon="110.967444">
        <ele>146.714899</ele>
        <time>2026-08-18T05:43:59.000Z</time>
      </trkpt>
      <trkpt lat="22.915448" lon="110.967504">
        <ele>146.681955</ele>
        <time>2026-08-18T05:44:00.000Z</time>
      </trkpt>
      <trkpt lat="22.915463" lon="110.967564">
        <ele>146.648865</ele>
        <time>2026-08-18T05:44:01.000Z</time>
      </trkpt>
      <trkpt lat="22.915479" lon="110.967624">
        <ele>146.615619</ele>
        <time>2026-08-18T05:44:02.000Z</time>
      </trkpt>
      <trkpt lat="22.915494" lon="110.967685">
        <ele>146.582015</ele>
        <time>2026-08-18T05:44:03.000Z</time>
      </trkpt>
      <trkpt lat="22.915506" lon="110.967746">
        <ele>146.548816</ele>
        <time>2026-08-18T05:44:04.000Z</time>
      </trkpt>
      <trkpt lat="22.915518" lon="110.967807">
        <ele>146.515617</ele>
        <time>2026-08-18T05:44:05.000Z</time>
      </trkpt>
      <trkpt lat="22.915533" lon="110.967866">
        <ele>146.483040</ele>
        <time>2026-08-18T05:44:06.000Z</time>
      </trkpt>
      <trkpt lat="22.915551" lon="110.967925">
        <ele>146.449960</ele>
        <time>2026-08-18T05:44:07.000Z</time>
      </trkpt>
      <trkpt lat="22.915569" lon="110.967984">
        <ele>146.416880</ele>
        <time>2026-08-18T05:44:08.000Z</time>
      </trkpt>
      <trkpt lat="22.915585" lon="110.968042">
        <ele>146.384655</ele>
        <time>2026-08-18T05:44:09.000Z</time>
      </trkpt>
      <trkpt lat="22.915600" lon="110.968100">
        <ele>146.352591</ele>
        <time>2026-08-18T05:44:10.000Z</time>
      </trkpt>
      <trkpt lat="22.915612" lon="110.968158">
        <ele>146.317712</ele>
        <time>2026-08-18T05:44:11.000Z</time>
      </trkpt>
      <trkpt lat="22.915625" lon="110.968218">
        <ele>146.280216</ele>
        <time>2026-08-18T05:44:12.000Z</time>
      </trkpt>
      <trkpt lat="22.915640" lon="110.968279">
        <ele>146.241808</ele>
        <time>2026-08-18T05:44:13.000Z</time>
      </trkpt>
      <trkpt lat="22.915657" lon="110.968340">
        <ele>146.203038</ele>
        <time>2026-08-18T05:44:14.000Z</time>
      </trkpt>
      <trkpt lat="22.915672" lon="110.968399">
        <ele>146.165805</ele>
        <time>2026-08-18T05:44:15.000Z</time>
      </trkpt>
      <trkpt lat="22.915687" lon="110.968457">
        <ele>146.129157</ele>
        <time>2026-08-18T05:44:16.000Z</time>
      </trkpt>
      <trkpt lat="22.915702" lon="110.968517">
        <ele>146.091337</ele>
        <time>2026-08-18T05:44:17.000Z</time>
      </trkpt>
      <trkpt lat="22.915716" lon="110.968575">
        <ele>146.054862</ele>
        <time>2026-08-18T05:44:18.000Z</time>
      </trkpt>
      <trkpt lat="22.915730" lon="110.968634">
        <ele>146.017799</ele>
        <time>2026-08-18T05:44:19.000Z</time>
      </trkpt>
      <trkpt lat="22.915745" lon="110.968693">
        <ele>145.980565</ele>
        <time>2026-08-18T05:44:20.000Z</time>
      </trkpt>
      <trkpt lat="22.915762" lon="110.968752">
        <ele>145.942958</ele>
        <time>2026-08-18T05:44:21.000Z</time>
      </trkpt>
      <trkpt lat="22.915780" lon="110.968811">
        <ele>145.905149</ele>
        <time>2026-08-18T05:44:22.000Z</time>
      </trkpt>
      <trkpt lat="22.915796" lon="110.968870">
        <ele>145.867734</ele>
        <time>2026-08-18T05:44:23.000Z</time>
      </trkpt>
      <trkpt lat="22.915812" lon="110.968930">
        <ele>145.829735</ele>
        <time>2026-08-18T05:44:24.000Z</time>
      </trkpt>
      <trkpt lat="22.915827" lon="110.968990">
        <ele>145.791915</ele>
        <time>2026-08-18T05:44:25.000Z</time>
      </trkpt>
      <trkpt lat="22.915841" lon="110.969050">
        <ele>145.754262</ele>
        <time>2026-08-18T05:44:26.000Z</time>
      </trkpt>
      <trkpt lat="22.915855" lon="110.969109">
        <ele>145.717199</ele>
        <time>2026-08-18T05:44:27.000Z</time>
      </trkpt>
      <trkpt lat="22.915872" lon="110.969168">
        <ele>145.679592</ele>
        <time>2026-08-18T05:44:28.000Z</time>
      </trkpt>
      <trkpt lat="22.915889" lon="110.969228">
        <ele>145.641404</ele>
        <time>2026-08-18T05:44:29.000Z</time>
      </trkpt>
      <trkpt lat="22.915905" lon="110.969286">
        <ele>145.604573</ele>
        <time>2026-08-18T05:44:30.000Z</time>
      </trkpt>
      <trkpt lat="22.915920" lon="110.969346">
        <ele>145.566752</ele>
        <time>2026-08-18T05:44:31.000Z</time>
      </trkpt>
      <trkpt lat="22.915931" lon="110.969410">
        <ele>145.527147</ele>
        <time>2026-08-18T05:44:32.000Z</time>
      </trkpt>
      <trkpt lat="22.915945" lon="110.969471">
        <ele>145.488904</ele>
        <time>2026-08-18T05:44:33.000Z</time>
      </trkpt>
      <trkpt lat="22.915962" lon="110.969531">
        <ele>145.450717</ele>
        <time>2026-08-18T05:44:34.000Z</time>
      </trkpt>
      <trkpt lat="22.915979" lon="110.969591">
        <ele>145.412529</ele>
        <time>2026-08-18T05:44:35.000Z</time>
      </trkpt>
      <trkpt lat="22.915995" lon="110.969651">
        <ele>145.374530</ele>
        <time>2026-08-18T05:44:36.000Z</time>
      </trkpt>
      <trkpt lat="22.916012" lon="110.969711">
        <ele>145.336343</ele>
        <time>2026-08-18T05:44:37.000Z</time>
      </trkpt>
      <trkpt lat="22.916029" lon="110.969771">
        <ele>145.298155</ele>
        <time>2026-08-18T05:44:38.000Z</time>
      </trkpt>
      <trkpt lat="22.916044" lon="110.969831">
        <ele>145.260335</ele>
        <time>2026-08-18T05:44:39.000Z</time>
      </trkpt>
      <trkpt lat="22.916060" lon="110.969891">
        <ele>145.222336</ele>
        <time>2026-08-18T05:44:40.000Z</time>
      </trkpt>
      <trkpt lat="22.916077" lon="110.969951">
        <ele>145.184148</ele>
        <time>2026-08-18T05:44:41.000Z</time>
      </trkpt>
      <trkpt lat="22.916094" lon="110.970013">
        <ele>145.146596</ele>
        <time>2026-08-18T05:44:42.000Z</time>
      </trkpt>
      <trkpt lat="22.916110" lon="110.970073">
        <ele>145.114874</ele>
        <time>2026-08-18T05:44:43.000Z</time>
      </trkpt>
      <trkpt lat="22.916125" lon="110.970134">
        <ele>145.082810</ele>
        <time>2026-08-18T05:44:44.000Z</time>
      </trkpt>
      <trkpt lat="22.916139" lon="110.970197">
        <ele>145.049898</ele>
        <time>2026-08-18T05:44:45.000Z</time>
      </trkpt>
      <trkpt lat="22.916154" lon="110.970260">
        <ele>145.016852</ele>
        <time>2026-08-18T05:44:46.000Z</time>
      </trkpt>
      <trkpt lat="22.916169" lon="110.970323">
        <ele>144.983806</ele>
        <time>2026-08-18T05:44:47.000Z</time>
      </trkpt>
      <trkpt lat="22.916185" lon="110.970385">
        <ele>144.951107</ele>
        <time>2026-08-18T05:44:48.000Z</time>
      </trkpt>
      <trkpt lat="22.916203" lon="110.970447">
        <ele>144.918093</ele>
        <time>2026-08-18T05:44:49.000Z</time>
      </trkpt>
      <trkpt lat="22.916218" lon="110.970510">
        <ele>144.885047</ele>
        <time>2026-08-18T05:44:50.000Z</time>
      </trkpt>
      <trkpt lat="22.916234" lon="110.970572">
        <ele>144.852348</ele>
        <time>2026-08-18T05:44:51.000Z</time>
      </trkpt>
      <trkpt lat="22.916249" lon="110.970635">
        <ele>144.819302</ele>
        <time>2026-08-18T05:44:52.000Z</time>
      </trkpt>
      <trkpt lat="22.916262" lon="110.970698">
        <ele>144.786515</ele>
        <time>2026-08-18T05:44:53.000Z</time>
      </trkpt>
      <trkpt lat="22.916277" lon="110.970760">
        <ele>144.753960</ele>
        <time>2026-08-18T05:44:54.000Z</time>
      </trkpt>
      <trkpt lat="22.916293" lon="110.970822">
        <ele>144.721261</ele>
        <time>2026-08-18T05:44:55.000Z</time>
      </trkpt>
      <trkpt lat="22.916309" lon="110.970884">
        <ele>144.688562</ele>
        <time>2026-08-18T05:44:56.000Z</time>
      </trkpt>
      <trkpt lat="22.916326" lon="110.970946">
        <ele>144.655710</ele>
        <time>2026-08-18T05:44:57.000Z</time>
      </trkpt>
      <trkpt lat="22.916342" lon="110.971006">
        <ele>144.623988</ele>
        <time>2026-08-18T05:44:58.000Z</time>
      </trkpt>
      <trkpt lat="22.916358" lon="110.971068">
        <ele>144.591289</ele>
        <time>2026-08-18T05:44:59.000Z</time>
      </trkpt>
      <trkpt lat="22.916375" lon="110.971130">
        <ele>144.558437</ele>
        <time>2026-08-18T05:45:00.000Z</time>
      </trkpt>
      <trkpt lat="22.916393" lon="110.971192">
        <ele>144.525424</ele>
        <time>2026-08-18T05:45:01.000Z</time>
      </trkpt>
      <trkpt lat="22.916409" lon="110.971255">
        <ele>144.492236</ele>
        <time>2026-08-18T05:45:02.000Z</time>
      </trkpt>
      <trkpt lat="22.916426" lon="110.971316">
        <ele>144.459870</ele>
        <time>2026-08-18T05:45:03.000Z</time>
      </trkpt>
      <trkpt lat="22.916441" lon="110.971380">
        <ele>144.426332</ele>
        <time>2026-08-18T05:45:04.000Z</time>
      </trkpt>
      <trkpt lat="22.916452" lon="110.971443">
        <ele>144.393768</ele>
        <time>2026-08-18T05:45:05.000Z</time>
      </trkpt>
      <trkpt lat="22.916463" lon="110.971507">
        <ele>144.360705</ele>
        <time>2026-08-18T05:45:06.000Z</time>
      </trkpt>
      <trkpt lat="22.916474" lon="110.971572">
        <ele>144.327142</ele>
        <time>2026-08-18T05:45:07.000Z</time>
      </trkpt>
      <trkpt lat="22.916483" lon="110.971634">
        <ele>144.295267</ele>
        <time>2026-08-18T05:45:08.000Z</time>
      </trkpt>
      <trkpt lat="22.916492" lon="110.971696">
        <ele>144.263392</ele>
        <time>2026-08-18T05:45:09.000Z</time>
      </trkpt>
      <trkpt lat="22.916502" lon="110.971758">
        <ele>144.231427</ele>
        <time>2026-08-18T05:45:10.000Z</time>
      </trkpt>
      <trkpt lat="22.916512" lon="110.971818">
        <ele>144.200461</ele>
        <time>2026-08-18T05:45:11.000Z</time>
      </trkpt>
      <trkpt lat="22.916522" lon="110.971875">
        <ele>144.170994</ele>
        <time>2026-08-18T05:45:12.000Z</time>
      </trkpt>
      <trkpt lat="22.916531" lon="110.971928">
        <ele>144.136716</ele>
        <time>2026-08-18T05:45:13.000Z</time>
      </trkpt>
      <trkpt lat="22.916538" lon="110.971973">
        <ele>144.105676</ele>
        <time>2026-08-18T05:45:14.000Z</time>
      </trkpt>
      <trkpt lat="22.916542" lon="110.972012">
        <ele>144.078987</ele>
        <time>2026-08-18T05:45:15.000Z</time>
      </trkpt>
      <trkpt lat="22.916542" lon="110.972049">
        <ele>144.053821</ele>
        <time>2026-08-18T05:45:16.000Z</time>
      </trkpt>
      <trkpt lat="22.916538" lon="110.972084">
        <ele>144.029834</ele>
        <time>2026-08-18T05:45:17.000Z</time>
      </trkpt>
      <trkpt lat="22.916532" lon="110.972114">
        <ele>144.008954</ele>
        <time>2026-08-18T05:45:18.000Z</time>
      </trkpt>
      <trkpt lat="22.916528" lon="110.972141">
        <ele>143.990354</ele>
        <time>2026-08-18T05:45:19.000Z</time>
      </trkpt>
      <trkpt lat="22.916524" lon="110.972168">
        <ele>143.971755</ele>
        <time>2026-08-18T05:45:20.000Z</time>
      </trkpt>
      <trkpt lat="22.916521" lon="110.972196">
        <ele>143.952582</ele>
        <time>2026-08-18T05:45:21.000Z</time>
      </trkpt>
      <trkpt lat="22.916515" lon="110.972225">
        <ele>143.932367</ele>
        <time>2026-08-18T05:45:22.000Z</time>
      </trkpt>
      <trkpt lat="22.916507" lon="110.972258">
        <ele>143.909158</ele>
        <time>2026-08-18T05:45:23.000Z</time>
      </trkpt>
      <trkpt lat="22.916499" lon="110.972294">
        <ele>143.883970</ele>
        <time>2026-08-18T05:45:24.000Z</time>
      </trkpt>
      <trkpt lat="22.916496" lon="110.972332">
        <ele>143.858030</ele>
        <time>2026-08-18T05:45:25.000Z</time>
      </trkpt>
      <trkpt lat="22.916493" lon="110.972370">
        <ele>143.832090</ele>
        <time>2026-08-18T05:45:26.000Z</time>
      </trkpt>
      <trkpt lat="22.916486" lon="110.972409">
        <ele>143.805066</ele>
        <time>2026-08-18T05:45:27.000Z</time>
      </trkpt>
      <trkpt lat="22.916476" lon="110.972449">
        <ele>143.776876</ele>
        <time>2026-08-18T05:45:28.000Z</time>
      </trkpt>
      <trkpt lat="22.916466" lon="110.972491">
        <ele>143.747371</ele>
        <time>2026-08-18T05:45:29.000Z</time>
      </trkpt>
      <trkpt lat="22.916456" lon="110.972536">
        <ele>143.715886</ele>
        <time>2026-08-18T05:45:30.000Z</time>
      </trkpt>
      <trkpt lat="22.916444" lon="110.972581">
        <ele>143.684023</ele>
        <time>2026-08-18T05:45:31.000Z</time>
      </trkpt>
      <trkpt lat="22.916430" lon="110.972628">
        <ele>143.650426</ele>
        <time>2026-08-18T05:45:32.000Z</time>
      </trkpt>
      <trkpt lat="22.916413" lon="110.972673">
        <ele>143.617346</ele>
        <time>2026-08-18T05:45:33.000Z</time>
      </trkpt>
      <trkpt lat="22.916397" lon="110.972720">
        <ele>143.583266</ele>
        <time>2026-08-18T05:45:34.000Z</time>
      </trkpt>
      <trkpt lat="22.916381" lon="110.972767">
        <ele>143.549186</ele>
        <time>2026-08-18T05:45:35.000Z</time>
      </trkpt>
      <trkpt lat="22.916367" lon="110.972817">
        <ele>143.513642</ele>
        <time>2026-08-18T05:45:36.000Z</time>
      </trkpt>
      <trkpt lat="22.916352" lon="110.972867">
        <ele>143.477876</ele>
        <time>2026-08-18T05:45:37.000Z</time>
      </trkpt>
      <trkpt lat="22.916338" lon="110.972917">
        <ele>143.442333</ele>
        <time>2026-08-18T05:45:38.000Z</time>
      </trkpt>
      <trkpt lat="22.916321" lon="110.972967">
        <ele>143.406083</ele>
        <time>2026-08-18T05:45:39.000Z</time>
      </trkpt>
      <trkpt lat="22.916304" lon="110.973017">
        <ele>143.369833</ele>
        <time>2026-08-18T05:45:40.000Z</time>
      </trkpt>
      <trkpt lat="22.916285" lon="110.973067">
        <ele>143.333045</ele>
        <time>2026-08-18T05:45:41.000Z</time>
      </trkpt>
      <trkpt lat="22.916266" lon="110.973118">
        <ele>143.295628</ele>
        <time>2026-08-18T05:45:42.000Z</time>
      </trkpt>
      <trkpt lat="22.916247" lon="110.973170">
        <ele>143.257580</ele>
        <time>2026-08-18T05:45:43.000Z</time>
      </trkpt>
      <trkpt lat="22.916228" lon="110.973222">
        <ele>143.219531</ele>
        <time>2026-08-18T05:45:44.000Z</time>
      </trkpt>
      <trkpt lat="22.916209" lon="110.973275">
        <ele>143.180849</ele>
        <time>2026-08-18T05:45:45.000Z</time>
      </trkpt>
      <trkpt lat="22.916191" lon="110.973329">
        <ele>143.141791</ele>
        <time>2026-08-18T05:45:46.000Z</time>
      </trkpt>
      <trkpt lat="22.916171" lon="110.973382">
        <ele>143.102835</ele>
        <time>2026-08-18T05:45:47.000Z</time>
      </trkpt>
      <trkpt lat="22.916153" lon="110.973435">
        <ele>143.064415</ele>
        <time>2026-08-18T05:45:48.000Z</time>
      </trkpt>
      <trkpt lat="22.916132" lon="110.973487">
        <ele>143.025798</ele>
        <time>2026-08-18T05:45:49.000Z</time>
      </trkpt>
      <trkpt lat="22.916113" lon="110.973540">
        <ele>142.987116</ele>
        <time>2026-08-18T05:45:50.000Z</time>
      </trkpt>
      <trkpt lat="22.916094" lon="110.973595">
        <ele>142.947164</ele>
        <time>2026-08-18T05:45:51.000Z</time>
      </trkpt>
      <trkpt lat="22.916075" lon="110.973648">
        <ele>142.908482</ele>
        <time>2026-08-18T05:45:52.000Z</time>
      </trkpt>
      <trkpt lat="22.916058" lon="110.973701">
        <ele>142.870311</ele>
        <time>2026-08-18T05:45:53.000Z</time>
      </trkpt>
      <trkpt lat="22.916041" lon="110.973757">
        <ele>142.830308</ele>
        <time>2026-08-18T05:45:54.000Z</time>
      </trkpt>
      <trkpt lat="22.916023" lon="110.973812">
        <ele>142.791318</ele>
        <time>2026-08-18T05:45:55.000Z</time>
      </trkpt>
      <trkpt lat="22.916007" lon="110.973869">
        <ele>142.751514</ele>
        <time>2026-08-18T05:45:56.000Z</time>
      </trkpt>
      <trkpt lat="22.915991" lon="110.973927">
        <ele>142.711070</ele>
        <time>2026-08-18T05:45:57.000Z</time>
      </trkpt>
      <trkpt lat="22.915976" lon="110.973983">
        <ele>142.672112</ele>
        <time>2026-08-18T05:45:58.000Z</time>
      </trkpt>
      <trkpt lat="22.915962" lon="110.974043">
        <ele>142.630766</ele>
        <time>2026-08-18T05:45:59.000Z</time>
      </trkpt>
      <trkpt lat="22.915947" lon="110.974102">
        <ele>142.589880</ele>
        <time>2026-08-18T05:46:00.000Z</time>
      </trkpt>
      <trkpt lat="22.915933" lon="110.974160">
        <ele>142.549828</ele>
        <time>2026-08-18T05:46:01.000Z</time>
      </trkpt>
      <trkpt lat="22.915920" lon="110.974219">
        <ele>142.509304</ele>
        <time>2026-08-18T05:46:02.000Z</time>
      </trkpt>
      <trkpt lat="22.915907" lon="110.974278">
        <ele>142.468781</ele>
        <time>2026-08-18T05:46:03.000Z</time>
      </trkpt>
      <trkpt lat="22.915892" lon="110.974336">
        <ele>142.428539</ele>
        <time>2026-08-18T05:46:04.000Z</time>
      </trkpt>
      <trkpt lat="22.915877" lon="110.974393">
        <ele>142.388939</ele>
        <time>2026-08-18T05:46:05.000Z</time>
      </trkpt>
      <trkpt lat="22.915860" lon="110.974450">
        <ele>142.348917</ele>
        <time>2026-08-18T05:46:06.000Z</time>
      </trkpt>
      <trkpt lat="22.915843" lon="110.974507">
        <ele>142.308895</ele>
        <time>2026-08-18T05:46:07.000Z</time>
      </trkpt>
      <trkpt lat="22.915827" lon="110.974565">
        <ele>142.268451</ele>
        <time>2026-08-18T05:46:08.000Z</time>
      </trkpt>
      <trkpt lat="22.915811" lon="110.974622">
        <ele>142.228646</ele>
        <time>2026-08-18T05:46:09.000Z</time>
      </trkpt>
      <trkpt lat="22.915796" lon="110.974679">
        <ele>142.189046</ele>
        <time>2026-08-18T05:46:10.000Z</time>
      </trkpt>
      <trkpt lat="22.915781" lon="110.974735">
        <ele>142.150089</ele>
        <time>2026-08-18T05:46:11.000Z</time>
      </trkpt>
      <trkpt lat="22.915765" lon="110.974792">
        <ele>142.110284</ele>
        <time>2026-08-18T05:46:12.000Z</time>
      </trkpt>
      <trkpt lat="22.915748" lon="110.974848">
        <ele>142.070897</ele>
        <time>2026-08-18T05:46:13.000Z</time>
      </trkpt>
      <trkpt lat="22.915733" lon="110.974906">
        <ele>142.030655</ele>
        <time>2026-08-18T05:46:14.000Z</time>
      </trkpt>
      <trkpt lat="22.915718" lon="110.974962">
        <ele>141.991697</ele>
        <time>2026-08-18T05:46:15.000Z</time>
      </trkpt>
      <trkpt lat="22.915703" lon="110.975018">
        <ele>141.952739</ele>
        <time>2026-08-18T05:46:16.000Z</time>
      </trkpt>
      <trkpt lat="22.915688" lon="110.975074">
        <ele>141.913782</ele>
        <time>2026-08-18T05:46:17.000Z</time>
      </trkpt>
      <trkpt lat="22.915673" lon="110.975131">
        <ele>141.874182</ele>
        <time>2026-08-18T05:46:18.000Z</time>
      </trkpt>
      <trkpt lat="22.915659" lon="110.975187">
        <ele>141.835421</ele>
        <time>2026-08-18T05:46:19.000Z</time>
      </trkpt>
      <trkpt lat="22.915646" lon="110.975245">
        <ele>141.795546</ele>
        <time>2026-08-18T05:46:20.000Z</time>
      </trkpt>
      <trkpt lat="22.915637" lon="110.975303">
        <ele>141.756257</ele>
        <time>2026-08-18T05:46:21.000Z</time>
      </trkpt>
      <trkpt lat="22.915627" lon="110.975363">
        <ele>141.715526</ele>
        <time>2026-08-18T05:46:22.000Z</time>
      </trkpt>
      <trkpt lat="22.915613" lon="110.975423">
        <ele>141.674180</ele>
        <time>2026-08-18T05:46:23.000Z</time>
      </trkpt>
      <trkpt lat="22.915597" lon="110.975483">
        <ele>141.632454</ele>
        <time>2026-08-18T05:46:24.000Z</time>
      </trkpt>
      <trkpt lat="22.915580" lon="110.975542">
        <ele>141.591159</ele>
        <time>2026-08-18T05:46:25.000Z</time>
      </trkpt>
      <trkpt lat="22.915562" lon="110.975600">
        <ele>141.550274</ele>
        <time>2026-08-18T05:46:26.000Z</time>
      </trkpt>
      <trkpt lat="22.915544" lon="110.975659">
        <ele>141.518146</ele>
        <time>2026-08-18T05:46:27.000Z</time>
      </trkpt>
      <trkpt lat="22.915525" lon="110.975715">
        <ele>141.494817</ele>
        <time>2026-08-18T05:46:28.000Z</time>
      </trkpt>
      <trkpt lat="22.915505" lon="110.975770">
        <ele>141.471703</ele>
        <time>2026-08-18T05:46:29.000Z</time>
      </trkpt>
      <trkpt lat="22.915487" lon="110.975825">
        <ele>141.448886</ele>
        <time>2026-08-18T05:46:30.000Z</time>
      </trkpt>
      <trkpt lat="22.915467" lon="110.975882">
        <ele>141.425043</ele>
        <time>2026-08-18T05:46:31.000Z</time>
      </trkpt>
      <trkpt lat="22.915449" lon="110.975939">
        <ele>141.401488</ele>
        <time>2026-08-18T05:46:32.000Z</time>
      </trkpt>
      <trkpt lat="22.915433" lon="110.975996">
        <ele>141.378195</ele>
        <time>2026-08-18T05:46:33.000Z</time>
      </trkpt>
      <trkpt lat="22.915419" lon="110.976055">
        <ele>141.354378</ele>
        <time>2026-08-18T05:46:34.000Z</time>
      </trkpt>
      <trkpt lat="22.915405" lon="110.976113">
        <ele>141.330940</ele>
        <time>2026-08-18T05:46:35.000Z</time>
      </trkpt>
      <trkpt lat="22.915390" lon="110.976171">
        <ele>141.307391</ele>
        <time>2026-08-18T05:46:36.000Z</time>
      </trkpt>
      <trkpt lat="22.915376" lon="110.976228">
        <ele>141.284330</ele>
        <time>2026-08-18T05:46:37.000Z</time>
      </trkpt>
      <trkpt lat="22.915362" lon="110.976287">
        <ele>141.260514</ele>
        <time>2026-08-18T05:46:38.000Z</time>
      </trkpt>
      <trkpt lat="22.915352" lon="110.976343">
        <ele>141.238216</ele>
        <time>2026-08-18T05:46:39.000Z</time>
      </trkpt>
      <trkpt lat="22.915344" lon="110.976400">
        <ele>141.215677</ele>
        <time>2026-08-18T05:46:40.000Z</time>
      </trkpt>
      <trkpt lat="22.915341" lon="110.976457">
        <ele>141.193359</ele>
        <time>2026-08-18T05:46:41.000Z</time>
      </trkpt>
      <trkpt lat="22.915341" lon="110.976517">
        <ele>141.169905</ele>
        <time>2026-08-18T05:46:42.000Z</time>
      </trkpt>
      <trkpt lat="22.915349" lon="110.976575">
        <ele>141.146979</ele>
        <time>2026-08-18T05:46:43.000Z</time>
      </trkpt>
      <trkpt lat="22.915369" lon="110.976630">
        <ele>141.123865</ele>
        <time>2026-08-18T05:46:44.000Z</time>
      </trkpt>
      <trkpt lat="22.915395" lon="110.976682">
        <ele>141.100736</ele>
        <time>2026-08-18T05:46:45.000Z</time>
      </trkpt>
      <trkpt lat="22.915427" lon="110.976729">
        <ele>141.077889</ele>
        <time>2026-08-18T05:46:46.000Z</time>
      </trkpt>
      <trkpt lat="22.915461" lon="110.976779">
        <ele>141.053594</ele>
        <time>2026-08-18T05:46:47.000Z</time>
      </trkpt>
      <trkpt lat="22.915494" lon="110.976830">
        <ele>141.029230</ele>
        <time>2026-08-18T05:46:48.000Z</time>
      </trkpt>
      <trkpt lat="22.915525" lon="110.976880">
        <ele>141.005669</ele>
        <time>2026-08-18T05:46:49.000Z</time>
      </trkpt>
      <trkpt lat="22.915557" lon="110.976934">
        <ele>140.980569</ele>
        <time>2026-08-18T05:46:50.000Z</time>
      </trkpt>
      <trkpt lat="22.915587" lon="110.976989">
        <ele>140.955582</ele>
        <time>2026-08-18T05:46:51.000Z</time>
      </trkpt>
      <trkpt lat="22.915621" lon="110.977043">
        <ele>140.930013</ele>
        <time>2026-08-18T05:46:52.000Z</time>
      </trkpt>
      <trkpt lat="22.915651" lon="110.977091">
        <ele>140.907338</ele>
        <time>2026-08-18T05:46:53.000Z</time>
      </trkpt>
      <trkpt lat="22.915678" lon="110.977145">
        <ele>140.883319</ele>
        <time>2026-08-18T05:46:54.000Z</time>
      </trkpt>
      <trkpt lat="22.915711" lon="110.977196">
        <ele>140.858955</ele>
        <time>2026-08-18T05:46:55.000Z</time>
      </trkpt>
      <trkpt lat="22.915743" lon="110.977244">
        <ele>140.835793</ele>
        <time>2026-08-18T05:46:56.000Z</time>
      </trkpt>
      <trkpt lat="22.915779" lon="110.977291">
        <ele>140.811898</ele>
        <time>2026-08-18T05:46:57.000Z</time>
      </trkpt>
      <trkpt lat="22.915802" lon="110.977344">
        <ele>140.788995</ele>
        <time>2026-08-18T05:46:58.000Z</time>
      </trkpt>
      <trkpt lat="22.915833" lon="110.977398">
        <ele>140.764189</ele>
        <time>2026-08-18T05:46:59.000Z</time>
      </trkpt>
      <trkpt lat="22.915852" lon="110.977454">
        <ele>140.741258</ele>
        <time>2026-08-18T05:47:00.000Z</time>
      </trkpt>
      <trkpt lat="22.915893" lon="110.977504">
        <ele>140.715535</ele>
        <time>2026-08-18T05:47:01.000Z</time>
      </trkpt>
      <trkpt lat="22.915931" lon="110.977554">
        <ele>140.690627</ele>
        <time>2026-08-18T05:47:02.000Z</time>
      </trkpt>
      <trkpt lat="22.915965" lon="110.977606">
        <ele>140.666124</ele>
        <time>2026-08-18T05:47:03.000Z</time>
      </trkpt>
      <trkpt lat="22.916005" lon="110.977654">
        <ele>140.641252</ele>
        <time>2026-08-18T05:47:04.000Z</time>
      </trkpt>
      <trkpt lat="22.916040" lon="110.977706">
        <ele>140.616505</ele>
        <time>2026-08-18T05:47:05.000Z</time>
      </trkpt>
      <trkpt lat="22.916079" lon="110.977762">
        <ele>140.589528</ele>
        <time>2026-08-18T05:47:06.000Z</time>
      </trkpt>
      <trkpt lat="22.916119" lon="110.977815">
        <ele>140.563200</ele>
        <time>2026-08-18T05:47:07.000Z</time>
      </trkpt>
      <trkpt lat="22.916162" lon="110.977865">
        <ele>140.536915</ele>
        <time>2026-08-18T05:47:08.000Z</time>
      </trkpt>
      <trkpt lat="22.916199" lon="110.977915">
        <ele>140.512271</ele>
        <time>2026-08-18T05:47:09.000Z</time>
      </trkpt>
      <trkpt lat="22.916233" lon="110.977972">
        <ele>140.486177</ele>
        <time>2026-08-18T05:47:10.000Z</time>
      </trkpt>
      <trkpt lat="22.916272" lon="110.978023">
        <ele>140.460707</ele>
        <time>2026-08-18T05:47:11.000Z</time>
      </trkpt>
      <trkpt lat="22.916309" lon="110.978079">
        <ele>140.434226</ele>
        <time>2026-08-18T05:47:12.000Z</time>
      </trkpt>
      <trkpt lat="22.916351" lon="110.978132">
        <ele>140.407361</ele>
        <time>2026-08-18T05:47:13.000Z</time>
      </trkpt>
      <trkpt lat="22.916394" lon="110.978181">
        <ele>140.381355</ele>
        <time>2026-08-18T05:47:14.000Z</time>
      </trkpt>
      <trkpt lat="22.916427" lon="110.978231">
        <ele>140.357720</ele>
        <time>2026-08-18T05:47:15.000Z</time>
      </trkpt>
      <trkpt lat="22.916463" lon="110.978285">
        <ele>140.332106</ele>
        <time>2026-08-18T05:47:16.000Z</time>
      </trkpt>
      <trkpt lat="22.916507" lon="110.978335">
        <ele>140.305535</ele>
        <time>2026-08-18T05:47:17.000Z</time>
      </trkpt>
      <trkpt lat="22.916547" lon="110.978387">
        <ele>140.279503</ele>
        <time>2026-08-18T05:47:18.000Z</time>
      </trkpt>
      <trkpt lat="22.916586" lon="110.978440">
        <ele>140.253437</ele>
        <time>2026-08-18T05:47:19.000Z</time>
      </trkpt>
      <trkpt lat="22.916624" lon="110.978494">
        <ele>140.227325</ele>
        <time>2026-08-18T05:47:20.000Z</time>
      </trkpt>
      <trkpt lat="22.916665" lon="110.978542">
        <ele>140.202171</ele>
        <time>2026-08-18T05:47:21.000Z</time>
      </trkpt>
      <trkpt lat="22.916703" lon="110.978596">
        <ele>140.176059</ele>
        <time>2026-08-18T05:47:22.000Z</time>
      </trkpt>
      <trkpt lat="22.916739" lon="110.978650">
        <ele>140.150445</ele>
        <time>2026-08-18T05:47:23.000Z</time>
      </trkpt>
      <trkpt lat="22.916780" lon="110.978704">
        <ele>140.123555</ele>
        <time>2026-08-18T05:47:24.000Z</time>
      </trkpt>
      <trkpt lat="22.916825" lon="110.978754">
        <ele>140.096694</ele>
        <time>2026-08-18T05:47:25.000Z</time>
      </trkpt>
      <trkpt lat="22.916871" lon="110.978807">
        <ele>140.068712</ele>
        <time>2026-08-18T05:47:26.000Z</time>
      </trkpt>
      <trkpt lat="22.916913" lon="110.978861">
        <ele>140.041555</ele>
        <time>2026-08-18T05:47:27.000Z</time>
      </trkpt>
      <trkpt lat="22.916955" lon="110.978916">
        <ele>140.016102</ele>
        <time>2026-08-18T05:47:28.000Z</time>
      </trkpt>
      <trkpt lat="22.916993" lon="110.978972">
        <ele>140.004191</ele>
        <time>2026-08-18T05:47:29.000Z</time>
      </trkpt>
      <trkpt lat="22.917031" lon="110.979029">
        <ele>139.992141</ele>
        <time>2026-08-18T05:47:30.000Z</time>
      </trkpt>
      <trkpt lat="22.917063" lon="110.979079">
        <ele>139.981714</ele>
        <time>2026-08-18T05:47:31.000Z</time>
      </trkpt>
      <trkpt lat="22.917099" lon="110.979132">
        <ele>139.970436</ele>
        <time>2026-08-18T05:47:32.000Z</time>
      </trkpt>
      <trkpt lat="22.917140" lon="110.979185">
        <ele>139.958583</ele>
        <time>2026-08-18T05:47:33.000Z</time>
      </trkpt>
      <trkpt lat="22.917178" lon="110.979238">
        <ele>139.947081</ele>
        <time>2026-08-18T05:47:34.000Z</time>
      </trkpt>
      <trkpt lat="22.917224" lon="110.979285">
        <ele>139.935337</ele>
        <time>2026-08-18T05:47:35.000Z</time>
      </trkpt>
      <trkpt lat="22.917262" lon="110.979336">
        <ele>139.924103</ele>
        <time>2026-08-18T05:47:36.000Z</time>
      </trkpt>
      <trkpt lat="22.917293" lon="110.979386">
        <ele>139.913781</ele>
        <time>2026-08-18T05:47:37.000Z</time>
      </trkpt>
      <trkpt lat="22.917333" lon="110.979420">
        <ele>139.904336</ele>
        <time>2026-08-18T05:47:38.000Z</time>
      </trkpt>
      <trkpt lat="22.917354" lon="110.979447">
        <ele>139.898284</ele>
        <time>2026-08-18T05:47:39.000Z</time>
      </trkpt>
      <trkpt lat="22.917372" lon="110.979470">
        <ele>139.893115</ele>
        <time>2026-08-18T05:47:40.000Z</time>
      </trkpt>
      <trkpt lat="22.917385" lon="110.979492">
        <ele>139.888639</ele>
        <time>2026-08-18T05:47:41.000Z</time>
      </trkpt>
      <trkpt lat="22.917394" lon="110.979509">
        <ele>139.885281</ele>
        <time>2026-08-18T05:47:42.000Z</time>
      </trkpt>
      <trkpt lat="22.917384" lon="110.979524">
        <ele>139.882110</ele>
        <time>2026-08-18T05:47:43.000Z</time>
      </trkpt>
      <trkpt lat="22.917375" lon="110.979531">
        <ele>139.880052</ele>
        <time>2026-08-18T05:47:44.000Z</time>
      </trkpt>
      <trkpt lat="22.917390" lon="110.979640">
        <ele>139.861178</ele>
        <time>2026-08-18T05:48:41.000Z</time>
      </trkpt>
      <trkpt lat="22.917407" lon="110.979656">
        <ele>139.856995</ele>
        <time>2026-08-18T05:48:42.000Z</time>
      </trkpt>
      <trkpt lat="22.917410" lon="110.979680">
        <ele>139.852847</ele>
        <time>2026-08-18T05:48:43.000Z</time>
      </trkpt>
      <trkpt lat="22.917417" lon="110.979703">
        <ele>139.848699</ele>
        <time>2026-08-18T05:48:44.000Z</time>
      </trkpt>
      <trkpt lat="22.917435" lon="110.979729">
        <ele>139.843129</ele>
        <time>2026-08-18T05:48:45.000Z</time>
      </trkpt>
      <trkpt lat="22.917454" lon="110.979754">
        <ele>139.837578</ele>
        <time>2026-08-18T05:48:46.000Z</time>
      </trkpt>
      <trkpt lat="22.917473" lon="110.979777">
        <ele>139.832287</ele>
        <time>2026-08-18T05:48:47.000Z</time>
      </trkpt>
      <trkpt lat="22.917497" lon="110.979801">
        <ele>139.826221</ele>
        <time>2026-08-18T05:48:48.000Z</time>
      </trkpt>
      <trkpt lat="22.917520" lon="110.979828">
        <ele>139.819923</ele>
        <time>2026-08-18T05:48:49.000Z</time>
      </trkpt>
      <trkpt lat="22.917547" lon="110.979852">
        <ele>139.813435</ele>
        <time>2026-08-18T05:48:50.000Z</time>
      </trkpt>
      <trkpt lat="22.917570" lon="110.979876">
        <ele>139.807503</ele>
        <time>2026-08-18T05:48:51.000Z</time>
      </trkpt>
      <trkpt lat="22.917592" lon="110.979902">
        <ele>139.801457</ele>
        <time>2026-08-18T05:48:52.000Z</time>
      </trkpt>
      <trkpt lat="22.917615" lon="110.979930">
        <ele>139.795032</ele>
        <time>2026-08-18T05:48:53.000Z</time>
      </trkpt>
      <trkpt lat="22.917639" lon="110.979958">
        <ele>139.788482</ele>
        <time>2026-08-18T05:48:54.000Z</time>
      </trkpt>
      <trkpt lat="22.917654" lon="110.979992">
        <ele>139.782026</ele>
        <time>2026-08-18T05:48:55.000Z</time>
      </trkpt>
      <trkpt lat="22.917674" lon="110.980023">
        <ele>139.775544</ele>
        <time>2026-08-18T05:48:56.000Z</time>
      </trkpt>
      <trkpt lat="22.917697" lon="110.980055">
        <ele>139.768593</ele>
        <time>2026-08-18T05:48:57.000Z</time>
      </trkpt>
      <trkpt lat="22.917721" lon="110.980088">
        <ele>139.761393</ele>
        <time>2026-08-18T05:48:58.000Z</time>
      </trkpt>
      <trkpt lat="22.917746" lon="110.980118">
        <ele>139.754464</ele>
        <time>2026-08-18T05:48:59.000Z</time>
      </trkpt>
      <trkpt lat="22.917768" lon="110.980151">
        <ele>139.747488</ele>
        <time>2026-08-18T05:49:00.000Z</time>
      </trkpt>
      <trkpt lat="22.917792" lon="110.980185">
        <ele>139.740152</ele>
        <time>2026-08-18T05:49:01.000Z</time>
      </trkpt>
      <trkpt lat="22.917816" lon="110.980219">
        <ele>139.732817</ele>
        <time>2026-08-18T05:49:02.000Z</time>
      </trkpt>
      <trkpt lat="22.917842" lon="110.980254">
        <ele>139.725116</ele>
        <time>2026-08-18T05:49:03.000Z</time>
      </trkpt>
      <trkpt lat="22.917867" lon="110.980291">
        <ele>139.717258</ele>
        <time>2026-08-18T05:49:04.000Z</time>
      </trkpt>
      <trkpt lat="22.917890" lon="110.980329">
        <ele>139.709471</ele>
        <time>2026-08-18T05:49:05.000Z</time>
      </trkpt>
      <trkpt lat="22.917914" lon="110.980368">
        <ele>139.701439</ele>
        <time>2026-08-18T05:49:06.000Z</time>
      </trkpt>
      <trkpt lat="22.917939" lon="110.980407">
        <ele>139.693302</ele>
        <time>2026-08-18T05:49:07.000Z</time>
      </trkpt>
      <trkpt lat="22.917963" lon="110.980445">
        <ele>139.685411</ele>
        <time>2026-08-18T05:49:08.000Z</time>
      </trkpt>
      <trkpt lat="22.917990" lon="110.980480">
        <ele>139.660192</ele>
        <time>2026-08-18T05:49:09.000Z</time>
      </trkpt>
      <trkpt lat="22.918017" lon="110.980519">
        <ele>139.626326</ele>
        <time>2026-08-18T05:49:10.000Z</time>
      </trkpt>
      <trkpt lat="22.918045" lon="110.980556">
        <ele>139.593086</ele>
        <time>2026-08-18T05:49:11.000Z</time>
      </trkpt>
      <trkpt lat="22.918073" lon="110.980594">
        <ele>139.559306</ele>
        <time>2026-08-18T05:49:12.000Z</time>
      </trkpt>
      <trkpt lat="22.918100" lon="110.980631">
        <ele>139.526539</ele>
        <time>2026-08-18T05:49:13.000Z</time>
      </trkpt>
      <trkpt lat="22.918122" lon="110.980669">
        <ele>139.495383</ele>
        <time>2026-08-18T05:49:14.000Z</time>
      </trkpt>
      <trkpt lat="22.918147" lon="110.980710">
        <ele>139.461252</ele>
        <time>2026-08-18T05:49:15.000Z</time>
      </trkpt>
      <trkpt lat="22.918180" lon="110.980747">
        <ele>139.425500</ele>
        <time>2026-08-18T05:49:16.000Z</time>
      </trkpt>
      <trkpt lat="22.918200" lon="110.980788">
        <ele>139.393295</ele>
        <time>2026-08-18T05:49:17.000Z</time>
      </trkpt>
      <trkpt lat="22.918216" lon="110.980827">
        <ele>139.363660</ele>
        <time>2026-08-18T05:49:18.000Z</time>
      </trkpt>
      <trkpt lat="22.918237" lon="110.980869">
        <ele>139.330487</ele>
        <time>2026-08-18T05:49:19.000Z</time>
      </trkpt>
      <trkpt lat="22.918255" lon="110.980916">
        <ele>139.295154</ele>
        <time>2026-08-18T05:49:20.000Z</time>
      </trkpt>
      <trkpt lat="22.918275" lon="110.980965">
        <ele>139.257951</ele>
        <time>2026-08-18T05:49:21.000Z</time>
      </trkpt>
      <trkpt lat="22.918308" lon="110.981006">
        <ele>139.220155</ele>
        <time>2026-08-18T05:49:22.000Z</time>
      </trkpt>
      <trkpt lat="22.918331" lon="110.981057">
        <ele>139.180738</ele>
        <time>2026-08-18T05:49:23.000Z</time>
      </trkpt>
      <trkpt lat="22.918357" lon="110.981103">
        <ele>139.143275</ele>
        <time>2026-08-18T05:49:24.000Z</time>
      </trkpt>
      <trkpt lat="22.918381" lon="110.981149">
        <ele>139.106577</ele>
        <time>2026-08-18T05:49:25.000Z</time>
      </trkpt>
      <trkpt lat="22.918408" lon="110.981192">
        <ele>139.070453</ele>
        <time>2026-08-18T05:49:26.000Z</time>
      </trkpt>
      <trkpt lat="22.918431" lon="110.981245">
        <ele>139.029784</ele>
        <time>2026-08-18T05:49:27.000Z</time>
      </trkpt>
      <trkpt lat="22.918457" lon="110.981297">
        <ele>138.988713</ele>
        <time>2026-08-18T05:49:28.000Z</time>
      </trkpt>
      <trkpt lat="22.918475" lon="110.981349">
        <ele>138.950152</ele>
        <time>2026-08-18T05:49:29.000Z</time>
      </trkpt>
      <trkpt lat="22.918483" lon="110.981400">
        <ele>138.914241</ele>
        <time>2026-08-18T05:49:30.000Z</time>
      </trkpt>
      <trkpt lat="22.918501" lon="110.981443">
        <ele>138.881455</ele>
        <time>2026-08-18T05:49:31.000Z</time>
      </trkpt>
      <trkpt lat="22.918521" lon="110.981490">
        <ele>138.845517</ele>
        <time>2026-08-18T05:49:32.000Z</time>
      </trkpt>
      <trkpt lat="22.918534" lon="110.981539">
        <ele>138.810121</ele>
        <time>2026-08-18T05:49:33.000Z</time>
      </trkpt>
      <trkpt lat="22.918573" lon="110.981585">
        <ele>138.766722</ele>
        <time>2026-08-18T05:49:34.000Z</time>
      </trkpt>
      <trkpt lat="22.918611" lon="110.981631">
        <ele>138.723830</ele>
        <time>2026-08-18T05:49:35.000Z</time>
      </trkpt>
      <trkpt lat="22.918646" lon="110.981682">
        <ele>138.679682</ele>
        <time>2026-08-18T05:49:36.000Z</time>
      </trkpt>
      <trkpt lat="22.918710" lon="110.981709">
        <ele>138.627936</ele>
        <time>2026-08-18T05:49:37.000Z</time>
      </trkpt>
      <trkpt lat="22.918744" lon="110.981757">
        <ele>138.585904</ele>
        <time>2026-08-18T05:49:38.000Z</time>
      </trkpt>
      <trkpt lat="22.918780" lon="110.981803">
        <ele>138.544003</ele>
        <time>2026-08-18T05:49:39.000Z</time>
      </trkpt>
      <trkpt lat="22.918814" lon="110.981852">
        <ele>138.501419</ele>
        <time>2026-08-18T05:49:40.000Z</time>
      </trkpt>
      <trkpt lat="22.918848" lon="110.981900">
        <ele>138.459386</ele>
        <time>2026-08-18T05:49:41.000Z</time>
      </trkpt>
      <trkpt lat="22.918893" lon="110.981942">
        <ele>138.414664</ele>
        <time>2026-08-18T05:49:42.000Z</time>
      </trkpt>
      <trkpt lat="22.918936" lon="110.981984">
        <ele>138.371073</ele>
        <time>2026-08-18T05:49:43.000Z</time>
      </trkpt>
      <trkpt lat="22.918979" lon="110.982025">
        <ele>138.327944</ele>
        <time>2026-08-18T05:49:44.000Z</time>
      </trkpt>
      <trkpt lat="22.919014" lon="110.982070">
        <ele>138.293378</ele>
        <time>2026-08-18T05:49:45.000Z</time>
      </trkpt>
      <trkpt lat="22.919052" lon="110.982118">
        <ele>138.256261</ele>
        <time>2026-08-18T05:49:46.000Z</time>
      </trkpt>
      <trkpt lat="22.919084" lon="110.982168">
        <ele>138.220557</ele>
        <time>2026-08-18T05:49:47.000Z</time>
      </trkpt>
      <trkpt lat="22.919115" lon="110.982214">
        <ele>138.187133</ele>
        <time>2026-08-18T05:49:48.000Z</time>
      </trkpt>
      <trkpt lat="22.919158" lon="110.982254">
        <ele>138.151081</ele>
        <time>2026-08-18T05:49:49.000Z</time>
      </trkpt>
      <trkpt lat="22.919195" lon="110.982300">
        <ele>138.115268</ele>
        <time>2026-08-18T05:49:50.000Z</time>
      </trkpt>
      <trkpt lat="22.919236" lon="110.982346">
        <ele>138.077731</ele>
        <time>2026-08-18T05:49:51.000Z</time>
      </trkpt>
      <trkpt lat="22.919277" lon="110.982390">
        <ele>138.041028</ele>
        <time>2026-08-18T05:49:52.000Z</time>
      </trkpt>
      <trkpt lat="22.919320" lon="110.982435">
        <ele>138.003003</ele>
        <time>2026-08-18T05:49:53.000Z</time>
      </trkpt>
      <trkpt lat="22.919346" lon="110.982479">
        <ele>137.972347</ele>
        <time>2026-08-18T05:49:54.000Z</time>
      </trkpt>
      <trkpt lat="22.919367" lon="110.982520">
        <ele>137.944837</ele>
        <time>2026-08-18T05:49:55.000Z</time>
      </trkpt>
      <trkpt lat="22.919389" lon="110.982562">
        <ele>137.916503</ele>
        <time>2026-08-18T05:49:56.000Z</time>
      </trkpt>
      <trkpt lat="22.919409" lon="110.982609">
        <ele>137.886143</ele>
        <time>2026-08-18T05:49:57.000Z</time>
      </trkpt>
      <trkpt lat="22.919443" lon="110.982647">
        <ele>137.855076</ele>
        <time>2026-08-18T05:49:58.000Z</time>
      </trkpt>
      <trkpt lat="22.919462" lon="110.982694">
        <ele>137.824977</ele>
        <time>2026-08-18T05:49:59.000Z</time>
      </trkpt>
      <trkpt lat="22.919504" lon="110.982739">
        <ele>137.787408</ele>
        <time>2026-08-18T05:50:00.000Z</time>
      </trkpt>
      <trkpt lat="22.919521" lon="110.982791">
        <ele>137.755051</ele>
        <time>2026-08-18T05:50:01.000Z</time>
      </trkpt>
      <trkpt lat="22.919562" lon="110.982826">
        <ele>137.721845</ele>
        <time>2026-08-18T05:50:02.000Z</time>
      </trkpt>
      <trkpt lat="22.919599" lon="110.982865">
        <ele>137.689012</ele>
        <time>2026-08-18T05:50:03.000Z</time>
      </trkpt>
      <trkpt lat="22.919634" lon="110.982912">
        <ele>137.653570</ele>
        <time>2026-08-18T05:50:04.000Z</time>
      </trkpt>
      <trkpt lat="22.919657" lon="110.982957">
        <ele>137.623390</ele>
        <time>2026-08-18T05:50:05.000Z</time>
      </trkpt>
      <trkpt lat="22.919697" lon="110.983002">
        <ele>137.586717</ele>
        <time>2026-08-18T05:50:06.000Z</time>
      </trkpt>
      <trkpt lat="22.919734" lon="110.983045">
        <ele>137.552210</ele>
        <time>2026-08-18T05:50:07.000Z</time>
      </trkpt>
      <trkpt lat="22.919763" lon="110.983091">
        <ele>137.519521</ele>
        <time>2026-08-18T05:50:08.000Z</time>
      </trkpt>
      <trkpt lat="22.919794" lon="110.983140">
        <ele>137.484662</ele>
        <time>2026-08-18T05:50:09.000Z</time>
      </trkpt>
      <trkpt lat="22.919830" lon="110.983194">
        <ele>137.445571</ele>
        <time>2026-08-18T05:50:10.000Z</time>
      </trkpt>
      <trkpt lat="22.919866" lon="110.983245">
        <ele>137.407891</ele>
        <time>2026-08-18T05:50:11.000Z</time>
      </trkpt>
      <trkpt lat="22.919899" lon="110.983301">
        <ele>137.368906</ele>
        <time>2026-08-18T05:50:12.000Z</time>
      </trkpt>
      <trkpt lat="22.919927" lon="110.983349">
        <ele>137.335588</ele>
        <time>2026-08-18T05:50:13.000Z</time>
      </trkpt>
      <trkpt lat="22.919947" lon="110.983403">
        <ele>137.301458</ele>
        <time>2026-08-18T05:50:14.000Z</time>
      </trkpt>
      <trkpt lat="22.919972" lon="110.983449">
        <ele>137.270137</ele>
        <time>2026-08-18T05:50:15.000Z</time>
      </trkpt>
      <trkpt lat="22.919994" lon="110.983498">
        <ele>137.238171</ele>
        <time>2026-08-18T05:50:16.000Z</time>
      </trkpt>
      <trkpt lat="22.920032" lon="110.983538">
        <ele>137.204474</ele>
        <time>2026-08-18T05:50:17.000Z</time>
      </trkpt>
      <trkpt lat="22.920058" lon="110.983592">
        <ele>137.178590</ele>
        <time>2026-08-18T05:50:18.000Z</time>
      </trkpt>
      <trkpt lat="22.920092" lon="110.983645">
        <ele>137.167597</ele>
        <time>2026-08-18T05:50:19.000Z</time>
      </trkpt>
      <trkpt lat="22.920125" lon="110.983703">
        <ele>137.155995</ele>
        <time>2026-08-18T05:50:20.000Z</time>
      </trkpt>
      <trkpt lat="22.920151" lon="110.983753">
        <ele>137.146223</ele>
        <time>2026-08-18T05:50:21.000Z</time>
      </trkpt>
      <trkpt lat="22.920172" lon="110.983794">
        <ele>137.138239</ele>
        <time>2026-08-18T05:50:22.000Z</time>
      </trkpt>
      <trkpt lat="22.920166" lon="110.983843">
        <ele>137.129826</ele>
        <time>2026-08-18T05:50:23.000Z</time>
      </trkpt>
      <trkpt lat="22.920160" lon="110.983889">
        <ele>137.121919</ele>
        <time>2026-08-18T05:50:24.000Z</time>
      </trkpt>
      <trkpt lat="22.920154" lon="110.983939">
        <ele>137.113338</ele>
        <time>2026-08-18T05:50:25.000Z</time>
      </trkpt>
      <trkpt lat="22.920149" lon="110.983987">
        <ele>137.105116</ele>
        <time>2026-08-18T05:50:26.000Z</time>
      </trkpt>
      <trkpt lat="22.920133" lon="110.984037">
        <ele>137.096108</ele>
        <time>2026-08-18T05:50:27.000Z</time>
      </trkpt>
      <trkpt lat="22.920117" lon="110.984087">
        <ele>137.087099</ele>
        <time>2026-08-18T05:50:28.000Z</time>
      </trkpt>
      <trkpt lat="22.920101" lon="110.984137">
        <ele>137.078091</ele>
        <time>2026-08-18T05:50:29.000Z</time>
      </trkpt>
      <trkpt lat="22.920082" lon="110.984182">
        <ele>137.069666</ele>
        <time>2026-08-18T05:50:30.000Z</time>
      </trkpt>
      <trkpt lat="22.920064" lon="110.984229">
        <ele>137.061003</ele>
        <time>2026-08-18T05:50:31.000Z</time>
      </trkpt>
      <trkpt lat="22.920048" lon="110.984280">
        <ele>137.051834</ele>
        <time>2026-08-18T05:50:32.000Z</time>
      </trkpt>
      <trkpt lat="22.920037" lon="110.984332">
        <ele>137.042753</ele>
        <time>2026-08-18T05:50:33.000Z</time>
      </trkpt>
      <trkpt lat="22.920021" lon="110.984383">
        <ele>137.033584</ele>
        <time>2026-08-18T05:50:34.000Z</time>
      </trkpt>
      <trkpt lat="22.920013" lon="110.984429">
        <ele>137.025617</ele>
        <time>2026-08-18T05:50:35.000Z</time>
      </trkpt>
      <trkpt lat="22.919993" lon="110.984481">
        <ele>137.016026</ele>
        <time>2026-08-18T05:50:36.000Z</time>
      </trkpt>
      <trkpt lat="22.919965" lon="110.984529">
        <ele>137.006357</ele>
        <time>2026-08-18T05:50:37.000Z</time>
      </trkpt>
      <trkpt lat="22.919936" lon="110.984573">
        <ele>136.997148</ele>
        <time>2026-08-18T05:50:38.000Z</time>
      </trkpt>
      <trkpt lat="22.919908" lon="110.984623">
        <ele>136.987190</ele>
        <time>2026-08-18T05:50:39.000Z</time>
      </trkpt>
      <trkpt lat="22.919886" lon="110.984680">
        <ele>136.976671</ele>
        <time>2026-08-18T05:50:40.000Z</time>
      </trkpt>
      <trkpt lat="22.919851" lon="110.984811">
        <ele>136.953457</ele>
        <time>2026-08-18T05:50:42.000Z</time>
      </trkpt>
      <trkpt lat="22.919825" lon="110.984867">
        <ele>136.942784</ele>
        <time>2026-08-18T05:50:43.000Z</time>
      </trkpt>
      <trkpt lat="22.919797" lon="110.984922">
        <ele>136.932089</ele>
        <time>2026-08-18T05:50:44.000Z</time>
      </trkpt>
      <trkpt lat="22.919789" lon="110.984995">
        <ele>136.919577</ele>
        <time>2026-08-18T05:50:45.000Z</time>
      </trkpt>
      <trkpt lat="22.919776" lon="110.985060">
        <ele>136.908257</ele>
        <time>2026-08-18T05:50:46.000Z</time>
      </trkpt>
      <trkpt lat="22.919757" lon="110.985119">
        <ele>136.897620</ele>
        <time>2026-08-18T05:50:47.000Z</time>
      </trkpt>
      <trkpt lat="22.919736" lon="110.985180">
        <ele>136.886537</ele>
        <time>2026-08-18T05:50:48.000Z</time>
      </trkpt>
      <trkpt lat="22.919724" lon="110.985234">
        <ele>136.877083</ele>
        <time>2026-08-18T05:50:49.000Z</time>
      </trkpt>
      <trkpt lat="22.919701" lon="110.985289">
        <ele>136.866803</ele>
        <time>2026-08-18T05:50:50.000Z</time>
      </trkpt>
      <trkpt lat="22.919680" lon="110.985348">
        <ele>136.856038</ele>
        <time>2026-08-18T05:50:51.000Z</time>
      </trkpt>
      <trkpt lat="22.919662" lon="110.985412">
        <ele>136.851086</ele>
        <time>2026-08-18T05:50:52.000Z</time>
      </trkpt>
      <trkpt lat="22.919637" lon="110.985469">
        <ele>136.852658</ele>
        <time>2026-08-18T05:50:53.000Z</time>
      </trkpt>
      <trkpt lat="22.919609" lon="110.985527">
        <ele>136.854288</ele>
        <time>2026-08-18T05:50:54.000Z</time>
      </trkpt>
      <trkpt lat="22.919578" lon="110.985579">
        <ele>136.855830</ele>
        <time>2026-08-18T05:50:55.000Z</time>
      </trkpt>
      <trkpt lat="22.919545" lon="110.985634">
        <ele>136.857463</ele>
        <time>2026-08-18T05:50:56.000Z</time>
      </trkpt>
      <trkpt lat="22.919522" lon="110.985686">
        <ele>136.858899</ele>
        <time>2026-08-18T05:50:57.000Z</time>
      </trkpt>
      <trkpt lat="22.919513" lon="110.985753">
        <ele>136.860585</ele>
        <time>2026-08-18T05:50:58.000Z</time>
      </trkpt>
      <trkpt lat="22.919503" lon="110.985807">
        <ele>136.861956</ele>
        <time>2026-08-18T05:50:59.000Z</time>
      </trkpt>
      <trkpt lat="22.919487" lon="110.985843">
        <ele>136.862950</ele>
        <time>2026-08-18T05:51:00.000Z</time>
      </trkpt>
      <trkpt lat="22.919479" lon="110.985870">
        <ele>136.863656</ele>
        <time>2026-08-18T05:51:01.000Z</time>
      </trkpt>
      <trkpt lat="22.919475" lon="110.985888">
        <ele>136.864117</ele>
        <time>2026-08-18T05:51:02.000Z</time>
      </trkpt>
      <trkpt lat="22.919470" lon="110.985903">
        <ele>136.864514</ele>
        <time>2026-08-18T05:51:03.000Z</time>
      </trkpt>
      <trkpt lat="22.919472" lon="110.985919">
        <ele>136.864916</ele>
        <time>2026-08-18T05:51:04.000Z</time>
      </trkpt>
      <trkpt lat="22.919479" lon="110.985931">
        <ele>136.865270</ele>
        <time>2026-08-18T05:51:05.000Z</time>
      </trkpt>
      <trkpt lat="22.919491" lon="110.985938">
        <ele>136.865638</ele>
        <time>2026-08-18T05:51:06.000Z</time>
      </trkpt>
      <trkpt lat="22.919512" lon="110.985934">
        <ele>136.866214</ele>
        <time>2026-08-18T05:51:07.000Z</time>
      </trkpt>
      <trkpt lat="22.919534" lon="110.985931">
        <ele>136.866813</ele>
        <time>2026-08-18T05:51:08.000Z</time>
      </trkpt>
      <trkpt lat="22.919561" lon="110.985932">
        <ele>136.867543</ele>
        <time>2026-08-18T05:51:09.000Z</time>
      </trkpt>
      <trkpt lat="22.919588" lon="110.985934">
        <ele>136.868275</ele>
        <time>2026-08-18T05:51:10.000Z</time>
      </trkpt>
      <trkpt lat="22.919622" lon="110.985948">
        <ele>136.869257</ele>
        <time>2026-08-18T05:51:11.000Z</time>
      </trkpt>
      <trkpt lat="22.919652" lon="110.985962">
        <ele>136.870140</ele>
        <time>2026-08-18T05:51:12.000Z</time>
      </trkpt>
      <trkpt lat="22.919685" lon="110.985986">
        <ele>136.871213</ele>
        <time>2026-08-18T05:51:13.000Z</time>
      </trkpt>
      <trkpt lat="22.919720" lon="110.986009">
        <ele>136.872319</ele>
        <time>2026-08-18T05:51:14.000Z</time>
      </trkpt>
      <trkpt lat="22.919752" lon="110.986033">
        <ele>136.873370</ele>
        <time>2026-08-18T05:51:15.000Z</time>
      </trkpt>
      <trkpt lat="22.919783" lon="110.986060">
        <ele>136.874444</ele>
        <time>2026-08-18T05:51:16.000Z</time>
      </trkpt>
      <trkpt lat="22.919822" lon="110.986080">
        <ele>136.875610</ele>
        <time>2026-08-18T05:51:17.000Z</time>
      </trkpt>
      <trkpt lat="22.919861" lon="110.986100">
        <ele>136.876775</ele>
        <time>2026-08-18T05:51:18.000Z</time>
      </trkpt>
      <trkpt lat="22.919905" lon="110.986120">
        <ele>136.878064</ele>
        <time>2026-08-18T05:51:19.000Z</time>
      </trkpt>
      <trkpt lat="22.919943" lon="110.986152">
        <ele>136.879364</ele>
        <time>2026-08-18T05:51:20.000Z</time>
      </trkpt>
      <trkpt lat="22.919972" lon="110.986174">
        <ele>136.880320</ele>
        <time>2026-08-18T05:51:21.000Z</time>
      </trkpt>
      <trkpt lat="22.920007" lon="110.986205">
        <ele>136.881541</ele>
        <time>2026-08-18T05:51:22.000Z</time>
      </trkpt>
      <trkpt lat="22.920043" lon="110.986224">
        <ele>136.882622</ele>
        <time>2026-08-18T05:51:23.000Z</time>
      </trkpt>
      <trkpt lat="22.920073" lon="110.986255">
        <ele>136.883741</ele>
        <time>2026-08-18T05:51:24.000Z</time>
      </trkpt>
      <trkpt lat="22.920110" lon="110.986279">
        <ele>136.884906</ele>
        <time>2026-08-18T05:51:25.000Z</time>
      </trkpt>
      <trkpt lat="22.920151" lon="110.986295">
        <ele>136.886084</ele>
        <time>2026-08-18T05:51:26.000Z</time>
      </trkpt>
      <trkpt lat="22.920185" lon="110.986314">
        <ele>136.887117</ele>
        <time>2026-08-18T05:51:27.000Z</time>
      </trkpt>
      <trkpt lat="22.920214" lon="110.986333">
        <ele>136.888032</ele>
        <time>2026-08-18T05:51:28.000Z</time>
      </trkpt>
      <trkpt lat="22.920232" lon="110.986352">
        <ele>136.888711</ele>
        <time>2026-08-18T05:51:29.000Z</time>
      </trkpt>
      <trkpt lat="22.920258" lon="110.986370">
        <ele>136.889544</ele>
        <time>2026-08-18T05:51:30.000Z</time>
      </trkpt>
      <trkpt lat="22.920275" lon="110.986392">
        <ele>136.890259</ele>
        <time>2026-08-18T05:51:31.000Z</time>
      </trkpt>
      <trkpt lat="22.920288" lon="110.986421">
        <ele>136.891062</ele>
        <time>2026-08-18T05:51:32.000Z</time>
      </trkpt>
      <trkpt lat="22.920303" lon="110.986453">
        <ele>136.891955</ele>
        <time>2026-08-18T05:51:33.000Z</time>
      </trkpt>
      <trkpt lat="22.920310" lon="110.986497">
        <ele>136.893067</ele>
        <time>2026-08-18T05:51:34.000Z</time>
      </trkpt>
      <trkpt lat="22.920308" lon="110.986529">
        <ele>136.893865</ele>
        <time>2026-08-18T05:51:35.000Z</time>
      </trkpt>
      <trkpt lat="22.920310" lon="110.986555">
        <ele>136.894515</ele>
        <time>2026-08-18T05:51:36.000Z</time>
      </trkpt>
      <trkpt lat="22.920322" lon="110.986588">
        <ele>136.895398</ele>
        <time>2026-08-18T05:51:37.000Z</time>
      </trkpt>
      <trkpt lat="22.920324" lon="110.986640">
        <ele>136.896693</ele>
        <time>2026-08-18T05:51:38.000Z</time>
      </trkpt>
      <trkpt lat="22.920344" lon="110.986693">
        <ele>136.898119</ele>
        <time>2026-08-18T05:51:39.000Z</time>
      </trkpt>
      <trkpt lat="22.920355" lon="110.986740">
        <ele>136.910546</ele>
        <time>2026-08-18T05:51:40.000Z</time>
      </trkpt>
      <trkpt lat="22.920369" lon="110.986784">
        <ele>136.940355</ele>
        <time>2026-08-18T05:51:41.000Z</time>
      </trkpt>
      <trkpt lat="22.920373" lon="110.986824">
        <ele>136.966119</ele>
        <time>2026-08-18T05:51:42.000Z</time>
      </trkpt>
      <trkpt lat="22.920385" lon="110.986867">
        <ele>136.994890</ele>
        <time>2026-08-18T05:51:43.000Z</time>
      </trkpt>
      <trkpt lat="22.920392" lon="110.986910">
        <ele>137.022852</ele>
        <time>2026-08-18T05:51:44.000Z</time>
      </trkpt>
      <trkpt lat="22.920401" lon="110.986957">
        <ele>137.053592</ele>
        <time>2026-08-18T05:51:45.000Z</time>
      </trkpt>
      <trkpt lat="22.920409" lon="110.987006">
        <ele>137.085458</ele>
        <time>2026-08-18T05:51:46.000Z</time>
      </trkpt>
      <trkpt lat="22.920410" lon="110.987058">
        <ele>137.118763</ele>
        <time>2026-08-18T05:51:47.000Z</time>
      </trkpt>
      <trkpt lat="22.920408" lon="110.987109">
        <ele>137.151450</ele>
        <time>2026-08-18T05:51:48.000Z</time>
      </trkpt>
      <trkpt lat="22.920411" lon="110.987162">
        <ele>137.185453</ele>
        <time>2026-08-18T05:51:49.000Z</time>
      </trkpt>
      <trkpt lat="22.920417" lon="110.987215">
        <ele>137.219647</ele>
        <time>2026-08-18T05:51:50.000Z</time>
      </trkpt>
      <trkpt lat="22.920421" lon="110.987271">
        <ele>137.255614</ele>
        <time>2026-08-18T05:51:51.000Z</time>
      </trkpt>
      <trkpt lat="22.920429" lon="110.987323">
        <ele>137.289373</ele>
        <time>2026-08-18T05:51:52.000Z</time>
      </trkpt>
      <trkpt lat="22.920440" lon="110.987375">
        <ele>137.323538</ele>
        <time>2026-08-18T05:51:53.000Z</time>
      </trkpt>
      <trkpt lat="22.920446" lon="110.987428">
        <ele>137.357732</ele>
        <time>2026-08-18T05:51:54.000Z</time>
      </trkpt>
      <trkpt lat="22.920452" lon="110.987480">
        <ele>137.391290</ele>
        <time>2026-08-18T05:51:55.000Z</time>
      </trkpt>
      <trkpt lat="22.920459" lon="110.987532">
        <ele>137.424942</ele>
        <time>2026-08-18T05:51:56.000Z</time>
      </trkpt>
      <trkpt lat="22.920476" lon="110.987578">
        <ele>137.456680</ele>
        <time>2026-08-18T05:51:57.000Z</time>
      </trkpt>
      <trkpt lat="22.920489" lon="110.987623">
        <ele>137.486880</ele>
        <time>2026-08-18T05:51:58.000Z</time>
      </trkpt>
      <trkpt lat="22.920498" lon="110.987668">
        <ele>137.516367</ele>
        <time>2026-08-18T05:51:59.000Z</time>
      </trkpt>
      <trkpt lat="22.920508" lon="110.987710">
        <ele>137.544146</ele>
        <time>2026-08-18T05:52:00.000Z</time>
      </trkpt>
      <trkpt lat="22.920516" lon="110.987751">
        <ele>137.570983</ele>
        <time>2026-08-18T05:52:01.000Z</time>
      </trkpt>
      <trkpt lat="22.920517" lon="110.987793">
        <ele>137.597886</ele>
        <time>2026-08-18T05:52:02.000Z</time>
      </trkpt>
      <trkpt lat="22.920519" lon="110.987834">
        <ele>137.624177</ele>
        <time>2026-08-18T05:52:03.000Z</time>
      </trkpt>
      <trkpt lat="22.920517" lon="110.987880">
        <ele>137.653666</ele>
        <time>2026-08-18T05:52:04.000Z</time>
      </trkpt>
      <trkpt lat="22.920510" lon="110.987929">
        <ele>137.685418</ele>
        <time>2026-08-18T05:52:05.000Z</time>
      </trkpt>
      <trkpt lat="22.920500" lon="110.987981">
        <ele>137.719434</ele>
        <time>2026-08-18T05:52:06.000Z</time>
      </trkpt>
      <trkpt lat="22.920487" lon="110.988030">
        <ele>137.752087</ele>
        <time>2026-08-18T05:52:07.000Z</time>
      </trkpt>
      <trkpt lat="22.920478" lon="110.988074">
        <ele>137.780949</ele>
        <time>2026-08-18T05:52:08.000Z</time>
      </trkpt>
      <trkpt lat="22.920461" lon="110.988122">
        <ele>137.813879</ele>
        <time>2026-08-18T05:52:09.000Z</time>
      </trkpt>
      <trkpt lat="22.920446" lon="110.988170">
        <ele>137.846337</ele>
        <time>2026-08-18T05:52:10.000Z</time>
      </trkpt>
      <trkpt lat="22.920437" lon="110.988216">
        <ele>137.876450</ele>
        <time>2026-08-18T05:52:11.000Z</time>
      </trkpt>
      <trkpt lat="22.920432" lon="110.988261">
        <ele>137.905475</ele>
        <time>2026-08-18T05:52:12.000Z</time>
      </trkpt>
      <trkpt lat="22.920425" lon="110.988309">
        <ele>137.936594</ele>
        <time>2026-08-18T05:52:13.000Z</time>
      </trkpt>
      <trkpt lat="22.920417" lon="110.988355">
        <ele>137.966571</ele>
        <time>2026-08-18T05:52:14.000Z</time>
      </trkpt>
      <trkpt lat="22.920413" lon="110.988401">
        <ele>137.996158</ele>
        <time>2026-08-18T05:52:15.000Z</time>
      </trkpt>
      <trkpt lat="22.920409" lon="110.988446">
        <ele>138.025107</ele>
        <time>2026-08-18T05:52:16.000Z</time>
      </trkpt>
      <trkpt lat="22.920403" lon="110.988494">
        <ele>138.056125</ele>
        <time>2026-08-18T05:52:17.000Z</time>
      </trkpt>
      <trkpt lat="22.920396" lon="110.988543">
        <ele>138.087878</ele>
        <time>2026-08-18T05:52:18.000Z</time>
      </trkpt>
      <trkpt lat="22.920391" lon="110.988592">
        <ele>138.119447</ele>
        <time>2026-08-18T05:52:19.000Z</time>
      </trkpt>
      <trkpt lat="22.920389" lon="110.988638">
        <ele>138.148935</ele>
        <time>2026-08-18T05:52:20.000Z</time>
      </trkpt>
      <trkpt lat="22.920387" lon="110.988687">
        <ele>138.132334</ele>
        <time>2026-08-18T05:52:21.000Z</time>
      </trkpt>
      <trkpt lat="22.920384" lon="110.988734">
        <ele>138.115759</ele>
        <time>2026-08-18T05:52:22.000Z</time>
      </trkpt>
      <trkpt lat="22.920381" lon="110.988784">
        <ele>138.098132</ele>
        <time>2026-08-18T05:52:23.000Z</time>
      </trkpt>
      <trkpt lat="22.920379" lon="110.988835">
        <ele>138.080174</ele>
        <time>2026-08-18T05:52:24.000Z</time>
      </trkpt>
      <trkpt lat="22.920377" lon="110.988884">
        <ele>138.062919</ele>
        <time>2026-08-18T05:52:25.000Z</time>
      </trkpt>
      <trkpt lat="22.920373" lon="110.988934">
        <ele>138.045263</ele>
        <time>2026-08-18T05:52:26.000Z</time>
      </trkpt>
      <trkpt lat="22.920371" lon="110.988981">
        <ele>138.028711</ele>
        <time>2026-08-18T05:52:27.000Z</time>
      </trkpt>
      <trkpt lat="22.920368" lon="110.989028">
        <ele>138.012136</ele>
        <time>2026-08-18T05:52:28.000Z</time>
      </trkpt>
      <trkpt lat="22.920366" lon="110.989076">
        <ele>137.995233</ele>
        <time>2026-08-18T05:52:29.000Z</time>
      </trkpt>
      <trkpt lat="22.920364" lon="110.989124">
        <ele>137.978329</ele>
        <time>2026-08-18T05:52:30.000Z</time>
      </trkpt>
      <trkpt lat="22.920360" lon="110.989171">
        <ele>137.961724</ele>
        <time>2026-08-18T05:52:31.000Z</time>
      </trkpt>
      <trkpt lat="22.920358" lon="110.989220">
        <ele>137.944469</ele>
        <time>2026-08-18T05:52:32.000Z</time>
      </trkpt>
      <trkpt lat="22.920356" lon="110.989268">
        <ele>137.927565</ele>
        <time>2026-08-18T05:52:33.000Z</time>
      </trkpt>
      <trkpt lat="22.920353" lon="110.989313">
        <ele>137.911693</ele>
        <time>2026-08-18T05:52:34.000Z</time>
      </trkpt>
      <trkpt lat="22.920349" lon="110.989358">
        <ele>137.895788</ele>
        <time>2026-08-18T05:52:35.000Z</time>
      </trkpt>
      <trkpt lat="22.920345" lon="110.989403">
        <ele>137.879884</ele>
        <time>2026-08-18T05:52:36.000Z</time>
      </trkpt>
      <trkpt lat="22.920342" lon="110.989450">
        <ele>137.863310</ele>
        <time>2026-08-18T05:52:37.000Z</time>
      </trkpt>
      <trkpt lat="22.920339" lon="110.989497">
        <ele>137.846736</ele>
        <time>2026-08-18T05:52:38.000Z</time>
      </trkpt>
      <trkpt lat="22.920333" lon="110.989545">
        <ele>137.829694</ele>
        <time>2026-08-18T05:52:39.000Z</time>
      </trkpt>
      <trkpt lat="22.920321" lon="110.989593">
        <ele>137.812197</ele>
        <time>2026-08-18T05:52:40.000Z</time>
      </trkpt>
      <trkpt lat="22.920305" lon="110.989637">
        <ele>137.795555</ele>
        <time>2026-08-18T05:52:41.000Z</time>
      </trkpt>
      <trkpt lat="22.920288" lon="110.989679">
        <ele>137.779416</ele>
        <time>2026-08-18T05:52:42.000Z</time>
      </trkpt>
      <trkpt lat="22.920273" lon="110.989720">
        <ele>137.763896</ele>
        <time>2026-08-18T05:52:43.000Z</time>
      </trkpt>
      <trkpt lat="22.920258" lon="110.989758">
        <ele>137.749351</ele>
        <time>2026-08-18T05:52:44.000Z</time>
      </trkpt>
      <trkpt lat="22.920240" lon="110.989791">
        <ele>137.735859</ele>
        <time>2026-08-18T05:52:45.000Z</time>
      </trkpt>
      <trkpt lat="22.920212" lon="110.989817">
        <ele>137.721786</ele>
        <time>2026-08-18T05:52:46.000Z</time>
      </trkpt>
      <trkpt lat="22.920175" lon="110.989828">
        <ele>137.707134</ele>
        <time>2026-08-18T05:52:47.000Z</time>
      </trkpt>
      <trkpt lat="22.920138" lon="110.989832">
        <ele>137.692931</ele>
        <time>2026-08-18T05:52:48.000Z</time>
      </trkpt>
      <trkpt lat="22.920099" lon="110.989828">
        <ele>137.677969</ele>
        <time>2026-08-18T05:52:49.000Z</time>
      </trkpt>
      <trkpt lat="22.920061" lon="110.989819">
        <ele>137.663113</ele>
        <time>2026-08-18T05:52:50.000Z</time>
      </trkpt>
      <trkpt lat="22.920021" lon="110.989814">
        <ele>137.647734</ele>
        <time>2026-08-18T05:52:51.000Z</time>
      </trkpt>
      <trkpt lat="22.919983" lon="110.989807">
        <ele>137.633012</ele>
        <time>2026-08-18T05:52:52.000Z</time>
      </trkpt>
      <trkpt lat="22.919952" lon="110.989788">
        <ele>137.619415</ele>
        <time>2026-08-18T05:52:53.000Z</time>
      </trkpt>
      <trkpt lat="22.919915" lon="110.989773">
        <ele>137.604330</ele>
        <time>2026-08-18T05:52:54.000Z</time>
      </trkpt>
      <trkpt lat="22.919881" lon="110.989757">
        <ele>137.590176</ele>
        <time>2026-08-18T05:52:55.000Z</time>
      </trkpt>
      <trkpt lat="22.919844" lon="110.989742">
        <ele>137.575090</ele>
        <time>2026-08-18T05:52:56.000Z</time>
      </trkpt>
      <trkpt lat="22.919804" lon="110.989731">
        <ele>137.559330</ele>
        <time>2026-08-18T05:52:57.000Z</time>
      </trkpt>
      <trkpt lat="22.919764" lon="110.989718">
        <ele>137.543382</ele>
        <time>2026-08-18T05:52:58.000Z</time>
      </trkpt>
      <trkpt lat="22.919722" lon="110.989706">
        <ele>137.526793</ele>
        <time>2026-08-18T05:52:59.000Z</time>
      </trkpt>
      <trkpt lat="22.919689" lon="110.989697">
        <ele>137.513797</ele>
        <time>2026-08-18T05:53:00.000Z</time>
      </trkpt>
      <trkpt lat="22.919657" lon="110.989677">
        <ele>137.499694</ele>
        <time>2026-08-18T05:53:01.000Z</time>
      </trkpt>
      <trkpt lat="22.919614" lon="110.989669">
        <ele>137.483031</ele>
        <time>2026-08-18T05:53:02.000Z</time>
      </trkpt>
      <trkpt lat="22.919575" lon="110.989653">
        <ele>137.467106</ele>
        <time>2026-08-18T05:53:03.000Z</time>
      </trkpt>
      <trkpt lat="22.919542" lon="110.989649">
        <ele>137.455619</ele>
        <time>2026-08-18T05:53:04.000Z</time>
      </trkpt>
      <trkpt lat="22.919504" lon="110.989633">
        <ele>137.442397</ele>
        <time>2026-08-18T05:53:05.000Z</time>
      </trkpt>
      <trkpt lat="22.919458" lon="110.989615">
        <ele>137.426534</ele>
        <time>2026-08-18T05:53:06.000Z</time>
      </trkpt>
      <trkpt lat="22.919412" lon="110.989595">
        <ele>137.410460</ele>
        <time>2026-08-18T05:53:07.000Z</time>
      </trkpt>
      <trkpt lat="22.919380" lon="110.989580">
        <ele>137.399153</ele>
        <time>2026-08-18T05:53:08.000Z</time>
      </trkpt>
      <trkpt lat="22.919340" lon="110.989565">
        <ele>137.385424</ele>
        <time>2026-08-18T05:53:09.000Z</time>
      </trkpt>
      <trkpt lat="22.919306" lon="110.989558">
        <ele>137.374198</ele>
        <time>2026-08-18T05:53:10.000Z</time>
      </trkpt>
      <trkpt lat="22.919276" lon="110.989551">
        <ele>137.364244</ele>
        <time>2026-08-18T05:53:11.000Z</time>
      </trkpt>
      <trkpt lat="22.919254" lon="110.989541">
        <ele>137.356506</ele>
        <time>2026-08-18T05:53:12.000Z</time>
      </trkpt>
      <trkpt lat="22.919235" lon="110.989538">
        <ele>137.350278</ele>
        <time>2026-08-18T05:53:13.000Z</time>
      </trkpt>
      <trkpt lat="22.919210" lon="110.989532">
        <ele>137.341972</ele>
        <time>2026-08-18T05:53:14.000Z</time>
      </trkpt>
      <trkpt lat="22.919187" lon="110.989518">
        <ele>137.333418</ele>
        <time>2026-08-18T05:53:15.000Z</time>
      </trkpt>
      <trkpt lat="22.919171" lon="110.989510">
        <ele>137.327704</ele>
        <time>2026-08-18T05:53:16.000Z</time>
      </trkpt>
      <trkpt lat="22.919162" lon="110.989505">
        <ele>137.324424</ele>
        <time>2026-08-18T05:53:17.000Z</time>
      </trkpt>
      <trkpt lat="22.919156" lon="110.989501">
        <ele>137.322140</ele>
        <time>2026-08-18T05:53:18.000Z</time>
      </trkpt>
      <trkpt lat="22.919031" lon="110.989453">
        <ele>137.279128</ele>
        <time>2026-08-18T05:53:45.000Z</time>
      </trkpt>
      <trkpt lat="22.919002" lon="110.989448">
        <ele>137.269602</ele>
        <time>2026-08-18T05:53:46.000Z</time>
      </trkpt>
      <trkpt lat="22.918983" lon="110.989438">
        <ele>137.262752</ele>
        <time>2026-08-18T05:53:47.000Z</time>
      </trkpt>
      <trkpt lat="22.918962" lon="110.989434">
        <ele>137.255836</ele>
        <time>2026-08-18T05:53:48.000Z</time>
      </trkpt>
      <trkpt lat="22.918948" lon="110.989425">
        <ele>137.250558</ele>
        <time>2026-08-18T05:53:49.000Z</time>
      </trkpt>
      <trkpt lat="22.918928" lon="110.989418">
        <ele>137.243741</ele>
        <time>2026-08-18T05:53:50.000Z</time>
      </trkpt>
      <trkpt lat="22.918910" lon="110.989422">
        <ele>137.237781</ele>
        <time>2026-08-18T05:53:51.000Z</time>
      </trkpt>
      <trkpt lat="22.918887" lon="110.989417">
        <ele>137.230171</ele>
        <time>2026-08-18T05:53:52.000Z</time>
      </trkpt>
      <trkpt lat="22.918855" lon="110.989412">
        <ele>137.219683</ele>
        <time>2026-08-18T05:53:53.000Z</time>
      </trkpt>
      <trkpt lat="22.918817" lon="110.989409">
        <ele>137.207323</ele>
        <time>2026-08-18T05:53:54.000Z</time>
      </trkpt>
      <trkpt lat="22.918778" lon="110.989394">
        <ele>137.193901</ele>
        <time>2026-08-18T05:53:55.000Z</time>
      </trkpt>
      <trkpt lat="22.918726" lon="110.989361">
        <ele>137.174362</ele>
        <time>2026-08-18T05:53:56.000Z</time>
      </trkpt>
      <trkpt lat="22.918675" lon="110.989331">
        <ele>137.155545</ele>
        <time>2026-08-18T05:53:57.000Z</time>
      </trkpt>
      <trkpt lat="22.918625" lon="110.989306">
        <ele>137.137687</ele>
        <time>2026-08-18T05:53:58.000Z</time>
      </trkpt>
      <trkpt lat="22.918573" lon="110.989285">
        <ele>137.119689</ele>
        <time>2026-08-18T05:53:59.000Z</time>
      </trkpt>
      <trkpt lat="22.918524" lon="110.989278">
        <ele>137.103656</ele>
        <time>2026-08-18T05:54:00.000Z</time>
      </trkpt>
      <trkpt lat="22.918478" lon="110.989274">
        <ele>137.088686</ele>
        <time>2026-08-18T05:54:01.000Z</time>
      </trkpt>
      <trkpt lat="22.918429" lon="110.989278">
        <ele>137.072745</ele>
        <time>2026-08-18T05:54:02.000Z</time>
      </trkpt>
      <trkpt lat="22.918379" lon="110.989286">
        <ele>137.056350</ele>
        <time>2026-08-18T05:54:03.000Z</time>
      </trkpt>
      <trkpt lat="22.918330" lon="110.989306">
        <ele>137.039368</ele>
        <time>2026-08-18T05:54:04.000Z</time>
      </trkpt>
      <trkpt lat="22.918285" lon="110.989339">
        <ele>137.021752</ele>
        <time>2026-08-18T05:54:05.000Z</time>
      </trkpt>
      <trkpt lat="22.918246" lon="110.989376">
        <ele>137.004950</ele>
        <time>2026-08-18T05:54:06.000Z</time>
      </trkpt>
      <trkpt lat="22.918209" lon="110.989421">
        <ele>136.986926</ele>
        <time>2026-08-18T05:54:07.000Z</time>
      </trkpt>
      <trkpt lat="22.918179" lon="110.989472">
        <ele>136.968845</ele>
        <time>2026-08-18T05:54:08.000Z</time>
      </trkpt>
      <trkpt lat="22.918154" lon="110.989528">
        <ele>136.950250</ele>
        <time>2026-08-18T05:54:09.000Z</time>
      </trkpt>
      <trkpt lat="22.918130" lon="110.989587">
        <ele>136.930979</ele>
        <time>2026-08-18T05:54:10.000Z</time>
      </trkpt>
      <trkpt lat="22.918106" lon="110.989645">
        <ele>136.911980</ele>
        <time>2026-08-18T05:54:11.000Z</time>
      </trkpt>
      <trkpt lat="22.918084" lon="110.989708">
        <ele>136.891848</ele>
        <time>2026-08-18T05:54:12.000Z</time>
      </trkpt>
      <trkpt lat="22.918059" lon="110.989767">
        <ele>136.877124</ele>
        <time>2026-08-18T05:54:13.000Z</time>
      </trkpt>
      <trkpt lat="22.918039" lon="110.989824">
        <ele>136.872180</ele>
        <time>2026-08-18T05:54:14.000Z</time>
      </trkpt>
      <trkpt lat="22.918017" lon="110.989889">
        <ele>136.866566</ele>
        <time>2026-08-18T05:54:15.000Z</time>
      </trkpt>
      <trkpt lat="22.917995" lon="110.989953">
        <ele>136.861028</ele>
        <time>2026-08-18T05:54:16.000Z</time>
      </trkpt>
      <trkpt lat="22.917972" lon="110.990016">
        <ele>136.855534</ele>
        <time>2026-08-18T05:54:17.000Z</time>
      </trkpt>
      <trkpt lat="22.917946" lon="110.990078">
        <ele>136.850011</ele>
        <time>2026-08-18T05:54:18.000Z</time>
      </trkpt>
      <trkpt lat="22.917920" lon="110.990138">
        <ele>136.844636</ele>
        <time>2026-08-18T05:54:19.000Z</time>
      </trkpt>
      <trkpt lat="22.917895" lon="110.990198">
        <ele>136.839297</ele>
        <time>2026-08-18T05:54:20.000Z</time>
      </trkpt>
      <trkpt lat="22.917875" lon="110.990259">
        <ele>136.834048</ele>
        <time>2026-08-18T05:54:21.000Z</time>
      </trkpt>
      <trkpt lat="22.917853" lon="110.990319">
        <ele>136.828813</ele>
        <time>2026-08-18T05:54:22.000Z</time>
      </trkpt>
      <trkpt lat="22.917832" lon="110.990380">
        <ele>136.823534</ele>
        <time>2026-08-18T05:54:23.000Z</time>
      </trkpt>
      <trkpt lat="22.917812" lon="110.990440">
        <ele>136.818361</ele>
        <time>2026-08-18T05:54:24.000Z</time>
      </trkpt>
      <trkpt lat="22.917791" lon="110.990500">
        <ele>136.813158</ele>
        <time>2026-08-18T05:54:25.000Z</time>
      </trkpt>
      <trkpt lat="22.917769" lon="110.990559">
        <ele>136.807998</ele>
        <time>2026-08-18T05:54:26.000Z</time>
      </trkpt>
      <trkpt lat="22.917745" lon="110.990614">
        <ele>136.803064</ele>
        <time>2026-08-18T05:54:27.000Z</time>
      </trkpt>
      <trkpt lat="22.917724" lon="110.990672">
        <ele>136.798012</ele>
        <time>2026-08-18T05:54:28.000Z</time>
      </trkpt>
      <trkpt lat="22.917698" lon="110.990727">
        <ele>136.793000</ele>
        <time>2026-08-18T05:54:29.000Z</time>
      </trkpt>
      <trkpt lat="22.917678" lon="110.990792">
        <ele>136.787445</ele>
        <time>2026-08-18T05:54:30.000Z</time>
      </trkpt>
      <trkpt lat="22.917659" lon="110.990855">
        <ele>136.782071</ele>
        <time>2026-08-18T05:54:31.000Z</time>
      </trkpt>
      <trkpt lat="22.917636" lon="110.990914">
        <ele>136.776877</ele>
        <time>2026-08-18T05:54:32.000Z</time>
      </trkpt>
      <trkpt lat="22.917616" lon="110.990975">
        <ele>136.771628</ele>
        <time>2026-08-18T05:54:33.000Z</time>
      </trkpt>
      <trkpt lat="22.917594" lon="110.991034">
        <ele>136.766468</ele>
        <time>2026-08-18T05:54:34.000Z</time>
      </trkpt>
      <trkpt lat="22.917571" lon="110.991096">
        <ele>136.761049</ele>
        <time>2026-08-18T05:54:35.000Z</time>
      </trkpt>
      <trkpt lat="22.917550" lon="110.991157">
        <ele>136.755770</ele>
        <time>2026-08-18T05:54:36.000Z</time>
      </trkpt>
      <trkpt lat="22.917526" lon="110.991217">
        <ele>136.750467</ele>
        <time>2026-08-18T05:54:37.000Z</time>
      </trkpt>
      <trkpt lat="22.917507" lon="110.991271">
        <ele>136.745781</ele>
        <time>2026-08-18T05:54:38.000Z</time>
      </trkpt>
      <trkpt lat="22.917489" lon="110.991323">
        <ele>136.741277</ele>
        <time>2026-08-18T05:54:39.000Z</time>
      </trkpt>
      <trkpt lat="22.917473" lon="110.991380">
        <ele>136.736447</ele>
        <time>2026-08-18T05:54:40.000Z</time>
      </trkpt>
      <trkpt lat="22.917456" lon="110.991435">
        <ele>136.731744</ele>
        <time>2026-08-18T05:54:41.000Z</time>
      </trkpt>
      <trkpt lat="22.917437" lon="110.991495">
        <ele>136.726600</ele>
        <time>2026-08-18T05:54:42.000Z</time>
      </trkpt>
      <trkpt lat="22.917415" lon="110.991555">
        <ele>136.721365</ele>
        <time>2026-08-18T05:54:43.000Z</time>
      </trkpt>
      <trkpt lat="22.917387" lon="110.991614">
        <ele>136.739411</ele>
        <time>2026-08-18T05:54:44.000Z</time>
      </trkpt>
      <trkpt lat="22.917367" lon="110.991673">
        <ele>136.760406</ele>
        <time>2026-08-18T05:54:45.000Z</time>
      </trkpt>
      <trkpt lat="22.917344" lon="110.991734">
        <ele>136.782419</ele>
        <time>2026-08-18T05:54:46.000Z</time>
      </trkpt>
      <trkpt lat="22.917323" lon="110.991798">
        <ele>136.805108</ele>
        <time>2026-08-18T05:54:47.000Z</time>
      </trkpt>
      <trkpt lat="22.917301" lon="110.991850">
        <ele>136.824218</ele>
        <time>2026-08-18T05:54:48.000Z</time>
      </trkpt>
      <trkpt lat="22.917278" lon="110.991912">
        <ele>136.846540</ele>
        <time>2026-08-18T05:54:49.000Z</time>
      </trkpt>
      <trkpt lat="22.917250" lon="110.991968">
        <ele>136.867820</ele>
        <time>2026-08-18T05:54:50.000Z</time>
      </trkpt>
      <trkpt lat="22.917224" lon="110.992025">
        <ele>136.889062</ele>
        <time>2026-08-18T05:54:51.000Z</time>
      </trkpt>
      <trkpt lat="22.917198" lon="110.992085">
        <ele>136.911207</ele>
        <time>2026-08-18T05:54:52.000Z</time>
      </trkpt>
      <trkpt lat="22.917174" lon="110.992145">
        <ele>136.933052</ele>
        <time>2026-08-18T05:54:53.000Z</time>
      </trkpt>
      <trkpt lat="22.917151" lon="110.992203">
        <ele>136.954141</ele>
        <time>2026-08-18T05:54:54.000Z</time>
      </trkpt>
      <trkpt lat="22.917129" lon="110.992265">
        <ele>136.976330</ele>
        <time>2026-08-18T05:54:55.000Z</time>
      </trkpt>
      <trkpt lat="22.917103" lon="110.992312">
        <ele>136.994639</ele>
        <time>2026-08-18T05:54:56.000Z</time>
      </trkpt>
      <trkpt lat="22.917081" lon="110.992372">
        <ele>137.016206</ele>
        <time>2026-08-18T05:54:57.000Z</time>
      </trkpt>
      <trkpt lat="22.917067" lon="110.992447">
        <ele>137.041763</ele>
        <time>2026-08-18T05:54:58.000Z</time>
      </trkpt>
      <trkpt lat="22.917042" lon="110.992509">
        <ele>137.064365</ele>
        <time>2026-08-18T05:54:59.000Z</time>
      </trkpt>
      <trkpt lat="22.917018" lon="110.992574">
        <ele>137.087752</ele>
        <time>2026-08-18T05:55:00.000Z</time>
      </trkpt>
      <trkpt lat="22.916986" lon="110.992629">
        <ele>137.109478</ele>
        <time>2026-08-18T05:55:01.000Z</time>
      </trkpt>
      <trkpt lat="22.916957" lon="110.992701">
        <ele>137.135721</ele>
        <time>2026-08-18T05:55:02.000Z</time>
      </trkpt>
      <trkpt lat="22.916921" lon="110.992769">
        <ele>137.161915</ele>
        <time>2026-08-18T05:55:03.000Z</time>
      </trkpt>
      <trkpt lat="22.916894" lon="110.992840">
        <ele>137.187568</ele>
        <time>2026-08-18T05:55:04.000Z</time>
      </trkpt>
      <trkpt lat="22.916873" lon="110.992923">
        <ele>137.216313</ele>
        <time>2026-08-18T05:55:05.000Z</time>
      </trkpt>
      <trkpt lat="22.916854" lon="110.992995">
        <ele>137.241326</ele>
        <time>2026-08-18T05:55:06.000Z</time>
      </trkpt>
      <trkpt lat="22.916831" lon="110.993067">
        <ele>137.266776</ele>
        <time>2026-08-18T05:55:07.000Z</time>
      </trkpt>
      <trkpt lat="22.916815" lon="110.993148">
        <ele>137.294442</ele>
        <time>2026-08-18T05:55:08.000Z</time>
      </trkpt>
      <trkpt lat="22.916802" lon="110.993222">
        <ele>137.319601</ele>
        <time>2026-08-18T05:55:09.000Z</time>
      </trkpt>
      <trkpt lat="22.916782" lon="110.993309">
        <ele>137.349547</ele>
        <time>2026-08-18T05:55:10.000Z</time>
      </trkpt>
      <trkpt lat="22.916755" lon="110.993374">
        <ele>137.373134</ele>
        <time>2026-08-18T05:55:11.000Z</time>
      </trkpt>
      <trkpt lat="22.916729" lon="110.993458">
        <ele>137.392411</ele>
        <time>2026-08-18T05:55:12.000Z</time>
      </trkpt>
      <trkpt lat="22.916702" lon="110.993533">
        <ele>137.409928</ele>
        <time>2026-08-18T05:55:13.000Z</time>
      </trkpt>
      <trkpt lat="22.916673" lon="110.993611">
        <ele>137.428226</ele>
        <time>2026-08-18T05:55:14.000Z</time>
      </trkpt>
      <trkpt lat="22.916645" lon="110.993688">
        <ele>137.446235</ele>
        <time>2026-08-18T05:55:15.000Z</time>
      </trkpt>
      <trkpt lat="22.916623" lon="110.993763">
        <ele>137.463357</ele>
        <time>2026-08-18T05:55:16.000Z</time>
      </trkpt>
      <trkpt lat="22.916591" lon="110.993836">
        <ele>137.480944</ele>
        <time>2026-08-18T05:55:17.000Z</time>
      </trkpt>
      <trkpt lat="22.916562" lon="110.993911">
        <ele>137.498638</ele>
        <time>2026-08-18T05:55:18.000Z</time>
      </trkpt>
      <trkpt lat="22.916532" lon="110.993986">
        <ele>137.516426</ele>
        <time>2026-08-18T05:55:19.000Z</time>
      </trkpt>
      <trkpt lat="22.916506" lon="110.994054">
        <ele>137.532442</ele>
        <time>2026-08-18T05:55:20.000Z</time>
      </trkpt>
      <trkpt lat="22.916482" lon="110.994129">
        <ele>137.549714</ele>
        <time>2026-08-18T05:55:21.000Z</time>
      </trkpt>
      <trkpt lat="22.916459" lon="110.994202">
        <ele>137.566497</ele>
        <time>2026-08-18T05:55:22.000Z</time>
      </trkpt>
      <trkpt lat="22.916438" lon="110.994276">
        <ele>137.583342</ele>
        <time>2026-08-18T05:55:23.000Z</time>
      </trkpt>
      <trkpt lat="22.916419" lon="110.994349">
        <ele>137.599844</ele>
        <time>2026-08-18T05:55:24.000Z</time>
      </trkpt>
      <trkpt lat="22.916400" lon="110.994423">
        <ele>137.616555</ele>
        <time>2026-08-18T05:55:25.000Z</time>
      </trkpt>
      <trkpt lat="22.916372" lon="110.994493">
        <ele>137.633156</ele>
        <time>2026-08-18T05:55:26.000Z</time>
      </trkpt>
      <trkpt lat="22.916352" lon="110.994565">
        <ele>137.649516</ele>
        <time>2026-08-18T05:55:27.000Z</time>
      </trkpt>
      <trkpt lat="22.916328" lon="110.994636">
        <ele>137.665968</ele>
        <time>2026-08-18T05:55:28.000Z</time>
      </trkpt>
      <trkpt lat="22.916302" lon="110.994706">
        <ele>137.682387</ele>
        <time>2026-08-18T05:55:29.000Z</time>
      </trkpt>
      <trkpt lat="22.916276" lon="110.994774">
        <ele>137.698404</ele>
        <time>2026-08-18T05:55:30.000Z</time>
      </trkpt>
      <trkpt lat="22.916251" lon="110.994844">
        <ele>137.714736</ele>
        <time>2026-08-18T05:55:31.000Z</time>
      </trkpt>
      <trkpt lat="22.916227" lon="110.994917">
        <ele>137.731597</ele>
        <time>2026-08-18T05:55:32.000Z</time>
      </trkpt>
      <trkpt lat="22.916205" lon="110.994988">
        <ele>137.747893</ele>
        <time>2026-08-18T05:55:33.000Z</time>
      </trkpt>
      <trkpt lat="22.916181" lon="110.995059">
        <ele>137.764345</ele>
        <time>2026-08-18T05:55:34.000Z</time>
      </trkpt>
      <trkpt lat="22.916155" lon="110.995128">
        <ele>137.780563</ele>
        <time>2026-08-18T05:55:35.000Z</time>
      </trkpt>
      <trkpt lat="22.916131" lon="110.995200">
        <ele>137.797219</ele>
        <time>2026-08-18T05:55:36.000Z</time>
      </trkpt>
      <trkpt lat="22.916105" lon="110.995268">
        <ele>137.815153</ele>
        <time>2026-08-18T05:55:37.000Z</time>
      </trkpt>
      <trkpt lat="22.916078" lon="110.995335">
        <ele>137.833001</ele>
        <time>2026-08-18T05:55:38.000Z</time>
      </trkpt>
      <trkpt lat="22.916056" lon="110.995402">
        <ele>137.850360</ele>
        <time>2026-08-18T05:55:39.000Z</time>
      </trkpt>
      <trkpt lat="22.916039" lon="110.995472">
        <ele>137.868027</ele>
        <time>2026-08-18T05:55:40.000Z</time>
      </trkpt>
      <trkpt lat="22.916017" lon="110.995535">
        <ele>137.884471</ele>
        <time>2026-08-18T05:55:41.000Z</time>
      </trkpt>
      <trkpt lat="22.916000" lon="110.995603">
        <ele>137.901667</ele>
        <time>2026-08-18T05:55:42.000Z</time>
      </trkpt>
      <trkpt lat="22.915984" lon="110.995666">
        <ele>137.917616</ele>
        <time>2026-08-18T05:55:43.000Z</time>
      </trkpt>
      <trkpt lat="22.915964" lon="110.995721">
        <ele>137.932047</ele>
        <time>2026-08-18T05:55:44.000Z</time>
      </trkpt>
      <trkpt lat="22.915944" lon="110.995785">
        <ele>137.948540</ele>
        <time>2026-08-18T05:55:45.000Z</time>
      </trkpt>
      <trkpt lat="22.915930" lon="110.995856">
        <ele>137.966261</ele>
        <time>2026-08-18T05:55:46.000Z</time>
      </trkpt>
      <trkpt lat="22.915910" lon="110.995919">
        <ele>137.982524</ele>
        <time>2026-08-18T05:55:47.000Z</time>
      </trkpt>
      <trkpt lat="22.915890" lon="110.995983">
        <ele>137.999017</ele>
        <time>2026-08-18T05:55:48.000Z</time>
      </trkpt>
      <trkpt lat="22.915870" lon="110.996047">
        <ele>138.015511</ele>
        <time>2026-08-18T05:55:49.000Z</time>
      </trkpt>
      <trkpt lat="22.915851" lon="110.996115">
        <ele>138.032854</ele>
        <time>2026-08-18T05:55:50.000Z</time>
      </trkpt>
      <trkpt lat="22.915832" lon="110.996181">
        <ele>138.049729</ele>
        <time>2026-08-18T05:55:51.000Z</time>
      </trkpt>
      <trkpt lat="22.915812" lon="110.996249">
        <ele>138.067151</ele>
        <time>2026-08-18T05:55:52.000Z</time>
      </trkpt>
      <trkpt lat="22.915786" lon="110.996315">
        <ele>138.084669</ele>
        <time>2026-08-18T05:55:53.000Z</time>
      </trkpt>
      <trkpt lat="22.915760" lon="110.996377">
        <ele>138.101295</ele>
        <time>2026-08-18T05:55:54.000Z</time>
      </trkpt>
      <trkpt lat="22.915737" lon="110.996440">
        <ele>138.117834</ele>
        <time>2026-08-18T05:55:55.000Z</time>
      </trkpt>
      <trkpt lat="22.915714" lon="110.996505">
        <ele>138.134828</ele>
        <time>2026-08-18T05:55:56.000Z</time>
      </trkpt>
      <trkpt lat="22.915693" lon="110.996572">
        <ele>138.152100</ele>
        <time>2026-08-18T05:55:57.000Z</time>
      </trkpt>
      <trkpt lat="22.915667" lon="110.996635">
        <ele>138.168948</ele>
        <time>2026-08-18T05:55:58.000Z</time>
      </trkpt>
      <trkpt lat="22.915646" lon="110.996704">
        <ele>138.186683</ele>
        <time>2026-08-18T05:55:59.000Z</time>
      </trkpt>
      <trkpt lat="22.915624" lon="110.996773">
        <ele>138.204503</ele>
        <time>2026-08-18T05:56:00.000Z</time>
      </trkpt>
      <trkpt lat="22.915602" lon="110.996841">
        <ele>138.222093</ele>
        <time>2026-08-18T05:56:01.000Z</time>
      </trkpt>
      <trkpt lat="22.915577" lon="110.996907">
        <ele>138.239509</ele>
        <time>2026-08-18T05:56:02.000Z</time>
      </trkpt>
      <trkpt lat="22.915559" lon="110.996982">
        <ele>138.258424</ele>
        <time>2026-08-18T05:56:03.000Z</time>
      </trkpt>
      <trkpt lat="22.915538" lon="110.997049">
        <ele>138.274434</ele>
        <time>2026-08-18T05:56:04.000Z</time>
      </trkpt>
      <trkpt lat="22.915515" lon="110.997114">
        <ele>138.278117</ele>
        <time>2026-08-18T05:56:05.000Z</time>
      </trkpt>
      <trkpt lat="22.915490" lon="110.997179">
        <ele>138.281843</ele>
        <time>2026-08-18T05:56:06.000Z</time>
      </trkpt>
      <trkpt lat="22.915467" lon="110.997244">
        <ele>138.285526</ele>
        <time>2026-08-18T05:56:07.000Z</time>
      </trkpt>
      <trkpt lat="22.915445" lon="110.997311">
        <ele>138.289289</ele>
        <time>2026-08-18T05:56:08.000Z</time>
      </trkpt>
      <trkpt lat="22.915418" lon="110.997378">
        <ele>138.293157</ele>
        <time>2026-08-18T05:56:09.000Z</time>
      </trkpt>
      <trkpt lat="22.915394" lon="110.997447">
        <ele>138.297058</ele>
        <time>2026-08-18T05:56:10.000Z</time>
      </trkpt>
      <trkpt lat="22.915370" lon="110.997515">
        <ele>138.300910</ele>
        <time>2026-08-18T05:56:11.000Z</time>
      </trkpt>
      <trkpt lat="22.915345" lon="110.997584">
        <ele>138.304832</ele>
        <time>2026-08-18T05:56:12.000Z</time>
      </trkpt>
      <trkpt lat="22.915323" lon="110.997654">
        <ele>138.308745</ele>
        <time>2026-08-18T05:56:13.000Z</time>
      </trkpt>
      <trkpt lat="22.915301" lon="110.997723">
        <ele>138.312607</ele>
        <time>2026-08-18T05:56:14.000Z</time>
      </trkpt>
      <trkpt lat="22.915279" lon="110.997792">
        <ele>138.316469</ele>
        <time>2026-08-18T05:56:15.000Z</time>
      </trkpt>
      <trkpt lat="22.915255" lon="110.997862">
        <ele>138.320420</ele>
        <time>2026-08-18T05:56:16.000Z</time>
      </trkpt>
      <trkpt lat="22.915230" lon="110.997930">
        <ele>138.324293</ele>
        <time>2026-08-18T05:56:17.000Z</time>
      </trkpt>
      <trkpt lat="22.915205" lon="110.997996">
        <ele>138.328068</ele>
        <time>2026-08-18T05:56:18.000Z</time>
      </trkpt>
      <trkpt lat="22.915178" lon="110.998063">
        <ele>138.331936</ele>
        <time>2026-08-18T05:56:19.000Z</time>
      </trkpt>
      <trkpt lat="22.915150" lon="110.998127">
        <ele>138.335684</ele>
        <time>2026-08-18T05:56:20.000Z</time>
      </trkpt>
      <trkpt lat="22.915121" lon="110.998192">
        <ele>138.339504</ele>
        <time>2026-08-18T05:56:21.000Z</time>
      </trkpt>
      <trkpt lat="22.915097" lon="110.998257">
        <ele>138.343208</ele>
        <time>2026-08-18T05:56:22.000Z</time>
      </trkpt>
      <trkpt lat="22.915073" lon="110.998321">
        <ele>138.346863</ele>
        <time>2026-08-18T05:56:23.000Z</time>
      </trkpt>
      <trkpt lat="22.915049" lon="110.998387">
        <ele>138.350617</ele>
        <time>2026-08-18T05:56:24.000Z</time>
      </trkpt>
      <trkpt lat="22.915028" lon="110.998453">
        <ele>138.354310</ele>
        <time>2026-08-18T05:56:25.000Z</time>
      </trkpt>
      <trkpt lat="22.915003" lon="110.998517">
        <ele>138.357987</ele>
        <time>2026-08-18T05:56:26.000Z</time>
      </trkpt>
      <trkpt lat="22.914984" lon="110.998579">
        <ele>138.361444</ele>
        <time>2026-08-18T05:56:27.000Z</time>
      </trkpt>
      <trkpt lat="22.914960" lon="110.998640">
        <ele>138.364952</ele>
        <time>2026-08-18T05:56:28.000Z</time>
      </trkpt>
      <trkpt lat="22.914935" lon="110.998698">
        <ele>138.368339</ele>
        <time>2026-08-18T05:56:29.000Z</time>
      </trkpt>
      <trkpt lat="22.914916" lon="110.998757">
        <ele>138.371646</ele>
        <time>2026-08-18T05:56:30.000Z</time>
      </trkpt>
      <trkpt lat="22.914900" lon="110.998823">
        <ele>138.375256</ele>
        <time>2026-08-18T05:56:31.000Z</time>
      </trkpt>
      <trkpt lat="22.914876" lon="110.998886">
        <ele>138.379402</ele>
        <time>2026-08-18T05:56:32.000Z</time>
      </trkpt>
      <trkpt lat="22.914853" lon="110.998948">
        <ele>138.384223</ele>
        <time>2026-08-18T05:56:33.000Z</time>
      </trkpt>
      <trkpt lat="22.914829" lon="110.999011">
        <ele>138.389140</ele>
        <time>2026-08-18T05:56:34.000Z</time>
      </trkpt>
      <trkpt lat="22.914805" lon="110.999071">
        <ele>138.393859</ele>
        <time>2026-08-18T05:56:35.000Z</time>
      </trkpt>
      <trkpt lat="22.914777" lon="110.999131">
        <ele>138.398710</ele>
        <time>2026-08-18T05:56:36.000Z</time>
      </trkpt>
      <trkpt lat="22.914752" lon="110.999193">
        <ele>138.403592</ele>
        <time>2026-08-18T05:56:37.000Z</time>
      </trkpt>
      <trkpt lat="22.914730" lon="110.999254">
        <ele>138.408317</ele>
        <time>2026-08-18T05:56:38.000Z</time>
      </trkpt>
      <trkpt lat="22.914706" lon="110.999316">
        <ele>138.413168</ele>
        <time>2026-08-18T05:56:39.000Z</time>
      </trkpt>
      <trkpt lat="22.914682" lon="110.999380">
        <ele>138.418152</ele>
        <time>2026-08-18T05:56:40.000Z</time>
      </trkpt>
      <trkpt lat="22.914660" lon="110.999443">
        <ele>138.423012</ele>
        <time>2026-08-18T05:56:41.000Z</time>
      </trkpt>
      <trkpt lat="22.914638" lon="110.999508">
        <ele>138.428006</ele>
        <time>2026-08-18T05:56:42.000Z</time>
      </trkpt>
      <trkpt lat="22.914618" lon="110.999572">
        <ele>138.432881</ele>
        <time>2026-08-18T05:56:43.000Z</time>
      </trkpt>
      <trkpt lat="22.914599" lon="110.999638">
        <ele>138.437869</ele>
        <time>2026-08-18T05:56:44.000Z</time>
      </trkpt>
      <trkpt lat="22.914577" lon="110.999698">
        <ele>138.442527</ele>
        <time>2026-08-18T05:56:45.000Z</time>
      </trkpt>
      <trkpt lat="22.914557" lon="110.999760">
        <ele>138.447265</ele>
        <time>2026-08-18T05:56:46.000Z</time>
      </trkpt>
      <trkpt lat="22.914537" lon="110.999819">
        <ele>138.451800</ele>
        <time>2026-08-18T05:56:47.000Z</time>
      </trkpt>
      <trkpt lat="22.914516" lon="110.999878">
        <ele>138.456362</ele>
        <time>2026-08-18T05:56:48.000Z</time>
      </trkpt>
      <trkpt lat="22.914494" lon="110.999938">
        <ele>138.461020</ele>
        <time>2026-08-18T05:56:49.000Z</time>
      </trkpt>
      <trkpt lat="22.914473" lon="110.999999">
        <ele>138.465717</ele>
        <time>2026-08-18T05:56:50.000Z</time>
      </trkpt>
      <trkpt lat="22.914453" lon="111.000062">
        <ele>138.470523</ele>
        <time>2026-08-18T05:56:51.000Z</time>
      </trkpt>
      <trkpt lat="22.914434" lon="111.000125">
        <ele>138.475305</ele>
        <time>2026-08-18T05:56:52.000Z</time>
      </trkpt>
      <trkpt lat="22.914413" lon="111.000186">
        <ele>138.480002</ele>
        <time>2026-08-18T05:56:53.000Z</time>
      </trkpt>
      <trkpt lat="22.914395" lon="111.000250">
        <ele>138.484829</ele>
        <time>2026-08-18T05:56:54.000Z</time>
      </trkpt>
      <trkpt lat="22.914376" lon="111.000310">
        <ele>138.489405</ele>
        <time>2026-08-18T05:56:55.000Z</time>
      </trkpt>
      <trkpt lat="22.914354" lon="111.000368">
        <ele>138.493929</ele>
        <time>2026-08-18T05:56:56.000Z</time>
      </trkpt>
      <trkpt lat="22.914332" lon="111.000426">
        <ele>138.498454</ele>
        <time>2026-08-18T05:56:57.000Z</time>
      </trkpt>
      <trkpt lat="22.914314" lon="111.000485">
        <ele>138.502937</ele>
        <time>2026-08-18T05:56:58.000Z</time>
      </trkpt>
      <trkpt lat="22.914294" lon="111.000543">
        <ele>138.507404</ele>
        <time>2026-08-18T05:56:59.000Z</time>
      </trkpt>
      <trkpt lat="22.914273" lon="111.000599">
        <ele>138.511765</ele>
        <time>2026-08-18T05:57:00.000Z</time>
      </trkpt>
      <trkpt lat="22.914251" lon="111.000654">
        <ele>138.516090</ele>
        <time>2026-08-18T05:57:01.000Z</time>
      </trkpt>
      <trkpt lat="22.914230" lon="111.000711">
        <ele>138.519810</ele>
        <time>2026-08-18T05:57:02.000Z</time>
      </trkpt>
      <trkpt lat="22.914211" lon="111.000766">
        <ele>138.522740</ele>
        <time>2026-08-18T05:57:03.000Z</time>
      </trkpt>
      <trkpt lat="22.914194" lon="111.000823">
        <ele>138.525728</ele>
        <time>2026-08-18T05:57:04.000Z</time>
      </trkpt>
      <trkpt lat="22.914178" lon="111.000881">
        <ele>138.528748</ele>
        <time>2026-08-18T05:57:05.000Z</time>
      </trkpt>
      <trkpt lat="22.914156" lon="111.000939">
        <ele>138.531876</ele>
        <time>2026-08-18T05:57:06.000Z</time>
      </trkpt>
      <trkpt lat="22.914135" lon="111.000996">
        <ele>138.534938</ele>
        <time>2026-08-18T05:57:07.000Z</time>
      </trkpt>
      <trkpt lat="22.914115" lon="111.001052">
        <ele>138.537933</ele>
        <time>2026-08-18T05:57:08.000Z</time>
      </trkpt>
      <trkpt lat="22.914094" lon="111.001108">
        <ele>138.540949</ele>
        <time>2026-08-18T05:57:09.000Z</time>
      </trkpt>
      <trkpt lat="22.914073" lon="111.001164">
        <ele>138.543964</ele>
        <time>2026-08-18T05:57:10.000Z</time>
      </trkpt>
      <trkpt lat="22.914050" lon="111.001219">
        <ele>138.546977</ele>
        <time>2026-08-18T05:57:11.000Z</time>
      </trkpt>
      <trkpt lat="22.914028" lon="111.001271">
        <ele>138.549830</ele>
        <time>2026-08-18T05:57:12.000Z</time>
      </trkpt>
      <trkpt lat="22.914001" lon="111.001320">
        <ele>138.552678</ele>
        <time>2026-08-18T05:57:13.000Z</time>
      </trkpt>
      <trkpt lat="22.913972" lon="111.001368">
        <ele>138.555541</ele>
        <time>2026-08-18T05:57:14.000Z</time>
      </trkpt>
      <trkpt lat="22.913946" lon="111.001415">
        <ele>138.558275</ele>
        <time>2026-08-18T05:57:15.000Z</time>
      </trkpt>
      <trkpt lat="22.913919" lon="111.001458">
        <ele>138.560871</ele>
        <time>2026-08-18T05:57:16.000Z</time>
      </trkpt>
      <trkpt lat="22.913883" lon="111.001502">
        <ele>138.563806</ele>
        <time>2026-08-18T05:57:17.000Z</time>
      </trkpt>
      <trkpt lat="22.913845" lon="111.001543">
        <ele>138.566707</ele>
        <time>2026-08-18T05:57:18.000Z</time>
      </trkpt>
      <trkpt lat="22.913805" lon="111.001580">
        <ele>138.569552</ele>
        <time>2026-08-18T05:57:19.000Z</time>
      </trkpt>
      <trkpt lat="22.913763" lon="111.001613">
        <ele>138.572359</ele>
        <time>2026-08-18T05:57:20.000Z</time>
      </trkpt>
      <trkpt lat="22.913717" lon="111.001640">
        <ele>138.575191</ele>
        <time>2026-08-18T05:57:21.000Z</time>
      </trkpt>
      <trkpt lat="22.913669" lon="111.001665">
        <ele>138.578073</ele>
        <time>2026-08-18T05:57:22.000Z</time>
      </trkpt>
      <trkpt lat="22.913621" lon="111.001692">
        <ele>138.581001</ele>
        <time>2026-08-18T05:57:23.000Z</time>
      </trkpt>
      <trkpt lat="22.913572" lon="111.001719">
        <ele>138.583976</ele>
        <time>2026-08-18T05:57:24.000Z</time>
      </trkpt>
      <trkpt lat="22.913525" lon="111.001749">
        <ele>138.586928</ele>
        <time>2026-08-18T05:57:25.000Z</time>
      </trkpt>
      <trkpt lat="22.913479" lon="111.001773">
        <ele>138.589691</ele>
        <time>2026-08-18T05:57:26.000Z</time>
      </trkpt>
      <trkpt lat="22.913430" lon="111.001798">
        <ele>138.592623</ele>
        <time>2026-08-18T05:57:27.000Z</time>
      </trkpt>
      <trkpt lat="22.913382" lon="111.001822">
        <ele>138.595484</ele>
        <time>2026-08-18T05:57:28.000Z</time>
      </trkpt>
      <trkpt lat="22.913333" lon="111.001851">
        <ele>138.598506</ele>
        <time>2026-08-18T05:57:29.000Z</time>
      </trkpt>
      <trkpt lat="22.913289" lon="111.001882">
        <ele>138.601346</ele>
        <time>2026-08-18T05:57:30.000Z</time>
      </trkpt>
      <trkpt lat="22.913246" lon="111.001908">
        <ele>138.604011</ele>
        <time>2026-08-18T05:57:31.000Z</time>
      </trkpt>
      <trkpt lat="22.913207" lon="111.001946">
        <ele>138.606849</ele>
        <time>2026-08-18T05:57:32.000Z</time>
      </trkpt>
      <trkpt lat="22.913164" lon="111.001976">
        <ele>138.609616</ele>
        <time>2026-08-18T05:57:33.000Z</time>
      </trkpt>
      <trkpt lat="22.913121" lon="111.002011">
        <ele>138.612526</ele>
        <time>2026-08-18T05:57:34.000Z</time>
      </trkpt>
      <trkpt lat="22.913075" lon="111.002034">
        <ele>138.615268</ele>
        <time>2026-08-18T05:57:35.000Z</time>
      </trkpt>
      <trkpt lat="22.913028" lon="111.002058">
        <ele>138.628062</ele>
        <time>2026-08-18T05:57:36.000Z</time>
      </trkpt>
      <trkpt lat="22.912983" lon="111.002087">
        <ele>138.642360</ele>
        <time>2026-08-18T05:57:37.000Z</time>
      </trkpt>
      <trkpt lat="22.912937" lon="111.002115">
        <ele>138.656769</ele>
        <time>2026-08-18T05:57:38.000Z</time>
      </trkpt>
      <trkpt lat="22.912892" lon="111.002142">
        <ele>138.670818</ele>
        <time>2026-08-18T05:57:39.000Z</time>
      </trkpt>
      <trkpt lat="22.912843" lon="111.002169">
        <ele>138.685832</ele>
        <time>2026-08-18T05:57:40.000Z</time>
      </trkpt>
      <trkpt lat="22.912792" lon="111.002190">
        <ele>138.700735</ele>
        <time>2026-08-18T05:57:41.000Z</time>
      </trkpt>
      <trkpt lat="22.912746" lon="111.002219">
        <ele>138.715269</ele>
        <time>2026-08-18T05:57:42.000Z</time>
      </trkpt>
      <trkpt lat="22.912698" lon="111.002247">
        <ele>138.730157</ele>
        <time>2026-08-18T05:57:43.000Z</time>
      </trkpt>
      <trkpt lat="22.912656" lon="111.002280">
        <ele>138.744323</ele>
        <time>2026-08-18T05:57:44.000Z</time>
      </trkpt>
      <trkpt lat="22.912608" lon="111.002306">
        <ele>138.758980</ele>
        <time>2026-08-18T05:57:45.000Z</time>
      </trkpt>
      <trkpt lat="22.912558" lon="111.002327">
        <ele>138.773628</ele>
        <time>2026-08-18T05:57:46.000Z</time>
      </trkpt>
      <trkpt lat="22.912509" lon="111.002352">
        <ele>138.788421</ele>
        <time>2026-08-18T05:57:47.000Z</time>
      </trkpt>
      <trkpt lat="22.912463" lon="111.002375">
        <ele>138.802259</ele>
        <time>2026-08-18T05:57:48.000Z</time>
      </trkpt>
      <trkpt lat="22.912415" lon="111.002396">
        <ele>138.816398</ele>
        <time>2026-08-18T05:57:49.000Z</time>
      </trkpt>
      <trkpt lat="22.912367" lon="111.002417">
        <ele>138.830538</ele>
        <time>2026-08-18T05:57:50.000Z</time>
      </trkpt>
      <trkpt lat="22.912318" lon="111.002440">
        <ele>138.845124</ele>
        <time>2026-08-18T05:57:51.000Z</time>
      </trkpt>
      <trkpt lat="22.912272" lon="111.002468">
        <ele>138.859534</ele>
        <time>2026-08-18T05:57:52.000Z</time>
      </trkpt>
      <trkpt lat="22.912230" lon="111.002503">
        <ele>138.874000</ele>
        <time>2026-08-18T05:57:53.000Z</time>
      </trkpt>
      <trkpt lat="22.912183" lon="111.002530">
        <ele>138.888529</ele>
        <time>2026-08-18T05:57:54.000Z</time>
      </trkpt>
      <trkpt lat="22.912140" lon="111.002559">
        <ele>138.902361</ele>
        <time>2026-08-18T05:57:55.000Z</time>
      </trkpt>
      <trkpt lat="22.912095" lon="111.002587">
        <ele>138.916532</ele>
        <time>2026-08-18T05:57:56.000Z</time>
      </trkpt>
      <trkpt lat="22.912052" lon="111.002614">
        <ele>138.930105</ele>
        <time>2026-08-18T05:57:57.000Z</time>
      </trkpt>
      <trkpt lat="22.912008" lon="111.002642">
        <ele>138.944040</ele>
        <time>2026-08-18T05:57:58.000Z</time>
      </trkpt>
      <trkpt lat="22.911964" lon="111.002669">
        <ele>138.957849</ele>
        <time>2026-08-18T05:57:59.000Z</time>
      </trkpt>
      <trkpt lat="22.911920" lon="111.002700">
        <ele>138.972181</ele>
        <time>2026-08-18T05:58:00.000Z</time>
      </trkpt>
      <trkpt lat="22.911879" lon="111.002736">
        <ele>138.986589</ele>
        <time>2026-08-18T05:58:01.000Z</time>
      </trkpt>
      <trkpt lat="22.911838" lon="111.002773">
        <ele>139.001156</ele>
        <time>2026-08-18T05:58:02.000Z</time>
      </trkpt>
      <trkpt lat="22.911798" lon="111.002810">
        <ele>139.015515</ele>
        <time>2026-08-18T05:58:03.000Z</time>
      </trkpt>
      <trkpt lat="22.911759" lon="111.002848">
        <ele>139.029833</ele>
        <time>2026-08-18T05:58:04.000Z</time>
      </trkpt>
      <trkpt lat="22.911721" lon="111.002888">
        <ele>139.044295</ele>
        <time>2026-08-18T05:58:05.000Z</time>
      </trkpt>
      <trkpt lat="22.911681" lon="111.002928">
        <ele>139.059154</ele>
        <time>2026-08-18T05:58:06.000Z</time>
      </trkpt>
      <trkpt lat="22.911642" lon="111.002969">
        <ele>139.073987</ele>
        <time>2026-08-18T05:58:07.000Z</time>
      </trkpt>
      <trkpt lat="22.911602" lon="111.003007">
        <ele>139.088510</ele>
        <time>2026-08-18T05:58:08.000Z</time>
      </trkpt>
      <trkpt lat="22.911565" lon="111.003051">
        <ele>139.103504</ele>
        <time>2026-08-18T05:58:09.000Z</time>
      </trkpt>
      <trkpt lat="22.911528" lon="111.003094">
        <ele>139.108172</ele>
        <time>2026-08-18T05:58:10.000Z</time>
      </trkpt>
      <trkpt lat="22.911489" lon="111.003136">
        <ele>139.109657</ele>
        <time>2026-08-18T05:58:11.000Z</time>
      </trkpt>
      <trkpt lat="22.911452" lon="111.003180">
        <ele>139.111140</ele>
        <time>2026-08-18T05:58:12.000Z</time>
      </trkpt>
      <trkpt lat="22.911414" lon="111.003222">
        <ele>139.112606</ele>
        <time>2026-08-18T05:58:13.000Z</time>
      </trkpt>
      <trkpt lat="22.911377" lon="111.003263">
        <ele>139.114036</ele>
        <time>2026-08-18T05:58:14.000Z</time>
      </trkpt>
      <trkpt lat="22.911339" lon="111.003302">
        <ele>139.115449</ele>
        <time>2026-08-18T05:58:15.000Z</time>
      </trkpt>
      <trkpt lat="22.911302" lon="111.003339">
        <ele>139.116809</ele>
        <time>2026-08-18T05:58:16.000Z</time>
      </trkpt>
      <trkpt lat="22.911264" lon="111.003378">
        <ele>139.118223</ele>
        <time>2026-08-18T05:58:17.000Z</time>
      </trkpt>
      <trkpt lat="22.911229" lon="111.003421">
        <ele>139.119652</ele>
        <time>2026-08-18T05:58:18.000Z</time>
      </trkpt>
      <trkpt lat="22.911194" lon="111.003465">
        <ele>139.121100</ele>
        <time>2026-08-18T05:58:19.000Z</time>
      </trkpt>
      <trkpt lat="22.911158" lon="111.003508">
        <ele>139.122547</ele>
        <time>2026-08-18T05:58:20.000Z</time>
      </trkpt>
      <trkpt lat="22.911120" lon="111.003549">
        <ele>139.123995</ele>
        <time>2026-08-18T05:58:21.000Z</time>
      </trkpt>
      <trkpt lat="22.911081" lon="111.003591">
        <ele>139.125480</ele>
        <time>2026-08-18T05:58:22.000Z</time>
      </trkpt>
      <trkpt lat="22.911043" lon="111.003632">
        <ele>139.126928</ele>
        <time>2026-08-18T05:58:23.000Z</time>
      </trkpt>
      <trkpt lat="22.911008" lon="111.003674">
        <ele>139.128339</ele>
        <time>2026-08-18T05:58:24.000Z</time>
      </trkpt>
      <trkpt lat="22.910970" lon="111.003714">
        <ele>139.129770</ele>
        <time>2026-08-18T05:58:25.000Z</time>
      </trkpt>
      <trkpt lat="22.910932" lon="111.003755">
        <ele>139.131218</ele>
        <time>2026-08-18T05:58:26.000Z</time>
      </trkpt>
      <trkpt lat="22.910890" lon="111.003794">
        <ele>139.132712</ele>
        <time>2026-08-18T05:58:27.000Z</time>
      </trkpt>
      <trkpt lat="22.910849" lon="111.003835">
        <ele>139.134219</ele>
        <time>2026-08-18T05:58:28.000Z</time>
      </trkpt>
      <trkpt lat="22.910811" lon="111.003875">
        <ele>139.135650</ele>
        <time>2026-08-18T05:58:29.000Z</time>
      </trkpt>
      <trkpt lat="22.910774" lon="111.003915">
        <ele>139.137062</ele>
        <time>2026-08-18T05:58:30.000Z</time>
      </trkpt>
      <trkpt lat="22.910736" lon="111.003959">
        <ele>139.138564</ele>
        <time>2026-08-18T05:58:31.000Z</time>
      </trkpt>
      <trkpt lat="22.910699" lon="111.004007">
        <ele>139.140122</ele>
        <time>2026-08-18T05:58:32.000Z</time>
      </trkpt>
      <trkpt lat="22.910659" lon="111.004047">
        <ele>139.141593</ele>
        <time>2026-08-18T05:58:33.000Z</time>
      </trkpt>
      <trkpt lat="22.910623" lon="111.004092">
        <ele>139.143077</ele>
        <time>2026-08-18T05:58:34.000Z</time>
      </trkpt>
      <trkpt lat="22.910583" lon="111.004134">
        <ele>139.144581</ele>
        <time>2026-08-18T05:58:35.000Z</time>
      </trkpt>
      <trkpt lat="22.910545" lon="111.004175">
        <ele>139.146029</ele>
        <time>2026-08-18T05:58:36.000Z</time>
      </trkpt>
      <trkpt lat="22.910512" lon="111.004226">
        <ele>139.147582</ele>
        <time>2026-08-18T05:58:37.000Z</time>
      </trkpt>
      <trkpt lat="22.910474" lon="111.004270">
        <ele>139.149083</ele>
        <time>2026-08-18T05:58:38.000Z</time>
      </trkpt>
      <trkpt lat="22.910438" lon="111.004319">
        <ele>139.150644</ele>
        <time>2026-08-18T05:58:39.000Z</time>
      </trkpt>
      <trkpt lat="22.910402" lon="111.004365">
        <ele>139.152147</ele>
        <time>2026-08-18T05:58:40.000Z</time>
      </trkpt>
      <trkpt lat="22.910365" lon="111.004415">
        <ele>139.153744</ele>
        <time>2026-08-18T05:58:41.000Z</time>
      </trkpt>
      <trkpt lat="22.910330" lon="111.004461">
        <ele>139.155230</ele>
        <time>2026-08-18T05:58:42.000Z</time>
      </trkpt>
      <trkpt lat="22.910290" lon="111.004505">
        <ele>139.184978</ele>
        <time>2026-08-18T05:58:43.000Z</time>
      </trkpt>
      <trkpt lat="22.910248" lon="111.004545">
        <ele>139.225708</ele>
        <time>2026-08-18T05:58:44.000Z</time>
      </trkpt>
      <trkpt lat="22.910202" lon="111.004579">
        <ele>139.266278</ele>
        <time>2026-08-18T05:58:45.000Z</time>
      </trkpt>
      <trkpt lat="22.910156" lon="111.004615">
        <ele>139.307618</ele>
        <time>2026-08-18T05:58:46.000Z</time>
      </trkpt>
      <trkpt lat="22.910115" lon="111.004656">
        <ele>139.348256</ele>
        <time>2026-08-18T05:58:47.000Z</time>
      </trkpt>
      <trkpt lat="22.910076" lon="111.004701">
        <ele>139.389747</ele>
        <time>2026-08-18T05:58:48.000Z</time>
      </trkpt>
      <trkpt lat="22.910034" lon="111.004743">
        <ele>139.431375</ele>
        <time>2026-08-18T05:58:49.000Z</time>
      </trkpt>
      <trkpt lat="22.909995" lon="111.004787">
        <ele>139.472380</ele>
        <time>2026-08-18T05:58:50.000Z</time>
      </trkpt>
      <trkpt lat="22.909957" lon="111.004832">
        <ele>139.513375</ele>
        <time>2026-08-18T05:58:51.000Z</time>
      </trkpt>
      <trkpt lat="22.909923" lon="111.004882">
        <ele>139.555109</ele>
        <time>2026-08-18T05:58:52.000Z</time>
      </trkpt>
      <trkpt lat="22.909887" lon="111.004930">
        <ele>139.596675</ele>
        <time>2026-08-18T05:58:53.000Z</time>
      </trkpt>
      <trkpt lat="22.909847" lon="111.004974">
        <ele>139.638188</ele>
        <time>2026-08-18T05:58:54.000Z</time>
      </trkpt>
      <trkpt lat="22.909808" lon="111.005020">
        <ele>139.680171</ele>
        <time>2026-08-18T05:58:55.000Z</time>
      </trkpt>
      <trkpt lat="22.909775" lon="111.005073">
        <ele>139.723130</ele>
        <time>2026-08-18T05:58:56.000Z</time>
      </trkpt>
      <trkpt lat="22.909739" lon="111.005118">
        <ele>139.763154</ele>
        <time>2026-08-18T05:58:57.000Z</time>
      </trkpt>
      <trkpt lat="22.909701" lon="111.005161">
        <ele>139.803169</ele>
        <time>2026-08-18T05:58:58.000Z</time>
      </trkpt>
      <trkpt lat="22.909663" lon="111.005203">
        <ele>139.842702</ele>
        <time>2026-08-18T05:58:59.000Z</time>
      </trkpt>
      <trkpt lat="22.909628" lon="111.005245">
        <ele>139.880735</ele>
        <time>2026-08-18T05:59:00.000Z</time>
      </trkpt>
      <trkpt lat="22.909588" lon="111.005285">
        <ele>139.920382</ele>
        <time>2026-08-18T05:59:01.000Z</time>
      </trkpt>
      <trkpt lat="22.909553" lon="111.005331">
        <ele>139.960447</ele>
        <time>2026-08-18T05:59:02.000Z</time>
      </trkpt>
      <trkpt lat="22.909521" lon="111.005377">
        <ele>139.999157</ele>
        <time>2026-08-18T05:59:03.000Z</time>
      </trkpt>
      <trkpt lat="22.909486" lon="111.005421">
        <ele>140.038196</ele>
        <time>2026-08-18T05:59:04.000Z</time>
      </trkpt>
      <trkpt lat="22.909456" lon="111.005469">
        <ele>140.077148</ele>
        <time>2026-08-18T05:59:05.000Z</time>
      </trkpt>
      <trkpt lat="22.909428" lon="111.005517">
        <ele>140.115301</ele>
        <time>2026-08-18T05:59:06.000Z</time>
      </trkpt>
      <trkpt lat="22.909403" lon="111.005569">
        <ele>140.154690</ele>
        <time>2026-08-18T05:59:07.000Z</time>
      </trkpt>
      <trkpt lat="22.909377" lon="111.005618">
        <ele>140.192663</ele>
        <time>2026-08-18T05:59:08.000Z</time>
      </trkpt>
      <trkpt lat="22.909353" lon="111.005667">
        <ele>140.229930</ele>
        <time>2026-08-18T05:59:09.000Z</time>
      </trkpt>
      <trkpt lat="22.909327" lon="111.005712">
        <ele>140.265601</ele>
        <time>2026-08-18T05:59:10.000Z</time>
      </trkpt>
      <trkpt lat="22.909302" lon="111.005760">
        <ele>140.302630</ele>
        <time>2026-08-18T05:59:11.000Z</time>
      </trkpt>
      <trkpt lat="22.909281" lon="111.005810">
        <ele>140.339532</ele>
        <time>2026-08-18T05:59:12.000Z</time>
      </trkpt>
      <trkpt lat="22.909260" lon="111.005858">
        <ele>140.375215</ele>
        <time>2026-08-18T05:59:13.000Z</time>
      </trkpt>
      <trkpt lat="22.909239" lon="111.005908">
        <ele>140.412117</ele>
        <time>2026-08-18T05:59:14.000Z</time>
      </trkpt>
      <trkpt lat="22.909218" lon="111.005957">
        <ele>140.448408</ele>
        <time>2026-08-18T05:59:15.000Z</time>
      </trkpt>
      <trkpt lat="22.909199" lon="111.006006">
        <ele>140.483498</ele>
        <time>2026-08-18T05:59:16.000Z</time>
      </trkpt>
      <trkpt lat="22.909180" lon="111.006056">
        <ele>140.518525</ele>
        <time>2026-08-18T05:59:17.000Z</time>
      </trkpt>
      <trkpt lat="22.909159" lon="111.006105">
        <ele>140.553525</ele>
        <time>2026-08-18T05:59:18.000Z</time>
      </trkpt>
      <trkpt lat="22.909141" lon="111.006155">
        <ele>140.588290</ele>
        <time>2026-08-18T05:59:19.000Z</time>
      </trkpt>
      <trkpt lat="22.909120" lon="111.006202">
        <ele>140.622119</ele>
        <time>2026-08-18T05:59:20.000Z</time>
      </trkpt>
      <trkpt lat="22.909106" lon="111.006256">
        <ele>140.658449</ele>
        <time>2026-08-18T05:59:21.000Z</time>
      </trkpt>
      <trkpt lat="22.909091" lon="111.006306">
        <ele>140.692503</ele>
        <time>2026-08-18T05:59:22.000Z</time>
      </trkpt>
      <trkpt lat="22.909080" lon="111.006362">
        <ele>140.729585</ele>
        <time>2026-08-18T05:59:23.000Z</time>
      </trkpt>
      <trkpt lat="22.909063" lon="111.006410">
        <ele>140.762888</ele>
        <time>2026-08-18T05:59:24.000Z</time>
      </trkpt>
      <trkpt lat="22.909044" lon="111.006455">
        <ele>140.794946</ele>
        <time>2026-08-18T05:59:25.000Z</time>
      </trkpt>
      <trkpt lat="22.909023" lon="111.006498">
        <ele>140.826465</ele>
        <time>2026-08-18T05:59:26.000Z</time>
      </trkpt>
      <trkpt lat="22.909002" lon="111.006542">
        <ele>140.858558</ele>
        <time>2026-08-18T05:59:27.000Z</time>
      </trkpt>
      <trkpt lat="22.908983" lon="111.006590">
        <ele>140.892392</ele>
        <time>2026-08-18T05:59:28.000Z</time>
      </trkpt>
      <trkpt lat="22.908964" lon="111.006637">
        <ele>140.925632</ele>
        <time>2026-08-18T05:59:29.000Z</time>
      </trkpt>
      <trkpt lat="22.908945" lon="111.006683">
        <ele>140.958279</ele>
        <time>2026-08-18T05:59:30.000Z</time>
      </trkpt>
      <trkpt lat="22.908926" lon="111.006729">
        <ele>140.990927</ele>
        <time>2026-08-18T05:59:31.000Z</time>
      </trkpt>
      <trkpt lat="22.908907" lon="111.006770">
        <ele>141.020650</ele>
        <time>2026-08-18T05:59:32.000Z</time>
      </trkpt>
      <trkpt lat="22.908890" lon="111.006812">
        <ele>141.050360</ele>
        <time>2026-08-18T05:59:33.000Z</time>
      </trkpt>
      <trkpt lat="22.908877" lon="111.006856">
        <ele>141.080284</ele>
        <time>2026-08-18T05:59:34.000Z</time>
      </trkpt>
      <trkpt lat="22.908861" lon="111.006892">
        <ele>141.106170</ele>
        <time>2026-08-18T05:59:35.000Z</time>
      </trkpt>
      <trkpt lat="22.908851" lon="111.006929">
        <ele>141.131142</ele>
        <time>2026-08-18T05:59:36.000Z</time>
      </trkpt>
      <trkpt lat="22.908843" lon="111.006953">
        <ele>141.147671</ele>
        <time>2026-08-18T05:59:37.000Z</time>
      </trkpt>
      <trkpt lat="22.908850" lon="111.006970">
        <ele>141.159730</ele>
        <time>2026-08-18T05:59:38.000Z</time>
      </trkpt>
      <trkpt lat="22.908860" lon="111.006983">
        <ele>141.170698</ele>
        <time>2026-08-18T05:59:39.000Z</time>
      </trkpt>
      <trkpt lat="22.908868" lon="111.006996">
        <ele>141.180823</ele>
        <time>2026-08-18T05:59:40.000Z</time>
      </trkpt>
      <trkpt lat="22.908864" lon="111.007002">
        <ele>141.185620</ele>
        <time>2026-08-18T05:59:41.000Z</time>
      </trkpt>
      <trkpt lat="22.908872" lon="111.007021">
        <ele>141.199149</ele>
        <time>2026-08-18T05:59:42.000Z</time>
      </trkpt>
      <trkpt lat="22.908864" lon="111.007036">
        <ele>141.210374</ele>
        <time>2026-08-18T05:59:43.000Z</time>
      </trkpt>
      <trkpt lat="22.908852" lon="111.007042">
        <ele>141.219662</ele>
        <time>2026-08-18T05:59:44.000Z</time>
      </trkpt>
      <trkpt lat="22.908843" lon="111.007040">
        <ele>141.226121</ele>
        <time>2026-08-18T05:59:45.000Z</time>
      </trkpt>
      <trkpt lat="22.908839" lon="111.007035">
        <ele>141.230410</ele>
        <time>2026-08-18T05:59:46.000Z</time>
      </trkpt>
      <trkpt lat="22.908839" lon="111.007031">
        <ele>141.233000</ele>
        <time>2026-08-18T05:59:47.000Z</time>
      </trkpt>
      <trkpt lat="22.908844" lon="111.007032">
        <ele>141.236575</ele>
        <time>2026-08-18T05:59:48.000Z</time>
      </trkpt>
      <trkpt lat="22.908776" lon="111.006996">
        <ele>141.289765</ele>
        <time>2026-08-18T06:18:30.000Z</time>
      </trkpt>
      <trkpt lat="22.908774" lon="111.006981">
        <ele>141.299580</ele>
        <time>2026-08-18T06:18:31.000Z</time>
      </trkpt>
      <trkpt lat="22.908779" lon="111.006963">
        <ele>141.311756</ele>
        <time>2026-08-18T06:18:32.000Z</time>
      </trkpt>
      <trkpt lat="22.908783" lon="111.006946">
        <ele>141.323118</ele>
        <time>2026-08-18T06:18:33.000Z</time>
      </trkpt>
      <trkpt lat="22.908779" lon="111.006930">
        <ele>141.333855</ele>
        <time>2026-08-18T06:18:34.000Z</time>
      </trkpt>
      <trkpt lat="22.908765" lon="111.006921">
        <ele>141.345294</ele>
        <time>2026-08-18T06:18:35.000Z</time>
      </trkpt>
      <trkpt lat="22.908752" lon="111.006925">
        <ele>141.354794</ele>
        <time>2026-08-18T06:18:36.000Z</time>
      </trkpt>
      <trkpt lat="22.908735" lon="111.006938">
        <ele>141.369413</ele>
        <time>2026-08-18T06:18:37.000Z</time>
      </trkpt>
      <trkpt lat="22.908725" lon="111.006960">
        <ele>141.385301</ele>
        <time>2026-08-18T06:18:38.000Z</time>
      </trkpt>
      <trkpt lat="22.908713" lon="111.006984">
        <ele>141.402986</ele>
        <time>2026-08-18T06:18:39.000Z</time>
      </trkpt>
      <trkpt lat="22.908703" lon="111.007014">
        <ele>141.423647</ele>
        <time>2026-08-18T06:18:40.000Z</time>
      </trkpt>
      <trkpt lat="22.908696" lon="111.007045">
        <ele>141.444317</ele>
        <time>2026-08-18T06:18:41.000Z</time>
      </trkpt>
      <trkpt lat="22.908688" lon="111.007078">
        <ele>141.466416</ele>
        <time>2026-08-18T06:18:42.000Z</time>
      </trkpt>
      <trkpt lat="22.908678" lon="111.007109">
        <ele>141.487687</ele>
        <time>2026-08-18T06:18:43.000Z</time>
      </trkpt>
      <trkpt lat="22.908668" lon="111.007141">
        <ele>141.509571</ele>
        <time>2026-08-18T06:18:44.000Z</time>
      </trkpt>
      <trkpt lat="22.908660" lon="111.007174">
        <ele>141.531670</ele>
        <time>2026-08-18T06:18:45.000Z</time>
      </trkpt>
      <trkpt lat="22.908655" lon="111.007210">
        <ele>141.555247</ele>
        <time>2026-08-18T06:18:46.000Z</time>
      </trkpt>
      <trkpt lat="22.908644" lon="111.007242">
        <ele>141.577367</ele>
        <time>2026-08-18T06:18:47.000Z</time>
      </trkpt>
      <trkpt lat="22.908632" lon="111.007275">
        <ele>141.600343</ele>
        <time>2026-08-18T06:18:48.000Z</time>
      </trkpt>
      <trkpt lat="22.908619" lon="111.007309">
        <ele>141.624183</ele>
        <time>2026-08-18T06:18:49.000Z</time>
      </trkpt>
      <trkpt lat="22.908607" lon="111.007344">
        <ele>141.648369</ele>
        <time>2026-08-18T06:18:50.000Z</time>
      </trkpt>
      <trkpt lat="22.908597" lon="111.007380">
        <ele>141.672720</ele>
        <time>2026-08-18T06:18:51.000Z</time>
      </trkpt>
      <trkpt lat="22.908589" lon="111.007417">
        <ele>141.697332</ele>
        <time>2026-08-18T06:18:52.000Z</time>
      </trkpt>
      <trkpt lat="22.908581" lon="111.007453">
        <ele>141.721315</ele>
        <time>2026-08-18T06:18:53.000Z</time>
      </trkpt>
      <trkpt lat="22.908572" lon="111.007489">
        <ele>141.744170</ele>
        <time>2026-08-18T06:18:54.000Z</time>
      </trkpt>
      <trkpt lat="22.908561" lon="111.007524">
        <ele>141.765889</ele>
        <time>2026-08-18T06:18:55.000Z</time>
      </trkpt>
      <trkpt lat="22.908549" lon="111.007560">
        <ele>141.788374</ele>
        <time>2026-08-18T06:18:56.000Z</time>
      </trkpt>
      <trkpt lat="22.908538" lon="111.007599">
        <ele>141.812328</ele>
        <time>2026-08-18T06:18:57.000Z</time>
      </trkpt>
      <trkpt lat="22.908528" lon="111.007636">
        <ele>141.834974</ele>
        <time>2026-08-18T06:18:58.000Z</time>
      </trkpt>
      <trkpt lat="22.908518" lon="111.007675">
        <ele>141.858750</ele>
        <time>2026-08-18T06:18:59.000Z</time>
      </trkpt>
      <trkpt lat="22.908508" lon="111.007713">
        <ele>141.881960</ele>
        <time>2026-08-18T06:19:00.000Z</time>
      </trkpt>
      <trkpt lat="22.908494" lon="111.007748">
        <ele>141.904370</ele>
        <time>2026-08-18T06:19:01.000Z</time>
      </trkpt>
      <trkpt lat="22.908479" lon="111.007784">
        <ele>141.927575</ele>
        <time>2026-08-18T06:19:02.000Z</time>
      </trkpt>
      <trkpt lat="22.908464" lon="111.007821">
        <ele>141.951316</ele>
        <time>2026-08-18T06:19:03.000Z</time>
      </trkpt>
      <trkpt lat="22.908446" lon="111.007855">
        <ele>141.974347</ele>
        <time>2026-08-18T06:19:04.000Z</time>
      </trkpt>
      <trkpt lat="22.908430" lon="111.007891">
        <ele>141.997823</ele>
        <time>2026-08-18T06:19:05.000Z</time>
      </trkpt>
      <trkpt lat="22.908417" lon="111.007929">
        <ele>142.021629</ele>
        <time>2026-08-18T06:19:06.000Z</time>
      </trkpt>
      <trkpt lat="22.908407" lon="111.007969">
        <ele>142.045971</ele>
        <time>2026-08-18T06:19:07.000Z</time>
      </trkpt>
      <trkpt lat="22.908396" lon="111.008007">
        <ele>142.069365</ele>
        <time>2026-08-18T06:19:08.000Z</time>
      </trkpt>
      <trkpt lat="22.908383" lon="111.008046">
        <ele>142.093723</ele>
        <time>2026-08-18T06:19:09.000Z</time>
      </trkpt>
      <trkpt lat="22.908371" lon="111.008085">
        <ele>142.117871</ele>
        <time>2026-08-18T06:19:10.000Z</time>
      </trkpt>
      <trkpt lat="22.908358" lon="111.008124">
        <ele>142.142230</ele>
        <time>2026-08-18T06:19:11.000Z</time>
      </trkpt>
      <trkpt lat="22.908343" lon="111.008162">
        <ele>142.166510</ele>
        <time>2026-08-18T06:19:12.000Z</time>
      </trkpt>
      <trkpt lat="22.908328" lon="111.008200">
        <ele>142.190790</ele>
        <time>2026-08-18T06:19:13.000Z</time>
      </trkpt>
      <trkpt lat="22.908313" lon="111.008238">
        <ele>142.215070</ele>
        <time>2026-08-18T06:19:14.000Z</time>
      </trkpt>
      <trkpt lat="22.908300" lon="111.008276">
        <ele>142.238877</ele>
        <time>2026-08-18T06:19:15.000Z</time>
      </trkpt>
      <trkpt lat="22.908287" lon="111.008314">
        <ele>142.262684</ele>
        <time>2026-08-18T06:19:16.000Z</time>
      </trkpt>
      <trkpt lat="22.908271" lon="111.008350">
        <ele>142.286159</ele>
        <time>2026-08-18T06:19:17.000Z</time>
      </trkpt>
      <trkpt lat="22.908258" lon="111.008389">
        <ele>142.310517</ele>
        <time>2026-08-18T06:19:18.000Z</time>
      </trkpt>
      <trkpt lat="22.908245" lon="111.008429">
        <ele>142.335429</ele>
        <time>2026-08-18T06:19:19.000Z</time>
      </trkpt>
      <trkpt lat="22.908227" lon="111.008468">
        <ele>142.361048</ele>
        <time>2026-08-18T06:19:20.000Z</time>
      </trkpt>
      <trkpt lat="22.908212" lon="111.008508">
        <ele>142.386412</ele>
        <time>2026-08-18T06:19:21.000Z</time>
      </trkpt>
      <trkpt lat="22.908198" lon="111.008547">
        <ele>142.410994</ele>
        <time>2026-08-18T06:19:22.000Z</time>
      </trkpt>
      <trkpt lat="22.908185" lon="111.008587">
        <ele>142.435905</ele>
        <time>2026-08-18T06:19:23.000Z</time>
      </trkpt>
      <trkpt lat="22.908174" lon="111.008628">
        <ele>142.460985</ele>
        <time>2026-08-18T06:19:24.000Z</time>
      </trkpt>
      <trkpt lat="22.908160" lon="111.008666">
        <ele>142.485022</ele>
        <time>2026-08-18T06:19:25.000Z</time>
      </trkpt>
      <trkpt lat="22.908146" lon="111.008706">
        <ele>142.510152</ele>
        <time>2026-08-18T06:19:26.000Z</time>
      </trkpt>
      <trkpt lat="22.908130" lon="111.008747">
        <ele>142.536303</ele>
        <time>2026-08-18T06:19:27.000Z</time>
      </trkpt>
      <trkpt lat="22.908114" lon="111.008788">
        <ele>142.562454</ele>
        <time>2026-08-18T06:19:28.000Z</time>
      </trkpt>
      <trkpt lat="22.908103" lon="111.008830">
        <ele>142.588099</ele>
        <time>2026-08-18T06:19:29.000Z</time>
      </trkpt>
      <trkpt lat="22.908089" lon="111.008871">
        <ele>142.613779</ele>
        <time>2026-08-18T06:19:30.000Z</time>
      </trkpt>
      <trkpt lat="22.908076" lon="111.008913">
        <ele>142.639801</ele>
        <time>2026-08-18T06:19:31.000Z</time>
      </trkpt>
      <trkpt lat="22.908063" lon="111.008954">
        <ele>142.665267</ele>
        <time>2026-08-18T06:19:32.000Z</time>
      </trkpt>
      <trkpt lat="22.908052" lon="111.008998">
        <ele>142.692043</ele>
        <time>2026-08-18T06:19:33.000Z</time>
      </trkpt>
      <trkpt lat="22.908044" lon="111.009042">
        <ele>142.718383</ele>
        <time>2026-08-18T06:19:34.000Z</time>
      </trkpt>
      <trkpt lat="22.908033" lon="111.009085">
        <ele>142.744592</ele>
        <time>2026-08-18T06:19:35.000Z</time>
      </trkpt>
      <trkpt lat="22.908018" lon="111.009125">
        <ele>142.769956</ele>
        <time>2026-08-18T06:19:36.000Z</time>
      </trkpt>
      <trkpt lat="22.908005" lon="111.009166">
        <ele>142.795422</ele>
        <time>2026-08-18T06:19:37.000Z</time>
      </trkpt>
      <trkpt lat="22.907991" lon="111.009207">
        <ele>142.821103</ele>
        <time>2026-08-18T06:19:38.000Z</time>
      </trkpt>
      <trkpt lat="22.907978" lon="111.009247">
        <ele>142.846014</ele>
        <time>2026-08-18T06:19:39.000Z</time>
      </trkpt>
      <trkpt lat="22.907963" lon="111.009287">
        <ele>142.871378</ele>
        <time>2026-08-18T06:19:40.000Z</time>
      </trkpt>
      <trkpt lat="22.907951" lon="111.009327">
        <ele>142.895033</ele>
        <time>2026-08-18T06:19:41.000Z</time>
      </trkpt>
      <trkpt lat="22.907938" lon="111.009367">
        <ele>142.918474</ele>
        <time>2026-08-18T06:19:42.000Z</time>
      </trkpt>
      <trkpt lat="22.907921" lon="111.009405">
        <ele>142.941820</ele>
        <time>2026-08-18T06:19:43.000Z</time>
      </trkpt>
      <trkpt lat="22.907906" lon="111.009445">
        <ele>142.965686</ele>
        <time>2026-08-18T06:19:44.000Z</time>
      </trkpt>
      <trkpt lat="22.907887" lon="111.009482">
        <ele>142.989096</ele>
        <time>2026-08-18T06:19:45.000Z</time>
      </trkpt>
      <trkpt lat="22.907869" lon="111.009518">
        <ele>143.011733</ele>
        <time>2026-08-18T06:19:46.000Z</time>
      </trkpt>
      <trkpt lat="22.907854" lon="111.009556">
        <ele>143.034579</ele>
        <time>2026-08-18T06:19:47.000Z</time>
      </trkpt>
      <trkpt lat="22.907833" lon="111.009590">
        <ele>143.057202</ele>
        <time>2026-08-18T06:19:48.000Z</time>
      </trkpt>
      <trkpt lat="22.907814" lon="111.009625">
        <ele>143.079653</ele>
        <time>2026-08-18T06:19:49.000Z</time>
      </trkpt>
      <trkpt lat="22.907802" lon="111.009663">
        <ele>143.101852</ele>
        <time>2026-08-18T06:19:50.000Z</time>
      </trkpt>
      <trkpt lat="22.907791" lon="111.009700">
        <ele>143.123338</ele>
        <time>2026-08-18T06:19:51.000Z</time>
      </trkpt>
      <trkpt lat="22.907776" lon="111.009737">
        <ele>143.145678</ele>
        <time>2026-08-18T06:19:52.000Z</time>
      </trkpt>
      <trkpt lat="22.907766" lon="111.009776">
        <ele>143.168050</ele>
        <time>2026-08-18T06:19:53.000Z</time>
      </trkpt>
      <trkpt lat="22.907752" lon="111.009811">
        <ele>143.189137</ele>
        <time>2026-08-18T06:19:54.000Z</time>
      </trkpt>
      <trkpt lat="22.907739" lon="111.009847">
        <ele>143.210506</ele>
        <time>2026-08-18T06:19:55.000Z</time>
      </trkpt>
      <trkpt lat="22.907725" lon="111.009881">
        <ele>143.231087</ele>
        <time>2026-08-18T06:19:56.000Z</time>
      </trkpt>
      <trkpt lat="22.907711" lon="111.009911">
        <ele>143.249672</ele>
        <time>2026-08-18T06:19:57.000Z</time>
      </trkpt>
      <trkpt lat="22.907696" lon="111.009924">
        <ele>143.261187</ele>
        <time>2026-08-18T06:19:58.000Z</time>
      </trkpt>
      <trkpt lat="22.907683" lon="111.009930">
        <ele>143.269662</ele>
        <time>2026-08-18T06:19:59.000Z</time>
      </trkpt>
      <trkpt lat="22.907669" lon="111.009935">
        <ele>143.278504</ele>
        <time>2026-08-18T06:20:00.000Z</time>
      </trkpt>
      <trkpt lat="22.907656" lon="111.009937">
        <ele>143.286381</ele>
        <time>2026-08-18T06:20:01.000Z</time>
      </trkpt>
      <trkpt lat="22.907655" lon="111.009945">
        <ele>143.290843</ele>
        <time>2026-08-18T06:20:02.000Z</time>
      </trkpt>
      <trkpt lat="22.907835" lon="111.010027">
        <ele>143.407955</ele>
        <time>2026-08-18T06:21:22.000Z</time>
      </trkpt>
      <trkpt lat="22.907818" lon="111.010044">
        <ele>143.421821</ele>
        <time>2026-08-18T06:21:23.000Z</time>
      </trkpt>
      <trkpt lat="22.907801" lon="111.010069">
        <ele>143.438994</ele>
        <time>2026-08-18T06:21:24.000Z</time>
      </trkpt>
      <trkpt lat="22.907787" lon="111.010097">
        <ele>143.456600</ele>
        <time>2026-08-18T06:21:25.000Z</time>
      </trkpt>
      <trkpt lat="22.907773" lon="111.010129">
        <ele>143.476177</ele>
        <time>2026-08-18T06:21:26.000Z</time>
      </trkpt>
      <trkpt lat="22.907761" lon="111.010159">
        <ele>143.494252</ele>
        <time>2026-08-18T06:21:27.000Z</time>
      </trkpt>
      <trkpt lat="22.907748" lon="111.010192">
        <ele>143.514086</ele>
        <time>2026-08-18T06:21:28.000Z</time>
      </trkpt>
      <trkpt lat="22.907730" lon="111.010223">
        <ele>143.534337</ele>
        <time>2026-08-18T06:21:29.000Z</time>
      </trkpt>
      <trkpt lat="22.907714" lon="111.010255">
        <ele>143.554459</ele>
        <time>2026-08-18T06:21:30.000Z</time>
      </trkpt>
      <trkpt lat="22.907700" lon="111.010285">
        <ele>143.573044</ele>
        <time>2026-08-18T06:21:31.000Z</time>
      </trkpt>
      <trkpt lat="22.907683" lon="111.010316">
        <ele>143.592981</ele>
        <time>2026-08-18T06:21:32.000Z</time>
      </trkpt>
      <trkpt lat="22.907665" lon="111.010347">
        <ele>143.613233</ele>
        <time>2026-08-18T06:21:33.000Z</time>
      </trkpt>
      <trkpt lat="22.907653" lon="111.010380">
        <ele>143.632839</ele>
        <time>2026-08-18T06:21:34.000Z</time>
      </trkpt>
      <trkpt lat="22.907639" lon="111.010414">
        <ele>143.653420</ele>
        <time>2026-08-18T06:21:35.000Z</time>
      </trkpt>
      <trkpt lat="22.907629" lon="111.010449">
        <ele>143.673671</ele>
        <time>2026-08-18T06:21:36.000Z</time>
      </trkpt>
      <trkpt lat="22.907619" lon="111.010487">
        <ele>143.695511</ele>
        <time>2026-08-18T06:21:37.000Z</time>
      </trkpt>
      <trkpt lat="22.907609" lon="111.010521">
        <ele>143.715235</ele>
        <time>2026-08-18T06:21:38.000Z</time>
      </trkpt>
      <trkpt lat="22.907597" lon="111.010554">
        <ele>143.734841</ele>
        <time>2026-08-18T06:21:39.000Z</time>
      </trkpt>
      <trkpt lat="22.907585" lon="111.010588">
        <ele>143.754963</ele>
        <time>2026-08-18T06:21:40.000Z</time>
      </trkpt>
      <trkpt lat="22.907575" lon="111.010624">
        <ele>143.775742</ele>
        <time>2026-08-18T06:21:41.000Z</time>
      </trkpt>
      <trkpt lat="22.907564" lon="111.010661">
        <ele>143.797228</ele>
        <time>2026-08-18T06:21:42.000Z</time>
      </trkpt>
      <trkpt lat="22.907554" lon="111.010699">
        <ele>143.819068</ele>
        <time>2026-08-18T06:21:43.000Z</time>
      </trkpt>
      <trkpt lat="22.907544" lon="111.010736">
        <ele>143.840377</ele>
        <time>2026-08-18T06:21:44.000Z</time>
      </trkpt>
      <trkpt lat="22.907531" lon="111.010773">
        <ele>143.862262</ele>
        <time>2026-08-18T06:21:45.000Z</time>
      </trkpt>
      <trkpt lat="22.907517" lon="111.010808">
        <ele>143.883349</ele>
        <time>2026-08-18T06:21:46.000Z</time>
      </trkpt>
      <trkpt lat="22.907503" lon="111.010844">
        <ele>143.904944</ele>
        <time>2026-08-18T06:21:47.000Z</time>
      </trkpt>
      <trkpt lat="22.907490" lon="111.010881">
        <ele>143.926828</ele>
        <time>2026-08-18T06:21:48.000Z</time>
      </trkpt>
      <trkpt lat="22.907475" lon="111.010917">
        <ele>143.948663</ele>
        <time>2026-08-18T06:21:49.000Z</time>
      </trkpt>
      <trkpt lat="22.907459" lon="111.010954">
        <ele>143.978369</ele>
        <time>2026-08-18T06:21:50.000Z</time>
      </trkpt>
      <trkpt lat="22.907444" lon="111.010990">
        <ele>144.011393</ele>
        <time>2026-08-18T06:21:51.000Z</time>
      </trkpt>
      <trkpt lat="22.907427" lon="111.011025">
        <ele>144.044464</ele>
        <time>2026-08-18T06:21:52.000Z</time>
      </trkpt>
      <trkpt lat="22.907411" lon="111.011061">
        <ele>144.077872</ele>
        <time>2026-08-18T06:21:53.000Z</time>
      </trkpt>
      <trkpt lat="22.907395" lon="111.011097">
        <ele>144.111280</ele>
        <time>2026-08-18T06:21:54.000Z</time>
      </trkpt>
      <trkpt lat="22.907378" lon="111.011134">
        <ele>144.145839</ele>
        <time>2026-08-18T06:21:55.000Z</time>
      </trkpt>
      <trkpt lat="22.907365" lon="111.011171">
        <ele>144.178937</ele>
        <time>2026-08-18T06:21:56.000Z</time>
      </trkpt>
      <trkpt lat="22.907350" lon="111.011207">
        <ele>144.211961</ele>
        <time>2026-08-18T06:21:57.000Z</time>
      </trkpt>
      <trkpt lat="22.907334" lon="111.011245">
        <ele>144.246883</ele>
        <time>2026-08-18T06:21:58.000Z</time>
      </trkpt>
      <trkpt lat="22.907314" lon="111.011279">
        <ele>144.280600</ele>
        <time>2026-08-18T06:21:59.000Z</time>
      </trkpt>
      <trkpt lat="22.907299" lon="111.011317">
        <ele>144.315154</ele>
        <time>2026-08-18T06:22:00.000Z</time>
      </trkpt>
      <trkpt lat="22.907283" lon="111.011355">
        <ele>144.350076</ele>
        <time>2026-08-18T06:22:01.000Z</time>
      </trkpt>
      <trkpt lat="22.907268" lon="111.011394">
        <ele>144.385399</ele>
        <time>2026-08-18T06:22:02.000Z</time>
      </trkpt>
      <trkpt lat="22.907252" lon="111.011432">
        <ele>144.420321</ele>
        <time>2026-08-18T06:22:03.000Z</time>
      </trkpt>
      <trkpt lat="22.907239" lon="111.011471">
        <ele>144.454986</ele>
        <time>2026-08-18T06:22:04.000Z</time>
      </trkpt>
      <trkpt lat="22.907224" lon="111.011510">
        <ele>144.490310</ele>
        <time>2026-08-18T06:22:05.000Z</time>
      </trkpt>
      <trkpt lat="22.907209" lon="111.011549">
        <ele>144.525634</ele>
        <time>2026-08-18T06:22:06.000Z</time>
      </trkpt>
      <trkpt lat="22.907196" lon="111.011589">
        <ele>144.561086</ele>
        <time>2026-08-18T06:22:07.000Z</time>
      </trkpt>
      <trkpt lat="22.907181" lon="111.011627">
        <ele>144.595640</ele>
        <time>2026-08-18T06:22:08.000Z</time>
      </trkpt>
      <trkpt lat="22.907166" lon="111.011666">
        <ele>144.630964</ele>
        <time>2026-08-18T06:22:09.000Z</time>
      </trkpt>
      <trkpt lat="22.907150" lon="111.011705">
        <ele>144.666647</ele>
        <time>2026-08-18T06:22:10.000Z</time>
      </trkpt>
      <trkpt lat="22.907130" lon="111.011744">
        <ele>144.703955</ele>
        <time>2026-08-18T06:22:11.000Z</time>
      </trkpt>
      <trkpt lat="22.907114" lon="111.011784">
        <ele>144.740403</ele>
        <time>2026-08-18T06:22:12.000Z</time>
      </trkpt>
      <trkpt lat="22.907097" lon="111.011823">
        <ele>144.776465</ele>
        <time>2026-08-18T06:22:13.000Z</time>
      </trkpt>
      <trkpt lat="22.907081" lon="111.011862">
        <ele>144.812149</ele>
        <time>2026-08-18T06:22:14.000Z</time>
      </trkpt>
      <trkpt lat="22.907067" lon="111.011901">
        <ele>144.847133</ele>
        <time>2026-08-18T06:22:15.000Z</time>
      </trkpt>
      <trkpt lat="22.907053" lon="111.011942">
        <ele>144.883680</ele>
        <time>2026-08-18T06:22:16.000Z</time>
      </trkpt>
      <trkpt lat="22.907041" lon="111.011987">
        <ele>144.922836</ele>
        <time>2026-08-18T06:22:17.000Z</time>
      </trkpt>
      <trkpt lat="22.907022" lon="111.012031">
        <ele>144.963452</ele>
        <time>2026-08-18T06:22:18.000Z</time>
      </trkpt>
      <trkpt lat="22.907004" lon="111.012073">
        <ele>145.002169</ele>
        <time>2026-08-18T06:22:19.000Z</time>
      </trkpt>
      <trkpt lat="22.906985" lon="111.012112">
        <ele>145.039044</ele>
        <time>2026-08-18T06:22:20.000Z</time>
      </trkpt>
      <trkpt lat="22.906966" lon="111.012152">
        <ele>145.076660</ele>
        <time>2026-08-18T06:22:21.000Z</time>
      </trkpt>
      <trkpt lat="22.906943" lon="111.012189">
        <ele>145.113968</ele>
        <time>2026-08-18T06:22:22.000Z</time>
      </trkpt>
      <trkpt lat="22.906922" lon="111.012230">
        <ele>145.153177</ele>
        <time>2026-08-18T06:22:23.000Z</time>
      </trkpt>
      <trkpt lat="22.906900" lon="111.012268">
        <ele>145.190690</ele>
        <time>2026-08-18T06:22:24.000Z</time>
      </trkpt>
      <trkpt lat="22.906882" lon="111.012309">
        <ele>145.228651</ele>
        <time>2026-08-18T06:22:25.000Z</time>
      </trkpt>
      <trkpt lat="22.906864" lon="111.012347">
        <ele>145.264366</ele>
        <time>2026-08-18T06:22:26.000Z</time>
      </trkpt>
      <trkpt lat="22.906842" lon="111.012385">
        <ele>145.301879</ele>
        <time>2026-08-18T06:22:27.000Z</time>
      </trkpt>
      <trkpt lat="22.906823" lon="111.012422">
        <ele>145.337284</ele>
        <time>2026-08-18T06:22:28.000Z</time>
      </trkpt>
      <trkpt lat="22.906804" lon="111.012464">
        <ele>145.376393</ele>
        <time>2026-08-18T06:22:29.000Z</time>
      </trkpt>
      <trkpt lat="22.906788" lon="111.012507">
        <ele>145.415155</ele>
        <time>2026-08-18T06:22:30.000Z</time>
      </trkpt>
      <trkpt lat="22.906772" lon="111.012545">
        <ele>145.450076</ele>
        <time>2026-08-18T06:22:31.000Z</time>
      </trkpt>
      <trkpt lat="22.906754" lon="111.012582">
        <ele>145.485049</ele>
        <time>2026-08-18T06:22:32.000Z</time>
      </trkpt>
      <trkpt lat="22.906737" lon="111.012622">
        <ele>145.521868</ele>
        <time>2026-08-18T06:22:33.000Z</time>
      </trkpt>
      <trkpt lat="22.906715" lon="111.012661">
        <ele>145.560092</ele>
        <time>2026-08-18T06:22:34.000Z</time>
      </trkpt>
      <trkpt lat="22.906695" lon="111.012699">
        <ele>145.602242</ele>
        <time>2026-08-18T06:22:35.000Z</time>
      </trkpt>
      <trkpt lat="22.906675" lon="111.012738">
        <ele>145.668088</ele>
        <time>2026-08-18T06:22:36.000Z</time>
      </trkpt>
      <trkpt lat="22.906659" lon="111.012777">
        <ele>145.731066</ele>
        <time>2026-08-18T06:22:37.000Z</time>
      </trkpt>
      <trkpt lat="22.906644" lon="111.012816">
        <ele>145.793411</ele>
        <time>2026-08-18T06:22:38.000Z</time>
      </trkpt>
      <trkpt lat="22.906630" lon="111.012855">
        <ele>145.855156</ele>
        <time>2026-08-18T06:22:39.000Z</time>
      </trkpt>
      <trkpt lat="22.906615" lon="111.012892">
        <ele>145.914789</ele>
        <time>2026-08-18T06:22:40.000Z</time>
      </trkpt>
      <trkpt lat="22.906596" lon="111.012929">
        <ele>145.977277</ele>
        <time>2026-08-18T06:22:41.000Z</time>
      </trkpt>
      <trkpt lat="22.906583" lon="111.012970">
        <ele>146.041241</ele>
        <time>2026-08-18T06:22:42.000Z</time>
      </trkpt>
      <trkpt lat="22.906570" lon="111.013008">
        <ele>146.101038</ele>
        <time>2026-08-18T06:22:43.000Z</time>
      </trkpt>
      <trkpt lat="22.906556" lon="111.013047">
        <ele>146.162783</ele>
        <time>2026-08-18T06:22:44.000Z</time>
      </trkpt>
      <trkpt lat="22.906541" lon="111.013082">
        <ele>146.219728</ele>
        <time>2026-08-18T06:22:45.000Z</time>
      </trkpt>
      <trkpt lat="22.906524" lon="111.013116">
        <ele>146.276796</ele>
        <time>2026-08-18T06:22:46.000Z</time>
      </trkpt>
      <trkpt lat="22.906511" lon="111.013149">
        <ele>146.329740</ele>
        <time>2026-08-18T06:22:47.000Z</time>
      </trkpt>
      <trkpt lat="22.906500" lon="111.013174">
        <ele>146.370611</ele>
        <time>2026-08-18T06:22:48.000Z</time>
      </trkpt>
      <trkpt lat="22.906493" lon="111.013184">
        <ele>146.389138</ele>
        <time>2026-08-18T06:22:49.000Z</time>
      </trkpt>
      <trkpt lat="22.906454" lon="111.013214">
        <ele>146.465684</ele>
        <time>2026-08-18T06:23:05.000Z</time>
      </trkpt>
      <trkpt lat="22.906452" lon="111.013223">
        <ele>146.479341</ele>
        <time>2026-08-18T06:23:06.000Z</time>
      </trkpt>
      <trkpt lat="22.906452" lon="111.013233">
        <ele>146.494092</ele>
        <time>2026-08-18T06:23:07.000Z</time>
      </trkpt>
      <trkpt lat="22.906455" lon="111.013248">
        <ele>146.516735</ele>
        <time>2026-08-18T06:23:08.000Z</time>
      </trkpt>
      <trkpt lat="22.906461" lon="111.013265">
        <ele>146.543591</ele>
        <time>2026-08-18T06:23:09.000Z</time>
      </trkpt>
      <trkpt lat="22.906471" lon="111.013285">
        <ele>146.577160</ele>
        <time>2026-08-18T06:23:10.000Z</time>
      </trkpt>
      <trkpt lat="22.906484" lon="111.013309">
        <ele>146.618231</ele>
        <time>2026-08-18T06:23:11.000Z</time>
      </trkpt>
      <trkpt lat="22.906495" lon="111.013334">
        <ele>146.659101</ele>
        <time>2026-08-18T06:23:12.000Z</time>
      </trkpt>
      <trkpt lat="22.906508" lon="111.013359">
        <ele>146.701450</ele>
        <time>2026-08-18T06:23:13.000Z</time>
      </trkpt>
      <trkpt lat="22.906524" lon="111.013384">
        <ele>146.746356</ele>
        <time>2026-08-18T06:23:14.000Z</time>
      </trkpt>
      <trkpt lat="22.906543" lon="111.013408">
        <ele>146.793039</ele>
        <time>2026-08-18T06:23:15.000Z</time>
      </trkpt>
      <trkpt lat="22.906566" lon="111.013432">
        <ele>146.844128</ele>
        <time>2026-08-18T06:23:16.000Z</time>
      </trkpt>
      <trkpt lat="22.906586" lon="111.013455">
        <ele>146.890786</ele>
        <time>2026-08-18T06:23:17.000Z</time>
      </trkpt>
      <trkpt lat="22.906613" lon="111.013479">
        <ele>146.946670</ele>
        <time>2026-08-18T06:23:18.000Z</time>
      </trkpt>
      <trkpt lat="22.906637" lon="111.013502">
        <ele>146.997937</ele>
        <time>2026-08-18T06:23:19.000Z</time>
      </trkpt>
      <trkpt lat="22.906667" lon="111.013527">
        <ele>147.058503</ele>
        <time>2026-08-18T06:23:20.000Z</time>
      </trkpt>
      <trkpt lat="22.906694" lon="111.013557">
        <ele>147.120374</ele>
        <time>2026-08-18T06:23:21.000Z</time>
      </trkpt>
      <trkpt lat="22.906724" lon="111.013586">
        <ele>147.184703</ele>
        <time>2026-08-18T06:23:22.000Z</time>
      </trkpt>
      <trkpt lat="22.906753" lon="111.013615">
        <ele>147.247845</ele>
        <time>2026-08-18T06:23:23.000Z</time>
      </trkpt>
      <trkpt lat="22.906782" lon="111.013643">
        <ele>147.309997</ele>
        <time>2026-08-18T06:23:24.000Z</time>
      </trkpt>
      <trkpt lat="22.906825" lon="111.013662">
        <ele>147.384344</ele>
        <time>2026-08-18T06:23:25.000Z</time>
      </trkpt>
      <trkpt lat="22.906859" lon="111.013685">
        <ele>147.448498</ele>
        <time>2026-08-18T06:23:26.000Z</time>
      </trkpt>
      <trkpt lat="22.906892" lon="111.013704">
        <ele>147.508318</ele>
        <time>2026-08-18T06:23:27.000Z</time>
      </trkpt>
      <trkpt lat="22.906918" lon="111.013715">
        <ele>147.553006</ele>
        <time>2026-08-18T06:23:28.000Z</time>
      </trkpt>
      <trkpt lat="22.906952" lon="111.013728">
        <ele>147.610733</ele>
        <time>2026-08-18T06:23:29.000Z</time>
      </trkpt>
      <trkpt lat="22.906981" lon="111.013754">
        <ele>147.670964</ele>
        <time>2026-08-18T06:23:30.000Z</time>
      </trkpt>
      <trkpt lat="22.907011" lon="111.013778">
        <ele>147.730643</ele>
        <time>2026-08-18T06:23:31.000Z</time>
      </trkpt>
      <trkpt lat="22.907043" lon="111.013800">
        <ele>147.791301</ele>
        <time>2026-08-18T06:23:32.000Z</time>
      </trkpt>
      <trkpt lat="22.907073" lon="111.013826">
        <ele>147.852776</ele>
        <time>2026-08-18T06:23:33.000Z</time>
      </trkpt>
      <trkpt lat="22.907109" lon="111.013846">
        <ele>147.917538</ele>
        <time>2026-08-18T06:23:34.000Z</time>
      </trkpt>
      <trkpt lat="22.907144" lon="111.013868">
        <ele>147.982305</ele>
        <time>2026-08-18T06:23:35.000Z</time>
      </trkpt>
      <trkpt lat="22.907179" lon="111.013891">
        <ele>148.047825</ele>
        <time>2026-08-18T06:23:36.000Z</time>
      </trkpt>
      <trkpt lat="22.907212" lon="111.013913">
        <ele>148.109841</ele>
        <time>2026-08-18T06:23:37.000Z</time>
      </trkpt>
      <trkpt lat="22.907242" lon="111.013935">
        <ele>148.167818</ele>
        <time>2026-08-18T06:23:38.000Z</time>
      </trkpt>
      <trkpt lat="22.907274" lon="111.013957">
        <ele>148.228476</ele>
        <time>2026-08-18T06:23:39.000Z</time>
      </trkpt>
      <trkpt lat="22.907305" lon="111.013979">
        <ele>148.287787</ele>
        <time>2026-08-18T06:23:40.000Z</time>
      </trkpt>
      <trkpt lat="22.907337" lon="111.014001">
        <ele>148.348445</ele>
        <time>2026-08-18T06:23:41.000Z</time>
      </trkpt>
      <trkpt lat="22.907366" lon="111.014026">
        <ele>148.407748</ele>
        <time>2026-08-18T06:23:42.000Z</time>
      </trkpt>
      <trkpt lat="22.907396" lon="111.014050">
        <ele>148.467426</ele>
        <time>2026-08-18T06:23:43.000Z</time>
      </trkpt>
      <trkpt lat="22.907424" lon="111.014074">
        <ele>148.425735</ele>
        <time>2026-08-18T06:23:44.000Z</time>
      </trkpt>
      <trkpt lat="22.907452" lon="111.014098">
        <ele>148.379754</ele>
        <time>2026-08-18T06:23:45.000Z</time>
      </trkpt>
      <trkpt lat="22.907481" lon="111.014121">
        <ele>148.333465</ele>
        <time>2026-08-18T06:23:46.000Z</time>
      </trkpt>
      <trkpt lat="22.907510" lon="111.014143">
        <ele>148.287866</ele>
        <time>2026-08-18T06:23:47.000Z</time>
      </trkpt>
      <trkpt lat="22.907538" lon="111.014166">
        <ele>148.242611</ele>
        <time>2026-08-18T06:23:48.000Z</time>
      </trkpt>
      <trkpt lat="22.907566" lon="111.014189">
        <ele>148.197356</ele>
        <time>2026-08-18T06:23:49.000Z</time>
      </trkpt>
      <trkpt lat="22.907592" lon="111.014211">
        <ele>148.154869</ele>
        <time>2026-08-18T06:23:50.000Z</time>
      </trkpt>
      <trkpt lat="22.907613" lon="111.014235">
        <ele>148.115569</ele>
        <time>2026-08-18T06:23:51.000Z</time>
      </trkpt>
      <trkpt lat="22.907627" lon="111.014262">
        <ele>148.078784</ele>
        <time>2026-08-18T06:23:52.000Z</time>
      </trkpt>
      <trkpt lat="22.907639" lon="111.014293">
        <ele>148.038863</ele>
        <time>2026-08-18T06:23:53.000Z</time>
      </trkpt>
      <trkpt lat="22.907650" lon="111.014321">
        <ele>148.002723</ele>
        <time>2026-08-18T06:23:54.000Z</time>
      </trkpt>
      <trkpt lat="22.907660" lon="111.014351">
        <ele>147.964846</ele>
        <time>2026-08-18T06:23:55.000Z</time>
      </trkpt>
      <trkpt lat="22.907663" lon="111.014384">
        <ele>147.925477</ele>
        <time>2026-08-18T06:23:56.000Z</time>
      </trkpt>
      <trkpt lat="22.907664" lon="111.014418">
        <ele>147.885091</ele>
        <time>2026-08-18T06:23:57.000Z</time>
      </trkpt>
      <trkpt lat="22.907660" lon="111.014452">
        <ele>147.844398</ele>
        <time>2026-08-18T06:23:58.000Z</time>
      </trkpt>
      <trkpt lat="22.907651" lon="111.014490">
        <ele>147.797816</ele>
        <time>2026-08-18T06:23:59.000Z</time>
      </trkpt>
      <trkpt lat="22.907638" lon="111.014525">
        <ele>147.753012</ele>
        <time>2026-08-18T06:24:00.000Z</time>
      </trkpt>
      <trkpt lat="22.907620" lon="111.014561">
        <ele>147.704381</ele>
        <time>2026-08-18T06:24:01.000Z</time>
      </trkpt>
      <trkpt lat="22.907604" lon="111.014598">
        <ele>147.655854</ele>
        <time>2026-08-18T06:24:02.000Z</time>
      </trkpt>
      <trkpt lat="22.907585" lon="111.014640">
        <ele>147.600302</ele>
        <time>2026-08-18T06:24:03.000Z</time>
      </trkpt>
      <trkpt lat="22.907565" lon="111.014681">
        <ele>147.545221</ele>
        <time>2026-08-18T06:24:04.000Z</time>
      </trkpt>
      <trkpt lat="22.907546" lon="111.014724">
        <ele>147.488601</ele>
        <time>2026-08-18T06:24:05.000Z</time>
      </trkpt>
      <trkpt lat="22.907525" lon="111.014767">
        <ele>147.430819</ele>
        <time>2026-08-18T06:24:06.000Z</time>
      </trkpt>
      <trkpt lat="22.907505" lon="111.014811">
        <ele>147.372567</ele>
        <time>2026-08-18T06:24:07.000Z</time>
      </trkpt>
      <trkpt lat="22.907483" lon="111.014857">
        <ele>147.311032</ele>
        <time>2026-08-18T06:24:08.000Z</time>
      </trkpt>
      <trkpt lat="22.907462" lon="111.014904">
        <ele>147.249015</ele>
        <time>2026-08-18T06:24:09.000Z</time>
      </trkpt>
      <trkpt lat="22.907439" lon="111.014953">
        <ele>147.183723</ele>
        <time>2026-08-18T06:24:10.000Z</time>
      </trkpt>
      <trkpt lat="22.907416" lon="111.015003">
        <ele>147.117371</ele>
        <time>2026-08-18T06:24:11.000Z</time>
      </trkpt>
      <trkpt lat="22.907390" lon="111.015052">
        <ele>147.050236</ele>
        <time>2026-08-18T06:24:12.000Z</time>
      </trkpt>
      <trkpt lat="22.907366" lon="111.015103">
        <ele>146.982243</ele>
        <time>2026-08-18T06:24:13.000Z</time>
      </trkpt>
      <trkpt lat="22.907340" lon="111.015155">
        <ele>146.911999</ele>
        <time>2026-08-18T06:24:14.000Z</time>
      </trkpt>
      <trkpt lat="22.907313" lon="111.015209">
        <ele>146.839053</ele>
        <time>2026-08-18T06:24:15.000Z</time>
      </trkpt>
      <trkpt lat="22.907286" lon="111.015263">
        <ele>146.766106</ele>
        <time>2026-08-18T06:24:16.000Z</time>
      </trkpt>
      <trkpt lat="22.907259" lon="111.015317">
        <ele>146.693160</ele>
        <time>2026-08-18T06:24:17.000Z</time>
      </trkpt>
      <trkpt lat="22.907232" lon="111.015373">
        <ele>146.618119</ele>
        <time>2026-08-18T06:24:18.000Z</time>
      </trkpt>
      <trkpt lat="22.907202" lon="111.015429">
        <ele>146.541208</ele>
        <time>2026-08-18T06:24:19.000Z</time>
      </trkpt>
      <trkpt lat="22.907174" lon="111.015485">
        <ele>146.465560</ele>
        <time>2026-08-18T06:24:20.000Z</time>
      </trkpt>
      <trkpt lat="22.907144" lon="111.015542">
        <ele>146.387620</ele>
        <time>2026-08-18T06:24:21.000Z</time>
      </trkpt>
      <trkpt lat="22.907115" lon="111.015601">
        <ele>146.308225</ele>
        <time>2026-08-18T06:24:22.000Z</time>
      </trkpt>
      <trkpt lat="22.907087" lon="111.015661">
        <ele>146.228371</ele>
        <time>2026-08-18T06:24:23.000Z</time>
      </trkpt>
      <trkpt lat="22.907059" lon="111.015719">
        <ele>146.150969</ele>
        <time>2026-08-18T06:24:24.000Z</time>
      </trkpt>
      <trkpt lat="22.907028" lon="111.015776">
        <ele>146.100551</ele>
        <time>2026-08-18T06:24:25.000Z</time>
      </trkpt>
      <trkpt lat="22.907000" lon="111.015834">
        <ele>146.050674</ele>
        <time>2026-08-18T06:24:26.000Z</time>
      </trkpt>
      <trkpt lat="22.906972" lon="111.015889">
        <ele>146.002809</ele>
        <time>2026-08-18T06:24:27.000Z</time>
      </trkpt>
      <trkpt lat="22.906942" lon="111.015940">
        <ele>145.956718</ele>
        <time>2026-08-18T06:24:28.000Z</time>
      </trkpt>
      <trkpt lat="22.906911" lon="111.015994">
        <ele>145.908253</ele>
        <time>2026-08-18T06:24:29.000Z</time>
      </trkpt>
      <trkpt lat="22.906879" lon="111.016050">
        <ele>145.858058</ele>
        <time>2026-08-18T06:24:30.000Z</time>
      </trkpt>
      <trkpt lat="22.906848" lon="111.016107">
        <ele>145.807640</ele>
        <time>2026-08-18T06:24:31.000Z</time>
      </trkpt>
      <trkpt lat="22.906820" lon="111.016167">
        <ele>145.756409</ele>
        <time>2026-08-18T06:24:32.000Z</time>
      </trkpt>
      <trkpt lat="22.906790" lon="111.016227">
        <ele>145.704409</ele>
        <time>2026-08-18T06:24:33.000Z</time>
      </trkpt>
      <trkpt lat="22.906762" lon="111.016288">
        <ele>145.652498</ele>
        <time>2026-08-18T06:24:34.000Z</time>
      </trkpt>
      <trkpt lat="22.906733" lon="111.016350">
        <ele>145.599534</ele>
        <time>2026-08-18T06:24:35.000Z</time>
      </trkpt>
      <trkpt lat="22.906704" lon="111.016412">
        <ele>145.546570</ele>
        <time>2026-08-18T06:24:36.000Z</time>
      </trkpt>
      <trkpt lat="22.906677" lon="111.016475">
        <ele>145.493644</ele>
        <time>2026-08-18T06:24:37.000Z</time>
      </trkpt>
      <trkpt lat="22.906650" lon="111.016537">
        <ele>145.441409</ele>
        <time>2026-08-18T06:24:38.000Z</time>
      </trkpt>
      <trkpt lat="22.906620" lon="111.016598">
        <ele>145.388738</ele>
        <time>2026-08-18T06:24:39.000Z</time>
      </trkpt>
      <trkpt lat="22.906589" lon="111.016659">
        <ele>145.335674</ele>
        <time>2026-08-18T06:24:40.000Z</time>
      </trkpt>
      <trkpt lat="22.906559" lon="111.016720">
        <ele>145.283003</ele>
        <time>2026-08-18T06:24:41.000Z</time>
      </trkpt>
      <trkpt lat="22.906529" lon="111.016782">
        <ele>145.229660</ele>
        <time>2026-08-18T06:24:42.000Z</time>
      </trkpt>
      <trkpt lat="22.906499" lon="111.016844">
        <ele>145.176317</ele>
        <time>2026-08-18T06:24:43.000Z</time>
      </trkpt>
      <trkpt lat="22.906469" lon="111.016905">
        <ele>145.123646</ele>
        <time>2026-08-18T06:24:44.000Z</time>
      </trkpt>
      <trkpt lat="22.906441" lon="111.016968">
        <ele>145.070367</ele>
        <time>2026-08-18T06:24:45.000Z</time>
      </trkpt>
      <trkpt lat="22.906415" lon="111.017030">
        <ele>145.018479</ele>
        <time>2026-08-18T06:24:46.000Z</time>
      </trkpt>
      <trkpt lat="22.906389" lon="111.017091">
        <ele>144.967283</ele>
        <time>2026-08-18T06:24:47.000Z</time>
      </trkpt>
      <trkpt lat="22.906365" lon="111.017150">
        <ele>144.918157</ele>
        <time>2026-08-18T06:24:48.000Z</time>
      </trkpt>
      <trkpt lat="22.906343" lon="111.017208">
        <ele>144.870380</ele>
        <time>2026-08-18T06:24:49.000Z</time>
      </trkpt>
      <trkpt lat="22.906318" lon="111.017267">
        <ele>144.820914</ele>
        <time>2026-08-18T06:24:50.000Z</time>
      </trkpt>
      <trkpt lat="22.906293" lon="111.017324">
        <ele>144.772828</ele>
        <time>2026-08-18T06:24:51.000Z</time>
      </trkpt>
      <trkpt lat="22.906268" lon="111.017380">
        <ele>144.725428</ele>
        <time>2026-08-18T06:24:52.000Z</time>
      </trkpt>
      <trkpt lat="22.906246" lon="111.017438">
        <ele>144.677652</ele>
        <time>2026-08-18T06:24:53.000Z</time>
      </trkpt>
      <trkpt lat="22.906227" lon="111.017494">
        <ele>144.698633</ele>
        <time>2026-08-18T06:24:54.000Z</time>
      </trkpt>
      <trkpt lat="22.906208" lon="111.017549">
        <ele>144.746491</ele>
        <time>2026-08-18T06:24:55.000Z</time>
      </trkpt>
      <trkpt lat="22.906190" lon="111.017604">
        <ele>144.794045</ele>
        <time>2026-08-18T06:24:56.000Z</time>
      </trkpt>
      <trkpt lat="22.906172" lon="111.017658">
        <ele>144.840832</ele>
        <time>2026-08-18T06:24:57.000Z</time>
      </trkpt>
      <trkpt lat="22.906152" lon="111.017709">
        <ele>144.885992</ele>
        <time>2026-08-18T06:24:58.000Z</time>
      </trkpt>
      <trkpt lat="22.906131" lon="111.017757">
        <ele>144.929285</ele>
        <time>2026-08-18T06:24:59.000Z</time>
      </trkpt>
      <trkpt lat="22.906111" lon="111.017805">
        <ele>144.972207</ele>
        <time>2026-08-18T06:25:00.000Z</time>
      </trkpt>
      <trkpt lat="22.906093" lon="111.017853">
        <ele>145.014430</ele>
        <time>2026-08-18T06:25:01.000Z</time>
      </trkpt>
      <trkpt lat="22.906074" lon="111.017898">
        <ele>145.054761</ele>
        <time>2026-08-18T06:25:02.000Z</time>
      </trkpt>
      <trkpt lat="22.906056" lon="111.017945">
        <ele>145.096230</ele>
        <time>2026-08-18T06:25:03.000Z</time>
      </trkpt>
      <trkpt lat="22.906040" lon="111.017991">
        <ele>145.136291</ele>
        <time>2026-08-18T06:25:04.000Z</time>
      </trkpt>
      <trkpt lat="22.906024" lon="111.018036">
        <ele>145.175590</ele>
        <time>2026-08-18T06:25:05.000Z</time>
      </trkpt>
      <trkpt lat="22.906007" lon="111.018081">
        <ele>145.215216</ele>
        <time>2026-08-18T06:25:06.000Z</time>
      </trkpt>
      <trkpt lat="22.905988" lon="111.018127">
        <ele>145.256288</ele>
        <time>2026-08-18T06:25:07.000Z</time>
      </trkpt>
      <trkpt lat="22.905970" lon="111.018172">
        <ele>145.296259</ele>
        <time>2026-08-18T06:25:08.000Z</time>
      </trkpt>
      <trkpt lat="22.905950" lon="111.018215">
        <ele>145.335504</ele>
        <time>2026-08-18T06:25:09.000Z</time>
      </trkpt>
      <trkpt lat="22.905934" lon="111.018259">
        <ele>145.374045</ele>
        <time>2026-08-18T06:25:10.000Z</time>
      </trkpt>
      <trkpt lat="22.905915" lon="111.018305">
        <ele>145.415117</ele>
        <time>2026-08-18T06:25:11.000Z</time>
      </trkpt>
      <trkpt lat="22.905894" lon="111.018351">
        <ele>145.456945</ele>
        <time>2026-08-18T06:25:12.000Z</time>
      </trkpt>
      <trkpt lat="22.905874" lon="111.018397">
        <ele>145.498387</ele>
        <time>2026-08-18T06:25:13.000Z</time>
      </trkpt>
      <trkpt lat="22.905856" lon="111.018443">
        <ele>145.539106</ele>
        <time>2026-08-18T06:25:14.000Z</time>
      </trkpt>
      <trkpt lat="22.905839" lon="111.018490">
        <ele>145.580244</ele>
        <time>2026-08-18T06:25:15.000Z</time>
      </trkpt>
      <trkpt lat="22.905823" lon="111.018537">
        <ele>145.621068</ele>
        <time>2026-08-18T06:25:16.000Z</time>
      </trkpt>
      <trkpt lat="22.905807" lon="111.018583">
        <ele>145.661128</ele>
        <time>2026-08-18T06:25:17.000Z</time>
      </trkpt>
      <trkpt lat="22.905791" lon="111.018630">
        <ele>145.701952</ele>
        <time>2026-08-18T06:25:18.000Z</time>
      </trkpt>
      <trkpt lat="22.905772" lon="111.018675">
        <ele>145.742282</ele>
        <time>2026-08-18T06:25:19.000Z</time>
      </trkpt>
      <trkpt lat="22.905753" lon="111.018721">
        <ele>145.783355</ele>
        <time>2026-08-18T06:25:20.000Z</time>
      </trkpt>
      <trkpt lat="22.905735" lon="111.018766">
        <ele>145.823325</ele>
        <time>2026-08-18T06:25:21.000Z</time>
      </trkpt>
      <trkpt lat="22.905719" lon="111.018811">
        <ele>145.862624</ele>
        <time>2026-08-18T06:25:22.000Z</time>
      </trkpt>
      <trkpt lat="22.905702" lon="111.018855">
        <ele>145.901498</ele>
        <time>2026-08-18T06:25:23.000Z</time>
      </trkpt>
      <trkpt lat="22.905684" lon="111.018900">
        <ele>145.941468</ele>
        <time>2026-08-18T06:25:24.000Z</time>
      </trkpt>
      <trkpt lat="22.905666" lon="111.018946">
        <ele>145.982187</ele>
        <time>2026-08-18T06:25:25.000Z</time>
      </trkpt>
      <trkpt lat="22.905648" lon="111.018992">
        <ele>146.022906</ele>
        <time>2026-08-18T06:25:26.000Z</time>
      </trkpt>
      <trkpt lat="22.905631" lon="111.019037">
        <ele>146.062532</ele>
        <time>2026-08-18T06:25:27.000Z</time>
      </trkpt>
      <trkpt lat="22.905615" lon="111.019083">
        <ele>146.102592</ele>
        <time>2026-08-18T06:25:28.000Z</time>
      </trkpt>
      <trkpt lat="22.905599" lon="111.019128">
        <ele>146.141892</ele>
        <time>2026-08-18T06:25:29.000Z</time>
      </trkpt>
      <trkpt lat="22.905584" lon="111.019172">
        <ele>146.180116</ele>
        <time>2026-08-18T06:25:30.000Z</time>
      </trkpt>
      <trkpt lat="22.905569" lon="111.019217">
        <ele>146.219105</ele>
        <time>2026-08-18T06:25:31.000Z</time>
      </trkpt>
      <trkpt lat="22.905554" lon="111.019260">
        <ele>146.256807</ele>
        <time>2026-08-18T06:25:32.000Z</time>
      </trkpt>
      <trkpt lat="22.905538" lon="111.019302">
        <ele>146.300090</ele>
        <time>2026-08-18T06:25:33.000Z</time>
      </trkpt>
      <trkpt lat="22.905523" lon="111.019347">
        <ele>146.345664</ele>
        <time>2026-08-18T06:25:34.000Z</time>
      </trkpt>
      <trkpt lat="22.905510" lon="111.019391">
        <ele>146.389668</ele>
        <time>2026-08-18T06:25:35.000Z</time>
      </trkpt>
      <trkpt lat="22.905495" lon="111.019437">
        <ele>146.436139</ele>
        <time>2026-08-18T06:25:36.000Z</time>
      </trkpt>
      <trkpt lat="22.905479" lon="111.019481">
        <ele>146.481188</ele>
        <time>2026-08-18T06:25:37.000Z</time>
      </trkpt>
      <trkpt lat="22.905465" lon="111.019526">
        <ele>146.526421</ele>
        <time>2026-08-18T06:25:38.000Z</time>
      </trkpt>
      <trkpt lat="22.905450" lon="111.019571">
        <ele>146.571995</ele>
        <time>2026-08-18T06:25:39.000Z</time>
      </trkpt>
      <trkpt lat="22.905434" lon="111.019616">
        <ele>146.617931</ele>
        <time>2026-08-18T06:25:40.000Z</time>
      </trkpt>
      <trkpt lat="22.905419" lon="111.019660">
        <ele>146.662610</ele>
        <time>2026-08-18T06:25:41.000Z</time>
      </trkpt>
      <trkpt lat="22.905404" lon="111.019706">
        <ele>146.709081</ele>
        <time>2026-08-18T06:25:42.000Z</time>
      </trkpt>
      <trkpt lat="22.905388" lon="111.019750">
        <ele>146.754130</ele>
        <time>2026-08-18T06:25:43.000Z</time>
      </trkpt>
      <trkpt lat="22.905372" lon="111.019794">
        <ele>146.799179</ele>
        <time>2026-08-18T06:25:44.000Z</time>
      </trkpt>
      <trkpt lat="22.905356" lon="111.019837">
        <ele>146.843344</ele>
        <time>2026-08-18T06:25:45.000Z</time>
      </trkpt>
      <trkpt lat="22.905340" lon="111.019881">
        <ele>146.888393</ele>
        <time>2026-08-18T06:25:46.000Z</time>
      </trkpt>
      <trkpt lat="22.905325" lon="111.019926">
        <ele>146.933967</ele>
        <time>2026-08-18T06:25:47.000Z</time>
      </trkpt>
      <trkpt lat="22.905310" lon="111.019970">
        <ele>146.978646</ele>
        <time>2026-08-18T06:25:48.000Z</time>
      </trkpt>
      <trkpt lat="22.905296" lon="111.020015">
        <ele>147.023879</ele>
        <time>2026-08-18T06:25:49.000Z</time>
      </trkpt>
      <trkpt lat="22.905281" lon="111.020059">
        <ele>147.068559</ele>
        <time>2026-08-18T06:25:50.000Z</time>
      </trkpt>
      <trkpt lat="22.905265" lon="111.020103">
        <ele>147.113608</ele>
        <time>2026-08-18T06:25:51.000Z</time>
      </trkpt>
      <trkpt lat="22.905248" lon="111.020147">
        <ele>147.159047</ele>
        <time>2026-08-18T06:25:52.000Z</time>
      </trkpt>
      <trkpt lat="22.905233" lon="111.020192">
        <ele>147.204621</ele>
        <time>2026-08-18T06:25:53.000Z</time>
      </trkpt>
      <trkpt lat="22.905216" lon="111.020238">
        <ele>147.251822</ele>
        <time>2026-08-18T06:25:54.000Z</time>
      </trkpt>
      <trkpt lat="22.905198" lon="111.020284">
        <ele>147.299417</ele>
        <time>2026-08-18T06:25:55.000Z</time>
      </trkpt>
      <trkpt lat="22.905179" lon="111.020327">
        <ele>147.344835</ele>
        <time>2026-08-18T06:25:56.000Z</time>
      </trkpt>
      <trkpt lat="22.905163" lon="111.020370">
        <ele>147.388999</ele>
        <time>2026-08-18T06:25:57.000Z</time>
      </trkpt>
      <trkpt lat="22.905149" lon="111.020416">
        <ele>147.435135</ele>
        <time>2026-08-18T06:25:58.000Z</time>
      </trkpt>
      <trkpt lat="22.905133" lon="111.020462">
        <ele>147.481961</ele>
        <time>2026-08-18T06:25:59.000Z</time>
      </trkpt>
      <trkpt lat="22.905117" lon="111.020506">
        <ele>147.527010</ele>
        <time>2026-08-18T06:26:00.000Z</time>
      </trkpt>
      <trkpt lat="22.905101" lon="111.020550">
        <ele>147.572059</ele>
        <time>2026-08-18T06:26:01.000Z</time>
      </trkpt>
      <trkpt lat="22.905086" lon="111.020595">
        <ele>147.617633</ele>
        <time>2026-08-18T06:26:02.000Z</time>
      </trkpt>
      <trkpt lat="22.905071" lon="111.020639">
        <ele>147.662313</ele>
        <time>2026-08-18T06:26:03.000Z</time>
      </trkpt>
      <trkpt lat="22.905059" lon="111.020686">
        <ele>147.708760</ele>
        <time>2026-08-18T06:26:04.000Z</time>
      </trkpt>
      <trkpt lat="22.905045" lon="111.020733">
        <ele>147.755801</ele>
        <time>2026-08-18T06:26:05.000Z</time>
      </trkpt>
      <trkpt lat="22.905029" lon="111.020779">
        <ele>147.802627</ele>
        <time>2026-08-18T06:26:06.000Z</time>
      </trkpt>
      <trkpt lat="22.905017" lon="111.020826">
        <ele>147.849074</ele>
        <time>2026-08-18T06:26:07.000Z</time>
      </trkpt>
      <trkpt lat="22.905004" lon="111.020873">
        <ele>147.895807</ele>
        <time>2026-08-18T06:26:08.000Z</time>
      </trkpt>
      <trkpt lat="22.904992" lon="111.020920">
        <ele>147.942254</ele>
        <time>2026-08-18T06:26:09.000Z</time>
      </trkpt>
      <trkpt lat="22.904978" lon="111.020968">
        <ele>147.990202</ele>
        <time>2026-08-18T06:26:10.000Z</time>
      </trkpt>
      <trkpt lat="22.904963" lon="111.021015">
        <ele>148.037572</ele>
        <time>2026-08-18T06:26:11.000Z</time>
      </trkpt>
      <trkpt lat="22.904949" lon="111.021062">
        <ele>148.084613</ele>
        <time>2026-08-18T06:26:12.000Z</time>
      </trkpt>
      <trkpt lat="22.904934" lon="111.021109">
        <ele>148.130493</ele>
        <time>2026-08-18T06:26:13.000Z</time>
      </trkpt>
      <trkpt lat="22.904919" lon="111.021155">
        <ele>148.172968</ele>
        <time>2026-08-18T06:26:14.000Z</time>
      </trkpt>
      <trkpt lat="22.904905" lon="111.021201">
        <ele>148.215136</ele>
        <time>2026-08-18T06:26:15.000Z</time>
      </trkpt>
      <trkpt lat="22.904890" lon="111.021246">
        <ele>148.256791</ele>
        <time>2026-08-18T06:26:16.000Z</time>
      </trkpt>
      <trkpt lat="22.904876" lon="111.021293">
        <ele>148.299787</ele>
        <time>2026-08-18T06:26:17.000Z</time>
      </trkpt>
      <trkpt lat="22.904859" lon="111.021340">
        <ele>148.343739</ele>
        <time>2026-08-18T06:26:18.000Z</time>
      </trkpt>
      <trkpt lat="22.904844" lon="111.021387">
        <ele>148.387035</ele>
        <time>2026-08-18T06:26:19.000Z</time>
      </trkpt>
      <trkpt lat="22.904830" lon="111.021434">
        <ele>148.430031</ele>
        <time>2026-08-18T06:26:20.000Z</time>
      </trkpt>
      <trkpt lat="22.904816" lon="111.021481">
        <ele>148.473027</ele>
        <time>2026-08-18T06:26:21.000Z</time>
      </trkpt>
      <trkpt lat="22.904803" lon="111.021527">
        <ele>148.514909</ele>
        <time>2026-08-18T06:26:22.000Z</time>
      </trkpt>
      <trkpt lat="22.904789" lon="111.021574">
        <ele>148.557905</ele>
        <time>2026-08-18T06:26:23.000Z</time>
      </trkpt>
      <trkpt lat="22.904776" lon="111.021621">
        <ele>148.600620</ele>
        <time>2026-08-18T06:26:24.000Z</time>
      </trkpt>
      <trkpt lat="22.904763" lon="111.021670">
        <ele>148.645005</ele>
        <time>2026-08-18T06:26:25.000Z</time>
      </trkpt>
      <trkpt lat="22.904750" lon="111.021718">
        <ele>148.688554</ele>
        <time>2026-08-18T06:26:26.000Z</time>
      </trkpt>
      <trkpt lat="22.904738" lon="111.021767">
        <ele>148.732687</ele>
        <time>2026-08-18T06:26:27.000Z</time>
      </trkpt>
      <trkpt lat="22.904726" lon="111.021815">
        <ele>148.775979</ele>
        <time>2026-08-18T06:26:28.000Z</time>
      </trkpt>
      <trkpt lat="22.904712" lon="111.021863">
        <ele>148.819804</ele>
        <time>2026-08-18T06:26:29.000Z</time>
      </trkpt>
      <trkpt lat="22.904699" lon="111.021910">
        <ele>148.862519</ele>
        <time>2026-08-18T06:26:30.000Z</time>
      </trkpt>
      <trkpt lat="22.904686" lon="111.021957">
        <ele>148.905234</ele>
        <time>2026-08-18T06:26:31.000Z</time>
      </trkpt>
      <trkpt lat="22.904673" lon="111.022004">
        <ele>148.947949</ele>
        <time>2026-08-18T06:26:32.000Z</time>
      </trkpt>
      <trkpt lat="22.904661" lon="111.022049">
        <ele>148.988727</ele>
        <time>2026-08-18T06:26:33.000Z</time>
      </trkpt>
      <trkpt lat="22.904647" lon="111.022096">
        <ele>149.031723</ele>
        <time>2026-08-18T06:26:34.000Z</time>
      </trkpt>
      <trkpt lat="22.904632" lon="111.022143">
        <ele>149.075019</ele>
        <time>2026-08-18T06:26:35.000Z</time>
      </trkpt>
      <trkpt lat="22.904619" lon="111.022192">
        <ele>149.119404</ele>
        <time>2026-08-18T06:26:36.000Z</time>
      </trkpt>
      <trkpt lat="22.904605" lon="111.022241">
        <ele>149.164060</ele>
        <time>2026-08-18T06:26:37.000Z</time>
      </trkpt>
      <trkpt lat="22.904590" lon="111.022289">
        <ele>149.208179</ele>
        <time>2026-08-18T06:26:38.000Z</time>
      </trkpt>
      <trkpt lat="22.904573" lon="111.022337">
        <ele>149.252942</ele>
        <time>2026-08-18T06:26:39.000Z</time>
      </trkpt>
      <trkpt lat="22.904554" lon="111.022383">
        <ele>149.296823</ele>
        <time>2026-08-18T06:26:40.000Z</time>
      </trkpt>
      <trkpt lat="22.904537" lon="111.022429">
        <ele>149.339965</ele>
        <time>2026-08-18T06:26:41.000Z</time>
      </trkpt>
      <trkpt lat="22.904522" lon="111.022478">
        <ele>149.384910</ele>
        <time>2026-08-18T06:26:42.000Z</time>
      </trkpt>
      <trkpt lat="22.904508" lon="111.022525">
        <ele>149.427906</ele>
        <time>2026-08-18T06:26:43.000Z</time>
      </trkpt>
      <trkpt lat="22.904495" lon="111.022574">
        <ele>149.472291</ele>
        <time>2026-08-18T06:26:44.000Z</time>
      </trkpt>
      <trkpt lat="22.904481" lon="111.022622">
        <ele>149.516116</ele>
        <time>2026-08-18T06:26:45.000Z</time>
      </trkpt>
      <trkpt lat="22.904465" lon="111.022671">
        <ele>149.561368</ele>
        <time>2026-08-18T06:26:46.000Z</time>
      </trkpt>
      <trkpt lat="22.904451" lon="111.022722">
        <ele>149.607690</ele>
        <time>2026-08-18T06:26:47.000Z</time>
      </trkpt>
      <trkpt lat="22.904436" lon="111.022772">
        <ele>149.653461</ele>
        <time>2026-08-18T06:26:48.000Z</time>
      </trkpt>
      <trkpt lat="22.904422" lon="111.022821">
        <ele>149.698117</ele>
        <time>2026-08-18T06:26:49.000Z</time>
      </trkpt>
      <trkpt lat="22.904409" lon="111.022870">
        <ele>149.742502</ele>
        <time>2026-08-18T06:26:50.000Z</time>
      </trkpt>
      <trkpt lat="22.904393" lon="111.022917">
        <ele>149.786117</ele>
        <time>2026-08-18T06:26:51.000Z</time>
      </trkpt>
      <trkpt lat="22.904379" lon="111.022965">
        <ele>149.831708</ele>
        <time>2026-08-18T06:26:52.000Z</time>
      </trkpt>
      <trkpt lat="22.904365" lon="111.023012">
        <ele>149.879546</ele>
        <time>2026-08-18T06:26:53.000Z</time>
      </trkpt>
      <trkpt lat="22.904352" lon="111.023058">
        <ele>149.926145</ele>
        <time>2026-08-18T06:26:54.000Z</time>
      </trkpt>
      <trkpt lat="22.904340" lon="111.023106">
        <ele>149.974312</ele>
        <time>2026-08-18T06:26:55.000Z</time>
      </trkpt>
      <trkpt lat="22.904328" lon="111.023151">
        <ele>150.019682</ele>
        <time>2026-08-18T06:26:56.000Z</time>
      </trkpt>
      <trkpt lat="22.904315" lon="111.023197">
        <ele>150.066281</ele>
        <time>2026-08-18T06:26:57.000Z</time>
      </trkpt>
      <trkpt lat="22.904302" lon="111.023245">
        <ele>150.114734</ele>
        <time>2026-08-18T06:26:58.000Z</time>
      </trkpt>
      <trkpt lat="22.904288" lon="111.023292">
        <ele>150.162572</ele>
        <time>2026-08-18T06:26:59.000Z</time>
      </trkpt>
      <trkpt lat="22.904274" lon="111.023338">
        <ele>150.209490</ele>
        <time>2026-08-18T06:27:00.000Z</time>
      </trkpt>
      <trkpt lat="22.904260" lon="111.023385">
        <ele>150.257328</ele>
        <time>2026-08-18T06:27:01.000Z</time>
      </trkpt>
      <trkpt lat="22.904247" lon="111.023431">
        <ele>150.303927</ele>
        <time>2026-08-18T06:27:02.000Z</time>
      </trkpt>
      <trkpt lat="22.904233" lon="111.023476">
        <ele>150.349926</ele>
        <time>2026-08-18T06:27:03.000Z</time>
      </trkpt>
      <trkpt lat="22.904216" lon="111.023520">
        <ele>150.396134</ele>
        <time>2026-08-18T06:27:04.000Z</time>
      </trkpt>
      <trkpt lat="22.904201" lon="111.023565">
        <ele>150.442481</ele>
        <time>2026-08-18T06:27:05.000Z</time>
      </trkpt>
      <trkpt lat="22.904187" lon="111.023611">
        <ele>150.489398</ele>
        <time>2026-08-18T06:27:06.000Z</time>
      </trkpt>
      <trkpt lat="22.904175" lon="111.023658">
        <ele>150.536632</ele>
        <time>2026-08-18T06:27:07.000Z</time>
      </trkpt>
      <trkpt lat="22.904161" lon="111.023704">
        <ele>150.583550</ele>
        <time>2026-08-18T06:27:08.000Z</time>
      </trkpt>
      <trkpt lat="22.904148" lon="111.023751">
        <ele>150.631075</ele>
        <time>2026-08-18T06:27:09.000Z</time>
      </trkpt>
      <trkpt lat="22.904133" lon="111.023799">
        <ele>150.680163</ele>
        <time>2026-08-18T06:27:10.000Z</time>
      </trkpt>
      <trkpt lat="22.904119" lon="111.023846">
        <ele>150.728001</ele>
        <time>2026-08-18T06:27:11.000Z</time>
      </trkpt>
      <trkpt lat="22.904105" lon="111.023894">
        <ele>150.776762</ele>
        <time>2026-08-18T06:27:12.000Z</time>
      </trkpt>
      <trkpt lat="22.904091" lon="111.023942">
        <ele>150.825523</ele>
        <time>2026-08-18T06:27:13.000Z</time>
      </trkpt>
      <trkpt lat="22.904077" lon="111.023990">
        <ele>150.874283</ele>
        <time>2026-08-18T06:27:14.000Z</time>
      </trkpt>
      <trkpt lat="22.904062" lon="111.024038">
        <ele>150.923372</ele>
        <time>2026-08-18T06:27:15.000Z</time>
      </trkpt>
      <trkpt lat="22.904048" lon="111.024086">
        <ele>150.972132</ele>
        <time>2026-08-18T06:27:16.000Z</time>
      </trkpt>
      <trkpt lat="22.904035" lon="111.024134">
        <ele>151.020586</ele>
        <time>2026-08-18T06:27:17.000Z</time>
      </trkpt>
      <trkpt lat="22.904020" lon="111.024183">
        <ele>151.070592</ele>
        <time>2026-08-18T06:27:18.000Z</time>
      </trkpt>
      <trkpt lat="22.904008" lon="111.024233">
        <ele>151.120632</ele>
        <time>2026-08-18T06:27:19.000Z</time>
      </trkpt>
      <trkpt lat="22.903996" lon="111.024281">
        <ele>151.168799</ele>
        <time>2026-08-18T06:27:20.000Z</time>
      </trkpt>
      <trkpt lat="22.903982" lon="111.024329">
        <ele>151.217560</ele>
        <time>2026-08-18T06:27:21.000Z</time>
      </trkpt>
      <trkpt lat="22.903969" lon="111.024377">
        <ele>151.266014</ele>
        <time>2026-08-18T06:27:22.000Z</time>
      </trkpt>
      <trkpt lat="22.903955" lon="111.024427">
        <ele>151.316624</ele>
        <time>2026-08-18T06:27:23.000Z</time>
      </trkpt>
      <trkpt lat="22.903942" lon="111.024477">
        <ele>151.366939</ele>
        <time>2026-08-18T06:27:24.000Z</time>
      </trkpt>
      <trkpt lat="22.903929" lon="111.024527">
        <ele>151.417254</ele>
        <time>2026-08-18T06:27:25.000Z</time>
      </trkpt>
      <trkpt lat="22.903916" lon="111.024578">
        <ele>151.468502</ele>
        <time>2026-08-18T06:27:26.000Z</time>
      </trkpt>
      <trkpt lat="22.903903" lon="111.024627">
        <ele>151.517885</ele>
        <time>2026-08-18T06:27:27.000Z</time>
      </trkpt>
      <trkpt lat="22.903891" lon="111.024675">
        <ele>151.566053</ele>
        <time>2026-08-18T06:27:28.000Z</time>
      </trkpt>
      <trkpt lat="22.903878" lon="111.024723">
        <ele>151.614507</ele>
        <time>2026-08-18T06:27:29.000Z</time>
      </trkpt>
      <trkpt lat="22.903866" lon="111.024772">
        <ele>151.663610</ele>
        <time>2026-08-18T06:27:30.000Z</time>
      </trkpt>
      <trkpt lat="22.903852" lon="111.024820">
        <ele>151.704602</ele>
        <time>2026-08-18T06:27:31.000Z</time>
      </trkpt>
      <trkpt lat="22.903838" lon="111.024868">
        <ele>151.700035</ele>
        <time>2026-08-18T06:27:32.000Z</time>
      </trkpt>
      <trkpt lat="22.903825" lon="111.024917">
        <ele>151.695410</ele>
        <time>2026-08-18T06:27:33.000Z</time>
      </trkpt>
      <trkpt lat="22.903812" lon="111.024968">
        <ele>151.690610</ele>
        <time>2026-08-18T06:27:34.000Z</time>
      </trkpt>
      <trkpt lat="22.903799" lon="111.025017">
        <ele>151.685985</ele>
        <time>2026-08-18T06:27:35.000Z</time>
      </trkpt>
      <trkpt lat="22.903784" lon="111.025066">
        <ele>151.681301</ele>
        <time>2026-08-18T06:27:36.000Z</time>
      </trkpt>
      <trkpt lat="22.903772" lon="111.025113">
        <ele>151.676877</ele>
        <time>2026-08-18T06:27:37.000Z</time>
      </trkpt>
      <trkpt lat="22.903762" lon="111.025160">
        <ele>151.672502</ele>
        <time>2026-08-18T06:27:38.000Z</time>
      </trkpt>
      <trkpt lat="22.903751" lon="111.025208">
        <ele>151.668015</ele>
        <time>2026-08-18T06:27:39.000Z</time>
      </trkpt>
      <trkpt lat="22.903741" lon="111.025255">
        <ele>151.663640</ele>
        <time>2026-08-18T06:27:40.000Z</time>
      </trkpt>
      <trkpt lat="22.903728" lon="111.025304">
        <ele>151.659014</ele>
        <time>2026-08-18T06:27:41.000Z</time>
      </trkpt>
      <trkpt lat="22.903714" lon="111.025353">
        <ele>151.654361</ele>
        <time>2026-08-18T06:27:42.000Z</time>
      </trkpt>
      <trkpt lat="22.903696" lon="111.025401">
        <ele>151.649660</ele>
        <time>2026-08-18T06:27:43.000Z</time>
      </trkpt>
      <trkpt lat="22.903680" lon="111.025449">
        <ele>151.645030</ele>
        <time>2026-08-18T06:27:44.000Z</time>
      </trkpt>
      <trkpt lat="22.903666" lon="111.025498">
        <ele>151.640376</ele>
        <time>2026-08-18T06:27:45.000Z</time>
      </trkpt>
      <trkpt lat="22.903652" lon="111.025545">
        <ele>151.635895</ele>
        <time>2026-08-18T06:27:46.000Z</time>
      </trkpt>
      <trkpt lat="22.903639" lon="111.025593">
        <ele>151.631357</ele>
        <time>2026-08-18T06:27:47.000Z</time>
      </trkpt>
      <trkpt lat="22.903626" lon="111.025641">
        <ele>151.626819</ele>
        <time>2026-08-18T06:27:48.000Z</time>
      </trkpt>
      <trkpt lat="22.903614" lon="111.025692">
        <ele>151.622044</ele>
        <time>2026-08-18T06:27:49.000Z</time>
      </trkpt>
      <trkpt lat="22.903602" lon="111.025742">
        <ele>151.617358</ele>
        <time>2026-08-18T06:27:50.000Z</time>
      </trkpt>
      <trkpt lat="22.903589" lon="111.025791">
        <ele>151.612732</ele>
        <time>2026-08-18T06:27:51.000Z</time>
      </trkpt>
      <trkpt lat="22.903577" lon="111.025839">
        <ele>151.608221</ele>
        <time>2026-08-18T06:27:52.000Z</time>
      </trkpt>
      <trkpt lat="22.903564" lon="111.025889">
        <ele>151.603508</ele>
        <time>2026-08-18T06:27:53.000Z</time>
      </trkpt>
      <trkpt lat="22.903548" lon="111.025937">
        <ele>151.598878</ele>
        <time>2026-08-18T06:27:54.000Z</time>
      </trkpt>
      <trkpt lat="22.903533" lon="111.025987">
        <ele>151.594108</ele>
        <time>2026-08-18T06:27:55.000Z</time>
      </trkpt>
      <trkpt lat="22.903518" lon="111.026035">
        <ele>151.589511</ele>
        <time>2026-08-18T06:27:56.000Z</time>
      </trkpt>
      <trkpt lat="22.903501" lon="111.026085">
        <ele>151.584676</ele>
        <time>2026-08-18T06:27:57.000Z</time>
      </trkpt>
      <trkpt lat="22.903485" lon="111.026135">
        <ele>151.579875</ele>
        <time>2026-08-18T06:27:58.000Z</time>
      </trkpt>
      <trkpt lat="22.903469" lon="111.026184">
        <ele>151.575159</ele>
        <time>2026-08-18T06:27:59.000Z</time>
      </trkpt>
      <trkpt lat="22.903453" lon="111.026235">
        <ele>151.570272</ele>
        <time>2026-08-18T06:28:00.000Z</time>
      </trkpt>
      <trkpt lat="22.903439" lon="111.026286">
        <ele>151.565445</ele>
        <time>2026-08-18T06:28:01.000Z</time>
      </trkpt>
      <trkpt lat="22.903424" lon="111.026338">
        <ele>151.560503</ele>
        <time>2026-08-18T06:28:02.000Z</time>
      </trkpt>
      <trkpt lat="22.903410" lon="111.026391">
        <ele>151.555501</ele>
        <time>2026-08-18T06:28:03.000Z</time>
      </trkpt>
      <trkpt lat="22.903395" lon="111.026444">
        <ele>151.550472</ele>
        <time>2026-08-18T06:28:04.000Z</time>
      </trkpt>
      <trkpt lat="22.903380" lon="111.026496">
        <ele>151.545529</ele>
        <time>2026-08-18T06:28:05.000Z</time>
      </trkpt>
      <trkpt lat="22.903366" lon="111.026548">
        <ele>151.540615</ele>
        <time>2026-08-18T06:28:06.000Z</time>
      </trkpt>
      <trkpt lat="22.903350" lon="111.026599">
        <ele>151.535728</ele>
        <time>2026-08-18T06:28:07.000Z</time>
      </trkpt>
      <trkpt lat="22.903335" lon="111.026651">
        <ele>151.530786</ele>
        <time>2026-08-18T06:28:08.000Z</time>
      </trkpt>
      <trkpt lat="22.903322" lon="111.026705">
        <ele>151.497911</ele>
        <time>2026-08-18T06:28:09.000Z</time>
      </trkpt>
      <trkpt lat="22.903307" lon="111.026758">
        <ele>151.435353</ele>
        <time>2026-08-18T06:28:10.000Z</time>
      </trkpt>
      <trkpt lat="22.903292" lon="111.026809">
        <ele>151.374949</ele>
        <time>2026-08-18T06:28:11.000Z</time>
      </trkpt>
      <trkpt lat="22.903274" lon="111.026862">
        <ele>151.311215</ele>
        <time>2026-08-18T06:28:12.000Z</time>
      </trkpt>
      <trkpt lat="22.903261" lon="111.026916">
        <ele>151.248242</ele>
        <time>2026-08-18T06:28:13.000Z</time>
      </trkpt>
      <trkpt lat="22.903248" lon="111.026970">
        <ele>151.185268</ele>
        <time>2026-08-18T06:28:14.000Z</time>
      </trkpt>
      <trkpt lat="22.903233" lon="111.027023">
        <ele>151.122711</ele>
        <time>2026-08-18T06:28:15.000Z</time>
      </trkpt>
      <trkpt lat="22.903218" lon="111.027076">
        <ele>151.060153</ele>
        <time>2026-08-18T06:28:16.000Z</time>
      </trkpt>
      <trkpt lat="22.903202" lon="111.027129">
        <ele>150.997225</ele>
        <time>2026-08-18T06:28:17.000Z</time>
      </trkpt>
      <trkpt lat="22.903188" lon="111.027181">
        <ele>150.936099</ele>
        <time>2026-08-18T06:28:18.000Z</time>
      </trkpt>
      <trkpt lat="22.903175" lon="111.027233">
        <ele>150.875306</ele>
        <time>2026-08-18T06:28:19.000Z</time>
      </trkpt>
      <trkpt lat="22.903159" lon="111.027286">
        <ele>150.812378</ele>
        <time>2026-08-18T06:28:20.000Z</time>
      </trkpt>
      <trkpt lat="22.903143" lon="111.027341">
        <ele>150.747302</ele>
        <time>2026-08-18T06:28:21.000Z</time>
      </trkpt>
      <trkpt lat="22.903126" lon="111.027396">
        <ele>150.681846</ele>
        <time>2026-08-18T06:28:22.000Z</time>
      </trkpt>
      <trkpt lat="22.903110" lon="111.027450">
        <ele>150.617844</ele>
        <time>2026-08-18T06:28:23.000Z</time>
      </trkpt>
      <trkpt lat="22.903093" lon="111.027506">
        <ele>150.551318</ele>
        <time>2026-08-18T06:28:24.000Z</time>
      </trkpt>
      <trkpt lat="22.903077" lon="111.027562">
        <ele>150.485165</ele>
        <time>2026-08-18T06:28:25.000Z</time>
      </trkpt>
      <trkpt lat="22.903062" lon="111.027618">
        <ele>150.419364</ele>
        <time>2026-08-18T06:28:26.000Z</time>
      </trkpt>
      <trkpt lat="22.903046" lon="111.027674">
        <ele>150.353211</ele>
        <time>2026-08-18T06:28:27.000Z</time>
      </trkpt>
      <trkpt lat="22.903028" lon="111.027730">
        <ele>150.286291</ele>
        <time>2026-08-18T06:28:28.000Z</time>
      </trkpt>
      <trkpt lat="22.903010" lon="111.027787">
        <ele>150.218305</ele>
        <time>2026-08-18T06:28:29.000Z</time>
      </trkpt>
      <trkpt lat="22.902993" lon="111.027844">
        <ele>150.150706</ele>
        <time>2026-08-18T06:28:30.000Z</time>
      </trkpt>
      <trkpt lat="22.902977" lon="111.027902">
        <ele>150.082394</ele>
        <time>2026-08-18T06:28:31.000Z</time>
      </trkpt>
      <trkpt lat="22.902964" lon="111.027959">
        <ele>150.016140</ele>
        <time>2026-08-18T06:28:32.000Z</time>
      </trkpt>
      <trkpt lat="22.902952" lon="111.028016">
        <ele>149.950169</ele>
        <time>2026-08-18T06:28:33.000Z</time>
      </trkpt>
      <trkpt lat="22.902939" lon="111.028074">
        <ele>149.882820</ele>
        <time>2026-08-18T06:28:34.000Z</time>
      </trkpt>
      <trkpt lat="22.902925" lon="111.028130">
        <ele>149.817350</ele>
        <time>2026-08-18T06:28:35.000Z</time>
      </trkpt>
      <trkpt lat="22.902909" lon="111.028186">
        <ele>149.751197</ele>
        <time>2026-08-18T06:28:36.000Z</time>
      </trkpt>
      <trkpt lat="22.902892" lon="111.028246">
        <ele>149.680370</ele>
        <time>2026-08-18T06:28:37.000Z</time>
      </trkpt>
      <trkpt lat="22.902872" lon="111.028303">
        <ele>149.611550</ele>
        <time>2026-08-18T06:28:38.000Z</time>
      </trkpt>
      <trkpt lat="22.902851" lon="111.028359">
        <ele>149.543331</ele>
        <time>2026-08-18T06:28:39.000Z</time>
      </trkpt>
      <trkpt lat="22.902834" lon="111.028418">
        <ele>149.473582</ele>
        <time>2026-08-18T06:28:40.000Z</time>
      </trkpt>
      <trkpt lat="22.902816" lon="111.028479">
        <ele>149.401312</ele>
        <time>2026-08-18T06:28:41.000Z</time>
      </trkpt>
      <trkpt lat="22.902796" lon="111.028540">
        <ele>149.328257</ele>
        <time>2026-08-18T06:28:42.000Z</time>
      </trkpt>
      <trkpt lat="22.902777" lon="111.028600">
        <ele>149.285733</ele>
        <time>2026-08-18T06:28:43.000Z</time>
      </trkpt>
      <trkpt lat="22.902758" lon="111.028661">
        <ele>149.243937</ele>
        <time>2026-08-18T06:28:44.000Z</time>
      </trkpt>
      <trkpt lat="22.902739" lon="111.028724">
        <ele>149.200909</ele>
        <time>2026-08-18T06:28:45.000Z</time>
      </trkpt>
      <trkpt lat="22.902720" lon="111.028787">
        <ele>149.157880</ele>
        <time>2026-08-18T06:28:46.000Z</time>
      </trkpt>
      <trkpt lat="22.902700" lon="111.028850">
        <ele>149.114628</ele>
        <time>2026-08-18T06:28:47.000Z</time>
      </trkpt>
      <trkpt lat="22.902682" lon="111.028913">
        <ele>149.071813</ele>
        <time>2026-08-18T06:28:48.000Z</time>
      </trkpt>
      <trkpt lat="22.902663" lon="111.028976">
        <ele>149.028785</ele>
        <time>2026-08-18T06:28:49.000Z</time>
      </trkpt>
      <trkpt lat="22.902643" lon="111.029041">
        <ele>148.984303</ele>
        <time>2026-08-18T06:28:50.000Z</time>
      </trkpt>
      <trkpt lat="22.902624" lon="111.029106">
        <ele>148.940039</ele>
        <time>2026-08-18T06:28:51.000Z</time>
      </trkpt>
      <trkpt lat="22.902602" lon="111.029171">
        <ele>148.895091</ele>
        <time>2026-08-18T06:28:52.000Z</time>
      </trkpt>
      <trkpt lat="22.902580" lon="111.029237">
        <ele>148.849532</ele>
        <time>2026-08-18T06:28:53.000Z</time>
      </trkpt>
      <trkpt lat="22.902558" lon="111.029303">
        <ele>148.803974</ele>
        <time>2026-08-18T06:28:54.000Z</time>
      </trkpt>
      <trkpt lat="22.902536" lon="111.029367">
        <ele>148.759634</ele>
        <time>2026-08-18T06:28:55.000Z</time>
      </trkpt>
      <trkpt lat="22.902514" lon="111.029432">
        <ele>148.714686</ele>
        <time>2026-08-18T06:28:56.000Z</time>
      </trkpt>
      <trkpt lat="22.902491" lon="111.029496">
        <ele>148.670095</ele>
        <time>2026-08-18T06:28:57.000Z</time>
      </trkpt>
      <trkpt lat="22.902467" lon="111.029560">
        <ele>148.625243</ele>
        <time>2026-08-18T06:28:58.000Z</time>
      </trkpt>
      <trkpt lat="22.902444" lon="111.029624">
        <ele>148.580652</ele>
        <time>2026-08-18T06:28:59.000Z</time>
      </trkpt>
      <trkpt lat="22.902419" lon="111.029687">
        <ele>148.536127</ele>
        <time>2026-08-18T06:29:00.000Z</time>
      </trkpt>
      <trkpt lat="22.902395" lon="111.029749">
        <ele>148.492474</ele>
        <time>2026-08-18T06:29:01.000Z</time>
      </trkpt>
      <trkpt lat="22.902372" lon="111.029808">
        <ele>148.450890</ele>
        <time>2026-08-18T06:29:02.000Z</time>
      </trkpt>
      <trkpt lat="22.902348" lon="111.029868">
        <ele>148.408432</ele>
        <time>2026-08-18T06:29:03.000Z</time>
      </trkpt>
      <trkpt lat="22.902322" lon="111.029929">
        <ele>148.364804</ele>
        <time>2026-08-18T06:29:04.000Z</time>
      </trkpt>
      <trkpt lat="22.902298" lon="111.029987">
        <ele>148.323533</ele>
        <time>2026-08-18T06:29:05.000Z</time>
      </trkpt>
      <trkpt lat="22.902270" lon="111.030049">
        <ele>148.278713</ele>
        <time>2026-08-18T06:29:06.000Z</time>
      </trkpt>
      <trkpt lat="22.902245" lon="111.030106">
        <ele>148.237736</ele>
        <time>2026-08-18T06:29:07.000Z</time>
      </trkpt>
      <trkpt lat="22.902220" lon="111.030164">
        <ele>148.196171</ele>
        <time>2026-08-18T06:29:08.000Z</time>
      </trkpt>
      <trkpt lat="22.902194" lon="111.030221">
        <ele>148.154885</ele>
        <time>2026-08-18T06:29:09.000Z</time>
      </trkpt>
      <trkpt lat="22.902166" lon="111.030276">
        <ele>148.114096</ele>
        <time>2026-08-18T06:29:10.000Z</time>
      </trkpt>
      <trkpt lat="22.902138" lon="111.030331">
        <ele>148.073307</ele>
        <time>2026-08-18T06:29:11.000Z</time>
      </trkpt>
      <trkpt lat="22.902112" lon="111.030386">
        <ele>148.085117</ele>
        <time>2026-08-18T06:29:12.000Z</time>
      </trkpt>
      <trkpt lat="22.902086" lon="111.030438">
        <ele>148.128020</ele>
        <time>2026-08-18T06:29:13.000Z</time>
      </trkpt>
      <trkpt lat="22.902061" lon="111.030492">
        <ele>148.171844</ele>
        <time>2026-08-18T06:29:14.000Z</time>
      </trkpt>
      <trkpt lat="22.902043" lon="111.030542">
        <ele>148.210771</ele>
        <time>2026-08-18T06:29:15.000Z</time>
      </trkpt>
      <trkpt lat="22.902024" lon="111.030594">
        <ele>148.251336</ele>
        <time>2026-08-18T06:29:16.000Z</time>
      </trkpt>
      <trkpt lat="22.902002" lon="111.030644">
        <ele>148.291516</ele>
        <time>2026-08-18T06:29:17.000Z</time>
      </trkpt>
      <trkpt lat="22.901980" lon="111.030696">
        <ele>148.333010</ele>
        <time>2026-08-18T06:29:18.000Z</time>
      </trkpt>
      <trkpt lat="22.901961" lon="111.030747">
        <ele>148.372901</ele>
        <time>2026-08-18T06:29:19.000Z</time>
      </trkpt>
      <trkpt lat="22.901945" lon="111.030801">
        <ele>148.414034</ele>
        <time>2026-08-18T06:29:20.000Z</time>
      </trkpt>
      <trkpt lat="22.901921" lon="111.030850">
        <ele>148.454276</ele>
        <time>2026-08-18T06:29:21.000Z</time>
      </trkpt>
      <trkpt lat="22.901899" lon="111.030902">
        <ele>148.495770</ele>
        <time>2026-08-18T06:29:22.000Z</time>
      </trkpt>
      <trkpt lat="22.901875" lon="111.030951">
        <ele>148.536012</ele>
        <time>2026-08-18T06:29:23.000Z</time>
      </trkpt>
      <trkpt lat="22.901850" lon="111.031001">
        <ele>148.577265</ele>
        <time>2026-08-18T06:29:24.000Z</time>
      </trkpt>
      <trkpt lat="22.901833" lon="111.031049">
        <ele>148.614555</ele>
        <time>2026-08-18T06:29:25.000Z</time>
      </trkpt>
      <trkpt lat="22.901811" lon="111.031096">
        <ele>148.652784</ele>
        <time>2026-08-18T06:29:26.000Z</time>
      </trkpt>
      <trkpt lat="22.901789" lon="111.031144">
        <ele>148.691661</ele>
        <time>2026-08-18T06:29:27.000Z</time>
      </trkpt>
      <trkpt lat="22.901766" lon="111.031191">
        <ele>148.730253</ele>
        <time>2026-08-18T06:29:28.000Z</time>
      </trkpt>
      <trkpt lat="22.901745" lon="111.031239">
        <ele>148.768785</ele>
        <time>2026-08-18T06:29:29.000Z</time>
      </trkpt>
      <trkpt lat="22.901725" lon="111.031287">
        <ele>148.806987</ele>
        <time>2026-08-18T06:29:30.000Z</time>
      </trkpt>
      <trkpt lat="22.901704" lon="111.031337">
        <ele>148.846834</ele>
        <time>2026-08-18T06:29:31.000Z</time>
      </trkpt>
      <trkpt lat="22.901683" lon="111.031387">
        <ele>148.886681</ele>
        <time>2026-08-18T06:29:32.000Z</time>
      </trkpt>
      <trkpt lat="22.901661" lon="111.031437">
        <ele>148.926862</ele>
        <time>2026-08-18T06:29:33.000Z</time>
      </trkpt>
      <trkpt lat="22.901639" lon="111.031487">
        <ele>148.967042</ele>
        <time>2026-08-18T06:29:34.000Z</time>
      </trkpt>
      <trkpt lat="22.901616" lon="111.031534">
        <ele>149.005634</ele>
        <time>2026-08-18T06:29:35.000Z</time>
      </trkpt>
      <trkpt lat="22.901595" lon="111.031581">
        <ele>149.043513</ele>
        <time>2026-08-18T06:29:36.000Z</time>
      </trkpt>
      <trkpt lat="22.901573" lon="111.031628">
        <ele>149.081742</ele>
        <time>2026-08-18T06:29:37.000Z</time>
      </trkpt>
      <trkpt lat="22.901551" lon="111.031676">
        <ele>149.120618</ele>
        <time>2026-08-18T06:29:38.000Z</time>
      </trkpt>
      <trkpt lat="22.901529" lon="111.031725">
        <ele>149.160146</ele>
        <time>2026-08-18T06:29:39.000Z</time>
      </trkpt>
      <trkpt lat="22.901506" lon="111.031772">
        <ele>149.198738</ele>
        <time>2026-08-18T06:29:40.000Z</time>
      </trkpt>
      <trkpt lat="22.901483" lon="111.031818">
        <ele>149.236691</ele>
        <time>2026-08-18T06:29:41.000Z</time>
      </trkpt>
      <trkpt lat="22.901460" lon="111.031865">
        <ele>149.275283</ele>
        <time>2026-08-18T06:29:42.000Z</time>
      </trkpt>
      <trkpt lat="22.901441" lon="111.031908">
        <ele>149.309865</ele>
        <time>2026-08-18T06:29:43.000Z</time>
      </trkpt>
      <trkpt lat="22.901419" lon="111.031952">
        <ele>149.346168</ele>
        <time>2026-08-18T06:29:44.000Z</time>
      </trkpt>
      <trkpt lat="22.901401" lon="111.031997">
        <ele>149.381743</ele>
        <time>2026-08-18T06:29:45.000Z</time>
      </trkpt>
      <trkpt lat="22.901380" lon="111.032044">
        <ele>149.419621</ele>
        <time>2026-08-18T06:29:46.000Z</time>
      </trkpt>
      <trkpt lat="22.901360" lon="111.032091">
        <ele>149.457163</ele>
        <time>2026-08-18T06:29:47.000Z</time>
      </trkpt>
      <trkpt lat="22.901339" lon="111.032137">
        <ele>149.483132</ele>
        <time>2026-08-18T06:29:48.000Z</time>
      </trkpt>
      <trkpt lat="22.901319" lon="111.032182">
        <ele>149.499765</ele>
        <time>2026-08-18T06:29:49.000Z</time>
      </trkpt>
      <trkpt lat="22.901299" lon="111.032227">
        <ele>149.516398</ele>
        <time>2026-08-18T06:29:50.000Z</time>
      </trkpt>
      <trkpt lat="22.901278" lon="111.032274">
        <ele>149.533788</ele>
        <time>2026-08-18T06:29:51.000Z</time>
      </trkpt>
      <trkpt lat="22.901258" lon="111.032320">
        <ele>149.550722</ele>
        <time>2026-08-18T06:29:52.000Z</time>
      </trkpt>
      <trkpt lat="22.901237" lon="111.032366">
        <ele>149.567813</ele>
        <time>2026-08-18T06:29:53.000Z</time>
      </trkpt>
      <trkpt lat="22.901216" lon="111.032412">
        <ele>149.584904</ele>
        <time>2026-08-18T06:29:54.000Z</time>
      </trkpt>
      <trkpt lat="22.901195" lon="111.032457">
        <ele>149.601697</ele>
        <time>2026-08-18T06:29:55.000Z</time>
      </trkpt>
      <trkpt lat="22.901175" lon="111.032502">
        <ele>149.618330</ele>
        <time>2026-08-18T06:29:56.000Z</time>
      </trkpt>
      <trkpt lat="22.901154" lon="111.032551">
        <ele>149.636322</ele>
        <time>2026-08-18T06:29:57.000Z</time>
      </trkpt>
      <trkpt lat="22.901134" lon="111.032600">
        <ele>149.654164</ele>
        <time>2026-08-18T06:29:58.000Z</time>
      </trkpt>
      <trkpt lat="22.901114" lon="111.032648">
        <ele>149.671702</ele>
        <time>2026-08-18T06:29:59.000Z</time>
      </trkpt>
      <trkpt lat="22.901094" lon="111.032698">
        <ele>149.689849</ele>
        <time>2026-08-18T06:30:00.000Z</time>
      </trkpt>
      <trkpt lat="22.901073" lon="111.032747">
        <ele>149.707840</ele>
        <time>2026-08-18T06:30:01.000Z</time>
      </trkpt>
      <trkpt lat="22.901053" lon="111.032795">
        <ele>149.725378</ele>
        <time>2026-08-18T06:30:02.000Z</time>
      </trkpt>
      <trkpt lat="22.901035" lon="111.032844">
        <ele>149.742940</ele>
        <time>2026-08-18T06:30:03.000Z</time>
      </trkpt>
      <trkpt lat="22.901018" lon="111.032893">
        <ele>149.760371</ele>
        <time>2026-08-18T06:30:04.000Z</time>
      </trkpt>
      <trkpt lat="22.901001" lon="111.032943">
        <ele>149.778114</ele>
        <time>2026-08-18T06:30:05.000Z</time>
      </trkpt>
      <trkpt lat="22.900985" lon="111.032993">
        <ele>149.795735</ele>
        <time>2026-08-18T06:30:06.000Z</time>
      </trkpt>
      <trkpt lat="22.900968" lon="111.033043">
        <ele>149.813477</ele>
        <time>2026-08-18T06:30:07.000Z</time>
      </trkpt>
      <trkpt lat="22.900953" lon="111.033093">
        <ele>149.830983</ele>
        <time>2026-08-18T06:30:08.000Z</time>
      </trkpt>
      <trkpt lat="22.900937" lon="111.033144">
        <ele>149.848919</ele>
        <time>2026-08-18T06:30:09.000Z</time>
      </trkpt>
      <trkpt lat="22.900922" lon="111.033197">
        <ele>149.867377</ele>
        <time>2026-08-18T06:30:10.000Z</time>
      </trkpt>
      <trkpt lat="22.900906" lon="111.033249">
        <ele>149.885628</ele>
        <time>2026-08-18T06:30:11.000Z</time>
      </trkpt>
      <trkpt lat="22.900891" lon="111.033301">
        <ele>149.903768</ele>
        <time>2026-08-18T06:30:12.000Z</time>
      </trkpt>
      <trkpt lat="22.900877" lon="111.033354">
        <ele>149.922123</ele>
        <time>2026-08-18T06:30:13.000Z</time>
      </trkpt>
      <trkpt lat="22.900862" lon="111.033406">
        <ele>149.940263</ele>
        <time>2026-08-18T06:30:14.000Z</time>
      </trkpt>
      <trkpt lat="22.900848" lon="111.033458">
        <ele>149.958299</ele>
        <time>2026-08-18T06:30:15.000Z</time>
      </trkpt>
      <trkpt lat="22.900834" lon="111.033509">
        <ele>149.976015</ele>
        <time>2026-08-18T06:30:16.000Z</time>
      </trkpt>
      <trkpt lat="22.900820" lon="111.033561">
        <ele>149.994050</ele>
        <time>2026-08-18T06:30:17.000Z</time>
      </trkpt>
      <trkpt lat="22.900805" lon="111.033614">
        <ele>150.012508</ele>
        <time>2026-08-18T06:30:18.000Z</time>
      </trkpt>
      <trkpt lat="22.900790" lon="111.033666">
        <ele>150.030648</ele>
        <time>2026-08-18T06:30:19.000Z</time>
      </trkpt>
      <trkpt lat="22.900778" lon="111.033720">
        <ele>150.049141</ele>
        <time>2026-08-18T06:30:20.000Z</time>
      </trkpt>
      <trkpt lat="22.900767" lon="111.033773">
        <ele>150.067227</ele>
        <time>2026-08-18T06:30:21.000Z</time>
      </trkpt>
      <trkpt lat="22.900758" lon="111.033825">
        <ele>150.084841</ele>
        <time>2026-08-18T06:30:22.000Z</time>
      </trkpt>
      <trkpt lat="22.900748" lon="111.033877">
        <ele>150.102526</ele>
        <time>2026-08-18T06:30:23.000Z</time>
      </trkpt>
      <trkpt lat="22.900740" lon="111.033928">
        <ele>150.119748</ele>
        <time>2026-08-18T06:30:24.000Z</time>
      </trkpt>
      <trkpt lat="22.900732" lon="111.033979">
        <ele>150.095985</ele>
        <time>2026-08-18T06:30:25.000Z</time>
      </trkpt>
      <trkpt lat="22.900723" lon="111.034030">
        <ele>150.060325</ele>
        <time>2026-08-18T06:30:26.000Z</time>
      </trkpt>
      <trkpt lat="22.900716" lon="111.034081">
        <ele>150.024916</ele>
        <time>2026-08-18T06:30:27.000Z</time>
      </trkpt>
      <trkpt lat="22.900709" lon="111.034130">
        <ele>149.990864</ele>
        <time>2026-08-18T06:30:28.000Z</time>
      </trkpt>
      <trkpt lat="22.900700" lon="111.034181">
        <ele>149.955205</ele>
        <time>2026-08-18T06:30:29.000Z</time>
      </trkpt>
      <trkpt lat="22.900693" lon="111.034233">
        <ele>149.919116</ele>
        <time>2026-08-18T06:30:30.000Z</time>
      </trkpt>
      <trkpt lat="22.900686" lon="111.034286">
        <ele>149.882347</ele>
        <time>2026-08-18T06:30:31.000Z</time>
      </trkpt>
      <trkpt lat="22.900679" lon="111.034338">
        <ele>149.846259</ele>
        <time>2026-08-18T06:30:32.000Z</time>
      </trkpt>
      <trkpt lat="22.900675" lon="111.034392">
        <ele>149.809056</ele>
        <time>2026-08-18T06:30:33.000Z</time>
      </trkpt>
      <trkpt lat="22.900671" lon="111.034448">
        <ele>149.770484</ele>
        <time>2026-08-18T06:30:34.000Z</time>
      </trkpt>
      <trkpt lat="22.900667" lon="111.034502">
        <ele>149.733282</ele>
        <time>2026-08-18T06:30:35.000Z</time>
      </trkpt>
      <trkpt lat="22.900656" lon="111.034552">
        <ele>149.697980</ele>
        <time>2026-08-18T06:30:36.000Z</time>
      </trkpt>
      <trkpt lat="22.900650" lon="111.034608">
        <ele>149.659264</ele>
        <time>2026-08-18T06:30:37.000Z</time>
      </trkpt>
      <trkpt lat="22.900645" lon="111.034666">
        <ele>149.619261</ele>
        <time>2026-08-18T06:30:38.000Z</time>
      </trkpt>
      <trkpt lat="22.900640" lon="111.034724">
        <ele>149.579257</ele>
        <time>2026-08-18T06:30:39.000Z</time>
      </trkpt>
      <trkpt lat="22.900636" lon="111.034782">
        <ele>149.539316</ele>
        <time>2026-08-18T06:30:40.000Z</time>
      </trkpt>
      <trkpt lat="22.900631" lon="111.034841">
        <ele>149.498628</ele>
        <time>2026-08-18T06:30:41.000Z</time>
      </trkpt>
      <trkpt lat="22.900627" lon="111.034901">
        <ele>149.457317</ele>
        <time>2026-08-18T06:30:42.000Z</time>
      </trkpt>
      <trkpt lat="22.900624" lon="111.034961">
        <ele>149.416053</ele>
        <time>2026-08-18T06:30:43.000Z</time>
      </trkpt>
      <trkpt lat="22.900622" lon="111.035021">
        <ele>149.374823</ele>
        <time>2026-08-18T06:30:44.000Z</time>
      </trkpt>
      <trkpt lat="22.900619" lon="111.035080">
        <ele>149.334245</ele>
        <time>2026-08-18T06:30:45.000Z</time>
      </trkpt>
      <trkpt lat="22.900619" lon="111.035139">
        <ele>149.293728</ele>
        <time>2026-08-18T06:30:46.000Z</time>
      </trkpt>
      <trkpt lat="22.900618" lon="111.035198">
        <ele>149.253205</ele>
        <time>2026-08-18T06:30:47.000Z</time>
      </trkpt>
      <trkpt lat="22.900618" lon="111.035258">
        <ele>149.212001</ele>
        <time>2026-08-18T06:30:48.000Z</time>
      </trkpt>
      <trkpt lat="22.900616" lon="111.035318">
        <ele>149.170771</ele>
        <time>2026-08-18T06:30:49.000Z</time>
      </trkpt>
      <trkpt lat="22.900613" lon="111.035378">
        <ele>149.129507</ele>
        <time>2026-08-18T06:30:50.000Z</time>
      </trkpt>
      <trkpt lat="22.900606" lon="111.035439">
        <ele>149.087294</ele>
        <time>2026-08-18T06:30:51.000Z</time>
      </trkpt>
      <trkpt lat="22.900600" lon="111.035500">
        <ele>149.045165</ele>
        <time>2026-08-18T06:30:52.000Z</time>
      </trkpt>
      <trkpt lat="22.900592" lon="111.035559">
        <ele>149.004212</ele>
        <time>2026-08-18T06:30:53.000Z</time>
      </trkpt>
      <trkpt lat="22.900587" lon="111.035619">
        <ele>148.962841</ele>
        <time>2026-08-18T06:30:54.000Z</time>
      </trkpt>
      <trkpt lat="22.900582" lon="111.035679">
        <ele>148.921469</ele>
        <time>2026-08-18T06:30:55.000Z</time>
      </trkpt>
      <trkpt lat="22.900578" lon="111.035737">
        <ele>148.881528</ele>
        <time>2026-08-18T06:30:56.000Z</time>
      </trkpt>
      <trkpt lat="22.900572" lon="111.035797">
        <ele>148.840083</ele>
        <time>2026-08-18T06:30:57.000Z</time>
      </trkpt>
      <trkpt lat="22.900567" lon="111.035858">
        <ele>148.798027</ele>
        <time>2026-08-18T06:30:58.000Z</time>
      </trkpt>
      <trkpt lat="22.900560" lon="111.035919">
        <ele>148.745258</ele>
        <time>2026-08-18T06:30:59.000Z</time>
      </trkpt>
      <trkpt lat="22.900556" lon="111.035981">
        <ele>148.685845</ele>
        <time>2026-08-18T06:31:00.000Z</time>
      </trkpt>
      <trkpt lat="22.900551" lon="111.036042">
        <ele>148.627303</ele>
        <time>2026-08-18T06:31:01.000Z</time>
      </trkpt>
      <trkpt lat="22.900545" lon="111.036102">
        <ele>148.569610</ele>
        <time>2026-08-18T06:31:02.000Z</time>
      </trkpt>
      <trkpt lat="22.900541" lon="111.036164">
        <ele>148.510197</ele>
        <time>2026-08-18T06:31:03.000Z</time>
      </trkpt>
      <trkpt lat="22.900536" lon="111.036225">
        <ele>148.451655</ele>
        <time>2026-08-18T06:31:04.000Z</time>
      </trkpt>
      <trkpt lat="22.900530" lon="111.036285">
        <ele>148.393962</ele>
        <time>2026-08-18T06:31:05.000Z</time>
      </trkpt>
      <trkpt lat="22.900523" lon="111.036345">
        <ele>148.336148</ele>
        <time>2026-08-18T06:31:06.000Z</time>
      </trkpt>
      <trkpt lat="22.900519" lon="111.036406">
        <ele>148.277688</ele>
        <time>2026-08-18T06:31:07.000Z</time>
      </trkpt>
      <trkpt lat="22.900514" lon="111.036467">
        <ele>148.219146</ele>
        <time>2026-08-18T06:31:08.000Z</time>
      </trkpt>
      <trkpt lat="22.900507" lon="111.036528">
        <ele>148.160383</ele>
        <time>2026-08-18T06:31:09.000Z</time>
      </trkpt>
      <trkpt lat="22.900501" lon="111.036590">
        <ele>148.100789</ele>
        <time>2026-08-18T06:31:10.000Z</time>
      </trkpt>
      <trkpt lat="22.900494" lon="111.036651">
        <ele>148.042027</ele>
        <time>2026-08-18T06:31:11.000Z</time>
      </trkpt>
      <trkpt lat="22.900488" lon="111.036712">
        <ele>147.983383</ele>
        <time>2026-08-18T06:31:12.000Z</time>
      </trkpt>
      <trkpt lat="22.900482" lon="111.036773">
        <ele>147.924740</ele>
        <time>2026-08-18T06:31:13.000Z</time>
      </trkpt>
      <trkpt lat="22.900476" lon="111.036835">
        <ele>147.865146</ele>
        <time>2026-08-18T06:31:14.000Z</time>
      </trkpt>
      <trkpt lat="22.900471" lon="111.036898">
        <ele>147.804699</ele>
        <time>2026-08-18T06:31:15.000Z</time>
      </trkpt>
      <trkpt lat="22.900466" lon="111.036961">
        <ele>147.744252</ele>
        <time>2026-08-18T06:31:16.000Z</time>
      </trkpt>
      <trkpt lat="22.900461" lon="111.037026">
        <ele>147.681901</ele>
        <time>2026-08-18T06:31:17.000Z</time>
      </trkpt>
      <trkpt lat="22.900456" lon="111.037090">
        <ele>147.620501</ele>
        <time>2026-08-18T06:31:18.000Z</time>
      </trkpt>
      <trkpt lat="22.900451" lon="111.037153">
        <ele>147.560054</ele>
        <time>2026-08-18T06:31:19.000Z</time>
      </trkpt>
      <trkpt lat="22.900447" lon="111.037216">
        <ele>147.499688</ele>
        <time>2026-08-18T06:31:20.000Z</time>
      </trkpt>
      <trkpt lat="22.900441" lon="111.037279">
        <ele>147.439143</ele>
        <time>2026-08-18T06:31:21.000Z</time>
      </trkpt>
      <trkpt lat="22.900436" lon="111.037344">
        <ele>147.376791</ele>
        <time>2026-08-18T06:31:22.000Z</time>
      </trkpt>
      <trkpt lat="22.900433" lon="111.037409">
        <ele>147.314577</ele>
        <time>2026-08-18T06:31:23.000Z</time>
      </trkpt>
      <trkpt lat="22.900430" lon="111.037475">
        <ele>147.251409</ele>
        <time>2026-08-18T06:31:24.000Z</time>
      </trkpt>
      <trkpt lat="22.900426" lon="111.037542">
        <ele>147.187227</ele>
        <time>2026-08-18T06:31:25.000Z</time>
      </trkpt>
      <trkpt lat="22.900421" lon="111.037609">
        <ele>147.122970</ele>
        <time>2026-08-18T06:31:26.000Z</time>
      </trkpt>
      <trkpt lat="22.900418" lon="111.037677">
        <ele>147.057892</ele>
        <time>2026-08-18T06:31:27.000Z</time>
      </trkpt>
      <trkpt lat="22.900414" lon="111.037745">
        <ele>146.992756</ele>
        <time>2026-08-18T06:31:28.000Z</time>
      </trkpt>
      <trkpt lat="22.900408" lon="111.037813">
        <ele>146.927455</ele>
        <time>2026-08-18T06:31:29.000Z</time>
      </trkpt>
      <trkpt lat="22.900402" lon="111.037882">
        <ele>146.845598</ele>
        <time>2026-08-18T06:31:30.000Z</time>
      </trkpt>
      <trkpt lat="22.900396" lon="111.037950">
        <ele>146.761785</ele>
        <time>2026-08-18T06:31:31.000Z</time>
      </trkpt>
      <trkpt lat="22.900389" lon="111.038018">
        <ele>146.677834</ele>
        <time>2026-08-18T06:31:32.000Z</time>
      </trkpt>
      <trkpt lat="22.900383" lon="111.038083">
        <ele>146.597683</ele>
        <time>2026-08-18T06:31:33.000Z</time>
      </trkpt>
      <trkpt lat="22.900377" lon="111.038137">
        <ele>146.530949</ele>
        <time>2026-08-18T06:31:34.000Z</time>
      </trkpt>
      <trkpt lat="22.900368" lon="111.038170">
        <ele>146.488722</ele>
        <time>2026-08-18T06:31:35.000Z</time>
      </trkpt>
      <trkpt lat="22.900357" lon="111.038189">
        <ele>146.461189</ele>
        <time>2026-08-18T06:31:36.000Z</time>
      </trkpt>
      <trkpt lat="22.900345" lon="111.038199">
        <ele>146.441040</ele>
        <time>2026-08-18T06:31:37.000Z</time>
      </trkpt>
      <trkpt lat="22.900331" lon="111.038198">
        <ele>146.422352</ele>
        <time>2026-08-18T06:31:38.000Z</time>
      </trkpt>
      <trkpt lat="22.900319" lon="111.038191">
        <ele>146.404208</ele>
        <time>2026-08-18T06:31:39.000Z</time>
      </trkpt>
      <trkpt lat="22.900312" lon="111.038178">
        <ele>146.385733</ele>
        <time>2026-08-18T06:31:40.000Z</time>
      </trkpt>
      <trkpt lat="22.900308" lon="111.038160">
        <ele>146.363014</ele>
        <time>2026-08-18T06:31:41.000Z</time>
      </trkpt>
      <trkpt lat="22.900306" lon="111.038141">
        <ele>146.339551</ele>
        <time>2026-08-18T06:31:42.000Z</time>
      </trkpt>
      <trkpt lat="22.900300" lon="111.038125">
        <ele>146.318356</ele>
        <time>2026-08-18T06:31:43.000Z</time>
      </trkpt>
      <trkpt lat="22.900294" lon="111.038117">
        <ele>146.305698</ele>
        <time>2026-08-18T06:31:44.000Z</time>
      </trkpt>
      <trkpt lat="22.900282" lon="111.038172">
        <ele>146.236350</ele>
        <time>2026-08-18T06:33:11.000Z</time>
      </trkpt>
      <trkpt lat="22.900292" lon="111.038181">
        <ele>146.219048</ele>
        <time>2026-08-18T06:33:12.000Z</time>
      </trkpt>
      <trkpt lat="22.900303" lon="111.038191">
        <ele>146.199938</ele>
        <time>2026-08-18T06:33:13.000Z</time>
      </trkpt>
      <trkpt lat="22.900316" lon="111.038203">
        <ele>146.177210</ele>
        <time>2026-08-18T06:33:14.000Z</time>
      </trkpt>
      <trkpt lat="22.900327" lon="111.038218">
        <ele>146.153686</ele>
        <time>2026-08-18T06:33:15.000Z</time>
      </trkpt>
      <trkpt lat="22.900338" lon="111.038237">
        <ele>146.126153</ele>
        <time>2026-08-18T06:33:16.000Z</time>
      </trkpt>
      <trkpt lat="22.900347" lon="111.038258">
        <ele>146.097735</ele>
        <time>2026-08-18T06:33:17.000Z</time>
      </trkpt>
      <trkpt lat="22.900353" lon="111.038282">
        <ele>146.067223</ele>
        <time>2026-08-18T06:33:18.000Z</time>
      </trkpt>
      <trkpt lat="22.900358" lon="111.038308">
        <ele>146.034635</ele>
        <time>2026-08-18T06:33:19.000Z</time>
      </trkpt>
      <trkpt lat="22.900359" lon="111.038337">
        <ele>145.999029</ele>
        <time>2026-08-18T06:33:20.000Z</time>
      </trkpt>
      <trkpt lat="22.900360" lon="111.038370">
        <ele>145.958518</ele>
        <time>2026-08-18T06:33:21.000Z</time>
      </trkpt>
      <trkpt lat="22.900360" lon="111.038404">
        <ele>145.916802</ele>
        <time>2026-08-18T06:33:22.000Z</time>
      </trkpt>
      <trkpt lat="22.900357" lon="111.038439">
        <ele>145.873674</ele>
        <time>2026-08-18T06:33:23.000Z</time>
      </trkpt>
      <trkpt lat="22.900354" lon="111.038475">
        <ele>145.829324</ele>
        <time>2026-08-18T06:33:24.000Z</time>
      </trkpt>
      <trkpt lat="22.900351" lon="111.038512">
        <ele>145.783752</ele>
        <time>2026-08-18T06:33:25.000Z</time>
      </trkpt>
      <trkpt lat="22.900349" lon="111.038552">
        <ele>145.734602</ele>
        <time>2026-08-18T06:33:26.000Z</time>
      </trkpt>
      <trkpt lat="22.900347" lon="111.038592">
        <ele>145.685452</ele>
        <time>2026-08-18T06:33:27.000Z</time>
      </trkpt>
      <trkpt lat="22.900346" lon="111.038634">
        <ele>145.633904</ele>
        <time>2026-08-18T06:33:28.000Z</time>
      </trkpt>
      <trkpt lat="22.900344" lon="111.038676">
        <ele>145.582303</ele>
        <time>2026-08-18T06:33:29.000Z</time>
      </trkpt>
      <trkpt lat="22.900341" lon="111.038720">
        <ele>145.528170</ele>
        <time>2026-08-18T06:33:30.000Z</time>
      </trkpt>
      <trkpt lat="22.900338" lon="111.038765">
        <ele>145.472814</ele>
        <time>2026-08-18T06:33:31.000Z</time>
      </trkpt>
      <trkpt lat="22.900332" lon="111.038810">
        <ele>145.417026</ele>
        <time>2026-08-18T06:33:32.000Z</time>
      </trkpt>
      <trkpt lat="22.900326" lon="111.038856">
        <ele>145.360024</ele>
        <time>2026-08-18T06:33:33.000Z</time>
      </trkpt>
      <trkpt lat="22.900324" lon="111.038903">
        <ele>145.302296</ele>
        <time>2026-08-18T06:33:34.000Z</time>
      </trkpt>
      <trkpt lat="22.900320" lon="111.038950">
        <ele>145.244385</ele>
        <time>2026-08-18T06:33:35.000Z</time>
      </trkpt>
      <trkpt lat="22.900315" lon="111.038999">
        <ele>145.183897</ele>
        <time>2026-08-18T06:33:36.000Z</time>
      </trkpt>
      <trkpt lat="22.900311" lon="111.039050">
        <ele>145.121097</ele>
        <time>2026-08-18T06:33:37.000Z</time>
      </trkpt>
      <trkpt lat="22.900307" lon="111.039102">
        <ele>145.057074</ele>
        <time>2026-08-18T06:33:38.000Z</time>
      </trkpt>
      <trkpt lat="22.900303" lon="111.039155">
        <ele>144.991828</ele>
        <time>2026-08-18T06:33:39.000Z</time>
      </trkpt>
      <trkpt lat="22.900298" lon="111.039207">
        <ele>144.927681</ele>
        <time>2026-08-18T06:33:40.000Z</time>
      </trkpt>
      <trkpt lat="22.900293" lon="111.039261">
        <ele>144.861092</ele>
        <time>2026-08-18T06:33:41.000Z</time>
      </trkpt>
      <trkpt lat="22.900287" lon="111.039314">
        <ele>144.795575</ele>
        <time>2026-08-18T06:33:42.000Z</time>
      </trkpt>
      <trkpt lat="22.900281" lon="111.039365">
        <ele>144.732493</ele>
        <time>2026-08-18T06:33:43.000Z</time>
      </trkpt>
      <trkpt lat="22.900276" lon="111.039417">
        <ele>144.668346</ele>
        <time>2026-08-18T06:33:44.000Z</time>
      </trkpt>
      <trkpt lat="22.900272" lon="111.039470">
        <ele>144.603100</ele>
        <time>2026-08-18T06:33:45.000Z</time>
      </trkpt>
      <trkpt lat="22.900269" lon="111.039524">
        <ele>144.536725</ele>
        <time>2026-08-18T06:33:46.000Z</time>
      </trkpt>
      <trkpt lat="22.900265" lon="111.039577">
        <ele>144.538531</ele>
        <time>2026-08-18T06:33:47.000Z</time>
      </trkpt>
      <trkpt lat="22.900261" lon="111.039632">
        <ele>144.563234</ele>
        <time>2026-08-18T06:33:48.000Z</time>
      </trkpt>
      <trkpt lat="22.900257" lon="111.039685">
        <ele>144.587046</ele>
        <time>2026-08-18T06:33:49.000Z</time>
      </trkpt>
      <trkpt lat="22.900253" lon="111.039739">
        <ele>144.611303</ele>
        <time>2026-08-18T06:33:50.000Z</time>
      </trkpt>
      <trkpt lat="22.900250" lon="111.039792">
        <ele>144.635079</ele>
        <time>2026-08-18T06:33:51.000Z</time>
      </trkpt>
      <trkpt lat="22.900245" lon="111.039845">
        <ele>144.658935</ele>
        <time>2026-08-18T06:33:52.000Z</time>
      </trkpt>
      <trkpt lat="22.900238" lon="111.039898">
        <ele>144.682909</ele>
        <time>2026-08-18T06:33:53.000Z</time>
      </trkpt>
      <trkpt lat="22.900233" lon="111.039952">
        <ele>144.707211</ele>
        <time>2026-08-18T06:33:54.000Z</time>
      </trkpt>
      <trkpt lat="22.900228" lon="111.040007">
        <ele>144.731957</ele>
        <time>2026-08-18T06:33:55.000Z</time>
      </trkpt>
      <trkpt lat="22.900224" lon="111.040063">
        <ele>144.757108</ele>
        <time>2026-08-18T06:33:56.000Z</time>
      </trkpt>
      <trkpt lat="22.900221" lon="111.040118">
        <ele>144.781778</ele>
        <time>2026-08-18T06:33:57.000Z</time>
      </trkpt>
      <trkpt lat="22.900218" lon="111.040173">
        <ele>144.806448</ele>
        <time>2026-08-18T06:33:58.000Z</time>
      </trkpt>
      <trkpt lat="22.900214" lon="111.040229">
        <ele>144.831598</ele>
        <time>2026-08-18T06:33:59.000Z</time>
      </trkpt>
      <trkpt lat="22.900210" lon="111.040284">
        <ele>144.856302</ele>
        <time>2026-08-18T06:34:00.000Z</time>
      </trkpt>
      <trkpt lat="22.900205" lon="111.040338">
        <ele>144.880603</ele>
        <time>2026-08-18T06:34:01.000Z</time>
      </trkpt>
      <trkpt lat="22.900200" lon="111.040392">
        <ele>144.904905</ele>
        <time>2026-08-18T06:34:02.000Z</time>
      </trkpt>
      <trkpt lat="22.900194" lon="111.040445">
        <ele>144.928815</ele>
        <time>2026-08-18T06:34:03.000Z</time>
      </trkpt>
      <trkpt lat="22.900190" lon="111.040499">
        <ele>144.953072</ele>
        <time>2026-08-18T06:34:04.000Z</time>
      </trkpt>
      <trkpt lat="22.900186" lon="111.040552">
        <ele>144.976883</ele>
        <time>2026-08-18T06:34:05.000Z</time>
      </trkpt>
      <trkpt lat="22.900183" lon="111.040605">
        <ele>145.000660</ele>
        <time>2026-08-18T06:34:06.000Z</time>
      </trkpt>
      <trkpt lat="22.900182" lon="111.040658">
        <ele>145.024396</ele>
        <time>2026-08-18T06:34:07.000Z</time>
      </trkpt>
      <trkpt lat="22.900179" lon="111.040710">
        <ele>145.047726</ele>
        <time>2026-08-18T06:34:08.000Z</time>
      </trkpt>
      <trkpt lat="22.900174" lon="111.040762">
        <ele>145.071136</ele>
        <time>2026-08-18T06:34:09.000Z</time>
      </trkpt>
      <trkpt lat="22.900170" lon="111.040815">
        <ele>145.094947</ele>
        <time>2026-08-18T06:34:10.000Z</time>
      </trkpt>
      <trkpt lat="22.900166" lon="111.040868">
        <ele>145.118758</ele>
        <time>2026-08-18T06:34:11.000Z</time>
      </trkpt>
      <trkpt lat="22.900160" lon="111.040920">
        <ele>145.142224</ele>
        <time>2026-08-18T06:34:12.000Z</time>
      </trkpt>
      <trkpt lat="22.900155" lon="111.040970">
        <ele>145.164744</ele>
        <time>2026-08-18T06:34:13.000Z</time>
      </trkpt>
      <trkpt lat="22.900152" lon="111.041020">
        <ele>145.187180</ele>
        <time>2026-08-18T06:34:14.000Z</time>
      </trkpt>
      <trkpt lat="22.900150" lon="111.041071">
        <ele>145.210037</ele>
        <time>2026-08-18T06:34:15.000Z</time>
      </trkpt>
      <trkpt lat="22.900148" lon="111.041121">
        <ele>145.232446</ele>
        <time>2026-08-18T06:34:16.000Z</time>
      </trkpt>
      <trkpt lat="22.900145" lon="111.041170">
        <ele>145.254435</ele>
        <time>2026-08-18T06:34:17.000Z</time>
      </trkpt>
      <trkpt lat="22.900141" lon="111.041219">
        <ele>145.276462</ele>
        <time>2026-08-18T06:34:18.000Z</time>
      </trkpt>
      <trkpt lat="22.900135" lon="111.041267">
        <ele>145.298151</ele>
        <time>2026-08-18T06:34:19.000Z</time>
      </trkpt>
      <trkpt lat="22.900133" lon="111.041312">
        <ele>145.318324</ele>
        <time>2026-08-18T06:34:20.000Z</time>
      </trkpt>
      <trkpt lat="22.900129" lon="111.041356">
        <ele>145.338122</ele>
        <time>2026-08-18T06:34:21.000Z</time>
      </trkpt>
      <trkpt lat="22.900124" lon="111.041401">
        <ele>145.358417</ele>
        <time>2026-08-18T06:34:22.000Z</time>
      </trkpt>
      <trkpt lat="22.900120" lon="111.041445">
        <ele>145.378215</ele>
        <time>2026-08-18T06:34:23.000Z</time>
      </trkpt>
      <trkpt lat="22.900116" lon="111.041490">
        <ele>145.409960</ele>
        <time>2026-08-18T06:34:24.000Z</time>
      </trkpt>
      <trkpt lat="22.900112" lon="111.041535">
        <ele>145.495325</ele>
        <time>2026-08-18T06:34:25.000Z</time>
      </trkpt>
      <trkpt lat="22.900108" lon="111.041580">
        <ele>145.580690</ele>
        <time>2026-08-18T06:34:26.000Z</time>
      </trkpt>
      <trkpt lat="22.900104" lon="111.041621">
        <ele>145.658540</ele>
        <time>2026-08-18T06:34:27.000Z</time>
      </trkpt>
      <trkpt lat="22.900100" lon="111.041664">
        <ele>145.740147</ele>
        <time>2026-08-18T06:34:28.000Z</time>
      </trkpt>
      <trkpt lat="22.900097" lon="111.041706">
        <ele>145.819691</ele>
        <time>2026-08-18T06:34:29.000Z</time>
      </trkpt>
      <trkpt lat="22.900095" lon="111.041749">
        <ele>145.900988</ele>
        <time>2026-08-18T06:34:30.000Z</time>
      </trkpt>
      <trkpt lat="22.900093" lon="111.041793">
        <ele>145.984171</ele>
        <time>2026-08-18T06:34:31.000Z</time>
      </trkpt>
      <trkpt lat="22.900090" lon="111.041835">
        <ele>146.063715</ele>
        <time>2026-08-18T06:34:32.000Z</time>
      </trkpt>
      <trkpt lat="22.900089" lon="111.041878">
        <ele>146.144935</ele>
        <time>2026-08-18T06:34:33.000Z</time>
      </trkpt>
      <trkpt lat="22.900087" lon="111.041922">
        <ele>146.228118</ele>
        <time>2026-08-18T06:34:34.000Z</time>
      </trkpt>
      <trkpt lat="22.900084" lon="111.041964">
        <ele>146.307661</ele>
        <time>2026-08-18T06:34:35.000Z</time>
      </trkpt>
      <trkpt lat="22.900080" lon="111.042007">
        <ele>146.389268</ele>
        <time>2026-08-18T06:34:36.000Z</time>
      </trkpt>
      <trkpt lat="22.900077" lon="111.042052">
        <ele>146.474461</ele>
        <time>2026-08-18T06:34:37.000Z</time>
      </trkpt>
      <trkpt lat="22.900073" lon="111.042096">
        <ele>146.557946</ele>
        <time>2026-08-18T06:34:38.000Z</time>
      </trkpt>
      <trkpt lat="22.900070" lon="111.042140">
        <ele>146.641256</ele>
        <time>2026-08-18T06:34:39.000Z</time>
      </trkpt>
      <trkpt lat="22.900067" lon="111.042184">
        <ele>146.724565</ele>
        <time>2026-08-18T06:34:40.000Z</time>
      </trkpt>
      <trkpt lat="22.900065" lon="111.042229">
        <ele>146.809634</ele>
        <time>2026-08-18T06:34:41.000Z</time>
      </trkpt>
      <trkpt lat="22.900063" lon="111.042276">
        <ele>146.898476</ele>
        <time>2026-08-18T06:34:42.000Z</time>
      </trkpt>
      <trkpt lat="22.900062" lon="111.042323">
        <ele>146.987246</ele>
        <time>2026-08-18T06:34:43.000Z</time>
      </trkpt>
      <trkpt lat="22.900062" lon="111.042370">
        <ele>147.075993</ele>
        <time>2026-08-18T06:34:44.000Z</time>
      </trkpt>
      <trkpt lat="22.900058" lon="111.042415">
        <ele>147.161358</ele>
        <time>2026-08-18T06:34:45.000Z</time>
      </trkpt>
      <trkpt lat="22.900055" lon="111.042461">
        <ele>147.248434</ele>
        <time>2026-08-18T06:34:46.000Z</time>
      </trkpt>
      <trkpt lat="22.900053" lon="111.042507">
        <ele>147.335389</ele>
        <time>2026-08-18T06:34:47.000Z</time>
      </trkpt>
      <trkpt lat="22.900051" lon="111.042553">
        <ele>147.422345</ele>
        <time>2026-08-18T06:34:48.000Z</time>
      </trkpt>
      <trkpt lat="22.900049" lon="111.042598">
        <ele>147.507414</ele>
        <time>2026-08-18T06:34:49.000Z</time>
      </trkpt>
      <trkpt lat="22.900044" lon="111.042644">
        <ele>147.594875</ele>
        <time>2026-08-18T06:34:50.000Z</time>
      </trkpt>
      <trkpt lat="22.900040" lon="111.042689">
        <ele>147.680240</ele>
        <time>2026-08-18T06:34:51.000Z</time>
      </trkpt>
      <trkpt lat="22.900038" lon="111.042733">
        <ele>147.763423</ele>
        <time>2026-08-18T06:34:52.000Z</time>
      </trkpt>
      <trkpt lat="22.900038" lon="111.042776">
        <ele>147.844617</ele>
        <time>2026-08-18T06:34:53.000Z</time>
      </trkpt>
      <trkpt lat="22.900039" lon="111.042821">
        <ele>147.929612</ele>
        <time>2026-08-18T06:34:54.000Z</time>
      </trkpt>
      <trkpt lat="22.900040" lon="111.042866">
        <ele>148.014607</ele>
        <time>2026-08-18T06:34:55.000Z</time>
      </trkpt>
      <trkpt lat="22.900037" lon="111.042910">
        <ele>148.097917</ele>
        <time>2026-08-18T06:34:56.000Z</time>
      </trkpt>
      <trkpt lat="22.900036" lon="111.042954">
        <ele>148.181024</ele>
        <time>2026-08-18T06:34:57.000Z</time>
      </trkpt>
      <trkpt lat="22.900036" lon="111.042997">
        <ele>148.262218</ele>
        <time>2026-08-18T06:34:58.000Z</time>
      </trkpt>
      <trkpt lat="22.900037" lon="111.043039">
        <ele>148.341550</ele>
        <time>2026-08-18T06:34:59.000Z</time>
      </trkpt>
      <trkpt lat="22.900037" lon="111.043081">
        <ele>148.420856</ele>
        <time>2026-08-18T06:35:00.000Z</time>
      </trkpt>
      <trkpt lat="22.900037" lon="111.043124">
        <ele>148.502050</ele>
        <time>2026-08-18T06:35:01.000Z</time>
      </trkpt>
      <trkpt lat="22.900037" lon="111.043165">
        <ele>148.579467</ele>
        <time>2026-08-18T06:35:02.000Z</time>
      </trkpt>
      <trkpt lat="22.900037" lon="111.043205">
        <ele>148.654996</ele>
        <time>2026-08-18T06:35:03.000Z</time>
      </trkpt>
      <trkpt lat="22.900038" lon="111.043246">
        <ele>148.732441</ele>
        <time>2026-08-18T06:35:04.000Z</time>
      </trkpt>
      <trkpt lat="22.900039" lon="111.043286">
        <ele>148.807998</ele>
        <time>2026-08-18T06:35:05.000Z</time>
      </trkpt>
      <trkpt lat="22.900041" lon="111.043326">
        <ele>148.883638</ele>
        <time>2026-08-18T06:35:06.000Z</time>
      </trkpt>
      <trkpt lat="22.900046" lon="111.043367">
        <ele>148.961731</ele>
        <time>2026-08-18T06:35:07.000Z</time>
      </trkpt>
      <trkpt lat="22.900051" lon="111.043407">
        <ele>149.037953</ele>
        <time>2026-08-18T06:35:08.000Z</time>
      </trkpt>
      <trkpt lat="22.900056" lon="111.043446">
        <ele>149.097720</ele>
        <time>2026-08-18T06:35:09.000Z</time>
      </trkpt>
      <trkpt lat="22.900061" lon="111.043487">
        <ele>149.138584</ele>
        <time>2026-08-18T06:35:10.000Z</time>
      </trkpt>
      <trkpt lat="22.900065" lon="111.043531">
        <ele>149.182271</ele>
        <time>2026-08-18T06:35:11.000Z</time>
      </trkpt>
      <trkpt lat="22.900066" lon="111.043575">
        <ele>149.225760</ele>
        <time>2026-08-18T06:35:12.000Z</time>
      </trkpt>
      <trkpt lat="22.900067" lon="111.043619">
        <ele>149.269248</ele>
        <time>2026-08-18T06:35:13.000Z</time>
      </trkpt>
      <trkpt lat="22.900071" lon="111.043662">
        <ele>149.311952</ele>
        <time>2026-08-18T06:35:14.000Z</time>
      </trkpt>
      <trkpt lat="22.900077" lon="111.043705">
        <ele>149.354924</ele>
        <time>2026-08-18T06:35:15.000Z</time>
      </trkpt>
      <trkpt lat="22.900079" lon="111.043743">
        <ele>149.392532</ele>
        <time>2026-08-18T06:35:16.000Z</time>
      </trkpt>
      <trkpt lat="22.900080" lon="111.043781">
        <ele>149.430094</ele>
        <time>2026-08-18T06:35:17.000Z</time>
      </trkpt>
      <trkpt lat="22.900085" lon="111.043824">
        <ele>149.472919</ele>
        <time>2026-08-18T06:35:18.000Z</time>
      </trkpt>
      <trkpt lat="22.900092" lon="111.043869">
        <ele>149.518011</ele>
        <time>2026-08-18T06:35:19.000Z</time>
      </trkpt>
      <trkpt lat="22.900097" lon="111.043915">
        <ele>149.563778</ele>
        <time>2026-08-18T06:35:20.000Z</time>
      </trkpt>
      <trkpt lat="22.900102" lon="111.043961">
        <ele>149.609545</ele>
        <time>2026-08-18T06:35:21.000Z</time>
      </trkpt>
      <trkpt lat="22.900109" lon="111.044006">
        <ele>149.654638</ele>
        <time>2026-08-18T06:35:22.000Z</time>
      </trkpt>
      <trkpt lat="22.900116" lon="111.044050">
        <ele>149.698757</ele>
        <time>2026-08-18T06:35:23.000Z</time>
      </trkpt>
      <trkpt lat="22.900125" lon="111.044096">
        <ele>149.745223</ele>
        <time>2026-08-18T06:35:24.000Z</time>
      </trkpt>
      <trkpt lat="22.900134" lon="111.044140">
        <ele>149.789757</ele>
        <time>2026-08-18T06:35:25.000Z</time>
      </trkpt>
      <trkpt lat="22.900142" lon="111.044183">
        <ele>149.833102</ele>
        <time>2026-08-18T06:35:26.000Z</time>
      </trkpt>
      <trkpt lat="22.900151" lon="111.044225">
        <ele>149.875709</ele>
        <time>2026-08-18T06:35:27.000Z</time>
      </trkpt>
      <trkpt lat="22.900161" lon="111.044271">
        <ele>149.922409</ele>
        <time>2026-08-18T06:35:28.000Z</time>
      </trkpt>
      <trkpt lat="22.900169" lon="111.044317">
        <ele>149.968664</ele>
        <time>2026-08-18T06:35:29.000Z</time>
      </trkpt>
      <trkpt lat="22.900179" lon="111.044362">
        <ele>150.014402</ele>
        <time>2026-08-18T06:35:30.000Z</time>
      </trkpt>
      <trkpt lat="22.900188" lon="111.044406">
        <ele>150.058937</ele>
        <time>2026-08-18T06:35:31.000Z</time>
      </trkpt>
      <trkpt lat="22.900200" lon="111.044450">
        <ele>150.104277</ele>
        <time>2026-08-18T06:35:32.000Z</time>
      </trkpt>
      <trkpt lat="22.900212" lon="111.044493">
        <ele>150.148672</ele>
        <time>2026-08-18T06:35:33.000Z</time>
      </trkpt>
      <trkpt lat="22.900223" lon="111.044536">
        <ele>150.192767</ele>
        <time>2026-08-18T06:35:34.000Z</time>
      </trkpt>
      <trkpt lat="22.900232" lon="111.044582">
        <ele>150.239232</ele>
        <time>2026-08-18T06:35:35.000Z</time>
      </trkpt>
      <trkpt lat="22.900244" lon="111.044626">
        <ele>150.284573</ele>
        <time>2026-08-18T06:35:36.000Z</time>
      </trkpt>
      <trkpt lat="22.900257" lon="111.044670">
        <ele>150.330229</ele>
        <time>2026-08-18T06:35:37.000Z</time>
      </trkpt>
      <trkpt lat="22.900269" lon="111.044714">
        <ele>150.375570</ele>
        <time>2026-08-18T06:35:38.000Z</time>
      </trkpt>
      <trkpt lat="22.900281" lon="111.044759">
        <ele>150.421859</ele>
        <time>2026-08-18T06:35:39.000Z</time>
      </trkpt>
      <trkpt lat="22.900293" lon="111.044802">
        <ele>150.466253</ele>
        <time>2026-08-18T06:35:40.000Z</time>
      </trkpt>
      <trkpt lat="22.900306" lon="111.044846">
        <ele>150.511910</ele>
        <time>2026-08-18T06:35:41.000Z</time>
      </trkpt>
      <trkpt lat="22.900320" lon="111.044890">
        <ele>150.557906</ele>
        <time>2026-08-18T06:35:42.000Z</time>
      </trkpt>
      <trkpt lat="22.900335" lon="111.044933">
        <ele>150.603337</ele>
        <time>2026-08-18T06:35:43.000Z</time>
      </trkpt>
      <trkpt lat="22.900349" lon="111.044976">
        <ele>150.648400</ele>
        <time>2026-08-18T06:35:44.000Z</time>
      </trkpt>
      <trkpt lat="22.900361" lon="111.045018">
        <ele>150.691850</ele>
        <time>2026-08-18T06:35:45.000Z</time>
      </trkpt>
      <trkpt lat="22.900376" lon="111.045061">
        <ele>150.737281</ele>
        <time>2026-08-18T06:35:46.000Z</time>
      </trkpt>
      <trkpt lat="22.900391" lon="111.045104">
        <ele>150.782713</ele>
        <time>2026-08-18T06:35:47.000Z</time>
      </trkpt>
      <trkpt lat="22.900407" lon="111.045148">
        <ele>150.829453</ele>
        <time>2026-08-18T06:35:48.000Z</time>
      </trkpt>
      <trkpt lat="22.900423" lon="111.045190">
        <ele>150.874360</ele>
        <time>2026-08-18T06:35:49.000Z</time>
      </trkpt>
      <trkpt lat="22.900440" lon="111.045234">
        <ele>150.921505</ele>
        <time>2026-08-18T06:35:50.000Z</time>
      </trkpt>
      <trkpt lat="22.900454" lon="111.045277">
        <ele>150.966568</ele>
        <time>2026-08-18T06:35:51.000Z</time>
      </trkpt>
      <trkpt lat="22.900470" lon="111.045320">
        <ele>151.011169</ele>
        <time>2026-08-18T06:35:52.000Z</time>
      </trkpt>
      <trkpt lat="22.900486" lon="111.045364">
        <ele>151.017887</ele>
        <time>2026-08-18T06:35:53.000Z</time>
      </trkpt>
      <trkpt lat="22.900504" lon="111.045411">
        <ele>151.025116</ele>
        <time>2026-08-18T06:35:54.000Z</time>
      </trkpt>
      <trkpt lat="22.900522" lon="111.045457">
        <ele>151.032213</ele>
        <time>2026-08-18T06:35:55.000Z</time>
      </trkpt>
      <trkpt lat="22.900541" lon="111.045502">
        <ele>151.039243</ele>
        <time>2026-08-18T06:35:56.000Z</time>
      </trkpt>
      <trkpt lat="22.900558" lon="111.045546">
        <ele>151.046019</ele>
        <time>2026-08-18T06:35:57.000Z</time>
      </trkpt>
      <trkpt lat="22.900577" lon="111.045590">
        <ele>151.052921</ele>
        <time>2026-08-18T06:35:58.000Z</time>
      </trkpt>
      <trkpt lat="22.900597" lon="111.045636">
        <ele>151.060144</ele>
        <time>2026-08-18T06:35:59.000Z</time>
      </trkpt>
      <trkpt lat="22.900617" lon="111.045682">
        <ele>151.067368</ele>
        <time>2026-08-18T06:36:00.000Z</time>
      </trkpt>
      <trkpt lat="22.900639" lon="111.045730">
        <ele>151.074982</ele>
        <time>2026-08-18T06:36:01.000Z</time>
      </trkpt>
      <trkpt lat="22.900659" lon="111.045776">
        <ele>151.082206</ele>
        <time>2026-08-18T06:36:02.000Z</time>
      </trkpt>
      <trkpt lat="22.900680" lon="111.045822">
        <ele>151.089497</ele>
        <time>2026-08-18T06:36:03.000Z</time>
      </trkpt>
      <trkpt lat="22.900701" lon="111.045868">
        <ele>151.096788</ele>
        <time>2026-08-18T06:36:04.000Z</time>
      </trkpt>
      <trkpt lat="22.900720" lon="111.045915">
        <ele>151.104077</ele>
        <time>2026-08-18T06:36:05.000Z</time>
      </trkpt>
      <trkpt lat="22.900736" lon="111.045962">
        <ele>151.111193</ele>
        <time>2026-08-18T06:36:06.000Z</time>
      </trkpt>
      <trkpt lat="22.900756" lon="111.046009">
        <ele>151.118545</ele>
        <time>2026-08-18T06:36:07.000Z</time>
      </trkpt>
      <trkpt lat="22.900777" lon="111.046057">
        <ele>151.126092</ele>
        <time>2026-08-18T06:36:08.000Z</time>
      </trkpt>
      <trkpt lat="22.900800" lon="111.046104">
        <ele>151.133650</ele>
        <time>2026-08-18T06:36:09.000Z</time>
      </trkpt>
      <trkpt lat="22.900822" lon="111.046148">
        <ele>151.140760</ele>
        <time>2026-08-18T06:36:10.000Z</time>
      </trkpt>
      <trkpt lat="22.900845" lon="111.046194">
        <ele>151.148193</ele>
        <time>2026-08-18T06:36:11.000Z</time>
      </trkpt>
      <trkpt lat="22.900868" lon="111.046241">
        <ele>151.155751</ele>
        <time>2026-08-18T06:36:12.000Z</time>
      </trkpt>
      <trkpt lat="22.900890" lon="111.046290">
        <ele>151.163492</ele>
        <time>2026-08-18T06:36:13.000Z</time>
      </trkpt>
      <trkpt lat="22.900910" lon="111.046338">
        <ele>151.170974</ele>
        <time>2026-08-18T06:36:14.000Z</time>
      </trkpt>
      <trkpt lat="22.900928" lon="111.046388">
        <ele>151.178597</ele>
        <time>2026-08-18T06:36:15.000Z</time>
      </trkpt>
      <trkpt lat="22.900946" lon="111.046438">
        <ele>151.186221</ele>
        <time>2026-08-18T06:36:16.000Z</time>
      </trkpt>
      <trkpt lat="22.900965" lon="111.046486">
        <ele>151.193641</ele>
        <time>2026-08-18T06:36:17.000Z</time>
      </trkpt>
      <trkpt lat="22.900983" lon="111.046535">
        <ele>151.201132</ele>
        <time>2026-08-18T06:36:18.000Z</time>
      </trkpt>
      <trkpt lat="22.901002" lon="111.046583">
        <ele>151.208552</ele>
        <time>2026-08-18T06:36:19.000Z</time>
      </trkpt>
      <trkpt lat="22.901021" lon="111.046631">
        <ele>151.215971</ele>
        <time>2026-08-18T06:36:20.000Z</time>
      </trkpt>
      <trkpt lat="22.901041" lon="111.046678">
        <ele>151.223324</ele>
        <time>2026-08-18T06:36:21.000Z</time>
      </trkpt>
      <trkpt lat="22.901060" lon="111.046724">
        <ele>151.230483</ele>
        <time>2026-08-18T06:36:22.000Z</time>
      </trkpt>
      <trkpt lat="22.901081" lon="111.046770">
        <ele>151.237774</ele>
        <time>2026-08-18T06:36:23.000Z</time>
      </trkpt>
      <trkpt lat="22.901099" lon="111.046819">
        <ele>151.245265</ele>
        <time>2026-08-18T06:36:24.000Z</time>
      </trkpt>
      <trkpt lat="22.901120" lon="111.046868">
        <ele>151.252940</ele>
        <time>2026-08-18T06:36:25.000Z</time>
      </trkpt>
      <trkpt lat="22.901142" lon="111.046917">
        <ele>151.260682</ele>
        <time>2026-08-18T06:36:26.000Z</time>
      </trkpt>
      <trkpt lat="22.901164" lon="111.046967">
        <ele>151.268551</ele>
        <time>2026-08-18T06:36:27.000Z</time>
      </trkpt>
      <trkpt lat="22.901184" lon="111.047016">
        <ele>151.276162</ele>
        <time>2026-08-18T06:36:28.000Z</time>
      </trkpt>
      <trkpt lat="22.901203" lon="111.047064">
        <ele>151.283582</ele>
        <time>2026-08-18T06:36:29.000Z</time>
      </trkpt>
      <trkpt lat="22.901222" lon="111.047113">
        <ele>151.299190</ele>
        <time>2026-08-18T06:36:30.000Z</time>
      </trkpt>
      <trkpt lat="22.901243" lon="111.047162">
        <ele>151.328367</ele>
        <time>2026-08-18T06:36:31.000Z</time>
      </trkpt>
      <trkpt lat="22.901264" lon="111.047212">
        <ele>151.358035</ele>
        <time>2026-08-18T06:36:32.000Z</time>
      </trkpt>
      <trkpt lat="22.901282" lon="111.047262">
        <ele>151.387017</ele>
        <time>2026-08-18T06:36:33.000Z</time>
      </trkpt>
      <trkpt lat="22.901301" lon="111.047310">
        <ele>151.415222</ele>
        <time>2026-08-18T06:36:34.000Z</time>
      </trkpt>
      <trkpt lat="22.901322" lon="111.047358">
        <ele>151.443910</ele>
        <time>2026-08-18T06:36:35.000Z</time>
      </trkpt>
      <trkpt lat="22.901342" lon="111.047406">
        <ele>151.472352</ele>
        <time>2026-08-18T06:36:36.000Z</time>
      </trkpt>
      <trkpt lat="22.901363" lon="111.047453">
        <ele>151.500554</ele>
        <time>2026-08-18T06:36:37.000Z</time>
      </trkpt>
      <trkpt lat="22.901387" lon="111.047500">
        <ele>151.529566</ele>
        <time>2026-08-18T06:36:38.000Z</time>
      </trkpt>
      <trkpt lat="22.901408" lon="111.047547">
        <ele>151.557768</ele>
        <time>2026-08-18T06:36:39.000Z</time>
      </trkpt>
      <trkpt lat="22.901428" lon="111.047595">
        <ele>151.586209</ele>
        <time>2026-08-18T06:36:40.000Z</time>
      </trkpt>
      <trkpt lat="22.901450" lon="111.047644">
        <ele>151.615638</ele>
        <time>2026-08-18T06:36:41.000Z</time>
      </trkpt>
      <trkpt lat="22.901473" lon="111.047691">
        <ele>151.644371</ele>
        <time>2026-08-18T06:36:42.000Z</time>
      </trkpt>
      <trkpt lat="22.901496" lon="111.047739">
        <ele>151.673581</ele>
        <time>2026-08-18T06:36:43.000Z</time>
      </trkpt>
      <trkpt lat="22.901518" lon="111.047786">
        <ele>151.702043</ele>
        <time>2026-08-18T06:36:44.000Z</time>
      </trkpt>
      <trkpt lat="22.901539" lon="111.047836">
        <ele>151.731711</ele>
        <time>2026-08-18T06:36:45.000Z</time>
      </trkpt>
      <trkpt lat="22.901561" lon="111.047884">
        <ele>151.760655</ele>
        <time>2026-08-18T06:36:46.000Z</time>
      </trkpt>
      <trkpt lat="22.901580" lon="111.047933">
        <ele>151.789357</ele>
        <time>2026-08-18T06:36:47.000Z</time>
      </trkpt>
      <trkpt lat="22.901598" lon="111.047981">
        <ele>151.817337</ele>
        <time>2026-08-18T06:36:48.000Z</time>
      </trkpt>
      <trkpt lat="22.901619" lon="111.048030">
        <ele>151.846513</ele>
        <time>2026-08-18T06:36:49.000Z</time>
      </trkpt>
      <trkpt lat="22.901639" lon="111.048079">
        <ele>151.875448</ele>
        <time>2026-08-18T06:36:50.000Z</time>
      </trkpt>
      <trkpt lat="22.901662" lon="111.048128">
        <ele>151.905138</ele>
        <time>2026-08-18T06:36:51.000Z</time>
      </trkpt>
      <trkpt lat="22.901686" lon="111.048179">
        <ele>151.936057</ele>
        <time>2026-08-18T06:36:52.000Z</time>
      </trkpt>
      <trkpt lat="22.901709" lon="111.048228">
        <ele>151.965747</ele>
        <time>2026-08-18T06:36:53.000Z</time>
      </trkpt>
      <trkpt lat="22.901731" lon="111.048277">
        <ele>151.995176</ele>
        <time>2026-08-18T06:36:54.000Z</time>
      </trkpt>
      <trkpt lat="22.901752" lon="111.048326">
        <ele>152.024353</ele>
        <time>2026-08-18T06:36:55.000Z</time>
      </trkpt>
      <trkpt lat="22.901774" lon="111.048374">
        <ele>152.053297</ele>
        <time>2026-08-18T06:36:56.000Z</time>
      </trkpt>
      <trkpt lat="22.901796" lon="111.048422">
        <ele>152.082242</ele>
        <time>2026-08-18T06:36:57.000Z</time>
      </trkpt>
      <trkpt lat="22.901819" lon="111.048470">
        <ele>152.111452</ele>
        <time>2026-08-18T06:36:58.000Z</time>
      </trkpt>
      <trkpt lat="22.901841" lon="111.048519">
        <ele>152.140881</ele>
        <time>2026-08-18T06:36:59.000Z</time>
      </trkpt>
      <trkpt lat="22.901863" lon="111.048567">
        <ele>152.169826</ele>
        <time>2026-08-18T06:37:00.000Z</time>
      </trkpt>
      <trkpt lat="22.901885" lon="111.048615">
        <ele>152.198770</ele>
        <time>2026-08-18T06:37:01.000Z</time>
      </trkpt>
      <trkpt lat="22.901904" lon="111.048662">
        <ele>152.226480</ele>
        <time>2026-08-18T06:37:02.000Z</time>
      </trkpt>
      <trkpt lat="22.901924" lon="111.048708">
        <ele>152.253942</ele>
        <time>2026-08-18T06:37:03.000Z</time>
      </trkpt>
      <trkpt lat="22.901942" lon="111.048756">
        <ele>152.281921</ele>
        <time>2026-08-18T06:37:04.000Z</time>
      </trkpt>
      <trkpt lat="22.901959" lon="111.048804">
        <ele>152.309684</ele>
        <time>2026-08-18T06:37:05.000Z</time>
      </trkpt>
      <trkpt lat="22.901978" lon="111.048852">
        <ele>152.337890</ele>
        <time>2026-08-18T06:37:06.000Z</time>
      </trkpt>
      <trkpt lat="22.901997" lon="111.048900">
        <ele>152.403957</ele>
        <time>2026-08-18T06:37:07.000Z</time>
      </trkpt>
      <trkpt lat="22.902015" lon="111.048948">
        <ele>152.476636</ele>
        <time>2026-08-18T06:37:08.000Z</time>
      </trkpt>
      <trkpt lat="22.902034" lon="111.048994">
        <ele>152.547334</ele>
        <time>2026-08-18T06:37:09.000Z</time>
      </trkpt>
      <trkpt lat="22.902053" lon="111.049041">
        <ele>152.619314</ele>
        <time>2026-08-18T06:37:10.000Z</time>
      </trkpt>
      <trkpt lat="22.902072" lon="111.049088">
        <ele>152.691295</ele>
        <time>2026-08-18T06:37:11.000Z</time>
      </trkpt>
      <trkpt lat="22.902091" lon="111.049134">
        <ele>152.761993</ele>
        <time>2026-08-18T06:37:12.000Z</time>
      </trkpt>
      <trkpt lat="22.902112" lon="111.049178">
        <ele>152.831488</ele>
        <time>2026-08-18T06:37:13.000Z</time>
      </trkpt>
      <trkpt lat="22.902133" lon="111.049221">
        <ele>152.899742</ele>
        <time>2026-08-18T06:37:14.000Z</time>
      </trkpt>
      <trkpt lat="22.902156" lon="111.049264">
        <ele>152.969473</ele>
        <time>2026-08-18T06:37:15.000Z</time>
      </trkpt>
      <trkpt lat="22.902177" lon="111.049307">
        <ele>153.037727</ele>
        <time>2026-08-18T06:37:16.000Z</time>
      </trkpt>
      <trkpt lat="22.902199" lon="111.049350">
        <ele>153.106707</ele>
        <time>2026-08-18T06:37:17.000Z</time>
      </trkpt>
      <trkpt lat="22.902217" lon="111.049393">
        <ele>153.172944</ele>
        <time>2026-08-18T06:37:18.000Z</time>
      </trkpt>
      <trkpt lat="22.902237" lon="111.049438">
        <ele>153.243013</ele>
        <time>2026-08-18T06:37:19.000Z</time>
      </trkpt>
      <trkpt lat="22.902258" lon="111.049482">
        <ele>153.312508</ele>
        <time>2026-08-18T06:37:20.000Z</time>
      </trkpt>
      <trkpt lat="22.902277" lon="111.049526">
        <ele>153.380657</ele>
        <time>2026-08-18T06:37:21.000Z</time>
      </trkpt>
      <trkpt lat="22.902296" lon="111.049571">
        <ele>153.450078</ele>
        <time>2026-08-18T06:37:22.000Z</time>
      </trkpt>
      <trkpt lat="22.902318" lon="111.049615">
        <ele>153.520287</ele>
        <time>2026-08-18T06:37:23.000Z</time>
      </trkpt>
      <trkpt lat="22.902341" lon="111.049659">
        <ele>153.591234</ele>
        <time>2026-08-18T06:37:24.000Z</time>
      </trkpt>
      <trkpt lat="22.902359" lon="111.049703">
        <ele>153.658751</ele>
        <time>2026-08-18T06:37:25.000Z</time>
      </trkpt>
      <trkpt lat="22.902381" lon="111.049748">
        <ele>153.730195</ele>
        <time>2026-08-18T06:37:26.000Z</time>
      </trkpt>
      <trkpt lat="22.902401" lon="111.049789">
        <ele>153.795258</ele>
        <time>2026-08-18T06:37:27.000Z</time>
      </trkpt>
      <trkpt lat="22.902420" lon="111.049830">
        <ele>153.859621</ele>
        <time>2026-08-18T06:37:28.000Z</time>
      </trkpt>
      <trkpt lat="22.902441" lon="111.049873">
        <ele>153.927875</ele>
        <time>2026-08-18T06:37:29.000Z</time>
      </trkpt>
      <trkpt lat="22.902459" lon="111.049916">
        <ele>153.994112</ele>
        <time>2026-08-18T06:37:30.000Z</time>
      </trkpt>
      <trkpt lat="22.902478" lon="111.049958">
        <ele>154.059732</ele>
        <time>2026-08-18T06:37:31.000Z</time>
      </trkpt>
      <trkpt lat="22.902499" lon="111.050000">
        <ele>154.126749</ele>
        <time>2026-08-18T06:37:32.000Z</time>
      </trkpt>
      <trkpt lat="22.902517" lon="111.050043">
        <ele>154.192986</ele>
        <time>2026-08-18T06:37:33.000Z</time>
      </trkpt>
      <trkpt lat="22.902534" lon="111.050085">
        <ele>154.257322</ele>
        <time>2026-08-18T06:37:34.000Z</time>
      </trkpt>
      <trkpt lat="22.902553" lon="111.050126">
        <ele>154.321685</ele>
        <time>2026-08-18T06:37:35.000Z</time>
      </trkpt>
      <trkpt lat="22.902569" lon="111.050169">
        <ele>154.386722</ele>
        <time>2026-08-18T06:37:36.000Z</time>
      </trkpt>
      <trkpt lat="22.902585" lon="111.050213">
        <ele>154.453061</ele>
        <time>2026-08-18T06:37:37.000Z</time>
      </trkpt>
      <trkpt lat="22.902603" lon="111.050256">
        <ele>154.519298</ele>
        <time>2026-08-18T06:37:38.000Z</time>
      </trkpt>
      <trkpt lat="22.902620" lon="111.050298">
        <ele>154.583633</ele>
        <time>2026-08-18T06:37:39.000Z</time>
      </trkpt>
      <trkpt lat="22.902637" lon="111.050340">
        <ele>154.647969</ele>
        <time>2026-08-18T06:37:40.000Z</time>
      </trkpt>
      <trkpt lat="22.902658" lon="111.050379">
        <ele>154.711320</ele>
        <time>2026-08-18T06:37:41.000Z</time>
      </trkpt>
      <trkpt lat="22.902679" lon="111.050420">
        <ele>154.777109</ele>
        <time>2026-08-18T06:37:42.000Z</time>
      </trkpt>
      <trkpt lat="22.902697" lon="111.050460">
        <ele>154.839540</ele>
        <time>2026-08-18T06:37:43.000Z</time>
      </trkpt>
      <trkpt lat="22.902714" lon="111.050501">
        <ele>154.902594</ele>
        <time>2026-08-18T06:37:44.000Z</time>
      </trkpt>
      <trkpt lat="22.902728" lon="111.050542">
        <ele>154.963915</ele>
        <time>2026-08-18T06:37:45.000Z</time>
      </trkpt>
      <trkpt lat="22.902743" lon="111.050583">
        <ele>155.025782</ele>
        <time>2026-08-18T06:37:46.000Z</time>
      </trkpt>
      <trkpt lat="22.902757" lon="111.050625">
        <ele>155.089482</ele>
        <time>2026-08-18T06:37:47.000Z</time>
      </trkpt>
      <trkpt lat="22.902775" lon="111.050665">
        <ele>155.160453</ele>
        <time>2026-08-18T06:37:48.000Z</time>
      </trkpt>
      <trkpt lat="22.902794" lon="111.050706">
        <ele>155.233622</ele>
        <time>2026-08-18T06:37:49.000Z</time>
      </trkpt>
      <trkpt lat="22.902810" lon="111.050747">
        <ele>155.304609</ele>
        <time>2026-08-18T06:37:50.000Z</time>
      </trkpt>
      <trkpt lat="22.902826" lon="111.050787">
        <ele>155.374130</ele>
        <time>2026-08-18T06:37:51.000Z</time>
      </trkpt>
      <trkpt lat="22.902840" lon="111.050826">
        <ele>155.440859</ele>
        <time>2026-08-18T06:37:52.000Z</time>
      </trkpt>
      <trkpt lat="22.902856" lon="111.050865">
        <ele>155.508922</ele>
        <time>2026-08-18T06:37:53.000Z</time>
      </trkpt>
      <trkpt lat="22.902870" lon="111.050904">
        <ele>155.575651</ele>
        <time>2026-08-18T06:37:54.000Z</time>
      </trkpt>
      <trkpt lat="22.902886" lon="111.050944">
        <ele>155.645173</ele>
        <time>2026-08-18T06:37:55.000Z</time>
      </trkpt>
      <trkpt lat="22.902904" lon="111.050986">
        <ele>155.719022</ele>
        <time>2026-08-18T06:37:56.000Z</time>
      </trkpt>
      <trkpt lat="22.902924" lon="111.051027">
        <ele>155.792984</ele>
        <time>2026-08-18T06:37:57.000Z</time>
      </trkpt>
      <trkpt lat="22.902942" lon="111.051068">
        <ele>155.865392</ele>
        <time>2026-08-18T06:37:58.000Z</time>
      </trkpt>
      <trkpt lat="22.902956" lon="111.051112">
        <ele>155.939604</ele>
        <time>2026-08-18T06:37:59.000Z</time>
      </trkpt>
      <trkpt lat="22.902972" lon="111.051154">
        <ele>156.012062</ele>
        <time>2026-08-18T06:38:00.000Z</time>
      </trkpt>
      <trkpt lat="22.902989" lon="111.051194">
        <ele>156.082290</ele>
        <time>2026-08-18T06:38:01.000Z</time>
      </trkpt>
      <trkpt lat="22.903006" lon="111.051234">
        <ele>156.152519</ele>
        <time>2026-08-18T06:38:02.000Z</time>
      </trkpt>
      <trkpt lat="22.903020" lon="111.051275">
        <ele>156.222229</ele>
        <time>2026-08-18T06:38:03.000Z</time>
      </trkpt>
      <trkpt lat="22.903035" lon="111.051315">
        <ele>156.291079</ele>
        <time>2026-08-18T06:38:04.000Z</time>
      </trkpt>
      <trkpt lat="22.903050" lon="111.051355">
        <ele>156.359930</ele>
        <time>2026-08-18T06:38:05.000Z</time>
      </trkpt>
      <trkpt lat="22.903063" lon="111.051391">
        <ele>156.421574</ele>
        <time>2026-08-18T06:38:06.000Z</time>
      </trkpt>
      <trkpt lat="22.903078" lon="111.051429">
        <ele>156.487483</ele>
        <time>2026-08-18T06:38:07.000Z</time>
      </trkpt>
      <trkpt lat="22.903094" lon="111.051467">
        <ele>156.554092</ele>
        <time>2026-08-18T06:38:08.000Z</time>
      </trkpt>
      <trkpt lat="22.903104" lon="111.051504">
        <ele>156.615564</ele>
        <time>2026-08-18T06:38:09.000Z</time>
      </trkpt>
      <trkpt lat="22.903113" lon="111.051541">
        <ele>156.676573</ele>
        <time>2026-08-18T06:38:10.000Z</time>
      </trkpt>
      <trkpt lat="22.903126" lon="111.051578">
        <ele>156.739704</ele>
        <time>2026-08-18T06:38:11.000Z</time>
      </trkpt>
      <trkpt lat="22.903143" lon="111.051615">
        <ele>156.805620</ele>
        <time>2026-08-18T06:38:12.000Z</time>
      </trkpt>
      <trkpt lat="22.903162" lon="111.051652">
        <ele>156.873153</ele>
        <time>2026-08-18T06:38:13.000Z</time>
      </trkpt>
      <trkpt lat="22.903178" lon="111.051690">
        <ele>156.939762</ele>
        <time>2026-08-18T06:38:14.000Z</time>
      </trkpt>
      <trkpt lat="22.903195" lon="111.051731">
        <ele>157.011442</ele>
        <time>2026-08-18T06:38:15.000Z</time>
      </trkpt>
      <trkpt lat="22.903211" lon="111.051771">
        <ele>157.080963</ele>
        <time>2026-08-18T06:38:16.000Z</time>
      </trkpt>
      <trkpt lat="22.903225" lon="111.051812">
        <ele>157.150672</ele>
        <time>2026-08-18T06:38:17.000Z</time>
      </trkpt>
      <trkpt lat="22.903241" lon="111.051851">
        <ele>157.218735</ele>
        <time>2026-08-18T06:38:18.000Z</time>
      </trkpt>
      <trkpt lat="22.903254" lon="111.051892">
        <ele>157.287861</ele>
        <time>2026-08-18T06:38:19.000Z</time>
      </trkpt>
      <trkpt lat="22.903267" lon="111.051932">
        <ele>157.355483</ele>
        <time>2026-08-18T06:38:20.000Z</time>
      </trkpt>
      <trkpt lat="22.903280" lon="111.051972">
        <ele>157.423104</ele>
        <time>2026-08-18T06:38:21.000Z</time>
      </trkpt>
      <trkpt lat="22.903302" lon="111.052008">
        <ele>157.491977</ele>
        <time>2026-08-18T06:38:22.000Z</time>
      </trkpt>
      <trkpt lat="22.903325" lon="111.052045">
        <ele>157.563138</ele>
        <time>2026-08-18T06:38:23.000Z</time>
      </trkpt>
      <trkpt lat="22.903345" lon="111.052083">
        <ele>157.632909</ele>
        <time>2026-08-18T06:38:24.000Z</time>
      </trkpt>
      <trkpt lat="22.903364" lon="111.052121">
        <ele>157.701839</ele>
        <time>2026-08-18T06:38:25.000Z</time>
      </trkpt>
      <trkpt lat="22.903382" lon="111.052161">
        <ele>157.772810</ele>
        <time>2026-08-18T06:38:26.000Z</time>
      </trkpt>
      <trkpt lat="22.903399" lon="111.052200">
        <ele>157.841594</ele>
        <time>2026-08-18T06:38:27.000Z</time>
      </trkpt>
      <trkpt lat="22.903417" lon="111.052239">
        <ele>157.911136</ele>
        <time>2026-08-18T06:38:28.000Z</time>
      </trkpt>
      <trkpt lat="22.903435" lon="111.052281">
        <ele>157.984986</ele>
        <time>2026-08-18T06:38:29.000Z</time>
      </trkpt>
      <trkpt lat="22.903452" lon="111.052324">
        <ele>158.059584</ele>
        <time>2026-08-18T06:38:30.000Z</time>
      </trkpt>
      <trkpt lat="22.903470" lon="111.052367">
        <ele>158.134882</ele>
        <time>2026-08-18T06:38:31.000Z</time>
      </trkpt>
      <trkpt lat="22.903491" lon="111.052412">
        <ele>158.178724</ele>
        <time>2026-08-18T06:38:32.000Z</time>
      </trkpt>
      <trkpt lat="22.903516" lon="111.052455">
        <ele>158.123819</ele>
        <time>2026-08-18T06:38:33.000Z</time>
      </trkpt>
      <trkpt lat="22.903540" lon="111.052496">
        <ele>158.071365</ele>
        <time>2026-08-18T06:38:34.000Z</time>
      </trkpt>
      <trkpt lat="22.903561" lon="111.052537">
        <ele>158.020711</ele>
        <time>2026-08-18T06:38:35.000Z</time>
      </trkpt>
      <trkpt lat="22.903581" lon="111.052578">
        <ele>157.970616</ele>
        <time>2026-08-18T06:38:36.000Z</time>
      </trkpt>
      <trkpt lat="22.903602" lon="111.052621">
        <ele>157.918063</ele>
        <time>2026-08-18T06:38:37.000Z</time>
      </trkpt>
      <trkpt lat="22.903623" lon="111.052663">
        <ele>157.866462</ele>
        <time>2026-08-18T06:38:38.000Z</time>
      </trkpt>
      <trkpt lat="22.903643" lon="111.052706">
        <ele>157.814449</ele>
        <time>2026-08-18T06:38:39.000Z</time>
      </trkpt>
      <trkpt lat="22.903664" lon="111.052750">
        <ele>157.760940</ele>
        <time>2026-08-18T06:38:40.000Z</time>
      </trkpt>
      <trkpt lat="22.903686" lon="111.052794">
        <ele>157.706882</ele>
        <time>2026-08-18T06:38:41.000Z</time>
      </trkpt>
      <trkpt lat="22.903708" lon="111.052838">
        <ele>157.652824</ele>
        <time>2026-08-18T06:38:42.000Z</time>
      </trkpt>
      <trkpt lat="22.903729" lon="111.052884">
        <ele>157.597389</ele>
        <time>2026-08-18T06:38:43.000Z</time>
      </trkpt>
      <trkpt lat="22.903748" lon="111.052930">
        <ele>157.542954</ele>
        <time>2026-08-18T06:38:44.000Z</time>
      </trkpt>
      <trkpt lat="22.903771" lon="111.052977">
        <ele>157.485488</ele>
        <time>2026-08-18T06:38:45.000Z</time>
      </trkpt>
      <trkpt lat="22.903795" lon="111.053024">
        <ele>157.427462</ele>
        <time>2026-08-18T06:38:46.000Z</time>
      </trkpt>
      <trkpt lat="22.903820" lon="111.053073">
        <ele>157.366980</ele>
        <time>2026-08-18T06:38:47.000Z</time>
      </trkpt>
      <trkpt lat="22.903845" lon="111.053122">
        <ele>157.306497</ele>
        <time>2026-08-18T06:38:48.000Z</time>
      </trkpt>
      <trkpt lat="22.903871" lon="111.053173">
        <ele>157.243557</ele>
        <time>2026-08-18T06:38:49.000Z</time>
      </trkpt>
      <trkpt lat="22.903895" lon="111.053224">
        <ele>157.181719</ele>
        <time>2026-08-18T06:38:50.000Z</time>
      </trkpt>
      <trkpt lat="22.903919" lon="111.053277">
        <ele>157.117950</ele>
        <time>2026-08-18T06:38:51.000Z</time>
      </trkpt>
      <trkpt lat="22.903943" lon="111.053331">
        <ele>157.053210</ele>
        <time>2026-08-18T06:38:52.000Z</time>
      </trkpt>
      <trkpt lat="22.903969" lon="111.053384">
        <ele>156.988372</ele>
        <time>2026-08-18T06:38:53.000Z</time>
      </trkpt>
      <trkpt lat="22.903995" lon="111.053439">
        <ele>156.921620</ele>
        <time>2026-08-18T06:38:54.000Z</time>
      </trkpt>
      <trkpt lat="22.904018" lon="111.053493">
        <ele>156.857381</ele>
        <time>2026-08-18T06:38:55.000Z</time>
      </trkpt>
      <trkpt lat="22.904041" lon="111.053548">
        <ele>156.792160</ele>
        <time>2026-08-18T06:38:56.000Z</time>
      </trkpt>
      <trkpt lat="22.904065" lon="111.053604">
        <ele>156.725469</ele>
        <time>2026-08-18T06:38:57.000Z</time>
      </trkpt>
      <trkpt lat="22.904085" lon="111.053663">
        <ele>156.657585</ele>
        <time>2026-08-18T06:38:58.000Z</time>
      </trkpt>
      <trkpt lat="22.904104" lon="111.053726">
        <ele>156.586006</ele>
        <time>2026-08-18T06:38:59.000Z</time>
      </trkpt>
      <trkpt lat="22.904125" lon="111.053787">
        <ele>156.515690</ele>
        <time>2026-08-18T06:39:00.000Z</time>
      </trkpt>
      <trkpt lat="22.904148" lon="111.053848">
        <ele>156.444520</ele>
        <time>2026-08-18T06:39:01.000Z</time>
      </trkpt>
      <trkpt lat="22.904172" lon="111.053909">
        <ele>156.372897</ele>
        <time>2026-08-18T06:39:02.000Z</time>
      </trkpt>
      <trkpt lat="22.904194" lon="111.053971">
        <ele>156.301156</ele>
        <time>2026-08-18T06:39:03.000Z</time>
      </trkpt>
      <trkpt lat="22.904217" lon="111.054035">
        <ele>156.226977</ele>
        <time>2026-08-18T06:39:04.000Z</time>
      </trkpt>
      <trkpt lat="22.904239" lon="111.054097">
        <ele>156.155236</ele>
        <time>2026-08-18T06:39:05.000Z</time>
      </trkpt>
      <trkpt lat="22.904260" lon="111.054160">
        <ele>156.081697</ele>
        <time>2026-08-18T06:39:06.000Z</time>
      </trkpt>
      <trkpt lat="22.904281" lon="111.054224">
        <ele>155.969177</ele>
        <time>2026-08-18T06:39:07.000Z</time>
      </trkpt>
      <trkpt lat="22.904299" lon="111.054289">
        <ele>155.856765</ele>
        <time>2026-08-18T06:39:08.000Z</time>
      </trkpt>
      <trkpt lat="22.904318" lon="111.054354">
        <ele>155.743822</ele>
        <time>2026-08-18T06:39:09.000Z</time>
      </trkpt>
      <trkpt lat="22.904336" lon="111.054421">
        <ele>155.628234</ele>
        <time>2026-08-18T06:39:10.000Z</time>
      </trkpt>
      <trkpt lat="22.904355" lon="111.054489">
        <ele>155.510546</ele>
        <time>2026-08-18T06:39:11.000Z</time>
      </trkpt>
      <trkpt lat="22.904374" lon="111.054556">
        <ele>155.394442</ele>
        <time>2026-08-18T06:39:12.000Z</time>
      </trkpt>
      <trkpt lat="22.904390" lon="111.054623">
        <ele>155.279809</ele>
        <time>2026-08-18T06:39:13.000Z</time>
      </trkpt>
      <trkpt lat="22.904403" lon="111.054693">
        <ele>155.161543</ele>
        <time>2026-08-18T06:39:14.000Z</time>
      </trkpt>
      <trkpt lat="22.904414" lon="111.054762">
        <ele>155.045567</ele>
        <time>2026-08-18T06:39:15.000Z</time>
      </trkpt>
      <trkpt lat="22.904426" lon="111.054833">
        <ele>154.926015</ele>
        <time>2026-08-18T06:39:16.000Z</time>
      </trkpt>
      <trkpt lat="22.904437" lon="111.054904">
        <ele>154.806773</ele>
        <time>2026-08-18T06:39:17.000Z</time>
      </trkpt>
      <trkpt lat="22.904447" lon="111.054976">
        <ele>154.686180</ele>
        <time>2026-08-18T06:39:18.000Z</time>
      </trkpt>
      <trkpt lat="22.904457" lon="111.055049">
        <ele>154.563948</ele>
        <time>2026-08-18T06:39:19.000Z</time>
      </trkpt>
      <trkpt lat="22.904464" lon="111.055123">
        <ele>154.440746</ele>
        <time>2026-08-18T06:39:20.000Z</time>
      </trkpt>
      <trkpt lat="22.904471" lon="111.055199">
        <ele>154.314248</ele>
        <time>2026-08-18T06:39:21.000Z</time>
      </trkpt>
      <trkpt lat="22.904478" lon="111.055274">
        <ele>154.189398</ele>
        <time>2026-08-18T06:39:22.000Z</time>
      </trkpt>
      <trkpt lat="22.904483" lon="111.055349">
        <ele>154.064858</ele>
        <time>2026-08-18T06:39:23.000Z</time>
      </trkpt>
      <trkpt lat="22.904485" lon="111.055423">
        <ele>153.942248</ele>
        <time>2026-08-18T06:39:24.000Z</time>
      </trkpt>
      <trkpt lat="22.904486" lon="111.055497">
        <ele>153.819676</ele>
        <time>2026-08-18T06:39:25.000Z</time>
      </trkpt>
      <trkpt lat="22.904491" lon="111.055573">
        <ele>153.693485</ele>
        <time>2026-08-18T06:39:26.000Z</time>
      </trkpt>
      <trkpt lat="22.904495" lon="111.055647">
        <ele>153.570717</ele>
        <time>2026-08-18T06:39:27.000Z</time>
      </trkpt>
      <trkpt lat="22.904495" lon="111.055719">
        <ele>153.451471</ele>
        <time>2026-08-18T06:39:28.000Z</time>
      </trkpt>
      <trkpt lat="22.904493" lon="111.055793">
        <ele>153.328860</ele>
        <time>2026-08-18T06:39:29.000Z</time>
      </trkpt>
      <trkpt lat="22.904492" lon="111.055866">
        <ele>153.207945</ele>
        <time>2026-08-18T06:39:30.000Z</time>
      </trkpt>
      <trkpt lat="22.904491" lon="111.055940">
        <ele>153.085374</ele>
        <time>2026-08-18T06:39:31.000Z</time>
      </trkpt>
      <trkpt lat="22.904487" lon="111.056014">
        <ele>152.962605</ele>
        <time>2026-08-18T06:39:32.000Z</time>
      </trkpt>
      <trkpt lat="22.904482" lon="111.056087">
        <ele>152.842069</ele>
        <time>2026-08-18T06:39:33.000Z</time>
      </trkpt>
      <trkpt lat="22.904476" lon="111.056159">
        <ele>152.730807</ele>
        <time>2026-08-18T06:39:34.000Z</time>
      </trkpt>
      <trkpt lat="22.904469" lon="111.056231">
        <ele>152.619382</ele>
        <time>2026-08-18T06:39:35.000Z</time>
      </trkpt>
      <trkpt lat="22.904458" lon="111.056303">
        <ele>152.507059</ele>
        <time>2026-08-18T06:39:36.000Z</time>
      </trkpt>
      <trkpt lat="22.904446" lon="111.056375">
        <ele>152.394451</ele>
        <time>2026-08-18T06:39:37.000Z</time>
      </trkpt>
      <trkpt lat="22.904434" lon="111.056444">
        <ele>152.286382</ele>
        <time>2026-08-18T06:39:38.000Z</time>
      </trkpt>
      <trkpt lat="22.904423" lon="111.056517">
        <ele>152.172540</ele>
        <time>2026-08-18T06:39:39.000Z</time>
      </trkpt>
      <trkpt lat="22.904410" lon="111.056589">
        <ele>152.059622</ele>
        <time>2026-08-18T06:39:40.000Z</time>
      </trkpt>
      <trkpt lat="22.904399" lon="111.056660">
        <ele>151.948817</ele>
        <time>2026-08-18T06:39:41.000Z</time>
      </trkpt>
      <trkpt lat="22.904386" lon="111.056731">
        <ele>151.837409</ele>
        <time>2026-08-18T06:39:42.000Z</time>
      </trkpt>
      <trkpt lat="22.904373" lon="111.056801">
        <ele>151.727510</ele>
        <time>2026-08-18T06:39:43.000Z</time>
      </trkpt>
      <trkpt lat="22.904360" lon="111.056872">
        <ele>151.616101</ele>
        <time>2026-08-18T06:39:44.000Z</time>
      </trkpt>
      <trkpt lat="22.904343" lon="111.056939">
        <ele>151.509147</ele>
        <time>2026-08-18T06:39:45.000Z</time>
      </trkpt>
      <trkpt lat="22.904324" lon="111.057004">
        <ele>151.404194</ele>
        <time>2026-08-18T06:39:46.000Z</time>
      </trkpt>
      <trkpt lat="22.904299" lon="111.057070">
        <ele>151.294366</ele>
        <time>2026-08-18T06:39:47.000Z</time>
      </trkpt>
      <trkpt lat="22.904280" lon="111.057141">
        <ele>151.180578</ele>
        <time>2026-08-18T06:39:48.000Z</time>
      </trkpt>
      <trkpt lat="22.904258" lon="111.057214">
        <ele>151.062370</ele>
        <time>2026-08-18T06:39:49.000Z</time>
      </trkpt>
      <trkpt lat="22.904242" lon="111.057276">
        <ele>150.963276</ele>
        <time>2026-08-18T06:39:50.000Z</time>
      </trkpt>
      <trkpt lat="22.904226" lon="111.057350">
        <ele>150.846294</ele>
        <time>2026-08-18T06:39:51.000Z</time>
      </trkpt>
      <trkpt lat="22.904194" lon="111.057422">
        <ele>150.723260</ele>
        <time>2026-08-18T06:39:52.000Z</time>
      </trkpt>
      <trkpt lat="22.904182" lon="111.057497">
        <ele>150.606105</ele>
        <time>2026-08-18T06:39:53.000Z</time>
      </trkpt>
      <trkpt lat="22.904169" lon="111.057574">
        <ele>150.485626</ele>
        <time>2026-08-18T06:39:54.000Z</time>
      </trkpt>
      <trkpt lat="22.904159" lon="111.057649">
        <ele>150.368997</ele>
        <time>2026-08-18T06:39:55.000Z</time>
      </trkpt>
      <trkpt lat="22.904145" lon="111.057726">
        <ele>150.248206</ele>
        <time>2026-08-18T06:39:56.000Z</time>
      </trkpt>
      <trkpt lat="22.904133" lon="111.057803">
        <ele>150.128017</ele>
        <time>2026-08-18T06:39:57.000Z</time>
      </trkpt>
      <trkpt lat="22.904126" lon="111.057879">
        <ele>150.010468</ele>
        <time>2026-08-18T06:39:58.000Z</time>
      </trkpt>
      <trkpt lat="22.904116" lon="111.057953">
        <ele>149.895361</ele>
        <time>2026-08-18T06:39:59.000Z</time>
      </trkpt>
      <trkpt lat="22.904099" lon="111.058025">
        <ele>149.823866</ele>
        <time>2026-08-18T06:40:00.000Z</time>
      </trkpt>
      <trkpt lat="22.904085" lon="111.058102">
        <ele>149.782533</ele>
        <time>2026-08-18T06:40:01.000Z</time>
      </trkpt>
      <trkpt lat="22.904072" lon="111.058177">
        <ele>149.742342</ele>
        <time>2026-08-18T06:40:02.000Z</time>
      </trkpt>
      <trkpt lat="22.904056" lon="111.058250">
        <ele>149.702824</ele>
        <time>2026-08-18T06:40:03.000Z</time>
      </trkpt>
      <trkpt lat="22.904036" lon="111.058321">
        <ele>149.663723</ele>
        <time>2026-08-18T06:40:04.000Z</time>
      </trkpt>
      <trkpt lat="22.904022" lon="111.058396">
        <ele>149.623423</ele>
        <time>2026-08-18T06:40:05.000Z</time>
      </trkpt>
      <trkpt lat="22.904010" lon="111.058473">
        <ele>149.582295</ele>
        <time>2026-08-18T06:40:06.000Z</time>
      </trkpt>
      <trkpt lat="22.904000" lon="111.058548">
        <ele>149.542386</ele>
        <time>2026-08-18T06:40:07.000Z</time>
      </trkpt>
      <trkpt lat="22.903990" lon="111.058621">
        <ele>149.503518</ele>
        <time>2026-08-18T06:40:08.000Z</time>
      </trkpt>
      <trkpt lat="22.903980" lon="111.058693">
        <ele>149.465172</ele>
        <time>2026-08-18T06:40:09.000Z</time>
      </trkpt>
      <trkpt lat="22.903970" lon="111.058763">
        <ele>149.427867</ele>
        <time>2026-08-18T06:40:10.000Z</time>
      </trkpt>
      <trkpt lat="22.903958" lon="111.058832">
        <ele>149.390887</ele>
        <time>2026-08-18T06:40:11.000Z</time>
      </trkpt>
      <trkpt lat="22.903945" lon="111.058901">
        <ele>149.353796</ele>
        <time>2026-08-18T06:40:12.000Z</time>
      </trkpt>
      <trkpt lat="22.903937" lon="111.058971">
        <ele>149.316649</ele>
        <time>2026-08-18T06:40:13.000Z</time>
      </trkpt>
      <trkpt lat="22.903927" lon="111.059039">
        <ele>149.280384</ele>
        <time>2026-08-18T06:40:14.000Z</time>
      </trkpt>
      <trkpt lat="22.903913" lon="111.059110">
        <ele>149.242146</ele>
        <time>2026-08-18T06:40:15.000Z</time>
      </trkpt>
      <trkpt lat="22.903899" lon="111.059178">
        <ele>149.205451</ele>
        <time>2026-08-18T06:40:16.000Z</time>
      </trkpt>
      <trkpt lat="22.903887" lon="111.059248">
        <ele>149.167953</ele>
        <time>2026-08-18T06:40:17.000Z</time>
      </trkpt>
      <trkpt lat="22.903877" lon="111.059317">
        <ele>149.131168</ele>
        <time>2026-08-18T06:40:18.000Z</time>
      </trkpt>
      <trkpt lat="22.903864" lon="111.059384">
        <ele>149.095109</ele>
        <time>2026-08-18T06:40:19.000Z</time>
      </trkpt>
      <trkpt lat="22.903850" lon="111.059451">
        <ele>149.058928</ele>
        <time>2026-08-18T06:40:20.000Z</time>
      </trkpt>
      <trkpt lat="22.903840" lon="111.059519">
        <ele>149.022663</ele>
        <time>2026-08-18T06:40:21.000Z</time>
      </trkpt>
      <trkpt lat="22.903828" lon="111.059585">
        <ele>148.987234</ele>
        <time>2026-08-18T06:40:22.000Z</time>
      </trkpt>
      <trkpt lat="22.903815" lon="111.059650">
        <ele>148.952205</ele>
        <time>2026-08-18T06:40:23.000Z</time>
      </trkpt>
      <trkpt lat="22.903803" lon="111.059715">
        <ele>148.917293</ele>
        <time>2026-08-18T06:40:24.000Z</time>
      </trkpt>
      <trkpt lat="22.903790" lon="111.059779">
        <ele>148.882778</ele>
        <time>2026-08-18T06:40:25.000Z</time>
      </trkpt>
      <trkpt lat="22.903778" lon="111.059844">
        <ele>148.847866</ele>
        <time>2026-08-18T06:40:26.000Z</time>
      </trkpt>
      <trkpt lat="22.903764" lon="111.059910">
        <ele>148.816858</ele>
        <time>2026-08-18T06:40:27.000Z</time>
      </trkpt>
      <trkpt lat="22.903754" lon="111.059973">
        <ele>148.810831</ele>
        <time>2026-08-18T06:40:28.000Z</time>
      </trkpt>
      <trkpt lat="22.903739" lon="111.060035">
        <ele>148.804787</ele>
        <time>2026-08-18T06:40:29.000Z</time>
      </trkpt>
      <trkpt lat="22.903724" lon="111.060099">
        <ele>148.798561</ele>
        <time>2026-08-18T06:40:30.000Z</time>
      </trkpt>
      <trkpt lat="22.903713" lon="111.060164">
        <ele>148.792330</ele>
        <time>2026-08-18T06:40:31.000Z</time>
      </trkpt>
      <trkpt lat="22.903702" lon="111.060231">
        <ele>148.785914</ele>
        <time>2026-08-18T06:40:32.000Z</time>
      </trkpt>
      <trkpt lat="22.903690" lon="111.060296">
        <ele>148.779664</ele>
        <time>2026-08-18T06:40:33.000Z</time>
      </trkpt>
      <trkpt lat="22.903679" lon="111.060360">
        <ele>148.773526</ele>
        <time>2026-08-18T06:40:34.000Z</time>
      </trkpt>
      <trkpt lat="22.903670" lon="111.060424">
        <ele>148.767422</ele>
        <time>2026-08-18T06:40:35.000Z</time>
      </trkpt>
      <trkpt lat="22.903656" lon="111.060484">
        <ele>148.761587</ele>
        <time>2026-08-18T06:40:36.000Z</time>
      </trkpt>
      <trkpt lat="22.903644" lon="111.060548">
        <ele>148.755429</ele>
        <time>2026-08-18T06:40:37.000Z</time>
      </trkpt>
      <trkpt lat="22.903632" lon="111.060611">
        <ele>148.749364</ele>
        <time>2026-08-18T06:40:38.000Z</time>
      </trkpt>
      <trkpt lat="22.903622" lon="111.060674">
        <ele>148.743336</ele>
        <time>2026-08-18T06:40:39.000Z</time>
      </trkpt>
      <trkpt lat="22.903609" lon="111.060736">
        <ele>148.737342</ele>
        <time>2026-08-18T06:40:40.000Z</time>
      </trkpt>
      <trkpt lat="22.903596" lon="111.060798">
        <ele>148.731347</ele>
        <time>2026-08-18T06:40:41.000Z</time>
      </trkpt>
      <trkpt lat="22.903583" lon="111.060861">
        <ele>148.725260</ele>
        <time>2026-08-18T06:40:42.000Z</time>
      </trkpt>
      <trkpt lat="22.903570" lon="111.060924">
        <ele>148.719173</ele>
        <time>2026-08-18T06:40:43.000Z</time>
      </trkpt>
      <trkpt lat="22.903557" lon="111.060986">
        <ele>148.713178</ele>
        <time>2026-08-18T06:40:44.000Z</time>
      </trkpt>
      <trkpt lat="22.903544" lon="111.061050">
        <ele>148.706999</ele>
        <time>2026-08-18T06:40:45.000Z</time>
      </trkpt>
      <trkpt lat="22.903532" lon="111.061113">
        <ele>148.700934</ele>
        <time>2026-08-18T06:40:46.000Z</time>
      </trkpt>
      <trkpt lat="22.903519" lon="111.061176">
        <ele>148.694847</ele>
        <time>2026-08-18T06:40:47.000Z</time>
      </trkpt>
      <trkpt lat="22.903507" lon="111.061241">
        <ele>148.688597</ele>
        <time>2026-08-18T06:40:48.000Z</time>
      </trkpt>
      <trkpt lat="22.903493" lon="111.061303">
        <ele>148.682579</ele>
        <time>2026-08-18T06:40:49.000Z</time>
      </trkpt>
      <trkpt lat="22.903479" lon="111.061365">
        <ele>148.676560</ele>
        <time>2026-08-18T06:40:50.000Z</time>
      </trkpt>
      <trkpt lat="22.903464" lon="111.061424">
        <ele>148.670790</ele>
        <time>2026-08-18T06:40:51.000Z</time>
      </trkpt>
      <trkpt lat="22.903449" lon="111.061481">
        <ele>148.665201</ele>
        <time>2026-08-18T06:40:52.000Z</time>
      </trkpt>
      <trkpt lat="22.903437" lon="111.061540">
        <ele>148.659505</ele>
        <time>2026-08-18T06:40:53.000Z</time>
      </trkpt>
      <trkpt lat="22.903425" lon="111.061600">
        <ele>148.653716</ele>
        <time>2026-08-18T06:40:54.000Z</time>
      </trkpt>
      <trkpt lat="22.903413" lon="111.061661">
        <ele>148.647835</ele>
        <time>2026-08-18T06:40:55.000Z</time>
      </trkpt>
      <trkpt lat="22.903400" lon="111.061722">
        <ele>148.641932</ele>
        <time>2026-08-18T06:40:56.000Z</time>
      </trkpt>
      <trkpt lat="22.903387" lon="111.061782">
        <ele>148.636121</ele>
        <time>2026-08-18T06:40:57.000Z</time>
      </trkpt>
      <trkpt lat="22.903373" lon="111.061842">
        <ele>148.640382</ele>
        <time>2026-08-18T06:40:58.000Z</time>
      </trkpt>
      <trkpt lat="22.903361" lon="111.061902">
        <ele>148.651297</ele>
        <time>2026-08-18T06:40:59.000Z</time>
      </trkpt>
      <trkpt lat="22.903350" lon="111.061962">
        <ele>148.662172</ele>
        <time>2026-08-18T06:41:00.000Z</time>
      </trkpt>
      <trkpt lat="22.903338" lon="111.062022">
        <ele>148.673086</ele>
        <time>2026-08-18T06:41:01.000Z</time>
      </trkpt>
      <trkpt lat="22.903326" lon="111.062080">
        <ele>148.683653</ele>
        <time>2026-08-18T06:41:02.000Z</time>
      </trkpt>
      <trkpt lat="22.903316" lon="111.062133">
        <ele>148.693270</ele>
        <time>2026-08-18T06:41:03.000Z</time>
      </trkpt>
      <trkpt lat="22.903302" lon="111.062179">
        <ele>148.701882</ele>
        <time>2026-08-18T06:41:04.000Z</time>
      </trkpt>
      <trkpt lat="22.903286" lon="111.062215">
        <ele>148.708988</ele>
        <time>2026-08-18T06:41:05.000Z</time>
      </trkpt>
      <trkpt lat="22.903267" lon="111.062243">
        <ele>148.715170</ele>
        <time>2026-08-18T06:41:06.000Z</time>
      </trkpt>
      <trkpt lat="22.903245" lon="111.062262">
        <ele>148.720595</ele>
        <time>2026-08-18T06:41:07.000Z</time>
      </trkpt>
      <trkpt lat="22.903220" lon="111.062271">
        <ele>148.725678</ele>
        <time>2026-08-18T06:41:08.000Z</time>
      </trkpt>
      <trkpt lat="22.903197" lon="111.062276">
        <ele>148.730204</ele>
        <time>2026-08-18T06:41:09.000Z</time>
      </trkpt>
      <trkpt lat="22.903178" lon="111.062278">
        <ele>148.733888</ele>
        <time>2026-08-18T06:41:10.000Z</time>
      </trkpt>
      <trkpt lat="22.903167" lon="111.062279">
        <ele>148.736018</ele>
        <time>2026-08-18T06:41:11.000Z</time>
      </trkpt>
      <trkpt lat="22.903164" lon="111.062280">
        <ele>148.736624</ele>
        <time>2026-08-18T06:41:12.000Z</time>
      </trkpt>
      <trkpt lat="22.903166" lon="111.062283">
        <ele>148.737282</ele>
        <time>2026-08-18T06:41:35.000Z</time>
      </trkpt>
      <trkpt lat="22.903168" lon="111.062296">
        <ele>148.739625</ele>
        <time>2026-08-18T06:41:36.000Z</time>
      </trkpt>
      <trkpt lat="22.903176" lon="111.062303">
        <ele>148.741608</ele>
        <time>2026-08-18T06:41:37.000Z</time>
      </trkpt>
      <trkpt lat="22.903188" lon="111.062308">
        <ele>148.744088</ele>
        <time>2026-08-18T06:41:38.000Z</time>
      </trkpt>
      <trkpt lat="22.903203" lon="111.062313">
        <ele>148.747116</ele>
        <time>2026-08-18T06:41:39.000Z</time>
      </trkpt>
      <trkpt lat="22.903219" lon="111.062315">
        <ele>148.750224</ele>
        <time>2026-08-18T06:41:40.000Z</time>
      </trkpt>
      <trkpt lat="22.903233" lon="111.062314">
        <ele>148.752932</ele>
        <time>2026-08-18T06:41:41.000Z</time>
      </trkpt>
      <trkpt lat="22.903248" lon="111.062312">
        <ele>148.755848</ele>
        <time>2026-08-18T06:41:42.000Z</time>
      </trkpt>
      <trkpt lat="22.903262" lon="111.062315">
        <ele>148.758602</ele>
        <time>2026-08-18T06:41:43.000Z</time>
      </trkpt>
      <trkpt lat="22.903273" lon="111.062327">
        <ele>148.761612</ele>
        <time>2026-08-18T06:41:44.000Z</time>
      </trkpt>
      <trkpt lat="22.903277" lon="111.062345">
        <ele>148.764903</ele>
        <time>2026-08-18T06:41:45.000Z</time>
      </trkpt>
      <trkpt lat="22.903278" lon="111.062366">
        <ele>148.768641</ele>
        <time>2026-08-18T06:41:46.000Z</time>
      </trkpt>
      <trkpt lat="22.903273" lon="111.062391">
        <ele>148.773189</ele>
        <time>2026-08-18T06:41:47.000Z</time>
      </trkpt>
      <trkpt lat="22.903269" lon="111.062419">
        <ele>148.778226</ele>
        <time>2026-08-18T06:41:48.000Z</time>
      </trkpt>
      <trkpt lat="22.903266" lon="111.062448">
        <ele>148.783413</ele>
        <time>2026-08-18T06:41:49.000Z</time>
      </trkpt>
      <trkpt lat="22.903262" lon="111.062480">
        <ele>148.789154</ele>
        <time>2026-08-18T06:41:50.000Z</time>
      </trkpt>
      <trkpt lat="22.903256" lon="111.062511">
        <ele>148.794785</ele>
        <time>2026-08-18T06:41:51.000Z</time>
      </trkpt>
      <trkpt lat="22.903250" lon="111.062544">
        <ele>148.800764</ele>
        <time>2026-08-18T06:41:52.000Z</time>
      </trkpt>
      <trkpt lat="22.903243" lon="111.062579">
        <ele>148.807131</ele>
        <time>2026-08-18T06:41:53.000Z</time>
      </trkpt>
      <trkpt lat="22.903237" lon="111.062615">
        <ele>148.813634</ele>
        <time>2026-08-18T06:41:54.000Z</time>
      </trkpt>
      <trkpt lat="22.903232" lon="111.062653">
        <ele>148.820458</ele>
        <time>2026-08-18T06:41:55.000Z</time>
      </trkpt>
      <trkpt lat="22.903228" lon="111.062691">
        <ele>148.827257</ele>
        <time>2026-08-18T06:41:56.000Z</time>
      </trkpt>
      <trkpt lat="22.903224" lon="111.062730">
        <ele>148.834233</ele>
        <time>2026-08-18T06:41:57.000Z</time>
      </trkpt>
      <trkpt lat="22.903218" lon="111.062769">
        <ele>148.841261</ele>
        <time>2026-08-18T06:41:58.000Z</time>
      </trkpt>
      <trkpt lat="22.903212" lon="111.062807">
        <ele>148.848115</ele>
        <time>2026-08-18T06:41:59.000Z</time>
      </trkpt>
      <trkpt lat="22.903206" lon="111.062847">
        <ele>148.855319</ele>
        <time>2026-08-18T06:42:00.000Z</time>
      </trkpt>
      <trkpt lat="22.903201" lon="111.062886">
        <ele>148.862319</ele>
        <time>2026-08-18T06:42:01.000Z</time>
      </trkpt>
      <trkpt lat="22.903197" lon="111.062927">
        <ele>148.869648</ele>
        <time>2026-08-18T06:42:02.000Z</time>
      </trkpt>
      <trkpt lat="22.903193" lon="111.062969">
        <ele>148.877154</ele>
        <time>2026-08-18T06:42:03.000Z</time>
      </trkpt>
      <trkpt lat="22.903191" lon="111.063009">
        <ele>148.884275</ele>
        <time>2026-08-18T06:42:04.000Z</time>
      </trkpt>
      <trkpt lat="22.903188" lon="111.063052">
        <ele>148.891941</ele>
        <time>2026-08-18T06:42:05.000Z</time>
      </trkpt>
      <trkpt lat="22.903186" lon="111.063096">
        <ele>148.899772</ele>
        <time>2026-08-18T06:42:06.000Z</time>
      </trkpt>
      <trkpt lat="22.903185" lon="111.063140">
        <ele>148.907596</ele>
        <time>2026-08-18T06:42:07.000Z</time>
      </trkpt>
      <trkpt lat="22.903184" lon="111.063186">
        <ele>148.915775</ele>
        <time>2026-08-18T06:42:08.000Z</time>
      </trkpt>
      <trkpt lat="22.903183" lon="111.063229">
        <ele>148.923421</ele>
        <time>2026-08-18T06:42:09.000Z</time>
      </trkpt>
      <trkpt lat="22.903182" lon="111.063274">
        <ele>148.931423</ele>
        <time>2026-08-18T06:42:10.000Z</time>
      </trkpt>
      <trkpt lat="22.903182" lon="111.063319">
        <ele>148.939422</ele>
        <time>2026-08-18T06:42:11.000Z</time>
      </trkpt>
      <trkpt lat="22.903182" lon="111.063367">
        <ele>148.947955</ele>
        <time>2026-08-18T06:42:12.000Z</time>
      </trkpt>
      <trkpt lat="22.903184" lon="111.063416">
        <ele>148.956674</ele>
        <time>2026-08-18T06:42:13.000Z</time>
      </trkpt>
      <trkpt lat="22.903187" lon="111.063462">
        <ele>148.964872</ele>
        <time>2026-08-18T06:42:14.000Z</time>
      </trkpt>
      <trkpt lat="22.903193" lon="111.063509">
        <ele>148.973306</ele>
        <time>2026-08-18T06:42:15.000Z</time>
      </trkpt>
      <trkpt lat="22.903200" lon="111.063553">
        <ele>148.980173</ele>
        <time>2026-08-18T06:42:16.000Z</time>
      </trkpt>
      <trkpt lat="22.903210" lon="111.063596">
        <ele>148.964696</ele>
        <time>2026-08-18T06:42:17.000Z</time>
      </trkpt>
      <trkpt lat="22.903221" lon="111.063642">
        <ele>148.948110</ele>
        <time>2026-08-18T06:42:18.000Z</time>
      </trkpt>
      <trkpt lat="22.903229" lon="111.063691">
        <ele>148.930743</ele>
        <time>2026-08-18T06:42:19.000Z</time>
      </trkpt>
      <trkpt lat="22.903241" lon="111.063742">
        <ele>148.912373</ele>
        <time>2026-08-18T06:42:20.000Z</time>
      </trkpt>
      <trkpt lat="22.903254" lon="111.063798">
        <ele>148.892218</ele>
        <time>2026-08-18T06:42:21.000Z</time>
      </trkpt>
      <trkpt lat="22.903266" lon="111.063854">
        <ele>148.872153</ele>
        <time>2026-08-18T06:42:22.000Z</time>
      </trkpt>
      <trkpt lat="22.903276" lon="111.063914">
        <ele>148.850873</ele>
        <time>2026-08-18T06:42:23.000Z</time>
      </trkpt>
      <trkpt lat="22.903287" lon="111.063969">
        <ele>148.831232</ele>
        <time>2026-08-18T06:42:24.000Z</time>
      </trkpt>
      <trkpt lat="22.903298" lon="111.064023">
        <ele>148.811931</ele>
        <time>2026-08-18T06:42:25.000Z</time>
      </trkpt>
      <trkpt lat="22.903312" lon="111.064076">
        <ele>148.792689</ele>
        <time>2026-08-18T06:42:26.000Z</time>
      </trkpt>
      <trkpt lat="22.903326" lon="111.064131">
        <ele>148.772775</ele>
        <time>2026-08-18T06:42:27.000Z</time>
      </trkpt>
      <trkpt lat="22.903340" lon="111.064184">
        <ele>148.753533</ele>
        <time>2026-08-18T06:42:28.000Z</time>
      </trkpt>
      <trkpt lat="22.903356" lon="111.064238">
        <ele>148.733736</ele>
        <time>2026-08-18T06:42:29.000Z</time>
      </trkpt>
      <trkpt lat="22.903371" lon="111.064291">
        <ele>148.714386</ele>
        <time>2026-08-18T06:42:30.000Z</time>
      </trkpt>
      <trkpt lat="22.903387" lon="111.064346">
        <ele>148.694257</ele>
        <time>2026-08-18T06:42:31.000Z</time>
      </trkpt>
      <trkpt lat="22.903402" lon="111.064401">
        <ele>148.674239</ele>
        <time>2026-08-18T06:42:32.000Z</time>
      </trkpt>
      <trkpt lat="22.903416" lon="111.064458">
        <ele>148.653652</ele>
        <time>2026-08-18T06:42:33.000Z</time>
      </trkpt>
      <trkpt lat="22.903432" lon="111.064514">
        <ele>148.633190</ele>
        <time>2026-08-18T06:42:34.000Z</time>
      </trkpt>
      <trkpt lat="22.903448" lon="111.064571">
        <ele>148.612394</ele>
        <time>2026-08-18T06:42:35.000Z</time>
      </trkpt>
      <trkpt lat="22.903465" lon="111.064626">
        <ele>148.592148</ele>
        <time>2026-08-18T06:42:36.000Z</time>
      </trkpt>
      <trkpt lat="22.903480" lon="111.064682">
        <ele>148.571795</ele>
        <time>2026-08-18T06:42:37.000Z</time>
      </trkpt>
      <trkpt lat="22.903496" lon="111.064740">
        <ele>148.550665</ele>
        <time>2026-08-18T06:42:38.000Z</time>
      </trkpt>
      <trkpt lat="22.903511" lon="111.064795">
        <ele>148.530647</ele>
        <time>2026-08-18T06:42:39.000Z</time>
      </trkpt>
      <trkpt lat="22.903529" lon="111.064849">
        <ele>148.510606</ele>
        <time>2026-08-18T06:42:40.000Z</time>
      </trkpt>
      <trkpt lat="22.903544" lon="111.064903">
        <ele>148.490922</ele>
        <time>2026-08-18T06:42:41.000Z</time>
      </trkpt>
      <trkpt lat="22.903558" lon="111.064957">
        <ele>148.471344</ele>
        <time>2026-08-18T06:42:42.000Z</time>
      </trkpt>
      <trkpt lat="22.903574" lon="111.065012">
        <ele>148.451215</ele>
        <time>2026-08-18T06:42:43.000Z</time>
      </trkpt>
      <trkpt lat="22.903590" lon="111.065067">
        <ele>148.431086</ele>
        <time>2026-08-18T06:42:44.000Z</time>
      </trkpt>
      <trkpt lat="22.903605" lon="111.065122">
        <ele>148.411068</ele>
        <time>2026-08-18T06:42:45.000Z</time>
      </trkpt>
      <trkpt lat="22.903621" lon="111.065178">
        <ele>148.390606</ele>
        <time>2026-08-18T06:42:46.000Z</time>
      </trkpt>
      <trkpt lat="22.903637" lon="111.065234">
        <ele>148.370144</ele>
        <time>2026-08-18T06:42:47.000Z</time>
      </trkpt>
      <trkpt lat="22.903651" lon="111.065289">
        <ele>148.350230</ele>
        <time>2026-08-18T06:42:48.000Z</time>
      </trkpt>
      <trkpt lat="22.903665" lon="111.065345">
        <ele>148.329980</ele>
        <time>2026-08-18T06:42:49.000Z</time>
      </trkpt>
      <trkpt lat="22.903680" lon="111.065400">
        <ele>148.309962</ele>
        <time>2026-08-18T06:42:50.000Z</time>
      </trkpt>
      <trkpt lat="22.903695" lon="111.065454">
        <ele>148.299158</ele>
        <time>2026-08-18T06:42:51.000Z</time>
      </trkpt>
      <trkpt lat="22.903710" lon="111.065510">
        <ele>148.298514</ele>
        <time>2026-08-18T06:42:52.000Z</time>
      </trkpt>
      <trkpt lat="22.903726" lon="111.065567">
        <ele>148.297855</ele>
        <time>2026-08-18T06:42:53.000Z</time>
      </trkpt>
      <trkpt lat="22.903743" lon="111.065624">
        <ele>148.297193</ele>
        <time>2026-08-18T06:42:54.000Z</time>
      </trkpt>
      <trkpt lat="22.903757" lon="111.065679">
        <ele>148.296563</ele>
        <time>2026-08-18T06:42:55.000Z</time>
      </trkpt>
      <trkpt lat="22.903771" lon="111.065733">
        <ele>148.295943</ele>
        <time>2026-08-18T06:42:56.000Z</time>
      </trkpt>
      <trkpt lat="22.903785" lon="111.065789">
        <ele>148.295302</ele>
        <time>2026-08-18T06:42:57.000Z</time>
      </trkpt>
      <trkpt lat="22.903800" lon="111.065845">
        <ele>148.294657</ele>
        <time>2026-08-18T06:42:58.000Z</time>
      </trkpt>
      <trkpt lat="22.903815" lon="111.065901">
        <ele>148.294013</ele>
        <time>2026-08-18T06:42:59.000Z</time>
      </trkpt>
      <trkpt lat="22.903830" lon="111.065956">
        <ele>148.293379</ele>
        <time>2026-08-18T06:43:00.000Z</time>
      </trkpt>
      <trkpt lat="22.903844" lon="111.066012">
        <ele>148.292738</ele>
        <time>2026-08-18T06:43:01.000Z</time>
      </trkpt>
      <trkpt lat="22.903858" lon="111.066067">
        <ele>148.292107</ele>
        <time>2026-08-18T06:43:02.000Z</time>
      </trkpt>
      <trkpt lat="22.903872" lon="111.066122">
        <ele>148.291477</ele>
        <time>2026-08-18T06:43:03.000Z</time>
      </trkpt>
      <trkpt lat="22.903883" lon="111.066174">
        <ele>148.290887</ele>
        <time>2026-08-18T06:43:04.000Z</time>
      </trkpt>
      <trkpt lat="22.903895" lon="111.066227">
        <ele>148.290284</ele>
        <time>2026-08-18T06:43:05.000Z</time>
      </trkpt>
      <trkpt lat="22.903907" lon="111.066281">
        <ele>148.289671</ele>
        <time>2026-08-18T06:43:06.000Z</time>
      </trkpt>
      <trkpt lat="22.903920" lon="111.066334">
        <ele>148.289065</ele>
        <time>2026-08-18T06:43:07.000Z</time>
      </trkpt>
      <trkpt lat="22.903933" lon="111.066386">
        <ele>148.288469</ele>
        <time>2026-08-18T06:43:08.000Z</time>
      </trkpt>
      <trkpt lat="22.903947" lon="111.066442">
        <ele>148.287828</ele>
        <time>2026-08-18T06:43:09.000Z</time>
      </trkpt>
      <trkpt lat="22.903960" lon="111.066498">
        <ele>148.287190</ele>
        <time>2026-08-18T06:43:10.000Z</time>
      </trkpt>
      <trkpt lat="22.903976" lon="111.066555">
        <ele>148.286532</ele>
        <time>2026-08-18T06:43:11.000Z</time>
      </trkpt>
      <trkpt lat="22.903989" lon="111.066611">
        <ele>148.285894</ele>
        <time>2026-08-18T06:43:12.000Z</time>
      </trkpt>
      <trkpt lat="22.904005" lon="111.066669">
        <ele>148.285225</ele>
        <time>2026-08-18T06:43:13.000Z</time>
      </trkpt>
      <trkpt lat="22.904020" lon="111.066725">
        <ele>148.284580</ele>
        <time>2026-08-18T06:43:14.000Z</time>
      </trkpt>
      <trkpt lat="22.904035" lon="111.066782">
        <ele>148.283925</ele>
        <time>2026-08-18T06:43:15.000Z</time>
      </trkpt>
      <trkpt lat="22.904047" lon="111.066840">
        <ele>148.283268</ele>
        <time>2026-08-18T06:43:16.000Z</time>
      </trkpt>
      <trkpt lat="22.904061" lon="111.066897">
        <ele>148.282617</ele>
        <time>2026-08-18T06:43:17.000Z</time>
      </trkpt>
      <trkpt lat="22.904074" lon="111.066955">
        <ele>148.281957</ele>
        <time>2026-08-18T06:43:18.000Z</time>
      </trkpt>
      <trkpt lat="22.904090" lon="111.067012">
        <ele>148.281299</ele>
        <time>2026-08-18T06:43:19.000Z</time>
      </trkpt>
      <trkpt lat="22.904106" lon="111.067071">
        <ele>148.280619</ele>
        <time>2026-08-18T06:43:20.000Z</time>
      </trkpt>
      <trkpt lat="22.904122" lon="111.067130">
        <ele>148.279939</ele>
        <time>2026-08-18T06:43:21.000Z</time>
      </trkpt>
      <trkpt lat="22.904138" lon="111.067189">
        <ele>148.279260</ele>
        <time>2026-08-18T06:43:22.000Z</time>
      </trkpt>
      <trkpt lat="22.904152" lon="111.067249">
        <ele>148.278576</ele>
        <time>2026-08-18T06:43:23.000Z</time>
      </trkpt>
      <trkpt lat="22.904167" lon="111.067309">
        <ele>148.277889</ele>
        <time>2026-08-18T06:43:24.000Z</time>
      </trkpt>
      <trkpt lat="22.904183" lon="111.067368">
        <ele>148.269551</ele>
        <time>2026-08-18T06:43:25.000Z</time>
      </trkpt>
      <trkpt lat="22.904198" lon="111.067427">
        <ele>148.261077</ele>
        <time>2026-08-18T06:43:26.000Z</time>
      </trkpt>
      <trkpt lat="22.904215" lon="111.067487">
        <ele>148.252385</ele>
        <time>2026-08-18T06:43:27.000Z</time>
      </trkpt>
      <trkpt lat="22.904231" lon="111.067546">
        <ele>148.243870</ele>
        <time>2026-08-18T06:43:28.000Z</time>
      </trkpt>
      <trkpt lat="22.904247" lon="111.067606">
        <ele>148.235221</ele>
        <time>2026-08-18T06:43:29.000Z</time>
      </trkpt>
      <trkpt lat="22.904261" lon="111.067666">
        <ele>148.226651</ele>
        <time>2026-08-18T06:43:30.000Z</time>
      </trkpt>
      <trkpt lat="22.904275" lon="111.067726">
        <ele>148.218081</ele>
        <time>2026-08-18T06:43:31.000Z</time>
      </trkpt>
      <trkpt lat="22.904290" lon="111.067786">
        <ele>148.209473</ele>
        <time>2026-08-18T06:43:32.000Z</time>
      </trkpt>
      <trkpt lat="22.904305" lon="111.067844">
        <ele>148.201132</ele>
        <time>2026-08-18T06:43:33.000Z</time>
      </trkpt>
      <trkpt lat="22.904322" lon="111.067904">
        <ele>148.192441</ele>
        <time>2026-08-18T06:43:34.000Z</time>
      </trkpt>
      <trkpt lat="22.904338" lon="111.067963">
        <ele>148.183925</ele>
        <time>2026-08-18T06:43:35.000Z</time>
      </trkpt>
      <trkpt lat="22.904354" lon="111.068020">
        <ele>148.175675</ele>
        <time>2026-08-18T06:43:36.000Z</time>
      </trkpt>
      <trkpt lat="22.904371" lon="111.068079">
        <ele>148.167115</ele>
        <time>2026-08-18T06:43:37.000Z</time>
      </trkpt>
      <trkpt lat="22.904386" lon="111.068137">
        <ele>148.158774</ele>
        <time>2026-08-18T06:43:38.000Z</time>
      </trkpt>
      <trkpt lat="22.904400" lon="111.068196">
        <ele>148.150338</ele>
        <time>2026-08-18T06:43:39.000Z</time>
      </trkpt>
      <trkpt lat="22.904416" lon="111.068256">
        <ele>148.141690</ele>
        <time>2026-08-18T06:43:40.000Z</time>
      </trkpt>
      <trkpt lat="22.904432" lon="111.068316">
        <ele>148.133041</ele>
        <time>2026-08-18T06:43:41.000Z</time>
      </trkpt>
      <trkpt lat="22.904447" lon="111.068376">
        <ele>148.124433</ele>
        <time>2026-08-18T06:43:42.000Z</time>
      </trkpt>
      <trkpt lat="22.904462" lon="111.068435">
        <ele>148.115959</ele>
        <time>2026-08-18T06:43:43.000Z</time>
      </trkpt>
      <trkpt lat="22.904476" lon="111.068496">
        <ele>148.107255</ele>
        <time>2026-08-18T06:43:44.000Z</time>
      </trkpt>
      <trkpt lat="22.904491" lon="111.068553">
        <ele>148.099047</ele>
        <time>2026-08-18T06:43:45.000Z</time>
      </trkpt>
      <trkpt lat="22.904506" lon="111.068610">
        <ele>148.090839</ele>
        <time>2026-08-18T06:43:46.000Z</time>
      </trkpt>
      <trkpt lat="22.904520" lon="111.068668">
        <ele>148.082537</ele>
        <time>2026-08-18T06:43:47.000Z</time>
      </trkpt>
      <trkpt lat="22.904535" lon="111.068724">
        <ele>148.074462</ele>
        <time>2026-08-18T06:43:48.000Z</time>
      </trkpt>
      <trkpt lat="22.904550" lon="111.068783">
        <ele>148.065988</ele>
        <time>2026-08-18T06:43:49.000Z</time>
      </trkpt>
      <trkpt lat="22.904564" lon="111.068840">
        <ele>148.057820</ele>
        <time>2026-08-18T06:43:50.000Z</time>
      </trkpt>
      <trkpt lat="22.904579" lon="111.068898">
        <ele>148.049479</ele>
        <time>2026-08-18T06:43:51.000Z</time>
      </trkpt>
      <trkpt lat="22.904594" lon="111.068955">
        <ele>148.041271</ele>
        <time>2026-08-18T06:43:52.000Z</time>
      </trkpt>
      <trkpt lat="22.904608" lon="111.069012">
        <ele>148.033103</ele>
        <time>2026-08-18T06:43:53.000Z</time>
      </trkpt>
      <trkpt lat="22.904622" lon="111.069068">
        <ele>148.025069</ele>
        <time>2026-08-18T06:43:54.000Z</time>
      </trkpt>
      <trkpt lat="22.904634" lon="111.069125">
        <ele>148.016974</ele>
        <time>2026-08-18T06:43:55.000Z</time>
      </trkpt>
      <trkpt lat="22.904644" lon="111.069182">
        <ele>148.008940</ele>
        <time>2026-08-18T06:43:56.000Z</time>
      </trkpt>
      <trkpt lat="22.904653" lon="111.069240">
        <ele>148.019143</ele>
        <time>2026-08-18T06:43:57.000Z</time>
      </trkpt>
      <trkpt lat="22.904663" lon="111.069297">
        <ele>148.033027</ele>
        <time>2026-08-18T06:43:58.000Z</time>
      </trkpt>
      <trkpt lat="22.904672" lon="111.069354">
        <ele>148.046864</ele>
        <time>2026-08-18T06:43:59.000Z</time>
      </trkpt>
      <trkpt lat="22.904681" lon="111.069411">
        <ele>148.060702</ele>
        <time>2026-08-18T06:44:00.000Z</time>
      </trkpt>
      <trkpt lat="22.904691" lon="111.069469">
        <ele>148.074821</ele>
        <time>2026-08-18T06:44:01.000Z</time>
      </trkpt>
      <trkpt lat="22.904699" lon="111.069527">
        <ele>148.088854</ele>
        <time>2026-08-18T06:44:02.000Z</time>
      </trkpt>
      <trkpt lat="22.904706" lon="111.069585">
        <ele>148.102850</ele>
        <time>2026-08-18T06:44:03.000Z</time>
      </trkpt>
      <trkpt lat="22.904712" lon="111.069643">
        <ele>148.116816</ele>
        <time>2026-08-18T06:44:04.000Z</time>
      </trkpt>
      <trkpt lat="22.904717" lon="111.069700">
        <ele>148.130516</ele>
        <time>2026-08-18T06:44:05.000Z</time>
      </trkpt>
      <trkpt lat="22.904721" lon="111.069757">
        <ele>148.144194</ele>
        <time>2026-08-18T06:44:06.000Z</time>
      </trkpt>
      <trkpt lat="22.904725" lon="111.069813">
        <ele>148.157634</ele>
        <time>2026-08-18T06:44:07.000Z</time>
      </trkpt>
      <trkpt lat="22.904729" lon="111.069870">
        <ele>148.171312</ele>
        <time>2026-08-18T06:44:08.000Z</time>
      </trkpt>
      <trkpt lat="22.904734" lon="111.069927">
        <ele>148.185013</ele>
        <time>2026-08-18T06:44:09.000Z</time>
      </trkpt>
      <trkpt lat="22.904738" lon="111.069985">
        <ele>148.198930</ele>
        <time>2026-08-18T06:44:10.000Z</time>
      </trkpt>
      <trkpt lat="22.904741" lon="111.070042">
        <ele>148.212591</ele>
        <time>2026-08-18T06:44:11.000Z</time>
      </trkpt>
      <trkpt lat="22.904743" lon="111.070100">
        <ele>148.226478</ele>
        <time>2026-08-18T06:44:12.000Z</time>
      </trkpt>
      <trkpt lat="22.904744" lon="111.070158">
        <ele>148.240359</ele>
        <time>2026-08-18T06:44:13.000Z</time>
      </trkpt>
      <trkpt lat="22.904746" lon="111.070215">
        <ele>148.254007</ele>
        <time>2026-08-18T06:44:14.000Z</time>
      </trkpt>
      <trkpt lat="22.904748" lon="111.070272">
        <ele>148.267656</ele>
        <time>2026-08-18T06:44:15.000Z</time>
      </trkpt>
      <trkpt lat="22.904748" lon="111.070329">
        <ele>148.281295</ele>
        <time>2026-08-18T06:44:16.000Z</time>
      </trkpt>
      <trkpt lat="22.904749" lon="111.070385">
        <ele>148.294697</ele>
        <time>2026-08-18T06:44:17.000Z</time>
      </trkpt>
      <trkpt lat="22.904749" lon="111.070441">
        <ele>148.308096</ele>
        <time>2026-08-18T06:44:18.000Z</time>
      </trkpt>
      <trkpt lat="22.904747" lon="111.070496">
        <ele>148.321267</ele>
        <time>2026-08-18T06:44:19.000Z</time>
      </trkpt>
      <trkpt lat="22.904746" lon="111.070551">
        <ele>148.334429</ele>
        <time>2026-08-18T06:44:20.000Z</time>
      </trkpt>
      <trkpt lat="22.904744" lon="111.070605">
        <ele>148.347361</ele>
        <time>2026-08-18T06:44:21.000Z</time>
      </trkpt>
      <trkpt lat="22.904742" lon="111.070660">
        <ele>148.360531</ele>
        <time>2026-08-18T06:44:22.000Z</time>
      </trkpt>
      <trkpt lat="22.904739" lon="111.070715">
        <ele>148.373715</ele>
        <time>2026-08-18T06:44:23.000Z</time>
      </trkpt>
      <trkpt lat="22.904736" lon="111.070769">
        <ele>148.386659</ele>
        <time>2026-08-18T06:44:24.000Z</time>
      </trkpt>
      <trkpt lat="22.904732" lon="111.070825">
        <ele>148.400099</ele>
        <time>2026-08-18T06:44:25.000Z</time>
      </trkpt>
      <trkpt lat="22.904728" lon="111.070880">
        <ele>148.413300</ele>
        <time>2026-08-18T06:44:26.000Z</time>
      </trkpt>
      <trkpt lat="22.904723" lon="111.070935">
        <ele>148.426524</ele>
        <time>2026-08-18T06:44:27.000Z</time>
      </trkpt>
      <trkpt lat="22.904716" lon="111.070989">
        <ele>148.439572</ele>
        <time>2026-08-18T06:44:28.000Z</time>
      </trkpt>
      <trkpt lat="22.904709" lon="111.071045">
        <ele>148.453094</ele>
        <time>2026-08-18T06:44:29.000Z</time>
      </trkpt>
      <trkpt lat="22.904701" lon="111.071100">
        <ele>148.466418</ele>
        <time>2026-08-18T06:44:30.000Z</time>
      </trkpt>
      <trkpt lat="22.904695" lon="111.071156">
        <ele>148.484811</ele>
        <time>2026-08-18T06:44:31.000Z</time>
      </trkpt>
      <trkpt lat="22.904689" lon="111.071212">
        <ele>148.511082</ele>
        <time>2026-08-18T06:44:32.000Z</time>
      </trkpt>
      <trkpt lat="22.904682" lon="111.071267">
        <ele>148.536954</ele>
        <time>2026-08-18T06:44:33.000Z</time>
      </trkpt>
      <trkpt lat="22.904674" lon="111.071321">
        <ele>148.562440</ele>
        <time>2026-08-18T06:44:34.000Z</time>
      </trkpt>
      <trkpt lat="22.904666" lon="111.071375">
        <ele>148.587926</ele>
        <time>2026-08-18T06:44:35.000Z</time>
      </trkpt>
      <trkpt lat="22.904657" lon="111.071428">
        <ele>148.613039</ele>
        <time>2026-08-18T06:44:36.000Z</time>
      </trkpt>
      <trkpt lat="22.904647" lon="111.071482">
        <ele>148.638706</ele>
        <time>2026-08-18T06:44:37.000Z</time>
      </trkpt>
      <trkpt lat="22.904636" lon="111.071536">
        <ele>148.664476</ele>
        <time>2026-08-18T06:44:38.000Z</time>
      </trkpt>
      <trkpt lat="22.904625" lon="111.071590">
        <ele>148.690247</ele>
        <time>2026-08-18T06:44:39.000Z</time>
      </trkpt>
      <trkpt lat="22.904611" lon="111.071643">
        <ele>148.715939</ele>
        <time>2026-08-18T06:44:40.000Z</time>
      </trkpt>
      <trkpt lat="22.904599" lon="111.071696">
        <ele>148.741371</ele>
        <time>2026-08-18T06:44:41.000Z</time>
      </trkpt>
      <trkpt lat="22.904587" lon="111.071750">
        <ele>148.767256</ele>
        <time>2026-08-18T06:44:42.000Z</time>
      </trkpt>
      <trkpt lat="22.904576" lon="111.071804">
        <ele>148.793026</ele>
        <time>2026-08-18T06:44:43.000Z</time>
      </trkpt>
      <trkpt lat="22.904562" lon="111.071857">
        <ele>148.818719</ele>
        <time>2026-08-18T06:44:44.000Z</time>
      </trkpt>
      <trkpt lat="22.904550" lon="111.071910">
        <ele>148.844151</ele>
        <time>2026-08-18T06:44:45.000Z</time>
      </trkpt>
      <trkpt lat="22.904538" lon="111.071960">
        <ele>148.868227</ele>
        <time>2026-08-18T06:44:46.000Z</time>
      </trkpt>
      <trkpt lat="22.904527" lon="111.072010">
        <ele>148.892181</ele>
        <time>2026-08-18T06:44:47.000Z</time>
      </trkpt>
      <trkpt lat="22.904517" lon="111.072060">
        <ele>148.916023</ele>
        <time>2026-08-18T06:44:48.000Z</time>
      </trkpt>
      <trkpt lat="22.904505" lon="111.072111">
        <ele>148.940551</ele>
        <time>2026-08-18T06:44:49.000Z</time>
      </trkpt>
      <trkpt lat="22.904492" lon="111.072161">
        <ele>148.964760</ele>
        <time>2026-08-18T06:44:50.000Z</time>
      </trkpt>
      <trkpt lat="22.904481" lon="111.072211">
        <ele>148.988714</ele>
        <time>2026-08-18T06:44:51.000Z</time>
      </trkpt>
      <trkpt lat="22.904472" lon="111.072262">
        <ele>149.012911</ele>
        <time>2026-08-18T06:44:52.000Z</time>
      </trkpt>
      <trkpt lat="22.904463" lon="111.072312">
        <ele>149.036651</ele>
        <time>2026-08-18T06:44:53.000Z</time>
      </trkpt>
      <trkpt lat="22.904455" lon="111.072362">
        <ele>149.060299</ele>
        <time>2026-08-18T06:44:54.000Z</time>
      </trkpt>
      <trkpt lat="22.904444" lon="111.072412">
        <ele>149.084253</ele>
        <time>2026-08-18T06:44:55.000Z</time>
      </trkpt>
      <trkpt lat="22.904431" lon="111.072461">
        <ele>149.108014</ele>
        <time>2026-08-18T06:44:56.000Z</time>
      </trkpt>
      <trkpt lat="22.904417" lon="111.072506">
        <ele>149.130147</ele>
        <time>2026-08-18T06:44:57.000Z</time>
      </trkpt>
      <trkpt lat="22.904401" lon="111.072550">
        <ele>149.152189</ele>
        <time>2026-08-18T06:44:58.000Z</time>
      </trkpt>
      <trkpt lat="22.904384" lon="111.072596">
        <ele>149.175285</ele>
        <time>2026-08-18T06:44:59.000Z</time>
      </trkpt>
      <trkpt lat="22.904367" lon="111.072642">
        <ele>149.198381</ele>
        <time>2026-08-18T06:45:00.000Z</time>
      </trkpt>
      <trkpt lat="22.904351" lon="111.072688">
        <ele>149.221293</ele>
        <time>2026-08-18T06:45:01.000Z</time>
      </trkpt>
      <trkpt lat="22.904338" lon="111.072733">
        <ele>149.243269</ele>
        <time>2026-08-18T06:45:02.000Z</time>
      </trkpt>
      <trkpt lat="22.904324" lon="111.072782">
        <ele>149.267175</ele>
        <time>2026-08-18T06:45:03.000Z</time>
      </trkpt>
      <trkpt lat="22.904310" lon="111.072831">
        <ele>149.291081</ele>
        <time>2026-08-18T06:45:04.000Z</time>
      </trkpt>
      <trkpt lat="22.904291" lon="111.072879">
        <ele>149.315426</ele>
        <time>2026-08-18T06:45:05.000Z</time>
      </trkpt>
      <trkpt lat="22.904275" lon="111.072927">
        <ele>149.339212</ele>
        <time>2026-08-18T06:45:06.000Z</time>
      </trkpt>
      <trkpt lat="22.904261" lon="111.072974">
        <ele>149.362230</ele>
        <time>2026-08-18T06:45:07.000Z</time>
      </trkpt>
      <trkpt lat="22.904249" lon="111.073023">
        <ele>149.386436</ele>
        <time>2026-08-18T06:45:08.000Z</time>
      </trkpt>
      <trkpt lat="22.904236" lon="111.073069">
        <ele>149.419203</ele>
        <time>2026-08-18T06:45:09.000Z</time>
      </trkpt>
      <trkpt lat="22.904223" lon="111.073115">
        <ele>149.451970</ele>
        <time>2026-08-18T06:45:10.000Z</time>
      </trkpt>
      <trkpt lat="22.904210" lon="111.073161">
        <ele>149.484737</ele>
        <time>2026-08-18T06:45:11.000Z</time>
      </trkpt>
      <trkpt lat="22.904199" lon="111.073209">
        <ele>149.518421</ele>
        <time>2026-08-18T06:45:12.000Z</time>
      </trkpt>
      <trkpt lat="22.904188" lon="111.073256">
        <ele>149.551444</ele>
        <time>2026-08-18T06:45:13.000Z</time>
      </trkpt>
      <trkpt lat="22.904176" lon="111.073303">
        <ele>149.584658</ele>
        <time>2026-08-18T06:45:14.000Z</time>
      </trkpt>
      <trkpt lat="22.904164" lon="111.073352">
        <ele>149.619185</ele>
        <time>2026-08-18T06:45:15.000Z</time>
      </trkpt>
      <trkpt lat="22.904151" lon="111.073399">
        <ele>149.652604</ele>
        <time>2026-08-18T06:45:16.000Z</time>
      </trkpt>
      <trkpt lat="22.904138" lon="111.073445">
        <ele>149.685371</ele>
        <time>2026-08-18T06:45:17.000Z</time>
      </trkpt>
      <trkpt lat="22.904125" lon="111.073492">
        <ele>149.718789</ele>
        <time>2026-08-18T06:45:18.000Z</time>
      </trkpt>
      <trkpt lat="22.904111" lon="111.073538">
        <ele>149.751780</ele>
        <time>2026-08-18T06:45:19.000Z</time>
      </trkpt>
      <trkpt lat="22.904099" lon="111.073583">
        <ele>149.783683</ele>
        <time>2026-08-18T06:45:20.000Z</time>
      </trkpt>
      <trkpt lat="22.904086" lon="111.073628">
        <ele>149.815800</ele>
        <time>2026-08-18T06:45:21.000Z</time>
      </trkpt>
      <trkpt lat="22.904074" lon="111.073672">
        <ele>149.847049</ele>
        <time>2026-08-18T06:45:22.000Z</time>
      </trkpt>
      <trkpt lat="22.904065" lon="111.073719">
        <ele>149.879740</ele>
        <time>2026-08-18T06:45:23.000Z</time>
      </trkpt>
      <trkpt lat="22.904053" lon="111.073763">
        <ele>149.910990</ele>
        <time>2026-08-18T06:45:24.000Z</time>
      </trkpt>
      <trkpt lat="22.904041" lon="111.073806">
        <ele>149.941587</ele>
        <time>2026-08-18T06:45:25.000Z</time>
      </trkpt>
      <trkpt lat="22.904031" lon="111.073851">
        <ele>149.973110</ele>
        <time>2026-08-18T06:45:26.000Z</time>
      </trkpt>
      <trkpt lat="22.904021" lon="111.073895">
        <ele>150.003973</ele>
        <time>2026-08-18T06:45:27.000Z</time>
      </trkpt>
      <trkpt lat="22.904009" lon="111.073939">
        <ele>150.035222</ele>
        <time>2026-08-18T06:45:28.000Z</time>
      </trkpt>
      <trkpt lat="22.904001" lon="111.073983">
        <ele>150.065764</ele>
        <time>2026-08-18T06:45:29.000Z</time>
      </trkpt>
      <trkpt lat="22.903991" lon="111.074028">
        <ele>150.097288</ele>
        <time>2026-08-18T06:45:30.000Z</time>
      </trkpt>
      <trkpt lat="22.903982" lon="111.074075">
        <ele>150.129979</ele>
        <time>2026-08-18T06:45:31.000Z</time>
      </trkpt>
      <trkpt lat="22.903971" lon="111.074122">
        <ele>150.163002</ele>
        <time>2026-08-18T06:45:32.000Z</time>
      </trkpt>
      <trkpt lat="22.903958" lon="111.074168">
        <ele>150.195769</ele>
        <time>2026-08-18T06:45:33.000Z</time>
      </trkpt>
      <trkpt lat="22.903948" lon="111.074213">
        <ele>150.227293</ele>
        <time>2026-08-18T06:45:34.000Z</time>
      </trkpt>
      <trkpt lat="22.903938" lon="111.074261">
        <ele>150.260806</ele>
        <time>2026-08-18T06:45:35.000Z</time>
      </trkpt>
      <trkpt lat="22.903928" lon="111.074307">
        <ele>150.292993</ele>
        <time>2026-08-18T06:45:36.000Z</time>
      </trkpt>
      <trkpt lat="22.903919" lon="111.074353">
        <ele>150.325017</ele>
        <time>2026-08-18T06:45:37.000Z</time>
      </trkpt>
      <trkpt lat="22.903912" lon="111.074399">
        <ele>150.356768</ele>
        <time>2026-08-18T06:45:38.000Z</time>
      </trkpt>
      <trkpt lat="22.903903" lon="111.074447">
        <ele>150.390126</ele>
        <time>2026-08-18T06:45:39.000Z</time>
      </trkpt>
      <trkpt lat="22.903894" lon="111.074494">
        <ele>150.422817</ele>
        <time>2026-08-18T06:45:40.000Z</time>
      </trkpt>
      <trkpt lat="22.903883" lon="111.074540">
        <ele>150.455181</ele>
        <time>2026-08-18T06:45:41.000Z</time>
      </trkpt>
      <trkpt lat="22.903875" lon="111.074590">
        <ele>150.489740</ele>
        <time>2026-08-18T06:45:42.000Z</time>
      </trkpt>
      <trkpt lat="22.903868" lon="111.074639">
        <ele>150.523508</ele>
        <time>2026-08-18T06:45:43.000Z</time>
      </trkpt>
      <trkpt lat="22.903859" lon="111.074687">
        <ele>150.556866</ele>
        <time>2026-08-18T06:45:44.000Z</time>
      </trkpt>
      <trkpt lat="22.903851" lon="111.074735">
        <ele>150.590084</ele>
        <time>2026-08-18T06:45:45.000Z</time>
      </trkpt>
      <trkpt lat="22.903843" lon="111.074784">
        <ele>150.623973</ele>
        <time>2026-08-18T06:45:46.000Z</time>
      </trkpt>
      <trkpt lat="22.903837" lon="111.074836">
        <ele>150.659662</ele>
        <time>2026-08-18T06:45:47.000Z</time>
      </trkpt>
      <trkpt lat="22.903826" lon="111.074884">
        <ele>150.693346</ele>
        <time>2026-08-18T06:45:48.000Z</time>
      </trkpt>
      <trkpt lat="22.903816" lon="111.074933">
        <ele>150.734659</ele>
        <time>2026-08-18T06:45:49.000Z</time>
      </trkpt>
      <trkpt lat="22.903806" lon="111.074978">
        <ele>150.783191</ele>
        <time>2026-08-18T06:45:50.000Z</time>
      </trkpt>
      <trkpt lat="22.903796" lon="111.075024">
        <ele>150.832743</ele>
        <time>2026-08-18T06:45:51.000Z</time>
      </trkpt>
      <trkpt lat="22.903788" lon="111.075070">
        <ele>150.881822</ele>
        <time>2026-08-18T06:45:52.000Z</time>
      </trkpt>
      <trkpt lat="22.903779" lon="111.075114">
        <ele>150.929076</ele>
        <time>2026-08-18T06:45:53.000Z</time>
      </trkpt>
      <trkpt lat="22.903770" lon="111.075157">
        <ele>150.975307</ele>
        <time>2026-08-18T06:45:54.000Z</time>
      </trkpt>
      <trkpt lat="22.903762" lon="111.075198">
        <ele>151.019246</ele>
        <time>2026-08-18T06:45:55.000Z</time>
      </trkpt>
      <trkpt lat="22.903751" lon="111.075238">
        <ele>151.063012</ele>
        <time>2026-08-18T06:45:56.000Z</time>
      </trkpt>
      <trkpt lat="22.903739" lon="111.075279">
        <ele>151.108114</ele>
        <time>2026-08-18T06:45:57.000Z</time>
      </trkpt>
      <trkpt lat="22.903718" lon="111.075313">
        <ele>151.151032</ele>
        <time>2026-08-18T06:45:58.000Z</time>
      </trkpt>
      <trkpt lat="22.903691" lon="111.075341">
        <ele>151.193530</ele>
        <time>2026-08-18T06:45:59.000Z</time>
      </trkpt>
      <trkpt lat="22.903662" lon="111.075365">
        <ele>151.235034</ele>
        <time>2026-08-18T06:46:00.000Z</time>
      </trkpt>
      <trkpt lat="22.903630" lon="111.075378">
        <ele>151.273921</ele>
        <time>2026-08-18T06:46:01.000Z</time>
      </trkpt>
      <trkpt lat="22.903599" lon="111.075377">
        <ele>151.309219</ele>
        <time>2026-08-18T06:46:02.000Z</time>
      </trkpt>
      <trkpt lat="22.903571" lon="111.075370">
        <ele>151.341922</ele>
        <time>2026-08-18T06:46:03.000Z</time>
      </trkpt>
      <trkpt lat="22.903546" lon="111.075360">
        <ele>151.372245</ele>
        <time>2026-08-18T06:46:04.000Z</time>
      </trkpt>
      <trkpt lat="22.903523" lon="111.075358">
        <ele>151.398507</ele>
        <time>2026-08-18T06:46:05.000Z</time>
      </trkpt>
      <trkpt lat="22.903505" lon="111.075366">
        <ele>151.420644</ele>
        <time>2026-08-18T06:46:06.000Z</time>
      </trkpt>
      <trkpt lat="22.903489" lon="111.075385">
        <ele>151.447633</ele>
        <time>2026-08-18T06:46:07.000Z</time>
      </trkpt>
      <trkpt lat="22.903478" lon="111.075407">
        <ele>151.473877</ele>
        <time>2026-08-18T06:46:08.000Z</time>
      </trkpt>
      <trkpt lat="22.903470" lon="111.075425">
        <ele>151.494831</ele>
        <time>2026-08-18T06:46:09.000Z</time>
      </trkpt>
      <trkpt lat="22.903459" lon="111.075444">
        <ele>151.518358</ele>
        <time>2026-08-18T06:46:10.000Z</time>
      </trkpt>
      <trkpt lat="22.903446" lon="111.075464">
        <ele>151.544021</ele>
        <time>2026-08-18T06:46:11.000Z</time>
      </trkpt>
      <trkpt lat="22.903432" lon="111.075482">
        <ele>151.568720</ele>
        <time>2026-08-18T06:46:12.000Z</time>
      </trkpt>
      <trkpt lat="22.903417" lon="111.075498">
        <ele>151.592654</ele>
        <time>2026-08-18T06:46:13.000Z</time>
      </trkpt>
      <trkpt lat="22.903407" lon="111.075510">
        <ele>151.609620</ele>
        <time>2026-08-18T06:46:14.000Z</time>
      </trkpt>
      <trkpt lat="22.903401" lon="111.075517">
        <ele>151.619644</ele>
        <time>2026-08-18T06:46:15.000Z</time>
      </trkpt>
      <trkpt lat="22.903398" lon="111.075518">
        <ele>151.623216</ele>
        <time>2026-08-18T06:46:16.000Z</time>
      </trkpt>
      <trkpt lat="22.903432" lon="111.075378">
        <ele>151.775010</ele>
        <time>2026-08-18T06:56:26.000Z</time>
      </trkpt>
      <trkpt lat="22.903443" lon="111.075374">
        <ele>151.788214</ele>
        <time>2026-08-18T06:56:27.000Z</time>
      </trkpt>
      <trkpt lat="22.903459" lon="111.075373">
        <ele>151.806454</ele>
        <time>2026-08-18T06:56:28.000Z</time>
      </trkpt>
      <trkpt lat="22.903481" lon="111.075375">
        <ele>151.831581</ele>
        <time>2026-08-18T06:56:29.000Z</time>
      </trkpt>
      <trkpt lat="22.903506" lon="111.075380">
        <ele>151.860514</ele>
        <time>2026-08-18T06:56:30.000Z</time>
      </trkpt>
      <trkpt lat="22.903531" lon="111.075387">
        <ele>151.889899</ele>
        <time>2026-08-18T06:56:31.000Z</time>
      </trkpt>
      <trkpt lat="22.903555" lon="111.075399">
        <ele>151.919972</ele>
        <time>2026-08-18T06:56:32.000Z</time>
      </trkpt>
      <trkpt lat="22.903577" lon="111.075413">
        <ele>151.948997</ele>
        <time>2026-08-18T06:56:33.000Z</time>
      </trkpt>
      <trkpt lat="22.903596" lon="111.075430">
        <ele>151.977020</ele>
        <time>2026-08-18T06:56:34.000Z</time>
      </trkpt>
      <trkpt lat="22.903610" lon="111.075446">
        <ele>152.000156</ele>
        <time>2026-08-18T06:56:35.000Z</time>
      </trkpt>
      <trkpt lat="22.903620" lon="111.075464">
        <ele>152.022194</ele>
        <time>2026-08-18T06:56:36.000Z</time>
      </trkpt>
      <trkpt lat="22.903625" lon="111.075488">
        <ele>152.047992</ele>
        <time>2026-08-18T06:56:37.000Z</time>
      </trkpt>
      <trkpt lat="22.903623" lon="111.075518">
        <ele>152.079526</ele>
        <time>2026-08-18T06:56:38.000Z</time>
      </trkpt>
      <trkpt lat="22.903619" lon="111.075549">
        <ele>152.112345</ele>
        <time>2026-08-18T06:56:39.000Z</time>
      </trkpt>
      <trkpt lat="22.903614" lon="111.075580">
        <ele>152.145340</ele>
        <time>2026-08-18T06:56:40.000Z</time>
      </trkpt>
      <trkpt lat="22.903609" lon="111.075613">
        <ele>152.180403</ele>
        <time>2026-08-18T06:56:41.000Z</time>
      </trkpt>
      <trkpt lat="22.903603" lon="111.075646">
        <ele>152.215668</ele>
        <time>2026-08-18T06:56:42.000Z</time>
      </trkpt>
      <trkpt lat="22.903598" lon="111.075683">
        <ele>152.254875</ele>
        <time>2026-08-18T06:56:43.000Z</time>
      </trkpt>
      <trkpt lat="22.903592" lon="111.075721">
        <ele>152.295296</ele>
        <time>2026-08-18T06:56:44.000Z</time>
      </trkpt>
      <trkpt lat="22.903584" lon="111.075759">
        <ele>152.336163</ele>
        <time>2026-08-18T06:56:45.000Z</time>
      </trkpt>
      <trkpt lat="22.903578" lon="111.075796">
        <ele>152.375551</ele>
        <time>2026-08-18T06:56:46.000Z</time>
      </trkpt>
      <trkpt lat="22.903570" lon="111.075835">
        <ele>152.417441</ele>
        <time>2026-08-18T06:56:47.000Z</time>
      </trkpt>
      <trkpt lat="22.903563" lon="111.075875">
        <ele>152.460128</ele>
        <time>2026-08-18T06:56:48.000Z</time>
      </trkpt>
      <trkpt lat="22.903556" lon="111.075914">
        <ele>152.501785</ele>
        <time>2026-08-18T06:56:49.000Z</time>
      </trkpt>
      <trkpt lat="22.903551" lon="111.075955">
        <ele>152.545145</ele>
        <time>2026-08-18T06:56:50.000Z</time>
      </trkpt>
      <trkpt lat="22.903546" lon="111.075997">
        <ele>152.589545</ele>
        <time>2026-08-18T06:56:51.000Z</time>
      </trkpt>
      <trkpt lat="22.903540" lon="111.076038">
        <ele>152.633069</ele>
        <time>2026-08-18T06:56:52.000Z</time>
      </trkpt>
      <trkpt lat="22.903533" lon="111.076080">
        <ele>152.677818</ele>
        <time>2026-08-18T06:56:53.000Z</time>
      </trkpt>
      <trkpt lat="22.903522" lon="111.076125">
        <ele>152.726630</ele>
        <time>2026-08-18T06:56:54.000Z</time>
      </trkpt>
      <trkpt lat="22.903513" lon="111.076168">
        <ele>152.756593</ele>
        <time>2026-08-18T06:56:55.000Z</time>
      </trkpt>
      <trkpt lat="22.903503" lon="111.076213">
        <ele>152.736090</ele>
        <time>2026-08-18T06:56:56.000Z</time>
      </trkpt>
      <trkpt lat="22.903494" lon="111.076258">
        <ele>152.715694</ele>
        <time>2026-08-18T06:56:57.000Z</time>
      </trkpt>
      <trkpt lat="22.903485" lon="111.076303">
        <ele>152.695298</ele>
        <time>2026-08-18T06:56:58.000Z</time>
      </trkpt>
      <trkpt lat="22.903476" lon="111.076350">
        <ele>152.674035</ele>
        <time>2026-08-18T06:56:59.000Z</time>
      </trkpt>
      <trkpt lat="22.903467" lon="111.076396">
        <ele>152.653206</ele>
        <time>2026-08-18T06:57:00.000Z</time>
      </trkpt>
      <trkpt lat="22.903460" lon="111.076443">
        <ele>152.632118</ele>
        <time>2026-08-18T06:57:01.000Z</time>
      </trkpt>
      <trkpt lat="22.903451" lon="111.076491">
        <ele>152.610422</ele>
        <time>2026-08-18T06:57:02.000Z</time>
      </trkpt>
      <trkpt lat="22.903442" lon="111.076539">
        <ele>152.588725</ele>
        <time>2026-08-18T06:57:03.000Z</time>
      </trkpt>
      <trkpt lat="22.903432" lon="111.076588">
        <ele>152.566495</ele>
        <time>2026-08-18T06:57:04.000Z</time>
      </trkpt>
      <trkpt lat="22.903422" lon="111.076638">
        <ele>152.543833</ele>
        <time>2026-08-18T06:57:05.000Z</time>
      </trkpt>
      <trkpt lat="22.903411" lon="111.076688">
        <ele>152.521064</ele>
        <time>2026-08-18T06:57:06.000Z</time>
      </trkpt>
      <trkpt lat="22.903401" lon="111.076737">
        <ele>152.498834</ele>
        <time>2026-08-18T06:57:07.000Z</time>
      </trkpt>
      <trkpt lat="22.903390" lon="111.076787">
        <ele>152.476065</ele>
        <time>2026-08-18T06:57:08.000Z</time>
      </trkpt>
      <trkpt lat="22.903379" lon="111.076837">
        <ele>152.453296</ele>
        <time>2026-08-18T06:57:09.000Z</time>
      </trkpt>
      <trkpt lat="22.903367" lon="111.076889">
        <ele>152.429552</ele>
        <time>2026-08-18T06:57:10.000Z</time>
      </trkpt>
      <trkpt lat="22.903355" lon="111.076940">
        <ele>152.406237</ele>
        <time>2026-08-18T06:57:11.000Z</time>
      </trkpt>
      <trkpt lat="22.903345" lon="111.076992">
        <ele>152.382708</ele>
        <time>2026-08-18T06:57:12.000Z</time>
      </trkpt>
      <trkpt lat="22.903336" lon="111.077043">
        <ele>152.359708</ele>
        <time>2026-08-18T06:57:13.000Z</time>
      </trkpt>
      <trkpt lat="22.903327" lon="111.077095">
        <ele>152.336273</ele>
        <time>2026-08-18T06:57:14.000Z</time>
      </trkpt>
      <trkpt lat="22.903315" lon="111.077145">
        <ele>152.313387</ele>
        <time>2026-08-18T06:57:15.000Z</time>
      </trkpt>
      <trkpt lat="22.903304" lon="111.077197">
        <ele>152.289756</ele>
        <time>2026-08-18T06:57:16.000Z</time>
      </trkpt>
      <trkpt lat="22.903293" lon="111.077248">
        <ele>152.266555</ele>
        <time>2026-08-18T06:57:17.000Z</time>
      </trkpt>
      <trkpt lat="22.903283" lon="111.077298">
        <ele>152.243893</ele>
        <time>2026-08-18T06:57:18.000Z</time>
      </trkpt>
      <trkpt lat="22.903273" lon="111.077349">
        <ele>152.220798</ele>
        <time>2026-08-18T06:57:19.000Z</time>
      </trkpt>
      <trkpt lat="22.903263" lon="111.077399">
        <ele>152.198135</ele>
        <time>2026-08-18T06:57:20.000Z</time>
      </trkpt>
      <trkpt lat="22.903255" lon="111.077450">
        <ele>152.175221</ele>
        <time>2026-08-18T06:57:21.000Z</time>
      </trkpt>
      <trkpt lat="22.903245" lon="111.077500">
        <ele>152.152558</ele>
        <time>2026-08-18T06:57:22.000Z</time>
      </trkpt>
      <trkpt lat="22.903235" lon="111.077549">
        <ele>152.130329</ele>
        <time>2026-08-18T06:57:23.000Z</time>
      </trkpt>
      <trkpt lat="22.903223" lon="111.077599">
        <ele>152.107443</ele>
        <time>2026-08-18T06:57:24.000Z</time>
      </trkpt>
      <trkpt lat="22.903210" lon="111.077650">
        <ele>152.084005</ele>
        <time>2026-08-18T06:57:25.000Z</time>
      </trkpt>
      <trkpt lat="22.903200" lon="111.077703">
        <ele>152.060042</ele>
        <time>2026-08-18T06:57:26.000Z</time>
      </trkpt>
      <trkpt lat="22.903189" lon="111.077754">
        <ele>152.036842</ele>
        <time>2026-08-18T06:57:27.000Z</time>
      </trkpt>
      <trkpt lat="22.903180" lon="111.077804">
        <ele>152.014277</ele>
        <time>2026-08-18T06:57:28.000Z</time>
      </trkpt>
      <trkpt lat="22.903169" lon="111.077856">
        <ele>151.990645</ele>
        <time>2026-08-18T06:57:29.000Z</time>
      </trkpt>
      <trkpt lat="22.903160" lon="111.077910">
        <ele>151.966338</ele>
        <time>2026-08-18T06:57:30.000Z</time>
      </trkpt>
      <trkpt lat="22.903148" lon="111.077963">
        <ele>151.942165</ele>
        <time>2026-08-18T06:57:31.000Z</time>
      </trkpt>
      <trkpt lat="22.903137" lon="111.078018">
        <ele>151.917236</ele>
        <time>2026-08-18T06:57:32.000Z</time>
      </trkpt>
      <trkpt lat="22.903127" lon="111.078071">
        <ele>151.895231</ele>
        <time>2026-08-18T06:57:33.000Z</time>
      </trkpt>
      <trkpt lat="22.903117" lon="111.078125">
        <ele>151.885304</ele>
        <time>2026-08-18T06:57:34.000Z</time>
      </trkpt>
      <trkpt lat="22.903106" lon="111.078176">
        <ele>151.875865</ele>
        <time>2026-08-18T06:57:35.000Z</time>
      </trkpt>
      <trkpt lat="22.903096" lon="111.078228">
        <ele>151.866291</ele>
        <time>2026-08-18T06:57:36.000Z</time>
      </trkpt>
      <trkpt lat="22.903087" lon="111.078280">
        <ele>151.856756</ele>
        <time>2026-08-18T06:57:37.000Z</time>
      </trkpt>
      <trkpt lat="22.903081" lon="111.078333">
        <ele>151.847133</ele>
        <time>2026-08-18T06:57:38.000Z</time>
      </trkpt>
      <trkpt lat="22.903073" lon="111.078387">
        <ele>151.837276</ele>
        <time>2026-08-18T06:57:39.000Z</time>
      </trkpt>
      <trkpt lat="22.903072" lon="111.078437">
        <ele>151.828263</ele>
        <time>2026-08-18T06:57:40.000Z</time>
      </trkpt>
      <trkpt lat="22.903064" lon="111.078491">
        <ele>151.818406</ele>
        <time>2026-08-18T06:57:41.000Z</time>
      </trkpt>
      <trkpt lat="22.903055" lon="111.078545">
        <ele>151.808516</ele>
        <time>2026-08-18T06:57:42.000Z</time>
      </trkpt>
      <trkpt lat="22.903047" lon="111.078599">
        <ele>151.798659</ele>
        <time>2026-08-18T06:57:43.000Z</time>
      </trkpt>
      <trkpt lat="22.903039" lon="111.078653">
        <ele>151.788802</ele>
        <time>2026-08-18T06:57:44.000Z</time>
      </trkpt>
      <trkpt lat="22.903031" lon="111.078706">
        <ele>151.779123</ele>
        <time>2026-08-18T06:57:45.000Z</time>
      </trkpt>
      <trkpt lat="22.903020" lon="111.078758">
        <ele>151.769508</ele>
        <time>2026-08-18T06:57:46.000Z</time>
      </trkpt>
      <trkpt lat="22.903010" lon="111.078808">
        <ele>151.760287</ele>
        <time>2026-08-18T06:57:47.000Z</time>
      </trkpt>
      <trkpt lat="22.902998" lon="111.078858">
        <ele>151.750975</ele>
        <time>2026-08-18T06:57:48.000Z</time>
      </trkpt>
      <trkpt lat="22.902987" lon="111.078908">
        <ele>151.741711</ele>
        <time>2026-08-18T06:57:49.000Z</time>
      </trkpt>
      <trkpt lat="22.902977" lon="111.078956">
        <ele>151.732842</ele>
        <time>2026-08-18T06:57:50.000Z</time>
      </trkpt>
      <trkpt lat="22.902967" lon="111.079005">
        <ele>151.723797</ele>
        <time>2026-08-18T06:57:51.000Z</time>
      </trkpt>
      <trkpt lat="22.902953" lon="111.079053">
        <ele>151.714723</ele>
        <time>2026-08-18T06:57:52.000Z</time>
      </trkpt>
      <trkpt lat="22.902941" lon="111.079098">
        <ele>151.706281</ele>
        <time>2026-08-18T06:57:53.000Z</time>
      </trkpt>
      <trkpt lat="22.902929" lon="111.079145">
        <ele>151.697491</ele>
        <time>2026-08-18T06:57:54.000Z</time>
      </trkpt>
      <trkpt lat="22.902920" lon="111.079193">
        <ele>151.688663</ele>
        <time>2026-08-18T06:57:55.000Z</time>
      </trkpt>
      <trkpt lat="22.902913" lon="111.079239">
        <ele>151.680261</ele>
        <time>2026-08-18T06:57:56.000Z</time>
      </trkpt>
      <trkpt lat="22.902905" lon="111.079287">
        <ele>151.671470</ele>
        <time>2026-08-18T06:57:57.000Z</time>
      </trkpt>
      <trkpt lat="22.902899" lon="111.079333">
        <ele>151.663097</ele>
        <time>2026-08-18T06:57:58.000Z</time>
      </trkpt>
      <trkpt lat="22.902892" lon="111.079379">
        <ele>151.654694</ele>
        <time>2026-08-18T06:57:59.000Z</time>
      </trkpt>
      <trkpt lat="22.902887" lon="111.079425">
        <ele>151.646347</ele>
        <time>2026-08-18T06:58:00.000Z</time>
      </trkpt>
      <trkpt lat="22.902881" lon="111.079469">
        <ele>151.638331</ele>
        <time>2026-08-18T06:58:01.000Z</time>
      </trkpt>
      <trkpt lat="22.902872" lon="111.079514">
        <ele>151.630032</ele>
        <time>2026-08-18T06:58:02.000Z</time>
      </trkpt>
      <trkpt lat="22.902862" lon="111.079558">
        <ele>151.621865</ele>
        <time>2026-08-18T06:58:03.000Z</time>
      </trkpt>
      <trkpt lat="22.902846" lon="111.079605">
        <ele>151.612834</ele>
        <time>2026-08-18T06:58:04.000Z</time>
      </trkpt>
      <trkpt lat="22.902833" lon="111.079651">
        <ele>151.604163</ele>
        <time>2026-08-18T06:58:05.000Z</time>
      </trkpt>
      <trkpt lat="22.902820" lon="111.079698">
        <ele>151.595319</ele>
        <time>2026-08-18T06:58:06.000Z</time>
      </trkpt>
      <trkpt lat="22.902808" lon="111.079747">
        <ele>151.586182</ele>
        <time>2026-08-18T06:58:07.000Z</time>
      </trkpt>
      <trkpt lat="22.902799" lon="111.079796">
        <ele>151.577177</ele>
        <time>2026-08-18T06:58:08.000Z</time>
      </trkpt>
      <trkpt lat="22.902790" lon="111.079846">
        <ele>151.567996</ele>
        <time>2026-08-18T06:58:09.000Z</time>
      </trkpt>
      <trkpt lat="22.902781" lon="111.079897">
        <ele>151.558637</ele>
        <time>2026-08-18T06:58:10.000Z</time>
      </trkpt>
      <trkpt lat="22.902773" lon="111.079947">
        <ele>151.549492</ele>
        <time>2026-08-18T06:58:11.000Z</time>
      </trkpt>
      <trkpt lat="22.902767" lon="111.079998">
        <ele>151.534014</ele>
        <time>2026-08-18T06:58:12.000Z</time>
      </trkpt>
      <trkpt lat="22.902761" lon="111.080050">
        <ele>151.511409</ele>
        <time>2026-08-18T06:58:13.000Z</time>
      </trkpt>
      <trkpt lat="22.902756" lon="111.080101">
        <ele>151.489287</ele>
        <time>2026-08-18T06:58:14.000Z</time>
      </trkpt>
      <trkpt lat="22.902749" lon="111.080155">
        <ele>151.465765</ele>
        <time>2026-08-18T06:58:15.000Z</time>
      </trkpt>
      <trkpt lat="22.902741" lon="111.080209">
        <ele>151.442173</ele>
        <time>2026-08-18T06:58:16.000Z</time>
      </trkpt>
      <trkpt lat="22.902734" lon="111.080262">
        <ele>151.419079</ele>
        <time>2026-08-18T06:58:17.000Z</time>
      </trkpt>
      <trkpt lat="22.902730" lon="111.080315">
        <ele>151.396141</ele>
        <time>2026-08-18T06:58:18.000Z</time>
      </trkpt>
      <trkpt lat="22.902725" lon="111.080367">
        <ele>151.373589</ele>
        <time>2026-08-18T06:58:19.000Z</time>
      </trkpt>
      <trkpt lat="22.902717" lon="111.080421">
        <ele>151.349998</ele>
        <time>2026-08-18T06:58:20.000Z</time>
      </trkpt>
      <trkpt lat="22.902711" lon="111.080476">
        <ele>151.326108</ele>
        <time>2026-08-18T06:58:21.000Z</time>
      </trkpt>
      <trkpt lat="22.902705" lon="111.080529">
        <ele>151.303075</ele>
        <time>2026-08-18T06:58:22.000Z</time>
      </trkpt>
      <trkpt lat="22.902697" lon="111.080582">
        <ele>151.279909</ele>
        <time>2026-08-18T06:58:23.000Z</time>
      </trkpt>
      <trkpt lat="22.902690" lon="111.080637">
        <ele>151.255960</ele>
        <time>2026-08-18T06:58:24.000Z</time>
      </trkpt>
      <trkpt lat="22.902682" lon="111.080692">
        <ele>151.231943</ele>
        <time>2026-08-18T06:58:25.000Z</time>
      </trkpt>
      <trkpt lat="22.902673" lon="111.080746">
        <ele>151.208272</ele>
        <time>2026-08-18T06:58:26.000Z</time>
      </trkpt>
      <trkpt lat="22.902664" lon="111.080802">
        <ele>151.183752</ele>
        <time>2026-08-18T06:58:27.000Z</time>
      </trkpt>
      <trkpt lat="22.902656" lon="111.080856">
        <ele>151.160161</ele>
        <time>2026-08-18T06:58:28.000Z</time>
      </trkpt>
      <trkpt lat="22.902647" lon="111.080912">
        <ele>151.135641</ele>
        <time>2026-08-18T06:58:29.000Z</time>
      </trkpt>
      <trkpt lat="22.902639" lon="111.080966">
        <ele>151.112049</ele>
        <time>2026-08-18T06:58:30.000Z</time>
      </trkpt>
      <trkpt lat="22.902632" lon="111.081022">
        <ele>151.087673</ele>
        <time>2026-08-18T06:58:31.000Z</time>
      </trkpt>
      <trkpt lat="22.902627" lon="111.081079">
        <ele>151.062975</ele>
        <time>2026-08-18T06:58:32.000Z</time>
      </trkpt>
      <trkpt lat="22.902623" lon="111.081135">
        <ele>151.038748</ele>
        <time>2026-08-18T06:58:33.000Z</time>
      </trkpt>
      <trkpt lat="22.902619" lon="111.081192">
        <ele>151.014090</ele>
        <time>2026-08-18T06:58:34.000Z</time>
      </trkpt>
      <trkpt lat="22.902615" lon="111.081248">
        <ele>150.989862</ele>
        <time>2026-08-18T06:58:35.000Z</time>
      </trkpt>
      <trkpt lat="22.902608" lon="111.081304">
        <ele>150.965486</ele>
        <time>2026-08-18T06:58:36.000Z</time>
      </trkpt>
      <trkpt lat="22.902605" lon="111.081359">
        <ele>150.941721</ele>
        <time>2026-08-18T06:58:37.000Z</time>
      </trkpt>
      <trkpt lat="22.902601" lon="111.081413">
        <ele>150.918353</ele>
        <time>2026-08-18T06:58:38.000Z</time>
      </trkpt>
      <trkpt lat="22.902597" lon="111.081467">
        <ele>150.894986</ele>
        <time>2026-08-18T06:58:39.000Z</time>
      </trkpt>
      <trkpt lat="22.902594" lon="111.081520">
        <ele>150.872082</ele>
        <time>2026-08-18T06:58:40.000Z</time>
      </trkpt>
      <trkpt lat="22.902591" lon="111.081573">
        <ele>150.849177</ele>
        <time>2026-08-18T06:58:41.000Z</time>
      </trkpt>
      <trkpt lat="22.902586" lon="111.081626">
        <ele>150.826197</ele>
        <time>2026-08-18T06:58:42.000Z</time>
      </trkpt>
      <trkpt lat="22.902586" lon="111.081679">
        <ele>150.803336</ele>
        <time>2026-08-18T06:58:43.000Z</time>
      </trkpt>
      <trkpt lat="22.902580" lon="111.081732">
        <ele>150.780303</ele>
        <time>2026-08-18T06:58:44.000Z</time>
      </trkpt>
      <trkpt lat="22.902574" lon="111.081785">
        <ele>150.757270</ele>
        <time>2026-08-18T06:58:45.000Z</time>
      </trkpt>
      <trkpt lat="22.902567" lon="111.081837">
        <ele>150.734602</ele>
        <time>2026-08-18T06:58:46.000Z</time>
      </trkpt>
      <trkpt lat="22.902562" lon="111.081889">
        <ele>150.712050</ele>
        <time>2026-08-18T06:58:47.000Z</time>
      </trkpt>
      <trkpt lat="22.902555" lon="111.081942">
        <ele>150.698946</ele>
        <time>2026-08-18T06:58:48.000Z</time>
      </trkpt>
      <trkpt lat="22.902549" lon="111.081994">
        <ele>150.693062</ele>
        <time>2026-08-18T06:58:49.000Z</time>
      </trkpt>
      <trkpt lat="22.902546" lon="111.082046">
        <ele>150.687212</ele>
        <time>2026-08-18T06:58:50.000Z</time>
      </trkpt>
      <trkpt lat="22.902540" lon="111.082096">
        <ele>150.681550</ele>
        <time>2026-08-18T06:58:51.000Z</time>
      </trkpt>
      <trkpt lat="22.902537" lon="111.082147">
        <ele>150.675812</ele>
        <time>2026-08-18T06:58:52.000Z</time>
      </trkpt>
      <trkpt lat="22.902529" lon="111.082199">
        <ele>150.669892</ele>
        <time>2026-08-18T06:58:53.000Z</time>
      </trkpt>
      <trkpt lat="22.902523" lon="111.082251">
        <ele>150.664007</ele>
        <time>2026-08-18T06:58:54.000Z</time>
      </trkpt>
      <trkpt lat="22.902519" lon="111.082304">
        <ele>150.658036</ele>
        <time>2026-08-18T06:58:55.000Z</time>
      </trkpt>
      <trkpt lat="22.902513" lon="111.082355">
        <ele>150.652263</ele>
        <time>2026-08-18T06:58:56.000Z</time>
      </trkpt>
      <trkpt lat="22.902511" lon="111.082408">
        <ele>150.646307</ele>
        <time>2026-08-18T06:58:57.000Z</time>
      </trkpt>
      <trkpt lat="22.902507" lon="111.082459">
        <ele>150.640560</ele>
        <time>2026-08-18T06:58:58.000Z</time>
      </trkpt>
      <trkpt lat="22.902504" lon="111.082511">
        <ele>150.634709</ele>
        <time>2026-08-18T06:58:59.000Z</time>
      </trkpt>
      <trkpt lat="22.902502" lon="111.082560">
        <ele>150.629202</ele>
        <time>2026-08-18T06:59:00.000Z</time>
      </trkpt>
      <trkpt lat="22.902501" lon="111.082610">
        <ele>150.623586</ele>
        <time>2026-08-18T06:59:01.000Z</time>
      </trkpt>
      <trkpt lat="22.902497" lon="111.082661">
        <ele>150.617839</ele>
        <time>2026-08-18T06:59:02.000Z</time>
      </trkpt>
      <trkpt lat="22.902490" lon="111.082713">
        <ele>150.611938</ele>
        <time>2026-08-18T06:59:03.000Z</time>
      </trkpt>
      <trkpt lat="22.902485" lon="111.082762">
        <ele>150.606402</ele>
        <time>2026-08-18T06:59:04.000Z</time>
      </trkpt>
      <trkpt lat="22.902479" lon="111.082810">
        <ele>150.600963</ele>
        <time>2026-08-18T06:59:05.000Z</time>
      </trkpt>
      <trkpt lat="22.902472" lon="111.082856">
        <ele>150.595728</ele>
        <time>2026-08-18T06:59:06.000Z</time>
      </trkpt>
      <trkpt lat="22.902465" lon="111.082902">
        <ele>150.590493</ele>
        <time>2026-08-18T06:59:07.000Z</time>
      </trkpt>
      <trkpt lat="22.902457" lon="111.082951">
        <ele>150.584905</ele>
        <time>2026-08-18T06:59:08.000Z</time>
      </trkpt>
      <trkpt lat="22.902451" lon="111.082999">
        <ele>150.579466</ele>
        <time>2026-08-18T06:59:09.000Z</time>
      </trkpt>
      <trkpt lat="22.902446" lon="111.083049">
        <ele>150.573818</ele>
        <time>2026-08-18T06:59:10.000Z</time>
      </trkpt>
      <trkpt lat="22.902444" lon="111.083100">
        <ele>150.568087</ele>
        <time>2026-08-18T06:59:11.000Z</time>
      </trkpt>
      <trkpt lat="22.902442" lon="111.083148">
        <ele>150.562691</ele>
        <time>2026-08-18T06:59:12.000Z</time>
      </trkpt>
      <trkpt lat="22.902439" lon="111.083199">
        <ele>150.556953</ele>
        <time>2026-08-18T06:59:13.000Z</time>
      </trkpt>
      <trkpt lat="22.902438" lon="111.083250">
        <ele>150.551225</ele>
        <time>2026-08-18T06:59:14.000Z</time>
      </trkpt>
      <trkpt lat="22.902435" lon="111.083300">
        <ele>150.545599</ele>
        <time>2026-08-18T06:59:15.000Z</time>
      </trkpt>
      <trkpt lat="22.902430" lon="111.083351">
        <ele>150.539840</ele>
        <time>2026-08-18T06:59:16.000Z</time>
      </trkpt>
      <trkpt lat="22.902425" lon="111.083401">
        <ele>150.534193</ele>
        <time>2026-08-18T06:59:17.000Z</time>
      </trkpt>
      <trkpt lat="22.902421" lon="111.083448">
        <ele>150.528893</ele>
        <time>2026-08-18T06:59:18.000Z</time>
      </trkpt>
      <trkpt lat="22.902415" lon="111.083499">
        <ele>150.523120</ele>
        <time>2026-08-18T06:59:19.000Z</time>
      </trkpt>
      <trkpt lat="22.902411" lon="111.083549">
        <ele>150.517484</ele>
        <time>2026-08-18T06:59:20.000Z</time>
      </trkpt>
      <trkpt lat="22.902409" lon="111.083601">
        <ele>150.511640</ele>
        <time>2026-08-18T06:59:21.000Z</time>
      </trkpt>
      <trkpt lat="22.902405" lon="111.083653">
        <ele>150.505781</ele>
        <time>2026-08-18T06:59:22.000Z</time>
      </trkpt>
      <trkpt lat="22.902402" lon="111.083707">
        <ele>150.499707</ele>
        <time>2026-08-18T06:59:23.000Z</time>
      </trkpt>
      <trkpt lat="22.902401" lon="111.083761">
        <ele>150.493642</ele>
        <time>2026-08-18T06:59:24.000Z</time>
      </trkpt>
      <trkpt lat="22.902398" lon="111.083817">
        <ele>150.487343</ele>
        <time>2026-08-18T06:59:25.000Z</time>
      </trkpt>
      <trkpt lat="22.902394" lon="111.083871">
        <ele>150.486422</ele>
        <time>2026-08-18T06:59:26.000Z</time>
      </trkpt>
      <trkpt lat="22.902390" lon="111.083925">
        <ele>150.496394</ele>
        <time>2026-08-18T06:59:27.000Z</time>
      </trkpt>
      <trkpt lat="22.902387" lon="111.083979">
        <ele>150.506352</ele>
        <time>2026-08-18T06:59:28.000Z</time>
      </trkpt>
      <trkpt lat="22.902383" lon="111.084033">
        <ele>150.516324</ele>
        <time>2026-08-18T06:59:29.000Z</time>
      </trkpt>
      <trkpt lat="22.902378" lon="111.084091">
        <ele>150.527046</ele>
        <time>2026-08-18T06:59:30.000Z</time>
      </trkpt>
      <trkpt lat="22.902373" lon="111.084147">
        <ele>150.537403</ele>
        <time>2026-08-18T06:59:31.000Z</time>
      </trkpt>
      <trkpt lat="22.902371" lon="111.084203">
        <ele>150.547718</ele>
        <time>2026-08-18T06:59:32.000Z</time>
      </trkpt>
      <trkpt lat="22.902366" lon="111.084261">
        <ele>150.558441</ele>
        <time>2026-08-18T06:59:33.000Z</time>
      </trkpt>
      <trkpt lat="22.902361" lon="111.084317">
        <ele>150.568797</ele>
        <time>2026-08-18T06:59:34.000Z</time>
      </trkpt>
      <trkpt lat="22.902354" lon="111.084372">
        <ele>150.579018</ele>
        <time>2026-08-18T06:59:35.000Z</time>
      </trkpt>
      <trkpt lat="22.902348" lon="111.084426">
        <ele>150.589029</ele>
        <time>2026-08-18T06:59:36.000Z</time>
      </trkpt>
      <trkpt lat="22.902342" lon="111.084480">
        <ele>150.599041</ele>
        <time>2026-08-18T06:59:37.000Z</time>
      </trkpt>
      <trkpt lat="22.902340" lon="111.084535">
        <ele>150.609173</ele>
        <time>2026-08-18T06:59:38.000Z</time>
      </trkpt>
      <trkpt lat="22.902335" lon="111.084589">
        <ele>150.619163</ele>
        <time>2026-08-18T06:59:39.000Z</time>
      </trkpt>
      <trkpt lat="22.902335" lon="111.084642">
        <ele>150.628919</ele>
        <time>2026-08-18T06:59:40.000Z</time>
      </trkpt>
      <trkpt lat="22.902335" lon="111.084695">
        <ele>150.638674</ele>
        <time>2026-08-18T06:59:41.000Z</time>
      </trkpt>
      <trkpt lat="22.902337" lon="111.084747">
        <ele>150.648255</ele>
        <time>2026-08-18T06:59:42.000Z</time>
      </trkpt>
      <trkpt lat="22.902345" lon="111.084798">
        <ele>150.657777</ele>
        <time>2026-08-18T06:59:43.000Z</time>
      </trkpt>
      <trkpt lat="22.902348" lon="111.084851">
        <ele>150.667551</ele>
        <time>2026-08-18T06:59:44.000Z</time>
      </trkpt>
      <trkpt lat="22.902345" lon="111.084903">
        <ele>150.677142</ele>
        <time>2026-08-18T06:59:45.000Z</time>
      </trkpt>
      <trkpt lat="22.902343" lon="111.084955">
        <ele>150.686722</ele>
        <time>2026-08-18T06:59:46.000Z</time>
      </trkpt>
      <trkpt lat="22.902340" lon="111.085007">
        <ele>150.696312</ele>
        <time>2026-08-18T06:59:47.000Z</time>
      </trkpt>
      <trkpt lat="22.902336" lon="111.085059">
        <ele>150.705917</ele>
        <time>2026-08-18T06:59:48.000Z</time>
      </trkpt>
      <trkpt lat="22.902330" lon="111.085111">
        <ele>150.715564</ele>
        <time>2026-08-18T06:59:49.000Z</time>
      </trkpt>
      <trkpt lat="22.902323" lon="111.085165">
        <ele>150.725602</ele>
        <time>2026-08-18T06:59:50.000Z</time>
      </trkpt>
      <trkpt lat="22.902313" lon="111.085219">
        <ele>150.735740</ele>
        <time>2026-08-18T06:59:51.000Z</time>
      </trkpt>
      <trkpt lat="22.902305" lon="111.085274">
        <ele>150.745990</ele>
        <time>2026-08-18T06:59:52.000Z</time>
      </trkpt>
      <trkpt lat="22.902297" lon="111.085330">
        <ele>150.756421</ele>
        <time>2026-08-18T06:59:53.000Z</time>
      </trkpt>
      <trkpt lat="22.902294" lon="111.085385">
        <ele>150.766562</ele>
        <time>2026-08-18T06:59:54.000Z</time>
      </trkpt>
      <trkpt lat="22.902290" lon="111.085440">
        <ele>150.776718</ele>
        <time>2026-08-18T06:59:55.000Z</time>
      </trkpt>
      <trkpt lat="22.902287" lon="111.085493">
        <ele>150.786492</ele>
        <time>2026-08-18T06:59:56.000Z</time>
      </trkpt>
      <trkpt lat="22.902280" lon="111.085546">
        <ele>150.796348</ele>
        <time>2026-08-18T06:59:57.000Z</time>
      </trkpt>
      <trkpt lat="22.902277" lon="111.085596">
        <ele>150.805571</ele>
        <time>2026-08-18T06:59:58.000Z</time>
      </trkpt>
      <trkpt lat="22.902274" lon="111.085647">
        <ele>150.814977</ele>
        <time>2026-08-18T06:59:59.000Z</time>
      </trkpt>
      <trkpt lat="22.902272" lon="111.085699">
        <ele>150.824557</ele>
        <time>2026-08-18T07:00:00.000Z</time>
      </trkpt>
      <trkpt lat="22.902271" lon="111.085752">
        <ele>150.834315</ele>
        <time>2026-08-18T07:00:01.000Z</time>
      </trkpt>
      <trkpt lat="22.902269" lon="111.085804">
        <ele>150.846870</ele>
        <time>2026-08-18T07:00:02.000Z</time>
      </trkpt>
      <trkpt lat="22.902265" lon="111.085854">
        <ele>150.877762</ele>
        <time>2026-08-18T07:00:03.000Z</time>
      </trkpt>
      <trkpt lat="22.902262" lon="111.085905">
        <ele>150.909219</ele>
        <time>2026-08-18T07:00:04.000Z</time>
      </trkpt>
      <trkpt lat="22.902259" lon="111.085954">
        <ele>150.939447</ele>
        <time>2026-08-18T07:00:05.000Z</time>
      </trkpt>
      <trkpt lat="22.902254" lon="111.086003">
        <ele>150.969793</ele>
        <time>2026-08-18T07:00:06.000Z</time>
      </trkpt>
      <trkpt lat="22.902250" lon="111.086052">
        <ele>151.000072</ele>
        <time>2026-08-18T07:00:07.000Z</time>
      </trkpt>
      <trkpt lat="22.902245" lon="111.086100">
        <ele>151.029806</ele>
        <time>2026-08-18T07:00:08.000Z</time>
      </trkpt>
      <trkpt lat="22.902242" lon="111.086148">
        <ele>151.059420</ele>
        <time>2026-08-18T07:00:09.000Z</time>
      </trkpt>
      <trkpt lat="22.902239" lon="111.086195">
        <ele>151.088420</ele>
        <time>2026-08-18T07:00:10.000Z</time>
      </trkpt>
      <trkpt lat="22.902239" lon="111.086242">
        <ele>151.117350</ele>
        <time>2026-08-18T07:00:11.000Z</time>
      </trkpt>
      <trkpt lat="22.902236" lon="111.086290">
        <ele>151.146964</ele>
        <time>2026-08-18T07:00:12.000Z</time>
      </trkpt>
      <trkpt lat="22.902235" lon="111.086337">
        <ele>151.175902</ele>
        <time>2026-08-18T07:00:13.000Z</time>
      </trkpt>
      <trkpt lat="22.902235" lon="111.086386">
        <ele>151.206064</ele>
        <time>2026-08-18T07:00:14.000Z</time>
      </trkpt>
      <trkpt lat="22.902232" lon="111.086435">
        <ele>151.236292</ele>
        <time>2026-08-18T07:00:15.000Z</time>
      </trkpt>
      <trkpt lat="22.902232" lon="111.086482">
        <ele>151.265222</ele>
        <time>2026-08-18T07:00:16.000Z</time>
      </trkpt>
      <trkpt lat="22.902230" lon="111.086528">
        <ele>151.293568</ele>
        <time>2026-08-18T07:00:17.000Z</time>
      </trkpt>
      <trkpt lat="22.902226" lon="111.086575">
        <ele>151.322622</ele>
        <time>2026-08-18T07:00:18.000Z</time>
      </trkpt>
      <trkpt lat="22.902221" lon="111.086622">
        <ele>151.351744</ele>
        <time>2026-08-18T07:00:19.000Z</time>
      </trkpt>
      <trkpt lat="22.902218" lon="111.086668">
        <ele>151.380130</ele>
        <time>2026-08-18T07:00:20.000Z</time>
      </trkpt>
      <trkpt lat="22.902214" lon="111.086716">
        <ele>151.409797</ele>
        <time>2026-08-18T07:00:21.000Z</time>
      </trkpt>
      <trkpt lat="22.902210" lon="111.086764">
        <ele>151.439463</ele>
        <time>2026-08-18T07:00:22.000Z</time>
      </trkpt>
      <trkpt lat="22.902205" lon="111.086812">
        <ele>151.469197</ele>
        <time>2026-08-18T07:00:23.000Z</time>
      </trkpt>
      <trkpt lat="22.902201" lon="111.086862">
        <ele>151.500090</ele>
        <time>2026-08-18T07:00:24.000Z</time>
      </trkpt>
      <trkpt lat="22.902198" lon="111.086910">
        <ele>151.529704</ele>
        <time>2026-08-18T07:00:25.000Z</time>
      </trkpt>
      <trkpt lat="22.902195" lon="111.086958">
        <ele>151.559318</ele>
        <time>2026-08-18T07:00:26.000Z</time>
      </trkpt>
      <trkpt lat="22.902191" lon="111.087005">
        <ele>151.588371</ele>
        <time>2026-08-18T07:00:27.000Z</time>
      </trkpt>
      <trkpt lat="22.902185" lon="111.087054">
        <ele>151.618798</ele>
        <time>2026-08-18T07:00:28.000Z</time>
      </trkpt>
      <trkpt lat="22.902183" lon="111.087101">
        <ele>151.647759</ele>
        <time>2026-08-18T07:00:29.000Z</time>
      </trkpt>
      <trkpt lat="22.902178" lon="111.087153">
        <ele>151.679941</ele>
        <time>2026-08-18T07:00:30.000Z</time>
      </trkpt>
      <trkpt lat="22.902173" lon="111.087202">
        <ele>151.710287</ele>
        <time>2026-08-18T07:00:31.000Z</time>
      </trkpt>
      <trkpt lat="22.902170" lon="111.087251">
        <ele>151.740515</ele>
        <time>2026-08-18T07:00:32.000Z</time>
      </trkpt>
      <trkpt lat="22.902170" lon="111.087299">
        <ele>151.770061</ele>
        <time>2026-08-18T07:00:33.000Z</time>
      </trkpt>
      <trkpt lat="22.902169" lon="111.087348">
        <ele>151.800230</ele>
        <time>2026-08-18T07:00:34.000Z</time>
      </trkpt>
      <trkpt lat="22.902164" lon="111.087398">
        <ele>151.831188</ele>
        <time>2026-08-18T07:00:35.000Z</time>
      </trkpt>
      <trkpt lat="22.902157" lon="111.087446">
        <ele>151.861102</ele>
        <time>2026-08-18T07:00:36.000Z</time>
      </trkpt>
      <trkpt lat="22.902150" lon="111.087494">
        <ele>151.891016</ele>
        <time>2026-08-18T07:00:37.000Z</time>
      </trkpt>
      <trkpt lat="22.902142" lon="111.087541">
        <ele>151.920436</ele>
        <time>2026-08-18T07:00:38.000Z</time>
      </trkpt>
      <trkpt lat="22.902133" lon="111.087590">
        <ele>151.951191</ele>
        <time>2026-08-18T07:00:39.000Z</time>
      </trkpt>
      <trkpt lat="22.902123" lon="111.087638">
        <ele>151.981483</ele>
        <time>2026-08-18T07:00:40.000Z</time>
      </trkpt>
      <trkpt lat="22.902118" lon="111.087688">
        <ele>152.012441</ele>
        <time>2026-08-18T07:00:41.000Z</time>
      </trkpt>
      <trkpt lat="22.902109" lon="111.087736">
        <ele>152.042592</ele>
        <time>2026-08-18T07:00:42.000Z</time>
      </trkpt>
      <trkpt lat="22.902101" lon="111.087783">
        <ele>152.077313</ele>
        <time>2026-08-18T07:00:43.000Z</time>
      </trkpt>
      <trkpt lat="22.902093" lon="111.087830">
        <ele>152.112402</ele>
        <time>2026-08-18T07:00:44.000Z</time>
      </trkpt>
      <trkpt lat="22.902086" lon="111.087878">
        <ele>152.148081</ele>
        <time>2026-08-18T07:00:45.000Z</time>
      </trkpt>
      <trkpt lat="22.902077" lon="111.087926">
        <ele>152.184042</ele>
        <time>2026-08-18T07:00:46.000Z</time>
      </trkpt>
      <trkpt lat="22.902068" lon="111.087973">
        <ele>152.219285</ele>
        <time>2026-08-18T07:00:47.000Z</time>
      </trkpt>
      <trkpt lat="22.902059" lon="111.088021">
        <ele>152.255247</ele>
        <time>2026-08-18T07:00:48.000Z</time>
      </trkpt>
      <trkpt lat="22.902049" lon="111.088070">
        <ele>152.292093</ele>
        <time>2026-08-18T07:00:49.000Z</time>
      </trkpt>
      <trkpt lat="22.902039" lon="111.088120">
        <ele>152.329656</ele>
        <time>2026-08-18T07:00:50.000Z</time>
      </trkpt>
      <trkpt lat="22.902032" lon="111.088169">
        <ele>152.366059</ele>
        <time>2026-08-18T07:00:51.000Z</time>
      </trkpt>
      <trkpt lat="22.902023" lon="111.088219">
        <ele>152.403461</ele>
        <time>2026-08-18T07:00:52.000Z</time>
      </trkpt>
      <trkpt lat="22.902011" lon="111.088269">
        <ele>152.441394</ele>
        <time>2026-08-18T07:00:53.000Z</time>
      </trkpt>
      <trkpt lat="22.901998" lon="111.088318">
        <ele>152.478830</ele>
        <time>2026-08-18T07:00:54.000Z</time>
      </trkpt>
      <trkpt lat="22.901986" lon="111.088368">
        <ele>152.516763</ele>
        <time>2026-08-18T07:00:55.000Z</time>
      </trkpt>
      <trkpt lat="22.901974" lon="111.088417">
        <ele>152.553986</ele>
        <time>2026-08-18T07:00:56.000Z</time>
      </trkpt>
      <trkpt lat="22.901962" lon="111.088464">
        <ele>152.589792</ele>
        <time>2026-08-18T07:00:57.000Z</time>
      </trkpt>
      <trkpt lat="22.901950" lon="111.088513">
        <ele>152.627015</ele>
        <time>2026-08-18T07:00:58.000Z</time>
      </trkpt>
      <trkpt lat="22.901938" lon="111.088563">
        <ele>152.664948</ele>
        <time>2026-08-18T07:00:59.000Z</time>
      </trkpt>
      <trkpt lat="22.901926" lon="111.088614">
        <ele>152.703592</ele>
        <time>2026-08-18T07:01:00.000Z</time>
      </trkpt>
      <trkpt lat="22.901911" lon="111.088662">
        <ele>152.740804</ele>
        <time>2026-08-18T07:01:01.000Z</time>
      </trkpt>
      <trkpt lat="22.901896" lon="111.088711">
        <ele>152.778712</ele>
        <time>2026-08-18T07:01:02.000Z</time>
      </trkpt>
      <trkpt lat="22.901880" lon="111.088760">
        <ele>152.816879</ele>
        <time>2026-08-18T07:01:03.000Z</time>
      </trkpt>
      <trkpt lat="22.901864" lon="111.088808">
        <ele>152.854355</ele>
        <time>2026-08-18T07:01:04.000Z</time>
      </trkpt>
      <trkpt lat="22.901849" lon="111.088857">
        <ele>152.892262</ele>
        <time>2026-08-18T07:01:05.000Z</time>
      </trkpt>
      <trkpt lat="22.901836" lon="111.088905">
        <ele>152.928993</ele>
        <time>2026-08-18T07:01:06.000Z</time>
      </trkpt>
      <trkpt lat="22.901823" lon="111.088952">
        <ele>152.965021</ele>
        <time>2026-08-18T07:01:07.000Z</time>
      </trkpt>
      <trkpt lat="22.901808" lon="111.088999">
        <ele>153.001538</ele>
        <time>2026-08-18T07:01:08.000Z</time>
      </trkpt>
      <trkpt lat="22.901795" lon="111.089045">
        <ele>153.036863</ele>
        <time>2026-08-18T07:01:09.000Z</time>
      </trkpt>
      <trkpt lat="22.901781" lon="111.089091">
        <ele>153.072429</ele>
        <time>2026-08-18T07:01:10.000Z</time>
      </trkpt>
      <trkpt lat="22.901766" lon="111.089137">
        <ele>153.108254</ele>
        <time>2026-08-18T07:01:11.000Z</time>
      </trkpt>
      <trkpt lat="22.901754" lon="111.089183">
        <ele>153.143353</ele>
        <time>2026-08-18T07:01:12.000Z</time>
      </trkpt>
      <trkpt lat="22.901741" lon="111.089228">
        <ele>153.177976</ele>
        <time>2026-08-18T07:01:13.000Z</time>
      </trkpt>
      <trkpt lat="22.901728" lon="111.089272">
        <ele>153.211900</ele>
        <time>2026-08-18T07:01:14.000Z</time>
      </trkpt>
      <trkpt lat="22.901715" lon="111.089318">
        <ele>153.247225</ele>
        <time>2026-08-18T07:01:15.000Z</time>
      </trkpt>
      <trkpt lat="22.901700" lon="111.089365">
        <ele>153.283742</ele>
        <time>2026-08-18T07:01:16.000Z</time>
      </trkpt>
      <trkpt lat="22.901685" lon="111.089411">
        <ele>153.319567</ele>
        <time>2026-08-18T07:01:17.000Z</time>
      </trkpt>
      <trkpt lat="22.901672" lon="111.089458">
        <ele>153.355594</ele>
        <time>2026-08-18T07:01:18.000Z</time>
      </trkpt>
      <trkpt lat="22.901662" lon="111.089504">
        <ele>153.390293</ele>
        <time>2026-08-18T07:01:19.000Z</time>
      </trkpt>
      <trkpt lat="22.901649" lon="111.089550">
        <ele>153.425618</ele>
        <time>2026-08-18T07:01:20.000Z</time>
      </trkpt>
      <trkpt lat="22.901637" lon="111.089597">
        <ele>153.461424</ele>
        <time>2026-08-18T07:01:21.000Z</time>
      </trkpt>
      <trkpt lat="22.901623" lon="111.089642">
        <ele>153.500971</ele>
        <time>2026-08-18T07:01:22.000Z</time>
      </trkpt>
      <trkpt lat="22.901603" lon="111.089688">
        <ele>153.547853</ele>
        <time>2026-08-18T07:01:23.000Z</time>
      </trkpt>
      <trkpt lat="22.901587" lon="111.089733">
        <ele>153.592311</ele>
        <time>2026-08-18T07:01:24.000Z</time>
      </trkpt>
      <trkpt lat="22.901571" lon="111.089778">
        <ele>153.636769</ele>
        <time>2026-08-18T07:01:25.000Z</time>
      </trkpt>
      <trkpt lat="22.901555" lon="111.089824">
        <ele>153.682088</ele>
        <time>2026-08-18T07:01:26.000Z</time>
      </trkpt>
      <trkpt lat="22.901538" lon="111.089870">
        <ele>153.727770</ele>
        <time>2026-08-18T07:01:27.000Z</time>
      </trkpt>
      <trkpt lat="22.901522" lon="111.089918">
        <ele>153.774818</ele>
        <time>2026-08-18T07:01:28.000Z</time>
      </trkpt>
      <trkpt lat="22.901505" lon="111.089964">
        <ele>153.820500</ele>
        <time>2026-08-18T07:01:29.000Z</time>
      </trkpt>
      <trkpt lat="22.901487" lon="111.090013">
        <ele>153.869121</ele>
        <time>2026-08-18T07:01:30.000Z</time>
      </trkpt>
      <trkpt lat="22.901470" lon="111.090059">
        <ele>153.914803</ele>
        <time>2026-08-18T07:01:31.000Z</time>
      </trkpt>
      <trkpt lat="22.901451" lon="111.090107">
        <ele>153.962955</ele>
        <time>2026-08-18T07:01:32.000Z</time>
      </trkpt>
      <trkpt lat="22.901433" lon="111.090155">
        <ele>154.010721</ele>
        <time>2026-08-18T07:01:33.000Z</time>
      </trkpt>
      <trkpt lat="22.901413" lon="111.090201">
        <ele>154.057603</ele>
        <time>2026-08-18T07:01:34.000Z</time>
      </trkpt>
      <trkpt lat="22.901394" lon="111.090249">
        <ele>154.105755</ele>
        <time>2026-08-18T07:01:35.000Z</time>
      </trkpt>
      <trkpt lat="22.901377" lon="111.090297">
        <ele>154.153153</ele>
        <time>2026-08-18T07:01:36.000Z</time>
      </trkpt>
      <trkpt lat="22.901357" lon="111.090344">
        <ele>154.200871</ele>
        <time>2026-08-18T07:01:37.000Z</time>
      </trkpt>
      <trkpt lat="22.901338" lon="111.090392">
        <ele>154.249023</ele>
        <time>2026-08-18T07:01:38.000Z</time>
      </trkpt>
      <trkpt lat="22.901321" lon="111.090440">
        <ele>154.296421</ele>
        <time>2026-08-18T07:01:39.000Z</time>
      </trkpt>
      <trkpt lat="22.901302" lon="111.090488">
        <ele>154.344573</ele>
        <time>2026-08-18T07:01:40.000Z</time>
      </trkpt>
      <trkpt lat="22.901281" lon="111.090535">
        <ele>154.392719</ele>
        <time>2026-08-18T07:01:41.000Z</time>
      </trkpt>
      <trkpt lat="22.901260" lon="111.090582">
        <ele>154.440865</ele>
        <time>2026-08-18T07:01:42.000Z</time>
      </trkpt>
      <trkpt lat="22.901241" lon="111.090629">
        <ele>154.488171</ele>
        <time>2026-08-18T07:01:43.000Z</time>
      </trkpt>
      <trkpt lat="22.901222" lon="111.090677">
        <ele>154.536324</ele>
        <time>2026-08-18T07:01:44.000Z</time>
      </trkpt>
      <trkpt lat="22.901206" lon="111.090724">
        <ele>154.582506</ele>
        <time>2026-08-18T07:01:45.000Z</time>
      </trkpt>
      <trkpt lat="22.901186" lon="111.090769">
        <ele>154.628557</ele>
        <time>2026-08-18T07:01:46.000Z</time>
      </trkpt>
      <trkpt lat="22.901169" lon="111.090814">
        <ele>154.673385</ele>
        <time>2026-08-18T07:01:47.000Z</time>
      </trkpt>
      <trkpt lat="22.901152" lon="111.090859">
        <ele>154.718213</ele>
        <time>2026-08-18T07:01:48.000Z</time>
      </trkpt>
      <trkpt lat="22.901134" lon="111.090906">
        <ele>154.765126</ele>
        <time>2026-08-18T07:01:49.000Z</time>
      </trkpt>
      <trkpt lat="22.901115" lon="111.090952">
        <ele>154.811591</ele>
        <time>2026-08-18T07:01:50.000Z</time>
      </trkpt>
      <trkpt lat="22.901094" lon="111.090999">
        <ele>154.859737</ele>
        <time>2026-08-18T07:01:51.000Z</time>
      </trkpt>
      <trkpt lat="22.901071" lon="111.091046">
        <ele>154.908789</ele>
        <time>2026-08-18T07:01:52.000Z</time>
      </trkpt>
      <trkpt lat="22.901051" lon="111.091090">
        <ele>154.954011</ele>
        <time>2026-08-18T07:01:53.000Z</time>
      </trkpt>
      <trkpt lat="22.901034" lon="111.091135">
        <ele>154.998839</ele>
        <time>2026-08-18T07:01:54.000Z</time>
      </trkpt>
      <trkpt lat="22.901017" lon="111.091181">
        <ele>155.044521</ele>
        <time>2026-08-18T07:01:55.000Z</time>
      </trkpt>
      <trkpt lat="22.901002" lon="111.091228">
        <ele>155.090367</ele>
        <time>2026-08-18T07:01:56.000Z</time>
      </trkpt>
      <trkpt lat="22.900988" lon="111.091274">
        <ele>155.135018</ele>
        <time>2026-08-18T07:01:57.000Z</time>
      </trkpt>
      <trkpt lat="22.900972" lon="111.091319">
        <ele>155.179476</ele>
        <time>2026-08-18T07:01:58.000Z</time>
      </trkpt>
      <trkpt lat="22.900955" lon="111.091364">
        <ele>155.224304</ele>
        <time>2026-08-18T07:01:59.000Z</time>
      </trkpt>
      <trkpt lat="22.900938" lon="111.091409">
        <ele>155.269132</ele>
        <time>2026-08-18T07:02:00.000Z</time>
      </trkpt>
      <trkpt lat="22.900919" lon="111.091454">
        <ele>155.273595</ele>
        <time>2026-08-18T07:02:01.000Z</time>
      </trkpt>
      <trkpt lat="22.900902" lon="111.091499">
        <ele>155.268748</ele>
        <time>2026-08-18T07:02:02.000Z</time>
      </trkpt>
      <trkpt lat="22.900887" lon="111.091546">
        <ele>155.263791</ele>
        <time>2026-08-18T07:02:03.000Z</time>
      </trkpt>
      <trkpt lat="22.900869" lon="111.091592">
        <ele>155.258810</ele>
        <time>2026-08-18T07:02:04.000Z</time>
      </trkpt>
      <trkpt lat="22.900852" lon="111.091638">
        <ele>155.253871</ele>
        <time>2026-08-18T07:02:05.000Z</time>
      </trkpt>
      <trkpt lat="22.900839" lon="111.091686">
        <ele>155.248885</ele>
        <time>2026-08-18T07:02:06.000Z</time>
      </trkpt>
      <trkpt lat="22.900824" lon="111.091731">
        <ele>155.244115</ele>
        <time>2026-08-18T07:02:07.000Z</time>
      </trkpt>
      <trkpt lat="22.900809" lon="111.091779">
        <ele>155.239064</ele>
        <time>2026-08-18T07:02:08.000Z</time>
      </trkpt>
      <trkpt lat="22.900798" lon="111.091827">
        <ele>155.234135</ele>
        <time>2026-08-18T07:02:09.000Z</time>
      </trkpt>
      <trkpt lat="22.900784" lon="111.091878">
        <ele>155.228831</ele>
        <time>2026-08-18T07:02:10.000Z</time>
      </trkpt>
      <trkpt lat="22.900771" lon="111.091927">
        <ele>155.223749</ele>
        <time>2026-08-18T07:02:11.000Z</time>
      </trkpt>
      <trkpt lat="22.900760" lon="111.091973">
        <ele>155.219013</ele>
        <time>2026-08-18T07:02:12.000Z</time>
      </trkpt>
      <trkpt lat="22.900748" lon="111.092020">
        <ele>155.214153</ele>
        <time>2026-08-18T07:02:13.000Z</time>
      </trkpt>
      <trkpt lat="22.900737" lon="111.092069">
        <ele>155.209127</ele>
        <time>2026-08-18T07:02:14.000Z</time>
      </trkpt>
      <trkpt lat="22.900728" lon="111.092115">
        <ele>155.204440</ele>
        <time>2026-08-18T07:02:15.000Z</time>
      </trkpt>
      <trkpt lat="22.900720" lon="111.092164">
        <ele>155.199481</ele>
        <time>2026-08-18T07:02:16.000Z</time>
      </trkpt>
      <trkpt lat="22.900711" lon="111.092211">
        <ele>155.194697</ele>
        <time>2026-08-18T07:02:17.000Z</time>
      </trkpt>
      <trkpt lat="22.900695" lon="111.092258">
        <ele>155.189703</ele>
        <time>2026-08-18T07:02:18.000Z</time>
      </trkpt>
      <trkpt lat="22.900690" lon="111.092307">
        <ele>155.184790</ele>
        <time>2026-08-18T07:02:19.000Z</time>
      </trkpt>
      <trkpt lat="22.900682" lon="111.092359">
        <ele>155.179536</ele>
        <time>2026-08-18T07:02:20.000Z</time>
      </trkpt>
      <trkpt lat="22.900676" lon="111.092414">
        <ele>155.174016</ele>
        <time>2026-08-18T07:02:21.000Z</time>
      </trkpt>
      <trkpt lat="22.900670" lon="111.092469">
        <ele>155.168497</ele>
        <time>2026-08-18T07:02:22.000Z</time>
      </trkpt>
      <trkpt lat="22.900664" lon="111.092525">
        <ele>155.162878</ele>
        <time>2026-08-18T07:02:23.000Z</time>
      </trkpt>
      <trkpt lat="22.900658" lon="111.092581">
        <ele>155.157260</ele>
        <time>2026-08-18T07:02:24.000Z</time>
      </trkpt>
      <trkpt lat="22.900653" lon="111.092637">
        <ele>155.151653</ele>
        <time>2026-08-18T07:02:25.000Z</time>
      </trkpt>
      <trkpt lat="22.900650" lon="111.092693">
        <ele>155.146062</ele>
        <time>2026-08-18T07:02:26.000Z</time>
      </trkpt>
      <trkpt lat="22.900647" lon="111.092751">
        <ele>155.140273</ele>
        <time>2026-08-18T07:02:27.000Z</time>
      </trkpt>
      <trkpt lat="22.900641" lon="111.092809">
        <ele>155.134457</ele>
        <time>2026-08-18T07:02:28.000Z</time>
      </trkpt>
      <trkpt lat="22.900644" lon="111.092866">
        <ele>155.128767</ele>
        <time>2026-08-18T07:02:29.000Z</time>
      </trkpt>
      <trkpt lat="22.900643" lon="111.092925">
        <ele>155.122886</ele>
        <time>2026-08-18T07:02:30.000Z</time>
      </trkpt>
      <trkpt lat="22.900646" lon="111.092983">
        <ele>155.117097</ele>
        <time>2026-08-18T07:02:31.000Z</time>
      </trkpt>
      <trkpt lat="22.900648" lon="111.093039">
        <ele>155.111512</ele>
        <time>2026-08-18T07:02:32.000Z</time>
      </trkpt>
      <trkpt lat="22.900649" lon="111.093095">
        <ele>155.105930</ele>
        <time>2026-08-18T07:02:33.000Z</time>
      </trkpt>
      <trkpt lat="22.900652" lon="111.093154">
        <ele>155.100041</ele>
        <time>2026-08-18T07:02:34.000Z</time>
      </trkpt>
      <trkpt lat="22.900657" lon="111.093216">
        <ele>155.093838</ele>
        <time>2026-08-18T07:02:35.000Z</time>
      </trkpt>
      <trkpt lat="22.900666" lon="111.093274">
        <ele>155.087977</ele>
        <time>2026-08-18T07:02:36.000Z</time>
      </trkpt>
      <trkpt lat="22.900673" lon="111.093331">
        <ele>155.078060</ele>
        <time>2026-08-18T07:02:37.000Z</time>
      </trkpt>
      <trkpt lat="22.900682" lon="111.093392">
        <ele>155.038788</ele>
        <time>2026-08-18T07:02:38.000Z</time>
      </trkpt>
      <trkpt lat="22.900696" lon="111.093450">
        <ele>155.000672</ele>
        <time>2026-08-18T07:02:39.000Z</time>
      </trkpt>
      <trkpt lat="22.900707" lon="111.093516">
        <ele>154.958034</ele>
        <time>2026-08-18T07:02:40.000Z</time>
      </trkpt>
      <trkpt lat="22.900721" lon="111.093577">
        <ele>154.918071</ele>
        <time>2026-08-18T07:02:41.000Z</time>
      </trkpt>
      <trkpt lat="22.900732" lon="111.093639">
        <ele>154.877933</ele>
        <time>2026-08-18T07:02:42.000Z</time>
      </trkpt>
      <trkpt lat="22.900746" lon="111.093703">
        <ele>154.836117</ele>
        <time>2026-08-18T07:02:43.000Z</time>
      </trkpt>
      <trkpt lat="22.900758" lon="111.093766">
        <ele>154.795220</ele>
        <time>2026-08-18T07:02:44.000Z</time>
      </trkpt>
      <trkpt lat="22.900765" lon="111.093829">
        <ele>154.754880</ele>
        <time>2026-08-18T07:02:45.000Z</time>
      </trkpt>
      <trkpt lat="22.900775" lon="111.093891">
        <ele>154.714867</ele>
        <time>2026-08-18T07:02:46.000Z</time>
      </trkpt>
      <trkpt lat="22.900782" lon="111.093951">
        <ele>154.676420</ele>
        <time>2026-08-18T07:02:47.000Z</time>
      </trkpt>
      <trkpt lat="22.900795" lon="111.094011">
        <ele>154.637237</ele>
        <time>2026-08-18T07:02:48.000Z</time>
      </trkpt>
      <trkpt lat="22.900807" lon="111.094076">
        <ele>154.595094</ele>
        <time>2026-08-18T07:02:49.000Z</time>
      </trkpt>
      <trkpt lat="22.900820" lon="111.094141">
        <ele>154.552811</ele>
        <time>2026-08-18T07:02:50.000Z</time>
      </trkpt>
      <trkpt lat="22.900833" lon="111.094207">
        <ele>154.509906</ele>
        <time>2026-08-18T07:02:51.000Z</time>
      </trkpt>
      <trkpt lat="22.900845" lon="111.094270">
        <ele>154.469010</ele>
        <time>2026-08-18T07:02:52.000Z</time>
      </trkpt>
      <trkpt lat="22.900859" lon="111.094333">
        <ele>154.427811</ele>
        <time>2026-08-18T07:02:53.000Z</time>
      </trkpt>
      <trkpt lat="22.900876" lon="111.094397">
        <ele>154.385469</ele>
        <time>2026-08-18T07:02:54.000Z</time>
      </trkpt>
      <trkpt lat="22.900895" lon="111.094457">
        <ele>154.345136</ele>
        <time>2026-08-18T07:02:55.000Z</time>
      </trkpt>
      <trkpt lat="22.900914" lon="111.094518">
        <ele>154.304201</ele>
        <time>2026-08-18T07:02:56.000Z</time>
      </trkpt>
      <trkpt lat="22.900932" lon="111.094578">
        <ele>154.264087</ele>
        <time>2026-08-18T07:02:57.000Z</time>
      </trkpt>
      <trkpt lat="22.900949" lon="111.094642">
        <ele>154.221744</ele>
        <time>2026-08-18T07:02:58.000Z</time>
      </trkpt>
      <trkpt lat="22.900965" lon="111.094701">
        <ele>154.182646</ele>
        <time>2026-08-18T07:02:59.000Z</time>
      </trkpt>
      <trkpt lat="22.900984" lon="111.094758">
        <ele>154.144112</ele>
        <time>2026-08-18T07:03:00.000Z</time>
      </trkpt>
      <trkpt lat="22.900997" lon="111.094819">
        <ele>154.104310</ele>
        <time>2026-08-18T07:03:01.000Z</time>
      </trkpt>
      <trkpt lat="22.901010" lon="111.094876">
        <ele>154.066981</ele>
        <time>2026-08-18T07:03:02.000Z</time>
      </trkpt>
      <trkpt lat="22.901031" lon="111.094938">
        <ele>154.024987</ele>
        <time>2026-08-18T07:03:03.000Z</time>
      </trkpt>
      <trkpt lat="22.901043" lon="111.094999">
        <ele>153.985335</ele>
        <time>2026-08-18T07:03:04.000Z</time>
      </trkpt>
      <trkpt lat="22.901058" lon="111.095062">
        <ele>153.943969</ele>
        <time>2026-08-18T07:03:05.000Z</time>
      </trkpt>
      <trkpt lat="22.901073" lon="111.095125">
        <ele>153.902604</ele>
        <time>2026-08-18T07:03:06.000Z</time>
      </trkpt>
      <trkpt lat="22.901088" lon="111.095189">
        <ele>153.860623</ele>
        <time>2026-08-18T07:03:07.000Z</time>
      </trkpt>
      <trkpt lat="22.901101" lon="111.095254">
        <ele>153.823482</ele>
        <time>2026-08-18T07:03:08.000Z</time>
      </trkpt>
      <trkpt lat="22.901117" lon="111.095317">
        <ele>153.791051</ele>
        <time>2026-08-18T07:03:09.000Z</time>
      </trkpt>
      <trkpt lat="22.901133" lon="111.095383">
        <ele>153.757183</ele>
        <time>2026-08-18T07:03:10.000Z</time>
      </trkpt>
      <trkpt lat="22.901149" lon="111.095451">
        <ele>153.722353</ele>
        <time>2026-08-18T07:03:11.000Z</time>
      </trkpt>
      <trkpt lat="22.901171" lon="111.095513">
        <ele>153.689381</ele>
        <time>2026-08-18T07:03:12.000Z</time>
      </trkpt>
      <trkpt lat="22.901193" lon="111.095577">
        <ele>153.655481</ele>
        <time>2026-08-18T07:03:13.000Z</time>
      </trkpt>
      <trkpt lat="22.901213" lon="111.095642">
        <ele>153.621472</ele>
        <time>2026-08-18T07:03:14.000Z</time>
      </trkpt>
      <trkpt lat="22.901229" lon="111.095709">
        <ele>153.587124</ele>
        <time>2026-08-18T07:03:15.000Z</time>
      </trkpt>
      <trkpt lat="22.901248" lon="111.095774">
        <ele>153.553282</ele>
        <time>2026-08-18T07:03:16.000Z</time>
      </trkpt>
      <trkpt lat="22.901270" lon="111.095838">
        <ele>153.519382</ele>
        <time>2026-08-18T07:03:17.000Z</time>
      </trkpt>
      <trkpt lat="22.901288" lon="111.095905">
        <ele>153.484747</ele>
        <time>2026-08-18T07:03:18.000Z</time>
      </trkpt>
      <trkpt lat="22.901308" lon="111.095969">
        <ele>153.451208</ele>
        <time>2026-08-18T07:03:19.000Z</time>
      </trkpt>
      <trkpt lat="22.901326" lon="111.096033">
        <ele>153.418000</ele>
        <time>2026-08-18T07:03:20.000Z</time>
      </trkpt>
      <trkpt lat="22.901341" lon="111.096098">
        <ele>153.384746</ele>
        <time>2026-08-18T07:03:21.000Z</time>
      </trkpt>
      <trkpt lat="22.901362" lon="111.096163">
        <ele>153.350563</ele>
        <time>2026-08-18T07:03:22.000Z</time>
      </trkpt>
      <trkpt lat="22.901385" lon="111.096230">
        <ele>153.315080</ele>
        <time>2026-08-18T07:03:23.000Z</time>
      </trkpt>
      <trkpt lat="22.901403" lon="111.096295">
        <ele>153.281397</ele>
        <time>2026-08-18T07:03:24.000Z</time>
      </trkpt>
      <trkpt lat="22.901431" lon="111.096357">
        <ele>153.247130</ele>
        <time>2026-08-18T07:03:25.000Z</time>
      </trkpt>
      <trkpt lat="22.901457" lon="111.096418">
        <ele>153.213775</ele>
        <time>2026-08-18T07:03:26.000Z</time>
      </trkpt>
      <trkpt lat="22.901482" lon="111.096480">
        <ele>153.180188</ele>
        <time>2026-08-18T07:03:27.000Z</time>
      </trkpt>
      <trkpt lat="22.901504" lon="111.096543">
        <ele>153.146752</ele>
        <time>2026-08-18T07:03:28.000Z</time>
      </trkpt>
      <trkpt lat="22.901524" lon="111.096607">
        <ele>153.113214</ele>
        <time>2026-08-18T07:03:29.000Z</time>
      </trkpt>
      <trkpt lat="22.901541" lon="111.096673">
        <ele>153.079204</ele>
        <time>2026-08-18T07:03:30.000Z</time>
      </trkpt>
      <trkpt lat="22.901560" lon="111.096732">
        <ele>153.048187</ele>
        <time>2026-08-18T07:03:31.000Z</time>
      </trkpt>
      <trkpt lat="22.901577" lon="111.096797">
        <ele>153.014656</ele>
        <time>2026-08-18T07:03:32.000Z</time>
      </trkpt>
      <trkpt lat="22.901591" lon="111.096858">
        <ele>152.983458</ele>
        <time>2026-08-18T07:03:33.000Z</time>
      </trkpt>
      <trkpt lat="22.901598" lon="111.096918">
        <ele>152.953445</ele>
        <time>2026-08-18T07:03:34.000Z</time>
      </trkpt>
      <trkpt lat="22.901611" lon="111.096979">
        <ele>152.922373</ele>
        <time>2026-08-18T07:03:35.000Z</time>
      </trkpt>
      <trkpt lat="22.901627" lon="111.097045">
        <ele>152.888505</ele>
        <time>2026-08-18T07:03:36.000Z</time>
      </trkpt>
      <trkpt lat="22.901650" lon="111.097110">
        <ele>152.858813</ele>
        <time>2026-08-18T07:03:37.000Z</time>
      </trkpt>
      <trkpt lat="22.901675" lon="111.097177">
        <ele>152.832188</ele>
        <time>2026-08-18T07:03:38.000Z</time>
      </trkpt>
      <trkpt lat="22.901695" lon="111.097245">
        <ele>152.805897</ele>
        <time>2026-08-18T07:03:39.000Z</time>
      </trkpt>
      <trkpt lat="22.901717" lon="111.097312">
        <ele>152.779699</ele>
        <time>2026-08-18T07:03:40.000Z</time>
      </trkpt>
      <trkpt lat="22.901739" lon="111.097381">
        <ele>152.752807</ele>
        <time>2026-08-18T07:03:41.000Z</time>
      </trkpt>
      <trkpt lat="22.901761" lon="111.097449">
        <ele>152.726262</ele>
        <time>2026-08-18T07:03:42.000Z</time>
      </trkpt>
      <trkpt lat="22.901783" lon="111.097515">
        <ele>152.700410</ele>
        <time>2026-08-18T07:03:43.000Z</time>
      </trkpt>
      <trkpt lat="22.901804" lon="111.097582">
        <ele>152.674344</ele>
        <time>2026-08-18T07:03:44.000Z</time>
      </trkpt>
      <trkpt lat="22.901827" lon="111.097649">
        <ele>152.648009</ele>
        <time>2026-08-18T07:03:45.000Z</time>
      </trkpt>
      <trkpt lat="22.901852" lon="111.097721">
        <ele>152.619670</ele>
        <time>2026-08-18T07:03:46.000Z</time>
      </trkpt>
      <trkpt lat="22.901877" lon="111.097793">
        <ele>152.591330</ele>
        <time>2026-08-18T07:03:47.000Z</time>
      </trkpt>
      <trkpt lat="22.901902" lon="111.097864">
        <ele>152.563334</ele>
        <time>2026-08-18T07:03:48.000Z</time>
      </trkpt>
      <trkpt lat="22.901924" lon="111.097933">
        <ele>152.536442</ele>
        <time>2026-08-18T07:03:49.000Z</time>
      </trkpt>
      <trkpt lat="22.901944" lon="111.098002">
        <ele>152.509800</ele>
        <time>2026-08-18T07:03:50.000Z</time>
      </trkpt>
      <trkpt lat="22.901962" lon="111.098070">
        <ele>152.483741</ele>
        <time>2026-08-18T07:03:51.000Z</time>
      </trkpt>
      <trkpt lat="22.901980" lon="111.098136">
        <ele>152.458389</ele>
        <time>2026-08-18T07:03:52.000Z</time>
      </trkpt>
      <trkpt lat="22.901996" lon="111.098199">
        <ele>152.434320</ele>
        <time>2026-08-18T07:03:53.000Z</time>
      </trkpt>
      <trkpt lat="22.902014" lon="111.098263">
        <ele>152.409674</ele>
        <time>2026-08-18T07:03:54.000Z</time>
      </trkpt>
      <trkpt lat="22.902032" lon="111.098328">
        <ele>152.384675</ele>
        <time>2026-08-18T07:03:55.000Z</time>
      </trkpt>
      <trkpt lat="22.902049" lon="111.098392">
        <ele>152.360143</ele>
        <time>2026-08-18T07:03:56.000Z</time>
      </trkpt>
      <trkpt lat="22.902068" lon="111.098456">
        <ele>152.335377</ele>
        <time>2026-08-18T07:03:57.000Z</time>
      </trkpt>
      <trkpt lat="22.902086" lon="111.098519">
        <ele>152.311083</ele>
        <time>2026-08-18T07:03:58.000Z</time>
      </trkpt>
      <trkpt lat="22.902104" lon="111.098582">
        <ele>152.286789</ele>
        <time>2026-08-18T07:03:59.000Z</time>
      </trkpt>
      <trkpt lat="22.902123" lon="111.098647">
        <ele>152.261672</ele>
        <time>2026-08-18T07:04:00.000Z</time>
      </trkpt>
      <trkpt lat="22.902138" lon="111.098710">
        <ele>152.237706</ele>
        <time>2026-08-18T07:04:01.000Z</time>
      </trkpt>
      <trkpt lat="22.902157" lon="111.098771">
        <ele>152.213990</ele>
        <time>2026-08-18T07:04:02.000Z</time>
      </trkpt>
      <trkpt lat="22.902175" lon="111.098832">
        <ele>152.190398</ele>
        <time>2026-08-18T07:04:03.000Z</time>
      </trkpt>
      <trkpt lat="22.902183" lon="111.098897">
        <ele>152.166245</ele>
        <time>2026-08-18T07:04:04.000Z</time>
      </trkpt>
      <trkpt lat="22.902189" lon="111.098961">
        <ele>152.154207</ele>
        <time>2026-08-18T07:04:05.000Z</time>
      </trkpt>
      <trkpt lat="22.902190" lon="111.099028">
        <ele>152.155425</ele>
        <time>2026-08-18T07:04:06.000Z</time>
      </trkpt>
      <trkpt lat="22.902201" lon="111.099089">
        <ele>152.156554</ele>
        <time>2026-08-18T07:04:07.000Z</time>
      </trkpt>
      <trkpt lat="22.902216" lon="111.099161">
        <ele>152.157896</ele>
        <time>2026-08-18T07:04:08.000Z</time>
      </trkpt>
      <trkpt lat="22.902234" lon="111.099217">
        <ele>152.158974</ele>
        <time>2026-08-18T07:04:09.000Z</time>
      </trkpt>
      <trkpt lat="22.902253" lon="111.099276">
        <ele>152.160109</ele>
        <time>2026-08-18T07:04:10.000Z</time>
      </trkpt>
      <trkpt lat="22.902272" lon="111.099334">
        <ele>152.161228</ele>
        <time>2026-08-18T07:04:11.000Z</time>
      </trkpt>
      <trkpt lat="22.902291" lon="111.099394">
        <ele>152.162381</ele>
        <time>2026-08-18T07:04:12.000Z</time>
      </trkpt>
      <trkpt lat="22.902311" lon="111.099454">
        <ele>152.163540</ele>
        <time>2026-08-18T07:04:13.000Z</time>
      </trkpt>
      <trkpt lat="22.902332" lon="111.099514">
        <ele>152.164707</ele>
        <time>2026-08-18T07:04:14.000Z</time>
      </trkpt>
      <trkpt lat="22.902353" lon="111.099574">
        <ele>152.165873</ele>
        <time>2026-08-18T07:04:15.000Z</time>
      </trkpt>
      <trkpt lat="22.902374" lon="111.099635">
        <ele>152.167056</ele>
        <time>2026-08-18T07:04:16.000Z</time>
      </trkpt>
      <trkpt lat="22.902392" lon="111.099696">
        <ele>152.168220</ele>
        <time>2026-08-18T07:04:17.000Z</time>
      </trkpt>
      <trkpt lat="22.902413" lon="111.099758">
        <ele>152.169421</ele>
        <time>2026-08-18T07:04:18.000Z</time>
      </trkpt>
      <trkpt lat="22.902432" lon="111.099819">
        <ele>152.170591</ele>
        <time>2026-08-18T07:04:19.000Z</time>
      </trkpt>
      <trkpt lat="22.902453" lon="111.099878">
        <ele>152.171740</ele>
        <time>2026-08-18T07:04:20.000Z</time>
      </trkpt>
      <trkpt lat="22.902474" lon="111.099937">
        <ele>152.172890</ele>
        <time>2026-08-18T07:04:21.000Z</time>
      </trkpt>
      <trkpt lat="22.902492" lon="111.099999">
        <ele>152.174071</ele>
        <time>2026-08-18T07:04:22.000Z</time>
      </trkpt>
      <trkpt lat="22.902511" lon="111.100061">
        <ele>152.175258</ele>
        <time>2026-08-18T07:04:23.000Z</time>
      </trkpt>
      <trkpt lat="22.902529" lon="111.100123">
        <ele>152.176440</ele>
        <time>2026-08-18T07:04:24.000Z</time>
      </trkpt>
      <trkpt lat="22.902547" lon="111.100184">
        <ele>152.177604</ele>
        <time>2026-08-18T07:04:25.000Z</time>
      </trkpt>
      <trkpt lat="22.902562" lon="111.100245">
        <ele>152.178751</ele>
        <time>2026-08-18T07:04:26.000Z</time>
      </trkpt>
      <trkpt lat="22.902582" lon="111.100302">
        <ele>152.179859</ele>
        <time>2026-08-18T07:04:27.000Z</time>
      </trkpt>
      <trkpt lat="22.902599" lon="111.100364">
        <ele>152.181035</ele>
        <time>2026-08-18T07:04:28.000Z</time>
      </trkpt>
      <trkpt lat="22.902616" lon="111.100426">
        <ele>152.182210</ele>
        <time>2026-08-18T07:04:29.000Z</time>
      </trkpt>
      <trkpt lat="22.902633" lon="111.100488">
        <ele>152.183386</ele>
        <time>2026-08-18T07:04:30.000Z</time>
      </trkpt>
      <trkpt lat="22.902652" lon="111.100548">
        <ele>152.184539</ele>
        <time>2026-08-18T07:04:31.000Z</time>
      </trkpt>
      <trkpt lat="22.902670" lon="111.100608">
        <ele>152.185685</ele>
        <time>2026-08-18T07:04:32.000Z</time>
      </trkpt>
      <trkpt lat="22.902689" lon="111.100669">
        <ele>152.186855</ele>
        <time>2026-08-18T07:04:33.000Z</time>
      </trkpt>
      <trkpt lat="22.902707" lon="111.100730">
        <ele>152.188019</ele>
        <time>2026-08-18T07:04:34.000Z</time>
      </trkpt>
      <trkpt lat="22.902725" lon="111.100789">
        <ele>152.189286</ele>
        <time>2026-08-18T07:04:35.000Z</time>
      </trkpt>
      <trkpt lat="22.902744" lon="111.100849">
        <ele>152.209793</ele>
        <time>2026-08-18T07:04:36.000Z</time>
      </trkpt>
      <trkpt lat="22.902761" lon="111.100909">
        <ele>152.230083</ele>
        <time>2026-08-18T07:04:37.000Z</time>
      </trkpt>
      <trkpt lat="22.902779" lon="111.100970">
        <ele>152.250787</ele>
        <time>2026-08-18T07:04:38.000Z</time>
      </trkpt>
      <trkpt lat="22.902796" lon="111.101030">
        <ele>152.271077</ele>
        <time>2026-08-18T07:04:39.000Z</time>
      </trkpt>
      <trkpt lat="22.902814" lon="111.101092">
        <ele>152.292089</ele>
        <time>2026-08-18T07:04:40.000Z</time>
      </trkpt>
      <trkpt lat="22.902832" lon="111.101152">
        <ele>152.312485</ele>
        <time>2026-08-18T07:04:41.000Z</time>
      </trkpt>
      <trkpt lat="22.902849" lon="111.101211">
        <ele>152.332466</ele>
        <time>2026-08-18T07:04:42.000Z</time>
      </trkpt>
      <trkpt lat="22.902866" lon="111.101271">
        <ele>152.352757</ele>
        <time>2026-08-18T07:04:43.000Z</time>
      </trkpt>
      <trkpt lat="22.902882" lon="111.101332">
        <ele>152.373257</ele>
        <time>2026-08-18T07:04:44.000Z</time>
      </trkpt>
      <trkpt lat="22.902898" lon="111.101393">
        <ele>152.393757</ele>
        <time>2026-08-18T07:04:45.000Z</time>
      </trkpt>
      <trkpt lat="22.902912" lon="111.101452">
        <ele>152.413450</ele>
        <time>2026-08-18T07:04:46.000Z</time>
      </trkpt>
      <trkpt lat="22.902926" lon="111.101513">
        <ele>152.433770</ele>
        <time>2026-08-18T07:04:47.000Z</time>
      </trkpt>
      <trkpt lat="22.902941" lon="111.101573">
        <ele>152.453865</ele>
        <time>2026-08-18T07:04:48.000Z</time>
      </trkpt>
      <trkpt lat="22.902955" lon="111.101634">
        <ele>152.474184</ele>
        <time>2026-08-18T07:04:49.000Z</time>
      </trkpt>
      <trkpt lat="22.902968" lon="111.101694">
        <ele>152.494107</ele>
        <time>2026-08-18T07:04:50.000Z</time>
      </trkpt>
      <trkpt lat="22.902980" lon="111.101751">
        <ele>152.513006</ele>
        <time>2026-08-18T07:04:51.000Z</time>
      </trkpt>
      <trkpt lat="22.902991" lon="111.101808">
        <ele>152.531830</ele>
        <time>2026-08-18T07:04:52.000Z</time>
      </trkpt>
      <trkpt lat="22.903000" lon="111.101863">
        <ele>152.549885</ele>
        <time>2026-08-18T07:04:53.000Z</time>
      </trkpt>
      <trkpt lat="22.903007" lon="111.101916">
        <ele>152.567192</ele>
        <time>2026-08-18T07:04:54.000Z</time>
      </trkpt>
      <trkpt lat="22.903011" lon="111.101968">
        <ele>152.584058</ele>
        <time>2026-08-18T07:04:55.000Z</time>
      </trkpt>
      <trkpt lat="22.903011" lon="111.102020">
        <ele>152.600866</ele>
        <time>2026-08-18T07:04:56.000Z</time>
      </trkpt>
      <trkpt lat="22.903011" lon="111.102073">
        <ele>152.617996</ele>
        <time>2026-08-18T07:04:57.000Z</time>
      </trkpt>
      <trkpt lat="22.903010" lon="111.102123">
        <ele>152.634162</ele>
        <time>2026-08-18T07:04:58.000Z</time>
      </trkpt>
      <trkpt lat="22.903011" lon="111.102173">
        <ele>152.650327</ele>
        <time>2026-08-18T07:04:59.000Z</time>
      </trkpt>
      <trkpt lat="22.903011" lon="111.102224">
        <ele>152.666811</ele>
        <time>2026-08-18T07:05:00.000Z</time>
      </trkpt>
      <trkpt lat="22.903011" lon="111.102278">
        <ele>152.684265</ele>
        <time>2026-08-18T07:05:01.000Z</time>
      </trkpt>
      <trkpt lat="22.903011" lon="111.102332">
        <ele>152.701719</ele>
        <time>2026-08-18T07:05:02.000Z</time>
      </trkpt>
      <trkpt lat="22.903009" lon="111.102383">
        <ele>152.718219</ele>
        <time>2026-08-18T07:05:03.000Z</time>
      </trkpt>
      <trkpt lat="22.903005" lon="111.102436">
        <ele>152.735407</ele>
        <time>2026-08-18T07:05:04.000Z</time>
      </trkpt>
      <trkpt lat="22.903002" lon="111.102488">
        <ele>152.752248</ele>
        <time>2026-08-18T07:05:05.000Z</time>
      </trkpt>
      <trkpt lat="22.903000" lon="111.102540">
        <ele>152.769070</ele>
        <time>2026-08-18T07:05:06.000Z</time>
      </trkpt>
      <trkpt lat="22.903000" lon="111.102591">
        <ele>152.785555</ele>
        <time>2026-08-18T07:05:07.000Z</time>
      </trkpt>
      <trkpt lat="22.903017" lon="111.102639">
        <ele>152.802177</ele>
        <time>2026-08-18T07:05:08.000Z</time>
      </trkpt>
      <trkpt lat="22.903016" lon="111.102688">
        <ele>152.818019</ele>
        <time>2026-08-18T07:05:09.000Z</time>
      </trkpt>
      <trkpt lat="22.903014" lon="111.102740">
        <ele>152.832559</ele>
        <time>2026-08-18T07:05:10.000Z</time>
      </trkpt>
      <trkpt lat="22.903008" lon="111.102794">
        <ele>152.847387</ele>
        <time>2026-08-18T07:05:11.000Z</time>
      </trkpt>
      <trkpt lat="22.903000" lon="111.102846">
        <ele>152.861760</ele>
        <time>2026-08-18T07:05:12.000Z</time>
      </trkpt>
      <trkpt lat="22.902990" lon="111.102899">
        <ele>152.876509</ele>
        <time>2026-08-18T07:05:13.000Z</time>
      </trkpt>
      <trkpt lat="22.902976" lon="111.102952">
        <ele>152.891541</ele>
        <time>2026-08-18T07:05:14.000Z</time>
      </trkpt>
      <trkpt lat="22.902966" lon="111.103005">
        <ele>152.906290</ele>
        <time>2026-08-18T07:05:15.000Z</time>
      </trkpt>
      <trkpt lat="22.902953" lon="111.103059">
        <ele>152.921506</ele>
        <time>2026-08-18T07:05:16.000Z</time>
      </trkpt>
      <trkpt lat="22.902940" lon="111.103113">
        <ele>152.936722</ele>
        <time>2026-08-18T07:05:17.000Z</time>
      </trkpt>
      <trkpt lat="22.902928" lon="111.103165">
        <ele>152.951337</ele>
        <time>2026-08-18T07:05:18.000Z</time>
      </trkpt>
      <trkpt lat="22.902914" lon="111.103219">
        <ele>152.966630</ele>
        <time>2026-08-18T07:05:19.000Z</time>
      </trkpt>
      <trkpt lat="22.902902" lon="111.103273">
        <ele>152.981775</ele>
        <time>2026-08-18T07:05:20.000Z</time>
      </trkpt>
      <trkpt lat="22.902886" lon="111.103324">
        <ele>152.996463</ele>
        <time>2026-08-18T07:05:21.000Z</time>
      </trkpt>
      <trkpt lat="22.902874" lon="111.103377">
        <ele>153.011342</ele>
        <time>2026-08-18T07:05:22.000Z</time>
      </trkpt>
      <trkpt lat="22.902860" lon="111.103430">
        <ele>153.026373</ele>
        <time>2026-08-18T07:05:23.000Z</time>
      </trkpt>
      <trkpt lat="22.902844" lon="111.103485">
        <ele>153.042098</ele>
        <time>2026-08-18T07:05:24.000Z</time>
      </trkpt>
      <trkpt lat="22.902828" lon="111.103539">
        <ele>153.057562</ele>
        <time>2026-08-18T07:05:25.000Z</time>
      </trkpt>
      <trkpt lat="22.902815" lon="111.103594">
        <ele>153.073043</ele>
        <time>2026-08-18T07:05:26.000Z</time>
      </trkpt>
      <trkpt lat="22.902802" lon="111.103647">
        <ele>153.087995</ele>
        <time>2026-08-18T07:05:27.000Z</time>
      </trkpt>
      <trkpt lat="22.902787" lon="111.103699">
        <ele>153.102851</ele>
        <time>2026-08-18T07:05:28.000Z</time>
      </trkpt>
      <trkpt lat="22.902773" lon="111.103752">
        <ele>153.117882</ele>
        <time>2026-08-18T07:05:29.000Z</time>
      </trkpt>
      <trkpt lat="22.902757" lon="111.103804">
        <ele>153.132829</ele>
        <time>2026-08-18T07:05:30.000Z</time>
      </trkpt>
      <trkpt lat="22.902742" lon="111.103855">
        <ele>153.147424</ele>
        <time>2026-08-18T07:05:31.000Z</time>
      </trkpt>
      <trkpt lat="22.902731" lon="111.103911">
        <ele>153.163034</ele>
        <time>2026-08-18T07:05:32.000Z</time>
      </trkpt>
      <trkpt lat="22.902718" lon="111.103963">
        <ele>153.177724</ele>
        <time>2026-08-18T07:05:33.000Z</time>
      </trkpt>
      <trkpt lat="22.902707" lon="111.104016">
        <ele>153.192535</ele>
        <time>2026-08-18T07:05:34.000Z</time>
      </trkpt>
      <trkpt lat="22.902695" lon="111.104068">
        <ele>153.207150</ele>
        <time>2026-08-18T07:05:35.000Z</time>
      </trkpt>
      <trkpt lat="22.902681" lon="111.104121">
        <ele>153.222181</ele>
        <time>2026-08-18T07:05:36.000Z</time>
      </trkpt>
      <trkpt lat="22.902669" lon="111.104174">
        <ele>153.237060</ele>
        <time>2026-08-18T07:05:37.000Z</time>
      </trkpt>
      <trkpt lat="22.902654" lon="111.104224">
        <ele>153.251396</ele>
        <time>2026-08-18T07:05:38.000Z</time>
      </trkpt>
      <trkpt lat="22.902642" lon="111.104274">
        <ele>153.265483</ele>
        <time>2026-08-18T07:05:39.000Z</time>
      </trkpt>
      <trkpt lat="22.902629" lon="111.104324">
        <ele>153.279647</ele>
        <time>2026-08-18T07:05:40.000Z</time>
      </trkpt>
      <trkpt lat="22.902613" lon="111.104375">
        <ele>153.294335</ele>
        <time>2026-08-18T07:05:41.000Z</time>
      </trkpt>
      <trkpt lat="22.902597" lon="111.104427">
        <ele>153.309281</ele>
        <time>2026-08-18T07:05:42.000Z</time>
      </trkpt>
      <trkpt lat="22.902583" lon="111.104479">
        <ele>153.324051</ele>
        <time>2026-08-18T07:05:43.000Z</time>
      </trkpt>
      <trkpt lat="22.902568" lon="111.104530">
        <ele>153.338646</ele>
        <time>2026-08-18T07:05:44.000Z</time>
      </trkpt>
      <trkpt lat="22.902554" lon="111.104582">
        <ele>153.352756</ele>
        <time>2026-08-18T07:05:45.000Z</time>
      </trkpt>
      <trkpt lat="22.902542" lon="111.104632">
        <ele>153.355685</ele>
        <time>2026-08-18T07:05:46.000Z</time>
      </trkpt>
      <trkpt lat="22.902527" lon="111.104682">
        <ele>153.358665</ele>
        <time>2026-08-18T07:05:47.000Z</time>
      </trkpt>
      <trkpt lat="22.902513" lon="111.104734">
        <ele>153.361735</ele>
        <time>2026-08-18T07:05:48.000Z</time>
      </trkpt>
      <trkpt lat="22.902495" lon="111.104780">
        <ele>153.364568</ele>
        <time>2026-08-18T07:05:49.000Z</time>
      </trkpt>
      <trkpt lat="22.902479" lon="111.104831">
        <ele>153.367621</ele>
        <time>2026-08-18T07:05:50.000Z</time>
      </trkpt>
      <trkpt lat="22.902464" lon="111.104881">
        <ele>153.370601</ele>
        <time>2026-08-18T07:05:51.000Z</time>
      </trkpt>
      <trkpt lat="22.902449" lon="111.104933">
        <ele>153.373689</ele>
        <time>2026-08-18T07:05:52.000Z</time>
      </trkpt>
      <trkpt lat="22.902434" lon="111.104984">
        <ele>153.376723</ele>
        <time>2026-08-18T07:05:53.000Z</time>
      </trkpt>
      <trkpt lat="22.902419" lon="111.105035">
        <ele>153.379758</ele>
        <time>2026-08-18T07:05:54.000Z</time>
      </trkpt>
      <trkpt lat="22.902404" lon="111.105085">
        <ele>153.382738</ele>
        <time>2026-08-18T07:05:55.000Z</time>
      </trkpt>
      <trkpt lat="22.902389" lon="111.105136">
        <ele>153.385772</ele>
        <time>2026-08-18T07:05:56.000Z</time>
      </trkpt>
      <trkpt lat="22.902374" lon="111.105188">
        <ele>153.388860</ele>
        <time>2026-08-18T07:05:57.000Z</time>
      </trkpt>
      <trkpt lat="22.902360" lon="111.105240">
        <ele>153.391930</ele>
        <time>2026-08-18T07:05:58.000Z</time>
      </trkpt>
      <trkpt lat="22.902347" lon="111.105292">
        <ele>153.394984</ele>
        <time>2026-08-18T07:05:59.000Z</time>
      </trkpt>
      <trkpt lat="22.902333" lon="111.105344">
        <ele>153.398054</ele>
        <time>2026-08-18T07:06:00.000Z</time>
      </trkpt>
      <trkpt lat="22.902321" lon="111.105396">
        <ele>153.401093</ele>
        <time>2026-08-18T07:06:01.000Z</time>
      </trkpt>
      <trkpt lat="22.902308" lon="111.105446">
        <ele>153.404037</ele>
        <time>2026-08-18T07:06:02.000Z</time>
      </trkpt>
      <trkpt lat="22.902296" lon="111.105495">
        <ele>153.406910</ele>
        <time>2026-08-18T07:06:03.000Z</time>
      </trkpt>
      <trkpt lat="22.902282" lon="111.105545">
        <ele>153.409872</ele>
        <time>2026-08-18T07:06:04.000Z</time>
      </trkpt>
      <trkpt lat="22.902269" lon="111.105596">
        <ele>153.412871</ele>
        <time>2026-08-18T07:06:05.000Z</time>
      </trkpt>
      <trkpt lat="22.902255" lon="111.105647">
        <ele>153.415887</ele>
        <time>2026-08-18T07:06:06.000Z</time>
      </trkpt>
      <trkpt lat="22.902242" lon="111.105699">
        <ele>153.418941</ele>
        <time>2026-08-18T07:06:07.000Z</time>
      </trkpt>
      <trkpt lat="22.902227" lon="111.105750">
        <ele>153.421975</ele>
        <time>2026-08-18T07:06:08.000Z</time>
      </trkpt>
      <trkpt lat="22.902214" lon="111.105802">
        <ele>153.425029</ele>
        <time>2026-08-18T07:06:09.000Z</time>
      </trkpt>
      <trkpt lat="22.902200" lon="111.105854">
        <ele>153.428099</ele>
        <time>2026-08-18T07:06:10.000Z</time>
      </trkpt>
      <trkpt lat="22.902185" lon="111.105905">
        <ele>153.431133</ele>
        <time>2026-08-18T07:06:11.000Z</time>
      </trkpt>
      <trkpt lat="22.902171" lon="111.105957">
        <ele>153.434203</ele>
        <time>2026-08-18T07:06:12.000Z</time>
      </trkpt>
      <trkpt lat="22.902156" lon="111.106007">
        <ele>153.437184</ele>
        <time>2026-08-18T07:06:13.000Z</time>
      </trkpt>
      <trkpt lat="22.902142" lon="111.106057">
        <ele>153.440145</ele>
        <time>2026-08-18T07:06:14.000Z</time>
      </trkpt>
      <trkpt lat="22.902128" lon="111.106105">
        <ele>153.442999</ele>
        <time>2026-08-18T07:06:15.000Z</time>
      </trkpt>
      <trkpt lat="22.902112" lon="111.106155">
        <ele>153.445999</ele>
        <time>2026-08-18T07:06:16.000Z</time>
      </trkpt>
      <trkpt lat="22.902097" lon="111.106204">
        <ele>153.448925</ele>
        <time>2026-08-18T07:06:17.000Z</time>
      </trkpt>
      <trkpt lat="22.902083" lon="111.106254">
        <ele>153.451887</ele>
        <time>2026-08-18T07:06:18.000Z</time>
      </trkpt>
      <trkpt lat="22.902067" lon="111.106306">
        <ele>153.454994</ele>
        <time>2026-08-18T07:06:19.000Z</time>
      </trkpt>
      <trkpt lat="22.902048" lon="111.106359">
        <ele>153.458217</ele>
        <time>2026-08-18T07:06:20.000Z</time>
      </trkpt>
      <trkpt lat="22.902031" lon="111.106412">
        <ele>153.461398</ele>
        <time>2026-08-18T07:06:21.000Z</time>
      </trkpt>
      <trkpt lat="22.902017" lon="111.106463">
        <ele>153.465174</ele>
        <time>2026-08-18T07:06:22.000Z</time>
      </trkpt>
      <trkpt lat="22.902000" lon="111.106516">
        <ele>153.470422</ele>
        <time>2026-08-18T07:06:23.000Z</time>
      </trkpt>
      <trkpt lat="22.901984" lon="111.106567">
        <ele>153.475460</ele>
        <time>2026-08-18T07:06:24.000Z</time>
      </trkpt>
      <trkpt lat="22.901967" lon="111.106617">
        <ele>153.480444</ele>
        <time>2026-08-18T07:06:25.000Z</time>
      </trkpt>
      <trkpt lat="22.901951" lon="111.106667">
        <ele>153.485393</ele>
        <time>2026-08-18T07:06:26.000Z</time>
      </trkpt>
      <trkpt lat="22.901936" lon="111.106717">
        <ele>153.490310</ele>
        <time>2026-08-18T07:06:27.000Z</time>
      </trkpt>
      <trkpt lat="22.901923" lon="111.106765">
        <ele>153.494989</ele>
        <time>2026-08-18T07:06:28.000Z</time>
      </trkpt>
      <trkpt lat="22.901909" lon="111.106816">
        <ele>153.499965</ele>
        <time>2026-08-18T07:06:29.000Z</time>
      </trkpt>
      <trkpt lat="22.901898" lon="111.106867">
        <ele>153.504863</ele>
        <time>2026-08-18T07:06:30.000Z</time>
      </trkpt>
      <trkpt lat="22.901886" lon="111.106919">
        <ele>153.509876</ele>
        <time>2026-08-18T07:06:31.000Z</time>
      </trkpt>
      <trkpt lat="22.901872" lon="111.106972">
        <ele>153.515031</ele>
        <time>2026-08-18T07:06:32.000Z</time>
      </trkpt>
      <trkpt lat="22.901859" lon="111.107024">
        <ele>153.520069</ele>
        <time>2026-08-18T07:06:33.000Z</time>
      </trkpt>
      <trkpt lat="22.901845" lon="111.107076">
        <ele>153.525135</ele>
        <time>2026-08-18T07:06:34.000Z</time>
      </trkpt>
      <trkpt lat="22.901829" lon="111.107130">
        <ele>153.530440</ele>
        <time>2026-08-18T07:06:35.000Z</time>
      </trkpt>
      <trkpt lat="22.901817" lon="111.107182">
        <ele>153.535452</ele>
        <time>2026-08-18T07:06:36.000Z</time>
      </trkpt>
      <trkpt lat="22.901801" lon="111.107236">
        <ele>153.540756</ele>
        <time>2026-08-18T07:06:37.000Z</time>
      </trkpt>
      <trkpt lat="22.901786" lon="111.107290">
        <ele>153.546030</ele>
        <time>2026-08-18T07:06:38.000Z</time>
      </trkpt>
      <trkpt lat="22.901774" lon="111.107343">
        <ele>153.551134</ele>
        <time>2026-08-18T07:06:39.000Z</time>
      </trkpt>
      <trkpt lat="22.901759" lon="111.107394">
        <ele>153.556140</ele>
        <time>2026-08-18T07:06:40.000Z</time>
      </trkpt>
      <trkpt lat="22.901746" lon="111.107445">
        <ele>153.561088</ele>
        <time>2026-08-18T07:06:41.000Z</time>
      </trkpt>
      <trkpt lat="22.901732" lon="111.107498">
        <ele>153.566244</ele>
        <time>2026-08-18T07:06:42.000Z</time>
      </trkpt>
      <trkpt lat="22.901719" lon="111.107551">
        <ele>153.571372</ele>
        <time>2026-08-18T07:06:43.000Z</time>
      </trkpt>
      <trkpt lat="22.901705" lon="111.107603">
        <ele>153.576438</ele>
        <time>2026-08-18T07:06:44.000Z</time>
      </trkpt>
      <trkpt lat="22.901692" lon="111.107657">
        <ele>153.581657</ele>
        <time>2026-08-18T07:06:45.000Z</time>
      </trkpt>
      <trkpt lat="22.901678" lon="111.107712">
        <ele>153.586993</ele>
        <time>2026-08-18T07:06:46.000Z</time>
      </trkpt>
      <trkpt lat="22.901667" lon="111.107766">
        <ele>153.592164</ele>
        <time>2026-08-18T07:06:47.000Z</time>
      </trkpt>
      <trkpt lat="22.901656" lon="111.107820">
        <ele>153.597336</ele>
        <time>2026-08-18T07:06:48.000Z</time>
      </trkpt>
      <trkpt lat="22.901648" lon="111.107873">
        <ele>153.602358</ele>
        <time>2026-08-18T07:06:49.000Z</time>
      </trkpt>
      <trkpt lat="22.901638" lon="111.107927">
        <ele>153.607508</ele>
        <time>2026-08-18T07:06:50.000Z</time>
      </trkpt>
      <trkpt lat="22.901628" lon="111.107982">
        <ele>153.612751</ele>
        <time>2026-08-18T07:06:51.000Z</time>
      </trkpt>
      <trkpt lat="22.901619" lon="111.108037">
        <ele>153.617974</ele>
        <time>2026-08-18T07:06:52.000Z</time>
      </trkpt>
      <trkpt lat="22.901610" lon="111.108094">
        <ele>153.623382</ele>
        <time>2026-08-18T07:06:53.000Z</time>
      </trkpt>
      <trkpt lat="22.901602" lon="111.108148">
        <ele>153.628496</ele>
        <time>2026-08-18T07:06:54.000Z</time>
      </trkpt>
      <trkpt lat="22.901594" lon="111.108205">
        <ele>153.633888</ele>
        <time>2026-08-18T07:06:55.000Z</time>
      </trkpt>
      <trkpt lat="22.901586" lon="111.108261">
        <ele>153.639187</ele>
        <time>2026-08-18T07:06:56.000Z</time>
      </trkpt>
      <trkpt lat="22.901581" lon="111.108316">
        <ele>153.644355</ele>
        <time>2026-08-18T07:06:57.000Z</time>
      </trkpt>
      <trkpt lat="22.901575" lon="111.108371">
        <ele>153.643894</ele>
        <time>2026-08-18T07:06:58.000Z</time>
      </trkpt>
      <trkpt lat="22.901569" lon="111.108428">
        <ele>153.641106</ele>
        <time>2026-08-18T07:06:59.000Z</time>
      </trkpt>
      <trkpt lat="22.901562" lon="111.108482">
        <ele>153.638455</ele>
        <time>2026-08-18T07:07:00.000Z</time>
      </trkpt>
      <trkpt lat="22.901553" lon="111.108536">
        <ele>153.635788</ele>
        <time>2026-08-18T07:07:01.000Z</time>
      </trkpt>
      <trkpt lat="22.901546" lon="111.108591">
        <ele>153.633089</ele>
        <time>2026-08-18T07:07:02.000Z</time>
      </trkpt>
      <trkpt lat="22.901540" lon="111.108645">
        <ele>153.630446</ele>
        <time>2026-08-18T07:07:03.000Z</time>
      </trkpt>
      <trkpt lat="22.901536" lon="111.108701">
        <ele>153.627716</ele>
        <time>2026-08-18T07:07:04.000Z</time>
      </trkpt>
      <trkpt lat="22.901537" lon="111.108756">
        <ele>153.625042</ele>
        <time>2026-08-18T07:07:05.000Z</time>
      </trkpt>
      <trkpt lat="22.901537" lon="111.108812">
        <ele>153.622320</ele>
        <time>2026-08-18T07:07:06.000Z</time>
      </trkpt>
      <trkpt lat="22.901542" lon="111.108867">
        <ele>153.619634</ele>
        <time>2026-08-18T07:07:07.000Z</time>
      </trkpt>
      <trkpt lat="22.901544" lon="111.108923">
        <ele>153.616910</ele>
        <time>2026-08-18T07:07:08.000Z</time>
      </trkpt>
      <trkpt lat="22.901546" lon="111.108981">
        <ele>153.614089</ele>
        <time>2026-08-18T07:07:09.000Z</time>
      </trkpt>
      <trkpt lat="22.901547" lon="111.109035">
        <ele>153.611464</ele>
        <time>2026-08-18T07:07:10.000Z</time>
      </trkpt>
      <trkpt lat="22.901548" lon="111.109094">
        <ele>153.608596</ele>
        <time>2026-08-18T07:07:11.000Z</time>
      </trkpt>
      <trkpt lat="22.901552" lon="111.109153">
        <ele>153.605720</ele>
        <time>2026-08-18T07:07:12.000Z</time>
      </trkpt>
      <trkpt lat="22.901557" lon="111.109215">
        <ele>153.602695</ele>
        <time>2026-08-18T07:07:13.000Z</time>
      </trkpt>
      <trkpt lat="22.901558" lon="111.109276">
        <ele>153.599730</ele>
        <time>2026-08-18T07:07:14.000Z</time>
      </trkpt>
      <trkpt lat="22.901570" lon="111.109335">
        <ele>153.596793</ele>
        <time>2026-08-18T07:07:15.000Z</time>
      </trkpt>
      <trkpt lat="22.901576" lon="111.109397">
        <ele>153.593763</ele>
        <time>2026-08-18T07:07:16.000Z</time>
      </trkpt>
      <trkpt lat="22.901583" lon="111.109459">
        <ele>153.590727</ele>
        <time>2026-08-18T07:07:17.000Z</time>
      </trkpt>
      <trkpt lat="22.901586" lon="111.109519">
        <ele>153.587806</ele>
        <time>2026-08-18T07:07:18.000Z</time>
      </trkpt>
      <trkpt lat="22.901591" lon="111.109579">
        <ele>153.584878</ele>
        <time>2026-08-18T07:07:19.000Z</time>
      </trkpt>
      <trkpt lat="22.901598" lon="111.109641">
        <ele>153.581842</ele>
        <time>2026-08-18T07:07:20.000Z</time>
      </trkpt>
      <trkpt lat="22.901604" lon="111.109705">
        <ele>153.578715</ele>
        <time>2026-08-18T07:07:21.000Z</time>
      </trkpt>
      <trkpt lat="22.901612" lon="111.109769">
        <ele>153.575576</ele>
        <time>2026-08-18T07:07:22.000Z</time>
      </trkpt>
      <trkpt lat="22.901622" lon="111.109836">
        <ele>153.572277</ele>
        <time>2026-08-18T07:07:23.000Z</time>
      </trkpt>
      <trkpt lat="22.901633" lon="111.109902">
        <ele>153.569017</ele>
        <time>2026-08-18T07:07:24.000Z</time>
      </trkpt>
      <trkpt lat="22.901646" lon="111.109968">
        <ele>153.565737</ele>
        <time>2026-08-18T07:07:25.000Z</time>
      </trkpt>
      <trkpt lat="22.901659" lon="111.110035">
        <ele>153.562409</ele>
        <time>2026-08-18T07:07:26.000Z</time>
      </trkpt>
      <trkpt lat="22.901671" lon="111.110102">
        <ele>153.559092</ele>
        <time>2026-08-18T07:07:27.000Z</time>
      </trkpt>
      <trkpt lat="22.901682" lon="111.110169">
        <ele>153.555784</ele>
        <time>2026-08-18T07:07:28.000Z</time>
      </trkpt>
      <trkpt lat="22.901691" lon="111.110237">
        <ele>153.552445</ele>
        <time>2026-08-18T07:07:29.000Z</time>
      </trkpt>
      <trkpt lat="22.901697" lon="111.110306">
        <ele>153.557381</ele>
        <time>2026-08-18T07:07:30.000Z</time>
      </trkpt>
      <trkpt lat="22.901706" lon="111.110374">
        <ele>153.569079</ele>
        <time>2026-08-18T07:07:31.000Z</time>
      </trkpt>
      <trkpt lat="22.901715" lon="111.110443">
        <ele>153.580946</ele>
        <time>2026-08-18T07:07:32.000Z</time>
      </trkpt>
      <trkpt lat="22.901727" lon="111.110511">
        <ele>153.592736</ele>
        <time>2026-08-18T07:07:33.000Z</time>
      </trkpt>
      <trkpt lat="22.901738" lon="111.110578">
        <ele>153.604325</ele>
        <time>2026-08-18T07:07:34.000Z</time>
      </trkpt>
      <trkpt lat="22.901750" lon="111.110644">
        <ele>153.615781</ele>
        <time>2026-08-18T07:07:35.000Z</time>
      </trkpt>
      <trkpt lat="22.901763" lon="111.110710">
        <ele>153.627274</ele>
        <time>2026-08-18T07:07:36.000Z</time>
      </trkpt>
      <trkpt lat="22.901778" lon="111.110777">
        <ele>153.639015</ele>
        <time>2026-08-18T07:07:37.000Z</time>
      </trkpt>
      <trkpt lat="22.901793" lon="111.110844">
        <ele>153.650757</ele>
        <time>2026-08-18T07:07:38.000Z</time>
      </trkpt>
      <trkpt lat="22.901806" lon="111.110910">
        <ele>153.662250</ele>
        <time>2026-08-18T07:07:39.000Z</time>
      </trkpt>
      <trkpt lat="22.901819" lon="111.110977">
        <ele>153.673909</ele>
        <time>2026-08-18T07:07:40.000Z</time>
      </trkpt>
      <trkpt lat="22.901832" lon="111.111043">
        <ele>153.685402</ele>
        <time>2026-08-18T07:07:41.000Z</time>
      </trkpt>
      <trkpt lat="22.901841" lon="111.111110">
        <ele>153.696932</ele>
        <time>2026-08-18T07:07:42.000Z</time>
      </trkpt>
      <trkpt lat="22.901851" lon="111.111178">
        <ele>153.708658</ele>
        <time>2026-08-18T07:07:43.000Z</time>
      </trkpt>
      <trkpt lat="22.901861" lon="111.111245">
        <ele>153.720216</ele>
        <time>2026-08-18T07:07:44.000Z</time>
      </trkpt>
      <trkpt lat="22.901867" lon="111.111310">
        <ele>153.731340</ele>
        <time>2026-08-18T07:07:45.000Z</time>
      </trkpt>
      <trkpt lat="22.901875" lon="111.111374">
        <ele>153.742339</ele>
        <time>2026-08-18T07:07:46.000Z</time>
      </trkpt>
      <trkpt lat="22.901886" lon="111.111439">
        <ele>153.753592</ele>
        <time>2026-08-18T07:07:47.000Z</time>
      </trkpt>
      <trkpt lat="22.901896" lon="111.111505">
        <ele>153.764982</ele>
        <time>2026-08-18T07:07:48.000Z</time>
      </trkpt>
      <trkpt lat="22.901908" lon="111.111569">
        <ele>153.776104</ele>
        <time>2026-08-18T07:07:49.000Z</time>
      </trkpt>
      <trkpt lat="22.901919" lon="111.111635">
        <ele>153.787526</ele>
        <time>2026-08-18T07:07:50.000Z</time>
      </trkpt>
      <trkpt lat="22.901927" lon="111.111699">
        <ele>153.798524</ele>
        <time>2026-08-18T07:07:51.000Z</time>
      </trkpt>
      <trkpt lat="22.901932" lon="111.111764">
        <ele>153.809631</ele>
        <time>2026-08-18T07:07:52.000Z</time>
      </trkpt>
      <trkpt lat="22.901938" lon="111.111826">
        <ele>153.820247</ele>
        <time>2026-08-18T07:07:53.000Z</time>
      </trkpt>
      <trkpt lat="22.901945" lon="111.111888">
        <ele>153.830884</ele>
        <time>2026-08-18T07:07:54.000Z</time>
      </trkpt>
      <trkpt lat="22.901954" lon="111.111948">
        <ele>153.841235</ele>
        <time>2026-08-18T07:07:55.000Z</time>
      </trkpt>
      <trkpt lat="22.901964" lon="111.112007">
        <ele>153.851451</ele>
        <time>2026-08-18T07:07:56.000Z</time>
      </trkpt>
      <trkpt lat="22.901970" lon="111.112065">
        <ele>153.861390</ele>
        <time>2026-08-18T07:07:57.000Z</time>
      </trkpt>
      <trkpt lat="22.901979" lon="111.112123">
        <ele>153.871405</ele>
        <time>2026-08-18T07:07:58.000Z</time>
      </trkpt>
      <trkpt lat="22.901985" lon="111.112181">
        <ele>153.881344</ele>
        <time>2026-08-18T07:07:59.000Z</time>
      </trkpt>
      <trkpt lat="22.901987" lon="111.112238">
        <ele>153.878033</ele>
        <time>2026-08-18T07:08:00.000Z</time>
      </trkpt>
      <trkpt lat="22.901989" lon="111.112296">
        <ele>153.871073</ele>
        <time>2026-08-18T07:08:01.000Z</time>
      </trkpt>
      <trkpt lat="22.901990" lon="111.112353">
        <ele>153.864236</ele>
        <time>2026-08-18T07:08:02.000Z</time>
      </trkpt>
      <trkpt lat="22.901993" lon="111.112411">
        <ele>153.857270</ele>
        <time>2026-08-18T07:08:03.000Z</time>
      </trkpt>
      <trkpt lat="22.901997" lon="111.112469">
        <ele>153.850295</ele>
        <time>2026-08-18T07:08:04.000Z</time>
      </trkpt>
      <trkpt lat="22.901995" lon="111.112527">
        <ele>153.843335</ele>
        <time>2026-08-18T07:08:05.000Z</time>
      </trkpt>
      <trkpt lat="22.902000" lon="111.112584">
        <ele>153.836469</ele>
        <time>2026-08-18T07:08:06.000Z</time>
      </trkpt>
      <trkpt lat="22.902000" lon="111.112638">
        <ele>153.829993</ele>
        <time>2026-08-18T07:08:07.000Z</time>
      </trkpt>
      <trkpt lat="22.902001" lon="111.112695">
        <ele>153.823156</ele>
        <time>2026-08-18T07:08:08.000Z</time>
      </trkpt>
      <trkpt lat="22.902000" lon="111.112751">
        <ele>153.816440</ele>
        <time>2026-08-18T07:08:09.000Z</time>
      </trkpt>
      <trkpt lat="22.901998" lon="111.112808">
        <ele>153.809599</ele>
        <time>2026-08-18T07:08:10.000Z</time>
      </trkpt>
      <trkpt lat="22.901999" lon="111.112864">
        <ele>153.802883</ele>
        <time>2026-08-18T07:08:11.000Z</time>
      </trkpt>
      <trkpt lat="22.901996" lon="111.112922">
        <ele>153.795917</ele>
        <time>2026-08-18T07:08:12.000Z</time>
      </trkpt>
      <trkpt lat="22.901996" lon="111.112979">
        <ele>153.789081</ele>
        <time>2026-08-18T07:08:13.000Z</time>
      </trkpt>
      <trkpt lat="22.901996" lon="111.113034">
        <ele>153.782486</ele>
        <time>2026-08-18T07:08:14.000Z</time>
      </trkpt>
      <trkpt lat="22.901991" lon="111.113088">
        <ele>153.775977</ele>
        <time>2026-08-18T07:08:15.000Z</time>
      </trkpt>
      <trkpt lat="22.901987" lon="111.113142">
        <ele>153.769481</ele>
        <time>2026-08-18T07:08:16.000Z</time>
      </trkpt>
      <trkpt lat="22.901987" lon="111.113199">
        <ele>153.762646</ele>
        <time>2026-08-18T07:08:17.000Z</time>
      </trkpt>
      <trkpt lat="22.901987" lon="111.113256">
        <ele>153.755810</ele>
        <time>2026-08-18T07:08:18.000Z</time>
      </trkpt>
      <trkpt lat="22.901989" lon="111.113312">
        <ele>153.749090</ele>
        <time>2026-08-18T07:08:19.000Z</time>
      </trkpt>
      <trkpt lat="22.901992" lon="111.113370">
        <ele>153.742124</ele>
        <time>2026-08-18T07:08:20.000Z</time>
      </trkpt>
      <trkpt lat="22.901990" lon="111.113427">
        <ele>153.735283</ele>
        <time>2026-08-18T07:08:21.000Z</time>
      </trkpt>
      <trkpt lat="22.901988" lon="111.113485">
        <ele>153.728323</ele>
        <time>2026-08-18T07:08:22.000Z</time>
      </trkpt>
      <trkpt lat="22.901986" lon="111.113544">
        <ele>153.721243</ele>
        <time>2026-08-18T07:08:23.000Z</time>
      </trkpt>
      <trkpt lat="22.901983" lon="111.113602">
        <ele>153.714277</ele>
        <time>2026-08-18T07:08:24.000Z</time>
      </trkpt>
      <trkpt lat="22.901978" lon="111.113660">
        <ele>153.707291</ele>
        <time>2026-08-18T07:08:25.000Z</time>
      </trkpt>
      <trkpt lat="22.901976" lon="111.113717">
        <ele>153.700451</ele>
        <time>2026-08-18T07:08:26.000Z</time>
      </trkpt>
      <trkpt lat="22.901972" lon="111.113774">
        <ele>153.693596</ele>
        <time>2026-08-18T07:08:27.000Z</time>
      </trkpt>
      <trkpt lat="22.901971" lon="111.113829">
        <ele>153.686999</ele>
        <time>2026-08-18T07:08:28.000Z</time>
      </trkpt>
      <trkpt lat="22.901970" lon="111.113885">
        <ele>153.680282</ele>
        <time>2026-08-18T07:08:29.000Z</time>
      </trkpt>
      <trkpt lat="22.901970" lon="111.113941">
        <ele>153.673567</ele>
        <time>2026-08-18T07:08:30.000Z</time>
      </trkpt>
      <trkpt lat="22.901970" lon="111.113996">
        <ele>153.666971</ele>
        <time>2026-08-18T07:08:31.000Z</time>
      </trkpt>
      <trkpt lat="22.901970" lon="111.114049">
        <ele>153.660616</ele>
        <time>2026-08-18T07:08:32.000Z</time>
      </trkpt>
      <trkpt lat="22.901973" lon="111.114103">
        <ele>153.654128</ele>
        <time>2026-08-18T07:08:33.000Z</time>
      </trkpt>
      <trkpt lat="22.901974" lon="111.114156">
        <ele>153.648593</ele>
        <time>2026-08-18T07:08:34.000Z</time>
      </trkpt>
      <trkpt lat="22.901970" lon="111.114214">
        <ele>153.645451</ele>
        <time>2026-08-18T07:08:35.000Z</time>
      </trkpt>
      <trkpt lat="22.901969" lon="111.114271">
        <ele>153.642370</ele>
        <time>2026-08-18T07:08:36.000Z</time>
      </trkpt>
      <trkpt lat="22.901969" lon="111.114328">
        <ele>153.639290</ele>
        <time>2026-08-18T07:08:37.000Z</time>
      </trkpt>
      <trkpt lat="22.901967" lon="111.114388">
        <ele>153.636046</ele>
        <time>2026-08-18T07:08:38.000Z</time>
      </trkpt>
      <trkpt lat="22.901966" lon="111.114447">
        <ele>153.632858</ele>
        <time>2026-08-18T07:08:39.000Z</time>
      </trkpt>
      <trkpt lat="22.901965" lon="111.114507">
        <ele>153.629616</ele>
        <time>2026-08-18T07:08:40.000Z</time>
      </trkpt>
      <trkpt lat="22.901964" lon="111.114568">
        <ele>153.626319</ele>
        <time>2026-08-18T07:08:41.000Z</time>
      </trkpt>
      <trkpt lat="22.901962" lon="111.114629">
        <ele>153.623021</ele>
        <time>2026-08-18T07:08:42.000Z</time>
      </trkpt>
      <trkpt lat="22.901960" lon="111.114691">
        <ele>153.619669</ele>
        <time>2026-08-18T07:08:43.000Z</time>
      </trkpt>
      <trkpt lat="22.901958" lon="111.114752">
        <ele>153.616371</ele>
        <time>2026-08-18T07:08:44.000Z</time>
      </trkpt>
      <trkpt lat="22.901955" lon="111.114811">
        <ele>153.613179</ele>
        <time>2026-08-18T07:08:45.000Z</time>
      </trkpt>
      <trkpt lat="22.901956" lon="111.114871">
        <ele>153.609936</ele>
        <time>2026-08-18T07:08:46.000Z</time>
      </trkpt>
      <trkpt lat="22.901956" lon="111.114934">
        <ele>153.606532</ele>
        <time>2026-08-18T07:08:47.000Z</time>
      </trkpt>
      <trkpt lat="22.901956" lon="111.114996">
        <ele>153.603182</ele>
        <time>2026-08-18T07:08:48.000Z</time>
      </trkpt>
      <trkpt lat="22.901953" lon="111.115060">
        <ele>153.599720</ele>
        <time>2026-08-18T07:08:49.000Z</time>
      </trkpt>
      <trkpt lat="22.901948" lon="111.115125">
        <ele>153.596196</ele>
        <time>2026-08-18T07:08:50.000Z</time>
      </trkpt>
      <trkpt lat="22.901942" lon="111.115187">
        <ele>153.592827</ele>
        <time>2026-08-18T07:08:51.000Z</time>
      </trkpt>
      <trkpt lat="22.901936" lon="111.115251">
        <ele>153.589351</ele>
        <time>2026-08-18T07:08:52.000Z</time>
      </trkpt>
      <trkpt lat="22.901931" lon="111.115317">
        <ele>153.585773</ele>
        <time>2026-08-18T07:08:53.000Z</time>
      </trkpt>
      <trkpt lat="22.901927" lon="111.115384">
        <ele>153.582146</ele>
        <time>2026-08-18T07:08:54.000Z</time>
      </trkpt>
      <trkpt lat="22.901922" lon="111.115449">
        <ele>153.578621</ele>
        <time>2026-08-18T07:08:55.000Z</time>
      </trkpt>
      <trkpt lat="22.901918" lon="111.115512">
        <ele>153.575209</ele>
        <time>2026-08-18T07:08:56.000Z</time>
      </trkpt>
      <trkpt lat="22.901916" lon="111.115576">
        <ele>153.571749</ele>
        <time>2026-08-18T07:08:57.000Z</time>
      </trkpt>
      <trkpt lat="22.901914" lon="111.115639">
        <ele>153.568343</ele>
        <time>2026-08-18T07:08:58.000Z</time>
      </trkpt>
      <trkpt lat="22.901912" lon="111.115701">
        <ele>153.564991</ele>
        <time>2026-08-18T07:08:59.000Z</time>
      </trkpt>
      <trkpt lat="22.901909" lon="111.115763">
        <ele>153.561637</ele>
        <time>2026-08-18T07:09:00.000Z</time>
      </trkpt>
      <trkpt lat="22.901907" lon="111.115825">
        <ele>153.558285</ele>
        <time>2026-08-18T07:09:01.000Z</time>
      </trkpt>
      <trkpt lat="22.901904" lon="111.115886">
        <ele>153.554984</ele>
        <time>2026-08-18T07:09:02.000Z</time>
      </trkpt>
      <trkpt lat="22.901901" lon="111.115948">
        <ele>153.551630</ele>
        <time>2026-08-18T07:09:03.000Z</time>
      </trkpt>
      <trkpt lat="22.901899" lon="111.116010">
        <ele>153.548278</ele>
        <time>2026-08-18T07:09:04.000Z</time>
      </trkpt>
      <trkpt lat="22.901897" lon="111.116073">
        <ele>153.544872</ele>
        <time>2026-08-18T07:09:05.000Z</time>
      </trkpt>
      <trkpt lat="22.901898" lon="111.116135">
        <ele>153.576339</ele>
        <time>2026-08-18T07:09:06.000Z</time>
      </trkpt>
      <trkpt lat="22.901896" lon="111.116196">
        <ele>153.624151</ele>
        <time>2026-08-18T07:09:07.000Z</time>
      </trkpt>
      <trkpt lat="22.901892" lon="111.116259">
        <ele>153.673615</ele>
        <time>2026-08-18T07:09:08.000Z</time>
      </trkpt>
      <trkpt lat="22.901888" lon="111.116318">
        <ele>153.719954</ele>
        <time>2026-08-18T07:09:09.000Z</time>
      </trkpt>
      <trkpt lat="22.901882" lon="111.116378">
        <ele>153.767228</ele>
        <time>2026-08-18T07:09:10.000Z</time>
      </trkpt>
      <trkpt lat="22.901875" lon="111.116435">
        <ele>153.812271</ele>
        <time>2026-08-18T07:09:11.000Z</time>
      </trkpt>
      <trkpt lat="22.901870" lon="111.116490">
        <ele>153.855561</ele>
        <time>2026-08-18T07:09:12.000Z</time>
      </trkpt>
      <trkpt lat="22.901863" lon="111.116546">
        <ele>153.899828</ele>
        <time>2026-08-18T07:09:13.000Z</time>
      </trkpt>
      <trkpt lat="22.901855" lon="111.116602">
        <ele>153.944216</ele>
        <time>2026-08-18T07:09:14.000Z</time>
      </trkpt>
      <trkpt lat="22.901852" lon="111.116656">
        <ele>153.986591</ele>
        <time>2026-08-18T07:09:15.000Z</time>
      </trkpt>
      <trkpt lat="22.901849" lon="111.116709">
        <ele>154.028184</ele>
        <time>2026-08-18T07:09:16.000Z</time>
      </trkpt>
      <trkpt lat="22.901844" lon="111.116763">
        <ele>154.070695</ele>
        <time>2026-08-18T07:09:17.000Z</time>
      </trkpt>
      <trkpt lat="22.901840" lon="111.116817">
        <ele>154.113129</ele>
        <time>2026-08-18T07:09:18.000Z</time>
      </trkpt>
      <trkpt lat="22.901843" lon="111.116870">
        <ele>154.154722</ele>
        <time>2026-08-18T07:09:19.000Z</time>
      </trkpt>
      <trkpt lat="22.901843" lon="111.116921">
        <ele>154.194670</ele>
        <time>2026-08-18T07:09:20.000Z</time>
      </trkpt>
      <trkpt lat="22.901839" lon="111.116970">
        <ele>154.233202</ele>
        <time>2026-08-18T07:09:21.000Z</time>
      </trkpt>
      <trkpt lat="22.901835" lon="111.117022">
        <ele>154.274075</ele>
        <time>2026-08-18T07:09:22.000Z</time>
      </trkpt>
      <trkpt lat="22.901833" lon="111.117070">
        <ele>154.311712</ele>
        <time>2026-08-18T07:09:23.000Z</time>
      </trkpt>
      <trkpt lat="22.901830" lon="111.117116">
        <ele>154.347833</ele>
        <time>2026-08-18T07:09:24.000Z</time>
      </trkpt>
      <trkpt lat="22.901828" lon="111.117164">
        <ele>154.385470</ele>
        <time>2026-08-18T07:09:25.000Z</time>
      </trkpt>
      <trkpt lat="22.901825" lon="111.117212">
        <ele>154.423154</ele>
        <time>2026-08-18T07:09:26.000Z</time>
      </trkpt>
      <trkpt lat="22.901817" lon="111.117260">
        <ele>154.461363</ele>
        <time>2026-08-18T07:09:27.000Z</time>
      </trkpt>
      <trkpt lat="22.901815" lon="111.117308">
        <ele>154.498999</ele>
        <time>2026-08-18T07:09:28.000Z</time>
      </trkpt>
      <trkpt lat="22.901810" lon="111.117355">
        <ele>154.536059</ele>
        <time>2026-08-18T07:09:29.000Z</time>
      </trkpt>
      <trkpt lat="22.901807" lon="111.117403">
        <ele>154.573743</ele>
        <time>2026-08-18T07:09:30.000Z</time>
      </trkpt>
      <trkpt lat="22.901804" lon="111.117450">
        <ele>154.610647</ele>
        <time>2026-08-18T07:09:31.000Z</time>
      </trkpt>
      <trkpt lat="22.901802" lon="111.117494">
        <ele>154.645153</ele>
        <time>2026-08-18T07:09:32.000Z</time>
      </trkpt>
      <trkpt lat="22.901799" lon="111.117539">
        <ele>154.680494</ele>
        <time>2026-08-18T07:09:33.000Z</time>
      </trkpt>
      <trkpt lat="22.901792" lon="111.117585">
        <ele>154.717014</ele>
        <time>2026-08-18T07:09:34.000Z</time>
      </trkpt>
      <trkpt lat="22.901787" lon="111.117631">
        <ele>154.753295</ele>
        <time>2026-08-18T07:09:35.000Z</time>
      </trkpt>
      <trkpt lat="22.901780" lon="111.117675">
        <ele>154.788270</ele>
        <time>2026-08-18T07:09:36.000Z</time>
      </trkpt>
      <trkpt lat="22.901774" lon="111.117717">
        <ele>154.821562</ele>
        <time>2026-08-18T07:09:37.000Z</time>
      </trkpt>
      <trkpt lat="22.901767" lon="111.117763">
        <ele>154.858082</ele>
        <time>2026-08-18T07:09:38.000Z</time>
      </trkpt>
      <trkpt lat="22.901764" lon="111.117804">
        <ele>154.890298</ele>
        <time>2026-08-18T07:09:39.000Z</time>
      </trkpt>
      <trkpt lat="22.901759" lon="111.117847">
        <ele>154.924247</ele>
        <time>2026-08-18T07:09:40.000Z</time>
      </trkpt>
      <trkpt lat="22.901752" lon="111.117888">
        <ele>154.956909</ele>
        <time>2026-08-18T07:09:41.000Z</time>
      </trkpt>
      <trkpt lat="22.901742" lon="111.117928">
        <ele>154.989374</ele>
        <time>2026-08-18T07:09:42.000Z</time>
      </trkpt>
      <trkpt lat="22.901733" lon="111.117970">
        <ele>155.023151</ele>
        <time>2026-08-18T07:09:43.000Z</time>
      </trkpt>
      <trkpt lat="22.901726" lon="111.118009">
        <ele>155.054274</ele>
        <time>2026-08-18T07:09:44.000Z</time>
      </trkpt>
      <trkpt lat="22.901716" lon="111.118049">
        <ele>155.094178</ele>
        <time>2026-08-18T07:09:45.000Z</time>
      </trkpt>
      <trkpt lat="22.901707" lon="111.118091">
        <ele>155.146506</ele>
        <time>2026-08-18T07:09:46.000Z</time>
      </trkpt>
      <trkpt lat="22.901695" lon="111.118133">
        <ele>155.199869</ele>
        <time>2026-08-18T07:09:47.000Z</time>
      </trkpt>
      <trkpt lat="22.901684" lon="111.118175">
        <ele>155.252856</ele>
        <time>2026-08-18T07:09:48.000Z</time>
      </trkpt>
      <trkpt lat="22.901670" lon="111.118218">
        <ele>155.308200</ele>
        <time>2026-08-18T07:09:49.000Z</time>
      </trkpt>
      <trkpt lat="22.901656" lon="111.118259">
        <ele>155.361262</ele>
        <time>2026-08-18T07:09:50.000Z</time>
      </trkpt>
      <trkpt lat="22.901645" lon="111.118301">
        <ele>155.414249</ele>
        <time>2026-08-18T07:09:51.000Z</time>
      </trkpt>
      <trkpt lat="22.901631" lon="111.118341">
        <ele>155.466175</ele>
        <time>2026-08-18T07:09:52.000Z</time>
      </trkpt>
      <trkpt lat="22.901614" lon="111.118382">
        <ele>155.520737</ele>
        <time>2026-08-18T07:09:53.000Z</time>
      </trkpt>
      <trkpt lat="22.901597" lon="111.118425">
        <ele>155.577520</ele>
        <time>2026-08-18T07:09:54.000Z</time>
      </trkpt>
      <trkpt lat="22.901581" lon="111.118467">
        <ele>155.632674</ele>
        <time>2026-08-18T07:09:55.000Z</time>
      </trkpt>
      <trkpt lat="22.901564" lon="111.118509">
        <ele>155.688345</ele>
        <time>2026-08-18T07:09:56.000Z</time>
      </trkpt>
      <trkpt lat="22.901547" lon="111.118551">
        <ele>155.744015</ele>
        <time>2026-08-18T07:09:57.000Z</time>
      </trkpt>
      <trkpt lat="22.901526" lon="111.118594">
        <ele>155.803076</ele>
        <time>2026-08-18T07:09:58.000Z</time>
      </trkpt>
      <trkpt lat="22.901507" lon="111.118636">
        <ele>155.859857</ele>
        <time>2026-08-18T07:09:59.000Z</time>
      </trkpt>
      <trkpt lat="22.901486" lon="111.118679">
        <ele>155.918918</ele>
        <time>2026-08-18T07:10:00.000Z</time>
      </trkpt>
      <trkpt lat="22.901464" lon="111.118718">
        <ele>155.974413</ele>
        <time>2026-08-18T07:10:01.000Z</time>
      </trkpt>
      <trkpt lat="22.901439" lon="111.118759">
        <ele>156.034080</ele>
        <time>2026-08-18T07:10:02.000Z</time>
      </trkpt>
      <trkpt lat="22.901418" lon="111.118799">
        <ele>156.089950</ele>
        <time>2026-08-18T07:10:03.000Z</time>
      </trkpt>
      <trkpt lat="22.901394" lon="111.118840">
        <ele>156.148899</ele>
        <time>2026-08-18T07:10:04.000Z</time>
      </trkpt>
      <trkpt lat="22.901372" lon="111.118881">
        <ele>156.206479</ele>
        <time>2026-08-18T07:10:05.000Z</time>
      </trkpt>
      <trkpt lat="22.901352" lon="111.118924">
        <ele>156.264934</ele>
        <time>2026-08-18T07:10:06.000Z</time>
      </trkpt>
      <trkpt lat="22.901329" lon="111.118963">
        <ele>156.321129</ele>
        <time>2026-08-18T07:10:07.000Z</time>
      </trkpt>
      <trkpt lat="22.901304" lon="111.119005">
        <ele>156.381811</ele>
        <time>2026-08-18T07:10:08.000Z</time>
      </trkpt>
      <trkpt lat="22.901279" lon="111.119048">
        <ele>156.443516</ele>
        <time>2026-08-18T07:10:09.000Z</time>
      </trkpt>
      <trkpt lat="22.901256" lon="111.119086">
        <ele>156.498692</ele>
        <time>2026-08-18T07:10:10.000Z</time>
      </trkpt>
      <trkpt lat="22.901233" lon="111.119127">
        <ele>156.556946</ele>
        <time>2026-08-18T07:10:11.000Z</time>
      </trkpt>
      <trkpt lat="22.901216" lon="111.119169">
        <ele>156.612616</ele>
        <time>2026-08-18T07:10:12.000Z</time>
      </trkpt>
      <trkpt lat="22.901185" lon="111.119206">
        <ele>156.673310</ele>
        <time>2026-08-18T07:10:13.000Z</time>
      </trkpt>
      <trkpt lat="22.901164" lon="111.119246">
        <ele>156.729180</ele>
        <time>2026-08-18T07:10:14.000Z</time>
      </trkpt>
      <trkpt lat="22.901140" lon="111.119287">
        <ele>156.788130</ele>
        <time>2026-08-18T07:10:15.000Z</time>
      </trkpt>
      <trkpt lat="22.901113" lon="111.119325">
        <ele>156.846367</ele>
        <time>2026-08-18T07:10:16.000Z</time>
      </trkpt>
      <trkpt lat="22.901087" lon="111.119363">
        <ele>156.903809</ele>
        <time>2026-08-18T07:10:17.000Z</time>
      </trkpt>
      <trkpt lat="22.901060" lon="111.119403">
        <ele>156.963986</ele>
        <time>2026-08-18T07:10:18.000Z</time>
      </trkpt>
      <trkpt lat="22.901034" lon="111.119441">
        <ele>157.021428</ele>
        <time>2026-08-18T07:10:19.000Z</time>
      </trkpt>
      <trkpt lat="22.901006" lon="111.119480">
        <ele>157.081432</ele>
        <time>2026-08-18T07:10:20.000Z</time>
      </trkpt>
      <trkpt lat="22.900980" lon="111.119517">
        <ele>157.137904</ele>
        <time>2026-08-18T07:10:21.000Z</time>
      </trkpt>
      <trkpt lat="22.900954" lon="111.119557">
        <ele>157.197312</ele>
        <time>2026-08-18T07:10:22.000Z</time>
      </trkpt>
      <trkpt lat="22.900926" lon="111.119596">
        <ele>157.257315</ele>
        <time>2026-08-18T07:10:23.000Z</time>
      </trkpt>
      <trkpt lat="22.900899" lon="111.119637">
        <ele>157.318476</ele>
        <time>2026-08-18T07:10:24.000Z</time>
      </trkpt>
      <trkpt lat="22.900873" lon="111.119678">
        <ele>157.378879</ele>
        <time>2026-08-18T07:10:25.000Z</time>
      </trkpt>
      <trkpt lat="22.900849" lon="111.119720">
        <ele>157.438857</ele>
        <time>2026-08-18T07:10:26.000Z</time>
      </trkpt>
      <trkpt lat="22.900823" lon="111.119761">
        <ele>157.439330</ele>
        <time>2026-08-18T07:10:27.000Z</time>
      </trkpt>
      <trkpt lat="22.900798" lon="111.119799">
        <ele>157.436025</ele>
        <time>2026-08-18T07:10:28.000Z</time>
      </trkpt>
      <trkpt lat="22.900772" lon="111.119839">
        <ele>157.432561</ele>
        <time>2026-08-18T07:10:29.000Z</time>
      </trkpt>
      <trkpt lat="22.900747" lon="111.119878">
        <ele>157.429199</ele>
        <time>2026-08-18T07:10:30.000Z</time>
      </trkpt>
      <trkpt lat="22.900721" lon="111.119918">
        <ele>157.425734</ele>
        <time>2026-08-18T07:10:31.000Z</time>
      </trkpt>
      <trkpt lat="22.900699" lon="111.119960">
        <ele>157.422315</ele>
        <time>2026-08-18T07:10:32.000Z</time>
      </trkpt>
      <trkpt lat="22.900678" lon="111.120002">
        <ele>157.418934</ele>
        <time>2026-08-18T07:10:33.000Z</time>
      </trkpt>
      <trkpt lat="22.900655" lon="111.120041">
        <ele>157.415657</ele>
        <time>2026-08-18T07:10:34.000Z</time>
      </trkpt>
      <trkpt lat="22.900635" lon="111.120084">
        <ele>157.412248</ele>
        <time>2026-08-18T07:10:35.000Z</time>
      </trkpt>
      <trkpt lat="22.900614" lon="111.120130">
        <ele>157.408615</ele>
        <time>2026-08-18T07:10:36.000Z</time>
      </trkpt>
      <trkpt lat="22.900594" lon="111.120174">
        <ele>157.405143</ele>
        <time>2026-08-18T07:10:37.000Z</time>
      </trkpt>
      <trkpt lat="22.900574" lon="111.120218">
        <ele>157.401671</ele>
        <time>2026-08-18T07:10:38.000Z</time>
      </trkpt>
      <trkpt lat="22.900556" lon="111.120263">
        <ele>157.398199</ele>
        <time>2026-08-18T07:10:39.000Z</time>
      </trkpt>
      <trkpt lat="22.900539" lon="111.120307">
        <ele>157.394822</ele>
        <time>2026-08-18T07:10:40.000Z</time>
      </trkpt>
      <trkpt lat="22.900514" lon="111.120350">
        <ele>157.391224</ele>
        <time>2026-08-18T07:10:41.000Z</time>
      </trkpt>
      <trkpt lat="22.900498" lon="111.120393">
        <ele>157.387942</ele>
        <time>2026-08-18T07:10:42.000Z</time>
      </trkpt>
      <trkpt lat="22.900481" lon="111.120439">
        <ele>157.384435</ele>
        <time>2026-08-18T07:10:43.000Z</time>
      </trkpt>
      <trkpt lat="22.900463" lon="111.120487">
        <ele>157.380768</ele>
        <time>2026-08-18T07:10:44.000Z</time>
      </trkpt>
      <trkpt lat="22.900444" lon="111.120534">
        <ele>157.377135</ele>
        <time>2026-08-18T07:10:45.000Z</time>
      </trkpt>
      <trkpt lat="22.900425" lon="111.120579">
        <ele>157.373632</ele>
        <time>2026-08-18T07:10:46.000Z</time>
      </trkpt>
      <trkpt lat="22.900405" lon="111.120626">
        <ele>157.369969</ele>
        <time>2026-08-18T07:10:47.000Z</time>
      </trkpt>
      <trkpt lat="22.900388" lon="111.120674">
        <ele>157.366330</ele>
        <time>2026-08-18T07:10:48.000Z</time>
      </trkpt>
      <trkpt lat="22.900370" lon="111.120720">
        <ele>157.362793</ele>
        <time>2026-08-18T07:10:49.000Z</time>
      </trkpt>
      <trkpt lat="22.900349" lon="111.120764">
        <ele>157.359286</ele>
        <time>2026-08-18T07:10:50.000Z</time>
      </trkpt>
      <trkpt lat="22.900331" lon="111.120811">
        <ele>157.355684</ele>
        <time>2026-08-18T07:10:51.000Z</time>
      </trkpt>
      <trkpt lat="22.900315" lon="111.120860">
        <ele>157.352005</ele>
        <time>2026-08-18T07:10:52.000Z</time>
      </trkpt>
      <trkpt lat="22.900302" lon="111.120909">
        <ele>157.348397</ele>
        <time>2026-08-18T07:10:53.000Z</time>
      </trkpt>
      <trkpt lat="22.900283" lon="111.120957">
        <ele>157.344700</ele>
        <time>2026-08-18T07:10:54.000Z</time>
      </trkpt>
      <trkpt lat="22.900267" lon="111.121005">
        <ele>157.341087</ele>
        <time>2026-08-18T07:10:55.000Z</time>
      </trkpt>
      <trkpt lat="22.900249" lon="111.121054">
        <ele>157.337354</ele>
        <time>2026-08-18T07:10:56.000Z</time>
      </trkpt>
      <trkpt lat="22.900231" lon="111.121106">
        <ele>157.333423</ele>
        <time>2026-08-18T07:10:57.000Z</time>
      </trkpt>
      <trkpt lat="22.900214" lon="111.121158">
        <ele>157.329518</ele>
        <time>2026-08-18T07:10:58.000Z</time>
      </trkpt>
      <trkpt lat="22.900197" lon="111.121209">
        <ele>157.325680</ele>
        <time>2026-08-18T07:10:59.000Z</time>
      </trkpt>
      <trkpt lat="22.900180" lon="111.121261">
        <ele>157.321776</ele>
        <time>2026-08-18T07:11:00.000Z</time>
      </trkpt>
      <trkpt lat="22.900164" lon="111.121313">
        <ele>157.317896</ele>
        <time>2026-08-18T07:11:01.000Z</time>
      </trkpt>
      <trkpt lat="22.900150" lon="111.121364">
        <ele>157.314130</ele>
        <time>2026-08-18T07:11:02.000Z</time>
      </trkpt>
      <trkpt lat="22.900136" lon="111.121416">
        <ele>157.310296</ele>
        <time>2026-08-18T07:11:03.000Z</time>
      </trkpt>
      <trkpt lat="22.900127" lon="111.121465">
        <ele>157.306761</ele>
        <time>2026-08-18T07:11:04.000Z</time>
      </trkpt>
      <trkpt lat="22.900112" lon="111.121518">
        <ele>157.302110</ele>
        <time>2026-08-18T07:11:05.000Z</time>
      </trkpt>
      <trkpt lat="22.900097" lon="111.121574">
        <ele>157.296133</ele>
        <time>2026-08-18T07:11:06.000Z</time>
      </trkpt>
      <trkpt lat="22.900082" lon="111.121630">
        <ele>157.290157</ele>
        <time>2026-08-18T07:11:07.000Z</time>
      </trkpt>
      <trkpt lat="22.900069" lon="111.121684">
        <ele>157.284437</ele>
        <time>2026-08-18T07:11:08.000Z</time>
      </trkpt>
      <trkpt lat="22.900054" lon="111.121740">
        <ele>157.278461</ele>
        <time>2026-08-18T07:11:09.000Z</time>
      </trkpt>
      <trkpt lat="22.900037" lon="111.121796">
        <ele>157.272418</ele>
        <time>2026-08-18T07:11:10.000Z</time>
      </trkpt>
      <trkpt lat="22.900020" lon="111.121851">
        <ele>157.266473</ele>
        <time>2026-08-18T07:11:11.000Z</time>
      </trkpt>
      <trkpt lat="22.900005" lon="111.121907">
        <ele>157.260496</ele>
        <time>2026-08-18T07:11:12.000Z</time>
      </trkpt>
      <trkpt lat="22.899990" lon="111.121964">
        <ele>157.254421</ele>
        <time>2026-08-18T07:11:13.000Z</time>
      </trkpt>
      <trkpt lat="22.899974" lon="111.122023">
        <ele>157.248118</ele>
        <time>2026-08-18T07:11:14.000Z</time>
      </trkpt>
      <trkpt lat="22.899958" lon="111.122081">
        <ele>157.241914</ele>
        <time>2026-08-18T07:11:15.000Z</time>
      </trkpt>
      <trkpt lat="22.899944" lon="111.122139">
        <ele>157.235769</ele>
        <time>2026-08-18T07:11:16.000Z</time>
      </trkpt>
      <trkpt lat="22.899929" lon="111.122196">
        <ele>157.229694</ele>
        <time>2026-08-18T07:11:17.000Z</time>
      </trkpt>
      <trkpt lat="22.899915" lon="111.122255">
        <ele>157.223451</ele>
        <time>2026-08-18T07:11:18.000Z</time>
      </trkpt>
      <trkpt lat="22.899900" lon="111.122313">
        <ele>157.217277</ele>
        <time>2026-08-18T07:11:19.000Z</time>
      </trkpt>
      <trkpt lat="22.899885" lon="111.122370">
        <ele>157.211202</ele>
        <time>2026-08-18T07:11:20.000Z</time>
      </trkpt>
      <trkpt lat="22.899867" lon="111.122429">
        <ele>157.204833</ele>
        <time>2026-08-18T07:11:21.000Z</time>
      </trkpt>
      <trkpt lat="22.899851" lon="111.122487">
        <ele>157.198628</ele>
        <time>2026-08-18T07:11:22.000Z</time>
      </trkpt>
      <trkpt lat="22.899835" lon="111.122544">
        <ele>157.192522</ele>
        <time>2026-08-18T07:11:23.000Z</time>
      </trkpt>
      <trkpt lat="22.899820" lon="111.122600">
        <ele>157.186545</ele>
        <time>2026-08-18T07:11:24.000Z</time>
      </trkpt>
      <trkpt lat="22.899805" lon="111.122657">
        <ele>157.180470</ele>
        <time>2026-08-18T07:11:25.000Z</time>
      </trkpt>
      <trkpt lat="22.899789" lon="111.122714">
        <ele>157.174364</ele>
        <time>2026-08-18T07:11:26.000Z</time>
      </trkpt>
      <trkpt lat="22.899772" lon="111.122770">
        <ele>157.168321</ele>
        <time>2026-08-18T07:11:27.000Z</time>
      </trkpt>
      <trkpt lat="22.899755" lon="111.122826">
        <ele>157.162279</ele>
        <time>2026-08-18T07:11:28.000Z</time>
      </trkpt>
      <trkpt lat="22.899740" lon="111.122881">
        <ele>157.156401</ele>
        <time>2026-08-18T07:11:29.000Z</time>
      </trkpt>
      <trkpt lat="22.899726" lon="111.122939">
        <ele>157.150256</ele>
        <time>2026-08-18T07:11:30.000Z</time>
      </trkpt>
      <trkpt lat="22.899712" lon="111.122996">
        <ele>157.144211</ele>
        <time>2026-08-18T07:11:31.000Z</time>
      </trkpt>
      <trkpt lat="22.899698" lon="111.123053">
        <ele>157.138165</ele>
        <time>2026-08-18T07:11:32.000Z</time>
      </trkpt>
      <trkpt lat="22.899684" lon="111.123109">
        <ele>157.132219</ele>
        <time>2026-08-18T07:11:33.000Z</time>
      </trkpt>
      <trkpt lat="22.899669" lon="111.123166">
        <ele>157.126144</ele>
        <time>2026-08-18T07:11:34.000Z</time>
      </trkpt>
      <trkpt lat="22.899654" lon="111.123223">
        <ele>157.120069</ele>
        <time>2026-08-18T07:11:35.000Z</time>
      </trkpt>
      <trkpt lat="22.899640" lon="111.123279">
        <ele>157.114122</ele>
        <time>2026-08-18T07:11:36.000Z</time>
      </trkpt>
      <trkpt lat="22.899627" lon="111.123337">
        <ele>157.108005</ele>
        <time>2026-08-18T07:11:37.000Z</time>
      </trkpt>
      <trkpt lat="22.899611" lon="111.123396">
        <ele>157.103810</ele>
        <time>2026-08-18T07:11:38.000Z</time>
      </trkpt>
      <trkpt lat="22.899595" lon="111.123456">
        <ele>157.102474</ele>
        <time>2026-08-18T07:11:39.000Z</time>
      </trkpt>
      <trkpt lat="22.899579" lon="111.123515">
        <ele>157.101159</ele>
        <time>2026-08-18T07:11:40.000Z</time>
      </trkpt>
      <trkpt lat="22.899563" lon="111.123575">
        <ele>157.099823</ele>
        <time>2026-08-18T07:11:41.000Z</time>
      </trkpt>
      <trkpt lat="22.899550" lon="111.123632">
        <ele>157.098567</ele>
        <time>2026-08-18T07:11:42.000Z</time>
      </trkpt>
      <trkpt lat="22.899536" lon="111.123691">
        <ele>157.097264</ele>
        <time>2026-08-18T07:11:43.000Z</time>
      </trkpt>
      <trkpt lat="22.899522" lon="111.123752">
        <ele>157.095920</ele>
        <time>2026-08-18T07:11:44.000Z</time>
      </trkpt>
      <trkpt lat="22.899506" lon="111.123813">
        <ele>157.094563</ele>
        <time>2026-08-18T07:11:45.000Z</time>
      </trkpt>
      <trkpt lat="22.899492" lon="111.123876">
        <ele>157.093177</ele>
        <time>2026-08-18T07:11:46.000Z</time>
      </trkpt>
      <trkpt lat="22.899477" lon="111.123938">
        <ele>157.091807</ele>
        <time>2026-08-18T07:11:47.000Z</time>
      </trkpt>
      <trkpt lat="22.899463" lon="111.124000">
        <ele>157.090442</ele>
        <time>2026-08-18T07:11:48.000Z</time>
      </trkpt>
      <trkpt lat="22.899447" lon="111.124064">
        <ele>157.089023</ele>
        <time>2026-08-18T07:11:49.000Z</time>
      </trkpt>
      <trkpt lat="22.899432" lon="111.124126">
        <ele>157.087653</ele>
        <time>2026-08-18T07:11:50.000Z</time>
      </trkpt>
      <trkpt lat="22.899418" lon="111.124187">
        <ele>157.086308</ele>
        <time>2026-08-18T07:11:51.000Z</time>
      </trkpt>
      <trkpt lat="22.899404" lon="111.124248">
        <ele>157.084964</ele>
        <time>2026-08-18T07:11:52.000Z</time>
      </trkpt>
      <trkpt lat="22.899390" lon="111.124307">
        <ele>157.083661</ele>
        <time>2026-08-18T07:11:53.000Z</time>
      </trkpt>
      <trkpt lat="22.899375" lon="111.124369">
        <ele>157.082290</ele>
        <time>2026-08-18T07:11:54.000Z</time>
      </trkpt>
      <trkpt lat="22.899360" lon="111.124430">
        <ele>157.080940</ele>
        <time>2026-08-18T07:11:55.000Z</time>
      </trkpt>
      <trkpt lat="22.899345" lon="111.124488">
        <ele>157.079652</ele>
        <time>2026-08-18T07:11:56.000Z</time>
      </trkpt>
      <trkpt lat="22.899329" lon="111.124547">
        <ele>157.078336</ele>
        <time>2026-08-18T07:11:57.000Z</time>
      </trkpt>
      <trkpt lat="22.899314" lon="111.124605">
        <ele>157.077048</ele>
        <time>2026-08-18T07:11:58.000Z</time>
      </trkpt>
      <trkpt lat="22.899296" lon="111.124667">
        <ele>157.075658</ele>
        <time>2026-08-18T07:11:59.000Z</time>
      </trkpt>
      <trkpt lat="22.899281" lon="111.124727">
        <ele>157.074328</ele>
        <time>2026-08-18T07:12:00.000Z</time>
      </trkpt>
      <trkpt lat="22.899267" lon="111.124787">
        <ele>157.073005</ele>
        <time>2026-08-18T07:12:01.000Z</time>
      </trkpt>
      <trkpt lat="22.899250" lon="111.124850">
        <ele>157.071601</ele>
        <time>2026-08-18T07:12:02.000Z</time>
      </trkpt>
      <trkpt lat="22.899235" lon="111.124911">
        <ele>157.070251</ele>
        <time>2026-08-18T07:12:03.000Z</time>
      </trkpt>
      <trkpt lat="22.899221" lon="111.124972">
        <ele>157.068906</ele>
        <time>2026-08-18T07:12:04.000Z</time>
      </trkpt>
      <trkpt lat="22.899206" lon="111.125034">
        <ele>157.067535</ele>
        <time>2026-08-18T07:12:05.000Z</time>
      </trkpt>
      <trkpt lat="22.899190" lon="111.125094">
        <ele>157.066200</ele>
        <time>2026-08-18T07:12:06.000Z</time>
      </trkpt>
      <trkpt lat="22.899178" lon="111.125156">
        <ele>157.064845</ele>
        <time>2026-08-18T07:12:07.000Z</time>
      </trkpt>
      <trkpt lat="22.899162" lon="111.125217">
        <ele>157.063488</ele>
        <time>2026-08-18T07:12:08.000Z</time>
      </trkpt>
      <trkpt lat="22.899147" lon="111.125277">
        <ele>157.064865</ele>
        <time>2026-08-18T07:12:09.000Z</time>
      </trkpt>
      <trkpt lat="22.899133" lon="111.125336">
        <ele>157.071372</ele>
        <time>2026-08-18T07:12:10.000Z</time>
      </trkpt>
      <trkpt lat="22.899119" lon="111.125397">
        <ele>157.078086</ele>
        <time>2026-08-18T07:12:11.000Z</time>
      </trkpt>
      <trkpt lat="22.899105" lon="111.125458">
        <ele>157.084800</ele>
        <time>2026-08-18T07:12:12.000Z</time>
      </trkpt>
      <trkpt lat="22.899093" lon="111.125518">
        <ele>157.091357</ele>
        <time>2026-08-18T07:12:13.000Z</time>
      </trkpt>
      <trkpt lat="22.899080" lon="111.125577">
        <ele>157.097836</ele>
        <time>2026-08-18T07:12:14.000Z</time>
      </trkpt>
      <trkpt lat="22.899067" lon="111.125637">
        <ele>157.104419</ele>
        <time>2026-08-18T07:12:15.000Z</time>
      </trkpt>
      <trkpt lat="22.899053" lon="111.125695">
        <ele>157.110822</ele>
        <time>2026-08-18T07:12:16.000Z</time>
      </trkpt>
      <trkpt lat="22.899040" lon="111.125755">
        <ele>157.117405</ele>
        <time>2026-08-18T07:12:17.000Z</time>
      </trkpt>
      <trkpt lat="22.899028" lon="111.125814">
        <ele>157.123858</ele>
        <time>2026-08-18T07:12:18.000Z</time>
      </trkpt>
      <trkpt lat="22.899017" lon="111.125872">
        <ele>157.130183</ele>
        <time>2026-08-18T07:12:19.000Z</time>
      </trkpt>
      <trkpt lat="22.899007" lon="111.125931">
        <ele>157.136590</ele>
        <time>2026-08-18T07:12:20.000Z</time>
      </trkpt>
      <trkpt lat="22.898995" lon="111.125990">
        <ele>157.143043</ele>
        <time>2026-08-18T07:12:21.000Z</time>
      </trkpt>
      <trkpt lat="22.898983" lon="111.126049">
        <ele>157.149496</ele>
        <time>2026-08-18T07:12:22.000Z</time>
      </trkpt>
      <trkpt lat="22.898971" lon="111.126108">
        <ele>157.155949</ele>
        <time>2026-08-18T07:12:23.000Z</time>
      </trkpt>
      <trkpt lat="22.898960" lon="111.126167">
        <ele>157.162378</ele>
        <time>2026-08-18T07:12:24.000Z</time>
      </trkpt>
      <trkpt lat="22.898948" lon="111.126229">
        <ele>157.169144</ele>
        <time>2026-08-18T07:12:25.000Z</time>
      </trkpt>
      <trkpt lat="22.898938" lon="111.126291">
        <ele>157.175866</ele>
        <time>2026-08-18T07:12:26.000Z</time>
      </trkpt>
      <trkpt lat="22.898927" lon="111.126352">
        <ele>157.182505</ele>
        <time>2026-08-18T07:12:27.000Z</time>
      </trkpt>
      <trkpt lat="22.898911" lon="111.126411">
        <ele>157.189073</ele>
        <time>2026-08-18T07:12:28.000Z</time>
      </trkpt>
      <trkpt lat="22.898898" lon="111.126470">
        <ele>157.195552</ele>
        <time>2026-08-18T07:12:29.000Z</time>
      </trkpt>
      <trkpt lat="22.898889" lon="111.126530">
        <ele>157.202045</ele>
        <time>2026-08-18T07:12:30.000Z</time>
      </trkpt>
      <trkpt lat="22.898880" lon="111.126588">
        <ele>157.208326</ele>
        <time>2026-08-18T07:12:31.000Z</time>
      </trkpt>
      <trkpt lat="22.898871" lon="111.126648">
        <ele>157.214819</ele>
        <time>2026-08-18T07:12:32.000Z</time>
      </trkpt>
      <trkpt lat="22.898864" lon="111.126709">
        <ele>157.221384</ele>
        <time>2026-08-18T07:12:33.000Z</time>
      </trkpt>
      <trkpt lat="22.898857" lon="111.126768">
        <ele>157.227737</ele>
        <time>2026-08-18T07:12:34.000Z</time>
      </trkpt>
      <trkpt lat="22.898853" lon="111.126826">
        <ele>157.233949</ele>
        <time>2026-08-18T07:12:35.000Z</time>
      </trkpt>
      <trkpt lat="22.898848" lon="111.126883">
        <ele>157.240064</ele>
        <time>2026-08-18T07:12:36.000Z</time>
      </trkpt>
      <trkpt lat="22.898846" lon="111.126939">
        <ele>157.246049</ele>
        <time>2026-08-18T07:12:37.000Z</time>
      </trkpt>
      <trkpt lat="22.898840" lon="111.126996">
        <ele>157.252177</ele>
        <time>2026-08-18T07:12:38.000Z</time>
      </trkpt>
      <trkpt lat="22.898839" lon="111.127054">
        <ele>157.258372</ele>
        <time>2026-08-18T07:12:39.000Z</time>
      </trkpt>
      <trkpt lat="22.898838" lon="111.127111">
        <ele>157.264461</ele>
        <time>2026-08-18T07:12:40.000Z</time>
      </trkpt>
      <trkpt lat="22.898838" lon="111.127168">
        <ele>157.270549</ele>
        <time>2026-08-18T07:12:41.000Z</time>
      </trkpt>
      <trkpt lat="22.898837" lon="111.127224">
        <ele>157.283007</ele>
        <time>2026-08-18T07:12:42.000Z</time>
      </trkpt>
      <trkpt lat="22.898836" lon="111.127282">
        <ele>157.296647</ele>
        <time>2026-08-18T07:12:43.000Z</time>
      </trkpt>
      <trkpt lat="22.898837" lon="111.127340">
        <ele>157.310287</ele>
        <time>2026-08-18T07:12:44.000Z</time>
      </trkpt>
      <trkpt lat="22.898839" lon="111.127397">
        <ele>157.323698</ele>
        <time>2026-08-18T07:12:45.000Z</time>
      </trkpt>
      <trkpt lat="22.898843" lon="111.127454">
        <ele>157.337139</ele>
        <time>2026-08-18T07:12:46.000Z</time>
      </trkpt>
      <trkpt lat="22.898844" lon="111.127511">
        <ele>157.350544</ele>
        <time>2026-08-18T07:12:47.000Z</time>
      </trkpt>
      <trkpt lat="22.898845" lon="111.127565">
        <ele>157.363243</ele>
        <time>2026-08-18T07:12:48.000Z</time>
      </trkpt>
      <trkpt lat="22.898846" lon="111.127619">
        <ele>157.375942</ele>
        <time>2026-08-18T07:12:49.000Z</time>
      </trkpt>
      <trkpt lat="22.898847" lon="111.127675">
        <ele>157.389111</ele>
        <time>2026-08-18T07:12:50.000Z</time>
      </trkpt>
      <trkpt lat="22.898848" lon="111.127730">
        <ele>157.402046</ele>
        <time>2026-08-18T07:12:51.000Z</time>
      </trkpt>
      <trkpt lat="22.898851" lon="111.127785">
        <ele>157.415000</ele>
        <time>2026-08-18T07:12:52.000Z</time>
      </trkpt>
      <trkpt lat="22.898858" lon="111.127840">
        <ele>157.428055</ele>
        <time>2026-08-18T07:12:53.000Z</time>
      </trkpt>
      <trkpt lat="22.898865" lon="111.127898">
        <ele>157.441809</ele>
        <time>2026-08-18T07:12:54.000Z</time>
      </trkpt>
      <trkpt lat="22.898869" lon="111.127954">
        <ele>157.455015</ele>
        <time>2026-08-18T07:12:55.000Z</time>
      </trkpt>
      <trkpt lat="22.898875" lon="111.128011">
        <ele>157.468504</ele>
        <time>2026-08-18T07:12:56.000Z</time>
      </trkpt>
      <trkpt lat="22.898881" lon="111.128070">
        <ele>157.482461</ele>
        <time>2026-08-18T07:12:57.000Z</time>
      </trkpt>
      <trkpt lat="22.898887" lon="111.128127">
        <ele>157.495950</ele>
        <time>2026-08-18T07:12:58.000Z</time>
      </trkpt>
      <trkpt lat="22.898898" lon="111.128185">
        <ele>157.509873</ele>
        <time>2026-08-18T07:12:59.000Z</time>
      </trkpt>
      <trkpt lat="22.898909" lon="111.128243">
        <ele>157.523796</ele>
        <time>2026-08-18T07:13:00.000Z</time>
      </trkpt>
      <trkpt lat="22.898915" lon="111.128303">
        <ele>157.537987</ele>
        <time>2026-08-18T07:13:01.000Z</time>
      </trkpt>
      <trkpt lat="22.898924" lon="111.128362">
        <ele>157.552048</ele>
        <time>2026-08-18T07:13:02.000Z</time>
      </trkpt>
      <trkpt lat="22.898933" lon="111.128422">
        <ele>157.566341</ele>
        <time>2026-08-18T07:13:03.000Z</time>
      </trkpt>
      <trkpt lat="22.898947" lon="111.128481">
        <ele>157.580666</ele>
        <time>2026-08-18T07:13:04.000Z</time>
      </trkpt>
      <trkpt lat="22.898959" lon="111.128539">
        <ele>157.594643</ele>
        <time>2026-08-18T07:13:05.000Z</time>
      </trkpt>
      <trkpt lat="22.898975" lon="111.128597">
        <ele>157.608878</ele>
        <time>2026-08-18T07:13:06.000Z</time>
      </trkpt>
      <trkpt lat="22.898984" lon="111.128653">
        <ele>157.622244</ele>
        <time>2026-08-18T07:13:07.000Z</time>
      </trkpt>
      <trkpt lat="22.899000" lon="111.128710">
        <ele>157.636255</ele>
        <time>2026-08-18T07:13:08.000Z</time>
      </trkpt>
      <trkpt lat="22.899016" lon="111.128770">
        <ele>157.650941</ele>
        <time>2026-08-18T07:13:09.000Z</time>
      </trkpt>
      <trkpt lat="22.899030" lon="111.128829">
        <ele>157.665266</ele>
        <time>2026-08-18T07:13:10.000Z</time>
      </trkpt>
      <trkpt lat="22.899044" lon="111.128888">
        <ele>157.679591</ele>
        <time>2026-08-18T07:13:11.000Z</time>
      </trkpt>
      <trkpt lat="22.899059" lon="111.128946">
        <ele>157.693756</ele>
        <time>2026-08-18T07:13:12.000Z</time>
      </trkpt>
      <trkpt lat="22.899076" lon="111.129006">
        <ele>157.708515</ele>
        <time>2026-08-18T07:13:13.000Z</time>
      </trkpt>
      <trkpt lat="22.899090" lon="111.129064">
        <ele>157.722613</ele>
        <time>2026-08-18T07:13:14.000Z</time>
      </trkpt>
      <trkpt lat="22.899105" lon="111.129123">
        <ele>157.736683</ele>
        <time>2026-08-18T07:13:15.000Z</time>
      </trkpt>
      <trkpt lat="22.899122" lon="111.129181">
        <ele>157.750317</ele>
        <time>2026-08-18T07:13:16.000Z</time>
      </trkpt>
      <trkpt lat="22.899138" lon="111.129240">
        <ele>157.764093</ele>
        <time>2026-08-18T07:13:17.000Z</time>
      </trkpt>
      <trkpt lat="22.899157" lon="111.129301">
        <ele>157.778517</ele>
        <time>2026-08-18T07:13:18.000Z</time>
      </trkpt>
      <trkpt lat="22.899173" lon="111.129358">
        <ele>157.791865</ele>
        <time>2026-08-18T07:13:19.000Z</time>
      </trkpt>
      <trkpt lat="22.899187" lon="111.129419">
        <ele>157.805946</ele>
        <time>2026-08-18T07:13:20.000Z</time>
      </trkpt>
      <trkpt lat="22.899199" lon="111.129479">
        <ele>157.819699</ele>
        <time>2026-08-18T07:13:21.000Z</time>
      </trkpt>
      <trkpt lat="22.899215" lon="111.129540">
        <ele>157.833906</ele>
        <time>2026-08-18T07:13:22.000Z</time>
      </trkpt>
      <trkpt lat="22.899230" lon="111.129600">
        <ele>157.847832</ele>
        <time>2026-08-18T07:13:23.000Z</time>
      </trkpt>
      <trkpt lat="22.899243" lon="111.129658">
        <ele>157.861203</ele>
        <time>2026-08-18T07:13:24.000Z</time>
      </trkpt>
      <trkpt lat="22.899256" lon="111.129717">
        <ele>157.874792</ele>
        <time>2026-08-18T07:13:25.000Z</time>
      </trkpt>
      <trkpt lat="22.899269" lon="111.129778">
        <ele>157.888817</ele>
        <time>2026-08-18T07:13:26.000Z</time>
      </trkpt>
      <trkpt lat="22.899280" lon="111.129840">
        <ele>157.902960</ele>
        <time>2026-08-18T07:13:27.000Z</time>
      </trkpt>
      <trkpt lat="22.899294" lon="111.129898">
        <ele>157.916390</ele>
        <time>2026-08-18T07:13:28.000Z</time>
      </trkpt>
      <trkpt lat="22.899308" lon="111.129958">
        <ele>157.930255</ele>
        <time>2026-08-18T07:13:29.000Z</time>
      </trkpt>
      <trkpt lat="22.899317" lon="111.130017">
        <ele>157.943650</ele>
        <time>2026-08-18T07:13:30.000Z</time>
      </trkpt>
      <trkpt lat="22.899328" lon="111.130077">
        <ele>157.957354</ele>
        <time>2026-08-18T07:13:31.000Z</time>
      </trkpt>
      <trkpt lat="22.899339" lon="111.130136">
        <ele>157.970838</ele>
        <time>2026-08-18T07:13:32.000Z</time>
      </trkpt>
      <trkpt lat="22.899352" lon="111.130194">
        <ele>157.984209</ele>
        <time>2026-08-18T07:13:33.000Z</time>
      </trkpt>
      <trkpt lat="22.899367" lon="111.130251">
        <ele>157.997487</ele>
        <time>2026-08-18T07:13:34.000Z</time>
      </trkpt>
      <trkpt lat="22.899382" lon="111.130312">
        <ele>158.011630</ele>
        <time>2026-08-18T07:13:35.000Z</time>
      </trkpt>
      <trkpt lat="22.899398" lon="111.130373">
        <ele>158.025837</ele>
        <time>2026-08-18T07:13:36.000Z</time>
      </trkpt>
      <trkpt lat="22.899411" lon="111.130435">
        <ele>158.040080</ele>
        <time>2026-08-18T07:13:37.000Z</time>
      </trkpt>
      <trkpt lat="22.899424" lon="111.130496">
        <ele>158.054104</ele>
        <time>2026-08-18T07:13:38.000Z</time>
      </trkpt>
      <trkpt lat="22.899437" lon="111.130556">
        <ele>158.067911</ele>
        <time>2026-08-18T07:13:39.000Z</time>
      </trkpt>
      <trkpt lat="22.899450" lon="111.130617">
        <ele>158.081936</ele>
        <time>2026-08-18T07:13:40.000Z</time>
      </trkpt>
      <trkpt lat="22.899464" lon="111.130677">
        <ele>158.095800</ele>
        <time>2026-08-18T07:13:41.000Z</time>
      </trkpt>
      <trkpt lat="22.899478" lon="111.130734">
        <ele>158.109014</ele>
        <time>2026-08-18T07:13:42.000Z</time>
      </trkpt>
      <trkpt lat="22.899492" lon="111.130791">
        <ele>158.122228</ele>
        <time>2026-08-18T07:13:43.000Z</time>
      </trkpt>
      <trkpt lat="22.899505" lon="111.130847">
        <ele>158.135164</ele>
        <time>2026-08-18T07:13:44.000Z</time>
      </trkpt>
      <trkpt lat="22.899516" lon="111.130903">
        <ele>158.147990</ele>
        <time>2026-08-18T07:13:45.000Z</time>
      </trkpt>
      <trkpt lat="22.899530" lon="111.130959">
        <ele>158.160987</ele>
        <time>2026-08-18T07:13:46.000Z</time>
      </trkpt>
      <trkpt lat="22.899544" lon="111.131013">
        <ele>158.180565</ele>
        <time>2026-08-18T07:13:47.000Z</time>
      </trkpt>
      <trkpt lat="22.899563" lon="111.131067">
        <ele>158.208718</ele>
        <time>2026-08-18T07:13:48.000Z</time>
      </trkpt>
      <trkpt lat="22.899580" lon="111.131123">
        <ele>158.237435</ele>
        <time>2026-08-18T07:13:49.000Z</time>
      </trkpt>
      <trkpt lat="22.899595" lon="111.131177">
        <ele>158.264905</ele>
        <time>2026-08-18T07:13:50.000Z</time>
      </trkpt>
      <trkpt lat="22.899611" lon="111.131232">
        <ele>158.292997</ele>
        <time>2026-08-18T07:13:51.000Z</time>
      </trkpt>
      <trkpt lat="22.899620" lon="111.131286">
        <ele>158.319724</ele>
        <time>2026-08-18T07:13:52.000Z</time>
      </trkpt>
      <trkpt lat="22.899633" lon="111.131339">
        <ele>158.346437</ele>
        <time>2026-08-18T07:13:53.000Z</time>
      </trkpt>
      <trkpt lat="22.899644" lon="111.131391">
        <ele>158.372422</ele>
        <time>2026-08-18T07:13:54.000Z</time>
      </trkpt>
      <trkpt lat="22.899656" lon="111.131445">
        <ele>158.399477</ele>
        <time>2026-08-18T07:13:55.000Z</time>
      </trkpt>
      <trkpt lat="22.899671" lon="111.131499">
        <ele>158.426947</ele>
        <time>2026-08-18T07:13:56.000Z</time>
      </trkpt>
      <trkpt lat="22.899684" lon="111.131553">
        <ele>158.454131</ele>
        <time>2026-08-18T07:13:57.000Z</time>
      </trkpt>
      <trkpt lat="22.899694" lon="111.131606">
        <ele>158.480480</ele>
        <time>2026-08-18T07:13:58.000Z</time>
      </trkpt>
      <trkpt lat="22.899707" lon="111.131659">
        <ele>158.507193</ele>
        <time>2026-08-18T07:13:59.000Z</time>
      </trkpt>
      <trkpt lat="22.899717" lon="111.131711">
        <ele>158.533065</ele>
        <time>2026-08-18T07:14:00.000Z</time>
      </trkpt>
      <trkpt lat="22.899729" lon="111.131764">
        <ele>158.559646</ele>
        <time>2026-08-18T07:14:01.000Z</time>
      </trkpt>
      <trkpt lat="22.899740" lon="111.131817">
        <ele>158.586107</ele>
        <time>2026-08-18T07:14:02.000Z</time>
      </trkpt>
      <trkpt lat="22.899754" lon="111.131867">
        <ele>158.611559</ele>
        <time>2026-08-18T07:14:03.000Z</time>
      </trkpt>
      <trkpt lat="22.899765" lon="111.131918">
        <ele>158.637070</ele>
        <time>2026-08-18T07:14:04.000Z</time>
      </trkpt>
      <trkpt lat="22.899777" lon="111.131970">
        <ele>158.663179</ele>
        <time>2026-08-18T07:14:05.000Z</time>
      </trkpt>
      <trkpt lat="22.899790" lon="111.132022">
        <ele>158.689421</ele>
        <time>2026-08-18T07:14:06.000Z</time>
      </trkpt>
      <trkpt lat="22.899803" lon="111.132072">
        <ele>158.714724</ele>
        <time>2026-08-18T07:14:07.000Z</time>
      </trkpt>
      <trkpt lat="22.899815" lon="111.132123">
        <ele>158.740361</ele>
        <time>2026-08-18T07:14:08.000Z</time>
      </trkpt>
      <trkpt lat="22.899827" lon="111.132173">
        <ele>158.765526</ele>
        <time>2026-08-18T07:14:09.000Z</time>
      </trkpt>
      <trkpt lat="22.899838" lon="111.132224">
        <ele>158.791037</ele>
        <time>2026-08-18T07:14:10.000Z</time>
      </trkpt>
      <trkpt lat="22.899851" lon="111.132276">
        <ele>158.817279</ele>
        <time>2026-08-18T07:14:11.000Z</time>
      </trkpt>
      <trkpt lat="22.899863" lon="111.132327">
        <ele>158.842916</ele>
        <time>2026-08-18T07:14:12.000Z</time>
      </trkpt>
      <trkpt lat="22.899872" lon="111.132377">
        <ele>158.867729</ele>
        <time>2026-08-18T07:14:13.000Z</time>
      </trkpt>
      <trkpt lat="22.899881" lon="111.132427">
        <ele>158.892541</ele>
        <time>2026-08-18T07:14:14.000Z</time>
      </trkpt>
      <trkpt lat="22.899890" lon="111.132478">
        <ele>158.917832</ele>
        <time>2026-08-18T07:14:15.000Z</time>
      </trkpt>
      <trkpt lat="22.899901" lon="111.132529">
        <ele>158.943343</ele>
        <time>2026-08-18T07:14:16.000Z</time>
      </trkpt>
      <trkpt lat="22.899909" lon="111.132579">
        <ele>158.968060</ele>
        <time>2026-08-18T07:14:17.000Z</time>
      </trkpt>
      <trkpt lat="22.899918" lon="111.132630">
        <ele>158.993351</ele>
        <time>2026-08-18T07:14:18.000Z</time>
      </trkpt>
      <trkpt lat="22.899927" lon="111.132680">
        <ele>159.018163</ele>
        <time>2026-08-18T07:14:19.000Z</time>
      </trkpt>
      <trkpt lat="22.899935" lon="111.132730">
        <ele>159.042880</ele>
        <time>2026-08-18T07:14:20.000Z</time>
      </trkpt>
      <trkpt lat="22.899946" lon="111.132780">
        <ele>159.067917</ele>
        <time>2026-08-18T07:14:21.000Z</time>
      </trkpt>
      <trkpt lat="22.899956" lon="111.132830">
        <ele>159.092836</ele>
        <time>2026-08-18T07:14:22.000Z</time>
      </trkpt>
      <trkpt lat="22.899965" lon="111.132882">
        <ele>159.118640</ele>
        <time>2026-08-18T07:14:23.000Z</time>
      </trkpt>
      <trkpt lat="22.899974" lon="111.132933">
        <ele>159.158561</ele>
        <time>2026-08-18T07:14:24.000Z</time>
      </trkpt>
      <trkpt lat="22.899984" lon="111.132984">
        <ele>159.198648</ele>
        <time>2026-08-18T07:14:25.000Z</time>
      </trkpt>
      <trkpt lat="22.899993" lon="111.133036">
        <ele>159.239324</ele>
        <time>2026-08-18T07:14:26.000Z</time>
      </trkpt>
      <trkpt lat="22.900003" lon="111.133086">
        <ele>159.278659</ele>
        <time>2026-08-18T07:14:27.000Z</time>
      </trkpt>
      <trkpt lat="22.900013" lon="111.133136">
        <ele>159.317994</ele>
        <time>2026-08-18T07:14:28.000Z</time>
      </trkpt>
      <trkpt lat="22.900022" lon="111.133186">
        <ele>159.357161</ele>
        <time>2026-08-18T07:14:29.000Z</time>
      </trkpt>
      <trkpt lat="22.900031" lon="111.133236">
        <ele>159.396327</ele>
        <time>2026-08-18T07:14:30.000Z</time>
      </trkpt>
      <trkpt lat="22.900038" lon="111.133287">
        <ele>159.435968</ele>
        <time>2026-08-18T07:14:31.000Z</time>
      </trkpt>
      <trkpt lat="22.900046" lon="111.133338">
        <ele>159.475741</ele>
        <time>2026-08-18T07:14:32.000Z</time>
      </trkpt>
      <trkpt lat="22.900056" lon="111.133391">
        <ele>159.517333</ele>
        <time>2026-08-18T07:14:33.000Z</time>
      </trkpt>
      <trkpt lat="22.900064" lon="111.133443">
        <ele>159.557863</ele>
        <time>2026-08-18T07:14:34.000Z</time>
      </trkpt>
      <trkpt lat="22.900074" lon="111.133494">
        <ele>159.597950</ele>
        <time>2026-08-18T07:14:35.000Z</time>
      </trkpt>
      <trkpt lat="22.900084" lon="111.133546">
        <ele>159.638789</ele>
        <time>2026-08-18T07:14:36.000Z</time>
      </trkpt>
      <trkpt lat="22.900093" lon="111.133597">
        <ele>159.678710</ele>
        <time>2026-08-18T07:14:37.000Z</time>
      </trkpt>
      <trkpt lat="22.900103" lon="111.133648">
        <ele>159.718797</ele>
        <time>2026-08-18T07:14:38.000Z</time>
      </trkpt>
      <trkpt lat="22.900115" lon="111.133701">
        <ele>159.760755</ele>
        <time>2026-08-18T07:14:39.000Z</time>
      </trkpt>
      <trkpt lat="22.900126" lon="111.133754">
        <ele>159.802522</ele>
        <time>2026-08-18T07:14:40.000Z</time>
      </trkpt>
      <trkpt lat="22.900136" lon="111.133808">
        <ele>159.844867</ele>
        <time>2026-08-18T07:14:41.000Z</time>
      </trkpt>
      <trkpt lat="22.900146" lon="111.133861">
        <ele>159.886459</ele>
        <time>2026-08-18T07:14:42.000Z</time>
      </trkpt>
      <trkpt lat="22.900156" lon="111.133913">
        <ele>159.927298</ele>
        <time>2026-08-18T07:14:43.000Z</time>
      </trkpt>
      <trkpt lat="22.900168" lon="111.133964">
        <ele>159.967765</ele>
        <time>2026-08-18T07:14:44.000Z</time>
      </trkpt>
      <trkpt lat="22.900177" lon="111.134013">
        <ele>160.006177</ele>
        <time>2026-08-18T07:14:45.000Z</time>
      </trkpt>
      <trkpt lat="22.900185" lon="111.134062">
        <ele>160.044435</ele>
        <time>2026-08-18T07:14:46.000Z</time>
      </trkpt>
      <trkpt lat="22.900196" lon="111.134112">
        <ele>160.083955</ele>
        <time>2026-08-18T07:14:47.000Z</time>
      </trkpt>
      <trkpt lat="22.900209" lon="111.134161">
        <ele>160.123157</ele>
        <time>2026-08-18T07:14:48.000Z</time>
      </trkpt>
      <trkpt lat="22.900221" lon="111.134210">
        <ele>160.162136</ele>
        <time>2026-08-18T07:14:49.000Z</time>
      </trkpt>
      <trkpt lat="22.900231" lon="111.134259">
        <ele>160.200720</ele>
        <time>2026-08-18T07:14:50.000Z</time>
      </trkpt>
      <trkpt lat="22.900239" lon="111.134309">
        <ele>160.239735</ele>
        <time>2026-08-18T07:14:51.000Z</time>
      </trkpt>
      <trkpt lat="22.900245" lon="111.134359">
        <ele>160.278500</ele>
        <time>2026-08-18T07:14:52.000Z</time>
      </trkpt>
      <trkpt lat="22.900252" lon="111.134408">
        <ele>160.316620</ele>
        <time>2026-08-18T07:14:53.000Z</time>
      </trkpt>
      <trkpt lat="22.900260" lon="111.134456">
        <ele>160.354121</ele>
        <time>2026-08-18T07:14:54.000Z</time>
      </trkpt>
      <trkpt lat="22.900267" lon="111.134504">
        <ele>160.391483</ele>
        <time>2026-08-18T07:14:55.000Z</time>
      </trkpt>
      <trkpt lat="22.900273" lon="111.134552">
        <ele>160.428723</ele>
        <time>2026-08-18T07:14:56.000Z</time>
      </trkpt>
      <trkpt lat="22.900279" lon="111.134601">
        <ele>160.466725</ele>
        <time>2026-08-18T07:14:57.000Z</time>
      </trkpt>
      <trkpt lat="22.900285" lon="111.134651">
        <ele>160.505489</ele>
        <time>2026-08-18T07:14:58.000Z</time>
      </trkpt>
      <trkpt lat="22.900292" lon="111.134700">
        <ele>160.543610</ele>
        <time>2026-08-18T07:14:59.000Z</time>
      </trkpt>
      <trkpt lat="22.900301" lon="111.134750">
        <ele>160.582776</ele>
        <time>2026-08-18T07:15:00.000Z</time>
      </trkpt>
      <trkpt lat="22.900309" lon="111.134798">
        <ele>160.621323</ele>
        <time>2026-08-18T07:15:01.000Z</time>
      </trkpt>
      <trkpt lat="22.900319" lon="111.134845">
        <ele>160.718605</ele>
        <time>2026-08-18T07:15:02.000Z</time>
      </trkpt>
      <trkpt lat="22.900328" lon="111.134893">
        <ele>160.817393</ele>
        <time>2026-08-18T07:15:03.000Z</time>
      </trkpt>
      <trkpt lat="22.900336" lon="111.134940">
        <ele>160.913784</ele>
        <time>2026-08-18T07:15:04.000Z</time>
      </trkpt>
      <trkpt lat="22.900343" lon="111.134989">
        <ele>161.013785</ele>
        <time>2026-08-18T07:15:05.000Z</time>
      </trkpt>
      <trkpt lat="22.900351" lon="111.135036">
        <ele>161.110176</ele>
        <time>2026-08-18T07:15:06.000Z</time>
      </trkpt>
      <trkpt lat="22.900359" lon="111.135084">
        <ele>161.208551</ele>
        <time>2026-08-18T07:15:07.000Z</time>
      </trkpt>
      <trkpt lat="22.900369" lon="111.135131">
        <ele>161.305832</ele>
        <time>2026-08-18T07:15:08.000Z</time>
      </trkpt>
      <trkpt lat="22.900378" lon="111.135178">
        <ele>161.402645</ele>
        <time>2026-08-18T07:15:09.000Z</time>
      </trkpt>
      <trkpt lat="22.900387" lon="111.135227">
        <ele>161.503410</ele>
        <time>2026-08-18T07:15:10.000Z</time>
      </trkpt>
      <trkpt lat="22.900395" lon="111.135276">
        <ele>161.603770</ele>
        <time>2026-08-18T07:15:11.000Z</time>
      </trkpt>
      <trkpt lat="22.900404" lon="111.135324">
        <ele>161.702558</ele>
        <time>2026-08-18T07:15:12.000Z</time>
      </trkpt>
      <trkpt lat="22.900412" lon="111.135371">
        <ele>161.798949</ele>
        <time>2026-08-18T07:15:13.000Z</time>
      </trkpt>
      <trkpt lat="22.900420" lon="111.135417">
        <ele>161.893357</ele>
        <time>2026-08-18T07:15:14.000Z</time>
      </trkpt>
      <trkpt lat="22.900425" lon="111.135462">
        <ele>161.984768</ele>
        <time>2026-08-18T07:15:15.000Z</time>
      </trkpt>
      <trkpt lat="22.900430" lon="111.135508">
        <ele>162.078181</ele>
        <time>2026-08-18T07:15:16.000Z</time>
      </trkpt>
      <trkpt lat="22.900440" lon="111.135553">
        <ele>162.171537</ele>
        <time>2026-08-18T07:15:17.000Z</time>
      </trkpt>
      <trkpt lat="22.900449" lon="111.135599">
        <ele>162.266376</ele>
        <time>2026-08-18T07:15:18.000Z</time>
      </trkpt>
      <trkpt lat="22.900456" lon="111.135644">
        <ele>162.358414</ele>
        <time>2026-08-18T07:15:19.000Z</time>
      </trkpt>
      <trkpt lat="22.900462" lon="111.135688">
        <ele>162.448117</ele>
        <time>2026-08-18T07:15:20.000Z</time>
      </trkpt>
      <trkpt lat="22.900469" lon="111.135730">
        <ele>162.534195</ele>
        <time>2026-08-18T07:15:21.000Z</time>
      </trkpt>
      <trkpt lat="22.900477" lon="111.135771">
        <ele>162.618716</ele>
        <time>2026-08-18T07:15:22.000Z</time>
      </trkpt>
      <trkpt lat="22.900485" lon="111.135813">
        <ele>162.705210</ele>
        <time>2026-08-18T07:15:23.000Z</time>
      </trkpt>
      <trkpt lat="22.900495" lon="111.135855">
        <ele>162.792696</ele>
        <time>2026-08-18T07:15:24.000Z</time>
      </trkpt>
      <trkpt lat="22.900502" lon="111.135894">
        <ele>162.872828</ele>
        <time>2026-08-18T07:15:25.000Z</time>
      </trkpt>
      <trkpt lat="22.900510" lon="111.135932">
        <ele>162.951439</ele>
        <time>2026-08-18T07:15:26.000Z</time>
      </trkpt>
      <trkpt lat="22.900517" lon="111.135971">
        <ele>163.031571</ele>
        <time>2026-08-18T07:15:27.000Z</time>
      </trkpt>
      <trkpt lat="22.900523" lon="111.136010">
        <ele>163.111313</ele>
        <time>2026-08-18T07:15:28.000Z</time>
      </trkpt>
      <trkpt lat="22.900529" lon="111.136050">
        <ele>163.193044</ele>
        <time>2026-08-18T07:15:29.000Z</time>
      </trkpt>
      <trkpt lat="22.900537" lon="111.136089">
        <ele>163.273623</ele>
        <time>2026-08-18T07:15:30.000Z</time>
      </trkpt>
      <trkpt lat="22.900543" lon="111.136128">
        <ele>163.353365</ele>
        <time>2026-08-18T07:15:31.000Z</time>
      </trkpt>
      <trkpt lat="22.900552" lon="111.136167">
        <ele>163.434448</ele>
        <time>2026-08-18T07:15:32.000Z</time>
      </trkpt>
      <trkpt lat="22.900563" lon="111.136204">
        <ele>163.512857</ele>
        <time>2026-08-18T07:15:33.000Z</time>
      </trkpt>
      <trkpt lat="22.900572" lon="111.136242">
        <ele>163.591985</ele>
        <time>2026-08-18T07:15:34.000Z</time>
      </trkpt>
      <trkpt lat="22.900579" lon="111.136280">
        <ele>163.670138</ele>
        <time>2026-08-18T07:15:35.000Z</time>
      </trkpt>
      <trkpt lat="22.900586" lon="111.136318">
        <ele>163.748291</ele>
        <time>2026-08-18T07:15:36.000Z</time>
      </trkpt>
      <trkpt lat="22.900590" lon="111.136356">
        <ele>163.825425</ele>
        <time>2026-08-18T07:15:37.000Z</time>
      </trkpt>
      <trkpt lat="22.900597" lon="111.136394">
        <ele>163.903578</ele>
        <time>2026-08-18T07:15:38.000Z</time>
      </trkpt>
      <trkpt lat="22.900607" lon="111.136435">
        <ele>163.989113</ele>
        <time>2026-08-18T07:15:39.000Z</time>
      </trkpt>
      <trkpt lat="22.900615" lon="111.136476">
        <ele>164.073633</ele>
        <time>2026-08-18T07:15:40.000Z</time>
      </trkpt>
      <trkpt lat="22.900620" lon="111.136516">
        <ele>164.155042</ele>
        <time>2026-08-18T07:15:41.000Z</time>
      </trkpt>
      <trkpt lat="22.900625" lon="111.136557">
        <ele>164.238449</ele>
        <time>2026-08-18T07:15:42.000Z</time>
      </trkpt>
      <trkpt lat="22.900632" lon="111.136596">
        <ele>164.318581</ele>
        <time>2026-08-18T07:15:43.000Z</time>
      </trkpt>
      <trkpt lat="22.900640" lon="111.136636">
        <ele>164.401129</ele>
        <time>2026-08-18T07:15:44.000Z</time>
      </trkpt>
      <trkpt lat="22.900646" lon="111.136676">
        <ele>164.482861</ele>
        <time>2026-08-18T07:15:45.000Z</time>
      </trkpt>
      <trkpt lat="22.900652" lon="111.136717">
        <ele>164.573724</ele>
        <time>2026-08-18T07:15:46.000Z</time>
      </trkpt>
      <trkpt lat="22.900658" lon="111.136757">
        <ele>164.718831</ele>
        <time>2026-08-18T07:15:47.000Z</time>
      </trkpt>
      <trkpt lat="22.900666" lon="111.136795">
        <ele>164.858399</ele>
        <time>2026-08-18T07:15:48.000Z</time>
      </trkpt>
      <trkpt lat="22.900673" lon="111.136831">
        <ele>164.990138</ele>
        <time>2026-08-18T07:15:49.000Z</time>
      </trkpt>
      <trkpt lat="22.900680" lon="111.136867">
        <ele>165.121877</ele>
        <time>2026-08-18T07:15:50.000Z</time>
      </trkpt>
      <trkpt lat="22.900686" lon="111.136904">
        <ele>165.256394</ele>
        <time>2026-08-18T07:15:51.000Z</time>
      </trkpt>
      <trkpt lat="22.900692" lon="111.136940">
        <ele>165.387385</ele>
        <time>2026-08-18T07:15:52.000Z</time>
      </trkpt>
      <trkpt lat="22.900698" lon="111.136976">
        <ele>165.518377</ele>
        <time>2026-08-18T07:15:53.000Z</time>
      </trkpt>
      <trkpt lat="22.900702" lon="111.137012">
        <ele>165.648210</ele>
        <time>2026-08-18T07:15:54.000Z</time>
      </trkpt>
      <trkpt lat="22.900706" lon="111.137046">
        <ele>165.770937</ele>
        <time>2026-08-18T07:15:55.000Z</time>
      </trkpt>
      <trkpt lat="22.900711" lon="111.137081">
        <ele>165.897753</ele>
        <time>2026-08-18T07:15:56.000Z</time>
      </trkpt>
      <trkpt lat="22.900715" lon="111.137116">
        <ele>166.024032</ele>
        <time>2026-08-18T07:15:57.000Z</time>
      </trkpt>
      <trkpt lat="22.900716" lon="111.137148">
        <ele>166.138675</ele>
        <time>2026-08-18T07:15:58.000Z</time>
      </trkpt>
      <trkpt lat="22.900719" lon="111.137180">
        <ele>166.253843</ele>
        <time>2026-08-18T07:15:59.000Z</time>
      </trkpt>
      <trkpt lat="22.900722" lon="111.137213">
        <ele>166.372575</ele>
        <time>2026-08-18T07:16:00.000Z</time>
      </trkpt>
      <trkpt lat="22.900724" lon="111.137246">
        <ele>166.490987</ele>
        <time>2026-08-18T07:16:01.000Z</time>
      </trkpt>
      <trkpt lat="22.900724" lon="111.137279">
        <ele>166.609145</ele>
        <time>2026-08-18T07:16:02.000Z</time>
      </trkpt>
      <trkpt lat="22.900725" lon="111.137311">
        <ele>166.723787</ele>
        <time>2026-08-18T07:16:03.000Z</time>
      </trkpt>
      <trkpt lat="22.900725" lon="111.137342">
        <ele>166.834783</ele>
        <time>2026-08-18T07:16:04.000Z</time>
      </trkpt>
      <trkpt lat="22.900724" lon="111.137372">
        <ele>166.942269</ele>
        <time>2026-08-18T07:16:05.000Z</time>
      </trkpt>
      <trkpt lat="22.900721" lon="111.137402">
        <ele>167.050316</ele>
        <time>2026-08-18T07:16:06.000Z</time>
      </trkpt>
      <trkpt lat="22.900722" lon="111.137435">
        <ele>167.168537</ele>
        <time>2026-08-18T07:16:07.000Z</time>
      </trkpt>
      <trkpt lat="22.900722" lon="111.137467">
        <ele>167.283114</ele>
        <time>2026-08-18T07:16:08.000Z</time>
      </trkpt>
      <trkpt lat="22.900721" lon="111.137500">
        <ele>167.401335</ele>
        <time>2026-08-18T07:16:09.000Z</time>
      </trkpt>
      <trkpt lat="22.900720" lon="111.137533">
        <ele>167.519556</ele>
        <time>2026-08-18T07:16:10.000Z</time>
      </trkpt>
      <trkpt lat="22.900720" lon="111.137564">
        <ele>167.630553</ele>
        <time>2026-08-18T07:16:11.000Z</time>
      </trkpt>
      <trkpt lat="22.900719" lon="111.137595">
        <ele>167.741617</ele>
        <time>2026-08-18T07:16:12.000Z</time>
      </trkpt>
      <trkpt lat="22.900719" lon="111.137629">
        <ele>167.863355</ele>
        <time>2026-08-18T07:16:13.000Z</time>
      </trkpt>
      <trkpt lat="22.900718" lon="111.137662">
        <ele>167.981576</ele>
        <time>2026-08-18T07:16:14.000Z</time>
      </trkpt>
      <trkpt lat="22.900716" lon="111.137696">
        <ele>168.103562</ele>
        <time>2026-08-18T07:16:15.000Z</time>
      </trkpt>
      <trkpt lat="22.900715" lon="111.137731">
        <ele>168.228940</ele>
        <time>2026-08-18T07:16:16.000Z</time>
      </trkpt>
      <trkpt lat="22.900712" lon="111.137764">
        <ele>168.347671</ele>
        <time>2026-08-18T07:16:17.000Z</time>
      </trkpt>
      <trkpt lat="22.900710" lon="111.137796">
        <ele>168.462512</ele>
        <time>2026-08-18T07:16:18.000Z</time>
      </trkpt>
      <trkpt lat="22.900710" lon="111.137829">
        <ele>168.580669</ele>
        <time>2026-08-18T07:16:19.000Z</time>
      </trkpt>
      <trkpt lat="22.900709" lon="111.137861">
        <ele>168.695311</ele>
        <time>2026-08-18T07:16:20.000Z</time>
      </trkpt>
      <trkpt lat="22.900706" lon="111.137894">
        <ele>168.814043</ele>
        <time>2026-08-18T07:16:21.000Z</time>
      </trkpt>
      <trkpt lat="22.900699" lon="111.137925">
        <ele>168.928325</ele>
        <time>2026-08-18T07:16:22.000Z</time>
      </trkpt>
      <trkpt lat="22.900692" lon="111.137955">
        <ele>169.039133</ele>
        <time>2026-08-18T07:16:23.000Z</time>
      </trkpt>
      <trkpt lat="22.900685" lon="111.137984">
        <ele>169.146474</ele>
        <time>2026-08-18T07:16:24.000Z</time>
      </trkpt>
      <trkpt lat="22.900677" lon="111.138014">
        <ele>169.258300</ele>
        <time>2026-08-18T07:16:25.000Z</time>
      </trkpt>
      <trkpt lat="22.900667" lon="111.138042">
        <ele>169.365826</ele>
        <time>2026-08-18T07:16:26.000Z</time>
      </trkpt>
      <trkpt lat="22.900661" lon="111.138070">
        <ele>169.468757</ele>
        <time>2026-08-18T07:16:27.000Z</time>
      </trkpt>
      <trkpt lat="22.900653" lon="111.138098">
        <ele>169.573723</ele>
        <time>2026-08-18T07:16:28.000Z</time>
      </trkpt>
      <trkpt lat="22.900646" lon="111.138126">
        <ele>169.677604</ele>
        <time>2026-08-18T07:16:29.000Z</time>
      </trkpt>
      <trkpt lat="22.900640" lon="111.138156">
        <ele>169.787523</ele>
        <time>2026-08-18T07:16:30.000Z</time>
      </trkpt>
      <trkpt lat="22.900632" lon="111.138187">
        <ele>169.902792</ele>
        <time>2026-08-18T07:16:31.000Z</time>
      </trkpt>
      <trkpt lat="22.900627" lon="111.138217">
        <ele>170.011952</ele>
        <time>2026-08-18T07:16:32.000Z</time>
      </trkpt>
      <trkpt lat="22.900620" lon="111.138245">
        <ele>170.115833</ele>
        <time>2026-08-18T07:16:33.000Z</time>
      </trkpt>
      <trkpt lat="22.900611" lon="111.138274">
        <ele>170.225403</ele>
        <time>2026-08-18T07:16:34.000Z</time>
      </trkpt>
      <trkpt lat="22.900605" lon="111.138304">
        <ele>170.335321</ele>
        <time>2026-08-18T07:16:35.000Z</time>
      </trkpt>
      <trkpt lat="22.900600" lon="111.138334">
        <ele>170.444481</ele>
        <time>2026-08-18T07:16:36.000Z</time>
      </trkpt>
      <trkpt lat="22.900588" lon="111.138365">
        <ele>170.564879</ele>
        <time>2026-08-18T07:16:37.000Z</time>
      </trkpt>
      <trkpt lat="22.900578" lon="111.138395">
        <ele>170.679111</ele>
        <time>2026-08-18T07:16:38.000Z</time>
      </trkpt>
      <trkpt lat="22.900569" lon="111.138425">
        <ele>170.792079</ele>
        <time>2026-08-18T07:16:39.000Z</time>
      </trkpt>
      <trkpt lat="22.900561" lon="111.138453">
        <ele>170.897046</ele>
        <time>2026-08-18T07:16:40.000Z</time>
      </trkpt>
      <trkpt lat="22.900556" lon="111.138482">
        <ele>171.002684</ele>
        <time>2026-08-18T07:16:41.000Z</time>
      </trkpt>
      <trkpt lat="22.900548" lon="111.138510">
        <ele>171.107650</ele>
        <time>2026-08-18T07:16:42.000Z</time>
      </trkpt>
      <trkpt lat="22.900540" lon="111.138539">
        <ele>171.216042</ele>
        <time>2026-08-18T07:16:43.000Z</time>
      </trkpt>
      <trkpt lat="22.900527" lon="111.138565">
        <ele>171.321965</ele>
        <time>2026-08-18T07:16:44.000Z</time>
      </trkpt>
      <trkpt lat="22.900511" lon="111.138593">
        <ele>171.439942</ele>
        <time>2026-08-18T07:16:45.000Z</time>
      </trkpt>
      <trkpt lat="22.900499" lon="111.138619">
        <ele>171.544067</ele>
        <time>2026-08-18T07:16:46.000Z</time>
      </trkpt>
      <trkpt lat="22.900486" lon="111.138649">
        <ele>171.577600</ele>
        <time>2026-08-18T07:16:47.000Z</time>
      </trkpt>
      <trkpt lat="22.900476" lon="111.138677">
        <ele>171.604986</ele>
        <time>2026-08-18T07:16:48.000Z</time>
      </trkpt>
      <trkpt lat="22.900469" lon="111.138707">
        <ele>171.633208</ele>
        <time>2026-08-18T07:16:49.000Z</time>
      </trkpt>
      <trkpt lat="22.900455" lon="111.138736">
        <ele>171.663065</ele>
        <time>2026-08-18T07:16:50.000Z</time>
      </trkpt>
      <trkpt lat="22.900446" lon="111.138764">
        <ele>171.690109</ele>
        <time>2026-08-18T07:16:51.000Z</time>
      </trkpt>
      <trkpt lat="22.900435" lon="111.138793">
        <ele>171.718709</ele>
        <time>2026-08-18T07:16:52.000Z</time>
      </trkpt>
      <trkpt lat="22.900424" lon="111.138823">
        <ele>171.748154</ele>
        <time>2026-08-18T07:16:53.000Z</time>
      </trkpt>
      <trkpt lat="22.900410" lon="111.138852">
        <ele>171.778011</ele>
        <time>2026-08-18T07:16:54.000Z</time>
      </trkpt>
      <trkpt lat="22.900394" lon="111.138881">
        <ele>171.808837</ele>
        <time>2026-08-18T07:16:55.000Z</time>
      </trkpt>
      <trkpt lat="22.900382" lon="111.138910">
        <ele>171.837829</ele>
        <time>2026-08-18T07:16:56.000Z</time>
      </trkpt>
      <trkpt lat="22.900370" lon="111.138936">
        <ele>171.864348</ele>
        <time>2026-08-18T07:16:57.000Z</time>
      </trkpt>
      <trkpt lat="22.900357" lon="111.138965">
        <ele>171.893759</ele>
        <time>2026-08-18T07:16:58.000Z</time>
      </trkpt>
      <trkpt lat="22.900341" lon="111.138994">
        <ele>171.924585</ele>
        <time>2026-08-18T07:16:59.000Z</time>
      </trkpt>
      <trkpt lat="22.900328" lon="111.139020">
        <ele>171.951563</ele>
        <time>2026-08-18T07:17:00.000Z</time>
      </trkpt>
      <trkpt lat="22.900318" lon="111.139047">
        <ele>171.978100</ele>
        <time>2026-08-18T07:17:01.000Z</time>
      </trkpt>
      <trkpt lat="22.900304" lon="111.139079">
        <ele>172.010406</ele>
        <time>2026-08-18T07:17:02.000Z</time>
      </trkpt>
      <trkpt lat="22.900288" lon="111.139108">
        <ele>172.041232</ele>
        <time>2026-08-18T07:17:03.000Z</time>
      </trkpt>
      <trkpt lat="22.900275" lon="111.139139">
        <ele>172.072293</ele>
        <time>2026-08-18T07:17:04.000Z</time>
      </trkpt>
      <trkpt lat="22.900261" lon="111.139166">
        <ele>172.100548</ele>
        <time>2026-08-18T07:17:05.000Z</time>
      </trkpt>
      <trkpt lat="22.900243" lon="111.139195">
        <ele>172.132436</ele>
        <time>2026-08-18T07:17:06.000Z</time>
      </trkpt>
      <trkpt lat="22.900223" lon="111.139226">
        <ele>172.166950</ele>
        <time>2026-08-18T07:17:07.000Z</time>
      </trkpt>
      <trkpt lat="22.900212" lon="111.139257">
        <ele>172.197244</ele>
        <time>2026-08-18T07:17:08.000Z</time>
      </trkpt>
      <trkpt lat="22.900202" lon="111.139287">
        <ele>172.226338</ele>
        <time>2026-08-18T07:17:09.000Z</time>
      </trkpt>
      <trkpt lat="22.900189" lon="111.139317">
        <ele>172.256571</ele>
        <time>2026-08-18T07:17:10.000Z</time>
      </trkpt>
      <trkpt lat="22.900175" lon="111.139348">
        <ele>172.288055</ele>
        <time>2026-08-18T07:17:11.000Z</time>
      </trkpt>
      <trkpt lat="22.900163" lon="111.139378">
        <ele>172.317881</ele>
        <time>2026-08-18T07:17:12.000Z</time>
      </trkpt>
      <trkpt lat="22.900152" lon="111.139408">
        <ele>172.347326</ele>
        <time>2026-08-18T07:17:13.000Z</time>
      </trkpt>
      <trkpt lat="22.900139" lon="111.139434">
        <ele>172.374304</ele>
        <time>2026-08-18T07:17:14.000Z</time>
      </trkpt>
      <trkpt lat="22.900126" lon="111.139463">
        <ele>172.403715</ele>
        <time>2026-08-18T07:17:15.000Z</time>
      </trkpt>
      <trkpt lat="22.900113" lon="111.139492">
        <ele>172.433126</ele>
        <time>2026-08-18T07:17:16.000Z</time>
      </trkpt>
      <trkpt lat="22.900103" lon="111.139521">
        <ele>172.461364</ele>
        <time>2026-08-18T07:17:17.000Z</time>
      </trkpt>
      <trkpt lat="22.900089" lon="111.139551">
        <ele>172.492032</ele>
        <time>2026-08-18T07:17:18.000Z</time>
      </trkpt>
      <trkpt lat="22.900078" lon="111.139580">
        <ele>172.520632</ele>
        <time>2026-08-18T07:17:19.000Z</time>
      </trkpt>
      <trkpt lat="22.900067" lon="111.139611">
        <ele>172.550926</ele>
        <time>2026-08-18T07:17:20.000Z</time>
      </trkpt>
      <trkpt lat="22.900055" lon="111.139643">
        <ele>172.582433</ele>
        <time>2026-08-18T07:17:21.000Z</time>
      </trkpt>
      <trkpt lat="22.900040" lon="111.139674">
        <ele>172.614365</ele>
        <time>2026-08-18T07:17:22.000Z</time>
      </trkpt>
      <trkpt lat="22.900028" lon="111.139707">
        <ele>172.646719</ele>
        <time>2026-08-18T07:17:23.000Z</time>
      </trkpt>
      <trkpt lat="22.900012" lon="111.139739">
        <ele>172.679922</ele>
        <time>2026-08-18T07:17:24.000Z</time>
      </trkpt>
      <trkpt lat="22.899998" lon="111.139772">
        <ele>172.713053</ele>
        <time>2026-08-18T07:17:25.000Z</time>
      </trkpt>
      <trkpt lat="22.899983" lon="111.139805">
        <ele>172.746611</ele>
        <time>2026-08-18T07:17:26.000Z</time>
      </trkpt>
      <trkpt lat="22.899963" lon="111.139836">
        <ele>172.781124</ele>
        <time>2026-08-18T07:17:27.000Z</time>
      </trkpt>
      <trkpt lat="22.899940" lon="111.139868">
        <ele>172.818138</ele>
        <time>2026-08-18T07:17:28.000Z</time>
      </trkpt>
      <trkpt lat="22.899920" lon="111.139902">
        <ele>172.854925</ele>
        <time>2026-08-18T07:17:29.000Z</time>
      </trkpt>
      <trkpt lat="22.899901" lon="111.139937">
        <ele>172.891973</ele>
        <time>2026-08-18T07:17:30.000Z</time>
      </trkpt>
      <trkpt lat="22.899882" lon="111.139970">
        <ele>172.927461</ele>
        <time>2026-08-18T07:17:31.000Z</time>
      </trkpt>
      <trkpt lat="22.899864" lon="111.140006">
        <ele>172.964814</ele>
        <time>2026-08-18T07:17:32.000Z</time>
      </trkpt>
      <trkpt lat="22.899847" lon="111.140043">
        <ele>173.002519</ele>
        <time>2026-08-18T07:17:33.000Z</time>
      </trkpt>
      <trkpt lat="22.899827" lon="111.140079">
        <ele>173.040857</ele>
        <time>2026-08-18T07:17:34.000Z</time>
      </trkpt>
      <trkpt lat="22.899805" lon="111.140117">
        <ele>173.081786</ele>
        <time>2026-08-18T07:17:35.000Z</time>
      </trkpt>
      <trkpt lat="22.899783" lon="111.140156">
        <ele>173.123489</ele>
        <time>2026-08-18T07:17:36.000Z</time>
      </trkpt>
      <trkpt lat="22.899760" lon="111.140195">
        <ele>173.165719</ele>
        <time>2026-08-18T07:17:37.000Z</time>
      </trkpt>
      <trkpt lat="22.899737" lon="111.140236">
        <ele>173.209495</ele>
        <time>2026-08-18T07:17:38.000Z</time>
      </trkpt>
      <trkpt lat="22.899713" lon="111.140274">
        <ele>173.251511</ele>
        <time>2026-08-18T07:17:39.000Z</time>
      </trkpt>
      <trkpt lat="22.899692" lon="111.140317">
        <ele>173.295893</ele>
        <time>2026-08-18T07:17:40.000Z</time>
      </trkpt>
      <trkpt lat="22.899669" lon="111.140361">
        <ele>173.287834</ele>
        <time>2026-08-18T07:17:41.000Z</time>
      </trkpt>
      <trkpt lat="22.899646" lon="111.140407">
        <ele>173.136142</ele>
        <time>2026-08-18T07:17:42.000Z</time>
      </trkpt>
      <trkpt lat="22.899620" lon="111.140453">
        <ele>172.979726</ele>
        <time>2026-08-18T07:17:43.000Z</time>
      </trkpt>
      <trkpt lat="22.899594" lon="111.140501">
        <ele>172.818342</ele>
        <time>2026-08-18T07:17:44.000Z</time>
      </trkpt>
      <trkpt lat="22.899568" lon="111.140551">
        <ele>172.651935</ele>
        <time>2026-08-18T07:17:45.000Z</time>
      </trkpt>
      <trkpt lat="22.899541" lon="111.140600">
        <ele>172.486453</ele>
        <time>2026-08-18T07:17:46.000Z</time>
      </trkpt>
      <trkpt lat="22.899514" lon="111.140651">
        <ele>172.315970</ele>
        <time>2026-08-18T07:17:47.000Z</time>
      </trkpt>
      <trkpt lat="22.899486" lon="111.140703">
        <ele>172.141402</ele>
        <time>2026-08-18T07:17:48.000Z</time>
      </trkpt>
      <trkpt lat="22.899456" lon="111.140759">
        <ele>171.953649</ele>
        <time>2026-08-18T07:17:49.000Z</time>
      </trkpt>
      <trkpt lat="22.899427" lon="111.140818">
        <ele>171.759832</ele>
        <time>2026-08-18T07:17:50.000Z</time>
      </trkpt>
      <trkpt lat="22.899397" lon="111.140878">
        <ele>171.561972</ele>
        <time>2026-08-18T07:17:51.000Z</time>
      </trkpt>
      <trkpt lat="22.899364" lon="111.140942">
        <ele>171.349403</ele>
        <time>2026-08-18T07:17:52.000Z</time>
      </trkpt>
      <trkpt lat="22.899332" lon="111.141006">
        <ele>171.138352</ele>
        <time>2026-08-18T07:17:53.000Z</time>
      </trkpt>
      <trkpt lat="22.899300" lon="111.141069">
        <ele>170.929844</ele>
        <time>2026-08-18T07:17:54.000Z</time>
      </trkpt>
      <trkpt lat="22.899266" lon="111.141133">
        <ele>170.715720</ele>
        <time>2026-08-18T07:17:55.000Z</time>
      </trkpt>
      <trkpt lat="22.899231" lon="111.141199">
        <ele>170.495002</ele>
        <time>2026-08-18T07:17:56.000Z</time>
      </trkpt>
      <trkpt lat="22.899194" lon="111.141264">
        <ele>170.273550</ele>
        <time>2026-08-18T07:17:57.000Z</time>
      </trkpt>
      <trkpt lat="22.899158" lon="111.141329">
        <ele>170.053735</ele>
        <time>2026-08-18T07:17:58.000Z</time>
      </trkpt>
      <trkpt lat="22.899121" lon="111.141396">
        <ele>169.827331</ele>
        <time>2026-08-18T07:17:59.000Z</time>
      </trkpt>
      <trkpt lat="22.899083" lon="111.141465">
        <ele>169.594337</ele>
        <time>2026-08-18T07:18:00.000Z</time>
      </trkpt>
      <trkpt lat="22.899043" lon="111.141534">
        <ele>169.358053</ele>
        <time>2026-08-18T07:18:01.000Z</time>
      </trkpt>
      <trkpt lat="22.899004" lon="111.141604">
        <ele>169.120954</ele>
        <time>2026-08-18T07:18:02.000Z</time>
      </trkpt>
      <trkpt lat="22.898966" lon="111.141675">
        <ele>168.882967</ele>
        <time>2026-08-18T07:18:03.000Z</time>
      </trkpt>
      <trkpt lat="22.898929" lon="111.141745">
        <ele>168.649062</ele>
        <time>2026-08-18T07:18:04.000Z</time>
      </trkpt>
      <trkpt lat="22.898892" lon="111.141818">
        <ele>168.407577</ele>
        <time>2026-08-18T07:18:05.000Z</time>
      </trkpt>
      <trkpt lat="22.898856" lon="111.141891">
        <ele>168.167593</ele>
        <time>2026-08-18T07:18:06.000Z</time>
      </trkpt>
      <trkpt lat="22.898816" lon="111.141964">
        <ele>167.921419</ele>
        <time>2026-08-18T07:18:07.000Z</time>
      </trkpt>
      <trkpt lat="22.898777" lon="111.142037">
        <ele>167.676839</ele>
        <time>2026-08-18T07:18:08.000Z</time>
      </trkpt>
      <trkpt lat="22.898736" lon="111.142109">
        <ele>167.568714</ele>
        <time>2026-08-18T07:18:09.000Z</time>
      </trkpt>
      <trkpt lat="22.898695" lon="111.142180">
        <ele>167.465492</ele>
        <time>2026-08-18T07:18:10.000Z</time>
      </trkpt>
      <trkpt lat="22.898657" lon="111.142254">
        <ele>167.361132</ele>
        <time>2026-08-18T07:18:11.000Z</time>
      </trkpt>
      <trkpt lat="22.898617" lon="111.142327">
        <ele>167.256504</ele>
        <time>2026-08-18T07:18:12.000Z</time>
      </trkpt>
      <trkpt lat="22.898580" lon="111.142401">
        <ele>167.152788</ele>
        <time>2026-08-18T07:18:13.000Z</time>
      </trkpt>
      <trkpt lat="22.898544" lon="111.142476">
        <ele>167.048613</ele>
        <time>2026-08-18T07:18:14.000Z</time>
      </trkpt>
      <trkpt lat="22.898511" lon="111.142553">
        <ele>166.944001</ele>
        <time>2026-08-18T07:18:15.000Z</time>
      </trkpt>
      <trkpt lat="22.898476" lon="111.142630">
        <ele>166.838233</ele>
        <time>2026-08-18T07:18:16.000Z</time>
      </trkpt>
      <trkpt lat="22.898447" lon="111.142707">
        <ele>166.735763</ele>
        <time>2026-08-18T07:18:17.000Z</time>
      </trkpt>
      <trkpt lat="22.898419" lon="111.142787">
        <ele>166.630345</ele>
        <time>2026-08-18T07:18:18.000Z</time>
      </trkpt>
      <trkpt lat="22.898392" lon="111.142866">
        <ele>166.526550</ele>
        <time>2026-08-18T07:18:19.000Z</time>
      </trkpt>
      <trkpt lat="22.898367" lon="111.142945">
        <ele>166.423655</ele>
        <time>2026-08-18T07:18:20.000Z</time>
      </trkpt>
      <trkpt lat="22.898342" lon="111.143025">
        <ele>166.319594</ele>
        <time>2026-08-18T07:18:21.000Z</time>
      </trkpt>
      <trkpt lat="22.898317" lon="111.143104">
        <ele>166.216698</ele>
        <time>2026-08-18T07:18:22.000Z</time>
      </trkpt>
      <trkpt lat="22.898291" lon="111.143181">
        <ele>166.115678</ele>
        <time>2026-08-18T07:18:23.000Z</time>
      </trkpt>
      <trkpt lat="22.898269" lon="111.143258">
        <ele>166.016371</ele>
        <time>2026-08-18T07:18:24.000Z</time>
      </trkpt>
      <trkpt lat="22.898249" lon="111.143334">
        <ele>165.919008</ele>
        <time>2026-08-18T07:18:25.000Z</time>
      </trkpt>
      <trkpt lat="22.898231" lon="111.143408">
        <ele>165.824729</ele>
        <time>2026-08-18T07:18:26.000Z</time>
      </trkpt>
      <trkpt lat="22.898216" lon="111.143481">
        <ele>165.732597</ele>
        <time>2026-08-18T07:18:27.000Z</time>
      </trkpt>
      <trkpt lat="22.898199" lon="111.143552">
        <ele>165.642232</ele>
        <time>2026-08-18T07:18:28.000Z</time>
      </trkpt>
      <trkpt lat="22.898183" lon="111.143620">
        <ele>165.555779</ele>
        <time>2026-08-18T07:18:29.000Z</time>
      </trkpt>
      <trkpt lat="22.898168" lon="111.143690">
        <ele>165.467250</ele>
        <time>2026-08-18T07:18:30.000Z</time>
      </trkpt>
      <trkpt lat="22.898154" lon="111.143762">
        <ele>165.376605</ele>
        <time>2026-08-18T07:18:31.000Z</time>
      </trkpt>
      <trkpt lat="22.898140" lon="111.143833">
        <ele>165.287165</ele>
        <time>2026-08-18T07:18:32.000Z</time>
      </trkpt>
      <trkpt lat="22.898126" lon="111.143903">
        <ele>165.255270</ele>
        <time>2026-08-18T07:18:33.000Z</time>
      </trkpt>
      <trkpt lat="22.898111" lon="111.143973">
        <ele>165.242229</ele>
        <time>2026-08-18T07:18:34.000Z</time>
      </trkpt>
      <trkpt lat="22.898098" lon="111.144042">
        <ele>165.229449</ele>
        <time>2026-08-18T07:18:35.000Z</time>
      </trkpt>
      <trkpt lat="22.898084" lon="111.144111">
        <ele>165.216628</ele>
        <time>2026-08-18T07:18:36.000Z</time>
      </trkpt>
      <trkpt lat="22.898072" lon="111.144181">
        <ele>165.203708</ele>
        <time>2026-08-18T07:18:37.000Z</time>
      </trkpt>
      <trkpt lat="22.898058" lon="111.144252">
        <ele>165.190532</ele>
        <time>2026-08-18T07:18:38.000Z</time>
      </trkpt>
      <trkpt lat="22.898046" lon="111.144321">
        <ele>165.177790</ele>
        <time>2026-08-18T07:18:39.000Z</time>
      </trkpt>
      <trkpt lat="22.898034" lon="111.144388">
        <ele>165.165405</ele>
        <time>2026-08-18T07:18:40.000Z</time>
      </trkpt>
      <trkpt lat="22.898022" lon="111.144454">
        <ele>165.153198</ele>
        <time>2026-08-18T07:18:41.000Z</time>
      </trkpt>
      <trkpt lat="22.898011" lon="111.144518">
        <ele>165.141384</ele>
        <time>2026-08-18T07:18:42.000Z</time>
      </trkpt>
      <trkpt lat="22.897999" lon="111.144581">
        <ele>165.129710</ele>
        <time>2026-08-18T07:18:43.000Z</time>
      </trkpt>
      <trkpt lat="22.897987" lon="111.144643">
        <ele>165.118214</ele>
        <time>2026-08-18T07:18:44.000Z</time>
      </trkpt>
      <trkpt lat="22.897975" lon="111.144707">
        <ele>165.106362</ele>
        <time>2026-08-18T07:18:45.000Z</time>
      </trkpt>
      <trkpt lat="22.897960" lon="111.144773">
        <ele>165.094027</ele>
        <time>2026-08-18T07:18:46.000Z</time>
      </trkpt>
      <trkpt lat="22.897946" lon="111.144838">
        <ele>165.081914</ele>
        <time>2026-08-18T07:18:47.000Z</time>
      </trkpt>
      <trkpt lat="22.897934" lon="111.144903">
        <ele>165.069884</ele>
        <time>2026-08-18T07:18:48.000Z</time>
      </trkpt>
      <trkpt lat="22.897921" lon="111.144968">
        <ele>165.057814</ele>
        <time>2026-08-18T07:18:49.000Z</time>
      </trkpt>
      <trkpt lat="22.897910" lon="111.145032">
        <ele>165.046001</ele>
        <time>2026-08-18T07:18:50.000Z</time>
      </trkpt>
      <trkpt lat="22.897899" lon="111.145097">
        <ele>165.034008</ele>
        <time>2026-08-18T07:18:51.000Z</time>
      </trkpt>
      <trkpt lat="22.897886" lon="111.145163">
        <ele>165.021761</ele>
        <time>2026-08-18T07:18:52.000Z</time>
      </trkpt>
      <trkpt lat="22.897873" lon="111.145228">
        <ele>165.009691</ele>
        <time>2026-08-18T07:18:53.000Z</time>
      </trkpt>
      <trkpt lat="22.897860" lon="111.145293">
        <ele>164.997622</ele>
        <time>2026-08-18T07:18:54.000Z</time>
      </trkpt>
      <trkpt lat="22.897845" lon="111.145358">
        <ele>164.985462</ele>
        <time>2026-08-18T07:18:55.000Z</time>
      </trkpt>
      <trkpt lat="22.897832" lon="111.145423">
        <ele>164.973393</ele>
        <time>2026-08-18T07:18:56.000Z</time>
      </trkpt>
      <trkpt lat="22.897820" lon="111.145489">
        <ele>164.961185</ele>
        <time>2026-08-18T07:18:57.000Z</time>
      </trkpt>
      <trkpt lat="22.897807" lon="111.145554">
        <ele>164.949115</ele>
        <time>2026-08-18T07:18:58.000Z</time>
      </trkpt>
      <trkpt lat="22.897795" lon="111.145618">
        <ele>164.937264</ele>
        <time>2026-08-18T07:18:59.000Z</time>
      </trkpt>
      <trkpt lat="22.897782" lon="111.145680">
        <ele>164.925726</ele>
        <time>2026-08-18T07:19:00.000Z</time>
      </trkpt>
      <trkpt lat="22.897768" lon="111.145743">
        <ele>164.913966</ele>
        <time>2026-08-18T07:19:01.000Z</time>
      </trkpt>
      <trkpt lat="22.897755" lon="111.145807">
        <ele>164.919143</ele>
        <time>2026-08-18T07:19:02.000Z</time>
      </trkpt>
      <trkpt lat="22.897743" lon="111.145870">
        <ele>164.930561</ele>
        <time>2026-08-18T07:19:03.000Z</time>
      </trkpt>
      <trkpt lat="22.897732" lon="111.145933">
        <ele>164.941942</ele>
        <time>2026-08-18T07:19:04.000Z</time>
      </trkpt>
      <trkpt lat="22.897719" lon="111.145996">
        <ele>164.953401</ele>
        <time>2026-08-18T07:19:05.000Z</time>
      </trkpt>
      <trkpt lat="22.897708" lon="111.146058">
        <ele>164.964608</ele>
        <time>2026-08-18T07:19:06.000Z</time>
      </trkpt>
      <trkpt lat="22.897696" lon="111.146119">
        <ele>164.975679</ele>
        <time>2026-08-18T07:19:07.000Z</time>
      </trkpt>
      <trkpt lat="22.897686" lon="111.146182">
        <ele>164.987025</ele>
        <time>2026-08-18T07:19:08.000Z</time>
      </trkpt>
      <trkpt lat="22.897673" lon="111.146244">
        <ele>164.998311</ele>
        <time>2026-08-18T07:19:09.000Z</time>
      </trkpt>
      <trkpt lat="22.897659" lon="111.146305">
        <ele>165.009469</ele>
        <time>2026-08-18T07:19:10.000Z</time>
      </trkpt>
      <trkpt lat="22.897647" lon="111.146365">
        <ele>165.020367</ele>
        <time>2026-08-18T07:19:11.000Z</time>
      </trkpt>
      <trkpt lat="22.897634" lon="111.146426">
        <ele>165.031480</ele>
        <time>2026-08-18T07:19:12.000Z</time>
      </trkpt>
      <trkpt lat="22.897620" lon="111.146490">
        <ele>165.043155</ele>
        <time>2026-08-18T07:19:13.000Z</time>
      </trkpt>
      <trkpt lat="22.897608" lon="111.146551">
        <ele>165.054226</ele>
        <time>2026-08-18T07:19:14.000Z</time>
      </trkpt>
      <trkpt lat="22.897593" lon="111.146617">
        <ele>165.066292</ele>
        <time>2026-08-18T07:19:15.000Z</time>
      </trkpt>
      <trkpt lat="22.897582" lon="111.146679">
        <ele>165.077498</ele>
        <time>2026-08-18T07:19:16.000Z</time>
      </trkpt>
      <trkpt lat="22.897572" lon="111.146745">
        <ele>165.089370</ele>
        <time>2026-08-18T07:19:17.000Z</time>
      </trkpt>
      <trkpt lat="22.897556" lon="111.146808">
        <ele>165.100969</ele>
        <time>2026-08-18T07:19:18.000Z</time>
      </trkpt>
      <trkpt lat="22.897539" lon="111.146870">
        <ele>165.112451</ele>
        <time>2026-08-18T07:19:19.000Z</time>
      </trkpt>
      <trkpt lat="22.897523" lon="111.146930">
        <ele>165.123538</ele>
        <time>2026-08-18T07:19:20.000Z</time>
      </trkpt>
      <trkpt lat="22.897505" lon="111.146988">
        <ele>165.134401</ele>
        <time>2026-08-18T07:19:21.000Z</time>
      </trkpt>
      <trkpt lat="22.897497" lon="111.147045">
        <ele>165.144634</ele>
        <time>2026-08-18T07:19:22.000Z</time>
      </trkpt>
      <trkpt lat="22.897489" lon="111.147102">
        <ele>165.154868</ele>
        <time>2026-08-18T07:19:23.000Z</time>
      </trkpt>
      <trkpt lat="22.897479" lon="111.147160">
        <ele>165.165341</ele>
        <time>2026-08-18T07:19:24.000Z</time>
      </trkpt>
      <trkpt lat="22.897465" lon="111.147221">
        <ele>165.176499</ele>
        <time>2026-08-18T07:19:25.000Z</time>
      </trkpt>
      <trkpt lat="22.897452" lon="111.147280">
        <ele>165.187267</ele>
        <time>2026-08-18T07:19:26.000Z</time>
      </trkpt>
      <trkpt lat="22.897442" lon="111.147336">
        <ele>165.197391</ele>
        <time>2026-08-18T07:19:27.000Z</time>
      </trkpt>
      <trkpt lat="22.897432" lon="111.147390">
        <ele>165.207167</ele>
        <time>2026-08-18T07:19:28.000Z</time>
      </trkpt>
      <trkpt lat="22.897421" lon="111.147446">
        <ele>165.217330</ele>
        <time>2026-08-18T07:19:29.000Z</time>
      </trkpt>
      <trkpt lat="22.897408" lon="111.147502">
        <ele>165.227581</ele>
        <time>2026-08-18T07:19:30.000Z</time>
      </trkpt>
      <trkpt lat="22.897398" lon="111.147554">
        <ele>165.237009</ele>
        <time>2026-08-18T07:19:31.000Z</time>
      </trkpt>
      <trkpt lat="22.897391" lon="111.147606">
        <ele>165.246337</ele>
        <time>2026-08-18T07:19:32.000Z</time>
      </trkpt>
      <trkpt lat="22.897383" lon="111.147657">
        <ele>165.255519</ele>
        <time>2026-08-18T07:19:33.000Z</time>
      </trkpt>
      <trkpt lat="22.897375" lon="111.147708">
        <ele>165.288193</ele>
        <time>2026-08-18T07:19:34.000Z</time>
      </trkpt>
      <trkpt lat="22.897365" lon="111.147758">
        <ele>165.325916</ele>
        <time>2026-08-18T07:19:35.000Z</time>
      </trkpt>
      <trkpt lat="22.897353" lon="111.147807">
        <ele>165.363297</ele>
        <time>2026-08-18T07:19:36.000Z</time>
      </trkpt>
      <trkpt lat="22.897343" lon="111.147860">
        <ele>165.403184</ele>
        <time>2026-08-18T07:19:37.000Z</time>
      </trkpt>
      <trkpt lat="22.897328" lon="111.147912">
        <ele>165.443359</ele>
        <time>2026-08-18T07:19:38.000Z</time>
      </trkpt>
      <trkpt lat="22.897320" lon="111.147965">
        <ele>165.482956</ele>
        <time>2026-08-18T07:19:39.000Z</time>
      </trkpt>
      <trkpt lat="22.897310" lon="111.148016">
        <ele>165.521399</ele>
        <time>2026-08-18T07:19:40.000Z</time>
      </trkpt>
      <trkpt lat="22.897300" lon="111.148066">
        <ele>165.559122</ele>
        <time>2026-08-18T07:19:41.000Z</time>
      </trkpt>
      <trkpt lat="22.897292" lon="111.148119">
        <ele>165.598719</ele>
        <time>2026-08-18T07:19:42.000Z</time>
      </trkpt>
      <trkpt lat="22.897285" lon="111.148169">
        <ele>165.636006</ele>
        <time>2026-08-18T07:19:43.000Z</time>
      </trkpt>
      <trkpt lat="22.897278" lon="111.148221">
        <ele>165.674752</ele>
        <time>2026-08-18T07:19:44.000Z</time>
      </trkpt>
      <trkpt lat="22.897275" lon="111.148272">
        <ele>165.712430</ele>
        <time>2026-08-18T07:19:45.000Z</time>
      </trkpt>
      <trkpt lat="22.897268" lon="111.148323">
        <ele>165.750446</ele>
        <time>2026-08-18T07:19:46.000Z</time>
      </trkpt>
      <trkpt lat="22.897259" lon="111.148374">
        <ele>165.788731</ele>
        <time>2026-08-18T07:19:47.000Z</time>
      </trkpt>
      <trkpt lat="22.897251" lon="111.148426">
        <ele>165.827601</ele>
        <time>2026-08-18T07:19:48.000Z</time>
      </trkpt>
      <trkpt lat="22.897241" lon="111.148480">
        <ele>165.868210</ele>
        <time>2026-08-18T07:19:49.000Z</time>
      </trkpt>
      <trkpt lat="22.897233" lon="111.148531">
        <ele>165.906353</ele>
        <time>2026-08-18T07:19:50.000Z</time>
      </trkpt>
      <trkpt lat="22.897225" lon="111.148586">
        <ele>165.947405</ele>
        <time>2026-08-18T07:19:51.000Z</time>
      </trkpt>
      <trkpt lat="22.897220" lon="111.148638">
        <ele>165.985952</ele>
        <time>2026-08-18T07:19:52.000Z</time>
      </trkpt>
      <trkpt lat="22.897214" lon="111.148692">
        <ele>166.026054</ele>
        <time>2026-08-18T07:19:53.000Z</time>
      </trkpt>
      <trkpt lat="22.897208" lon="111.148745">
        <ele>166.065424</ele>
        <time>2026-08-18T07:19:54.000Z</time>
      </trkpt>
      <trkpt lat="22.897206" lon="111.148797">
        <ele>166.103796</ele>
        <time>2026-08-18T07:19:55.000Z</time>
      </trkpt>
      <trkpt lat="22.897197" lon="111.148851">
        <ele>166.144255</ele>
        <time>2026-08-18T07:19:56.000Z</time>
      </trkpt>
      <trkpt lat="22.897191" lon="111.148905">
        <ele>166.184357</ele>
        <time>2026-08-18T07:19:57.000Z</time>
      </trkpt>
      <trkpt lat="22.897184" lon="111.148958">
        <ele>166.223832</ele>
        <time>2026-08-18T07:19:58.000Z</time>
      </trkpt>
      <trkpt lat="22.897174" lon="111.149011">
        <ele>166.263719</ele>
        <time>2026-08-18T07:19:59.000Z</time>
      </trkpt>
      <trkpt lat="22.897165" lon="111.149064">
        <ele>166.303454</ele>
        <time>2026-08-18T07:20:00.000Z</time>
      </trkpt>
      <trkpt lat="22.897157" lon="111.149116">
        <ele>166.342323</ele>
        <time>2026-08-18T07:20:01.000Z</time>
      </trkpt>
      <trkpt lat="22.897152" lon="111.149170">
        <ele>166.382337</ele>
        <time>2026-08-18T07:20:02.000Z</time>
      </trkpt>
      <trkpt lat="22.897147" lon="111.149220">
        <ele>166.419417</ele>
        <time>2026-08-18T07:20:03.000Z</time>
      </trkpt>
      <trkpt lat="22.897143" lon="111.149273">
        <ele>166.458624</ele>
        <time>2026-08-18T07:20:04.000Z</time>
      </trkpt>
      <trkpt lat="22.897139" lon="111.149324">
        <ele>166.496362</ele>
        <time>2026-08-18T07:20:05.000Z</time>
      </trkpt>
      <trkpt lat="22.897131" lon="111.149377">
        <ele>166.535959</ele>
        <time>2026-08-18T07:20:06.000Z</time>
      </trkpt>
      <trkpt lat="22.897125" lon="111.149427">
        <ele>166.573134</ele>
        <time>2026-08-18T07:20:07.000Z</time>
      </trkpt>
      <trkpt lat="22.897119" lon="111.149477">
        <ele>166.610310</ele>
        <time>2026-08-18T07:20:08.000Z</time>
      </trkpt>
      <trkpt lat="22.897114" lon="111.149528">
        <ele>166.648123</ele>
        <time>2026-08-18T07:20:09.000Z</time>
      </trkpt>
      <trkpt lat="22.897111" lon="111.149576">
        <ele>166.683594</ele>
        <time>2026-08-18T07:20:10.000Z</time>
      </trkpt>
      <trkpt lat="22.897110" lon="111.149625">
        <ele>166.705017</ele>
        <time>2026-08-18T07:20:11.000Z</time>
      </trkpt>
      <trkpt lat="22.897112" lon="111.149673">
        <ele>166.717726</ele>
        <time>2026-08-18T07:20:12.000Z</time>
      </trkpt>
      <trkpt lat="22.897110" lon="111.149723">
        <ele>166.730964</ele>
        <time>2026-08-18T07:20:13.000Z</time>
      </trkpt>
      <trkpt lat="22.897108" lon="111.149773">
        <ele>166.744202</ele>
        <time>2026-08-18T07:20:14.000Z</time>
      </trkpt>
      <trkpt lat="22.897106" lon="111.149824">
        <ele>166.757704</ele>
        <time>2026-08-18T07:20:15.000Z</time>
      </trkpt>
      <trkpt lat="22.897106" lon="111.149876">
        <ele>166.771458</ele>
        <time>2026-08-18T07:20:16.000Z</time>
      </trkpt>
      <trkpt lat="22.897106" lon="111.149927">
        <ele>166.784948</ele>
        <time>2026-08-18T07:20:17.000Z</time>
      </trkpt>
      <trkpt lat="22.897105" lon="111.149978">
        <ele>166.798440</ele>
        <time>2026-08-18T07:20:18.000Z</time>
      </trkpt>
      <trkpt lat="22.897103" lon="111.150032">
        <ele>166.812735</ele>
        <time>2026-08-18T07:20:19.000Z</time>
      </trkpt>
      <trkpt lat="22.897104" lon="111.150085">
        <ele>166.826757</ele>
        <time>2026-08-18T07:20:20.000Z</time>
      </trkpt>
      <trkpt lat="22.897108" lon="111.150137">
        <ele>166.840559</ele>
        <time>2026-08-18T07:20:21.000Z</time>
      </trkpt>
      <trkpt lat="22.897115" lon="111.150187">
        <ele>166.853936</ele>
        <time>2026-08-18T07:20:22.000Z</time>
      </trkpt>
      <trkpt lat="22.897123" lon="111.150239">
        <ele>166.867881</ele>
        <time>2026-08-18T07:20:23.000Z</time>
      </trkpt>
      <trkpt lat="22.897129" lon="111.150290">
        <ele>166.881480</ele>
        <time>2026-08-18T07:20:24.000Z</time>
      </trkpt>
      <trkpt lat="22.897133" lon="111.150341">
        <ele>166.895019</ele>
        <time>2026-08-18T07:20:25.000Z</time>
      </trkpt>
      <trkpt lat="22.897136" lon="111.150391">
        <ele>166.908272</ele>
        <time>2026-08-18T07:20:26.000Z</time>
      </trkpt>
      <trkpt lat="22.897141" lon="111.150440">
        <ele>166.921312</ele>
        <time>2026-08-18T07:20:27.000Z</time>
      </trkpt>
      <trkpt lat="22.897145" lon="111.150492">
        <ele>166.935114</ele>
        <time>2026-08-18T07:20:28.000Z</time>
      </trkpt>
      <trkpt lat="22.897135" lon="111.150548">
        <ele>166.950202</ele>
        <time>2026-08-18T07:20:29.000Z</time>
      </trkpt>
      <trkpt lat="22.897133" lon="111.150599">
        <ele>166.963704</ele>
        <time>2026-08-18T07:20:30.000Z</time>
      </trkpt>
      <trkpt lat="22.897132" lon="111.150653">
        <ele>166.977990</ele>
        <time>2026-08-18T07:20:31.000Z</time>
      </trkpt>
      <trkpt lat="22.897131" lon="111.150704">
        <ele>166.991483</ele>
        <time>2026-08-18T07:20:32.000Z</time>
      </trkpt>
      <trkpt lat="22.897130" lon="111.150754">
        <ele>167.004711</ele>
        <time>2026-08-18T07:20:33.000Z</time>
      </trkpt>
      <trkpt lat="22.897131" lon="111.150803">
        <ele>167.017675</ele>
        <time>2026-08-18T07:20:34.000Z</time>
      </trkpt>
      <trkpt lat="22.897132" lon="111.150852">
        <ele>167.030639</ele>
        <time>2026-08-18T07:20:35.000Z</time>
      </trkpt>
      <trkpt lat="22.897135" lon="111.150903">
        <ele>167.044156</ele>
        <time>2026-08-18T07:20:36.000Z</time>
      </trkpt>
      <trkpt lat="22.897139" lon="111.150952">
        <ele>167.057168</ele>
        <time>2026-08-18T07:20:37.000Z</time>
      </trkpt>
      <trkpt lat="22.897141" lon="111.151004">
        <ele>167.070934</ele>
        <time>2026-08-18T07:20:38.000Z</time>
      </trkpt>
      <trkpt lat="22.897143" lon="111.151055">
        <ele>167.084436</ele>
        <time>2026-08-18T07:20:39.000Z</time>
      </trkpt>
      <trkpt lat="22.897146" lon="111.151108">
        <ele>167.098481</ele>
        <time>2026-08-18T07:20:40.000Z</time>
      </trkpt>
      <trkpt lat="22.897150" lon="111.151160">
        <ele>167.112284</ele>
        <time>2026-08-18T07:20:41.000Z</time>
      </trkpt>
      <trkpt lat="22.897153" lon="111.151215">
        <ele>167.126857</ele>
        <time>2026-08-18T07:20:42.000Z</time>
      </trkpt>
      <trkpt lat="22.897155" lon="111.151270">
        <ele>167.141416</ele>
        <time>2026-08-18T07:20:43.000Z</time>
      </trkpt>
      <trkpt lat="22.897161" lon="111.151324">
        <ele>167.155803</ele>
        <time>2026-08-18T07:20:44.000Z</time>
      </trkpt>
      <trkpt lat="22.897166" lon="111.151380">
        <ele>167.170684</ele>
        <time>2026-08-18T07:20:45.000Z</time>
      </trkpt>
      <trkpt lat="22.897169" lon="111.151434">
        <ele>167.184994</ele>
        <time>2026-08-18T07:20:46.000Z</time>
      </trkpt>
      <trkpt lat="22.897172" lon="111.151488">
        <ele>167.199303</ele>
        <time>2026-08-18T07:20:47.000Z</time>
      </trkpt>
      <trkpt lat="22.897176" lon="111.151544">
        <ele>167.213709</ele>
        <time>2026-08-18T07:20:48.000Z</time>
      </trkpt>
      <trkpt lat="22.897180" lon="111.151599">
        <ele>167.221232</ele>
        <time>2026-08-18T07:20:49.000Z</time>
      </trkpt>
      <trkpt lat="22.897186" lon="111.151653">
        <ele>167.228650</ele>
        <time>2026-08-18T07:20:50.000Z</time>
      </trkpt>
      <trkpt lat="22.897189" lon="111.151706">
        <ele>167.235891</ele>
        <time>2026-08-18T07:20:51.000Z</time>
      </trkpt>
      <trkpt lat="22.897192" lon="111.151758">
        <ele>167.242997</ele>
        <time>2026-08-18T07:20:52.000Z</time>
      </trkpt>
      <trkpt lat="22.897199" lon="111.151812">
        <ele>167.250433</ele>
        <time>2026-08-18T07:20:53.000Z</time>
      </trkpt>
      <trkpt lat="22.897205" lon="111.151868">
        <ele>167.258122</ele>
        <time>2026-08-18T07:20:54.000Z</time>
      </trkpt>
      <trkpt lat="22.897211" lon="111.151923">
        <ele>167.265674</ele>
        <time>2026-08-18T07:20:55.000Z</time>
      </trkpt>
      <trkpt lat="22.897215" lon="111.151979">
        <ele>167.273334</ele>
        <time>2026-08-18T07:20:56.000Z</time>
      </trkpt>
      <trkpt lat="22.897218" lon="111.152035">
        <ele>167.280984</ele>
        <time>2026-08-18T07:20:57.000Z</time>
      </trkpt>
      <trkpt lat="22.897222" lon="111.152092">
        <ele>167.288780</ele>
        <time>2026-08-18T07:20:58.000Z</time>
      </trkpt>
      <trkpt lat="22.897227" lon="111.152147">
        <ele>167.296317</ele>
        <time>2026-08-18T07:20:59.000Z</time>
      </trkpt>
      <trkpt lat="22.897230" lon="111.152203">
        <ele>167.303966</ele>
        <time>2026-08-18T07:21:00.000Z</time>
      </trkpt>
      <trkpt lat="22.897233" lon="111.152256">
        <ele>167.311208</ele>
        <time>2026-08-18T07:21:01.000Z</time>
      </trkpt>
      <trkpt lat="22.897237" lon="111.152308">
        <ele>167.318324</ele>
        <time>2026-08-18T07:21:02.000Z</time>
      </trkpt>
      <trkpt lat="22.897243" lon="111.152363">
        <ele>167.325877</ele>
        <time>2026-08-18T07:21:03.000Z</time>
      </trkpt>
      <trkpt lat="22.897250" lon="111.152418">
        <ele>167.333448</ele>
        <time>2026-08-18T07:21:04.000Z</time>
      </trkpt>
      <trkpt lat="22.897258" lon="111.152473">
        <ele>167.341042</ele>
        <time>2026-08-18T07:21:05.000Z</time>
      </trkpt>
      <trkpt lat="22.897264" lon="111.152528">
        <ele>167.348595</ele>
        <time>2026-08-18T07:21:06.000Z</time>
      </trkpt>
      <trkpt lat="22.897271" lon="111.152583">
        <ele>167.356166</ele>
        <time>2026-08-18T07:21:07.000Z</time>
      </trkpt>
      <trkpt lat="22.897278" lon="111.152641">
        <ele>167.364144</ele>
        <time>2026-08-18T07:21:08.000Z</time>
      </trkpt>
      <trkpt lat="22.897285" lon="111.152698">
        <ele>167.371985</ele>
        <time>2026-08-18T07:21:09.000Z</time>
      </trkpt>
      <trkpt lat="22.897291" lon="111.152756">
        <ele>167.379945</ele>
        <time>2026-08-18T07:21:10.000Z</time>
      </trkpt>
      <trkpt lat="22.897299" lon="111.152813">
        <ele>167.387808</ele>
        <time>2026-08-18T07:21:11.000Z</time>
      </trkpt>
      <trkpt lat="22.897306" lon="111.152868">
        <ele>167.395379</ele>
        <time>2026-08-18T07:21:12.000Z</time>
      </trkpt>
      <trkpt lat="22.897314" lon="111.152923">
        <ele>167.402973</ele>
        <time>2026-08-18T07:21:13.000Z</time>
      </trkpt>
      <trkpt lat="22.897323" lon="111.152978">
        <ele>167.410591</ele>
        <time>2026-08-18T07:21:14.000Z</time>
      </trkpt>
      <trkpt lat="22.897331" lon="111.153032">
        <ele>167.418049</ele>
        <time>2026-08-18T07:21:15.000Z</time>
      </trkpt>
      <trkpt lat="22.897339" lon="111.153084">
        <ele>167.425239</ele>
        <time>2026-08-18T07:21:16.000Z</time>
      </trkpt>
      <trkpt lat="22.897347" lon="111.153136">
        <ele>167.432429</ele>
        <time>2026-08-18T07:21:17.000Z</time>
      </trkpt>
      <trkpt lat="22.897356" lon="111.153188">
        <ele>167.439644</ele>
        <time>2026-08-18T07:21:18.000Z</time>
      </trkpt>
      <trkpt lat="22.897364" lon="111.153239">
        <ele>167.446699</ele>
        <time>2026-08-18T07:21:19.000Z</time>
      </trkpt>
      <trkpt lat="22.897374" lon="111.153287">
        <ele>167.453410</ele>
        <time>2026-08-18T07:21:20.000Z</time>
      </trkpt>
      <trkpt lat="22.897385" lon="111.153334">
        <ele>167.460023</ele>
        <time>2026-08-18T07:21:21.000Z</time>
      </trkpt>
      <trkpt lat="22.897395" lon="111.153379">
        <ele>167.466336</ele>
        <time>2026-08-18T07:21:22.000Z</time>
      </trkpt>
      <trkpt lat="22.897405" lon="111.153422">
        <ele>167.472384</ele>
        <time>2026-08-18T07:21:23.000Z</time>
      </trkpt>
      <trkpt lat="22.897413" lon="111.153463">
        <ele>167.478099</ele>
        <time>2026-08-18T07:21:24.000Z</time>
      </trkpt>
      <trkpt lat="22.897416" lon="111.153493">
        <ele>167.483008</ele>
        <time>2026-08-18T07:21:25.000Z</time>
      </trkpt>
      <trkpt lat="22.897418" lon="111.153513">
        <ele>167.486551</ele>
        <time>2026-08-18T07:21:26.000Z</time>
      </trkpt>
      <trkpt lat="22.897420" lon="111.153523">
        <ele>167.488353</ele>
        <time>2026-08-18T07:21:27.000Z</time>
      </trkpt>
      <trkpt lat="22.897420" lon="111.153526">
        <ele>167.488882</ele>
        <time>2026-08-18T07:21:28.000Z</time>
      </trkpt>
      <trkpt lat="22.897420" lon="111.153526">
        <ele>167.488882</ele>
        <time>2026-08-18T07:21:41.000Z</time>
      </trkpt>
      <trkpt lat="22.897376" lon="111.153572">
        <ele>167.500562</ele>
        <time>2026-08-18T07:22:28.000Z</time>
      </trkpt>
      <trkpt lat="22.897380" lon="111.153584">
        <ele>167.502810</ele>
        <time>2026-08-18T07:22:29.000Z</time>
      </trkpt>
      <trkpt lat="22.897382" lon="111.153598">
        <ele>167.505305</ele>
        <time>2026-08-18T07:22:30.000Z</time>
      </trkpt>
      <trkpt lat="22.897384" lon="111.153612">
        <ele>167.507800</ele>
        <time>2026-08-18T07:22:31.000Z</time>
      </trkpt>
      <trkpt lat="22.897387" lon="111.153628">
        <ele>167.510676</ele>
        <time>2026-08-18T07:22:32.000Z</time>
      </trkpt>
      <trkpt lat="22.897393" lon="111.153648">
        <ele>167.514381</ele>
        <time>2026-08-18T07:22:33.000Z</time>
      </trkpt>
      <trkpt lat="22.897400" lon="111.153669">
        <ele>167.518314</ele>
        <time>2026-08-18T07:22:34.000Z</time>
      </trkpt>
      <trkpt lat="22.897409" lon="111.153695">
        <ele>167.523207</ele>
        <time>2026-08-18T07:22:35.000Z</time>
      </trkpt>
      <trkpt lat="22.897417" lon="111.153723">
        <ele>167.528370</ele>
        <time>2026-08-18T07:22:36.000Z</time>
      </trkpt>
      <trkpt lat="22.897423" lon="111.153753">
        <ele>167.533777</ele>
        <time>2026-08-18T07:22:37.000Z</time>
      </trkpt>
      <trkpt lat="22.897430" lon="111.153784">
        <ele>167.539399</ele>
        <time>2026-08-18T07:22:38.000Z</time>
      </trkpt>
      <trkpt lat="22.897441" lon="111.153815">
        <ele>167.545250</ele>
        <time>2026-08-18T07:22:39.000Z</time>
      </trkpt>
      <trkpt lat="22.897452" lon="111.153847">
        <ele>167.551266</ele>
        <time>2026-08-18T07:22:40.000Z</time>
      </trkpt>
      <trkpt lat="22.897461" lon="111.153881">
        <ele>167.557497</ele>
        <time>2026-08-18T07:22:41.000Z</time>
      </trkpt>
      <trkpt lat="22.897472" lon="111.153917">
        <ele>167.564178</ele>
        <time>2026-08-18T07:22:42.000Z</time>
      </trkpt>
      <trkpt lat="22.897482" lon="111.153954">
        <ele>167.570969</ele>
        <time>2026-08-18T07:22:43.000Z</time>
      </trkpt>
      <trkpt lat="22.897493" lon="111.153992">
        <ele>167.577985</ele>
        <time>2026-08-18T07:22:44.000Z</time>
      </trkpt>
      <trkpt lat="22.897506" lon="111.154031">
        <ele>167.585290</ele>
        <time>2026-08-18T07:22:45.000Z</time>
      </trkpt>
      <trkpt lat="22.897519" lon="111.154072">
        <ele>167.592928</ele>
        <time>2026-08-18T07:22:46.000Z</time>
      </trkpt>
      <trkpt lat="22.897530" lon="111.154113">
        <ele>167.600449</ele>
        <time>2026-08-18T07:22:47.000Z</time>
      </trkpt>
      <trkpt lat="22.897542" lon="111.154154">
        <ele>167.608026</ele>
        <time>2026-08-18T07:22:48.000Z</time>
      </trkpt>
      <trkpt lat="22.897553" lon="111.154195">
        <ele>167.615548</ele>
        <time>2026-08-18T07:22:49.000Z</time>
      </trkpt>
      <trkpt lat="22.897563" lon="111.154234">
        <ele>167.622678</ele>
        <time>2026-08-18T07:22:50.000Z</time>
      </trkpt>
      <trkpt lat="22.897575" lon="111.154273">
        <ele>167.629920</ele>
        <time>2026-08-18T07:22:51.000Z</time>
      </trkpt>
      <trkpt lat="22.897587" lon="111.154312">
        <ele>167.637163</ele>
        <time>2026-08-18T07:22:52.000Z</time>
      </trkpt>
      <trkpt lat="22.897599" lon="111.154353">
        <ele>167.644740</ele>
        <time>2026-08-18T07:22:53.000Z</time>
      </trkpt>
      <trkpt lat="22.897612" lon="111.154394">
        <ele>167.652377</ele>
        <time>2026-08-18T07:22:54.000Z</time>
      </trkpt>
      <trkpt lat="22.897625" lon="111.154436">
        <ele>167.660181</ele>
        <time>2026-08-18T07:22:55.000Z</time>
      </trkpt>
      <trkpt lat="22.897637" lon="111.154476">
        <ele>167.667591</ele>
        <time>2026-08-18T07:22:56.000Z</time>
      </trkpt>
      <trkpt lat="22.897649" lon="111.154516">
        <ele>167.675000</ele>
        <time>2026-08-18T07:22:57.000Z</time>
      </trkpt>
      <trkpt lat="22.897661" lon="111.154555">
        <ele>167.682243</ele>
        <time>2026-08-18T07:22:58.000Z</time>
      </trkpt>
      <trkpt lat="22.897674" lon="111.154595">
        <ele>167.689714</ele>
        <time>2026-08-18T07:22:59.000Z</time>
      </trkpt>
      <trkpt lat="22.897687" lon="111.154636">
        <ele>167.697351</ele>
        <time>2026-08-18T07:23:00.000Z</time>
      </trkpt>
      <trkpt lat="22.897702" lon="111.154676">
        <ele>167.704958</ele>
        <time>2026-08-18T07:23:01.000Z</time>
      </trkpt>
      <trkpt lat="22.897715" lon="111.154717">
        <ele>167.712595</ele>
        <time>2026-08-18T07:23:02.000Z</time>
      </trkpt>
      <trkpt lat="22.897729" lon="111.154759">
        <ele>167.720462</ele>
        <time>2026-08-18T07:23:03.000Z</time>
      </trkpt>
      <trkpt lat="22.897744" lon="111.154802">
        <ele>167.728561</ele>
        <time>2026-08-18T07:23:04.000Z</time>
      </trkpt>
      <trkpt lat="22.897758" lon="111.154845">
        <ele>167.736593</ele>
        <time>2026-08-18T07:23:05.000Z</time>
      </trkpt>
      <trkpt lat="22.897771" lon="111.154888">
        <ele>167.744565</ele>
        <time>2026-08-18T07:23:06.000Z</time>
      </trkpt>
      <trkpt lat="22.897785" lon="111.154932">
        <ele>167.752764</ele>
        <time>2026-08-18T07:23:07.000Z</time>
      </trkpt>
      <trkpt lat="22.897800" lon="111.154976">
        <ele>167.761027</ele>
        <time>2026-08-18T07:23:08.000Z</time>
      </trkpt>
      <trkpt lat="22.897814" lon="111.155021">
        <ele>167.769393</ele>
        <time>2026-08-18T07:23:09.000Z</time>
      </trkpt>
      <trkpt lat="22.897829" lon="111.155068">
        <ele>167.778154</ele>
        <time>2026-08-18T07:23:10.000Z</time>
      </trkpt>
      <trkpt lat="22.897843" lon="111.155114">
        <ele>167.786687</ele>
        <time>2026-08-18T07:23:11.000Z</time>
      </trkpt>
      <trkpt lat="22.897859" lon="111.155161">
        <ele>167.795513</ele>
        <time>2026-08-18T07:23:12.000Z</time>
      </trkpt>
      <trkpt lat="22.897875" lon="111.155208">
        <ele>167.804338</ele>
        <time>2026-08-18T07:23:13.000Z</time>
      </trkpt>
      <trkpt lat="22.897892" lon="111.155255">
        <ele>167.813232</ele>
        <time>2026-08-18T07:23:14.000Z</time>
      </trkpt>
      <trkpt lat="22.897910" lon="111.155300">
        <ele>167.821873</ele>
        <time>2026-08-18T07:23:15.000Z</time>
      </trkpt>
      <trkpt lat="22.897928" lon="111.155345">
        <ele>167.852242</ele>
        <time>2026-08-18T07:23:16.000Z</time>
      </trkpt>
      <trkpt lat="22.897945" lon="111.155391">
        <ele>167.887621</ele>
        <time>2026-08-18T07:23:17.000Z</time>
      </trkpt>
      <trkpt lat="22.897961" lon="111.155437">
        <ele>167.922719</ele>
        <time>2026-08-18T07:23:18.000Z</time>
      </trkpt>
      <trkpt lat="22.897978" lon="111.155482">
        <ele>167.957437</ele>
        <time>2026-08-18T07:23:19.000Z</time>
      </trkpt>
      <trkpt lat="22.897996" lon="111.155526">
        <ele>167.991803</ele>
        <time>2026-08-18T07:23:20.000Z</time>
      </trkpt>
      <trkpt lat="22.898012" lon="111.155571">
        <ele>168.026234</ele>
        <time>2026-08-18T07:23:21.000Z</time>
      </trkpt>
      <trkpt lat="22.898026" lon="111.155616">
        <ele>168.060138</ele>
        <time>2026-08-18T07:23:22.000Z</time>
      </trkpt>
      <trkpt lat="22.898038" lon="111.155662">
        <ele>168.094265</ele>
        <time>2026-08-18T07:23:23.000Z</time>
      </trkpt>
      <trkpt lat="22.898052" lon="111.155711">
        <ele>168.130885</ele>
        <time>2026-08-18T07:23:24.000Z</time>
      </trkpt>
      <trkpt lat="22.898068" lon="111.155760">
        <ele>168.167994</ele>
        <time>2026-08-18T07:23:25.000Z</time>
      </trkpt>
      <trkpt lat="22.898085" lon="111.155809">
        <ele>168.205370</ele>
        <time>2026-08-18T07:23:26.000Z</time>
      </trkpt>
      <trkpt lat="22.898101" lon="111.155857">
        <ele>168.241807</ele>
        <time>2026-08-18T07:23:27.000Z</time>
      </trkpt>
      <trkpt lat="22.898116" lon="111.155904">
        <ele>168.277312</ele>
        <time>2026-08-18T07:23:28.000Z</time>
      </trkpt>
      <trkpt lat="22.898132" lon="111.155952">
        <ele>168.313750</ele>
        <time>2026-08-18T07:23:29.000Z</time>
      </trkpt>
      <trkpt lat="22.898149" lon="111.156001">
        <ele>168.351125</ele>
        <time>2026-08-18T07:23:30.000Z</time>
      </trkpt>
      <trkpt lat="22.898166" lon="111.156051">
        <ele>168.389169</ele>
        <time>2026-08-18T07:23:31.000Z</time>
      </trkpt>
      <trkpt lat="22.898182" lon="111.156101">
        <ele>168.426952</ele>
        <time>2026-08-18T07:23:32.000Z</time>
      </trkpt>
      <trkpt lat="22.898199" lon="111.156152">
        <ele>168.465666</ele>
        <time>2026-08-18T07:23:33.000Z</time>
      </trkpt>
      <trkpt lat="22.898216" lon="111.156203">
        <ele>168.504380</ele>
        <time>2026-08-18T07:23:34.000Z</time>
      </trkpt>
      <trkpt lat="22.898234" lon="111.156253">
        <ele>168.542700</ele>
        <time>2026-08-18T07:23:35.000Z</time>
      </trkpt>
      <trkpt lat="22.898252" lon="111.156304">
        <ele>168.581685</ele>
        <time>2026-08-18T07:23:36.000Z</time>
      </trkpt>
      <trkpt lat="22.898269" lon="111.156356">
        <ele>168.621071</ele>
        <time>2026-08-18T07:23:37.000Z</time>
      </trkpt>
      <trkpt lat="22.898286" lon="111.156407">
        <ele>168.659785</ele>
        <time>2026-08-18T07:23:38.000Z</time>
      </trkpt>
      <trkpt lat="22.898304" lon="111.156459">
        <ele>168.699438</ele>
        <time>2026-08-18T07:23:39.000Z</time>
      </trkpt>
      <trkpt lat="22.898322" lon="111.156509">
        <ele>168.737757</ele>
        <time>2026-08-18T07:23:40.000Z</time>
      </trkpt>
      <trkpt lat="22.898340" lon="111.156559">
        <ele>168.776076</ele>
        <time>2026-08-18T07:23:41.000Z</time>
      </trkpt>
      <trkpt lat="22.898357" lon="111.156610">
        <ele>168.814790</ele>
        <time>2026-08-18T07:23:42.000Z</time>
      </trkpt>
      <trkpt lat="22.898374" lon="111.156660">
        <ele>168.852834</ele>
        <time>2026-08-18T07:23:43.000Z</time>
      </trkpt>
      <trkpt lat="22.898392" lon="111.156710">
        <ele>168.891154</ele>
        <time>2026-08-18T07:23:44.000Z</time>
      </trkpt>
      <trkpt lat="22.898408" lon="111.156759">
        <ele>168.928263</ele>
        <time>2026-08-18T07:23:45.000Z</time>
      </trkpt>
      <trkpt lat="22.898424" lon="111.156807">
        <ele>168.964700</ele>
        <time>2026-08-18T07:23:46.000Z</time>
      </trkpt>
      <trkpt lat="22.898439" lon="111.156853">
        <ele>168.999532</ele>
        <time>2026-08-18T07:23:47.000Z</time>
      </trkpt>
      <trkpt lat="22.898455" lon="111.156899">
        <ele>169.034630</ele>
        <time>2026-08-18T07:23:48.000Z</time>
      </trkpt>
      <trkpt lat="22.898470" lon="111.156943">
        <ele>169.068119</ele>
        <time>2026-08-18T07:23:49.000Z</time>
      </trkpt>
      <trkpt lat="22.898484" lon="111.156987">
        <ele>169.101348</ele>
        <time>2026-08-18T07:23:50.000Z</time>
      </trkpt>
      <trkpt lat="22.898498" lon="111.157031">
        <ele>169.134576</ele>
        <time>2026-08-18T07:23:51.000Z</time>
      </trkpt>
      <trkpt lat="22.898509" lon="111.157072">
        <ele>169.165058</ele>
        <time>2026-08-18T07:23:52.000Z</time>
      </trkpt>
      <trkpt lat="22.898520" lon="111.157111">
        <ele>169.194172</ele>
        <time>2026-08-18T07:23:53.000Z</time>
      </trkpt>
      <trkpt lat="22.898532" lon="111.157150">
        <ele>169.258128</ele>
        <time>2026-08-18T07:23:54.000Z</time>
      </trkpt>
      <trkpt lat="22.898543" lon="111.157185">
        <ele>169.427174</ele>
        <time>2026-08-18T07:23:55.000Z</time>
      </trkpt>
      <trkpt lat="22.898553" lon="111.157221">
        <ele>169.599055</ele>
        <time>2026-08-18T07:23:56.000Z</time>
      </trkpt>
      <trkpt lat="22.898566" lon="111.157249">
        <ele>169.742386</ele>
        <time>2026-08-18T07:23:57.000Z</time>
      </trkpt>
      <trkpt lat="22.898577" lon="111.157277">
        <ele>169.881532</ele>
        <time>2026-08-18T07:23:58.000Z</time>
      </trkpt>
      <trkpt lat="22.898587" lon="111.157307">
        <ele>170.027369</ele>
        <time>2026-08-18T07:23:59.000Z</time>
      </trkpt>
      <trkpt lat="22.898598" lon="111.157338">
        <ele>170.179224</ele>
        <time>2026-08-18T07:24:00.000Z</time>
      </trkpt>
      <trkpt lat="22.898606" lon="111.157369">
        <ele>170.326386</ele>
        <time>2026-08-18T07:24:01.000Z</time>
      </trkpt>
      <trkpt lat="22.898614" lon="111.157398">
        <ele>170.464766</ele>
        <time>2026-08-18T07:24:02.000Z</time>
      </trkpt>
      <trkpt lat="22.898622" lon="111.157428">
        <ele>170.607532</ele>
        <time>2026-08-18T07:24:03.000Z</time>
      </trkpt>
      <trkpt lat="22.898630" lon="111.157457">
        <ele>170.745912</ele>
        <time>2026-08-18T07:24:04.000Z</time>
      </trkpt>
      <trkpt lat="22.898639" lon="111.157485">
        <ele>170.881473</ele>
        <time>2026-08-18T07:24:05.000Z</time>
      </trkpt>
      <trkpt lat="22.898647" lon="111.157511">
        <ele>171.006778</ele>
        <time>2026-08-18T07:24:06.000Z</time>
      </trkpt>
      <trkpt lat="22.898656" lon="111.157539">
        <ele>171.142338</ele>
        <time>2026-08-18T07:24:07.000Z</time>
      </trkpt>
      <trkpt lat="22.898666" lon="111.157566">
        <ele>171.275362</ele>
        <time>2026-08-18T07:24:08.000Z</time>
      </trkpt>
      <trkpt lat="22.898675" lon="111.157591">
        <ele>171.398058</ele>
        <time>2026-08-18T07:24:09.000Z</time>
      </trkpt>
      <trkpt lat="22.898682" lon="111.157615">
        <ele>171.513133</ele>
        <time>2026-08-18T07:24:10.000Z</time>
      </trkpt>
      <trkpt lat="22.898688" lon="111.157640">
        <ele>171.631227</ele>
        <time>2026-08-18T07:24:11.000Z</time>
      </trkpt>
      <trkpt lat="22.898696" lon="111.157665">
        <ele>171.752205</ele>
        <time>2026-08-18T07:24:12.000Z</time>
      </trkpt>
      <trkpt lat="22.898703" lon="111.157689">
        <ele>171.867281</ele>
        <time>2026-08-18T07:24:13.000Z</time>
      </trkpt>
      <trkpt lat="22.898711" lon="111.157712">
        <ele>171.979663</ele>
        <time>2026-08-18T07:24:14.000Z</time>
      </trkpt>
      <trkpt lat="22.898720" lon="111.157737">
        <ele>172.102358</ele>
        <time>2026-08-18T07:24:15.000Z</time>
      </trkpt>
      <trkpt lat="22.898726" lon="111.157762">
        <ele>172.220452</ele>
        <time>2026-08-18T07:24:16.000Z</time>
      </trkpt>
      <trkpt lat="22.898730" lon="111.157787">
        <ele>172.336443</ele>
        <time>2026-08-18T07:24:17.000Z</time>
      </trkpt>
      <trkpt lat="22.898736" lon="111.157813">
        <ele>172.458965</ele>
        <time>2026-08-18T07:24:18.000Z</time>
      </trkpt>
      <trkpt lat="22.898744" lon="111.157839">
        <ele>172.584270</ele>
        <time>2026-08-18T07:24:19.000Z</time>
      </trkpt>
      <trkpt lat="22.898752" lon="111.157865">
        <ele>172.709575</ele>
        <time>2026-08-18T07:24:20.000Z</time>
      </trkpt>
      <trkpt lat="22.898761" lon="111.157889">
        <ele>172.828025</ele>
        <time>2026-08-18T07:24:21.000Z</time>
      </trkpt>
      <trkpt lat="22.898770" lon="111.157911">
        <ele>172.938061</ele>
        <time>2026-08-18T07:24:22.000Z</time>
      </trkpt>
      <trkpt lat="22.898778" lon="111.157936">
        <ele>173.059039</ele>
        <time>2026-08-18T07:24:23.000Z</time>
      </trkpt>
      <trkpt lat="22.898786" lon="111.157959">
        <ele>173.171421</ele>
        <time>2026-08-18T07:24:24.000Z</time>
      </trkpt>
      <trkpt lat="22.898796" lon="111.157981">
        <ele>173.283563</ele>
        <time>2026-08-18T07:24:25.000Z</time>
      </trkpt>
      <trkpt lat="22.898805" lon="111.158003">
        <ele>173.393599</ele>
        <time>2026-08-18T07:24:26.000Z</time>
      </trkpt>
      <trkpt lat="22.898812" lon="111.158025">
        <ele>173.499994</ele>
        <time>2026-08-18T07:24:27.000Z</time>
      </trkpt>
      <trkpt lat="22.898820" lon="111.158047">
        <ele>173.608112</ele>
        <time>2026-08-18T07:24:28.000Z</time>
      </trkpt>
      <trkpt lat="22.898827" lon="111.158069">
        <ele>173.714507</ele>
        <time>2026-08-18T07:24:29.000Z</time>
      </trkpt>
      <trkpt lat="22.898834" lon="111.158091">
        <ele>173.820903</ele>
        <time>2026-08-18T07:24:30.000Z</time>
      </trkpt>
      <trkpt lat="22.898842" lon="111.158113">
        <ele>173.929020</ele>
        <time>2026-08-18T07:24:31.000Z</time>
      </trkpt>
      <trkpt lat="22.898849" lon="111.158133">
        <ele>174.026820</ele>
        <time>2026-08-18T07:24:32.000Z</time>
      </trkpt>
      <trkpt lat="22.898857" lon="111.158154">
        <ele>174.130699</ele>
        <time>2026-08-18T07:24:33.000Z</time>
      </trkpt>
      <trkpt lat="22.898863" lon="111.158174">
        <ele>174.226848</ele>
        <time>2026-08-18T07:24:34.000Z</time>
      </trkpt>
      <trkpt lat="22.898869" lon="111.158194">
        <ele>174.322997</ele>
        <time>2026-08-18T07:24:35.000Z</time>
      </trkpt>
      <trkpt lat="22.898876" lon="111.158214">
        <ele>174.420797</ele>
        <time>2026-08-18T07:24:36.000Z</time>
      </trkpt>
      <trkpt lat="22.898884" lon="111.158236">
        <ele>174.528914</ele>
        <time>2026-08-18T07:24:37.000Z</time>
      </trkpt>
      <trkpt lat="22.898890" lon="111.158256">
        <ele>174.625063</ele>
        <time>2026-08-18T07:24:38.000Z</time>
      </trkpt>
      <trkpt lat="22.898896" lon="111.158276">
        <ele>174.721212</ele>
        <time>2026-08-18T07:24:39.000Z</time>
      </trkpt>
      <trkpt lat="22.898904" lon="111.158298">
        <ele>174.829330</ele>
        <time>2026-08-18T07:24:40.000Z</time>
      </trkpt>
      <trkpt lat="22.898912" lon="111.158320">
        <ele>174.937447</ele>
        <time>2026-08-18T07:24:41.000Z</time>
      </trkpt>
      <trkpt lat="22.898920" lon="111.158344">
        <ele>175.054116</ele>
        <time>2026-08-18T07:24:42.000Z</time>
      </trkpt>
      <trkpt lat="22.898929" lon="111.158366">
        <ele>175.164152</ele>
        <time>2026-08-18T07:24:43.000Z</time>
      </trkpt>
      <trkpt lat="22.898938" lon="111.158389">
        <ele>175.278381</ele>
        <time>2026-08-18T07:24:44.000Z</time>
      </trkpt>
      <trkpt lat="22.898946" lon="111.158411">
        <ele>175.386498</ele>
        <time>2026-08-18T07:24:45.000Z</time>
      </trkpt>
      <trkpt lat="22.898953" lon="111.158433">
        <ele>175.492894</ele>
        <time>2026-08-18T07:24:46.000Z</time>
      </trkpt>
      <trkpt lat="22.898960" lon="111.158454">
        <ele>175.594980</ele>
        <time>2026-08-18T07:24:47.000Z</time>
      </trkpt>
      <trkpt lat="22.898966" lon="111.158474">
        <ele>175.691129</ele>
        <time>2026-08-18T07:24:48.000Z</time>
      </trkpt>
      <trkpt lat="22.898974" lon="111.158493">
        <ele>175.786623</ele>
        <time>2026-08-18T07:24:49.000Z</time>
      </trkpt>
      <trkpt lat="22.898981" lon="111.158513">
        <ele>175.884423</ele>
        <time>2026-08-18T07:24:50.000Z</time>
      </trkpt>
      <trkpt lat="22.898988" lon="111.158534">
        <ele>175.986508</ele>
        <time>2026-08-18T07:24:51.000Z</time>
      </trkpt>
      <trkpt lat="22.898994" lon="111.158555">
        <ele>176.087014</ele>
        <time>2026-08-18T07:24:52.000Z</time>
      </trkpt>
      <trkpt lat="22.899002" lon="111.158576">
        <ele>176.190893</ele>
        <time>2026-08-18T07:24:53.000Z</time>
      </trkpt>
      <trkpt lat="22.899010" lon="111.158598">
        <ele>176.299010</ele>
        <time>2026-08-18T07:24:54.000Z</time>
      </trkpt>
      <trkpt lat="22.899019" lon="111.158619">
        <ele>176.404884</ele>
        <time>2026-08-18T07:24:55.000Z</time>
      </trkpt>
      <trkpt lat="22.899027" lon="111.158641">
        <ele>176.513002</ele>
        <time>2026-08-18T07:24:56.000Z</time>
      </trkpt>
      <trkpt lat="22.899030" lon="111.158662">
        <ele>176.610143</ele>
        <time>2026-08-18T07:24:57.000Z</time>
      </trkpt>
      <trkpt lat="22.899039" lon="111.158683">
        <ele>176.716018</ele>
        <time>2026-08-18T07:24:58.000Z</time>
      </trkpt>
      <trkpt lat="22.899048" lon="111.158705">
        <ele>176.826054</ele>
        <time>2026-08-18T07:24:59.000Z</time>
      </trkpt>
      <trkpt lat="22.899056" lon="111.158727">
        <ele>176.934171</ele>
        <time>2026-08-18T07:25:00.000Z</time>
      </trkpt>
      <trkpt lat="22.899063" lon="111.158751">
        <ele>177.049247</ele>
        <time>2026-08-18T07:25:01.000Z</time>
      </trkpt>
      <trkpt lat="22.899070" lon="111.158774">
        <ele>177.159973</ele>
        <time>2026-08-18T07:25:02.000Z</time>
      </trkpt>
      <trkpt lat="22.899079" lon="111.158797">
        <ele>177.274201</ele>
        <time>2026-08-18T07:25:03.000Z</time>
      </trkpt>
      <trkpt lat="22.899088" lon="111.158821">
        <ele>177.392651</ele>
        <time>2026-08-18T07:25:04.000Z</time>
      </trkpt>
      <trkpt lat="22.899097" lon="111.158843">
        <ele>177.502687</ele>
        <time>2026-08-18T07:25:05.000Z</time>
      </trkpt>
      <trkpt lat="22.899105" lon="111.158866">
        <ele>177.615068</ele>
        <time>2026-08-18T07:25:06.000Z</time>
      </trkpt>
      <trkpt lat="22.899111" lon="111.158891">
        <ele>177.733162</ele>
        <time>2026-08-18T07:25:07.000Z</time>
      </trkpt>
      <trkpt lat="22.899117" lon="111.158914">
        <ele>177.842433</ele>
        <time>2026-08-18T07:25:08.000Z</time>
      </trkpt>
      <trkpt lat="22.899124" lon="111.158938">
        <ele>177.957508</ele>
        <time>2026-08-18T07:25:09.000Z</time>
      </trkpt>
      <trkpt lat="22.899133" lon="111.158961">
        <ele>178.071737</ele>
        <time>2026-08-18T07:25:10.000Z</time>
      </trkpt>
      <trkpt lat="22.899141" lon="111.158984">
        <ele>178.190938</ele>
        <time>2026-08-18T07:25:11.000Z</time>
      </trkpt>
      <trkpt lat="22.899150" lon="111.159008">
        <ele>178.328741</ele>
        <time>2026-08-18T07:25:12.000Z</time>
      </trkpt>
      <trkpt lat="22.899157" lon="111.159034">
        <ele>178.472794</ele>
        <time>2026-08-18T07:25:13.000Z</time>
      </trkpt>
      <trkpt lat="22.899165" lon="111.159059">
        <ele>178.613538</ele>
        <time>2026-08-18T07:25:14.000Z</time>
      </trkpt>
      <trkpt lat="22.899172" lon="111.159082">
        <ele>178.742355</ele>
        <time>2026-08-18T07:25:15.000Z</time>
      </trkpt>
      <trkpt lat="22.899179" lon="111.159105">
        <ele>178.871173</ele>
        <time>2026-08-18T07:25:16.000Z</time>
      </trkpt>
      <trkpt lat="22.899187" lon="111.159127">
        <ele>178.996955</ele>
        <time>2026-08-18T07:25:17.000Z</time>
      </trkpt>
      <trkpt lat="22.899196" lon="111.159148">
        <ele>179.120128</ele>
        <time>2026-08-18T07:25:18.000Z</time>
      </trkpt>
      <trkpt lat="22.899204" lon="111.159169">
        <ele>179.240980</ele>
        <time>2026-08-18T07:25:19.000Z</time>
      </trkpt>
      <trkpt lat="22.899212" lon="111.159191">
        <ele>179.366762</ele>
        <time>2026-08-18T07:25:20.000Z</time>
      </trkpt>
      <trkpt lat="22.899221" lon="111.159213">
        <ele>179.494777</ele>
        <time>2026-08-18T07:25:21.000Z</time>
      </trkpt>
      <trkpt lat="22.899229" lon="111.159234">
        <ele>179.615628</ele>
        <time>2026-08-18T07:25:22.000Z</time>
      </trkpt>
      <trkpt lat="22.899237" lon="111.159255">
        <ele>179.736479</ele>
        <time>2026-08-18T07:25:23.000Z</time>
      </trkpt>
      <trkpt lat="22.899244" lon="111.159277">
        <ele>179.860258</ele>
        <time>2026-08-18T07:25:24.000Z</time>
      </trkpt>
      <trkpt lat="22.899252" lon="111.159301">
        <ele>179.995990</ele>
        <time>2026-08-18T07:25:25.000Z</time>
      </trkpt>
      <trkpt lat="22.899261" lon="111.159323">
        <ele>180.124005</ele>
        <time>2026-08-18T07:25:26.000Z</time>
      </trkpt>
      <trkpt lat="22.899268" lon="111.159344">
        <ele>180.242770</ele>
        <time>2026-08-18T07:25:27.000Z</time>
      </trkpt>
      <trkpt lat="22.899276" lon="111.159366">
        <ele>180.368552</ele>
        <time>2026-08-18T07:25:28.000Z</time>
      </trkpt>
      <trkpt lat="22.899283" lon="111.159387">
        <ele>180.487317</ele>
        <time>2026-08-18T07:25:29.000Z</time>
      </trkpt>
      <trkpt lat="22.899291" lon="111.159408">
        <ele>180.608168</ele>
        <time>2026-08-18T07:25:30.000Z</time>
      </trkpt>
      <trkpt lat="22.899298" lon="111.159429">
        <ele>180.726933</ele>
        <time>2026-08-18T07:25:31.000Z</time>
      </trkpt>
      <trkpt lat="22.899307" lon="111.159452">
        <ele>180.859826</ele>
        <time>2026-08-18T07:25:32.000Z</time>
      </trkpt>
      <trkpt lat="22.899315" lon="111.159474">
        <ele>180.985608</ele>
        <time>2026-08-18T07:25:33.000Z</time>
      </trkpt>
      <trkpt lat="22.899323" lon="111.159497">
        <ele>181.116351</ele>
        <time>2026-08-18T07:25:34.000Z</time>
      </trkpt>
      <trkpt lat="22.899332" lon="111.159520">
        <ele>181.249243</ele>
        <time>2026-08-18T07:25:35.000Z</time>
      </trkpt>
      <trkpt lat="22.899340" lon="111.159542">
        <ele>181.375026</ele>
        <time>2026-08-18T07:25:36.000Z</time>
      </trkpt>
      <trkpt lat="22.899350" lon="111.159564">
        <ele>181.505490</ele>
        <time>2026-08-18T07:25:37.000Z</time>
      </trkpt>
      <trkpt lat="22.899359" lon="111.159587">
        <ele>181.638382</ele>
        <time>2026-08-18T07:25:38.000Z</time>
      </trkpt>
      <trkpt lat="22.899365" lon="111.159611">
        <ele>181.770631</ele>
        <time>2026-08-18T07:25:39.000Z</time>
      </trkpt>
      <trkpt lat="22.899372" lon="111.159635">
        <ele>181.904509</ele>
        <time>2026-08-18T07:25:40.000Z</time>
      </trkpt>
      <trkpt lat="22.899380" lon="111.159657">
        <ele>182.030291</ele>
        <time>2026-08-18T07:25:41.000Z</time>
      </trkpt>
      <trkpt lat="22.899387" lon="111.159679">
        <ele>182.154070</ele>
        <time>2026-08-18T07:25:42.000Z</time>
      </trkpt>
      <trkpt lat="22.899394" lon="111.159700">
        <ele>182.272835</ele>
        <time>2026-08-18T07:25:43.000Z</time>
      </trkpt>
      <trkpt lat="22.899401" lon="111.159721">
        <ele>182.391600</ele>
        <time>2026-08-18T07:25:44.000Z</time>
      </trkpt>
      <trkpt lat="22.899407" lon="111.159742">
        <ele>182.508526</ele>
        <time>2026-08-18T07:25:45.000Z</time>
      </trkpt>
      <trkpt lat="22.899416" lon="111.159764">
        <ele>182.636541</ele>
        <time>2026-08-18T07:25:46.000Z</time>
      </trkpt>
      <trkpt lat="22.899424" lon="111.159786">
        <ele>182.762323</ele>
        <time>2026-08-18T07:25:47.000Z</time>
      </trkpt>
      <trkpt lat="22.899432" lon="111.159809">
        <ele>182.893066</ele>
        <time>2026-08-18T07:25:48.000Z</time>
      </trkpt>
      <trkpt lat="22.899441" lon="111.159830">
        <ele>183.016239</ele>
        <time>2026-08-18T07:25:49.000Z</time>
      </trkpt>
      <trkpt lat="22.899452" lon="111.159850">
        <ele>183.140115</ele>
        <time>2026-08-18T07:25:50.000Z</time>
      </trkpt>
      <trkpt lat="22.899462" lon="111.159870">
        <ele>183.261132</ele>
        <time>2026-08-18T07:25:51.000Z</time>
      </trkpt>
      <trkpt lat="22.899470" lon="111.159892">
        <ele>183.386914</ele>
        <time>2026-08-18T07:25:52.000Z</time>
      </trkpt>
      <trkpt lat="22.899480" lon="111.159913">
        <ele>183.512632</ele>
        <time>2026-08-18T07:25:53.000Z</time>
      </trkpt>
      <trkpt lat="22.899489" lon="111.159935">
        <ele>183.640646</ele>
        <time>2026-08-18T07:25:54.000Z</time>
      </trkpt>
      <trkpt lat="22.899495" lon="111.159957">
        <ele>183.762662</ele>
        <time>2026-08-18T07:25:55.000Z</time>
      </trkpt>
      <trkpt lat="22.899502" lon="111.159978">
        <ele>183.881427</ele>
        <time>2026-08-18T07:25:56.000Z</time>
      </trkpt>
      <trkpt lat="22.899510" lon="111.159999">
        <ele>184.002278</ele>
        <time>2026-08-18T07:25:57.000Z</time>
      </trkpt>
      <trkpt lat="22.899518" lon="111.160022">
        <ele>184.133021</ele>
        <time>2026-08-18T07:25:58.000Z</time>
      </trkpt>
      <trkpt lat="22.899526" lon="111.160045">
        <ele>184.263765</ele>
        <time>2026-08-18T07:25:59.000Z</time>
      </trkpt>
      <trkpt lat="22.899535" lon="111.160065">
        <ele>184.382137</ele>
        <time>2026-08-18T07:26:00.000Z</time>
      </trkpt>
      <trkpt lat="22.899542" lon="111.160086">
        <ele>184.500902</ele>
        <time>2026-08-18T07:26:01.000Z</time>
      </trkpt>
      <trkpt lat="22.899550" lon="111.160107">
        <ele>184.621753</ele>
        <time>2026-08-18T07:26:02.000Z</time>
      </trkpt>
      <trkpt lat="22.899559" lon="111.160130">
        <ele>184.754645</ele>
        <time>2026-08-18T07:26:03.000Z</time>
      </trkpt>
      <trkpt lat="22.899567" lon="111.160153">
        <ele>184.885388</ele>
        <time>2026-08-18T07:26:04.000Z</time>
      </trkpt>
      <trkpt lat="22.899576" lon="111.160176">
        <ele>185.018280</ele>
        <time>2026-08-18T07:26:05.000Z</time>
      </trkpt>
      <trkpt lat="22.899584" lon="111.160200">
        <ele>185.154012</ele>
        <time>2026-08-18T07:26:06.000Z</time>
      </trkpt>
      <trkpt lat="22.899591" lon="111.160225">
        <ele>185.292968</ele>
        <time>2026-08-18T07:26:07.000Z</time>
      </trkpt>
      <trkpt lat="22.899600" lon="111.160249">
        <ele>185.430770</ele>
        <time>2026-08-18T07:26:08.000Z</time>
      </trkpt>
      <trkpt lat="22.899609" lon="111.160272">
        <ele>185.563663</ele>
        <time>2026-08-18T07:26:09.000Z</time>
      </trkpt>
      <trkpt lat="22.899619" lon="111.160293">
        <ele>185.689380</ele>
        <time>2026-08-18T07:26:10.000Z</time>
      </trkpt>
      <trkpt lat="22.899628" lon="111.160315">
        <ele>185.817394</ele>
        <time>2026-08-18T07:26:11.000Z</time>
      </trkpt>
      <trkpt lat="22.899635" lon="111.160342">
        <ele>185.966559</ele>
        <time>2026-08-18T07:26:12.000Z</time>
      </trkpt>
      <trkpt lat="22.899642" lon="111.160365">
        <ele>186.095376</ele>
        <time>2026-08-18T07:26:13.000Z</time>
      </trkpt>
      <trkpt lat="22.899650" lon="111.160391">
        <ele>186.241153</ele>
        <time>2026-08-18T07:26:14.000Z</time>
      </trkpt>
      <trkpt lat="22.899657" lon="111.160413">
        <ele>186.364932</ele>
        <time>2026-08-18T07:26:15.000Z</time>
      </trkpt>
      <trkpt lat="22.899663" lon="111.160436">
        <ele>186.492056</ele>
        <time>2026-08-18T07:26:16.000Z</time>
      </trkpt>
      <trkpt lat="22.899669" lon="111.160458">
        <ele>186.614072</ele>
        <time>2026-08-18T07:26:17.000Z</time>
      </trkpt>
      <trkpt lat="22.899676" lon="111.160480">
        <ele>186.737851</ele>
        <time>2026-08-18T07:26:18.000Z</time>
      </trkpt>
      <trkpt lat="22.899683" lon="111.160501">
        <ele>186.856615</ele>
        <time>2026-08-18T07:26:19.000Z</time>
      </trkpt>
      <trkpt lat="22.899689" lon="111.160523">
        <ele>186.978631</ele>
        <time>2026-08-18T07:26:20.000Z</time>
      </trkpt>
      <trkpt lat="22.899695" lon="111.160542">
        <ele>187.085446</ele>
        <time>2026-08-18T07:26:21.000Z</time>
      </trkpt>
      <trkpt lat="22.899700" lon="111.160562">
        <ele>187.195653</ele>
        <time>2026-08-18T07:26:22.000Z</time>
      </trkpt>
      <trkpt lat="22.899708" lon="111.160582">
        <ele>187.311608</ele>
        <time>2026-08-18T07:26:23.000Z</time>
      </trkpt>
      <trkpt lat="22.899712" lon="111.160603">
        <ele>187.425648</ele>
        <time>2026-08-18T07:26:24.000Z</time>
      </trkpt>
      <trkpt lat="22.899718" lon="111.160623">
        <ele>187.537507</ele>
        <time>2026-08-18T07:26:25.000Z</time>
      </trkpt>
      <trkpt lat="22.899725" lon="111.160641">
        <ele>187.641411</ele>
        <time>2026-08-18T07:26:26.000Z</time>
      </trkpt>
      <trkpt lat="22.899733" lon="111.160661">
        <ele>187.757366</ele>
        <time>2026-08-18T07:26:27.000Z</time>
      </trkpt>
      <trkpt lat="22.899739" lon="111.160684">
        <ele>187.884490</ele>
        <time>2026-08-18T07:26:28.000Z</time>
      </trkpt>
      <trkpt lat="22.899745" lon="111.160707">
        <ele>188.011614</ele>
        <time>2026-08-18T07:26:29.000Z</time>
      </trkpt>
      <trkpt lat="22.899750" lon="111.160732">
        <ele>188.147662</ele>
        <time>2026-08-18T07:26:30.000Z</time>
      </trkpt>
      <trkpt lat="22.899757" lon="111.160755">
        <ele>188.276479</ele>
        <time>2026-08-18T07:26:31.000Z</time>
      </trkpt>
      <trkpt lat="22.899767" lon="111.160778">
        <ele>188.411732</ele>
        <time>2026-08-18T07:26:32.000Z</time>
      </trkpt>
      <trkpt lat="22.899775" lon="111.160802">
        <ele>188.533648</ele>
        <time>2026-08-18T07:26:33.000Z</time>
      </trkpt>
      <trkpt lat="22.899782" lon="111.160824">
        <ele>188.577979</ele>
        <time>2026-08-18T07:26:34.000Z</time>
      </trkpt>
      <trkpt lat="22.899786" lon="111.160843">
        <ele>188.615100</ele>
        <time>2026-08-18T07:26:35.000Z</time>
      </trkpt>
      <trkpt lat="22.899793" lon="111.160865">
        <ele>188.659432</ele>
        <time>2026-08-18T07:26:36.000Z</time>
      </trkpt>
      <trkpt lat="22.899801" lon="111.160887">
        <ele>188.704480</ele>
        <time>2026-08-18T07:26:37.000Z</time>
      </trkpt>
      <trkpt lat="22.899807" lon="111.160910">
        <ele>188.750009</ele>
        <time>2026-08-18T07:26:38.000Z</time>
      </trkpt>
      <trkpt lat="22.899814" lon="111.160932">
        <ele>188.794341</ele>
        <time>2026-08-18T07:26:39.000Z</time>
      </trkpt>
      <trkpt lat="22.899824" lon="111.160955">
        <ele>188.842781</ele>
        <time>2026-08-18T07:26:40.000Z</time>
      </trkpt>
      <trkpt lat="22.899837" lon="111.160982">
        <ele>188.900807</ele>
        <time>2026-08-18T07:26:41.000Z</time>
      </trkpt>
      <trkpt lat="22.899849" lon="111.161008">
        <ele>188.956196</ele>
        <time>2026-08-18T07:26:42.000Z</time>
      </trkpt>
      <trkpt lat="22.899859" lon="111.161031">
        <ele>189.004636</ele>
        <time>2026-08-18T07:26:43.000Z</time>
      </trkpt>
      <trkpt lat="22.899866" lon="111.161057">
        <ele>189.056229</ele>
        <time>2026-08-18T07:26:44.000Z</time>
      </trkpt>
      <trkpt lat="22.899874" lon="111.161083">
        <ele>189.108438</ele>
        <time>2026-08-18T07:26:45.000Z</time>
      </trkpt>
      <trkpt lat="22.899881" lon="111.161109">
        <ele>189.160031</ele>
        <time>2026-08-18T07:26:46.000Z</time>
      </trkpt>
      <trkpt lat="22.899888" lon="111.161132">
        <ele>189.206166</ele>
        <time>2026-08-18T07:26:47.000Z</time>
      </trkpt>
      <trkpt lat="22.899895" lon="111.161157">
        <ele>189.255933</ele>
        <time>2026-08-18T07:26:48.000Z</time>
      </trkpt>
      <trkpt lat="22.899903" lon="111.161183">
        <ele>189.308143</ele>
        <time>2026-08-18T07:26:49.000Z</time>
      </trkpt>
      <trkpt lat="22.899910" lon="111.161209">
        <ele>189.359735</ele>
        <time>2026-08-18T07:26:50.000Z</time>
      </trkpt>
      <trkpt lat="22.899916" lon="111.161238">
        <ele>189.416345</ele>
        <time>2026-08-18T07:26:51.000Z</time>
      </trkpt>
      <trkpt lat="22.899922" lon="111.161269">
        <ele>189.476678</ele>
        <time>2026-08-18T07:26:52.000Z</time>
      </trkpt>
      <trkpt lat="22.899926" lon="111.161297">
        <ele>189.530646</ele>
        <time>2026-08-18T07:26:53.000Z</time>
      </trkpt>
      <trkpt lat="22.899930" lon="111.161324">
        <ele>189.582731</ele>
        <time>2026-08-18T07:26:54.000Z</time>
      </trkpt>
      <trkpt lat="22.899936" lon="111.161352">
        <ele>189.637485</ele>
        <time>2026-08-18T07:26:55.000Z</time>
      </trkpt>
      <trkpt lat="22.899941" lon="111.161377">
        <ele>189.686210</ele>
        <time>2026-08-18T07:26:56.000Z</time>
      </trkpt>
      <trkpt lat="22.899947" lon="111.161403">
        <ele>189.737261</ele>
        <time>2026-08-18T07:26:57.000Z</time>
      </trkpt>
      <trkpt lat="22.899954" lon="111.161430">
        <ele>189.790684</ele>
        <time>2026-08-18T07:26:58.000Z</time>
      </trkpt>
      <trkpt lat="22.899964" lon="111.161458">
        <ele>189.847881</ele>
        <time>2026-08-18T07:26:59.000Z</time>
      </trkpt>
      <trkpt lat="22.899973" lon="111.161485">
        <ele>189.902570</ele>
        <time>2026-08-18T07:27:00.000Z</time>
      </trkpt>
      <trkpt lat="22.899981" lon="111.161514">
        <ele>189.960227</ele>
        <time>2026-08-18T07:27:01.000Z</time>
      </trkpt>
      <trkpt lat="22.899989" lon="111.161544">
        <ele>190.019712</ele>
        <time>2026-08-18T07:27:02.000Z</time>
      </trkpt>
      <trkpt lat="22.899995" lon="111.161574">
        <ele>190.078183</ele>
        <time>2026-08-18T07:27:03.000Z</time>
      </trkpt>
      <trkpt lat="22.900001" lon="111.161604">
        <ele>190.136653</ele>
        <time>2026-08-18T07:27:04.000Z</time>
      </trkpt>
      <trkpt lat="22.900009" lon="111.161633">
        <ele>190.194311</ele>
        <time>2026-08-18T07:27:05.000Z</time>
      </trkpt>
      <trkpt lat="22.900016" lon="111.161664">
        <ele>190.255102</ele>
        <time>2026-08-18T07:27:06.000Z</time>
      </trkpt>
      <trkpt lat="22.900024" lon="111.161694">
        <ele>190.314587</ele>
        <time>2026-08-18T07:27:07.000Z</time>
      </trkpt>
      <trkpt lat="22.900032" lon="111.161725">
        <ele>190.375904</ele>
        <time>2026-08-18T07:27:08.000Z</time>
      </trkpt>
      <trkpt lat="22.900041" lon="111.161755">
        <ele>190.435997</ele>
        <time>2026-08-18T07:27:09.000Z</time>
      </trkpt>
      <trkpt lat="22.900051" lon="111.161785">
        <ele>190.496761</ele>
        <time>2026-08-18T07:27:10.000Z</time>
      </trkpt>
      <trkpt lat="22.900061" lon="111.161814">
        <ele>190.555739</ele>
        <time>2026-08-18T07:27:11.000Z</time>
      </trkpt>
      <trkpt lat="22.900070" lon="111.161845">
        <ele>190.617645</ele>
        <time>2026-08-18T07:27:12.000Z</time>
      </trkpt>
      <trkpt lat="22.900080" lon="111.161876">
        <ele>190.680204</ele>
        <time>2026-08-18T07:27:13.000Z</time>
      </trkpt>
      <trkpt lat="22.900090" lon="111.161905">
        <ele>190.739182</ele>
        <time>2026-08-18T07:27:14.000Z</time>
      </trkpt>
      <trkpt lat="22.900099" lon="111.161934">
        <ele>190.797466</ele>
        <time>2026-08-18T07:27:15.000Z</time>
      </trkpt>
      <trkpt lat="22.900107" lon="111.161965">
        <ele>190.858783</ele>
        <time>2026-08-18T07:27:16.000Z</time>
      </trkpt>
      <trkpt lat="22.900115" lon="111.161997">
        <ele>190.921936</ele>
        <time>2026-08-18T07:27:17.000Z</time>
      </trkpt>
      <trkpt lat="22.900122" lon="111.162029">
        <ele>190.984579</ele>
        <time>2026-08-18T07:27:18.000Z</time>
      </trkpt>
      <trkpt lat="22.900130" lon="111.162062">
        <ele>191.049572</ele>
        <time>2026-08-18T07:27:19.000Z</time>
      </trkpt>
      <trkpt lat="22.900137" lon="111.162095">
        <ele>191.114069</ele>
        <time>2026-08-18T07:27:20.000Z</time>
      </trkpt>
      <trkpt lat="22.900144" lon="111.162128">
        <ele>191.178567</ele>
        <time>2026-08-18T07:27:21.000Z</time>
      </trkpt>
      <trkpt lat="22.900152" lon="111.162163">
        <ele>191.247250</ele>
        <time>2026-08-18T07:27:22.000Z</time>
      </trkpt>
      <trkpt lat="22.900159" lon="111.162198">
        <ele>191.315466</ele>
        <time>2026-08-18T07:27:23.000Z</time>
      </trkpt>
      <trkpt lat="22.900166" lon="111.162233">
        <ele>191.383681</ele>
        <time>2026-08-18T07:27:24.000Z</time>
      </trkpt>
      <trkpt lat="22.900175" lon="111.162269">
        <ele>191.454728</ele>
        <time>2026-08-18T07:27:25.000Z</time>
      </trkpt>
      <trkpt lat="22.900186" lon="111.162306">
        <ele>191.528778</ele>
        <time>2026-08-18T07:27:26.000Z</time>
      </trkpt>
      <trkpt lat="22.900198" lon="111.162341">
        <ele>191.599908</ele>
        <time>2026-08-18T07:27:27.000Z</time>
      </trkpt>
      <trkpt lat="22.900209" lon="111.162378">
        <ele>191.673958</ele>
        <time>2026-08-18T07:27:28.000Z</time>
      </trkpt>
      <trkpt lat="22.900219" lon="111.162415">
        <ele>191.747400</ele>
        <time>2026-08-18T07:27:29.000Z</time>
      </trkpt>
      <trkpt lat="22.900230" lon="111.162453">
        <ele>191.823265</ele>
        <time>2026-08-18T07:27:30.000Z</time>
      </trkpt>
      <trkpt lat="22.900241" lon="111.162491">
        <ele>191.899130</ele>
        <time>2026-08-18T07:27:31.000Z</time>
      </trkpt>
      <trkpt lat="22.900252" lon="111.162528">
        <ele>191.973181</ele>
        <time>2026-08-18T07:27:32.000Z</time>
      </trkpt>
      <trkpt lat="22.900261" lon="111.162567">
        <ele>192.049757</ele>
        <time>2026-08-18T07:27:33.000Z</time>
      </trkpt>
      <trkpt lat="22.900267" lon="111.162609">
        <ele>192.130707</ele>
        <time>2026-08-18T07:27:34.000Z</time>
      </trkpt>
      <trkpt lat="22.900274" lon="111.162652">
        <ele>192.213875</ele>
        <time>2026-08-18T07:27:35.000Z</time>
      </trkpt>
      <trkpt lat="22.900282" lon="111.162695">
        <ele>192.203956</ele>
        <time>2026-08-18T07:27:36.000Z</time>
      </trkpt>
      <trkpt lat="22.900292" lon="111.162739">
        <ele>192.136983</ele>
        <time>2026-08-18T07:27:37.000Z</time>
      </trkpt>
      <trkpt lat="22.900303" lon="111.162784">
        <ele>192.068181</ele>
        <time>2026-08-18T07:27:38.000Z</time>
      </trkpt>
      <trkpt lat="22.900315" lon="111.162830">
        <ele>191.997528</ele>
        <time>2026-08-18T07:27:39.000Z</time>
      </trkpt>
      <trkpt lat="22.900325" lon="111.162876">
        <ele>191.927682</ele>
        <time>2026-08-18T07:27:40.000Z</time>
      </trkpt>
      <trkpt lat="22.900335" lon="111.162923">
        <ele>191.856397</ele>
        <time>2026-08-18T07:27:41.000Z</time>
      </trkpt>
      <trkpt lat="22.900347" lon="111.162970">
        <ele>191.784322</ele>
        <time>2026-08-18T07:27:42.000Z</time>
      </trkpt>
      <trkpt lat="22.900360" lon="111.163020">
        <ele>191.707545</ele>
        <time>2026-08-18T07:27:43.000Z</time>
      </trkpt>
      <trkpt lat="22.900373" lon="111.163068">
        <ele>191.633609</ele>
        <time>2026-08-18T07:27:44.000Z</time>
      </trkpt>
      <trkpt lat="22.900387" lon="111.163118">
        <ele>191.556381</ele>
        <time>2026-08-18T07:27:45.000Z</time>
      </trkpt>
      <trkpt lat="22.900399" lon="111.163169">
        <ele>191.478593</ele>
        <time>2026-08-18T07:27:46.000Z</time>
      </trkpt>
      <trkpt lat="22.900411" lon="111.163220">
        <ele>191.400806</ele>
        <time>2026-08-18T07:27:47.000Z</time>
      </trkpt>
      <trkpt lat="22.900422" lon="111.163273">
        <ele>191.320519</ele>
        <time>2026-08-18T07:27:48.000Z</time>
      </trkpt>
      <trkpt lat="22.900434" lon="111.163325">
        <ele>191.241299</ele>
        <time>2026-08-18T07:27:49.000Z</time>
      </trkpt>
      <trkpt lat="22.900446" lon="111.163379">
        <ele>191.159209</ele>
        <time>2026-08-18T07:27:50.000Z</time>
      </trkpt>
      <trkpt lat="22.900460" lon="111.163434">
        <ele>191.074884</ele>
        <time>2026-08-18T07:27:51.000Z</time>
      </trkpt>
      <trkpt lat="22.900474" lon="111.163490">
        <ele>190.989134</ele>
        <time>2026-08-18T07:27:52.000Z</time>
      </trkpt>
      <trkpt lat="22.900488" lon="111.163546">
        <ele>190.903383</ele>
        <time>2026-08-18T07:27:53.000Z</time>
      </trkpt>
      <trkpt lat="22.900501" lon="111.163603">
        <ele>190.816606</ele>
        <time>2026-08-18T07:27:54.000Z</time>
      </trkpt>
      <trkpt lat="22.900516" lon="111.163660">
        <ele>190.729001</ele>
        <time>2026-08-18T07:27:55.000Z</time>
      </trkpt>
      <trkpt lat="22.900530" lon="111.163717">
        <ele>190.641824</ele>
        <time>2026-08-18T07:27:56.000Z</time>
      </trkpt>
      <trkpt lat="22.900543" lon="111.163774">
        <ele>190.555046</ele>
        <time>2026-08-18T07:27:57.000Z</time>
      </trkpt>
      <trkpt lat="22.900558" lon="111.163832">
        <ele>190.466020</ele>
        <time>2026-08-18T07:27:58.000Z</time>
      </trkpt>
      <trkpt lat="22.900573" lon="111.163891">
        <ele>190.375571</ele>
        <time>2026-08-18T07:27:59.000Z</time>
      </trkpt>
      <trkpt lat="22.900587" lon="111.163950">
        <ele>190.285534</ele>
        <time>2026-08-18T07:28:00.000Z</time>
      </trkpt>
      <trkpt lat="22.900601" lon="111.164010">
        <ele>190.194066</ele>
        <time>2026-08-18T07:28:01.000Z</time>
      </trkpt>
      <trkpt lat="22.900615" lon="111.164070">
        <ele>190.102598</ele>
        <time>2026-08-18T07:28:02.000Z</time>
      </trkpt>
      <trkpt lat="22.900630" lon="111.164131">
        <ele>190.009296</ele>
        <time>2026-08-18T07:28:03.000Z</time>
      </trkpt>
      <trkpt lat="22.900642" lon="111.164194">
        <ele>189.914225</ele>
        <time>2026-08-18T07:28:04.000Z</time>
      </trkpt>
      <trkpt lat="22.900655" lon="111.164256">
        <ele>189.820259</ele>
        <time>2026-08-18T07:28:05.000Z</time>
      </trkpt>
      <trkpt lat="22.900668" lon="111.164320">
        <ele>189.723408</ele>
        <time>2026-08-18T07:28:06.000Z</time>
      </trkpt>
      <trkpt lat="22.900680" lon="111.164386">
        <ele>189.623991</ele>
        <time>2026-08-18T07:28:07.000Z</time>
      </trkpt>
      <trkpt lat="22.900692" lon="111.164451">
        <ele>189.526025</ele>
        <time>2026-08-18T07:28:08.000Z</time>
      </trkpt>
      <trkpt lat="22.900703" lon="111.164516">
        <ele>189.428360</ele>
        <time>2026-08-18T07:28:09.000Z</time>
      </trkpt>
      <trkpt lat="22.900714" lon="111.164580">
        <ele>189.333918</ele>
        <time>2026-08-18T07:28:10.000Z</time>
      </trkpt>
      <trkpt lat="22.900726" lon="111.164643">
        <ele>189.245034</ele>
        <time>2026-08-18T07:28:11.000Z</time>
      </trkpt>
      <trkpt lat="22.900737" lon="111.164709">
        <ele>189.152365</ele>
        <time>2026-08-18T07:28:12.000Z</time>
      </trkpt>
      <trkpt lat="22.900748" lon="111.164775">
        <ele>189.059696</ele>
        <time>2026-08-18T07:28:13.000Z</time>
      </trkpt>
      <trkpt lat="22.900759" lon="111.164841">
        <ele>188.967028</ele>
        <time>2026-08-18T07:28:14.000Z</time>
      </trkpt>
      <trkpt lat="22.900769" lon="111.164908">
        <ele>188.873251</ele>
        <time>2026-08-18T07:28:15.000Z</time>
      </trkpt>
      <trkpt lat="22.900779" lon="111.164975">
        <ele>188.779474</ele>
        <time>2026-08-18T07:28:16.000Z</time>
      </trkpt>
      <trkpt lat="22.900789" lon="111.165043">
        <ele>188.684333</ele>
        <time>2026-08-18T07:28:17.000Z</time>
      </trkpt>
      <trkpt lat="22.900799" lon="111.165113">
        <ele>188.586462</ele>
        <time>2026-08-18T07:28:18.000Z</time>
      </trkpt>
      <trkpt lat="22.900807" lon="111.165181">
        <ele>188.491747</ele>
        <time>2026-08-18T07:28:19.000Z</time>
      </trkpt>
      <trkpt lat="22.900815" lon="111.165249">
        <ele>188.397033</ele>
        <time>2026-08-18T07:28:20.000Z</time>
      </trkpt>
      <trkpt lat="22.900823" lon="111.165319">
        <ele>188.299577</ele>
        <time>2026-08-18T07:28:21.000Z</time>
      </trkpt>
      <trkpt lat="22.900832" lon="111.165390">
        <ele>188.200556</ele>
        <time>2026-08-18T07:28:22.000Z</time>
      </trkpt>
      <trkpt lat="22.900842" lon="111.165459">
        <ele>188.104050</ele>
        <time>2026-08-18T07:28:23.000Z</time>
      </trkpt>
      <trkpt lat="22.900851" lon="111.165529">
        <ele>188.006398</ele>
        <time>2026-08-18T07:28:24.000Z</time>
      </trkpt>
      <trkpt lat="22.900858" lon="111.165599">
        <ele>187.909115</ele>
        <time>2026-08-18T07:28:25.000Z</time>
      </trkpt>
      <trkpt lat="22.900867" lon="111.165669">
        <ele>187.811463</ele>
        <time>2026-08-18T07:28:26.000Z</time>
      </trkpt>
      <trkpt lat="22.900875" lon="111.165739">
        <ele>187.714007</ele>
        <time>2026-08-18T07:28:27.000Z</time>
      </trkpt>
      <trkpt lat="22.900882" lon="111.165809">
        <ele>187.616724</ele>
        <time>2026-08-18T07:28:28.000Z</time>
      </trkpt>
      <trkpt lat="22.900888" lon="111.165880">
        <ele>187.518216</ele>
        <time>2026-08-18T07:28:29.000Z</time>
      </trkpt>
      <trkpt lat="22.900893" lon="111.165951">
        <ele>187.419834</ele>
        <time>2026-08-18T07:28:30.000Z</time>
      </trkpt>
      <trkpt lat="22.900898" lon="111.166022">
        <ele>187.321451</ele>
        <time>2026-08-18T07:28:31.000Z</time>
      </trkpt>
      <trkpt lat="22.900903" lon="111.166092">
        <ele>187.224446</ele>
        <time>2026-08-18T07:28:32.000Z</time>
      </trkpt>
      <trkpt lat="22.900909" lon="111.166161">
        <ele>187.128689</ele>
        <time>2026-08-18T07:28:33.000Z</time>
      </trkpt>
      <trkpt lat="22.900914" lon="111.166231">
        <ele>187.031685</ele>
        <time>2026-08-18T07:28:34.000Z</time>
      </trkpt>
      <trkpt lat="22.900918" lon="111.166299">
        <ele>186.937542</ele>
        <time>2026-08-18T07:28:35.000Z</time>
      </trkpt>
      <trkpt lat="22.900921" lon="111.166367">
        <ele>186.843483</ele>
        <time>2026-08-18T07:28:36.000Z</time>
      </trkpt>
      <trkpt lat="22.900924" lon="111.166435">
        <ele>186.749424</ele>
        <time>2026-08-18T07:28:37.000Z</time>
      </trkpt>
      <trkpt lat="22.900927" lon="111.166503">
        <ele>186.648496</ele>
        <time>2026-08-18T07:28:38.000Z</time>
      </trkpt>
      <trkpt lat="22.900928" lon="111.166571">
        <ele>186.451508</ele>
        <time>2026-08-18T07:28:39.000Z</time>
      </trkpt>
      <trkpt lat="22.900931" lon="111.166638">
        <ele>186.257212</ele>
        <time>2026-08-18T07:28:40.000Z</time>
      </trkpt>
      <trkpt lat="22.900934" lon="111.166705">
        <ele>186.062916</ele>
        <time>2026-08-18T07:28:41.000Z</time>
      </trkpt>
      <trkpt lat="22.900937" lon="111.166773">
        <ele>185.865727</ele>
        <time>2026-08-18T07:28:42.000Z</time>
      </trkpt>
      <trkpt lat="22.900938" lon="111.166840">
        <ele>185.671634</ele>
        <time>2026-08-18T07:28:43.000Z</time>
      </trkpt>
      <trkpt lat="22.900938" lon="111.166906">
        <ele>185.480464</ele>
        <time>2026-08-18T07:28:44.000Z</time>
      </trkpt>
      <trkpt lat="22.900940" lon="111.166972">
        <ele>185.289191</ele>
        <time>2026-08-18T07:28:45.000Z</time>
      </trkpt>
      <trkpt lat="22.900941" lon="111.167039">
        <ele>185.095098</ele>
        <time>2026-08-18T07:28:46.000Z</time>
      </trkpt>
      <trkpt lat="22.900942" lon="111.167105">
        <ele>184.903902</ele>
        <time>2026-08-18T07:28:47.000Z</time>
      </trkpt>
      <trkpt lat="22.900941" lon="111.167171">
        <ele>184.712706</ele>
        <time>2026-08-18T07:28:48.000Z</time>
      </trkpt>
      <trkpt lat="22.900939" lon="111.167237">
        <ele>184.521432</ele>
        <time>2026-08-18T07:28:49.000Z</time>
      </trkpt>
      <trkpt lat="22.900935" lon="111.167304">
        <ele>184.326958</ele>
        <time>2026-08-18T07:28:50.000Z</time>
      </trkpt>
      <trkpt lat="22.900933" lon="111.167371">
        <ele>184.132790</ele>
        <time>2026-08-18T07:28:51.000Z</time>
      </trkpt>
      <trkpt lat="22.900932" lon="111.167439">
        <ele>183.935801</ele>
        <time>2026-08-18T07:28:52.000Z</time>
      </trkpt>
      <trkpt lat="22.900931" lon="111.167507">
        <ele>183.738813</ele>
        <time>2026-08-18T07:28:53.000Z</time>
      </trkpt>
      <trkpt lat="22.900930" lon="111.167575">
        <ele>183.541824</ele>
        <time>2026-08-18T07:28:54.000Z</time>
      </trkpt>
      <trkpt lat="22.900930" lon="111.167644">
        <ele>183.341965</ele>
        <time>2026-08-18T07:28:55.000Z</time>
      </trkpt>
      <trkpt lat="22.900931" lon="111.167716">
        <ele>183.133391</ele>
        <time>2026-08-18T07:28:56.000Z</time>
      </trkpt>
      <trkpt lat="22.900931" lon="111.167787">
        <ele>182.927739</ele>
        <time>2026-08-18T07:28:57.000Z</time>
      </trkpt>
      <trkpt lat="22.900925" lon="111.167859">
        <ele>182.718338</ele>
        <time>2026-08-18T07:28:58.000Z</time>
      </trkpt>
      <trkpt lat="22.900921" lon="111.167933">
        <ele>182.503626</ele>
        <time>2026-08-18T07:28:59.000Z</time>
      </trkpt>
      <trkpt lat="22.900917" lon="111.168009">
        <ele>182.283132</ele>
        <time>2026-08-18T07:29:00.000Z</time>
      </trkpt>
      <trkpt lat="22.900914" lon="111.168087">
        <ele>182.057006</ele>
        <time>2026-08-18T07:29:01.000Z</time>
      </trkpt>
      <trkpt lat="22.900912" lon="111.168165">
        <ele>181.830990</ele>
        <time>2026-08-18T07:29:02.000Z</time>
      </trkpt>
      <trkpt lat="22.900907" lon="111.168245">
        <ele>181.598736</ele>
        <time>2026-08-18T07:29:03.000Z</time>
      </trkpt>
      <trkpt lat="22.900904" lon="111.168328">
        <ele>181.358140</ele>
        <time>2026-08-18T07:29:04.000Z</time>
      </trkpt>
      <trkpt lat="22.900901" lon="111.168412">
        <ele>181.114649</ele>
        <time>2026-08-18T07:29:05.000Z</time>
      </trkpt>
      <trkpt lat="22.900897" lon="111.168498">
        <ele>180.776638</ele>
        <time>2026-08-18T07:29:06.000Z</time>
      </trkpt>
      <trkpt lat="22.900895" lon="111.168585">
        <ele>180.365968</ele>
        <time>2026-08-18T07:29:07.000Z</time>
      </trkpt>
      <trkpt lat="22.900891" lon="111.168678">
        <ele>179.926634</ele>
        <time>2026-08-18T07:29:08.000Z</time>
      </trkpt>
      <trkpt lat="22.900885" lon="111.168772">
        <ele>179.481997</ele>
        <time>2026-08-18T07:29:09.000Z</time>
      </trkpt>
      <trkpt lat="22.900879" lon="111.168870">
        <ele>179.018527</ele>
        <time>2026-08-18T07:29:10.000Z</time>
      </trkpt>
      <trkpt lat="22.900872" lon="111.168969">
        <ele>178.549984</ele>
        <time>2026-08-18T07:29:11.000Z</time>
      </trkpt>
      <trkpt lat="22.900863" lon="111.169073">
        <ele>178.057060</ele>
        <time>2026-08-18T07:29:12.000Z</time>
      </trkpt>
      <trkpt lat="22.900852" lon="111.169179">
        <ele>177.553696</ele>
        <time>2026-08-18T07:29:13.000Z</time>
      </trkpt>
      <trkpt lat="22.900839" lon="111.169286">
        <ele>177.044403</ele>
        <time>2026-08-18T07:29:14.000Z</time>
      </trkpt>
      <trkpt lat="22.900824" lon="111.169397">
        <ele>176.515002</ele>
        <time>2026-08-18T07:29:15.000Z</time>
      </trkpt>
      <trkpt lat="22.900807" lon="111.169510">
        <ele>175.974705</ele>
        <time>2026-08-18T07:29:16.000Z</time>
      </trkpt>
      <trkpt lat="22.900787" lon="111.169623">
        <ele>175.431718</ele>
        <time>2026-08-18T07:29:17.000Z</time>
      </trkpt>
      <trkpt lat="22.900763" lon="111.169737">
        <ele>174.879896</ele>
        <time>2026-08-18T07:29:18.000Z</time>
      </trkpt>
      <trkpt lat="22.900734" lon="111.169852">
        <ele>174.317259</ele>
        <time>2026-08-18T07:29:19.000Z</time>
      </trkpt>
      <trkpt lat="22.900702" lon="111.169966">
        <ele>173.754885</ele>
        <time>2026-08-18T07:29:20.000Z</time>
      </trkpt>
      <trkpt lat="22.900668" lon="111.170080">
        <ele>173.189440</ele>
        <time>2026-08-18T07:29:21.000Z</time>
      </trkpt>
      <trkpt lat="22.900630" lon="111.170194">
        <ele>172.617352</ele>
        <time>2026-08-18T07:29:22.000Z</time>
      </trkpt>
      <trkpt lat="22.900592" lon="111.170306">
        <ele>172.054128</ele>
        <time>2026-08-18T07:29:23.000Z</time>
      </trkpt>
      <trkpt lat="22.900551" lon="111.170416">
        <ele>171.793298</ele>
        <time>2026-08-18T07:29:24.000Z</time>
      </trkpt>
      <trkpt lat="22.900507" lon="111.170525">
        <ele>171.795295</ele>
        <time>2026-08-18T07:29:25.000Z</time>
      </trkpt>
      <trkpt lat="22.900462" lon="111.170631">
        <ele>171.797254</ele>
        <time>2026-08-18T07:29:26.000Z</time>
      </trkpt>
      <trkpt lat="22.900417" lon="111.170734">
        <ele>171.799167</ele>
        <time>2026-08-18T07:29:27.000Z</time>
      </trkpt>
      <trkpt lat="22.900373" lon="111.170835">
        <ele>171.801042</ele>
        <time>2026-08-18T07:29:28.000Z</time>
      </trkpt>
      <trkpt lat="22.900331" lon="111.170935">
        <ele>171.802886</ele>
        <time>2026-08-18T07:29:29.000Z</time>
      </trkpt>
      <trkpt lat="22.900288" lon="111.171032">
        <ele>171.804693</ele>
        <time>2026-08-18T07:29:30.000Z</time>
      </trkpt>
      <trkpt lat="22.900247" lon="111.171127">
        <ele>171.806454</ele>
        <time>2026-08-18T07:29:31.000Z</time>
      </trkpt>
      <trkpt lat="22.900210" lon="111.171220">
        <ele>171.808154</ele>
        <time>2026-08-18T07:29:32.000Z</time>
      </trkpt>
      <trkpt lat="22.900173" lon="111.171310">
        <ele>171.809808</ele>
        <time>2026-08-18T07:29:33.000Z</time>
      </trkpt>
      <trkpt lat="22.900136" lon="111.171396">
        <ele>171.811401</ele>
        <time>2026-08-18T07:29:34.000Z</time>
      </trkpt>
      <trkpt lat="22.900100" lon="111.171478">
        <ele>171.812925</ele>
        <time>2026-08-18T07:29:35.000Z</time>
      </trkpt>
      <trkpt lat="22.900066" lon="111.171557">
        <ele>171.814389</ele>
        <time>2026-08-18T07:29:36.000Z</time>
      </trkpt>
      <trkpt lat="22.900032" lon="111.171634">
        <ele>171.815822</ele>
        <time>2026-08-18T07:29:37.000Z</time>
      </trkpt>
      <trkpt lat="22.899998" lon="111.171708">
        <ele>171.817210</ele>
        <time>2026-08-18T07:29:38.000Z</time>
      </trkpt>
      <trkpt lat="22.899964" lon="111.171781">
        <ele>171.818583</ele>
        <time>2026-08-18T07:29:39.000Z</time>
      </trkpt>
      <trkpt lat="22.899930" lon="111.171854">
        <ele>171.819955</ele>
        <time>2026-08-18T07:29:40.000Z</time>
      </trkpt>
      <trkpt lat="22.899897" lon="111.171927">
        <ele>171.821320</ele>
        <time>2026-08-18T07:29:41.000Z</time>
      </trkpt>
      <trkpt lat="22.899866" lon="111.171997">
        <ele>171.822624</ele>
        <time>2026-08-18T07:29:42.000Z</time>
      </trkpt>
      <trkpt lat="22.899836" lon="111.172066">
        <ele>171.823904</ele>
        <time>2026-08-18T07:29:43.000Z</time>
      </trkpt>
      <trkpt lat="22.899807" lon="111.172132">
        <ele>171.833268</ele>
        <time>2026-08-18T07:29:44.000Z</time>
      </trkpt>
      <trkpt lat="22.899777" lon="111.172197">
        <ele>171.914050</ele>
        <time>2026-08-18T07:29:45.000Z</time>
      </trkpt>
      <trkpt lat="22.899748" lon="111.172259">
        <ele>171.991313</ele>
        <time>2026-08-18T07:29:46.000Z</time>
      </trkpt>
      <trkpt lat="22.899721" lon="111.172319">
        <ele>172.065511</ele>
        <time>2026-08-18T07:29:47.000Z</time>
      </trkpt>
      <trkpt lat="22.899694" lon="111.172377">
        <ele>172.137719</ele>
        <time>2026-08-18T07:29:48.000Z</time>
      </trkpt>
      <trkpt lat="22.899668" lon="111.172436">
        <ele>172.210392</ele>
        <time>2026-08-18T07:29:49.000Z</time>
      </trkpt>
      <trkpt lat="22.899644" lon="111.172493">
        <ele>172.280030</ele>
        <time>2026-08-18T07:29:50.000Z</time>
      </trkpt>
      <trkpt lat="22.899621" lon="111.172548">
        <ele>172.347145</ele>
        <time>2026-08-18T07:29:51.000Z</time>
      </trkpt>
      <trkpt lat="22.899598" lon="111.172602">
        <ele>172.413250</ele>
        <time>2026-08-18T07:29:52.000Z</time>
      </trkpt>
      <trkpt lat="22.899575" lon="111.172655">
        <ele>172.478348</ele>
        <time>2026-08-18T07:29:53.000Z</time>
      </trkpt>
      <trkpt lat="22.899551" lon="111.172708">
        <ele>172.543970</ele>
        <time>2026-08-18T07:29:54.000Z</time>
      </trkpt>
      <trkpt lat="22.899530" lon="111.172759">
        <ele>172.606042</ele>
        <time>2026-08-18T07:29:55.000Z</time>
      </trkpt>
      <trkpt lat="22.899508" lon="111.172807">
        <ele>172.665614</ele>
        <time>2026-08-18T07:29:56.000Z</time>
      </trkpt>
      <trkpt lat="22.899485" lon="111.172853">
        <ele>172.723770</ele>
        <time>2026-08-18T07:29:57.000Z</time>
      </trkpt>
      <trkpt lat="22.899464" lon="111.172899">
        <ele>172.780815</ele>
        <time>2026-08-18T07:29:58.000Z</time>
      </trkpt>
      <trkpt lat="22.899446" lon="111.172945">
        <ele>172.836348</ele>
        <time>2026-08-18T07:29:59.000Z</time>
      </trkpt>
      <trkpt lat="22.899428" lon="111.172990">
        <ele>172.890861</ele>
        <time>2026-08-18T07:30:00.000Z</time>
      </trkpt>
      <trkpt lat="22.899407" lon="111.173037">
        <ele>172.948903</ele>
        <time>2026-08-18T07:30:01.000Z</time>
      </trkpt>
      <trkpt lat="22.899387" lon="111.173083">
        <ele>173.005423</ele>
        <time>2026-08-18T07:30:02.000Z</time>
      </trkpt>
      <trkpt lat="22.899367" lon="111.173129">
        <ele>173.061943</ele>
        <time>2026-08-18T07:30:03.000Z</time>
      </trkpt>
      <trkpt lat="22.899346" lon="111.173174">
        <ele>173.117995</ele>
        <time>2026-08-18T07:30:04.000Z</time>
      </trkpt>
      <trkpt lat="22.899322" lon="111.173217">
        <ele>173.173860</ele>
        <time>2026-08-18T07:30:05.000Z</time>
      </trkpt>
      <trkpt lat="22.899300" lon="111.173261">
        <ele>173.229488</ele>
        <time>2026-08-18T07:30:06.000Z</time>
      </trkpt>
      <trkpt lat="22.899278" lon="111.173306">
        <ele>173.286095</ele>
        <time>2026-08-18T07:30:07.000Z</time>
      </trkpt>
      <trkpt lat="22.899258" lon="111.173350">
        <ele>173.340613</ele>
        <time>2026-08-18T07:30:08.000Z</time>
      </trkpt>
      <trkpt lat="22.899238" lon="111.173395">
        <ele>173.396131</ele>
        <time>2026-08-18T07:30:09.000Z</time>
      </trkpt>
      <trkpt lat="22.899221" lon="111.173441">
        <ele>173.451203</ele>
        <time>2026-08-18T07:30:10.000Z</time>
      </trkpt>
      <trkpt lat="22.899206" lon="111.173487">
        <ele>173.505424</ele>
        <time>2026-08-18T07:30:11.000Z</time>
      </trkpt>
      <trkpt lat="22.899189" lon="111.173532">
        <ele>173.559467</ele>
        <time>2026-08-18T07:30:12.000Z</time>
      </trkpt>
      <trkpt lat="22.899169" lon="111.173577">
        <ele>173.614984</ele>
        <time>2026-08-18T07:30:13.000Z</time>
      </trkpt>
      <trkpt lat="22.899150" lon="111.173623">
        <ele>173.671000</ele>
        <time>2026-08-18T07:30:14.000Z</time>
      </trkpt>
      <trkpt lat="22.899133" lon="111.173669">
        <ele>173.726073</ele>
        <time>2026-08-18T07:30:15.000Z</time>
      </trkpt>
      <trkpt lat="22.899115" lon="111.173716">
        <ele>173.782630</ele>
        <time>2026-08-18T07:30:16.000Z</time>
      </trkpt>
      <trkpt lat="22.899098" lon="111.173763">
        <ele>173.838736</ele>
        <time>2026-08-18T07:30:17.000Z</time>
      </trkpt>
      <trkpt lat="22.899080" lon="111.173808">
        <ele>173.893248</ele>
        <time>2026-08-18T07:30:18.000Z</time>
      </trkpt>
      <trkpt lat="22.899063" lon="111.173855">
        <ele>173.949353</ele>
        <time>2026-08-18T07:30:19.000Z</time>
      </trkpt>
      <trkpt lat="22.899047" lon="111.173902">
        <ele>173.998159</ele>
        <time>2026-08-18T07:30:20.000Z</time>
      </trkpt>
      <trkpt lat="22.899030" lon="111.173948">
        <ele>174.017132</ele>
        <time>2026-08-18T07:30:21.000Z</time>
      </trkpt>
      <trkpt lat="22.899013" lon="111.173994">
        <ele>174.036106</ele>
        <time>2026-08-18T07:30:22.000Z</time>
      </trkpt>
      <trkpt lat="22.898998" lon="111.174040">
        <ele>174.054786</ele>
        <time>2026-08-18T07:30:23.000Z</time>
      </trkpt>
      <trkpt lat="22.898983" lon="111.174087">
        <ele>174.073827</ele>
        <time>2026-08-18T07:30:24.000Z</time>
      </trkpt>
      <trkpt lat="22.898969" lon="111.174135">
        <ele>174.093101</ele>
        <time>2026-08-18T07:30:25.000Z</time>
      </trkpt>
      <trkpt lat="22.898957" lon="111.174181">
        <ele>174.111403</ele>
        <time>2026-08-18T07:30:26.000Z</time>
      </trkpt>
      <trkpt lat="22.898945" lon="111.174226">
        <ele>174.129336</ele>
        <time>2026-08-18T07:30:27.000Z</time>
      </trkpt>
      <trkpt lat="22.898932" lon="111.174271">
        <ele>174.147390</ele>
        <time>2026-08-18T07:30:28.000Z</time>
      </trkpt>
      <trkpt lat="22.898921" lon="111.174318">
        <ele>174.165954</ele>
        <time>2026-08-18T07:30:29.000Z</time>
      </trkpt>
      <trkpt lat="22.898910" lon="111.174366">
        <ele>174.184889</ele>
        <time>2026-08-18T07:30:30.000Z</time>
      </trkpt>
      <trkpt lat="22.898901" lon="111.174414">
        <ele>174.203641</ele>
        <time>2026-08-18T07:30:31.000Z</time>
      </trkpt>
      <trkpt lat="22.898892" lon="111.174461">
        <ele>174.222017</ele>
        <time>2026-08-18T07:30:32.000Z</time>
      </trkpt>
      <trkpt lat="22.898884" lon="111.174509">
        <ele>174.240690</ele>
        <time>2026-08-18T07:30:33.000Z</time>
      </trkpt>
      <trkpt lat="22.898878" lon="111.174555">
        <ele>174.258475</ele>
        <time>2026-08-18T07:30:34.000Z</time>
      </trkpt>
      <trkpt lat="22.898873" lon="111.174603">
        <ele>174.276967</ele>
        <time>2026-08-18T07:30:35.000Z</time>
      </trkpt>
      <trkpt lat="22.898869" lon="111.174651">
        <ele>174.295417</ele>
        <time>2026-08-18T07:30:36.000Z</time>
      </trkpt>
      <trkpt lat="22.898866" lon="111.174697">
        <ele>174.313071</ele>
        <time>2026-08-18T07:30:37.000Z</time>
      </trkpt>
      <trkpt lat="22.898863" lon="111.174743">
        <ele>174.330724</ele>
        <time>2026-08-18T07:30:38.000Z</time>
      </trkpt>
      <trkpt lat="22.898862" lon="111.174790">
        <ele>174.348721</ele>
        <time>2026-08-18T07:30:39.000Z</time>
      </trkpt>
      <trkpt lat="22.898862" lon="111.174837">
        <ele>174.366713</ele>
        <time>2026-08-18T07:30:40.000Z</time>
      </trkpt>
      <trkpt lat="22.898863" lon="111.174883">
        <ele>174.384327</ele>
        <time>2026-08-18T07:30:41.000Z</time>
      </trkpt>
      <trkpt lat="22.898864" lon="111.174932">
        <ele>174.403090</ele>
        <time>2026-08-18T07:30:42.000Z</time>
      </trkpt>
      <trkpt lat="22.898866" lon="111.174980">
        <ele>174.421483</ele>
        <time>2026-08-18T07:30:43.000Z</time>
      </trkpt>
      <trkpt lat="22.898870" lon="111.175029">
        <ele>174.440315</ele>
        <time>2026-08-18T07:30:44.000Z</time>
      </trkpt>
      <trkpt lat="22.898875" lon="111.175077">
        <ele>174.458807</ele>
        <time>2026-08-18T07:30:45.000Z</time>
      </trkpt>
      <trkpt lat="22.898879" lon="111.175127">
        <ele>174.478019</ele>
        <time>2026-08-18T07:30:46.000Z</time>
      </trkpt>
      <trkpt lat="22.898885" lon="111.175175">
        <ele>174.496563</ele>
        <time>2026-08-18T07:30:47.000Z</time>
      </trkpt>
      <trkpt lat="22.898893" lon="111.175223">
        <ele>174.515236</ele>
        <time>2026-08-18T07:30:48.000Z</time>
      </trkpt>
      <trkpt lat="22.898901" lon="111.175272">
        <ele>174.534286</ele>
        <time>2026-08-18T07:30:49.000Z</time>
      </trkpt>
      <trkpt lat="22.898912" lon="111.175321">
        <ele>174.553593</ele>
        <time>2026-08-18T07:30:50.000Z</time>
      </trkpt>
      <trkpt lat="22.898923" lon="111.175370">
        <ele>174.572899</ele>
        <time>2026-08-18T07:30:51.000Z</time>
      </trkpt>
      <trkpt lat="22.898933" lon="111.175417">
        <ele>174.591365</ele>
        <time>2026-08-18T07:30:52.000Z</time>
      </trkpt>
      <trkpt lat="22.898945" lon="111.175465">
        <ele>174.610405</ele>
        <time>2026-08-18T07:30:53.000Z</time>
      </trkpt>
      <trkpt lat="22.898959" lon="111.175510">
        <ele>174.628587</ele>
        <time>2026-08-18T07:30:54.000Z</time>
      </trkpt>
      <trkpt lat="22.898973" lon="111.175556">
        <ele>174.647132</ele>
        <time>2026-08-18T07:30:55.000Z</time>
      </trkpt>
      <trkpt lat="22.898990" lon="111.175604">
        <ele>174.666819</ele>
        <time>2026-08-18T07:30:56.000Z</time>
      </trkpt>
      <trkpt lat="22.899007" lon="111.175652">
        <ele>174.686505</ele>
        <time>2026-08-18T07:30:57.000Z</time>
      </trkpt>
      <trkpt lat="22.899025" lon="111.175700">
        <ele>174.706344</ele>
        <time>2026-08-18T07:30:58.000Z</time>
      </trkpt>
      <trkpt lat="22.899043" lon="111.175746">
        <ele>174.725476</ele>
        <time>2026-08-18T07:30:59.000Z</time>
      </trkpt>
      <trkpt lat="22.899062" lon="111.175791">
        <ele>174.734604</ele>
        <time>2026-08-18T07:31:00.000Z</time>
      </trkpt>
      <trkpt lat="22.899082" lon="111.175837">
        <ele>174.675508</ele>
        <time>2026-08-18T07:31:01.000Z</time>
      </trkpt>
      <trkpt lat="22.899103" lon="111.175883">
        <ele>174.615862</ele>
        <time>2026-08-18T07:31:02.000Z</time>
      </trkpt>
      <trkpt lat="22.899125" lon="111.175930">
        <ele>174.554612</ele>
        <time>2026-08-18T07:31:03.000Z</time>
      </trkpt>
      <trkpt lat="22.899149" lon="111.175976">
        <ele>174.493192</ele>
        <time>2026-08-18T07:31:04.000Z</time>
      </trkpt>
      <trkpt lat="22.899175" lon="111.176022">
        <ele>174.430492</ele>
        <time>2026-08-18T07:31:05.000Z</time>
      </trkpt>
      <trkpt lat="22.899203" lon="111.176067">
        <ele>174.367401</ele>
        <time>2026-08-18T07:31:06.000Z</time>
      </trkpt>
      <trkpt lat="22.899230" lon="111.176113">
        <ele>174.304032</ele>
        <time>2026-08-18T07:31:07.000Z</time>
      </trkpt>
      <trkpt lat="22.899258" lon="111.176155">
        <ele>174.243798</ele>
        <time>2026-08-18T07:31:08.000Z</time>
      </trkpt>
      <trkpt lat="22.899289" lon="111.176198">
        <ele>174.180361</ele>
        <time>2026-08-18T07:31:09.000Z</time>
      </trkpt>
      <trkpt lat="22.899322" lon="111.176242">
        <ele>174.114441</ele>
        <time>2026-08-18T07:31:10.000Z</time>
      </trkpt>
      <trkpt lat="22.899356" lon="111.176282">
        <ele>174.051208</ele>
        <time>2026-08-18T07:31:11.000Z</time>
      </trkpt>
      <trkpt lat="22.899391" lon="111.176320">
        <ele>173.988777</ele>
        <time>2026-08-18T07:31:12.000Z</time>
      </trkpt>
      <trkpt lat="22.899427" lon="111.176361">
        <ele>173.922971</ele>
        <time>2026-08-18T07:31:13.000Z</time>
      </trkpt>
      <trkpt lat="22.899465" lon="111.176402">
        <ele>173.855400</ele>
        <time>2026-08-18T07:31:14.000Z</time>
      </trkpt>
      <trkpt lat="22.899502" lon="111.176445">
        <ele>173.787039</ele>
        <time>2026-08-18T07:31:15.000Z</time>
      </trkpt>
      <trkpt lat="22.899539" lon="111.176486">
        <ele>173.720357</ele>
        <time>2026-08-18T07:31:16.000Z</time>
      </trkpt>
      <trkpt lat="22.899580" lon="111.176529">
        <ele>173.648457</ele>
        <time>2026-08-18T07:31:17.000Z</time>
      </trkpt>
      <trkpt lat="22.899620" lon="111.176572">
        <ele>173.577459</ele>
        <time>2026-08-18T07:31:18.000Z</time>
      </trkpt>
      <trkpt lat="22.899662" lon="111.176612">
        <ele>173.506992</ele>
        <time>2026-08-18T07:31:19.000Z</time>
      </trkpt>
      <trkpt lat="22.899702" lon="111.176654">
        <ele>173.436807</ele>
        <time>2026-08-18T07:31:20.000Z</time>
      </trkpt>
      <trkpt lat="22.899742" lon="111.176698">
        <ele>173.364987</ele>
        <time>2026-08-18T07:31:21.000Z</time>
      </trkpt>
      <trkpt lat="22.899785" lon="111.176740">
        <ele>173.292034</ele>
        <time>2026-08-18T07:31:22.000Z</time>
      </trkpt>
      <trkpt lat="22.899827" lon="111.176781">
        <ele>173.220796</ele>
        <time>2026-08-18T07:31:23.000Z</time>
      </trkpt>
      <trkpt lat="22.899869" lon="111.176823">
        <ele>173.148777</ele>
        <time>2026-08-18T07:31:24.000Z</time>
      </trkpt>
      <trkpt lat="22.899915" lon="111.176863">
        <ele>173.074444</ele>
        <time>2026-08-18T07:31:25.000Z</time>
      </trkpt>
      <trkpt lat="22.899959" lon="111.176903">
        <ele>173.002062</ele>
        <time>2026-08-18T07:31:26.000Z</time>
      </trkpt>
      <trkpt lat="22.900004" lon="111.176942">
        <ele>172.929440</ele>
        <time>2026-08-18T07:31:27.000Z</time>
      </trkpt>
      <trkpt lat="22.900049" lon="111.176980">
        <ele>172.857537</ele>
        <time>2026-08-18T07:31:28.000Z</time>
      </trkpt>
      <trkpt lat="22.900094" lon="111.177019">
        <ele>172.784914</ele>
        <time>2026-08-18T07:31:29.000Z</time>
      </trkpt>
      <trkpt lat="22.900141" lon="111.177058">
        <ele>172.710304</ele>
        <time>2026-08-18T07:31:30.000Z</time>
      </trkpt>
      <trkpt lat="22.900187" lon="111.177099">
        <ele>172.635239</ele>
        <time>2026-08-18T07:31:31.000Z</time>
      </trkpt>
      <trkpt lat="22.900234" lon="111.177139">
        <ele>172.559918</ele>
        <time>2026-08-18T07:31:32.000Z</time>
      </trkpt>
      <trkpt lat="22.900279" lon="111.177178">
        <ele>172.487296</ele>
        <time>2026-08-18T07:31:33.000Z</time>
      </trkpt>
      <trkpt lat="22.900325" lon="111.177218">
        <ele>172.421288</ele>
        <time>2026-08-18T07:31:34.000Z</time>
      </trkpt>
      <trkpt lat="22.900370" lon="111.177259">
        <ele>172.357375</ele>
        <time>2026-08-18T07:31:35.000Z</time>
      </trkpt>
      <trkpt lat="22.900414" lon="111.177300">
        <ele>172.294291</ele>
        <time>2026-08-18T07:31:36.000Z</time>
      </trkpt>
      <trkpt lat="22.900456" lon="111.177344">
        <ele>172.230792</ele>
        <time>2026-08-18T07:31:37.000Z</time>
      </trkpt>
      <trkpt lat="22.900500" lon="111.177389">
        <ele>172.165027</ele>
        <time>2026-08-18T07:31:38.000Z</time>
      </trkpt>
      <trkpt lat="22.900544" lon="111.177432">
        <ele>172.100620</ele>
        <time>2026-08-18T07:31:39.000Z</time>
      </trkpt>
      <trkpt lat="22.900588" lon="111.177475">
        <ele>172.036213</ele>
        <time>2026-08-18T07:31:40.000Z</time>
      </trkpt>
      <trkpt lat="22.900631" lon="111.177517">
        <ele>171.973285</ele>
        <time>2026-08-18T07:31:41.000Z</time>
      </trkpt>
      <trkpt lat="22.900674" lon="111.177559">
        <ele>171.910357</ele>
        <time>2026-08-18T07:31:42.000Z</time>
      </trkpt>
      <trkpt lat="22.900715" lon="111.177603">
        <ele>171.847637</ele>
        <time>2026-08-18T07:31:43.000Z</time>
      </trkpt>
      <trkpt lat="22.900756" lon="111.177647">
        <ele>171.784917</ele>
        <time>2026-08-18T07:31:44.000Z</time>
      </trkpt>
      <trkpt lat="22.900798" lon="111.177690">
        <ele>171.722110</ele>
        <time>2026-08-18T07:31:45.000Z</time>
      </trkpt>
      <trkpt lat="22.900837" lon="111.177734">
        <ele>171.660918</ele>
        <time>2026-08-18T07:31:46.000Z</time>
      </trkpt>
      <trkpt lat="22.900874" lon="111.177779">
        <ele>171.600470</ele>
        <time>2026-08-18T07:31:47.000Z</time>
      </trkpt>
      <trkpt lat="22.900911" lon="111.177824">
        <ele>171.540022</ele>
        <time>2026-08-18T07:31:48.000Z</time>
      </trkpt>
      <trkpt lat="22.900946" lon="111.177869">
        <ele>171.481001</ele>
        <time>2026-08-18T07:31:49.000Z</time>
      </trkpt>
      <trkpt lat="22.900979" lon="111.177916">
        <ele>171.421778</ele>
        <time>2026-08-18T07:31:50.000Z</time>
      </trkpt>
      <trkpt lat="22.901013" lon="111.177963">
        <ele>171.361889</ele>
        <time>2026-08-18T07:31:51.000Z</time>
      </trkpt>
      <trkpt lat="22.901046" lon="111.178012">
        <ele>171.301060</ele>
        <time>2026-08-18T07:31:52.000Z</time>
      </trkpt>
      <trkpt lat="22.901076" lon="111.178063">
        <ele>171.240419</ele>
        <time>2026-08-18T07:31:53.000Z</time>
      </trkpt>
      <trkpt lat="22.901106" lon="111.178112">
        <ele>171.181457</ele>
        <time>2026-08-18T07:31:54.000Z</time>
      </trkpt>
      <trkpt lat="22.901135" lon="111.178162">
        <ele>171.122245</ele>
        <time>2026-08-18T07:31:55.000Z</time>
      </trkpt>
      <trkpt lat="22.901162" lon="111.178214">
        <ele>171.062425</ele>
        <time>2026-08-18T07:31:56.000Z</time>
      </trkpt>
      <trkpt lat="22.901188" lon="111.178268">
        <ele>171.001363</ele>
        <time>2026-08-18T07:31:57.000Z</time>
      </trkpt>
      <trkpt lat="22.901211" lon="111.178323">
        <ele>170.940831</ele>
        <time>2026-08-18T07:31:58.000Z</time>
      </trkpt>
      <trkpt lat="22.901233" lon="111.178378">
        <ele>170.880741</ele>
        <time>2026-08-18T07:31:59.000Z</time>
      </trkpt>
      <trkpt lat="22.901253" lon="111.178434">
        <ele>170.820550</ele>
        <time>2026-08-18T07:32:00.000Z</time>
      </trkpt>
      <trkpt lat="22.901272" lon="111.178492">
        <ele>170.758860</ele>
        <time>2026-08-18T07:32:01.000Z</time>
      </trkpt>
      <trkpt lat="22.901291" lon="111.178552">
        <ele>170.695278</ele>
        <time>2026-08-18T07:32:02.000Z</time>
      </trkpt>
      <trkpt lat="22.901309" lon="111.178612">
        <ele>170.632040</ele>
        <time>2026-08-18T07:32:03.000Z</time>
      </trkpt>
      <trkpt lat="22.901326" lon="111.178673">
        <ele>170.568173</ele>
        <time>2026-08-18T07:32:04.000Z</time>
      </trkpt>
      <trkpt lat="22.901342" lon="111.178734">
        <ele>170.502942</ele>
        <time>2026-08-18T07:32:05.000Z</time>
      </trkpt>
      <trkpt lat="22.901354" lon="111.178796">
        <ele>170.430753</ele>
        <time>2026-08-18T07:32:06.000Z</time>
      </trkpt>
      <trkpt lat="22.901366" lon="111.178858">
        <ele>170.358565</ele>
        <time>2026-08-18T07:32:07.000Z</time>
      </trkpt>
      <trkpt lat="22.901379" lon="111.178920">
        <ele>170.286112</ele>
        <time>2026-08-18T07:32:08.000Z</time>
      </trkpt>
      <trkpt lat="22.901392" lon="111.178982">
        <ele>170.213659</ele>
        <time>2026-08-18T07:32:09.000Z</time>
      </trkpt>
      <trkpt lat="22.901402" lon="111.179045">
        <ele>170.140816</ele>
        <time>2026-08-18T07:32:10.000Z</time>
      </trkpt>
      <trkpt lat="22.901411" lon="111.179107">
        <ele>170.069298</ele>
        <time>2026-08-18T07:32:11.000Z</time>
      </trkpt>
      <trkpt lat="22.901420" lon="111.179172">
        <ele>169.994402</ele>
        <time>2026-08-18T07:32:12.000Z</time>
      </trkpt>
      <trkpt lat="22.901429" lon="111.179236">
        <ele>169.920632</ele>
        <time>2026-08-18T07:32:13.000Z</time>
      </trkpt>
      <trkpt lat="22.901437" lon="111.179302">
        <ele>169.844780</ele>
        <time>2026-08-18T07:32:14.000Z</time>
      </trkpt>
      <trkpt lat="22.901444" lon="111.179369">
        <ele>169.767948</ele>
        <time>2026-08-18T07:32:15.000Z</time>
      </trkpt>
      <trkpt lat="22.901449" lon="111.179435">
        <ele>169.692490</ele>
        <time>2026-08-18T07:32:16.000Z</time>
      </trkpt>
      <trkpt lat="22.901454" lon="111.179501">
        <ele>169.617033</ele>
        <time>2026-08-18T07:32:17.000Z</time>
      </trkpt>
      <trkpt lat="22.901459" lon="111.179567">
        <ele>169.541575</ele>
        <time>2026-08-18T07:32:18.000Z</time>
      </trkpt>
      <trkpt lat="22.901464" lon="111.179633">
        <ele>169.466118</ele>
        <time>2026-08-18T07:32:19.000Z</time>
      </trkpt>
      <trkpt lat="22.901469" lon="111.179699">
        <ele>169.390660</ele>
        <time>2026-08-18T07:32:20.000Z</time>
      </trkpt>
      <trkpt lat="22.901473" lon="111.179764">
        <ele>169.316431</ele>
        <time>2026-08-18T07:32:21.000Z</time>
      </trkpt>
      <trkpt lat="22.901477" lon="111.179830">
        <ele>169.241065</ele>
        <time>2026-08-18T07:32:22.000Z</time>
      </trkpt>
      <trkpt lat="22.901480" lon="111.179895">
        <ele>169.166908</ele>
        <time>2026-08-18T07:32:23.000Z</time>
      </trkpt>
      <trkpt lat="22.901484" lon="111.179962">
        <ele>169.090404</ele>
        <time>2026-08-18T07:32:24.000Z</time>
      </trkpt>
      <trkpt lat="22.901489" lon="111.180028">
        <ele>169.014947</ele>
        <time>2026-08-18T07:32:25.000Z</time>
      </trkpt>
      <trkpt lat="22.901493" lon="111.180096">
        <ele>168.937306</ele>
        <time>2026-08-18T07:32:26.000Z</time>
      </trkpt>
      <trkpt lat="22.901497" lon="111.180163">
        <ele>168.860803</ele>
        <time>2026-08-18T07:32:27.000Z</time>
      </trkpt>
      <trkpt lat="22.901500" lon="111.180230">
        <ele>168.784370</ele>
        <time>2026-08-18T07:32:28.000Z</time>
      </trkpt>
      <trkpt lat="22.901502" lon="111.180297">
        <ele>168.707987</ele>
        <time>2026-08-18T07:32:29.000Z</time>
      </trkpt>
      <trkpt lat="22.901506" lon="111.180361">
        <ele>168.634894</ele>
        <time>2026-08-18T07:32:30.000Z</time>
      </trkpt>
      <trkpt lat="22.901513" lon="111.180427">
        <ele>168.559194</ele>
        <time>2026-08-18T07:32:31.000Z</time>
      </trkpt>
      <trkpt lat="22.901519" lon="111.180493">
        <ele>168.483625</ele>
        <time>2026-08-18T07:32:32.000Z</time>
      </trkpt>
      <trkpt lat="22.901526" lon="111.180559">
        <ele>168.407925</ele>
        <time>2026-08-18T07:32:33.000Z</time>
      </trkpt>
      <trkpt lat="22.901534" lon="111.180624">
        <ele>168.333202</ele>
        <time>2026-08-18T07:32:34.000Z</time>
      </trkpt>
      <trkpt lat="22.901542" lon="111.180688">
        <ele>168.281728</ele>
        <time>2026-08-18T07:32:35.000Z</time>
      </trkpt>
      <trkpt lat="22.901552" lon="111.180753">
        <ele>168.257958</ele>
        <time>2026-08-18T07:32:36.000Z</time>
      </trkpt>
      <trkpt lat="22.901563" lon="111.180819">
        <ele>168.233765</ele>
        <time>2026-08-18T07:32:37.000Z</time>
      </trkpt>
      <trkpt lat="22.901573" lon="111.180884">
        <ele>168.209994</ele>
        <time>2026-08-18T07:32:38.000Z</time>
      </trkpt>
      <trkpt lat="22.901585" lon="111.180950">
        <ele>168.185729</ele>
        <time>2026-08-18T07:32:39.000Z</time>
      </trkpt>
      <trkpt lat="22.901596" lon="111.181016">
        <ele>168.161536</ele>
        <time>2026-08-18T07:32:40.000Z</time>
      </trkpt>
      <trkpt lat="22.901609" lon="111.181082">
        <ele>168.137191</ele>
        <time>2026-08-18T07:32:41.000Z</time>
      </trkpt>
      <trkpt lat="22.901620" lon="111.181149">
        <ele>168.112643</ele>
        <time>2026-08-18T07:32:42.000Z</time>
      </trkpt>
      <trkpt lat="22.901634" lon="111.181217">
        <ele>168.087511</ele>
        <time>2026-08-18T07:32:43.000Z</time>
      </trkpt>
      <trkpt lat="22.901648" lon="111.181286">
        <ele>168.062025</ele>
        <time>2026-08-18T07:32:44.000Z</time>
      </trkpt>
      <trkpt lat="22.901662" lon="111.181354">
        <ele>168.036893</ele>
        <time>2026-08-18T07:32:45.000Z</time>
      </trkpt>
      <trkpt lat="22.901680" lon="111.181421">
        <ele>168.011719</ele>
        <time>2026-08-18T07:32:46.000Z</time>
      </trkpt>
      <trkpt lat="22.901698" lon="111.181488">
        <ele>167.986545</ele>
        <time>2026-08-18T07:32:47.000Z</time>
      </trkpt>
      <trkpt lat="22.901717" lon="111.181554">
        <ele>167.961603</ele>
        <time>2026-08-18T07:32:48.000Z</time>
      </trkpt>
      <trkpt lat="22.901737" lon="111.181618">
        <ele>167.937226</ele>
        <time>2026-08-18T07:32:49.000Z</time>
      </trkpt>
      <trkpt lat="22.901755" lon="111.181683">
        <ele>167.912744</ele>
        <time>2026-08-18T07:32:50.000Z</time>
      </trkpt>
      <trkpt lat="22.901772" lon="111.181747">
        <ele>167.888718</ele>
        <time>2026-08-18T07:32:51.000Z</time>
      </trkpt>
      <trkpt lat="22.901791" lon="111.181811">
        <ele>167.864464</ele>
        <time>2026-08-18T07:32:52.000Z</time>
      </trkpt>
      <trkpt lat="22.901811" lon="111.181875">
        <ele>167.840087</ele>
        <time>2026-08-18T07:32:53.000Z</time>
      </trkpt>
      <trkpt lat="22.901832" lon="111.181939">
        <ele>167.815581</ele>
        <time>2026-08-18T07:32:54.000Z</time>
      </trkpt>
      <trkpt lat="22.901853" lon="111.182000">
        <ele>167.792092</ele>
        <time>2026-08-18T07:32:55.000Z</time>
      </trkpt>
      <trkpt lat="22.901874" lon="111.182062">
        <ele>167.768265</ele>
        <time>2026-08-18T07:32:56.000Z</time>
      </trkpt>
      <trkpt lat="22.901895" lon="111.182124">
        <ele>167.744438</ele>
        <time>2026-08-18T07:32:57.000Z</time>
      </trkpt>
      <trkpt lat="22.901915" lon="111.182185">
        <ele>167.721083</ele>
        <time>2026-08-18T07:32:58.000Z</time>
      </trkpt>
      <trkpt lat="22.901935" lon="111.182247">
        <ele>167.697388</ele>
        <time>2026-08-18T07:32:59.000Z</time>
      </trkpt>
      <trkpt lat="22.901960" lon="111.182310">
        <ele>167.672645</ele>
        <time>2026-08-18T07:33:00.000Z</time>
      </trkpt>
      <trkpt lat="22.901983" lon="111.182373">
        <ele>167.648201</ele>
        <time>2026-08-18T07:33:01.000Z</time>
      </trkpt>
      <trkpt lat="22.902008" lon="111.182437">
        <ele>167.623126</ele>
        <time>2026-08-18T07:33:02.000Z</time>
      </trkpt>
      <trkpt lat="22.902032" lon="111.182497">
        <ele>167.599532</ele>
        <time>2026-08-18T07:33:03.000Z</time>
      </trkpt>
      <trkpt lat="22.902056" lon="111.182558">
        <ele>167.588901</ele>
        <time>2026-08-18T07:33:04.000Z</time>
      </trkpt>
      <trkpt lat="22.902080" lon="111.182618">
        <ele>167.591282</ele>
        <time>2026-08-18T07:33:05.000Z</time>
      </trkpt>
      <trkpt lat="22.902105" lon="111.182678">
        <ele>167.593679</ele>
        <time>2026-08-18T07:33:06.000Z</time>
      </trkpt>
      <trkpt lat="22.902129" lon="111.182739">
        <ele>167.596094</ele>
        <time>2026-08-18T07:33:07.000Z</time>
      </trkpt>
      <trkpt lat="22.902154" lon="111.182798">
        <ele>167.598458</ele>
        <time>2026-08-18T07:33:08.000Z</time>
      </trkpt>
      <trkpt lat="22.902177" lon="111.182857">
        <ele>167.600790</ele>
        <time>2026-08-18T07:33:09.000Z</time>
      </trkpt>
      <trkpt lat="22.902201" lon="111.182916">
        <ele>167.603138</ele>
        <time>2026-08-18T07:33:10.000Z</time>
      </trkpt>
      <trkpt lat="22.902223" lon="111.182974">
        <ele>167.605421</ele>
        <time>2026-08-18T07:33:11.000Z</time>
      </trkpt>
      <trkpt lat="22.902245" lon="111.183030">
        <ele>167.607637</ele>
        <time>2026-08-18T07:33:12.000Z</time>
      </trkpt>
      <trkpt lat="22.902266" lon="111.183085">
        <ele>167.609805</ele>
        <time>2026-08-18T07:33:13.000Z</time>
      </trkpt>
      <trkpt lat="22.902287" lon="111.183141">
        <ele>167.612006</ele>
        <time>2026-08-18T07:33:14.000Z</time>
      </trkpt>
      <trkpt lat="22.902309" lon="111.183196">
        <ele>167.614188</ele>
        <time>2026-08-18T07:33:15.000Z</time>
      </trkpt>
      <trkpt lat="22.902330" lon="111.183251">
        <ele>167.616356</ele>
        <time>2026-08-18T07:33:16.000Z</time>
      </trkpt>
      <trkpt lat="22.902353" lon="111.183306">
        <ele>167.618555</ele>
        <time>2026-08-18T07:33:17.000Z</time>
      </trkpt>
      <trkpt lat="22.902374" lon="111.183361">
        <ele>167.620722</ele>
        <time>2026-08-18T07:33:18.000Z</time>
      </trkpt>
      <trkpt lat="22.902395" lon="111.183414">
        <ele>167.622822</ele>
        <time>2026-08-18T07:33:19.000Z</time>
      </trkpt>
      <trkpt lat="22.902415" lon="111.183468">
        <ele>167.624941</ele>
        <time>2026-08-18T07:33:20.000Z</time>
      </trkpt>
      <trkpt lat="22.902436" lon="111.183523">
        <ele>167.627108</ele>
        <time>2026-08-18T07:33:21.000Z</time>
      </trkpt>
      <trkpt lat="22.902458" lon="111.183576">
        <ele>167.629224</ele>
        <time>2026-08-18T07:33:22.000Z</time>
      </trkpt>
      <trkpt lat="22.902477" lon="111.183629">
        <ele>167.631294</ele>
        <time>2026-08-18T07:33:23.000Z</time>
      </trkpt>
      <trkpt lat="22.902496" lon="111.183683">
        <ele>167.633399</ele>
        <time>2026-08-18T07:33:24.000Z</time>
      </trkpt>
      <trkpt lat="22.902514" lon="111.183735">
        <ele>167.635421</ele>
        <time>2026-08-18T07:33:25.000Z</time>
      </trkpt>
      <trkpt lat="22.902532" lon="111.183789">
        <ele>167.637511</ele>
        <time>2026-08-18T07:33:26.000Z</time>
      </trkpt>
      <trkpt lat="22.902549" lon="111.183842">
        <ele>167.639554</ele>
        <time>2026-08-18T07:33:27.000Z</time>
      </trkpt>
      <trkpt lat="22.902566" lon="111.183895">
        <ele>167.641597</ele>
        <time>2026-08-18T07:33:28.000Z</time>
      </trkpt>
      <trkpt lat="22.902584" lon="111.183950">
        <ele>167.643722</ele>
        <time>2026-08-18T07:33:29.000Z</time>
      </trkpt>
      <trkpt lat="22.902601" lon="111.184004">
        <ele>167.645799</ele>
        <time>2026-08-18T07:33:30.000Z</time>
      </trkpt>
      <trkpt lat="22.902617" lon="111.184058">
        <ele>167.647864</ele>
        <time>2026-08-18T07:33:31.000Z</time>
      </trkpt>
      <trkpt lat="22.902630" lon="111.184113">
        <ele>167.649931</ele>
        <time>2026-08-18T07:33:32.000Z</time>
      </trkpt>
      <trkpt lat="22.902642" lon="111.184166">
        <ele>167.651918</ele>
        <time>2026-08-18T07:33:33.000Z</time>
      </trkpt>
      <trkpt lat="22.902654" lon="111.184220">
        <ele>167.653940</ele>
        <time>2026-08-18T07:33:34.000Z</time>
      </trkpt>
      <trkpt lat="22.902665" lon="111.184274">
        <ele>167.655953</ele>
        <time>2026-08-18T07:33:35.000Z</time>
      </trkpt>
      <trkpt lat="22.902674" lon="111.184327">
        <ele>167.657915</ele>
        <time>2026-08-18T07:33:36.000Z</time>
      </trkpt>
      <trkpt lat="22.902684" lon="111.184378">
        <ele>167.657015</ele>
        <time>2026-08-18T07:33:37.000Z</time>
      </trkpt>
      <trkpt lat="22.902694" lon="111.184430">
        <ele>167.653811</ele>
        <time>2026-08-18T07:33:38.000Z</time>
      </trkpt>
      <trkpt lat="22.902704" lon="111.184483">
        <ele>167.650549</ele>
        <time>2026-08-18T07:33:39.000Z</time>
      </trkpt>
      <trkpt lat="22.902715" lon="111.184537">
        <ele>167.647213</ele>
        <time>2026-08-18T07:33:40.000Z</time>
      </trkpt>
      <trkpt lat="22.902723" lon="111.184592">
        <ele>167.643855</ele>
        <time>2026-08-18T07:33:41.000Z</time>
      </trkpt>
      <trkpt lat="22.902729" lon="111.184649">
        <ele>167.640395</ele>
        <time>2026-08-18T07:33:42.000Z</time>
      </trkpt>
      <trkpt lat="22.902734" lon="111.184706">
        <ele>167.636941</ele>
        <time>2026-08-18T07:33:43.000Z</time>
      </trkpt>
      <trkpt lat="22.902738" lon="111.184762">
        <ele>167.633554</ele>
        <time>2026-08-18T07:33:44.000Z</time>
      </trkpt>
      <trkpt lat="22.902743" lon="111.184820">
        <ele>167.630040</ele>
        <time>2026-08-18T07:33:45.000Z</time>
      </trkpt>
      <trkpt lat="22.902752" lon="111.184877">
        <ele>167.626552</ele>
        <time>2026-08-18T07:33:46.000Z</time>
      </trkpt>
      <trkpt lat="22.902761" lon="111.184935">
        <ele>167.623005</ele>
        <time>2026-08-18T07:33:47.000Z</time>
      </trkpt>
      <trkpt lat="22.902769" lon="111.184992">
        <ele>167.619527</ele>
        <time>2026-08-18T07:33:48.000Z</time>
      </trkpt>
      <trkpt lat="22.902777" lon="111.185051">
        <ele>167.615931</ele>
        <time>2026-08-18T07:33:49.000Z</time>
      </trkpt>
      <trkpt lat="22.902786" lon="111.185109">
        <ele>167.612383</ele>
        <time>2026-08-18T07:33:50.000Z</time>
      </trkpt>
      <trkpt lat="22.902783" lon="111.185162">
        <ele>167.609181</ele>
        <time>2026-08-18T07:33:51.000Z</time>
      </trkpt>
      <trkpt lat="22.902788" lon="111.185217">
        <ele>167.605847</ele>
        <time>2026-08-18T07:33:52.000Z</time>
      </trkpt>
      <trkpt lat="22.902792" lon="111.185274">
        <ele>167.602400</ele>
        <time>2026-08-18T07:33:53.000Z</time>
      </trkpt>
      <trkpt lat="22.902797" lon="111.185329">
        <ele>167.599066</ele>
        <time>2026-08-18T07:33:54.000Z</time>
      </trkpt>
      <trkpt lat="22.902803" lon="111.185385">
        <ele>167.595666</ele>
        <time>2026-08-18T07:33:55.000Z</time>
      </trkpt>
      <trkpt lat="22.902809" lon="111.185441">
        <ele>167.592266</ele>
        <time>2026-08-18T07:33:56.000Z</time>
      </trkpt>
      <trkpt lat="22.902816" lon="111.185497">
        <ele>167.588857</ele>
        <time>2026-08-18T07:33:57.000Z</time>
      </trkpt>
      <trkpt lat="22.902822" lon="111.185552">
        <ele>167.585517</ele>
        <time>2026-08-18T07:33:58.000Z</time>
      </trkpt>
      <trkpt lat="22.902829" lon="111.185609">
        <ele>167.582049</ele>
        <time>2026-08-18T07:33:59.000Z</time>
      </trkpt>
      <trkpt lat="22.902837" lon="111.185666">
        <ele>167.578571</ele>
        <time>2026-08-18T07:34:00.000Z</time>
      </trkpt>
      <trkpt lat="22.902845" lon="111.185725">
        <ele>167.574975</ele>
        <time>2026-08-18T07:34:01.000Z</time>
      </trkpt>
      <trkpt lat="22.902852" lon="111.185783">
        <ele>167.571447</ele>
        <time>2026-08-18T07:34:02.000Z</time>
      </trkpt>
      <trkpt lat="22.902862" lon="111.185837">
        <ele>167.568125</ele>
        <time>2026-08-18T07:34:03.000Z</time>
      </trkpt>
      <trkpt lat="22.902872" lon="111.185893">
        <ele>167.564684</ele>
        <time>2026-08-18T07:34:04.000Z</time>
      </trkpt>
      <trkpt lat="22.902879" lon="111.185948">
        <ele>167.561335</ele>
        <time>2026-08-18T07:34:05.000Z</time>
      </trkpt>
      <trkpt lat="22.902886" lon="111.186003">
        <ele>167.557987</ele>
        <time>2026-08-18T07:34:06.000Z</time>
      </trkpt>
      <trkpt lat="22.902892" lon="111.186058">
        <ele>167.554646</ele>
        <time>2026-08-18T07:34:07.000Z</time>
      </trkpt>
      <trkpt lat="22.902898" lon="111.186114">
        <ele>167.551246</ele>
        <time>2026-08-18T07:34:08.000Z</time>
      </trkpt>
      <trkpt lat="22.902906" lon="111.186168">
        <ele>167.547947</ele>
        <time>2026-08-18T07:34:09.000Z</time>
      </trkpt>
      <trkpt lat="22.902913" lon="111.186220">
        <ele>167.544778</ele>
        <time>2026-08-18T07:34:10.000Z</time>
      </trkpt>
      <trkpt lat="22.902921" lon="111.186272">
        <ele>167.541598</ele>
        <time>2026-08-18T07:34:11.000Z</time>
      </trkpt>
      <trkpt lat="22.902927" lon="111.186323">
        <ele>167.548148</ele>
        <time>2026-08-18T07:34:12.000Z</time>
      </trkpt>
      <trkpt lat="22.902932" lon="111.186376">
        <ele>167.557344</ele>
        <time>2026-08-18T07:34:13.000Z</time>
      </trkpt>
      <trkpt lat="22.902939" lon="111.186430">
        <ele>167.566758</ele>
        <time>2026-08-18T07:34:14.000Z</time>
      </trkpt>
      <trkpt lat="22.902947" lon="111.186483">
        <ele>167.576028</ele>
        <time>2026-08-18T07:34:15.000Z</time>
      </trkpt>
      <trkpt lat="22.902957" lon="111.186539">
        <ele>167.585875</ele>
        <time>2026-08-18T07:34:16.000Z</time>
      </trkpt>
      <trkpt lat="22.902967" lon="111.186595">
        <ele>167.595722</ele>
        <time>2026-08-18T07:34:17.000Z</time>
      </trkpt>
      <trkpt lat="22.902979" lon="111.186649">
        <ele>167.605311</ele>
        <time>2026-08-18T07:34:18.000Z</time>
      </trkpt>
      <trkpt lat="22.902989" lon="111.186703">
        <ele>167.614819</ele>
        <time>2026-08-18T07:34:19.000Z</time>
      </trkpt>
      <trkpt lat="22.902999" lon="111.186759">
        <ele>167.624665</ele>
        <time>2026-08-18T07:34:20.000Z</time>
      </trkpt>
      <trkpt lat="22.903008" lon="111.186815">
        <ele>167.634478</ele>
        <time>2026-08-18T07:34:21.000Z</time>
      </trkpt>
      <trkpt lat="22.903013" lon="111.186868">
        <ele>167.643675</ele>
        <time>2026-08-18T07:34:22.000Z</time>
      </trkpt>
      <trkpt lat="22.903018" lon="111.186922">
        <ele>167.653043</ele>
        <time>2026-08-18T07:34:23.000Z</time>
      </trkpt>
      <trkpt lat="22.903024" lon="111.186975">
        <ele>167.662261</ele>
        <time>2026-08-18T07:34:24.000Z</time>
      </trkpt>
      <trkpt lat="22.903030" lon="111.187028">
        <ele>167.671478</ele>
        <time>2026-08-18T07:34:25.000Z</time>
      </trkpt>
      <trkpt lat="22.903032" lon="111.187079">
        <ele>167.680290</ele>
        <time>2026-08-18T07:34:26.000Z</time>
      </trkpt>
      <trkpt lat="22.903030" lon="111.187129">
        <ele>167.688929</ele>
        <time>2026-08-18T07:34:27.000Z</time>
      </trkpt>
      <trkpt lat="22.903026" lon="111.187179">
        <ele>167.697592</ele>
        <time>2026-08-18T07:34:28.000Z</time>
      </trkpt>
      <trkpt lat="22.903022" lon="111.187225">
        <ele>167.705568</ele>
        <time>2026-08-18T07:34:29.000Z</time>
      </trkpt>
      <trkpt lat="22.903020" lon="111.187268">
        <ele>167.713000</ele>
        <time>2026-08-18T07:34:30.000Z</time>
      </trkpt>
      <trkpt lat="22.903021" lon="111.187309">
        <ele>167.720080</ele>
        <time>2026-08-18T07:34:31.000Z</time>
      </trkpt>
      <trkpt lat="22.903024" lon="111.187348">
        <ele>167.726836</ele>
        <time>2026-08-18T07:34:32.000Z</time>
      </trkpt>
      <trkpt lat="22.903031" lon="111.187382">
        <ele>167.732850</ele>
        <time>2026-08-18T07:34:33.000Z</time>
      </trkpt>
      <trkpt lat="22.903042" lon="111.187412">
        <ele>167.738423</ele>
        <time>2026-08-18T07:34:34.000Z</time>
      </trkpt>
      <trkpt lat="22.903057" lon="111.187437">
        <ele>167.743574</ele>
        <time>2026-08-18T07:34:35.000Z</time>
      </trkpt>
      <trkpt lat="22.903077" lon="111.187446">
        <ele>167.747631</ele>
        <time>2026-08-18T07:34:36.000Z</time>
      </trkpt>
      <trkpt lat="22.903100" lon="111.187448">
        <ele>167.751954</ele>
        <time>2026-08-18T07:34:37.000Z</time>
      </trkpt>
      <trkpt lat="22.903126" lon="111.187446">
        <ele>167.756839</ele>
        <time>2026-08-18T07:34:38.000Z</time>
      </trkpt>
      <trkpt lat="22.903153" lon="111.187449">
        <ele>167.761925</ele>
        <time>2026-08-18T07:34:39.000Z</time>
      </trkpt>
      <trkpt lat="22.903173" lon="111.187458">
        <ele>167.765982</ele>
        <time>2026-08-18T07:34:40.000Z</time>
      </trkpt>
      <trkpt lat="22.903184" lon="111.187477">
        <ele>167.769856</ele>
        <time>2026-08-18T07:34:41.000Z</time>
      </trkpt>
      <trkpt lat="22.903200" lon="111.187503">
        <ele>167.775253</ele>
        <time>2026-08-18T07:34:42.000Z</time>
      </trkpt>
      <trkpt lat="22.903216" lon="111.187533">
        <ele>167.781237</ele>
        <time>2026-08-18T07:34:43.000Z</time>
      </trkpt>
      <trkpt lat="22.903234" lon="111.187564">
        <ele>167.787563</ele>
        <time>2026-08-18T07:34:44.000Z</time>
      </trkpt>
      <trkpt lat="22.903251" lon="111.187599">
        <ele>167.794393</ele>
        <time>2026-08-18T07:34:45.000Z</time>
      </trkpt>
      <trkpt lat="22.903266" lon="111.187634">
        <ele>167.801056</ele>
        <time>2026-08-18T07:34:46.000Z</time>
      </trkpt>
      <trkpt lat="22.903278" lon="111.187671">
        <ele>167.807828</ele>
        <time>2026-08-18T07:34:47.000Z</time>
      </trkpt>
      <trkpt lat="22.903294" lon="111.187707">
        <ele>167.814727</ele>
        <time>2026-08-18T07:34:48.000Z</time>
      </trkpt>
      <trkpt lat="22.903309" lon="111.187744">
        <ele>167.821705</ele>
        <time>2026-08-18T07:34:49.000Z</time>
      </trkpt>
      <trkpt lat="22.903330" lon="111.187771">
        <ele>167.827805</ele>
        <time>2026-08-18T07:34:50.000Z</time>
      </trkpt>
      <trkpt lat="22.903349" lon="111.187799">
        <ele>167.833808</ele>
        <time>2026-08-18T07:34:51.000Z</time>
      </trkpt>
      <trkpt lat="22.903363" lon="111.187834">
        <ele>167.840395</ele>
        <time>2026-08-18T07:34:52.000Z</time>
      </trkpt>
      <trkpt lat="22.903375" lon="111.187868">
        <ele>167.846680</ele>
        <time>2026-08-18T07:34:53.000Z</time>
      </trkpt>
      <trkpt lat="22.903388" lon="111.187899">
        <ele>167.852560</ele>
        <time>2026-08-18T07:34:54.000Z</time>
      </trkpt>
      <trkpt lat="22.903398" lon="111.187932">
        <ele>167.858557</ele>
        <time>2026-08-18T07:34:55.000Z</time>
      </trkpt>
      <trkpt lat="22.903410" lon="111.187966">
        <ele>167.864842</ele>
        <time>2026-08-18T07:34:56.000Z</time>
      </trkpt>
      <trkpt lat="22.903427" lon="111.188001">
        <ele>167.871672</ele>
        <time>2026-08-18T07:34:57.000Z</time>
      </trkpt>
      <trkpt lat="22.903442" lon="111.188036">
        <ele>167.879173</ele>
        <time>2026-08-18T07:34:58.000Z</time>
      </trkpt>
      <trkpt lat="22.903455" lon="111.188074">
        <ele>167.906594</ele>
        <time>2026-08-18T07:34:59.000Z</time>
      </trkpt>
      <trkpt lat="22.903469" lon="111.188112">
        <ele>167.934279</ele>
        <time>2026-08-18T07:35:00.000Z</time>
      </trkpt>
      <trkpt lat="22.903482" lon="111.188150">
        <ele>167.961700</ele>
        <time>2026-08-18T07:35:01.000Z</time>
      </trkpt>
      <trkpt lat="22.903500" lon="111.188185">
        <ele>167.988816</ele>
        <time>2026-08-18T07:35:02.000Z</time>
      </trkpt>
      <trkpt lat="22.903516" lon="111.188224">
        <ele>168.017696</ele>
        <time>2026-08-18T07:35:03.000Z</time>
      </trkpt>
      <trkpt lat="22.903530" lon="111.188266">
        <ele>168.047910</ele>
        <time>2026-08-18T07:35:04.000Z</time>
      </trkpt>
      <trkpt lat="22.903546" lon="111.188305">
        <ele>168.076790</ele>
        <time>2026-08-18T07:35:05.000Z</time>
      </trkpt>
      <trkpt lat="22.903565" lon="111.188346">
        <ele>168.107836</ele>
        <time>2026-08-18T07:35:06.000Z</time>
      </trkpt>
      <trkpt lat="22.903583" lon="111.188385">
        <ele>168.137344</ele>
        <time>2026-08-18T07:35:07.000Z</time>
      </trkpt>
      <trkpt lat="22.903602" lon="111.188425">
        <ele>168.167788</ele>
        <time>2026-08-18T07:35:08.000Z</time>
      </trkpt>
      <trkpt lat="22.903623" lon="111.188466">
        <ele>168.199522</ele>
        <time>2026-08-18T07:35:09.000Z</time>
      </trkpt>
      <trkpt lat="22.903642" lon="111.188507">
        <ele>168.230568</ele>
        <time>2026-08-18T07:35:10.000Z</time>
      </trkpt>
      <trkpt lat="22.903662" lon="111.188551">
        <ele>168.263759</ele>
        <time>2026-08-18T07:35:11.000Z</time>
      </trkpt>
      <trkpt lat="22.903680" lon="111.188593">
        <ele>168.295094</ele>
        <time>2026-08-18T07:35:12.000Z</time>
      </trkpt>
      <trkpt lat="22.903701" lon="111.188634">
        <ele>168.326828</ele>
        <time>2026-08-18T07:35:13.000Z</time>
      </trkpt>
      <trkpt lat="22.903723" lon="111.188674">
        <ele>168.358342</ele>
        <time>2026-08-18T07:35:14.000Z</time>
      </trkpt>
      <trkpt lat="22.903741" lon="111.188715">
        <ele>168.389066</ele>
        <time>2026-08-18T07:35:15.000Z</time>
      </trkpt>
      <trkpt lat="22.903761" lon="111.188757">
        <ele>168.421048</ele>
        <time>2026-08-18T07:35:16.000Z</time>
      </trkpt>
      <trkpt lat="22.903779" lon="111.188798">
        <ele>168.451772</ele>
        <time>2026-08-18T07:35:17.000Z</time>
      </trkpt>
      <trkpt lat="22.903791" lon="111.188839">
        <ele>168.480873</ele>
        <time>2026-08-18T07:35:18.000Z</time>
      </trkpt>
      <trkpt lat="22.903810" lon="111.188882">
        <ele>168.513134</ele>
        <time>2026-08-18T07:35:19.000Z</time>
      </trkpt>
      <trkpt lat="22.903830" lon="111.188925">
        <ele>168.545719</ele>
        <time>2026-08-18T07:35:20.000Z</time>
      </trkpt>
      <trkpt lat="22.903847" lon="111.188969">
        <ele>168.577995</ele>
        <time>2026-08-18T07:35:21.000Z</time>
      </trkpt>
      <trkpt lat="22.903869" lon="111.189013">
        <ele>168.611861</ele>
        <time>2026-08-18T07:35:22.000Z</time>
      </trkpt>
      <trkpt lat="22.903889" lon="111.189056">
        <ele>168.644446</ele>
        <time>2026-08-18T07:35:23.000Z</time>
      </trkpt>
      <trkpt lat="22.903912" lon="111.189099">
        <ele>168.678081</ele>
        <time>2026-08-18T07:35:24.000Z</time>
      </trkpt>
      <trkpt lat="22.903938" lon="111.189140">
        <ele>168.711753</ele>
        <time>2026-08-18T07:35:25.000Z</time>
      </trkpt>
      <trkpt lat="22.903960" lon="111.189180">
        <ele>168.743267</ele>
        <time>2026-08-18T07:35:26.000Z</time>
      </trkpt>
      <trkpt lat="22.903979" lon="111.189222">
        <ele>168.774919</ele>
        <time>2026-08-18T07:35:27.000Z</time>
      </trkpt>
      <trkpt lat="22.903999" lon="111.189263">
        <ele>168.806303</ele>
        <time>2026-08-18T07:35:28.000Z</time>
      </trkpt>
      <trkpt lat="22.904017" lon="111.189302">
        <ele>168.835810</ele>
        <time>2026-08-18T07:35:29.000Z</time>
      </trkpt>
      <trkpt lat="22.904035" lon="111.189343">
        <ele>168.866534</ele>
        <time>2026-08-18T07:35:30.000Z</time>
      </trkpt>
      <trkpt lat="22.904055" lon="111.189384">
        <ele>168.897917</ele>
        <time>2026-08-18T07:35:31.000Z</time>
      </trkpt>
      <trkpt lat="22.904073" lon="111.189424">
        <ele>168.928031</ele>
        <time>2026-08-18T07:35:32.000Z</time>
      </trkpt>
      <trkpt lat="22.904086" lon="111.189464">
        <ele>168.956724</ele>
        <time>2026-08-18T07:35:33.000Z</time>
      </trkpt>
      <trkpt lat="22.904099" lon="111.189501">
        <ele>168.983512</ele>
        <time>2026-08-18T07:35:34.000Z</time>
      </trkpt>
      <trkpt lat="22.904104" lon="111.189541">
        <ele>169.010818</ele>
        <time>2026-08-18T07:35:35.000Z</time>
      </trkpt>
      <trkpt lat="22.904107" lon="111.189576">
        <ele>169.034596</ele>
        <time>2026-08-18T07:35:36.000Z</time>
      </trkpt>
      <trkpt lat="22.904113" lon="111.189612">
        <ele>169.059344</ele>
        <time>2026-08-18T07:35:37.000Z</time>
      </trkpt>
      <trkpt lat="22.904116" lon="111.189647">
        <ele>169.083122</ele>
        <time>2026-08-18T07:35:38.000Z</time>
      </trkpt>
      <trkpt lat="22.904116" lon="111.189678">
        <ele>169.104092</ele>
        <time>2026-08-18T07:35:39.000Z</time>
      </trkpt>
      <trkpt lat="22.904119" lon="111.189716">
        <ele>169.129891</ele>
        <time>2026-08-18T07:35:40.000Z</time>
      </trkpt>
      <trkpt lat="22.904122" lon="111.189752">
        <ele>169.154343</ele>
        <time>2026-08-18T07:35:41.000Z</time>
      </trkpt>
      <trkpt lat="22.904123" lon="111.189787">
        <ele>169.178030</ele>
        <time>2026-08-18T07:35:42.000Z</time>
      </trkpt>
      <trkpt lat="22.904122" lon="111.189812">
        <ele>169.194957</ele>
        <time>2026-08-18T07:35:43.000Z</time>
      </trkpt>
      <trkpt lat="22.904117" lon="111.189840">
        <ele>169.202379</ele>
        <time>2026-08-18T07:35:44.000Z</time>
      </trkpt>
      <trkpt lat="22.904113" lon="111.189869">
        <ele>169.206893</ele>
        <time>2026-08-18T07:35:45.000Z</time>
      </trkpt>
      <trkpt lat="22.904114" lon="111.189906">
        <ele>169.212590</ele>
        <time>2026-08-18T07:35:46.000Z</time>
      </trkpt>
      <trkpt lat="22.904116" lon="111.189945">
        <ele>169.218602</ele>
        <time>2026-08-18T07:35:47.000Z</time>
      </trkpt>
      <trkpt lat="22.904118" lon="111.189986">
        <ele>169.224921</ele>
        <time>2026-08-18T07:35:48.000Z</time>
      </trkpt>
      <trkpt lat="22.904121" lon="111.190023">
        <ele>169.230638</ele>
        <time>2026-08-18T07:35:49.000Z</time>
      </trkpt>
      <trkpt lat="22.904123" lon="111.190059">
        <ele>169.236189</ele>
        <time>2026-08-18T07:35:50.000Z</time>
      </trkpt>
      <trkpt lat="22.904119" lon="111.190094">
        <ele>169.241618</ele>
        <time>2026-08-18T07:35:51.000Z</time>
      </trkpt>
      <trkpt lat="22.904121" lon="111.190129">
        <ele>169.247015</ele>
        <time>2026-08-18T07:35:52.000Z</time>
      </trkpt>
      <trkpt lat="22.904119" lon="111.190162">
        <ele>169.252105</ele>
        <time>2026-08-18T07:35:53.000Z</time>
      </trkpt>
      <trkpt lat="22.904120" lon="111.190197">
        <ele>169.257495</ele>
        <time>2026-08-18T07:35:54.000Z</time>
      </trkpt>
      <trkpt lat="22.904116" lon="111.190228">
        <ele>169.262313</ele>
        <time>2026-08-18T07:35:55.000Z</time>
      </trkpt>
      <trkpt lat="22.904109" lon="111.190261">
        <ele>169.267525</ele>
        <time>2026-08-18T07:35:56.000Z</time>
      </trkpt>
      <trkpt lat="22.904104" lon="111.190288">
        <ele>169.271764</ele>
        <time>2026-08-18T07:35:57.000Z</time>
      </trkpt>
      <trkpt lat="22.904095" lon="111.190310">
        <ele>169.275469</ele>
        <time>2026-08-18T07:35:58.000Z</time>
      </trkpt>
      <trkpt lat="22.904091" lon="111.190338">
        <ele>169.279830</ele>
        <time>2026-08-18T07:35:59.000Z</time>
      </trkpt>
      <trkpt lat="22.904086" lon="111.190375">
        <ele>169.285586</ele>
        <time>2026-08-18T07:36:00.000Z</time>
      </trkpt>
      <trkpt lat="22.904092" lon="111.190410">
        <ele>169.291065</ele>
        <time>2026-08-18T07:36:01.000Z</time>
      </trkpt>
      <trkpt lat="22.904091" lon="111.190445">
        <ele>169.296455</ele>
        <time>2026-08-18T07:36:02.000Z</time>
      </trkpt>
      <trkpt lat="22.904083" lon="111.190474">
        <ele>169.301115</ele>
        <time>2026-08-18T07:36:03.000Z</time>
      </trkpt>
      <trkpt lat="22.904083" lon="111.190508">
        <ele>169.306348</ele>
        <time>2026-08-18T07:36:04.000Z</time>
      </trkpt>
      <trkpt lat="22.904085" lon="111.190541">
        <ele>169.311438</ele>
        <time>2026-08-18T07:36:05.000Z</time>
      </trkpt>
      <trkpt lat="22.904089" lon="111.190577">
        <ele>169.317019</ele>
        <time>2026-08-18T07:36:06.000Z</time>
      </trkpt>
      <trkpt lat="22.904090" lon="111.190615">
        <ele>169.322870</ele>
        <time>2026-08-18T07:36:07.000Z</time>
      </trkpt>
      <trkpt lat="22.904085" lon="111.190650">
        <ele>169.328322</ele>
        <time>2026-08-18T07:36:08.000Z</time>
      </trkpt>
      <trkpt lat="22.904077" lon="111.190680">
        <ele>169.333129</ele>
        <time>2026-08-18T07:36:09.000Z</time>
      </trkpt>
      <trkpt lat="22.904077" lon="111.190710">
        <ele>169.337746</ele>
        <time>2026-08-18T07:36:10.000Z</time>
      </trkpt>
      <trkpt lat="22.904079" lon="111.190745">
        <ele>169.343144</ele>
        <time>2026-08-18T07:36:11.000Z</time>
      </trkpt>
      <trkpt lat="22.904079" lon="111.190787">
        <ele>169.349608</ele>
        <time>2026-08-18T07:36:12.000Z</time>
      </trkpt>
      <trkpt lat="22.904085" lon="111.190832">
        <ele>169.356606</ele>
        <time>2026-08-18T07:36:13.000Z</time>
      </trkpt>
      <trkpt lat="22.904092" lon="111.190881">
        <ele>169.364238</ele>
        <time>2026-08-18T07:36:14.000Z</time>
      </trkpt>
      <trkpt lat="22.904103" lon="111.190934">
        <ele>169.372600</ele>
        <time>2026-08-18T07:36:15.000Z</time>
      </trkpt>
      <trkpt lat="22.904115" lon="111.190990">
        <ele>169.381450</ele>
        <time>2026-08-18T07:36:16.000Z</time>
      </trkpt>
      <trkpt lat="22.904133" lon="111.191043">
        <ele>169.390144</ele>
        <time>2026-08-18T07:36:17.000Z</time>
      </trkpt>
      <trkpt lat="22.904154" lon="111.191095">
        <ele>169.398883</ele>
        <time>2026-08-18T07:36:18.000Z</time>
      </trkpt>
      <trkpt lat="22.904177" lon="111.191149">
        <ele>169.408040</ele>
        <time>2026-08-18T07:36:19.000Z</time>
      </trkpt>
      <trkpt lat="22.904197" lon="111.191202">
        <ele>169.416856</ele>
        <time>2026-08-18T07:36:20.000Z</time>
      </trkpt>
      <trkpt lat="22.904218" lon="111.191253">
        <ele>169.425454</ele>
        <time>2026-08-18T07:36:21.000Z</time>
      </trkpt>
      <trkpt lat="22.904238" lon="111.191301">
        <ele>169.433562</ele>
        <time>2026-08-18T07:36:22.000Z</time>
      </trkpt>
      <trkpt lat="22.904250" lon="111.191347">
        <ele>169.440921</ele>
        <time>2026-08-18T07:36:23.000Z</time>
      </trkpt>
      <trkpt lat="22.904265" lon="111.191395">
        <ele>169.448722</ele>
        <time>2026-08-18T07:36:24.000Z</time>
      </trkpt>
      <trkpt lat="22.904276" lon="111.191434">
        <ele>169.455000</ele>
        <time>2026-08-18T07:36:25.000Z</time>
      </trkpt>
      <trkpt lat="22.904289" lon="111.191465">
        <ele>169.460243</ele>
        <time>2026-08-18T07:36:26.000Z</time>
      </trkpt>
      <trkpt lat="22.904298" lon="111.191494">
        <ele>169.464953</ele>
        <time>2026-08-18T07:36:27.000Z</time>
      </trkpt>
      <trkpt lat="22.904310" lon="111.191522">
        <ele>169.469706</ele>
        <time>2026-08-18T07:36:28.000Z</time>
      </trkpt>
      <trkpt lat="22.904316" lon="111.191550">
        <ele>169.474131</ele>
        <time>2026-08-18T07:36:29.000Z</time>
      </trkpt>
      <trkpt lat="22.904328" lon="111.191583">
        <ele>169.479591</ele>
        <time>2026-08-18T07:36:30.000Z</time>
      </trkpt>
      <trkpt lat="22.904338" lon="111.191618">
        <ele>169.485232</ele>
        <time>2026-08-18T07:36:31.000Z</time>
      </trkpt>
      <trkpt lat="22.904355" lon="111.191656">
        <ele>169.491734</ele>
        <time>2026-08-18T07:36:32.000Z</time>
      </trkpt>
      <trkpt lat="22.904370" lon="111.191694">
        <ele>169.498097</ele>
        <time>2026-08-18T07:36:33.000Z</time>
      </trkpt>
      <trkpt lat="22.904387" lon="111.191734">
        <ele>169.574700</ele>
        <time>2026-08-18T07:36:34.000Z</time>
      </trkpt>
      <trkpt lat="22.904403" lon="111.191773">
        <ele>169.665297</ele>
        <time>2026-08-18T07:36:35.000Z</time>
      </trkpt>
      <trkpt lat="22.904418" lon="111.191814">
        <ele>169.758911</ele>
        <time>2026-08-18T07:36:36.000Z</time>
      </trkpt>
      <trkpt lat="22.904431" lon="111.191854">
        <ele>169.848921</ele>
        <time>2026-08-18T07:36:37.000Z</time>
      </trkpt>
      <trkpt lat="22.904446" lon="111.191894">
        <ele>169.940567</ele>
        <time>2026-08-18T07:36:38.000Z</time>
      </trkpt>
      <trkpt lat="22.904465" lon="111.191936">
        <ele>170.039860</ele>
        <time>2026-08-18T07:36:39.000Z</time>
      </trkpt>
      <trkpt lat="22.904484" lon="111.191975">
        <ele>170.133482</ele>
        <time>2026-08-18T07:36:40.000Z</time>
      </trkpt>
      <trkpt lat="22.904504" lon="111.192014">
        <ele>170.228202</ele>
        <time>2026-08-18T07:36:41.000Z</time>
      </trkpt>
      <trkpt lat="22.904517" lon="111.192050">
        <ele>170.310256</ele>
        <time>2026-08-18T07:36:42.000Z</time>
      </trkpt>
      <trkpt lat="22.904532" lon="111.192078">
        <ele>170.378990</ele>
        <time>2026-08-18T07:36:43.000Z</time>
      </trkpt>
      <trkpt lat="22.904544" lon="111.192106">
        <ele>170.444523</ele>
        <time>2026-08-18T07:36:44.000Z</time>
      </trkpt>
      <trkpt lat="22.904559" lon="111.192138">
        <ele>170.520715</ele>
        <time>2026-08-18T07:36:45.000Z</time>
      </trkpt>
      <trkpt lat="22.904578" lon="111.192170">
        <ele>170.601505</ele>
        <time>2026-08-18T07:36:46.000Z</time>
      </trkpt>
      <trkpt lat="22.904593" lon="111.192210">
        <ele>170.693150</ele>
        <time>2026-08-18T07:36:47.000Z</time>
      </trkpt>
      <trkpt lat="22.904611" lon="111.192248">
        <ele>170.783825</ele>
        <time>2026-08-18T07:36:48.000Z</time>
      </trkpt>
      <trkpt lat="22.904624" lon="111.192285">
        <ele>170.867858</ele>
        <time>2026-08-18T07:36:49.000Z</time>
      </trkpt>
      <trkpt lat="22.904637" lon="111.192326">
        <ele>170.959871</ele>
        <time>2026-08-18T07:36:50.000Z</time>
      </trkpt>
      <trkpt lat="22.904649" lon="111.192367">
        <ele>171.051161</ele>
        <time>2026-08-18T07:36:51.000Z</time>
      </trkpt>
      <trkpt lat="22.904662" lon="111.192408">
        <ele>171.143175</ele>
        <time>2026-08-18T07:36:52.000Z</time>
      </trkpt>
      <trkpt lat="22.904676" lon="111.192447">
        <ele>171.231996</ele>
        <time>2026-08-18T07:36:53.000Z</time>
      </trkpt>
      <trkpt lat="22.904690" lon="111.192488">
        <ele>171.324785</ele>
        <time>2026-08-18T07:36:54.000Z</time>
      </trkpt>
      <trkpt lat="22.904706" lon="111.192528">
        <ele>171.417324</ele>
        <time>2026-08-18T07:36:55.000Z</time>
      </trkpt>
      <trkpt lat="22.904712" lon="111.192561">
        <ele>171.488702</ele>
        <time>2026-08-18T07:36:56.000Z</time>
      </trkpt>
      <trkpt lat="22.904721" lon="111.192589">
        <ele>171.551633</ele>
        <time>2026-08-18T07:36:57.000Z</time>
      </trkpt>
      <trkpt lat="22.904735" lon="111.192617">
        <ele>171.619239</ele>
        <time>2026-08-18T07:36:58.000Z</time>
      </trkpt>
      <trkpt lat="22.904749" lon="111.192652">
        <ele>171.700210</ele>
        <time>2026-08-18T07:36:59.000Z</time>
      </trkpt>
      <trkpt lat="22.904761" lon="111.192685">
        <ele>171.775496</ele>
        <time>2026-08-18T07:37:00.000Z</time>
      </trkpt>
      <trkpt lat="22.904773" lon="111.192720">
        <ele>171.854745</ele>
        <time>2026-08-18T07:37:01.000Z</time>
      </trkpt>
      <trkpt lat="22.904788" lon="111.192755">
        <ele>171.936662</ele>
        <time>2026-08-18T07:37:02.000Z</time>
      </trkpt>
      <trkpt lat="22.904805" lon="111.192792">
        <ele>172.024402</ele>
        <time>2026-08-18T07:37:03.000Z</time>
      </trkpt>
      <trkpt lat="22.904815" lon="111.192836">
        <ele>172.120571</ele>
        <time>2026-08-18T07:37:04.000Z</time>
      </trkpt>
      <trkpt lat="22.904831" lon="111.192877">
        <ele>172.215060</ele>
        <time>2026-08-18T07:37:05.000Z</time>
      </trkpt>
      <trkpt lat="22.904846" lon="111.192920">
        <ele>172.312632</ele>
        <time>2026-08-18T07:37:06.000Z</time>
      </trkpt>
      <trkpt lat="22.904864" lon="111.192962">
        <ele>172.410931</ele>
        <time>2026-08-18T07:37:07.000Z</time>
      </trkpt>
      <trkpt lat="22.904884" lon="111.192994">
        <ele>172.492991</ele>
        <time>2026-08-18T07:37:08.000Z</time>
      </trkpt>
      <trkpt lat="22.904907" lon="111.193020">
        <ele>172.569486</ele>
        <time>2026-08-18T07:37:09.000Z</time>
      </trkpt>
      <trkpt lat="22.904933" lon="111.193043">
        <ele>172.646749</ele>
        <time>2026-08-18T07:37:10.000Z</time>
      </trkpt>
      <trkpt lat="22.904959" lon="111.193071">
        <ele>172.731116</ele>
        <time>2026-08-18T07:37:11.000Z</time>
      </trkpt>
      <trkpt lat="22.904973" lon="111.193105">
        <ele>172.810146</ele>
        <time>2026-08-18T07:37:12.000Z</time>
      </trkpt>
      <trkpt lat="22.904990" lon="111.193136">
        <ele>172.886704</ele>
        <time>2026-08-18T07:37:13.000Z</time>
      </trkpt>
      <trkpt lat="22.905006" lon="111.193167">
        <ele>172.962109</ele>
        <time>2026-08-18T07:37:14.000Z</time>
      </trkpt>
      <trkpt lat="22.905013" lon="111.193196">
        <ele>173.025726</ele>
        <time>2026-08-18T07:37:15.000Z</time>
      </trkpt>
      <trkpt lat="22.905030" lon="111.193222">
        <ele>173.093385</ele>
        <time>2026-08-18T07:37:16.000Z</time>
      </trkpt>
      <trkpt lat="22.905043" lon="111.193244">
        <ele>173.148849</ele>
        <time>2026-08-18T07:37:17.000Z</time>
      </trkpt>
      <trkpt lat="22.905063" lon="111.193267">
        <ele>173.215968</ele>
        <time>2026-08-18T07:37:18.000Z</time>
      </trkpt>
      <trkpt lat="22.905079" lon="111.193289">
        <ele>173.275449</ele>
        <time>2026-08-18T07:37:19.000Z</time>
      </trkpt>
      <trkpt lat="22.905106" lon="111.193307">
        <ele>173.348440</ele>
        <time>2026-08-18T07:37:20.000Z</time>
      </trkpt>
      <trkpt lat="22.905123" lon="111.193336">
        <ele>173.421384</ele>
        <time>2026-08-18T07:37:21.000Z</time>
      </trkpt>
      <trkpt lat="22.905139" lon="111.193367">
        <ele>173.496789</ele>
        <time>2026-08-18T07:37:22.000Z</time>
      </trkpt>
      <trkpt lat="22.905151" lon="111.193398">
        <ele>173.568144</ele>
        <time>2026-08-18T07:37:23.000Z</time>
      </trkpt>
      <trkpt lat="22.905165" lon="111.193430">
        <ele>173.643375</ele>
        <time>2026-08-18T07:37:24.000Z</time>
      </trkpt>
      <trkpt lat="22.905180" lon="111.193461">
        <ele>173.727650</ele>
        <time>2026-08-18T07:37:25.000Z</time>
      </trkpt>
      <trkpt lat="22.905195" lon="111.193489">
        <ele>173.805605</ele>
        <time>2026-08-18T07:37:26.000Z</time>
      </trkpt>
      <trkpt lat="22.905204" lon="111.193517">
        <ele>173.876977</ele>
        <time>2026-08-18T07:37:27.000Z</time>
      </trkpt>
      <trkpt lat="22.905215" lon="111.193548">
        <ele>173.956929</ele>
        <time>2026-08-18T07:37:28.000Z</time>
      </trkpt>
      <trkpt lat="22.905224" lon="111.193578">
        <ele>174.032863</ele>
        <time>2026-08-18T07:37:29.000Z</time>
      </trkpt>
      <trkpt lat="22.905235" lon="111.193610">
        <ele>174.115066</ele>
        <time>2026-08-18T07:37:30.000Z</time>
      </trkpt>
      <trkpt lat="22.905247" lon="111.193638">
        <ele>174.189390</ele>
        <time>2026-08-18T07:37:31.000Z</time>
      </trkpt>
      <trkpt lat="22.905258" lon="111.193668">
        <ele>174.267101</ele>
        <time>2026-08-18T07:37:32.000Z</time>
      </trkpt>
      <trkpt lat="22.905269" lon="111.193700">
        <ele>174.349303</ele>
        <time>2026-08-18T07:37:33.000Z</time>
      </trkpt>
      <trkpt lat="22.905275" lon="111.193734">
        <ele>174.432619</ele>
        <time>2026-08-18T07:37:34.000Z</time>
      </trkpt>
      <trkpt lat="22.905287" lon="111.193767">
        <ele>174.518005</ele>
        <time>2026-08-18T07:37:35.000Z</time>
      </trkpt>
      <trkpt lat="22.905298" lon="111.193801">
        <ele>174.604733</ele>
        <time>2026-08-18T07:37:36.000Z</time>
      </trkpt>
      <trkpt lat="22.905306" lon="111.193832">
        <ele>174.682214</ele>
        <time>2026-08-18T07:37:37.000Z</time>
      </trkpt>
      <trkpt lat="22.905311" lon="111.193858">
        <ele>174.746137</ele>
        <time>2026-08-18T07:37:38.000Z</time>
      </trkpt>
      <trkpt lat="22.905309" lon="111.193888">
        <ele>174.818527</ele>
        <time>2026-08-18T07:37:39.000Z</time>
      </trkpt>
      <trkpt lat="22.905308" lon="111.193915">
        <ele>174.883561</ele>
        <time>2026-08-18T07:37:40.000Z</time>
      </trkpt>
      <trkpt lat="22.905302" lon="111.193948">
        <ele>174.964514</ele>
        <time>2026-08-18T07:37:41.000Z</time>
      </trkpt>
      <trkpt lat="22.905295" lon="111.193981">
        <ele>175.046014</ele>
        <time>2026-08-18T07:37:42.000Z</time>
      </trkpt>
      <trkpt lat="22.905287" lon="111.194012">
        <ele>175.123495</ele>
        <time>2026-08-18T07:37:43.000Z</time>
      </trkpt>
      <trkpt lat="22.905282" lon="111.194045">
        <ele>175.203983</ele>
        <time>2026-08-18T07:37:44.000Z</time>
      </trkpt>
      <trkpt lat="22.905278" lon="111.194078">
        <ele>175.284089</ele>
        <time>2026-08-18T07:37:45.000Z</time>
      </trkpt>
      <trkpt lat="22.905274" lon="111.194110">
        <ele>175.361809</ele>
        <time>2026-08-18T07:37:46.000Z</time>
      </trkpt>
      <trkpt lat="22.905268" lon="111.194144">
        <ele>175.445125</ele>
        <time>2026-08-18T07:37:47.000Z</time>
      </trkpt>
      <trkpt lat="22.905262" lon="111.194176">
        <ele>175.523719</ele>
        <time>2026-08-18T07:37:48.000Z</time>
      </trkpt>
      <trkpt lat="22.905256" lon="111.194210">
        <ele>175.607035</ele>
        <time>2026-08-18T07:37:49.000Z</time>
      </trkpt>
      <trkpt lat="22.905252" lon="111.194243">
        <ele>175.687141</ele>
        <time>2026-08-18T07:37:50.000Z</time>
      </trkpt>
      <trkpt lat="22.905251" lon="111.194277">
        <ele>175.769011</ele>
        <time>2026-08-18T07:37:51.000Z</time>
      </trkpt>
      <trkpt lat="22.905249" lon="111.194310">
        <ele>175.848604</ele>
        <time>2026-08-18T07:37:52.000Z</time>
      </trkpt>
      <trkpt lat="22.905246" lon="111.194338">
        <ele>175.916446</ele>
        <time>2026-08-18T07:37:53.000Z</time>
      </trkpt>
      <trkpt lat="22.905240" lon="111.194364">
        <ele>175.980954</ele>
        <time>2026-08-18T07:37:54.000Z</time>
      </trkpt>
      <trkpt lat="22.905231" lon="111.194391">
        <ele>176.050059</ele>
        <time>2026-08-18T07:37:55.000Z</time>
      </trkpt>
      <trkpt lat="22.905213" lon="111.194413">
        <ele>176.120877</ele>
        <time>2026-08-18T07:37:56.000Z</time>
      </trkpt>
      <trkpt lat="22.905217" lon="111.194438">
        <ele>176.181945</ele>
        <time>2026-08-18T07:37:57.000Z</time>
      </trkpt>
      <trkpt lat="22.905206" lon="111.194463">
        <ele>176.248625</ele>
        <time>2026-08-18T07:37:58.000Z</time>
      </trkpt>
      <trkpt lat="22.905194" lon="111.194496">
        <ele>176.334010</ele>
        <time>2026-08-18T07:37:59.000Z</time>
      </trkpt>
      <trkpt lat="22.905179" lon="111.194526">
        <ele>176.416162</ele>
        <time>2026-08-18T07:38:00.000Z</time>
      </trkpt>
      <trkpt lat="22.905167" lon="111.194555">
        <ele>176.492675</ele>
        <time>2026-08-18T07:38:01.000Z</time>
      </trkpt>
      <trkpt lat="22.905156" lon="111.194585">
        <ele>176.570386</ele>
        <time>2026-08-18T07:38:02.000Z</time>
      </trkpt>
      <trkpt lat="22.905147" lon="111.194614">
        <ele>176.644036</ele>
        <time>2026-08-18T07:38:03.000Z</time>
      </trkpt>
      <trkpt lat="22.905138" lon="111.194647">
        <ele>176.726865</ele>
        <time>2026-08-18T07:38:04.000Z</time>
      </trkpt>
      <trkpt lat="22.905127" lon="111.194679">
        <ele>176.809067</ele>
        <time>2026-08-18T07:38:05.000Z</time>
      </trkpt>
      <trkpt lat="22.905115" lon="111.194706">
        <ele>176.881217</ele>
        <time>2026-08-18T07:38:06.000Z</time>
      </trkpt>
      <trkpt lat="22.905102" lon="111.194737">
        <ele>176.963192</ele>
        <time>2026-08-18T07:38:07.000Z</time>
      </trkpt>
      <trkpt lat="22.905088" lon="111.194767">
        <ele>177.044130</ele>
        <time>2026-08-18T07:38:08.000Z</time>
      </trkpt>
      <trkpt lat="22.905074" lon="111.194798">
        <ele>177.127223</ele>
        <time>2026-08-18T07:38:09.000Z</time>
      </trkpt>
      <trkpt lat="22.905065" lon="111.194831">
        <ele>177.210052</ele>
        <time>2026-08-18T07:38:10.000Z</time>
      </trkpt>
      <trkpt lat="22.905053" lon="111.194857">
        <ele>177.280041</ele>
        <time>2026-08-18T07:38:11.000Z</time>
      </trkpt>
      <trkpt lat="22.905046" lon="111.194882">
        <ele>177.342927</ele>
        <time>2026-08-18T07:38:12.000Z</time>
      </trkpt>
      <trkpt lat="22.905038" lon="111.194908">
        <ele>177.408900</ele>
        <time>2026-08-18T07:38:13.000Z</time>
      </trkpt>
      <trkpt lat="22.905030" lon="111.194935">
        <ele>177.477161</ele>
        <time>2026-08-18T07:38:14.000Z</time>
      </trkpt>
      <trkpt lat="22.905015" lon="111.194968">
        <ele>177.565725</ele>
        <time>2026-08-18T07:38:15.000Z</time>
      </trkpt>
      <trkpt lat="22.905008" lon="111.195003">
        <ele>177.651923</ele>
        <time>2026-08-18T07:38:16.000Z</time>
      </trkpt>
      <trkpt lat="22.905007" lon="111.195032">
        <ele>177.721766</ele>
        <time>2026-08-18T07:38:17.000Z</time>
      </trkpt>
      <trkpt lat="22.905017" lon="111.195059">
        <ele>177.791803</ele>
        <time>2026-08-18T07:38:18.000Z</time>
      </trkpt>
      <trkpt lat="22.905028" lon="111.195083">
        <ele>177.856319</ele>
        <time>2026-08-18T07:38:19.000Z</time>
      </trkpt>
      <trkpt lat="22.905036" lon="111.195113">
        <ele>177.931485</ele>
        <time>2026-08-18T07:38:20.000Z</time>
      </trkpt>
      <trkpt lat="22.905037" lon="111.195149">
        <ele>178.018166</ele>
        <time>2026-08-18T07:38:21.000Z</time>
      </trkpt>
      <trkpt lat="22.905037" lon="111.195184">
        <ele>178.102401</ele>
        <time>2026-08-18T07:38:22.000Z</time>
      </trkpt>
      <trkpt lat="22.905038" lon="111.195223">
        <ele>178.196299</ele>
        <time>2026-08-18T07:38:23.000Z</time>
      </trkpt>
      <trkpt lat="22.905036" lon="111.195265">
        <ele>178.297515</ele>
        <time>2026-08-18T07:38:24.000Z</time>
      </trkpt>
      <trkpt lat="22.905038" lon="111.195304">
        <ele>178.338316</ele>
        <time>2026-08-18T07:38:25.000Z</time>
      </trkpt>
      <trkpt lat="22.905036" lon="111.195342">
        <ele>178.330992</ele>
        <time>2026-08-18T07:38:26.000Z</time>
      </trkpt>
      <trkpt lat="22.905034" lon="111.195379">
        <ele>178.323860</ele>
        <time>2026-08-18T07:38:27.000Z</time>
      </trkpt>
      <trkpt lat="22.905028" lon="111.195412">
        <ele>178.317388</ele>
        <time>2026-08-18T07:38:28.000Z</time>
      </trkpt>
      <trkpt lat="22.905026" lon="111.195439">
        <ele>178.312176</ele>
        <time>2026-08-18T07:38:29.000Z</time>
      </trkpt>
      <trkpt lat="22.905018" lon="111.195464">
        <ele>178.307083</ele>
        <time>2026-08-18T07:38:30.000Z</time>
      </trkpt>
      <trkpt lat="22.905008" lon="111.195491">
        <ele>178.301483</ele>
        <time>2026-08-18T07:38:31.000Z</time>
      </trkpt>
      <trkpt lat="22.904999" lon="111.195523">
        <ele>178.295045</ele>
        <time>2026-08-18T07:38:32.000Z</time>
      </trkpt>
      <trkpt lat="22.904996" lon="111.195560">
        <ele>178.287898</ele>
        <time>2026-08-18T07:38:33.000Z</time>
      </trkpt>
      <trkpt lat="22.905001" lon="111.195597">
        <ele>178.280702</ele>
        <time>2026-08-18T07:38:34.000Z</time>
      </trkpt>
      <trkpt lat="22.905011" lon="111.195635">
        <ele>178.273097</ele>
        <time>2026-08-18T07:38:35.000Z</time>
      </trkpt>
      <trkpt lat="22.905025" lon="111.195674">
        <ele>178.265043</ele>
        <time>2026-08-18T07:38:36.000Z</time>
      </trkpt>
      <trkpt lat="22.905043" lon="111.195710">
        <ele>178.257161</ele>
        <time>2026-08-18T07:38:37.000Z</time>
      </trkpt>
      <trkpt lat="22.905059" lon="111.195748">
        <ele>178.249121</ele>
        <time>2026-08-18T07:38:38.000Z</time>
      </trkpt>
      <trkpt lat="22.905075" lon="111.195787">
        <ele>178.240906</ele>
        <time>2026-08-18T07:38:39.000Z</time>
      </trkpt>
      <trkpt lat="22.905091" lon="111.195827">
        <ele>178.232515</ele>
        <time>2026-08-18T07:38:40.000Z</time>
      </trkpt>
      <trkpt lat="22.905108" lon="111.195867">
        <ele>178.224038</ele>
        <time>2026-08-18T07:38:41.000Z</time>
      </trkpt>
      <trkpt lat="22.905124" lon="111.195908">
        <ele>178.215470</ele>
        <time>2026-08-18T07:38:42.000Z</time>
      </trkpt>
      <trkpt lat="22.905141" lon="111.195951">
        <ele>178.206466</ele>
        <time>2026-08-18T07:38:43.000Z</time>
      </trkpt>
      <trkpt lat="22.905157" lon="111.195994">
        <ele>178.197542</ele>
        <time>2026-08-18T07:38:44.000Z</time>
      </trkpt>
      <trkpt lat="22.905175" lon="111.196037">
        <ele>178.188454</ele>
        <time>2026-08-18T07:38:45.000Z</time>
      </trkpt>
      <trkpt lat="22.905191" lon="111.196082">
        <ele>178.179172</ele>
        <time>2026-08-18T07:38:46.000Z</time>
      </trkpt>
      <trkpt lat="22.905206" lon="111.196127">
        <ele>178.169964</ele>
        <time>2026-08-18T07:38:47.000Z</time>
      </trkpt>
      <trkpt lat="22.905221" lon="111.196171">
        <ele>178.160936</ele>
        <time>2026-08-18T07:38:48.000Z</time>
      </trkpt>
      <trkpt lat="22.905236" lon="111.196216">
        <ele>178.151727</ele>
        <time>2026-08-18T07:38:49.000Z</time>
      </trkpt>
      <trkpt lat="22.905250" lon="111.196262">
        <ele>178.142405</ele>
        <time>2026-08-18T07:38:50.000Z</time>
      </trkpt>
      <trkpt lat="22.905265" lon="111.196309">
        <ele>178.132834</ele>
        <time>2026-08-18T07:38:51.000Z</time>
      </trkpt>
      <trkpt lat="22.905280" lon="111.196357">
        <ele>178.123080</ele>
        <time>2026-08-18T07:38:52.000Z</time>
      </trkpt>
      <trkpt lat="22.905294" lon="111.196406">
        <ele>178.113209</ele>
        <time>2026-08-18T07:38:53.000Z</time>
      </trkpt>
      <trkpt lat="22.905308" lon="111.196455">
        <ele>178.103337</ele>
        <time>2026-08-18T07:38:54.000Z</time>
      </trkpt>
      <trkpt lat="22.905323" lon="111.196504">
        <ele>178.093401</ele>
        <time>2026-08-18T07:38:55.000Z</time>
      </trkpt>
      <trkpt lat="22.905339" lon="111.196552">
        <ele>178.083578</ele>
        <time>2026-08-18T07:38:56.000Z</time>
      </trkpt>
      <trkpt lat="22.905353" lon="111.196602">
        <ele>178.073523</ele>
        <time>2026-08-18T07:38:57.000Z</time>
      </trkpt>
      <trkpt lat="22.905368" lon="111.196653">
        <ele>178.063221</ele>
        <time>2026-08-18T07:38:58.000Z</time>
      </trkpt>
      <trkpt lat="22.905384" lon="111.196706">
        <ele>178.052489</ele>
        <time>2026-08-18T07:38:59.000Z</time>
      </trkpt>
      <trkpt lat="22.905400" lon="111.196756">
        <ele>178.042304</ele>
        <time>2026-08-18T07:39:00.000Z</time>
      </trkpt>
      <trkpt lat="22.905414" lon="111.196808">
        <ele>178.031879</ele>
        <time>2026-08-18T07:39:01.000Z</time>
      </trkpt>
      <trkpt lat="22.905427" lon="111.196858">
        <ele>178.021882</ele>
        <time>2026-08-18T07:39:02.000Z</time>
      </trkpt>
      <trkpt lat="22.905443" lon="111.196911">
        <ele>178.011150</ele>
        <time>2026-08-18T07:39:03.000Z</time>
      </trkpt>
      <trkpt lat="22.905458" lon="111.196965">
        <ele>178.000297</ele>
        <time>2026-08-18T07:39:04.000Z</time>
      </trkpt>
      <trkpt lat="22.905476" lon="111.197020">
        <ele>177.989065</ele>
        <time>2026-08-18T07:39:05.000Z</time>
      </trkpt>
      <trkpt lat="22.905491" lon="111.197076">
        <ele>177.977843</ele>
        <time>2026-08-18T07:39:06.000Z</time>
      </trkpt>
      <trkpt lat="22.905507" lon="111.197131">
        <ele>177.966745</ele>
        <time>2026-08-18T07:39:07.000Z</time>
      </trkpt>
      <trkpt lat="22.905523" lon="111.197187">
        <ele>177.964738</ele>
        <time>2026-08-18T07:39:08.000Z</time>
      </trkpt>
      <trkpt lat="22.905539" lon="111.197243">
        <ele>177.962914</ele>
        <time>2026-08-18T07:39:09.000Z</time>
      </trkpt>
      <trkpt lat="22.905555" lon="111.197298">
        <ele>177.961118</ele>
        <time>2026-08-18T07:39:10.000Z</time>
      </trkpt>
      <trkpt lat="22.905571" lon="111.197354">
        <ele>177.959294</ele>
        <time>2026-08-18T07:39:11.000Z</time>
      </trkpt>
      <trkpt lat="22.905588" lon="111.197409">
        <ele>177.957488</ele>
        <time>2026-08-18T07:39:12.000Z</time>
      </trkpt>
      <trkpt lat="22.905603" lon="111.197467">
        <ele>177.955613</ele>
        <time>2026-08-18T07:39:13.000Z</time>
      </trkpt>
      <trkpt lat="22.905616" lon="111.197526">
        <ele>177.953725</ele>
        <time>2026-08-18T07:39:14.000Z</time>
      </trkpt>
      <trkpt lat="22.905631" lon="111.197583">
        <ele>177.951880</ele>
        <time>2026-08-18T07:39:15.000Z</time>
      </trkpt>
      <trkpt lat="22.905647" lon="111.197640">
        <ele>177.950025</ele>
        <time>2026-08-18T07:39:16.000Z</time>
      </trkpt>
      <trkpt lat="22.905665" lon="111.197698">
        <ele>177.948120</ele>
        <time>2026-08-18T07:39:17.000Z</time>
      </trkpt>
      <trkpt lat="22.905683" lon="111.197755">
        <ele>177.946245</ele>
        <time>2026-08-18T07:39:18.000Z</time>
      </trkpt>
      <trkpt lat="22.905702" lon="111.197814">
        <ele>177.944300</ele>
        <time>2026-08-18T07:39:19.000Z</time>
      </trkpt>
      <trkpt lat="22.905722" lon="111.197873">
        <ele>177.942343</ele>
        <time>2026-08-18T07:39:20.000Z</time>
      </trkpt>
      <trkpt lat="22.905739" lon="111.197930">
        <ele>177.940478</ele>
        <time>2026-08-18T07:39:21.000Z</time>
      </trkpt>
      <trkpt lat="22.905755" lon="111.197990">
        <ele>177.938534</ele>
        <time>2026-08-18T07:39:22.000Z</time>
      </trkpt>
      <trkpt lat="22.905771" lon="111.198050">
        <ele>177.936590</ele>
        <time>2026-08-18T07:39:23.000Z</time>
      </trkpt>
      <trkpt lat="22.905791" lon="111.198109">
        <ele>177.934633</ele>
        <time>2026-08-18T07:39:24.000Z</time>
      </trkpt>
      <trkpt lat="22.905810" lon="111.198168">
        <ele>177.932688</ele>
        <time>2026-08-18T07:39:25.000Z</time>
      </trkpt>
      <trkpt lat="22.905829" lon="111.198226">
        <ele>177.930772</ele>
        <time>2026-08-18T07:39:26.000Z</time>
      </trkpt>
      <trkpt lat="22.905848" lon="111.198285">
        <ele>177.928827</ele>
        <time>2026-08-18T07:39:27.000Z</time>
      </trkpt>
      <trkpt lat="22.905865" lon="111.198344">
        <ele>177.926903</ele>
        <time>2026-08-18T07:39:28.000Z</time>
      </trkpt>
      <trkpt lat="22.905881" lon="111.198401">
        <ele>177.925048</ele>
        <time>2026-08-18T07:39:29.000Z</time>
      </trkpt>
      <trkpt lat="22.905897" lon="111.198457">
        <ele>177.923223</ele>
        <time>2026-08-18T07:39:30.000Z</time>
      </trkpt>
      <trkpt lat="22.905913" lon="111.198513">
        <ele>177.921398</ele>
        <time>2026-08-18T07:39:31.000Z</time>
      </trkpt>
      <trkpt lat="22.905929" lon="111.198567">
        <ele>177.919633</ele>
        <time>2026-08-18T07:39:32.000Z</time>
      </trkpt>
      <trkpt lat="22.905945" lon="111.198621">
        <ele>177.917867</ele>
        <time>2026-08-18T07:39:33.000Z</time>
      </trkpt>
      <trkpt lat="22.905961" lon="111.198675">
        <ele>177.916102</ele>
        <time>2026-08-18T07:39:34.000Z</time>
      </trkpt>
      <trkpt lat="22.905977" lon="111.198728">
        <ele>177.914366</ele>
        <time>2026-08-18T07:39:35.000Z</time>
      </trkpt>
      <trkpt lat="22.905992" lon="111.198782">
        <ele>177.912611</ele>
        <time>2026-08-18T07:39:36.000Z</time>
      </trkpt>
      <trkpt lat="22.906007" lon="111.198838">
        <ele>177.910796</ele>
        <time>2026-08-18T07:39:37.000Z</time>
      </trkpt>
      <trkpt lat="22.906020" lon="111.198893">
        <ele>177.909028</ele>
        <time>2026-08-18T07:39:38.000Z</time>
      </trkpt>
      <trkpt lat="22.906035" lon="111.198947">
        <ele>177.907273</ele>
        <time>2026-08-18T07:39:39.000Z</time>
      </trkpt>
      <trkpt lat="22.906051" lon="111.199000">
        <ele>177.912436</ele>
        <time>2026-08-18T07:39:40.000Z</time>
      </trkpt>
      <trkpt lat="22.906066" lon="111.199053">
        <ele>177.965194</ele>
        <time>2026-08-18T07:39:41.000Z</time>
      </trkpt>
      <trkpt lat="22.906082" lon="111.199107">
        <ele>178.019170</ele>
        <time>2026-08-18T07:39:42.000Z</time>
      </trkpt>
      <trkpt lat="22.906096" lon="111.199160">
        <ele>178.071634</ele>
        <time>2026-08-18T07:39:43.000Z</time>
      </trkpt>
      <trkpt lat="22.906112" lon="111.199213">
        <ele>178.124705</ele>
        <time>2026-08-18T07:39:44.000Z</time>
      </trkpt>
      <trkpt lat="22.906127" lon="111.199265">
        <ele>178.176555</ele>
        <time>2026-08-18T07:39:45.000Z</time>
      </trkpt>
      <trkpt lat="22.906142" lon="111.199317">
        <ele>178.228404</ele>
        <time>2026-08-18T07:39:46.000Z</time>
      </trkpt>
      <trkpt lat="22.906156" lon="111.199370">
        <ele>178.280869</ele>
        <time>2026-08-18T07:39:47.000Z</time>
      </trkpt>
      <trkpt lat="22.906171" lon="111.199423">
        <ele>178.333627</ele>
        <time>2026-08-18T07:39:48.000Z</time>
      </trkpt>
      <trkpt lat="22.906187" lon="111.199475">
        <ele>178.385795</ele>
        <time>2026-08-18T07:39:49.000Z</time>
      </trkpt>
      <trkpt lat="22.906204" lon="111.199528">
        <ele>178.439196</ele>
        <time>2026-08-18T07:39:50.000Z</time>
      </trkpt>
      <trkpt lat="22.906220" lon="111.199580">
        <ele>178.491364</ele>
        <time>2026-08-18T07:39:51.000Z</time>
      </trkpt>
      <trkpt lat="22.906235" lon="111.199631">
        <ele>178.542306</ele>
        <time>2026-08-18T07:39:52.000Z</time>
      </trkpt>
      <trkpt lat="22.906250" lon="111.199681">
        <ele>178.592343</ele>
        <time>2026-08-18T07:39:53.000Z</time>
      </trkpt>
      <trkpt lat="22.906263" lon="111.199731">
        <ele>178.641779</ele>
        <time>2026-08-18T07:39:54.000Z</time>
      </trkpt>
      <trkpt lat="22.906278" lon="111.199783">
        <ele>178.693628</ele>
        <time>2026-08-18T07:39:55.000Z</time>
      </trkpt>
      <trkpt lat="22.906293" lon="111.199834">
        <ele>178.744571</ele>
        <time>2026-08-18T07:39:56.000Z</time>
      </trkpt>
      <trkpt lat="22.906308" lon="111.199885">
        <ele>178.795513</ele>
        <time>2026-08-18T07:39:57.000Z</time>
      </trkpt>
      <trkpt lat="22.906322" lon="111.199936">
        <ele>178.846150</ele>
        <time>2026-08-18T07:39:58.000Z</time>
      </trkpt>
      <trkpt lat="22.906336" lon="111.199987">
        <ele>178.896788</ele>
        <time>2026-08-18T07:39:59.000Z</time>
      </trkpt>
      <trkpt lat="22.906351" lon="111.200036">
        <ele>178.945921</ele>
        <time>2026-08-18T07:40:00.000Z</time>
      </trkpt>
      <trkpt lat="22.906365" lon="111.200085">
        <ele>178.994738</ele>
        <time>2026-08-18T07:40:01.000Z</time>
      </trkpt>
      <trkpt lat="22.906380" lon="111.200133">
        <ele>179.042968</ele>
        <time>2026-08-18T07:40:02.000Z</time>
      </trkpt>
      <trkpt lat="22.906394" lon="111.200182">
        <ele>179.091785</ele>
        <time>2026-08-18T07:40:03.000Z</time>
      </trkpt>
      <trkpt lat="22.906407" lon="111.200230">
        <ele>179.139392</ele>
        <time>2026-08-18T07:40:04.000Z</time>
      </trkpt>
      <trkpt lat="22.906420" lon="111.200279">
        <ele>179.187913</ele>
        <time>2026-08-18T07:40:05.000Z</time>
      </trkpt>
      <trkpt lat="22.906433" lon="111.200325">
        <ele>179.233698</ele>
        <time>2026-08-18T07:40:06.000Z</time>
      </trkpt>
      <trkpt lat="22.906447" lon="111.200373">
        <ele>179.281606</ele>
        <time>2026-08-18T07:40:07.000Z</time>
      </trkpt>
      <trkpt lat="22.906462" lon="111.200421">
        <ele>179.329837</ele>
        <time>2026-08-18T07:40:08.000Z</time>
      </trkpt>
      <trkpt lat="22.906480" lon="111.200470">
        <ele>179.380033</ele>
        <time>2026-08-18T07:40:09.000Z</time>
      </trkpt>
      <trkpt lat="22.906495" lon="111.200518">
        <ele>179.428264</ele>
        <time>2026-08-18T07:40:10.000Z</time>
      </trkpt>
      <trkpt lat="22.906507" lon="111.200565">
        <ele>179.474672</ele>
        <time>2026-08-18T07:40:11.000Z</time>
      </trkpt>
      <trkpt lat="22.906520" lon="111.200613">
        <ele>179.522279</ele>
        <time>2026-08-18T07:40:12.000Z</time>
      </trkpt>
      <trkpt lat="22.906532" lon="111.200659">
        <ele>179.567772</ele>
        <time>2026-08-18T07:40:13.000Z</time>
      </trkpt>
      <trkpt lat="22.906545" lon="111.200706">
        <ele>179.614467</ele>
        <time>2026-08-18T07:40:14.000Z</time>
      </trkpt>
      <trkpt lat="22.906557" lon="111.200753">
        <ele>179.660875</ele>
        <time>2026-08-18T07:40:15.000Z</time>
      </trkpt>
      <trkpt lat="22.906568" lon="111.200798">
        <ele>179.705176</ele>
        <time>2026-08-18T07:40:16.000Z</time>
      </trkpt>
      <trkpt lat="22.906580" lon="111.200842">
        <ele>179.748841</ele>
        <time>2026-08-18T07:40:17.000Z</time>
      </trkpt>
      <trkpt lat="22.906595" lon="111.200886">
        <ele>179.765178</ele>
        <time>2026-08-18T07:40:18.000Z</time>
      </trkpt>
      <trkpt lat="22.906610" lon="111.200930">
        <ele>179.767318</ele>
        <time>2026-08-18T07:40:19.000Z</time>
      </trkpt>
      <trkpt lat="22.906622" lon="111.200976">
        <ele>179.769499</ele>
        <time>2026-08-18T07:40:20.000Z</time>
      </trkpt>
      <trkpt lat="22.906634" lon="111.201018">
        <ele>179.771504</ele>
        <time>2026-08-18T07:40:21.000Z</time>
      </trkpt>
      <trkpt lat="22.906647" lon="111.201060">
        <ele>179.773525</ele>
        <time>2026-08-18T07:40:22.000Z</time>
      </trkpt>
      <trkpt lat="22.906655" lon="111.201103">
        <ele>179.775526</ele>
        <time>2026-08-18T07:40:23.000Z</time>
      </trkpt>
      <trkpt lat="22.906664" lon="111.201146">
        <ele>179.777538</ele>
        <time>2026-08-18T07:40:24.000Z</time>
      </trkpt>
      <trkpt lat="22.906675" lon="111.201190">
        <ele>179.779617</ele>
        <time>2026-08-18T07:40:25.000Z</time>
      </trkpt>
      <trkpt lat="22.906687" lon="111.201232">
        <ele>179.781623</ele>
        <time>2026-08-18T07:40:26.000Z</time>
      </trkpt>
      <trkpt lat="22.906700" lon="111.201274">
        <ele>179.783644</ele>
        <time>2026-08-18T07:40:27.000Z</time>
      </trkpt>
      <trkpt lat="22.906715" lon="111.201316">
        <ele>179.785699</ele>
        <time>2026-08-18T07:40:28.000Z</time>
      </trkpt>
      <trkpt lat="22.906728" lon="111.201360">
        <ele>179.787806</ele>
        <time>2026-08-18T07:40:29.000Z</time>
      </trkpt>
      <trkpt lat="22.906742" lon="111.201403">
        <ele>179.789887</ele>
        <time>2026-08-18T07:40:30.000Z</time>
      </trkpt>
      <trkpt lat="22.906757" lon="111.201446">
        <ele>179.791984</ele>
        <time>2026-08-18T07:40:31.000Z</time>
      </trkpt>
      <trkpt lat="22.906773" lon="111.201489">
        <ele>179.794099</ele>
        <time>2026-08-18T07:40:32.000Z</time>
      </trkpt>
      <trkpt lat="22.906788" lon="111.201532">
        <ele>179.796196</ele>
        <time>2026-08-18T07:40:33.000Z</time>
      </trkpt>
      <trkpt lat="22.906802" lon="111.201575">
        <ele>179.798277</ele>
        <time>2026-08-18T07:40:34.000Z</time>
      </trkpt>
      <trkpt lat="22.906817" lon="111.201617">
        <ele>179.800331</ele>
        <time>2026-08-18T07:40:35.000Z</time>
      </trkpt>
      <trkpt lat="22.906833" lon="111.201660">
        <ele>179.802447</ele>
        <time>2026-08-18T07:40:36.000Z</time>
      </trkpt>
      <trkpt lat="22.906847" lon="111.201701">
        <ele>179.804441</ele>
        <time>2026-08-18T07:40:37.000Z</time>
      </trkpt>
      <trkpt lat="22.906861" lon="111.201741">
        <ele>179.806393</ele>
        <time>2026-08-18T07:40:38.000Z</time>
      </trkpt>
      <trkpt lat="22.906874" lon="111.201779">
        <ele>179.808242</ele>
        <time>2026-08-18T07:40:39.000Z</time>
      </trkpt>
      <trkpt lat="22.906885" lon="111.201820">
        <ele>179.810190</ele>
        <time>2026-08-18T07:40:40.000Z</time>
      </trkpt>
      <trkpt lat="22.906896" lon="111.201860">
        <ele>179.812094</ele>
        <time>2026-08-18T07:40:41.000Z</time>
      </trkpt>
      <trkpt lat="22.906907" lon="111.201900">
        <ele>179.813998</ele>
        <time>2026-08-18T07:40:42.000Z</time>
      </trkpt>
      <trkpt lat="22.906916" lon="111.201941">
        <ele>179.815920</ele>
        <time>2026-08-18T07:40:43.000Z</time>
      </trkpt>
      <trkpt lat="22.906920" lon="111.201982">
        <ele>179.817801</ele>
        <time>2026-08-18T07:40:44.000Z</time>
      </trkpt>
      <trkpt lat="22.906926" lon="111.202023">
        <ele>179.819694</ele>
        <time>2026-08-18T07:40:45.000Z</time>
      </trkpt>
      <trkpt lat="22.906932" lon="111.202065">
        <ele>179.821633</ele>
        <time>2026-08-18T07:40:46.000Z</time>
      </trkpt>
      <trkpt lat="22.906939" lon="111.202107">
        <ele>179.823580</ele>
        <time>2026-08-18T07:40:47.000Z</time>
      </trkpt>
      <trkpt lat="22.906946" lon="111.202150">
        <ele>179.825571</ele>
        <time>2026-08-18T07:40:48.000Z</time>
      </trkpt>
      <trkpt lat="22.906953" lon="111.202191">
        <ele>179.827473</ele>
        <time>2026-08-18T07:40:49.000Z</time>
      </trkpt>
      <trkpt lat="22.906962" lon="111.202233">
        <ele>179.829440</ele>
        <time>2026-08-18T07:40:50.000Z</time>
      </trkpt>
      <trkpt lat="22.906969" lon="111.202277">
        <ele>179.831477</ele>
        <time>2026-08-18T07:40:51.000Z</time>
      </trkpt>
      <trkpt lat="22.906979" lon="111.202324">
        <ele>179.833677</ele>
        <time>2026-08-18T07:40:52.000Z</time>
      </trkpt>
      <trkpt lat="22.906991" lon="111.202371">
        <ele>179.835902</ele>
        <time>2026-08-18T07:40:53.000Z</time>
      </trkpt>
      <trkpt lat="22.907002" lon="111.202417">
        <ele>179.838069</ele>
        <time>2026-08-18T07:40:54.000Z</time>
      </trkpt>
      <trkpt lat="22.907013" lon="111.202463">
        <ele>179.840237</ele>
        <time>2026-08-18T07:40:55.000Z</time>
      </trkpt>
      <trkpt lat="22.907023" lon="111.202509">
        <ele>179.842393</ele>
        <time>2026-08-18T07:40:56.000Z</time>
      </trkpt>
      <trkpt lat="22.907032" lon="111.202557">
        <ele>179.844627</ele>
        <time>2026-08-18T07:40:57.000Z</time>
      </trkpt>
      <trkpt lat="22.907042" lon="111.202605">
        <ele>179.846872</ele>
        <time>2026-08-18T07:40:58.000Z</time>
      </trkpt>
      <trkpt lat="22.907052" lon="111.202654">
        <ele>179.849161</ele>
        <time>2026-08-18T07:40:59.000Z</time>
      </trkpt>
      <trkpt lat="22.907061" lon="111.202706">
        <ele>179.851574</ele>
        <time>2026-08-18T07:41:00.000Z</time>
      </trkpt>
      <trkpt lat="22.907068" lon="111.202760">
        <ele>179.807649</ele>
        <time>2026-08-18T07:41:01.000Z</time>
      </trkpt>
      <trkpt lat="22.907075" lon="111.202815">
        <ele>179.715771</ele>
        <time>2026-08-18T07:41:02.000Z</time>
      </trkpt>
      <trkpt lat="22.907085" lon="111.202868">
        <ele>179.626245</ele>
        <time>2026-08-18T07:41:03.000Z</time>
      </trkpt>
      <trkpt lat="22.907095" lon="111.202924">
        <ele>179.531852</ele>
        <time>2026-08-18T07:41:04.000Z</time>
      </trkpt>
      <trkpt lat="22.907103" lon="111.202982">
        <ele>179.434804</ele>
        <time>2026-08-18T07:41:05.000Z</time>
      </trkpt>
      <trkpt lat="22.907109" lon="111.203042">
        <ele>179.334933</ele>
        <time>2026-08-18T07:41:06.000Z</time>
      </trkpt>
      <trkpt lat="22.907112" lon="111.203104">
        <ele>179.232194</ele>
        <time>2026-08-18T07:41:07.000Z</time>
      </trkpt>
      <trkpt lat="22.907114" lon="111.203168">
        <ele>179.126226</ele>
        <time>2026-08-18T07:41:08.000Z</time>
      </trkpt>
      <trkpt lat="22.907116" lon="111.203234">
        <ele>179.016951</ele>
        <time>2026-08-18T07:41:09.000Z</time>
      </trkpt>
      <trkpt lat="22.907118" lon="111.203301">
        <ele>178.906021</ele>
        <time>2026-08-18T07:41:10.000Z</time>
      </trkpt>
      <trkpt lat="22.907123" lon="111.203371">
        <ele>178.789838</ele>
        <time>2026-08-18T07:41:11.000Z</time>
      </trkpt>
      <trkpt lat="22.907126" lon="111.203441">
        <ele>178.673877</ele>
        <time>2026-08-18T07:41:12.000Z</time>
      </trkpt>
      <trkpt lat="22.907130" lon="111.203513">
        <ele>178.554515</ele>
        <time>2026-08-18T07:41:13.000Z</time>
      </trkpt>
      <trkpt lat="22.907131" lon="111.203587">
        <ele>178.432048</ele>
        <time>2026-08-18T07:41:14.000Z</time>
      </trkpt>
      <trkpt lat="22.907131" lon="111.203662">
        <ele>178.307938</ele>
        <time>2026-08-18T07:41:15.000Z</time>
      </trkpt>
      <trkpt lat="22.907130" lon="111.203738">
        <ele>178.182161</ele>
        <time>2026-08-18T07:41:16.000Z</time>
      </trkpt>
      <trkpt lat="22.907128" lon="111.203816">
        <ele>178.053037</ele>
        <time>2026-08-18T07:41:17.000Z</time>
      </trkpt>
      <trkpt lat="22.907126" lon="111.203897">
        <ele>177.918951</ele>
        <time>2026-08-18T07:41:18.000Z</time>
      </trkpt>
      <trkpt lat="22.907122" lon="111.203979">
        <ele>177.783067</ele>
        <time>2026-08-18T07:41:19.000Z</time>
      </trkpt>
      <trkpt lat="22.907118" lon="111.204061">
        <ele>177.647184</ele>
        <time>2026-08-18T07:41:20.000Z</time>
      </trkpt>
      <trkpt lat="22.907113" lon="111.204144">
        <ele>177.509543</ele>
        <time>2026-08-18T07:41:21.000Z</time>
      </trkpt>
      <trkpt lat="22.907107" lon="111.204226">
        <ele>177.373422</ele>
        <time>2026-08-18T07:41:22.000Z</time>
      </trkpt>
      <trkpt lat="22.907102" lon="111.204309">
        <ele>177.235781</ele>
        <time>2026-08-18T07:41:23.000Z</time>
      </trkpt>
      <trkpt lat="22.907096" lon="111.204387">
        <ele>177.106258</ele>
        <time>2026-08-18T07:41:24.000Z</time>
      </trkpt>
      <trkpt lat="22.907090" lon="111.204465">
        <ele>176.976734</ele>
        <time>2026-08-18T07:41:25.000Z</time>
      </trkpt>
      <trkpt lat="22.907081" lon="111.204543">
        <ele>176.846652</ele>
        <time>2026-08-18T07:41:26.000Z</time>
      </trkpt>
      <trkpt lat="22.907075" lon="111.204621">
        <ele>176.717129</ele>
        <time>2026-08-18T07:41:27.000Z</time>
      </trkpt>
      <trkpt lat="22.907069" lon="111.204697">
        <ele>176.676044</ele>
        <time>2026-08-18T07:41:28.000Z</time>
      </trkpt>
      <trkpt lat="22.907066" lon="111.204772">
        <ele>176.896253</ele>
        <time>2026-08-18T07:41:29.000Z</time>
      </trkpt>
      <trkpt lat="22.907064" lon="111.204847">
        <ele>177.116347</ele>
        <time>2026-08-18T07:41:30.000Z</time>
      </trkpt>
      <trkpt lat="22.907060" lon="111.204918">
        <ele>177.325005</ele>
        <time>2026-08-18T07:41:31.000Z</time>
      </trkpt>
      <trkpt lat="22.907054" lon="111.204988">
        <ele>177.531228</ele>
        <time>2026-08-18T07:41:32.000Z</time>
      </trkpt>
      <trkpt lat="22.907050" lon="111.205056">
        <ele>177.731102</ele>
        <time>2026-08-18T07:41:33.000Z</time>
      </trkpt>
      <trkpt lat="22.907046" lon="111.205117">
        <ele>177.910490</ele>
        <time>2026-08-18T07:41:34.000Z</time>
      </trkpt>
      <trkpt lat="22.907044" lon="111.205177">
        <ele>178.086607</ele>
        <time>2026-08-18T07:41:35.000Z</time>
      </trkpt>
      <trkpt lat="22.907041" lon="111.205234">
        <ele>178.254081</ele>
        <time>2026-08-18T07:41:36.000Z</time>
      </trkpt>
      <trkpt lat="22.907038" lon="111.205288">
        <ele>178.412771</ele>
        <time>2026-08-18T07:41:37.000Z</time>
      </trkpt>
      <trkpt lat="22.907034" lon="111.205341">
        <ele>178.568760</ele>
        <time>2026-08-18T07:41:38.000Z</time>
      </trkpt>
      <trkpt lat="22.907032" lon="111.205391">
        <ele>178.715566</ele>
        <time>2026-08-18T07:41:39.000Z</time>
      </trkpt>
      <trkpt lat="22.907028" lon="111.205436">
        <ele>178.848181</ele>
        <time>2026-08-18T07:41:40.000Z</time>
      </trkpt>
      <trkpt lat="22.907023" lon="111.205481">
        <ele>178.981139</ele>
        <time>2026-08-18T07:41:41.000Z</time>
      </trkpt>
      <trkpt lat="22.907014" lon="111.205524">
        <ele>179.110489</ele>
        <time>2026-08-18T07:41:42.000Z</time>
      </trkpt>
      <trkpt lat="22.907015" lon="111.205564">
        <ele>179.227866</ele>
        <time>2026-08-18T07:41:43.000Z</time>
      </trkpt>
      <trkpt lat="22.907014" lon="111.205602">
        <ele>179.339380</ele>
        <time>2026-08-18T07:41:44.000Z</time>
      </trkpt>
      <trkpt lat="22.907012" lon="111.205639">
        <ele>179.448101</ele>
        <time>2026-08-18T07:41:45.000Z</time>
      </trkpt>
      <trkpt lat="22.907010" lon="111.205675">
        <ele>179.553894</ele>
        <time>2026-08-18T07:41:46.000Z</time>
      </trkpt>
      <trkpt lat="22.907009" lon="111.205710">
        <ele>179.656611</ele>
        <time>2026-08-18T07:41:47.000Z</time>
      </trkpt>
      <trkpt lat="22.907005" lon="111.205745">
        <ele>179.760066</ele>
        <time>2026-08-18T07:41:48.000Z</time>
      </trkpt>
      <trkpt lat="22.907000" lon="111.205780">
        <ele>179.863961</ele>
        <time>2026-08-18T07:41:49.000Z</time>
      </trkpt>
      <trkpt lat="22.906995" lon="111.205816">
        <ele>179.970755</ele>
        <time>2026-08-18T07:41:50.000Z</time>
      </trkpt>
      <trkpt lat="22.906991" lon="111.205848">
        <ele>180.065483</ele>
        <time>2026-08-18T07:41:51.000Z</time>
      </trkpt>
      <trkpt lat="22.906987" lon="111.205879">
        <ele>180.157305</ele>
        <time>2026-08-18T07:41:52.000Z</time>
      </trkpt>
      <trkpt lat="22.906981" lon="111.205908">
        <ele>180.244492</ele>
        <time>2026-08-18T07:41:53.000Z</time>
      </trkpt>
      <trkpt lat="22.906975" lon="111.205939">
        <ele>180.337412</ele>
        <time>2026-08-18T07:41:54.000Z</time>
      </trkpt>
      <trkpt lat="22.906969" lon="111.205969">
        <ele>180.427463</ele>
        <time>2026-08-18T07:41:55.000Z</time>
      </trkpt>
      <trkpt lat="22.906966" lon="111.205998">
        <ele>180.513066</ele>
        <time>2026-08-18T07:41:56.000Z</time>
      </trkpt>
      <trkpt lat="22.906964" lon="111.206027">
        <ele>180.598371</ele>
        <time>2026-08-18T07:41:57.000Z</time>
      </trkpt>
      <trkpt lat="22.906961" lon="111.206057">
        <ele>180.686889</ele>
        <time>2026-08-18T07:41:58.000Z</time>
      </trkpt>
      <trkpt lat="22.906960" lon="111.206084">
        <ele>180.766154</ele>
        <time>2026-08-18T07:41:59.000Z</time>
      </trkpt>
      <trkpt lat="22.906959" lon="111.206111">
        <ele>180.845419</ele>
        <time>2026-08-18T07:42:00.000Z</time>
      </trkpt>
      <trkpt lat="22.906958" lon="111.206136">
        <ele>180.918822</ele>
        <time>2026-08-18T07:42:01.000Z</time>
      </trkpt>
      <trkpt lat="22.906958" lon="111.206163">
        <ele>180.998023</ele>
        <time>2026-08-18T07:42:02.000Z</time>
      </trkpt>
      <trkpt lat="22.906955" lon="111.206196">
        <ele>181.095294</ele>
        <time>2026-08-18T07:42:03.000Z</time>
      </trkpt>
      <trkpt lat="22.906952" lon="111.206224">
        <ele>181.177982</ele>
        <time>2026-08-18T07:42:04.000Z</time>
      </trkpt>
      <trkpt lat="22.906952" lon="111.206246">
        <ele>181.242516</ele>
        <time>2026-08-18T07:42:05.000Z</time>
      </trkpt>
      <trkpt lat="22.906952" lon="111.206274">
        <ele>181.324650</ele>
        <time>2026-08-18T07:42:06.000Z</time>
      </trkpt>
      <trkpt lat="22.906950" lon="111.206302">
        <ele>181.407031</ele>
        <time>2026-08-18T07:42:07.000Z</time>
      </trkpt>
      <trkpt lat="22.906952" lon="111.206329">
        <ele>181.486488</ele>
        <time>2026-08-18T07:42:08.000Z</time>
      </trkpt>
      <trkpt lat="22.906952" lon="111.206360">
        <ele>181.577422</ele>
        <time>2026-08-18T07:42:09.000Z</time>
      </trkpt>
      <trkpt lat="22.906947" lon="111.206391">
        <ele>181.669740</ele>
        <time>2026-08-18T07:42:10.000Z</time>
      </trkpt>
      <trkpt lat="22.906943" lon="111.206421">
        <ele>181.758658</ele>
        <time>2026-08-18T07:42:11.000Z</time>
      </trkpt>
      <trkpt lat="22.906940" lon="111.206450">
        <ele>181.844260</ele>
        <time>2026-08-18T07:42:12.000Z</time>
      </trkpt>
      <trkpt lat="22.906942" lon="111.206482">
        <ele>181.938343</ele>
        <time>2026-08-18T07:42:13.000Z</time>
      </trkpt>
      <trkpt lat="22.906944" lon="111.206514">
        <ele>182.032427</ele>
        <time>2026-08-18T07:42:14.000Z</time>
      </trkpt>
      <trkpt lat="22.906947" lon="111.206544">
        <ele>182.120945</ele>
        <time>2026-08-18T07:42:15.000Z</time>
      </trkpt>
      <trkpt lat="22.906945" lon="111.206576">
        <ele>182.215028</ele>
        <time>2026-08-18T07:42:16.000Z</time>
      </trkpt>
      <trkpt lat="22.906944" lon="111.206606">
        <ele>182.303087</ele>
        <time>2026-08-18T07:42:17.000Z</time>
      </trkpt>
      <trkpt lat="22.906943" lon="111.206637">
        <ele>182.380608</ele>
        <time>2026-08-18T07:42:18.000Z</time>
      </trkpt>
      <trkpt lat="22.906941" lon="111.206669">
        <ele>182.446335</ele>
        <time>2026-08-18T07:42:19.000Z</time>
      </trkpt>
      <trkpt lat="22.906940" lon="111.206699">
        <ele>182.507853</ele>
        <time>2026-08-18T07:42:20.000Z</time>
      </trkpt>
      <trkpt lat="22.906940" lon="111.206729">
        <ele>182.569331</ele>
        <time>2026-08-18T07:42:21.000Z</time>
      </trkpt>
      <trkpt lat="22.906939" lon="111.206760">
        <ele>182.632897</ele>
        <time>2026-08-18T07:42:22.000Z</time>
      </trkpt>
      <trkpt lat="22.906938" lon="111.206790">
        <ele>182.694415</ele>
        <time>2026-08-18T07:42:23.000Z</time>
      </trkpt>
      <trkpt lat="22.906938" lon="111.206820">
        <ele>182.755892</ele>
        <time>2026-08-18T07:42:24.000Z</time>
      </trkpt>
      <trkpt lat="22.906938" lon="111.206849">
        <ele>182.815321</ele>
        <time>2026-08-18T07:42:25.000Z</time>
      </trkpt>
      <trkpt lat="22.906936" lon="111.206879">
        <ele>182.876960</ele>
        <time>2026-08-18T07:42:26.000Z</time>
      </trkpt>
      <trkpt lat="22.906936" lon="111.206908">
        <ele>182.936388</ele>
        <time>2026-08-18T07:42:27.000Z</time>
      </trkpt>
      <trkpt lat="22.906936" lon="111.206935">
        <ele>182.991718</ele>
        <time>2026-08-18T07:42:28.000Z</time>
      </trkpt>
      <trkpt lat="22.906935" lon="111.206960">
        <ele>183.042998</ele>
        <time>2026-08-18T07:42:29.000Z</time>
      </trkpt>
      <trkpt lat="22.906936" lon="111.206985">
        <ele>183.094278</ele>
        <time>2026-08-18T07:42:30.000Z</time>
      </trkpt>
      <trkpt lat="22.906936" lon="111.207009">
        <ele>183.143460</ele>
        <time>2026-08-18T07:42:31.000Z</time>
      </trkpt>
      <trkpt lat="22.906934" lon="111.207035">
        <ele>183.196926</ele>
        <time>2026-08-18T07:42:32.000Z</time>
      </trkpt>
      <trkpt lat="22.906932" lon="111.207060">
        <ele>183.248351</ele>
        <time>2026-08-18T07:42:33.000Z</time>
      </trkpt>
      <trkpt lat="22.906930" lon="111.207087">
        <ele>183.303859</ele>
        <time>2026-08-18T07:42:34.000Z</time>
      </trkpt>
      <trkpt lat="22.906929" lon="111.207112">
        <ele>183.355139</ele>
        <time>2026-08-18T07:42:35.000Z</time>
      </trkpt>
      <trkpt lat="22.906930" lon="111.207139">
        <ele>183.410514</ele>
        <time>2026-08-18T07:42:36.000Z</time>
      </trkpt>
      <trkpt lat="22.906932" lon="111.207164">
        <ele>183.461938</ele>
        <time>2026-08-18T07:42:37.000Z</time>
      </trkpt>
      <trkpt lat="22.906932" lon="111.207191">
        <ele>183.517268</ele>
        <time>2026-08-18T07:42:38.000Z</time>
      </trkpt>
      <trkpt lat="22.906931" lon="111.207218">
        <ele>183.572643</ele>
        <time>2026-08-18T07:42:39.000Z</time>
      </trkpt>
      <trkpt lat="22.906933" lon="111.207239">
        <ele>183.615907</ele>
        <time>2026-08-18T07:42:40.000Z</time>
      </trkpt>
      <trkpt lat="22.906932" lon="111.207264">
        <ele>183.667186</ele>
        <time>2026-08-18T07:42:41.000Z</time>
      </trkpt>
      <trkpt lat="22.906929" lon="111.207289">
        <ele>183.718851</ele>
        <time>2026-08-18T07:42:42.000Z</time>
      </trkpt>
      <trkpt lat="22.906929" lon="111.207318">
        <ele>183.778279</ele>
        <time>2026-08-18T07:42:43.000Z</time>
      </trkpt>
      <trkpt lat="22.906928" lon="111.207347">
        <ele>183.837749</ele>
        <time>2026-08-18T07:42:44.000Z</time>
      </trkpt>
      <trkpt lat="22.906929" lon="111.207375">
        <ele>183.895172</ele>
        <time>2026-08-18T07:42:45.000Z</time>
      </trkpt>
      <trkpt lat="22.906930" lon="111.207402">
        <ele>183.950547</ele>
        <time>2026-08-18T07:42:46.000Z</time>
      </trkpt>
      <trkpt lat="22.906932" lon="111.207430">
        <ele>184.008098</ele>
        <time>2026-08-18T07:42:47.000Z</time>
      </trkpt>
      <trkpt lat="22.906931" lon="111.207456">
        <ele>184.061425</ele>
        <time>2026-08-18T07:42:48.000Z</time>
      </trkpt>
      <trkpt lat="22.906929" lon="111.207483">
        <ele>184.116934</ele>
        <time>2026-08-18T07:42:49.000Z</time>
      </trkpt>
      <trkpt lat="22.906929" lon="111.207510">
        <ele>184.172264</ele>
        <time>2026-08-18T07:42:50.000Z</time>
      </trkpt>
      <trkpt lat="22.906926" lon="111.207537">
        <ele>184.227995</ele>
        <time>2026-08-18T07:42:51.000Z</time>
      </trkpt>
      <trkpt lat="22.906924" lon="111.207565">
        <ele>184.285547</ele>
        <time>2026-08-18T07:42:52.000Z</time>
      </trkpt>
      <trkpt lat="22.906922" lon="111.207594">
        <ele>184.345141</ele>
        <time>2026-08-18T07:42:53.000Z</time>
      </trkpt>
      <trkpt lat="22.906920" lon="111.207622">
        <ele>184.402693</ele>
        <time>2026-08-18T07:42:54.000Z</time>
      </trkpt>
      <trkpt lat="22.906918" lon="111.207652">
        <ele>184.464332</ele>
        <time>2026-08-18T07:42:55.000Z</time>
      </trkpt>
      <trkpt lat="22.906916" lon="111.207681">
        <ele>184.523926</ele>
        <time>2026-08-18T07:42:56.000Z</time>
      </trkpt>
      <trkpt lat="22.906913" lon="111.207711">
        <ele>184.585765</ele>
        <time>2026-08-18T07:42:57.000Z</time>
      </trkpt>
      <trkpt lat="22.906911" lon="111.207741">
        <ele>184.647404</ele>
        <time>2026-08-18T07:42:58.000Z</time>
      </trkpt>
      <trkpt lat="22.906909" lon="111.207771">
        <ele>184.709043</ele>
        <time>2026-08-18T07:42:59.000Z</time>
      </trkpt>
      <trkpt lat="22.906905" lon="111.207804">
        <ele>184.777251</ele>
        <time>2026-08-18T07:43:00.000Z</time>
      </trkpt>
      <trkpt lat="22.906902" lon="111.207835">
        <ele>184.841128</ele>
        <time>2026-08-18T07:43:01.000Z</time>
      </trkpt>
      <trkpt lat="22.906900" lon="111.207865">
        <ele>184.902767</ele>
        <time>2026-08-18T07:43:02.000Z</time>
      </trkpt>
      <trkpt lat="22.906897" lon="111.207896">
        <ele>184.966643</ele>
        <time>2026-08-18T07:43:03.000Z</time>
      </trkpt>
      <trkpt lat="22.906894" lon="111.207926">
        <ele>185.028482</ele>
        <time>2026-08-18T07:43:04.000Z</time>
      </trkpt>
      <trkpt lat="22.906892" lon="111.207957">
        <ele>185.092165</ele>
        <time>2026-08-18T07:43:05.000Z</time>
      </trkpt>
      <trkpt lat="22.906890" lon="111.207989">
        <ele>185.157892</ele>
        <time>2026-08-18T07:43:06.000Z</time>
      </trkpt>
      <trkpt lat="22.906888" lon="111.208022">
        <ele>185.225664</ele>
        <time>2026-08-18T07:43:07.000Z</time>
      </trkpt>
      <trkpt lat="22.906886" lon="111.208055">
        <ele>185.293436</ele>
        <time>2026-08-18T07:43:08.000Z</time>
      </trkpt>
      <trkpt lat="22.906884" lon="111.208089">
        <ele>185.363253</ele>
        <time>2026-08-18T07:43:09.000Z</time>
      </trkpt>
      <trkpt lat="22.906881" lon="111.208123">
        <ele>185.433246</ele>
        <time>2026-08-18T07:43:10.000Z</time>
      </trkpt>
      <trkpt lat="22.906879" lon="111.208160">
        <ele>185.509199</ele>
        <time>2026-08-18T07:43:11.000Z</time>
      </trkpt>
      <trkpt lat="22.906877" lon="111.208198">
        <ele>185.587198</ele>
        <time>2026-08-18T07:43:12.000Z</time>
      </trkpt>
      <trkpt lat="22.906875" lon="111.208235">
        <ele>185.663151</ele>
        <time>2026-08-18T07:43:13.000Z</time>
      </trkpt>
      <trkpt lat="22.906873" lon="111.208272">
        <ele>185.739104</ele>
        <time>2026-08-18T07:43:14.000Z</time>
      </trkpt>
      <trkpt lat="22.906870" lon="111.208311">
        <ele>185.819304</ele>
        <time>2026-08-18T07:43:15.000Z</time>
      </trkpt>
      <trkpt lat="22.906868" lon="111.208352">
        <ele>185.903441</ele>
        <time>2026-08-18T07:43:16.000Z</time>
      </trkpt>
      <trkpt lat="22.906865" lon="111.208392">
        <ele>185.985683</ele>
        <time>2026-08-18T07:43:17.000Z</time>
      </trkpt>
      <trkpt lat="22.906862" lon="111.208434">
        <ele>186.072010</ele>
        <time>2026-08-18T07:43:18.000Z</time>
      </trkpt>
      <trkpt lat="22.906860" lon="111.208476">
        <ele>186.158194</ele>
        <time>2026-08-18T07:43:19.000Z</time>
      </trkpt>
      <trkpt lat="22.906857" lon="111.208519">
        <ele>186.246565</ele>
        <time>2026-08-18T07:43:20.000Z</time>
      </trkpt>
      <trkpt lat="22.906854" lon="111.208562">
        <ele>186.334935</ele>
        <time>2026-08-18T07:43:21.000Z</time>
      </trkpt>
      <trkpt lat="22.906851" lon="111.208607">
        <ele>186.310844</ele>
        <time>2026-08-18T07:43:22.000Z</time>
      </trkpt>
      <trkpt lat="22.906848" lon="111.208651">
        <ele>186.263613</ele>
        <time>2026-08-18T07:43:23.000Z</time>
      </trkpt>
      <trkpt lat="22.906844" lon="111.208698">
        <ele>186.213086</ele>
        <time>2026-08-18T07:43:24.000Z</time>
      </trkpt>
      <trkpt lat="22.906841" lon="111.208745">
        <ele>186.162652</ele>
        <time>2026-08-18T07:43:25.000Z</time>
      </trkpt>
      <trkpt lat="22.906839" lon="111.208792">
        <ele>186.112285</ele>
        <time>2026-08-18T07:43:26.000Z</time>
      </trkpt>
      <trkpt lat="22.906837" lon="111.208839">
        <ele>186.061918</ele>
        <time>2026-08-18T07:43:27.000Z</time>
      </trkpt>
      <trkpt lat="22.906835" lon="111.208888">
        <ele>186.009412</ele>
        <time>2026-08-18T07:43:28.000Z</time>
      </trkpt>
      <trkpt lat="22.906832" lon="111.208936">
        <ele>185.957910</ele>
        <time>2026-08-18T07:43:29.000Z</time>
      </trkpt>
      <trkpt lat="22.906829" lon="111.208986">
        <ele>185.904272</ele>
        <time>2026-08-18T07:43:30.000Z</time>
      </trkpt>
      <trkpt lat="22.906826" lon="111.209035">
        <ele>185.851702</ele>
        <time>2026-08-18T07:43:31.000Z</time>
      </trkpt>
      <trkpt lat="22.906823" lon="111.209085">
        <ele>185.798063</ele>
        <time>2026-08-18T07:43:32.000Z</time>
      </trkpt>
      <trkpt lat="22.906820" lon="111.209135">
        <ele>185.744425</ele>
        <time>2026-08-18T07:43:33.000Z</time>
      </trkpt>
      <trkpt lat="22.906817" lon="111.209185">
        <ele>185.690787</ele>
        <time>2026-08-18T07:43:34.000Z</time>
      </trkpt>
      <trkpt lat="22.906814" lon="111.209238">
        <ele>185.633943</ele>
        <time>2026-08-18T07:43:35.000Z</time>
      </trkpt>
      <trkpt lat="22.906812" lon="111.209288">
        <ele>185.580368</ele>
        <time>2026-08-18T07:43:36.000Z</time>
      </trkpt>
      <trkpt lat="22.906809" lon="111.209340">
        <ele>185.524593</ele>
        <time>2026-08-18T07:43:37.000Z</time>
      </trkpt>
      <trkpt lat="22.906805" lon="111.209391">
        <ele>185.469800</ele>
        <time>2026-08-18T07:43:38.000Z</time>
      </trkpt>
      <trkpt lat="22.906800" lon="111.209443">
        <ele>185.413832</ele>
        <time>2026-08-18T07:43:39.000Z</time>
      </trkpt>
      <trkpt lat="22.906796" lon="111.209495">
        <ele>185.357972</ele>
        <time>2026-08-18T07:43:40.000Z</time>
      </trkpt>
      <trkpt lat="22.906792" lon="111.209549">
        <ele>185.299979</ele>
        <time>2026-08-18T07:43:41.000Z</time>
      </trkpt>
      <trkpt lat="22.906786" lon="111.209604">
        <ele>185.240690</ele>
        <time>2026-08-18T07:43:42.000Z</time>
      </trkpt>
      <trkpt lat="22.906780" lon="111.209659">
        <ele>185.181401</ele>
        <time>2026-08-18T07:43:43.000Z</time>
      </trkpt>
      <trkpt lat="22.906776" lon="111.209715">
        <ele>185.121273</ele>
        <time>2026-08-18T07:43:44.000Z</time>
      </trkpt>
      <trkpt lat="22.906775" lon="111.209770">
        <ele>185.062385</ele>
        <time>2026-08-18T07:43:45.000Z</time>
      </trkpt>
      <trkpt lat="22.906771" lon="111.209826">
        <ele>185.002257</ele>
        <time>2026-08-18T07:43:46.000Z</time>
      </trkpt>
      <trkpt lat="22.906768" lon="111.209879">
        <ele>184.945413</ele>
        <time>2026-08-18T07:43:47.000Z</time>
      </trkpt>
      <trkpt lat="22.906763" lon="111.209934">
        <ele>184.886250</ele>
        <time>2026-08-18T07:43:48.000Z</time>
      </trkpt>
      <trkpt lat="22.906758" lon="111.209989">
        <ele>184.827087</ele>
        <time>2026-08-18T07:43:49.000Z</time>
      </trkpt>
      <trkpt lat="22.906754" lon="111.210044">
        <ele>184.768026</ele>
        <time>2026-08-18T07:43:50.000Z</time>
      </trkpt>
      <trkpt lat="22.906752" lon="111.210100">
        <ele>184.708033</ele>
        <time>2026-08-18T07:43:51.000Z</time>
      </trkpt>
      <trkpt lat="22.906751" lon="111.210155">
        <ele>184.649144</ele>
        <time>2026-08-18T07:43:52.000Z</time>
      </trkpt>
      <trkpt lat="22.906750" lon="111.210211">
        <ele>184.589185</ele>
        <time>2026-08-18T07:43:53.000Z</time>
      </trkpt>
      <trkpt lat="22.906749" lon="111.210267">
        <ele>184.529226</ele>
        <time>2026-08-18T07:43:54.000Z</time>
      </trkpt>
      <trkpt lat="22.906748" lon="111.210324">
        <ele>184.468197</ele>
        <time>2026-08-18T07:43:55.000Z</time>
      </trkpt>
      <trkpt lat="22.906745" lon="111.210382">
        <ele>184.406010</ele>
        <time>2026-08-18T07:43:56.000Z</time>
      </trkpt>
      <trkpt lat="22.906741" lon="111.210441">
        <ele>184.342680</ele>
        <time>2026-08-18T07:43:57.000Z</time>
      </trkpt>
      <trkpt lat="22.906736" lon="111.210502">
        <ele>184.277121</ele>
        <time>2026-08-18T07:43:58.000Z</time>
      </trkpt>
      <trkpt lat="22.906732" lon="111.210563">
        <ele>184.212250</ele>
        <time>2026-08-18T07:43:59.000Z</time>
      </trkpt>
      <trkpt lat="22.906728" lon="111.210623">
        <ele>184.148635</ele>
        <time>2026-08-18T07:44:00.000Z</time>
      </trkpt>
      <trkpt lat="22.906723" lon="111.210682">
        <ele>184.085981</ele>
        <time>2026-08-18T07:44:01.000Z</time>
      </trkpt>
      <trkpt lat="22.906717" lon="111.210743">
        <ele>184.021107</ele>
        <time>2026-08-18T07:44:02.000Z</time>
      </trkpt>
      <trkpt lat="22.906710" lon="111.210802">
        <ele>183.958201</ele>
        <time>2026-08-18T07:44:03.000Z</time>
      </trkpt>
      <trkpt lat="22.906706" lon="111.210861">
        <ele>183.895640</ele>
        <time>2026-08-18T07:44:04.000Z</time>
      </trkpt>
      <trkpt lat="22.906702" lon="111.210921">
        <ele>183.832026</ele>
        <time>2026-08-18T07:44:05.000Z</time>
      </trkpt>
      <trkpt lat="22.906698" lon="111.210981">
        <ele>183.768411</ele>
        <time>2026-08-18T07:44:06.000Z</time>
      </trkpt>
      <trkpt lat="22.906695" lon="111.211041">
        <ele>183.704868</ele>
        <time>2026-08-18T07:44:07.000Z</time>
      </trkpt>
      <trkpt lat="22.906691" lon="111.211102">
        <ele>183.640199</ele>
        <time>2026-08-18T07:44:08.000Z</time>
      </trkpt>
      <trkpt lat="22.906687" lon="111.211164">
        <ele>183.574474</ele>
        <time>2026-08-18T07:44:09.000Z</time>
      </trkpt>
      <trkpt lat="22.906683" lon="111.211226">
        <ele>183.508750</ele>
        <time>2026-08-18T07:44:10.000Z</time>
      </trkpt>
      <trkpt lat="22.906680" lon="111.211287">
        <ele>183.444152</ele>
        <time>2026-08-18T07:44:11.000Z</time>
      </trkpt>
      <trkpt lat="22.906676" lon="111.211349">
        <ele>183.378427</ele>
        <time>2026-08-18T07:44:12.000Z</time>
      </trkpt>
      <trkpt lat="22.906672" lon="111.211412">
        <ele>183.311648</ele>
        <time>2026-08-18T07:44:13.000Z</time>
      </trkpt>
      <trkpt lat="22.906667" lon="111.211473">
        <ele>183.246886</ele>
        <time>2026-08-18T07:44:14.000Z</time>
      </trkpt>
      <trkpt lat="22.906663" lon="111.211538">
        <ele>183.177997</ele>
        <time>2026-08-18T07:44:15.000Z</time>
      </trkpt>
      <trkpt lat="22.906658" lon="111.211601">
        <ele>183.111129</ele>
        <time>2026-08-18T07:44:16.000Z</time>
      </trkpt>
      <trkpt lat="22.906653" lon="111.211665">
        <ele>183.043207</ele>
        <time>2026-08-18T07:44:17.000Z</time>
      </trkpt>
      <trkpt lat="22.906649" lon="111.211727">
        <ele>182.977482</ele>
        <time>2026-08-18T07:44:18.000Z</time>
      </trkpt>
      <trkpt lat="22.906645" lon="111.211787">
        <ele>182.913867</ele>
        <time>2026-08-18T07:44:19.000Z</time>
      </trkpt>
      <trkpt lat="22.906642" lon="111.211846">
        <ele>182.851381</ele>
        <time>2026-08-18T07:44:20.000Z</time>
      </trkpt>
      <trkpt lat="22.906637" lon="111.211903">
        <ele>182.790832</ele>
        <time>2026-08-18T07:44:21.000Z</time>
      </trkpt>
      <trkpt lat="22.906633" lon="111.211959">
        <ele>182.731435</ele>
        <time>2026-08-18T07:44:22.000Z</time>
      </trkpt>
      <trkpt lat="22.906628" lon="111.212015">
        <ele>182.671938</ele>
        <time>2026-08-18T07:44:23.000Z</time>
      </trkpt>
      <trkpt lat="22.906625" lon="111.212071">
        <ele>182.612619</ele>
        <time>2026-08-18T07:44:24.000Z</time>
      </trkpt>
      <trkpt lat="22.906622" lon="111.212126">
        <ele>182.554356</ele>
        <time>2026-08-18T07:44:25.000Z</time>
      </trkpt>
      <trkpt lat="22.906617" lon="111.212182">
        <ele>182.494859</ele>
        <time>2026-08-18T07:44:26.000Z</time>
      </trkpt>
      <trkpt lat="22.906613" lon="111.212238">
        <ele>182.435463</ele>
        <time>2026-08-18T07:44:27.000Z</time>
      </trkpt>
      <trkpt lat="22.906610" lon="111.212294">
        <ele>182.376144</ele>
        <time>2026-08-18T07:44:28.000Z</time>
      </trkpt>
      <trkpt lat="22.906607" lon="111.212351">
        <ele>182.315769</ele>
        <time>2026-08-18T07:44:29.000Z</time>
      </trkpt>
      <trkpt lat="22.906604" lon="111.212409">
        <ele>182.254338</ele>
        <time>2026-08-18T07:44:30.000Z</time>
      </trkpt>
      <trkpt lat="22.906602" lon="111.212469">
        <ele>182.193993</ele>
        <time>2026-08-18T07:44:31.000Z</time>
      </trkpt>
      <trkpt lat="22.906598" lon="111.212529">
        <ele>182.171743</ele>
        <time>2026-08-18T07:44:32.000Z</time>
      </trkpt>
      <trkpt lat="22.906594" lon="111.212590">
        <ele>182.149125</ele>
        <time>2026-08-18T07:44:33.000Z</time>
      </trkpt>
      <trkpt lat="22.906590" lon="111.212650">
        <ele>182.126875</ele>
        <time>2026-08-18T07:44:34.000Z</time>
      </trkpt>
      <trkpt lat="22.906585" lon="111.212708">
        <ele>182.105329</ele>
        <time>2026-08-18T07:44:35.000Z</time>
      </trkpt>
      <trkpt lat="22.906581" lon="111.212767">
        <ele>182.083449</ele>
        <time>2026-08-18T07:44:36.000Z</time>
      </trkpt>
      <trkpt lat="22.906577" lon="111.212824">
        <ele>182.062306</ele>
        <time>2026-08-18T07:44:37.000Z</time>
      </trkpt>
      <trkpt lat="22.906575" lon="111.212880">
        <ele>182.041578</ele>
        <time>2026-08-18T07:44:38.000Z</time>
      </trkpt>
      <trkpt lat="22.906570" lon="111.212938">
        <ele>182.020033</ele>
        <time>2026-08-18T07:44:39.000Z</time>
      </trkpt>
      <trkpt lat="22.906567" lon="111.212995">
        <ele>181.998916</ele>
        <time>2026-08-18T07:44:40.000Z</time>
      </trkpt>
      <trkpt lat="22.906563" lon="111.213052">
        <ele>181.977773</ele>
        <time>2026-08-18T07:44:41.000Z</time>
      </trkpt>
      <trkpt lat="22.906559" lon="111.213111">
        <ele>181.955892</ele>
        <time>2026-08-18T07:44:42.000Z</time>
      </trkpt>
      <trkpt lat="22.906554" lon="111.213170">
        <ele>181.933979</ele>
        <time>2026-08-18T07:44:43.000Z</time>
      </trkpt>
      <trkpt lat="22.906551" lon="111.213227">
        <ele>181.912862</ele>
        <time>2026-08-18T07:44:44.000Z</time>
      </trkpt>
      <trkpt lat="22.906548" lon="111.213286">
        <ele>181.891007</ele>
        <time>2026-08-18T07:44:45.000Z</time>
      </trkpt>
      <trkpt lat="22.906544" lon="111.213346">
        <ele>181.868758</ele>
        <time>2026-08-18T07:44:46.000Z</time>
      </trkpt>
      <trkpt lat="22.906540" lon="111.213406">
        <ele>181.846508</ele>
        <time>2026-08-18T07:44:47.000Z</time>
      </trkpt>
      <trkpt lat="22.906537" lon="111.213466">
        <ele>181.824284</ele>
        <time>2026-08-18T07:44:48.000Z</time>
      </trkpt>
      <trkpt lat="22.906534" lon="111.213527">
        <ele>181.801690</ele>
        <time>2026-08-18T07:44:49.000Z</time>
      </trkpt>
      <trkpt lat="22.906532" lon="111.213585">
        <ele>181.780224</ele>
        <time>2026-08-18T07:44:50.000Z</time>
      </trkpt>
      <trkpt lat="22.906531" lon="111.213643">
        <ele>181.758768</ele>
        <time>2026-08-18T07:44:51.000Z</time>
      </trkpt>
      <trkpt lat="22.906527" lon="111.213702">
        <ele>181.736887</ele>
        <time>2026-08-18T07:44:52.000Z</time>
      </trkpt>
      <trkpt lat="22.906523" lon="111.213759">
        <ele>181.715744</ele>
        <time>2026-08-18T07:44:53.000Z</time>
      </trkpt>
      <trkpt lat="22.906520" lon="111.213816">
        <ele>181.694628</ele>
        <time>2026-08-18T07:44:54.000Z</time>
      </trkpt>
      <trkpt lat="22.906515" lon="111.213873">
        <ele>181.673451</ele>
        <time>2026-08-18T07:44:55.000Z</time>
      </trkpt>
      <trkpt lat="22.906511" lon="111.213928">
        <ele>181.653045</ele>
        <time>2026-08-18T07:44:56.000Z</time>
      </trkpt>
      <trkpt lat="22.906507" lon="111.213984">
        <ele>181.632271</ele>
        <time>2026-08-18T07:44:57.000Z</time>
      </trkpt>
      <trkpt lat="22.906504" lon="111.214039">
        <ele>181.611893</ele>
        <time>2026-08-18T07:44:58.000Z</time>
      </trkpt>
      <trkpt lat="22.906501" lon="111.214094">
        <ele>181.591515</ele>
        <time>2026-08-18T07:44:59.000Z</time>
      </trkpt>
      <trkpt lat="22.906499" lon="111.214149">
        <ele>181.571157</ele>
        <time>2026-08-18T07:45:00.000Z</time>
      </trkpt>
      <trkpt lat="22.906496" lon="111.214202">
        <ele>181.551517</ele>
        <time>2026-08-18T07:45:01.000Z</time>
      </trkpt>
      <trkpt lat="22.906493" lon="111.214253">
        <ele>181.532616</ele>
        <time>2026-08-18T07:45:02.000Z</time>
      </trkpt>
      <trkpt lat="22.906491" lon="111.214307">
        <ele>181.512628</ele>
        <time>2026-08-18T07:45:03.000Z</time>
      </trkpt>
      <trkpt lat="22.906488" lon="111.214360">
        <ele>181.492988</ele>
        <time>2026-08-18T07:45:04.000Z</time>
      </trkpt>
      <trkpt lat="22.906485" lon="111.214412">
        <ele>181.473718</ele>
        <time>2026-08-18T07:45:05.000Z</time>
      </trkpt>
      <trkpt lat="22.906482" lon="111.214464">
        <ele>181.485998</ele>
        <time>2026-08-18T07:45:06.000Z</time>
      </trkpt>
      <trkpt lat="22.906479" lon="111.214519">
        <ele>181.499386</ele>
        <time>2026-08-18T07:45:07.000Z</time>
      </trkpt>
      <trkpt lat="22.906475" lon="111.214574">
        <ele>181.512792</ele>
        <time>2026-08-18T07:45:08.000Z</time>
      </trkpt>
      <trkpt lat="22.906473" lon="111.214626">
        <ele>181.525439</ele>
        <time>2026-08-18T07:45:09.000Z</time>
      </trkpt>
      <trkpt lat="22.906469" lon="111.214679">
        <ele>181.538360</ele>
        <time>2026-08-18T07:45:10.000Z</time>
      </trkpt>
      <trkpt lat="22.906467" lon="111.214732">
        <ele>181.551250</ele>
        <time>2026-08-18T07:45:11.000Z</time>
      </trkpt>
      <trkpt lat="22.906465" lon="111.214780">
        <ele>181.562925</ele>
        <time>2026-08-18T07:45:12.000Z</time>
      </trkpt>
      <trkpt lat="22.906461" lon="111.214830">
        <ele>181.575120</ele>
        <time>2026-08-18T07:45:13.000Z</time>
      </trkpt>
      <trkpt lat="22.906458" lon="111.214882">
        <ele>181.587781</ele>
        <time>2026-08-18T07:45:14.000Z</time>
      </trkpt>
      <trkpt lat="22.906454" lon="111.214934">
        <ele>181.600460</ele>
        <time>2026-08-18T07:45:15.000Z</time>
      </trkpt>
      <trkpt lat="22.906453" lon="111.214985">
        <ele>181.612856</ele>
        <time>2026-08-18T07:45:16.000Z</time>
      </trkpt>
      <trkpt lat="22.906449" lon="111.215036">
        <ele>181.625293</ele>
        <time>2026-08-18T07:45:17.000Z</time>
      </trkpt>
      <trkpt lat="22.906443" lon="111.215084">
        <ele>181.637063</ele>
        <time>2026-08-18T07:45:18.000Z</time>
      </trkpt>
      <trkpt lat="22.906439" lon="111.215133">
        <ele>181.649017</ele>
        <time>2026-08-18T07:45:19.000Z</time>
      </trkpt>
      <trkpt lat="22.906435" lon="111.215181">
        <ele>181.660728</ele>
        <time>2026-08-18T07:45:20.000Z</time>
      </trkpt>
      <trkpt lat="22.906432" lon="111.215232">
        <ele>181.673146</ele>
        <time>2026-08-18T07:45:21.000Z</time>
      </trkpt>
      <trkpt lat="22.906429" lon="111.215282">
        <ele>181.685321</ele>
        <time>2026-08-18T07:45:22.000Z</time>
      </trkpt>
      <trkpt lat="22.906424" lon="111.215332">
        <ele>181.697542</ele>
        <time>2026-08-18T07:45:23.000Z</time>
      </trkpt>
      <trkpt lat="22.906420" lon="111.215383">
        <ele>181.709979</ele>
        <time>2026-08-18T07:45:24.000Z</time>
      </trkpt>
      <trkpt lat="22.906417" lon="111.215432">
        <ele>181.721912</ele>
        <time>2026-08-18T07:45:25.000Z</time>
      </trkpt>
      <trkpt lat="22.906411" lon="111.215482">
        <ele>181.734164</ele>
        <time>2026-08-18T07:45:26.000Z</time>
      </trkpt>
      <trkpt lat="22.906405" lon="111.215531">
        <ele>181.746176</ele>
        <time>2026-08-18T07:45:27.000Z</time>
      </trkpt>
      <trkpt lat="22.906400" lon="111.215579">
        <ele>181.757914</ele>
        <time>2026-08-18T07:45:28.000Z</time>
      </trkpt>
      <trkpt lat="22.906396" lon="111.215628">
        <ele>181.769867</ele>
        <time>2026-08-18T07:45:29.000Z</time>
      </trkpt>
      <trkpt lat="22.906390" lon="111.215679">
        <ele>181.782360</ele>
        <time>2026-08-18T07:45:30.000Z</time>
      </trkpt>
      <trkpt lat="22.906384" lon="111.215730">
        <ele>181.794853</ele>
        <time>2026-08-18T07:45:31.000Z</time>
      </trkpt>
      <trkpt lat="22.906376" lon="111.215781">
        <ele>181.807424</ele>
        <time>2026-08-18T07:45:32.000Z</time>
      </trkpt>
      <trkpt lat="22.906369" lon="111.215831">
        <ele>181.819713</ele>
        <time>2026-08-18T07:45:33.000Z</time>
      </trkpt>
      <trkpt lat="22.906362" lon="111.215882">
        <ele>181.832243</ele>
        <time>2026-08-18T07:45:34.000Z</time>
      </trkpt>
      <trkpt lat="22.906356" lon="111.215932">
        <ele>181.844495</ele>
        <time>2026-08-18T07:45:35.000Z</time>
      </trkpt>
      <trkpt lat="22.906350" lon="111.215981">
        <ele>181.856506</ele>
        <time>2026-08-18T07:45:36.000Z</time>
      </trkpt>
      <trkpt lat="22.906344" lon="111.216031">
        <ele>181.868758</ele>
        <time>2026-08-18T07:45:37.000Z</time>
      </trkpt>
      <trkpt lat="22.906338" lon="111.216079">
        <ele>181.880529</ele>
        <time>2026-08-18T07:45:38.000Z</time>
      </trkpt>
      <trkpt lat="22.906333" lon="111.216128">
        <ele>181.892508</ele>
        <time>2026-08-18T07:45:39.000Z</time>
      </trkpt>
      <trkpt lat="22.906326" lon="111.216176">
        <ele>181.904317</ele>
        <time>2026-08-18T07:45:40.000Z</time>
      </trkpt>
      <trkpt lat="22.906318" lon="111.216226">
        <ele>181.916649</ele>
        <time>2026-08-18T07:45:41.000Z</time>
      </trkpt>
      <trkpt lat="22.906310" lon="111.216275">
        <ele>181.928741</ele>
        <time>2026-08-18T07:45:42.000Z</time>
      </trkpt>
      <trkpt lat="22.906300" lon="111.216324">
        <ele>181.940936</ele>
        <time>2026-08-18T07:45:43.000Z</time>
      </trkpt>
      <trkpt lat="22.906291" lon="111.216373">
        <ele>181.954647</ele>
        <time>2026-08-18T07:45:44.000Z</time>
      </trkpt>
      <trkpt lat="22.906283" lon="111.216421">
        <ele>181.970136</ele>
        <time>2026-08-18T07:45:45.000Z</time>
      </trkpt>
      <trkpt lat="22.906274" lon="111.216468">
        <ele>181.985378</ele>
        <time>2026-08-18T07:45:46.000Z</time>
      </trkpt>
      <trkpt lat="22.906263" lon="111.216513">
        <ele>182.000161</ele>
        <time>2026-08-18T07:45:47.000Z</time>
      </trkpt>
      <trkpt lat="22.906252" lon="111.216557">
        <ele>182.014638</ele>
        <time>2026-08-18T07:45:48.000Z</time>
      </trkpt>
      <trkpt lat="22.906243" lon="111.216603">
        <ele>182.029570</ele>
        <time>2026-08-18T07:45:49.000Z</time>
      </trkpt>
      <trkpt lat="22.906233" lon="111.216651">
        <ele>182.045196</ele>
        <time>2026-08-18T07:45:50.000Z</time>
      </trkpt>
      <trkpt lat="22.906224" lon="111.216698">
        <ele>182.060439</ele>
        <time>2026-08-18T07:45:51.000Z</time>
      </trkpt>
      <trkpt lat="22.906213" lon="111.216745">
        <ele>182.075836</ele>
        <time>2026-08-18T07:45:52.000Z</time>
      </trkpt>
      <trkpt lat="22.906202" lon="111.216790">
        <ele>182.090620</ele>
        <time>2026-08-18T07:45:53.000Z</time>
      </trkpt>
      <trkpt lat="22.906192" lon="111.216837">
        <ele>182.105936</ele>
        <time>2026-08-18T07:45:54.000Z</time>
      </trkpt>
      <trkpt lat="22.906181" lon="111.216883">
        <ele>182.121026</ele>
        <time>2026-08-18T07:45:55.000Z</time>
      </trkpt>
      <trkpt lat="22.906170" lon="111.216929">
        <ele>182.136117</ele>
        <time>2026-08-18T07:45:56.000Z</time>
      </trkpt>
      <trkpt lat="22.906156" lon="111.216975">
        <ele>182.151499</ele>
        <time>2026-08-18T07:45:57.000Z</time>
      </trkpt>
      <trkpt lat="22.906145" lon="111.217022">
        <ele>182.166897</ele>
        <time>2026-08-18T07:45:58.000Z</time>
      </trkpt>
      <trkpt lat="22.906135" lon="111.217067">
        <ele>182.181596</ele>
        <time>2026-08-18T07:45:59.000Z</time>
      </trkpt>
      <trkpt lat="22.906123" lon="111.217112">
        <ele>182.196471</ele>
        <time>2026-08-18T07:46:00.000Z</time>
      </trkpt>
      <trkpt lat="22.906110" lon="111.217158">
        <ele>182.211749</ele>
        <time>2026-08-18T07:46:01.000Z</time>
      </trkpt>
      <trkpt lat="22.906095" lon="111.217203">
        <ele>182.226944</ele>
        <time>2026-08-18T07:46:02.000Z</time>
      </trkpt>
      <trkpt lat="22.906080" lon="111.217248">
        <ele>182.242140</ele>
        <time>2026-08-18T07:46:03.000Z</time>
      </trkpt>
      <trkpt lat="22.906066" lon="111.217293">
        <ele>182.257221</ele>
        <time>2026-08-18T07:46:04.000Z</time>
      </trkpt>
      <trkpt lat="22.906053" lon="111.217338">
        <ele>182.272196</ele>
        <time>2026-08-18T07:46:05.000Z</time>
      </trkpt>
      <trkpt lat="22.906038" lon="111.217384">
        <ele>182.287691</ele>
        <time>2026-08-18T07:46:06.000Z</time>
      </trkpt>
      <trkpt lat="22.906024" lon="111.217428">
        <ele>182.302472</ele>
        <time>2026-08-18T07:46:07.000Z</time>
      </trkpt>
      <trkpt lat="22.906011" lon="111.217471">
        <ele>182.316842</ele>
        <time>2026-08-18T07:46:08.000Z</time>
      </trkpt>
      <trkpt lat="22.905998" lon="111.217512">
        <ele>182.330610</ele>
        <time>2026-08-18T07:46:09.000Z</time>
      </trkpt>
      <trkpt lat="22.905984" lon="111.217553">
        <ele>182.344494</ele>
        <time>2026-08-18T07:46:10.000Z</time>
      </trkpt>
      <trkpt lat="22.905970" lon="111.217594">
        <ele>182.358378</ele>
        <time>2026-08-18T07:46:11.000Z</time>
      </trkpt>
      <trkpt lat="22.905956" lon="111.217635">
        <ele>182.372262</ele>
        <time>2026-08-18T07:46:12.000Z</time>
      </trkpt>
      <trkpt lat="22.905939" lon="111.217678">
        <ele>182.387120</ele>
        <time>2026-08-18T07:46:13.000Z</time>
      </trkpt>
      <trkpt lat="22.905923" lon="111.217721">
        <ele>182.401846</ele>
        <time>2026-08-18T07:46:14.000Z</time>
      </trkpt>
      <trkpt lat="22.905908" lon="111.217764">
        <ele>182.416446</ele>
        <time>2026-08-18T07:46:15.000Z</time>
      </trkpt>
      <trkpt lat="22.905893" lon="111.217806">
        <ele>182.430749</ele>
        <time>2026-08-18T07:46:16.000Z</time>
      </trkpt>
      <trkpt lat="22.905881" lon="111.217849">
        <ele>182.445015</ele>
        <time>2026-08-18T07:46:17.000Z</time>
      </trkpt>
      <trkpt lat="22.905868" lon="111.217893">
        <ele>182.459688</ele>
        <time>2026-08-18T07:46:18.000Z</time>
      </trkpt>
      <trkpt lat="22.905857" lon="111.217938">
        <ele>182.474471</ele>
        <time>2026-08-18T07:46:19.000Z</time>
      </trkpt>
      <trkpt lat="22.905845" lon="111.217982">
        <ele>182.489041</ele>
        <time>2026-08-18T07:46:20.000Z</time>
      </trkpt>
      <trkpt lat="22.905832" lon="111.218025">
        <ele>182.503412</ele>
        <time>2026-08-18T07:46:21.000Z</time>
      </trkpt>
      <trkpt lat="22.905819" lon="111.218069">
        <ele>182.518084</ele>
        <time>2026-08-18T07:46:22.000Z</time>
      </trkpt>
      <trkpt lat="22.905805" lon="111.218111">
        <ele>182.532266</ele>
        <time>2026-08-18T07:46:23.000Z</time>
      </trkpt>
      <trkpt lat="22.905791" lon="111.218153">
        <ele>182.546448</ele>
        <time>2026-08-18T07:46:24.000Z</time>
      </trkpt>
      <trkpt lat="22.905776" lon="111.218196">
        <ele>182.561048</ele>
        <time>2026-08-18T07:46:25.000Z</time>
      </trkpt>
      <trkpt lat="22.905761" lon="111.218239">
        <ele>182.583229</ele>
        <time>2026-08-18T07:46:26.000Z</time>
      </trkpt>
      <trkpt lat="22.905747" lon="111.218283">
        <ele>182.612589</ele>
        <time>2026-08-18T07:46:27.000Z</time>
      </trkpt>
      <trkpt lat="22.905734" lon="111.218327">
        <ele>182.641734</ele>
        <time>2026-08-18T07:46:28.000Z</time>
      </trkpt>
      <trkpt lat="22.905720" lon="111.218370">
        <ele>182.670499</ele>
        <time>2026-08-18T07:46:29.000Z</time>
      </trkpt>
      <trkpt lat="22.905707" lon="111.218413">
        <ele>182.699044</ele>
        <time>2026-08-18T07:46:30.000Z</time>
      </trkpt>
      <trkpt lat="22.905694" lon="111.218457">
        <ele>182.728188</ele>
        <time>2026-08-18T07:46:31.000Z</time>
      </trkpt>
      <trkpt lat="22.905682" lon="111.218501">
        <ele>182.757131</ele>
        <time>2026-08-18T07:46:32.000Z</time>
      </trkpt>
      <trkpt lat="22.905670" lon="111.218545">
        <ele>182.786073</ele>
        <time>2026-08-18T07:46:33.000Z</time>
      </trkpt>
      <trkpt lat="22.905657" lon="111.218588">
        <ele>182.814618</ele>
        <time>2026-08-18T07:46:34.000Z</time>
      </trkpt>
      <trkpt lat="22.905642" lon="111.218631">
        <ele>182.843619</ele>
        <time>2026-08-18T07:46:35.000Z</time>
      </trkpt>
      <trkpt lat="22.905628" lon="111.218673">
        <ele>182.871790</ele>
        <time>2026-08-18T07:46:36.000Z</time>
      </trkpt>
      <trkpt lat="22.905615" lon="111.218716">
        <ele>182.900335</ele>
        <time>2026-08-18T07:46:37.000Z</time>
      </trkpt>
      <trkpt lat="22.905603" lon="111.218759">
        <ele>182.928673</ele>
        <time>2026-08-18T07:46:38.000Z</time>
      </trkpt>
      <trkpt lat="22.905591" lon="111.218800">
        <ele>182.955807</ele>
        <time>2026-08-18T07:46:39.000Z</time>
      </trkpt>
      <trkpt lat="22.905580" lon="111.218843">
        <ele>182.983954</ele>
        <time>2026-08-18T07:46:40.000Z</time>
      </trkpt>
      <trkpt lat="22.905568" lon="111.218887">
        <ele>183.012897</ele>
        <time>2026-08-18T07:46:41.000Z</time>
      </trkpt>
      <trkpt lat="22.905556" lon="111.218932">
        <ele>183.042445</ele>
        <time>2026-08-18T07:46:42.000Z</time>
      </trkpt>
      <trkpt lat="22.905543" lon="111.218974">
        <ele>183.070391</ele>
        <time>2026-08-18T07:46:43.000Z</time>
      </trkpt>
      <trkpt lat="22.905529" lon="111.219014">
        <ele>183.097380</ele>
        <time>2026-08-18T07:46:44.000Z</time>
      </trkpt>
      <trkpt lat="22.905515" lon="111.219055">
        <ele>183.124959</ele>
        <time>2026-08-18T07:46:45.000Z</time>
      </trkpt>
      <trkpt lat="22.905500" lon="111.219097">
        <ele>183.153371</ele>
        <time>2026-08-18T07:46:46.000Z</time>
      </trkpt>
      <trkpt lat="22.905486" lon="111.219139">
        <ele>183.181542</ele>
        <time>2026-08-18T07:46:47.000Z</time>
      </trkpt>
      <trkpt lat="22.905473" lon="111.219181">
        <ele>183.209488</ele>
        <time>2026-08-18T07:46:48.000Z</time>
      </trkpt>
      <trkpt lat="22.905460" lon="111.219223">
        <ele>183.237434</ele>
        <time>2026-08-18T07:46:49.000Z</time>
      </trkpt>
      <trkpt lat="22.905447" lon="111.219267">
        <ele>183.266579</ele>
        <time>2026-08-18T07:46:50.000Z</time>
      </trkpt>
      <trkpt lat="22.905433" lon="111.219310">
        <ele>183.295344</ele>
        <time>2026-08-18T07:46:51.000Z</time>
      </trkpt>
      <trkpt lat="22.905417" lon="111.219354">
        <ele>183.325180</ele>
        <time>2026-08-18T07:46:52.000Z</time>
      </trkpt>
      <trkpt lat="22.905401" lon="111.219398">
        <ele>183.355016</ele>
        <time>2026-08-18T07:46:53.000Z</time>
      </trkpt>
      <trkpt lat="22.905387" lon="111.219441">
        <ele>183.383782</ele>
        <time>2026-08-18T07:46:54.000Z</time>
      </trkpt>
      <trkpt lat="22.905374" lon="111.219482">
        <ele>183.411130</ele>
        <time>2026-08-18T07:46:55.000Z</time>
      </trkpt>
      <trkpt lat="22.905359" lon="111.219523">
        <ele>183.438955</ele>
        <time>2026-08-18T07:46:56.000Z</time>
      </trkpt>
      <trkpt lat="22.905345" lon="111.219563">
        <ele>183.465944</ele>
        <time>2026-08-18T07:46:57.000Z</time>
      </trkpt>
      <trkpt lat="22.905332" lon="111.219601">
        <ele>183.491511</ele>
        <time>2026-08-18T07:46:58.000Z</time>
      </trkpt>
      <trkpt lat="22.905321" lon="111.219640">
        <ele>183.517236</ele>
        <time>2026-08-18T07:46:59.000Z</time>
      </trkpt>
      <trkpt lat="22.905310" lon="111.219678">
        <ele>183.542360</ele>
        <time>2026-08-18T07:47:00.000Z</time>
      </trkpt>
      <trkpt lat="22.905297" lon="111.219717">
        <ele>183.568519</ele>
        <time>2026-08-18T07:47:01.000Z</time>
      </trkpt>
      <trkpt lat="22.905285" lon="111.219758">
        <ele>183.595653</ele>
        <time>2026-08-18T07:47:02.000Z</time>
      </trkpt>
      <trkpt lat="22.905273" lon="111.219798">
        <ele>183.622186</ele>
        <time>2026-08-18T07:47:03.000Z</time>
      </trkpt>
      <trkpt lat="22.905261" lon="111.219837">
        <ele>183.648120</ele>
        <time>2026-08-18T07:47:04.000Z</time>
      </trkpt>
      <trkpt lat="22.905248" lon="111.219876">
        <ele>183.674280</ele>
        <time>2026-08-18T07:47:05.000Z</time>
      </trkpt>
      <trkpt lat="22.905234" lon="111.219917">
        <ele>183.701859</ele>
        <time>2026-08-18T07:47:06.000Z</time>
      </trkpt>
      <trkpt lat="22.905220" lon="111.219956">
        <ele>183.728259</ele>
        <time>2026-08-18T07:47:07.000Z</time>
      </trkpt>
      <trkpt lat="22.905206" lon="111.219995">
        <ele>183.754659</ele>
        <time>2026-08-18T07:47:08.000Z</time>
      </trkpt>
      <trkpt lat="22.905192" lon="111.220038">
        <ele>183.783425</ele>
        <time>2026-08-18T07:47:09.000Z</time>
      </trkpt>
      <trkpt lat="22.905177" lon="111.220080">
        <ele>183.825108</ele>
        <time>2026-08-18T07:47:10.000Z</time>
      </trkpt>
      <trkpt lat="22.905163" lon="111.220122">
        <ele>183.883641</ele>
        <time>2026-08-18T07:47:11.000Z</time>
      </trkpt>
      <trkpt lat="22.905148" lon="111.220165">
        <ele>183.943896</ele>
        <time>2026-08-18T07:47:12.000Z</time>
      </trkpt>
      <trkpt lat="22.905131" lon="111.220207">
        <ele>184.004015</ele>
        <time>2026-08-18T07:47:13.000Z</time>
      </trkpt>
      <trkpt lat="22.905117" lon="111.220249">
        <ele>184.062548</ele>
        <time>2026-08-18T07:47:14.000Z</time>
      </trkpt>
      <trkpt lat="22.905104" lon="111.220292">
        <ele>184.121856</ele>
        <time>2026-08-18T07:47:15.000Z</time>
      </trkpt>
      <trkpt lat="22.905092" lon="111.220332">
        <ele>184.176984</ele>
        <time>2026-08-18T07:47:16.000Z</time>
      </trkpt>
      <trkpt lat="22.905079" lon="111.220373">
        <ele>184.233808</ele>
        <time>2026-08-18T07:47:17.000Z</time>
      </trkpt>
      <trkpt lat="22.905064" lon="111.220415">
        <ele>184.292840</ele>
        <time>2026-08-18T07:47:18.000Z</time>
      </trkpt>
      <trkpt lat="22.905051" lon="111.220455">
        <ele>184.348425</ele>
        <time>2026-08-18T07:47:19.000Z</time>
      </trkpt>
      <trkpt lat="22.905038" lon="111.220495">
        <ele>184.404011</ele>
        <time>2026-08-18T07:47:20.000Z</time>
      </trkpt>
      <trkpt lat="22.905025" lon="111.220535">
        <ele>184.459597</ele>
        <time>2026-08-18T07:47:21.000Z</time>
      </trkpt>
      <trkpt lat="22.905011" lon="111.220574">
        <ele>184.514449</ele>
        <time>2026-08-18T07:47:22.000Z</time>
      </trkpt>
      <trkpt lat="22.904997" lon="111.220614">
        <ele>184.570524</ele>
        <time>2026-08-18T07:47:23.000Z</time>
      </trkpt>
      <trkpt lat="22.904984" lon="111.220653">
        <ele>184.624876</ele>
        <time>2026-08-18T07:47:24.000Z</time>
      </trkpt>
      <trkpt lat="22.904972" lon="111.220691">
        <ele>184.677519</ele>
        <time>2026-08-18T07:47:25.000Z</time>
      </trkpt>
      <trkpt lat="22.904961" lon="111.220729">
        <ele>184.729718</ele>
        <time>2026-08-18T07:47:26.000Z</time>
      </trkpt>
      <trkpt lat="22.904950" lon="111.220766">
        <ele>184.780668</ele>
        <time>2026-08-18T07:47:27.000Z</time>
      </trkpt>
      <trkpt lat="22.904939" lon="111.220802">
        <ele>184.830373</ele>
        <time>2026-08-18T07:47:28.000Z</time>
      </trkpt>
      <trkpt lat="22.904927" lon="111.220839">
        <ele>184.881778</ele>
        <time>2026-08-18T07:47:29.000Z</time>
      </trkpt>
      <trkpt lat="22.904915" lon="111.220876">
        <ele>184.933183</ele>
        <time>2026-08-18T07:47:30.000Z</time>
      </trkpt>
      <trkpt lat="22.904902" lon="111.220912">
        <ele>184.983856</ele>
        <time>2026-08-18T07:47:31.000Z</time>
      </trkpt>
      <trkpt lat="22.904890" lon="111.220948">
        <ele>185.034027</ele>
        <time>2026-08-18T07:47:32.000Z</time>
      </trkpt>
      <trkpt lat="22.904880" lon="111.220985">
        <ele>185.084558</ele>
        <time>2026-08-18T07:47:33.000Z</time>
      </trkpt>
      <trkpt lat="22.904868" lon="111.221022">
        <ele>185.135964</ele>
        <time>2026-08-18T07:47:34.000Z</time>
      </trkpt>
      <trkpt lat="22.904856" lon="111.221058">
        <ele>185.186135</ele>
        <time>2026-08-18T07:47:35.000Z</time>
      </trkpt>
      <trkpt lat="22.904843" lon="111.221095">
        <ele>185.238029</ele>
        <time>2026-08-18T07:47:36.000Z</time>
      </trkpt>
      <trkpt lat="22.904832" lon="111.221131">
        <ele>185.287734</ele>
        <time>2026-08-18T07:47:37.000Z</time>
      </trkpt>
      <trkpt lat="22.904821" lon="111.221167">
        <ele>185.337439</ele>
        <time>2026-08-18T07:47:38.000Z</time>
      </trkpt>
      <trkpt lat="22.904810" lon="111.221203">
        <ele>185.387144</ele>
        <time>2026-08-18T07:47:39.000Z</time>
      </trkpt>
      <trkpt lat="22.904798" lon="111.221240">
        <ele>185.438549</ele>
        <time>2026-08-18T07:47:40.000Z</time>
      </trkpt>
      <trkpt lat="22.904787" lon="111.221277">
        <ele>185.489499</ele>
        <time>2026-08-18T07:47:41.000Z</time>
      </trkpt>
      <trkpt lat="22.904774" lon="111.221314">
        <ele>185.541394</ele>
        <time>2026-08-18T07:47:42.000Z</time>
      </trkpt>
      <trkpt lat="22.904762" lon="111.221351">
        <ele>185.592800</ele>
        <time>2026-08-18T07:47:43.000Z</time>
      </trkpt>
      <trkpt lat="22.904749" lon="111.221388">
        <ele>185.644695</ele>
        <time>2026-08-18T07:47:44.000Z</time>
      </trkpt>
      <trkpt lat="22.904735" lon="111.221426">
        <ele>185.698328</ele>
        <time>2026-08-18T07:47:45.000Z</time>
      </trkpt>
      <trkpt lat="22.904723" lon="111.221464">
        <ele>185.750971</ele>
        <time>2026-08-18T07:47:46.000Z</time>
      </trkpt>
      <trkpt lat="22.904712" lon="111.221502">
        <ele>185.803170</ele>
        <time>2026-08-18T07:47:47.000Z</time>
      </trkpt>
      <trkpt lat="22.904701" lon="111.221540">
        <ele>185.855369</ele>
        <time>2026-08-18T07:47:48.000Z</time>
      </trkpt>
      <trkpt lat="22.904689" lon="111.221578">
        <ele>185.908012</ele>
        <time>2026-08-18T07:47:49.000Z</time>
      </trkpt>
      <trkpt lat="22.904677" lon="111.221617">
        <ele>185.961897</ele>
        <time>2026-08-18T07:47:50.000Z</time>
      </trkpt>
      <trkpt lat="22.904665" lon="111.221655">
        <ele>186.014540</ele>
        <time>2026-08-18T07:47:51.000Z</time>
      </trkpt>
      <trkpt lat="22.904653" lon="111.221692">
        <ele>186.065945</ele>
        <time>2026-08-18T07:47:52.000Z</time>
      </trkpt>
      <trkpt lat="22.904640" lon="111.221729">
        <ele>186.117840</ele>
        <time>2026-08-18T07:47:53.000Z</time>
      </trkpt>
      <trkpt lat="22.904627" lon="111.221765">
        <ele>186.168513</ele>
        <time>2026-08-18T07:47:54.000Z</time>
      </trkpt>
      <trkpt lat="22.904615" lon="111.221802">
        <ele>186.219918</ele>
        <time>2026-08-18T07:47:55.000Z</time>
      </trkpt>
      <trkpt lat="22.904604" lon="111.221840">
        <ele>186.272117</ele>
        <time>2026-08-18T07:47:56.000Z</time>
      </trkpt>
      <trkpt lat="22.904595" lon="111.221876">
        <ele>186.321001</ele>
        <time>2026-08-18T07:47:57.000Z</time>
      </trkpt>
      <trkpt lat="22.904585" lon="111.221913">
        <ele>186.371975</ele>
        <time>2026-08-18T07:47:58.000Z</time>
      </trkpt>
      <trkpt lat="22.904574" lon="111.221950">
        <ele>186.424636</ele>
        <time>2026-08-18T07:47:59.000Z</time>
      </trkpt>
      <trkpt lat="22.904562" lon="111.221988">
        <ele>186.479047</ele>
        <time>2026-08-18T07:48:00.000Z</time>
      </trkpt>
      <trkpt lat="22.904549" lon="111.222025">
        <ele>186.532684</ele>
        <time>2026-08-18T07:48:01.000Z</time>
      </trkpt>
      <trkpt lat="22.904537" lon="111.222062">
        <ele>186.585815</ele>
        <time>2026-08-18T07:48:02.000Z</time>
      </trkpt>
      <trkpt lat="22.904525" lon="111.222098">
        <ele>186.637671</ele>
        <time>2026-08-18T07:48:03.000Z</time>
      </trkpt>
      <trkpt lat="22.904513" lon="111.222135">
        <ele>186.690802</ele>
        <time>2026-08-18T07:48:04.000Z</time>
      </trkpt>
      <trkpt lat="22.904502" lon="111.222174">
        <ele>186.746048</ele>
        <time>2026-08-18T07:48:05.000Z</time>
      </trkpt>
      <trkpt lat="22.904493" lon="111.222213">
        <ele>186.800505</ele>
        <time>2026-08-18T07:48:06.000Z</time>
      </trkpt>
      <trkpt lat="22.904483" lon="111.222251">
        <ele>186.854034</ele>
        <time>2026-08-18T07:48:07.000Z</time>
      </trkpt>
      <trkpt lat="22.904473" lon="111.222289">
        <ele>186.907564</ele>
        <time>2026-08-18T07:48:08.000Z</time>
      </trkpt>
      <trkpt lat="22.904463" lon="111.222327">
        <ele>186.961093</ele>
        <time>2026-08-18T07:48:09.000Z</time>
      </trkpt>
      <trkpt lat="22.904452" lon="111.222365">
        <ele>187.015045</ele>
        <time>2026-08-18T07:48:10.000Z</time>
      </trkpt>
      <trkpt lat="22.904440" lon="111.222401">
        <ele>187.066901</ele>
        <time>2026-08-18T07:48:11.000Z</time>
      </trkpt>
      <trkpt lat="22.904429" lon="111.222439">
        <ele>187.120853</ele>
        <time>2026-08-18T07:48:12.000Z</time>
      </trkpt>
      <trkpt lat="22.904418" lon="111.222477">
        <ele>187.174805</ele>
        <time>2026-08-18T07:48:13.000Z</time>
      </trkpt>
      <trkpt lat="22.904406" lon="111.222515">
        <ele>187.229215</ele>
        <time>2026-08-18T07:48:14.000Z</time>
      </trkpt>
      <trkpt lat="22.904393" lon="111.222555">
        <ele>187.286668</ele>
        <time>2026-08-18T07:48:15.000Z</time>
      </trkpt>
      <trkpt lat="22.904381" lon="111.222595">
        <ele>187.343648</ele>
        <time>2026-08-18T07:48:16.000Z</time>
      </trkpt>
      <trkpt lat="22.904367" lon="111.222634">
        <ele>187.400342</ele>
        <time>2026-08-18T07:48:17.000Z</time>
      </trkpt>
      <trkpt lat="22.904354" lon="111.222674">
        <ele>187.457795</ele>
        <time>2026-08-18T07:48:18.000Z</time>
      </trkpt>
      <trkpt lat="22.904339" lon="111.222713">
        <ele>187.515039</ele>
        <time>2026-08-18T07:48:19.000Z</time>
      </trkpt>
      <trkpt lat="22.904328" lon="111.222754">
        <ele>187.572880</ele>
        <time>2026-08-18T07:48:20.000Z</time>
      </trkpt>
      <trkpt lat="22.904317" lon="111.222792">
        <ele>187.626832</ele>
        <time>2026-08-18T07:48:21.000Z</time>
      </trkpt>
      <trkpt lat="22.904306" lon="111.222831">
        <ele>187.682078</ele>
        <time>2026-08-18T07:48:22.000Z</time>
      </trkpt>
      <trkpt lat="22.904296" lon="111.222870">
        <ele>187.736911</ele>
        <time>2026-08-18T07:48:23.000Z</time>
      </trkpt>
      <trkpt lat="22.904283" lon="111.222908">
        <ele>187.791816</ele>
        <time>2026-08-18T07:48:24.000Z</time>
      </trkpt>
      <trkpt lat="22.904269" lon="111.222947">
        <ele>187.848511</ele>
        <time>2026-08-18T07:48:25.000Z</time>
      </trkpt>
      <trkpt lat="22.904254" lon="111.222985">
        <ele>187.904508</ele>
        <time>2026-08-18T07:48:26.000Z</time>
      </trkpt>
      <trkpt lat="22.904241" lon="111.223024">
        <ele>187.960685</ele>
        <time>2026-08-18T07:48:27.000Z</time>
      </trkpt>
      <trkpt lat="22.904227" lon="111.223063">
        <ele>188.017379</ele>
        <time>2026-08-18T07:48:28.000Z</time>
      </trkpt>
      <trkpt lat="22.904213" lon="111.223102">
        <ele>188.074073</ele>
        <time>2026-08-18T07:48:29.000Z</time>
      </trkpt>
      <trkpt lat="22.904199" lon="111.223142">
        <ele>188.132031</ele>
        <time>2026-08-18T07:48:30.000Z</time>
      </trkpt>
      <trkpt lat="22.904186" lon="111.223182">
        <ele>188.189484</ele>
        <time>2026-08-18T07:48:31.000Z</time>
      </trkpt>
      <trkpt lat="22.904175" lon="111.223222">
        <ele>188.246026</ele>
        <time>2026-08-18T07:48:32.000Z</time>
      </trkpt>
      <trkpt lat="22.904163" lon="111.223261">
        <ele>188.301720</ele>
        <time>2026-08-18T07:48:33.000Z</time>
      </trkpt>
      <trkpt lat="22.904152" lon="111.223300">
        <ele>188.356966</ele>
        <time>2026-08-18T07:48:34.000Z</time>
      </trkpt>
      <trkpt lat="22.904144" lon="111.223339">
        <ele>188.411085</ele>
        <time>2026-08-18T07:48:35.000Z</time>
      </trkpt>
      <trkpt lat="22.904136" lon="111.223378">
        <ele>188.465203</ele>
        <time>2026-08-18T07:48:36.000Z</time>
      </trkpt>
      <trkpt lat="22.904125" lon="111.223415">
        <ele>188.517865</ele>
        <time>2026-08-18T07:48:37.000Z</time>
      </trkpt>
      <trkpt lat="22.904110" lon="111.223452">
        <ele>188.572619</ele>
        <time>2026-08-18T07:48:38.000Z</time>
      </trkpt>
      <trkpt lat="22.904095" lon="111.223487">
        <ele>188.624906</ele>
        <time>2026-08-18T07:48:39.000Z</time>
      </trkpt>
      <trkpt lat="22.904080" lon="111.223522">
        <ele>188.677193</ele>
        <time>2026-08-18T07:48:40.000Z</time>
      </trkpt>
      <trkpt lat="22.904065" lon="111.223555">
        <ele>188.727036</ele>
        <time>2026-08-18T07:48:41.000Z</time>
      </trkpt>
      <trkpt lat="22.904052" lon="111.223590">
        <ele>188.778152</ele>
        <time>2026-08-18T07:48:42.000Z</time>
      </trkpt>
      <trkpt lat="22.904038" lon="111.223624">
        <ele>188.828596</ele>
        <time>2026-08-18T07:48:43.000Z</time>
      </trkpt>
      <trkpt lat="22.904025" lon="111.223659">
        <ele>188.879712</ele>
        <time>2026-08-18T07:48:44.000Z</time>
      </trkpt>
      <trkpt lat="22.904014" lon="111.223695">
        <ele>188.931086</ele>
        <time>2026-08-18T07:48:45.000Z</time>
      </trkpt>
      <trkpt lat="22.904004" lon="111.223732">
        <ele>188.983314</ele>
        <time>2026-08-18T07:48:46.000Z</time>
      </trkpt>
      <trkpt lat="22.903992" lon="111.223768">
        <ele>189.014070</ele>
        <time>2026-08-18T07:48:47.000Z</time>
      </trkpt>
      <trkpt lat="22.903979" lon="111.223804">
        <ele>189.031977</ele>
        <time>2026-08-18T07:48:48.000Z</time>
      </trkpt>
      <trkpt lat="22.903966" lon="111.223838">
        <ele>189.049025</ele>
        <time>2026-08-18T07:48:49.000Z</time>
      </trkpt>
      <trkpt lat="22.903954" lon="111.223872">
        <ele>189.065887</ele>
        <time>2026-08-18T07:48:50.000Z</time>
      </trkpt>
      <trkpt lat="22.903945" lon="111.223905">
        <ele>189.081825</ele>
        <time>2026-08-18T07:48:51.000Z</time>
      </trkpt>
      <trkpt lat="22.903936" lon="111.223936">
        <ele>189.096877</ele>
        <time>2026-08-18T07:48:52.000Z</time>
      </trkpt>
      <trkpt lat="22.903925" lon="111.223969">
        <ele>189.113129</ele>
        <time>2026-08-18T07:48:53.000Z</time>
      </trkpt>
      <trkpt lat="22.903915" lon="111.224003">
        <ele>189.129658</ele>
        <time>2026-08-18T07:48:54.000Z</time>
      </trkpt>
      <trkpt lat="22.903906" lon="111.224039">
        <ele>189.146933</ele>
        <time>2026-08-18T07:48:55.000Z</time>
      </trkpt>
      <trkpt lat="22.903895" lon="111.224075">
        <ele>189.164498</ele>
        <time>2026-08-18T07:48:56.000Z</time>
      </trkpt>
      <trkpt lat="22.903885" lon="111.224111">
        <ele>189.181911</ele>
        <time>2026-08-18T07:48:57.000Z</time>
      </trkpt>
      <trkpt lat="22.903874" lon="111.224149">
        <ele>189.200358</ele>
        <time>2026-08-18T07:48:58.000Z</time>
      </trkpt>
      <trkpt lat="22.903863" lon="111.224186">
        <ele>189.218363</ele>
        <time>2026-08-18T07:48:59.000Z</time>
      </trkpt>
      <trkpt lat="22.903852" lon="111.224226">
        <ele>189.237695</ele>
        <time>2026-08-18T07:49:00.000Z</time>
      </trkpt>
      <trkpt lat="22.903840" lon="111.224262">
        <ele>189.255425</ele>
        <time>2026-08-18T07:49:01.000Z</time>
      </trkpt>
      <trkpt lat="22.903829" lon="111.224298">
        <ele>189.272990</ele>
        <time>2026-08-18T07:49:02.000Z</time>
      </trkpt>
      <trkpt lat="22.903818" lon="111.224332">
        <ele>189.289678</ele>
        <time>2026-08-18T07:49:03.000Z</time>
      </trkpt>
      <trkpt lat="22.903807" lon="111.224364">
        <ele>189.305496</ele>
        <time>2026-08-18T07:49:04.000Z</time>
      </trkpt>
      <trkpt lat="22.903797" lon="111.224394">
        <ele>189.320271</ele>
        <time>2026-08-18T07:49:05.000Z</time>
      </trkpt>
      <trkpt lat="22.903786" lon="111.224424">
        <ele>189.335224</ele>
        <time>2026-08-18T07:49:06.000Z</time>
      </trkpt>
      <trkpt lat="22.903775" lon="111.224455">
        <ele>189.350609</ele>
        <time>2026-08-18T07:49:07.000Z</time>
      </trkpt>
      <trkpt lat="22.903763" lon="111.224489">
        <ele>189.367471</ele>
        <time>2026-08-18T07:49:08.000Z</time>
      </trkpt>
      <trkpt lat="22.903752" lon="111.224525">
        <ele>189.385036</ele>
        <time>2026-08-18T07:49:09.000Z</time>
      </trkpt>
      <trkpt lat="22.903741" lon="111.224561">
        <ele>189.402601</ele>
        <time>2026-08-18T07:49:10.000Z</time>
      </trkpt>
      <trkpt lat="22.903729" lon="111.224599">
        <ele>189.421204</ele>
        <time>2026-08-18T07:49:11.000Z</time>
      </trkpt>
      <trkpt lat="22.903716" lon="111.224640">
        <ele>189.441285</ele>
        <time>2026-08-18T07:49:12.000Z</time>
      </trkpt>
      <trkpt lat="22.903704" lon="111.224681">
        <ele>189.461208</ele>
        <time>2026-08-18T07:49:13.000Z</time>
      </trkpt>
      <trkpt lat="22.903694" lon="111.224722">
        <ele>189.480849</ele>
        <time>2026-08-18T07:49:14.000Z</time>
      </trkpt>
      <trkpt lat="22.903683" lon="111.224762">
        <ele>189.500181</ele>
        <time>2026-08-18T07:49:15.000Z</time>
      </trkpt>
      <trkpt lat="22.903673" lon="111.224798">
        <ele>189.517595</ele>
        <time>2026-08-18T07:49:16.000Z</time>
      </trkpt>
      <trkpt lat="22.903664" lon="111.224834">
        <ele>189.534870</ele>
        <time>2026-08-18T07:49:17.000Z</time>
      </trkpt>
      <trkpt lat="22.903653" lon="111.224869">
        <ele>189.551996</ele>
        <time>2026-08-18T07:49:18.000Z</time>
      </trkpt>
      <trkpt lat="22.903641" lon="111.224905">
        <ele>189.569726</ele>
        <time>2026-08-18T07:49:19.000Z</time>
      </trkpt>
      <trkpt lat="22.903630" lon="111.224941">
        <ele>189.587291</ele>
        <time>2026-08-18T07:49:20.000Z</time>
      </trkpt>
      <trkpt lat="22.903617" lon="111.224978">
        <ele>189.605630</ele>
        <time>2026-08-18T07:49:21.000Z</time>
      </trkpt>
      <trkpt lat="22.903604" lon="111.225015">
        <ele>189.623969</ele>
        <time>2026-08-18T07:49:22.000Z</time>
      </trkpt>
      <trkpt lat="22.903591" lon="111.225052">
        <ele>189.642308</ele>
        <time>2026-08-18T07:49:23.000Z</time>
      </trkpt>
      <trkpt lat="22.903580" lon="111.225091">
        <ele>189.661197</ele>
        <time>2026-08-18T07:49:24.000Z</time>
      </trkpt>
      <trkpt lat="22.903568" lon="111.225131">
        <ele>189.680678</ele>
        <time>2026-08-18T07:49:25.000Z</time>
      </trkpt>
      <trkpt lat="22.903556" lon="111.225171">
        <ele>189.700160</ele>
        <time>2026-08-18T07:49:26.000Z</time>
      </trkpt>
      <trkpt lat="22.903544" lon="111.225211">
        <ele>189.719642</ele>
        <time>2026-08-18T07:49:27.000Z</time>
      </trkpt>
      <trkpt lat="22.903532" lon="111.225251">
        <ele>189.739124</ele>
        <time>2026-08-18T07:49:28.000Z</time>
      </trkpt>
      <trkpt lat="22.903517" lon="111.225291">
        <ele>189.759125</ele>
        <time>2026-08-18T07:49:29.000Z</time>
      </trkpt>
      <trkpt lat="22.903504" lon="111.225331">
        <ele>189.778768</ele>
        <time>2026-08-18T07:49:30.000Z</time>
      </trkpt>
      <trkpt lat="22.903491" lon="111.225370">
        <ele>189.797975</ele>
        <time>2026-08-18T07:49:31.000Z</time>
      </trkpt>
      <trkpt lat="22.903479" lon="111.225412">
        <ele>189.818340</ele>
        <time>2026-08-18T07:49:32.000Z</time>
      </trkpt>
      <trkpt lat="22.903466" lon="111.225453">
        <ele>189.838421</ele>
        <time>2026-08-18T07:49:33.000Z</time>
      </trkpt>
      <trkpt lat="22.903452" lon="111.225494">
        <ele>189.858670</ele>
        <time>2026-08-18T07:49:34.000Z</time>
      </trkpt>
      <trkpt lat="22.903439" lon="111.225535">
        <ele>189.878751</ele>
        <time>2026-08-18T07:49:35.000Z</time>
      </trkpt>
      <trkpt lat="22.903427" lon="111.225579">
        <ele>189.900002</ele>
        <time>2026-08-18T07:49:36.000Z</time>
      </trkpt>
      <trkpt lat="22.903414" lon="111.225621">
        <ele>189.914622</ele>
        <time>2026-08-18T07:49:37.000Z</time>
      </trkpt>
      <trkpt lat="22.903401" lon="111.225662">
        <ele>189.925701</ele>
        <time>2026-08-18T07:49:38.000Z</time>
      </trkpt>
      <trkpt lat="22.903388" lon="111.225704">
        <ele>189.937022</ele>
        <time>2026-08-18T07:49:39.000Z</time>
      </trkpt>
      <trkpt lat="22.903375" lon="111.225747">
        <ele>189.948586</ele>
        <time>2026-08-18T07:49:40.000Z</time>
      </trkpt>
      <trkpt lat="22.903361" lon="111.225791">
        <ele>189.960480</ele>
        <time>2026-08-18T07:49:41.000Z</time>
      </trkpt>
      <trkpt lat="22.903348" lon="111.225835">
        <ele>189.972287</ele>
        <time>2026-08-18T07:49:42.000Z</time>
      </trkpt>
      <trkpt lat="22.903334" lon="111.225879">
        <ele>189.984182</ele>
        <time>2026-08-18T07:49:43.000Z</time>
      </trkpt>
      <trkpt lat="22.903320" lon="111.225922">
        <ele>189.995835</ele>
        <time>2026-08-18T07:49:44.000Z</time>
      </trkpt>
      <trkpt lat="22.903307" lon="111.225965">
        <ele>190.007398</ele>
        <time>2026-08-18T07:49:45.000Z</time>
      </trkpt>
      <trkpt lat="22.903291" lon="111.226005">
        <ele>190.018541</ele>
        <time>2026-08-18T07:49:46.000Z</time>
      </trkpt>
      <trkpt lat="22.903275" lon="111.226044">
        <ele>190.029450</ele>
        <time>2026-08-18T07:49:47.000Z</time>
      </trkpt>
      <trkpt lat="22.903260" lon="111.226084">
        <ele>190.040485</ele>
        <time>2026-08-18T07:49:48.000Z</time>
      </trkpt>
      <trkpt lat="22.903246" lon="111.226126">
        <ele>190.051897</ele>
        <time>2026-08-18T07:49:49.000Z</time>
      </trkpt>
      <trkpt lat="22.903232" lon="111.226168">
        <ele>190.063310</ele>
        <time>2026-08-18T07:49:50.000Z</time>
      </trkpt>
      <trkpt lat="22.903218" lon="111.226212">
        <ele>190.075204</ele>
        <time>2026-08-18T07:49:51.000Z</time>
      </trkpt>
      <trkpt lat="22.903206" lon="111.226255">
        <ele>190.086684</ele>
        <time>2026-08-18T07:49:52.000Z</time>
      </trkpt>
      <trkpt lat="22.903192" lon="111.226297">
        <ele>190.098097</ele>
        <time>2026-08-18T07:49:53.000Z</time>
      </trkpt>
      <trkpt lat="22.903178" lon="111.226338">
        <ele>190.109270</ele>
        <time>2026-08-18T07:49:54.000Z</time>
      </trkpt>
      <trkpt lat="22.903164" lon="111.226381">
        <ele>190.120923</ele>
        <time>2026-08-18T07:49:55.000Z</time>
      </trkpt>
      <trkpt lat="22.903151" lon="111.226424">
        <ele>190.132487</ele>
        <time>2026-08-18T07:49:56.000Z</time>
      </trkpt>
      <trkpt lat="22.903136" lon="111.226466">
        <ele>190.143996</ele>
        <time>2026-08-18T07:49:57.000Z</time>
      </trkpt>
      <trkpt lat="22.903123" lon="111.226510">
        <ele>190.155803</ele>
        <time>2026-08-18T07:49:58.000Z</time>
      </trkpt>
      <trkpt lat="22.903109" lon="111.226554">
        <ele>190.167698</ele>
        <time>2026-08-18T07:49:59.000Z</time>
      </trkpt>
      <trkpt lat="22.903095" lon="111.226597">
        <ele>190.179351</ele>
        <time>2026-08-18T07:50:00.000Z</time>
      </trkpt>
      <trkpt lat="22.903082" lon="111.226641">
        <ele>190.191158</ele>
        <time>2026-08-18T07:50:01.000Z</time>
      </trkpt>
      <trkpt lat="22.903068" lon="111.226686">
        <ele>190.203294</ele>
        <time>2026-08-18T07:50:02.000Z</time>
      </trkpt>
      <trkpt lat="22.903054" lon="111.226731">
        <ele>190.215430</ele>
        <time>2026-08-18T07:50:03.000Z</time>
      </trkpt>
      <trkpt lat="22.903039" lon="111.226775">
        <ele>190.227418</ele>
        <time>2026-08-18T07:50:04.000Z</time>
      </trkpt>
      <trkpt lat="22.903023" lon="111.226818">
        <ele>190.239267</ele>
        <time>2026-08-18T07:50:05.000Z</time>
      </trkpt>
      <trkpt lat="22.903011" lon="111.226862">
        <ele>190.250992</ele>
        <time>2026-08-18T07:50:06.000Z</time>
      </trkpt>
      <trkpt lat="22.902998" lon="111.226908">
        <ele>190.263287</ele>
        <time>2026-08-18T07:50:07.000Z</time>
      </trkpt>
      <trkpt lat="22.902984" lon="111.226952">
        <ele>190.275181</ele>
        <time>2026-08-18T07:50:08.000Z</time>
      </trkpt>
      <trkpt lat="22.902970" lon="111.226996">
        <ele>190.287076</ele>
        <time>2026-08-18T07:50:09.000Z</time>
      </trkpt>
      <trkpt lat="22.902957" lon="111.227040">
        <ele>190.298882</ele>
        <time>2026-08-18T07:50:10.000Z</time>
      </trkpt>
      <trkpt lat="22.902943" lon="111.227083">
        <ele>190.310536</ele>
        <time>2026-08-18T07:50:11.000Z</time>
      </trkpt>
      <trkpt lat="22.902930" lon="111.227127">
        <ele>190.322342</ele>
        <time>2026-08-18T07:50:12.000Z</time>
      </trkpt>
      <trkpt lat="22.902916" lon="111.227170">
        <ele>190.333996</ele>
        <time>2026-08-18T07:50:13.000Z</time>
      </trkpt>
      <trkpt lat="22.902903" lon="111.227212">
        <ele>190.345317</ele>
        <time>2026-08-18T07:50:14.000Z</time>
      </trkpt>
      <trkpt lat="22.902892" lon="111.227254">
        <ele>190.356474</ele>
        <time>2026-08-18T07:50:15.000Z</time>
      </trkpt>
      <trkpt lat="22.902879" lon="111.227295">
        <ele>190.367553</ele>
        <time>2026-08-18T07:50:16.000Z</time>
      </trkpt>
      <trkpt lat="22.902867" lon="111.227336">
        <ele>190.378545</ele>
        <time>2026-08-18T07:50:17.000Z</time>
      </trkpt>
      <trkpt lat="22.902855" lon="111.227376">
        <ele>190.389294</ele>
        <time>2026-08-18T07:50:18.000Z</time>
      </trkpt>
      <trkpt lat="22.902843" lon="111.227415">
        <ele>190.399800</ele>
        <time>2026-08-18T07:50:19.000Z</time>
      </trkpt>
      <trkpt lat="22.902831" lon="111.227453">
        <ele>190.416146</ele>
        <time>2026-08-18T07:50:20.000Z</time>
      </trkpt>
      <trkpt lat="22.902818" lon="111.227491">
        <ele>190.443109</ele>
        <time>2026-08-18T07:50:21.000Z</time>
      </trkpt>
      <trkpt lat="22.902805" lon="111.227529">
        <ele>190.470071</ele>
        <time>2026-08-18T07:50:22.000Z</time>
      </trkpt>
      <trkpt lat="22.902793" lon="111.227568">
        <ele>190.497420</ele>
        <time>2026-08-18T07:50:23.000Z</time>
      </trkpt>
      <trkpt lat="22.902781" lon="111.227608">
        <ele>190.525402</ele>
        <time>2026-08-18T07:50:24.000Z</time>
      </trkpt>
      <trkpt lat="22.902769" lon="111.227648">
        <ele>190.553383</ele>
        <time>2026-08-18T07:50:25.000Z</time>
      </trkpt>
      <trkpt lat="22.902756" lon="111.227687">
        <ele>190.580969</ele>
        <time>2026-08-18T07:50:26.000Z</time>
      </trkpt>
      <trkpt lat="22.902743" lon="111.227726">
        <ele>190.608556</ele>
        <time>2026-08-18T07:50:27.000Z</time>
      </trkpt>
      <trkpt lat="22.902730" lon="111.227764">
        <ele>190.635518</ele>
        <time>2026-08-18T07:50:28.000Z</time>
      </trkpt>
      <trkpt lat="22.902715" lon="111.227802">
        <ele>190.663017</ele>
        <time>2026-08-18T07:50:29.000Z</time>
      </trkpt>
      <trkpt lat="22.902702" lon="111.227839">
        <ele>190.689357</ele>
        <time>2026-08-18T07:50:30.000Z</time>
      </trkpt>
      <trkpt lat="22.902689" lon="111.227882">
        <ele>190.719459</ele>
        <time>2026-08-18T07:50:31.000Z</time>
      </trkpt>
      <trkpt lat="22.902674" lon="111.227924">
        <ele>190.749421</ele>
        <time>2026-08-18T07:50:32.000Z</time>
      </trkpt>
      <trkpt lat="22.902663" lon="111.227964">
        <ele>190.777187</ele>
        <time>2026-08-18T07:50:33.000Z</time>
      </trkpt>
      <trkpt lat="22.902650" lon="111.228003">
        <ele>190.804774</ele>
        <time>2026-08-18T07:50:34.000Z</time>
      </trkpt>
      <trkpt lat="22.902636" lon="111.228041">
        <ele>190.831996</ele>
        <time>2026-08-18T07:50:35.000Z</time>
      </trkpt>
      <trkpt lat="22.902624" lon="111.228083">
        <ele>190.861245</ele>
        <time>2026-08-18T07:50:36.000Z</time>
      </trkpt>
      <trkpt lat="22.902609" lon="111.228125">
        <ele>190.891207</ele>
        <time>2026-08-18T07:50:37.000Z</time>
      </trkpt>
      <trkpt lat="22.902596" lon="111.228169">
        <ele>190.921942</ele>
        <time>2026-08-18T07:50:38.000Z</time>
      </trkpt>
      <trkpt lat="22.902584" lon="111.228212">
        <ele>190.951827</ele>
        <time>2026-08-18T07:50:39.000Z</time>
      </trkpt>
      <trkpt lat="22.902572" lon="111.228256">
        <ele>190.982349</ele>
        <time>2026-08-18T07:50:40.000Z</time>
      </trkpt>
      <trkpt lat="22.902561" lon="111.228302">
        <ele>191.013960</ele>
        <time>2026-08-18T07:50:41.000Z</time>
      </trkpt>
      <trkpt lat="22.902548" lon="111.228348">
        <ele>191.045964</ele>
        <time>2026-08-18T07:50:42.000Z</time>
      </trkpt>
      <trkpt lat="22.902535" lon="111.228392">
        <ele>191.076699</ele>
        <time>2026-08-18T07:50:43.000Z</time>
      </trkpt>
      <trkpt lat="22.902521" lon="111.228436">
        <ele>191.107662</ele>
        <time>2026-08-18T07:50:44.000Z</time>
      </trkpt>
      <trkpt lat="22.902507" lon="111.228481">
        <ele>191.139255</ele>
        <time>2026-08-18T07:50:45.000Z</time>
      </trkpt>
      <trkpt lat="22.902492" lon="111.228525">
        <ele>191.170461</ele>
        <time>2026-08-18T07:50:46.000Z</time>
      </trkpt>
      <trkpt lat="22.902478" lon="111.228569">
        <ele>191.201424</ele>
        <time>2026-08-18T07:50:47.000Z</time>
      </trkpt>
      <trkpt lat="22.902462" lon="111.228614">
        <ele>191.233508</ele>
        <time>2026-08-18T07:50:48.000Z</time>
      </trkpt>
      <trkpt lat="22.902449" lon="111.228658">
        <ele>191.264243</ele>
        <time>2026-08-18T07:50:49.000Z</time>
      </trkpt>
      <trkpt lat="22.902436" lon="111.228705">
        <ele>191.296883</ele>
        <time>2026-08-18T07:50:50.000Z</time>
      </trkpt>
      <trkpt lat="22.902424" lon="111.228752">
        <ele>191.329324</ele>
        <time>2026-08-18T07:50:51.000Z</time>
      </trkpt>
      <trkpt lat="22.902411" lon="111.228797">
        <ele>191.360693</ele>
        <time>2026-08-18T07:50:52.000Z</time>
      </trkpt>
      <trkpt lat="22.902399" lon="111.228841">
        <ele>191.391215</ele>
        <time>2026-08-18T07:50:53.000Z</time>
      </trkpt>
      <trkpt lat="22.902386" lon="111.228887">
        <ele>191.423219</ele>
        <time>2026-08-18T07:50:54.000Z</time>
      </trkpt>
      <trkpt lat="22.902371" lon="111.228932">
        <ele>191.455050</ele>
        <time>2026-08-18T07:50:55.000Z</time>
      </trkpt>
      <trkpt lat="22.902356" lon="111.228977">
        <ele>191.486881</ele>
        <time>2026-08-18T07:50:56.000Z</time>
      </trkpt>
      <trkpt lat="22.902341" lon="111.229022">
        <ele>191.518712</ele>
        <time>2026-08-18T07:50:57.000Z</time>
      </trkpt>
      <trkpt lat="22.902327" lon="111.229067">
        <ele>191.550305</ele>
        <time>2026-08-18T07:50:58.000Z</time>
      </trkpt>
      <trkpt lat="22.902312" lon="111.229115">
        <ele>191.584019</ele>
        <time>2026-08-18T07:50:59.000Z</time>
      </trkpt>
      <trkpt lat="22.902299" lon="111.229159">
        <ele>191.614754</ele>
        <time>2026-08-18T07:51:00.000Z</time>
      </trkpt>
      <trkpt lat="22.902286" lon="111.229203">
        <ele>191.645489</ele>
        <time>2026-08-18T07:51:01.000Z</time>
      </trkpt>
      <trkpt lat="22.902270" lon="111.229247">
        <ele>191.676953</ele>
        <time>2026-08-18T07:51:02.000Z</time>
      </trkpt>
      <trkpt lat="22.902254" lon="111.229290">
        <ele>191.703487</ele>
        <time>2026-08-18T07:51:03.000Z</time>
      </trkpt>
      <trkpt lat="22.902239" lon="111.229334">
        <ele>191.686421</ele>
        <time>2026-08-18T07:51:04.000Z</time>
      </trkpt>
      <trkpt lat="22.902224" lon="111.229380">
        <ele>191.668671</ele>
        <time>2026-08-18T07:51:05.000Z</time>
      </trkpt>
      <trkpt lat="22.902210" lon="111.229425">
        <ele>191.651393</ele>
        <time>2026-08-18T07:51:06.000Z</time>
      </trkpt>
      <trkpt lat="22.902197" lon="111.229471">
        <ele>191.633891</ele>
        <time>2026-08-18T07:51:07.000Z</time>
      </trkpt>
      <trkpt lat="22.902185" lon="111.229516">
        <ele>191.616850</ele>
        <time>2026-08-18T07:51:08.000Z</time>
      </trkpt>
      <trkpt lat="22.902173" lon="111.229559">
        <ele>191.600506</ele>
        <time>2026-08-18T07:51:09.000Z</time>
      </trkpt>
      <trkpt lat="22.902163" lon="111.229605">
        <ele>191.583314</ele>
        <time>2026-08-18T07:51:10.000Z</time>
      </trkpt>
      <trkpt lat="22.902153" lon="111.229651">
        <ele>191.566121</ele>
        <time>2026-08-18T07:51:11.000Z</time>
      </trkpt>
      <trkpt lat="22.902142" lon="111.229695">
        <ele>191.549537</ele>
        <time>2026-08-18T07:51:12.000Z</time>
      </trkpt>
      <trkpt lat="22.902131" lon="111.229738">
        <ele>191.533303</ele>
        <time>2026-08-18T07:51:13.000Z</time>
      </trkpt>
      <trkpt lat="22.902120" lon="111.229782">
        <ele>191.516719</ele>
        <time>2026-08-18T07:51:14.000Z</time>
      </trkpt>
      <trkpt lat="22.902111" lon="111.229825">
        <ele>191.500679</ele>
        <time>2026-08-18T07:51:15.000Z</time>
      </trkpt>
      <trkpt lat="22.902099" lon="111.229867">
        <ele>191.484683</ele>
        <time>2026-08-18T07:51:16.000Z</time>
      </trkpt>
      <trkpt lat="22.902090" lon="111.229909">
        <ele>191.468997</ele>
        <time>2026-08-18T07:51:17.000Z</time>
      </trkpt>
      <trkpt lat="22.902081" lon="111.229952">
        <ele>191.452957</ele>
        <time>2026-08-18T07:51:18.000Z</time>
      </trkpt>
      <trkpt lat="22.902072" lon="111.229996">
        <ele>191.436562</ele>
        <time>2026-08-18T07:51:19.000Z</time>
      </trkpt>
      <trkpt lat="22.902063" lon="111.230039">
        <ele>191.420521</ele>
        <time>2026-08-18T07:51:20.000Z</time>
      </trkpt>
      <trkpt lat="22.902056" lon="111.230083">
        <ele>191.404279</ele>
        <time>2026-08-18T07:51:21.000Z</time>
      </trkpt>
      <trkpt lat="22.902048" lon="111.230128">
        <ele>191.387608</ele>
        <time>2026-08-18T07:51:22.000Z</time>
      </trkpt>
      <trkpt lat="22.902040" lon="111.230175">
        <ele>191.370222</ele>
        <time>2026-08-18T07:51:23.000Z</time>
      </trkpt>
      <trkpt lat="22.902034" lon="111.230223">
        <ele>191.352602</ele>
        <time>2026-08-18T07:51:24.000Z</time>
      </trkpt>
      <trkpt lat="22.902029" lon="111.230270">
        <ele>191.335391</ele>
        <time>2026-08-18T07:51:25.000Z</time>
      </trkpt>
      <trkpt lat="22.902024" lon="111.230317">
        <ele>191.318181</ele>
        <time>2026-08-18T07:51:26.000Z</time>
      </trkpt>
      <trkpt lat="22.902021" lon="111.230364">
        <ele>191.301044</ele>
        <time>2026-08-18T07:51:27.000Z</time>
      </trkpt>
      <trkpt lat="22.902020" lon="111.230410">
        <ele>191.284306</ele>
        <time>2026-08-18T07:51:28.000Z</time>
      </trkpt>
      <trkpt lat="22.902019" lon="111.230456">
        <ele>191.267568</ele>
        <time>2026-08-18T07:51:29.000Z</time>
      </trkpt>
      <trkpt lat="22.902015" lon="111.230501">
        <ele>191.251123</ele>
        <time>2026-08-18T07:51:30.000Z</time>
      </trkpt>
      <trkpt lat="22.902012" lon="111.230545">
        <ele>191.235074</ele>
        <time>2026-08-18T07:51:31.000Z</time>
      </trkpt>
      <trkpt lat="22.902012" lon="111.230589">
        <ele>191.219069</ele>
        <time>2026-08-18T07:51:32.000Z</time>
      </trkpt>
      <trkpt lat="22.902011" lon="111.230632">
        <ele>191.203422</ele>
        <time>2026-08-18T07:51:33.000Z</time>
      </trkpt>
      <trkpt lat="22.902008" lon="111.230674">
        <ele>191.188099</ele>
        <time>2026-08-18T07:51:34.000Z</time>
      </trkpt>
      <trkpt lat="22.902004" lon="111.230716">
        <ele>191.172739</ele>
        <time>2026-08-18T07:51:35.000Z</time>
      </trkpt>
      <trkpt lat="22.902003" lon="111.230759">
        <ele>191.157093</ele>
        <time>2026-08-18T07:51:36.000Z</time>
      </trkpt>
      <trkpt lat="22.902004" lon="111.230802">
        <ele>191.141446</ele>
        <time>2026-08-18T07:51:37.000Z</time>
      </trkpt>
      <trkpt lat="22.902003" lon="111.230846">
        <ele>191.125436</ele>
        <time>2026-08-18T07:51:38.000Z</time>
      </trkpt>
      <trkpt lat="22.902004" lon="111.230893">
        <ele>191.108335</ele>
        <time>2026-08-18T07:51:39.000Z</time>
      </trkpt>
      <trkpt lat="22.902005" lon="111.230939">
        <ele>191.091597</ele>
        <time>2026-08-18T07:51:40.000Z</time>
      </trkpt>
      <trkpt lat="22.902008" lon="111.230986">
        <ele>191.074460</ele>
        <time>2026-08-18T07:51:41.000Z</time>
      </trkpt>
      <trkpt lat="22.902011" lon="111.231034">
        <ele>191.056959</ele>
        <time>2026-08-18T07:51:42.000Z</time>
      </trkpt>
      <trkpt lat="22.902015" lon="111.231084">
        <ele>191.038703</ele>
        <time>2026-08-18T07:51:43.000Z</time>
      </trkpt>
      <trkpt lat="22.902019" lon="111.231132">
        <ele>191.021171</ele>
        <time>2026-08-18T07:51:44.000Z</time>
      </trkpt>
      <trkpt lat="22.902023" lon="111.231179">
        <ele>191.004002</ele>
        <time>2026-08-18T07:51:45.000Z</time>
      </trkpt>
      <trkpt lat="22.902029" lon="111.231226">
        <ele>190.950911</ele>
        <time>2026-08-18T07:51:46.000Z</time>
      </trkpt>
      <trkpt lat="22.902035" lon="111.231273">
        <ele>190.856452</ele>
        <time>2026-08-18T07:51:47.000Z</time>
      </trkpt>
      <trkpt lat="22.902041" lon="111.231321">
        <ele>190.760022</ele>
        <time>2026-08-18T07:51:48.000Z</time>
      </trkpt>
      <trkpt lat="22.902047" lon="111.231366">
        <ele>190.669506</ele>
        <time>2026-08-18T07:51:49.000Z</time>
      </trkpt>
      <trkpt lat="22.902053" lon="111.231411">
        <ele>190.578989</ele>
        <time>2026-08-18T07:51:50.000Z</time>
      </trkpt>
      <trkpt lat="22.902060" lon="111.231457">
        <ele>190.486175</ele>
        <time>2026-08-18T07:51:51.000Z</time>
      </trkpt>
      <trkpt lat="22.902067" lon="111.231503">
        <ele>190.393360</ele>
        <time>2026-08-18T07:51:52.000Z</time>
      </trkpt>
      <trkpt lat="22.902076" lon="111.231549">
        <ele>190.299744</ele>
        <time>2026-08-18T07:51:53.000Z</time>
      </trkpt>
      <trkpt lat="22.902086" lon="111.231596">
        <ele>190.203717</ele>
        <time>2026-08-18T07:51:54.000Z</time>
      </trkpt>
      <trkpt lat="22.902095" lon="111.231644">
        <ele>190.106203</ele>
        <time>2026-08-18T07:51:55.000Z</time>
      </trkpt>
      <trkpt lat="22.902104" lon="111.231691">
        <ele>190.010638</ele>
        <time>2026-08-18T07:51:56.000Z</time>
      </trkpt>
      <trkpt lat="22.902114" lon="111.231738">
        <ele>189.914611</ele>
        <time>2026-08-18T07:51:57.000Z</time>
      </trkpt>
      <trkpt lat="22.902124" lon="111.231786">
        <ele>189.816643</ele>
        <time>2026-08-18T07:51:58.000Z</time>
      </trkpt>
      <trkpt lat="22.902135" lon="111.231833">
        <ele>189.720106</ele>
        <time>2026-08-18T07:51:59.000Z</time>
      </trkpt>
      <trkpt lat="22.902148" lon="111.231881">
        <ele>189.620507</ele>
        <time>2026-08-18T07:52:00.000Z</time>
      </trkpt>
      <trkpt lat="22.902160" lon="111.231929">
        <ele>189.521496</ele>
        <time>2026-08-18T07:52:01.000Z</time>
      </trkpt>
      <trkpt lat="22.902172" lon="111.231977">
        <ele>189.422484</ele>
        <time>2026-08-18T07:52:02.000Z</time>
      </trkpt>
      <trkpt lat="22.902186" lon="111.232025">
        <ele>189.322254</ele>
        <time>2026-08-18T07:52:03.000Z</time>
      </trkpt>
      <trkpt lat="22.902200" lon="111.232075">
        <ele>189.218221</ele>
        <time>2026-08-18T07:52:04.000Z</time>
      </trkpt>
      <trkpt lat="22.902214" lon="111.232126">
        <ele>189.112282</ele>
        <time>2026-08-18T07:52:05.000Z</time>
      </trkpt>
      <trkpt lat="22.902232" lon="111.232175">
        <ele>189.007267</ele>
        <time>2026-08-18T07:52:06.000Z</time>
      </trkpt>
      <trkpt lat="22.902250" lon="111.232225">
        <ele>188.900399</ele>
        <time>2026-08-18T07:52:07.000Z</time>
      </trkpt>
      <trkpt lat="22.902267" lon="111.232276">
        <ele>188.792430</ele>
        <time>2026-08-18T07:52:08.000Z</time>
      </trkpt>
      <trkpt lat="22.902283" lon="111.232328">
        <ele>188.683290</ele>
        <time>2026-08-18T07:52:09.000Z</time>
      </trkpt>
      <trkpt lat="22.902304" lon="111.232377">
        <ele>188.575704</ele>
        <time>2026-08-18T07:52:10.000Z</time>
      </trkpt>
      <trkpt lat="22.902327" lon="111.232425">
        <ele>188.467995</ele>
        <time>2026-08-18T07:52:11.000Z</time>
      </trkpt>
      <trkpt lat="22.902347" lon="111.232475">
        <ele>188.359480</ele>
        <time>2026-08-18T07:52:12.000Z</time>
      </trkpt>
      <trkpt lat="22.902367" lon="111.232526">
        <ele>188.249136</ele>
        <time>2026-08-18T07:52:13.000Z</time>
      </trkpt>
      <trkpt lat="22.902386" lon="111.232578">
        <ele>188.137772</ele>
        <time>2026-08-18T07:52:14.000Z</time>
      </trkpt>
      <trkpt lat="22.902405" lon="111.232633">
        <ele>188.020837</ele>
        <time>2026-08-18T07:52:15.000Z</time>
      </trkpt>
      <trkpt lat="22.902426" lon="111.232688">
        <ele>187.902314</ele>
        <time>2026-08-18T07:52:16.000Z</time>
      </trkpt>
      <trkpt lat="22.902449" lon="111.232741">
        <ele>187.785684</ele>
        <time>2026-08-18T07:52:17.000Z</time>
      </trkpt>
      <trkpt lat="22.902472" lon="111.232795">
        <ele>187.667250</ele>
        <time>2026-08-18T07:52:18.000Z</time>
      </trkpt>
      <trkpt lat="22.902496" lon="111.232848">
        <ele>187.549683</ele>
        <time>2026-08-18T07:52:19.000Z</time>
      </trkpt>
      <trkpt lat="22.902522" lon="111.232902">
        <ele>187.428386</ele>
        <time>2026-08-18T07:52:20.000Z</time>
      </trkpt>
      <trkpt lat="22.902549" lon="111.232959">
        <ele>187.300791</ele>
        <time>2026-08-18T07:52:21.000Z</time>
      </trkpt>
      <trkpt lat="22.902574" lon="111.233016">
        <ele>187.175115</ele>
        <time>2026-08-18T07:52:22.000Z</time>
      </trkpt>
      <trkpt lat="22.902599" lon="111.233074">
        <ele>187.044721</ele>
        <time>2026-08-18T07:52:23.000Z</time>
      </trkpt>
      <trkpt lat="22.902624" lon="111.233133">
        <ele>186.909164</ele>
        <time>2026-08-18T07:52:24.000Z</time>
      </trkpt>
      <trkpt lat="22.902650" lon="111.233191">
        <ele>186.774524</ele>
        <time>2026-08-18T07:52:25.000Z</time>
      </trkpt>
      <trkpt lat="22.902676" lon="111.233250">
        <ele>186.638005</ele>
        <time>2026-08-18T07:52:26.000Z</time>
      </trkpt>
      <trkpt lat="22.902701" lon="111.233310">
        <ele>186.500548</ele>
        <time>2026-08-18T07:52:27.000Z</time>
      </trkpt>
      <trkpt lat="22.902726" lon="111.233370">
        <ele>186.363092</ele>
        <time>2026-08-18T07:52:28.000Z</time>
      </trkpt>
      <trkpt lat="22.902751" lon="111.233430">
        <ele>186.225636</ele>
        <time>2026-08-18T07:52:29.000Z</time>
      </trkpt>
      <trkpt lat="22.902778" lon="111.233492">
        <ele>186.082488</ele>
        <time>2026-08-18T07:52:30.000Z</time>
      </trkpt>
      <trkpt lat="22.902806" lon="111.233554">
        <ele>185.938357</ele>
        <time>2026-08-18T07:52:31.000Z</time>
      </trkpt>
      <trkpt lat="22.902834" lon="111.233616">
        <ele>185.794227</ele>
        <time>2026-08-18T07:52:32.000Z</time>
      </trkpt>
      <trkpt lat="22.902860" lon="111.233679">
        <ele>185.650130</ele>
        <time>2026-08-18T07:52:33.000Z</time>
      </trkpt>
      <trkpt lat="22.902887" lon="111.233742">
        <ele>185.505093</ele>
        <time>2026-08-18T07:52:34.000Z</time>
      </trkpt>
      <trkpt lat="22.902914" lon="111.233803">
        <ele>185.363829</ele>
        <time>2026-08-18T07:52:35.000Z</time>
      </trkpt>
      <trkpt lat="22.902940" lon="111.233864">
        <ele>185.223532</ele>
        <time>2026-08-18T07:52:36.000Z</time>
      </trkpt>
      <trkpt lat="22.902966" lon="111.233925">
        <ele>185.083235</ele>
        <time>2026-08-18T07:52:37.000Z</time>
      </trkpt>
      <trkpt lat="22.902995" lon="111.233987">
        <ele>184.938093</ele>
        <time>2026-08-18T07:52:38.000Z</time>
      </trkpt>
      <trkpt lat="22.903022" lon="111.234050">
        <ele>184.793055</ele>
        <time>2026-08-18T07:52:39.000Z</time>
      </trkpt>
      <trkpt lat="22.903049" lon="111.234114">
        <ele>184.646123</ele>
        <time>2026-08-18T07:52:40.000Z</time>
      </trkpt>
      <trkpt lat="22.903076" lon="111.234179">
        <ele>184.497290</ele>
        <time>2026-08-18T07:52:41.000Z</time>
      </trkpt>
      <trkpt lat="22.903101" lon="111.234245">
        <ele>184.348334</ele>
        <time>2026-08-18T07:52:42.000Z</time>
      </trkpt>
      <trkpt lat="22.903129" lon="111.234312">
        <ele>184.194763</ele>
        <time>2026-08-18T07:52:43.000Z</time>
      </trkpt>
      <trkpt lat="22.903158" lon="111.234381">
        <ele>184.036455</ele>
        <time>2026-08-18T07:52:44.000Z</time>
      </trkpt>
      <trkpt lat="22.903187" lon="111.234448">
        <ele>183.881935</ele>
        <time>2026-08-18T07:52:45.000Z</time>
      </trkpt>
      <trkpt lat="22.903218" lon="111.234516">
        <ele>183.723565</ele>
        <time>2026-08-18T07:52:46.000Z</time>
      </trkpt>
      <trkpt lat="22.903250" lon="111.234585">
        <ele>183.562316</ele>
        <time>2026-08-18T07:52:47.000Z</time>
      </trkpt>
      <trkpt lat="22.903281" lon="111.234653">
        <ele>183.403947</ele>
        <time>2026-08-18T07:52:48.000Z</time>
      </trkpt>
      <trkpt lat="22.903311" lon="111.234722">
        <ele>183.244685</ele>
        <time>2026-08-18T07:52:49.000Z</time>
      </trkpt>
      <trkpt lat="22.903342" lon="111.234791">
        <ele>183.084442</ele>
        <time>2026-08-18T07:52:50.000Z</time>
      </trkpt>
      <trkpt lat="22.903373" lon="111.234862">
        <ele>183.028933</ele>
        <time>2026-08-18T07:52:51.000Z</time>
      </trkpt>
      <trkpt lat="22.903406" lon="111.234931">
        <ele>183.024372</ele>
        <time>2026-08-18T07:52:52.000Z</time>
      </trkpt>
      <trkpt lat="22.903439" lon="111.235000">
        <ele>183.019810</ele>
        <time>2026-08-18T07:52:53.000Z</time>
      </trkpt>
      <trkpt lat="22.903467" lon="111.235072">
        <ele>183.015225</ele>
        <time>2026-08-18T07:52:54.000Z</time>
      </trkpt>
      <trkpt lat="22.903492" lon="111.235143">
        <ele>183.010765</ele>
        <time>2026-08-18T07:52:55.000Z</time>
      </trkpt>
      <trkpt lat="22.903518" lon="111.235215">
        <ele>183.006228</ele>
        <time>2026-08-18T07:52:56.000Z</time>
      </trkpt>
      <trkpt lat="22.903546" lon="111.235285">
        <ele>183.001750</ele>
        <time>2026-08-18T07:52:57.000Z</time>
      </trkpt>
      <trkpt lat="22.903575" lon="111.235354">
        <ele>182.997301</ele>
        <time>2026-08-18T07:52:58.000Z</time>
      </trkpt>
      <trkpt lat="22.903604" lon="111.235422">
        <ele>182.992904</ele>
        <time>2026-08-18T07:52:59.000Z</time>
      </trkpt>
      <trkpt lat="22.903635" lon="111.235489">
        <ele>182.988505</ele>
        <time>2026-08-18T07:53:00.000Z</time>
      </trkpt>
      <trkpt lat="22.903664" lon="111.235555">
        <ele>182.984215</ele>
        <time>2026-08-18T07:53:01.000Z</time>
      </trkpt>
      <trkpt lat="22.903693" lon="111.235619">
        <ele>182.980030</ele>
        <time>2026-08-18T07:53:02.000Z</time>
      </trkpt>
      <trkpt lat="22.903721" lon="111.235681">
        <ele>182.975979</ele>
        <time>2026-08-18T07:53:03.000Z</time>
      </trkpt>
      <trkpt lat="22.903748" lon="111.235744">
        <ele>182.971902</ele>
        <time>2026-08-18T07:53:04.000Z</time>
      </trkpt>
      <trkpt lat="22.903775" lon="111.235805">
        <ele>182.967932</ele>
        <time>2026-08-18T07:53:05.000Z</time>
      </trkpt>
      <trkpt lat="22.903799" lon="111.235864">
        <ele>182.964147</ele>
        <time>2026-08-18T07:53:06.000Z</time>
      </trkpt>
      <trkpt lat="22.903823" lon="111.235922">
        <ele>182.960417</ele>
        <time>2026-08-18T07:53:07.000Z</time>
      </trkpt>
      <trkpt lat="22.903849" lon="111.235977">
        <ele>182.956790</ele>
        <time>2026-08-18T07:53:08.000Z</time>
      </trkpt>
      <trkpt lat="22.903872" lon="111.236030">
        <ele>182.953353</ele>
        <time>2026-08-18T07:53:09.000Z</time>
      </trkpt>
      <trkpt lat="22.903895" lon="111.236081">
        <ele>182.950021</ele>
        <time>2026-08-18T07:53:10.000Z</time>
      </trkpt>
      <trkpt lat="22.903914" lon="111.236133">
        <ele>182.946739</ele>
        <time>2026-08-18T07:53:11.000Z</time>
      </trkpt>
      <trkpt lat="22.903933" lon="111.236184">
        <ele>182.943511</ele>
        <time>2026-08-18T07:53:12.000Z</time>
      </trkpt>
      <trkpt lat="22.903952" lon="111.236233">
        <ele>182.940392</ele>
        <time>2026-08-18T07:53:13.000Z</time>
      </trkpt>
      <trkpt lat="22.903970" lon="111.236282">
        <ele>182.937297</ele>
        <time>2026-08-18T07:53:14.000Z</time>
      </trkpt>
      <trkpt lat="22.903985" lon="111.236330">
        <ele>182.934323</ele>
        <time>2026-08-18T07:53:15.000Z</time>
      </trkpt>
      <trkpt lat="22.903999" lon="111.236377">
        <ele>182.931425</ele>
        <time>2026-08-18T07:53:16.000Z</time>
      </trkpt>
      <trkpt lat="22.904014" lon="111.236422">
        <ele>182.928617</ele>
        <time>2026-08-18T07:53:17.000Z</time>
      </trkpt>
      <trkpt lat="22.904029" lon="111.236467">
        <ele>182.925809</ele>
        <time>2026-08-18T07:53:18.000Z</time>
      </trkpt>
      <trkpt lat="22.904046" lon="111.236510">
        <ele>182.923064</ele>
        <time>2026-08-18T07:53:19.000Z</time>
      </trkpt>
      <trkpt lat="22.904062" lon="111.236554">
        <ele>182.920289</ele>
        <time>2026-08-18T07:53:20.000Z</time>
      </trkpt>
      <trkpt lat="22.904077" lon="111.236598">
        <ele>182.917536</ele>
        <time>2026-08-18T07:53:21.000Z</time>
      </trkpt>
      <trkpt lat="22.904091" lon="111.236644">
        <ele>182.956949</ele>
        <time>2026-08-18T07:53:22.000Z</time>
      </trkpt>
      <trkpt lat="22.904103" lon="111.236691">
        <ele>182.997012</ele>
        <time>2026-08-18T07:53:23.000Z</time>
      </trkpt>
      <trkpt lat="22.904116" lon="111.236737">
        <ele>183.036537</ele>
        <time>2026-08-18T07:53:24.000Z</time>
      </trkpt>
      <trkpt lat="22.904129" lon="111.236784">
        <ele>183.076848</ele>
        <time>2026-08-18T07:53:25.000Z</time>
      </trkpt>
      <trkpt lat="22.904139" lon="111.236830">
        <ele>183.115673</ele>
        <time>2026-08-18T07:53:26.000Z</time>
      </trkpt>
      <trkpt lat="22.904150" lon="111.236876">
        <ele>183.154712</ele>
        <time>2026-08-18T07:53:27.000Z</time>
      </trkpt>
      <trkpt lat="22.904162" lon="111.236919">
        <ele>183.191620</ele>
        <time>2026-08-18T07:53:28.000Z</time>
      </trkpt>
      <trkpt lat="22.904172" lon="111.236963">
        <ele>183.228847</ele>
        <time>2026-08-18T07:53:29.000Z</time>
      </trkpt>
      <trkpt lat="22.904182" lon="111.237007">
        <ele>183.266075</ele>
        <time>2026-08-18T07:53:30.000Z</time>
      </trkpt>
      <trkpt lat="22.904190" lon="111.237052">
        <ele>183.303722</ele>
        <time>2026-08-18T07:53:31.000Z</time>
      </trkpt>
      <trkpt lat="22.904198" lon="111.237098">
        <ele>183.342177</ele>
        <time>2026-08-18T07:53:32.000Z</time>
      </trkpt>
      <trkpt lat="22.904205" lon="111.237143">
        <ele>183.379665</ele>
        <time>2026-08-18T07:53:33.000Z</time>
      </trkpt>
      <trkpt lat="22.904212" lon="111.237188">
        <ele>183.417154</ele>
        <time>2026-08-18T07:53:34.000Z</time>
      </trkpt>
      <trkpt lat="22.904219" lon="111.237233">
        <ele>183.454642</ele>
        <time>2026-08-18T07:53:35.000Z</time>
      </trkpt>
      <trkpt lat="22.904228" lon="111.237279">
        <ele>183.493272</ele>
        <time>2026-08-18T07:53:36.000Z</time>
      </trkpt>
      <trkpt lat="22.904235" lon="111.237325">
        <ele>183.531571</ele>
        <time>2026-08-18T07:53:37.000Z</time>
      </trkpt>
      <trkpt lat="22.904241" lon="111.237371">
        <ele>183.569734</ele>
        <time>2026-08-18T07:53:38.000Z</time>
      </trkpt>
      <trkpt lat="22.904246" lon="111.237417">
        <ele>183.607783</ele>
        <time>2026-08-18T07:53:39.000Z</time>
      </trkpt>
      <trkpt lat="22.904252" lon="111.237463">
        <ele>183.645947</ele>
        <time>2026-08-18T07:53:40.000Z</time>
      </trkpt>
      <trkpt lat="22.904257" lon="111.237508">
        <ele>183.683180</ele>
        <time>2026-08-18T07:53:41.000Z</time>
      </trkpt>
      <trkpt lat="22.904261" lon="111.237553">
        <ele>183.720317</ele>
        <time>2026-08-18T07:53:42.000Z</time>
      </trkpt>
      <trkpt lat="22.904264" lon="111.237598">
        <ele>183.757378</ele>
        <time>2026-08-18T07:53:43.000Z</time>
      </trkpt>
      <trkpt lat="22.904268" lon="111.237643">
        <ele>183.794515</ele>
        <time>2026-08-18T07:53:44.000Z</time>
      </trkpt>
      <trkpt lat="22.904271" lon="111.237688">
        <ele>183.831577</ele>
        <time>2026-08-18T07:53:45.000Z</time>
      </trkpt>
      <trkpt lat="22.904274" lon="111.237732">
        <ele>183.867820</ele>
        <time>2026-08-18T07:53:46.000Z</time>
      </trkpt>
      <trkpt lat="22.904275" lon="111.237778">
        <ele>183.905617</ele>
        <time>2026-08-18T07:53:47.000Z</time>
      </trkpt>
      <trkpt lat="22.904276" lon="111.237823">
        <ele>183.942593</ele>
        <time>2026-08-18T07:53:48.000Z</time>
      </trkpt>
      <trkpt lat="22.904275" lon="111.237870">
        <ele>183.981211</ele>
        <time>2026-08-18T07:53:49.000Z</time>
      </trkpt>
      <trkpt lat="22.904274" lon="111.237914">
        <ele>184.017366</ele>
        <time>2026-08-18T07:53:50.000Z</time>
      </trkpt>
      <trkpt lat="22.904273" lon="111.237960">
        <ele>184.055163</ele>
        <time>2026-08-18T07:53:51.000Z</time>
      </trkpt>
      <trkpt lat="22.904273" lon="111.238004">
        <ele>184.091307</ele>
        <time>2026-08-18T07:53:52.000Z</time>
      </trkpt>
      <trkpt lat="22.904271" lon="111.238047">
        <ele>184.126674</ele>
        <time>2026-08-18T07:53:53.000Z</time>
      </trkpt>
      <trkpt lat="22.904270" lon="111.238090">
        <ele>184.162008</ele>
        <time>2026-08-18T07:53:54.000Z</time>
      </trkpt>
      <trkpt lat="22.904268" lon="111.238132">
        <ele>184.196555</ele>
        <time>2026-08-18T07:53:55.000Z</time>
      </trkpt>
      <trkpt lat="22.904266" lon="111.238174">
        <ele>184.231102</ele>
        <time>2026-08-18T07:53:56.000Z</time>
      </trkpt>
      <trkpt lat="22.904265" lon="111.238217">
        <ele>184.266435</ele>
        <time>2026-08-18T07:53:57.000Z</time>
      </trkpt>
      <trkpt lat="22.904263" lon="111.238261">
        <ele>184.302623</ele>
        <time>2026-08-18T07:53:58.000Z</time>
      </trkpt>
      <trkpt lat="22.904261" lon="111.238307">
        <ele>184.340452</ele>
        <time>2026-08-18T07:53:59.000Z</time>
      </trkpt>
      <trkpt lat="22.904259" lon="111.238353">
        <ele>184.378280</ele>
        <time>2026-08-18T07:54:00.000Z</time>
      </trkpt>
      <trkpt lat="22.904257" lon="111.238398">
        <ele>184.415288</ele>
        <time>2026-08-18T07:54:01.000Z</time>
      </trkpt>
      <trkpt lat="22.904254" lon="111.238441">
        <ele>184.450712</ele>
        <time>2026-08-18T07:54:02.000Z</time>
      </trkpt>
      <trkpt lat="22.904251" lon="111.238483">
        <ele>184.485316</ele>
        <time>2026-08-18T07:54:03.000Z</time>
      </trkpt>
      <trkpt lat="22.904245" lon="111.238524">
        <ele>184.519418</ele>
        <time>2026-08-18T07:54:04.000Z</time>
      </trkpt>
      <trkpt lat="22.904238" lon="111.238566">
        <ele>184.556858</ele>
        <time>2026-08-18T07:54:05.000Z</time>
      </trkpt>
      <trkpt lat="22.904232" lon="111.238607">
        <ele>184.593416</ele>
        <time>2026-08-18T07:54:06.000Z</time>
      </trkpt>
      <trkpt lat="22.904225" lon="111.238647">
        <ele>184.629272</ele>
        <time>2026-08-18T07:54:07.000Z</time>
      </trkpt>
      <trkpt lat="22.904218" lon="111.238688">
        <ele>184.665992</ele>
        <time>2026-08-18T07:54:08.000Z</time>
      </trkpt>
      <trkpt lat="22.904209" lon="111.238729">
        <ele>184.703109</ele>
        <time>2026-08-18T07:54:09.000Z</time>
      </trkpt>
      <trkpt lat="22.904201" lon="111.238768">
        <ele>184.738295</ele>
        <time>2026-08-18T07:54:10.000Z</time>
      </trkpt>
      <trkpt lat="22.904192" lon="111.238805">
        <ele>184.771995</ele>
        <time>2026-08-18T07:54:11.000Z</time>
      </trkpt>
      <trkpt lat="22.904184" lon="111.238840">
        <ele>184.803752</ele>
        <time>2026-08-18T07:54:12.000Z</time>
      </trkpt>
      <trkpt lat="22.904176" lon="111.238875">
        <ele>184.835509</ele>
        <time>2026-08-18T07:54:13.000Z</time>
      </trkpt>
      <trkpt lat="22.904169" lon="111.238909">
        <ele>184.866189</ele>
        <time>2026-08-18T07:54:14.000Z</time>
      </trkpt>
      <trkpt lat="22.904163" lon="111.238943">
        <ele>184.896675</ele>
        <time>2026-08-18T07:54:15.000Z</time>
      </trkpt>
      <trkpt lat="22.904155" lon="111.238976">
        <ele>184.926726</ele>
        <time>2026-08-18T07:54:16.000Z</time>
      </trkpt>
      <trkpt lat="22.904148" lon="111.239009">
        <ele>184.956547</ele>
        <time>2026-08-18T07:54:17.000Z</time>
      </trkpt>
      <trkpt lat="22.904141" lon="111.239040">
        <ele>184.984655</ele>
        <time>2026-08-18T07:54:18.000Z</time>
      </trkpt>
      <trkpt lat="22.904133" lon="111.239070">
        <ele>185.012158</ele>
        <time>2026-08-18T07:54:19.000Z</time>
      </trkpt>
      <trkpt lat="22.904125" lon="111.239098">
        <ele>185.037975</ele>
        <time>2026-08-18T07:54:20.000Z</time>
      </trkpt>
      <trkpt lat="22.904116" lon="111.239122">
        <ele>185.060794</ele>
        <time>2026-08-18T07:54:21.000Z</time>
      </trkpt>
      <trkpt lat="22.904105" lon="111.239144">
        <ele>185.082838</ele>
        <time>2026-08-18T07:54:22.000Z</time>
      </trkpt>
      <trkpt lat="22.904097" lon="111.239160">
        <ele>185.098870</ele>
        <time>2026-08-18T07:54:23.000Z</time>
      </trkpt>
      <trkpt lat="22.904097" lon="111.239159">
        <ele>185.099751</ele>
        <time>2026-08-18T07:54:24.000Z</time>
      </trkpt>
      <trkpt lat="22.904095" lon="111.239161">
        <ele>185.102351</ele>
        <time>2026-08-18T07:54:25.000Z</time>
      </trkpt>
      <trkpt lat="22.904096" lon="111.239195">
        <ele>185.132307</ele>
        <time>2026-08-18T07:55:16.000Z</time>
      </trkpt>
      <trkpt lat="22.904091" lon="111.239210">
        <ele>185.146355</ele>
        <time>2026-08-18T07:55:17.000Z</time>
      </trkpt>
      <trkpt lat="22.904086" lon="111.239229">
        <ele>185.163756</ele>
        <time>2026-08-18T07:55:18.000Z</time>
      </trkpt>
      <trkpt lat="22.904081" lon="111.239253">
        <ele>185.185425</ele>
        <time>2026-08-18T07:55:19.000Z</time>
      </trkpt>
      <trkpt lat="22.904074" lon="111.239277">
        <ele>185.207595</ele>
        <time>2026-08-18T07:55:20.000Z</time>
      </trkpt>
      <trkpt lat="22.904065" lon="111.239304">
        <ele>185.232881</ele>
        <time>2026-08-18T07:55:21.000Z</time>
      </trkpt>
      <trkpt lat="22.904057" lon="111.239332">
        <ele>185.258697</ele>
        <time>2026-08-18T07:55:22.000Z</time>
      </trkpt>
      <trkpt lat="22.904050" lon="111.239361">
        <ele>185.285098</ele>
        <time>2026-08-18T07:55:23.000Z</time>
      </trkpt>
      <trkpt lat="22.904043" lon="111.239391">
        <ele>185.312351</ele>
        <time>2026-08-18T07:55:24.000Z</time>
      </trkpt>
      <trkpt lat="22.904034" lon="111.239423">
        <ele>185.341816</ele>
        <time>2026-08-18T07:55:25.000Z</time>
      </trkpt>
      <trkpt lat="22.904024" lon="111.239456">
        <ele>185.372409</ele>
        <time>2026-08-18T07:55:26.000Z</time>
      </trkpt>
      <trkpt lat="22.904013" lon="111.239489">
        <ele>185.403314</ele>
        <time>2026-08-18T07:55:27.000Z</time>
      </trkpt>
      <trkpt lat="22.904002" lon="111.239522">
        <ele>185.434219</ele>
        <time>2026-08-18T07:55:28.000Z</time>
      </trkpt>
      <trkpt lat="22.903991" lon="111.239554">
        <ele>185.464297</ele>
        <time>2026-08-18T07:55:29.000Z</time>
      </trkpt>
      <trkpt lat="22.903981" lon="111.239584">
        <ele>185.492393</ele>
        <time>2026-08-18T07:55:30.000Z</time>
      </trkpt>
      <trkpt lat="22.903971" lon="111.239615">
        <ele>185.521318</ele>
        <time>2026-08-18T07:55:31.000Z</time>
      </trkpt>
      <trkpt lat="22.903962" lon="111.239646">
        <ele>185.549941</ele>
        <time>2026-08-18T07:55:32.000Z</time>
      </trkpt>
      <trkpt lat="22.903952" lon="111.239680">
        <ele>185.581372</ele>
        <time>2026-08-18T07:55:33.000Z</time>
      </trkpt>
      <trkpt lat="22.903943" lon="111.239713">
        <ele>185.611680</ele>
        <time>2026-08-18T07:55:34.000Z</time>
      </trkpt>
      <trkpt lat="22.903932" lon="111.239746">
        <ele>185.642585</ele>
        <time>2026-08-18T07:55:35.000Z</time>
      </trkpt>
      <trkpt lat="22.903921" lon="111.239781">
        <ele>185.675152</ele>
        <time>2026-08-18T07:55:36.000Z</time>
      </trkpt>
      <trkpt lat="22.903909" lon="111.239815">
        <ele>185.707216</ele>
        <time>2026-08-18T07:55:37.000Z</time>
      </trkpt>
      <trkpt lat="22.903897" lon="111.239849">
        <ele>185.739280</ele>
        <time>2026-08-18T07:55:38.000Z</time>
      </trkpt>
      <trkpt lat="22.903886" lon="111.239884">
        <ele>185.771846</ele>
        <time>2026-08-18T07:55:39.000Z</time>
      </trkpt>
      <trkpt lat="22.903875" lon="111.239915">
        <ele>185.801101</ele>
        <time>2026-08-18T07:55:40.000Z</time>
      </trkpt>
      <trkpt lat="22.903864" lon="111.239949">
        <ele>185.832836</ele>
        <time>2026-08-18T07:55:41.000Z</time>
      </trkpt>
      <trkpt lat="22.903853" lon="111.239984">
        <ele>185.865403</ele>
        <time>2026-08-18T07:55:42.000Z</time>
      </trkpt>
      <trkpt lat="22.903842" lon="111.240020">
        <ele>185.898804</ele>
        <time>2026-08-18T07:55:43.000Z</time>
      </trkpt>
      <trkpt lat="22.903830" lon="111.240053">
        <ele>185.930048</ele>
        <time>2026-08-18T07:55:44.000Z</time>
      </trkpt>
      <trkpt lat="22.903818" lon="111.240088">
        <ele>185.962935</ele>
        <time>2026-08-18T07:55:45.000Z</time>
      </trkpt>
      <trkpt lat="22.903807" lon="111.240122">
        <ele>185.994670</ele>
        <time>2026-08-18T07:55:46.000Z</time>
      </trkpt>
      <trkpt lat="22.903798" lon="111.240156">
        <ele>186.025823</ele>
        <time>2026-08-18T07:55:47.000Z</time>
      </trkpt>
      <trkpt lat="22.903789" lon="111.240193">
        <ele>186.059524</ele>
        <time>2026-08-18T07:55:48.000Z</time>
      </trkpt>
      <trkpt lat="22.903778" lon="111.240228">
        <ele>186.092090</ele>
        <time>2026-08-18T07:55:49.000Z</time>
      </trkpt>
      <trkpt lat="22.903768" lon="111.240264">
        <ele>186.125203</ele>
        <time>2026-08-18T07:55:50.000Z</time>
      </trkpt>
      <trkpt lat="22.903757" lon="111.240300">
        <ele>186.158605</ele>
        <time>2026-08-18T07:55:51.000Z</time>
      </trkpt>
      <trkpt lat="22.903749" lon="111.240336">
        <ele>186.191217</ele>
        <time>2026-08-18T07:55:52.000Z</time>
      </trkpt>
      <trkpt lat="22.903742" lon="111.240373">
        <ele>186.224481</ele>
        <time>2026-08-18T07:55:53.000Z</time>
      </trkpt>
      <trkpt lat="22.903736" lon="111.240411">
        <ele>186.235487</ele>
        <time>2026-08-18T07:55:54.000Z</time>
      </trkpt>
      <trkpt lat="22.903728" lon="111.240450">
        <ele>186.224419</ele>
        <time>2026-08-18T07:55:55.000Z</time>
      </trkpt>
      <trkpt lat="22.903717" lon="111.240488">
        <ele>186.213385</ele>
        <time>2026-08-18T07:55:56.000Z</time>
      </trkpt>
      <trkpt lat="22.903706" lon="111.240526">
        <ele>186.202350</ele>
        <time>2026-08-18T07:55:57.000Z</time>
      </trkpt>
      <trkpt lat="22.903696" lon="111.240563">
        <ele>186.191668</ele>
        <time>2026-08-18T07:55:58.000Z</time>
      </trkpt>
      <trkpt lat="22.903684" lon="111.240602">
        <ele>186.180278</ele>
        <time>2026-08-18T07:55:59.000Z</time>
      </trkpt>
      <trkpt lat="22.903671" lon="111.240639">
        <ele>186.169308</ele>
        <time>2026-08-18T07:56:00.000Z</time>
      </trkpt>
      <trkpt lat="22.903661" lon="111.240676">
        <ele>186.158626</ele>
        <time>2026-08-18T07:56:01.000Z</time>
      </trkpt>
      <trkpt lat="22.903652" lon="111.240713">
        <ele>186.148025</ele>
        <time>2026-08-18T07:56:02.000Z</time>
      </trkpt>
      <trkpt lat="22.903642" lon="111.240751">
        <ele>186.137077</ele>
        <time>2026-08-18T07:56:03.000Z</time>
      </trkpt>
      <trkpt lat="22.903634" lon="111.240796">
        <ele>186.124381</ele>
        <time>2026-08-18T07:56:04.000Z</time>
      </trkpt>
      <trkpt lat="22.903627" lon="111.240837">
        <ele>186.112830</ele>
        <time>2026-08-18T07:56:05.000Z</time>
      </trkpt>
      <trkpt lat="22.903620" lon="111.240876">
        <ele>186.101823</ele>
        <time>2026-08-18T07:56:06.000Z</time>
      </trkpt>
      <trkpt lat="22.903612" lon="111.240917">
        <ele>186.090213</ele>
        <time>2026-08-18T07:56:07.000Z</time>
      </trkpt>
      <trkpt lat="22.903609" lon="111.240959">
        <ele>186.078543</ele>
        <time>2026-08-18T07:56:08.000Z</time>
      </trkpt>
      <trkpt lat="22.903604" lon="111.241003">
        <ele>186.066262</ele>
        <time>2026-08-18T07:56:09.000Z</time>
      </trkpt>
      <trkpt lat="22.903598" lon="111.241048">
        <ele>186.053666</ele>
        <time>2026-08-18T07:56:10.000Z</time>
      </trkpt>
      <trkpt lat="22.903594" lon="111.241093">
        <ele>186.041142</ele>
        <time>2026-08-18T07:56:11.000Z</time>
      </trkpt>
      <trkpt lat="22.903589" lon="111.241140">
        <ele>186.028036</ele>
        <time>2026-08-18T07:56:12.000Z</time>
      </trkpt>
      <trkpt lat="22.903583" lon="111.241186">
        <ele>186.015166</ele>
        <time>2026-08-18T07:56:13.000Z</time>
      </trkpt>
      <trkpt lat="22.903576" lon="111.241231">
        <ele>186.002523</ele>
        <time>2026-08-18T07:56:14.000Z</time>
      </trkpt>
      <trkpt lat="22.903573" lon="111.241277">
        <ele>185.989748</ele>
        <time>2026-08-18T07:56:15.000Z</time>
      </trkpt>
      <trkpt lat="22.903571" lon="111.241323">
        <ele>185.976991</ele>
        <time>2026-08-18T07:56:16.000Z</time>
      </trkpt>
      <trkpt lat="22.903569" lon="111.241369">
        <ele>185.964234</ele>
        <time>2026-08-18T07:56:17.000Z</time>
      </trkpt>
      <trkpt lat="22.903565" lon="111.241416">
        <ele>185.951159</ele>
        <time>2026-08-18T07:56:18.000Z</time>
      </trkpt>
      <trkpt lat="22.903564" lon="111.241464">
        <ele>185.937858</ele>
        <time>2026-08-18T07:56:19.000Z</time>
      </trkpt>
      <trkpt lat="22.903562" lon="111.241512">
        <ele>185.924548</ele>
        <time>2026-08-18T07:56:20.000Z</time>
      </trkpt>
      <trkpt lat="22.903560" lon="111.241560">
        <ele>185.911237</ele>
        <time>2026-08-18T07:56:21.000Z</time>
      </trkpt>
      <trkpt lat="22.903559" lon="111.241609">
        <ele>185.897660</ele>
        <time>2026-08-18T07:56:22.000Z</time>
      </trkpt>
      <trkpt lat="22.903557" lon="111.241656">
        <ele>185.884626</ele>
        <time>2026-08-18T07:56:23.000Z</time>
      </trkpt>
      <trkpt lat="22.903556" lon="111.241706">
        <ele>185.870772</ele>
        <time>2026-08-18T07:56:24.000Z</time>
      </trkpt>
      <trkpt lat="22.903557" lon="111.241754">
        <ele>185.857471</ele>
        <time>2026-08-18T07:56:25.000Z</time>
      </trkpt>
      <trkpt lat="22.903558" lon="111.241801">
        <ele>185.844448</ele>
        <time>2026-08-18T07:56:26.000Z</time>
      </trkpt>
      <trkpt lat="22.903557" lon="111.241849">
        <ele>185.831147</ele>
        <time>2026-08-18T07:56:27.000Z</time>
      </trkpt>
      <trkpt lat="22.903560" lon="111.241896">
        <ele>185.818096</ele>
        <time>2026-08-18T07:56:28.000Z</time>
      </trkpt>
      <trkpt lat="22.903563" lon="111.241943">
        <ele>185.805045</ele>
        <time>2026-08-18T07:56:29.000Z</time>
      </trkpt>
      <trkpt lat="22.903569" lon="111.241989">
        <ele>185.792175</ele>
        <time>2026-08-18T07:56:30.000Z</time>
      </trkpt>
      <trkpt lat="22.903574" lon="111.242036">
        <ele>185.779068</ele>
        <time>2026-08-18T07:56:31.000Z</time>
      </trkpt>
      <trkpt lat="22.903577" lon="111.242084">
        <ele>185.765741</ele>
        <time>2026-08-18T07:56:32.000Z</time>
      </trkpt>
      <trkpt lat="22.903583" lon="111.242134">
        <ele>185.751773</ele>
        <time>2026-08-18T07:56:33.000Z</time>
      </trkpt>
      <trkpt lat="22.903589" lon="111.242184">
        <ele>185.737805</ele>
        <time>2026-08-18T07:56:34.000Z</time>
      </trkpt>
      <trkpt lat="22.903593" lon="111.242233">
        <ele>185.724177</ele>
        <time>2026-08-18T07:56:35.000Z</time>
      </trkpt>
      <trkpt lat="22.903597" lon="111.242284">
        <ele>185.709998</ele>
        <time>2026-08-18T07:56:36.000Z</time>
      </trkpt>
      <trkpt lat="22.903601" lon="111.242334">
        <ele>185.684145</ele>
        <time>2026-08-18T07:56:37.000Z</time>
      </trkpt>
      <trkpt lat="22.903607" lon="111.242385">
        <ele>185.627106</ele>
        <time>2026-08-18T07:56:38.000Z</time>
      </trkpt>
      <trkpt lat="22.903614" lon="111.242435">
        <ele>185.570999</ele>
        <time>2026-08-18T07:56:39.000Z</time>
      </trkpt>
      <trkpt lat="22.903619" lon="111.242486">
        <ele>185.514101</ele>
        <time>2026-08-18T07:56:40.000Z</time>
      </trkpt>
      <trkpt lat="22.903625" lon="111.242540">
        <ele>185.453759</ele>
        <time>2026-08-18T07:56:41.000Z</time>
      </trkpt>
      <trkpt lat="22.903633" lon="111.242592">
        <ele>185.395272</ele>
        <time>2026-08-18T07:56:42.000Z</time>
      </trkpt>
      <trkpt lat="22.903642" lon="111.242646">
        <ele>185.334392</ele>
        <time>2026-08-18T07:56:43.000Z</time>
      </trkpt>
      <trkpt lat="22.903650" lon="111.242699">
        <ele>185.274810</ele>
        <time>2026-08-18T07:56:44.000Z</time>
      </trkpt>
      <trkpt lat="22.903659" lon="111.242752">
        <ele>185.215021</ele>
        <time>2026-08-18T07:56:45.000Z</time>
      </trkpt>
      <trkpt lat="22.903670" lon="111.242805">
        <ele>185.154749</ele>
        <time>2026-08-18T07:56:46.000Z</time>
      </trkpt>
      <trkpt lat="22.903680" lon="111.242856">
        <ele>185.096903</ele>
        <time>2026-08-18T07:56:47.000Z</time>
      </trkpt>
      <trkpt lat="22.903691" lon="111.242907">
        <ele>185.038793</ele>
        <time>2026-08-18T07:56:48.000Z</time>
      </trkpt>
      <trkpt lat="22.903702" lon="111.242959">
        <ele>184.979603</ele>
        <time>2026-08-18T07:56:49.000Z</time>
      </trkpt>
      <trkpt lat="22.903714" lon="111.243010">
        <ele>184.921208</ele>
        <time>2026-08-18T07:56:50.000Z</time>
      </trkpt>
      <trkpt lat="22.903725" lon="111.243061">
        <ele>184.863098</ele>
        <time>2026-08-18T07:56:51.000Z</time>
      </trkpt>
      <trkpt lat="22.903740" lon="111.243113">
        <ele>184.802647</ele>
        <time>2026-08-18T07:56:52.000Z</time>
      </trkpt>
      <trkpt lat="22.903753" lon="111.243167">
        <ele>184.740728</ele>
        <time>2026-08-18T07:56:53.000Z</time>
      </trkpt>
      <trkpt lat="22.903765" lon="111.243222">
        <ele>184.678023</ele>
        <time>2026-08-18T07:56:54.000Z</time>
      </trkpt>
      <trkpt lat="22.903779" lon="111.243276">
        <ele>184.615789</ele>
        <time>2026-08-18T07:56:55.000Z</time>
      </trkpt>
      <trkpt lat="22.903794" lon="111.243330">
        <ele>184.553217</ele>
        <time>2026-08-18T07:56:56.000Z</time>
      </trkpt>
      <trkpt lat="22.903809" lon="111.243383">
        <ele>184.491706</ele>
        <time>2026-08-18T07:56:57.000Z</time>
      </trkpt>
      <trkpt lat="22.903823" lon="111.243437">
        <ele>184.429472</ele>
        <time>2026-08-18T07:56:58.000Z</time>
      </trkpt>
      <trkpt lat="22.903838" lon="111.243493">
        <ele>184.364772</ele>
        <time>2026-08-18T07:56:59.000Z</time>
      </trkpt>
      <trkpt lat="22.903853" lon="111.243550">
        <ele>184.299007</ele>
        <time>2026-08-18T07:57:00.000Z</time>
      </trkpt>
      <trkpt lat="22.903864" lon="111.243607">
        <ele>184.234399</ele>
        <time>2026-08-18T07:57:01.000Z</time>
      </trkpt>
      <trkpt lat="22.903877" lon="111.243664">
        <ele>184.169254</ele>
        <time>2026-08-18T07:57:02.000Z</time>
      </trkpt>
      <trkpt lat="22.903890" lon="111.243723">
        <ele>184.101954</ele>
        <time>2026-08-18T07:57:03.000Z</time>
      </trkpt>
      <trkpt lat="22.903904" lon="111.243785">
        <ele>184.031135</ele>
        <time>2026-08-18T07:57:04.000Z</time>
      </trkpt>
      <trkpt lat="22.903920" lon="111.243845">
        <ele>183.961839</ele>
        <time>2026-08-18T07:57:05.000Z</time>
      </trkpt>
      <trkpt lat="22.903938" lon="111.243904">
        <ele>183.892888</ele>
        <time>2026-08-18T07:57:06.000Z</time>
      </trkpt>
      <trkpt lat="22.903954" lon="111.243964">
        <ele>183.823591</ele>
        <time>2026-08-18T07:57:07.000Z</time>
      </trkpt>
      <trkpt lat="22.903968" lon="111.244027">
        <ele>183.751695</ele>
        <time>2026-08-18T07:57:08.000Z</time>
      </trkpt>
      <trkpt lat="22.903985" lon="111.244087">
        <ele>183.682054</ele>
        <time>2026-08-18T07:57:09.000Z</time>
      </trkpt>
      <trkpt lat="22.904001" lon="111.244150">
        <ele>183.609554</ele>
        <time>2026-08-18T07:57:10.000Z</time>
      </trkpt>
      <trkpt lat="22.904018" lon="111.244211">
        <ele>183.538852</ele>
        <time>2026-08-18T07:57:11.000Z</time>
      </trkpt>
      <trkpt lat="22.904033" lon="111.244273">
        <ele>183.484308</ele>
        <time>2026-08-18T07:57:12.000Z</time>
      </trkpt>
      <trkpt lat="22.904048" lon="111.244335">
        <ele>183.431006</ele>
        <time>2026-08-18T07:57:13.000Z</time>
      </trkpt>
      <trkpt lat="22.904062" lon="111.244396">
        <ele>183.378735</ele>
        <time>2026-08-18T07:57:14.000Z</time>
      </trkpt>
      <trkpt lat="22.904078" lon="111.244457">
        <ele>183.325997</ele>
        <time>2026-08-18T07:57:15.000Z</time>
      </trkpt>
      <trkpt lat="22.904095" lon="111.244518">
        <ele>183.273006</ele>
        <time>2026-08-18T07:57:16.000Z</time>
      </trkpt>
      <trkpt lat="22.904110" lon="111.244580">
        <ele>183.219704</ele>
        <time>2026-08-18T07:57:17.000Z</time>
      </trkpt>
      <trkpt lat="22.904126" lon="111.244640">
        <ele>183.167766</ele>
        <time>2026-08-18T07:57:18.000Z</time>
      </trkpt>
      <trkpt lat="22.904141" lon="111.244699">
        <ele>183.116874</ele>
        <time>2026-08-18T07:57:19.000Z</time>
      </trkpt>
      <trkpt lat="22.904156" lon="111.244758">
        <ele>183.065981</ele>
        <time>2026-08-18T07:57:20.000Z</time>
      </trkpt>
      <trkpt lat="22.904174" lon="111.244816">
        <ele>183.015091</ele>
        <time>2026-08-18T07:57:21.000Z</time>
      </trkpt>
      <trkpt lat="22.904191" lon="111.244873">
        <ele>182.965274</ele>
        <time>2026-08-18T07:57:22.000Z</time>
      </trkpt>
      <trkpt lat="22.904208" lon="111.244931">
        <ele>182.914665</ele>
        <time>2026-08-18T07:57:23.000Z</time>
      </trkpt>
      <trkpt lat="22.904220" lon="111.244993">
        <ele>182.861986</ele>
        <time>2026-08-18T07:57:24.000Z</time>
      </trkpt>
      <trkpt lat="22.904235" lon="111.245053">
        <ele>182.810292</ele>
        <time>2026-08-18T07:57:25.000Z</time>
      </trkpt>
      <trkpt lat="22.904250" lon="111.245112">
        <ele>182.759400</ele>
        <time>2026-08-18T07:57:26.000Z</time>
      </trkpt>
      <trkpt lat="22.904266" lon="111.245171">
        <ele>182.708260</ele>
        <time>2026-08-18T07:57:27.000Z</time>
      </trkpt>
      <trkpt lat="22.904282" lon="111.245229">
        <ele>182.657917</ele>
        <time>2026-08-18T07:57:28.000Z</time>
      </trkpt>
      <trkpt lat="22.904298" lon="111.245285">
        <ele>182.609165</ele>
        <time>2026-08-18T07:57:29.000Z</time>
      </trkpt>
      <trkpt lat="22.904312" lon="111.245340">
        <ele>182.561719</ele>
        <time>2026-08-18T07:57:30.000Z</time>
      </trkpt>
      <trkpt lat="22.904327" lon="111.245397">
        <ele>182.512427</ele>
        <time>2026-08-18T07:57:31.000Z</time>
      </trkpt>
      <trkpt lat="22.904341" lon="111.245454">
        <ele>182.463376</ele>
        <time>2026-08-18T07:57:32.000Z</time>
      </trkpt>
      <trkpt lat="22.904355" lon="111.245511">
        <ele>182.414325</ele>
        <time>2026-08-18T07:57:33.000Z</time>
      </trkpt>
      <trkpt lat="22.904369" lon="111.245569">
        <ele>182.364470</ele>
        <time>2026-08-18T07:57:34.000Z</time>
      </trkpt>
      <trkpt lat="22.904384" lon="111.245628">
        <ele>182.313578</ele>
        <time>2026-08-18T07:57:35.000Z</time>
      </trkpt>
      <trkpt lat="22.904399" lon="111.245687">
        <ele>182.262686</ele>
        <time>2026-08-18T07:57:36.000Z</time>
      </trkpt>
      <trkpt lat="22.904412" lon="111.245747">
        <ele>182.211435</ele>
        <time>2026-08-18T07:57:37.000Z</time>
      </trkpt>
      <trkpt lat="22.904424" lon="111.245809">
        <ele>182.158756</ele>
        <time>2026-08-18T07:57:38.000Z</time>
      </trkpt>
      <trkpt lat="22.904439" lon="111.245870">
        <ele>182.106259</ele>
        <time>2026-08-18T07:57:39.000Z</time>
      </trkpt>
      <trkpt lat="22.904455" lon="111.245932">
        <ele>182.052722</ele>
        <time>2026-08-18T07:57:40.000Z</time>
      </trkpt>
      <trkpt lat="22.904469" lon="111.245995">
        <ele>181.998835</ele>
        <time>2026-08-18T07:57:41.000Z</time>
      </trkpt>
      <trkpt lat="22.904483" lon="111.246058">
        <ele>181.944948</ele>
        <time>2026-08-18T07:57:42.000Z</time>
      </trkpt>
      <trkpt lat="22.904498" lon="111.246120">
        <ele>181.901202</ele>
        <time>2026-08-18T07:57:43.000Z</time>
      </trkpt>
      <trkpt lat="22.904515" lon="111.246181">
        <ele>181.875329</ele>
        <time>2026-08-18T07:57:44.000Z</time>
      </trkpt>
      <trkpt lat="22.904530" lon="111.246242">
        <ele>181.849698</ele>
        <time>2026-08-18T07:57:45.000Z</time>
      </trkpt>
      <trkpt lat="22.904545" lon="111.246305">
        <ele>181.823281</ele>
        <time>2026-08-18T07:57:46.000Z</time>
      </trkpt>
      <trkpt lat="22.904560" lon="111.246367">
        <ele>181.797257</ele>
        <time>2026-08-18T07:57:47.000Z</time>
      </trkpt>
      <trkpt lat="22.904575" lon="111.246429">
        <ele>181.771233</ele>
        <time>2026-08-18T07:57:48.000Z</time>
      </trkpt>
      <trkpt lat="22.904589" lon="111.246490">
        <ele>181.745712</ele>
        <time>2026-08-18T07:57:49.000Z</time>
      </trkpt>
      <trkpt lat="22.904605" lon="111.246549">
        <ele>181.720743</ele>
        <time>2026-08-18T07:57:50.000Z</time>
      </trkpt>
      <trkpt lat="22.904619" lon="111.246611">
        <ele>181.694827</ele>
        <time>2026-08-18T07:57:51.000Z</time>
      </trkpt>
      <trkpt lat="22.904631" lon="111.246672">
        <ele>181.669504</ele>
        <time>2026-08-18T07:57:52.000Z</time>
      </trkpt>
      <trkpt lat="22.904642" lon="111.246736">
        <ele>181.643074</ele>
        <time>2026-08-18T07:57:53.000Z</time>
      </trkpt>
      <trkpt lat="22.904653" lon="111.246798">
        <ele>181.617441</ele>
        <time>2026-08-18T07:57:54.000Z</time>
      </trkpt>
      <trkpt lat="22.904663" lon="111.246863">
        <ele>181.590687</ele>
        <time>2026-08-18T07:57:55.000Z</time>
      </trkpt>
      <trkpt lat="22.904673" lon="111.246928">
        <ele>181.563933</ele>
        <time>2026-08-18T07:57:56.000Z</time>
      </trkpt>
      <trkpt lat="22.904681" lon="111.246993">
        <ele>181.537311</ele>
        <time>2026-08-18T07:57:57.000Z</time>
      </trkpt>
      <trkpt lat="22.904689" lon="111.247055">
        <ele>181.511895</ele>
        <time>2026-08-18T07:57:58.000Z</time>
      </trkpt>
      <trkpt lat="22.904696" lon="111.247116">
        <ele>181.486939</ele>
        <time>2026-08-18T07:57:59.000Z</time>
      </trkpt>
      <trkpt lat="22.904700" lon="111.247178">
        <ele>181.461707</ele>
        <time>2026-08-18T07:58:00.000Z</time>
      </trkpt>
      <trkpt lat="22.904703" lon="111.247238">
        <ele>181.437313</ele>
        <time>2026-08-18T07:58:01.000Z</time>
      </trkpt>
      <trkpt lat="22.904707" lon="111.247297">
        <ele>181.413295</ele>
        <time>2026-08-18T07:58:02.000Z</time>
      </trkpt>
      <trkpt lat="22.904711" lon="111.247356">
        <ele>181.389278</ele>
        <time>2026-08-18T07:58:03.000Z</time>
      </trkpt>
      <trkpt lat="22.904712" lon="111.247416">
        <ele>181.364916</ele>
        <time>2026-08-18T07:58:04.000Z</time>
      </trkpt>
      <trkpt lat="22.904713" lon="111.247473">
        <ele>181.341771</ele>
        <time>2026-08-18T07:58:05.000Z</time>
      </trkpt>
      <trkpt lat="22.904714" lon="111.247531">
        <ele>181.318221</ele>
        <time>2026-08-18T07:58:06.000Z</time>
      </trkpt>
      <trkpt lat="22.904714" lon="111.247591">
        <ele>181.293862</ele>
        <time>2026-08-18T07:58:07.000Z</time>
      </trkpt>
      <trkpt lat="22.904713" lon="111.247650">
        <ele>181.269906</ele>
        <time>2026-08-18T07:58:08.000Z</time>
      </trkpt>
      <trkpt lat="22.904710" lon="111.247710">
        <ele>181.245512</ele>
        <time>2026-08-18T07:58:09.000Z</time>
      </trkpt>
      <trkpt lat="22.904708" lon="111.247768">
        <ele>181.221949</ele>
        <time>2026-08-18T07:58:10.000Z</time>
      </trkpt>
      <trkpt lat="22.904704" lon="111.247825">
        <ele>181.198741</ele>
        <time>2026-08-18T07:58:11.000Z</time>
      </trkpt>
      <trkpt lat="22.904701" lon="111.247882">
        <ele>181.175563</ele>
        <time>2026-08-18T07:58:12.000Z</time>
      </trkpt>
      <trkpt lat="22.904698" lon="111.247939">
        <ele>181.152385</ele>
        <time>2026-08-18T07:58:13.000Z</time>
      </trkpt>
      <trkpt lat="22.904693" lon="111.247993">
        <ele>181.130352</ele>
        <time>2026-08-18T07:58:14.000Z</time>
      </trkpt>
      <trkpt lat="22.904685" lon="111.248046">
        <ele>181.127620</ele>
        <time>2026-08-18T07:58:15.000Z</time>
      </trkpt>
      <trkpt lat="22.904678" lon="111.248101">
        <ele>181.152485</ele>
        <time>2026-08-18T07:58:16.000Z</time>
      </trkpt>
      <trkpt lat="22.904672" lon="111.248156">
        <ele>181.177288</ele>
        <time>2026-08-18T07:58:17.000Z</time>
      </trkpt>
      <trkpt lat="22.904666" lon="111.248212">
        <ele>181.202536</ele>
        <time>2026-08-18T07:58:18.000Z</time>
      </trkpt>
      <trkpt lat="22.904658" lon="111.248269">
        <ele>181.228357</ele>
        <time>2026-08-18T07:58:19.000Z</time>
      </trkpt>
      <trkpt lat="22.904650" lon="111.248322">
        <ele>181.252409</ele>
        <time>2026-08-18T07:58:20.000Z</time>
      </trkpt>
      <trkpt lat="22.904643" lon="111.248375">
        <ele>181.276387</ele>
        <time>2026-08-18T07:58:21.000Z</time>
      </trkpt>
      <trkpt lat="22.904635" lon="111.248426">
        <ele>181.299555</ele>
        <time>2026-08-18T07:58:22.000Z</time>
      </trkpt>
      <trkpt lat="22.904631" lon="111.248477">
        <ele>181.322477</ele>
        <time>2026-08-18T07:58:23.000Z</time>
      </trkpt>
      <trkpt lat="22.904625" lon="111.248528">
        <ele>181.345502</ele>
        <time>2026-08-18T07:58:24.000Z</time>
      </trkpt>
      <trkpt lat="22.904618" lon="111.248577">
        <ele>181.367709</ele>
        <time>2026-08-18T07:58:25.000Z</time>
      </trkpt>
      <trkpt lat="22.904613" lon="111.248629">
        <ele>181.391122</ele>
        <time>2026-08-18T07:58:26.000Z</time>
      </trkpt>
      <trkpt lat="22.904609" lon="111.248681">
        <ele>181.414491</ele>
        <time>2026-08-18T07:58:27.000Z</time>
      </trkpt>
      <trkpt lat="22.904603" lon="111.248732">
        <ele>181.437516</ele>
        <time>2026-08-18T07:58:28.000Z</time>
      </trkpt>
      <trkpt lat="22.904598" lon="111.248784">
        <ele>181.460930</ele>
        <time>2026-08-18T07:58:29.000Z</time>
      </trkpt>
      <trkpt lat="22.904591" lon="111.248836">
        <ele>181.484465</ele>
        <time>2026-08-18T07:58:30.000Z</time>
      </trkpt>
      <trkpt lat="22.904585" lon="111.248890">
        <ele>181.508823</ele>
        <time>2026-08-18T07:58:31.000Z</time>
      </trkpt>
      <trkpt lat="22.904580" lon="111.248941">
        <ele>181.531791</ele>
        <time>2026-08-18T07:58:32.000Z</time>
      </trkpt>
      <trkpt lat="22.904573" lon="111.248992">
        <ele>181.554883</ele>
        <time>2026-08-18T07:58:33.000Z</time>
      </trkpt>
      <trkpt lat="22.904566" lon="111.249043">
        <ele>181.577975</ele>
        <time>2026-08-18T07:58:34.000Z</time>
      </trkpt>
      <trkpt lat="22.904560" lon="111.249095">
        <ele>181.601444</ele>
        <time>2026-08-18T07:58:35.000Z</time>
      </trkpt>
      <trkpt lat="22.904554" lon="111.249145">
        <ele>181.624025</ele>
        <time>2026-08-18T07:58:36.000Z</time>
      </trkpt>
      <trkpt lat="22.904548" lon="111.249194">
        <ele>181.646162</ele>
        <time>2026-08-18T07:58:37.000Z</time>
      </trkpt>
      <trkpt lat="22.904542" lon="111.249245">
        <ele>181.669187</ele>
        <time>2026-08-18T07:58:38.000Z</time>
      </trkpt>
      <trkpt lat="22.904537" lon="111.249295">
        <ele>181.691710</ele>
        <time>2026-08-18T07:58:39.000Z</time>
      </trkpt>
      <trkpt lat="22.904532" lon="111.249346">
        <ele>181.714679</ele>
        <time>2026-08-18T07:58:40.000Z</time>
      </trkpt>
      <trkpt lat="22.904526" lon="111.249397">
        <ele>181.737704</ele>
        <time>2026-08-18T07:58:41.000Z</time>
      </trkpt>
      <trkpt lat="22.904520" lon="111.249450">
        <ele>181.761618</ele>
        <time>2026-08-18T07:58:42.000Z</time>
      </trkpt>
      <trkpt lat="22.904514" lon="111.249500">
        <ele>181.784199</ele>
        <time>2026-08-18T07:58:43.000Z</time>
      </trkpt>
      <trkpt lat="22.904509" lon="111.249552">
        <ele>181.807613</ele>
        <time>2026-08-18T07:58:44.000Z</time>
      </trkpt>
      <trkpt lat="22.904503" lon="111.249603">
        <ele>181.830638</ele>
        <time>2026-08-18T07:58:45.000Z</time>
      </trkpt>
      <trkpt lat="22.904496" lon="111.249649">
        <ele>181.851517</ele>
        <time>2026-08-18T07:58:46.000Z</time>
      </trkpt>
      <trkpt lat="22.904488" lon="111.249697">
        <ele>181.873362</ele>
        <time>2026-08-18T07:58:47.000Z</time>
      </trkpt>
      <trkpt lat="22.904481" lon="111.249746">
        <ele>181.895569</ele>
        <time>2026-08-18T07:58:48.000Z</time>
      </trkpt>
      <trkpt lat="22.904473" lon="111.249794">
        <ele>181.917414</ele>
        <time>2026-08-18T07:58:49.000Z</time>
      </trkpt>
      <trkpt lat="22.904467" lon="111.249844">
        <ele>181.939995</ele>
        <time>2026-08-18T07:58:50.000Z</time>
      </trkpt>
      <trkpt lat="22.904462" lon="111.249893">
        <ele>181.962073</ele>
        <time>2026-08-18T07:58:51.000Z</time>
      </trkpt>
      <trkpt lat="22.904459" lon="111.249944">
        <ele>181.984959</ele>
        <time>2026-08-18T07:58:52.000Z</time>
      </trkpt>
      <trkpt lat="22.904456" lon="111.249996">
        <ele>181.996681</ele>
        <time>2026-08-18T07:58:53.000Z</time>
      </trkpt>
      <trkpt lat="22.904454" lon="111.250045">
        <ele>182.002938</ele>
        <time>2026-08-18T07:58:54.000Z</time>
      </trkpt>
      <trkpt lat="22.904449" lon="111.250094">
        <ele>182.009227</ele>
        <time>2026-08-18T07:58:55.000Z</time>
      </trkpt>
      <trkpt lat="22.904444" lon="111.250143">
        <ele>182.015516</ele>
        <time>2026-08-18T07:58:56.000Z</time>
      </trkpt>
      <trkpt lat="22.904440" lon="111.250194">
        <ele>182.022045</ele>
        <time>2026-08-18T07:58:57.000Z</time>
      </trkpt>
      <trkpt lat="22.904435" lon="111.250243">
        <ele>182.028334</ele>
        <time>2026-08-18T07:58:58.000Z</time>
      </trkpt>
      <trkpt lat="22.904431" lon="111.250291">
        <ele>182.034482</ele>
        <time>2026-08-18T07:58:59.000Z</time>
      </trkpt>
      <trkpt lat="22.904427" lon="111.250338">
        <ele>182.040504</ele>
        <time>2026-08-18T07:59:00.000Z</time>
      </trkpt>
      <trkpt lat="22.904422" lon="111.250386">
        <ele>182.046666</ele>
        <time>2026-08-18T07:59:01.000Z</time>
      </trkpt>
      <trkpt lat="22.904417" lon="111.250433">
        <ele>182.052701</ele>
        <time>2026-08-18T07:59:02.000Z</time>
      </trkpt>
      <trkpt lat="22.904412" lon="111.250480">
        <ele>182.058737</ele>
        <time>2026-08-18T07:59:03.000Z</time>
      </trkpt>
      <trkpt lat="22.904407" lon="111.250526">
        <ele>182.064645</ele>
        <time>2026-08-18T07:59:04.000Z</time>
      </trkpt>
      <trkpt lat="22.904401" lon="111.250574">
        <ele>182.070824</ele>
        <time>2026-08-18T07:59:05.000Z</time>
      </trkpt>
      <trkpt lat="22.904394" lon="111.250621">
        <ele>182.076898</ele>
        <time>2026-08-18T07:59:06.000Z</time>
      </trkpt>
      <trkpt lat="22.904389" lon="111.250669">
        <ele>182.083060</ele>
        <time>2026-08-18T07:59:07.000Z</time>
      </trkpt>
      <trkpt lat="22.904384" lon="111.250718">
        <ele>182.089349</ele>
        <time>2026-08-18T07:59:08.000Z</time>
      </trkpt>
      <trkpt lat="22.904380" lon="111.250765">
        <ele>182.095370</ele>
        <time>2026-08-18T07:59:09.000Z</time>
      </trkpt>
      <trkpt lat="22.904375" lon="111.250812">
        <ele>182.101406</ele>
        <time>2026-08-18T07:59:10.000Z</time>
      </trkpt>
      <trkpt lat="22.904369" lon="111.250858">
        <ele>182.107332</ele>
        <time>2026-08-18T07:59:11.000Z</time>
      </trkpt>
      <trkpt lat="22.904364" lon="111.250906">
        <ele>182.113494</ele>
        <time>2026-08-18T07:59:12.000Z</time>
      </trkpt>
      <trkpt lat="22.904359" lon="111.250953">
        <ele>182.119530</ele>
        <time>2026-08-18T07:59:13.000Z</time>
      </trkpt>
      <trkpt lat="22.904352" lon="111.251001">
        <ele>182.125729</ele>
        <time>2026-08-18T07:59:14.000Z</time>
      </trkpt>
      <trkpt lat="22.904345" lon="111.251049">
        <ele>182.131928</ele>
        <time>2026-08-18T07:59:15.000Z</time>
      </trkpt>
      <trkpt lat="22.904338" lon="111.251099">
        <ele>182.138380</ele>
        <time>2026-08-18T07:59:16.000Z</time>
      </trkpt>
      <trkpt lat="22.904331" lon="111.251147">
        <ele>182.144579</ele>
        <time>2026-08-18T07:59:17.000Z</time>
      </trkpt>
      <trkpt lat="22.904325" lon="111.251197">
        <ele>182.151012</ele>
        <time>2026-08-18T07:59:18.000Z</time>
      </trkpt>
      <trkpt lat="22.904320" lon="111.251246">
        <ele>182.157301</ele>
        <time>2026-08-18T07:59:19.000Z</time>
      </trkpt>
      <trkpt lat="22.904314" lon="111.251297">
        <ele>182.163859</ele>
        <time>2026-08-18T07:59:20.000Z</time>
      </trkpt>
      <trkpt lat="22.904308" lon="111.251347">
        <ele>182.170291</ele>
        <time>2026-08-18T07:59:21.000Z</time>
      </trkpt>
      <trkpt lat="22.904301" lon="111.251396">
        <ele>182.176617</ele>
        <time>2026-08-18T07:59:22.000Z</time>
      </trkpt>
      <trkpt lat="22.904294" lon="111.251446">
        <ele>182.183068</ele>
        <time>2026-08-18T07:59:23.000Z</time>
      </trkpt>
      <trkpt lat="22.904287" lon="111.251496">
        <ele>182.189520</ele>
        <time>2026-08-18T07:59:24.000Z</time>
      </trkpt>
      <trkpt lat="22.904281" lon="111.251546">
        <ele>182.195952</ele>
        <time>2026-08-18T07:59:25.000Z</time>
      </trkpt>
      <trkpt lat="22.904277" lon="111.251596">
        <ele>182.202354</ele>
        <time>2026-08-18T07:59:26.000Z</time>
      </trkpt>
      <trkpt lat="22.904272" lon="111.251645">
        <ele>182.208643</ele>
        <time>2026-08-18T07:59:27.000Z</time>
      </trkpt>
      <trkpt lat="22.904268" lon="111.251694">
        <ele>182.214918</ele>
        <time>2026-08-18T07:59:28.000Z</time>
      </trkpt>
      <trkpt lat="22.904262" lon="111.251743">
        <ele>182.221224</ele>
        <time>2026-08-18T07:59:29.000Z</time>
      </trkpt>
      <trkpt lat="22.904256" lon="111.251791">
        <ele>182.227403</ele>
        <time>2026-08-18T07:59:30.000Z</time>
      </trkpt>
      <trkpt lat="22.904251" lon="111.251839">
        <ele>182.233566</ele>
        <time>2026-08-18T07:59:31.000Z</time>
      </trkpt>
      <trkpt lat="22.904248" lon="111.251887">
        <ele>182.239703</ele>
        <time>2026-08-18T07:59:32.000Z</time>
      </trkpt>
      <trkpt lat="22.904243" lon="111.251936">
        <ele>182.252360</ele>
        <time>2026-08-18T07:59:33.000Z</time>
      </trkpt>
      <trkpt lat="22.904236" lon="111.251985">
        <ele>182.266988</ele>
        <time>2026-08-18T07:59:34.000Z</time>
      </trkpt>
      <trkpt lat="22.904229" lon="111.252033">
        <ele>182.281325</ele>
        <time>2026-08-18T07:59:35.000Z</time>
      </trkpt>
      <trkpt lat="22.904221" lon="111.252080">
        <ele>182.295426</ele>
        <time>2026-08-18T07:59:36.000Z</time>
      </trkpt>
      <trkpt lat="22.904215" lon="111.252127">
        <ele>182.309424</ele>
        <time>2026-08-18T07:59:37.000Z</time>
      </trkpt>
      <trkpt lat="22.904210" lon="111.252174">
        <ele>182.323381</ele>
        <time>2026-08-18T07:59:38.000Z</time>
      </trkpt>
      <trkpt lat="22.904208" lon="111.252221">
        <ele>182.337262</ele>
        <time>2026-08-18T07:59:39.000Z</time>
      </trkpt>
      <trkpt lat="22.904204" lon="111.252269">
        <ele>182.351480</ele>
        <time>2026-08-18T07:59:40.000Z</time>
      </trkpt>
      <trkpt lat="22.904196" lon="111.252315">
        <ele>182.365290</ele>
        <time>2026-08-18T07:59:41.000Z</time>
      </trkpt>
      <trkpt lat="22.904189" lon="111.252362">
        <ele>182.379336</ele>
        <time>2026-08-18T07:59:42.000Z</time>
      </trkpt>
      <trkpt lat="22.904183" lon="111.252409">
        <ele>182.393334</ele>
        <time>2026-08-18T07:59:43.000Z</time>
      </trkpt>
      <trkpt lat="22.904176" lon="111.252457">
        <ele>182.407671</ele>
        <time>2026-08-18T07:59:44.000Z</time>
      </trkpt>
      <trkpt lat="22.904171" lon="111.252505">
        <ele>182.421921</ele>
        <time>2026-08-18T07:59:45.000Z</time>
      </trkpt>
      <trkpt lat="22.904164" lon="111.252553">
        <ele>182.436258</ele>
        <time>2026-08-18T07:59:46.000Z</time>
      </trkpt>
      <trkpt lat="22.904156" lon="111.252603">
        <ele>182.451230</ele>
        <time>2026-08-18T07:59:47.000Z</time>
      </trkpt>
      <trkpt lat="22.904151" lon="111.252652">
        <ele>182.465774</ele>
        <time>2026-08-18T07:59:48.000Z</time>
      </trkpt>
      <trkpt lat="22.904147" lon="111.252700">
        <ele>182.479992</ele>
        <time>2026-08-18T07:59:49.000Z</time>
      </trkpt>
      <trkpt lat="22.904142" lon="111.252746">
        <ele>182.493657</ele>
        <time>2026-08-18T07:59:50.000Z</time>
      </trkpt>
      <trkpt lat="22.904136" lon="111.252793">
        <ele>182.507655</ele>
        <time>2026-08-18T07:59:51.000Z</time>
      </trkpt>
      <trkpt lat="22.904130" lon="111.252839">
        <ele>182.521361</ele>
        <time>2026-08-18T07:59:52.000Z</time>
      </trkpt>
      <trkpt lat="22.904125" lon="111.252884">
        <ele>182.534732</ele>
        <time>2026-08-18T07:59:53.000Z</time>
      </trkpt>
      <trkpt lat="22.904120" lon="111.252929">
        <ele>182.548104</ele>
        <time>2026-08-18T07:59:54.000Z</time>
      </trkpt>
      <trkpt lat="22.904115" lon="111.252972">
        <ele>182.560890</ele>
        <time>2026-08-18T07:59:55.000Z</time>
      </trkpt>
      <trkpt lat="22.904110" lon="111.253015">
        <ele>182.573676</ele>
        <time>2026-08-18T07:59:56.000Z</time>
      </trkpt>
      <trkpt lat="22.904105" lon="111.253058">
        <ele>182.586462</ele>
        <time>2026-08-18T07:59:57.000Z</time>
      </trkpt>
      <trkpt lat="22.904099" lon="111.253104">
        <ele>182.600168</ele>
        <time>2026-08-18T07:59:58.000Z</time>
      </trkpt>
      <trkpt lat="22.904094" lon="111.253150">
        <ele>182.613833</ele>
        <time>2026-08-18T07:59:59.000Z</time>
      </trkpt>
      <trkpt lat="22.904088" lon="111.253196">
        <ele>182.627539</ele>
        <time>2026-08-18T08:00:00.000Z</time>
      </trkpt>
      <trkpt lat="22.904082" lon="111.253241">
        <ele>182.640953</ele>
        <time>2026-08-18T08:00:01.000Z</time>
      </trkpt>
      <trkpt lat="22.904077" lon="111.253286">
        <ele>182.654324</ele>
        <time>2026-08-18T08:00:02.000Z</time>
      </trkpt>
      <trkpt lat="22.904072" lon="111.253332">
        <ele>182.667989</ele>
        <time>2026-08-18T08:00:03.000Z</time>
      </trkpt>
      <trkpt lat="22.904068" lon="111.253378">
        <ele>182.681620</ele>
        <time>2026-08-18T08:00:04.000Z</time>
      </trkpt>
      <trkpt lat="22.904063" lon="111.253424">
        <ele>182.695285</ele>
        <time>2026-08-18T08:00:05.000Z</time>
      </trkpt>
      <trkpt lat="22.904058" lon="111.253472">
        <ele>182.709535</ele>
        <time>2026-08-18T08:00:06.000Z</time>
      </trkpt>
      <trkpt lat="22.904053" lon="111.253519">
        <ele>182.723493</ele>
        <time>2026-08-18T08:00:07.000Z</time>
      </trkpt>
      <trkpt lat="22.904047" lon="111.253567">
        <ele>182.737783</ele>
        <time>2026-08-18T08:00:08.000Z</time>
      </trkpt>
      <trkpt lat="22.904041" lon="111.253615">
        <ele>182.752074</ele>
        <time>2026-08-18T08:00:09.000Z</time>
      </trkpt>
      <trkpt lat="22.904034" lon="111.253661">
        <ele>182.765828</ele>
        <time>2026-08-18T08:00:10.000Z</time>
      </trkpt>
      <trkpt lat="22.904024" lon="111.253708">
        <ele>182.780059</ele>
        <time>2026-08-18T08:00:11.000Z</time>
      </trkpt>
      <trkpt lat="22.904018" lon="111.253755">
        <ele>182.794057</ele>
        <time>2026-08-18T08:00:12.000Z</time>
      </trkpt>
      <trkpt lat="22.904012" lon="111.253804">
        <ele>182.808639</ele>
        <time>2026-08-18T08:00:13.000Z</time>
      </trkpt>
      <trkpt lat="22.904007" lon="111.253851">
        <ele>182.821912</ele>
        <time>2026-08-18T08:00:14.000Z</time>
      </trkpt>
      <trkpt lat="22.904001" lon="111.253898">
        <ele>182.834142</ele>
        <time>2026-08-18T08:00:15.000Z</time>
      </trkpt>
      <trkpt lat="22.903996" lon="111.253945">
        <ele>182.846337</ele>
        <time>2026-08-18T08:00:16.000Z</time>
      </trkpt>
      <trkpt lat="22.903992" lon="111.253992">
        <ele>182.858502</ele>
        <time>2026-08-18T08:00:17.000Z</time>
      </trkpt>
      <trkpt lat="22.903989" lon="111.254037">
        <ele>182.870131</ele>
        <time>2026-08-18T08:00:18.000Z</time>
      </trkpt>
      <trkpt lat="22.903984" lon="111.254082">
        <ele>182.881814</ele>
        <time>2026-08-18T08:00:19.000Z</time>
      </trkpt>
      <trkpt lat="22.903978" lon="111.254129">
        <ele>182.894044</ele>
        <time>2026-08-18T08:00:20.000Z</time>
      </trkpt>
      <trkpt lat="22.903971" lon="111.254175">
        <ele>182.906061</ele>
        <time>2026-08-18T08:00:21.000Z</time>
      </trkpt>
      <trkpt lat="22.903965" lon="111.254220">
        <ele>182.917780</ele>
        <time>2026-08-18T08:00:22.000Z</time>
      </trkpt>
      <trkpt lat="22.903959" lon="111.254266">
        <ele>182.929755</ele>
        <time>2026-08-18T08:00:23.000Z</time>
      </trkpt>
      <trkpt lat="22.903953" lon="111.254313">
        <ele>182.941984</ele>
        <time>2026-08-18T08:00:24.000Z</time>
      </trkpt>
      <trkpt lat="22.903947" lon="111.254361">
        <ele>182.954470</ele>
        <time>2026-08-18T08:00:25.000Z</time>
      </trkpt>
      <trkpt lat="22.903941" lon="111.254409">
        <ele>182.966955</ele>
        <time>2026-08-18T08:00:26.000Z</time>
      </trkpt>
      <trkpt lat="22.903936" lon="111.254456">
        <ele>182.979149</ele>
        <time>2026-08-18T08:00:27.000Z</time>
      </trkpt>
      <trkpt lat="22.903932" lon="111.254503">
        <ele>182.991315</ele>
        <time>2026-08-18T08:00:28.000Z</time>
      </trkpt>
      <trkpt lat="22.903928" lon="111.254550">
        <ele>183.003481</ele>
        <time>2026-08-18T08:00:29.000Z</time>
      </trkpt>
      <trkpt lat="22.903924" lon="111.254597">
        <ele>183.015646</ele>
        <time>2026-08-18T08:00:30.000Z</time>
      </trkpt>
      <trkpt lat="22.903921" lon="111.254644">
        <ele>183.027789</ele>
        <time>2026-08-18T08:00:31.000Z</time>
      </trkpt>
      <trkpt lat="22.903918" lon="111.254692">
        <ele>183.040190</ele>
        <time>2026-08-18T08:00:32.000Z</time>
      </trkpt>
      <trkpt lat="22.903913" lon="111.254738">
        <ele>183.052128</ele>
        <time>2026-08-18T08:00:33.000Z</time>
      </trkpt>
      <trkpt lat="22.903905" lon="111.254784">
        <ele>183.064194</ele>
        <time>2026-08-18T08:00:34.000Z</time>
      </trkpt>
      <trkpt lat="22.903897" lon="111.254829">
        <ele>183.076007</ele>
        <time>2026-08-18T08:00:35.000Z</time>
      </trkpt>
      <trkpt lat="22.903890" lon="111.254874">
        <ele>183.087769</ele>
        <time>2026-08-18T08:00:36.000Z</time>
      </trkpt>
      <trkpt lat="22.903883" lon="111.254919">
        <ele>183.099532</ele>
        <time>2026-08-18T08:00:37.000Z</time>
      </trkpt>
      <trkpt lat="22.903878" lon="111.254964">
        <ele>183.111215</ele>
        <time>2026-08-18T08:00:38.000Z</time>
      </trkpt>
      <trkpt lat="22.903873" lon="111.255009">
        <ele>183.122897</ele>
        <time>2026-08-18T08:00:39.000Z</time>
      </trkpt>
      <trkpt lat="22.903868" lon="111.255054">
        <ele>183.134580</ele>
        <time>2026-08-18T08:00:40.000Z</time>
      </trkpt>
      <trkpt lat="22.903865" lon="111.255099">
        <ele>183.146209</ele>
        <time>2026-08-18T08:00:41.000Z</time>
      </trkpt>
      <trkpt lat="22.903860" lon="111.255144">
        <ele>183.157891</ele>
        <time>2026-08-18T08:00:42.000Z</time>
      </trkpt>
      <trkpt lat="22.903855" lon="111.255189">
        <ele>183.169574</ele>
        <time>2026-08-18T08:00:43.000Z</time>
      </trkpt>
      <trkpt lat="22.903849" lon="111.255234">
        <ele>183.181294</ele>
        <time>2026-08-18T08:00:44.000Z</time>
      </trkpt>
      <trkpt lat="22.903842" lon="111.255279">
        <ele>183.193056</ele>
        <time>2026-08-18T08:00:45.000Z</time>
      </trkpt>
      <trkpt lat="22.903834" lon="111.255323">
        <ele>183.204616</ele>
        <time>2026-08-18T08:00:46.000Z</time>
      </trkpt>
      <trkpt lat="22.903829" lon="111.255367">
        <ele>183.216043</ele>
        <time>2026-08-18T08:00:47.000Z</time>
      </trkpt>
      <trkpt lat="22.903825" lon="111.255410">
        <ele>183.227182</ele>
        <time>2026-08-18T08:00:48.000Z</time>
      </trkpt>
      <trkpt lat="22.903823" lon="111.255453">
        <ele>183.238279</ele>
        <time>2026-08-18T08:00:49.000Z</time>
      </trkpt>
      <trkpt lat="22.903821" lon="111.255499">
        <ele>183.250149</ele>
        <time>2026-08-18T08:00:50.000Z</time>
      </trkpt>
      <trkpt lat="22.903816" lon="111.255544">
        <ele>183.261831</ele>
        <time>2026-08-18T08:00:51.000Z</time>
      </trkpt>
      <trkpt lat="22.903811" lon="111.255589">
        <ele>183.273514</ele>
        <time>2026-08-18T08:00:52.000Z</time>
      </trkpt>
      <trkpt lat="22.903805" lon="111.255631">
        <ele>183.284469</ele>
        <time>2026-08-18T08:00:53.000Z</time>
      </trkpt>
      <trkpt lat="22.903799" lon="111.255674">
        <ele>183.295678</ele>
        <time>2026-08-18T08:00:54.000Z</time>
      </trkpt>
      <trkpt lat="22.903794" lon="111.255719">
        <ele>183.307361</ele>
        <time>2026-08-18T08:00:55.000Z</time>
      </trkpt>
      <trkpt lat="22.903788" lon="111.255763">
        <ele>183.318825</ele>
        <time>2026-08-18T08:00:56.000Z</time>
      </trkpt>
      <trkpt lat="22.903784" lon="111.255809">
        <ele>183.333755</ele>
        <time>2026-08-18T08:00:57.000Z</time>
      </trkpt>
      <trkpt lat="22.903780" lon="111.255856">
        <ele>183.349493</ele>
        <time>2026-08-18T08:00:58.000Z</time>
      </trkpt>
      <trkpt lat="22.903775" lon="111.255902">
        <ele>183.364937</ele>
        <time>2026-08-18T08:00:59.000Z</time>
      </trkpt>
      <trkpt lat="22.903770" lon="111.255946">
        <ele>183.379719</ele>
        <time>2026-08-18T08:01:00.000Z</time>
      </trkpt>
      <trkpt lat="22.903765" lon="111.255991">
        <ele>183.394832</ele>
        <time>2026-08-18T08:01:01.000Z</time>
      </trkpt>
      <trkpt lat="22.903759" lon="111.256037">
        <ele>183.410323</ele>
        <time>2026-08-18T08:01:02.000Z</time>
      </trkpt>
      <trkpt lat="22.903754" lon="111.256083">
        <ele>183.425767</ele>
        <time>2026-08-18T08:01:03.000Z</time>
      </trkpt>
      <trkpt lat="22.903750" lon="111.256129">
        <ele>183.441173</ele>
        <time>2026-08-18T08:01:04.000Z</time>
      </trkpt>
      <trkpt lat="22.903744" lon="111.256174">
        <ele>183.456334</ele>
        <time>2026-08-18T08:01:05.000Z</time>
      </trkpt>
      <trkpt lat="22.903739" lon="111.256220">
        <ele>183.471778</ele>
        <time>2026-08-18T08:01:06.000Z</time>
      </trkpt>
      <trkpt lat="22.903734" lon="111.256265">
        <ele>183.486891</ele>
        <time>2026-08-18T08:01:07.000Z</time>
      </trkpt>
      <trkpt lat="22.903728" lon="111.256311">
        <ele>183.502381</ele>
        <time>2026-08-18T08:01:08.000Z</time>
      </trkpt>
      <trkpt lat="22.903724" lon="111.256356">
        <ele>183.517455</ele>
        <time>2026-08-18T08:01:09.000Z</time>
      </trkpt>
      <trkpt lat="22.903719" lon="111.256402">
        <ele>183.532899</ele>
        <time>2026-08-18T08:01:10.000Z</time>
      </trkpt>
      <trkpt lat="22.903716" lon="111.256446">
        <ele>183.547610</ele>
        <time>2026-08-18T08:01:11.000Z</time>
      </trkpt>
      <trkpt lat="22.903712" lon="111.256491">
        <ele>183.562684</ele>
        <time>2026-08-18T08:01:12.000Z</time>
      </trkpt>
      <trkpt lat="22.903706" lon="111.256535">
        <ele>183.577515</ele>
        <time>2026-08-18T08:01:13.000Z</time>
      </trkpt>
      <trkpt lat="22.903700" lon="111.256580">
        <ele>183.592676</ele>
        <time>2026-08-18T08:01:14.000Z</time>
      </trkpt>
      <trkpt lat="22.903695" lon="111.256627">
        <ele>183.608451</ele>
        <time>2026-08-18T08:01:15.000Z</time>
      </trkpt>
      <trkpt lat="22.903690" lon="111.256671">
        <ele>183.623233</ele>
        <time>2026-08-18T08:01:16.000Z</time>
      </trkpt>
      <trkpt lat="22.903685" lon="111.256716">
        <ele>183.638346</ele>
        <time>2026-08-18T08:01:17.000Z</time>
      </trkpt>
      <trkpt lat="22.903679" lon="111.256759">
        <ele>183.652847</ele>
        <time>2026-08-18T08:01:18.000Z</time>
      </trkpt>
      <trkpt lat="22.903674" lon="111.256802">
        <ele>183.667298</ele>
        <time>2026-08-18T08:01:19.000Z</time>
      </trkpt>
      <trkpt lat="22.903669" lon="111.256845">
        <ele>183.681749</ele>
        <time>2026-08-18T08:01:20.000Z</time>
      </trkpt>
      <trkpt lat="22.903664" lon="111.256888">
        <ele>183.696201</ele>
        <time>2026-08-18T08:01:21.000Z</time>
      </trkpt>
      <trkpt lat="22.903659" lon="111.256933">
        <ele>183.711314</ele>
        <time>2026-08-18T08:01:22.000Z</time>
      </trkpt>
      <trkpt lat="22.903654" lon="111.256979">
        <ele>183.726758</ele>
        <time>2026-08-18T08:01:23.000Z</time>
      </trkpt>
      <trkpt lat="22.903648" lon="111.257025">
        <ele>183.742248</ele>
        <time>2026-08-18T08:01:24.000Z</time>
      </trkpt>
      <trkpt lat="22.903643" lon="111.257071">
        <ele>183.757693</ele>
        <time>2026-08-18T08:01:25.000Z</time>
      </trkpt>
      <trkpt lat="22.903637" lon="111.257117">
        <ele>183.773183</ele>
        <time>2026-08-18T08:01:26.000Z</time>
      </trkpt>
      <trkpt lat="22.903632" lon="111.257162">
        <ele>183.788296</ele>
        <time>2026-08-18T08:01:27.000Z</time>
      </trkpt>
      <trkpt lat="22.903627" lon="111.257206">
        <ele>183.803078</ele>
        <time>2026-08-18T08:01:28.000Z</time>
      </trkpt>
      <trkpt lat="22.903622" lon="111.257251">
        <ele>183.818191</ele>
        <time>2026-08-18T08:01:29.000Z</time>
      </trkpt>
      <trkpt lat="22.903617" lon="111.257297">
        <ele>183.833636</ele>
        <time>2026-08-18T08:01:30.000Z</time>
      </trkpt>
      <trkpt lat="22.903612" lon="111.257342">
        <ele>183.848749</ele>
        <time>2026-08-18T08:01:31.000Z</time>
      </trkpt>
      <trkpt lat="22.903607" lon="111.257389">
        <ele>183.864524</ele>
        <time>2026-08-18T08:01:32.000Z</time>
      </trkpt>
      <trkpt lat="22.903602" lon="111.257434">
        <ele>183.879637</ele>
        <time>2026-08-18T08:01:33.000Z</time>
      </trkpt>
      <trkpt lat="22.903597" lon="111.257478">
        <ele>183.894419</ele>
        <time>2026-08-18T08:01:34.000Z</time>
      </trkpt>
      <trkpt lat="22.903593" lon="111.257523">
        <ele>183.909493</ele>
        <time>2026-08-18T08:01:35.000Z</time>
      </trkpt>
      <trkpt lat="22.903589" lon="111.257569">
        <ele>183.924899</ele>
        <time>2026-08-18T08:01:36.000Z</time>
      </trkpt>
      <trkpt lat="22.903585" lon="111.257616">
        <ele>183.940637</ele>
        <time>2026-08-18T08:01:37.000Z</time>
      </trkpt>
      <trkpt lat="22.903578" lon="111.257662">
        <ele>183.956182</ele>
        <time>2026-08-18T08:01:38.000Z</time>
      </trkpt>
      <trkpt lat="22.903569" lon="111.257707">
        <ele>183.971533</ele>
        <time>2026-08-18T08:01:39.000Z</time>
      </trkpt>
      <trkpt lat="22.903563" lon="111.257752">
        <ele>183.985652</ele>
        <time>2026-08-18T08:01:40.000Z</time>
      </trkpt>
      <trkpt lat="22.903558" lon="111.257797">
        <ele>183.999727</ele>
        <time>2026-08-18T08:01:41.000Z</time>
      </trkpt>
      <trkpt lat="22.903552" lon="111.257842">
        <ele>184.013846</ele>
        <time>2026-08-18T08:01:42.000Z</time>
      </trkpt>
      <trkpt lat="22.903547" lon="111.257887">
        <ele>184.027920</ele>
        <time>2026-08-18T08:01:43.000Z</time>
      </trkpt>
      <trkpt lat="22.903544" lon="111.257932">
        <ele>184.041930</ele>
        <time>2026-08-18T08:01:44.000Z</time>
      </trkpt>
      <trkpt lat="22.903540" lon="111.257978">
        <ele>184.056278</ele>
        <time>2026-08-18T08:01:45.000Z</time>
      </trkpt>
      <trkpt lat="22.903536" lon="111.258023">
        <ele>184.070316</ele>
        <time>2026-08-18T08:01:46.000Z</time>
      </trkpt>
      <trkpt lat="22.903532" lon="111.258070">
        <ele>184.084972</ele>
        <time>2026-08-18T08:01:47.000Z</time>
      </trkpt>
      <trkpt lat="22.903526" lon="111.258118">
        <ele>184.100014</ele>
        <time>2026-08-18T08:01:48.000Z</time>
      </trkpt>
      <trkpt lat="22.903519" lon="111.258165">
        <ele>184.114798</ele>
        <time>2026-08-18T08:01:49.000Z</time>
      </trkpt>
      <trkpt lat="22.903513" lon="111.258212">
        <ele>184.129531</ele>
        <time>2026-08-18T08:01:50.000Z</time>
      </trkpt>
      <trkpt lat="22.903509" lon="111.258259">
        <ele>184.144188</ele>
        <time>2026-08-18T08:01:51.000Z</time>
      </trkpt>
      <trkpt lat="22.903503" lon="111.258306">
        <ele>184.158922</ele>
        <time>2026-08-18T08:01:52.000Z</time>
      </trkpt>
      <trkpt lat="22.903497" lon="111.258353">
        <ele>184.173656</ele>
        <time>2026-08-18T08:01:53.000Z</time>
      </trkpt>
      <trkpt lat="22.903491" lon="111.258400">
        <ele>184.188390</ele>
        <time>2026-08-18T08:01:54.000Z</time>
      </trkpt>
      <trkpt lat="22.903483" lon="111.258447">
        <ele>184.203231</ele>
        <time>2026-08-18T08:01:55.000Z</time>
      </trkpt>
      <trkpt lat="22.903477" lon="111.258494">
        <ele>184.217965</ele>
        <time>2026-08-18T08:01:56.000Z</time>
      </trkpt>
      <trkpt lat="22.903471" lon="111.258540">
        <ele>184.232391</ele>
        <time>2026-08-18T08:01:57.000Z</time>
      </trkpt>
      <trkpt lat="22.903466" lon="111.258588">
        <ele>184.247391</ele>
        <time>2026-08-18T08:01:58.000Z</time>
      </trkpt>
      <trkpt lat="22.903461" lon="111.258635">
        <ele>184.262082</ele>
        <time>2026-08-18T08:01:59.000Z</time>
      </trkpt>
      <trkpt lat="22.903456" lon="111.258681">
        <ele>184.276465</ele>
        <time>2026-08-18T08:02:00.000Z</time>
      </trkpt>
      <trkpt lat="22.903453" lon="111.258729">
        <ele>184.291404</ele>
        <time>2026-08-18T08:02:01.000Z</time>
      </trkpt>
      <trkpt lat="22.903449" lon="111.258778">
        <ele>184.306680</ele>
        <time>2026-08-18T08:02:02.000Z</time>
      </trkpt>
      <trkpt lat="22.903441" lon="111.258828">
        <ele>184.322438</ele>
        <time>2026-08-18T08:02:03.000Z</time>
      </trkpt>
      <trkpt lat="22.903433" lon="111.258879">
        <ele>184.338502</ele>
        <time>2026-08-18T08:02:04.000Z</time>
      </trkpt>
      <trkpt lat="22.903426" lon="111.258928">
        <ele>184.353900</ele>
        <time>2026-08-18T08:02:05.000Z</time>
      </trkpt>
      <trkpt lat="22.903422" lon="111.258977">
        <ele>184.369175</ele>
        <time>2026-08-18T08:02:06.000Z</time>
      </trkpt>
      <trkpt lat="22.903416" lon="111.259026">
        <ele>184.384524</ele>
        <time>2026-08-18T08:02:07.000Z</time>
      </trkpt>
      <trkpt lat="22.903407" lon="111.259074">
        <ele>184.399734</ele>
        <time>2026-08-18T08:02:08.000Z</time>
      </trkpt>
      <trkpt lat="22.903398" lon="111.259121">
        <ele>184.414641</ele>
        <time>2026-08-18T08:02:09.000Z</time>
      </trkpt>
      <trkpt lat="22.903393" lon="111.259168">
        <ele>184.429332</ele>
        <time>2026-08-18T08:02:10.000Z</time>
      </trkpt>
      <trkpt lat="22.903389" lon="111.259217">
        <ele>184.444607</ele>
        <time>2026-08-18T08:02:11.000Z</time>
      </trkpt>
      <trkpt lat="22.903385" lon="111.259267">
        <ele>184.460192</ele>
        <time>2026-08-18T08:02:12.000Z</time>
      </trkpt>
      <trkpt lat="22.903380" lon="111.259313">
        <ele>184.474575</ele>
        <time>2026-08-18T08:02:13.000Z</time>
      </trkpt>
      <trkpt lat="22.903374" lon="111.259358">
        <ele>184.488693</ele>
        <time>2026-08-18T08:02:14.000Z</time>
      </trkpt>
      <trkpt lat="22.903367" lon="111.259405">
        <ele>184.503477</ele>
        <time>2026-08-18T08:02:15.000Z</time>
      </trkpt>
      <trkpt lat="22.903361" lon="111.259450">
        <ele>184.517596</ele>
        <time>2026-08-18T08:02:16.000Z</time>
      </trkpt>
      <trkpt lat="22.903355" lon="111.259496">
        <ele>184.532023</ele>
        <time>2026-08-18T08:02:17.000Z</time>
      </trkpt>
      <trkpt lat="22.903350" lon="111.259542">
        <ele>184.546406</ele>
        <time>2026-08-18T08:02:18.000Z</time>
      </trkpt>
      <trkpt lat="22.903344" lon="111.259589">
        <ele>184.561140</ele>
        <time>2026-08-18T08:02:19.000Z</time>
      </trkpt>
      <trkpt lat="22.903338" lon="111.259635">
        <ele>184.575566</ele>
        <time>2026-08-18T08:02:20.000Z</time>
      </trkpt>
      <trkpt lat="22.903333" lon="111.259683">
        <ele>184.596717</ele>
        <time>2026-08-18T08:02:21.000Z</time>
      </trkpt>
      <trkpt lat="22.903326" lon="111.259733">
        <ele>184.619993</ele>
        <time>2026-08-18T08:02:22.000Z</time>
      </trkpt>
      <trkpt lat="22.903320" lon="111.259782">
        <ele>184.642742</ele>
        <time>2026-08-18T08:02:23.000Z</time>
      </trkpt>
      <trkpt lat="22.903316" lon="111.259832">
        <ele>184.665840</ele>
        <time>2026-08-18T08:02:24.000Z</time>
      </trkpt>
      <trkpt lat="22.903311" lon="111.259882">
        <ele>184.688986</ele>
        <time>2026-08-18T08:02:25.000Z</time>
      </trkpt>
      <trkpt lat="22.903305" lon="111.259932">
        <ele>184.712192</ele>
        <time>2026-08-18T08:02:26.000Z</time>
      </trkpt>
      <trkpt lat="22.903300" lon="111.259982">
        <ele>184.735338</ele>
        <time>2026-08-18T08:02:27.000Z</time>
      </trkpt>
      <trkpt lat="22.903294" lon="111.260033">
        <ele>184.759000</ele>
        <time>2026-08-18T08:02:28.000Z</time>
      </trkpt>
      <trkpt lat="22.903288" lon="111.260084">
        <ele>184.782662</ele>
        <time>2026-08-18T08:02:29.000Z</time>
      </trkpt>
      <trkpt lat="22.903282" lon="111.260136">
        <ele>184.806781</ele>
        <time>2026-08-18T08:02:30.000Z</time>
      </trkpt>
      <trkpt lat="22.903275" lon="111.260188">
        <ele>184.830967</ele>
        <time>2026-08-18T08:02:31.000Z</time>
      </trkpt>
      <trkpt lat="22.903270" lon="111.260238">
        <ele>184.854113</ele>
        <time>2026-08-18T08:02:32.000Z</time>
      </trkpt>
      <trkpt lat="22.903262" lon="111.260288">
        <ele>184.877469</ele>
        <time>2026-08-18T08:02:33.000Z</time>
      </trkpt>
      <trkpt lat="22.903256" lon="111.260338">
        <ele>184.900675</ele>
        <time>2026-08-18T08:02:34.000Z</time>
      </trkpt>
      <trkpt lat="22.903250" lon="111.260389">
        <ele>184.924337</ele>
        <time>2026-08-18T08:02:35.000Z</time>
      </trkpt>
      <trkpt lat="22.903244" lon="111.260441">
        <ele>184.948455</ele>
        <time>2026-08-18T08:02:36.000Z</time>
      </trkpt>
      <trkpt lat="22.903238" lon="111.260490">
        <ele>184.971205</ele>
        <time>2026-08-18T08:02:37.000Z</time>
      </trkpt>
      <trkpt lat="22.903232" lon="111.260539">
        <ele>184.993954</ele>
        <time>2026-08-18T08:02:38.000Z</time>
      </trkpt>
      <trkpt lat="22.903226" lon="111.260587">
        <ele>185.016247</ele>
        <time>2026-08-18T08:02:39.000Z</time>
      </trkpt>
      <trkpt lat="22.903221" lon="111.260635">
        <ele>185.038479</ele>
        <time>2026-08-18T08:02:40.000Z</time>
      </trkpt>
      <trkpt lat="22.903216" lon="111.260678">
        <ele>185.058426</ele>
        <time>2026-08-18T08:02:41.000Z</time>
      </trkpt>
      <trkpt lat="22.903210" lon="111.260721">
        <ele>185.078441</ele>
        <time>2026-08-18T08:02:42.000Z</time>
      </trkpt>
      <trkpt lat="22.903203" lon="111.260764">
        <ele>185.098537</ele>
        <time>2026-08-18T08:02:43.000Z</time>
      </trkpt>
      <trkpt lat="22.903198" lon="111.260809">
        <ele>185.119397</ele>
        <time>2026-08-18T08:02:44.000Z</time>
      </trkpt>
      <trkpt lat="22.903194" lon="111.260855">
        <ele>185.140662</ele>
        <time>2026-08-18T08:02:45.000Z</time>
      </trkpt>
      <trkpt lat="22.903191" lon="111.260901">
        <ele>185.161885</ele>
        <time>2026-08-18T08:02:46.000Z</time>
      </trkpt>
      <trkpt lat="22.903187" lon="111.260948">
        <ele>185.183608</ele>
        <time>2026-08-18T08:02:47.000Z</time>
      </trkpt>
      <trkpt lat="22.903182" lon="111.260994">
        <ele>185.204925</ele>
        <time>2026-08-18T08:02:48.000Z</time>
      </trkpt>
      <trkpt lat="22.903177" lon="111.261039">
        <ele>185.225785</ele>
        <time>2026-08-18T08:02:49.000Z</time>
      </trkpt>
      <trkpt lat="22.903172" lon="111.261084">
        <ele>185.246645</ele>
        <time>2026-08-18T08:02:50.000Z</time>
      </trkpt>
      <trkpt lat="22.903167" lon="111.261129">
        <ele>185.267506</ele>
        <time>2026-08-18T08:02:51.000Z</time>
      </trkpt>
      <trkpt lat="22.903161" lon="111.261175">
        <ele>185.288887</ele>
        <time>2026-08-18T08:02:52.000Z</time>
      </trkpt>
      <trkpt lat="22.903155" lon="111.261222">
        <ele>185.310724</ele>
        <time>2026-08-18T08:02:53.000Z</time>
      </trkpt>
      <trkpt lat="22.903150" lon="111.261270">
        <ele>185.332956</ele>
        <time>2026-08-18T08:02:54.000Z</time>
      </trkpt>
      <trkpt lat="22.903144" lon="111.261319">
        <ele>185.355705</ele>
        <time>2026-08-18T08:02:55.000Z</time>
      </trkpt>
      <trkpt lat="22.903138" lon="111.261369">
        <ele>185.378911</ele>
        <time>2026-08-18T08:02:56.000Z</time>
      </trkpt>
      <trkpt lat="22.903132" lon="111.261418">
        <ele>185.401660</ele>
        <time>2026-08-18T08:02:57.000Z</time>
      </trkpt>
      <trkpt lat="22.903128" lon="111.261467">
        <ele>185.424300</ele>
        <time>2026-08-18T08:02:58.000Z</time>
      </trkpt>
      <trkpt lat="22.903123" lon="111.261515">
        <ele>185.446531</ele>
        <time>2026-08-18T08:02:59.000Z</time>
      </trkpt>
      <trkpt lat="22.903117" lon="111.261564">
        <ele>185.469281</ele>
        <time>2026-08-18T08:03:00.000Z</time>
      </trkpt>
      <trkpt lat="22.903112" lon="111.261614">
        <ele>185.479785</ele>
        <time>2026-08-18T08:03:01.000Z</time>
      </trkpt>
      <trkpt lat="22.903106" lon="111.261662">
        <ele>185.484462</ele>
        <time>2026-08-18T08:03:02.000Z</time>
      </trkpt>
      <trkpt lat="22.903101" lon="111.261709">
        <ele>185.489030</ele>
        <time>2026-08-18T08:03:03.000Z</time>
      </trkpt>
      <trkpt lat="22.903096" lon="111.261757">
        <ele>185.493694</ele>
        <time>2026-08-18T08:03:04.000Z</time>
      </trkpt>
      <trkpt lat="22.903091" lon="111.261804">
        <ele>185.498261</ele>
        <time>2026-08-18T08:03:05.000Z</time>
      </trkpt>
      <trkpt lat="22.903086" lon="111.261853">
        <ele>185.503021</ele>
        <time>2026-08-18T08:03:06.000Z</time>
      </trkpt>
      <trkpt lat="22.903079" lon="111.261902">
        <ele>185.507809</ele>
        <time>2026-08-18T08:03:07.000Z</time>
      </trkpt>
      <trkpt lat="22.903074" lon="111.261949">
        <ele>185.512376</ele>
        <time>2026-08-18T08:03:08.000Z</time>
      </trkpt>
      <trkpt lat="22.903069" lon="111.261998">
        <ele>185.517136</ele>
        <time>2026-08-18T08:03:09.000Z</time>
      </trkpt>
      <trkpt lat="22.903063" lon="111.262050">
        <ele>185.522196</ele>
        <time>2026-08-18T08:03:10.000Z</time>
      </trkpt>
      <trkpt lat="22.903058" lon="111.262099">
        <ele>185.526956</ele>
        <time>2026-08-18T08:03:11.000Z</time>
      </trkpt>
      <trkpt lat="22.903055" lon="111.262147">
        <ele>185.531601</ele>
        <time>2026-08-18T08:03:12.000Z</time>
      </trkpt>
      <trkpt lat="22.903050" lon="111.262197">
        <ele>185.536456</ele>
        <time>2026-08-18T08:03:13.000Z</time>
      </trkpt>
      <trkpt lat="22.903046" lon="111.262248">
        <ele>185.541398</ele>
        <time>2026-08-18T08:03:14.000Z</time>
      </trkpt>
      <trkpt lat="22.903041" lon="111.262300">
        <ele>185.546446</ele>
        <time>2026-08-18T08:03:15.000Z</time>
      </trkpt>
      <trkpt lat="22.903037" lon="111.262353">
        <ele>185.551580</ele>
        <time>2026-08-18T08:03:16.000Z</time>
      </trkpt>
      <trkpt lat="22.903035" lon="111.262408">
        <ele>185.556894</ele>
        <time>2026-08-18T08:03:17.000Z</time>
      </trkpt>
      <trkpt lat="22.903030" lon="111.262461">
        <ele>185.562038</ele>
        <time>2026-08-18T08:03:18.000Z</time>
      </trkpt>
      <trkpt lat="22.903024" lon="111.262514">
        <ele>185.567193</ele>
        <time>2026-08-18T08:03:19.000Z</time>
      </trkpt>
      <trkpt lat="22.903019" lon="111.262565">
        <ele>185.572145</ele>
        <time>2026-08-18T08:03:20.000Z</time>
      </trkpt>
      <trkpt lat="22.903015" lon="111.262617">
        <ele>185.577183</ele>
        <time>2026-08-18T08:03:21.000Z</time>
      </trkpt>
      <trkpt lat="22.903011" lon="111.262670">
        <ele>185.582317</ele>
        <time>2026-08-18T08:03:22.000Z</time>
      </trkpt>
      <trkpt lat="22.903007" lon="111.262721">
        <ele>185.587259</ele>
        <time>2026-08-18T08:03:23.000Z</time>
      </trkpt>
      <trkpt lat="22.903002" lon="111.262771">
        <ele>185.592114</ele>
        <time>2026-08-18T08:03:24.000Z</time>
      </trkpt>
      <trkpt lat="22.902999" lon="111.262820">
        <ele>185.596856</ele>
        <time>2026-08-18T08:03:25.000Z</time>
      </trkpt>
      <trkpt lat="22.902997" lon="111.262869">
        <ele>185.601591</ele>
        <time>2026-08-18T08:03:26.000Z</time>
      </trkpt>
      <trkpt lat="22.902994" lon="111.262918">
        <ele>185.606332</ele>
        <time>2026-08-18T08:03:27.000Z</time>
      </trkpt>
      <trkpt lat="22.902990" lon="111.262969">
        <ele>185.611274</ele>
        <time>2026-08-18T08:03:28.000Z</time>
      </trkpt>
      <trkpt lat="22.902986" lon="111.263018">
        <ele>185.616023</ele>
        <time>2026-08-18T08:03:29.000Z</time>
      </trkpt>
      <trkpt lat="22.902983" lon="111.263068">
        <ele>185.620861</ele>
        <time>2026-08-18T08:03:30.000Z</time>
      </trkpt>
      <trkpt lat="22.902980" lon="111.263119">
        <ele>185.625795</ele>
        <time>2026-08-18T08:03:31.000Z</time>
      </trkpt>
      <trkpt lat="22.902977" lon="111.263173">
        <ele>185.631018</ele>
        <time>2026-08-18T08:03:32.000Z</time>
      </trkpt>
      <trkpt lat="22.902973" lon="111.263227">
        <ele>185.636248</ele>
        <time>2026-08-18T08:03:33.000Z</time>
      </trkpt>
      <trkpt lat="22.902968" lon="111.263281">
        <ele>185.641488</ele>
        <time>2026-08-18T08:03:34.000Z</time>
      </trkpt>
      <trkpt lat="22.902965" lon="111.263336">
        <ele>185.646808</ele>
        <time>2026-08-18T08:03:35.000Z</time>
      </trkpt>
      <trkpt lat="22.902963" lon="111.263391">
        <ele>185.652122</ele>
        <time>2026-08-18T08:03:36.000Z</time>
      </trkpt>
      <trkpt lat="22.902961" lon="111.263444">
        <ele>185.657243</ele>
        <time>2026-08-18T08:03:37.000Z</time>
      </trkpt>
      <trkpt lat="22.902959" lon="111.263498">
        <ele>185.662461</ele>
        <time>2026-08-18T08:03:38.000Z</time>
      </trkpt>
      <trkpt lat="22.902955" lon="111.263553">
        <ele>185.657182</ele>
        <time>2026-08-18T08:03:39.000Z</time>
      </trkpt>
      <trkpt lat="22.902951" lon="111.263608">
        <ele>185.642637</ele>
        <time>2026-08-18T08:03:40.000Z</time>
      </trkpt>
      <trkpt lat="22.902946" lon="111.263664">
        <ele>185.627805</ele>
        <time>2026-08-18T08:03:41.000Z</time>
      </trkpt>
      <trkpt lat="22.902943" lon="111.263719">
        <ele>185.613281</ele>
        <time>2026-08-18T08:03:42.000Z</time>
      </trkpt>
      <trkpt lat="22.902939" lon="111.263772">
        <ele>185.599262</ele>
        <time>2026-08-18T08:03:43.000Z</time>
      </trkpt>
      <trkpt lat="22.902933" lon="111.263828">
        <ele>185.584400</ele>
        <time>2026-08-18T08:03:44.000Z</time>
      </trkpt>
      <trkpt lat="22.902927" lon="111.263883">
        <ele>185.569799</ele>
        <time>2026-08-18T08:03:45.000Z</time>
      </trkpt>
      <trkpt lat="22.902922" lon="111.263938">
        <ele>185.555229</ele>
        <time>2026-08-18T08:03:46.000Z</time>
      </trkpt>
      <trkpt lat="22.902921" lon="111.263991">
        <ele>185.541254</ele>
        <time>2026-08-18T08:03:47.000Z</time>
      </trkpt>
      <trkpt lat="22.902918" lon="111.264044">
        <ele>185.527256</ele>
        <time>2026-08-18T08:03:48.000Z</time>
      </trkpt>
      <trkpt lat="22.902915" lon="111.264096">
        <ele>185.513521</ele>
        <time>2026-08-18T08:03:49.000Z</time>
      </trkpt>
      <trkpt lat="22.902912" lon="111.264148">
        <ele>185.499786</ele>
        <time>2026-08-18T08:03:50.000Z</time>
      </trkpt>
      <trkpt lat="22.902908" lon="111.264200">
        <ele>185.486030</ele>
        <time>2026-08-18T08:03:51.000Z</time>
      </trkpt>
      <trkpt lat="22.902904" lon="111.264253">
        <ele>185.472011</ele>
        <time>2026-08-18T08:03:52.000Z</time>
      </trkpt>
      <trkpt lat="22.902901" lon="111.264306">
        <ele>185.458013</ele>
        <time>2026-08-18T08:03:53.000Z</time>
      </trkpt>
      <trkpt lat="22.902897" lon="111.264359">
        <ele>185.443994</ele>
        <time>2026-08-18T08:03:54.000Z</time>
      </trkpt>
      <trkpt lat="22.902892" lon="111.264412">
        <ele>185.429949</ele>
        <time>2026-08-18T08:03:55.000Z</time>
      </trkpt>
      <trkpt lat="22.902886" lon="111.264466">
        <ele>185.415610</ele>
        <time>2026-08-18T08:03:56.000Z</time>
      </trkpt>
      <trkpt lat="22.902881" lon="111.264519">
        <ele>185.401565</ele>
        <time>2026-08-18T08:03:57.000Z</time>
      </trkpt>
      <trkpt lat="22.902873" lon="111.264570">
        <ele>185.387927</ele>
        <time>2026-08-18T08:03:58.000Z</time>
      </trkpt>
      <trkpt lat="22.902867" lon="111.264623">
        <ele>185.373849</ele>
        <time>2026-08-18T08:03:59.000Z</time>
      </trkpt>
      <trkpt lat="22.902863" lon="111.264676">
        <ele>185.359831</ele>
        <time>2026-08-18T08:04:00.000Z</time>
      </trkpt>
      <trkpt lat="22.902859" lon="111.264729">
        <ele>185.345812</ele>
        <time>2026-08-18T08:04:01.000Z</time>
      </trkpt>
      <trkpt lat="22.902855" lon="111.264782">
        <ele>185.331793</ele>
        <time>2026-08-18T08:04:02.000Z</time>
      </trkpt>
      <trkpt lat="22.902851" lon="111.264835">
        <ele>185.317774</ele>
        <time>2026-08-18T08:04:03.000Z</time>
      </trkpt>
      <trkpt lat="22.902848" lon="111.264888">
        <ele>185.303776</ele>
        <time>2026-08-18T08:04:04.000Z</time>
      </trkpt>
      <trkpt lat="22.902845" lon="111.264938">
        <ele>185.290567</ele>
        <time>2026-08-18T08:04:05.000Z</time>
      </trkpt>
      <trkpt lat="22.902842" lon="111.264992">
        <ele>185.276305</ele>
        <time>2026-08-18T08:04:06.000Z</time>
      </trkpt>
      <trkpt lat="22.902839" lon="111.265047">
        <ele>185.261781</ele>
        <time>2026-08-18T08:04:07.000Z</time>
      </trkpt>
      <trkpt lat="22.902836" lon="111.265102">
        <ele>185.247256</ele>
        <time>2026-08-18T08:04:08.000Z</time>
      </trkpt>
      <trkpt lat="22.902833" lon="111.265158">
        <ele>185.232468</ele>
        <time>2026-08-18T08:04:09.000Z</time>
      </trkpt>
      <trkpt lat="22.902829" lon="111.265215">
        <ele>185.217398</ele>
        <time>2026-08-18T08:04:10.000Z</time>
      </trkpt>
      <trkpt lat="22.902825" lon="111.265273">
        <ele>185.202065</ele>
        <time>2026-08-18T08:04:11.000Z</time>
      </trkpt>
      <trkpt lat="22.902821" lon="111.265331">
        <ele>185.186733</ele>
        <time>2026-08-18T08:04:12.000Z</time>
      </trkpt>
      <trkpt lat="22.902816" lon="111.265390">
        <ele>185.171113</ele>
        <time>2026-08-18T08:04:13.000Z</time>
      </trkpt>
      <trkpt lat="22.902810" lon="111.265448">
        <ele>185.155727</ele>
        <time>2026-08-18T08:04:14.000Z</time>
      </trkpt>
      <trkpt lat="22.902806" lon="111.265505">
        <ele>185.141752</ele>
        <time>2026-08-18T08:04:15.000Z</time>
      </trkpt>
      <trkpt lat="22.902803" lon="111.265561">
        <ele>185.128661</ele>
        <time>2026-08-18T08:04:16.000Z</time>
      </trkpt>
      <trkpt lat="22.902800" lon="111.265616">
        <ele>185.115803</ele>
        <time>2026-08-18T08:04:17.000Z</time>
      </trkpt>
      <trkpt lat="22.902799" lon="111.265671">
        <ele>185.102965</ele>
        <time>2026-08-18T08:04:18.000Z</time>
      </trkpt>
      <trkpt lat="22.902796" lon="111.265726">
        <ele>185.090107</ele>
        <time>2026-08-18T08:04:19.000Z</time>
      </trkpt>
      <trkpt lat="22.902793" lon="111.265781">
        <ele>185.077248</ele>
        <time>2026-08-18T08:04:20.000Z</time>
      </trkpt>
      <trkpt lat="22.902789" lon="111.265837">
        <ele>185.064140</ele>
        <time>2026-08-18T08:04:21.000Z</time>
      </trkpt>
      <trkpt lat="22.902785" lon="111.265892">
        <ele>185.051265</ele>
        <time>2026-08-18T08:04:22.000Z</time>
      </trkpt>
      <trkpt lat="22.902781" lon="111.265950">
        <ele>185.037691</ele>
        <time>2026-08-18T08:04:23.000Z</time>
      </trkpt>
      <trkpt lat="22.902776" lon="111.266007">
        <ele>185.024328</ele>
        <time>2026-08-18T08:04:24.000Z</time>
      </trkpt>
      <trkpt lat="22.902771" lon="111.266062">
        <ele>185.011430</ele>
        <time>2026-08-18T08:04:25.000Z</time>
      </trkpt>
      <trkpt lat="22.902767" lon="111.266117">
        <ele>184.998555</ele>
        <time>2026-08-18T08:04:26.000Z</time>
      </trkpt>
      <trkpt lat="22.902764" lon="111.266179">
        <ele>184.984065</ele>
        <time>2026-08-18T08:04:27.000Z</time>
      </trkpt>
      <trkpt lat="22.902763" lon="111.266232">
        <ele>184.971694</ele>
        <time>2026-08-18T08:04:28.000Z</time>
      </trkpt>
      <trkpt lat="22.902760" lon="111.266291">
        <ele>184.957904</ele>
        <time>2026-08-18T08:04:29.000Z</time>
      </trkpt>
      <trkpt lat="22.902758" lon="111.266347">
        <ele>184.944825</ele>
        <time>2026-08-18T08:04:30.000Z</time>
      </trkpt>
      <trkpt lat="22.902754" lon="111.266406">
        <ele>184.931019</ele>
        <time>2026-08-18T08:04:31.000Z</time>
      </trkpt>
      <trkpt lat="22.902751" lon="111.266464">
        <ele>184.917461</ele>
        <time>2026-08-18T08:04:32.000Z</time>
      </trkpt>
      <trkpt lat="22.902749" lon="111.266521">
        <ele>184.904149</ele>
        <time>2026-08-18T08:04:33.000Z</time>
      </trkpt>
      <trkpt lat="22.902747" lon="111.266579">
        <ele>184.890604</ele>
        <time>2026-08-18T08:04:34.000Z</time>
      </trkpt>
      <trkpt lat="22.902742" lon="111.266636">
        <ele>184.877242</ele>
        <time>2026-08-18T08:04:35.000Z</time>
      </trkpt>
      <trkpt lat="22.902740" lon="111.266690">
        <ele>184.864629</ele>
        <time>2026-08-18T08:04:36.000Z</time>
      </trkpt>
      <trkpt lat="22.902738" lon="111.266745">
        <ele>184.851783</ele>
        <time>2026-08-18T08:04:37.000Z</time>
      </trkpt>
      <trkpt lat="22.902737" lon="111.266801">
        <ele>184.838712</ele>
        <time>2026-08-18T08:04:38.000Z</time>
      </trkpt>
      <trkpt lat="22.902736" lon="111.266855">
        <ele>184.826107</ele>
        <time>2026-08-18T08:04:39.000Z</time>
      </trkpt>
      <trkpt lat="22.902735" lon="111.266912">
        <ele>184.812802</ele>
        <time>2026-08-18T08:04:40.000Z</time>
      </trkpt>
      <trkpt lat="22.902735" lon="111.266969">
        <ele>184.799500</ele>
        <time>2026-08-18T08:04:41.000Z</time>
      </trkpt>
      <trkpt lat="22.902733" lon="111.267027">
        <ele>184.785955</ele>
        <time>2026-08-18T08:04:42.000Z</time>
      </trkpt>
      <trkpt lat="22.902731" lon="111.267083">
        <ele>184.772876</ele>
        <time>2026-08-18T08:04:43.000Z</time>
      </trkpt>
      <trkpt lat="22.902731" lon="111.267136">
        <ele>184.760507</ele>
        <time>2026-08-18T08:04:44.000Z</time>
      </trkpt>
      <trkpt lat="22.902729" lon="111.267188">
        <ele>184.748361</ele>
        <time>2026-08-18T08:04:45.000Z</time>
      </trkpt>
      <trkpt lat="22.902724" lon="111.267239">
        <ele>184.736391</ele>
        <time>2026-08-18T08:04:46.000Z</time>
      </trkpt>
      <trkpt lat="22.902718" lon="111.267291">
        <ele>184.724161</ele>
        <time>2026-08-18T08:04:47.000Z</time>
      </trkpt>
      <trkpt lat="22.902713" lon="111.267346">
        <ele>184.711263</ele>
        <time>2026-08-18T08:04:48.000Z</time>
      </trkpt>
      <trkpt lat="22.902710" lon="111.267402">
        <ele>184.698172</ele>
        <time>2026-08-18T08:04:49.000Z</time>
      </trkpt>
      <trkpt lat="22.902706" lon="111.267458">
        <ele>184.687814</ele>
        <time>2026-08-18T08:04:50.000Z</time>
      </trkpt>
      <trkpt lat="22.902700" lon="111.267513">
        <ele>184.678648</ele>
        <time>2026-08-18T08:04:51.000Z</time>
      </trkpt>
      <trkpt lat="22.902693" lon="111.267568">
        <ele>184.669460</ele>
        <time>2026-08-18T08:04:52.000Z</time>
      </trkpt>
      <trkpt lat="22.902687" lon="111.267624">
        <ele>184.660130</ele>
        <time>2026-08-18T08:04:53.000Z</time>
      </trkpt>
      <trkpt lat="22.902683" lon="111.267680">
        <ele>184.650834</ele>
        <time>2026-08-18T08:04:54.000Z</time>
      </trkpt>
      <trkpt lat="22.902679" lon="111.267737">
        <ele>184.641374</ele>
        <time>2026-08-18T08:04:55.000Z</time>
      </trkpt>
      <trkpt lat="22.902676" lon="111.267792">
        <ele>184.632256</ele>
        <time>2026-08-18T08:04:56.000Z</time>
      </trkpt>
      <trkpt lat="22.902673" lon="111.267847">
        <ele>184.623138</ele>
        <time>2026-08-18T08:04:57.000Z</time>
      </trkpt>
      <trkpt lat="22.902671" lon="111.267902">
        <ele>184.614028</ele>
        <time>2026-08-18T08:04:58.000Z</time>
      </trkpt>
      <trkpt lat="22.902667" lon="111.267957">
        <ele>184.604898</ele>
        <time>2026-08-18T08:04:59.000Z</time>
      </trkpt>
      <trkpt lat="22.902665" lon="111.268011">
        <ele>184.595954</ele>
        <time>2026-08-18T08:05:00.000Z</time>
      </trkpt>
      <trkpt lat="22.902663" lon="111.268065">
        <ele>184.587010</ele>
        <time>2026-08-18T08:05:01.000Z</time>
      </trkpt>
      <trkpt lat="22.902663" lon="111.268119">
        <ele>184.578074</ele>
        <time>2026-08-18T08:05:02.000Z</time>
      </trkpt>
      <trkpt lat="22.902664" lon="111.268174">
        <ele>184.568970</ele>
        <time>2026-08-18T08:05:03.000Z</time>
      </trkpt>
      <trkpt lat="22.902666" lon="111.268228">
        <ele>184.560026</ele>
        <time>2026-08-18T08:05:04.000Z</time>
      </trkpt>
      <trkpt lat="22.902670" lon="111.268283">
        <ele>184.550895</ele>
        <time>2026-08-18T08:05:05.000Z</time>
      </trkpt>
      <trkpt lat="22.902674" lon="111.268338">
        <ele>184.541765</ele>
        <time>2026-08-18T08:05:06.000Z</time>
      </trkpt>
      <trkpt lat="22.902679" lon="111.268394">
        <ele>184.532454</ele>
        <time>2026-08-18T08:05:07.000Z</time>
      </trkpt>
      <trkpt lat="22.902685" lon="111.268450">
        <ele>184.523124</ele>
        <time>2026-08-18T08:05:08.000Z</time>
      </trkpt>
      <trkpt lat="22.902691" lon="111.268505">
        <ele>184.513958</ele>
        <time>2026-08-18T08:05:09.000Z</time>
      </trkpt>
      <trkpt lat="22.902697" lon="111.268561">
        <ele>184.504628</ele>
        <time>2026-08-18T08:05:10.000Z</time>
      </trkpt>
      <trkpt lat="22.902703" lon="111.268615">
        <ele>184.495626</ele>
        <time>2026-08-18T08:05:11.000Z</time>
      </trkpt>
      <trkpt lat="22.902709" lon="111.268670">
        <ele>184.486461</ele>
        <time>2026-08-18T08:05:12.000Z</time>
      </trkpt>
      <trkpt lat="22.902716" lon="111.268726">
        <ele>184.477108</ele>
        <time>2026-08-18T08:05:13.000Z</time>
      </trkpt>
      <trkpt lat="22.902723" lon="111.268782">
        <ele>184.467756</ele>
        <time>2026-08-18T08:05:14.000Z</time>
      </trkpt>
      <trkpt lat="22.902732" lon="111.268838">
        <ele>184.458348</ele>
        <time>2026-08-18T08:05:15.000Z</time>
      </trkpt>
      <trkpt lat="22.902744" lon="111.268895">
        <ele>184.448672</ele>
        <time>2026-08-18T08:05:16.000Z</time>
      </trkpt>
      <trkpt lat="22.902755" lon="111.268951">
        <ele>184.439196</ele>
        <time>2026-08-18T08:05:17.000Z</time>
      </trkpt>
      <trkpt lat="22.902762" lon="111.269008">
        <ele>184.429679</ele>
        <time>2026-08-18T08:05:18.000Z</time>
      </trkpt>
      <trkpt lat="22.902768" lon="111.269068">
        <ele>184.419691</ele>
        <time>2026-08-18T08:05:19.000Z</time>
      </trkpt>
      <trkpt lat="22.902774" lon="111.269126">
        <ele>184.410032</ele>
        <time>2026-08-18T08:05:20.000Z</time>
      </trkpt>
      <trkpt lat="22.902782" lon="111.269184">
        <ele>184.400326</ele>
        <time>2026-08-18T08:05:21.000Z</time>
      </trkpt>
      <trkpt lat="22.902791" lon="111.269242">
        <ele>184.390593</ele>
        <time>2026-08-18T08:05:22.000Z</time>
      </trkpt>
      <trkpt lat="22.902801" lon="111.269299">
        <ele>184.380990</ele>
        <time>2026-08-18T08:05:23.000Z</time>
      </trkpt>
      <trkpt lat="22.902811" lon="111.269354">
        <ele>184.371712</ele>
        <time>2026-08-18T08:05:24.000Z</time>
      </trkpt>
      <trkpt lat="22.902819" lon="111.269409">
        <ele>184.458473</ele>
        <time>2026-08-18T08:05:25.000Z</time>
      </trkpt>
      <trkpt lat="22.902828" lon="111.269463">
        <ele>184.547488</ele>
        <time>2026-08-18T08:05:26.000Z</time>
      </trkpt>
      <trkpt lat="22.902837" lon="111.269518">
        <ele>184.638099</ele>
        <time>2026-08-18T08:05:27.000Z</time>
      </trkpt>
      <trkpt lat="22.902845" lon="111.269571">
        <ele>184.725216</ele>
        <time>2026-08-18T08:05:28.000Z</time>
      </trkpt>
      <trkpt lat="22.902855" lon="111.269622">
        <ele>184.809795</ele>
        <time>2026-08-18T08:05:29.000Z</time>
      </trkpt>
      <trkpt lat="22.902864" lon="111.269672">
        <ele>184.892433</ele>
        <time>2026-08-18T08:05:30.000Z</time>
      </trkpt>
      <trkpt lat="22.902873" lon="111.269721">
        <ele>184.973479</ele>
        <time>2026-08-18T08:05:31.000Z</time>
      </trkpt>
      <trkpt lat="22.902881" lon="111.269769">
        <ele>185.052603</ele>
        <time>2026-08-18T08:05:32.000Z</time>
      </trkpt>
      <trkpt lat="22.902888" lon="111.269816">
        <ele>185.129831</ele>
        <time>2026-08-18T08:05:33.000Z</time>
      </trkpt>
      <trkpt lat="22.902895" lon="111.269863">
        <ele>185.207059</ele>
        <time>2026-08-18T08:05:34.000Z</time>
      </trkpt>
      <trkpt lat="22.902901" lon="111.269908">
        <ele>185.280813</ele>
        <time>2026-08-18T08:05:35.000Z</time>
      </trkpt>
      <trkpt lat="22.902910" lon="111.269953">
        <ele>185.355507</ele>
        <time>2026-08-18T08:05:36.000Z</time>
      </trkpt>
      <trkpt lat="22.902920" lon="111.269996">
        <ele>185.427445</ele>
        <time>2026-08-18T08:05:37.000Z</time>
      </trkpt>
      <trkpt lat="22.902924" lon="111.270041">
        <ele>185.500777</ele>
        <time>2026-08-18T08:05:38.000Z</time>
      </trkpt>
      <trkpt lat="22.902930" lon="111.270084">
        <ele>185.571322</ele>
        <time>2026-08-18T08:05:39.000Z</time>
      </trkpt>
      <trkpt lat="22.902938" lon="111.270126">
        <ele>185.640891</ele>
        <time>2026-08-18T08:05:40.000Z</time>
      </trkpt>
      <trkpt lat="22.902945" lon="111.270168">
        <ele>185.710124</ele>
        <time>2026-08-18T08:05:41.000Z</time>
      </trkpt>
      <trkpt lat="22.902951" lon="111.270210">
        <ele>185.779066</ele>
        <time>2026-08-18T08:05:42.000Z</time>
      </trkpt>
      <trkpt lat="22.902956" lon="111.270253">
        <ele>185.849369</ele>
        <time>2026-08-18T08:05:43.000Z</time>
      </trkpt>
      <trkpt lat="22.902963" lon="111.270296">
        <ele>185.920199</ele>
        <time>2026-08-18T08:05:44.000Z</time>
      </trkpt>
      <trkpt lat="22.902970" lon="111.270340">
        <ele>185.992627</ele>
        <time>2026-08-18T08:05:45.000Z</time>
      </trkpt>
      <trkpt lat="22.902977" lon="111.270381">
        <ele>186.060265</ele>
        <time>2026-08-18T08:05:46.000Z</time>
      </trkpt>
      <trkpt lat="22.902984" lon="111.270423">
        <ele>186.129498</ele>
        <time>2026-08-18T08:05:47.000Z</time>
      </trkpt>
      <trkpt lat="22.902991" lon="111.270464">
        <ele>186.197136</ele>
        <time>2026-08-18T08:05:48.000Z</time>
      </trkpt>
      <trkpt lat="22.902998" lon="111.270505">
        <ele>186.264774</ele>
        <time>2026-08-18T08:05:49.000Z</time>
      </trkpt>
      <trkpt lat="22.903008" lon="111.270544">
        <ele>186.330440</ele>
        <time>2026-08-18T08:05:50.000Z</time>
      </trkpt>
      <trkpt lat="22.903015" lon="111.270584">
        <ele>186.396484</ele>
        <time>2026-08-18T08:05:51.000Z</time>
      </trkpt>
      <trkpt lat="22.903023" lon="111.270624">
        <ele>186.462878</ele>
        <time>2026-08-18T08:05:52.000Z</time>
      </trkpt>
      <trkpt lat="22.903027" lon="111.270664">
        <ele>186.528143</ele>
        <time>2026-08-18T08:05:53.000Z</time>
      </trkpt>
      <trkpt lat="22.903032" lon="111.270703">
        <ele>186.592013</ele>
        <time>2026-08-18T08:05:54.000Z</time>
      </trkpt>
      <trkpt lat="22.903039" lon="111.270741">
        <ele>186.654873</ele>
        <time>2026-08-18T08:05:55.000Z</time>
      </trkpt>
      <trkpt lat="22.903044" lon="111.270780">
        <ele>186.718743</ele>
        <time>2026-08-18T08:05:56.000Z</time>
      </trkpt>
      <trkpt lat="22.903048" lon="111.270818">
        <ele>186.780784</ele>
        <time>2026-08-18T08:05:57.000Z</time>
      </trkpt>
      <trkpt lat="22.903052" lon="111.270858">
        <ele>186.846048</ele>
        <time>2026-08-18T08:05:58.000Z</time>
      </trkpt>
      <trkpt lat="22.903056" lon="111.270897">
        <ele>186.909700</ele>
        <time>2026-08-18T08:05:59.000Z</time>
      </trkpt>
      <trkpt lat="22.903060" lon="111.270934">
        <ele>186.970128</ele>
        <time>2026-08-18T08:06:00.000Z</time>
      </trkpt>
      <trkpt lat="22.903062" lon="111.270971">
        <ele>187.030249</ele>
        <time>2026-08-18T08:06:01.000Z</time>
      </trkpt>
      <trkpt lat="22.903069" lon="111.271009">
        <ele>187.093108</ele>
        <time>2026-08-18T08:06:02.000Z</time>
      </trkpt>
      <trkpt lat="22.903074" lon="111.271046">
        <ele>187.153767</ele>
        <time>2026-08-18T08:06:03.000Z</time>
      </trkpt>
      <trkpt lat="22.903080" lon="111.271085">
        <ele>187.217904</ele>
        <time>2026-08-18T08:06:04.000Z</time>
      </trkpt>
      <trkpt lat="22.903088" lon="111.271124">
        <ele>187.282715</ele>
        <time>2026-08-18T08:06:05.000Z</time>
      </trkpt>
      <trkpt lat="22.903094" lon="111.271162">
        <ele>187.345253</ele>
        <time>2026-08-18T08:06:06.000Z</time>
      </trkpt>
      <trkpt lat="22.903100" lon="111.271199">
        <ele>187.406192</ele>
        <time>2026-08-18T08:06:07.000Z</time>
      </trkpt>
      <trkpt lat="22.903106" lon="111.271236">
        <ele>187.467132</ele>
        <time>2026-08-18T08:06:08.000Z</time>
      </trkpt>
      <trkpt lat="22.903111" lon="111.271274">
        <ele>187.529396</ele>
        <time>2026-08-18T08:06:09.000Z</time>
      </trkpt>
      <trkpt lat="22.903118" lon="111.271313">
        <ele>187.613176</ele>
        <time>2026-08-18T08:06:10.000Z</time>
      </trkpt>
      <trkpt lat="22.903127" lon="111.271350">
        <ele>187.696971</ele>
        <time>2026-08-18T08:06:11.000Z</time>
      </trkpt>
      <trkpt lat="22.903131" lon="111.271384">
        <ele>187.772025</ele>
        <time>2026-08-18T08:06:12.000Z</time>
      </trkpt>
      <trkpt lat="22.903137" lon="111.271419">
        <ele>187.849979</ele>
        <time>2026-08-18T08:06:13.000Z</time>
      </trkpt>
      <trkpt lat="22.903143" lon="111.271455">
        <ele>187.930087</ele>
        <time>2026-08-18T08:06:14.000Z</time>
      </trkpt>
      <trkpt lat="22.903148" lon="111.271489">
        <ele>188.005479</ele>
        <time>2026-08-18T08:06:15.000Z</time>
      </trkpt>
      <trkpt lat="22.903155" lon="111.271524">
        <ele>188.083903</ele>
        <time>2026-08-18T08:06:16.000Z</time>
      </trkpt>
      <trkpt lat="22.903161" lon="111.271561">
        <ele>188.166167</ele>
        <time>2026-08-18T08:06:17.000Z</time>
      </trkpt>
      <trkpt lat="22.903168" lon="111.271596">
        <ele>188.244591</ele>
        <time>2026-08-18T08:06:18.000Z</time>
      </trkpt>
      <trkpt lat="22.903176" lon="111.271628">
        <ele>188.317195</ele>
        <time>2026-08-18T08:06:19.000Z</time>
      </trkpt>
      <trkpt lat="22.903181" lon="111.271663">
        <ele>188.394750</ele>
        <time>2026-08-18T08:06:20.000Z</time>
      </trkpt>
      <trkpt lat="22.903187" lon="111.271699">
        <ele>188.474858</ele>
        <time>2026-08-18T08:06:21.000Z</time>
      </trkpt>
      <trkpt lat="22.903192" lon="111.271736">
        <ele>188.556743</ele>
        <time>2026-08-18T08:06:22.000Z</time>
      </trkpt>
      <trkpt lat="22.903197" lon="111.271771">
        <ele>188.634298</ele>
        <time>2026-08-18T08:06:23.000Z</time>
      </trkpt>
      <trkpt lat="22.903203" lon="111.271806">
        <ele>188.712252</ele>
        <time>2026-08-18T08:06:24.000Z</time>
      </trkpt>
      <trkpt lat="22.903209" lon="111.271842">
        <ele>188.792360</ele>
        <time>2026-08-18T08:06:25.000Z</time>
      </trkpt>
      <trkpt lat="22.903216" lon="111.271878">
        <ele>188.872926</ele>
        <time>2026-08-18T08:06:26.000Z</time>
      </trkpt>
      <trkpt lat="22.903224" lon="111.271912">
        <ele>188.949765</ele>
        <time>2026-08-18T08:06:27.000Z</time>
      </trkpt>
      <trkpt lat="22.903232" lon="111.271948">
        <ele>189.030854</ele>
        <time>2026-08-18T08:06:28.000Z</time>
      </trkpt>
      <trkpt lat="22.903242" lon="111.271984">
        <ele>189.113189</ele>
        <time>2026-08-18T08:06:29.000Z</time>
      </trkpt>
      <trkpt lat="22.903251" lon="111.272019">
        <ele>189.192757</ele>
        <time>2026-08-18T08:06:30.000Z</time>
      </trkpt>
      <trkpt lat="22.903257" lon="111.272054">
        <ele>189.270712</ele>
        <time>2026-08-18T08:06:31.000Z</time>
      </trkpt>
      <trkpt lat="22.903260" lon="111.272089">
        <ele>189.347681</ele>
        <time>2026-08-18T08:06:32.000Z</time>
      </trkpt>
      <trkpt lat="22.903263" lon="111.272124">
        <ele>189.424651</ele>
        <time>2026-08-18T08:06:33.000Z</time>
      </trkpt>
      <trkpt lat="22.903265" lon="111.272159">
        <ele>189.501437</ele>
        <time>2026-08-18T08:06:34.000Z</time>
      </trkpt>
      <trkpt lat="22.903269" lon="111.272193">
        <ele>189.576490</ele>
        <time>2026-08-18T08:06:35.000Z</time>
      </trkpt>
      <trkpt lat="22.903273" lon="111.272228">
        <ele>189.653716</ele>
        <time>2026-08-18T08:06:36.000Z</time>
      </trkpt>
      <trkpt lat="22.903280" lon="111.272263">
        <ele>189.732140</ele>
        <time>2026-08-18T08:06:37.000Z</time>
      </trkpt>
      <trkpt lat="22.903287" lon="111.272298">
        <ele>189.810565</ele>
        <time>2026-08-18T08:06:38.000Z</time>
      </trkpt>
      <trkpt lat="22.903294" lon="111.272331">
        <ele>189.884715</ele>
        <time>2026-08-18T08:06:39.000Z</time>
      </trkpt>
      <trkpt lat="22.903301" lon="111.272367">
        <ele>189.965280</ele>
        <time>2026-08-18T08:06:40.000Z</time>
      </trkpt>
      <trkpt lat="22.903307" lon="111.272402">
        <ele>190.043234</ele>
        <time>2026-08-18T08:06:41.000Z</time>
      </trkpt>
      <trkpt lat="22.903314" lon="111.272437">
        <ele>190.121658</ele>
        <time>2026-08-18T08:06:42.000Z</time>
      </trkpt>
      <trkpt lat="22.903319" lon="111.272471">
        <ele>190.197050</ele>
        <time>2026-08-18T08:06:43.000Z</time>
      </trkpt>
      <trkpt lat="22.903325" lon="111.272504">
        <ele>190.270703</ele>
        <time>2026-08-18T08:06:44.000Z</time>
      </trkpt>
      <trkpt lat="22.903329" lon="111.272539">
        <ele>190.347929</ele>
        <time>2026-08-18T08:06:45.000Z</time>
      </trkpt>
      <trkpt lat="22.903334" lon="111.272572">
        <ele>190.421160</ele>
        <time>2026-08-18T08:06:46.000Z</time>
      </trkpt>
      <trkpt lat="22.903338" lon="111.272605">
        <ele>190.494042</ele>
        <time>2026-08-18T08:06:47.000Z</time>
      </trkpt>
      <trkpt lat="22.903348" lon="111.272637">
        <ele>190.568033</ele>
        <time>2026-08-18T08:06:48.000Z</time>
      </trkpt>
      <trkpt lat="22.903353" lon="111.272669">
        <ele>190.639104</ele>
        <time>2026-08-18T08:06:49.000Z</time>
      </trkpt>
      <trkpt lat="22.903356" lon="111.272704">
        <ele>190.716073</ele>
        <time>2026-08-18T08:06:50.000Z</time>
      </trkpt>
      <trkpt lat="22.903361" lon="111.272736">
        <ele>190.787144</ele>
        <time>2026-08-18T08:06:51.000Z</time>
      </trkpt>
      <trkpt lat="22.903368" lon="111.272770">
        <ele>190.863429</ele>
        <time>2026-08-18T08:06:52.000Z</time>
      </trkpt>
      <trkpt lat="22.903375" lon="111.272807">
        <ele>190.946138</ele>
        <time>2026-08-18T08:06:53.000Z</time>
      </trkpt>
      <trkpt lat="22.903380" lon="111.272842">
        <ele>191.023693</ele>
        <time>2026-08-18T08:06:54.000Z</time>
      </trkpt>
      <trkpt lat="22.903384" lon="111.272879">
        <ele>191.105267</ele>
        <time>2026-08-18T08:06:55.000Z</time>
      </trkpt>
      <trkpt lat="22.903387" lon="111.272915">
        <ele>191.184417</ele>
        <time>2026-08-18T08:06:56.000Z</time>
      </trkpt>
      <trkpt lat="22.903391" lon="111.272951">
        <ele>191.263816</ele>
        <time>2026-08-18T08:06:57.000Z</time>
      </trkpt>
      <trkpt lat="22.903395" lon="111.272987">
        <ele>191.343216</ele>
        <time>2026-08-18T08:06:58.000Z</time>
      </trkpt>
      <trkpt lat="22.903400" lon="111.273026">
        <ele>191.429436</ele>
        <time>2026-08-18T08:06:59.000Z</time>
      </trkpt>
      <trkpt lat="22.903406" lon="111.273062">
        <ele>191.509544</ele>
        <time>2026-08-18T08:07:00.000Z</time>
      </trkpt>
      <trkpt lat="22.903414" lon="111.273096">
        <ele>191.586383</ele>
        <time>2026-08-18T08:07:01.000Z</time>
      </trkpt>
      <trkpt lat="22.903420" lon="111.273130">
        <ele>191.662186</ele>
        <time>2026-08-18T08:07:02.000Z</time>
      </trkpt>
      <trkpt lat="22.903425" lon="111.273165">
        <ele>191.739740</ele>
        <time>2026-08-18T08:07:03.000Z</time>
      </trkpt>
      <trkpt lat="22.903430" lon="111.273201">
        <ele>191.816075</ele>
        <time>2026-08-18T08:07:04.000Z</time>
      </trkpt>
      <trkpt lat="22.903440" lon="111.273237">
        <ele>191.846257</ele>
        <time>2026-08-18T08:07:05.000Z</time>
      </trkpt>
      <trkpt lat="22.903445" lon="111.273275">
        <ele>191.877068</ele>
        <time>2026-08-18T08:07:06.000Z</time>
      </trkpt>
      <trkpt lat="22.903450" lon="111.273312">
        <ele>191.907085</ele>
        <time>2026-08-18T08:07:07.000Z</time>
      </trkpt>
      <trkpt lat="22.903456" lon="111.273348">
        <ele>191.936451</ele>
        <time>2026-08-18T08:07:08.000Z</time>
      </trkpt>
      <trkpt lat="22.903461" lon="111.273383">
        <ele>191.964880</ele>
        <time>2026-08-18T08:07:09.000Z</time>
      </trkpt>
      <trkpt lat="22.903466" lon="111.273419">
        <ele>191.994103</ele>
        <time>2026-08-18T08:07:10.000Z</time>
      </trkpt>
      <trkpt lat="22.903470" lon="111.273453">
        <ele>192.021616</ele>
        <time>2026-08-18T08:07:11.000Z</time>
      </trkpt>
      <trkpt lat="22.903474" lon="111.273486">
        <ele>192.048333</ele>
        <time>2026-08-18T08:07:12.000Z</time>
      </trkpt>
      <trkpt lat="22.903479" lon="111.273518">
        <ele>192.074386</ele>
        <time>2026-08-18T08:07:13.000Z</time>
      </trkpt>
      <trkpt lat="22.903482" lon="111.273553">
        <ele>192.102601</ele>
        <time>2026-08-18T08:07:14.000Z</time>
      </trkpt>
      <trkpt lat="22.903487" lon="111.273587">
        <ele>192.130238</ele>
        <time>2026-08-18T08:07:15.000Z</time>
      </trkpt>
      <trkpt lat="22.903493" lon="111.273620">
        <ele>192.157237</ele>
        <time>2026-08-18T08:07:16.000Z</time>
      </trkpt>
      <trkpt lat="22.903500" lon="111.273655">
        <ele>192.185985</ele>
        <time>2026-08-18T08:07:17.000Z</time>
      </trkpt>
      <trkpt lat="22.903507" lon="111.273690">
        <ele>192.214734</ele>
        <time>2026-08-18T08:07:18.000Z</time>
      </trkpt>
      <trkpt lat="22.903512" lon="111.273724">
        <ele>192.242370</ele>
        <time>2026-08-18T08:07:19.000Z</time>
      </trkpt>
      <trkpt lat="22.903515" lon="111.273760">
        <ele>192.271385</ele>
        <time>2026-08-18T08:07:20.000Z</time>
      </trkpt>
      <trkpt lat="22.903520" lon="111.273795">
        <ele>192.299814</ele>
        <time>2026-08-18T08:07:21.000Z</time>
      </trkpt>
      <trkpt lat="22.903525" lon="111.273830">
        <ele>192.328244</ele>
        <time>2026-08-18T08:07:22.000Z</time>
      </trkpt>
      <trkpt lat="22.903527" lon="111.273866">
        <ele>192.357193</ele>
        <time>2026-08-18T08:07:23.000Z</time>
      </trkpt>
      <trkpt lat="22.903530" lon="111.273901">
        <ele>192.385408</ele>
        <time>2026-08-18T08:07:24.000Z</time>
      </trkpt>
      <trkpt lat="22.903538" lon="111.273937">
        <ele>192.415134</ele>
        <time>2026-08-18T08:07:25.000Z</time>
      </trkpt>
      <trkpt lat="22.903542" lon="111.273972">
        <ele>192.443443</ele>
        <time>2026-08-18T08:07:26.000Z</time>
      </trkpt>
      <trkpt lat="22.903547" lon="111.274005">
        <ele>192.470287</ele>
        <time>2026-08-18T08:07:27.000Z</time>
      </trkpt>
      <trkpt lat="22.903552" lon="111.274035">
        <ele>192.494758</ele>
        <time>2026-08-18T08:07:28.000Z</time>
      </trkpt>
      <trkpt lat="22.903554" lon="111.274062">
        <ele>192.516501</ele>
        <time>2026-08-18T08:07:29.000Z</time>
      </trkpt>
      <trkpt lat="22.903553" lon="111.274078">
        <ele>192.529373</ele>
        <time>2026-08-18T08:07:30.000Z</time>
      </trkpt>
      <trkpt lat="22.903549" lon="111.274091">
        <ele>192.540375</ele>
        <time>2026-08-18T08:07:31.000Z</time>
      </trkpt>
      <trkpt lat="22.903579" lon="111.274140">
        <ele>192.587601</ele>
        <time>2026-08-18T08:09:49.000Z</time>
      </trkpt>
      <trkpt lat="22.903585" lon="111.274155">
        <ele>192.600727</ele>
        <time>2026-08-18T08:09:50.000Z</time>
      </trkpt>
      <trkpt lat="22.903590" lon="111.274174">
        <ele>192.616588</ele>
        <time>2026-08-18T08:09:51.000Z</time>
      </trkpt>
      <trkpt lat="22.903597" lon="111.274197">
        <ele>192.636032</ele>
        <time>2026-08-18T08:09:52.000Z</time>
      </trkpt>
      <trkpt lat="22.903605" lon="111.274222">
        <ele>192.657275</ele>
        <time>2026-08-18T08:09:53.000Z</time>
      </trkpt>
      <trkpt lat="22.903610" lon="111.274250">
        <ele>192.680168</ele>
        <time>2026-08-18T08:09:54.000Z</time>
      </trkpt>
      <trkpt lat="22.903614" lon="111.274278">
        <ele>192.702912</ele>
        <time>2026-08-18T08:09:55.000Z</time>
      </trkpt>
      <trkpt lat="22.903619" lon="111.274307">
        <ele>192.726594</ele>
        <time>2026-08-18T08:09:56.000Z</time>
      </trkpt>
      <trkpt lat="22.903624" lon="111.274337">
        <ele>192.751065</ele>
        <time>2026-08-18T08:09:57.000Z</time>
      </trkpt>
      <trkpt lat="22.903628" lon="111.274369">
        <ele>192.776986</ele>
        <time>2026-08-18T08:09:58.000Z</time>
      </trkpt>
      <trkpt lat="22.903632" lon="111.274401">
        <ele>192.802907</ele>
        <time>2026-08-18T08:09:59.000Z</time>
      </trkpt>
      <trkpt lat="22.903637" lon="111.274433">
        <ele>192.828960</ele>
        <time>2026-08-18T08:10:00.000Z</time>
      </trkpt>
      <trkpt lat="22.903642" lon="111.274463">
        <ele>192.853431</ele>
        <time>2026-08-18T08:10:01.000Z</time>
      </trkpt>
      <trkpt lat="22.903645" lon="111.274493">
        <ele>192.877653</ele>
        <time>2026-08-18T08:10:02.000Z</time>
      </trkpt>
      <trkpt lat="22.903649" lon="111.274525">
        <ele>192.903574</ele>
        <time>2026-08-18T08:10:03.000Z</time>
      </trkpt>
      <trkpt lat="22.903654" lon="111.274556">
        <ele>192.928836</ele>
        <time>2026-08-18T08:10:04.000Z</time>
      </trkpt>
      <trkpt lat="22.903660" lon="111.274590">
        <ele>192.956623</ele>
        <time>2026-08-18T08:10:05.000Z</time>
      </trkpt>
      <trkpt lat="22.903666" lon="111.274624">
        <ele>192.984411</ele>
        <time>2026-08-18T08:10:06.000Z</time>
      </trkpt>
      <trkpt lat="22.903674" lon="111.274658">
        <ele>193.012578</ele>
        <time>2026-08-18T08:10:07.000Z</time>
      </trkpt>
      <trkpt lat="22.903681" lon="111.274691">
        <ele>193.039760</ele>
        <time>2026-08-18T08:10:08.000Z</time>
      </trkpt>
      <trkpt lat="22.903686" lon="111.274726">
        <ele>193.068189</ele>
        <time>2026-08-18T08:10:09.000Z</time>
      </trkpt>
      <trkpt lat="22.903690" lon="111.274762">
        <ele>193.097295</ele>
        <time>2026-08-18T08:10:10.000Z</time>
      </trkpt>
      <trkpt lat="22.903694" lon="111.274799">
        <ele>193.127198</ele>
        <time>2026-08-18T08:10:11.000Z</time>
      </trkpt>
      <trkpt lat="22.903699" lon="111.274835">
        <ele>193.156421</ele>
        <time>2026-08-18T08:10:12.000Z</time>
      </trkpt>
      <trkpt lat="22.903705" lon="111.274870">
        <ele>193.184997</ele>
        <time>2026-08-18T08:10:13.000Z</time>
      </trkpt>
      <trkpt lat="22.903709" lon="111.274907">
        <ele>193.214900</ele>
        <time>2026-08-18T08:10:14.000Z</time>
      </trkpt>
      <trkpt lat="22.903714" lon="111.274945">
        <ele>193.245712</ele>
        <time>2026-08-18T08:10:15.000Z</time>
      </trkpt>
      <trkpt lat="22.903718" lon="111.274986">
        <ele>193.278805</ele>
        <time>2026-08-18T08:10:16.000Z</time>
      </trkpt>
      <trkpt lat="22.903724" lon="111.275028">
        <ele>193.312921</ele>
        <time>2026-08-18T08:10:17.000Z</time>
      </trkpt>
      <trkpt lat="22.903729" lon="111.275071">
        <ele>193.347710</ele>
        <time>2026-08-18T08:10:18.000Z</time>
      </trkpt>
      <trkpt lat="22.903735" lon="111.275116">
        <ele>193.373483</ele>
        <time>2026-08-18T08:10:19.000Z</time>
      </trkpt>
      <trkpt lat="22.903741" lon="111.275163">
        <ele>193.265342</ele>
        <time>2026-08-18T08:10:20.000Z</time>
      </trkpt>
      <trkpt lat="22.903746" lon="111.275210">
        <ele>193.157513</ele>
        <time>2026-08-18T08:10:21.000Z</time>
      </trkpt>
      <trkpt lat="22.903753" lon="111.275258">
        <ele>193.046754</ele>
        <time>2026-08-18T08:10:22.000Z</time>
      </trkpt>
      <trkpt lat="22.903761" lon="111.275308">
        <ele>192.931093</ele>
        <time>2026-08-18T08:10:23.000Z</time>
      </trkpt>
      <trkpt lat="22.903770" lon="111.275360">
        <ele>192.810507</ele>
        <time>2026-08-18T08:10:24.000Z</time>
      </trkpt>
      <trkpt lat="22.903779" lon="111.275411">
        <ele>192.692159</ele>
        <time>2026-08-18T08:10:25.000Z</time>
      </trkpt>
      <trkpt lat="22.903788" lon="111.275465">
        <ele>192.567090</ele>
        <time>2026-08-18T08:10:26.000Z</time>
      </trkpt>
      <trkpt lat="22.903796" lon="111.275519">
        <ele>192.442438</ele>
        <time>2026-08-18T08:10:27.000Z</time>
      </trkpt>
      <trkpt lat="22.903804" lon="111.275574">
        <ele>192.315535</ele>
        <time>2026-08-18T08:10:28.000Z</time>
      </trkpt>
      <trkpt lat="22.903812" lon="111.275630">
        <ele>192.186380</ele>
        <time>2026-08-18T08:10:29.000Z</time>
      </trkpt>
      <trkpt lat="22.903819" lon="111.275682">
        <ele>192.066609</ele>
        <time>2026-08-18T08:10:30.000Z</time>
      </trkpt>
      <trkpt lat="22.903827" lon="111.275735">
        <ele>191.944206</ele>
        <time>2026-08-18T08:10:31.000Z</time>
      </trkpt>
      <trkpt lat="22.903834" lon="111.275790">
        <ele>191.817665</ele>
        <time>2026-08-18T08:10:32.000Z</time>
      </trkpt>
      <trkpt lat="22.903841" lon="111.275846">
        <ele>191.688867</ele>
        <time>2026-08-18T08:10:33.000Z</time>
      </trkpt>
      <trkpt lat="22.903848" lon="111.275905">
        <ele>191.553290</ele>
        <time>2026-08-18T08:10:34.000Z</time>
      </trkpt>
      <trkpt lat="22.903857" lon="111.275963">
        <ele>191.419240</ele>
        <time>2026-08-18T08:10:35.000Z</time>
      </trkpt>
      <trkpt lat="22.903864" lon="111.276025">
        <ele>191.276879</ele>
        <time>2026-08-18T08:10:36.000Z</time>
      </trkpt>
      <trkpt lat="22.903871" lon="111.276086">
        <ele>191.136780</ele>
        <time>2026-08-18T08:10:37.000Z</time>
      </trkpt>
      <trkpt lat="22.903879" lon="111.276148">
        <ele>190.994097</ele>
        <time>2026-08-18T08:10:38.000Z</time>
      </trkpt>
      <trkpt lat="22.903887" lon="111.276209">
        <ele>190.853671</ele>
        <time>2026-08-18T08:10:39.000Z</time>
      </trkpt>
      <trkpt lat="22.903893" lon="111.276274">
        <ele>190.704788</ele>
        <time>2026-08-18T08:10:40.000Z</time>
      </trkpt>
      <trkpt lat="22.903898" lon="111.276340">
        <ele>190.553861</ele>
        <time>2026-08-18T08:10:41.000Z</time>
      </trkpt>
      <trkpt lat="22.903901" lon="111.276408">
        <ele>190.398705</ele>
        <time>2026-08-18T08:10:42.000Z</time>
      </trkpt>
      <trkpt lat="22.903902" lon="111.276475">
        <ele>190.245986</ele>
        <time>2026-08-18T08:10:43.000Z</time>
      </trkpt>
      <trkpt lat="22.903904" lon="111.276545">
        <ele>190.086373</ele>
        <time>2026-08-18T08:10:44.000Z</time>
      </trkpt>
      <trkpt lat="22.903903" lon="111.276617">
        <ele>189.922260</ele>
        <time>2026-08-18T08:10:45.000Z</time>
      </trkpt>
      <trkpt lat="22.903902" lon="111.276689">
        <ele>189.758147</ele>
        <time>2026-08-18T08:10:46.000Z</time>
      </trkpt>
      <trkpt lat="22.903900" lon="111.276761">
        <ele>189.593978</ele>
        <time>2026-08-18T08:10:47.000Z</time>
      </trkpt>
      <trkpt lat="22.903890" lon="111.276830">
        <ele>189.434787</ele>
        <time>2026-08-18T08:10:48.000Z</time>
      </trkpt>
      <trkpt lat="22.903882" lon="111.276902">
        <ele>189.269503</ele>
        <time>2026-08-18T08:10:49.000Z</time>
      </trkpt>
      <trkpt lat="22.903877" lon="111.276970">
        <ele>189.114032</ele>
        <time>2026-08-18T08:10:50.000Z</time>
      </trkpt>
      <trkpt lat="22.903867" lon="111.277039">
        <ele>188.954841</ele>
        <time>2026-08-18T08:10:51.000Z</time>
      </trkpt>
      <trkpt lat="22.903855" lon="111.277111">
        <ele>188.872625</ele>
        <time>2026-08-18T08:10:52.000Z</time>
      </trkpt>
      <trkpt lat="22.903846" lon="111.277182">
        <ele>188.805710</ele>
        <time>2026-08-18T08:10:53.000Z</time>
      </trkpt>
      <trkpt lat="22.903835" lon="111.277253">
        <ele>188.738487</ele>
        <time>2026-08-18T08:10:54.000Z</time>
      </trkpt>
      <trkpt lat="22.903823" lon="111.277324">
        <ele>188.671090</ele>
        <time>2026-08-18T08:10:55.000Z</time>
      </trkpt>
      <trkpt lat="22.903810" lon="111.277394">
        <ele>188.604418</ele>
        <time>2026-08-18T08:10:56.000Z</time>
      </trkpt>
      <trkpt lat="22.903794" lon="111.277465">
        <ele>188.536172</ele>
        <time>2026-08-18T08:10:57.000Z</time>
      </trkpt>
      <trkpt lat="22.903783" lon="111.277541">
        <ele>188.464342</ele>
        <time>2026-08-18T08:10:58.000Z</time>
      </trkpt>
      <trkpt lat="22.903771" lon="111.277614">
        <ele>188.395107</ele>
        <time>2026-08-18T08:10:59.000Z</time>
      </trkpt>
      <trkpt lat="22.903756" lon="111.277681">
        <ele>188.330729</ele>
        <time>2026-08-18T08:11:00.000Z</time>
      </trkpt>
      <trkpt lat="22.903737" lon="111.277747">
        <ele>188.266168</ele>
        <time>2026-08-18T08:11:01.000Z</time>
      </trkpt>
      <trkpt lat="22.903716" lon="111.277811">
        <ele>188.202735</ele>
        <time>2026-08-18T08:11:02.000Z</time>
      </trkpt>
      <trkpt lat="22.903696" lon="111.277876">
        <ele>188.138749</ele>
        <time>2026-08-18T08:11:03.000Z</time>
      </trkpt>
      <trkpt lat="22.903676" lon="111.277937">
        <ele>188.078295</ele>
        <time>2026-08-18T08:11:04.000Z</time>
      </trkpt>
      <trkpt lat="22.903655" lon="111.277997">
        <ele>188.018367</ele>
        <time>2026-08-18T08:11:05.000Z</time>
      </trkpt>
      <trkpt lat="22.903632" lon="111.278058">
        <ele>187.956826</ele>
        <time>2026-08-18T08:11:06.000Z</time>
      </trkpt>
      <trkpt lat="22.903609" lon="111.278120">
        <ele>187.894420</ele>
        <time>2026-08-18T08:11:07.000Z</time>
      </trkpt>
      <trkpt lat="22.903586" lon="111.278180">
        <ele>187.833743</ele>
        <time>2026-08-18T08:11:08.000Z</time>
      </trkpt>
      <trkpt lat="22.903562" lon="111.278239">
        <ele>187.773524</ele>
        <time>2026-08-18T08:11:09.000Z</time>
      </trkpt>
      <trkpt lat="22.903538" lon="111.278298">
        <ele>187.713305</ele>
        <time>2026-08-18T08:11:10.000Z</time>
      </trkpt>
      <trkpt lat="22.903512" lon="111.278355">
        <ele>187.653918</ele>
        <time>2026-08-18T08:11:11.000Z</time>
      </trkpt>
      <trkpt lat="22.903483" lon="111.278410">
        <ele>187.594748</ele>
        <time>2026-08-18T08:11:12.000Z</time>
      </trkpt>
      <trkpt lat="22.903454" lon="111.278463">
        <ele>187.537191</ele>
        <time>2026-08-18T08:11:13.000Z</time>
      </trkpt>
      <trkpt lat="22.903425" lon="111.278517">
        <ele>187.478830</ele>
        <time>2026-08-18T08:11:14.000Z</time>
      </trkpt>
      <trkpt lat="22.903396" lon="111.278570">
        <ele>187.421273</ele>
        <time>2026-08-18T08:11:15.000Z</time>
      </trkpt>
      <trkpt lat="22.903366" lon="111.278621">
        <ele>187.364775</ele>
        <time>2026-08-18T08:11:16.000Z</time>
      </trkpt>
      <trkpt lat="22.903336" lon="111.278673">
        <ele>187.307487</ele>
        <time>2026-08-18T08:11:17.000Z</time>
      </trkpt>
      <trkpt lat="22.903305" lon="111.278724">
        <ele>187.250437</ele>
        <time>2026-08-18T08:11:18.000Z</time>
      </trkpt>
      <trkpt lat="22.903274" lon="111.278774">
        <ele>187.194164</ele>
        <time>2026-08-18T08:11:19.000Z</time>
      </trkpt>
      <trkpt lat="22.903242" lon="111.278823">
        <ele>187.138083</ele>
        <time>2026-08-18T08:11:20.000Z</time>
      </trkpt>
      <trkpt lat="22.903210" lon="111.278871">
        <ele>187.110895</ele>
        <time>2026-08-18T08:11:21.000Z</time>
      </trkpt>
      <trkpt lat="22.903178" lon="111.278917">
        <ele>187.116565</ele>
        <time>2026-08-18T08:11:22.000Z</time>
      </trkpt>
      <trkpt lat="22.903147" lon="111.278962">
        <ele>187.122092</ele>
        <time>2026-08-18T08:11:23.000Z</time>
      </trkpt>
      <trkpt lat="22.903115" lon="111.279004">
        <ele>187.127453</ele>
        <time>2026-08-18T08:11:24.000Z</time>
      </trkpt>
      <trkpt lat="22.903082" lon="111.279047">
        <ele>187.132958</ele>
        <time>2026-08-18T08:11:25.000Z</time>
      </trkpt>
      <trkpt lat="22.903050" lon="111.279089">
        <ele>187.138320</ele>
        <time>2026-08-18T08:11:26.000Z</time>
      </trkpt>
      <trkpt lat="22.903016" lon="111.279127">
        <ele>187.143530</ele>
        <time>2026-08-18T08:11:27.000Z</time>
      </trkpt>
      <trkpt lat="22.902981" lon="111.279165">
        <ele>187.148816</ele>
        <time>2026-08-18T08:11:28.000Z</time>
      </trkpt>
      <trkpt lat="22.902947" lon="111.279203">
        <ele>187.154027</ele>
        <time>2026-08-18T08:11:29.000Z</time>
      </trkpt>
      <trkpt lat="22.902913" lon="111.279240">
        <ele>187.159167</ele>
        <time>2026-08-18T08:11:30.000Z</time>
      </trkpt>
      <trkpt lat="22.902878" lon="111.279278">
        <ele>187.164453</ele>
        <time>2026-08-18T08:11:31.000Z</time>
      </trkpt>
      <trkpt lat="22.902845" lon="111.279317">
        <ele>187.169662</ele>
        <time>2026-08-18T08:11:32.000Z</time>
      </trkpt>
      <trkpt lat="22.902812" lon="111.279356">
        <ele>187.174870</ele>
        <time>2026-08-18T08:11:33.000Z</time>
      </trkpt>
      <trkpt lat="22.902778" lon="111.279397">
        <ele>187.180297</ele>
        <time>2026-08-18T08:11:34.000Z</time>
      </trkpt>
      <trkpt lat="22.902745" lon="111.279435">
        <ele>187.185434</ele>
        <time>2026-08-18T08:11:35.000Z</time>
      </trkpt>
      <trkpt lat="22.902711" lon="111.279471">
        <ele>187.190505</ele>
        <time>2026-08-18T08:11:36.000Z</time>
      </trkpt>
      <trkpt lat="22.902679" lon="111.279508">
        <ele>187.195497</ele>
        <time>2026-08-18T08:11:37.000Z</time>
      </trkpt>
      <trkpt lat="22.902645" lon="111.279544">
        <ele>187.200568</ele>
        <time>2026-08-18T08:11:38.000Z</time>
      </trkpt>
      <trkpt lat="22.902613" lon="111.279582">
        <ele>187.205633</ele>
        <time>2026-08-18T08:11:39.000Z</time>
      </trkpt>
      <trkpt lat="22.902580" lon="111.279619">
        <ele>187.210698</ele>
        <time>2026-08-18T08:11:40.000Z</time>
      </trkpt>
      <trkpt lat="22.902545" lon="111.279656">
        <ele>187.215915</ele>
        <time>2026-08-18T08:11:41.000Z</time>
      </trkpt>
      <trkpt lat="22.902510" lon="111.279693">
        <ele>187.221131</ele>
        <time>2026-08-18T08:11:42.000Z</time>
      </trkpt>
      <trkpt lat="22.902474" lon="111.279727">
        <ele>187.226227</ele>
        <time>2026-08-18T08:11:43.000Z</time>
      </trkpt>
      <trkpt lat="22.902439" lon="111.279761">
        <ele>187.231242</ele>
        <time>2026-08-18T08:11:44.000Z</time>
      </trkpt>
      <trkpt lat="22.902406" lon="111.279796">
        <ele>187.236168</ele>
        <time>2026-08-18T08:11:45.000Z</time>
      </trkpt>
      <trkpt lat="22.902375" lon="111.279837">
        <ele>187.241385</ele>
        <time>2026-08-18T08:11:46.000Z</time>
      </trkpt>
      <trkpt lat="22.902343" lon="111.279874">
        <ele>187.246377</ele>
        <time>2026-08-18T08:11:47.000Z</time>
      </trkpt>
      <trkpt lat="22.902310" lon="111.279910">
        <ele>187.251373</ele>
        <time>2026-08-18T08:11:48.000Z</time>
      </trkpt>
      <trkpt lat="22.902274" lon="111.279945">
        <ele>187.256533</ele>
        <time>2026-08-18T08:11:49.000Z</time>
      </trkpt>
      <trkpt lat="22.902241" lon="111.279977">
        <ele>187.261258</ele>
        <time>2026-08-18T08:11:50.000Z</time>
      </trkpt>
      <trkpt lat="22.902210" lon="111.280011">
        <ele>187.265963</ele>
        <time>2026-08-18T08:11:51.000Z</time>
      </trkpt>
      <trkpt lat="22.902178" lon="111.280047">
        <ele>187.270884</ele>
        <time>2026-08-18T08:11:52.000Z</time>
      </trkpt>
      <trkpt lat="22.902144" lon="111.280083">
        <ele>187.275956</ele>
        <time>2026-08-18T08:11:53.000Z</time>
      </trkpt>
      <trkpt lat="22.902111" lon="111.280121">
        <ele>187.281092</ele>
        <time>2026-08-18T08:11:54.000Z</time>
      </trkpt>
      <trkpt lat="22.902077" lon="111.280160">
        <ele>187.286374</ele>
        <time>2026-08-18T08:11:55.000Z</time>
      </trkpt>
      <trkpt lat="22.902043" lon="111.280198">
        <ele>187.291585</ele>
        <time>2026-08-18T08:11:56.000Z</time>
      </trkpt>
      <trkpt lat="22.902009" lon="111.280234">
        <ele>187.296656</ele>
        <time>2026-08-18T08:11:57.000Z</time>
      </trkpt>
      <trkpt lat="22.901974" lon="111.280270">
        <ele>187.303464</ele>
        <time>2026-08-18T08:11:58.000Z</time>
      </trkpt>
      <trkpt lat="22.901940" lon="111.280307">
        <ele>187.314169</ele>
        <time>2026-08-18T08:11:59.000Z</time>
      </trkpt>
      <trkpt lat="22.901907" lon="111.280345">
        <ele>187.324865</ele>
        <time>2026-08-18T08:12:00.000Z</time>
      </trkpt>
      <trkpt lat="22.901874" lon="111.280382">
        <ele>187.335413</ele>
        <time>2026-08-18T08:12:01.000Z</time>
      </trkpt>
      <trkpt lat="22.901840" lon="111.280418">
        <ele>187.345974</ele>
        <time>2026-08-18T08:12:02.000Z</time>
      </trkpt>
      <trkpt lat="22.901807" lon="111.280455">
        <ele>187.356522</ele>
        <time>2026-08-18T08:12:03.000Z</time>
      </trkpt>
      <trkpt lat="22.901772" lon="111.280494">
        <ele>187.367674</ele>
        <time>2026-08-18T08:12:04.000Z</time>
      </trkpt>
      <trkpt lat="22.901738" lon="111.280532">
        <ele>187.378524</ele>
        <time>2026-08-18T08:12:05.000Z</time>
      </trkpt>
      <trkpt lat="22.901705" lon="111.280569">
        <ele>187.389073</ele>
        <time>2026-08-18T08:12:06.000Z</time>
      </trkpt>
      <trkpt lat="22.901671" lon="111.280605">
        <ele>187.399633</ele>
        <time>2026-08-18T08:12:07.000Z</time>
      </trkpt>
      <trkpt lat="22.901636" lon="111.280642">
        <ele>187.410495</ele>
        <time>2026-08-18T08:12:08.000Z</time>
      </trkpt>
      <trkpt lat="22.901602" lon="111.280681">
        <ele>187.421493</ele>
        <time>2026-08-18T08:12:09.000Z</time>
      </trkpt>
      <trkpt lat="22.901570" lon="111.280719">
        <ele>187.432038</ele>
        <time>2026-08-18T08:12:10.000Z</time>
      </trkpt>
      <trkpt lat="22.901538" lon="111.280756">
        <ele>187.442433</ele>
        <time>2026-08-18T08:12:11.000Z</time>
      </trkpt>
      <trkpt lat="22.901507" lon="111.280793">
        <ele>187.452677</ele>
        <time>2026-08-18T08:12:12.000Z</time>
      </trkpt>
      <trkpt lat="22.901476" lon="111.280830">
        <ele>187.462921</ele>
        <time>2026-08-18T08:12:13.000Z</time>
      </trkpt>
      <trkpt lat="22.901443" lon="111.280871">
        <ele>187.474073</ele>
        <time>2026-08-18T08:12:14.000Z</time>
      </trkpt>
      <trkpt lat="22.901410" lon="111.280907">
        <ele>187.484475</ele>
        <time>2026-08-18T08:12:15.000Z</time>
      </trkpt>
      <trkpt lat="22.901378" lon="111.280941">
        <ele>187.494431</ele>
        <time>2026-08-18T08:12:16.000Z</time>
      </trkpt>
      <trkpt lat="22.901345" lon="111.280976">
        <ele>187.504689</ele>
        <time>2026-08-18T08:12:17.000Z</time>
      </trkpt>
      <trkpt lat="22.901312" lon="111.281013">
        <ele>187.515237</ele>
        <time>2026-08-18T08:12:18.000Z</time>
      </trkpt>
      <trkpt lat="22.901278" lon="111.281051">
        <ele>187.526088</ele>
        <time>2026-08-18T08:12:19.000Z</time>
      </trkpt>
      <trkpt lat="22.901243" lon="111.281088">
        <ele>187.536950</ele>
        <time>2026-08-18T08:12:20.000Z</time>
      </trkpt>
      <trkpt lat="22.901210" lon="111.281124">
        <ele>187.547352</ele>
        <time>2026-08-18T08:12:21.000Z</time>
      </trkpt>
      <trkpt lat="22.901178" lon="111.281160">
        <ele>187.557599</ele>
        <time>2026-08-18T08:12:22.000Z</time>
      </trkpt>
      <trkpt lat="22.901145" lon="111.281196">
        <ele>187.568001</ele>
        <time>2026-08-18T08:12:23.000Z</time>
      </trkpt>
      <trkpt lat="22.901111" lon="111.281227">
        <ele>187.577874</ele>
        <time>2026-08-18T08:12:24.000Z</time>
      </trkpt>
      <trkpt lat="22.901079" lon="111.281261">
        <ele>187.587829</ele>
        <time>2026-08-18T08:12:25.000Z</time>
      </trkpt>
      <trkpt lat="22.901047" lon="111.281295">
        <ele>187.597785</ele>
        <time>2026-08-18T08:12:26.000Z</time>
      </trkpt>
      <trkpt lat="22.901015" lon="111.281333">
        <ele>187.608331</ele>
        <time>2026-08-18T08:12:27.000Z</time>
      </trkpt>
      <trkpt lat="22.900986" lon="111.281367">
        <ele>187.617821</ele>
        <time>2026-08-18T08:12:28.000Z</time>
      </trkpt>
      <trkpt lat="22.900955" lon="111.281400">
        <ele>187.627475</ele>
        <time>2026-08-18T08:12:29.000Z</time>
      </trkpt>
      <trkpt lat="22.900922" lon="111.281435">
        <ele>187.637733</ele>
        <time>2026-08-18T08:12:30.000Z</time>
      </trkpt>
      <trkpt lat="22.900886" lon="111.281468">
        <ele>187.648209</ele>
        <time>2026-08-18T08:12:31.000Z</time>
      </trkpt>
      <trkpt lat="22.900851" lon="111.281502">
        <ele>187.658652</ele>
        <time>2026-08-18T08:12:32.000Z</time>
      </trkpt>
      <trkpt lat="22.900818" lon="111.281538">
        <ele>187.669055</ele>
        <time>2026-08-18T08:12:33.000Z</time>
      </trkpt>
      <trkpt lat="22.900784" lon="111.281572">
        <ele>187.679333</ele>
        <time>2026-08-18T08:12:34.000Z</time>
      </trkpt>
      <trkpt lat="22.900749" lon="111.281608">
        <ele>187.690054</ele>
        <time>2026-08-18T08:12:35.000Z</time>
      </trkpt>
      <trkpt lat="22.900714" lon="111.281645">
        <ele>187.700907</ele>
        <time>2026-08-18T08:12:36.000Z</time>
      </trkpt>
      <trkpt lat="22.900679" lon="111.281684">
        <ele>187.711923</ele>
        <time>2026-08-18T08:12:37.000Z</time>
      </trkpt>
      <trkpt lat="22.900644" lon="111.281723">
        <ele>187.722938</ele>
        <time>2026-08-18T08:12:38.000Z</time>
      </trkpt>
      <trkpt lat="22.900607" lon="111.281763">
        <ele>187.734407</ele>
        <time>2026-08-18T08:12:39.000Z</time>
      </trkpt>
      <trkpt lat="22.900572" lon="111.281802">
        <ele>187.745422</ele>
        <time>2026-08-18T08:12:40.000Z</time>
      </trkpt>
      <trkpt lat="22.900538" lon="111.281841">
        <ele>187.756286</ele>
        <time>2026-08-18T08:12:41.000Z</time>
      </trkpt>
      <trkpt lat="22.900505" lon="111.281878">
        <ele>187.766705</ele>
        <time>2026-08-18T08:12:42.000Z</time>
      </trkpt>
      <trkpt lat="22.900473" lon="111.281915">
        <ele>187.776973</ele>
        <time>2026-08-18T08:12:43.000Z</time>
      </trkpt>
      <trkpt lat="22.900441" lon="111.281954">
        <ele>187.787539</ele>
        <time>2026-08-18T08:12:44.000Z</time>
      </trkpt>
      <trkpt lat="22.900409" lon="111.281994">
        <ele>187.798258</ele>
        <time>2026-08-18T08:12:45.000Z</time>
      </trkpt>
      <trkpt lat="22.900375" lon="111.282033">
        <ele>187.809121</ele>
        <time>2026-08-18T08:12:46.000Z</time>
      </trkpt>
      <trkpt lat="22.900340" lon="111.282070">
        <ele>187.819851</ele>
        <time>2026-08-18T08:12:47.000Z</time>
      </trkpt>
      <trkpt lat="22.900306" lon="111.282107">
        <ele>187.830424</ele>
        <time>2026-08-18T08:12:48.000Z</time>
      </trkpt>
      <trkpt lat="22.900269" lon="111.282144">
        <ele>187.841473</ele>
        <time>2026-08-18T08:12:49.000Z</time>
      </trkpt>
      <trkpt lat="22.900233" lon="111.282180">
        <ele>187.852222</ele>
        <time>2026-08-18T08:12:50.000Z</time>
      </trkpt>
      <trkpt lat="22.900197" lon="111.282217">
        <ele>187.863110</ele>
        <time>2026-08-18T08:12:51.000Z</time>
      </trkpt>
      <trkpt lat="22.900162" lon="111.282253">
        <ele>187.873700</ele>
        <time>2026-08-18T08:12:52.000Z</time>
      </trkpt>
      <trkpt lat="22.900127" lon="111.282289">
        <ele>187.884289</ele>
        <time>2026-08-18T08:12:53.000Z</time>
      </trkpt>
      <trkpt lat="22.900093" lon="111.282326">
        <ele>187.894862</ele>
        <time>2026-08-18T08:12:54.000Z</time>
      </trkpt>
      <trkpt lat="22.900056" lon="111.282363">
        <ele>187.905911</ele>
        <time>2026-08-18T08:12:55.000Z</time>
      </trkpt>
      <trkpt lat="22.900020" lon="111.282398">
        <ele>187.916525</ele>
        <time>2026-08-18T08:12:56.000Z</time>
      </trkpt>
      <trkpt lat="22.899984" lon="111.282436">
        <ele>187.927553</ele>
        <time>2026-08-18T08:12:57.000Z</time>
      </trkpt>
      <trkpt lat="22.899950" lon="111.282474">
        <ele>187.938270</ele>
        <time>2026-08-18T08:12:58.000Z</time>
      </trkpt>
      <trkpt lat="22.899916" lon="111.282512">
        <ele>187.948988</ele>
        <time>2026-08-18T08:12:59.000Z</time>
      </trkpt>
      <trkpt lat="22.899882" lon="111.282552">
        <ele>187.959999</ele>
        <time>2026-08-18T08:13:00.000Z</time>
      </trkpt>
      <trkpt lat="22.899847" lon="111.282591">
        <ele>187.971015</ele>
        <time>2026-08-18T08:13:01.000Z</time>
      </trkpt>
      <trkpt lat="22.899813" lon="111.282629">
        <ele>187.981732</ele>
        <time>2026-08-18T08:13:02.000Z</time>
      </trkpt>
      <trkpt lat="22.899778" lon="111.282667">
        <ele>187.992604</ele>
        <time>2026-08-18T08:13:03.000Z</time>
      </trkpt>
      <trkpt lat="22.899744" lon="111.282703">
        <ele>188.003035</ele>
        <time>2026-08-18T08:13:04.000Z</time>
      </trkpt>
      <trkpt lat="22.899709" lon="111.282739">
        <ele>188.013624</ele>
        <time>2026-08-18T08:13:05.000Z</time>
      </trkpt>
      <trkpt lat="22.899676" lon="111.282776">
        <ele>188.024044</ele>
        <time>2026-08-18T08:13:06.000Z</time>
      </trkpt>
      <trkpt lat="22.899642" lon="111.282812">
        <ele>188.034475</ele>
        <time>2026-08-18T08:13:07.000Z</time>
      </trkpt>
      <trkpt lat="22.899609" lon="111.282847">
        <ele>188.044607</ele>
        <time>2026-08-18T08:13:08.000Z</time>
      </trkpt>
      <trkpt lat="22.899575" lon="111.282884">
        <ele>188.055181</ele>
        <time>2026-08-18T08:13:09.000Z</time>
      </trkpt>
      <trkpt lat="22.899541" lon="111.282919">
        <ele>188.065472</ele>
        <time>2026-08-18T08:13:10.000Z</time>
      </trkpt>
      <trkpt lat="22.899508" lon="111.282952">
        <ele>188.075326</ele>
        <time>2026-08-18T08:13:11.000Z</time>
      </trkpt>
      <trkpt lat="22.899475" lon="111.282983">
        <ele>188.084910</ele>
        <time>2026-08-18T08:13:12.000Z</time>
      </trkpt>
      <trkpt lat="22.899443" lon="111.283015">
        <ele>188.094466</ele>
        <time>2026-08-18T08:13:13.000Z</time>
      </trkpt>
      <trkpt lat="22.899412" lon="111.283045">
        <ele>188.155388</ele>
        <time>2026-08-18T08:13:14.000Z</time>
      </trkpt>
      <trkpt lat="22.899382" lon="111.283073">
        <ele>188.217864</ele>
        <time>2026-08-18T08:13:15.000Z</time>
      </trkpt>
      <trkpt lat="22.899352" lon="111.283107">
        <ele>188.286352</ele>
        <time>2026-08-18T08:13:16.000Z</time>
      </trkpt>
      <trkpt lat="22.899325" lon="111.283141">
        <ele>188.351651</ele>
        <time>2026-08-18T08:13:17.000Z</time>
      </trkpt>
      <trkpt lat="22.899296" lon="111.283172">
        <ele>188.415922</ele>
        <time>2026-08-18T08:13:18.000Z</time>
      </trkpt>
      <trkpt lat="22.899268" lon="111.283204">
        <ele>188.480124</ele>
        <time>2026-08-18T08:13:19.000Z</time>
      </trkpt>
      <trkpt lat="22.899240" lon="111.283236">
        <ele>188.544326</ele>
        <time>2026-08-18T08:13:20.000Z</time>
      </trkpt>
      <trkpt lat="22.899211" lon="111.283268">
        <ele>188.609626</ele>
        <time>2026-08-18T08:13:21.000Z</time>
      </trkpt>
      <trkpt lat="22.899183" lon="111.283299">
        <ele>188.672781</ele>
        <time>2026-08-18T08:13:22.000Z</time>
      </trkpt>
      <trkpt lat="22.899155" lon="111.283330">
        <ele>188.735937</ele>
        <time>2026-08-18T08:13:23.000Z</time>
      </trkpt>
      <trkpt lat="22.899124" lon="111.283358">
        <ele>188.799619</ele>
        <time>2026-08-18T08:13:24.000Z</time>
      </trkpt>
      <trkpt lat="22.899096" lon="111.283388">
        <ele>188.861744</ele>
        <time>2026-08-18T08:13:25.000Z</time>
      </trkpt>
      <trkpt lat="22.899068" lon="111.283413">
        <ele>188.918994</ele>
        <time>2026-08-18T08:13:26.000Z</time>
      </trkpt>
      <trkpt lat="22.899041" lon="111.283439">
        <ele>188.975988</ele>
        <time>2026-08-18T08:13:27.000Z</time>
      </trkpt>
      <trkpt lat="22.899015" lon="111.283464">
        <ele>189.030836</ele>
        <time>2026-08-18T08:13:28.000Z</time>
      </trkpt>
      <trkpt lat="22.898986" lon="111.283491">
        <ele>189.091167</ele>
        <time>2026-08-18T08:13:29.000Z</time>
      </trkpt>
      <trkpt lat="22.898961" lon="111.283518">
        <ele>189.146855</ele>
        <time>2026-08-18T08:13:30.000Z</time>
      </trkpt>
      <trkpt lat="22.898936" lon="111.283545">
        <ele>189.202543</ele>
        <time>2026-08-18T08:13:31.000Z</time>
      </trkpt>
      <trkpt lat="22.898910" lon="111.283573">
        <ele>189.260377</ele>
        <time>2026-08-18T08:13:32.000Z</time>
      </trkpt>
      <trkpt lat="22.898883" lon="111.283603">
        <ele>189.321388</ele>
        <time>2026-08-18T08:13:33.000Z</time>
      </trkpt>
      <trkpt lat="22.898856" lon="111.283632">
        <ele>189.381367</ele>
        <time>2026-08-18T08:13:34.000Z</time>
      </trkpt>
      <trkpt lat="22.898829" lon="111.283662">
        <ele>189.442378</ele>
        <time>2026-08-18T08:13:35.000Z</time>
      </trkpt>
      <trkpt lat="22.898802" lon="111.283690">
        <ele>189.501344</ele>
        <time>2026-08-18T08:13:36.000Z</time>
      </trkpt>
      <trkpt lat="22.898776" lon="111.283721">
        <ele>189.562330</ele>
        <time>2026-08-18T08:13:37.000Z</time>
      </trkpt>
      <trkpt lat="22.898750" lon="111.283750">
        <ele>189.621197</ele>
        <time>2026-08-18T08:13:38.000Z</time>
      </trkpt>
      <trkpt lat="22.898726" lon="111.283779">
        <ele>189.677907</ele>
        <time>2026-08-18T08:13:39.000Z</time>
      </trkpt>
      <trkpt lat="22.898700" lon="111.283808">
        <ele>189.736774</ele>
        <time>2026-08-18T08:13:40.000Z</time>
      </trkpt>
      <trkpt lat="22.898675" lon="111.283837">
        <ele>189.794551</ele>
        <time>2026-08-18T08:13:41.000Z</time>
      </trkpt>
      <trkpt lat="22.898651" lon="111.283865">
        <ele>189.850187</ele>
        <time>2026-08-18T08:13:42.000Z</time>
      </trkpt>
      <trkpt lat="22.898625" lon="111.283892">
        <ele>189.907006</ele>
        <time>2026-08-18T08:13:43.000Z</time>
      </trkpt>
      <trkpt lat="22.898600" lon="111.283919">
        <ele>189.962694</ele>
        <time>2026-08-18T08:13:44.000Z</time>
      </trkpt>
      <trkpt lat="22.898574" lon="111.283947">
        <ele>190.020528</ele>
        <time>2026-08-18T08:13:45.000Z</time>
      </trkpt>
      <trkpt lat="22.898548" lon="111.283974">
        <ele>190.077346</ele>
        <time>2026-08-18T08:13:46.000Z</time>
      </trkpt>
      <trkpt lat="22.898521" lon="111.284002">
        <ele>190.136312</ele>
        <time>2026-08-18T08:13:47.000Z</time>
      </trkpt>
      <trkpt lat="22.898494" lon="111.284028">
        <ele>190.193306</ele>
        <time>2026-08-18T08:13:48.000Z</time>
      </trkpt>
      <trkpt lat="22.898467" lon="111.284056">
        <ele>190.252271</ele>
        <time>2026-08-18T08:13:49.000Z</time>
      </trkpt>
      <trkpt lat="22.898442" lon="111.284083">
        <ele>190.307960</ele>
        <time>2026-08-18T08:13:50.000Z</time>
      </trkpt>
      <trkpt lat="22.898417" lon="111.284112">
        <ele>190.365737</ele>
        <time>2026-08-18T08:13:51.000Z</time>
      </trkpt>
      <trkpt lat="22.898390" lon="111.284138">
        <ele>190.422731</ele>
        <time>2026-08-18T08:13:52.000Z</time>
      </trkpt>
      <trkpt lat="22.898362" lon="111.284163">
        <ele>190.479981</ele>
        <time>2026-08-18T08:13:53.000Z</time>
      </trkpt>
      <trkpt lat="22.898336" lon="111.284190">
        <ele>190.536800</ele>
        <time>2026-08-18T08:13:54.000Z</time>
      </trkpt>
      <trkpt lat="22.898310" lon="111.284216">
        <ele>190.592623</ele>
        <time>2026-08-18T08:13:55.000Z</time>
      </trkpt>
      <trkpt lat="22.898285" lon="111.284242">
        <ele>190.647295</ele>
        <time>2026-08-18T08:13:56.000Z</time>
      </trkpt>
      <trkpt lat="22.898260" lon="111.284270">
        <ele>190.704019</ele>
        <time>2026-08-18T08:13:57.000Z</time>
      </trkpt>
      <trkpt lat="22.898234" lon="111.284295">
        <ele>190.758867</ele>
        <time>2026-08-18T08:13:58.000Z</time>
      </trkpt>
      <trkpt lat="22.898209" lon="111.284325">
        <ele>190.817714</ele>
        <time>2026-08-18T08:13:59.000Z</time>
      </trkpt>
      <trkpt lat="22.898183" lon="111.284353">
        <ele>190.875548</ele>
        <time>2026-08-18T08:14:00.000Z</time>
      </trkpt>
      <trkpt lat="22.898157" lon="111.284382">
        <ele>190.934416</ele>
        <time>2026-08-18T08:14:01.000Z</time>
      </trkpt>
      <trkpt lat="22.898132" lon="111.284412">
        <ele>190.985131</ele>
        <time>2026-08-18T08:14:02.000Z</time>
      </trkpt>
      <trkpt lat="22.898107" lon="111.284441">
        <ele>191.034772</ele>
        <time>2026-08-18T08:14:03.000Z</time>
      </trkpt>
      <trkpt lat="22.898082" lon="111.284469">
        <ele>191.083508</ele>
        <time>2026-08-18T08:14:04.000Z</time>
      </trkpt>
      <trkpt lat="22.898056" lon="111.284499">
        <ele>191.134989</ele>
        <time>2026-08-18T08:14:05.000Z</time>
      </trkpt>
      <trkpt lat="22.898028" lon="111.284525">
        <ele>191.184980</ele>
        <time>2026-08-18T08:14:06.000Z</time>
      </trkpt>
      <trkpt lat="22.898002" lon="111.284553">
        <ele>191.234670</ele>
        <time>2026-08-18T08:14:07.000Z</time>
      </trkpt>
      <trkpt lat="22.897976" lon="111.284580">
        <ele>191.283488</ele>
        <time>2026-08-18T08:14:08.000Z</time>
      </trkpt>
      <trkpt lat="22.897950" lon="111.284607">
        <ele>191.332305</ele>
        <time>2026-08-18T08:14:09.000Z</time>
      </trkpt>
      <trkpt lat="22.897926" lon="111.284636">
        <ele>191.381029</ele>
        <time>2026-08-18T08:14:10.000Z</time>
      </trkpt>
      <trkpt lat="22.897901" lon="111.284664">
        <ele>191.429765</ele>
        <time>2026-08-18T08:14:11.000Z</time>
      </trkpt>
      <trkpt lat="22.897874" lon="111.284691">
        <ele>191.479572</ele>
        <time>2026-08-18T08:14:12.000Z</time>
      </trkpt>
      <trkpt lat="22.897851" lon="111.284721">
        <ele>191.528354</ele>
        <time>2026-08-18T08:14:13.000Z</time>
      </trkpt>
      <trkpt lat="22.897824" lon="111.284749">
        <ele>191.579016</ele>
        <time>2026-08-18T08:14:14.000Z</time>
      </trkpt>
      <trkpt lat="22.897797" lon="111.284775">
        <ele>191.627985</ele>
        <time>2026-08-18T08:14:15.000Z</time>
      </trkpt>
      <trkpt lat="22.897771" lon="111.284798">
        <ele>191.673490</ele>
        <time>2026-08-18T08:14:16.000Z</time>
      </trkpt>
      <trkpt lat="22.897744" lon="111.284822">
        <ele>191.720837</ele>
        <time>2026-08-18T08:14:17.000Z</time>
      </trkpt>
      <trkpt lat="22.897716" lon="111.284850">
        <ele>191.772489</ele>
        <time>2026-08-18T08:14:18.000Z</time>
      </trkpt>
      <trkpt lat="22.897689" lon="111.284876">
        <ele>191.821458</ele>
        <time>2026-08-18T08:14:19.000Z</time>
      </trkpt>
      <trkpt lat="22.897662" lon="111.284902">
        <ele>191.870426</ele>
        <time>2026-08-18T08:14:20.000Z</time>
      </trkpt>
      <trkpt lat="22.897637" lon="111.284932">
        <ele>191.920987</ele>
        <time>2026-08-18T08:14:21.000Z</time>
      </trkpt>
      <trkpt lat="22.897611" lon="111.284960">
        <ele>191.970677</ele>
        <time>2026-08-18T08:14:22.000Z</time>
      </trkpt>
      <trkpt lat="22.897584" lon="111.284989">
        <ele>192.022210</ele>
        <time>2026-08-18T08:14:23.000Z</time>
      </trkpt>
      <trkpt lat="22.897558" lon="111.285016">
        <ele>192.071028</ele>
        <time>2026-08-18T08:14:24.000Z</time>
      </trkpt>
      <trkpt lat="22.897531" lon="111.285043">
        <ele>192.120835</ele>
        <time>2026-08-18T08:14:25.000Z</time>
      </trkpt>
      <trkpt lat="22.897503" lon="111.285070">
        <ele>192.171648</ele>
        <time>2026-08-18T08:14:26.000Z</time>
      </trkpt>
      <trkpt lat="22.897476" lon="111.285096">
        <ele>192.220617</ele>
        <time>2026-08-18T08:14:27.000Z</time>
      </trkpt>
      <trkpt lat="22.897448" lon="111.285121">
        <ele>192.269806</ele>
        <time>2026-08-18T08:14:28.000Z</time>
      </trkpt>
      <trkpt lat="22.897421" lon="111.285147">
        <ele>192.318774</ele>
        <time>2026-08-18T08:14:29.000Z</time>
      </trkpt>
      <trkpt lat="22.897392" lon="111.285173">
        <ele>192.369805</ele>
        <time>2026-08-18T08:14:30.000Z</time>
      </trkpt>
      <trkpt lat="22.897363" lon="111.285198">
        <ele>192.420049</ele>
        <time>2026-08-18T08:14:31.000Z</time>
      </trkpt>
      <trkpt lat="22.897332" lon="111.285223">
        <ele>192.472445</ele>
        <time>2026-08-18T08:14:32.000Z</time>
      </trkpt>
      <trkpt lat="22.897304" lon="111.285248">
        <ele>192.521633</ele>
        <time>2026-08-18T08:14:33.000Z</time>
      </trkpt>
      <trkpt lat="22.897274" lon="111.285273">
        <ele>192.572946</ele>
        <time>2026-08-18T08:14:34.000Z</time>
      </trkpt>
      <trkpt lat="22.897247" lon="111.285298">
        <ele>192.621095</ele>
        <time>2026-08-18T08:14:35.000Z</time>
      </trkpt>
      <trkpt lat="22.897218" lon="111.285318">
        <ele>192.667710</ele>
        <time>2026-08-18T08:14:36.000Z</time>
      </trkpt>
      <trkpt lat="22.897185" lon="111.285324">
        <ele>192.713107</ele>
        <time>2026-08-18T08:14:37.000Z</time>
      </trkpt>
      <trkpt lat="22.897156" lon="111.285343">
        <ele>192.759064</ele>
        <time>2026-08-18T08:14:38.000Z</time>
      </trkpt>
      <trkpt lat="22.897124" lon="111.285362">
        <ele>192.808550</ele>
        <time>2026-08-18T08:14:39.000Z</time>
      </trkpt>
      <trkpt lat="22.897093" lon="111.285383">
        <ele>192.858127</ele>
        <time>2026-08-18T08:14:40.000Z</time>
      </trkpt>
      <trkpt lat="22.897061" lon="111.285407">
        <ele>192.910898</ele>
        <time>2026-08-18T08:14:41.000Z</time>
      </trkpt>
      <trkpt lat="22.897029" lon="111.285431">
        <ele>192.963669</ele>
        <time>2026-08-18T08:14:42.000Z</time>
      </trkpt>
      <trkpt lat="22.896998" lon="111.285457">
        <ele>193.016820</ele>
        <time>2026-08-18T08:14:43.000Z</time>
      </trkpt>
      <trkpt lat="22.896967" lon="111.285484">
        <ele>193.070744</ele>
        <time>2026-08-18T08:14:44.000Z</time>
      </trkpt>
      <trkpt lat="22.896935" lon="111.285512">
        <ele>193.126509</ele>
        <time>2026-08-18T08:14:45.000Z</time>
      </trkpt>
      <trkpt lat="22.896901" lon="111.285536">
        <ele>193.181534</ele>
        <time>2026-08-18T08:14:46.000Z</time>
      </trkpt>
      <trkpt lat="22.896867" lon="111.285569">
        <ele>193.243414</ele>
        <time>2026-08-18T08:14:47.000Z</time>
      </trkpt>
      <trkpt lat="22.896834" lon="111.285598">
        <ele>193.301019</ele>
        <time>2026-08-18T08:14:48.000Z</time>
      </trkpt>
      <trkpt lat="22.896800" lon="111.285634">
        <ele>193.365459</ele>
        <time>2026-08-18T08:14:49.000Z</time>
      </trkpt>
      <trkpt lat="22.896766" lon="111.285653">
        <ele>193.380334</ele>
        <time>2026-08-18T08:14:50.000Z</time>
      </trkpt>
      <trkpt lat="22.896729" lon="111.285679">
        <ele>193.386814</ele>
        <time>2026-08-18T08:14:51.000Z</time>
      </trkpt>
      <trkpt lat="22.896692" lon="111.285702">
        <ele>193.393083</ele>
        <time>2026-08-18T08:14:52.000Z</time>
      </trkpt>
      <trkpt lat="22.896655" lon="111.285731">
        <ele>193.399792</ele>
        <time>2026-08-18T08:14:53.000Z</time>
      </trkpt>
      <trkpt lat="22.896620" lon="111.285762">
        <ele>193.406433</ele>
        <time>2026-08-18T08:14:54.000Z</time>
      </trkpt>
      <trkpt lat="22.896585" lon="111.285792">
        <ele>193.412989</ele>
        <time>2026-08-18T08:14:55.000Z</time>
      </trkpt>
      <trkpt lat="22.896552" lon="111.285825">
        <ele>193.419585</ele>
        <time>2026-08-18T08:14:56.000Z</time>
      </trkpt>
      <trkpt lat="22.896519" lon="111.285860">
        <ele>193.426368</ele>
        <time>2026-08-18T08:14:57.000Z</time>
      </trkpt>
      <trkpt lat="22.896484" lon="111.285890">
        <ele>193.432924</ele>
        <time>2026-08-18T08:14:58.000Z</time>
      </trkpt>
      <trkpt lat="22.896447" lon="111.285920">
        <ele>193.439714</ele>
        <time>2026-08-18T08:14:59.000Z</time>
      </trkpt>
      <trkpt lat="22.896412" lon="111.285952">
        <ele>193.446441</ele>
        <time>2026-08-18T08:15:00.000Z</time>
      </trkpt>
      <trkpt lat="22.896375" lon="111.285983">
        <ele>193.453313</ele>
        <time>2026-08-18T08:15:01.000Z</time>
      </trkpt>
      <trkpt lat="22.896337" lon="111.286015">
        <ele>193.460383</ele>
        <time>2026-08-18T08:15:02.000Z</time>
      </trkpt>
      <trkpt lat="22.896299" lon="111.286049">
        <ele>193.467623</ele>
        <time>2026-08-18T08:15:03.000Z</time>
      </trkpt>
      <trkpt lat="22.896260" lon="111.286082">
        <ele>193.474892</ele>
        <time>2026-08-18T08:15:04.000Z</time>
      </trkpt>
      <trkpt lat="22.896222" lon="111.286114">
        <ele>193.481963</ele>
        <time>2026-08-18T08:15:05.000Z</time>
      </trkpt>
      <trkpt lat="22.896182" lon="111.286142">
        <ele>193.488960</ele>
        <time>2026-08-18T08:15:06.000Z</time>
      </trkpt>
      <trkpt lat="22.896141" lon="111.286171">
        <ele>193.496154</ele>
        <time>2026-08-18T08:15:07.000Z</time>
      </trkpt>
      <trkpt lat="22.896101" lon="111.286203">
        <ele>193.503460</ele>
        <time>2026-08-18T08:15:08.000Z</time>
      </trkpt>
      <trkpt lat="22.896061" lon="111.286234">
        <ele>193.510685</ele>
        <time>2026-08-18T08:15:09.000Z</time>
      </trkpt>
      <trkpt lat="22.896020" lon="111.286265">
        <ele>193.518031</ele>
        <time>2026-08-18T08:15:10.000Z</time>
      </trkpt>
      <trkpt lat="22.895978" lon="111.286295">
        <ele>193.525422</ele>
        <time>2026-08-18T08:15:11.000Z</time>
      </trkpt>
      <trkpt lat="22.895934" lon="111.286325">
        <ele>193.533061</ele>
        <time>2026-08-18T08:15:12.000Z</time>
      </trkpt>
      <trkpt lat="22.895890" lon="111.286353">
        <ele>193.540559</ele>
        <time>2026-08-18T08:15:13.000Z</time>
      </trkpt>
      <trkpt lat="22.895846" lon="111.286383">
        <ele>193.548198</ele>
        <time>2026-08-18T08:15:14.000Z</time>
      </trkpt>
      <trkpt lat="22.895802" lon="111.286414">
        <ele>193.555910</ele>
        <time>2026-08-18T08:15:15.000Z</time>
      </trkpt>
      <trkpt lat="22.895759" lon="111.286441">
        <ele>193.563213</ele>
        <time>2026-08-18T08:15:16.000Z</time>
      </trkpt>
      <trkpt lat="22.895715" lon="111.286467">
        <ele>193.570578</ele>
        <time>2026-08-18T08:15:17.000Z</time>
      </trkpt>
      <trkpt lat="22.895672" lon="111.286494">
        <ele>193.577881</ele>
        <time>2026-08-18T08:15:18.000Z</time>
      </trkpt>
      <trkpt lat="22.895629" lon="111.286520">
        <ele>193.585117</ele>
        <time>2026-08-18T08:15:19.000Z</time>
      </trkpt>
      <trkpt lat="22.895586" lon="111.286548">
        <ele>193.592489</ele>
        <time>2026-08-18T08:15:20.000Z</time>
      </trkpt>
      <trkpt lat="22.895544" lon="111.286581">
        <ele>193.600111</ele>
        <time>2026-08-18T08:15:21.000Z</time>
      </trkpt>
      <trkpt lat="22.895503" lon="111.286614">
        <ele>193.607615</ele>
        <time>2026-08-18T08:15:22.000Z</time>
      </trkpt>
      <trkpt lat="22.895461" lon="111.286646">
        <ele>193.615159</ele>
        <time>2026-08-18T08:15:23.000Z</time>
      </trkpt>
      <trkpt lat="22.895416" lon="111.286673">
        <ele>193.622718</ele>
        <time>2026-08-18T08:15:24.000Z</time>
      </trkpt>
      <trkpt lat="22.895372" lon="111.286700">
        <ele>193.630148</ele>
        <time>2026-08-18T08:15:25.000Z</time>
      </trkpt>
      <trkpt lat="22.895327" lon="111.286729">
        <ele>193.637842</ele>
        <time>2026-08-18T08:15:26.000Z</time>
      </trkpt>
      <trkpt lat="22.895282" lon="111.286757">
        <ele>193.632145</ele>
        <time>2026-08-18T08:15:27.000Z</time>
      </trkpt>
      <trkpt lat="22.895239" lon="111.286788">
        <ele>193.620302</ele>
        <time>2026-08-18T08:15:28.000Z</time>
      </trkpt>
      <trkpt lat="22.895195" lon="111.286817">
        <ele>193.608491</ele>
        <time>2026-08-18T08:15:29.000Z</time>
      </trkpt>
      <trkpt lat="22.895154" lon="111.286848">
        <ele>193.597027</ele>
        <time>2026-08-18T08:15:30.000Z</time>
      </trkpt>
      <trkpt lat="22.895112" lon="111.286880">
        <ele>193.585253</ele>
        <time>2026-08-18T08:15:31.000Z</time>
      </trkpt>
      <trkpt lat="22.895065" lon="111.286913">
        <ele>193.572410</ele>
        <time>2026-08-18T08:15:32.000Z</time>
      </trkpt>
      <trkpt lat="22.895023" lon="111.286945">
        <ele>193.560637</ele>
        <time>2026-08-18T08:15:33.000Z</time>
      </trkpt>
      <trkpt lat="22.894983" lon="111.286978">
        <ele>193.549109</ele>
        <time>2026-08-18T08:15:34.000Z</time>
      </trkpt>
      <trkpt lat="22.894941" lon="111.287011">
        <ele>193.537213</ele>
        <time>2026-08-18T08:15:35.000Z</time>
      </trkpt>
      <trkpt lat="22.894899" lon="111.287041">
        <ele>193.525677</ele>
        <time>2026-08-18T08:15:36.000Z</time>
      </trkpt>
      <trkpt lat="22.894859" lon="111.287073">
        <ele>193.514276</ele>
        <time>2026-08-18T08:15:37.000Z</time>
      </trkpt>
      <trkpt lat="22.894815" lon="111.287106">
        <ele>193.502006</ele>
        <time>2026-08-18T08:15:38.000Z</time>
      </trkpt>
      <trkpt lat="22.894773" lon="111.287139">
        <ele>193.490109</ele>
        <time>2026-08-18T08:15:39.000Z</time>
      </trkpt>
      <trkpt lat="22.894732" lon="111.287176">
        <ele>193.477876</ele>
        <time>2026-08-18T08:15:40.000Z</time>
      </trkpt>
      <trkpt lat="22.894691" lon="111.287212">
        <ele>193.465776</ele>
        <time>2026-08-18T08:15:41.000Z</time>
      </trkpt>
      <trkpt lat="22.894651" lon="111.287247">
        <ele>193.453988</ele>
        <time>2026-08-18T08:15:42.000Z</time>
      </trkpt>
      <trkpt lat="22.894611" lon="111.287283">
        <ele>193.442066</ele>
        <time>2026-08-18T08:15:43.000Z</time>
      </trkpt>
      <trkpt lat="22.894569" lon="111.287318">
        <ele>193.429917</ele>
        <time>2026-08-18T08:15:44.000Z</time>
      </trkpt>
      <trkpt lat="22.894528" lon="111.287353">
        <ele>193.417950</ele>
        <time>2026-08-18T08:15:45.000Z</time>
      </trkpt>
      <trkpt lat="22.894490" lon="111.287390">
        <ele>193.406237</ele>
        <time>2026-08-18T08:15:46.000Z</time>
      </trkpt>
      <trkpt lat="22.894450" lon="111.287426">
        <ele>193.394315</ele>
        <time>2026-08-18T08:15:47.000Z</time>
      </trkpt>
      <trkpt lat="22.894413" lon="111.287464">
        <ele>193.382628</ele>
        <time>2026-08-18T08:15:48.000Z</time>
      </trkpt>
      <trkpt lat="22.894377" lon="111.287503">
        <ele>193.370959</ele>
        <time>2026-08-18T08:15:49.000Z</time>
      </trkpt>
      <trkpt lat="22.894339" lon="111.287542">
        <ele>193.358960</ele>
        <time>2026-08-18T08:15:50.000Z</time>
      </trkpt>
      <trkpt lat="22.894302" lon="111.287579">
        <ele>193.347417</ele>
        <time>2026-08-18T08:15:51.000Z</time>
      </trkpt>
      <trkpt lat="22.894265" lon="111.287617">
        <ele>193.335730</ele>
        <time>2026-08-18T08:15:52.000Z</time>
      </trkpt>
      <trkpt lat="22.894230" lon="111.287656">
        <ele>193.324222</ele>
        <time>2026-08-18T08:15:53.000Z</time>
      </trkpt>
      <trkpt lat="22.894197" lon="111.287698">
        <ele>193.312554</ele>
        <time>2026-08-18T08:15:54.000Z</time>
      </trkpt>
      <trkpt lat="22.894162" lon="111.287737">
        <ele>193.301046</ele>
        <time>2026-08-18T08:15:55.000Z</time>
      </trkpt>
      <trkpt lat="22.894128" lon="111.287778">
        <ele>193.289385</ele>
        <time>2026-08-18T08:15:56.000Z</time>
      </trkpt>
      <trkpt lat="22.894095" lon="111.287819">
        <ele>193.277877</ele>
        <time>2026-08-18T08:15:57.000Z</time>
      </trkpt>
      <trkpt lat="22.894061" lon="111.287862">
        <ele>193.265900</ele>
        <time>2026-08-18T08:15:58.000Z</time>
      </trkpt>
      <trkpt lat="22.894026" lon="111.287906">
        <ele>193.253612</ele>
        <time>2026-08-18T08:15:59.000Z</time>
      </trkpt>
      <trkpt lat="22.893990" lon="111.287950">
        <ele>193.241173</ele>
        <time>2026-08-18T08:16:00.000Z</time>
      </trkpt>
      <trkpt lat="22.893952" lon="111.287993">
        <ele>193.228579</ele>
        <time>2026-08-18T08:16:01.000Z</time>
      </trkpt>
      <trkpt lat="22.893912" lon="111.288036">
        <ele>193.246025</ele>
        <time>2026-08-18T08:16:02.000Z</time>
      </trkpt>
      <trkpt lat="22.893870" lon="111.288080">
        <ele>193.266762</ele>
        <time>2026-08-18T08:16:03.000Z</time>
      </trkpt>
      <trkpt lat="22.893829" lon="111.288124">
        <ele>193.287244</ele>
        <time>2026-08-18T08:16:04.000Z</time>
      </trkpt>
      <trkpt lat="22.893787" lon="111.288166">
        <ele>193.307532</ele>
        <time>2026-08-18T08:16:05.000Z</time>
      </trkpt>
      <trkpt lat="22.893744" lon="111.288209">
        <ele>193.328303</ele>
        <time>2026-08-18T08:16:06.000Z</time>
      </trkpt>
      <trkpt lat="22.893699" lon="111.288251">
        <ele>193.349387</ele>
        <time>2026-08-18T08:16:07.000Z</time>
      </trkpt>
      <trkpt lat="22.893655" lon="111.288291">
        <ele>193.369776</ele>
        <time>2026-08-18T08:16:08.000Z</time>
      </trkpt>
      <trkpt lat="22.893614" lon="111.288333">
        <ele>193.389804</ele>
        <time>2026-08-18T08:16:09.000Z</time>
      </trkpt>
      <trkpt lat="22.893573" lon="111.288375">
        <ele>193.409832</ele>
        <time>2026-08-18T08:16:10.000Z</time>
      </trkpt>
      <trkpt lat="22.893533" lon="111.288418">
        <ele>193.429832</ele>
        <time>2026-08-18T08:16:11.000Z</time>
      </trkpt>
      <trkpt lat="22.893493" lon="111.288461">
        <ele>193.449832</ele>
        <time>2026-08-18T08:16:12.000Z</time>
      </trkpt>
      <trkpt lat="22.893454" lon="111.288503">
        <ele>193.469349</ele>
        <time>2026-08-18T08:16:13.000Z</time>
      </trkpt>
      <trkpt lat="22.893417" lon="111.288545">
        <ele>193.488368</ele>
        <time>2026-08-18T08:16:14.000Z</time>
      </trkpt>
      <trkpt lat="22.893380" lon="111.288588">
        <ele>193.507625</ele>
        <time>2026-08-18T08:16:15.000Z</time>
      </trkpt>
      <trkpt lat="22.893342" lon="111.288631">
        <ele>193.527127</ele>
        <time>2026-08-18T08:16:16.000Z</time>
      </trkpt>
      <trkpt lat="22.893305" lon="111.288673">
        <ele>193.546146</ele>
        <time>2026-08-18T08:16:17.000Z</time>
      </trkpt>
      <trkpt lat="22.893269" lon="111.288715">
        <ele>193.564922</ele>
        <time>2026-08-18T08:16:18.000Z</time>
      </trkpt>
      <trkpt lat="22.893233" lon="111.288757">
        <ele>193.583697</ele>
        <time>2026-08-18T08:16:19.000Z</time>
      </trkpt>
      <trkpt lat="22.893196" lon="111.288797">
        <ele>193.602249</ele>
        <time>2026-08-18T08:16:20.000Z</time>
      </trkpt>
      <trkpt lat="22.893157" lon="111.288836">
        <ele>193.621088</ele>
        <time>2026-08-18T08:16:21.000Z</time>
      </trkpt>
      <trkpt lat="22.893121" lon="111.288873">
        <ele>193.638701</ele>
        <time>2026-08-18T08:16:22.000Z</time>
      </trkpt>
      <trkpt lat="22.893088" lon="111.288913">
        <ele>193.656274</ele>
        <time>2026-08-18T08:16:23.000Z</time>
      </trkpt>
      <trkpt lat="22.893054" lon="111.288952">
        <ele>193.673848</ele>
        <time>2026-08-18T08:16:24.000Z</time>
      </trkpt>
      <trkpt lat="22.893021" lon="111.288992">
        <ele>193.691421</ele>
        <time>2026-08-18T08:16:25.000Z</time>
      </trkpt>
      <trkpt lat="22.892988" lon="111.289029">
        <ele>193.708276</ele>
        <time>2026-08-18T08:16:26.000Z</time>
      </trkpt>
      <trkpt lat="22.892953" lon="111.289067">
        <ele>193.725863</ele>
        <time>2026-08-18T08:16:27.000Z</time>
      </trkpt>
      <trkpt lat="22.892918" lon="111.289106">
        <ele>193.743682</ele>
        <time>2026-08-18T08:16:28.000Z</time>
      </trkpt>
      <trkpt lat="22.892883" lon="111.289146">
        <ele>193.761738</ele>
        <time>2026-08-18T08:16:29.000Z</time>
      </trkpt>
      <trkpt lat="22.892851" lon="111.289183">
        <ele>193.778347</ele>
        <time>2026-08-18T08:16:30.000Z</time>
      </trkpt>
      <trkpt lat="22.892817" lon="111.289220">
        <ele>193.795451</ele>
        <time>2026-08-18T08:16:31.000Z</time>
      </trkpt>
      <trkpt lat="22.892783" lon="111.289258">
        <ele>193.812788</ele>
        <time>2026-08-18T08:16:32.000Z</time>
      </trkpt>
      <trkpt lat="22.892749" lon="111.289295">
        <ele>193.829892</ele>
        <time>2026-08-18T08:16:33.000Z</time>
      </trkpt>
      <trkpt lat="22.892716" lon="111.289331">
        <ele>193.846514</ele>
        <time>2026-08-18T08:16:34.000Z</time>
      </trkpt>
      <trkpt lat="22.892684" lon="111.289364">
        <ele>193.862195</ele>
        <time>2026-08-18T08:16:35.000Z</time>
      </trkpt>
      <trkpt lat="22.892652" lon="111.289396">
        <ele>193.914926</ele>
        <time>2026-08-18T08:16:36.000Z</time>
      </trkpt>
      <trkpt lat="22.892620" lon="111.289425">
        <ele>193.979569</ele>
        <time>2026-08-18T08:16:37.000Z</time>
      </trkpt>
      <trkpt lat="22.892590" lon="111.289452">
        <ele>194.040000</ele>
        <time>2026-08-18T08:16:38.000Z</time>
      </trkpt>
      <trkpt lat="22.892562" lon="111.289480">
        <ele>194.099037</ele>
        <time>2026-08-18T08:16:39.000Z</time>
      </trkpt>
      <trkpt lat="22.892533" lon="111.289510">
        <ele>194.161158</ele>
        <time>2026-08-18T08:16:40.000Z</time>
      </trkpt>
      <trkpt lat="22.892505" lon="111.289540">
        <ele>194.222166</ele>
        <time>2026-08-18T08:16:41.000Z</time>
      </trkpt>
      <trkpt lat="22.892479" lon="111.289571">
        <ele>194.282056</ele>
        <time>2026-08-18T08:16:42.000Z</time>
      </trkpt>
      <trkpt lat="22.892450" lon="111.289602">
        <ele>194.345172</ele>
        <time>2026-08-18T08:16:43.000Z</time>
      </trkpt>
      <trkpt lat="22.892422" lon="111.289631">
        <ele>194.405185</ele>
        <time>2026-08-18T08:16:44.000Z</time>
      </trkpt>
      <trkpt lat="22.892395" lon="111.289661">
        <ele>194.465099</ele>
        <time>2026-08-18T08:16:45.000Z</time>
      </trkpt>
      <trkpt lat="22.892367" lon="111.289692">
        <ele>194.527120</ele>
        <time>2026-08-18T08:16:46.000Z</time>
      </trkpt>
      <trkpt lat="22.892342" lon="111.289725">
        <ele>194.588155</ele>
        <time>2026-08-18T08:16:47.000Z</time>
      </trkpt>
      <trkpt lat="22.892315" lon="111.289758">
        <ele>194.651207</ele>
        <time>2026-08-18T08:16:48.000Z</time>
      </trkpt>
      <trkpt lat="22.892286" lon="111.289790">
        <ele>194.715333</ele>
        <time>2026-08-18T08:16:49.000Z</time>
      </trkpt>
      <trkpt lat="22.892259" lon="111.289822">
        <ele>194.777323</ele>
        <time>2026-08-18T08:16:50.000Z</time>
      </trkpt>
      <trkpt lat="22.892231" lon="111.289856">
        <ele>194.842473</ele>
        <time>2026-08-18T08:16:51.000Z</time>
      </trkpt>
      <trkpt lat="22.892200" lon="111.289888">
        <ele>194.908810</ele>
        <time>2026-08-18T08:16:52.000Z</time>
      </trkpt>
      <trkpt lat="22.892169" lon="111.289920">
        <ele>194.975148</ele>
        <time>2026-08-18T08:16:53.000Z</time>
      </trkpt>
      <trkpt lat="22.892137" lon="111.289953">
        <ele>195.043594</ele>
        <time>2026-08-18T08:16:54.000Z</time>
      </trkpt>
      <trkpt lat="22.892106" lon="111.289985">
        <ele>195.109932</ele>
        <time>2026-08-18T08:16:55.000Z</time>
      </trkpt>
      <trkpt lat="22.892076" lon="111.290019">
        <ele>195.177188</ele>
        <time>2026-08-18T08:16:56.000Z</time>
      </trkpt>
      <trkpt lat="22.892043" lon="111.290051">
        <ele>195.245807</ele>
        <time>2026-08-18T08:16:57.000Z</time>
      </trkpt>
      <trkpt lat="22.892011" lon="111.290084">
        <ele>195.314253</ele>
        <time>2026-08-18T08:16:58.000Z</time>
      </trkpt>
      <trkpt lat="22.891983" lon="111.290119">
        <ele>195.380475</ele>
        <time>2026-08-18T08:16:59.000Z</time>
      </trkpt>
      <trkpt lat="22.891952" lon="111.290152">
        <ele>195.447805</ele>
        <time>2026-08-18T08:17:00.000Z</time>
      </trkpt>
      <trkpt lat="22.891920" lon="111.290185">
        <ele>195.516251</ele>
        <time>2026-08-18T08:17:01.000Z</time>
      </trkpt>
      <trkpt lat="22.891888" lon="111.290216">
        <ele>195.582761</ele>
        <time>2026-08-18T08:17:02.000Z</time>
      </trkpt>
      <trkpt lat="22.891856" lon="111.290248">
        <ele>195.650231</ele>
        <time>2026-08-18T08:17:03.000Z</time>
      </trkpt>
      <trkpt lat="22.891827" lon="111.290282">
        <ele>195.716425</ele>
        <time>2026-08-18T08:17:04.000Z</time>
      </trkpt>
      <trkpt lat="22.891797" lon="111.290316">
        <ele>195.783681</ele>
        <time>2026-08-18T08:17:05.000Z</time>
      </trkpt>
      <trkpt lat="22.891768" lon="111.290349">
        <ele>195.848833</ele>
        <time>2026-08-18T08:17:06.000Z</time>
      </trkpt>
      <trkpt lat="22.891741" lon="111.290382">
        <ele>195.911885</ele>
        <time>2026-08-18T08:17:07.000Z</time>
      </trkpt>
      <trkpt lat="22.891712" lon="111.290416">
        <ele>195.978078</ele>
        <time>2026-08-18T08:17:08.000Z</time>
      </trkpt>
      <trkpt lat="22.891683" lon="111.290450">
        <ele>196.044271</ele>
        <time>2026-08-18T08:17:09.000Z</time>
      </trkpt>
      <trkpt lat="22.891657" lon="111.290484">
        <ele>196.107396</ele>
        <time>2026-08-18T08:17:10.000Z</time>
      </trkpt>
      <trkpt lat="22.891627" lon="111.290517">
        <ele>196.173628</ele>
        <time>2026-08-18T08:17:11.000Z</time>
      </trkpt>
      <trkpt lat="22.891597" lon="111.290553">
        <ele>196.242976</ele>
        <time>2026-08-18T08:17:12.000Z</time>
      </trkpt>
      <trkpt lat="22.891567" lon="111.290586">
        <ele>196.309208</ele>
        <time>2026-08-18T08:17:13.000Z</time>
      </trkpt>
      <trkpt lat="22.891537" lon="111.290618">
        <ele>196.374431</ele>
        <time>2026-08-18T08:17:14.000Z</time>
      </trkpt>
      <trkpt lat="22.891508" lon="111.290653">
        <ele>196.441680</ele>
        <time>2026-08-18T08:17:15.000Z</time>
      </trkpt>
      <trkpt lat="22.891479" lon="111.290686">
        <ele>196.506832</ele>
        <time>2026-08-18T08:17:16.000Z</time>
      </trkpt>
      <trkpt lat="22.891450" lon="111.290720">
        <ele>196.573026</ele>
        <time>2026-08-18T08:17:17.000Z</time>
      </trkpt>
      <trkpt lat="22.891422" lon="111.290755">
        <ele>196.639247</ele>
        <time>2026-08-18T08:17:18.000Z</time>
      </trkpt>
      <trkpt lat="22.891393" lon="111.290790">
        <ele>196.701444</ele>
        <time>2026-08-18T08:17:19.000Z</time>
      </trkpt>
      <trkpt lat="22.891364" lon="111.290822">
        <ele>196.759186</ele>
        <time>2026-08-18T08:17:20.000Z</time>
      </trkpt>
      <trkpt lat="22.891337" lon="111.290857">
        <ele>196.817909</ele>
        <time>2026-08-18T08:17:21.000Z</time>
      </trkpt>
      <trkpt lat="22.891309" lon="111.290890">
        <ele>196.875621</ele>
        <time>2026-08-18T08:17:22.000Z</time>
      </trkpt>
      <trkpt lat="22.891278" lon="111.290921">
        <ele>196.934476</ele>
        <time>2026-08-18T08:17:23.000Z</time>
      </trkpt>
      <trkpt lat="22.891250" lon="111.290954">
        <ele>196.992187</ele>
        <time>2026-08-18T08:17:24.000Z</time>
      </trkpt>
      <trkpt lat="22.891223" lon="111.290986">
        <ele>197.048007</ele>
        <time>2026-08-18T08:17:25.000Z</time>
      </trkpt>
      <trkpt lat="22.891196" lon="111.291019">
        <ele>197.104782</ele>
        <time>2026-08-18T08:17:26.000Z</time>
      </trkpt>
      <trkpt lat="22.891169" lon="111.291050">
        <ele>197.159660</ele>
        <time>2026-08-18T08:17:27.000Z</time>
      </trkpt>
      <trkpt lat="22.891143" lon="111.291083">
        <ele>197.215517</ele>
        <time>2026-08-18T08:17:28.000Z</time>
      </trkpt>
      <trkpt lat="22.891119" lon="111.291117">
        <ele>197.270616</ele>
        <time>2026-08-18T08:17:29.000Z</time>
      </trkpt>
      <trkpt lat="22.891096" lon="111.291151">
        <ele>197.324878</ele>
        <time>2026-08-18T08:17:30.000Z</time>
      </trkpt>
      <trkpt lat="22.891075" lon="111.291185">
        <ele>197.377535</ele>
        <time>2026-08-18T08:17:31.000Z</time>
      </trkpt>
      <trkpt lat="22.891055" lon="111.291220">
        <ele>197.430515</ele>
        <time>2026-08-18T08:17:32.000Z</time>
      </trkpt>
      <trkpt lat="22.891037" lon="111.291257">
        <ele>197.484340</ele>
        <time>2026-08-18T08:17:33.000Z</time>
      </trkpt>
      <trkpt lat="22.891018" lon="111.291292">
        <ele>197.536598</ele>
        <time>2026-08-18T08:17:34.000Z</time>
      </trkpt>
      <trkpt lat="22.891003" lon="111.291331">
        <ele>197.590963</ele>
        <time>2026-08-18T08:17:35.000Z</time>
      </trkpt>
      <trkpt lat="22.890989" lon="111.291368">
        <ele>197.642417</ele>
        <time>2026-08-18T08:17:36.000Z</time>
      </trkpt>
      <trkpt lat="22.890978" lon="111.291408">
        <ele>197.696115</ele>
        <time>2026-08-18T08:17:37.000Z</time>
      </trkpt>
      <trkpt lat="22.890970" lon="111.291448">
        <ele>197.748769</ele>
        <time>2026-08-18T08:17:38.000Z</time>
      </trkpt>
      <trkpt lat="22.890966" lon="111.291493">
        <ele>197.806924</ele>
        <time>2026-08-18T08:17:39.000Z</time>
      </trkpt>
      <trkpt lat="22.890964" lon="111.291539">
        <ele>197.866163</ele>
        <time>2026-08-18T08:17:40.000Z</time>
      </trkpt>
      <trkpt lat="22.890963" lon="111.291583">
        <ele>197.922780</ele>
        <time>2026-08-18T08:17:41.000Z</time>
      </trkpt>
      <trkpt lat="22.890963" lon="111.291628">
        <ele>197.980667</ele>
        <time>2026-08-18T08:17:42.000Z</time>
      </trkpt>
      <trkpt lat="22.890965" lon="111.291673">
        <ele>198.038621</ele>
        <time>2026-08-18T08:17:43.000Z</time>
      </trkpt>
      <trkpt lat="22.890968" lon="111.291717">
        <ele>198.095376</ele>
        <time>2026-08-18T08:17:44.000Z</time>
      </trkpt>
      <trkpt lat="22.890975" lon="111.291762">
        <ele>198.154082</ele>
        <time>2026-08-18T08:17:45.000Z</time>
      </trkpt>
      <trkpt lat="22.890985" lon="111.291808">
        <ele>198.214880</ele>
        <time>2026-08-18T08:17:46.000Z</time>
      </trkpt>
      <trkpt lat="22.890997" lon="111.291854">
        <ele>198.276380</ele>
        <time>2026-08-18T08:17:47.000Z</time>
      </trkpt>
      <trkpt lat="22.891010" lon="111.291897">
        <ele>198.334596</ele>
        <time>2026-08-18T08:17:48.000Z</time>
      </trkpt>
      <trkpt lat="22.891023" lon="111.291942">
        <ele>198.395262</ele>
        <time>2026-08-18T08:17:49.000Z</time>
      </trkpt>
      <trkpt lat="22.891040" lon="111.291983">
        <ele>198.453099</ele>
        <time>2026-08-18T08:17:50.000Z</time>
      </trkpt>
      <trkpt lat="22.891054" lon="111.292025">
        <ele>198.510555</ele>
        <time>2026-08-18T08:17:51.000Z</time>
      </trkpt>
      <trkpt lat="22.891074" lon="111.292062">
        <ele>198.565738</ele>
        <time>2026-08-18T08:17:52.000Z</time>
      </trkpt>
      <trkpt lat="22.891094" lon="111.292098">
        <ele>198.619817</ele>
        <time>2026-08-18T08:17:53.000Z</time>
      </trkpt>
      <trkpt lat="22.891118" lon="111.292131">
        <ele>198.673900</ele>
        <time>2026-08-18T08:17:54.000Z</time>
      </trkpt>
      <trkpt lat="22.891143" lon="111.292166">
        <ele>198.730871</ele>
        <time>2026-08-18T08:17:55.000Z</time>
      </trkpt>
      <trkpt lat="22.891167" lon="111.292200">
        <ele>198.785970</ele>
        <time>2026-08-18T08:17:56.000Z</time>
      </trkpt>
      <trkpt lat="22.891196" lon="111.292230">
        <ele>198.841908</ele>
        <time>2026-08-18T08:17:57.000Z</time>
      </trkpt>
      <trkpt lat="22.891226" lon="111.292259">
        <ele>198.898001</ele>
        <time>2026-08-18T08:17:58.000Z</time>
      </trkpt>
      <trkpt lat="22.891260" lon="111.292287">
        <ele>198.957593</ele>
        <time>2026-08-18T08:17:59.000Z</time>
      </trkpt>
      <trkpt lat="22.891296" lon="111.292314">
        <ele>199.018693</ele>
        <time>2026-08-18T08:18:00.000Z</time>
      </trkpt>
      <trkpt lat="22.891333" lon="111.292345">
        <ele>199.083957</ele>
        <time>2026-08-18T08:18:01.000Z</time>
      </trkpt>
      <trkpt lat="22.891369" lon="111.292374">
        <ele>199.146555</ele>
        <time>2026-08-18T08:18:02.000Z</time>
      </trkpt>
      <trkpt lat="22.891406" lon="111.292399">
        <ele>199.192623</ele>
        <time>2026-08-18T08:18:03.000Z</time>
      </trkpt>
      <trkpt lat="22.891445" lon="111.292426">
        <ele>199.233427</ele>
        <time>2026-08-18T08:18:04.000Z</time>
      </trkpt>
      <trkpt lat="22.891481" lon="111.292453">
        <ele>199.272026</ele>
        <time>2026-08-18T08:18:05.000Z</time>
      </trkpt>
      <trkpt lat="22.891514" lon="111.292476">
        <ele>199.306620</ele>
        <time>2026-08-18T08:18:06.000Z</time>
      </trkpt>
      <trkpt lat="22.891550" lon="111.292501">
        <ele>199.344319</ele>
        <time>2026-08-18T08:18:07.000Z</time>
      </trkpt>
      <trkpt lat="22.891585" lon="111.292525">
        <ele>199.380838</ele>
        <time>2026-08-18T08:18:08.000Z</time>
      </trkpt>
      <trkpt lat="22.891616" lon="111.292545">
        <ele>199.412649</ele>
        <time>2026-08-18T08:18:09.000Z</time>
      </trkpt>
      <trkpt lat="22.891649" lon="111.292567">
        <ele>199.446810</ele>
        <time>2026-08-18T08:18:10.000Z</time>
      </trkpt>
      <trkpt lat="22.891680" lon="111.292595">
        <ele>199.482385</ele>
        <time>2026-08-18T08:18:11.000Z</time>
      </trkpt>
      <trkpt lat="22.891717" lon="111.292607">
        <ele>199.516449</ele>
        <time>2026-08-18T08:18:12.000Z</time>
      </trkpt>
      <trkpt lat="22.891745" lon="111.292639">
        <ele>199.552314</ele>
        <time>2026-08-18T08:18:13.000Z</time>
      </trkpt>
      <trkpt lat="22.891771" lon="111.292672">
        <ele>199.587601</ele>
        <time>2026-08-18T08:18:14.000Z</time>
      </trkpt>
      <trkpt lat="22.891804" lon="111.292703">
        <ele>199.626098</ele>
        <time>2026-08-18T08:18:15.000Z</time>
      </trkpt>
      <trkpt lat="22.891832" lon="111.292738">
        <ele>199.663769</ele>
        <time>2026-08-18T08:18:16.000Z</time>
      </trkpt>
      <trkpt lat="22.891858" lon="111.292774">
        <ele>199.700942</ele>
        <time>2026-08-18T08:18:17.000Z</time>
      </trkpt>
      <trkpt lat="22.891885" lon="111.292811">
        <ele>199.739300</ele>
        <time>2026-08-18T08:18:18.000Z</time>
      </trkpt>
      <trkpt lat="22.891915" lon="111.292847">
        <ele>199.778749</ele>
        <time>2026-08-18T08:18:19.000Z</time>
      </trkpt>
      <trkpt lat="22.891943" lon="111.292888">
        <ele>199.820224</ele>
        <time>2026-08-18T08:18:20.000Z</time>
      </trkpt>
      <trkpt lat="22.891972" lon="111.292926">
        <ele>199.860324</ele>
        <time>2026-08-18T08:18:21.000Z</time>
      </trkpt>
      <trkpt lat="22.891996" lon="111.292963">
        <ele>199.897098</ele>
        <time>2026-08-18T08:18:22.000Z</time>
      </trkpt>
      <trkpt lat="22.892018" lon="111.293002">
        <ele>199.934260</ele>
        <time>2026-08-18T08:18:23.000Z</time>
      </trkpt>
      <trkpt lat="22.892042" lon="111.293037">
        <ele>199.969717</ele>
        <time>2026-08-18T08:18:24.000Z</time>
      </trkpt>
      <trkpt lat="22.892065" lon="111.293077">
        <ele>200.008035</ele>
        <time>2026-08-18T08:18:25.000Z</time>
      </trkpt>
      <trkpt lat="22.892087" lon="111.293119">
        <ele>200.047298</ele>
        <time>2026-08-18T08:18:26.000Z</time>
      </trkpt>
      <trkpt lat="22.892108" lon="111.293163">
        <ele>200.087568</ele>
        <time>2026-08-18T08:18:27.000Z</time>
      </trkpt>
      <trkpt lat="22.892125" lon="111.293207">
        <ele>200.126341</ele>
        <time>2026-08-18T08:18:28.000Z</time>
      </trkpt>
      <trkpt lat="22.892143" lon="111.293253">
        <ele>200.166956</ele>
        <time>2026-08-18T08:18:29.000Z</time>
      </trkpt>
      <trkpt lat="22.892160" lon="111.293299">
        <ele>200.207233</ele>
        <time>2026-08-18T08:18:30.000Z</time>
      </trkpt>
      <trkpt lat="22.892176" lon="111.293348">
        <ele>200.249480</ele>
        <time>2026-08-18T08:18:31.000Z</time>
      </trkpt>
      <trkpt lat="22.892190" lon="111.293395">
        <ele>200.289621</ele>
        <time>2026-08-18T08:18:32.000Z</time>
      </trkpt>
      <trkpt lat="22.892204" lon="111.293443">
        <ele>200.330536</ele>
        <time>2026-08-18T08:18:33.000Z</time>
      </trkpt>
      <trkpt lat="22.892217" lon="111.293493">
        <ele>200.372756</ele>
        <time>2026-08-18T08:18:34.000Z</time>
      </trkpt>
      <trkpt lat="22.892227" lon="111.293544">
        <ele>200.415129</ele>
        <time>2026-08-18T08:18:35.000Z</time>
      </trkpt>
      <trkpt lat="22.892235" lon="111.293594">
        <ele>200.456369</ele>
        <time>2026-08-18T08:18:36.000Z</time>
      </trkpt>
      <trkpt lat="22.892241" lon="111.293643">
        <ele>200.496539</ele>
        <time>2026-08-18T08:18:37.000Z</time>
      </trkpt>
      <trkpt lat="22.892244" lon="111.293693">
        <ele>200.537257</ele>
        <time>2026-08-18T08:18:38.000Z</time>
      </trkpt>
      <trkpt lat="22.892248" lon="111.293743">
        <ele>200.578042</ele>
        <time>2026-08-18T08:18:39.000Z</time>
      </trkpt>
      <trkpt lat="22.892248" lon="111.293792">
        <ele>200.617862</ele>
        <time>2026-08-18T08:18:40.000Z</time>
      </trkpt>
      <trkpt lat="22.892245" lon="111.293841">
        <ele>200.657769</ele>
        <time>2026-08-18T08:18:41.000Z</time>
      </trkpt>
      <trkpt lat="22.892241" lon="111.293890">
        <ele>200.697745</ele>
        <time>2026-08-18T08:18:42.000Z</time>
      </trkpt>
      <trkpt lat="22.892235" lon="111.293939">
        <ele>200.737915</ele>
        <time>2026-08-18T08:18:43.000Z</time>
      </trkpt>
      <trkpt lat="22.892229" lon="111.293986">
        <ele>200.760220</ele>
        <time>2026-08-18T08:18:44.000Z</time>
      </trkpt>
      <trkpt lat="22.892222" lon="111.294032">
        <ele>200.770858</ele>
        <time>2026-08-18T08:18:45.000Z</time>
      </trkpt>
      <trkpt lat="22.892215" lon="111.294079">
        <ele>200.781721</ele>
        <time>2026-08-18T08:18:46.000Z</time>
      </trkpt>
      <trkpt lat="22.892205" lon="111.294126">
        <ele>200.792727</ele>
        <time>2026-08-18T08:18:47.000Z</time>
      </trkpt>
      <trkpt lat="22.892194" lon="111.294173">
        <ele>200.803791</ele>
        <time>2026-08-18T08:18:48.000Z</time>
      </trkpt>
      <trkpt lat="22.892180" lon="111.294219">
        <ele>200.814844</ele>
        <time>2026-08-18T08:18:49.000Z</time>
      </trkpt>
      <trkpt lat="22.892165" lon="111.294266">
        <ele>200.826193</ele>
        <time>2026-08-18T08:18:50.000Z</time>
      </trkpt>
      <trkpt lat="22.892150" lon="111.294311">
        <ele>200.837112</ele>
        <time>2026-08-18T08:18:51.000Z</time>
      </trkpt>
      <trkpt lat="22.892132" lon="111.294357">
        <ele>200.848515</ele>
        <time>2026-08-18T08:18:52.000Z</time>
      </trkpt>
      <trkpt lat="22.892112" lon="111.294403">
        <ele>200.860121</ele>
        <time>2026-08-18T08:18:53.000Z</time>
      </trkpt>
      <trkpt lat="22.892090" lon="111.294450">
        <ele>200.872149</ele>
        <time>2026-08-18T08:18:54.000Z</time>
      </trkpt>
      <trkpt lat="22.892066" lon="111.294497">
        <ele>200.884410</ele>
        <time>2026-08-18T08:18:55.000Z</time>
      </trkpt>
      <trkpt lat="22.892040" lon="111.294543">
        <ele>200.896724</ele>
        <time>2026-08-18T08:18:56.000Z</time>
      </trkpt>
      <trkpt lat="22.892013" lon="111.294589">
        <ele>200.909168</ele>
        <time>2026-08-18T08:18:57.000Z</time>
      </trkpt>
      <trkpt lat="22.891987" lon="111.294632">
        <ele>200.920904</ele>
        <time>2026-08-18T08:18:58.000Z</time>
      </trkpt>
      <trkpt lat="22.891959" lon="111.294676">
        <ele>200.933105</ele>
        <time>2026-08-18T08:18:59.000Z</time>
      </trkpt>
      <trkpt lat="22.891930" lon="111.294719">
        <ele>200.945265</ele>
        <time>2026-08-18T08:19:00.000Z</time>
      </trkpt>
      <trkpt lat="22.891900" lon="111.294759">
        <ele>200.957033</ele>
        <time>2026-08-18T08:19:01.000Z</time>
      </trkpt>
      <trkpt lat="22.891867" lon="111.294798">
        <ele>200.969115</ele>
        <time>2026-08-18T08:19:02.000Z</time>
      </trkpt>
      <trkpt lat="22.891837" lon="111.294837">
        <ele>200.980708</ele>
        <time>2026-08-18T08:19:03.000Z</time>
      </trkpt>
      <trkpt lat="22.891807" lon="111.294877">
        <ele>200.992477</ele>
        <time>2026-08-18T08:19:04.000Z</time>
      </trkpt>
      <trkpt lat="22.891777" lon="111.294914">
        <ele>201.003723</ele>
        <time>2026-08-18T08:19:05.000Z</time>
      </trkpt>
      <trkpt lat="22.891745" lon="111.294952">
        <ele>201.015469</ele>
        <time>2026-08-18T08:19:06.000Z</time>
      </trkpt>
      <trkpt lat="22.891713" lon="111.294990">
        <ele>201.027216</ele>
        <time>2026-08-18T08:19:07.000Z</time>
      </trkpt>
      <trkpt lat="22.891683" lon="111.295029">
        <ele>201.038809</ele>
        <time>2026-08-18T08:19:08.000Z</time>
      </trkpt>
      <trkpt lat="22.891652" lon="111.295069">
        <ele>201.050735</ele>
        <time>2026-08-18T08:19:09.000Z</time>
      </trkpt>
      <trkpt lat="22.891618" lon="111.295108">
        <ele>201.062986</ele>
        <time>2026-08-18T08:19:10.000Z</time>
      </trkpt>
      <trkpt lat="22.891584" lon="111.295147">
        <ele>201.075238</ele>
        <time>2026-08-18T08:19:11.000Z</time>
      </trkpt>
      <trkpt lat="22.891550" lon="111.295184">
        <ele>201.087161</ele>
        <time>2026-08-18T08:19:12.000Z</time>
      </trkpt>
      <trkpt lat="22.891517" lon="111.295222">
        <ele>201.099077</ele>
        <time>2026-08-18T08:19:13.000Z</time>
      </trkpt>
      <trkpt lat="22.891483" lon="111.295260">
        <ele>201.111163</ele>
        <time>2026-08-18T08:19:14.000Z</time>
      </trkpt>
      <trkpt lat="22.891449" lon="111.295294">
        <ele>201.122613</ele>
        <time>2026-08-18T08:19:15.000Z</time>
      </trkpt>
      <trkpt lat="22.891414" lon="111.295328">
        <ele>201.134245</ele>
        <time>2026-08-18T08:19:16.000Z</time>
      </trkpt>
      <trkpt lat="22.891379" lon="111.295362">
        <ele>201.145878</ele>
        <time>2026-08-18T08:19:17.000Z</time>
      </trkpt>
      <trkpt lat="22.891343" lon="111.295394">
        <ele>201.157402</ele>
        <time>2026-08-18T08:19:18.000Z</time>
      </trkpt>
      <trkpt lat="22.891306" lon="111.295427">
        <ele>201.169263</ele>
        <time>2026-08-18T08:19:19.000Z</time>
      </trkpt>
      <trkpt lat="22.891268" lon="111.295460">
        <ele>201.181315</ele>
        <time>2026-08-18T08:19:20.000Z</time>
      </trkpt>
      <trkpt lat="22.891228" lon="111.295491">
        <ele>201.193488</ele>
        <time>2026-08-18T08:19:21.000Z</time>
      </trkpt>
      <trkpt lat="22.891186" lon="111.295521">
        <ele>201.210966</ele>
        <time>2026-08-18T08:19:22.000Z</time>
      </trkpt>
      <trkpt lat="22.891143" lon="111.295548">
        <ele>201.232645</ele>
        <time>2026-08-18T08:19:23.000Z</time>
      </trkpt>
      <trkpt lat="22.891099" lon="111.295574">
        <ele>201.254508</ele>
        <time>2026-08-18T08:19:24.000Z</time>
      </trkpt>
      <trkpt lat="22.891054" lon="111.295594">
        <ele>201.275728</ele>
        <time>2026-08-18T08:19:25.000Z</time>
      </trkpt>
      <trkpt lat="22.891010" lon="111.295615">
        <ele>201.296704</ele>
        <time>2026-08-18T08:19:26.000Z</time>
      </trkpt>
      <trkpt lat="22.890962" lon="111.295631">
        <ele>201.318617</ele>
        <time>2026-08-18T08:19:27.000Z</time>
      </trkpt>
      <trkpt lat="22.890913" lon="111.295645">
        <ele>201.340729</ele>
        <time>2026-08-18T08:19:28.000Z</time>
      </trkpt>
      <trkpt lat="22.890864" lon="111.295658">
        <ele>201.362742</ele>
        <time>2026-08-18T08:19:29.000Z</time>
      </trkpt>
      <trkpt lat="22.890816" lon="111.295671">
        <ele>201.384332</ele>
        <time>2026-08-18T08:19:30.000Z</time>
      </trkpt>
      <trkpt lat="22.890768" lon="111.295686">
        <ele>201.406130</ele>
        <time>2026-08-18T08:19:31.000Z</time>
      </trkpt>
      <trkpt lat="22.890720" lon="111.295700">
        <ele>201.427820</ele>
        <time>2026-08-18T08:19:32.000Z</time>
      </trkpt>
      <trkpt lat="22.890671" lon="111.295712">
        <ele>201.449742</ele>
        <time>2026-08-18T08:19:33.000Z</time>
      </trkpt>
      <trkpt lat="22.890621" lon="111.295725">
        <ele>201.472179</ele>
        <time>2026-08-18T08:19:34.000Z</time>
      </trkpt>
      <trkpt lat="22.890570" lon="111.295738">
        <ele>201.495041</ele>
        <time>2026-08-18T08:19:35.000Z</time>
      </trkpt>
      <trkpt lat="22.890519" lon="111.295752">
        <ele>201.517998</ele>
        <time>2026-08-18T08:19:36.000Z</time>
      </trkpt>
      <trkpt lat="22.890471" lon="111.295766">
        <ele>201.539689</ele>
        <time>2026-08-18T08:19:37.000Z</time>
      </trkpt>
      <trkpt lat="22.890424" lon="111.295778">
        <ele>201.560760</ele>
        <time>2026-08-18T08:19:38.000Z</time>
      </trkpt>
      <trkpt lat="22.890378" lon="111.295790">
        <ele>201.581406</ele>
        <time>2026-08-18T08:19:39.000Z</time>
      </trkpt>
      <trkpt lat="22.890332" lon="111.295805">
        <ele>201.602367</ele>
        <time>2026-08-18T08:19:40.000Z</time>
      </trkpt>
      <trkpt lat="22.890284" lon="111.295821">
        <ele>201.624279</ele>
        <time>2026-08-18T08:19:41.000Z</time>
      </trkpt>
      <trkpt lat="22.890237" lon="111.295835">
        <ele>201.645549</ele>
        <time>2026-08-18T08:19:42.000Z</time>
      </trkpt>
      <trkpt lat="22.890190" lon="111.295849">
        <ele>201.666818</ele>
        <time>2026-08-18T08:19:43.000Z</time>
      </trkpt>
      <trkpt lat="22.890141" lon="111.295864">
        <ele>201.689036</ele>
        <time>2026-08-18T08:19:44.000Z</time>
      </trkpt>
      <trkpt lat="22.890092" lon="111.295879">
        <ele>201.711254</ele>
        <time>2026-08-18T08:19:45.000Z</time>
      </trkpt>
      <trkpt lat="22.890044" lon="111.295896">
        <ele>201.733288</ele>
        <time>2026-08-18T08:19:46.000Z</time>
      </trkpt>
      <trkpt lat="22.889997" lon="111.295917">
        <ele>201.755469</ele>
        <time>2026-08-18T08:19:47.000Z</time>
      </trkpt>
      <trkpt lat="22.889950" lon="111.295940">
        <ele>201.777968</ele>
        <time>2026-08-18T08:19:48.000Z</time>
      </trkpt>
      <trkpt lat="22.889901" lon="111.295963">
        <ele>201.801265</ele>
        <time>2026-08-18T08:19:49.000Z</time>
      </trkpt>
      <trkpt lat="22.889854" lon="111.295984">
        <ele>201.823446</ele>
        <time>2026-08-18T08:19:50.000Z</time>
      </trkpt>
      <trkpt lat="22.889806" lon="111.296005">
        <ele>201.846031</ele>
        <time>2026-08-18T08:19:51.000Z</time>
      </trkpt>
      <trkpt lat="22.889758" lon="111.296026">
        <ele>201.868615</ele>
        <time>2026-08-18T08:19:52.000Z</time>
      </trkpt>
      <trkpt lat="22.889710" lon="111.296050">
        <ele>201.891678</ele>
        <time>2026-08-18T08:19:53.000Z</time>
      </trkpt>
      <trkpt lat="22.889664" lon="111.296075">
        <ele>201.914128</ele>
        <time>2026-08-18T08:19:54.000Z</time>
      </trkpt>
      <trkpt lat="22.889618" lon="111.296100">
        <ele>201.936579</ele>
        <time>2026-08-18T08:19:55.000Z</time>
      </trkpt>
      <trkpt lat="22.889572" lon="111.296125">
        <ele>201.959029</ele>
        <time>2026-08-18T08:19:56.000Z</time>
      </trkpt>
      <trkpt lat="22.889525" lon="111.296152">
        <ele>201.982235</ele>
        <time>2026-08-18T08:19:57.000Z</time>
      </trkpt>
      <trkpt lat="22.889480" lon="111.296179">
        <ele>202.043250</ele>
        <time>2026-08-18T08:19:58.000Z</time>
      </trkpt>
      <trkpt lat="22.889435" lon="111.296205">
        <ele>202.107580</ele>
        <time>2026-08-18T08:19:59.000Z</time>
      </trkpt>
      <trkpt lat="22.889392" lon="111.296233">
        <ele>202.170857</ele>
        <time>2026-08-18T08:20:00.000Z</time>
      </trkpt>
      <trkpt lat="22.889351" lon="111.296263">
        <ele>202.233252</ele>
        <time>2026-08-18T08:20:01.000Z</time>
      </trkpt>
      <trkpt lat="22.889310" lon="111.296295">
        <ele>202.296977</ele>
        <time>2026-08-18T08:20:02.000Z</time>
      </trkpt>
      <trkpt lat="22.889268" lon="111.296327">
        <ele>202.361730</ele>
        <time>2026-08-18T08:20:03.000Z</time>
      </trkpt>
      <trkpt lat="22.889226" lon="111.296362">
        <ele>202.428547</ele>
        <time>2026-08-18T08:20:04.000Z</time>
      </trkpt>
      <trkpt lat="22.889185" lon="111.296397">
        <ele>202.494369</ele>
        <time>2026-08-18T08:20:05.000Z</time>
      </trkpt>
      <trkpt lat="22.889146" lon="111.296432">
        <ele>202.558225</ele>
        <time>2026-08-18T08:20:06.000Z</time>
      </trkpt>
      <trkpt lat="22.889105" lon="111.296466">
        <ele>202.623335</ele>
        <time>2026-08-18T08:20:07.000Z</time>
      </trkpt>
      <trkpt lat="22.889065" lon="111.296500">
        <ele>202.687446</ele>
        <time>2026-08-18T08:20:08.000Z</time>
      </trkpt>
      <trkpt lat="22.889026" lon="111.296533">
        <ele>202.749846</ele>
        <time>2026-08-18T08:20:09.000Z</time>
      </trkpt>
      <trkpt lat="22.888988" lon="111.296567">
        <ele>202.811990</ele>
        <time>2026-08-18T08:20:10.000Z</time>
      </trkpt>
      <trkpt lat="22.888949" lon="111.296602">
        <ele>202.875846</ele>
        <time>2026-08-18T08:20:11.000Z</time>
      </trkpt>
      <trkpt lat="22.888911" lon="111.296636">
        <ele>202.937990</ele>
        <time>2026-08-18T08:20:12.000Z</time>
      </trkpt>
      <trkpt lat="22.888875" lon="111.296670">
        <ele>202.998207</ele>
        <time>2026-08-18T08:20:13.000Z</time>
      </trkpt>
      <trkpt lat="22.888840" lon="111.296706">
        <ele>203.059053</ele>
        <time>2026-08-18T08:20:14.000Z</time>
      </trkpt>
      <trkpt lat="22.888805" lon="111.296742">
        <ele>203.119900</ele>
        <time>2026-08-18T08:20:15.000Z</time>
      </trkpt>
      <trkpt lat="22.888770" lon="111.296778">
        <ele>203.180746</ele>
        <time>2026-08-18T08:20:16.000Z</time>
      </trkpt>
      <trkpt lat="22.888737" lon="111.296814">
        <ele>203.239786</ele>
        <time>2026-08-18T08:20:17.000Z</time>
      </trkpt>
      <trkpt lat="22.888705" lon="111.296850">
        <ele>203.297943</ele>
        <time>2026-08-18T08:20:18.000Z</time>
      </trkpt>
      <trkpt lat="22.888673" lon="111.296887">
        <ele>203.356942</ele>
        <time>2026-08-18T08:20:19.000Z</time>
      </trkpt>
      <trkpt lat="22.888642" lon="111.296926">
        <ele>203.416825</ele>
        <time>2026-08-18T08:20:20.000Z</time>
      </trkpt>
      <trkpt lat="22.888609" lon="111.296961">
        <ele>203.475046</ele>
        <time>2026-08-18T08:20:21.000Z</time>
      </trkpt>
      <trkpt lat="22.888577" lon="111.296995">
        <ele>203.531553</ele>
        <time>2026-08-18T08:20:22.000Z</time>
      </trkpt>
      <trkpt lat="22.888544" lon="111.297027">
        <ele>203.587393</ele>
        <time>2026-08-18T08:20:23.000Z</time>
      </trkpt>
      <trkpt lat="22.888512" lon="111.297059">
        <ele>203.642298</ele>
        <time>2026-08-18T08:20:24.000Z</time>
      </trkpt>
      <trkpt lat="22.888481" lon="111.297092">
        <ele>203.697090</ele>
        <time>2026-08-18T08:20:25.000Z</time>
      </trkpt>
      <trkpt lat="22.888451" lon="111.297125">
        <ele>203.750988</ele>
        <time>2026-08-18T08:20:26.000Z</time>
      </trkpt>
      <trkpt lat="22.888422" lon="111.297160">
        <ele>203.805713</ele>
        <time>2026-08-18T08:20:27.000Z</time>
      </trkpt>
      <trkpt lat="22.888394" lon="111.297192">
        <ele>203.857020</ele>
        <time>2026-08-18T08:20:28.000Z</time>
      </trkpt>
      <trkpt lat="22.888363" lon="111.297225">
        <ele>203.911811</ele>
        <time>2026-08-18T08:20:29.000Z</time>
      </trkpt>
      <trkpt lat="22.888332" lon="111.297260">
        <ele>203.968256</ele>
        <time>2026-08-18T08:20:30.000Z</time>
      </trkpt>
      <trkpt lat="22.888303" lon="111.297294">
        <ele>204.022122</ele>
        <time>2026-08-18T08:20:31.000Z</time>
      </trkpt>
      <trkpt lat="22.888274" lon="111.297328">
        <ele>204.075988</ele>
        <time>2026-08-18T08:20:32.000Z</time>
      </trkpt>
      <trkpt lat="22.888245" lon="111.297360">
        <ele>204.128173</ele>
        <time>2026-08-18T08:20:33.000Z</time>
      </trkpt>
      <trkpt lat="22.888216" lon="111.297392">
        <ele>204.180357</ele>
        <time>2026-08-18T08:20:34.000Z</time>
      </trkpt>
      <trkpt lat="22.888187" lon="111.297423">
        <ele>204.231719</ele>
        <time>2026-08-18T08:20:35.000Z</time>
      </trkpt>
      <trkpt lat="22.888160" lon="111.297455">
        <ele>204.289536</ele>
        <time>2026-08-18T08:20:36.000Z</time>
      </trkpt>
      <trkpt lat="22.888133" lon="111.297489">
        <ele>204.355380</ele>
        <time>2026-08-18T08:20:37.000Z</time>
      </trkpt>
      <trkpt lat="22.888106" lon="111.297521">
        <ele>204.419031</ele>
        <time>2026-08-18T08:20:38.000Z</time>
      </trkpt>
      <trkpt lat="22.888078" lon="111.297552">
        <ele>204.482712</ele>
        <time>2026-08-18T08:20:39.000Z</time>
      </trkpt>
      <trkpt lat="22.888051" lon="111.297585">
        <ele>204.547452</ele>
        <time>2026-08-18T08:20:40.000Z</time>
      </trkpt>
      <trkpt lat="22.888024" lon="111.297617">
        <ele>204.611103</ele>
        <time>2026-08-18T08:20:41.000Z</time>
      </trkpt>
      <trkpt lat="22.887998" lon="111.297648">
        <ele>204.672597</ele>
        <time>2026-08-18T08:20:42.000Z</time>
      </trkpt>
      <trkpt lat="22.887971" lon="111.297679">
        <ele>204.735174</ele>
        <time>2026-08-18T08:20:43.000Z</time>
      </trkpt>
      <trkpt lat="22.887944" lon="111.297710">
        <ele>204.797751</ele>
        <time>2026-08-18T08:20:44.000Z</time>
      </trkpt>
      <trkpt lat="22.887920" lon="111.297743">
        <ele>204.859422</ele>
        <time>2026-08-18T08:20:45.000Z</time>
      </trkpt>
      <trkpt lat="22.887895" lon="111.297778">
        <ele>204.924386</ele>
        <time>2026-08-18T08:20:46.000Z</time>
      </trkpt>
      <trkpt lat="22.887868" lon="111.297812">
        <ele>204.990230</ele>
        <time>2026-08-18T08:20:47.000Z</time>
      </trkpt>
      <trkpt lat="22.887840" lon="111.297848">
        <ele>205.059339</ele>
        <time>2026-08-18T08:20:48.000Z</time>
      </trkpt>
      <trkpt lat="22.887812" lon="111.297882">
        <ele>205.126234</ele>
        <time>2026-08-18T08:20:49.000Z</time>
      </trkpt>
      <trkpt lat="22.887784" lon="111.297916">
        <ele>205.193129</ele>
        <time>2026-08-18T08:20:50.000Z</time>
      </trkpt>
      <trkpt lat="22.887756" lon="111.297947">
        <ele>205.256810</ele>
        <time>2026-08-18T08:20:51.000Z</time>
      </trkpt>
      <trkpt lat="22.887727" lon="111.297978">
        <ele>205.321616</ele>
        <time>2026-08-18T08:20:52.000Z</time>
      </trkpt>
      <trkpt lat="22.887696" lon="111.298010">
        <ele>205.389730</ele>
        <time>2026-08-18T08:20:53.000Z</time>
      </trkpt>
      <trkpt lat="22.887665" lon="111.298040">
        <ele>205.455857</ele>
        <time>2026-08-18T08:20:54.000Z</time>
      </trkpt>
      <trkpt lat="22.887633" lon="111.298070">
        <ele>205.523181</ele>
        <time>2026-08-18T08:20:55.000Z</time>
      </trkpt>
      <trkpt lat="22.887600" lon="111.298098">
        <ele>205.589872</ele>
        <time>2026-08-18T08:20:56.000Z</time>
      </trkpt>
      <trkpt lat="22.887569" lon="111.298127">
        <ele>205.655032</ele>
        <time>2026-08-18T08:20:57.000Z</time>
      </trkpt>
      <trkpt lat="22.887539" lon="111.298159">
        <ele>205.722002</ele>
        <time>2026-08-18T08:20:58.000Z</time>
      </trkpt>
      <trkpt lat="22.887511" lon="111.298190">
        <ele>205.785683</ele>
        <time>2026-08-18T08:20:59.000Z</time>
      </trkpt>
      <trkpt lat="22.887482" lon="111.298223">
        <ele>205.852581</ele>
        <time>2026-08-18T08:21:00.000Z</time>
      </trkpt>
      <trkpt lat="22.887455" lon="111.298254">
        <ele>205.915158</ele>
        <time>2026-08-18T08:21:01.000Z</time>
      </trkpt>
      <trkpt lat="22.887429" lon="111.298286">
        <ele>205.977744</ele>
        <time>2026-08-18T08:21:02.000Z</time>
      </trkpt>
      <trkpt lat="22.887403" lon="111.298318">
        <ele>206.040331</ele>
        <time>2026-08-18T08:21:03.000Z</time>
      </trkpt>
      <trkpt lat="22.887378" lon="111.298352">
        <ele>206.104141</ele>
        <time>2026-08-18T08:21:04.000Z</time>
      </trkpt>
      <trkpt lat="22.887353" lon="111.298385">
        <ele>206.166812</ele>
        <time>2026-08-18T08:21:05.000Z</time>
      </trkpt>
      <trkpt lat="22.887327" lon="111.298420">
        <ele>206.232764</ele>
        <time>2026-08-18T08:21:06.000Z</time>
      </trkpt>
      <trkpt lat="22.887300" lon="111.298454">
        <ele>206.298608</ele>
        <time>2026-08-18T08:21:07.000Z</time>
      </trkpt>
      <trkpt lat="22.887271" lon="111.298487">
        <ele>206.365505</ele>
        <time>2026-08-18T08:21:08.000Z</time>
      </trkpt>
      <trkpt lat="22.887244" lon="111.298521">
        <ele>206.431350</ele>
        <time>2026-08-18T08:21:09.000Z</time>
      </trkpt>
      <trkpt lat="22.887218" lon="111.298554">
        <ele>206.495044</ele>
        <time>2026-08-18T08:21:10.000Z</time>
      </trkpt>
      <trkpt lat="22.887197" lon="111.298588">
        <ele>206.555088</ele>
        <time>2026-08-18T08:21:11.000Z</time>
      </trkpt>
      <trkpt lat="22.887175" lon="111.298623">
        <ele>206.617240</ele>
        <time>2026-08-18T08:21:12.000Z</time>
      </trkpt>
      <trkpt lat="22.887153" lon="111.298659">
        <ele>206.680609</ele>
        <time>2026-08-18T08:21:13.000Z</time>
      </trkpt>
      <trkpt lat="22.887132" lon="111.298695">
        <ele>206.743111</ele>
        <time>2026-08-18T08:21:14.000Z</time>
      </trkpt>
      <trkpt lat="22.887112" lon="111.298733">
        <ele>206.807307</ele>
        <time>2026-08-18T08:21:15.000Z</time>
      </trkpt>
      <trkpt lat="22.887093" lon="111.298772">
        <ele>206.872021</ele>
        <time>2026-08-18T08:21:16.000Z</time>
      </trkpt>
      <trkpt lat="22.887074" lon="111.298811">
        <ele>206.936735</ele>
        <time>2026-08-18T08:21:17.000Z</time>
      </trkpt>
      <trkpt lat="22.887055" lon="111.298851">
        <ele>207.002750</ele>
        <time>2026-08-18T08:21:18.000Z</time>
      </trkpt>
      <trkpt lat="22.887037" lon="111.298891">
        <ele>207.068050</ele>
        <time>2026-08-18T08:21:19.000Z</time>
      </trkpt>
      <trkpt lat="22.887021" lon="111.298930">
        <ele>207.129054</ele>
        <time>2026-08-18T08:21:20.000Z</time>
      </trkpt>
      <trkpt lat="22.887005" lon="111.298968">
        <ele>207.182611</ele>
        <time>2026-08-18T08:21:21.000Z</time>
      </trkpt>
      <trkpt lat="22.886991" lon="111.299007">
        <ele>207.236265</ele>
        <time>2026-08-18T08:21:22.000Z</time>
      </trkpt>
      <trkpt lat="22.886977" lon="111.299043">
        <ele>207.286355</ele>
        <time>2026-08-18T08:21:23.000Z</time>
      </trkpt>
      <trkpt lat="22.886961" lon="111.299080">
        <ele>207.338749</ele>
        <time>2026-08-18T08:21:24.000Z</time>
      </trkpt>
      <trkpt lat="22.886946" lon="111.299118">
        <ele>207.391743</ele>
        <time>2026-08-18T08:21:25.000Z</time>
      </trkpt>
      <trkpt lat="22.886934" lon="111.299157">
        <ele>207.444450</ele>
        <time>2026-08-18T08:21:26.000Z</time>
      </trkpt>
      <trkpt lat="22.886924" lon="111.299197">
        <ele>207.497579</ele>
        <time>2026-08-18T08:21:27.000Z</time>
      </trkpt>
      <trkpt lat="22.886913" lon="111.299236">
        <ele>207.549863</ele>
        <time>2026-08-18T08:21:28.000Z</time>
      </trkpt>
      <trkpt lat="22.886904" lon="111.299273">
        <ele>207.598917</ele>
        <time>2026-08-18T08:21:29.000Z</time>
      </trkpt>
      <trkpt lat="22.886896" lon="111.299310">
        <ele>207.647635</ele>
        <time>2026-08-18T08:21:30.000Z</time>
      </trkpt>
      <trkpt lat="22.886888" lon="111.299346">
        <ele>207.695106</ele>
        <time>2026-08-18T08:21:31.000Z</time>
      </trkpt>
      <trkpt lat="22.886879" lon="111.299384">
        <ele>207.745400</ele>
        <time>2026-08-18T08:21:32.000Z</time>
      </trkpt>
      <trkpt lat="22.886871" lon="111.299421">
        <ele>207.794118</ele>
        <time>2026-08-18T08:21:33.000Z</time>
      </trkpt>
      <trkpt lat="22.886862" lon="111.299458">
        <ele>207.843173</ele>
        <time>2026-08-18T08:21:34.000Z</time>
      </trkpt>
      <trkpt lat="22.886856" lon="111.299497">
        <ele>207.893858</ele>
        <time>2026-08-18T08:21:35.000Z</time>
      </trkpt>
      <trkpt lat="22.886851" lon="111.299535">
        <ele>207.943063</ele>
        <time>2026-08-18T08:21:36.000Z</time>
      </trkpt>
      <trkpt lat="22.886846" lon="111.299575">
        <ele>207.994808</ele>
        <time>2026-08-18T08:21:37.000Z</time>
      </trkpt>
      <trkpt lat="22.886842" lon="111.299613">
        <ele>208.043836</ele>
        <time>2026-08-18T08:21:38.000Z</time>
      </trkpt>
      <trkpt lat="22.886839" lon="111.299654">
        <ele>208.096558</ele>
        <time>2026-08-18T08:21:39.000Z</time>
      </trkpt>
      <trkpt lat="22.886836" lon="111.299693">
        <ele>208.146724</ele>
        <time>2026-08-18T08:21:40.000Z</time>
      </trkpt>
      <trkpt lat="22.886831" lon="111.299732">
        <ele>208.197199</ele>
        <time>2026-08-18T08:21:41.000Z</time>
      </trkpt>
      <trkpt lat="22.886827" lon="111.299770">
        <ele>208.246227</ele>
        <time>2026-08-18T08:21:42.000Z</time>
      </trkpt>
      <trkpt lat="22.886822" lon="111.299809">
        <ele>208.296702</ele>
        <time>2026-08-18T08:21:43.000Z</time>
      </trkpt>
      <trkpt lat="22.886820" lon="111.299847">
        <ele>208.345492</ele>
        <time>2026-08-18T08:21:44.000Z</time>
      </trkpt>
      <trkpt lat="22.886816" lon="111.299885">
        <ele>208.394520</ele>
        <time>2026-08-18T08:21:45.000Z</time>
      </trkpt>
      <trkpt lat="22.886812" lon="111.299923">
        <ele>208.443548</ele>
        <time>2026-08-18T08:21:46.000Z</time>
      </trkpt>
      <trkpt lat="22.886808" lon="111.299961">
        <ele>208.492576</ele>
        <time>2026-08-18T08:21:47.000Z</time>
      </trkpt>
      <trkpt lat="22.886803" lon="111.299999">
        <ele>208.541781</ele>
        <time>2026-08-18T08:21:48.000Z</time>
      </trkpt>
      <trkpt lat="22.886798" lon="111.300036">
        <ele>208.589718</ele>
        <time>2026-08-18T08:21:49.000Z</time>
      </trkpt>
      <trkpt lat="22.886793" lon="111.300073">
        <ele>208.637654</ele>
        <time>2026-08-18T08:21:50.000Z</time>
      </trkpt>
      <trkpt lat="22.886788" lon="111.300111">
        <ele>208.686860</ele>
        <time>2026-08-18T08:21:51.000Z</time>
      </trkpt>
      <trkpt lat="22.886781" lon="111.300150">
        <ele>208.737793</ele>
        <time>2026-08-18T08:21:52.000Z</time>
      </trkpt>
      <trkpt lat="22.886775" lon="111.300187">
        <ele>208.785951</ele>
        <time>2026-08-18T08:21:53.000Z</time>
      </trkpt>
      <trkpt lat="22.886772" lon="111.300225">
        <ele>208.834840</ele>
        <time>2026-08-18T08:21:54.000Z</time>
      </trkpt>
      <trkpt lat="22.886765" lon="111.300262">
        <ele>208.883259</ele>
        <time>2026-08-18T08:21:55.000Z</time>
      </trkpt>
      <trkpt lat="22.886761" lon="111.300299">
        <ele>208.931014</ele>
        <time>2026-08-18T08:21:56.000Z</time>
      </trkpt>
      <trkpt lat="22.886755" lon="111.300336">
        <ele>208.979172</ele>
        <time>2026-08-18T08:21:57.000Z</time>
      </trkpt>
      <trkpt lat="22.886749" lon="111.300375">
        <ele>209.029857</ele>
        <time>2026-08-18T08:21:58.000Z</time>
      </trkpt>
      <trkpt lat="22.886742" lon="111.300414">
        <ele>209.080790</ele>
        <time>2026-08-18T08:21:59.000Z</time>
      </trkpt>
      <trkpt lat="22.886734" lon="111.300452">
        <ele>209.130757</ele>
        <time>2026-08-18T08:22:00.000Z</time>
      </trkpt>
      <trkpt lat="22.886723" lon="111.300489">
        <ele>209.180594</ele>
        <time>2026-08-18T08:22:01.000Z</time>
      </trkpt>
      <trkpt lat="22.886712" lon="111.300528">
        <ele>209.232878</ele>
        <time>2026-08-18T08:22:02.000Z</time>
      </trkpt>
      <trkpt lat="22.886705" lon="111.300566">
        <ele>209.282553</ele>
        <time>2026-08-18T08:22:03.000Z</time>
      </trkpt>
      <trkpt lat="22.886695" lon="111.300603">
        <ele>209.331981</ele>
        <time>2026-08-18T08:22:04.000Z</time>
      </trkpt>
      <trkpt lat="22.886686" lon="111.300640">
        <ele>209.381035</ele>
        <time>2026-08-18T08:22:05.000Z</time>
      </trkpt>
      <trkpt lat="22.886678" lon="111.300676">
        <ele>209.428506</ele>
        <time>2026-08-18T08:22:06.000Z</time>
      </trkpt>
      <trkpt lat="22.886666" lon="111.300712">
        <ele>209.477581</ele>
        <time>2026-08-18T08:22:07.000Z</time>
      </trkpt>
      <trkpt lat="22.886654" lon="111.300747">
        <ele>209.525453</ele>
        <time>2026-08-18T08:22:08.000Z</time>
      </trkpt>
      <trkpt lat="22.886640" lon="111.300783">
        <ele>209.575543</ele>
        <time>2026-08-18T08:22:09.000Z</time>
      </trkpt>
      <trkpt lat="22.886626" lon="111.300820">
        <ele>209.628990</ele>
        <time>2026-08-18T08:22:10.000Z</time>
      </trkpt>
      <trkpt lat="22.886609" lon="111.300855">
        <ele>209.697086</ele>
        <time>2026-08-18T08:22:11.000Z</time>
      </trkpt>
      <trkpt lat="22.886592" lon="111.300890">
        <ele>209.765182</ele>
        <time>2026-08-18T08:22:12.000Z</time>
      </trkpt>
      <trkpt lat="22.886575" lon="111.300925">
        <ele>209.833279</ele>
        <time>2026-08-18T08:22:13.000Z</time>
      </trkpt>
      <trkpt lat="22.886557" lon="111.300959">
        <ele>209.900768</ele>
        <time>2026-08-18T08:22:14.000Z</time>
      </trkpt>
      <trkpt lat="22.886536" lon="111.300989">
        <ele>209.965614</ele>
        <time>2026-08-18T08:22:15.000Z</time>
      </trkpt>
      <trkpt lat="22.886514" lon="111.301022">
        <ele>210.035719</ele>
        <time>2026-08-18T08:22:16.000Z</time>
      </trkpt>
      <trkpt lat="22.886494" lon="111.301052">
        <ele>210.099452</ele>
        <time>2026-08-18T08:22:17.000Z</time>
      </trkpt>
      <trkpt lat="22.886472" lon="111.301083">
        <ele>210.166799</ele>
        <time>2026-08-18T08:22:18.000Z</time>
      </trkpt>
      <trkpt lat="22.886449" lon="111.301110">
        <ele>210.230088</ele>
        <time>2026-08-18T08:22:19.000Z</time>
      </trkpt>
      <trkpt lat="22.886424" lon="111.301139">
        <ele>210.298443</ele>
        <time>2026-08-18T08:22:20.000Z</time>
      </trkpt>
      <trkpt lat="22.886399" lon="111.301167">
        <ele>210.365550</ele>
        <time>2026-08-18T08:22:21.000Z</time>
      </trkpt>
      <trkpt lat="22.886372" lon="111.301195">
        <ele>210.435310</ele>
        <time>2026-08-18T08:22:22.000Z</time>
      </trkpt>
      <trkpt lat="22.886344" lon="111.301225">
        <ele>210.508808</ele>
        <time>2026-08-18T08:22:23.000Z</time>
      </trkpt>
      <trkpt lat="22.886317" lon="111.301253">
        <ele>210.578568</ele>
        <time>2026-08-18T08:22:24.000Z</time>
      </trkpt>
      <trkpt lat="22.886289" lon="111.301280">
        <ele>210.648535</ele>
        <time>2026-08-18T08:22:25.000Z</time>
      </trkpt>
      <trkpt lat="22.886260" lon="111.301305">
        <ele>210.717718</ele>
        <time>2026-08-18T08:22:26.000Z</time>
      </trkpt>
      <trkpt lat="22.886233" lon="111.301330">
        <ele>210.784017</ele>
        <time>2026-08-18T08:22:27.000Z</time>
      </trkpt>
      <trkpt lat="22.886205" lon="111.301354">
        <ele>210.850667</ele>
        <time>2026-08-18T08:22:28.000Z</time>
      </trkpt>
      <trkpt lat="22.886176" lon="111.301377">
        <ele>210.917763</ele>
        <time>2026-08-18T08:22:29.000Z</time>
      </trkpt>
      <trkpt lat="22.886146" lon="111.301402">
        <ele>210.988419</ele>
        <time>2026-08-18T08:22:30.000Z</time>
      </trkpt>
      <trkpt lat="22.886117" lon="111.301423">
        <ele>211.053544</ele>
        <time>2026-08-18T08:22:31.000Z</time>
      </trkpt>
      <trkpt lat="22.886089" lon="111.301443">
        <ele>211.116162</ele>
        <time>2026-08-18T08:22:32.000Z</time>
      </trkpt>
      <trkpt lat="22.886062" lon="111.301465">
        <ele>211.179231</ele>
        <time>2026-08-18T08:22:33.000Z</time>
      </trkpt>
      <trkpt lat="22.886035" lon="111.301484">
        <ele>211.239343</ele>
        <time>2026-08-18T08:22:34.000Z</time>
      </trkpt>
      <trkpt lat="22.886006" lon="111.301503">
        <ele>211.302623</ele>
        <time>2026-08-18T08:22:35.000Z</time>
      </trkpt>
      <trkpt lat="22.885978" lon="111.301519">
        <ele>211.361737</ele>
        <time>2026-08-18T08:22:36.000Z</time>
      </trkpt>
      <trkpt lat="22.885949" lon="111.301534">
        <ele>211.421749</ele>
        <time>2026-08-18T08:22:37.000Z</time>
      </trkpt>
      <trkpt lat="22.885919" lon="111.301551">
        <ele>211.484971</ele>
        <time>2026-08-18T08:22:38.000Z</time>
      </trkpt>
      <trkpt lat="22.885889" lon="111.301567">
        <ele>211.547414</ele>
        <time>2026-08-18T08:22:39.000Z</time>
      </trkpt>
      <trkpt lat="22.885858" lon="111.301582">
        <ele>211.610820</ele>
        <time>2026-08-18T08:22:40.000Z</time>
      </trkpt>
      <trkpt lat="22.885826" lon="111.301596">
        <ele>211.675273</ele>
        <time>2026-08-18T08:22:41.000Z</time>
      </trkpt>
      <trkpt lat="22.885794" lon="111.301611">
        <ele>211.740390</ele>
        <time>2026-08-18T08:22:42.000Z</time>
      </trkpt>
      <trkpt lat="22.885761" lon="111.301624">
        <ele>211.805973</ele>
        <time>2026-08-18T08:22:43.000Z</time>
      </trkpt>
      <trkpt lat="22.885728" lon="111.301635">
        <ele>211.870462</ele>
        <time>2026-08-18T08:22:44.000Z</time>
      </trkpt>
      <trkpt lat="22.885695" lon="111.301647">
        <ele>211.935478</ele>
        <time>2026-08-18T08:22:45.000Z</time>
      </trkpt>
      <trkpt lat="22.885662" lon="111.301661">
        <ele>212.001668</ele>
        <time>2026-08-18T08:22:46.000Z</time>
      </trkpt>
      <trkpt lat="22.885629" lon="111.301677">
        <ele>212.069187</ele>
        <time>2026-08-18T08:22:47.000Z</time>
      </trkpt>
      <trkpt lat="22.885595" lon="111.301692">
        <ele>212.137749</ele>
        <time>2026-08-18T08:22:48.000Z</time>
      </trkpt>
      <trkpt lat="22.885561" lon="111.301704">
        <ele>212.204539</ele>
        <time>2026-08-18T08:22:49.000Z</time>
      </trkpt>
      <trkpt lat="22.885528" lon="111.301716">
        <ele>212.269555</ele>
        <time>2026-08-18T08:22:50.000Z</time>
      </trkpt>
      <trkpt lat="22.885493" lon="111.301730">
        <ele>212.339238</ele>
        <time>2026-08-18T08:22:51.000Z</time>
      </trkpt>
      <trkpt lat="22.885459" lon="111.301742">
        <ele>212.406028</ele>
        <time>2026-08-18T08:22:52.000Z</time>
      </trkpt>
      <trkpt lat="22.885425" lon="111.301754">
        <ele>212.472818</ele>
        <time>2026-08-18T08:22:53.000Z</time>
      </trkpt>
      <trkpt lat="22.885391" lon="111.301765">
        <ele>212.539096</ele>
        <time>2026-08-18T08:22:54.000Z</time>
      </trkpt>
      <trkpt lat="22.885359" lon="111.301779">
        <ele>212.603549</ele>
        <time>2026-08-18T08:22:55.000Z</time>
      </trkpt>
      <trkpt lat="22.885326" lon="111.301792">
        <ele>212.669132</ele>
        <time>2026-08-18T08:22:56.000Z</time>
      </trkpt>
      <trkpt lat="22.885295" lon="111.301804">
        <ele>212.730616</ele>
        <time>2026-08-18T08:22:57.000Z</time>
      </trkpt>
      <trkpt lat="22.885263" lon="111.301816">
        <ele>212.793864</ele>
        <time>2026-08-18T08:22:58.000Z</time>
      </trkpt>
      <trkpt lat="22.885232" lon="111.301828">
        <ele>212.855348</ele>
        <time>2026-08-18T08:22:59.000Z</time>
      </trkpt>
      <trkpt lat="22.885200" lon="111.301840">
        <ele>212.918596</ele>
        <time>2026-08-18T08:23:00.000Z</time>
      </trkpt>
      <trkpt lat="22.885170" lon="111.301854">
        <ele>212.979600</ele>
        <time>2026-08-18T08:23:01.000Z</time>
      </trkpt>
      <trkpt lat="22.885141" lon="111.301870">
        <ele>213.068761</ele>
        <time>2026-08-18T08:23:02.000Z</time>
      </trkpt>
      <trkpt lat="22.885112" lon="111.301887">
        <ele>213.159564</ele>
        <time>2026-08-18T08:23:03.000Z</time>
      </trkpt>
      <trkpt lat="22.885083" lon="111.301904">
        <ele>213.250367</ele>
        <time>2026-08-18T08:23:04.000Z</time>
      </trkpt>
      <trkpt lat="22.885055" lon="111.301920">
        <ele>213.337544</ele>
        <time>2026-08-18T08:23:05.000Z</time>
      </trkpt>
      <trkpt lat="22.885026" lon="111.301936">
        <ele>213.427169</ele>
        <time>2026-08-18T08:23:06.000Z</time>
      </trkpt>
      <trkpt lat="22.884998" lon="111.301955">
        <ele>213.518144</ele>
        <time>2026-08-18T08:23:07.000Z</time>
      </trkpt>
      <trkpt lat="22.884973" lon="111.301976">
        <ele>213.605235</ele>
        <time>2026-08-18T08:23:08.000Z</time>
      </trkpt>
      <trkpt lat="22.884948" lon="111.301996">
        <ele>213.690797</ele>
        <time>2026-08-18T08:23:09.000Z</time>
      </trkpt>
      <trkpt lat="22.884924" lon="111.302019">
        <ele>213.779001</ele>
        <time>2026-08-18T08:23:10.000Z</time>
      </trkpt>
      <trkpt lat="22.884901" lon="111.302042">
        <ele>213.865159</ele>
        <time>2026-08-18T08:23:11.000Z</time>
      </trkpt>
      <trkpt lat="22.884878" lon="111.302067">
        <ele>213.954834</ele>
        <time>2026-08-18T08:23:12.000Z</time>
      </trkpt>
      <trkpt lat="22.884859" lon="111.302091">
        <ele>214.035151</ele>
        <time>2026-08-18T08:23:13.000Z</time>
      </trkpt>
      <trkpt lat="22.884840" lon="111.302117">
        <ele>214.119384</ele>
        <time>2026-08-18T08:23:14.000Z</time>
      </trkpt>
      <trkpt lat="22.884822" lon="111.302146">
        <ele>214.208137</ele>
        <time>2026-08-18T08:23:15.000Z</time>
      </trkpt>
      <trkpt lat="22.884804" lon="111.302174">
        <ele>214.294798</ele>
        <time>2026-08-18T08:23:16.000Z</time>
      </trkpt>
      <trkpt lat="22.884786" lon="111.302204">
        <ele>214.385668</ele>
        <time>2026-08-18T08:23:17.000Z</time>
      </trkpt>
      <trkpt lat="22.884770" lon="111.302234">
        <ele>214.473652</ele>
        <time>2026-08-18T08:23:18.000Z</time>
      </trkpt>
      <trkpt lat="22.884754" lon="111.302265">
        <ele>214.563841</ele>
        <time>2026-08-18T08:23:19.000Z</time>
      </trkpt>
      <trkpt lat="22.884738" lon="111.302296">
        <ele>214.654031</ele>
        <time>2026-08-18T08:23:20.000Z</time>
      </trkpt>
      <trkpt lat="22.884723" lon="111.302326">
        <ele>214.740668</ele>
        <time>2026-08-18T08:23:21.000Z</time>
      </trkpt>
      <trkpt lat="22.884710" lon="111.302358">
        <ele>214.829436</ele>
        <time>2026-08-18T08:23:22.000Z</time>
      </trkpt>
      <trkpt lat="22.884697" lon="111.302389">
        <ele>214.915887</ele>
        <time>2026-08-18T08:23:23.000Z</time>
      </trkpt>
      <trkpt lat="22.884682" lon="111.302421">
        <ele>215.007018</ele>
        <time>2026-08-18T08:23:24.000Z</time>
      </trkpt>
      <trkpt lat="22.884672" lon="111.302453">
        <ele>215.092785</ele>
        <time>2026-08-18T08:23:25.000Z</time>
      </trkpt>
      <trkpt lat="22.884664" lon="111.302486">
        <ele>215.179396</ele>
        <time>2026-08-18T08:23:26.000Z</time>
      </trkpt>
      <trkpt lat="22.884658" lon="111.302520">
        <ele>215.267263</ele>
        <time>2026-08-18T08:23:27.000Z</time>
      </trkpt>
      <trkpt lat="22.884651" lon="111.302556">
        <ele>215.360650</ele>
        <time>2026-08-18T08:23:28.000Z</time>
      </trkpt>
      <trkpt lat="22.884645" lon="111.302591">
        <ele>215.451011</ele>
        <time>2026-08-18T08:23:29.000Z</time>
      </trkpt>
      <trkpt lat="22.884641" lon="111.302625">
        <ele>215.538010</ele>
        <time>2026-08-18T08:23:30.000Z</time>
      </trkpt>
      <trkpt lat="22.884638" lon="111.302659">
        <ele>215.624703</ele>
        <time>2026-08-18T08:23:31.000Z</time>
      </trkpt>
      <trkpt lat="22.884637" lon="111.302693">
        <ele>215.711046</ele>
        <time>2026-08-18T08:23:32.000Z</time>
      </trkpt>
      <trkpt lat="22.884639" lon="111.302726">
        <ele>215.794987</ele>
        <time>2026-08-18T08:23:33.000Z</time>
      </trkpt>
      <trkpt lat="22.884640" lon="111.302758">
        <ele>215.876255</ele>
        <time>2026-08-18T08:23:34.000Z</time>
      </trkpt>
      <trkpt lat="22.884641" lon="111.302790">
        <ele>215.957524</ele>
        <time>2026-08-18T08:23:35.000Z</time>
      </trkpt>
      <trkpt lat="22.884644" lon="111.302822">
        <ele>216.039165</ele>
        <time>2026-08-18T08:23:36.000Z</time>
      </trkpt>
      <trkpt lat="22.884649" lon="111.302853">
        <ele>216.119045</ele>
        <time>2026-08-18T08:23:37.000Z</time>
      </trkpt>
      <trkpt lat="22.884652" lon="111.302884">
        <ele>216.198162</ele>
        <time>2026-08-18T08:23:38.000Z</time>
      </trkpt>
      <trkpt lat="22.884656" lon="111.302914">
        <ele>216.275100</ele>
        <time>2026-08-18T08:23:39.000Z</time>
      </trkpt>
      <trkpt lat="22.884661" lon="111.302944">
        <ele>216.352482</ele>
        <time>2026-08-18T08:23:40.000Z</time>
      </trkpt>
      <trkpt lat="22.884665" lon="111.302973">
        <ele>216.426909</ele>
        <time>2026-08-18T08:23:41.000Z</time>
      </trkpt>
      <trkpt lat="22.884671" lon="111.303003">
        <ele>216.504828</ele>
        <time>2026-08-18T08:23:42.000Z</time>
      </trkpt>
      <trkpt lat="22.884679" lon="111.303033">
        <ele>216.584099</ele>
        <time>2026-08-18T08:23:43.000Z</time>
      </trkpt>
      <trkpt lat="22.884688" lon="111.303061">
        <ele>216.659370</ele>
        <time>2026-08-18T08:23:44.000Z</time>
      </trkpt>
      <trkpt lat="22.884696" lon="111.303090">
        <ele>216.736206</ele>
        <time>2026-08-18T08:23:45.000Z</time>
      </trkpt>
      <trkpt lat="22.884704" lon="111.303120">
        <ele>216.815477</ele>
        <time>2026-08-18T08:23:46.000Z</time>
      </trkpt>
      <trkpt lat="22.884713" lon="111.303149">
        <ele>216.893148</ele>
        <time>2026-08-18T08:23:47.000Z</time>
      </trkpt>
      <trkpt lat="22.884723" lon="111.303178">
        <ele>216.971742</ele>
        <time>2026-08-18T08:23:48.000Z</time>
      </trkpt>
      <trkpt lat="22.884732" lon="111.303207">
        <ele>217.049413</ele>
        <time>2026-08-18T08:23:49.000Z</time>
      </trkpt>
      <trkpt lat="22.884742" lon="111.303236">
        <ele>217.128007</ele>
        <time>2026-08-18T08:23:50.000Z</time>
      </trkpt>
      <trkpt lat="22.884752" lon="111.303266">
        <ele>217.208984</ele>
        <time>2026-08-18T08:23:51.000Z</time>
      </trkpt>
      <trkpt lat="22.884759" lon="111.303297">
        <ele>217.289996</ele>
        <time>2026-08-18T08:23:52.000Z</time>
      </trkpt>
      <trkpt lat="22.884767" lon="111.303329">
        <ele>217.374155</ele>
        <time>2026-08-18T08:23:53.000Z</time>
      </trkpt>
      <trkpt lat="22.884775" lon="111.303361">
        <ele>217.458314</ele>
        <time>2026-08-18T08:23:54.000Z</time>
      </trkpt>
      <trkpt lat="22.884783" lon="111.303395">
        <ele>217.547382</ele>
        <time>2026-08-18T08:23:55.000Z</time>
      </trkpt>
      <trkpt lat="22.884790" lon="111.303426">
        <ele>217.628395</ele>
        <time>2026-08-18T08:23:56.000Z</time>
      </trkpt>
      <trkpt lat="22.884795" lon="111.303458">
        <ele>217.710776</ele>
        <time>2026-08-18T08:23:57.000Z</time>
      </trkpt>
      <trkpt lat="22.884803" lon="111.303489">
        <ele>217.792488</ele>
        <time>2026-08-18T08:23:58.000Z</time>
      </trkpt>
      <trkpt lat="22.884811" lon="111.303521">
        <ele>217.876647</ele>
        <time>2026-08-18T08:23:59.000Z</time>
      </trkpt>
      <trkpt lat="22.884817" lon="111.303553">
        <ele>217.968226</ele>
        <time>2026-08-18T08:24:00.000Z</time>
      </trkpt>
      <trkpt lat="22.884824" lon="111.303584">
        <ele>218.079021</ele>
        <time>2026-08-18T08:24:01.000Z</time>
      </trkpt>
      <trkpt lat="22.884828" lon="111.303616">
        <ele>218.191121</ele>
        <time>2026-08-18T08:24:02.000Z</time>
      </trkpt>
      <trkpt lat="22.884832" lon="111.303648">
        <ele>218.303221</ele>
        <time>2026-08-18T08:24:03.000Z</time>
      </trkpt>
      <trkpt lat="22.884836" lon="111.303677">
        <ele>218.405011</ele>
        <time>2026-08-18T08:24:04.000Z</time>
      </trkpt>
      <trkpt lat="22.884837" lon="111.303708">
        <ele>218.512688</ele>
        <time>2026-08-18T08:24:05.000Z</time>
      </trkpt>
      <trkpt lat="22.884837" lon="111.303741">
        <ele>218.627241</ele>
        <time>2026-08-18T08:24:06.000Z</time>
      </trkpt>
      <trkpt lat="22.884838" lon="111.303771">
        <ele>218.731449</ele>
        <time>2026-08-18T08:24:07.000Z</time>
      </trkpt>
      <trkpt lat="22.884837" lon="111.303801">
        <ele>218.835656</ele>
        <time>2026-08-18T08:24:08.000Z</time>
      </trkpt>
      <trkpt lat="22.884835" lon="111.303830">
        <ele>218.936606</ele>
        <time>2026-08-18T08:24:09.000Z</time>
      </trkpt>
      <trkpt lat="22.884832" lon="111.303857">
        <ele>219.031011</ele>
        <time>2026-08-18T08:24:10.000Z</time>
      </trkpt>
      <trkpt lat="22.884830" lon="111.303884">
        <ele>219.125039</ele>
        <time>2026-08-18T08:24:11.000Z</time>
      </trkpt>
      <trkpt lat="22.884825" lon="111.303915">
        <ele>219.234286</ele>
        <time>2026-08-18T08:24:12.000Z</time>
      </trkpt>
      <trkpt lat="22.884820" lon="111.303943">
        <ele>219.333292</ele>
        <time>2026-08-18T08:24:13.000Z</time>
      </trkpt>
      <trkpt lat="22.884814" lon="111.303972">
        <ele>219.436467</ele>
        <time>2026-08-18T08:24:14.000Z</time>
      </trkpt>
      <trkpt lat="22.884805" lon="111.304000">
        <ele>219.539410</ele>
        <time>2026-08-18T08:24:15.000Z</time>
      </trkpt>
      <trkpt lat="22.884800" lon="111.304032">
        <ele>219.652078</ele>
        <time>2026-08-18T08:24:16.000Z</time>
      </trkpt>
      <trkpt lat="22.884795" lon="111.304063">
        <ele>219.761326</ele>
        <time>2026-08-18T08:24:17.000Z</time>
      </trkpt>
      <trkpt lat="22.884787" lon="111.304092">
        <ele>219.866410</ele>
        <time>2026-08-18T08:24:18.000Z</time>
      </trkpt>
      <trkpt lat="22.884778" lon="111.304120">
        <ele>219.969352</ele>
        <time>2026-08-18T08:24:19.000Z</time>
      </trkpt>
      <trkpt lat="22.884769" lon="111.304148">
        <ele>220.072295</ele>
        <time>2026-08-18T08:24:20.000Z</time>
      </trkpt>
      <trkpt lat="22.884758" lon="111.304176">
        <ele>220.177960</ele>
        <time>2026-08-18T08:24:21.000Z</time>
      </trkpt>
      <trkpt lat="22.884745" lon="111.304203">
        <ele>220.283713</ele>
        <time>2026-08-18T08:24:22.000Z</time>
      </trkpt>
      <trkpt lat="22.884734" lon="111.304229">
        <ele>220.383029</ele>
        <time>2026-08-18T08:24:23.000Z</time>
      </trkpt>
      <trkpt lat="22.884720" lon="111.304255">
        <ele>220.487568</ele>
        <time>2026-08-18T08:24:24.000Z</time>
      </trkpt>
      <trkpt lat="22.884702" lon="111.304283">
        <ele>220.606089</ele>
        <time>2026-08-18T08:24:25.000Z</time>
      </trkpt>
      <trkpt lat="22.884684" lon="111.304312">
        <ele>220.727472</ele>
        <time>2026-08-18T08:24:26.000Z</time>
      </trkpt>
      <trkpt lat="22.884671" lon="111.304339">
        <ele>220.833225</ele>
        <time>2026-08-18T08:24:27.000Z</time>
      </trkpt>
      <trkpt lat="22.884653" lon="111.304360">
        <ele>220.932794</ele>
        <time>2026-08-18T08:24:28.000Z</time>
      </trkpt>
      <trkpt lat="22.884636" lon="111.304381">
        <ele>221.029835</ele>
        <time>2026-08-18T08:24:29.000Z</time>
      </trkpt>
      <trkpt lat="22.884617" lon="111.304406">
        <ele>221.142336</ele>
        <time>2026-08-18T08:24:30.000Z</time>
      </trkpt>
      <trkpt lat="22.884602" lon="111.304430">
        <ele>221.243009</ele>
        <time>2026-08-18T08:24:31.000Z</time>
      </trkpt>
      <trkpt lat="22.884583" lon="111.304453">
        <ele>221.350246</ele>
        <time>2026-08-18T08:24:32.000Z</time>
      </trkpt>
      <trkpt lat="22.884562" lon="111.304475">
        <ele>221.460214</ele>
        <time>2026-08-18T08:24:33.000Z</time>
      </trkpt>
      <trkpt lat="22.884544" lon="111.304496">
        <ele>221.559783</ele>
        <time>2026-08-18T08:24:34.000Z</time>
      </trkpt>
      <trkpt lat="22.884523" lon="111.304516">
        <ele>221.665049</ele>
        <time>2026-08-18T08:24:35.000Z</time>
      </trkpt>
      <trkpt lat="22.884502" lon="111.304532">
        <ele>221.761722</ele>
        <time>2026-08-18T08:24:36.000Z</time>
      </trkpt>
      <trkpt lat="22.884480" lon="111.304549">
        <ele>221.863476</ele>
        <time>2026-08-18T08:24:37.000Z</time>
      </trkpt>
      <trkpt lat="22.884459" lon="111.304565">
        <ele>221.960149</ele>
        <time>2026-08-18T08:24:38.000Z</time>
      </trkpt>
      <trkpt lat="22.884438" lon="111.304582">
        <ele>222.058857</ele>
        <time>2026-08-18T08:24:39.000Z</time>
      </trkpt>
      <trkpt lat="22.884417" lon="111.304600">
        <ele>222.159679</ele>
        <time>2026-08-18T08:24:40.000Z</time>
      </trkpt>
      <trkpt lat="22.884396" lon="111.304617">
        <ele>222.258388</ele>
        <time>2026-08-18T08:24:41.000Z</time>
      </trkpt>
      <trkpt lat="22.884374" lon="111.304634">
        <ele>222.360142</ele>
        <time>2026-08-18T08:24:42.000Z</time>
      </trkpt>
      <trkpt lat="22.884351" lon="111.304648">
        <ele>222.459500</ele>
        <time>2026-08-18T08:24:43.000Z</time>
      </trkpt>
      <trkpt lat="22.884329" lon="111.304663">
        <ele>222.557391</ele>
        <time>2026-08-18T08:24:44.000Z</time>
      </trkpt>
      <trkpt lat="22.884308" lon="111.304680">
        <ele>222.656099</ele>
        <time>2026-08-18T08:24:45.000Z</time>
      </trkpt>
      <trkpt lat="22.884286" lon="111.304695">
        <ele>222.753990</ele>
        <time>2026-08-18T08:24:46.000Z</time>
      </trkpt>
      <trkpt lat="22.884263" lon="111.304707">
        <ele>222.850143</ele>
        <time>2026-08-18T08:24:47.000Z</time>
      </trkpt>
      <trkpt lat="22.884241" lon="111.304721">
        <ele>222.946232</ele>
        <time>2026-08-18T08:24:48.000Z</time>
      </trkpt>
      <trkpt lat="22.884219" lon="111.304735">
        <ele>223.042322</ele>
        <time>2026-08-18T08:24:49.000Z</time>
      </trkpt>
      <trkpt lat="22.884199" lon="111.304748">
        <ele>223.130159</ele>
        <time>2026-08-18T08:24:50.000Z</time>
      </trkpt>
      <trkpt lat="22.884180" lon="111.304762">
        <ele>223.216686</ele>
        <time>2026-08-18T08:24:51.000Z</time>
      </trkpt>
      <trkpt lat="22.884162" lon="111.304776">
        <ele>223.300122</ele>
        <time>2026-08-18T08:24:52.000Z</time>
      </trkpt>
      <trkpt lat="22.884143" lon="111.304789">
        <ele>223.384748</ele>
        <time>2026-08-18T08:24:53.000Z</time>
      </trkpt>
      <trkpt lat="22.884125" lon="111.304802">
        <ele>223.466212</ele>
        <time>2026-08-18T08:24:54.000Z</time>
      </trkpt>
      <trkpt lat="22.884109" lon="111.304816">
        <ele>223.543647</ele>
        <time>2026-08-18T08:24:55.000Z</time>
      </trkpt>
      <trkpt lat="22.884090" lon="111.304828">
        <ele>223.626475</ele>
        <time>2026-08-18T08:24:56.000Z</time>
      </trkpt>
      <trkpt lat="22.884071" lon="111.304841">
        <ele>223.711101</ele>
        <time>2026-08-18T08:24:57.000Z</time>
      </trkpt>
      <trkpt lat="22.884054" lon="111.304850">
        <ele>223.782368</ele>
        <time>2026-08-18T08:24:58.000Z</time>
      </trkpt>
      <trkpt lat="22.884035" lon="111.304862">
        <ele>223.865195</ele>
        <time>2026-08-18T08:24:59.000Z</time>
      </trkpt>
      <trkpt lat="22.884017" lon="111.304875">
        <ele>223.946659</ele>
        <time>2026-08-18T08:25:00.000Z</time>
      </trkpt>
      <trkpt lat="22.883999" lon="111.304888">
        <ele>224.028122</ele>
        <time>2026-08-18T08:25:01.000Z</time>
      </trkpt>
      <trkpt lat="22.883979" lon="111.304903">
        <ele>224.119719</ele>
        <time>2026-08-18T08:25:02.000Z</time>
      </trkpt>
      <trkpt lat="22.883960" lon="111.304919">
        <ele>224.210328</ele>
        <time>2026-08-18T08:25:03.000Z</time>
      </trkpt>
      <trkpt lat="22.883941" lon="111.304935">
        <ele>224.300937</ele>
        <time>2026-08-18T08:25:04.000Z</time>
      </trkpt>
      <trkpt lat="22.883921" lon="111.304952">
        <ele>224.396652</ele>
        <time>2026-08-18T08:25:05.000Z</time>
      </trkpt>
      <trkpt lat="22.883902" lon="111.304970">
        <ele>224.491675</ele>
        <time>2026-08-18T08:25:06.000Z</time>
      </trkpt>
      <trkpt lat="22.883881" lon="111.304988">
        <ele>224.592497</ele>
        <time>2026-08-18T08:25:07.000Z</time>
      </trkpt>
      <trkpt lat="22.883859" lon="111.305008">
        <ele>224.700624</ele>
        <time>2026-08-18T08:25:08.000Z</time>
      </trkpt>
      <trkpt lat="22.883834" lon="111.305027">
        <ele>224.806453</ele>
        <time>2026-08-18T08:25:09.000Z</time>
      </trkpt>
      <trkpt lat="22.883811" lon="111.305048">
        <ele>224.909587</ele>
        <time>2026-08-18T08:25:10.000Z</time>
      </trkpt>
      <trkpt lat="22.883789" lon="111.305070">
        <ele>225.012235</ele>
        <time>2026-08-18T08:25:11.000Z</time>
      </trkpt>
      <trkpt lat="22.883767" lon="111.305094">
        <ele>225.119267</ele>
        <time>2026-08-18T08:25:12.000Z</time>
      </trkpt>
      <trkpt lat="22.883746" lon="111.305117">
        <ele>225.221639</ele>
        <time>2026-08-18T08:25:13.000Z</time>
      </trkpt>
      <trkpt lat="22.883727" lon="111.305141">
        <ele>225.321677</ele>
        <time>2026-08-18T08:25:14.000Z</time>
      </trkpt>
      <trkpt lat="22.883711" lon="111.305167">
        <ele>225.420524</ele>
        <time>2026-08-18T08:25:15.000Z</time>
      </trkpt>
      <trkpt lat="22.883694" lon="111.305193">
        <ele>225.521318</ele>
        <time>2026-08-18T08:25:16.000Z</time>
      </trkpt>
      <trkpt lat="22.883676" lon="111.305221">
        <ele>225.629257</ele>
        <time>2026-08-18T08:25:17.000Z</time>
      </trkpt>
      <trkpt lat="22.883658" lon="111.305247">
        <ele>225.732074</ele>
        <time>2026-08-18T08:25:18.000Z</time>
      </trkpt>
      <trkpt lat="22.883639" lon="111.305276">
        <ele>225.844574</ele>
        <time>2026-08-18T08:25:19.000Z</time>
      </trkpt>
      <trkpt lat="22.883621" lon="111.305303">
        <ele>225.949936</ele>
        <time>2026-08-18T08:25:20.000Z</time>
      </trkpt>
      <trkpt lat="22.883604" lon="111.305331">
        <ele>226.055949</ele>
        <time>2026-08-18T08:25:21.000Z</time>
      </trkpt>
      <trkpt lat="22.883587" lon="111.305357">
        <ele>226.156742</ele>
        <time>2026-08-18T08:25:22.000Z</time>
      </trkpt>
      <trkpt lat="22.883570" lon="111.305385">
        <ele>226.262755</ele>
        <time>2026-08-18T08:25:23.000Z</time>
      </trkpt>
      <trkpt lat="22.883553" lon="111.305410">
        <ele>226.360988</ele>
        <time>2026-08-18T08:25:24.000Z</time>
      </trkpt>
      <trkpt lat="22.883537" lon="111.305437">
        <ele>226.462479</ele>
        <time>2026-08-18T08:25:25.000Z</time>
      </trkpt>
      <trkpt lat="22.883522" lon="111.305465">
        <ele>226.564876</ele>
        <time>2026-08-18T08:25:26.000Z</time>
      </trkpt>
      <trkpt lat="22.883507" lon="111.305493">
        <ele>226.667273</ele>
        <time>2026-08-18T08:25:27.000Z</time>
      </trkpt>
      <trkpt lat="22.883492" lon="111.305521">
        <ele>226.769670</ele>
        <time>2026-08-18T08:25:28.000Z</time>
      </trkpt>
      <trkpt lat="22.883477" lon="111.305550">
        <ele>226.874812</ele>
        <time>2026-08-18T08:25:29.000Z</time>
      </trkpt>
      <trkpt lat="22.883465" lon="111.305580">
        <ele>226.978208</ele>
        <time>2026-08-18T08:25:30.000Z</time>
      </trkpt>
      <trkpt lat="22.883451" lon="111.305611">
        <ele>227.087353</ele>
        <time>2026-08-18T08:25:31.000Z</time>
      </trkpt>
      <trkpt lat="22.883439" lon="111.305642">
        <ele>227.193657</ele>
        <time>2026-08-18T08:25:32.000Z</time>
      </trkpt>
      <trkpt lat="22.883429" lon="111.305672">
        <ele>227.294516</ele>
        <time>2026-08-18T08:25:33.000Z</time>
      </trkpt>
      <trkpt lat="22.883419" lon="111.305702">
        <ele>227.395375</ele>
        <time>2026-08-18T08:25:34.000Z</time>
      </trkpt>
      <trkpt lat="22.883410" lon="111.305731">
        <ele>227.492119</ele>
        <time>2026-08-18T08:25:35.000Z</time>
      </trkpt>
      <trkpt lat="22.883402" lon="111.305758">
        <ele>227.581783</ele>
        <time>2026-08-18T08:25:36.000Z</time>
      </trkpt>
      <trkpt lat="22.883392" lon="111.305788">
        <ele>227.682642</ele>
        <time>2026-08-18T08:25:37.000Z</time>
      </trkpt>
      <trkpt lat="22.883383" lon="111.305818">
        <ele>227.782386</ele>
        <time>2026-08-18T08:25:38.000Z</time>
      </trkpt>
      <trkpt lat="22.883373" lon="111.305848">
        <ele>227.883246</ele>
        <time>2026-08-18T08:25:39.000Z</time>
      </trkpt>
      <trkpt lat="22.883364" lon="111.305879">
        <ele>227.986001</ele>
        <time>2026-08-18T08:25:40.000Z</time>
      </trkpt>
      <trkpt lat="22.883357" lon="111.305910">
        <ele>228.086906</ele>
        <time>2026-08-18T08:25:41.000Z</time>
      </trkpt>
      <trkpt lat="22.883349" lon="111.305941">
        <ele>228.188682</ele>
        <time>2026-08-18T08:25:42.000Z</time>
      </trkpt>
      <trkpt lat="22.883341" lon="111.305971">
        <ele>228.287418</ele>
        <time>2026-08-18T08:25:43.000Z</time>
      </trkpt>
      <trkpt lat="22.883333" lon="111.306002">
        <ele>228.389194</ele>
        <time>2026-08-18T08:25:44.000Z</time>
      </trkpt>
      <trkpt lat="22.883324" lon="111.306032">
        <ele>228.488938</ele>
        <time>2026-08-18T08:25:45.000Z</time>
      </trkpt>
      <trkpt lat="22.883315" lon="111.306064">
        <ele>228.594713</ele>
        <time>2026-08-18T08:25:46.000Z</time>
      </trkpt>
      <trkpt lat="22.883307" lon="111.306096">
        <ele>228.699537</ele>
        <time>2026-08-18T08:25:47.000Z</time>
      </trkpt>
      <trkpt lat="22.883297" lon="111.306129">
        <ele>228.809362</ele>
        <time>2026-08-18T08:25:48.000Z</time>
      </trkpt>
      <trkpt lat="22.883292" lon="111.306161">
        <ele>228.911973</ele>
        <time>2026-08-18T08:25:49.000Z</time>
      </trkpt>
      <trkpt lat="22.883285" lon="111.306194">
        <ele>229.019029</ele>
        <time>2026-08-18T08:25:50.000Z</time>
      </trkpt>
      <trkpt lat="22.883278" lon="111.306227">
        <ele>229.126086</ele>
        <time>2026-08-18T08:25:51.000Z</time>
      </trkpt>
      <trkpt lat="22.883271" lon="111.306259">
        <ele>229.230064</ele>
        <time>2026-08-18T08:25:52.000Z</time>
      </trkpt>
      <trkpt lat="22.883263" lon="111.306290">
        <ele>229.331840</ele>
        <time>2026-08-18T08:25:53.000Z</time>
      </trkpt>
      <trkpt lat="22.883255" lon="111.306319">
        <ele>229.427543</ele>
        <time>2026-08-18T08:25:54.000Z</time>
      </trkpt>
      <trkpt lat="22.883247" lon="111.306348">
        <ele>229.523246</ele>
        <time>2026-08-18T08:25:55.000Z</time>
      </trkpt>
      <trkpt lat="22.883239" lon="111.306377">
        <ele>229.618949</ele>
        <time>2026-08-18T08:25:56.000Z</time>
      </trkpt>
      <trkpt lat="22.883230" lon="111.306407">
        <ele>229.718694</ele>
        <time>2026-08-18T08:25:57.000Z</time>
      </trkpt>
      <trkpt lat="22.883222" lon="111.306438">
        <ele>229.820470</ele>
        <time>2026-08-18T08:25:58.000Z</time>
      </trkpt>
      <trkpt lat="22.883213" lon="111.306467">
        <ele>229.917213</ele>
        <time>2026-08-18T08:25:59.000Z</time>
      </trkpt>
      <trkpt lat="22.883203" lon="111.306495">
        <ele>230.012151</ele>
        <time>2026-08-18T08:26:00.000Z</time>
      </trkpt>
      <trkpt lat="22.883193" lon="111.306522">
        <ele>230.104149</ele>
        <time>2026-08-18T08:26:01.000Z</time>
      </trkpt>
      <trkpt lat="22.883187" lon="111.306553">
        <ele>230.204293</ele>
        <time>2026-08-18T08:26:02.000Z</time>
      </trkpt>
      <trkpt lat="22.883180" lon="111.306584">
        <ele>230.305198</ele>
        <time>2026-08-18T08:26:03.000Z</time>
      </trkpt>
      <trkpt lat="22.883176" lon="111.306617">
        <ele>230.410424</ele>
        <time>2026-08-18T08:26:04.000Z</time>
      </trkpt>
      <trkpt lat="22.883172" lon="111.306649">
        <ele>230.512516</ele>
        <time>2026-08-18T08:26:05.000Z</time>
      </trkpt>
      <trkpt lat="22.883167" lon="111.306679">
        <ele>230.608899</ele>
        <time>2026-08-18T08:26:06.000Z</time>
      </trkpt>
      <trkpt lat="22.883164" lon="111.306707">
        <ele>230.698015</ele>
        <time>2026-08-18T08:26:07.000Z</time>
      </trkpt>
      <trkpt lat="22.883159" lon="111.306734">
        <ele>230.785081</ele>
        <time>2026-08-18T08:26:08.000Z</time>
      </trkpt>
      <trkpt lat="22.883153" lon="111.306763">
        <ele>230.879046</ele>
        <time>2026-08-18T08:26:09.000Z</time>
      </trkpt>
      <trkpt lat="22.883147" lon="111.306792">
        <ele>230.971961</ele>
        <time>2026-08-18T08:26:10.000Z</time>
      </trkpt>
      <trkpt lat="22.883139" lon="111.306821">
        <ele>231.066524</ele>
        <time>2026-08-18T08:26:11.000Z</time>
      </trkpt>
      <trkpt lat="22.883132" lon="111.306849">
        <ele>231.157151</ele>
        <time>2026-08-18T08:26:12.000Z</time>
      </trkpt>
      <trkpt lat="22.883125" lon="111.306876">
        <ele>231.244768</ele>
        <time>2026-08-18T08:26:13.000Z</time>
      </trkpt>
      <trkpt lat="22.883121" lon="111.306904">
        <ele>231.333278</ele>
        <time>2026-08-18T08:26:14.000Z</time>
      </trkpt>
      <trkpt lat="22.883116" lon="111.306934">
        <ele>231.428512</ele>
        <time>2026-08-18T08:26:15.000Z</time>
      </trkpt>
      <trkpt lat="22.883111" lon="111.306964">
        <ele>231.523745</ele>
        <time>2026-08-18T08:26:16.000Z</time>
      </trkpt>
      <trkpt lat="22.883105" lon="111.306994">
        <ele>231.619640</ele>
        <time>2026-08-18T08:26:17.000Z</time>
      </trkpt>
      <trkpt lat="22.883099" lon="111.307024">
        <ele>231.715535</ele>
        <time>2026-08-18T08:26:18.000Z</time>
      </trkpt>
      <trkpt lat="22.883091" lon="111.307053">
        <ele>231.810097</ele>
        <time>2026-08-18T08:26:19.000Z</time>
      </trkpt>
      <trkpt lat="22.883087" lon="111.307086">
        <ele>231.914069</ele>
        <time>2026-08-18T08:26:20.000Z</time>
      </trkpt>
      <trkpt lat="22.883080" lon="111.307121">
        <ele>232.025946</ele>
        <time>2026-08-18T08:26:21.000Z</time>
      </trkpt>
      <trkpt lat="22.883072" lon="111.307155">
        <ele>232.135563</ele>
        <time>2026-08-18T08:26:22.000Z</time>
      </trkpt>
      <trkpt lat="22.883066" lon="111.307185">
        <ele>232.231458</ele>
        <time>2026-08-18T08:26:23.000Z</time>
      </trkpt>
      <trkpt lat="22.883054" lon="111.307214">
        <ele>232.330764</ele>
        <time>2026-08-18T08:26:24.000Z</time>
      </trkpt>
      <trkpt lat="22.883051" lon="111.307245">
        <ele>232.428133</ele>
        <time>2026-08-18T08:26:25.000Z</time>
      </trkpt>
      <trkpt lat="22.883047" lon="111.307277">
        <ele>232.529008</ele>
        <time>2026-08-18T08:26:26.000Z</time>
      </trkpt>
      <trkpt lat="22.883042" lon="111.307309">
        <ele>232.630395</ele>
        <time>2026-08-18T08:26:27.000Z</time>
      </trkpt>
      <trkpt lat="22.883032" lon="111.307339">
        <ele>232.730053</ele>
        <time>2026-08-18T08:26:28.000Z</time>
      </trkpt>
      <trkpt lat="22.883025" lon="111.307368">
        <ele>232.823699</ele>
        <time>2026-08-18T08:26:29.000Z</time>
      </trkpt>
      <trkpt lat="22.883023" lon="111.307396">
        <ele>232.911426</ele>
        <time>2026-08-18T08:26:30.000Z</time>
      </trkpt>
      <trkpt lat="22.883021" lon="111.307427">
        <ele>233.008499</ele>
        <time>2026-08-18T08:26:31.000Z</time>
      </trkpt>
      <trkpt lat="22.883015" lon="111.307458">
        <ele>233.107449</ele>
        <time>2026-08-18T08:26:32.000Z</time>
      </trkpt>
      <trkpt lat="22.883009" lon="111.307489">
        <ele>233.206399</ele>
        <time>2026-08-18T08:26:33.000Z</time>
      </trkpt>
      <trkpt lat="22.882999" lon="111.307515">
        <ele>233.294410</ele>
        <time>2026-08-18T08:26:34.000Z</time>
      </trkpt>
      <trkpt lat="22.882993" lon="111.307545">
        <ele>233.390305</ele>
        <time>2026-08-18T08:26:35.000Z</time>
      </trkpt>
      <trkpt lat="22.882985" lon="111.307577">
        <ele>233.493879</ele>
        <time>2026-08-18T08:26:36.000Z</time>
      </trkpt>
      <trkpt lat="22.882977" lon="111.307611">
        <ele>233.603496</ele>
        <time>2026-08-18T08:26:37.000Z</time>
      </trkpt>
      <trkpt lat="22.882969" lon="111.307642">
        <ele>233.704059</ele>
        <time>2026-08-18T08:26:38.000Z</time>
      </trkpt>
      <trkpt lat="22.882963" lon="111.307670">
        <ele>233.793859</ele>
        <time>2026-08-18T08:26:39.000Z</time>
      </trkpt>
      <trkpt lat="22.882957" lon="111.307700">
        <ele>233.889754</ele>
        <time>2026-08-18T08:26:40.000Z</time>
      </trkpt>
      <trkpt lat="22.882950" lon="111.307730">
        <ele>233.986425</ele>
        <time>2026-08-18T08:26:41.000Z</time>
      </trkpt>
      <trkpt lat="22.882942" lon="111.307760">
        <ele>234.083984</ele>
        <time>2026-08-18T08:26:42.000Z</time>
      </trkpt>
      <trkpt lat="22.882935" lon="111.307786">
        <ele>234.168598</ele>
        <time>2026-08-18T08:26:43.000Z</time>
      </trkpt>
      <trkpt lat="22.882927" lon="111.307814">
        <ele>234.260172</ele>
        <time>2026-08-18T08:26:44.000Z</time>
      </trkpt>
      <trkpt lat="22.882919" lon="111.307842">
        <ele>234.351747</ele>
        <time>2026-08-18T08:26:45.000Z</time>
      </trkpt>
      <trkpt lat="22.882912" lon="111.307870">
        <ele>234.442374</ele>
        <time>2026-08-18T08:26:46.000Z</time>
      </trkpt>
      <trkpt lat="22.882904" lon="111.307899">
        <ele>234.536937</ele>
        <time>2026-08-18T08:26:47.000Z</time>
      </trkpt>
      <trkpt lat="22.882898" lon="111.307927">
        <ele>234.626736</ele>
        <time>2026-08-18T08:26:48.000Z</time>
      </trkpt>
      <trkpt lat="22.882889" lon="111.307953">
        <ele>234.713497</ele>
        <time>2026-08-18T08:26:49.000Z</time>
      </trkpt>
      <trkpt lat="22.882881" lon="111.307982">
        <ele>234.808060</ele>
        <time>2026-08-18T08:26:50.000Z</time>
      </trkpt>
      <trkpt lat="22.882874" lon="111.308012">
        <ele>234.904731</ele>
        <time>2026-08-18T08:26:51.000Z</time>
      </trkpt>
      <trkpt lat="22.882869" lon="111.308040">
        <ele>234.993824</ele>
        <time>2026-08-18T08:26:52.000Z</time>
      </trkpt>
      <trkpt lat="22.882864" lon="111.308066">
        <ele>235.076791</ele>
        <time>2026-08-18T08:26:53.000Z</time>
      </trkpt>
      <trkpt lat="22.882855" lon="111.308089">
        <ele>235.154849</ele>
        <time>2026-08-18T08:26:54.000Z</time>
      </trkpt>
      <trkpt lat="22.882850" lon="111.308111">
        <ele>235.225632</ele>
        <time>2026-08-18T08:26:55.000Z</time>
      </trkpt>
      <trkpt lat="22.882845" lon="111.308133">
        <ele>235.296415</ele>
        <time>2026-08-18T08:26:56.000Z</time>
      </trkpt>
      <trkpt lat="22.882840" lon="111.308157">
        <ele>235.373277</ele>
        <time>2026-08-18T08:26:57.000Z</time>
      </trkpt>
      <trkpt lat="22.882836" lon="111.308180">
        <ele>235.446393</ele>
        <time>2026-08-18T08:26:58.000Z</time>
      </trkpt>
      <trkpt lat="22.882833" lon="111.308202">
        <ele>235.515864</ele>
        <time>2026-08-18T08:26:59.000Z</time>
      </trkpt>
      <trkpt lat="22.882828" lon="111.308223">
        <ele>235.583618</ele>
        <time>2026-08-18T08:27:00.000Z</time>
      </trkpt>
      <trkpt lat="22.882822" lon="111.308246">
        <ele>235.658288</ele>
        <time>2026-08-18T08:27:01.000Z</time>
      </trkpt>
      <trkpt lat="22.882817" lon="111.308270">
        <ele>235.735151</ele>
        <time>2026-08-18T08:27:02.000Z</time>
      </trkpt>
      <trkpt lat="22.882813" lon="111.308294">
        <ele>235.811338</ele>
        <time>2026-08-18T08:27:03.000Z</time>
      </trkpt>
      <trkpt lat="22.882809" lon="111.308318">
        <ele>235.887525</ele>
        <time>2026-08-18T08:27:04.000Z</time>
      </trkpt>
      <trkpt lat="22.882803" lon="111.308341">
        <ele>235.962196</ele>
        <time>2026-08-18T08:27:05.000Z</time>
      </trkpt>
      <trkpt lat="22.882799" lon="111.308365">
        <ele>236.038383</ele>
        <time>2026-08-18T08:27:06.000Z</time>
      </trkpt>
      <trkpt lat="22.882795" lon="111.308390">
        <ele>236.117645</ele>
        <time>2026-08-18T08:27:07.000Z</time>
      </trkpt>
      <trkpt lat="22.882792" lon="111.308416">
        <ele>236.199497</ele>
        <time>2026-08-18T08:27:08.000Z</time>
      </trkpt>
      <trkpt lat="22.882787" lon="111.308441">
        <ele>236.279410</ele>
        <time>2026-08-18T08:27:09.000Z</time>
      </trkpt>
      <trkpt lat="22.882782" lon="111.308467">
        <ele>236.362378</ele>
        <time>2026-08-18T08:27:10.000Z</time>
      </trkpt>
      <trkpt lat="22.882777" lon="111.308495">
        <ele>236.451471</ele>
        <time>2026-08-18T08:27:11.000Z</time>
      </trkpt>
      <trkpt lat="22.882774" lon="111.308523">
        <ele>236.539525</ele>
        <time>2026-08-18T08:27:12.000Z</time>
      </trkpt>
      <trkpt lat="22.882772" lon="111.308552">
        <ele>236.630367</ele>
        <time>2026-08-18T08:27:13.000Z</time>
      </trkpt>
      <trkpt lat="22.882768" lon="111.308580">
        <ele>236.718877</ele>
        <time>2026-08-18T08:27:14.000Z</time>
      </trkpt>
      <trkpt lat="22.882765" lon="111.308607">
        <ele>236.803830</ele>
        <time>2026-08-18T08:27:15.000Z</time>
      </trkpt>
      <trkpt lat="22.882763" lon="111.308635">
        <ele>236.891557</ele>
        <time>2026-08-18T08:27:16.000Z</time>
      </trkpt>
      <trkpt lat="22.882762" lon="111.308663">
        <ele>236.979088</ele>
        <time>2026-08-18T08:27:17.000Z</time>
      </trkpt>
      <trkpt lat="22.882760" lon="111.308693">
        <ele>237.019673</ele>
        <time>2026-08-18T08:27:18.000Z</time>
      </trkpt>
      <trkpt lat="22.882759" lon="111.308722">
        <ele>237.056327</ele>
        <time>2026-08-18T08:27:19.000Z</time>
      </trkpt>
      <trkpt lat="22.882757" lon="111.308752">
        <ele>237.094316</ele>
        <time>2026-08-18T08:27:20.000Z</time>
      </trkpt>
      <trkpt lat="22.882756" lon="111.308783">
        <ele>237.133494</ele>
        <time>2026-08-18T08:27:21.000Z</time>
      </trkpt>
      <trkpt lat="22.882756" lon="111.308812">
        <ele>237.170121</ele>
        <time>2026-08-18T08:27:22.000Z</time>
      </trkpt>
      <trkpt lat="22.882756" lon="111.308841">
        <ele>237.206749</ele>
        <time>2026-08-18T08:27:23.000Z</time>
      </trkpt>
      <trkpt lat="22.882757" lon="111.308872">
        <ele>237.245926</ele>
        <time>2026-08-18T08:27:24.000Z</time>
      </trkpt>
      <trkpt lat="22.882758" lon="111.308905">
        <ele>237.287628</ele>
        <time>2026-08-18T08:27:25.000Z</time>
      </trkpt>
      <trkpt lat="22.882759" lon="111.308939">
        <ele>237.330593</ele>
        <time>2026-08-18T08:27:26.000Z</time>
      </trkpt>
      <trkpt lat="22.882761" lon="111.308973">
        <ele>237.373623</ele>
        <time>2026-08-18T08:27:27.000Z</time>
      </trkpt>
      <trkpt lat="22.882763" lon="111.309006">
        <ele>237.415393</ele>
        <time>2026-08-18T08:27:28.000Z</time>
      </trkpt>
      <trkpt lat="22.882766" lon="111.309040">
        <ele>237.458532</ele>
        <time>2026-08-18T08:27:29.000Z</time>
      </trkpt>
      <trkpt lat="22.882770" lon="111.309075">
        <ele>237.503076</ele>
        <time>2026-08-18T08:27:30.000Z</time>
      </trkpt>
      <trkpt lat="22.882774" lon="111.309110">
        <ele>237.547621</ele>
        <time>2026-08-18T08:27:31.000Z</time>
      </trkpt>
      <trkpt lat="22.882777" lon="111.309142">
        <ele>237.588246</ele>
        <time>2026-08-18T08:27:32.000Z</time>
      </trkpt>
      <trkpt lat="22.882781" lon="111.309176">
        <ele>237.631537</ele>
        <time>2026-08-18T08:27:33.000Z</time>
      </trkpt>
      <trkpt lat="22.882782" lon="111.309215">
        <ele>237.680814</ele>
        <time>2026-08-18T08:27:34.000Z</time>
      </trkpt>
      <trkpt lat="22.882783" lon="111.309253">
        <ele>237.728828</ele>
        <time>2026-08-18T08:27:35.000Z</time>
      </trkpt>
      <trkpt lat="22.882785" lon="111.309290">
        <ele>237.775640</ele>
        <time>2026-08-18T08:27:36.000Z</time>
      </trkpt>
      <trkpt lat="22.882787" lon="111.309329">
        <ele>237.824974</ele>
        <time>2026-08-18T08:27:37.000Z</time>
      </trkpt>
      <trkpt lat="22.882790" lon="111.309365">
        <ele>237.870628</ele>
        <time>2026-08-18T08:27:38.000Z</time>
      </trkpt>
      <trkpt lat="22.882792" lon="111.309403">
        <ele>237.918701</ele>
        <time>2026-08-18T08:27:39.000Z</time>
      </trkpt>
      <trkpt lat="22.882795" lon="111.309441">
        <ele>237.966872</ele>
        <time>2026-08-18T08:27:40.000Z</time>
      </trkpt>
      <trkpt lat="22.882798" lon="111.309480">
        <ele>238.016301</ele>
        <time>2026-08-18T08:27:41.000Z</time>
      </trkpt>
      <trkpt lat="22.882801" lon="111.309519">
        <ele>238.065730</ele>
        <time>2026-08-18T08:27:42.000Z</time>
      </trkpt>
      <trkpt lat="22.882804" lon="111.309559">
        <ele>238.116418</ele>
        <time>2026-08-18T08:27:43.000Z</time>
      </trkpt>
      <trkpt lat="22.882806" lon="111.309599">
        <ele>238.167013</ele>
        <time>2026-08-18T08:27:44.000Z</time>
      </trkpt>
      <trkpt lat="22.882808" lon="111.309641">
        <ele>238.220130</ele>
        <time>2026-08-18T08:27:45.000Z</time>
      </trkpt>
      <trkpt lat="22.882811" lon="111.309683">
        <ele>238.273336</ele>
        <time>2026-08-18T08:27:46.000Z</time>
      </trkpt>
      <trkpt lat="22.882814" lon="111.309725">
        <ele>238.326542</ele>
        <time>2026-08-18T08:27:47.000Z</time>
      </trkpt>
      <trkpt lat="22.882814" lon="111.309768">
        <ele>238.380852</ele>
        <time>2026-08-18T08:27:48.000Z</time>
      </trkpt>
      <trkpt lat="22.882818" lon="111.309808">
        <ele>238.431669</ele>
        <time>2026-08-18T08:27:49.000Z</time>
      </trkpt>
      <trkpt lat="22.882822" lon="111.309848">
        <ele>238.482487</ele>
        <time>2026-08-18T08:27:50.000Z</time>
      </trkpt>
      <trkpt lat="22.882825" lon="111.309889">
        <ele>238.534434</ele>
        <time>2026-08-18T08:27:51.000Z</time>
      </trkpt>
      <trkpt lat="22.882829" lon="111.309930">
        <ele>238.586507</ele>
        <time>2026-08-18T08:27:52.000Z</time>
      </trkpt>
      <trkpt lat="22.882834" lon="111.309971">
        <ele>238.638742</ele>
        <time>2026-08-18T08:27:53.000Z</time>
      </trkpt>
      <trkpt lat="22.882837" lon="111.310011">
        <ele>238.689430</ele>
        <time>2026-08-18T08:27:54.000Z</time>
      </trkpt>
      <trkpt lat="22.882839" lon="111.310053">
        <ele>238.742547</ele>
        <time>2026-08-18T08:27:55.000Z</time>
      </trkpt>
      <trkpt lat="22.882843" lon="111.310094">
        <ele>238.794621</ele>
        <time>2026-08-18T08:27:56.000Z</time>
      </trkpt>
      <trkpt lat="22.882847" lon="111.310135">
        <ele>238.846694</ele>
        <time>2026-08-18T08:27:57.000Z</time>
      </trkpt>
      <trkpt lat="22.882852" lon="111.310177">
        <ele>238.900182</ele>
        <time>2026-08-18T08:27:58.000Z</time>
      </trkpt>
      <trkpt lat="22.882855" lon="111.310220">
        <ele>238.954647</ele>
        <time>2026-08-18T08:27:59.000Z</time>
      </trkpt>
      <trkpt lat="22.882858" lon="111.310263">
        <ele>239.009112</ele>
        <time>2026-08-18T08:28:00.000Z</time>
      </trkpt>
      <trkpt lat="22.882861" lon="111.310304">
        <ele>239.061059</ele>
        <time>2026-08-18T08:28:01.000Z</time>
      </trkpt>
      <trkpt lat="22.882864" lon="111.310345">
        <ele>239.113006</ele>
        <time>2026-08-18T08:28:02.000Z</time>
      </trkpt>
      <trkpt lat="22.882866" lon="111.310384">
        <ele>239.162340</ele>
        <time>2026-08-18T08:28:03.000Z</time>
      </trkpt>
      <trkpt lat="22.882871" lon="111.310424">
        <ele>239.213323</ele>
        <time>2026-08-18T08:28:04.000Z</time>
      </trkpt>
      <trkpt lat="22.882875" lon="111.310462">
        <ele>239.261630</ele>
        <time>2026-08-18T08:28:05.000Z</time>
      </trkpt>
      <trkpt lat="22.882878" lon="111.310502">
        <ele>239.312318</ele>
        <time>2026-08-18T08:28:06.000Z</time>
      </trkpt>
      <trkpt lat="22.882885" lon="111.310540">
        <ele>239.361262</ele>
        <time>2026-08-18T08:28:07.000Z</time>
      </trkpt>
      <trkpt lat="22.882890" lon="111.310580">
        <ele>239.412246</ele>
        <time>2026-08-18T08:28:08.000Z</time>
      </trkpt>
      <trkpt lat="22.882893" lon="111.310620">
        <ele>239.462426</ele>
        <time>2026-08-18T08:28:09.000Z</time>
      </trkpt>
      <trkpt lat="22.882896" lon="111.310660">
        <ele>239.511240</ele>
        <time>2026-08-18T08:28:10.000Z</time>
      </trkpt>
      <trkpt lat="22.882900" lon="111.310701">
        <ele>239.561387</ele>
        <time>2026-08-18T08:28:11.000Z</time>
      </trkpt>
      <trkpt lat="22.882903" lon="111.310742">
        <ele>239.611413</ele>
        <time>2026-08-18T08:28:12.000Z</time>
      </trkpt>
      <trkpt lat="22.882906" lon="111.310782">
        <ele>239.660226</ele>
        <time>2026-08-18T08:28:13.000Z</time>
      </trkpt>
      <trkpt lat="22.882907" lon="111.310822">
        <ele>239.708897</ele>
        <time>2026-08-18T08:28:14.000Z</time>
      </trkpt>
      <trkpt lat="22.882911" lon="111.310864">
        <ele>239.760254</ele>
        <time>2026-08-18T08:28:15.000Z</time>
      </trkpt>
      <trkpt lat="22.882913" lon="111.310907">
        <ele>239.812622</ele>
        <time>2026-08-18T08:28:16.000Z</time>
      </trkpt>
      <trkpt lat="22.882918" lon="111.310948">
        <ele>239.862925</ele>
        <time>2026-08-18T08:28:17.000Z</time>
      </trkpt>
      <trkpt lat="22.882922" lon="111.310991">
        <ele>239.915493</ele>
        <time>2026-08-18T08:28:18.000Z</time>
      </trkpt>
      <trkpt lat="22.882926" lon="111.311034">
        <ele>239.968060</ele>
        <time>2026-08-18T08:28:19.000Z</time>
      </trkpt>
      <trkpt lat="22.882931" lon="111.311077">
        <ele>240.020776</ele>
        <time>2026-08-18T08:28:20.000Z</time>
      </trkpt>
      <trkpt lat="22.882936" lon="111.311121">
        <ele>240.074699</ele>
        <time>2026-08-18T08:28:21.000Z</time>
      </trkpt>
      <trkpt lat="22.882940" lon="111.311163">
        <ele>240.126057</ele>
        <time>2026-08-18T08:28:22.000Z</time>
      </trkpt>
      <trkpt lat="22.882943" lon="111.311205">
        <ele>240.177295</ele>
        <time>2026-08-18T08:28:23.000Z</time>
      </trkpt>
      <trkpt lat="22.882948" lon="111.311246">
        <ele>240.227599</ele>
        <time>2026-08-18T08:28:24.000Z</time>
      </trkpt>
      <trkpt lat="22.882952" lon="111.311285">
        <ele>240.275328</ele>
        <time>2026-08-18T08:28:25.000Z</time>
      </trkpt>
      <trkpt lat="22.882955" lon="111.311323">
        <ele>240.321717</ele>
        <time>2026-08-18T08:28:26.000Z</time>
      </trkpt>
      <trkpt lat="22.882955" lon="111.311355">
        <ele>240.360639</ele>
        <time>2026-08-18T08:28:27.000Z</time>
      </trkpt>
      <trkpt lat="22.882959" lon="111.311385">
        <ele>240.397508</ele>
        <time>2026-08-18T08:28:28.000Z</time>
      </trkpt>
      <trkpt lat="22.882959" lon="111.311414">
        <ele>240.432781</ele>
        <time>2026-08-18T08:28:29.000Z</time>
      </trkpt>
      <trkpt lat="22.882956" lon="111.311438">
        <ele>240.462240</ele>
        <time>2026-08-18T08:28:30.000Z</time>
      </trkpt>
      <trkpt lat="22.882954" lon="111.311456">
        <ele>240.484292</ele>
        <time>2026-08-18T08:28:31.000Z</time>
      </trkpt>
      <trkpt lat="22.882953" lon="111.311468">
        <ele>240.498947</ele>
        <time>2026-08-18T08:28:32.000Z</time>
      </trkpt>
      <trkpt lat="22.882952" lon="111.311474">
        <ele>240.506364</ele>
        <time>2026-08-18T08:28:33.000Z</time>
      </trkpt>
      <trkpt lat="22.882953" lon="111.311487">
        <ele>240.522231</ele>
        <time>2026-08-18T08:28:35.000Z</time>
      </trkpt>
      <trkpt lat="22.882954" lon="111.311499">
        <ele>240.536886</ele>
        <time>2026-08-18T08:28:36.000Z</time>
      </trkpt>
      <trkpt lat="22.882958" lon="111.311539">
        <ele>240.585824</ele>
        <time>2026-08-18T08:32:49.000Z</time>
      </trkpt>
      <trkpt lat="22.882961" lon="111.311563">
        <ele>240.615283</ele>
        <time>2026-08-18T08:32:50.000Z</time>
      </trkpt>
      <trkpt lat="22.882965" lon="111.311588">
        <ele>240.646146</ele>
        <time>2026-08-18T08:32:51.000Z</time>
      </trkpt>
      <trkpt lat="22.882971" lon="111.311613">
        <ele>240.677569</ele>
        <time>2026-08-18T08:32:52.000Z</time>
      </trkpt>
      <trkpt lat="22.882978" lon="111.311641">
        <ele>240.712857</ele>
        <time>2026-08-18T08:32:53.000Z</time>
      </trkpt>
      <trkpt lat="22.882982" lon="111.311670">
        <ele>240.748523</ele>
        <time>2026-08-18T08:32:54.000Z</time>
      </trkpt>
      <trkpt lat="22.882987" lon="111.311701">
        <ele>240.786802</ele>
        <time>2026-08-18T08:32:55.000Z</time>
      </trkpt>
      <trkpt lat="22.882992" lon="111.311730">
        <ele>240.822687</ele>
        <time>2026-08-18T08:32:56.000Z</time>
      </trkpt>
      <trkpt lat="22.882998" lon="111.311760">
        <ele>240.860026</ele>
        <time>2026-08-18T08:32:57.000Z</time>
      </trkpt>
      <trkpt lat="22.883004" lon="111.311789">
        <ele>240.896178</ele>
        <time>2026-08-18T08:32:58.000Z</time>
      </trkpt>
      <trkpt lat="22.883011" lon="111.311818">
        <ele>240.932641</ele>
        <time>2026-08-18T08:32:59.000Z</time>
      </trkpt>
      <trkpt lat="22.883019" lon="111.311849">
        <ele>240.971798</ele>
        <time>2026-08-18T08:33:00.000Z</time>
      </trkpt>
      <trkpt lat="22.883027" lon="111.311880">
        <ele>241.010955</ele>
        <time>2026-08-18T08:33:01.000Z</time>
      </trkpt>
      <trkpt lat="22.883033" lon="111.311914">
        <ele>241.053061</ele>
        <time>2026-08-18T08:33:02.000Z</time>
      </trkpt>
      <trkpt lat="22.883041" lon="111.311947">
        <ele>241.094566</ele>
        <time>2026-08-18T08:33:03.000Z</time>
      </trkpt>
      <trkpt lat="22.883050" lon="111.311981">
        <ele>241.137593</ele>
        <time>2026-08-18T08:33:04.000Z</time>
      </trkpt>
      <trkpt lat="22.883059" lon="111.312015">
        <ele>241.180621</ele>
        <time>2026-08-18T08:33:05.000Z</time>
      </trkpt>
      <trkpt lat="22.883070" lon="111.312049">
        <ele>241.224451</ele>
        <time>2026-08-18T08:33:06.000Z</time>
      </trkpt>
      <trkpt lat="22.883082" lon="111.312083">
        <ele>241.268736</ele>
        <time>2026-08-18T08:33:07.000Z</time>
      </trkpt>
      <trkpt lat="22.883094" lon="111.312118">
        <ele>241.314159</ele>
        <time>2026-08-18T08:33:08.000Z</time>
      </trkpt>
      <trkpt lat="22.883106" lon="111.312152">
        <ele>241.358445</ele>
        <time>2026-08-18T08:33:09.000Z</time>
      </trkpt>
      <trkpt lat="22.883119" lon="111.312187">
        <ele>241.404345</ele>
        <time>2026-08-18T08:33:10.000Z</time>
      </trkpt>
      <trkpt lat="22.883132" lon="111.312223">
        <ele>241.451375</ele>
        <time>2026-08-18T08:33:11.000Z</time>
      </trkpt>
      <trkpt lat="22.883146" lon="111.312258">
        <ele>241.497785</ele>
        <time>2026-08-18T08:33:12.000Z</time>
      </trkpt>
      <trkpt lat="22.883159" lon="111.312294">
        <ele>241.544816</ele>
        <time>2026-08-18T08:33:13.000Z</time>
      </trkpt>
      <trkpt lat="22.883171" lon="111.312330">
        <ele>241.591381</ele>
        <time>2026-08-18T08:33:14.000Z</time>
      </trkpt>
      <trkpt lat="22.883186" lon="111.312366">
        <ele>241.639438</ele>
        <time>2026-08-18T08:33:15.000Z</time>
      </trkpt>
      <trkpt lat="22.883202" lon="111.312400">
        <ele>241.685875</ele>
        <time>2026-08-18T08:33:16.000Z</time>
      </trkpt>
      <trkpt lat="22.883218" lon="111.312433">
        <ele>241.731232</ele>
        <time>2026-08-18T08:33:17.000Z</time>
      </trkpt>
      <trkpt lat="22.883233" lon="111.312463">
        <ele>241.772748</ele>
        <time>2026-08-18T08:33:18.000Z</time>
      </trkpt>
      <trkpt lat="22.883248" lon="111.312496">
        <ele>241.817506</ele>
        <time>2026-08-18T08:33:19.000Z</time>
      </trkpt>
      <trkpt lat="22.883266" lon="111.312528">
        <ele>241.849906</ele>
        <time>2026-08-18T08:33:20.000Z</time>
      </trkpt>
      <trkpt lat="22.883280" lon="111.312560">
        <ele>241.878523</ele>
        <time>2026-08-18T08:33:21.000Z</time>
      </trkpt>
      <trkpt lat="22.883296" lon="111.312592">
        <ele>241.907935</ele>
        <time>2026-08-18T08:33:22.000Z</time>
      </trkpt>
      <trkpt lat="22.883316" lon="111.312627">
        <ele>241.941206</ele>
        <time>2026-08-18T08:33:23.000Z</time>
      </trkpt>
      <trkpt lat="22.883335" lon="111.312661">
        <ele>241.973329</ele>
        <time>2026-08-18T08:33:24.000Z</time>
      </trkpt>
      <trkpt lat="22.883354" lon="111.312694">
        <ele>242.004765</ele>
        <time>2026-08-18T08:33:25.000Z</time>
      </trkpt>
      <trkpt lat="22.883373" lon="111.312728">
        <ele>242.036888</ele>
        <time>2026-08-18T08:33:26.000Z</time>
      </trkpt>
      <trkpt lat="22.883394" lon="111.312762">
        <ele>242.069955</ele>
        <time>2026-08-18T08:33:27.000Z</time>
      </trkpt>
      <trkpt lat="22.883415" lon="111.312797">
        <ele>242.103696</ele>
        <time>2026-08-18T08:33:28.000Z</time>
      </trkpt>
      <trkpt lat="22.883436" lon="111.312832">
        <ele>242.137437</ele>
        <time>2026-08-18T08:33:29.000Z</time>
      </trkpt>
      <trkpt lat="22.883458" lon="111.312868">
        <ele>242.172334</ele>
        <time>2026-08-18T08:33:30.000Z</time>
      </trkpt>
      <trkpt lat="22.883480" lon="111.312904">
        <ele>242.207232</ele>
        <time>2026-08-18T08:33:31.000Z</time>
      </trkpt>
      <trkpt lat="22.883506" lon="111.312938">
        <ele>242.242927</ele>
        <time>2026-08-18T08:33:32.000Z</time>
      </trkpt>
      <trkpt lat="22.883531" lon="111.312971">
        <ele>242.277440</ele>
        <time>2026-08-18T08:33:33.000Z</time>
      </trkpt>
      <trkpt lat="22.883554" lon="111.313006">
        <ele>242.312169</ele>
        <time>2026-08-18T08:33:34.000Z</time>
      </trkpt>
      <trkpt lat="22.883578" lon="111.313041">
        <ele>242.347414</ele>
        <time>2026-08-18T08:33:35.000Z</time>
      </trkpt>
      <trkpt lat="22.883603" lon="111.313077">
        <ele>242.383832</ele>
        <time>2026-08-18T08:33:36.000Z</time>
      </trkpt>
      <trkpt lat="22.883626" lon="111.313114">
        <ele>242.419888</ele>
        <time>2026-08-18T08:33:37.000Z</time>
      </trkpt>
      <trkpt lat="22.883649" lon="111.313151">
        <ele>242.455945</ele>
        <time>2026-08-18T08:33:38.000Z</time>
      </trkpt>
      <trkpt lat="22.883672" lon="111.313187">
        <ele>242.491335</ele>
        <time>2026-08-18T08:33:39.000Z</time>
      </trkpt>
      <trkpt lat="22.883693" lon="111.313223">
        <ele>242.525755</ele>
        <time>2026-08-18T08:33:40.000Z</time>
      </trkpt>
      <trkpt lat="22.883715" lon="111.313261">
        <ele>242.562010</ele>
        <time>2026-08-18T08:33:41.000Z</time>
      </trkpt>
      <trkpt lat="22.883737" lon="111.313298">
        <ele>242.597584</ele>
        <time>2026-08-18T08:33:42.000Z</time>
      </trkpt>
      <trkpt lat="22.883761" lon="111.313334">
        <ele>242.633480</ele>
        <time>2026-08-18T08:33:43.000Z</time>
      </trkpt>
      <trkpt lat="22.883786" lon="111.313369">
        <ele>242.669256</ele>
        <time>2026-08-18T08:33:44.000Z</time>
      </trkpt>
      <trkpt lat="22.883811" lon="111.313403">
        <ele>242.704397</ele>
        <time>2026-08-18T08:33:45.000Z</time>
      </trkpt>
      <trkpt lat="22.883836" lon="111.313441">
        <ele>242.742117</ele>
        <time>2026-08-18T08:33:46.000Z</time>
      </trkpt>
      <trkpt lat="22.883859" lon="111.313480">
        <ele>242.779524</ele>
        <time>2026-08-18T08:33:47.000Z</time>
      </trkpt>
      <trkpt lat="22.883882" lon="111.313518">
        <ele>242.816253</ele>
        <time>2026-08-18T08:33:48.000Z</time>
      </trkpt>
      <trkpt lat="22.883907" lon="111.313556">
        <ele>242.853973</ele>
        <time>2026-08-18T08:33:49.000Z</time>
      </trkpt>
      <trkpt lat="22.883930" lon="111.313594">
        <ele>242.890702</ele>
        <time>2026-08-18T08:33:50.000Z</time>
      </trkpt>
      <trkpt lat="22.883953" lon="111.313632">
        <ele>242.927431</ele>
        <time>2026-08-18T08:33:51.000Z</time>
      </trkpt>
      <trkpt lat="22.883977" lon="111.313669">
        <ele>242.963985</ele>
        <time>2026-08-18T08:33:52.000Z</time>
      </trkpt>
      <trkpt lat="22.884001" lon="111.313707">
        <ele>243.001203</ele>
        <time>2026-08-18T08:33:53.000Z</time>
      </trkpt>
      <trkpt lat="22.884025" lon="111.313746">
        <ele>243.039089</ele>
        <time>2026-08-18T08:33:54.000Z</time>
      </trkpt>
      <trkpt lat="22.884049" lon="111.313782">
        <ele>243.074986</ele>
        <time>2026-08-18T08:33:55.000Z</time>
      </trkpt>
      <trkpt lat="22.884072" lon="111.313819">
        <ele>243.111043</ele>
        <time>2026-08-18T08:33:56.000Z</time>
      </trkpt>
      <trkpt lat="22.884095" lon="111.313857">
        <ele>243.147771</ele>
        <time>2026-08-18T08:33:57.000Z</time>
      </trkpt>
      <trkpt lat="22.884117" lon="111.313895">
        <ele>243.184026</ele>
        <time>2026-08-18T08:33:58.000Z</time>
      </trkpt>
      <trkpt lat="22.884138" lon="111.313932">
        <ele>243.219132</ele>
        <time>2026-08-18T08:33:59.000Z</time>
      </trkpt>
      <trkpt lat="22.884159" lon="111.313967">
        <ele>243.252873</ele>
        <time>2026-08-18T08:34:00.000Z</time>
      </trkpt>
      <trkpt lat="22.884183" lon="111.314002">
        <ele>243.288118</ele>
        <time>2026-08-18T08:34:01.000Z</time>
      </trkpt>
      <trkpt lat="22.884207" lon="111.314033">
        <ele>243.320828</ele>
        <time>2026-08-18T08:34:02.000Z</time>
      </trkpt>
      <trkpt lat="22.884229" lon="111.314067">
        <ele>243.354391</ele>
        <time>2026-08-18T08:34:03.000Z</time>
      </trkpt>
      <trkpt lat="22.884252" lon="111.314098">
        <ele>243.386544</ele>
        <time>2026-08-18T08:34:04.000Z</time>
      </trkpt>
      <trkpt lat="22.884275" lon="111.314130">
        <ele>243.416806</ele>
        <time>2026-08-18T08:34:05.000Z</time>
      </trkpt>
      <trkpt lat="22.884296" lon="111.314155">
        <ele>243.440393</ele>
        <time>2026-08-18T08:34:06.000Z</time>
      </trkpt>
      <trkpt lat="22.884319" lon="111.314185">
        <ele>243.467603</ele>
        <time>2026-08-18T08:34:07.000Z</time>
      </trkpt>
      <trkpt lat="22.884339" lon="111.314217">
        <ele>243.494563</ele>
        <time>2026-08-18T08:34:08.000Z</time>
      </trkpt>
      <trkpt lat="22.884361" lon="111.314252">
        <ele>243.524103</ele>
        <time>2026-08-18T08:34:09.000Z</time>
      </trkpt>
      <trkpt lat="22.884379" lon="111.314286">
        <ele>243.551442</ele>
        <time>2026-08-18T08:34:10.000Z</time>
      </trkpt>
      <trkpt lat="22.884398" lon="111.314323">
        <ele>243.580975</ele>
        <time>2026-08-18T08:34:11.000Z</time>
      </trkpt>
      <trkpt lat="22.884415" lon="111.314361">
        <ele>243.610426</ele>
        <time>2026-08-18T08:34:12.000Z</time>
      </trkpt>
      <trkpt lat="22.884434" lon="111.314400">
        <ele>243.641184</ele>
        <time>2026-08-18T08:34:13.000Z</time>
      </trkpt>
      <trkpt lat="22.884452" lon="111.314440">
        <ele>243.672221</ele>
        <time>2026-08-18T08:34:14.000Z</time>
      </trkpt>
      <trkpt lat="22.884469" lon="111.314481">
        <ele>243.703567</ele>
        <time>2026-08-18T08:34:15.000Z</time>
      </trkpt>
      <trkpt lat="22.884485" lon="111.314522">
        <ele>243.734610</ele>
        <time>2026-08-18T08:34:16.000Z</time>
      </trkpt>
      <trkpt lat="22.884501" lon="111.314561">
        <ele>243.764375</ele>
        <time>2026-08-18T08:34:17.000Z</time>
      </trkpt>
      <trkpt lat="22.884517" lon="111.314604">
        <ele>243.796707</ele>
        <time>2026-08-18T08:34:18.000Z</time>
      </trkpt>
      <trkpt lat="22.884531" lon="111.314643">
        <ele>243.825888</ele>
        <time>2026-08-18T08:34:19.000Z</time>
      </trkpt>
      <trkpt lat="22.884547" lon="111.314683">
        <ele>243.856291</ele>
        <time>2026-08-18T08:34:20.000Z</time>
      </trkpt>
      <trkpt lat="22.884561" lon="111.314726">
        <ele>243.888087</ele>
        <time>2026-08-18T08:34:21.000Z</time>
      </trkpt>
      <trkpt lat="22.884572" lon="111.314767">
        <ele>243.917859</ele>
        <time>2026-08-18T08:34:22.000Z</time>
      </trkpt>
      <trkpt lat="22.884584" lon="111.314810">
        <ele>243.949183</ele>
        <time>2026-08-18T08:34:23.000Z</time>
      </trkpt>
      <trkpt lat="22.884597" lon="111.314851">
        <ele>243.979414</ele>
        <time>2026-08-18T08:34:24.000Z</time>
      </trkpt>
      <trkpt lat="22.884606" lon="111.314894">
        <ele>244.010157</ele>
        <time>2026-08-18T08:34:25.000Z</time>
      </trkpt>
      <trkpt lat="22.884613" lon="111.314936">
        <ele>244.039914</ele>
        <time>2026-08-18T08:34:26.000Z</time>
      </trkpt>
      <trkpt lat="22.884620" lon="111.314978">
        <ele>244.069671</ele>
        <time>2026-08-18T08:34:27.000Z</time>
      </trkpt>
      <trkpt lat="22.884622" lon="111.315023">
        <ele>244.101081</ele>
        <time>2026-08-18T08:34:28.000Z</time>
      </trkpt>
      <trkpt lat="22.884624" lon="111.315065">
        <ele>244.130402</ele>
        <time>2026-08-18T08:34:29.000Z</time>
      </trkpt>
      <trkpt lat="22.884627" lon="111.315110">
        <ele>244.161857</ele>
        <time>2026-08-18T08:34:30.000Z</time>
      </trkpt>
      <trkpt lat="22.884629" lon="111.315154">
        <ele>244.192571</ele>
        <time>2026-08-18T08:34:31.000Z</time>
      </trkpt>
      <trkpt lat="22.884629" lon="111.315197">
        <ele>244.222550</ele>
        <time>2026-08-18T08:34:32.000Z</time>
      </trkpt>
      <trkpt lat="22.884630" lon="111.315240">
        <ele>244.252539</ele>
        <time>2026-08-18T08:34:33.000Z</time>
      </trkpt>
      <trkpt lat="22.884629" lon="111.315285">
        <ele>244.283921</ele>
        <time>2026-08-18T08:34:34.000Z</time>
      </trkpt>
      <trkpt lat="22.884627" lon="111.315329">
        <ele>244.314635</ele>
        <time>2026-08-18T08:34:35.000Z</time>
      </trkpt>
      <trkpt lat="22.884625" lon="111.315373">
        <ele>244.345349</ele>
        <time>2026-08-18T08:34:36.000Z</time>
      </trkpt>
      <trkpt lat="22.884623" lon="111.315417">
        <ele>244.376062</ele>
        <time>2026-08-18T08:34:37.000Z</time>
      </trkpt>
      <trkpt lat="22.884620" lon="111.315462">
        <ele>244.407518</ele>
        <time>2026-08-18T08:34:38.000Z</time>
      </trkpt>
      <trkpt lat="22.884616" lon="111.315504">
        <ele>244.436956</ele>
        <time>2026-08-18T08:34:39.000Z</time>
      </trkpt>
      <trkpt lat="22.884613" lon="111.315544">
        <ele>244.464935</ele>
        <time>2026-08-18T08:34:40.000Z</time>
      </trkpt>
      <trkpt lat="22.884607" lon="111.315587">
        <ele>244.495256</ele>
        <time>2026-08-18T08:34:41.000Z</time>
      </trkpt>
      <trkpt lat="22.884603" lon="111.315629">
        <ele>244.524694</ele>
        <time>2026-08-18T08:34:42.000Z</time>
      </trkpt>
      <trkpt lat="22.884598" lon="111.315672">
        <ele>244.554911</ele>
        <time>2026-08-18T08:34:43.000Z</time>
      </trkpt>
      <trkpt lat="22.884594" lon="111.315715">
        <ele>244.585043</ele>
        <time>2026-08-18T08:34:44.000Z</time>
      </trkpt>
      <trkpt lat="22.884591" lon="111.315758">
        <ele>244.615108</ele>
        <time>2026-08-18T08:34:45.000Z</time>
      </trkpt>
      <trkpt lat="22.884586" lon="111.315802">
        <ele>244.646016</ele>
        <time>2026-08-18T08:34:46.000Z</time>
      </trkpt>
      <trkpt lat="22.884582" lon="111.315842">
        <ele>244.674068</ele>
        <time>2026-08-18T08:34:47.000Z</time>
      </trkpt>
      <trkpt lat="22.884577" lon="111.315881">
        <ele>244.701520</ele>
        <time>2026-08-18T08:34:48.000Z</time>
      </trkpt>
      <trkpt lat="22.884573" lon="111.315923">
        <ele>244.730958</ele>
        <time>2026-08-18T08:34:49.000Z</time>
      </trkpt>
      <trkpt lat="22.884569" lon="111.315965">
        <ele>244.760396</ele>
        <time>2026-08-18T08:34:50.000Z</time>
      </trkpt>
      <trkpt lat="22.884566" lon="111.316007">
        <ele>244.791118</ele>
        <time>2026-08-18T08:34:51.000Z</time>
      </trkpt>
      <trkpt lat="22.884564" lon="111.316050">
        <ele>244.822599</ele>
        <time>2026-08-18T08:34:52.000Z</time>
      </trkpt>
      <trkpt lat="22.884560" lon="111.316095">
        <ele>244.855655</ele>
        <time>2026-08-18T08:34:53.000Z</time>
      </trkpt>
      <trkpt lat="22.884557" lon="111.316139">
        <ele>244.887915</ele>
        <time>2026-08-18T08:34:54.000Z</time>
      </trkpt>
      <trkpt lat="22.884552" lon="111.316183">
        <ele>244.920331</ele>
        <time>2026-08-18T08:34:55.000Z</time>
      </trkpt>
      <trkpt lat="22.884549" lon="111.316225">
        <ele>244.951132</ele>
        <time>2026-08-18T08:34:56.000Z</time>
      </trkpt>
      <trkpt lat="22.884544" lon="111.316268">
        <ele>244.982822</ele>
        <time>2026-08-18T08:34:57.000Z</time>
      </trkpt>
      <trkpt lat="22.884539" lon="111.316313">
        <ele>245.015964</ele>
        <time>2026-08-18T08:34:58.000Z</time>
      </trkpt>
      <trkpt lat="22.884535" lon="111.316358">
        <ele>245.049020</ele>
        <time>2026-08-18T08:34:59.000Z</time>
      </trkpt>
      <trkpt lat="22.884530" lon="111.316403">
        <ele>245.082161</ele>
        <time>2026-08-18T08:35:00.000Z</time>
      </trkpt>
      <trkpt lat="22.884525" lon="111.316446">
        <ele>245.113851</ele>
        <time>2026-08-18T08:35:01.000Z</time>
      </trkpt>
      <trkpt lat="22.884521" lon="111.316487">
        <ele>245.143997</ele>
        <time>2026-08-18T08:35:02.000Z</time>
      </trkpt>
      <trkpt lat="22.884518" lon="111.316529">
        <ele>245.174799</ele>
        <time>2026-08-18T08:35:03.000Z</time>
      </trkpt>
      <trkpt lat="22.884514" lon="111.316572">
        <ele>245.206399</ele>
        <time>2026-08-18T08:35:04.000Z</time>
      </trkpt>
      <trkpt lat="22.884511" lon="111.316615">
        <ele>245.237930</ele>
        <time>2026-08-18T08:35:05.000Z</time>
      </trkpt>
      <trkpt lat="22.884507" lon="111.316655">
        <ele>245.267349</ele>
        <time>2026-08-18T08:35:06.000Z</time>
      </trkpt>
      <trkpt lat="22.884502" lon="111.316696">
        <ele>245.297589</ele>
        <time>2026-08-18T08:35:07.000Z</time>
      </trkpt>
      <trkpt lat="22.884500" lon="111.316739">
        <ele>245.329070</ele>
        <time>2026-08-18T08:35:08.000Z</time>
      </trkpt>
      <trkpt lat="22.884498" lon="111.316779">
        <ele>245.358360</ele>
        <time>2026-08-18T08:35:09.000Z</time>
      </trkpt>
      <trkpt lat="22.884493" lon="111.316825">
        <ele>245.392227</ele>
        <time>2026-08-18T08:35:10.000Z</time>
      </trkpt>
      <trkpt lat="22.884484" lon="111.316873">
        <ele>245.428044</ele>
        <time>2026-08-18T08:35:11.000Z</time>
      </trkpt>
      <trkpt lat="22.884476" lon="111.316918">
        <ele>245.461554</ele>
        <time>2026-08-18T08:35:12.000Z</time>
      </trkpt>
      <trkpt lat="22.884469" lon="111.316960">
        <ele>245.492762</ele>
        <time>2026-08-18T08:35:13.000Z</time>
      </trkpt>
      <trkpt lat="22.884459" lon="111.317005">
        <ele>245.526608</ele>
        <time>2026-08-18T08:35:14.000Z</time>
      </trkpt>
      <trkpt lat="22.884453" lon="111.317045">
        <ele>245.556241</ele>
        <time>2026-08-18T08:35:15.000Z</time>
      </trkpt>
      <trkpt lat="22.884447" lon="111.317089">
        <ele>245.588763</ele>
        <time>2026-08-18T08:35:16.000Z</time>
      </trkpt>
      <trkpt lat="22.884440" lon="111.317134">
        <ele>245.622132</ele>
        <time>2026-08-18T08:35:17.000Z</time>
      </trkpt>
      <trkpt lat="22.884430" lon="111.317179">
        <ele>245.655979</ele>
        <time>2026-08-18T08:35:18.000Z</time>
      </trkpt>
      <trkpt lat="22.884421" lon="111.317223">
        <ele>245.688934</ele>
        <time>2026-08-18T08:35:19.000Z</time>
      </trkpt>
      <trkpt lat="22.884411" lon="111.317268">
        <ele>245.722781</ele>
        <time>2026-08-18T08:35:20.000Z</time>
      </trkpt>
      <trkpt lat="22.884400" lon="111.317312">
        <ele>245.756116</ele>
        <time>2026-08-18T08:35:21.000Z</time>
      </trkpt>
      <trkpt lat="22.884387" lon="111.317358">
        <ele>245.791297</ele>
        <time>2026-08-18T08:35:22.000Z</time>
      </trkpt>
      <trkpt lat="22.884374" lon="111.317402">
        <ele>245.825083</ele>
        <time>2026-08-18T08:35:23.000Z</time>
      </trkpt>
      <trkpt lat="22.884360" lon="111.317445">
        <ele>245.858429</ele>
        <time>2026-08-18T08:35:24.000Z</time>
      </trkpt>
      <trkpt lat="22.884346" lon="111.317488">
        <ele>245.891775</ele>
        <time>2026-08-18T08:35:25.000Z</time>
      </trkpt>
      <trkpt lat="22.884333" lon="111.317532">
        <ele>245.925561</ele>
        <time>2026-08-18T08:35:26.000Z</time>
      </trkpt>
      <trkpt lat="22.884319" lon="111.317576">
        <ele>245.959598</ele>
        <time>2026-08-18T08:35:27.000Z</time>
      </trkpt>
      <trkpt lat="22.884304" lon="111.317619">
        <ele>245.993217</ele>
        <time>2026-08-18T08:35:28.000Z</time>
      </trkpt>
      <trkpt lat="22.884287" lon="111.317662">
        <ele>246.027430</ele>
        <time>2026-08-18T08:35:29.000Z</time>
      </trkpt>
      <trkpt lat="22.884270" lon="111.317705">
        <ele>246.061644</ele>
        <time>2026-08-18T08:35:30.000Z</time>
      </trkpt>
      <trkpt lat="22.884253" lon="111.317746">
        <ele>246.094518</ele>
        <time>2026-08-18T08:35:31.000Z</time>
      </trkpt>
      <trkpt lat="22.884234" lon="111.317788">
        <ele>246.128730</ele>
        <time>2026-08-18T08:35:32.000Z</time>
      </trkpt>
      <trkpt lat="22.884214" lon="111.317831">
        <ele>246.163951</ele>
        <time>2026-08-18T08:35:33.000Z</time>
      </trkpt>
      <trkpt lat="22.884193" lon="111.317874">
        <ele>246.196741</ele>
        <time>2026-08-18T08:35:34.000Z</time>
      </trkpt>
      <trkpt lat="22.884173" lon="111.317916">
        <ele>246.221675</ele>
        <time>2026-08-18T08:35:35.000Z</time>
      </trkpt>
      <trkpt lat="22.884153" lon="111.317958">
        <ele>246.246610</ele>
        <time>2026-08-18T08:35:36.000Z</time>
      </trkpt>
      <trkpt lat="22.884134" lon="111.317999">
        <ele>246.270814</ele>
        <time>2026-08-18T08:35:37.000Z</time>
      </trkpt>
      <trkpt lat="22.884115" lon="111.318039">
        <ele>246.294548</ele>
        <time>2026-08-18T08:35:38.000Z</time>
      </trkpt>
      <trkpt lat="22.884095" lon="111.318078">
        <ele>246.318088</ele>
        <time>2026-08-18T08:35:39.000Z</time>
      </trkpt>
      <trkpt lat="22.884076" lon="111.318118">
        <ele>246.341822</ele>
        <time>2026-08-18T08:35:40.000Z</time>
      </trkpt>
      <trkpt lat="22.884056" lon="111.318158">
        <ele>246.365825</ele>
        <time>2026-08-18T08:35:41.000Z</time>
      </trkpt>
      <trkpt lat="22.884037" lon="111.318197">
        <ele>246.389091</ele>
        <time>2026-08-18T08:35:42.000Z</time>
      </trkpt>
      <trkpt lat="22.884017" lon="111.318236">
        <ele>246.412631</ele>
        <time>2026-08-18T08:35:43.000Z</time>
      </trkpt>
      <trkpt lat="22.883999" lon="111.318275">
        <ele>246.435636</ele>
        <time>2026-08-18T08:35:44.000Z</time>
      </trkpt>
      <trkpt lat="22.883981" lon="111.318314">
        <ele>246.458641</ele>
        <time>2026-08-18T08:35:45.000Z</time>
      </trkpt>
      <trkpt lat="22.883963" lon="111.318354">
        <ele>246.482118</ele>
        <time>2026-08-18T08:35:46.000Z</time>
      </trkpt>
      <trkpt lat="22.883944" lon="111.318392">
        <ele>246.504920</ele>
        <time>2026-08-18T08:35:47.000Z</time>
      </trkpt>
      <trkpt lat="22.883924" lon="111.318430">
        <ele>246.528001</ele>
        <time>2026-08-18T08:35:48.000Z</time>
      </trkpt>
      <trkpt lat="22.883903" lon="111.318466">
        <ele>246.550473</ele>
        <time>2026-08-18T08:35:49.000Z</time>
      </trkpt>
      <trkpt lat="22.883880" lon="111.318502">
        <ele>246.573577</ele>
        <time>2026-08-18T08:35:50.000Z</time>
      </trkpt>
      <trkpt lat="22.883858" lon="111.318540">
        <ele>246.597247</ele>
        <time>2026-08-18T08:35:51.000Z</time>
      </trkpt>
      <trkpt lat="22.883837" lon="111.318579">
        <ele>246.621070</ele>
        <time>2026-08-18T08:35:52.000Z</time>
      </trkpt>
      <trkpt lat="22.883816" lon="111.318618">
        <ele>246.644894</ele>
        <time>2026-08-18T08:35:53.000Z</time>
      </trkpt>
      <trkpt lat="22.883797" lon="111.318657">
        <ele>246.668161</ele>
        <time>2026-08-18T08:35:54.000Z</time>
      </trkpt>
      <trkpt lat="22.883777" lon="111.318697">
        <ele>246.692163</ele>
        <time>2026-08-18T08:35:55.000Z</time>
      </trkpt>
      <trkpt lat="22.883757" lon="111.318739">
        <ele>246.717097</ele>
        <time>2026-08-18T08:35:56.000Z</time>
      </trkpt>
      <trkpt lat="22.883735" lon="111.318779">
        <ele>246.741666</ele>
        <time>2026-08-18T08:35:57.000Z</time>
      </trkpt>
      <trkpt lat="22.883714" lon="111.318818">
        <ele>246.765489</ele>
        <time>2026-08-18T08:35:58.000Z</time>
      </trkpt>
      <trkpt lat="22.883692" lon="111.318858">
        <ele>246.790058</ele>
        <time>2026-08-18T08:35:59.000Z</time>
      </trkpt>
      <trkpt lat="22.883669" lon="111.318897">
        <ele>246.814479</ele>
        <time>2026-08-18T08:36:00.000Z</time>
      </trkpt>
      <trkpt lat="22.883647" lon="111.318938">
        <ele>246.839503</ele>
        <time>2026-08-18T08:36:01.000Z</time>
      </trkpt>
      <trkpt lat="22.883627" lon="111.318980">
        <ele>246.864437</ele>
        <time>2026-08-18T08:36:02.000Z</time>
      </trkpt>
      <trkpt lat="22.883605" lon="111.319021">
        <ele>246.889460</ele>
        <time>2026-08-18T08:36:03.000Z</time>
      </trkpt>
      <trkpt lat="22.883584" lon="111.319062">
        <ele>246.914200</ele>
        <time>2026-08-18T08:36:04.000Z</time>
      </trkpt>
      <trkpt lat="22.883563" lon="111.319102">
        <ele>246.938480</ele>
        <time>2026-08-18T08:36:05.000Z</time>
      </trkpt>
      <trkpt lat="22.883543" lon="111.319143">
        <ele>246.962947</ele>
        <time>2026-08-18T08:36:06.000Z</time>
      </trkpt>
      <trkpt lat="22.883525" lon="111.319184">
        <ele>246.986900</ele>
        <time>2026-08-18T08:36:07.000Z</time>
      </trkpt>
      <trkpt lat="22.883504" lon="111.319225">
        <ele>247.011640</ele>
        <time>2026-08-18T08:36:08.000Z</time>
      </trkpt>
      <trkpt lat="22.883483" lon="111.319263">
        <ele>247.035010</ele>
        <time>2026-08-18T08:36:09.000Z</time>
      </trkpt>
      <trkpt lat="22.883460" lon="111.319303">
        <ele>247.059877</ele>
        <time>2026-08-18T08:36:10.000Z</time>
      </trkpt>
      <trkpt lat="22.883438" lon="111.319342">
        <ele>247.083994</ele>
        <time>2026-08-18T08:36:11.000Z</time>
      </trkpt>
      <trkpt lat="22.883417" lon="111.319382">
        <ele>247.108275</ele>
        <time>2026-08-18T08:36:12.000Z</time>
      </trkpt>
      <trkpt lat="22.883396" lon="111.319421">
        <ele>247.132098</ele>
        <time>2026-08-18T08:36:13.000Z</time>
      </trkpt>
      <trkpt lat="22.883375" lon="111.319462">
        <ele>247.156838</ele>
        <time>2026-08-18T08:36:14.000Z</time>
      </trkpt>
      <trkpt lat="22.883354" lon="111.319504">
        <ele>247.182041</ele>
        <time>2026-08-18T08:36:15.000Z</time>
      </trkpt>
      <trkpt lat="22.883334" lon="111.319546">
        <ele>247.206975</ele>
        <time>2026-08-18T08:36:16.000Z</time>
      </trkpt>
      <trkpt lat="22.883313" lon="111.319588">
        <ele>247.232354</ele>
        <time>2026-08-18T08:36:17.000Z</time>
      </trkpt>
      <trkpt lat="22.883291" lon="111.319630">
        <ele>247.258178</ele>
        <time>2026-08-18T08:36:18.000Z</time>
      </trkpt>
      <trkpt lat="22.883269" lon="111.319670">
        <ele>247.283079</ele>
        <time>2026-08-18T08:36:19.000Z</time>
      </trkpt>
      <trkpt lat="22.883247" lon="111.319711">
        <ele>247.308441</ele>
        <time>2026-08-18T08:36:20.000Z</time>
      </trkpt>
      <trkpt lat="22.883226" lon="111.319753">
        <ele>247.333983</ele>
        <time>2026-08-18T08:36:21.000Z</time>
      </trkpt>
      <trkpt lat="22.883204" lon="111.319794">
        <ele>247.359345</ele>
        <time>2026-08-18T08:36:22.000Z</time>
      </trkpt>
      <trkpt lat="22.883183" lon="111.319837">
        <ele>247.385359</ele>
        <time>2026-08-18T08:36:23.000Z</time>
      </trkpt>
      <trkpt lat="22.883162" lon="111.319880">
        <ele>247.411373</ele>
        <time>2026-08-18T08:36:24.000Z</time>
      </trkpt>
      <trkpt lat="22.883142" lon="111.319923">
        <ele>247.437120</ele>
        <time>2026-08-18T08:36:25.000Z</time>
      </trkpt>
      <trkpt lat="22.883122" lon="111.319965">
        <ele>247.462391</ele>
        <time>2026-08-18T08:36:26.000Z</time>
      </trkpt>
      <trkpt lat="22.883102" lon="111.320005">
        <ele>247.486718</ele>
        <time>2026-08-18T08:36:27.000Z</time>
      </trkpt>
      <trkpt lat="22.883082" lon="111.320045">
        <ele>247.511045</ele>
        <time>2026-08-18T08:36:28.000Z</time>
      </trkpt>
      <trkpt lat="22.883062" lon="111.320085">
        <ele>247.535371</ele>
        <time>2026-08-18T08:36:29.000Z</time>
      </trkpt>
      <trkpt lat="22.883043" lon="111.320125">
        <ele>247.559427</ele>
        <time>2026-08-18T08:36:30.000Z</time>
      </trkpt>
      <trkpt lat="22.883022" lon="111.320165">
        <ele>247.584035</ele>
        <time>2026-08-18T08:36:31.000Z</time>
      </trkpt>
      <trkpt lat="22.883002" lon="111.320201">
        <ele>247.606506</ele>
        <time>2026-08-18T08:36:32.000Z</time>
      </trkpt>
      <trkpt lat="22.882981" lon="111.320240">
        <ele>247.630651</ele>
        <time>2026-08-18T08:36:33.000Z</time>
      </trkpt>
      <trkpt lat="22.882962" lon="111.320278">
        <ele>247.653762</ele>
        <time>2026-08-18T08:36:34.000Z</time>
      </trkpt>
      <trkpt lat="22.882943" lon="111.320315">
        <ele>247.676404</ele>
        <time>2026-08-18T08:36:35.000Z</time>
      </trkpt>
      <trkpt lat="22.882924" lon="111.320353">
        <ele>247.699514</ele>
        <time>2026-08-18T08:36:36.000Z</time>
      </trkpt>
      <trkpt lat="22.882907" lon="111.320391">
        <ele>247.722094</ele>
        <time>2026-08-18T08:36:37.000Z</time>
      </trkpt>
      <trkpt lat="22.882891" lon="111.320429">
        <ele>247.744426</ele>
        <time>2026-08-18T08:36:38.000Z</time>
      </trkpt>
      <trkpt lat="22.882876" lon="111.320469">
        <ele>247.767510</ele>
        <time>2026-08-18T08:36:39.000Z</time>
      </trkpt>
      <trkpt lat="22.882863" lon="111.320509">
        <ele>247.790183</ele>
        <time>2026-08-18T08:36:40.000Z</time>
      </trkpt>
      <trkpt lat="22.882851" lon="111.320550">
        <ele>247.813177</ele>
        <time>2026-08-18T08:36:41.000Z</time>
      </trkpt>
      <trkpt lat="22.882838" lon="111.320592">
        <ele>247.836860</ele>
        <time>2026-08-18T08:36:42.000Z</time>
      </trkpt>
      <trkpt lat="22.882826" lon="111.320637">
        <ele>247.861901</ele>
        <time>2026-08-18T08:36:43.000Z</time>
      </trkpt>
      <trkpt lat="22.882816" lon="111.320682">
        <ele>247.886644</ele>
        <time>2026-08-18T08:36:44.000Z</time>
      </trkpt>
      <trkpt lat="22.882807" lon="111.320728">
        <ele>247.911781</ele>
        <time>2026-08-18T08:36:45.000Z</time>
      </trkpt>
      <trkpt lat="22.882797" lon="111.320777">
        <ele>247.938607</ele>
        <time>2026-08-18T08:36:46.000Z</time>
      </trkpt>
      <trkpt lat="22.882786" lon="111.320825">
        <ele>247.965046</ele>
        <time>2026-08-18T08:36:47.000Z</time>
      </trkpt>
      <trkpt lat="22.882776" lon="111.320872">
        <ele>247.990830</ele>
        <time>2026-08-18T08:36:48.000Z</time>
      </trkpt>
      <trkpt lat="22.882767" lon="111.320919">
        <ele>248.016489</ele>
        <time>2026-08-18T08:36:49.000Z</time>
      </trkpt>
      <trkpt lat="22.882758" lon="111.320966">
        <ele>248.042149</ele>
        <time>2026-08-18T08:36:50.000Z</time>
      </trkpt>
      <trkpt lat="22.882751" lon="111.321012">
        <ele>248.067070</ele>
        <time>2026-08-18T08:36:51.000Z</time>
      </trkpt>
      <trkpt lat="22.882745" lon="111.321059">
        <ele>248.092432</ele>
        <time>2026-08-18T08:36:52.000Z</time>
      </trkpt>
      <trkpt lat="22.882736" lon="111.321107">
        <ele>248.118615</ele>
        <time>2026-08-18T08:36:53.000Z</time>
      </trkpt>
      <trkpt lat="22.882726" lon="111.321155">
        <ele>248.144920</ele>
        <time>2026-08-18T08:36:54.000Z</time>
      </trkpt>
      <trkpt lat="22.882716" lon="111.321202">
        <ele>248.170704</ele>
        <time>2026-08-18T08:36:55.000Z</time>
      </trkpt>
      <trkpt lat="22.882706" lon="111.321249">
        <ele>248.196488</ele>
        <time>2026-08-18T08:36:56.000Z</time>
      </trkpt>
      <trkpt lat="22.882697" lon="111.321294">
        <ele>248.221102</ele>
        <time>2026-08-18T08:36:57.000Z</time>
      </trkpt>
      <trkpt lat="22.882687" lon="111.321338">
        <ele>248.245326</ele>
        <time>2026-08-18T08:36:58.000Z</time>
      </trkpt>
      <trkpt lat="22.882678" lon="111.321383">
        <ele>248.271774</ele>
        <time>2026-08-18T08:36:59.000Z</time>
      </trkpt>
      <trkpt lat="22.882669" lon="111.321428">
        <ele>248.302601</ele>
        <time>2026-08-18T08:37:00.000Z</time>
      </trkpt>
      <trkpt lat="22.882659" lon="111.321471">
        <ele>248.332291</ele>
        <time>2026-08-18T08:37:01.000Z</time>
      </trkpt>
      <trkpt lat="22.882649" lon="111.321515">
        <ele>248.362630</ele>
        <time>2026-08-18T08:37:02.000Z</time>
      </trkpt>
      <trkpt lat="22.882640" lon="111.321560">
        <ele>248.393457</ele>
        <time>2026-08-18T08:37:03.000Z</time>
      </trkpt>
      <trkpt lat="22.882632" lon="111.321603">
        <ele>248.422824</ele>
        <time>2026-08-18T08:37:04.000Z</time>
      </trkpt>
      <trkpt lat="22.882624" lon="111.321647">
        <ele>248.452848</ele>
        <time>2026-08-18T08:37:05.000Z</time>
      </trkpt>
      <trkpt lat="22.882615" lon="111.321691">
        <ele>248.483021</ele>
        <time>2026-08-18T08:37:06.000Z</time>
      </trkpt>
      <trkpt lat="22.882604" lon="111.321735">
        <ele>248.513542</ele>
        <time>2026-08-18T08:37:07.000Z</time>
      </trkpt>
      <trkpt lat="22.882594" lon="111.321780">
        <ele>248.544531</ele>
        <time>2026-08-18T08:37:08.000Z</time>
      </trkpt>
      <trkpt lat="22.882584" lon="111.321823">
        <ele>248.574221</ele>
        <time>2026-08-18T08:37:09.000Z</time>
      </trkpt>
      <trkpt lat="22.882575" lon="111.321866">
        <ele>248.603741</ele>
        <time>2026-08-18T08:37:10.000Z</time>
      </trkpt>
      <trkpt lat="22.882567" lon="111.321911">
        <ele>248.634422</ele>
        <time>2026-08-18T08:37:11.000Z</time>
      </trkpt>
      <trkpt lat="22.882557" lon="111.321956">
        <ele>248.665411</ele>
        <time>2026-08-18T08:37:12.000Z</time>
      </trkpt>
      <trkpt lat="22.882549" lon="111.322001">
        <ele>248.696092</ele>
        <time>2026-08-18T08:37:13.000Z</time>
      </trkpt>
      <trkpt lat="22.882540" lon="111.322045">
        <ele>248.726265</ele>
        <time>2026-08-18T08:37:14.000Z</time>
      </trkpt>
      <trkpt lat="22.882530" lon="111.322090">
        <ele>248.757254</ele>
        <time>2026-08-18T08:37:15.000Z</time>
      </trkpt>
      <trkpt lat="22.882521" lon="111.322134">
        <ele>248.787427</ele>
        <time>2026-08-18T08:37:16.000Z</time>
      </trkpt>
      <trkpt lat="22.882514" lon="111.322178">
        <ele>248.817319</ele>
        <time>2026-08-18T08:37:17.000Z</time>
      </trkpt>
      <trkpt lat="22.882507" lon="111.322222">
        <ele>248.847211</ele>
        <time>2026-08-18T08:37:18.000Z</time>
      </trkpt>
      <trkpt lat="22.882501" lon="111.322265">
        <ele>248.876326</ele>
        <time>2026-08-18T08:37:19.000Z</time>
      </trkpt>
      <trkpt lat="22.882495" lon="111.322308">
        <ele>248.905440</ele>
        <time>2026-08-18T08:37:20.000Z</time>
      </trkpt>
      <trkpt lat="22.882486" lon="111.322352">
        <ele>248.935614</ele>
        <time>2026-08-18T08:37:21.000Z</time>
      </trkpt>
      <trkpt lat="22.882477" lon="111.322396">
        <ele>248.965787</ele>
        <time>2026-08-18T08:37:22.000Z</time>
      </trkpt>
      <trkpt lat="22.882466" lon="111.322441">
        <ele>248.996954</ele>
        <time>2026-08-18T08:37:23.000Z</time>
      </trkpt>
      <trkpt lat="22.882456" lon="111.322485">
        <ele>249.027293</ele>
        <time>2026-08-18T08:37:24.000Z</time>
      </trkpt>
      <trkpt lat="22.882446" lon="111.322531">
        <ele>249.058934</ele>
        <time>2026-08-18T08:37:25.000Z</time>
      </trkpt>
      <trkpt lat="22.882435" lon="111.322574">
        <ele>249.088809</ele>
        <time>2026-08-18T08:37:26.000Z</time>
      </trkpt>
      <trkpt lat="22.882424" lon="111.322618">
        <ele>249.119330</ele>
        <time>2026-08-18T08:37:27.000Z</time>
      </trkpt>
      <trkpt lat="22.882413" lon="111.322662">
        <ele>249.149851</ele>
        <time>2026-08-18T08:37:28.000Z</time>
      </trkpt>
      <trkpt lat="22.882403" lon="111.322707">
        <ele>249.180841</ele>
        <time>2026-08-18T08:37:29.000Z</time>
      </trkpt>
      <trkpt lat="22.882393" lon="111.322753">
        <ele>249.212481</ele>
        <time>2026-08-18T08:37:30.000Z</time>
      </trkpt>
      <trkpt lat="22.882382" lon="111.322798">
        <ele>249.243649</ele>
        <time>2026-08-18T08:37:31.000Z</time>
      </trkpt>
      <trkpt lat="22.882372" lon="111.322845">
        <ele>249.275941</ele>
        <time>2026-08-18T08:37:32.000Z</time>
      </trkpt>
      <trkpt lat="22.882360" lon="111.322889">
        <ele>249.306661</ele>
        <time>2026-08-18T08:37:33.000Z</time>
      </trkpt>
      <trkpt lat="22.882349" lon="111.322934">
        <ele>249.337828</ele>
        <time>2026-08-18T08:37:34.000Z</time>
      </trkpt>
      <trkpt lat="22.882337" lon="111.322981">
        <ele>249.370478</ele>
        <time>2026-08-18T08:37:35.000Z</time>
      </trkpt>
      <trkpt lat="22.882325" lon="111.323027">
        <ele>249.402484</ele>
        <time>2026-08-18T08:37:36.000Z</time>
      </trkpt>
      <trkpt lat="22.882313" lon="111.323074">
        <ele>249.435134</ele>
        <time>2026-08-18T08:37:37.000Z</time>
      </trkpt>
      <trkpt lat="22.882299" lon="111.323125">
        <ele>249.470759</ele>
        <time>2026-08-18T08:37:38.000Z</time>
      </trkpt>
      <trkpt lat="22.882286" lon="111.323173">
        <ele>249.504253</ele>
        <time>2026-08-18T08:37:39.000Z</time>
      </trkpt>
      <trkpt lat="22.882270" lon="111.323223">
        <ele>249.539687</ele>
        <time>2026-08-18T08:37:40.000Z</time>
      </trkpt>
      <trkpt lat="22.882252" lon="111.323269">
        <ele>249.576582</ele>
        <time>2026-08-18T08:37:41.000Z</time>
      </trkpt>
      <trkpt lat="22.882232" lon="111.323316">
        <ele>249.645110</ele>
        <time>2026-08-18T08:37:42.000Z</time>
      </trkpt>
      <trkpt lat="22.882213" lon="111.323363">
        <ele>249.713047</ele>
        <time>2026-08-18T08:37:43.000Z</time>
      </trkpt>
      <trkpt lat="22.882195" lon="111.323409">
        <ele>249.779199</ele>
        <time>2026-08-18T08:37:44.000Z</time>
      </trkpt>
      <trkpt lat="22.882172" lon="111.323451">
        <ele>249.843872</ele>
        <time>2026-08-18T08:37:45.000Z</time>
      </trkpt>
      <trkpt lat="22.882149" lon="111.323495">
        <ele>249.910834</ele>
        <time>2026-08-18T08:37:46.000Z</time>
      </trkpt>
      <trkpt lat="22.882126" lon="111.323535">
        <ele>249.973246</ele>
        <time>2026-08-18T08:37:47.000Z</time>
      </trkpt>
      <trkpt lat="22.882101" lon="111.323575">
        <ele>250.037226</ele>
        <time>2026-08-18T08:37:48.000Z</time>
      </trkpt>
      <trkpt lat="22.882076" lon="111.323615">
        <ele>250.101206</ele>
        <time>2026-08-18T08:37:49.000Z</time>
      </trkpt>
      <trkpt lat="22.882052" lon="111.323654">
        <ele>250.163285</ele>
        <time>2026-08-18T08:37:50.000Z</time>
      </trkpt>
      <trkpt lat="22.882028" lon="111.323693">
        <ele>250.225364</ele>
        <time>2026-08-18T08:37:51.000Z</time>
      </trkpt>
      <trkpt lat="22.882003" lon="111.323729">
        <ele>250.285036</ele>
        <time>2026-08-18T08:37:52.000Z</time>
      </trkpt>
      <trkpt lat="22.881976" lon="111.323763">
        <ele>250.344452</ele>
        <time>2026-08-18T08:37:53.000Z</time>
      </trkpt>
      <trkpt lat="22.881951" lon="111.323798">
        <ele>250.403072</ele>
        <time>2026-08-18T08:37:54.000Z</time>
      </trkpt>
      <trkpt lat="22.881925" lon="111.323834">
        <ele>250.463620</ele>
        <time>2026-08-18T08:37:55.000Z</time>
      </trkpt>
      <trkpt lat="22.881897" lon="111.323871">
        <ele>250.526999</ele>
        <time>2026-08-18T08:37:56.000Z</time>
      </trkpt>
      <trkpt lat="22.881869" lon="111.323906">
        <ele>250.588355</ele>
        <time>2026-08-18T08:37:57.000Z</time>
      </trkpt>
      <trkpt lat="22.881840" lon="111.323941">
        <ele>250.650663</ele>
        <time>2026-08-18T08:37:58.000Z</time>
      </trkpt>
      <trkpt lat="22.881813" lon="111.323976">
        <ele>250.711087</ele>
        <time>2026-08-18T08:37:59.000Z</time>
      </trkpt>
      <trkpt lat="22.881789" lon="111.324011">
        <ele>250.768838</ele>
        <time>2026-08-18T08:38:00.000Z</time>
      </trkpt>
      <trkpt lat="22.881763" lon="111.324044">
        <ele>250.826313</ele>
        <time>2026-08-18T08:38:01.000Z</time>
      </trkpt>
      <trkpt lat="22.881737" lon="111.324077">
        <ele>250.883788</ele>
        <time>2026-08-18T08:38:02.000Z</time>
      </trkpt>
      <trkpt lat="22.881713" lon="111.324111">
        <ele>250.940484</ele>
        <time>2026-08-18T08:38:03.000Z</time>
      </trkpt>
      <trkpt lat="22.881689" lon="111.324143">
        <ele>250.995101</ele>
        <time>2026-08-18T08:38:04.000Z</time>
      </trkpt>
      <trkpt lat="22.881665" lon="111.324172">
        <ele>251.046700</ele>
        <time>2026-08-18T08:38:05.000Z</time>
      </trkpt>
      <trkpt lat="22.881639" lon="111.324201">
        <ele>251.100262</ele>
        <time>2026-08-18T08:38:06.000Z</time>
      </trkpt>
      <trkpt lat="22.881614" lon="111.324231">
        <ele>251.153806</ele>
        <time>2026-08-18T08:38:07.000Z</time>
      </trkpt>
      <trkpt lat="22.881587" lon="111.324260">
        <ele>251.208380</ele>
        <time>2026-08-18T08:38:08.000Z</time>
      </trkpt>
      <trkpt lat="22.881560" lon="111.324289">
        <ele>251.262953</ele>
        <time>2026-08-18T08:38:09.000Z</time>
      </trkpt>
      <trkpt lat="22.881534" lon="111.324319">
        <ele>251.317471</ele>
        <time>2026-08-18T08:38:10.000Z</time>
      </trkpt>
      <trkpt lat="22.881506" lon="111.324350">
        <ele>251.374935</ele>
        <time>2026-08-18T08:38:11.000Z</time>
      </trkpt>
      <trkpt lat="22.881479" lon="111.324380">
        <ele>251.430447</ele>
        <time>2026-08-18T08:38:12.000Z</time>
      </trkpt>
      <trkpt lat="22.881453" lon="111.324411">
        <ele>251.485937</ele>
        <time>2026-08-18T08:38:13.000Z</time>
      </trkpt>
      <trkpt lat="22.881428" lon="111.324442">
        <ele>251.540470</ele>
        <time>2026-08-18T08:38:14.000Z</time>
      </trkpt>
      <trkpt lat="22.881402" lon="111.324474">
        <ele>251.596946</ele>
        <time>2026-08-18T08:38:15.000Z</time>
      </trkpt>
      <trkpt lat="22.881379" lon="111.324506">
        <ele>251.650668</ele>
        <time>2026-08-18T08:38:16.000Z</time>
      </trkpt>
      <trkpt lat="22.881354" lon="111.324539">
        <ele>251.707220</ele>
        <time>2026-08-18T08:38:17.000Z</time>
      </trkpt>
      <trkpt lat="22.881330" lon="111.324570">
        <ele>251.760817</ele>
        <time>2026-08-18T08:38:18.000Z</time>
      </trkpt>
      <trkpt lat="22.881302" lon="111.324602">
        <ele>251.819233</ele>
        <time>2026-08-18T08:38:19.000Z</time>
      </trkpt>
      <trkpt lat="22.881276" lon="111.324635">
        <ele>251.876709</ele>
        <time>2026-08-18T08:38:20.000Z</time>
      </trkpt>
      <trkpt lat="22.881249" lon="111.324667">
        <ele>251.934145</ele>
        <time>2026-08-18T08:38:21.000Z</time>
      </trkpt>
      <trkpt lat="22.881223" lon="111.324701">
        <ele>251.992632</ele>
        <time>2026-08-18T08:38:22.000Z</time>
      </trkpt>
      <trkpt lat="22.881196" lon="111.324734">
        <ele>252.051051</ele>
        <time>2026-08-18T08:38:23.000Z</time>
      </trkpt>
      <trkpt lat="22.881168" lon="111.324768">
        <ele>252.111414</ele>
        <time>2026-08-18T08:38:24.000Z</time>
      </trkpt>
      <trkpt lat="22.881141" lon="111.324803">
        <ele>252.173447</ele>
        <time>2026-08-18T08:38:25.000Z</time>
      </trkpt>
      <trkpt lat="22.881114" lon="111.324836">
        <ele>252.237064</ele>
        <time>2026-08-18T08:38:26.000Z</time>
      </trkpt>
      <trkpt lat="22.881086" lon="111.324871">
        <ele>252.303879</ele>
        <time>2026-08-18T08:38:27.000Z</time>
      </trkpt>
      <trkpt lat="22.881058" lon="111.324904">
        <ele>252.368546</ele>
        <time>2026-08-18T08:38:28.000Z</time>
      </trkpt>
      <trkpt lat="22.881029" lon="111.324935">
        <ele>252.432227</ele>
        <time>2026-08-18T08:38:29.000Z</time>
      </trkpt>
      <trkpt lat="22.881000" lon="111.324967">
        <ele>252.496928</ele>
        <time>2026-08-18T08:38:30.000Z</time>
      </trkpt>
      <trkpt lat="22.880971" lon="111.324997">
        <ele>252.559607</ele>
        <time>2026-08-18T08:38:31.000Z</time>
      </trkpt>
      <trkpt lat="22.880944" lon="111.325028">
        <ele>252.621098</ele>
        <time>2026-08-18T08:38:32.000Z</time>
      </trkpt>
      <trkpt lat="22.880914" lon="111.325057">
        <ele>252.683950</ele>
        <time>2026-08-18T08:38:33.000Z</time>
      </trkpt>
      <trkpt lat="22.880883" lon="111.325087">
        <ele>252.748930</ele>
        <time>2026-08-18T08:38:34.000Z</time>
      </trkpt>
      <trkpt lat="22.880852" lon="111.325115">
        <ele>252.812027</ele>
        <time>2026-08-18T08:38:35.000Z</time>
      </trkpt>
      <trkpt lat="22.880824" lon="111.325142">
        <ele>252.870626</ele>
        <time>2026-08-18T08:38:36.000Z</time>
      </trkpt>
      <trkpt lat="22.880795" lon="111.325167">
        <ele>252.928567</ele>
        <time>2026-08-18T08:38:37.000Z</time>
      </trkpt>
      <trkpt lat="22.880763" lon="111.325191">
        <ele>252.989422</ele>
        <time>2026-08-18T08:38:38.000Z</time>
      </trkpt>
      <trkpt lat="22.880731" lon="111.325217">
        <ele>253.051961</ele>
        <time>2026-08-18T08:38:39.000Z</time>
      </trkpt>
      <trkpt lat="22.880699" lon="111.325243">
        <ele>253.114500</ele>
        <time>2026-08-18T08:38:40.000Z</time>
      </trkpt>
      <trkpt lat="22.880665" lon="111.325266">
        <ele>253.177180</ele>
        <time>2026-08-18T08:38:41.000Z</time>
      </trkpt>
      <trkpt lat="22.880631" lon="111.325288">
        <ele>253.239110</ele>
        <time>2026-08-18T08:38:42.000Z</time>
      </trkpt>
      <trkpt lat="22.880596" lon="111.325308">
        <ele>253.300995</ele>
        <time>2026-08-18T08:38:43.000Z</time>
      </trkpt>
      <trkpt lat="22.880560" lon="111.325328">
        <ele>253.364267</ele>
        <time>2026-08-18T08:38:44.000Z</time>
      </trkpt>
      <trkpt lat="22.880525" lon="111.325348">
        <ele>253.426152</ele>
        <time>2026-08-18T08:38:45.000Z</time>
      </trkpt>
      <trkpt lat="22.880489" lon="111.325368">
        <ele>253.489425</ele>
        <time>2026-08-18T08:38:46.000Z</time>
      </trkpt>
      <trkpt lat="22.880454" lon="111.325386">
        <ele>253.550020</ele>
        <time>2026-08-18T08:38:47.000Z</time>
      </trkpt>
      <trkpt lat="22.880418" lon="111.325402">
        <ele>253.610883</ele>
        <time>2026-08-18T08:38:48.000Z</time>
      </trkpt>
      <trkpt lat="22.880382" lon="111.325421">
        <ele>253.673512</ele>
        <time>2026-08-18T08:38:49.000Z</time>
      </trkpt>
      <trkpt lat="22.880347" lon="111.325440">
        <ele>253.734738</ele>
        <time>2026-08-18T08:38:50.000Z</time>
      </trkpt>
      <trkpt lat="22.880311" lon="111.325459">
        <ele>253.797368</ele>
        <time>2026-08-18T08:38:51.000Z</time>
      </trkpt>
      <trkpt lat="22.880274" lon="111.325477">
        <ele>253.860805</ele>
        <time>2026-08-18T08:38:52.000Z</time>
      </trkpt>
      <trkpt lat="22.880238" lon="111.325492">
        <ele>253.921136</ele>
        <time>2026-08-18T08:38:53.000Z</time>
      </trkpt>
      <trkpt lat="22.880201" lon="111.325512">
        <ele>253.985806</ele>
        <time>2026-08-18T08:38:54.000Z</time>
      </trkpt>
      <trkpt lat="22.880165" lon="111.325530">
        <ele>254.047818</ele>
        <time>2026-08-18T08:38:55.000Z</time>
      </trkpt>
      <trkpt lat="22.880129" lon="111.325549">
        <ele>254.110448</ele>
        <time>2026-08-18T08:38:56.000Z</time>
      </trkpt>
      <trkpt lat="22.880093" lon="111.325567">
        <ele>254.172460</ele>
        <time>2026-08-18T08:38:57.000Z</time>
      </trkpt>
      <trkpt lat="22.880058" lon="111.325584">
        <ele>254.232452</ele>
        <time>2026-08-18T08:38:58.000Z</time>
      </trkpt>
      <trkpt lat="22.880022" lon="111.325599">
        <ele>254.292783</ele>
        <time>2026-08-18T08:38:59.000Z</time>
      </trkpt>
      <trkpt lat="22.879985" lon="111.325615">
        <ele>254.355097</ele>
        <time>2026-08-18T08:39:00.000Z</time>
      </trkpt>
      <trkpt lat="22.879949" lon="111.325631">
        <ele>254.415960</ele>
        <time>2026-08-18T08:39:01.000Z</time>
      </trkpt>
      <trkpt lat="22.879913" lon="111.325648">
        <ele>254.477383</ele>
        <time>2026-08-18T08:39:02.000Z</time>
      </trkpt>
      <trkpt lat="22.879878" lon="111.325664">
        <ele>254.536801</ele>
        <time>2026-08-18T08:39:03.000Z</time>
      </trkpt>
      <trkpt lat="22.879842" lon="111.325681">
        <ele>254.598225</ele>
        <time>2026-08-18T08:39:04.000Z</time>
      </trkpt>
      <trkpt lat="22.879805" lon="111.325699">
        <ele>254.661662</ele>
        <time>2026-08-18T08:39:05.000Z</time>
      </trkpt>
      <trkpt lat="22.879769" lon="111.325718">
        <ele>254.724291</ele>
        <time>2026-08-18T08:39:06.000Z</time>
      </trkpt>
      <trkpt lat="22.879734" lon="111.325737">
        <ele>254.785517</ele>
        <time>2026-08-18T08:39:07.000Z</time>
      </trkpt>
      <trkpt lat="22.879698" lon="111.325755">
        <ele>254.847530</ele>
        <time>2026-08-18T08:39:08.000Z</time>
      </trkpt>
      <trkpt lat="22.879662" lon="111.325774">
        <ele>254.910159</ele>
        <time>2026-08-18T08:39:09.000Z</time>
      </trkpt>
      <trkpt lat="22.879628" lon="111.325791">
        <ele>254.968701</ele>
        <time>2026-08-18T08:39:10.000Z</time>
      </trkpt>
      <trkpt lat="22.879593" lon="111.325807">
        <ele>255.026441</ele>
        <time>2026-08-18T08:39:11.000Z</time>
      </trkpt>
      <trkpt lat="22.879558" lon="111.325821">
        <ele>255.083152</ele>
        <time>2026-08-18T08:39:12.000Z</time>
      </trkpt>
      <trkpt lat="22.879526" lon="111.325835">
        <ele>255.135608</ele>
        <time>2026-08-18T08:39:13.000Z</time>
      </trkpt>
      <trkpt lat="22.879495" lon="111.325850">
        <ele>255.187210</ele>
        <time>2026-08-18T08:39:14.000Z</time>
      </trkpt>
      <trkpt lat="22.879461" lon="111.325867">
        <ele>255.244124</ele>
        <time>2026-08-18T08:39:15.000Z</time>
      </trkpt>
      <trkpt lat="22.879427" lon="111.325884">
        <ele>255.301037</ele>
        <time>2026-08-18T08:39:16.000Z</time>
      </trkpt>
      <trkpt lat="22.879392" lon="111.325903">
        <ele>255.360534</ele>
        <time>2026-08-18T08:39:17.000Z</time>
      </trkpt>
      <trkpt lat="22.879356" lon="111.325919">
        <ele>255.419678</ele>
        <time>2026-08-18T08:39:18.000Z</time>
      </trkpt>
      <trkpt lat="22.879320" lon="111.325935">
        <ele>255.478822</ele>
        <time>2026-08-18T08:39:19.000Z</time>
      </trkpt>
      <trkpt lat="22.879284" lon="111.325952">
        <ele>255.538511</ele>
        <time>2026-08-18T08:39:20.000Z</time>
      </trkpt>
      <trkpt lat="22.879249" lon="111.325970">
        <ele>255.597394</ele>
        <time>2026-08-18T08:39:21.000Z</time>
      </trkpt>
      <trkpt lat="22.879214" lon="111.325988">
        <ele>255.656278</ele>
        <time>2026-08-18T08:39:22.000Z</time>
      </trkpt>
      <trkpt lat="22.879179" lon="111.326009">
        <ele>255.717080</ele>
        <time>2026-08-18T08:39:23.000Z</time>
      </trkpt>
      <trkpt lat="22.879142" lon="111.326027">
        <ele>255.778726</ele>
        <time>2026-08-18T08:39:24.000Z</time>
      </trkpt>
      <trkpt lat="22.879105" lon="111.326044">
        <ele>255.839812</ele>
        <time>2026-08-18T08:39:25.000Z</time>
      </trkpt>
      <trkpt lat="22.879066" lon="111.326062">
        <ele>255.904244</ele>
        <time>2026-08-18T08:39:26.000Z</time>
      </trkpt>
      <trkpt lat="22.879027" lon="111.326078">
        <ele>255.967632</ele>
        <time>2026-08-18T08:39:27.000Z</time>
      </trkpt>
      <trkpt lat="22.878989" lon="111.326092">
        <ele>256.028644</ele>
        <time>2026-08-18T08:39:28.000Z</time>
      </trkpt>
      <trkpt lat="22.878950" lon="111.326107">
        <ele>256.091550</ele>
        <time>2026-08-18T08:39:29.000Z</time>
      </trkpt>
      <trkpt lat="22.878912" lon="111.326127">
        <ele>256.155758</ele>
        <time>2026-08-18T08:39:30.000Z</time>
      </trkpt>
      <trkpt lat="22.878874" lon="111.326146">
        <ele>256.219367</ele>
        <time>2026-08-18T08:39:31.000Z</time>
      </trkpt>
      <trkpt lat="22.878836" lon="111.326162">
        <ele>256.281336</ele>
        <time>2026-08-18T08:39:32.000Z</time>
      </trkpt>
      <trkpt lat="22.878798" lon="111.326178">
        <ele>256.343305</ele>
        <time>2026-08-18T08:39:33.000Z</time>
      </trkpt>
      <trkpt lat="22.878759" lon="111.326197">
        <ele>256.408298</ele>
        <time>2026-08-18T08:39:34.000Z</time>
      </trkpt>
      <trkpt lat="22.878721" lon="111.326213">
        <ele>256.470266</ele>
        <time>2026-08-18T08:39:35.000Z</time>
      </trkpt>
      <trkpt lat="22.878683" lon="111.326231">
        <ele>256.533302</ele>
        <time>2026-08-18T08:39:36.000Z</time>
      </trkpt>
      <trkpt lat="22.878646" lon="111.326249">
        <ele>256.594948</ele>
        <time>2026-08-18T08:39:37.000Z</time>
      </trkpt>
      <trkpt lat="22.878605" lon="111.326269">
        <ele>256.663289</ele>
        <time>2026-08-18T08:39:38.000Z</time>
      </trkpt>
      <trkpt lat="22.878568" lon="111.326285">
        <ele>256.723842</ele>
        <time>2026-08-18T08:39:39.000Z</time>
      </trkpt>
      <trkpt lat="22.878532" lon="111.326304">
        <ele>256.784703</ele>
        <time>2026-08-18T08:39:40.000Z</time>
      </trkpt>
      <trkpt lat="22.878495" lon="111.326320">
        <ele>256.845257</ele>
        <time>2026-08-18T08:39:41.000Z</time>
      </trkpt>
      <trkpt lat="22.878459" lon="111.326339">
        <ele>256.906117</ele>
        <time>2026-08-18T08:39:42.000Z</time>
      </trkpt>
      <trkpt lat="22.878422" lon="111.326358">
        <ele>256.968349</ele>
        <time>2026-08-18T08:39:43.000Z</time>
      </trkpt>
      <trkpt lat="22.878385" lon="111.326378">
        <ele>257.031192</ele>
        <time>2026-08-18T08:39:44.000Z</time>
      </trkpt>
      <trkpt lat="22.878347" lon="111.326393">
        <ele>257.092668</ele>
        <time>2026-08-18T08:39:45.000Z</time>
      </trkpt>
      <trkpt lat="22.878310" lon="111.326410">
        <ele>257.153754</ele>
        <time>2026-08-18T08:39:46.000Z</time>
      </trkpt>
      <trkpt lat="22.878273" lon="111.326427">
        <ele>257.214840</ele>
        <time>2026-08-18T08:39:47.000Z</time>
      </trkpt>
      <trkpt lat="22.878237" lon="111.326446">
        <ele>257.275701</ele>
        <time>2026-08-18T08:39:48.000Z</time>
      </trkpt>
      <trkpt lat="22.878200" lon="111.326464">
        <ele>257.337347</ele>
        <time>2026-08-18T08:39:49.000Z</time>
      </trkpt>
      <trkpt lat="22.878161" lon="111.326483">
        <ele>257.402340</ele>
        <time>2026-08-18T08:39:50.000Z</time>
      </trkpt>
      <trkpt lat="22.878123" lon="111.326502">
        <ele>257.465949</ele>
        <time>2026-08-18T08:39:51.000Z</time>
      </trkpt>
      <trkpt lat="22.878085" lon="111.326519">
        <ele>257.528438</ele>
        <time>2026-08-18T08:39:52.000Z</time>
      </trkpt>
      <trkpt lat="22.878046" lon="111.326536">
        <ele>257.592335</ele>
        <time>2026-08-18T08:39:53.000Z</time>
      </trkpt>
      <trkpt lat="22.878007" lon="111.326553">
        <ele>257.656232</ele>
        <time>2026-08-18T08:39:54.000Z</time>
      </trkpt>
      <trkpt lat="22.877970" lon="111.326559">
        <ele>257.712051</ele>
        <time>2026-08-18T08:39:55.000Z</time>
      </trkpt>
      <trkpt lat="22.877932" lon="111.326580">
        <ele>257.770462</ele>
        <time>2026-08-18T08:39:56.000Z</time>
      </trkpt>
      <trkpt lat="22.877894" lon="111.326600">
        <ele>257.828312</ele>
        <time>2026-08-18T08:39:57.000Z</time>
      </trkpt>
      <trkpt lat="22.877854" lon="111.326620">
        <ele>257.888638</ele>
        <time>2026-08-18T08:39:58.000Z</time>
      </trkpt>
      <trkpt lat="22.877815" lon="111.326640">
        <ele>257.947723</ele>
        <time>2026-08-18T08:39:59.000Z</time>
      </trkpt>
      <trkpt lat="22.877776" lon="111.326660">
        <ele>258.006808</ele>
        <time>2026-08-18T08:40:00.000Z</time>
      </trkpt>
      <trkpt lat="22.877737" lon="111.326679">
        <ele>258.065365</ele>
        <time>2026-08-18T08:40:01.000Z</time>
      </trkpt>
      <trkpt lat="22.877702" lon="111.326695">
        <ele>258.117387</ele>
        <time>2026-08-18T08:40:02.000Z</time>
      </trkpt>
      <trkpt lat="22.877667" lon="111.326712">
        <ele>258.169911</ele>
        <time>2026-08-18T08:40:03.000Z</time>
      </trkpt>
      <trkpt lat="22.877633" lon="111.326728">
        <ele>258.220674</ele>
        <time>2026-08-18T08:40:04.000Z</time>
      </trkpt>
      <trkpt lat="22.877597" lon="111.326745">
        <ele>258.274451</ele>
        <time>2026-08-18T08:40:05.000Z</time>
      </trkpt>
      <trkpt lat="22.877564" lon="111.326758">
        <ele>258.322540</ele>
        <time>2026-08-18T08:40:06.000Z</time>
      </trkpt>
      <trkpt lat="22.877531" lon="111.326774">
        <ele>258.372049</ele>
        <time>2026-08-18T08:40:07.000Z</time>
      </trkpt>
      <trkpt lat="22.877497" lon="111.326795">
        <ele>258.425635</ele>
        <time>2026-08-18T08:40:08.000Z</time>
      </trkpt>
      <trkpt lat="22.877465" lon="111.326814">
        <ele>258.475599</ele>
        <time>2026-08-18T08:40:09.000Z</time>
      </trkpt>
      <trkpt lat="22.877433" lon="111.326829">
        <ele>258.523345</ele>
        <time>2026-08-18T08:40:10.000Z</time>
      </trkpt>
      <trkpt lat="22.877401" lon="111.326847">
        <ele>258.572716</ele>
        <time>2026-08-18T08:40:11.000Z</time>
      </trkpt>
      <trkpt lat="22.877369" lon="111.326868">
        <ele>258.623939</ele>
        <time>2026-08-18T08:40:12.000Z</time>
      </trkpt>
      <trkpt lat="22.877337" lon="111.326890">
        <ele>258.675826</ele>
        <time>2026-08-18T08:40:13.000Z</time>
      </trkpt>
      <trkpt lat="22.877306" lon="111.326912">
        <ele>258.726561</ele>
        <time>2026-08-18T08:40:14.000Z</time>
      </trkpt>
      <trkpt lat="22.877273" lon="111.326937">
        <ele>258.781687</ele>
        <time>2026-08-18T08:40:15.000Z</time>
      </trkpt>
      <trkpt lat="22.877239" lon="111.326961">
        <ele>258.837243</ele>
        <time>2026-08-18T08:40:16.000Z</time>
      </trkpt>
      <trkpt lat="22.877206" lon="111.326984">
        <ele>258.890964</ele>
        <time>2026-08-18T08:40:17.000Z</time>
      </trkpt>
      <trkpt lat="22.877172" lon="111.327004">
        <ele>258.943937</ele>
        <time>2026-08-18T08:40:18.000Z</time>
      </trkpt>
      <trkpt lat="22.877138" lon="111.327029">
        <ele>259.000192</ele>
        <time>2026-08-18T08:40:19.000Z</time>
      </trkpt>
      <trkpt lat="22.877104" lon="111.327058">
        <ele>259.059425</ele>
        <time>2026-08-18T08:40:20.000Z</time>
      </trkpt>
      <trkpt lat="22.877070" lon="111.327086">
        <ele>259.117887</ele>
        <time>2026-08-18T08:40:21.000Z</time>
      </trkpt>
      <trkpt lat="22.877035" lon="111.327112">
        <ele>259.175984</ele>
        <time>2026-08-18T08:40:22.000Z</time>
      </trkpt>
      <trkpt lat="22.877004" lon="111.327136">
        <ele>259.228143</ele>
        <time>2026-08-18T08:40:23.000Z</time>
      </trkpt>
      <trkpt lat="22.876969" lon="111.327165">
        <ele>259.288459</ele>
        <time>2026-08-18T08:40:24.000Z</time>
      </trkpt>
      <trkpt lat="22.876935" lon="111.327192">
        <ele>259.346167</ele>
        <time>2026-08-18T08:40:25.000Z</time>
      </trkpt>
      <trkpt lat="22.876900" lon="111.327216">
        <ele>259.402877</ele>
        <time>2026-08-18T08:40:26.000Z</time>
      </trkpt>
      <trkpt lat="22.876864" lon="111.327241">
        <ele>259.461419</ele>
        <time>2026-08-18T08:40:27.000Z</time>
      </trkpt>
      <trkpt lat="22.876823" lon="111.327268">
        <ele>259.527110</ele>
        <time>2026-08-18T08:40:28.000Z</time>
      </trkpt>
      <trkpt lat="22.876783" lon="111.327295">
        <ele>259.591634</ele>
        <time>2026-08-18T08:40:29.000Z</time>
      </trkpt>
      <trkpt lat="22.876751" lon="111.327319">
        <ele>259.644915</ele>
        <time>2026-08-18T08:40:30.000Z</time>
      </trkpt>
      <trkpt lat="22.876707" lon="111.327348">
        <ele>259.715428</ele>
        <time>2026-08-18T08:40:31.000Z</time>
      </trkpt>
      <trkpt lat="22.876666" lon="111.327372">
        <ele>259.779237</ele>
        <time>2026-08-18T08:40:32.000Z</time>
      </trkpt>
      <trkpt lat="22.876638" lon="111.327409">
        <ele>259.839665</ele>
        <time>2026-08-18T08:40:33.000Z</time>
      </trkpt>
      <trkpt lat="22.876605" lon="111.327435">
        <ele>259.895523</ele>
        <time>2026-08-18T08:40:34.000Z</time>
      </trkpt>
      <trkpt lat="22.876572" lon="111.327463">
        <ele>259.952900</ele>
        <time>2026-08-18T08:40:35.000Z</time>
      </trkpt>
      <trkpt lat="22.876537" lon="111.327495">
        <ele>260.015586</ele>
        <time>2026-08-18T08:40:36.000Z</time>
      </trkpt>
      <trkpt lat="22.876499" lon="111.327526">
        <ele>260.080702</ele>
        <time>2026-08-18T08:40:37.000Z</time>
      </trkpt>
      <trkpt lat="22.876462" lon="111.327553">
        <ele>260.141775</ele>
        <time>2026-08-18T08:40:38.000Z</time>
      </trkpt>
      <trkpt lat="22.876425" lon="111.327580">
        <ele>260.210033</ele>
        <time>2026-08-18T08:40:39.000Z</time>
      </trkpt>
      <trkpt lat="22.876387" lon="111.327609">
        <ele>260.286142</ele>
        <time>2026-08-18T08:40:40.000Z</time>
      </trkpt>
      <trkpt lat="22.876350" lon="111.327638">
        <ele>260.360916</ele>
        <time>2026-08-18T08:40:41.000Z</time>
      </trkpt>
      <trkpt lat="22.876314" lon="111.327667">
        <ele>260.434369</ele>
        <time>2026-08-18T08:40:42.000Z</time>
      </trkpt>
      <trkpt lat="22.876278" lon="111.327693">
        <ele>260.505216</ele>
        <time>2026-08-18T08:40:43.000Z</time>
      </trkpt>
      <trkpt lat="22.876242" lon="111.327722">
        <ele>260.578668</ele>
        <time>2026-08-18T08:40:44.000Z</time>
      </trkpt>
      <trkpt lat="22.876203" lon="111.327750">
        <ele>260.655280</ele>
        <time>2026-08-18T08:40:45.000Z</time>
      </trkpt>
      <trkpt lat="22.876165" lon="111.327778">
        <ele>260.730530</ele>
        <time>2026-08-18T08:40:46.000Z</time>
      </trkpt>
      <trkpt lat="22.876128" lon="111.327804">
        <ele>260.802747</ele>
        <time>2026-08-18T08:40:47.000Z</time>
      </trkpt>
      <trkpt lat="22.876089" lon="111.327828">
        <ele>260.876200</ele>
        <time>2026-08-18T08:40:48.000Z</time>
      </trkpt>
      <trkpt lat="22.876048" lon="111.327854">
        <ele>260.953999</ele>
        <time>2026-08-18T08:40:49.000Z</time>
      </trkpt>
      <trkpt lat="22.876008" lon="111.327876">
        <ele>261.027469</ele>
        <time>2026-08-18T08:40:50.000Z</time>
      </trkpt>
      <trkpt lat="22.875966" lon="111.327898">
        <ele>261.103876</ele>
        <time>2026-08-18T08:40:51.000Z</time>
      </trkpt>
      <trkpt lat="22.875924" lon="111.327919">
        <ele>261.179639</ele>
        <time>2026-08-18T08:40:52.000Z</time>
      </trkpt>
      <trkpt lat="22.875882" lon="111.327940">
        <ele>261.255403</ele>
        <time>2026-08-18T08:40:53.000Z</time>
      </trkpt>
      <trkpt lat="22.875839" lon="111.327959">
        <ele>261.331468</ele>
        <time>2026-08-18T08:40:54.000Z</time>
      </trkpt>
      <trkpt lat="22.875798" lon="111.327978">
        <ele>261.404509</ele>
        <time>2026-08-18T08:40:55.000Z</time>
      </trkpt>
      <trkpt lat="22.875757" lon="111.327995">
        <ele>261.476418</ele>
        <time>2026-08-18T08:40:56.000Z</time>
      </trkpt>
      <trkpt lat="22.875715" lon="111.328011">
        <ele>261.549346</ele>
        <time>2026-08-18T08:40:57.000Z</time>
      </trkpt>
      <trkpt lat="22.875672" lon="111.328026">
        <ele>261.623346</ele>
        <time>2026-08-18T08:40:58.000Z</time>
      </trkpt>
      <trkpt lat="22.875629" lon="111.328040">
        <ele>261.696898</ele>
        <time>2026-08-18T08:40:59.000Z</time>
      </trkpt>
      <trkpt lat="22.875587" lon="111.328052">
        <ele>261.768055</ele>
        <time>2026-08-18T08:41:00.000Z</time>
      </trkpt>
      <trkpt lat="22.875546" lon="111.328063">
        <ele>261.837251</ele>
        <time>2026-08-18T08:41:01.000Z</time>
      </trkpt>
      <trkpt lat="22.875505" lon="111.328076">
        <ele>261.907233</ele>
        <time>2026-08-18T08:41:02.000Z</time>
      </trkpt>
      <trkpt lat="22.875467" lon="111.328089">
        <ele>261.972511</ele>
        <time>2026-08-18T08:41:03.000Z</time>
      </trkpt>
      <trkpt lat="22.875425" lon="111.328099">
        <ele>262.042960</ele>
        <time>2026-08-18T08:41:04.000Z</time>
      </trkpt>
      <trkpt lat="22.875382" lon="111.328111">
        <ele>262.115702</ele>
        <time>2026-08-18T08:41:05.000Z</time>
      </trkpt>
      <trkpt lat="22.875339" lon="111.328120">
        <ele>262.187451</ele>
        <time>2026-08-18T08:41:06.000Z</time>
      </trkpt>
      <trkpt lat="22.875298" lon="111.328132">
        <ele>262.257025</ele>
        <time>2026-08-18T08:41:07.000Z</time>
      </trkpt>
      <trkpt lat="22.875257" lon="111.328140">
        <ele>262.325276</ele>
        <time>2026-08-18T08:41:08.000Z</time>
      </trkpt>
      <trkpt lat="22.875216" lon="111.328154">
        <ele>262.395696</ele>
        <time>2026-08-18T08:41:09.000Z</time>
      </trkpt>
      <trkpt lat="22.875176" lon="111.328166">
        <ele>262.463689</ele>
        <time>2026-08-18T08:41:10.000Z</time>
      </trkpt>
      <trkpt lat="22.875135" lon="111.328179">
        <ele>262.533671</ele>
        <time>2026-08-18T08:41:11.000Z</time>
      </trkpt>
      <trkpt lat="22.875092" lon="111.328189">
        <ele>262.605721</ele>
        <time>2026-08-18T08:41:12.000Z</time>
      </trkpt>
      <trkpt lat="22.875050" lon="111.328202">
        <ele>262.677277</ele>
        <time>2026-08-18T08:41:13.000Z</time>
      </trkpt>
      <trkpt lat="22.875011" lon="111.328215">
        <ele>262.744119</ele>
        <time>2026-08-18T08:41:14.000Z</time>
      </trkpt>
      <trkpt lat="22.874971" lon="111.328225">
        <ele>262.811371</ele>
        <time>2026-08-18T08:41:15.000Z</time>
      </trkpt>
      <trkpt lat="22.874929" lon="111.328232">
        <ele>262.880990</ele>
        <time>2026-08-18T08:41:16.000Z</time>
      </trkpt>
      <trkpt lat="22.874888" lon="111.328243">
        <ele>262.950186</ele>
        <time>2026-08-18T08:41:17.000Z</time>
      </trkpt>
      <trkpt lat="22.874847" lon="111.328254">
        <ele>263.019382</ele>
        <time>2026-08-18T08:41:18.000Z</time>
      </trkpt>
      <trkpt lat="22.874804" lon="111.328263">
        <ele>263.091131</ele>
        <time>2026-08-18T08:41:19.000Z</time>
      </trkpt>
      <trkpt lat="22.874762" lon="111.328272">
        <ele>263.138022</ele>
        <time>2026-08-18T08:41:20.000Z</time>
      </trkpt>
      <trkpt lat="22.874720" lon="111.328280">
        <ele>263.174181</ele>
        <time>2026-08-18T08:41:21.000Z</time>
      </trkpt>
      <trkpt lat="22.874679" lon="111.328292">
        <ele>263.210189</ele>
        <time>2026-08-18T08:41:22.000Z</time>
      </trkpt>
      <trkpt lat="22.874637" lon="111.328303">
        <ele>263.246825</ele>
        <time>2026-08-18T08:41:23.000Z</time>
      </trkpt>
      <trkpt lat="22.874597" lon="111.328312">
        <ele>263.281464</ele>
        <time>2026-08-18T08:41:24.000Z</time>
      </trkpt>
      <trkpt lat="22.874557" lon="111.328322">
        <ele>263.316270</ele>
        <time>2026-08-18T08:41:25.000Z</time>
      </trkpt>
      <trkpt lat="22.874518" lon="111.328333">
        <ele>263.350438</ele>
        <time>2026-08-18T08:41:26.000Z</time>
      </trkpt>
      <trkpt lat="22.874481" lon="111.328346">
        <ele>263.383416</ele>
        <time>2026-08-18T08:41:27.000Z</time>
      </trkpt>
      <trkpt lat="22.874445" lon="111.328356">
        <ele>263.414926</ele>
        <time>2026-08-18T08:41:28.000Z</time>
      </trkpt>
      <trkpt lat="22.874409" lon="111.328367">
        <ele>263.446639</ele>
        <time>2026-08-18T08:41:29.000Z</time>
      </trkpt>
      <trkpt lat="22.874373" lon="111.328379">
        <ele>263.478572</ele>
        <time>2026-08-18T08:41:30.000Z</time>
      </trkpt>
      <trkpt lat="22.874336" lon="111.328392">
        <ele>263.511549</ele>
        <time>2026-08-18T08:41:31.000Z</time>
      </trkpt>
      <trkpt lat="22.874300" lon="111.328404">
        <ele>263.543483</ele>
        <time>2026-08-18T08:41:32.000Z</time>
      </trkpt>
      <trkpt lat="22.874263" lon="111.328419">
        <ele>263.576974</ele>
        <time>2026-08-18T08:41:33.000Z</time>
      </trkpt>
      <trkpt lat="22.874226" lon="111.328433">
        <ele>263.610200</ele>
        <time>2026-08-18T08:41:34.000Z</time>
      </trkpt>
      <trkpt lat="22.874188" lon="111.328448">
        <ele>263.644487</ele>
        <time>2026-08-18T08:41:35.000Z</time>
      </trkpt>
      <trkpt lat="22.874152" lon="111.328464">
        <ele>263.677474</ele>
        <time>2026-08-18T08:41:36.000Z</time>
      </trkpt>
      <trkpt lat="22.874118" lon="111.328482">
        <ele>263.709551</ele>
        <time>2026-08-18T08:41:37.000Z</time>
      </trkpt>
      <trkpt lat="22.874085" lon="111.328501">
        <ele>263.741227</ele>
        <time>2026-08-18T08:41:38.000Z</time>
      </trkpt>
      <trkpt lat="22.874051" lon="111.328524">
        <ele>263.775198</ele>
        <time>2026-08-18T08:41:39.000Z</time>
      </trkpt>
      <trkpt lat="22.874019" lon="111.328546">
        <ele>263.807319</ele>
        <time>2026-08-18T08:41:40.000Z</time>
      </trkpt>
      <trkpt lat="22.873986" lon="111.328570">
        <ele>263.841002</ele>
        <time>2026-08-18T08:41:41.000Z</time>
      </trkpt>
      <trkpt lat="22.873952" lon="111.328594">
        <ele>263.875394</ele>
        <time>2026-08-18T08:41:42.000Z</time>
      </trkpt>
      <trkpt lat="22.873918" lon="111.328619">
        <ele>263.910217</ele>
        <time>2026-08-18T08:41:43.000Z</time>
      </trkpt>
      <trkpt lat="22.873884" lon="111.328646">
        <ele>263.945940</ele>
        <time>2026-08-18T08:41:44.000Z</time>
      </trkpt>
      <trkpt lat="22.873850" lon="111.328672">
        <ele>263.981208</ele>
        <time>2026-08-18T08:41:45.000Z</time>
      </trkpt>
      <trkpt lat="22.873818" lon="111.328701">
        <ele>264.016558</ele>
        <time>2026-08-18T08:41:46.000Z</time>
      </trkpt>
      <trkpt lat="22.873786" lon="111.328731">
        <ele>264.052413</ele>
        <time>2026-08-18T08:41:47.000Z</time>
      </trkpt>
      <trkpt lat="22.873755" lon="111.328763">
        <ele>264.088690</ele>
        <time>2026-08-18T08:41:48.000Z</time>
      </trkpt>
      <trkpt lat="22.873722" lon="111.328796">
        <ele>264.126739</ele>
        <time>2026-08-18T08:41:49.000Z</time>
      </trkpt>
      <trkpt lat="22.873690" lon="111.328828">
        <ele>264.163635</ele>
        <time>2026-08-18T08:41:50.000Z</time>
      </trkpt>
      <trkpt lat="22.873659" lon="111.328861">
        <ele>264.200455</ele>
        <time>2026-08-18T08:41:51.000Z</time>
      </trkpt>
      <trkpt lat="22.873627" lon="111.328896">
        <ele>264.238978</ele>
        <time>2026-08-18T08:41:52.000Z</time>
      </trkpt>
      <trkpt lat="22.873596" lon="111.328930">
        <ele>264.276348</ele>
        <time>2026-08-18T08:41:53.000Z</time>
      </trkpt>
      <trkpt lat="22.873564" lon="111.328964">
        <ele>264.314321</ele>
        <time>2026-08-18T08:41:54.000Z</time>
      </trkpt>
      <trkpt lat="22.873532" lon="111.328998">
        <ele>264.352293</ele>
        <time>2026-08-18T08:41:55.000Z</time>
      </trkpt>
      <trkpt lat="22.873500" lon="111.329032">
        <ele>264.390265</ele>
        <time>2026-08-18T08:41:56.000Z</time>
      </trkpt>
      <trkpt lat="22.873468" lon="111.329064">
        <ele>264.427161</ele>
        <time>2026-08-18T08:41:57.000Z</time>
      </trkpt>
      <trkpt lat="22.873439" lon="111.329097">
        <ele>264.462790</ele>
        <time>2026-08-18T08:41:58.000Z</time>
      </trkpt>
      <trkpt lat="22.873409" lon="111.329129">
        <ele>264.498457</ele>
        <time>2026-08-18T08:41:59.000Z</time>
      </trkpt>
      <trkpt lat="22.873376" lon="111.329160">
        <ele>264.535465</ele>
        <time>2026-08-18T08:42:00.000Z</time>
      </trkpt>
      <trkpt lat="22.873344" lon="111.329195">
        <ele>264.573988</ele>
        <time>2026-08-18T08:42:01.000Z</time>
      </trkpt>
      <trkpt lat="22.873312" lon="111.329231">
        <ele>264.613069</ele>
        <time>2026-08-18T08:42:02.000Z</time>
      </trkpt>
      <trkpt lat="22.873280" lon="111.329267">
        <ele>264.642556</ele>
        <time>2026-08-18T08:42:03.000Z</time>
      </trkpt>
      <trkpt lat="22.873248" lon="111.329303">
        <ele>264.654677</ele>
        <time>2026-08-18T08:42:04.000Z</time>
      </trkpt>
      <trkpt lat="22.873214" lon="111.329339">
        <ele>264.667170</ele>
        <time>2026-08-18T08:42:05.000Z</time>
      </trkpt>
      <trkpt lat="22.873181" lon="111.329374">
        <ele>264.679305</ele>
        <time>2026-08-18T08:42:06.000Z</time>
      </trkpt>
      <trkpt lat="22.873149" lon="111.329409">
        <ele>264.691254</ele>
        <time>2026-08-18T08:42:07.000Z</time>
      </trkpt>
      <trkpt lat="22.873115" lon="111.329443">
        <ele>264.703413</ele>
        <time>2026-08-18T08:42:08.000Z</time>
      </trkpt>
      <trkpt lat="22.873082" lon="111.329476">
        <ele>264.715214</ele>
        <time>2026-08-18T08:42:09.000Z</time>
      </trkpt>
      <trkpt lat="22.873049" lon="111.329510">
        <ele>264.727181</ele>
        <time>2026-08-18T08:42:10.000Z</time>
      </trkpt>
      <trkpt lat="22.873016" lon="111.329544">
        <ele>264.739148</ele>
        <time>2026-08-18T08:42:11.000Z</time>
      </trkpt>
      <trkpt lat="22.872982" lon="111.329577">
        <ele>264.751145</ele>
        <time>2026-08-18T08:42:12.000Z</time>
      </trkpt>
      <trkpt lat="22.872948" lon="111.329611">
        <ele>264.763304</ele>
        <time>2026-08-18T08:42:13.000Z</time>
      </trkpt>
      <trkpt lat="22.872915" lon="111.329645">
        <ele>264.775271</ele>
        <time>2026-08-18T08:42:14.000Z</time>
      </trkpt>
      <trkpt lat="22.872878" lon="111.329679">
        <ele>264.788021</ele>
        <time>2026-08-18T08:42:15.000Z</time>
      </trkpt>
      <trkpt lat="22.872842" lon="111.329712">
        <ele>264.800415</ele>
        <time>2026-08-18T08:42:16.000Z</time>
      </trkpt>
      <trkpt lat="22.872806" lon="111.329746">
        <ele>264.812966</ele>
        <time>2026-08-18T08:42:17.000Z</time>
      </trkpt>
      <trkpt lat="22.872769" lon="111.329777">
        <ele>264.825259</ele>
        <time>2026-08-18T08:42:18.000Z</time>
      </trkpt>
      <trkpt lat="22.872731" lon="111.329807">
        <ele>264.837618</ele>
        <time>2026-08-18T08:42:19.000Z</time>
      </trkpt>
      <trkpt lat="22.872692" lon="111.329835">
        <ele>264.849916</ele>
        <time>2026-08-18T08:42:20.000Z</time>
      </trkpt>
      <trkpt lat="22.872654" lon="111.329862">
        <ele>264.861862</ele>
        <time>2026-08-18T08:42:21.000Z</time>
      </trkpt>
      <trkpt lat="22.872615" lon="111.329890">
        <ele>264.874160</ele>
        <time>2026-08-18T08:42:22.000Z</time>
      </trkpt>
      <trkpt lat="22.872575" lon="111.329916">
        <ele>264.886422</ele>
        <time>2026-08-18T08:42:23.000Z</time>
      </trkpt>
      <trkpt lat="22.872534" lon="111.329940">
        <ele>264.898674</ele>
        <time>2026-08-18T08:42:24.000Z</time>
      </trkpt>
      <trkpt lat="22.872494" lon="111.329960">
        <ele>264.910257</ele>
        <time>2026-08-18T08:42:25.000Z</time>
      </trkpt>
      <trkpt lat="22.872454" lon="111.329981">
        <ele>264.921943</ele>
        <time>2026-08-18T08:42:26.000Z</time>
      </trkpt>
      <trkpt lat="22.872412" lon="111.330001">
        <ele>264.934006</ele>
        <time>2026-08-18T08:42:27.000Z</time>
      </trkpt>
      <trkpt lat="22.872371" lon="111.330020">
        <ele>264.945731</ele>
        <time>2026-08-18T08:42:28.000Z</time>
      </trkpt>
      <trkpt lat="22.872330" lon="111.330038">
        <ele>264.957363</ele>
        <time>2026-08-18T08:42:29.000Z</time>
      </trkpt>
      <trkpt lat="22.872288" lon="111.330055">
        <ele>264.969153</ele>
        <time>2026-08-18T08:42:30.000Z</time>
      </trkpt>
      <trkpt lat="22.872247" lon="111.330072">
        <ele>264.980696</ele>
        <time>2026-08-18T08:42:31.000Z</time>
      </trkpt>
      <trkpt lat="22.872203" lon="111.330087">
        <ele>264.992826</ele>
        <time>2026-08-18T08:42:32.000Z</time>
      </trkpt>
      <trkpt lat="22.872161" lon="111.330104">
        <ele>265.004615</ele>
        <time>2026-08-18T08:42:33.000Z</time>
      </trkpt>
      <trkpt lat="22.872119" lon="111.330119">
        <ele>265.016244</ele>
        <time>2026-08-18T08:42:34.000Z</time>
      </trkpt>
      <trkpt lat="22.872077" lon="111.330132">
        <ele>265.027731</ele>
        <time>2026-08-18T08:42:35.000Z</time>
      </trkpt>
      <trkpt lat="22.872037" lon="111.330144">
        <ele>265.038645</ele>
        <time>2026-08-18T08:42:36.000Z</time>
      </trkpt>
      <trkpt lat="22.871996" lon="111.330159">
        <ele>265.050025</ele>
        <time>2026-08-18T08:42:37.000Z</time>
      </trkpt>
      <trkpt lat="22.871954" lon="111.330173">
        <ele>265.061580</ele>
        <time>2026-08-18T08:42:38.000Z</time>
      </trkpt>
      <trkpt lat="22.871914" lon="111.330191">
        <ele>265.072969</ele>
        <time>2026-08-18T08:42:39.000Z</time>
      </trkpt>
      <trkpt lat="22.871874" lon="111.330203">
        <ele>265.083884</ele>
        <time>2026-08-18T08:42:40.000Z</time>
      </trkpt>
      <trkpt lat="22.871836" lon="111.330217">
        <ele>265.094438</ele>
        <time>2026-08-18T08:42:41.000Z</time>
      </trkpt>
      <trkpt lat="22.871798" lon="111.330236">
        <ele>265.105442</ele>
        <time>2026-08-18T08:42:42.000Z</time>
      </trkpt>
      <trkpt lat="22.871759" lon="111.330251">
        <ele>265.080755</ele>
        <time>2026-08-18T08:42:43.000Z</time>
      </trkpt>
      <trkpt lat="22.871719" lon="111.330262">
        <ele>265.014844</ele>
        <time>2026-08-18T08:42:44.000Z</time>
      </trkpt>
      <trkpt lat="22.871679" lon="111.330277">
        <ele>264.947245</ele>
        <time>2026-08-18T08:42:45.000Z</time>
      </trkpt>
      <trkpt lat="22.871639" lon="111.330289">
        <ele>264.880957</ele>
        <time>2026-08-18T08:42:46.000Z</time>
      </trkpt>
      <trkpt lat="22.871599" lon="111.330306">
        <ele>264.812341</ele>
        <time>2026-08-18T08:42:47.000Z</time>
      </trkpt>
      <trkpt lat="22.871559" lon="111.330322">
        <ele>264.744247</ele>
        <time>2026-08-18T08:42:48.000Z</time>
      </trkpt>
      <trkpt lat="22.871520" lon="111.330335">
        <ele>264.679081</ele>
        <time>2026-08-18T08:42:49.000Z</time>
      </trkpt>
      <trkpt lat="22.871480" lon="111.330348">
        <ele>264.612385</ele>
        <time>2026-08-18T08:42:50.000Z</time>
      </trkpt>
      <trkpt lat="22.871438" lon="111.330363">
        <ele>264.541759</ele>
        <time>2026-08-18T08:42:51.000Z</time>
      </trkpt>
      <trkpt lat="22.871395" lon="111.330380">
        <ele>264.468660</ele>
        <time>2026-08-18T08:42:52.000Z</time>
      </trkpt>
      <trkpt lat="22.871349" lon="111.330396">
        <ele>264.391503</ele>
        <time>2026-08-18T08:42:53.000Z</time>
      </trkpt>
      <trkpt lat="22.871302" lon="111.330413">
        <ele>264.312370</ele>
        <time>2026-08-18T08:42:54.000Z</time>
      </trkpt>
      <trkpt lat="22.871254" lon="111.330425">
        <ele>264.233692</ele>
        <time>2026-08-18T08:42:55.000Z</time>
      </trkpt>
      <trkpt lat="22.871204" lon="111.330440">
        <ele>264.150832</ele>
        <time>2026-08-18T08:42:56.000Z</time>
      </trkpt>
      <trkpt lat="22.871156" lon="111.330455">
        <ele>264.071046</ele>
        <time>2026-08-18T08:42:57.000Z</time>
      </trkpt>
      <trkpt lat="22.871106" lon="111.330467">
        <ele>263.989251</ele>
        <time>2026-08-18T08:42:58.000Z</time>
      </trkpt>
      <trkpt lat="22.871054" lon="111.330480">
        <ele>263.904016</ele>
        <time>2026-08-18T08:42:59.000Z</time>
      </trkpt>
      <trkpt lat="22.871002" lon="111.330495">
        <ele>263.818073</ele>
        <time>2026-08-18T08:43:00.000Z</time>
      </trkpt>
      <trkpt lat="22.870947" lon="111.330498">
        <ele>263.730110</ele>
        <time>2026-08-18T08:43:01.000Z</time>
      </trkpt>
      <trkpt lat="22.870891" lon="111.330502">
        <ele>263.640467</ele>
        <time>2026-08-18T08:43:02.000Z</time>
      </trkpt>
      <trkpt lat="22.870835" lon="111.330507">
        <ele>263.550716</ele>
        <time>2026-08-18T08:43:03.000Z</time>
      </trkpt>
      <trkpt lat="22.870779" lon="111.330509">
        <ele>263.461218</ele>
        <time>2026-08-18T08:43:04.000Z</time>
      </trkpt>
      <trkpt lat="22.870722" lon="111.330509">
        <ele>263.370172</ele>
        <time>2026-08-18T08:43:05.000Z</time>
      </trkpt>
      <trkpt lat="22.870668" lon="111.330502">
        <ele>263.283304</ele>
        <time>2026-08-18T08:43:06.000Z</time>
      </trkpt>
      <trkpt lat="22.870615" lon="111.330492">
        <ele>263.197377</ele>
        <time>2026-08-18T08:43:07.000Z</time>
      </trkpt>
      <trkpt lat="22.870563" lon="111.330480">
        <ele>263.112460</ele>
        <time>2026-08-18T08:43:08.000Z</time>
      </trkpt>
      <trkpt lat="22.870505" lon="111.330468">
        <ele>263.018148</ele>
        <time>2026-08-18T08:43:09.000Z</time>
      </trkpt>
      <trkpt lat="22.870449" lon="111.330454">
        <ele>262.926357</ele>
        <time>2026-08-18T08:43:10.000Z</time>
      </trkpt>
      <trkpt lat="22.870392" lon="111.330437">
        <ele>262.831935</ele>
        <time>2026-08-18T08:43:11.000Z</time>
      </trkpt>
      <trkpt lat="22.870336" lon="111.330418">
        <ele>262.738217</ele>
        <time>2026-08-18T08:43:12.000Z</time>
      </trkpt>
      <trkpt lat="22.870280" lon="111.330400">
        <ele>262.644927</ele>
        <time>2026-08-18T08:43:13.000Z</time>
      </trkpt>
      <trkpt lat="22.870225" lon="111.330384">
        <ele>262.553974</ele>
        <time>2026-08-18T08:43:14.000Z</time>
      </trkpt>
      <trkpt lat="22.870169" lon="111.330370">
        <ele>262.462183</ele>
        <time>2026-08-18T08:43:15.000Z</time>
      </trkpt>
      <trkpt lat="22.870112" lon="111.330355">
        <ele>262.368498</ele>
        <time>2026-08-18T08:43:16.000Z</time>
      </trkpt>
      <trkpt lat="22.870056" lon="111.330339">
        <ele>262.276001</ele>
        <time>2026-08-18T08:43:17.000Z</time>
      </trkpt>
      <trkpt lat="22.869999" lon="111.330323">
        <ele>262.164241</ele>
        <time>2026-08-18T08:43:18.000Z</time>
      </trkpt>
      <trkpt lat="22.869943" lon="111.330304">
        <ele>262.041056</ele>
        <time>2026-08-18T08:43:19.000Z</time>
      </trkpt>
      <trkpt lat="22.869885" lon="111.330285">
        <ele>261.913858</ele>
        <time>2026-08-18T08:43:20.000Z</time>
      </trkpt>
      <trkpt lat="22.869828" lon="111.330268">
        <ele>261.789748</ele>
        <time>2026-08-18T08:43:21.000Z</time>
      </trkpt>
      <trkpt lat="22.869770" lon="111.330252">
        <ele>261.664104</ele>
        <time>2026-08-18T08:43:22.000Z</time>
      </trkpt>
      <trkpt lat="22.869711" lon="111.330239">
        <ele>261.537704</ele>
        <time>2026-08-18T08:43:23.000Z</time>
      </trkpt>
      <trkpt lat="22.869652" lon="111.330227">
        <ele>261.411676</ele>
        <time>2026-08-18T08:43:24.000Z</time>
      </trkpt>
      <trkpt lat="22.869593" lon="111.330217">
        <ele>261.286302</ele>
        <time>2026-08-18T08:43:25.000Z</time>
      </trkpt>
      <trkpt lat="22.869533" lon="111.330209">
        <ele>261.159384</ele>
        <time>2026-08-18T08:43:26.000Z</time>
      </trkpt>
      <trkpt lat="22.869473" lon="111.330203">
        <ele>261.032878</ele>
        <time>2026-08-18T08:43:27.000Z</time>
      </trkpt>
      <trkpt lat="22.869413" lon="111.330198">
        <ele>260.906536</ele>
        <time>2026-08-18T08:43:28.000Z</time>
      </trkpt>
      <trkpt lat="22.869352" lon="111.330197">
        <ele>260.778450</ele>
        <time>2026-08-18T08:43:29.000Z</time>
      </trkpt>
      <trkpt lat="22.869289" lon="111.330199">
        <ele>260.646123</ele>
        <time>2026-08-18T08:43:30.000Z</time>
      </trkpt>
      <trkpt lat="22.869224" lon="111.330203">
        <ele>260.509435</ele>
        <time>2026-08-18T08:43:31.000Z</time>
      </trkpt>
      <trkpt lat="22.869160" lon="111.330211">
        <ele>260.374177</ele>
        <time>2026-08-18T08:43:32.000Z</time>
      </trkpt>
      <trkpt lat="22.869096" lon="111.330221">
        <ele>260.238422</ele>
        <time>2026-08-18T08:43:33.000Z</time>
      </trkpt>
      <trkpt lat="22.869030" lon="111.330233">
        <ele>260.097922</ele>
        <time>2026-08-18T08:43:34.000Z</time>
      </trkpt>
      <trkpt lat="22.868965" lon="111.330247">
        <ele>259.958791</ele>
        <time>2026-08-18T08:43:35.000Z</time>
      </trkpt>
      <trkpt lat="22.868900" lon="111.330262">
        <ele>259.819271</ele>
        <time>2026-08-18T08:43:36.000Z</time>
      </trkpt>
      <trkpt lat="22.868834" lon="111.330278">
        <ele>259.677287</ele>
        <time>2026-08-18T08:43:37.000Z</time>
      </trkpt>
      <trkpt lat="22.868769" lon="111.330294">
        <ele>259.537352</ele>
        <time>2026-08-18T08:43:38.000Z</time>
      </trkpt>
      <trkpt lat="22.868702" lon="111.330312">
        <ele>259.392438</ele>
        <time>2026-08-18T08:43:39.000Z</time>
      </trkpt>
      <trkpt lat="22.868637" lon="111.330335">
        <ele>259.248899</ele>
        <time>2026-08-18T08:43:40.000Z</time>
      </trkpt>
      <trkpt lat="22.868573" lon="111.330363">
        <ele>259.104022</ele>
        <time>2026-08-18T08:43:41.000Z</time>
      </trkpt>
      <trkpt lat="22.868509" lon="111.330392">
        <ele>258.958411</ele>
        <time>2026-08-18T08:43:42.000Z</time>
      </trkpt>
      <trkpt lat="22.868446" lon="111.330424">
        <ele>258.812372</ele>
        <time>2026-08-18T08:43:43.000Z</time>
      </trkpt>
      <trkpt lat="22.868384" lon="111.330457">
        <ele>258.667390</ele>
        <time>2026-08-18T08:43:44.000Z</time>
      </trkpt>
      <trkpt lat="22.868323" lon="111.330493">
        <ele>258.521608</ele>
        <time>2026-08-18T08:43:45.000Z</time>
      </trkpt>
      <trkpt lat="22.868260" lon="111.330529">
        <ele>258.375884</ele>
        <time>2026-08-18T08:43:46.000Z</time>
      </trkpt>
      <trkpt lat="22.868198" lon="111.330568">
        <ele>258.231723</ele>
        <time>2026-08-18T08:43:47.000Z</time>
      </trkpt>
      <trkpt lat="22.868138" lon="111.330605">
        <ele>258.092896</ele>
        <time>2026-08-18T08:43:48.000Z</time>
      </trkpt>
      <trkpt lat="22.868077" lon="111.330645">
        <ele>257.949522</ele>
        <time>2026-08-18T08:43:49.000Z</time>
      </trkpt>
      <trkpt lat="22.868014" lon="111.330685">
        <ele>257.802690</ele>
        <time>2026-08-18T08:43:50.000Z</time>
      </trkpt>
      <trkpt lat="22.867951" lon="111.330725">
        <ele>257.655857</ele>
        <time>2026-08-18T08:43:51.000Z</time>
      </trkpt>
      <trkpt lat="22.867887" lon="111.330766">
        <ele>257.506351</ele>
        <time>2026-08-18T08:43:52.000Z</time>
      </trkpt>
      <trkpt lat="22.867823" lon="111.330807">
        <ele>257.356845</ele>
        <time>2026-08-18T08:43:53.000Z</time>
      </trkpt>
      <trkpt lat="22.867761" lon="111.330848">
        <ele>257.210789</ele>
        <time>2026-08-18T08:43:54.000Z</time>
      </trkpt>
      <trkpt lat="22.867698" lon="111.330891">
        <ele>257.061072</ele>
        <time>2026-08-18T08:43:55.000Z</time>
      </trkpt>
      <trkpt lat="22.867635" lon="111.330931">
        <ele>256.914239</ele>
        <time>2026-08-18T08:43:56.000Z</time>
      </trkpt>
      <trkpt lat="22.867572" lon="111.330973">
        <ele>256.765500</ele>
        <time>2026-08-18T08:43:57.000Z</time>
      </trkpt>
      <trkpt lat="22.867509" lon="111.331014">
        <ele>256.617723</ele>
        <time>2026-08-18T08:43:58.000Z</time>
      </trkpt>
      <trkpt lat="22.867444" lon="111.331057">
        <ele>256.464584</ele>
        <time>2026-08-18T08:43:59.000Z</time>
      </trkpt>
      <trkpt lat="22.867381" lon="111.331099">
        <ele>256.315845</ele>
        <time>2026-08-18T08:44:00.000Z</time>
      </trkpt>
      <trkpt lat="22.867318" lon="111.331140">
        <ele>256.168068</ele>
        <time>2026-08-18T08:44:01.000Z</time>
      </trkpt>
      <trkpt lat="22.867254" lon="111.331181">
        <ele>256.018562</ele>
        <time>2026-08-18T08:44:02.000Z</time>
      </trkpt>
      <trkpt lat="22.867190" lon="111.331223">
        <ele>255.868105</ele>
        <time>2026-08-18T08:44:03.000Z</time>
      </trkpt>
      <trkpt lat="22.867125" lon="111.331267">
        <ele>255.713993</ele>
        <time>2026-08-18T08:44:04.000Z</time>
      </trkpt>
      <trkpt lat="22.867060" lon="111.331311">
        <ele>255.559882</ele>
        <time>2026-08-18T08:44:05.000Z</time>
      </trkpt>
      <trkpt lat="22.866997" lon="111.331356">
        <ele>255.408158</ele>
        <time>2026-08-18T08:44:06.000Z</time>
      </trkpt>
      <trkpt lat="22.866932" lon="111.331397">
        <ele>255.256916</ele>
        <time>2026-08-18T08:44:07.000Z</time>
      </trkpt>
      <trkpt lat="22.866867" lon="111.331439">
        <ele>255.104734</ele>
        <time>2026-08-18T08:44:08.000Z</time>
      </trkpt>
      <trkpt lat="22.866802" lon="111.331480">
        <ele>254.953491</ele>
        <time>2026-08-18T08:44:09.000Z</time>
      </trkpt>
      <trkpt lat="22.866734" lon="111.331519">
        <ele>254.802724</ele>
        <time>2026-08-18T08:44:10.000Z</time>
      </trkpt>
      <trkpt lat="22.866668" lon="111.331560">
        <ele>254.663219</ele>
        <time>2026-08-18T08:44:11.000Z</time>
      </trkpt>
      <trkpt lat="22.866603" lon="111.331602">
        <ele>254.524447</ele>
        <time>2026-08-18T08:44:12.000Z</time>
      </trkpt>
      <trkpt lat="22.866539" lon="111.331644">
        <ele>254.387248</ele>
        <time>2026-08-18T08:44:13.000Z</time>
      </trkpt>
      <trkpt lat="22.866474" lon="111.331686">
        <ele>254.248476</ele>
        <time>2026-08-18T08:44:14.000Z</time>
      </trkpt>
      <trkpt lat="22.866409" lon="111.331727">
        <ele>254.110560</ele>
        <time>2026-08-18T08:44:15.000Z</time>
      </trkpt>
      <trkpt lat="22.866344" lon="111.331768">
        <ele>253.972645</ele>
        <time>2026-08-18T08:44:16.000Z</time>
      </trkpt>
      <trkpt lat="22.866280" lon="111.331808">
        <ele>253.837164</ele>
        <time>2026-08-18T08:44:17.000Z</time>
      </trkpt>
      <trkpt lat="22.866216" lon="111.331851">
        <ele>253.699083</ele>
        <time>2026-08-18T08:44:18.000Z</time>
      </trkpt>
      <trkpt lat="22.866155" lon="111.331890">
        <ele>253.569208</ele>
        <time>2026-08-18T08:44:19.000Z</time>
      </trkpt>
      <trkpt lat="22.866094" lon="111.331930">
        <ele>253.438467</ele>
        <time>2026-08-18T08:44:20.000Z</time>
      </trkpt>
      <trkpt lat="22.866030" lon="111.331971">
        <ele>253.302135</ele>
        <time>2026-08-18T08:44:21.000Z</time>
      </trkpt>
      <trkpt lat="22.865967" lon="111.332012">
        <ele>253.167379</ele>
        <time>2026-08-18T08:44:22.000Z</time>
      </trkpt>
      <trkpt lat="22.865903" lon="111.332053">
        <ele>253.031046</ele>
        <time>2026-08-18T08:44:23.000Z</time>
      </trkpt>
      <trkpt lat="22.865839" lon="111.332093">
        <ele>252.895565</ele>
        <time>2026-08-18T08:44:24.000Z</time>
      </trkpt>
      <trkpt lat="22.865775" lon="111.332134">
        <ele>252.759233</ele>
        <time>2026-08-18T08:44:25.000Z</time>
      </trkpt>
      <trkpt lat="22.865713" lon="111.332175">
        <ele>252.626047</ele>
        <time>2026-08-18T08:44:26.000Z</time>
      </trkpt>
      <trkpt lat="22.865650" lon="111.332216">
        <ele>252.491291</ele>
        <time>2026-08-18T08:44:27.000Z</time>
      </trkpt>
      <trkpt lat="22.865588" lon="111.332256">
        <ele>252.358976</ele>
        <time>2026-08-18T08:44:28.000Z</time>
      </trkpt>
      <trkpt lat="22.865526" lon="111.332296">
        <ele>252.226662</ele>
        <time>2026-08-18T08:44:29.000Z</time>
      </trkpt>
      <trkpt lat="22.865463" lon="111.332334">
        <ele>252.094442</ele>
        <time>2026-08-18T08:44:30.000Z</time>
      </trkpt>
      <trkpt lat="22.865400" lon="111.332374">
        <ele>251.960547</ele>
        <time>2026-08-18T08:44:31.000Z</time>
      </trkpt>
      <trkpt lat="22.865338" lon="111.332416">
        <ele>251.826474</ele>
        <time>2026-08-18T08:44:32.000Z</time>
      </trkpt>
      <trkpt lat="22.865276" lon="111.332459">
        <ele>251.691498</ele>
        <time>2026-08-18T08:44:33.000Z</time>
      </trkpt>
      <trkpt lat="22.865213" lon="111.332502">
        <ele>251.554972</ele>
        <time>2026-08-18T08:44:34.000Z</time>
      </trkpt>
      <trkpt lat="22.865151" lon="111.332544">
        <ele>251.446796</ele>
        <time>2026-08-18T08:44:35.000Z</time>
      </trkpt>
      <trkpt lat="22.865090" lon="111.332585">
        <ele>251.342830</ele>
        <time>2026-08-18T08:44:36.000Z</time>
      </trkpt>
      <trkpt lat="22.865029" lon="111.332627">
        <ele>251.238156</ele>
        <time>2026-08-18T08:44:37.000Z</time>
      </trkpt>
      <trkpt lat="22.864968" lon="111.332668">
        <ele>251.134190</ele>
        <time>2026-08-18T08:44:38.000Z</time>
      </trkpt>
      <trkpt lat="22.864906" lon="111.332709">
        <ele>251.028990</ele>
        <time>2026-08-18T08:44:39.000Z</time>
      </trkpt>
      <trkpt lat="22.864843" lon="111.332752">
        <ele>250.921152</ele>
        <time>2026-08-18T08:44:40.000Z</time>
      </trkpt>
      <trkpt lat="22.864783" lon="111.332794">
        <ele>250.817698</ele>
        <time>2026-08-18T08:44:41.000Z</time>
      </trkpt>
      <trkpt lat="22.864719" lon="111.332833">
        <ele>250.711344</ele>
        <time>2026-08-18T08:44:42.000Z</time>
      </trkpt>
      <trkpt lat="22.864658" lon="111.332873">
        <ele>250.608076</ele>
        <time>2026-08-18T08:44:43.000Z</time>
      </trkpt>
      <trkpt lat="22.864599" lon="111.332914">
        <ele>250.506562</ele>
        <time>2026-08-18T08:44:44.000Z</time>
      </trkpt>
      <trkpt lat="22.864539" lon="111.332954">
        <ele>250.404530</ele>
        <time>2026-08-18T08:44:45.000Z</time>
      </trkpt>
      <trkpt lat="22.864477" lon="111.332993">
        <ele>250.300694</ele>
        <time>2026-08-18T08:44:46.000Z</time>
      </trkpt>
      <trkpt lat="22.864416" lon="111.333031">
        <ele>250.198781</ele>
        <time>2026-08-18T08:44:47.000Z</time>
      </trkpt>
      <trkpt lat="22.864355" lon="111.333071">
        <ele>250.095512</ele>
        <time>2026-08-18T08:44:48.000Z</time>
      </trkpt>
      <trkpt lat="22.864295" lon="111.333114">
        <ele>249.991328</ele>
        <time>2026-08-18T08:44:49.000Z</time>
      </trkpt>
      <trkpt lat="22.864234" lon="111.333155">
        <ele>249.887362</ele>
        <time>2026-08-18T08:44:50.000Z</time>
      </trkpt>
      <trkpt lat="22.864172" lon="111.333194">
        <ele>249.783526</ele>
        <time>2026-08-18T08:44:51.000Z</time>
      </trkpt>
      <trkpt lat="22.864110" lon="111.333234">
        <ele>249.679014</ele>
        <time>2026-08-18T08:44:52.000Z</time>
      </trkpt>
      <trkpt lat="22.864046" lon="111.333274">
        <ele>249.572001</ele>
        <time>2026-08-18T08:44:53.000Z</time>
      </trkpt>
      <trkpt lat="22.863985" lon="111.333312">
        <ele>249.470087</ele>
        <time>2026-08-18T08:44:54.000Z</time>
      </trkpt>
      <trkpt lat="22.863925" lon="111.333352">
        <ele>249.368055</ele>
        <time>2026-08-18T08:44:55.000Z</time>
      </trkpt>
      <trkpt lat="22.863864" lon="111.333391">
        <ele>249.265470</ele>
        <time>2026-08-18T08:44:56.000Z</time>
      </trkpt>
      <trkpt lat="22.863805" lon="111.333428">
        <ele>249.166734</ele>
        <time>2026-08-18T08:44:57.000Z</time>
      </trkpt>
      <trkpt lat="22.863748" lon="111.333465">
        <ele>249.070496</ele>
        <time>2026-08-18T08:44:58.000Z</time>
      </trkpt>
      <trkpt lat="22.863692" lon="111.333503">
        <ele>248.974797</ele>
        <time>2026-08-18T08:44:59.000Z</time>
      </trkpt>
      <trkpt lat="22.863637" lon="111.333541">
        <ele>248.903755</ele>
        <time>2026-08-18T08:45:00.000Z</time>
      </trkpt>
      <trkpt lat="22.863582" lon="111.333577">
        <ele>248.848531</ele>
        <time>2026-08-18T08:45:01.000Z</time>
      </trkpt>
      <trkpt lat="22.863526" lon="111.333613">
        <ele>248.792568</ele>
        <time>2026-08-18T08:45:02.000Z</time>
      </trkpt>
      <trkpt lat="22.863470" lon="111.333651">
        <ele>248.735781</ele>
        <time>2026-08-18T08:45:03.000Z</time>
      </trkpt>
      <trkpt lat="22.863414" lon="111.333689">
        <ele>248.678995</ele>
        <time>2026-08-18T08:45:04.000Z</time>
      </trkpt>
      <trkpt lat="22.863359" lon="111.333726">
        <ele>248.623357</ele>
        <time>2026-08-18T08:45:05.000Z</time>
      </trkpt>
      <trkpt lat="22.863302" lon="111.333762">
        <ele>248.566652</ele>
        <time>2026-08-18T08:45:06.000Z</time>
      </trkpt>
      <trkpt lat="22.863246" lon="111.333798">
        <ele>248.510690</ele>
        <time>2026-08-18T08:45:07.000Z</time>
      </trkpt>
      <trkpt lat="22.863191" lon="111.333834">
        <ele>248.455465</ele>
        <time>2026-08-18T08:45:08.000Z</time>
      </trkpt>
      <trkpt lat="22.863136" lon="111.333870">
        <ele>248.400240</ele>
        <time>2026-08-18T08:45:09.000Z</time>
      </trkpt>
      <trkpt lat="22.863081" lon="111.333906">
        <ele>248.345015</ele>
        <time>2026-08-18T08:45:10.000Z</time>
      </trkpt>
      <trkpt lat="22.863027" lon="111.333942">
        <ele>248.290525</ele>
        <time>2026-08-18T08:45:11.000Z</time>
      </trkpt>
      <trkpt lat="22.862973" lon="111.333982">
        <ele>248.234311</ele>
        <time>2026-08-18T08:45:12.000Z</time>
      </trkpt>
      <trkpt lat="22.862921" lon="111.334019">
        <ele>248.180848</ele>
        <time>2026-08-18T08:45:13.000Z</time>
      </trkpt>
      <trkpt lat="22.862870" lon="111.334052">
        <ele>248.129795</ele>
        <time>2026-08-18T08:45:14.000Z</time>
      </trkpt>
      <trkpt lat="22.862820" lon="111.334088">
        <ele>248.078204</ele>
        <time>2026-08-18T08:45:15.000Z</time>
      </trkpt>
      <trkpt lat="22.862769" lon="111.334121">
        <ele>248.027151</ele>
        <time>2026-08-18T08:45:16.000Z</time>
      </trkpt>
      <trkpt lat="22.862719" lon="111.334154">
        <ele>247.976835</ele>
        <time>2026-08-18T08:45:17.000Z</time>
      </trkpt>
      <trkpt lat="22.862669" lon="111.334189">
        <ele>247.925677</ele>
        <time>2026-08-18T08:45:18.000Z</time>
      </trkpt>
      <trkpt lat="22.862618" lon="111.334222">
        <ele>247.874625</ele>
        <time>2026-08-18T08:45:19.000Z</time>
      </trkpt>
      <trkpt lat="22.862566" lon="111.334252">
        <ele>247.823990</ele>
        <time>2026-08-18T08:45:20.000Z</time>
      </trkpt>
      <trkpt lat="22.862515" lon="111.334281">
        <ele>247.774485</ele>
        <time>2026-08-18T08:45:21.000Z</time>
      </trkpt>
      <trkpt lat="22.862464" lon="111.334312">
        <ele>247.724225</ele>
        <time>2026-08-18T08:45:22.000Z</time>
      </trkpt>
      <trkpt lat="22.862413" lon="111.334346">
        <ele>247.672762</ele>
        <time>2026-08-18T08:45:23.000Z</time>
      </trkpt>
      <trkpt lat="22.862362" lon="111.334379">
        <ele>247.621709</ele>
        <time>2026-08-18T08:45:24.000Z</time>
      </trkpt>
      <trkpt lat="22.862312" lon="111.334412">
        <ele>247.571393</ele>
        <time>2026-08-18T08:45:25.000Z</time>
      </trkpt>
      <trkpt lat="22.862261" lon="111.334445">
        <ele>247.520340</ele>
        <time>2026-08-18T08:45:26.000Z</time>
      </trkpt>
      <trkpt lat="22.862210" lon="111.334479">
        <ele>247.468877</ele>
        <time>2026-08-18T08:45:27.000Z</time>
      </trkpt>
      <trkpt lat="22.862159" lon="111.334514">
        <ele>247.416994</ele>
        <time>2026-08-18T08:45:28.000Z</time>
      </trkpt>
      <trkpt lat="22.862108" lon="111.334550">
        <ele>247.364637</ele>
        <time>2026-08-18T08:45:29.000Z</time>
      </trkpt>
      <trkpt lat="22.862058" lon="111.334586">
        <ele>247.312955</ele>
        <time>2026-08-18T08:45:30.000Z</time>
      </trkpt>
      <trkpt lat="22.862007" lon="111.334623">
        <ele>247.260117</ele>
        <time>2026-08-18T08:45:31.000Z</time>
      </trkpt>
      <trkpt lat="22.861955" lon="111.334659">
        <ele>247.206991</ele>
        <time>2026-08-18T08:45:32.000Z</time>
      </trkpt>
      <trkpt lat="22.861904" lon="111.334697">
        <ele>247.153707</ele>
        <time>2026-08-18T08:45:33.000Z</time>
      </trkpt>
      <trkpt lat="22.861853" lon="111.334735">
        <ele>247.100423</ele>
        <time>2026-08-18T08:45:34.000Z</time>
      </trkpt>
      <trkpt lat="22.861801" lon="111.334770">
        <ele>247.047720</ele>
        <time>2026-08-18T08:45:35.000Z</time>
      </trkpt>
      <trkpt lat="22.861751" lon="111.334807">
        <ele>246.995595</ele>
        <time>2026-08-18T08:45:36.000Z</time>
      </trkpt>
      <trkpt lat="22.861701" lon="111.334846">
        <ele>246.942559</ele>
        <time>2026-08-18T08:45:37.000Z</time>
      </trkpt>
      <trkpt lat="22.861650" lon="111.334885">
        <ele>246.888822</ele>
        <time>2026-08-18T08:45:38.000Z</time>
      </trkpt>
      <trkpt lat="22.861600" lon="111.334923">
        <ele>246.836246</ele>
        <time>2026-08-18T08:45:39.000Z</time>
      </trkpt>
      <trkpt lat="22.861549" lon="111.334962">
        <ele>246.782509</ele>
        <time>2026-08-18T08:45:40.000Z</time>
      </trkpt>
      <trkpt lat="22.861498" lon="111.335002">
        <ele>246.728311</ele>
        <time>2026-08-18T08:45:41.000Z</time>
      </trkpt>
      <trkpt lat="22.861447" lon="111.335044">
        <ele>246.673168</ele>
        <time>2026-08-18T08:45:42.000Z</time>
      </trkpt>
      <trkpt lat="22.861397" lon="111.335085">
        <ele>246.619191</ele>
        <time>2026-08-18T08:45:43.000Z</time>
      </trkpt>
      <trkpt lat="22.861346" lon="111.335126">
        <ele>246.564524</ele>
        <time>2026-08-18T08:45:44.000Z</time>
      </trkpt>
      <trkpt lat="22.861295" lon="111.335167">
        <ele>246.509857</ele>
        <time>2026-08-18T08:45:45.000Z</time>
      </trkpt>
      <trkpt lat="22.861244" lon="111.335209">
        <ele>246.454714</ele>
        <time>2026-08-18T08:45:46.000Z</time>
      </trkpt>
      <trkpt lat="22.861193" lon="111.335249">
        <ele>246.400516</ele>
        <time>2026-08-18T08:45:47.000Z</time>
      </trkpt>
      <trkpt lat="22.861142" lon="111.335287">
        <ele>246.347232</ele>
        <time>2026-08-18T08:45:48.000Z</time>
      </trkpt>
      <trkpt lat="22.861090" lon="111.335327">
        <ele>246.292333</ele>
        <time>2026-08-18T08:45:49.000Z</time>
      </trkpt>
      <trkpt lat="22.861037" lon="111.335368">
        <ele>246.236272</ele>
        <time>2026-08-18T08:45:50.000Z</time>
      </trkpt>
      <trkpt lat="22.860986" lon="111.335406">
        <ele>246.182988</ele>
        <time>2026-08-18T08:45:51.000Z</time>
      </trkpt>
      <trkpt lat="22.860934" lon="111.335443">
        <ele>246.129431</ele>
        <time>2026-08-18T08:45:52.000Z</time>
      </trkpt>
      <trkpt lat="22.860881" lon="111.335483">
        <ele>246.073828</ele>
        <time>2026-08-18T08:45:53.000Z</time>
      </trkpt>
      <trkpt lat="22.860829" lon="111.335524">
        <ele>246.018466</ele>
        <time>2026-08-18T08:45:54.000Z</time>
      </trkpt>
      <trkpt lat="22.860778" lon="111.335564">
        <ele>245.964268</ele>
        <time>2026-08-18T08:45:55.000Z</time>
      </trkpt>
      <trkpt lat="22.860727" lon="111.335606">
        <ele>245.909125</ele>
        <time>2026-08-18T08:45:56.000Z</time>
      </trkpt>
      <trkpt lat="22.860678" lon="111.335647">
        <ele>245.855832</ele>
        <time>2026-08-18T08:45:57.000Z</time>
      </trkpt>
      <trkpt lat="22.860629" lon="111.335690">
        <ele>245.802733</ele>
        <time>2026-08-18T08:45:58.000Z</time>
      </trkpt>
      <trkpt lat="22.860581" lon="111.335732">
        <ele>245.751161</ele>
        <time>2026-08-18T08:45:59.000Z</time>
      </trkpt>
      <trkpt lat="22.860532" lon="111.335769">
        <ele>245.701233</ele>
        <time>2026-08-18T08:46:00.000Z</time>
      </trkpt>
      <trkpt lat="22.860482" lon="111.335809">
        <ele>245.649278</ele>
        <time>2026-08-18T08:46:01.000Z</time>
      </trkpt>
      <trkpt lat="22.860431" lon="111.335850">
        <ele>245.596192</ele>
        <time>2026-08-18T08:46:02.000Z</time>
      </trkpt>
      <trkpt lat="22.860380" lon="111.335891">
        <ele>245.543106</ele>
        <time>2026-08-18T08:46:03.000Z</time>
      </trkpt>
      <trkpt lat="22.860326" lon="111.335927">
        <ele>245.490099</ele>
        <time>2026-08-18T08:46:04.000Z</time>
      </trkpt>
      <trkpt lat="22.860280" lon="111.335972">
        <ele>245.438300</ele>
        <time>2026-08-18T08:46:05.000Z</time>
      </trkpt>
      <trkpt lat="22.860233" lon="111.336016">
        <ele>245.386383</ele>
        <time>2026-08-18T08:46:06.000Z</time>
      </trkpt>
      <trkpt lat="22.860182" lon="111.336058">
        <ele>245.332835</ele>
        <time>2026-08-18T08:46:07.000Z</time>
      </trkpt>
      <trkpt lat="22.860135" lon="111.336100">
        <ele>245.281912</ele>
        <time>2026-08-18T08:46:08.000Z</time>
      </trkpt>
      <trkpt lat="22.860085" lon="111.336142">
        <ele>245.229028</ele>
        <time>2026-08-18T08:46:09.000Z</time>
      </trkpt>
      <trkpt lat="22.860035" lon="111.336188">
        <ele>245.174202</ele>
        <time>2026-08-18T08:46:10.000Z</time>
      </trkpt>
      <trkpt lat="22.859984" lon="111.336232">
        <ele>245.119708</ele>
        <time>2026-08-18T08:46:11.000Z</time>
      </trkpt>
      <trkpt lat="22.859933" lon="111.336272">
        <ele>245.067078</ele>
        <time>2026-08-18T08:46:12.000Z</time>
      </trkpt>
      <trkpt lat="22.859882" lon="111.336311">
        <ele>245.014895</ele>
        <time>2026-08-18T08:46:13.000Z</time>
      </trkpt>
      <trkpt lat="22.859831" lon="111.336345">
        <ele>244.964832</ele>
        <time>2026-08-18T08:46:14.000Z</time>
      </trkpt>
      <trkpt lat="22.859779" lon="111.336384">
        <ele>244.911963</ele>
        <time>2026-08-18T08:46:15.000Z</time>
      </trkpt>
      <trkpt lat="22.859728" lon="111.336421">
        <ele>244.860653</ele>
        <time>2026-08-18T08:46:16.000Z</time>
      </trkpt>
      <trkpt lat="22.859678" lon="111.336460">
        <ele>244.809151</ele>
        <time>2026-08-18T08:46:17.000Z</time>
      </trkpt>
      <trkpt lat="22.859626" lon="111.336500">
        <ele>244.755840</ele>
        <time>2026-08-18T08:46:18.000Z</time>
      </trkpt>
      <trkpt lat="22.859577" lon="111.336539">
        <ele>244.705015</ele>
        <time>2026-08-18T08:46:19.000Z</time>
      </trkpt>
      <trkpt lat="22.859527" lon="111.336581">
        <ele>244.652131</ele>
        <time>2026-08-18T08:46:20.000Z</time>
      </trkpt>
      <trkpt lat="22.859477" lon="111.336622">
        <ele>244.599715</ele>
        <time>2026-08-18T08:46:21.000Z</time>
      </trkpt>
      <trkpt lat="22.859428" lon="111.336662">
        <ele>244.548431</ele>
        <time>2026-08-18T08:46:22.000Z</time>
      </trkpt>
      <trkpt lat="22.859378" lon="111.336699">
        <ele>244.497813</ele>
        <time>2026-08-18T08:46:23.000Z</time>
      </trkpt>
      <trkpt lat="22.859330" lon="111.336737">
        <ele>244.448118</ele>
        <time>2026-08-18T08:46:24.000Z</time>
      </trkpt>
      <trkpt lat="22.859281" lon="111.336775">
        <ele>244.397746</ele>
        <time>2026-08-18T08:46:25.000Z</time>
      </trkpt>
      <trkpt lat="22.859232" lon="111.336813">
        <ele>244.347373</ele>
        <time>2026-08-18T08:46:26.000Z</time>
      </trkpt>
      <trkpt lat="22.859181" lon="111.336852">
        <ele>244.293580</ele>
        <time>2026-08-18T08:46:27.000Z</time>
      </trkpt>
      <trkpt lat="22.859131" lon="111.336892">
        <ele>244.239664</ele>
        <time>2026-08-18T08:46:28.000Z</time>
      </trkpt>
      <trkpt lat="22.859081" lon="111.336934">
        <ele>244.184784</ele>
        <time>2026-08-18T08:46:29.000Z</time>
      </trkpt>
      <trkpt lat="22.859032" lon="111.336973">
        <ele>244.132041</ele>
        <time>2026-08-18T08:46:30.000Z</time>
      </trkpt>
      <trkpt lat="22.858982" lon="111.337012">
        <ele>244.078596</ele>
        <time>2026-08-18T08:46:31.000Z</time>
      </trkpt>
      <trkpt lat="22.858934" lon="111.337050">
        <ele>244.027026</ele>
        <time>2026-08-18T08:46:32.000Z</time>
      </trkpt>
      <trkpt lat="22.858884" lon="111.337087">
        <ele>243.974498</ele>
        <time>2026-08-18T08:46:33.000Z</time>
      </trkpt>
      <trkpt lat="22.858833" lon="111.337124">
        <ele>243.921251</ele>
        <time>2026-08-18T08:46:34.000Z</time>
      </trkpt>
      <trkpt lat="22.858779" lon="111.337162">
        <ele>243.865389</ele>
        <time>2026-08-18T08:46:35.000Z</time>
      </trkpt>
      <trkpt lat="22.858725" lon="111.337203">
        <ele>243.808187</ele>
        <time>2026-08-18T08:46:36.000Z</time>
      </trkpt>
      <trkpt lat="22.858674" lon="111.337242">
        <ele>243.754034</ele>
        <time>2026-08-18T08:46:37.000Z</time>
      </trkpt>
      <trkpt lat="22.858622" lon="111.337281">
        <ele>243.699170</ele>
        <time>2026-08-18T08:46:38.000Z</time>
      </trkpt>
      <trkpt lat="22.858578" lon="111.337324">
        <ele>243.647776</ele>
        <time>2026-08-18T08:46:39.000Z</time>
      </trkpt>
      <trkpt lat="22.858526" lon="111.337363">
        <ele>243.592912</ele>
        <time>2026-08-18T08:46:40.000Z</time>
      </trkpt>
      <trkpt lat="22.858476" lon="111.337399">
        <ele>243.540831</ele>
        <time>2026-08-18T08:46:41.000Z</time>
      </trkpt>
      <trkpt lat="22.858425" lon="111.337432">
        <ele>243.489293</ele>
        <time>2026-08-18T08:46:42.000Z</time>
      </trkpt>
      <trkpt lat="22.858374" lon="111.337467">
        <ele>243.436918</ele>
        <time>2026-08-18T08:46:43.000Z</time>
      </trkpt>
      <trkpt lat="22.858322" lon="111.337499">
        <ele>243.385032</ele>
        <time>2026-08-18T08:46:44.000Z</time>
      </trkpt>
      <trkpt lat="22.858276" lon="111.337541">
        <ele>243.332854</ele>
        <time>2026-08-18T08:46:45.000Z</time>
      </trkpt>
      <trkpt lat="22.858228" lon="111.337577">
        <ele>243.282210</ele>
        <time>2026-08-18T08:46:46.000Z</time>
      </trkpt>
      <trkpt lat="22.858185" lon="111.337607">
        <ele>243.237840</ele>
        <time>2026-08-18T08:46:47.000Z</time>
      </trkpt>
      <trkpt lat="22.858138" lon="111.337645">
        <ele>243.186969</ele>
        <time>2026-08-18T08:46:48.000Z</time>
      </trkpt>
      <trkpt lat="22.858089" lon="111.337681">
        <ele>243.135608</ele>
        <time>2026-08-18T08:46:49.000Z</time>
      </trkpt>
      <trkpt lat="22.858038" lon="111.337717">
        <ele>243.082801</ele>
        <time>2026-08-18T08:46:50.000Z</time>
      </trkpt>
      <trkpt lat="22.857987" lon="111.337754">
        <ele>243.029554</ele>
        <time>2026-08-18T08:46:51.000Z</time>
      </trkpt>
      <trkpt lat="22.857940" lon="111.337789">
        <ele>242.980079</ele>
        <time>2026-08-18T08:46:52.000Z</time>
      </trkpt>
      <trkpt lat="22.857891" lon="111.337832">
        <ele>242.925383</ele>
        <time>2026-08-18T08:46:53.000Z</time>
      </trkpt>
      <trkpt lat="22.857840" lon="111.337872">
        <ele>242.870766</ele>
        <time>2026-08-18T08:46:54.000Z</time>
      </trkpt>
      <trkpt lat="22.857792" lon="111.337912">
        <ele>242.818237</ele>
        <time>2026-08-18T08:46:55.000Z</time>
      </trkpt>
      <trkpt lat="22.857739" lon="111.337954">
        <ele>242.762794</ele>
        <time>2026-08-18T08:46:56.000Z</time>
      </trkpt>
      <trkpt lat="22.857687" lon="111.337989">
        <ele>242.714916</ele>
        <time>2026-08-18T08:46:57.000Z</time>
      </trkpt>
      <trkpt lat="22.857636" lon="111.338025">
        <ele>242.667312</ele>
        <time>2026-08-18T08:46:58.000Z</time>
      </trkpt>
      <trkpt lat="22.857583" lon="111.338061">
        <ele>242.618389</ele>
        <time>2026-08-18T08:46:59.000Z</time>
      </trkpt>
      <trkpt lat="22.857528" lon="111.338099">
        <ele>242.567372</ele>
        <time>2026-08-18T08:47:00.000Z</time>
      </trkpt>
      <trkpt lat="22.857476" lon="111.338137">
        <ele>242.518320</ele>
        <time>2026-08-18T08:47:01.000Z</time>
      </trkpt>
      <trkpt lat="22.857422" lon="111.338177">
        <ele>242.467163</ele>
        <time>2026-08-18T08:47:02.000Z</time>
      </trkpt>
      <trkpt lat="22.857368" lon="111.338213">
        <ele>242.417575</ele>
        <time>2026-08-18T08:47:03.000Z</time>
      </trkpt>
      <trkpt lat="22.857315" lon="111.338251">
        <ele>242.367871</ele>
        <time>2026-08-18T08:47:04.000Z</time>
      </trkpt>
      <trkpt lat="22.857261" lon="111.338288">
        <ele>242.317902</ele>
        <time>2026-08-18T08:47:05.000Z</time>
      </trkpt>
      <trkpt lat="22.857208" lon="111.338324">
        <ele>242.268979</ele>
        <time>2026-08-18T08:47:06.000Z</time>
      </trkpt>
      <trkpt lat="22.857156" lon="111.338359">
        <ele>242.221101</ele>
        <time>2026-08-18T08:47:07.000Z</time>
      </trkpt>
      <trkpt lat="22.857104" lon="111.338396">
        <ele>242.172447</ele>
        <time>2026-08-18T08:47:08.000Z</time>
      </trkpt>
      <trkpt lat="22.857050" lon="111.338430">
        <ele>242.123598</ele>
        <time>2026-08-18T08:47:09.000Z</time>
      </trkpt>
      <trkpt lat="22.856995" lon="111.338464">
        <ele>242.074071</ele>
        <time>2026-08-18T08:47:10.000Z</time>
      </trkpt>
      <trkpt lat="22.856939" lon="111.338494">
        <ele>242.025206</ele>
        <time>2026-08-18T08:47:11.000Z</time>
      </trkpt>
      <trkpt lat="22.856883" lon="111.338528">
        <ele>241.974997</ele>
        <time>2026-08-18T08:47:12.000Z</time>
      </trkpt>
      <trkpt lat="22.856826" lon="111.338559">
        <ele>241.925110</ele>
        <time>2026-08-18T08:47:13.000Z</time>
      </trkpt>
      <trkpt lat="22.856769" lon="111.338587">
        <ele>241.876154</ele>
        <time>2026-08-18T08:47:14.000Z</time>
      </trkpt>
      <trkpt lat="22.856710" lon="111.338615">
        <ele>241.825768</ele>
        <time>2026-08-18T08:47:15.000Z</time>
      </trkpt>
      <trkpt lat="22.856651" lon="111.338641">
        <ele>241.775942</ele>
        <time>2026-08-18T08:47:16.000Z</time>
      </trkpt>
      <trkpt lat="22.856591" lon="111.338668">
        <ele>241.725119</ele>
        <time>2026-08-18T08:47:17.000Z</time>
      </trkpt>
      <trkpt lat="22.856531" lon="111.338693">
        <ele>241.674830</ele>
        <time>2026-08-18T08:47:18.000Z</time>
      </trkpt>
      <trkpt lat="22.856471" lon="111.338721">
        <ele>241.623727</ele>
        <time>2026-08-18T08:47:19.000Z</time>
      </trkpt>
      <trkpt lat="22.856412" lon="111.338749">
        <ele>241.573341</ele>
        <time>2026-08-18T08:47:20.000Z</time>
      </trkpt>
      <trkpt lat="22.856352" lon="111.338774">
        <ele>241.523052</ele>
        <time>2026-08-18T08:47:21.000Z</time>
      </trkpt>
      <trkpt lat="22.856294" lon="111.338798">
        <ele>241.474483</ele>
        <time>2026-08-18T08:47:22.000Z</time>
      </trkpt>
      <trkpt lat="22.856237" lon="111.338823">
        <ele>241.426378</ele>
        <time>2026-08-18T08:47:23.000Z</time>
      </trkpt>
      <trkpt lat="22.856180" lon="111.338848">
        <ele>241.378274</ele>
        <time>2026-08-18T08:47:24.000Z</time>
      </trkpt>
      <trkpt lat="22.856122" lon="111.338881">
        <ele>241.338064</ele>
        <time>2026-08-18T08:47:25.000Z</time>
      </trkpt>
      <trkpt lat="22.856064" lon="111.338907">
        <ele>241.301768</ele>
        <time>2026-08-18T08:47:26.000Z</time>
      </trkpt>
      <trkpt lat="22.856007" lon="111.338931">
        <ele>241.266404</ele>
        <time>2026-08-18T08:47:27.000Z</time>
      </trkpt>
      <trkpt lat="22.855950" lon="111.338953">
        <ele>241.231413</ele>
        <time>2026-08-18T08:47:28.000Z</time>
      </trkpt>
      <trkpt lat="22.855893" lon="111.338971">
        <ele>241.197076</ele>
        <time>2026-08-18T08:47:29.000Z</time>
      </trkpt>
      <trkpt lat="22.855835" lon="111.338992">
        <ele>241.161711</ele>
        <time>2026-08-18T08:47:30.000Z</time>
      </trkpt>
      <trkpt lat="22.855776" lon="111.339010">
        <ele>241.126263</ele>
        <time>2026-08-18T08:47:31.000Z</time>
      </trkpt>
      <trkpt lat="22.855719" lon="111.339030">
        <ele>241.091614</ele>
        <time>2026-08-18T08:47:32.000Z</time>
      </trkpt>
      <trkpt lat="22.855664" lon="111.339051">
        <ele>241.057890</ele>
        <time>2026-08-18T08:47:33.000Z</time>
      </trkpt>
      <trkpt lat="22.855607" lon="111.339075">
        <ele>241.022527</ele>
        <time>2026-08-18T08:47:34.000Z</time>
      </trkpt>
      <trkpt lat="22.855548" lon="111.339100">
        <ele>240.985892</ele>
        <time>2026-08-18T08:47:35.000Z</time>
      </trkpt>
      <trkpt lat="22.855489" lon="111.339125">
        <ele>240.949257</ele>
        <time>2026-08-18T08:47:36.000Z</time>
      </trkpt>
      <trkpt lat="22.855431" lon="111.339147">
        <ele>240.913720</ele>
        <time>2026-08-18T08:47:37.000Z</time>
      </trkpt>
      <trkpt lat="22.855370" lon="111.339170">
        <ele>240.876369</ele>
        <time>2026-08-18T08:47:38.000Z</time>
      </trkpt>
      <trkpt lat="22.855312" lon="111.339193">
        <ele>240.840652</ele>
        <time>2026-08-18T08:47:39.000Z</time>
      </trkpt>
      <trkpt lat="22.855253" lon="111.339216">
        <ele>240.804391</ele>
        <time>2026-08-18T08:47:40.000Z</time>
      </trkpt>
      <trkpt lat="22.855195" lon="111.339231">
        <ele>240.769905</ele>
        <time>2026-08-18T08:47:41.000Z</time>
      </trkpt>
      <trkpt lat="22.855136" lon="111.339254">
        <ele>240.733644</ele>
        <time>2026-08-18T08:47:42.000Z</time>
      </trkpt>
      <trkpt lat="22.855077" lon="111.339278">
        <ele>240.697200</ele>
        <time>2026-08-18T08:47:43.000Z</time>
      </trkpt>
      <trkpt lat="22.855020" lon="111.339302">
        <ele>240.661837</ele>
        <time>2026-08-18T08:47:44.000Z</time>
      </trkpt>
      <trkpt lat="22.854965" lon="111.339333">
        <ele>240.625990</ele>
        <time>2026-08-18T08:47:45.000Z</time>
      </trkpt>
      <trkpt lat="22.854910" lon="111.339362">
        <ele>240.590622</ele>
        <time>2026-08-18T08:47:46.000Z</time>
      </trkpt>
      <trkpt lat="22.854854" lon="111.339391">
        <ele>240.554732</ele>
        <time>2026-08-18T08:47:47.000Z</time>
      </trkpt>
      <trkpt lat="22.854798" lon="111.339419">
        <ele>240.519069</ele>
        <time>2026-08-18T08:47:48.000Z</time>
      </trkpt>
      <trkpt lat="22.854738" lon="111.339445">
        <ele>240.481701</ele>
        <time>2026-08-18T08:47:49.000Z</time>
      </trkpt>
      <trkpt lat="22.854680" lon="111.339471">
        <ele>240.445404</ele>
        <time>2026-08-18T08:47:50.000Z</time>
      </trkpt>
      <trkpt lat="22.854623" lon="111.339495">
        <ele>240.410041</ele>
        <time>2026-08-18T08:47:51.000Z</time>
      </trkpt>
      <trkpt lat="22.854564" lon="111.339516">
        <ele>240.374127</ele>
        <time>2026-08-18T08:47:52.000Z</time>
      </trkpt>
      <trkpt lat="22.854507" lon="111.339536">
        <ele>240.339477</ele>
        <time>2026-08-18T08:47:53.000Z</time>
      </trkpt>
      <trkpt lat="22.854450" lon="111.339558">
        <ele>240.357326</ele>
        <time>2026-08-18T08:47:54.000Z</time>
      </trkpt>
      <trkpt lat="22.854391" lon="111.339580">
        <ele>240.399012</ele>
        <time>2026-08-18T08:47:55.000Z</time>
      </trkpt>
      <trkpt lat="22.854334" lon="111.339600">
        <ele>240.439041</ele>
        <time>2026-08-18T08:47:56.000Z</time>
      </trkpt>
      <trkpt lat="22.854279" lon="111.339621">
        <ele>240.478001</ele>
        <time>2026-08-18T08:47:57.000Z</time>
      </trkpt>
      <trkpt lat="22.854225" lon="111.339643">
        <ele>240.516542</ele>
        <time>2026-08-18T08:47:58.000Z</time>
      </trkpt>
      <trkpt lat="22.854174" lon="111.339667">
        <ele>240.553687</ele>
        <time>2026-08-18T08:47:59.000Z</time>
      </trkpt>
      <trkpt lat="22.854123" lon="111.339691">
        <ele>240.590831</ele>
        <time>2026-08-18T08:48:00.000Z</time>
      </trkpt>
      <trkpt lat="22.854072" lon="111.339715">
        <ele>240.627976</ele>
        <time>2026-08-18T08:48:01.000Z</time>
      </trkpt>
      <trkpt lat="22.854020" lon="111.339740">
        <ele>240.665980</ele>
        <time>2026-08-18T08:48:02.000Z</time>
      </trkpt>
      <trkpt lat="22.853968" lon="111.339763">
        <ele>240.703501</ele>
        <time>2026-08-18T08:48:03.000Z</time>
      </trkpt>
      <trkpt lat="22.853917" lon="111.339784">
        <ele>240.739950</ele>
        <time>2026-08-18T08:48:04.000Z</time>
      </trkpt>
      <trkpt lat="22.853867" lon="111.339807">
        <ele>240.776238</ele>
        <time>2026-08-18T08:48:05.000Z</time>
      </trkpt>
      <trkpt lat="22.853815" lon="111.339831">
        <ele>240.813996</ele>
        <time>2026-08-18T08:48:06.000Z</time>
      </trkpt>
      <trkpt lat="22.853768" lon="111.339855">
        <ele>240.848705</ele>
        <time>2026-08-18T08:48:07.000Z</time>
      </trkpt>
      <trkpt lat="22.853720" lon="111.339878">
        <ele>240.883766</ele>
        <time>2026-08-18T08:48:08.000Z</time>
      </trkpt>
      <trkpt lat="22.853675" lon="111.339900">
        <ele>240.916746</ele>
        <time>2026-08-18T08:48:09.000Z</time>
      </trkpt>
      <trkpt lat="22.853628" lon="111.339924">
        <ele>240.951454</ele>
        <time>2026-08-18T08:48:10.000Z</time>
      </trkpt>
      <trkpt lat="22.853579" lon="111.339950">
        <ele>240.987901</ele>
        <time>2026-08-18T08:48:11.000Z</time>
      </trkpt>
      <trkpt lat="22.853530" lon="111.339973">
        <ele>241.023574</ele>
        <time>2026-08-18T08:48:12.000Z</time>
      </trkpt>
      <trkpt lat="22.853487" lon="111.339996">
        <ele>241.055607</ele>
        <time>2026-08-18T08:48:13.000Z</time>
      </trkpt>
      <trkpt lat="22.853443" lon="111.340020">
        <ele>241.088513</ele>
        <time>2026-08-18T08:48:14.000Z</time>
      </trkpt>
      <trkpt lat="22.853399" lon="111.340044">
        <ele>241.121419</ele>
        <time>2026-08-18T08:48:15.000Z</time>
      </trkpt>
      <trkpt lat="22.853358" lon="111.340069">
        <ele>241.152844</ele>
        <time>2026-08-18T08:48:16.000Z</time>
      </trkpt>
      <trkpt lat="22.853318" lon="111.340093">
        <ele>241.183385</ele>
        <time>2026-08-18T08:48:17.000Z</time>
      </trkpt>
      <trkpt lat="22.853279" lon="111.340115">
        <ele>241.212756</ele>
        <time>2026-08-18T08:48:18.000Z</time>
      </trkpt>
      <trkpt lat="22.853241" lon="111.340138">
        <ele>241.241830</ele>
        <time>2026-08-18T08:48:19.000Z</time>
      </trkpt>
      <trkpt lat="22.853203" lon="111.340161">
        <ele>241.270904</ele>
        <time>2026-08-18T08:48:20.000Z</time>
      </trkpt>
      <trkpt lat="22.853166" lon="111.340182">
        <ele>241.298805</ele>
        <time>2026-08-18T08:48:21.000Z</time>
      </trkpt>
      <trkpt lat="22.853130" lon="111.340203">
        <ele>241.326115</ele>
        <time>2026-08-18T08:48:22.000Z</time>
      </trkpt>
      <trkpt lat="22.853094" lon="111.340225">
        <ele>241.353722</ele>
        <time>2026-08-18T08:48:23.000Z</time>
      </trkpt>
      <trkpt lat="22.853059" lon="111.340245">
        <ele>241.380154</ele>
        <time>2026-08-18T08:48:24.000Z</time>
      </trkpt>
      <trkpt lat="22.853024" lon="111.340265">
        <ele>241.406585</ele>
        <time>2026-08-18T08:48:25.000Z</time>
      </trkpt>
      <trkpt lat="22.852989" lon="111.340287">
        <ele>241.433612</ele>
        <time>2026-08-18T08:48:26.000Z</time>
      </trkpt>
      <trkpt lat="22.852955" lon="111.340309">
        <ele>241.460063</ele>
        <time>2026-08-18T08:48:27.000Z</time>
      </trkpt>
      <trkpt lat="22.852920" lon="111.340331">
        <ele>241.487090</ele>
        <time>2026-08-18T08:48:28.000Z</time>
      </trkpt>
      <trkpt lat="22.852885" lon="111.340353">
        <ele>241.514117</ele>
        <time>2026-08-18T08:48:29.000Z</time>
      </trkpt>
      <trkpt lat="22.852850" lon="111.340376">
        <ele>241.566555</ele>
        <time>2026-08-18T08:48:30.000Z</time>
      </trkpt>
      <trkpt lat="22.852814" lon="111.340399">
        <ele>241.660557</ele>
        <time>2026-08-18T08:48:31.000Z</time>
      </trkpt>
      <trkpt lat="22.852779" lon="111.340420">
        <ele>241.750549</ele>
        <time>2026-08-18T08:48:32.000Z</time>
      </trkpt>
      <trkpt lat="22.852744" lon="111.340442">
        <ele>241.841562</ele>
        <time>2026-08-18T08:48:33.000Z</time>
      </trkpt>
      <trkpt lat="22.852710" lon="111.340463">
        <ele>241.929591</ele>
        <time>2026-08-18T08:48:34.000Z</time>
      </trkpt>
      <trkpt lat="22.852677" lon="111.340484">
        <ele>242.015673</ele>
        <time>2026-08-18T08:48:35.000Z</time>
      </trkpt>
      <trkpt lat="22.852644" lon="111.340507">
        <ele>242.103924</ele>
        <time>2026-08-18T08:48:36.000Z</time>
      </trkpt>
      <trkpt lat="22.852612" lon="111.340531">
        <ele>242.191453</ele>
        <time>2026-08-18T08:48:37.000Z</time>
      </trkpt>
      <trkpt lat="22.852578" lon="111.340551">
        <ele>242.278475</ele>
        <time>2026-08-18T08:48:38.000Z</time>
      </trkpt>
      <trkpt lat="22.852546" lon="111.340572">
        <ele>242.362623</ele>
        <time>2026-08-18T08:48:39.000Z</time>
      </trkpt>
      <trkpt lat="22.852515" lon="111.340595">
        <ele>242.447123</ele>
        <time>2026-08-18T08:48:40.000Z</time>
      </trkpt>
      <trkpt lat="22.852483" lon="111.340617">
        <ele>242.532362</ele>
        <time>2026-08-18T08:48:41.000Z</time>
      </trkpt>
      <trkpt lat="22.852451" lon="111.340639">
        <ele>242.617601</ele>
        <time>2026-08-18T08:48:42.000Z</time>
      </trkpt>
      <trkpt lat="22.852419" lon="111.340660">
        <ele>242.701749</ele>
        <time>2026-08-18T08:48:43.000Z</time>
      </trkpt>
      <trkpt lat="22.852386" lon="111.340682">
        <ele>242.788897</ele>
        <time>2026-08-18T08:48:44.000Z</time>
      </trkpt>
      <trkpt lat="22.852353" lon="111.340704">
        <ele>242.876046</ele>
        <time>2026-08-18T08:48:45.000Z</time>
      </trkpt>
      <trkpt lat="22.852321" lon="111.340727">
        <ele>242.962412</ele>
        <time>2026-08-18T08:48:46.000Z</time>
      </trkpt>
      <trkpt lat="22.852290" lon="111.340750">
        <ele>243.046912</ele>
        <time>2026-08-18T08:48:47.000Z</time>
      </trkpt>
      <trkpt lat="22.852260" lon="111.340774">
        <ele>243.130778</ele>
        <time>2026-08-18T08:48:48.000Z</time>
      </trkpt>
      <trkpt lat="22.852229" lon="111.340798">
        <ele>243.216465</ele>
        <time>2026-08-18T08:48:49.000Z</time>
      </trkpt>
      <trkpt lat="22.852199" lon="111.340820">
        <ele>243.297939</ele>
        <time>2026-08-18T08:48:50.000Z</time>
      </trkpt>
      <trkpt lat="22.852169" lon="111.340843">
        <ele>243.380591</ele>
        <time>2026-08-18T08:48:51.000Z</time>
      </trkpt>
      <trkpt lat="22.852141" lon="111.340868">
        <ele>243.462180</ele>
        <time>2026-08-18T08:48:52.000Z</time>
      </trkpt>
      <trkpt lat="22.852114" lon="111.340892">
        <ele>243.540714</ele>
        <time>2026-08-18T08:48:53.000Z</time>
      </trkpt>
      <trkpt lat="22.852086" lon="111.340915">
        <ele>243.619734</ele>
        <time>2026-08-18T08:48:54.000Z</time>
      </trkpt>
      <trkpt lat="22.852057" lon="111.340938">
        <ele>243.700559</ele>
        <time>2026-08-18T08:48:55.000Z</time>
      </trkpt>
      <trkpt lat="22.852027" lon="111.340960">
        <ele>243.782032</ele>
        <time>2026-08-18T08:48:56.000Z</time>
      </trkpt>
      <trkpt lat="22.852000" lon="111.340984">
        <ele>243.860566</ele>
        <time>2026-08-18T08:48:57.000Z</time>
      </trkpt>
      <trkpt lat="22.851974" lon="111.341007">
        <ele>243.936046</ele>
        <time>2026-08-18T08:48:58.000Z</time>
      </trkpt>
      <trkpt lat="22.851945" lon="111.341032">
        <ele>244.019385</ele>
        <time>2026-08-18T08:48:59.000Z</time>
      </trkpt>
      <trkpt lat="22.851918" lon="111.341056">
        <ele>244.097920</ele>
        <time>2026-08-18T08:49:00.000Z</time>
      </trkpt>
      <trkpt lat="22.851892" lon="111.341083">
        <ele>244.178896</ele>
        <time>2026-08-18T08:49:01.000Z</time>
      </trkpt>
      <trkpt lat="22.851864" lon="111.341105">
        <ele>244.256681</ele>
        <time>2026-08-18T08:49:02.000Z</time>
      </trkpt>
      <trkpt lat="22.851838" lon="111.341130">
        <ele>244.334848</ele>
        <time>2026-08-18T08:49:03.000Z</time>
      </trkpt>
      <trkpt lat="22.851811" lon="111.341155">
        <ele>244.414712</ele>
        <time>2026-08-18T08:49:04.000Z</time>
      </trkpt>
      <trkpt lat="22.851785" lon="111.341182">
        <ele>244.495689</ele>
        <time>2026-08-18T08:49:05.000Z</time>
      </trkpt>
      <trkpt lat="22.851757" lon="111.341206">
        <ele>244.575977</ele>
        <time>2026-08-18T08:49:06.000Z</time>
      </trkpt>
      <trkpt lat="22.851726" lon="111.341230">
        <ele>244.661664</ele>
        <time>2026-08-18T08:49:07.000Z</time>
      </trkpt>
      <trkpt lat="22.851697" lon="111.341253">
        <ele>244.742489</ele>
        <time>2026-08-18T08:49:08.000Z</time>
      </trkpt>
      <trkpt lat="22.851670" lon="111.341276">
        <ele>244.819726</ele>
        <time>2026-08-18T08:49:09.000Z</time>
      </trkpt>
      <trkpt lat="22.851642" lon="111.341299">
        <ele>244.898745</ele>
        <time>2026-08-18T08:49:10.000Z</time>
      </trkpt>
      <trkpt lat="22.851614" lon="111.341325">
        <ele>244.981668</ele>
        <time>2026-08-18T08:49:11.000Z</time>
      </trkpt>
      <trkpt lat="22.851582" lon="111.341350">
        <ele>245.070392</ele>
        <time>2026-08-18T08:49:12.000Z</time>
      </trkpt>
      <trkpt lat="22.851552" lon="111.341373">
        <ele>245.153044</ele>
        <time>2026-08-18T08:49:13.000Z</time>
      </trkpt>
      <trkpt lat="22.851522" lon="111.341399">
        <ele>245.239436</ele>
        <time>2026-08-18T08:49:14.000Z</time>
      </trkpt>
      <trkpt lat="22.851491" lon="111.341424">
        <ele>245.326344</ele>
        <time>2026-08-18T08:49:15.000Z</time>
      </trkpt>
      <trkpt lat="22.851461" lon="111.341450">
        <ele>245.412735</ele>
        <time>2026-08-18T08:49:16.000Z</time>
      </trkpt>
      <trkpt lat="22.851432" lon="111.341478">
        <ele>245.500080</ele>
        <time>2026-08-18T08:49:17.000Z</time>
      </trkpt>
      <trkpt lat="22.851402" lon="111.341504">
        <ele>245.586496</ele>
        <time>2026-08-18T08:49:18.000Z</time>
      </trkpt>
      <trkpt lat="22.851374" lon="111.341530">
        <ele>245.669669</ele>
        <time>2026-08-18T08:49:19.000Z</time>
      </trkpt>
      <trkpt lat="22.851347" lon="111.341554">
        <ele>245.748440</ele>
        <time>2026-08-18T08:49:20.000Z</time>
      </trkpt>
      <trkpt lat="22.851318" lon="111.341578">
        <ele>245.830754</ele>
        <time>2026-08-18T08:49:21.000Z</time>
      </trkpt>
      <trkpt lat="22.851288" lon="111.341604">
        <ele>245.917406</ele>
        <time>2026-08-18T08:49:22.000Z</time>
      </trkpt>
      <trkpt lat="22.851258" lon="111.341627">
        <ele>246.000307</ele>
        <time>2026-08-18T08:49:23.000Z</time>
      </trkpt>
      <trkpt lat="22.851230" lon="111.341650">
        <ele>246.079565</ele>
        <time>2026-08-18T08:49:24.000Z</time>
      </trkpt>
      <trkpt lat="22.851203" lon="111.341673">
        <ele>246.157036</ele>
        <time>2026-08-18T08:49:25.000Z</time>
      </trkpt>
      <trkpt lat="22.851176" lon="111.341695">
        <ele>246.233240</ele>
        <time>2026-08-18T08:49:26.000Z</time>
      </trkpt>
      <trkpt lat="22.851149" lon="111.341717">
        <ele>246.309443</ele>
        <time>2026-08-18T08:49:27.000Z</time>
      </trkpt>
      <trkpt lat="22.851122" lon="111.341739">
        <ele>246.385647</ele>
        <time>2026-08-18T08:49:28.000Z</time>
      </trkpt>
      <trkpt lat="22.851096" lon="111.341760">
        <ele>246.458798</ele>
        <time>2026-08-18T08:49:29.000Z</time>
      </trkpt>
      <trkpt lat="22.851071" lon="111.341782">
        <ele>246.531443</ele>
        <time>2026-08-18T08:49:30.000Z</time>
      </trkpt>
      <trkpt lat="22.851044" lon="111.341805">
        <ele>246.608913</ele>
        <time>2026-08-18T08:49:31.000Z</time>
      </trkpt>
      <trkpt lat="22.851019" lon="111.341828">
        <ele>246.682886</ele>
        <time>2026-08-18T08:49:32.000Z</time>
      </trkpt>
      <trkpt lat="22.850994" lon="111.341851">
        <ele>246.756858</ele>
        <time>2026-08-18T08:49:33.000Z</time>
      </trkpt>
      <trkpt lat="22.850969" lon="111.341874">
        <ele>246.830830</ele>
        <time>2026-08-18T08:49:34.000Z</time>
      </trkpt>
      <trkpt lat="22.850944" lon="111.341898">
        <ele>246.906164</ele>
        <time>2026-08-18T08:49:35.000Z</time>
      </trkpt>
      <trkpt lat="22.850920" lon="111.341922">
        <ele>246.979823</ele>
        <time>2026-08-18T08:49:36.000Z</time>
      </trkpt>
      <trkpt lat="22.850896" lon="111.341943">
        <ele>247.049405</ele>
        <time>2026-08-18T08:49:37.000Z</time>
      </trkpt>
      <trkpt lat="22.850872" lon="111.341965">
        <ele>247.120311</ele>
        <time>2026-08-18T08:49:38.000Z</time>
      </trkpt>
      <trkpt lat="22.850848" lon="111.341988">
        <ele>247.192577</ele>
        <time>2026-08-18T08:49:39.000Z</time>
      </trkpt>
      <trkpt lat="22.850825" lon="111.342012">
        <ele>247.264592</ele>
        <time>2026-08-18T08:49:40.000Z</time>
      </trkpt>
      <trkpt lat="22.850801" lon="111.342038">
        <ele>247.341131</ele>
        <time>2026-08-18T08:49:41.000Z</time>
      </trkpt>
      <trkpt lat="22.850775" lon="111.342062">
        <ele>247.418170</ele>
        <time>2026-08-18T08:49:42.000Z</time>
      </trkpt>
      <trkpt lat="22.850749" lon="111.342084">
        <ele>247.492582</ele>
        <time>2026-08-18T08:49:43.000Z</time>
      </trkpt>
      <trkpt lat="22.850724" lon="111.342107">
        <ele>247.566554</ele>
        <time>2026-08-18T08:49:44.000Z</time>
      </trkpt>
      <trkpt lat="22.850699" lon="111.342131">
        <ele>247.641888</ele>
        <time>2026-08-18T08:49:45.000Z</time>
      </trkpt>
      <trkpt lat="22.850673" lon="111.342157">
        <ele>247.721685</ele>
        <time>2026-08-18T08:49:46.000Z</time>
      </trkpt>
      <trkpt lat="22.850649" lon="111.342186">
        <ele>247.802753</ele>
        <time>2026-08-18T08:49:47.000Z</time>
      </trkpt>
      <trkpt lat="22.850626" lon="111.342215">
        <ele>247.882330</ele>
        <time>2026-08-18T08:49:48.000Z</time>
      </trkpt>
      <trkpt lat="22.850603" lon="111.342245">
        <ele>247.963495</ele>
        <time>2026-08-18T08:49:49.000Z</time>
      </trkpt>
      <trkpt lat="22.850580" lon="111.342275">
        <ele>248.044660</ele>
        <time>2026-08-18T08:49:50.000Z</time>
      </trkpt>
      <trkpt lat="22.850556" lon="111.342303">
        <ele>248.124192</ele>
        <time>2026-08-18T08:49:51.000Z</time>
      </trkpt>
      <trkpt lat="22.850532" lon="111.342332">
        <ele>248.205260</ele>
        <time>2026-08-18T08:49:52.000Z</time>
      </trkpt>
      <trkpt lat="22.850508" lon="111.342360">
        <ele>248.284792</ele>
        <time>2026-08-18T08:49:53.000Z</time>
      </trkpt>
      <trkpt lat="22.850487" lon="111.342390">
        <ele>248.363147</ele>
        <time>2026-08-18T08:49:54.000Z</time>
      </trkpt>
      <trkpt lat="22.850465" lon="111.342419">
        <ele>248.441271</ele>
        <time>2026-08-18T08:49:55.000Z</time>
      </trkpt>
      <trkpt lat="22.850444" lon="111.342448">
        <ele>248.517980</ele>
        <time>2026-08-18T08:49:56.000Z</time>
      </trkpt>
      <trkpt lat="22.850421" lon="111.342477">
        <ele>248.597557</ele>
        <time>2026-08-18T08:49:57.000Z</time>
      </trkpt>
      <trkpt lat="22.850399" lon="111.342507">
        <ele>248.677298</ele>
        <time>2026-08-18T08:49:58.000Z</time>
      </trkpt>
      <trkpt lat="22.850376" lon="111.342538">
        <ele>248.760072</ele>
        <time>2026-08-18T08:49:59.000Z</time>
      </trkpt>
      <trkpt lat="22.850356" lon="111.342568">
        <ele>248.837083</ele>
        <time>2026-08-18T08:50:00.000Z</time>
      </trkpt>
      <trkpt lat="22.850337" lon="111.342599">
        <ele>248.914516</ele>
        <time>2026-08-18T08:50:01.000Z</time>
      </trkpt>
      <trkpt lat="22.850318" lon="111.342632">
        <ele>248.995445</ele>
        <time>2026-08-18T08:50:02.000Z</time>
      </trkpt>
      <trkpt lat="22.850299" lon="111.342666">
        <ele>249.078146</ele>
        <time>2026-08-18T08:50:03.000Z</time>
      </trkpt>
      <trkpt lat="22.850281" lon="111.342699">
        <ele>249.157902</ele>
        <time>2026-08-18T08:50:04.000Z</time>
      </trkpt>
      <trkpt lat="22.850262" lon="111.342730">
        <ele>249.235335</ele>
        <time>2026-08-18T08:50:05.000Z</time>
      </trkpt>
      <trkpt lat="22.850242" lon="111.342762">
        <ele>249.315753</ele>
        <time>2026-08-18T08:50:06.000Z</time>
      </trkpt>
      <trkpt lat="22.850223" lon="111.342793">
        <ele>249.393186</ele>
        <time>2026-08-18T08:50:07.000Z</time>
      </trkpt>
      <trkpt lat="22.850206" lon="111.342825">
        <ele>249.470008</ele>
        <time>2026-08-18T08:50:08.000Z</time>
      </trkpt>
      <trkpt lat="22.850186" lon="111.342858">
        <ele>249.552156</ele>
        <time>2026-08-18T08:50:09.000Z</time>
      </trkpt>
      <trkpt lat="22.850166" lon="111.342892">
        <ele>249.636049</ele>
        <time>2026-08-18T08:50:10.000Z</time>
      </trkpt>
      <trkpt lat="22.850147" lon="111.342924">
        <ele>249.770978</ele>
        <time>2026-08-18T08:50:11.000Z</time>
      </trkpt>
      <trkpt lat="22.850130" lon="111.342958">
        <ele>249.909176</ele>
        <time>2026-08-18T08:50:12.000Z</time>
      </trkpt>
      <trkpt lat="22.850113" lon="111.342992">
        <ele>250.047375</ele>
        <time>2026-08-18T08:50:13.000Z</time>
      </trkpt>
      <trkpt lat="22.850095" lon="111.343025">
        <ele>250.184377</ele>
        <time>2026-08-18T08:50:14.000Z</time>
      </trkpt>
      <trkpt lat="22.850078" lon="111.343060">
        <ele>250.325726</ele>
        <time>2026-08-18T08:50:15.000Z</time>
      </trkpt>
      <trkpt lat="22.850061" lon="111.343094">
        <ele>250.463924</ele>
        <time>2026-08-18T08:50:16.000Z</time>
      </trkpt>
      <trkpt lat="22.850046" lon="111.343127">
        <ele>250.595384</ele>
        <time>2026-08-18T08:50:17.000Z</time>
      </trkpt>
      <trkpt lat="22.850031" lon="111.343159">
        <ele>250.723649</ele>
        <time>2026-08-18T08:50:18.000Z</time>
      </trkpt>
      <trkpt lat="22.850016" lon="111.343193">
        <ele>250.858323</ele>
        <time>2026-08-18T08:50:19.000Z</time>
      </trkpt>
      <trkpt lat="22.849998" lon="111.343225">
        <ele>250.992263</ele>
        <time>2026-08-18T08:50:20.000Z</time>
      </trkpt>
      <trkpt lat="22.849981" lon="111.343257">
        <ele>251.124225</ele>
        <time>2026-08-18T08:50:21.000Z</time>
      </trkpt>
      <trkpt lat="22.849964" lon="111.343290">
        <ele>251.259294</ele>
        <time>2026-08-18T08:50:22.000Z</time>
      </trkpt>
      <trkpt lat="22.849948" lon="111.343321">
        <ele>251.386234</ele>
        <time>2026-08-18T08:50:23.000Z</time>
      </trkpt>
      <trkpt lat="22.849934" lon="111.343351">
        <ele>251.506374</ele>
        <time>2026-08-18T08:50:24.000Z</time>
      </trkpt>
      <trkpt lat="22.849920" lon="111.343379">
        <ele>251.620184</ele>
        <time>2026-08-18T08:50:25.000Z</time>
      </trkpt>
      <trkpt lat="22.849905" lon="111.343407">
        <ele>251.735894</ele>
        <time>2026-08-18T08:50:26.000Z</time>
      </trkpt>
      <trkpt lat="22.849890" lon="111.343436">
        <ele>251.854706</ele>
        <time>2026-08-18T08:50:27.000Z</time>
      </trkpt>
      <trkpt lat="22.849873" lon="111.343464">
        <ele>251.974500</ele>
        <time>2026-08-18T08:50:28.000Z</time>
      </trkpt>
      <trkpt lat="22.849855" lon="111.343492">
        <ele>252.096470</ele>
        <time>2026-08-18T08:50:29.000Z</time>
      </trkpt>
      <trkpt lat="22.849833" lon="111.343517">
        <ele>252.219970</ele>
        <time>2026-08-18T08:50:30.000Z</time>
      </trkpt>
      <trkpt lat="22.849812" lon="111.343546">
        <ele>252.351738</ele>
        <time>2026-08-18T08:50:31.000Z</time>
      </trkpt>
      <trkpt lat="22.849794" lon="111.343576">
        <ele>252.479633</ele>
        <time>2026-08-18T08:50:32.000Z</time>
      </trkpt>
      <trkpt lat="22.849777" lon="111.343605">
        <ele>252.602427</ele>
        <time>2026-08-18T08:50:33.000Z</time>
      </trkpt>
      <trkpt lat="22.849761" lon="111.343635">
        <ele>252.726263</ele>
        <time>2026-08-18T08:50:34.000Z</time>
      </trkpt>
      <trkpt lat="22.849746" lon="111.343667">
        <ele>252.854528</ele>
        <time>2026-08-18T08:50:35.000Z</time>
      </trkpt>
      <trkpt lat="22.849730" lon="111.343696">
        <ele>252.975285</ele>
        <time>2026-08-18T08:50:36.000Z</time>
      </trkpt>
      <trkpt lat="22.849716" lon="111.343724">
        <ele>253.089096</ele>
        <time>2026-08-18T08:50:37.000Z</time>
      </trkpt>
      <trkpt lat="22.849702" lon="111.343753">
        <ele>253.206059</ele>
        <time>2026-08-18T08:50:38.000Z</time>
      </trkpt>
      <trkpt lat="22.849688" lon="111.343781">
        <ele>253.319870</ele>
        <time>2026-08-18T08:50:39.000Z</time>
      </trkpt>
      <trkpt lat="22.849673" lon="111.343806">
        <ele>253.426450</ele>
        <time>2026-08-18T08:50:40.000Z</time>
      </trkpt>
      <trkpt lat="22.849662" lon="111.343829">
        <ele>253.519028</ele>
        <time>2026-08-18T08:50:41.000Z</time>
      </trkpt>
      <trkpt lat="22.849650" lon="111.343854">
        <ele>253.619735</ele>
        <time>2026-08-18T08:50:42.000Z</time>
      </trkpt>
      <trkpt lat="22.849639" lon="111.343878">
        <ele>253.715499</ele>
        <time>2026-08-18T08:50:43.000Z</time>
      </trkpt>
      <trkpt lat="22.849625" lon="111.343901">
        <ele>253.813977</ele>
        <time>2026-08-18T08:50:44.000Z</time>
      </trkpt>
      <trkpt lat="22.849611" lon="111.343922">
        <ele>253.906578</ele>
        <time>2026-08-18T08:50:45.000Z</time>
      </trkpt>
      <trkpt lat="22.849598" lon="111.343944">
        <ele>253.999947</ele>
        <time>2026-08-18T08:50:46.000Z</time>
      </trkpt>
      <trkpt lat="22.849587" lon="111.343964">
        <ele>254.083160</ele>
        <time>2026-08-18T08:50:47.000Z</time>
      </trkpt>
      <trkpt lat="22.849574" lon="111.343983">
        <ele>254.167705</ele>
        <time>2026-08-18T08:50:48.000Z</time>
      </trkpt>
      <trkpt lat="22.849563" lon="111.344004">
        <ele>254.254004</ele>
        <time>2026-08-18T08:50:49.000Z</time>
      </trkpt>
      <trkpt lat="22.849552" lon="111.344027">
        <ele>254.346583</ele>
        <time>2026-08-18T08:50:50.000Z</time>
      </trkpt>
      <trkpt lat="22.849538" lon="111.344049">
        <ele>254.442101</ele>
        <time>2026-08-18T08:50:51.000Z</time>
      </trkpt>
      <trkpt lat="22.849523" lon="111.344071">
        <ele>254.539874</ele>
        <time>2026-08-18T08:50:52.000Z</time>
      </trkpt>
      <trkpt lat="22.849510" lon="111.344090">
        <ele>254.624419</ele>
        <time>2026-08-18T08:50:53.000Z</time>
      </trkpt>
      <trkpt lat="22.849498" lon="111.344111">
        <ele>254.712699</ele>
        <time>2026-08-18T08:50:54.000Z</time>
      </trkpt>
      <trkpt lat="22.849486" lon="111.344131">
        <ele>254.797963</ele>
        <time>2026-08-18T08:50:55.000Z</time>
      </trkpt>
      <trkpt lat="22.849475" lon="111.344151">
        <ele>254.881175</ele>
        <time>2026-08-18T08:50:56.000Z</time>
      </trkpt>
      <trkpt lat="22.849463" lon="111.344171">
        <ele>254.966439</ele>
        <time>2026-08-18T08:50:57.000Z</time>
      </trkpt>
      <trkpt lat="22.849451" lon="111.344192">
        <ele>255.054719</ele>
        <time>2026-08-18T08:50:58.000Z</time>
      </trkpt>
      <trkpt lat="22.849440" lon="111.344213">
        <ele>255.141018</ele>
        <time>2026-08-18T08:50:59.000Z</time>
      </trkpt>
      <trkpt lat="22.849431" lon="111.344235">
        <ele>255.227014</ele>
        <time>2026-08-18T08:51:00.000Z</time>
      </trkpt>
      <trkpt lat="22.849421" lon="111.344259">
        <ele>255.321115</ele>
        <time>2026-08-18T08:51:01.000Z</time>
      </trkpt>
      <trkpt lat="22.849410" lon="111.344280">
        <ele>255.407414</ele>
        <time>2026-08-18T08:51:02.000Z</time>
      </trkpt>
      <trkpt lat="22.849397" lon="111.344300">
        <ele>255.494854</ele>
        <time>2026-08-18T08:51:03.000Z</time>
      </trkpt>
      <trkpt lat="22.849384" lon="111.344320">
        <ele>255.582294</ele>
        <time>2026-08-18T08:51:04.000Z</time>
      </trkpt>
      <trkpt lat="22.849372" lon="111.344340">
        <ele>255.667558</ele>
        <time>2026-08-18T08:51:05.000Z</time>
      </trkpt>
      <trkpt lat="22.849360" lon="111.344360">
        <ele>255.752822</ele>
        <time>2026-08-18T08:51:06.000Z</time>
      </trkpt>
      <trkpt lat="22.849348" lon="111.344379">
        <ele>255.835115</ele>
        <time>2026-08-18T08:51:07.000Z</time>
      </trkpt>
      <trkpt lat="22.849337" lon="111.344398">
        <ele>255.915281</ele>
        <time>2026-08-18T08:51:08.000Z</time>
      </trkpt>
      <trkpt lat="22.849325" lon="111.344417">
        <ele>255.997574</ele>
        <time>2026-08-18T08:51:09.000Z</time>
      </trkpt>
      <trkpt lat="22.849313" lon="111.344437">
        <ele>256.082838</ele>
        <time>2026-08-18T08:51:10.000Z</time>
      </trkpt>
      <trkpt lat="22.849303" lon="111.344456">
        <ele>256.161010</ele>
        <time>2026-08-18T08:51:11.000Z</time>
      </trkpt>
      <trkpt lat="22.849293" lon="111.344476">
        <ele>256.242303</ele>
        <time>2026-08-18T08:51:12.000Z</time>
      </trkpt>
      <trkpt lat="22.849283" lon="111.344497">
        <ele>256.326754</ele>
        <time>2026-08-18T08:51:13.000Z</time>
      </trkpt>
      <trkpt lat="22.849272" lon="111.344519">
        <ele>256.416177</ele>
        <time>2026-08-18T08:51:14.000Z</time>
      </trkpt>
      <trkpt lat="22.849259" lon="111.344540">
        <ele>256.506560</ele>
        <time>2026-08-18T08:51:15.000Z</time>
      </trkpt>
      <trkpt lat="22.849248" lon="111.344562">
        <ele>256.595983</ele>
        <time>2026-08-18T08:51:16.000Z</time>
      </trkpt>
      <trkpt lat="22.849236" lon="111.344583">
        <ele>256.639443</ele>
        <time>2026-08-18T08:51:17.000Z</time>
      </trkpt>
      <trkpt lat="22.849226" lon="111.344606">
        <ele>256.674946</ele>
        <time>2026-08-18T08:51:18.000Z</time>
      </trkpt>
      <trkpt lat="22.849214" lon="111.344628">
        <ele>256.710635</ele>
        <time>2026-08-18T08:51:19.000Z</time>
      </trkpt>
      <trkpt lat="22.849201" lon="111.344649">
        <ele>256.745952</ele>
        <time>2026-08-18T08:51:20.000Z</time>
      </trkpt>
      <trkpt lat="22.849187" lon="111.344669">
        <ele>256.781014</ele>
        <time>2026-08-18T08:51:21.000Z</time>
      </trkpt>
      <trkpt lat="22.849177" lon="111.344690">
        <ele>256.814014</ele>
        <time>2026-08-18T08:51:22.000Z</time>
      </trkpt>
      <trkpt lat="22.849168" lon="111.344711">
        <ele>256.846346</ele>
        <time>2026-08-18T08:51:23.000Z</time>
      </trkpt>
      <trkpt lat="22.849156" lon="111.344732">
        <ele>256.880841</ele>
        <time>2026-08-18T08:51:24.000Z</time>
      </trkpt>
      <trkpt lat="22.849143" lon="111.344751">
        <ele>256.913877</ele>
        <time>2026-08-18T08:51:25.000Z</time>
      </trkpt>
      <trkpt lat="22.849131" lon="111.344770">
        <ele>256.946033</ele>
        <time>2026-08-18T08:51:26.000Z</time>
      </trkpt>
      <trkpt lat="22.849119" lon="111.344789">
        <ele>256.978189</ele>
        <time>2026-08-18T08:51:27.000Z</time>
      </trkpt>
      <trkpt lat="22.849108" lon="111.344809">
        <ele>257.010705</ele>
        <time>2026-08-18T08:51:28.000Z</time>
      </trkpt>
      <trkpt lat="22.849095" lon="111.344829">
        <ele>257.044872</ele>
        <time>2026-08-18T08:51:29.000Z</time>
      </trkpt>
      <trkpt lat="22.849082" lon="111.344847">
        <ele>257.076798</ele>
        <time>2026-08-18T08:51:30.000Z</time>
      </trkpt>
      <trkpt lat="22.849068" lon="111.344867">
        <ele>257.111860</ele>
        <time>2026-08-18T08:51:31.000Z</time>
      </trkpt>
      <trkpt lat="22.849055" lon="111.344887">
        <ele>257.146027</ele>
        <time>2026-08-18T08:51:32.000Z</time>
      </trkpt>
      <trkpt lat="22.849042" lon="111.344911">
        <ele>257.184891</ele>
        <time>2026-08-18T08:51:33.000Z</time>
      </trkpt>
      <trkpt lat="22.849030" lon="111.344934">
        <ele>257.221789</ele>
        <time>2026-08-18T08:51:34.000Z</time>
      </trkpt>
      <trkpt lat="22.849018" lon="111.344957">
        <ele>257.258687</ele>
        <time>2026-08-18T08:51:35.000Z</time>
      </trkpt>
      <trkpt lat="22.849005" lon="111.344979">
        <ele>257.295171</ele>
        <time>2026-08-18T08:51:36.000Z</time>
      </trkpt>
      <trkpt lat="22.848995" lon="111.345000">
        <ele>257.328170</ele>
        <time>2026-08-18T08:51:37.000Z</time>
      </trkpt>
      <trkpt lat="22.848985" lon="111.345022">
        <ele>257.362416</ele>
        <time>2026-08-18T08:51:38.000Z</time>
      </trkpt>
      <trkpt lat="22.848977" lon="111.345042">
        <ele>257.392853</ele>
        <time>2026-08-18T08:51:39.000Z</time>
      </trkpt>
      <trkpt lat="22.848964" lon="111.345062">
        <ele>257.427020</ele>
        <time>2026-08-18T08:51:40.000Z</time>
      </trkpt>
      <trkpt lat="22.848952" lon="111.345084">
        <ele>257.462710</ele>
        <time>2026-08-18T08:51:41.000Z</time>
      </trkpt>
      <trkpt lat="22.848939" lon="111.345105">
        <ele>257.498027</ele>
        <time>2026-08-18T08:51:42.000Z</time>
      </trkpt>
      <trkpt lat="22.848927" lon="111.345127">
        <ele>257.533716</ele>
        <time>2026-08-18T08:51:43.000Z</time>
      </trkpt>
      <trkpt lat="22.848912" lon="111.345149">
        <ele>257.571921</ele>
        <time>2026-08-18T08:51:44.000Z</time>
      </trkpt>
      <trkpt lat="22.848898" lon="111.345173">
        <ele>257.611574</ele>
        <time>2026-08-18T08:51:45.000Z</time>
      </trkpt>
      <trkpt lat="22.848885" lon="111.345198">
        <ele>257.651648</ele>
        <time>2026-08-18T08:51:46.000Z</time>
      </trkpt>
      <trkpt lat="22.848873" lon="111.345221">
        <ele>257.688546</ele>
        <time>2026-08-18T08:51:47.000Z</time>
      </trkpt>
      <trkpt lat="22.848859" lon="111.345243">
        <ele>257.725869</ele>
        <time>2026-08-18T08:51:48.000Z</time>
      </trkpt>
      <trkpt lat="22.848845" lon="111.345264">
        <ele>257.762053</ele>
        <time>2026-08-18T08:51:49.000Z</time>
      </trkpt>
      <trkpt lat="22.848834" lon="111.345284">
        <ele>257.794569</ele>
        <time>2026-08-18T08:51:50.000Z</time>
      </trkpt>
      <trkpt lat="22.848825" lon="111.345303">
        <ele>257.824392</ele>
        <time>2026-08-18T08:51:51.000Z</time>
      </trkpt>
      <trkpt lat="22.848817" lon="111.345322">
        <ele>257.853554</ele>
        <time>2026-08-18T08:51:52.000Z</time>
      </trkpt>
      <trkpt lat="22.848803" lon="111.345344">
        <ele>257.890878</ele>
        <time>2026-08-18T08:51:53.000Z</time>
      </trkpt>
      <trkpt lat="22.848789" lon="111.345369">
        <ele>257.931718</ele>
        <time>2026-08-18T08:51:54.000Z</time>
      </trkpt>
      <trkpt lat="22.848774" lon="111.345392">
        <ele>257.971054</ele>
        <time>2026-08-18T08:51:55.000Z</time>
      </trkpt>
      <trkpt lat="22.848759" lon="111.345415">
        <ele>258.010390</ele>
        <time>2026-08-18T08:51:56.000Z</time>
      </trkpt>
      <trkpt lat="22.848745" lon="111.345440">
        <ele>258.051229</ele>
        <time>2026-08-18T08:51:57.000Z</time>
      </trkpt>
      <trkpt lat="22.848729" lon="111.345465">
        <ele>258.093721</ele>
        <time>2026-08-18T08:51:58.000Z</time>
      </trkpt>
      <trkpt lat="22.848713" lon="111.345493">
        <ele>258.139715</ele>
        <time>2026-08-18T08:51:59.000Z</time>
      </trkpt>
      <trkpt lat="22.848698" lon="111.345521">
        <ele>258.184929</ele>
        <time>2026-08-18T08:52:00.000Z</time>
      </trkpt>
      <trkpt lat="22.848683" lon="111.345548">
        <ele>258.228941</ele>
        <time>2026-08-18T08:52:01.000Z</time>
      </trkpt>
      <trkpt lat="22.848665" lon="111.345576">
        <ele>258.276602</ele>
        <time>2026-08-18T08:52:02.000Z</time>
      </trkpt>
      <trkpt lat="22.848644" lon="111.345601">
        <ele>258.323826</ele>
        <time>2026-08-18T08:52:03.000Z</time>
      </trkpt>
      <trkpt lat="22.848625" lon="111.345627">
        <ele>258.370150</ele>
        <time>2026-08-18T08:52:04.000Z</time>
      </trkpt>
      <trkpt lat="22.848605" lon="111.345656">
        <ele>258.420717</ele>
        <time>2026-08-18T08:52:05.000Z</time>
      </trkpt>
      <trkpt lat="22.848588" lon="111.345688">
        <ele>258.472281</ele>
        <time>2026-08-18T08:52:06.000Z</time>
      </trkpt>
      <trkpt lat="22.848570" lon="111.345718">
        <ele>258.522257</ele>
        <time>2026-08-18T08:52:07.000Z</time>
      </trkpt>
      <trkpt lat="22.848552" lon="111.345749">
        <ele>258.573408</ele>
        <time>2026-08-18T08:52:08.000Z</time>
      </trkpt>
      <trkpt lat="22.848536" lon="111.345779">
        <ele>258.621797</ele>
        <time>2026-08-18T08:52:09.000Z</time>
      </trkpt>
      <trkpt lat="22.848518" lon="111.345810">
        <ele>258.672949</ele>
        <time>2026-08-18T08:52:10.000Z</time>
      </trkpt>
      <trkpt lat="22.848500" lon="111.345842">
        <ele>258.725286</ele>
        <time>2026-08-18T08:52:11.000Z</time>
      </trkpt>
      <trkpt lat="22.848483" lon="111.345876">
        <ele>258.779288</ele>
        <time>2026-08-18T08:52:12.000Z</time>
      </trkpt>
      <trkpt lat="22.848465" lon="111.345910">
        <ele>258.834028</ele>
        <time>2026-08-18T08:52:13.000Z</time>
      </trkpt>
      <trkpt lat="22.848442" lon="111.345942">
        <ele>258.890682</ele>
        <time>2026-08-18T08:52:14.000Z</time>
      </trkpt>
      <trkpt lat="22.848422" lon="111.345975">
        <ele>258.945821</ele>
        <time>2026-08-18T08:52:15.000Z</time>
      </trkpt>
      <trkpt lat="22.848400" lon="111.346008">
        <ele>259.002682</ele>
        <time>2026-08-18T08:52:16.000Z</time>
      </trkpt>
      <trkpt lat="22.848376" lon="111.346040">
        <ele>259.060280</ele>
        <time>2026-08-18T08:52:17.000Z</time>
      </trkpt>
      <trkpt lat="22.848353" lon="111.346074">
        <ele>259.119161</ele>
        <time>2026-08-18T08:52:18.000Z</time>
      </trkpt>
      <trkpt lat="22.848329" lon="111.346107">
        <ele>259.177849</ele>
        <time>2026-08-18T08:52:19.000Z</time>
      </trkpt>
      <trkpt lat="22.848304" lon="111.346141">
        <ele>259.238571</ele>
        <time>2026-08-18T08:52:20.000Z</time>
      </trkpt>
      <trkpt lat="22.848278" lon="111.346176">
        <ele>259.301331</ele>
        <time>2026-08-18T08:52:21.000Z</time>
      </trkpt>
      <trkpt lat="22.848248" lon="111.346212">
        <ele>259.230532</ele>
        <time>2026-08-18T08:52:22.000Z</time>
      </trkpt>
      <trkpt lat="22.848220" lon="111.346248">
        <ele>259.025335</ele>
        <time>2026-08-18T08:52:23.000Z</time>
      </trkpt>
      <trkpt lat="22.848191" lon="111.346284">
        <ele>258.817058</ele>
        <time>2026-08-18T08:52:24.000Z</time>
      </trkpt>
      <trkpt lat="22.848158" lon="111.346321">
        <ele>258.592769</ele>
        <time>2026-08-18T08:52:25.000Z</time>
      </trkpt>
      <trkpt lat="22.848127" lon="111.346361">
        <ele>258.365110</ele>
        <time>2026-08-18T08:52:26.000Z</time>
      </trkpt>
      <trkpt lat="22.848095" lon="111.346401">
        <ele>258.134381</ele>
        <time>2026-08-18T08:52:27.000Z</time>
      </trkpt>
      <trkpt lat="22.848061" lon="111.346441">
        <ele>257.897346</ele>
        <time>2026-08-18T08:52:28.000Z</time>
      </trkpt>
      <trkpt lat="22.848022" lon="111.346482">
        <ele>257.640681</ele>
        <time>2026-08-18T08:52:29.000Z</time>
      </trkpt>
      <trkpt lat="22.847981" lon="111.346522">
        <ele>257.380076</ele>
        <time>2026-08-18T08:52:30.000Z</time>
      </trkpt>
      <trkpt lat="22.847939" lon="111.346565">
        <ele>257.107141</ele>
        <time>2026-08-18T08:52:31.000Z</time>
      </trkpt>
      <trkpt lat="22.847894" lon="111.346607">
        <ele>256.826583</ele>
        <time>2026-08-18T08:52:32.000Z</time>
      </trkpt>
      <trkpt lat="22.847848" lon="111.346650">
        <ele>256.539602</ele>
        <time>2026-08-18T08:52:33.000Z</time>
      </trkpt>
      <trkpt lat="22.847801" lon="111.346697">
        <ele>256.237499</ele>
        <time>2026-08-18T08:52:34.000Z</time>
      </trkpt>
      <trkpt lat="22.847752" lon="111.346746">
        <ele>255.922539</ele>
        <time>2026-08-18T08:52:35.000Z</time>
      </trkpt>
      <trkpt lat="22.847701" lon="111.346798">
        <ele>255.591757</ele>
        <time>2026-08-18T08:52:36.000Z</time>
      </trkpt>
      <trkpt lat="22.847648" lon="111.346853">
        <ele>255.245124</ele>
        <time>2026-08-18T08:52:37.000Z</time>
      </trkpt>
      <trkpt lat="22.847594" lon="111.346911">
        <ele>254.885990</ele>
        <time>2026-08-18T08:52:38.000Z</time>
      </trkpt>
      <trkpt lat="22.847540" lon="111.346971">
        <ele>254.520675</ele>
        <time>2026-08-18T08:52:39.000Z</time>
      </trkpt>
      <trkpt lat="22.847486" lon="111.347034">
        <ele>254.145900</ele>
        <time>2026-08-18T08:52:40.000Z</time>
      </trkpt>
      <trkpt lat="22.847427" lon="111.347098">
        <ele>253.751578</ele>
        <time>2026-08-18T08:52:41.000Z</time>
      </trkpt>
      <trkpt lat="22.847365" lon="111.347163">
        <ele>253.344089</ele>
        <time>2026-08-18T08:52:42.000Z</time>
      </trkpt>
      <trkpt lat="22.847302" lon="111.347226">
        <ele>252.939141</ele>
        <time>2026-08-18T08:52:43.000Z</time>
      </trkpt>
      <trkpt lat="22.847238" lon="111.347290">
        <ele>252.527765</ele>
        <time>2026-08-18T08:52:44.000Z</time>
      </trkpt>
      <trkpt lat="22.847171" lon="111.347357">
        <ele>252.097105</ele>
        <time>2026-08-18T08:52:45.000Z</time>
      </trkpt>
      <trkpt lat="22.847105" lon="111.347423">
        <ele>251.672874</ele>
        <time>2026-08-18T08:52:46.000Z</time>
      </trkpt>
      <trkpt lat="22.847039" lon="111.347490">
        <ele>251.245678</ele>
        <time>2026-08-18T08:52:47.000Z</time>
      </trkpt>
      <trkpt lat="22.846973" lon="111.347560">
        <ele>250.828772</ele>
        <time>2026-08-18T08:52:48.000Z</time>
      </trkpt>
      <trkpt lat="22.846906" lon="111.347632">
        <ele>250.737685</ele>
        <time>2026-08-18T08:52:49.000Z</time>
      </trkpt>
      <trkpt lat="22.846841" lon="111.347702">
        <ele>250.649224</ele>
        <time>2026-08-18T08:52:50.000Z</time>
      </trkpt>
      <trkpt lat="22.846776" lon="111.347773">
        <ele>250.560134</ele>
        <time>2026-08-18T08:52:51.000Z</time>
      </trkpt>
      <trkpt lat="22.846712" lon="111.347842">
        <ele>250.472986</ele>
        <time>2026-08-18T08:52:52.000Z</time>
      </trkpt>
      <trkpt lat="22.846649" lon="111.347912">
        <ele>250.385886</ele>
        <time>2026-08-18T08:52:53.000Z</time>
      </trkpt>
      <trkpt lat="22.846587" lon="111.347979">
        <ele>250.301363</ele>
        <time>2026-08-18T08:52:54.000Z</time>
      </trkpt>
      <trkpt lat="22.846525" lon="111.348046">
        <ele>250.216840</ele>
        <time>2026-08-18T08:52:55.000Z</time>
      </trkpt>
      <trkpt lat="22.846462" lon="111.348110">
        <ele>250.133477</ele>
        <time>2026-08-18T08:52:56.000Z</time>
      </trkpt>
      <trkpt lat="22.846403" lon="111.348174">
        <ele>250.052891</ele>
        <time>2026-08-18T08:52:57.000Z</time>
      </trkpt>
      <trkpt lat="22.846343" lon="111.348236">
        <ele>249.972858</ele>
        <time>2026-08-18T08:52:58.000Z</time>
      </trkpt>
      <trkpt lat="22.846284" lon="111.348295">
        <ele>249.895355</ele>
        <time>2026-08-18T08:52:59.000Z</time>
      </trkpt>
      <trkpt lat="22.846228" lon="111.348355">
        <ele>249.819335</ele>
        <time>2026-08-18T08:53:00.000Z</time>
      </trkpt>
      <trkpt lat="22.846173" lon="111.348412">
        <ele>249.745869</ele>
        <time>2026-08-18T08:53:01.000Z</time>
      </trkpt>
      <trkpt lat="22.846121" lon="111.348467">
        <ele>249.675724</ele>
        <time>2026-08-18T08:53:02.000Z</time>
      </trkpt>
      <trkpt lat="22.846072" lon="111.348522">
        <ele>249.607625</ele>
        <time>2026-08-18T08:53:03.000Z</time>
      </trkpt>
      <trkpt lat="22.846023" lon="111.348576">
        <ele>249.540162</ele>
        <time>2026-08-18T08:53:04.000Z</time>
      </trkpt>
      <trkpt lat="22.845977" lon="111.348631">
        <ele>249.474044</ele>
        <time>2026-08-18T08:53:05.000Z</time>
      </trkpt>
      <trkpt lat="22.845934" lon="111.348686">
        <ele>249.409838</ele>
        <time>2026-08-18T08:53:06.000Z</time>
      </trkpt>
      <trkpt lat="22.845891" lon="111.348741">
        <ele>249.345631</ele>
        <time>2026-08-18T08:53:07.000Z</time>
      </trkpt>
      <trkpt lat="22.845849" lon="111.348796">
        <ele>249.282045</ele>
        <time>2026-08-18T08:53:08.000Z</time>
      </trkpt>
      <trkpt lat="22.845809" lon="111.348849">
        <ele>249.221062</ele>
        <time>2026-08-18T08:53:09.000Z</time>
      </trkpt>
      <trkpt lat="22.845773" lon="111.348902">
        <ele>249.162450</ele>
        <time>2026-08-18T08:53:10.000Z</time>
      </trkpt>
      <trkpt lat="22.845741" lon="111.348959">
        <ele>249.103035</ele>
        <time>2026-08-18T08:53:11.000Z</time>
      </trkpt>
      <trkpt lat="22.845711" lon="111.349017">
        <ele>249.074270</ele>
        <time>2026-08-18T08:53:12.000Z</time>
      </trkpt>
      <trkpt lat="22.845683" lon="111.349076">
        <ele>249.049475</ele>
        <time>2026-08-18T08:53:13.000Z</time>
      </trkpt>
      <trkpt lat="22.845656" lon="111.349133">
        <ele>249.025529</ele>
        <time>2026-08-18T08:53:14.000Z</time>
      </trkpt>
      <trkpt lat="22.845632" lon="111.349190">
        <ele>249.002115</ele>
        <time>2026-08-18T08:53:15.000Z</time>
      </trkpt>
      <trkpt lat="22.845609" lon="111.349249">
        <ele>248.978180</ele>
        <time>2026-08-18T08:53:16.000Z</time>
      </trkpt>
      <trkpt lat="22.845588" lon="111.349308">
        <ele>248.954549</ele>
        <time>2026-08-18T08:53:17.000Z</time>
      </trkpt>
      <trkpt lat="22.845566" lon="111.349367">
        <ele>248.930768</ele>
        <time>2026-08-18T08:53:18.000Z</time>
      </trkpt>
      <trkpt lat="22.845546" lon="111.349426">
        <ele>248.907280</ele>
        <time>2026-08-18T08:53:19.000Z</time>
      </trkpt>
      <trkpt lat="22.845529" lon="111.349487">
        <ele>248.883469</ele>
        <time>2026-08-18T08:53:20.000Z</time>
      </trkpt>
      <trkpt lat="22.845513" lon="111.349547">
        <ele>248.860132</ele>
        <time>2026-08-18T08:53:21.000Z</time>
      </trkpt>
      <trkpt lat="22.845496" lon="111.349608">
        <ele>248.836321</ele>
        <time>2026-08-18T08:53:22.000Z</time>
      </trkpt>
      <trkpt lat="22.845481" lon="111.349670">
        <ele>248.812371</ele>
        <time>2026-08-18T08:53:23.000Z</time>
      </trkpt>
      <trkpt lat="22.845467" lon="111.349731">
        <ele>248.788884</ele>
        <time>2026-08-18T08:53:24.000Z</time>
      </trkpt>
      <trkpt lat="22.845453" lon="111.349794">
        <ele>248.764670</ele>
        <time>2026-08-18T08:53:25.000Z</time>
      </trkpt>
      <trkpt lat="22.845441" lon="111.349857">
        <ele>248.740634</ele>
        <time>2026-08-18T08:53:26.000Z</time>
      </trkpt>
      <trkpt lat="22.845428" lon="111.349921">
        <ele>248.716148</ele>
        <time>2026-08-18T08:53:27.000Z</time>
      </trkpt>
      <trkpt lat="22.845414" lon="111.349984">
        <ele>248.691935</ele>
        <time>2026-08-18T08:53:28.000Z</time>
      </trkpt>
      <trkpt lat="22.845399" lon="111.350048">
        <ele>248.667261</ele>
        <time>2026-08-18T08:53:29.000Z</time>
      </trkpt>
      <trkpt lat="22.845385" lon="111.350114">
        <ele>248.641957</ele>
        <time>2026-08-18T08:53:30.000Z</time>
      </trkpt>
      <trkpt lat="22.845370" lon="111.350179">
        <ele>248.616921</ele>
        <time>2026-08-18T08:53:31.000Z</time>
      </trkpt>
      <trkpt lat="22.845355" lon="111.350242">
        <ele>248.592610</ele>
        <time>2026-08-18T08:53:32.000Z</time>
      </trkpt>
      <trkpt lat="22.845339" lon="111.350306">
        <ele>248.567833</ele>
        <time>2026-08-18T08:53:33.000Z</time>
      </trkpt>
      <trkpt lat="22.845322" lon="111.350371">
        <ele>248.542588</ele>
        <time>2026-08-18T08:53:34.000Z</time>
      </trkpt>
      <trkpt lat="22.845304" lon="111.350435">
        <ele>248.517587</ele>
        <time>2026-08-18T08:53:35.000Z</time>
      </trkpt>
      <trkpt lat="22.845285" lon="111.350500">
        <ele>248.492108</ele>
        <time>2026-08-18T08:53:36.000Z</time>
      </trkpt>
      <trkpt lat="22.845264" lon="111.350563">
        <ele>248.467077</ele>
        <time>2026-08-18T08:53:37.000Z</time>
      </trkpt>
      <trkpt lat="22.845243" lon="111.350626">
        <ele>248.442046</ele>
        <time>2026-08-18T08:53:38.000Z</time>
      </trkpt>
      <trkpt lat="22.845221" lon="111.350688">
        <ele>248.417223</ele>
        <time>2026-08-18T08:53:39.000Z</time>
      </trkpt>
      <trkpt lat="22.845198" lon="111.350750">
        <ele>248.392252</ele>
        <time>2026-08-18T08:53:40.000Z</time>
      </trkpt>
      <trkpt lat="22.845174" lon="111.350812">
        <ele>248.367126</ele>
        <time>2026-08-18T08:53:41.000Z</time>
      </trkpt>
      <trkpt lat="22.845147" lon="111.350872">
        <ele>248.377900</ele>
        <time>2026-08-18T08:53:42.000Z</time>
      </trkpt>
      <trkpt lat="22.845120" lon="111.350932">
        <ele>248.388769</ele>
        <time>2026-08-18T08:53:43.000Z</time>
      </trkpt>
      <trkpt lat="22.845094" lon="111.350991">
        <ele>248.399414</ele>
        <time>2026-08-18T08:53:44.000Z</time>
      </trkpt>
      <trkpt lat="22.845067" lon="111.351050">
        <ele>248.410137</ele>
        <time>2026-08-18T08:53:45.000Z</time>
      </trkpt>
      <trkpt lat="22.845038" lon="111.351106">
        <ele>248.420593</ele>
        <time>2026-08-18T08:53:46.000Z</time>
      </trkpt>
      <trkpt lat="22.845009" lon="111.351161">
        <ele>248.430908</ele>
        <time>2026-08-18T08:53:47.000Z</time>
      </trkpt>
      <trkpt lat="22.844978" lon="111.351216">
        <ele>248.441402</ele>
        <time>2026-08-18T08:53:48.000Z</time>
      </trkpt>
      <trkpt lat="22.844948" lon="111.351270">
        <ele>248.451666</ele>
        <time>2026-08-18T08:53:49.000Z</time>
      </trkpt>
      <trkpt lat="22.844917" lon="111.351323">
        <ele>248.461884</ele>
        <time>2026-08-18T08:53:50.000Z</time>
      </trkpt>
      <trkpt lat="22.844884" lon="111.351374">
        <ele>248.472028</ele>
        <time>2026-08-18T08:53:51.000Z</time>
      </trkpt>
      <trkpt lat="22.844851" lon="111.351424">
        <ele>248.482039</ele>
        <time>2026-08-18T08:53:52.000Z</time>
      </trkpt>
      <trkpt lat="22.844815" lon="111.351473">
        <ele>248.492239</ele>
        <time>2026-08-18T08:53:53.000Z</time>
      </trkpt>
      <trkpt lat="22.844779" lon="111.351521">
        <ele>248.502313</ele>
        <time>2026-08-18T08:53:54.000Z</time>
      </trkpt>
      <trkpt lat="22.844745" lon="111.351569">
        <ele>248.512168</ele>
        <time>2026-08-18T08:53:55.000Z</time>
      </trkpt>
      <trkpt lat="22.844714" lon="111.351618">
        <ele>248.521842</ele>
        <time>2026-08-18T08:53:56.000Z</time>
      </trkpt>
      <trkpt lat="22.844682" lon="111.351666">
        <ele>248.531486</ele>
        <time>2026-08-18T08:53:57.000Z</time>
      </trkpt>
      <trkpt lat="22.844650" lon="111.351715">
        <ele>248.541262</ele>
        <time>2026-08-18T08:53:58.000Z</time>
      </trkpt>
      <trkpt lat="22.844617" lon="111.351762">
        <ele>248.550880</ele>
        <time>2026-08-18T08:53:59.000Z</time>
      </trkpt>
      <trkpt lat="22.844584" lon="111.351809">
        <ele>248.560498</ele>
        <time>2026-08-18T08:54:00.000Z</time>
      </trkpt>
      <trkpt lat="22.844551" lon="111.351856">
        <ele>248.570116</ele>
        <time>2026-08-18T08:54:01.000Z</time>
      </trkpt>
      <trkpt lat="22.844519" lon="111.351903">
        <ele>248.579628</ele>
        <time>2026-08-18T08:54:02.000Z</time>
      </trkpt>
      <trkpt lat="22.844486" lon="111.351950">
        <ele>248.589246</ele>
        <time>2026-08-18T08:54:03.000Z</time>
      </trkpt>
      <trkpt lat="22.844454" lon="111.351997">
        <ele>248.598758</ele>
        <time>2026-08-18T08:54:04.000Z</time>
      </trkpt>
      <trkpt lat="22.844421" lon="111.352042">
        <ele>248.608119</ele>
        <time>2026-08-18T08:54:05.000Z</time>
      </trkpt>
      <trkpt lat="22.844388" lon="111.352087">
        <ele>248.617480</ele>
        <time>2026-08-18T08:54:06.000Z</time>
      </trkpt>
      <trkpt lat="22.844355" lon="111.352134">
        <ele>248.627098</ele>
        <time>2026-08-18T08:54:07.000Z</time>
      </trkpt>
      <trkpt lat="22.844321" lon="111.352177">
        <ele>248.636321</ele>
        <time>2026-08-18T08:54:08.000Z</time>
      </trkpt>
      <trkpt lat="22.844288" lon="111.352222">
        <ele>248.645682</ele>
        <time>2026-08-18T08:54:09.000Z</time>
      </trkpt>
      <trkpt lat="22.844254" lon="111.352268">
        <ele>248.655281</ele>
        <time>2026-08-18T08:54:10.000Z</time>
      </trkpt>
      <trkpt lat="22.844219" lon="111.352313">
        <ele>248.664866</ele>
        <time>2026-08-18T08:54:11.000Z</time>
      </trkpt>
      <trkpt lat="22.844183" lon="111.352358">
        <ele>248.674566</ele>
        <time>2026-08-18T08:54:12.000Z</time>
      </trkpt>
      <trkpt lat="22.844145" lon="111.352401">
        <ele>248.684263</ele>
        <time>2026-08-18T08:54:13.000Z</time>
      </trkpt>
      <trkpt lat="22.844107" lon="111.352447">
        <ele>248.710350</ele>
        <time>2026-08-18T08:54:14.000Z</time>
      </trkpt>
      <trkpt lat="22.844069" lon="111.352495">
        <ele>248.737922</ele>
        <time>2026-08-18T08:54:15.000Z</time>
      </trkpt>
      <trkpt lat="22.844031" lon="111.352539">
        <ele>248.764197</ele>
        <time>2026-08-18T08:54:16.000Z</time>
      </trkpt>
      <trkpt lat="22.843993" lon="111.352579">
        <ele>248.789229</ele>
        <time>2026-08-18T08:54:17.000Z</time>
      </trkpt>
      <trkpt lat="22.843954" lon="111.352618">
        <ele>248.814305</ele>
        <time>2026-08-18T08:54:18.000Z</time>
      </trkpt>
      <trkpt lat="22.843914" lon="111.352658">
        <ele>248.840023</ele>
        <time>2026-08-18T08:54:19.000Z</time>
      </trkpt>
      <trkpt lat="22.843874" lon="111.352696">
        <ele>248.865160</ele>
        <time>2026-08-18T08:54:20.000Z</time>
      </trkpt>
      <trkpt lat="22.843834" lon="111.352732">
        <ele>248.889731</ele>
        <time>2026-08-18T08:54:21.000Z</time>
      </trkpt>
      <trkpt lat="22.843792" lon="111.352769">
        <ele>248.915309</ele>
        <time>2026-08-18T08:54:22.000Z</time>
      </trkpt>
      <trkpt lat="22.843752" lon="111.352806">
        <ele>248.940161</ele>
        <time>2026-08-18T08:54:23.000Z</time>
      </trkpt>
      <trkpt lat="22.843712" lon="111.352841">
        <ele>248.964456</ele>
        <time>2026-08-18T08:54:24.000Z</time>
      </trkpt>
      <trkpt lat="22.843670" lon="111.352876">
        <ele>248.989494</ele>
        <time>2026-08-18T08:54:25.000Z</time>
      </trkpt>
      <trkpt lat="22.843627" lon="111.352907">
        <ele>249.013903</ele>
        <time>2026-08-18T08:54:26.000Z</time>
      </trkpt>
      <trkpt lat="22.843584" lon="111.352935">
        <ele>249.037614</ele>
        <time>2026-08-18T08:54:27.000Z</time>
      </trkpt>
      <trkpt lat="22.843539" lon="111.352965">
        <ele>249.062585</ele>
        <time>2026-08-18T08:54:28.000Z</time>
      </trkpt>
      <trkpt lat="22.843494" lon="111.352991">
        <ele>249.086690</ele>
        <time>2026-08-18T08:54:29.000Z</time>
      </trkpt>
      <trkpt lat="22.843448" lon="111.353020">
        <ele>249.111843</ele>
        <time>2026-08-18T08:54:30.000Z</time>
      </trkpt>
      <trkpt lat="22.843404" lon="111.353047">
        <ele>249.135743</ele>
        <time>2026-08-18T08:54:31.000Z</time>
      </trkpt>
      <trkpt lat="22.843359" lon="111.353074">
        <ele>249.160056</ele>
        <time>2026-08-18T08:54:32.000Z</time>
      </trkpt>
      <trkpt lat="22.843314" lon="111.353102">
        <ele>249.184582</ele>
        <time>2026-08-18T08:54:33.000Z</time>
      </trkpt>
      <trkpt lat="22.843269" lon="111.353129">
        <ele>249.208895</ele>
        <time>2026-08-18T08:54:34.000Z</time>
      </trkpt>
      <trkpt lat="22.843222" lon="111.353157">
        <ele>249.234246</ele>
        <time>2026-08-18T08:54:35.000Z</time>
      </trkpt>
      <trkpt lat="22.843173" lon="111.353182">
        <ele>249.259846</ele>
        <time>2026-08-18T08:54:36.000Z</time>
      </trkpt>
      <trkpt lat="22.843121" lon="111.353206">
        <ele>249.286564</ele>
        <time>2026-08-18T08:54:37.000Z</time>
      </trkpt>
      <trkpt lat="22.843071" lon="111.353229">
        <ele>249.312241</ele>
        <time>2026-08-18T08:54:38.000Z</time>
      </trkpt>
      <trkpt lat="22.843019" lon="111.353250">
        <ele>249.338475</ele>
        <time>2026-08-18T08:54:39.000Z</time>
      </trkpt>
      <trkpt lat="22.842966" lon="111.353269">
        <ele>249.364866</ele>
        <time>2026-08-18T08:54:40.000Z</time>
      </trkpt>
      <trkpt lat="22.842913" lon="111.353288">
        <ele>249.391257</ele>
        <time>2026-08-18T08:54:41.000Z</time>
      </trkpt>
      <trkpt lat="22.842860" lon="111.353310">
        <ele>249.418087</ele>
        <time>2026-08-18T08:54:42.000Z</time>
      </trkpt>
      <trkpt lat="22.842806" lon="111.353327">
        <ele>249.444672</ele>
        <time>2026-08-18T08:54:43.000Z</time>
      </trkpt>
      <trkpt lat="22.842754" lon="111.353345">
        <ele>249.470479</ele>
        <time>2026-08-18T08:54:44.000Z</time>
      </trkpt>
      <trkpt lat="22.842700" lon="111.353363">
        <ele>249.497188</ele>
        <time>2026-08-18T08:54:45.000Z</time>
      </trkpt>
      <trkpt lat="22.842647" lon="111.353376">
        <ele>249.522879</ele>
        <time>2026-08-18T08:54:46.000Z</time>
      </trkpt>
      <trkpt lat="22.842593" lon="111.353392">
        <ele>249.528393</ele>
        <time>2026-08-18T08:54:47.000Z</time>
      </trkpt>
      <trkpt lat="22.842538" lon="111.353407">
        <ele>249.515551</ele>
        <time>2026-08-18T08:54:48.000Z</time>
      </trkpt>
      <trkpt lat="22.842484" lon="111.353420">
        <ele>249.503027</ele>
        <time>2026-08-18T08:54:49.000Z</time>
      </trkpt>
      <trkpt lat="22.842431" lon="111.353431">
        <ele>249.490808</ele>
        <time>2026-08-18T08:54:50.000Z</time>
      </trkpt>
      <trkpt lat="22.842379" lon="111.353442">
        <ele>249.478812</ele>
        <time>2026-08-18T08:54:51.000Z</time>
      </trkpt>
      <trkpt lat="22.842327" lon="111.353454">
        <ele>249.466774</ele>
        <time>2026-08-18T08:54:52.000Z</time>
      </trkpt>
      <trkpt lat="22.842275" lon="111.353465">
        <ele>249.454778</ele>
        <time>2026-08-18T08:54:53.000Z</time>
      </trkpt>
      <trkpt lat="22.842223" lon="111.353478">
        <ele>249.442694</ele>
        <time>2026-08-18T08:54:54.000Z</time>
      </trkpt>
      <trkpt lat="22.842169" lon="111.353490">
        <ele>249.430213</ele>
        <time>2026-08-18T08:54:55.000Z</time>
      </trkpt>
      <trkpt lat="22.842117" lon="111.353499">
        <ele>249.418290</ele>
        <time>2026-08-18T08:54:56.000Z</time>
      </trkpt>
      <trkpt lat="22.842065" lon="111.353507">
        <ele>249.406397</ele>
        <time>2026-08-18T08:54:57.000Z</time>
      </trkpt>
      <trkpt lat="22.842014" lon="111.353515">
        <ele>249.394729</ele>
        <time>2026-08-18T08:54:58.000Z</time>
      </trkpt>
      <trkpt lat="22.841962" lon="111.353524">
        <ele>249.382806</ele>
        <time>2026-08-18T08:54:59.000Z</time>
      </trkpt>
      <trkpt lat="22.841910" lon="111.353535">
        <ele>249.370809</ele>
        <time>2026-08-18T08:55:00.000Z</time>
      </trkpt>
      <trkpt lat="22.841858" lon="111.353543">
        <ele>249.358917</ele>
        <time>2026-08-18T08:55:01.000Z</time>
      </trkpt>
      <trkpt lat="22.841806" lon="111.353554">
        <ele>249.346921</ele>
        <time>2026-08-18T08:55:02.000Z</time>
      </trkpt>
      <trkpt lat="22.841753" lon="111.353565">
        <ele>249.334702</ele>
        <time>2026-08-18T08:55:03.000Z</time>
      </trkpt>
      <trkpt lat="22.841700" lon="111.353573">
        <ele>249.322586</ele>
        <time>2026-08-18T08:55:04.000Z</time>
      </trkpt>
      <trkpt lat="22.841647" lon="111.353581">
        <ele>249.310469</ele>
        <time>2026-08-18T08:55:05.000Z</time>
      </trkpt>
      <trkpt lat="22.841596" lon="111.353591">
        <ele>249.298734</ele>
        <time>2026-08-18T08:55:06.000Z</time>
      </trkpt>
      <trkpt lat="22.841543" lon="111.353598">
        <ele>249.286644</ele>
        <time>2026-08-18T08:55:07.000Z</time>
      </trkpt>
      <trkpt lat="22.841490" lon="111.353608">
        <ele>249.274463</ele>
        <time>2026-08-18T08:55:08.000Z</time>
      </trkpt>
      <trkpt lat="22.841439" lon="111.353620">
        <ele>249.262646</ele>
        <time>2026-08-18T08:55:09.000Z</time>
      </trkpt>
      <trkpt lat="22.841387" lon="111.353631">
        <ele>249.250650</ele>
        <time>2026-08-18T08:55:10.000Z</time>
      </trkpt>
      <trkpt lat="22.841336" lon="111.353644">
        <ele>249.238788</ele>
        <time>2026-08-18T08:55:11.000Z</time>
      </trkpt>
      <trkpt lat="22.841283" lon="111.353657">
        <ele>249.226484</ele>
        <time>2026-08-18T08:55:12.000Z</time>
      </trkpt>
      <trkpt lat="22.841231" lon="111.353670">
        <ele>249.214401</ele>
        <time>2026-08-18T08:55:13.000Z</time>
      </trkpt>
      <trkpt lat="22.841180" lon="111.353684">
        <ele>249.202489</ele>
        <time>2026-08-18T08:55:14.000Z</time>
      </trkpt>
      <trkpt lat="22.841129" lon="111.353700">
        <ele>249.190467</ele>
        <time>2026-08-18T08:55:15.000Z</time>
      </trkpt>
      <trkpt lat="22.841081" lon="111.353717">
        <ele>249.179034</ele>
        <time>2026-08-18T08:55:16.000Z</time>
      </trkpt>
      <trkpt lat="22.841033" lon="111.353736">
        <ele>249.167465</ele>
        <time>2026-08-18T08:55:17.000Z</time>
      </trkpt>
      <trkpt lat="22.840984" lon="111.353756">
        <ele>249.155610</ele>
        <time>2026-08-18T08:55:18.000Z</time>
      </trkpt>
      <trkpt lat="22.840934" lon="111.353777">
        <ele>249.143470</ele>
        <time>2026-08-18T08:55:19.000Z</time>
      </trkpt>
      <trkpt lat="22.840886" lon="111.353799">
        <ele>249.131672</ele>
        <time>2026-08-18T08:55:20.000Z</time>
      </trkpt>
      <trkpt lat="22.840838" lon="111.353825">
        <ele>249.052576</ele>
        <time>2026-08-18T08:55:21.000Z</time>
      </trkpt>
      <trkpt lat="22.840790" lon="111.353851">
        <ele>248.943364</ele>
        <time>2026-08-18T08:55:22.000Z</time>
      </trkpt>
      <trkpt lat="22.840740" lon="111.353877">
        <ele>248.830494</ele>
        <time>2026-08-18T08:55:23.000Z</time>
      </trkpt>
      <trkpt lat="22.840690" lon="111.353906">
        <ele>248.715080</ele>
        <time>2026-08-18T08:55:24.000Z</time>
      </trkpt>
      <trkpt lat="22.840641" lon="111.353940">
        <ele>248.596679</ele>
        <time>2026-08-18T08:55:25.000Z</time>
      </trkpt>
      <trkpt lat="22.840591" lon="111.353973">
        <ele>248.477543</ele>
        <time>2026-08-18T08:55:26.000Z</time>
      </trkpt>
      <trkpt lat="22.840540" lon="111.354005">
        <ele>248.357614</ele>
        <time>2026-08-18T08:55:27.000Z</time>
      </trkpt>
      <trkpt lat="22.840488" lon="111.354037">
        <ele>248.235918</ele>
        <time>2026-08-18T08:55:28.000Z</time>
      </trkpt>
      <trkpt lat="22.840436" lon="111.354073">
        <ele>248.110351</ele>
        <time>2026-08-18T08:55:29.000Z</time>
      </trkpt>
      <trkpt lat="22.840383" lon="111.354111">
        <ele>247.981032</ele>
        <time>2026-08-18T08:55:30.000Z</time>
      </trkpt>
      <trkpt lat="22.840329" lon="111.354149">
        <ele>247.850010</ele>
        <time>2026-08-18T08:55:31.000Z</time>
      </trkpt>
      <trkpt lat="22.840273" lon="111.354187">
        <ele>247.715554</ele>
        <time>2026-08-18T08:55:32.000Z</time>
      </trkpt>
      <trkpt lat="22.840218" lon="111.354225">
        <ele>247.582820</ele>
        <time>2026-08-18T08:55:33.000Z</time>
      </trkpt>
      <trkpt lat="22.840162" lon="111.354262">
        <ele>247.449349</ele>
        <time>2026-08-18T08:55:34.000Z</time>
      </trkpt>
      <trkpt lat="22.840104" lon="111.354302">
        <ele>247.309448</ele>
        <time>2026-08-18T08:55:35.000Z</time>
      </trkpt>
      <trkpt lat="22.840046" lon="111.354344">
        <ele>247.167498</ele>
        <time>2026-08-18T08:55:36.000Z</time>
      </trkpt>
      <trkpt lat="22.839987" lon="111.354386">
        <ele>247.023851</ele>
        <time>2026-08-18T08:55:37.000Z</time>
      </trkpt>
      <trkpt lat="22.839927" lon="111.354429">
        <ele>246.877472</ele>
        <time>2026-08-18T08:55:38.000Z</time>
      </trkpt>
      <trkpt lat="22.839864" lon="111.354469">
        <ele>246.728880</ele>
        <time>2026-08-18T08:55:39.000Z</time>
      </trkpt>
      <trkpt lat="22.839801" lon="111.354508">
        <ele>246.581227</ele>
        <time>2026-08-18T08:55:40.000Z</time>
      </trkpt>
      <trkpt lat="22.839738" lon="111.354545">
        <ele>246.435396</ele>
        <time>2026-08-18T08:55:41.000Z</time>
      </trkpt>
      <trkpt lat="22.839674" lon="111.354579">
        <ele>246.290334</ele>
        <time>2026-08-18T08:55:42.000Z</time>
      </trkpt>
      <trkpt lat="22.839609" lon="111.354610">
        <ele>246.145795</ele>
        <time>2026-08-18T08:55:43.000Z</time>
      </trkpt>
      <trkpt lat="22.839543" lon="111.354637">
        <ele>246.002206</ele>
        <time>2026-08-18T08:55:44.000Z</time>
      </trkpt>
      <trkpt lat="22.839476" lon="111.354661">
        <ele>245.858574</ele>
        <time>2026-08-18T08:55:45.000Z</time>
      </trkpt>
      <trkpt lat="22.839407" lon="111.354682">
        <ele>245.712689</ele>
        <time>2026-08-18T08:55:46.000Z</time>
      </trkpt>
      <trkpt lat="22.839338" lon="111.354697">
        <ele>245.569434</ele>
        <time>2026-08-18T08:55:47.000Z</time>
      </trkpt>
      <trkpt lat="22.839268" lon="111.354706">
        <ele>245.454682</ele>
        <time>2026-08-18T08:55:48.000Z</time>
      </trkpt>
      <trkpt lat="22.839198" lon="111.354712">
        <ele>245.413324</ele>
        <time>2026-08-18T08:55:49.000Z</time>
      </trkpt>
      <trkpt lat="22.839128" lon="111.354717">
        <ele>245.372005</ele>
        <time>2026-08-18T08:55:50.000Z</time>
      </trkpt>
      <trkpt lat="22.839056" lon="111.354717">
        <ele>245.329598</ele>
        <time>2026-08-18T08:55:51.000Z</time>
      </trkpt>
      <trkpt lat="22.838984" lon="111.354712">
        <ele>245.287103</ele>
        <time>2026-08-18T08:55:52.000Z</time>
      </trkpt>
      <trkpt lat="22.838915" lon="111.354709">
        <ele>245.246430</ele>
        <time>2026-08-18T08:55:53.000Z</time>
      </trkpt>
      <trkpt lat="22.838847" lon="111.354696">
        <ele>245.205762</ele>
        <time>2026-08-18T08:55:54.000Z</time>
      </trkpt>
      <trkpt lat="22.838780" lon="111.354683">
        <ele>245.165673</ele>
        <time>2026-08-18T08:55:55.000Z</time>
      </trkpt>
      <trkpt lat="22.838713" lon="111.354664">
        <ele>245.124885</ele>
        <time>2026-08-18T08:55:56.000Z</time>
      </trkpt>
      <trkpt lat="22.838646" lon="111.354642">
        <ele>245.083655</ele>
        <time>2026-08-18T08:55:57.000Z</time>
      </trkpt>
      <trkpt lat="22.838580" lon="111.354621">
        <ele>245.043145</ele>
        <time>2026-08-18T08:55:58.000Z</time>
      </trkpt>
      <trkpt lat="22.838516" lon="111.354597">
        <ele>245.003261</ele>
        <time>2026-08-18T08:55:59.000Z</time>
      </trkpt>
      <trkpt lat="22.838453" lon="111.354570">
        <ele>244.963365</ele>
        <time>2026-08-18T08:56:00.000Z</time>
      </trkpt>
      <trkpt lat="22.838393" lon="111.354536">
        <ele>244.923497</ele>
        <time>2026-08-18T08:56:01.000Z</time>
      </trkpt>
      <trkpt lat="22.838337" lon="111.354502">
        <ele>244.885701</ele>
        <time>2026-08-18T08:56:02.000Z</time>
      </trkpt>
      <trkpt lat="22.838277" lon="111.354471">
        <ele>244.846559</ele>
        <time>2026-08-18T08:56:03.000Z</time>
      </trkpt>
      <trkpt lat="22.838224" lon="111.354438">
        <ele>244.810568</ele>
        <time>2026-08-18T08:56:04.000Z</time>
      </trkpt>
      <trkpt lat="22.838166" lon="111.354408">
        <ele>244.772724</ele>
        <time>2026-08-18T08:56:05.000Z</time>
      </trkpt>
      <trkpt lat="22.838109" lon="111.354378">
        <ele>244.735410</ele>
        <time>2026-08-18T08:56:06.000Z</time>
      </trkpt>
      <trkpt lat="22.838054" lon="111.354345">
        <ele>244.698393</ele>
        <time>2026-08-18T08:56:07.000Z</time>
      </trkpt>
      <trkpt lat="22.838000" lon="111.354312">
        <ele>244.661889</ele>
        <time>2026-08-18T08:56:08.000Z</time>
      </trkpt>
      <trkpt lat="22.837946" lon="111.354278">
        <ele>244.625117</ele>
        <time>2026-08-18T08:56:09.000Z</time>
      </trkpt>
      <trkpt lat="22.837892" lon="111.354244">
        <ele>244.588344</ele>
        <time>2026-08-18T08:56:10.000Z</time>
      </trkpt>
      <trkpt lat="22.837838" lon="111.354212">
        <ele>244.552105</ele>
        <time>2026-08-18T08:56:11.000Z</time>
      </trkpt>
      <trkpt lat="22.837781" lon="111.354180">
        <ele>244.514304</ele>
        <time>2026-08-18T08:56:12.000Z</time>
      </trkpt>
      <trkpt lat="22.837725" lon="111.354148">
        <ele>244.477026</ele>
        <time>2026-08-18T08:56:13.000Z</time>
      </trkpt>
      <trkpt lat="22.837671" lon="111.354116">
        <ele>244.440787</ele>
        <time>2026-08-18T08:56:14.000Z</time>
      </trkpt>
      <trkpt lat="22.837616" lon="111.354089">
        <ele>244.403168</ele>
        <time>2026-08-18T08:56:15.000Z</time>
      </trkpt>
      <trkpt lat="22.837563" lon="111.354060">
        <ele>244.327337</ele>
        <time>2026-08-18T08:56:16.000Z</time>
      </trkpt>
      <trkpt lat="22.837510" lon="111.354030">
        <ele>244.250969</ele>
        <time>2026-08-18T08:56:17.000Z</time>
      </trkpt>
      <trkpt lat="22.837454" lon="111.354001">
        <ele>244.171697</ele>
        <time>2026-08-18T08:56:18.000Z</time>
      </trkpt>
      <trkpt lat="22.837398" lon="111.353977">
        <ele>244.094777</ele>
        <time>2026-08-18T08:56:19.000Z</time>
      </trkpt>
      <trkpt lat="22.837344" lon="111.353954">
        <ele>244.020666</ele>
        <time>2026-08-18T08:56:20.000Z</time>
      </trkpt>
      <trkpt lat="22.837289" lon="111.353933">
        <ele>243.946179</ele>
        <time>2026-08-18T08:56:21.000Z</time>
      </trkpt>
      <trkpt lat="22.837233" lon="111.353913">
        <ele>243.870861</ele>
        <time>2026-08-18T08:56:22.000Z</time>
      </trkpt>
      <trkpt lat="22.837177" lon="111.353892">
        <ele>243.795168</ele>
        <time>2026-08-18T08:56:23.000Z</time>
      </trkpt>
      <trkpt lat="22.837121" lon="111.353875">
        <ele>243.720879</ele>
        <time>2026-08-18T08:56:24.000Z</time>
      </trkpt>
      <trkpt lat="22.837065" lon="111.353860">
        <ele>243.647189</ele>
        <time>2026-08-18T08:56:25.000Z</time>
      </trkpt>
      <trkpt lat="22.837009" lon="111.353848">
        <ele>243.574266</ele>
        <time>2026-08-18T08:56:26.000Z</time>
      </trkpt>
      <trkpt lat="22.836952" lon="111.353835">
        <ele>243.499856</ele>
        <time>2026-08-18T08:56:27.000Z</time>
      </trkpt>
      <trkpt lat="22.836895" lon="111.353823">
        <ele>243.425679</ele>
        <time>2026-08-18T08:56:28.000Z</time>
      </trkpt>
      <trkpt lat="22.836838" lon="111.353814">
        <ele>243.352092</ele>
        <time>2026-08-18T08:56:29.000Z</time>
      </trkpt>
      <trkpt lat="22.836779" lon="111.353806">
        <ele>243.276132</ele>
        <time>2026-08-18T08:56:30.000Z</time>
      </trkpt>
      <trkpt lat="22.836719" lon="111.353798">
        <ele>243.198904</ele>
        <time>2026-08-18T08:56:31.000Z</time>
      </trkpt>
      <trkpt lat="22.836662" lon="111.353794">
        <ele>243.125932</ele>
        <time>2026-08-18T08:56:32.000Z</time>
      </trkpt>
      <trkpt lat="22.836605" lon="111.353794">
        <ele>243.053113</ele>
        <time>2026-08-18T08:56:33.000Z</time>
      </trkpt>
      <trkpt lat="22.836546" lon="111.353798">
        <ele>242.977592</ele>
        <time>2026-08-18T08:56:34.000Z</time>
      </trkpt>
      <trkpt lat="22.836483" lon="111.353800">
        <ele>242.897073</ele>
        <time>2026-08-18T08:56:35.000Z</time>
      </trkpt>
      <trkpt lat="22.836422" lon="111.353808">
        <ele>242.818577</ele>
        <time>2026-08-18T08:56:36.000Z</time>
      </trkpt>
      <trkpt lat="22.836357" lon="111.353807">
        <ele>242.735529</ele>
        <time>2026-08-18T08:56:37.000Z</time>
      </trkpt>
      <trkpt lat="22.836288" lon="111.353806">
        <ele>242.647372</ele>
        <time>2026-08-18T08:56:38.000Z</time>
      </trkpt>
      <trkpt lat="22.836217" lon="111.353808">
        <ele>242.556636</ele>
        <time>2026-08-18T08:56:39.000Z</time>
      </trkpt>
      <trkpt lat="22.836160" lon="111.353813">
        <ele>242.483580</ele>
        <time>2026-08-18T08:56:40.000Z</time>
      </trkpt>
      <trkpt lat="22.836098" lon="111.353813">
        <ele>242.404373</ele>
        <time>2026-08-18T08:56:41.000Z</time>
      </trkpt>
      <trkpt lat="22.836054" lon="111.353826">
        <ele>242.346115</ele>
        <time>2026-08-18T08:56:42.000Z</time>
      </trkpt>
      <trkpt lat="22.835997" lon="111.353846">
        <ele>242.269583</ele>
        <time>2026-08-18T08:56:43.000Z</time>
      </trkpt>
      <trkpt lat="22.835932" lon="111.353873">
        <ele>242.180667</ele>
        <time>2026-08-18T08:56:44.000Z</time>
      </trkpt>
      <trkpt lat="22.835866" lon="111.353889">
        <ele>242.067291</ele>
        <time>2026-08-18T08:56:45.000Z</time>
      </trkpt>
      <trkpt lat="22.835800" lon="111.353918">
        <ele>241.811661</ele>
        <time>2026-08-18T08:56:46.000Z</time>
      </trkpt>
      <trkpt lat="22.835742" lon="111.353966">
        <ele>241.549789</ele>
        <time>2026-08-18T08:56:47.000Z</time>
      </trkpt>
      <trkpt lat="22.835678" lon="111.353996">
        <ele>241.299506</ele>
        <time>2026-08-18T08:56:48.000Z</time>
      </trkpt>
      <trkpt lat="22.835618" lon="111.354039">
        <ele>241.041363</ele>
        <time>2026-08-18T08:56:49.000Z</time>
      </trkpt>
      <trkpt lat="22.835553" lon="111.354089">
        <ele>240.755322</ele>
        <time>2026-08-18T08:56:50.000Z</time>
      </trkpt>
      <trkpt lat="22.835489" lon="111.354140">
        <ele>240.470257</ele>
        <time>2026-08-18T08:56:51.000Z</time>
      </trkpt>
      <trkpt lat="22.835430" lon="111.354198">
        <ele>240.184444</ele>
        <time>2026-08-18T08:56:52.000Z</time>
      </trkpt>
      <trkpt lat="22.835373" lon="111.354254">
        <ele>239.908396</ele>
        <time>2026-08-18T08:56:53.000Z</time>
      </trkpt>
      <trkpt lat="22.835319" lon="111.354311">
        <ele>239.637936</ele>
        <time>2026-08-18T08:56:54.000Z</time>
      </trkpt>
      <trkpt lat="22.835273" lon="111.354375">
        <ele>239.369403</ele>
        <time>2026-08-18T08:56:55.000Z</time>
      </trkpt>
      <trkpt lat="22.835223" lon="111.354436">
        <ele>239.099304</ele>
        <time>2026-08-18T08:56:56.000Z</time>
      </trkpt>
      <trkpt lat="22.835174" lon="111.354500">
        <ele>238.824016</ele>
        <time>2026-08-18T08:56:57.000Z</time>
      </trkpt>
      <trkpt lat="22.835127" lon="111.354568">
        <ele>238.542789</ele>
        <time>2026-08-18T08:56:58.000Z</time>
      </trkpt>
      <trkpt lat="22.835083" lon="111.354637">
        <ele>238.265175</ele>
        <time>2026-08-18T08:56:59.000Z</time>
      </trkpt>
      <trkpt lat="22.835042" lon="111.354710">
        <ele>237.982329</ele>
        <time>2026-08-18T08:57:00.000Z</time>
      </trkpt>
      <trkpt lat="22.835002" lon="111.354783">
        <ele>237.701335</ele>
        <time>2026-08-18T08:57:01.000Z</time>
      </trkpt>
      <trkpt lat="22.834961" lon="111.354860">
        <ele>237.407108</ele>
        <time>2026-08-18T08:57:02.000Z</time>
      </trkpt>
      <trkpt lat="22.834921" lon="111.354938">
        <ele>237.111773</ele>
        <time>2026-08-18T08:57:03.000Z</time>
      </trkpt>
      <trkpt lat="22.834881" lon="111.355019">
        <ele>236.807727</ele>
        <time>2026-08-18T08:57:04.000Z</time>
      </trkpt>
      <trkpt lat="22.834841" lon="111.355097">
        <ele>236.512392</ele>
        <time>2026-08-18T08:57:05.000Z</time>
      </trkpt>
      <trkpt lat="22.834802" lon="111.355182">
        <ele>236.198234</ele>
        <time>2026-08-18T08:57:06.000Z</time>
      </trkpt>
      <trkpt lat="22.834761" lon="111.355267">
        <ele>235.880811</ele>
        <time>2026-08-18T08:57:07.000Z</time>
      </trkpt>
      <trkpt lat="22.834727" lon="111.355357">
        <ele>235.549848</ele>
        <time>2026-08-18T08:57:08.000Z</time>
      </trkpt>
      <trkpt lat="22.834691" lon="111.355445">
        <ele>235.200011</ele>
        <time>2026-08-18T08:57:09.000Z</time>
      </trkpt>
      <trkpt lat="22.834653" lon="111.355536">
        <ele>234.837001</ele>
        <time>2026-08-18T08:57:10.000Z</time>
      </trkpt>
      <trkpt lat="22.834613" lon="111.355625">
        <ele>234.477212</ele>
        <time>2026-08-18T08:57:11.000Z</time>
      </trkpt>
      <trkpt lat="22.834574" lon="111.355714">
        <ele>234.119133</ele>
        <time>2026-08-18T08:57:12.000Z</time>
      </trkpt>
      <trkpt lat="22.834531" lon="111.355801">
        <ele>233.760425</ele>
        <time>2026-08-18T08:57:13.000Z</time>
      </trkpt>
      <trkpt lat="22.834488" lon="111.355888">
        <ele>233.401717</ele>
        <time>2026-08-18T08:57:14.000Z</time>
      </trkpt>
      <trkpt lat="22.834446" lon="111.355977">
        <ele>233.038402</ele>
        <time>2026-08-18T08:57:15.000Z</time>
      </trkpt>
      <trkpt lat="22.834408" lon="111.356068">
        <ele>232.675392</ele>
        <time>2026-08-18T08:57:16.000Z</time>
      </trkpt>
      <trkpt lat="22.834367" lon="111.356160">
        <ele>232.304074</ele>
        <time>2026-08-18T08:57:17.000Z</time>
      </trkpt>
      <trkpt lat="22.834328" lon="111.356252">
        <ele>231.936121</ele>
        <time>2026-08-18T08:57:18.000Z</time>
      </trkpt>
      <trkpt lat="22.834291" lon="111.356347">
        <ele>231.561376</ele>
        <time>2026-08-18T08:57:19.000Z</time>
      </trkpt>
      <trkpt lat="22.834253" lon="111.356440">
        <ele>231.191733</ele>
        <time>2026-08-18T08:57:20.000Z</time>
      </trkpt>
      <trkpt lat="22.834211" lon="111.356535">
        <ele>230.808883</ele>
        <time>2026-08-18T08:57:21.000Z</time>
      </trkpt>
      <trkpt lat="22.834169" lon="111.356628">
        <ele>230.432573</ele>
        <time>2026-08-18T08:57:22.000Z</time>
      </trkpt>
      <trkpt lat="22.834128" lon="111.356724">
        <ele>230.048118</ele>
        <time>2026-08-18T08:57:23.000Z</time>
      </trkpt>
      <trkpt lat="22.834085" lon="111.356822">
        <ele>229.653733</ele>
        <time>2026-08-18T08:57:24.000Z</time>
      </trkpt>
      <trkpt lat="22.834043" lon="111.356919">
        <ele>229.264318</ele>
        <time>2026-08-18T08:57:25.000Z</time>
      </trkpt>
      <trkpt lat="22.834000" lon="111.357017">
        <ele>228.869933</ele>
        <time>2026-08-18T08:57:26.000Z</time>
      </trkpt>
      <trkpt lat="22.833957" lon="111.357116">
        <ele>228.493231</ele>
        <time>2026-08-18T08:57:27.000Z</time>
      </trkpt>
      <trkpt lat="22.833913" lon="111.357215">
        <ele>228.188386</ele>
        <time>2026-08-18T08:57:28.000Z</time>
      </trkpt>
      <trkpt lat="22.833866" lon="111.357315">
        <ele>227.877045</ele>
        <time>2026-08-18T08:57:29.000Z</time>
      </trkpt>
      <trkpt lat="22.833819" lon="111.357417">
        <ele>227.560751</ele>
        <time>2026-08-18T08:57:30.000Z</time>
      </trkpt>
      <trkpt lat="22.833775" lon="111.357521">
        <ele>227.243357</ele>
        <time>2026-08-18T08:57:31.000Z</time>
      </trkpt>
      <trkpt lat="22.833731" lon="111.357622">
        <ele>226.933506</ele>
        <time>2026-08-18T08:57:32.000Z</time>
      </trkpt>
      <trkpt lat="22.833687" lon="111.357724">
        <ele>226.621146</ele>
        <time>2026-08-18T08:57:33.000Z</time>
      </trkpt>
      <trkpt lat="22.833642" lon="111.357826">
        <ele>226.307497</ele>
        <time>2026-08-18T08:57:34.000Z</time>
      </trkpt>
      <trkpt lat="22.833597" lon="111.357932">
        <ele>225.983806</ele>
        <time>2026-08-18T08:57:35.000Z</time>
      </trkpt>
      <trkpt lat="22.833550" lon="111.358037">
        <ele>225.660048</ele>
        <time>2026-08-18T08:57:36.000Z</time>
      </trkpt>
      <trkpt lat="22.833503" lon="111.358143">
        <ele>225.333793</ele>
        <time>2026-08-18T08:57:37.000Z</time>
      </trkpt>
      <trkpt lat="22.833454" lon="111.358249">
        <ele>225.004884</ele>
        <time>2026-08-18T08:57:38.000Z</time>
      </trkpt>
      <trkpt lat="22.833403" lon="111.358351">
        <ele>224.683026</ele>
        <time>2026-08-18T08:57:39.000Z</time>
      </trkpt>
      <trkpt lat="22.833350" lon="111.358452">
        <ele>224.360668</ele>
        <time>2026-08-18T08:57:40.000Z</time>
      </trkpt>
      <trkpt lat="22.833297" lon="111.358553">
        <ele>224.038311</ele>
        <time>2026-08-18T08:57:41.000Z</time>
      </trkpt>
      <trkpt lat="22.833241" lon="111.358649">
        <ele>223.723194</ele>
        <time>2026-08-18T08:57:42.000Z</time>
      </trkpt>
      <trkpt lat="22.833185" lon="111.358746">
        <ele>223.405729</ele>
        <time>2026-08-18T08:57:43.000Z</time>
      </trkpt>
      <trkpt lat="22.833126" lon="111.358839">
        <ele>223.108338</ele>
        <time>2026-08-18T08:57:44.000Z</time>
      </trkpt>
      <trkpt lat="22.833067" lon="111.358933">
        <ele>222.882614</ele>
        <time>2026-08-18T08:57:45.000Z</time>
      </trkpt>
      <trkpt lat="22.833009" lon="111.359025">
        <ele>222.661383</ele>
        <time>2026-08-18T08:57:46.000Z</time>
      </trkpt>
      <trkpt lat="22.832951" lon="111.359117">
        <ele>222.440152</ele>
        <time>2026-08-18T08:57:47.000Z</time>
      </trkpt>
      <trkpt lat="22.832894" lon="111.359209">
        <ele>222.220130</ele>
        <time>2026-08-18T08:57:48.000Z</time>
      </trkpt>
      <trkpt lat="22.832839" lon="111.359299">
        <ele>222.005800</ele>
        <time>2026-08-18T08:57:49.000Z</time>
      </trkpt>
      <trkpt lat="22.832785" lon="111.359389">
        <ele>221.792653</ele>
        <time>2026-08-18T08:57:50.000Z</time>
      </trkpt>
      <trkpt lat="22.832732" lon="111.359480">
        <ele>221.578997</ele>
        <time>2026-08-18T08:57:51.000Z</time>
      </trkpt>
      <trkpt lat="22.832678" lon="111.359571">
        <ele>221.364184</ele>
        <time>2026-08-18T08:57:52.000Z</time>
      </trkpt>
      <trkpt lat="22.832622" lon="111.359659">
        <ele>221.151935</ele>
        <time>2026-08-18T08:57:53.000Z</time>
      </trkpt>
      <trkpt lat="22.832568" lon="111.359748">
        <ele>220.940448</ele>
        <time>2026-08-18T08:57:54.000Z</time>
      </trkpt>
      <trkpt lat="22.832515" lon="111.359838">
        <ele>220.728468</ele>
        <time>2026-08-18T08:57:55.000Z</time>
      </trkpt>
      <trkpt lat="22.832463" lon="111.359926">
        <ele>220.520992</ele>
        <time>2026-08-18T08:57:56.000Z</time>
      </trkpt>
      <trkpt lat="22.832410" lon="111.360014">
        <ele>220.312345</ele>
        <time>2026-08-18T08:57:57.000Z</time>
      </trkpt>
      <trkpt lat="22.832357" lon="111.360102">
        <ele>220.103699</ele>
        <time>2026-08-18T08:57:58.000Z</time>
      </trkpt>
      <trkpt lat="22.832303" lon="111.360189">
        <ele>219.895516</ele>
        <time>2026-08-18T08:57:59.000Z</time>
      </trkpt>
      <trkpt lat="22.832247" lon="111.360275">
        <ele>219.686521</ele>
        <time>2026-08-18T08:58:00.000Z</time>
      </trkpt>
      <trkpt lat="22.832193" lon="111.360359">
        <ele>219.483249</ele>
        <time>2026-08-18T08:58:01.000Z</time>
      </trkpt>
      <trkpt lat="22.832137" lon="111.360442">
        <ele>219.279088</ele>
        <time>2026-08-18T08:58:02.000Z</time>
      </trkpt>
      <trkpt lat="22.832082" lon="111.360526">
        <ele>219.061359</ele>
        <time>2026-08-18T08:58:03.000Z</time>
      </trkpt>
      <trkpt lat="22.832028" lon="111.360611">
        <ele>218.842914</ele>
        <time>2026-08-18T08:58:04.000Z</time>
      </trkpt>
      <trkpt lat="22.831974" lon="111.360695">
        <ele>218.626209</ele>
        <time>2026-08-18T08:58:05.000Z</time>
      </trkpt>
      <trkpt lat="22.831919" lon="111.360777">
        <ele>218.411617</ele>
        <time>2026-08-18T08:58:06.000Z</time>
      </trkpt>
      <trkpt lat="22.831867" lon="111.360860">
        <ele>218.199258</ele>
        <time>2026-08-18T08:58:07.000Z</time>
      </trkpt>
      <trkpt lat="22.831814" lon="111.360942">
        <ele>217.987336</ele>
        <time>2026-08-18T08:58:08.000Z</time>
      </trkpt>
      <trkpt lat="22.831764" lon="111.361026">
        <ele>217.775750</ele>
        <time>2026-08-18T08:58:09.000Z</time>
      </trkpt>
      <trkpt lat="22.831714" lon="111.361108">
        <ele>217.567705</ele>
        <time>2026-08-18T08:58:10.000Z</time>
      </trkpt>
      <trkpt lat="22.831666" lon="111.361192">
        <ele>217.358574</ele>
        <time>2026-08-18T08:58:11.000Z</time>
      </trkpt>
      <trkpt lat="22.831616" lon="111.361275">
        <ele>217.148762</ele>
        <time>2026-08-18T08:58:12.000Z</time>
      </trkpt>
      <trkpt lat="22.831567" lon="111.361360">
        <ele>216.936621</ele>
        <time>2026-08-18T08:58:13.000Z</time>
      </trkpt>
      <trkpt lat="22.831516" lon="111.361444">
        <ele>216.723780</ele>
        <time>2026-08-18T08:58:14.000Z</time>
      </trkpt>
      <trkpt lat="22.831467" lon="111.361530">
        <ele>216.509843</ele>
        <time>2026-08-18T08:58:15.000Z</time>
      </trkpt>
      <trkpt lat="22.831417" lon="111.361615">
        <ele>216.296475</ele>
        <time>2026-08-18T08:58:16.000Z</time>
      </trkpt>
      <trkpt lat="22.831367" lon="111.361700">
        <ele>216.083108</ele>
        <time>2026-08-18T08:58:17.000Z</time>
      </trkpt>
      <trkpt lat="22.831315" lon="111.361782">
        <ele>215.872495</ele>
        <time>2026-08-18T08:58:18.000Z</time>
      </trkpt>
      <trkpt lat="22.831262" lon="111.361864">
        <ele>215.660572</ele>
        <time>2026-08-18T08:58:19.000Z</time>
      </trkpt>
      <trkpt lat="22.831210" lon="111.361945">
        <ele>215.451699</ele>
        <time>2026-08-18T08:58:20.000Z</time>
      </trkpt>
      <trkpt lat="22.831158" lon="111.362026">
        <ele>215.242825</ele>
        <time>2026-08-18T08:58:21.000Z</time>
      </trkpt>
      <trkpt lat="22.831105" lon="111.362105">
        <ele>215.093587</ele>
        <time>2026-08-18T08:58:22.000Z</time>
      </trkpt>
      <trkpt lat="22.831050" lon="111.362182">
        <ele>214.996120</ele>
        <time>2026-08-18T08:58:23.000Z</time>
      </trkpt>
      <trkpt lat="22.830993" lon="111.362257">
        <ele>214.898861</ele>
        <time>2026-08-18T08:58:24.000Z</time>
      </trkpt>
      <trkpt lat="22.830937" lon="111.362331">
        <ele>214.803064</ele>
        <time>2026-08-18T08:58:25.000Z</time>
      </trkpt>
      <trkpt lat="22.830883" lon="111.362406">
        <ele>214.707843</ele>
        <time>2026-08-18T08:58:26.000Z</time>
      </trkpt>
      <trkpt lat="22.830827" lon="111.362480">
        <ele>214.612046</ele>
        <time>2026-08-18T08:58:27.000Z</time>
      </trkpt>
      <trkpt lat="22.830771" lon="111.362553">
        <ele>214.517020</ele>
        <time>2026-08-18T08:58:28.000Z</time>
      </trkpt>
      <trkpt lat="22.830714" lon="111.362624">
        <ele>214.422814</ele>
        <time>2026-08-18T08:58:29.000Z</time>
      </trkpt>
      <trkpt lat="22.830657" lon="111.362692">
        <ele>214.330850</ele>
        <time>2026-08-18T08:58:30.000Z</time>
      </trkpt>
      <trkpt lat="22.830600" lon="111.362761">
        <ele>214.238143</ele>
        <time>2026-08-18T08:58:31.000Z</time>
      </trkpt>
      <trkpt lat="22.830545" lon="111.362828">
        <ele>214.148375</ele>
        <time>2026-08-18T08:58:32.000Z</time>
      </trkpt>
      <trkpt lat="22.830493" lon="111.362894">
        <ele>214.061502</ele>
        <time>2026-08-18T08:58:33.000Z</time>
      </trkpt>
      <trkpt lat="22.830440" lon="111.362960">
        <ele>213.973920</ele>
        <time>2026-08-18T08:58:34.000Z</time>
      </trkpt>
      <trkpt lat="22.830388" lon="111.363025">
        <ele>213.887805</ele>
        <time>2026-08-18T08:58:35.000Z</time>
      </trkpt>
      <trkpt lat="22.830338" lon="111.363087">
        <ele>213.805379</ele>
        <time>2026-08-18T08:58:36.000Z</time>
      </trkpt>
      <trkpt lat="22.830287" lon="111.363149">
        <ele>213.722235</ele>
        <time>2026-08-18T08:58:37.000Z</time>
      </trkpt>
      <trkpt lat="22.830234" lon="111.363206">
        <ele>213.641226</ele>
        <time>2026-08-18T08:58:38.000Z</time>
      </trkpt>
      <trkpt lat="22.830183" lon="111.363266">
        <ele>213.559563</ele>
        <time>2026-08-18T08:58:39.000Z</time>
      </trkpt>
      <trkpt lat="22.830134" lon="111.363325">
        <ele>213.480103</ele>
        <time>2026-08-18T08:58:40.000Z</time>
      </trkpt>
      <trkpt lat="22.830082" lon="111.363380">
        <ele>213.401270</ele>
        <time>2026-08-18T08:58:41.000Z</time>
      </trkpt>
      <trkpt lat="22.830030" lon="111.363436">
        <ele>213.321736</ele>
        <time>2026-08-18T08:58:42.000Z</time>
      </trkpt>
      <trkpt lat="22.829980" lon="111.363491">
        <ele>213.244443</ele>
        <time>2026-08-18T08:58:43.000Z</time>
      </trkpt>
      <trkpt lat="22.829931" lon="111.363547">
        <ele>213.177186</ele>
        <time>2026-08-18T08:58:44.000Z</time>
      </trkpt>
      <trkpt lat="22.829883" lon="111.363603">
        <ele>213.130715</ele>
        <time>2026-08-18T08:58:45.000Z</time>
      </trkpt>
      <trkpt lat="22.829836" lon="111.363659">
        <ele>213.084690</ele>
        <time>2026-08-18T08:58:46.000Z</time>
      </trkpt>
      <trkpt lat="22.829787" lon="111.363713">
        <ele>213.038642</ele>
        <time>2026-08-18T08:58:47.000Z</time>
      </trkpt>
      <trkpt lat="22.829742" lon="111.363766">
        <ele>212.994852</ele>
        <time>2026-08-18T08:58:48.000Z</time>
      </trkpt>
      <trkpt lat="22.829696" lon="111.363820">
        <ele>212.950169</ele>
        <time>2026-08-18T08:58:49.000Z</time>
      </trkpt>
      <trkpt lat="22.829648" lon="111.363872">
        <ele>212.905447</ele>
        <time>2026-08-18T08:58:50.000Z</time>
      </trkpt>
      <trkpt lat="22.829601" lon="111.363924">
        <ele>212.861189</ele>
        <time>2026-08-18T08:58:51.000Z</time>
      </trkpt>
      <trkpt lat="22.829555" lon="111.363976">
        <ele>212.817390</ele>
        <time>2026-08-18T08:58:52.000Z</time>
      </trkpt>
      <trkpt lat="22.829507" lon="111.364028">
        <ele>212.772669</ele>
        <time>2026-08-18T08:58:53.000Z</time>
      </trkpt>
      <trkpt lat="22.829460" lon="111.364079">
        <ele>212.728843</ele>
        <time>2026-08-18T08:58:54.000Z</time>
      </trkpt>
      <trkpt lat="22.829416" lon="111.364131">
        <ele>212.685947</ele>
        <time>2026-08-18T08:58:55.000Z</time>
      </trkpt>
      <trkpt lat="22.829374" lon="111.364181">
        <ele>212.644837</ele>
        <time>2026-08-18T08:58:56.000Z</time>
      </trkpt>
      <trkpt lat="22.829328" lon="111.364233">
        <ele>212.601039</ele>
        <time>2026-08-18T08:58:57.000Z</time>
      </trkpt>
      <trkpt lat="22.829282" lon="111.364283">
        <ele>212.558108</ele>
        <time>2026-08-18T08:58:58.000Z</time>
      </trkpt>
      <trkpt lat="22.829238" lon="111.364335">
        <ele>212.515212</ele>
        <time>2026-08-18T08:58:59.000Z</time>
      </trkpt>
      <trkpt lat="22.829193" lon="111.364386">
        <ele>212.472309</ele>
        <time>2026-08-18T08:59:00.000Z</time>
      </trkpt>
      <trkpt lat="22.829149" lon="111.364437">
        <ele>212.429858</ele>
        <time>2026-08-18T08:59:01.000Z</time>
      </trkpt>
      <trkpt lat="22.829104" lon="111.364490">
        <ele>212.386068</ele>
        <time>2026-08-18T08:59:02.000Z</time>
      </trkpt>
      <trkpt lat="22.829059" lon="111.364540">
        <ele>212.343601</ele>
        <time>2026-08-18T08:59:03.000Z</time>
      </trkpt>
      <trkpt lat="22.829015" lon="111.364591">
        <ele>212.301151</ele>
        <time>2026-08-18T08:59:04.000Z</time>
      </trkpt>
      <trkpt lat="22.828971" lon="111.364641">
        <ele>212.259142</ele>
        <time>2026-08-18T08:59:05.000Z</time>
      </trkpt>
      <trkpt lat="22.828927" lon="111.364689">
        <ele>212.218003</ele>
        <time>2026-08-18T08:59:06.000Z</time>
      </trkpt>
      <trkpt lat="22.828882" lon="111.364736">
        <ele>212.176821</ele>
        <time>2026-08-18T08:59:07.000Z</time>
      </trkpt>
      <trkpt lat="22.828838" lon="111.364783">
        <ele>212.136111</ele>
        <time>2026-08-18T08:59:08.000Z</time>
      </trkpt>
      <trkpt lat="22.828793" lon="111.364830">
        <ele>212.094929</ele>
        <time>2026-08-18T08:59:09.000Z</time>
      </trkpt>
      <trkpt lat="22.828748" lon="111.364878">
        <ele>212.053323</ele>
        <time>2026-08-18T08:59:10.000Z</time>
      </trkpt>
      <trkpt lat="22.828705" lon="111.364926">
        <ele>212.012647</ele>
        <time>2026-08-18T08:59:11.000Z</time>
      </trkpt>
      <trkpt lat="22.828661" lon="111.364973">
        <ele>211.947900</ele>
        <time>2026-08-18T08:59:12.000Z</time>
      </trkpt>
      <trkpt lat="22.828616" lon="111.365019">
        <ele>211.879010</ele>
        <time>2026-08-18T08:59:13.000Z</time>
      </trkpt>
      <trkpt lat="22.828574" lon="111.365067">
        <ele>211.811039</ele>
        <time>2026-08-18T08:59:14.000Z</time>
      </trkpt>
      <trkpt lat="22.828531" lon="111.365114">
        <ele>211.743029</ele>
        <time>2026-08-18T08:59:15.000Z</time>
      </trkpt>
      <trkpt lat="22.828489" lon="111.365165">
        <ele>211.672791</ele>
        <time>2026-08-18T08:59:16.000Z</time>
      </trkpt>
      <trkpt lat="22.828447" lon="111.365214">
        <ele>211.604072</ele>
        <time>2026-08-18T08:59:17.000Z</time>
      </trkpt>
      <trkpt lat="22.828404" lon="111.365264">
        <ele>211.533841</ele>
        <time>2026-08-18T08:59:18.000Z</time>
      </trkpt>
      <trkpt lat="22.828363" lon="111.365312">
        <ele>211.466633</ele>
        <time>2026-08-18T08:59:19.000Z</time>
      </trkpt>
      <trkpt lat="22.828320" lon="111.365362">
        <ele>211.396402</ele>
        <time>2026-08-18T08:59:20.000Z</time>
      </trkpt>
      <trkpt lat="22.828274" lon="111.365410">
        <ele>211.325289</ele>
        <time>2026-08-18T08:59:21.000Z</time>
      </trkpt>
      <trkpt lat="22.828229" lon="111.365459">
        <ele>211.254251</ele>
        <time>2026-08-18T08:59:22.000Z</time>
      </trkpt>
      <trkpt lat="22.828186" lon="111.365508">
        <ele>211.184768</ele>
        <time>2026-08-18T08:59:23.000Z</time>
      </trkpt>
      <trkpt lat="22.828143" lon="111.365559">
        <ele>211.113783</ele>
        <time>2026-08-18T08:59:24.000Z</time>
      </trkpt>
      <trkpt lat="22.828100" lon="111.365610">
        <ele>211.042798</ele>
        <time>2026-08-18T08:59:25.000Z</time>
      </trkpt>
      <trkpt lat="22.828055" lon="111.365663">
        <ele>210.968793</ele>
        <time>2026-08-18T08:59:26.000Z</time>
      </trkpt>
      <trkpt lat="22.828011" lon="111.365715">
        <ele>210.896299</ele>
        <time>2026-08-18T08:59:27.000Z</time>
      </trkpt>
      <trkpt lat="22.827967" lon="111.365767">
        <ele>210.823804</ele>
        <time>2026-08-18T08:59:28.000Z</time>
      </trkpt>
      <trkpt lat="22.827920" lon="111.365818">
        <ele>210.749738</ele>
        <time>2026-08-18T08:59:29.000Z</time>
      </trkpt>
      <trkpt lat="22.827873" lon="111.365870">
        <ele>210.674942</ele>
        <time>2026-08-18T08:59:30.000Z</time>
      </trkpt>
      <trkpt lat="22.827828" lon="111.365922">
        <ele>210.601689</ele>
        <time>2026-08-18T08:59:31.000Z</time>
      </trkpt>
      <trkpt lat="22.827782" lon="111.365974">
        <ele>210.527669</ele>
        <time>2026-08-18T08:59:32.000Z</time>
      </trkpt>
      <trkpt lat="22.827737" lon="111.366026">
        <ele>210.454416</ele>
        <time>2026-08-18T08:59:33.000Z</time>
      </trkpt>
      <trkpt lat="22.827695" lon="111.366080">
        <ele>210.381852</ele>
        <time>2026-08-18T08:59:34.000Z</time>
      </trkpt>
      <trkpt lat="22.827652" lon="111.366131">
        <ele>210.310867</ele>
        <time>2026-08-18T08:59:35.000Z</time>
      </trkpt>
      <trkpt lat="22.827610" lon="111.366182">
        <ele>210.240629</ele>
        <time>2026-08-18T08:59:36.000Z</time>
      </trkpt>
      <trkpt lat="22.827569" lon="111.366234">
        <ele>210.170352</ele>
        <time>2026-08-18T08:59:37.000Z</time>
      </trkpt>
      <trkpt lat="22.827528" lon="111.366286">
        <ele>210.100074</ele>
        <time>2026-08-18T08:59:38.000Z</time>
      </trkpt>
      <trkpt lat="22.827487" lon="111.366338">
        <ele>210.029797</ele>
        <time>2026-08-18T08:59:39.000Z</time>
      </trkpt>
      <trkpt lat="22.827446" lon="111.366389">
        <ele>209.945119</ele>
        <time>2026-08-18T08:59:40.000Z</time>
      </trkpt>
      <trkpt lat="22.827406" lon="111.366443">
        <ele>209.848467</ele>
        <time>2026-08-18T08:59:41.000Z</time>
      </trkpt>
      <trkpt lat="22.827367" lon="111.366501">
        <ele>209.748304</ele>
        <time>2026-08-18T08:59:42.000Z</time>
      </trkpt>
      <trkpt lat="22.827330" lon="111.366559">
        <ele>209.649895</ele>
        <time>2026-08-18T08:59:43.000Z</time>
      </trkpt>
      <trkpt lat="22.827294" lon="111.366617">
        <ele>209.552339</ele>
        <time>2026-08-18T08:59:44.000Z</time>
      </trkpt>
      <trkpt lat="22.827259" lon="111.366678">
        <ele>209.452093</ele>
        <time>2026-08-18T08:59:45.000Z</time>
      </trkpt>
      <trkpt lat="22.827225" lon="111.366740">
        <ele>209.351442</ele>
        <time>2026-08-18T08:59:46.000Z</time>
      </trkpt>
      <trkpt lat="22.827192" lon="111.366803">
        <ele>209.250346</ele>
        <time>2026-08-18T08:59:47.000Z</time>
      </trkpt>
      <trkpt lat="22.827161" lon="111.366866">
        <ele>209.150711</ele>
        <time>2026-08-18T08:59:48.000Z</time>
      </trkpt>
      <trkpt lat="22.827132" lon="111.366931">
        <ele>209.049962</ele>
        <time>2026-08-18T08:59:49.000Z</time>
      </trkpt>
      <trkpt lat="22.827105" lon="111.366997">
        <ele>208.949220</ele>
        <time>2026-08-18T08:59:50.000Z</time>
      </trkpt>
      <trkpt lat="22.827081" lon="111.367063">
        <ele>208.850234</ele>
        <time>2026-08-18T08:59:51.000Z</time>
      </trkpt>
      <trkpt lat="22.827061" lon="111.367130">
        <ele>208.751980</ele>
        <time>2026-08-18T08:59:52.000Z</time>
      </trkpt>
      <trkpt lat="22.827043" lon="111.367199">
        <ele>208.651934</ele>
        <time>2026-08-18T08:59:53.000Z</time>
      </trkpt>
      <trkpt lat="22.827026" lon="111.367268">
        <ele>208.552290</ele>
        <time>2026-08-18T08:59:54.000Z</time>
      </trkpt>
      <trkpt lat="22.827011" lon="111.367338">
        <ele>208.452026</ele>
        <time>2026-08-18T08:59:55.000Z</time>
      </trkpt>
      <trkpt lat="22.826998" lon="111.367409">
        <ele>208.351036</ele>
        <time>2026-08-18T08:59:56.000Z</time>
      </trkpt>
      <trkpt lat="22.826988" lon="111.367478">
        <ele>208.253589</ele>
        <time>2026-08-18T08:59:57.000Z</time>
      </trkpt>
      <trkpt lat="22.826979" lon="111.367550">
        <ele>208.152220</ele>
        <time>2026-08-18T08:59:58.000Z</time>
      </trkpt>
      <trkpt lat="22.826971" lon="111.367620">
        <ele>208.053812</ele>
        <time>2026-08-18T08:59:59.000Z</time>
      </trkpt>
      <trkpt lat="22.826966" lon="111.367690">
        <ele>207.955860</ele>
        <time>2026-08-18T09:00:00.000Z</time>
      </trkpt>
      <trkpt lat="22.826963" lon="111.367761">
        <ele>207.856702</ele>
        <time>2026-08-18T09:00:01.000Z</time>
      </trkpt>
      <trkpt lat="22.826962" lon="111.367832">
        <ele>207.757635</ele>
        <time>2026-08-18T09:00:02.000Z</time>
      </trkpt>
      <trkpt lat="22.826964" lon="111.367901">
        <ele>207.661324</ele>
        <time>2026-08-18T09:00:03.000Z</time>
      </trkpt>
      <trkpt lat="22.826967" lon="111.367972">
        <ele>207.562165</ele>
        <time>2026-08-18T09:00:04.000Z</time>
      </trkpt>
      <trkpt lat="22.826972" lon="111.368041">
        <ele>207.465604</ele>
        <time>2026-08-18T09:00:05.000Z</time>
      </trkpt>
      <trkpt lat="22.826980" lon="111.368112">
        <ele>207.365812</ele>
        <time>2026-08-18T09:00:06.000Z</time>
      </trkpt>
      <trkpt lat="22.826989" lon="111.368183">
        <ele>207.264181</ele>
        <time>2026-08-18T09:00:07.000Z</time>
      </trkpt>
      <trkpt lat="22.826999" lon="111.368255">
        <ele>207.150864</ele>
        <time>2026-08-18T09:00:08.000Z</time>
      </trkpt>
      <trkpt lat="22.827011" lon="111.368327">
        <ele>207.036994</ele>
        <time>2026-08-18T09:00:09.000Z</time>
      </trkpt>
      <trkpt lat="22.827024" lon="111.368399">
        <ele>206.922812</ele>
        <time>2026-08-18T09:00:10.000Z</time>
      </trkpt>
      <trkpt lat="22.827039" lon="111.368469">
        <ele>206.810967</ele>
        <time>2026-08-18T09:00:11.000Z</time>
      </trkpt>
      <trkpt lat="22.827057" lon="111.368538">
        <ele>206.699365</ele>
        <time>2026-08-18T09:00:12.000Z</time>
      </trkpt>
      <trkpt lat="22.827074" lon="111.368608">
        <ele>206.586707</ele>
        <time>2026-08-18T09:00:13.000Z</time>
      </trkpt>
      <trkpt lat="22.827096" lon="111.368678">
        <ele>206.471608</ele>
        <time>2026-08-18T09:00:14.000Z</time>
      </trkpt>
      <trkpt lat="22.827119" lon="111.368747">
        <ele>206.357417</ele>
        <time>2026-08-18T09:00:15.000Z</time>
      </trkpt>
      <trkpt lat="22.827144" lon="111.368817">
        <ele>206.240585</ele>
        <time>2026-08-18T09:00:16.000Z</time>
      </trkpt>
      <trkpt lat="22.827168" lon="111.368884">
        <ele>206.128716</ele>
        <time>2026-08-18T09:00:17.000Z</time>
      </trkpt>
      <trkpt lat="22.827194" lon="111.368953">
        <ele>206.012705</ele>
        <time>2026-08-18T09:00:18.000Z</time>
      </trkpt>
      <trkpt lat="22.827220" lon="111.369023">
        <ele>205.895252</ele>
        <time>2026-08-18T09:00:19.000Z</time>
      </trkpt>
      <trkpt lat="22.827248" lon="111.369090">
        <ele>205.780764</ele>
        <time>2026-08-18T09:00:20.000Z</time>
      </trkpt>
      <trkpt lat="22.827276" lon="111.369157">
        <ele>205.666275</ele>
        <time>2026-08-18T09:00:21.000Z</time>
      </trkpt>
      <trkpt lat="22.827304" lon="111.369227">
        <ele>205.547519</ele>
        <time>2026-08-18T09:00:22.000Z</time>
      </trkpt>
      <trkpt lat="22.827332" lon="111.369296">
        <ele>205.430188</ele>
        <time>2026-08-18T09:00:23.000Z</time>
      </trkpt>
      <trkpt lat="22.827361" lon="111.369364">
        <ele>205.313581</ele>
        <time>2026-08-18T09:00:24.000Z</time>
      </trkpt>
      <trkpt lat="22.827390" lon="111.369433">
        <ele>205.195560</ele>
        <time>2026-08-18T09:00:25.000Z</time>
      </trkpt>
      <trkpt lat="22.827419" lon="111.369502">
        <ele>205.077540</ele>
        <time>2026-08-18T09:00:26.000Z</time>
      </trkpt>
      <trkpt lat="22.827449" lon="111.369569">
        <ele>204.961616</ele>
        <time>2026-08-18T09:00:27.000Z</time>
      </trkpt>
      <trkpt lat="22.827480" lon="111.369635">
        <ele>204.846333</ele>
        <time>2026-08-18T09:00:28.000Z</time>
      </trkpt>
      <trkpt lat="22.827511" lon="111.369702">
        <ele>204.729661</ele>
        <time>2026-08-18T09:00:29.000Z</time>
      </trkpt>
      <trkpt lat="22.827541" lon="111.369767">
        <ele>204.616529</ele>
        <time>2026-08-18T09:00:30.000Z</time>
      </trkpt>
      <trkpt lat="22.827569" lon="111.369834">
        <ele>204.502040</ele>
        <time>2026-08-18T09:00:31.000Z</time>
      </trkpt>
      <trkpt lat="22.827594" lon="111.369901">
        <ele>204.389549</ele>
        <time>2026-08-18T09:00:32.000Z</time>
      </trkpt>
      <trkpt lat="22.827619" lon="111.369966">
        <ele>204.279937</ele>
        <time>2026-08-18T09:00:33.000Z</time>
      </trkpt>
      <trkpt lat="22.827644" lon="111.370033">
        <ele>204.183356</ele>
        <time>2026-08-18T09:00:34.000Z</time>
      </trkpt>
      <trkpt lat="22.827670" lon="111.370100">
        <ele>204.094044</ele>
        <time>2026-08-18T09:00:35.000Z</time>
      </trkpt>
      <trkpt lat="22.827696" lon="111.370166">
        <ele>204.005864</ele>
        <time>2026-08-18T09:00:36.000Z</time>
      </trkpt>
      <trkpt lat="22.827721" lon="111.370233">
        <ele>203.917062</ele>
        <time>2026-08-18T09:00:37.000Z</time>
      </trkpt>
      <trkpt lat="22.827745" lon="111.370299">
        <ele>203.829895</ele>
        <time>2026-08-18T09:00:38.000Z</time>
      </trkpt>
      <trkpt lat="22.827770" lon="111.370367">
        <ele>203.739952</ele>
        <time>2026-08-18T09:00:39.000Z</time>
      </trkpt>
      <trkpt lat="22.827793" lon="111.370435">
        <ele>203.650963</ele>
        <time>2026-08-18T09:00:40.000Z</time>
      </trkpt>
      <trkpt lat="22.827813" lon="111.370505">
        <ele>203.560927</ele>
        <time>2026-08-18T09:00:41.000Z</time>
      </trkpt>
      <trkpt lat="22.827832" lon="111.370574">
        <ele>203.472455</ele>
        <time>2026-08-18T09:00:42.000Z</time>
      </trkpt>
      <trkpt lat="22.827849" lon="111.370644">
        <ele>203.383521</ele>
        <time>2026-08-18T09:00:43.000Z</time>
      </trkpt>
      <trkpt lat="22.827864" lon="111.370713">
        <ele>203.296425</ele>
        <time>2026-08-18T09:00:44.000Z</time>
      </trkpt>
      <trkpt lat="22.827881" lon="111.370782">
        <ele>203.208679</ele>
        <time>2026-08-18T09:00:45.000Z</time>
      </trkpt>
      <trkpt lat="22.827899" lon="111.370850">
        <ele>203.121760</ele>
        <time>2026-08-18T09:00:46.000Z</time>
      </trkpt>
      <trkpt lat="22.827914" lon="111.370917">
        <ele>203.037054</ele>
        <time>2026-08-18T09:00:47.000Z</time>
      </trkpt>
      <trkpt lat="22.827925" lon="111.370985">
        <ele>202.952236</ele>
        <time>2026-08-18T09:00:48.000Z</time>
      </trkpt>
      <trkpt lat="22.827936" lon="111.371053">
        <ele>202.867417</ele>
        <time>2026-08-18T09:00:49.000Z</time>
      </trkpt>
      <trkpt lat="22.827947" lon="111.371122">
        <ele>202.781389</ele>
        <time>2026-08-18T09:00:50.000Z</time>
      </trkpt>
      <trkpt lat="22.827956" lon="111.371192">
        <ele>202.694558</ele>
        <time>2026-08-18T09:00:51.000Z</time>
      </trkpt>
      <trkpt lat="22.827967" lon="111.371261">
        <ele>202.608529</ele>
        <time>2026-08-18T09:00:52.000Z</time>
      </trkpt>
      <trkpt lat="22.827977" lon="111.371332">
        <ele>202.520290</ele>
        <time>2026-08-18T09:00:53.000Z</time>
      </trkpt>
      <trkpt lat="22.827984" lon="111.371400">
        <ele>202.436229</ele>
        <time>2026-08-18T09:00:54.000Z</time>
      </trkpt>
      <trkpt lat="22.827988" lon="111.371469">
        <ele>202.351292</ele>
        <time>2026-08-18T09:00:55.000Z</time>
      </trkpt>
      <trkpt lat="22.827989" lon="111.371541">
        <ele>202.262826</ele>
        <time>2026-08-18T09:00:56.000Z</time>
      </trkpt>
      <trkpt lat="22.827988" lon="111.371613">
        <ele>202.174361</ele>
        <time>2026-08-18T09:00:57.000Z</time>
      </trkpt>
      <trkpt lat="22.827987" lon="111.371685">
        <ele>202.085895</ele>
        <time>2026-08-18T09:00:58.000Z</time>
      </trkpt>
      <trkpt lat="22.827986" lon="111.371757">
        <ele>201.997430</ele>
        <time>2026-08-18T09:00:59.000Z</time>
      </trkpt>
      <trkpt lat="22.827982" lon="111.371828">
        <ele>201.910040</ele>
        <time>2026-08-18T09:01:00.000Z</time>
      </trkpt>
      <trkpt lat="22.827975" lon="111.371899">
        <ele>201.827401</ele>
        <time>2026-08-18T09:01:01.000Z</time>
      </trkpt>
      <trkpt lat="22.827968" lon="111.371969">
        <ele>201.759880</ele>
        <time>2026-08-18T09:01:02.000Z</time>
      </trkpt>
      <trkpt lat="22.827960" lon="111.372040">
        <ele>201.691287</ele>
        <time>2026-08-18T09:01:03.000Z</time>
      </trkpt>
      <trkpt lat="22.827951" lon="111.372110">
        <ele>201.623510</ele>
        <time>2026-08-18T09:01:04.000Z</time>
      </trkpt>
      <trkpt lat="22.827941" lon="111.372180">
        <ele>201.555581</ele>
        <time>2026-08-18T09:01:05.000Z</time>
      </trkpt>
      <trkpt lat="22.827932" lon="111.372248">
        <ele>201.489703</ele>
        <time>2026-08-18T09:01:06.000Z</time>
      </trkpt>
      <trkpt lat="22.827923" lon="111.372315">
        <ele>201.424774</ele>
        <time>2026-08-18T09:01:07.000Z</time>
      </trkpt>
      <trkpt lat="22.827915" lon="111.372381">
        <ele>201.360938</ele>
        <time>2026-08-18T09:01:08.000Z</time>
      </trkpt>
      <trkpt lat="22.827907" lon="111.372446">
        <ele>201.298052</ele>
        <time>2026-08-18T09:01:09.000Z</time>
      </trkpt>
      <trkpt lat="22.827897" lon="111.372511">
        <ele>201.234857</ele>
        <time>2026-08-18T09:01:10.000Z</time>
      </trkpt>
      <trkpt lat="22.827887" lon="111.372575">
        <ele>201.172608</ele>
        <time>2026-08-18T09:01:11.000Z</time>
      </trkpt>
      <trkpt lat="22.827875" lon="111.372641">
        <ele>201.108097</ele>
        <time>2026-08-18T09:01:12.000Z</time>
      </trkpt>
      <trkpt lat="22.827863" lon="111.372706">
        <ele>201.044526</ele>
        <time>2026-08-18T09:01:13.000Z</time>
      </trkpt>
      <trkpt lat="22.827854" lon="111.372768">
        <ele>200.984338</ele>
        <time>2026-08-18T09:01:14.000Z</time>
      </trkpt>
      <trkpt lat="22.827843" lon="111.372826">
        <ele>200.927553</ele>
        <time>2026-08-18T09:01:15.000Z</time>
      </trkpt>
      <trkpt lat="22.827830" lon="111.372887">
        <ele>200.867513</ele>
        <time>2026-08-18T09:01:16.000Z</time>
      </trkpt>
      <trkpt lat="22.827818" lon="111.372947">
        <ele>200.808636</ele>
        <time>2026-08-18T09:01:17.000Z</time>
      </trkpt>
      <trkpt lat="22.827805" lon="111.373010">
        <ele>200.746726</ele>
        <time>2026-08-18T09:01:18.000Z</time>
      </trkpt>
      <trkpt lat="22.827792" lon="111.373071">
        <ele>200.686686</ele>
        <time>2026-08-18T09:01:19.000Z</time>
      </trkpt>
      <trkpt lat="22.827782" lon="111.373135">
        <ele>200.624437</ele>
        <time>2026-08-18T09:01:20.000Z</time>
      </trkpt>
      <trkpt lat="22.827770" lon="111.373197">
        <ele>200.563685</ele>
        <time>2026-08-18T09:01:21.000Z</time>
      </trkpt>
      <trkpt lat="22.827760" lon="111.373261">
        <ele>200.501435</ele>
        <time>2026-08-18T09:01:22.000Z</time>
      </trkpt>
      <trkpt lat="22.827749" lon="111.373324">
        <ele>200.439946</ele>
        <time>2026-08-18T09:01:23.000Z</time>
      </trkpt>
      <trkpt lat="22.827740" lon="111.373387">
        <ele>200.378810</ele>
        <time>2026-08-18T09:01:24.000Z</time>
      </trkpt>
      <trkpt lat="22.827731" lon="111.373450">
        <ele>200.317674</ele>
        <time>2026-08-18T09:01:25.000Z</time>
      </trkpt>
      <trkpt lat="22.827722" lon="111.373514">
        <ele>200.255591</ele>
        <time>2026-08-18T09:01:26.000Z</time>
      </trkpt>
      <trkpt lat="22.827710" lon="111.373577">
        <ele>200.193899</ele>
        <time>2026-08-18T09:01:27.000Z</time>
      </trkpt>
      <trkpt lat="22.827697" lon="111.373638">
        <ele>200.133859</ele>
        <time>2026-08-18T09:01:28.000Z</time>
      </trkpt>
      <trkpt lat="22.827686" lon="111.373700">
        <ele>200.073312</ele>
        <time>2026-08-18T09:01:29.000Z</time>
      </trkpt>
      <trkpt lat="22.827675" lon="111.373764">
        <ele>200.010881</ele>
        <time>2026-08-18T09:01:30.000Z</time>
      </trkpt>
      <trkpt lat="22.827666" lon="111.373827">
        <ele>199.941729</ele>
        <time>2026-08-18T09:01:31.000Z</time>
      </trkpt>
      <trkpt lat="22.827659" lon="111.373888">
        <ele>199.863368</ele>
        <time>2026-08-18T09:01:32.000Z</time>
      </trkpt>
      <trkpt lat="22.827655" lon="111.373953">
        <ele>199.780324</ele>
        <time>2026-08-18T09:01:33.000Z</time>
      </trkpt>
      <trkpt lat="22.827653" lon="111.374018">
        <ele>199.697418</ele>
        <time>2026-08-18T09:01:34.000Z</time>
      </trkpt>
      <trkpt lat="22.827646" lon="111.374084">
        <ele>199.612729</ele>
        <time>2026-08-18T09:01:35.000Z</time>
      </trkpt>
      <trkpt lat="22.827639" lon="111.374151">
        <ele>199.526773</ele>
        <time>2026-08-18T09:01:36.000Z</time>
      </trkpt>
      <trkpt lat="22.827633" lon="111.374218">
        <ele>199.440962</ele>
        <time>2026-08-18T09:01:37.000Z</time>
      </trkpt>
      <trkpt lat="22.827626" lon="111.374285">
        <ele>199.355006</ele>
        <time>2026-08-18T09:01:38.000Z</time>
      </trkpt>
      <trkpt lat="22.827620" lon="111.374353">
        <ele>199.267926</ele>
        <time>2026-08-18T09:01:39.000Z</time>
      </trkpt>
      <trkpt lat="22.827616" lon="111.374422">
        <ele>199.179793</ele>
        <time>2026-08-18T09:01:40.000Z</time>
      </trkpt>
      <trkpt lat="22.827615" lon="111.374491">
        <ele>199.091824</ele>
        <time>2026-08-18T09:01:41.000Z</time>
      </trkpt>
      <trkpt lat="22.827614" lon="111.374561">
        <ele>199.002580</ele>
        <time>2026-08-18T09:01:42.000Z</time>
      </trkpt>
      <trkpt lat="22.827612" lon="111.374632">
        <ele>198.912029</ele>
        <time>2026-08-18T09:01:43.000Z</time>
      </trkpt>
      <trkpt lat="22.827606" lon="111.374703">
        <ele>198.821142</ele>
        <time>2026-08-18T09:01:44.000Z</time>
      </trkpt>
      <trkpt lat="22.827598" lon="111.374773">
        <ele>198.731225</ele>
        <time>2026-08-18T09:01:45.000Z</time>
      </trkpt>
      <trkpt lat="22.827590" lon="111.374844">
        <ele>198.640043</ele>
        <time>2026-08-18T09:01:46.000Z</time>
      </trkpt>
      <trkpt lat="22.827581" lon="111.374912">
        <ele>198.552470</ele>
        <time>2026-08-18T09:01:47.000Z</time>
      </trkpt>
      <trkpt lat="22.827570" lon="111.374979">
        <ele>198.465716</ele>
        <time>2026-08-18T09:01:48.000Z</time>
      </trkpt>
      <trkpt lat="22.827558" lon="111.375047">
        <ele>198.377458</ele>
        <time>2026-08-18T09:01:49.000Z</time>
      </trkpt>
      <trkpt lat="22.827546" lon="111.375117">
        <ele>198.286694</ele>
        <time>2026-08-18T09:01:50.000Z</time>
      </trkpt>
      <trkpt lat="22.827533" lon="111.375187">
        <ele>198.195667</ele>
        <time>2026-08-18T09:01:51.000Z</time>
      </trkpt>
      <trkpt lat="22.827518" lon="111.375256">
        <ele>198.105295</ele>
        <time>2026-08-18T09:01:52.000Z</time>
      </trkpt>
      <trkpt lat="22.827501" lon="111.375325">
        <ele>198.014248</ele>
        <time>2026-08-18T09:01:53.000Z</time>
      </trkpt>
      <trkpt lat="22.827480" lon="111.375394">
        <ele>197.921618</ele>
        <time>2026-08-18T09:01:54.000Z</time>
      </trkpt>
      <trkpt lat="22.827458" lon="111.375459">
        <ele>197.833348</ele>
        <time>2026-08-18T09:01:55.000Z</time>
      </trkpt>
      <trkpt lat="22.827432" lon="111.375524">
        <ele>197.743022</ele>
        <time>2026-08-18T09:01:56.000Z</time>
      </trkpt>
      <trkpt lat="22.827406" lon="111.375589">
        <ele>197.652695</ele>
        <time>2026-08-18T09:01:57.000Z</time>
      </trkpt>
      <trkpt lat="22.827383" lon="111.375655">
        <ele>197.562748</ele>
        <time>2026-08-18T09:01:58.000Z</time>
      </trkpt>
      <trkpt lat="22.827356" lon="111.375719">
        <ele>197.466872</ele>
        <time>2026-08-18T09:01:59.000Z</time>
      </trkpt>
      <trkpt lat="22.827329" lon="111.375783">
        <ele>197.335891</ele>
        <time>2026-08-18T09:02:00.000Z</time>
      </trkpt>
      <trkpt lat="22.827300" lon="111.375849">
        <ele>197.199828</ele>
        <time>2026-08-18T09:02:01.000Z</time>
      </trkpt>
      <trkpt lat="22.827265" lon="111.375911">
        <ele>197.064530</ele>
        <time>2026-08-18T09:02:02.000Z</time>
      </trkpt>
      <trkpt lat="22.827232" lon="111.375974">
        <ele>196.929683</ele>
        <time>2026-08-18T09:02:03.000Z</time>
      </trkpt>
      <trkpt lat="22.827203" lon="111.376038">
        <ele>196.796970</ele>
        <time>2026-08-18T09:02:04.000Z</time>
      </trkpt>
      <trkpt lat="22.827174" lon="111.376102">
        <ele>196.664257</ele>
        <time>2026-08-18T09:02:05.000Z</time>
      </trkpt>
      <trkpt lat="22.827143" lon="111.376167">
        <ele>196.528064</ele>
        <time>2026-08-18T09:02:06.000Z</time>
      </trkpt>
      <trkpt lat="22.827114" lon="111.376234">
        <ele>196.390319</ele>
        <time>2026-08-18T09:02:07.000Z</time>
      </trkpt>
      <trkpt lat="22.827081" lon="111.376300">
        <ele>196.250590</ele>
        <time>2026-08-18T09:02:08.000Z</time>
      </trkpt>
      <trkpt lat="22.827048" lon="111.376365">
        <ele>196.112494</ele>
        <time>2026-08-18T09:02:09.000Z</time>
      </trkpt>
      <trkpt lat="22.827015" lon="111.376430">
        <ele>195.974399</ele>
        <time>2026-08-18T09:02:10.000Z</time>
      </trkpt>
      <trkpt lat="22.826981" lon="111.376494">
        <ele>195.836933</ele>
        <time>2026-08-18T09:02:11.000Z</time>
      </trkpt>
      <trkpt lat="22.826947" lon="111.376559">
        <ele>195.697852</ele>
        <time>2026-08-18T09:02:12.000Z</time>
      </trkpt>
      <trkpt lat="22.826914" lon="111.376625">
        <ele>195.558123</ele>
        <time>2026-08-18T09:02:13.000Z</time>
      </trkpt>
      <trkpt lat="22.826882" lon="111.376691">
        <ele>195.419345</ele>
        <time>2026-08-18T09:02:14.000Z</time>
      </trkpt>
      <trkpt lat="22.826850" lon="111.376755">
        <ele>195.283851</ele>
        <time>2026-08-18T09:02:15.000Z</time>
      </trkpt>
      <trkpt lat="22.826820" lon="111.376821">
        <ele>195.146907</ele>
        <time>2026-08-18T09:02:16.000Z</time>
      </trkpt>
      <trkpt lat="22.826787" lon="111.376886">
        <ele>195.008811</ele>
        <time>2026-08-18T09:02:17.000Z</time>
      </trkpt>
      <trkpt lat="22.826754" lon="111.376949">
        <ele>194.873963</ele>
        <time>2026-08-18T09:02:18.000Z</time>
      </trkpt>
      <trkpt lat="22.826722" lon="111.377013">
        <ele>194.738468</ele>
        <time>2026-08-18T09:02:19.000Z</time>
      </trkpt>
      <trkpt lat="22.826689" lon="111.377077">
        <ele>194.601999</ele>
        <time>2026-08-18T09:02:20.000Z</time>
      </trkpt>
      <trkpt lat="22.826659" lon="111.377140">
        <ele>194.470039</ele>
        <time>2026-08-18T09:02:21.000Z</time>
      </trkpt>
      <trkpt lat="22.826631" lon="111.377205">
        <ele>194.336520</ele>
        <time>2026-08-18T09:02:22.000Z</time>
      </trkpt>
      <trkpt lat="22.826602" lon="111.377270">
        <ele>194.202135</ele>
        <time>2026-08-18T09:02:23.000Z</time>
      </trkpt>
      <trkpt lat="22.826569" lon="111.377331">
        <ele>194.070509</ele>
        <time>2026-08-18T09:02:24.000Z</time>
      </trkpt>
      <trkpt lat="22.826538" lon="111.377394">
        <ele>193.937610</ele>
        <time>2026-08-18T09:02:25.000Z</time>
      </trkpt>
      <trkpt lat="22.826506" lon="111.377457">
        <ele>193.813362</ele>
        <time>2026-08-18T09:02:26.000Z</time>
      </trkpt>
      <trkpt lat="22.826473" lon="111.377520">
        <ele>193.703876</ele>
        <time>2026-08-18T09:02:27.000Z</time>
      </trkpt>
      <trkpt lat="22.826438" lon="111.377582">
        <ele>193.594024</ele>
        <time>2026-08-18T09:02:28.000Z</time>
      </trkpt>
      <trkpt lat="22.826403" lon="111.377645">
        <ele>193.482881</ele>
        <time>2026-08-18T09:02:29.000Z</time>
      </trkpt>
      <trkpt lat="22.826369" lon="111.377709">
        <ele>193.371269</ele>
        <time>2026-08-18T09:02:30.000Z</time>
      </trkpt>
      <trkpt lat="22.826336" lon="111.377774">
        <ele>193.259146</ele>
        <time>2026-08-18T09:02:31.000Z</time>
      </trkpt>
      <trkpt lat="22.826305" lon="111.377837">
        <ele>193.151242</ele>
        <time>2026-08-18T09:02:32.000Z</time>
      </trkpt>
      <trkpt lat="22.826272" lon="111.377898">
        <ele>193.044372</ele>
        <time>2026-08-18T09:02:33.000Z</time>
      </trkpt>
      <trkpt lat="22.826239" lon="111.377957">
        <ele>192.940097</ele>
        <time>2026-08-18T09:02:34.000Z</time>
      </trkpt>
      <trkpt lat="22.826206" lon="111.378020">
        <ele>192.830611</ele>
        <time>2026-08-18T09:02:35.000Z</time>
      </trkpt>
      <trkpt lat="22.826173" lon="111.378086">
        <ele>192.717161</ele>
        <time>2026-08-18T09:02:36.000Z</time>
      </trkpt>
      <trkpt lat="22.826140" lon="111.378150">
        <ele>192.606358</ele>
        <time>2026-08-18T09:02:37.000Z</time>
      </trkpt>
      <trkpt lat="22.826110" lon="111.378214">
        <ele>192.497872</ele>
        <time>2026-08-18T09:02:38.000Z</time>
      </trkpt>
      <trkpt lat="22.826081" lon="111.378276">
        <ele>192.392822</ele>
        <time>2026-08-18T09:02:39.000Z</time>
      </trkpt>
      <trkpt lat="22.826050" lon="111.378339">
        <ele>192.284918</ele>
        <time>2026-08-18T09:02:40.000Z</time>
      </trkpt>
      <trkpt lat="22.826020" lon="111.378402">
        <ele>192.177776</ele>
        <time>2026-08-18T09:02:41.000Z</time>
      </trkpt>
      <trkpt lat="22.825990" lon="111.378466">
        <ele>192.069289</ele>
        <time>2026-08-18T09:02:42.000Z</time>
      </trkpt>
      <trkpt lat="22.825957" lon="111.378529">
        <ele>191.959802</ele>
        <time>2026-08-18T09:02:43.000Z</time>
      </trkpt>
      <trkpt lat="22.825927" lon="111.378593">
        <ele>191.851316</ele>
        <time>2026-08-18T09:02:44.000Z</time>
      </trkpt>
      <trkpt lat="22.825896" lon="111.378657">
        <ele>191.742076</ele>
        <time>2026-08-18T09:02:45.000Z</time>
      </trkpt>
      <trkpt lat="22.825864" lon="111.378719">
        <ele>191.634711</ele>
        <time>2026-08-18T09:02:46.000Z</time>
      </trkpt>
      <trkpt lat="22.825832" lon="111.378785">
        <ele>191.522034</ele>
        <time>2026-08-18T09:02:47.000Z</time>
      </trkpt>
      <trkpt lat="22.825800" lon="111.378852">
        <ele>191.408017</ele>
        <time>2026-08-18T09:02:48.000Z</time>
      </trkpt>
      <trkpt lat="22.825769" lon="111.378919">
        <ele>191.294745</ele>
        <time>2026-08-18T09:02:49.000Z</time>
      </trkpt>
      <trkpt lat="22.825741" lon="111.378990">
        <ele>191.178062</ele>
        <time>2026-08-18T09:02:50.000Z</time>
      </trkpt>
      <trkpt lat="22.825710" lon="111.379060">
        <ele>191.060722</ele>
        <time>2026-08-18T09:02:51.000Z</time>
      </trkpt>
      <trkpt lat="22.825678" lon="111.379129">
        <ele>190.944014</ele>
        <time>2026-08-18T09:02:52.000Z</time>
      </trkpt>
      <trkpt lat="22.825645" lon="111.379199">
        <ele>190.824323</ele>
        <time>2026-08-18T09:02:53.000Z</time>
      </trkpt>
      <trkpt lat="22.825611" lon="111.379271">
        <ele>190.700742</ele>
        <time>2026-08-18T09:02:54.000Z</time>
      </trkpt>
      <trkpt lat="22.825578" lon="111.379342">
        <ele>190.579274</ele>
        <time>2026-08-18T09:02:55.000Z</time>
      </trkpt>
      <trkpt lat="22.825545" lon="111.379412">
        <ele>190.459168</ele>
        <time>2026-08-18T09:02:56.000Z</time>
      </trkpt>
      <trkpt lat="22.825513" lon="111.379481">
        <ele>190.341175</ele>
        <time>2026-08-18T09:02:57.000Z</time>
      </trkpt>
      <trkpt lat="22.825481" lon="111.379552">
        <ele>190.220444</ele>
        <time>2026-08-18T09:02:58.000Z</time>
      </trkpt>
      <trkpt lat="22.825451" lon="111.379626">
        <ele>190.096951</ele>
        <time>2026-08-18T09:02:59.000Z</time>
      </trkpt>
      <trkpt lat="22.825418" lon="111.379700">
        <ele>189.971375</ele>
        <time>2026-08-18T09:03:00.000Z</time>
      </trkpt>
      <trkpt lat="22.825384" lon="111.379775">
        <ele>189.843698</ele>
        <time>2026-08-18T09:03:01.000Z</time>
      </trkpt>
      <trkpt lat="22.825351" lon="111.379849">
        <ele>189.718121</ele>
        <time>2026-08-18T09:03:02.000Z</time>
      </trkpt>
      <trkpt lat="22.825320" lon="111.379921">
        <ele>189.596727</ele>
        <time>2026-08-18T09:03:03.000Z</time>
      </trkpt>
      <trkpt lat="22.825289" lon="111.379993">
        <ele>189.475333</ele>
        <time>2026-08-18T09:03:04.000Z</time>
      </trkpt>
      <trkpt lat="22.825259" lon="111.380069">
        <ele>189.349037</ele>
        <time>2026-08-18T09:03:05.000Z</time>
      </trkpt>
      <trkpt lat="22.825229" lon="111.380145">
        <ele>189.222742</ele>
        <time>2026-08-18T09:03:06.000Z</time>
      </trkpt>
      <trkpt lat="22.825200" lon="111.380218">
        <ele>189.101312</ele>
        <time>2026-08-18T09:03:07.000Z</time>
      </trkpt>
      <trkpt lat="22.825169" lon="111.380292">
        <ele>188.977143</ele>
        <time>2026-08-18T09:03:08.000Z</time>
      </trkpt>
      <trkpt lat="22.825138" lon="111.380367">
        <ele>188.851581</ele>
        <time>2026-08-18T09:03:09.000Z</time>
      </trkpt>
      <trkpt lat="22.825106" lon="111.380443">
        <ele>188.723945</ele>
        <time>2026-08-18T09:03:10.000Z</time>
      </trkpt>
      <trkpt lat="22.825074" lon="111.380518">
        <ele>188.597696</ele>
        <time>2026-08-18T09:03:11.000Z</time>
      </trkpt>
      <trkpt lat="22.825042" lon="111.380594">
        <ele>188.470059</ele>
        <time>2026-08-18T09:03:12.000Z</time>
      </trkpt>
      <trkpt lat="22.825014" lon="111.380669">
        <ele>188.346449</ele>
        <time>2026-08-18T09:03:13.000Z</time>
      </trkpt>
      <trkpt lat="22.824983" lon="111.380744">
        <ele>188.220887</ele>
        <time>2026-08-18T09:03:14.000Z</time>
      </trkpt>
      <trkpt lat="22.824949" lon="111.380818">
        <ele>188.094579</ele>
        <time>2026-08-18T09:03:15.000Z</time>
      </trkpt>
      <trkpt lat="22.824917" lon="111.380891">
        <ele>187.971096</ele>
        <time>2026-08-18T09:03:16.000Z</time>
      </trkpt>
      <trkpt lat="22.824885" lon="111.380965">
        <ele>187.850116</ele>
        <time>2026-08-18T09:03:17.000Z</time>
      </trkpt>
      <trkpt lat="22.824855" lon="111.381039">
        <ele>187.732685</ele>
        <time>2026-08-18T09:03:18.000Z</time>
      </trkpt>
      <trkpt lat="22.824825" lon="111.381115">
        <ele>187.612590</ele>
        <time>2026-08-18T09:03:19.000Z</time>
      </trkpt>
      <trkpt lat="22.824795" lon="111.381191">
        <ele>187.492495</ele>
        <time>2026-08-18T09:03:20.000Z</time>
      </trkpt>
      <trkpt lat="22.824767" lon="111.381268">
        <ele>187.372256</ele>
        <time>2026-08-18T09:03:21.000Z</time>
      </trkpt>
      <trkpt lat="22.824738" lon="111.381345">
        <ele>187.251429</ele>
        <time>2026-08-18T09:03:22.000Z</time>
      </trkpt>
      <trkpt lat="22.824709" lon="111.381421">
        <ele>187.131945</ele>
        <time>2026-08-18T09:03:23.000Z</time>
      </trkpt>
      <trkpt lat="22.824681" lon="111.381497">
        <ele>187.013056</ele>
        <time>2026-08-18T09:03:24.000Z</time>
      </trkpt>
      <trkpt lat="22.824652" lon="111.381575">
        <ele>186.890883</ele>
        <time>2026-08-18T09:03:25.000Z</time>
      </trkpt>
      <trkpt lat="22.824625" lon="111.381651">
        <ele>186.772569</ele>
        <time>2026-08-18T09:03:26.000Z</time>
      </trkpt>
      <trkpt lat="22.824596" lon="111.381728">
        <ele>186.651742</ele>
        <time>2026-08-18T09:03:27.000Z</time>
      </trkpt>
      <trkpt lat="22.824569" lon="111.381807">
        <ele>186.529352</ele>
        <time>2026-08-18T09:03:28.000Z</time>
      </trkpt>
      <trkpt lat="22.824541" lon="111.381886">
        <ele>186.406405</ele>
        <time>2026-08-18T09:03:29.000Z</time>
      </trkpt>
      <trkpt lat="22.824511" lon="111.381966">
        <ele>186.280948</ele>
        <time>2026-08-18T09:03:30.000Z</time>
      </trkpt>
      <trkpt lat="22.824483" lon="111.382042">
        <ele>186.162058</ele>
        <time>2026-08-18T09:03:31.000Z</time>
      </trkpt>
      <trkpt lat="22.824455" lon="111.382119">
        <ele>186.041818</ele>
        <time>2026-08-18T09:03:32.000Z</time>
      </trkpt>
      <trkpt lat="22.824430" lon="111.382196">
        <ele>185.923232</ele>
        <time>2026-08-18T09:03:33.000Z</time>
      </trkpt>
      <trkpt lat="22.824405" lon="111.382272">
        <ele>185.806015</ele>
        <time>2026-08-18T09:03:34.000Z</time>
      </trkpt>
      <trkpt lat="22.824379" lon="111.382346">
        <ele>185.690978</ele>
        <time>2026-08-18T09:03:35.000Z</time>
      </trkpt>
      <trkpt lat="22.824353" lon="111.382422">
        <ele>185.573221</ele>
        <time>2026-08-18T09:03:36.000Z</time>
      </trkpt>
      <trkpt lat="22.824325" lon="111.382498">
        <ele>185.454331</ele>
        <time>2026-08-18T09:03:37.000Z</time>
      </trkpt>
      <trkpt lat="22.824300" lon="111.382572">
        <ele>185.339846</ele>
        <time>2026-08-18T09:03:38.000Z</time>
      </trkpt>
      <trkpt lat="22.824278" lon="111.382646">
        <ele>185.226901</ele>
        <time>2026-08-18T09:03:39.000Z</time>
      </trkpt>
      <trkpt lat="22.824256" lon="111.382723">
        <ele>185.109800</ele>
        <time>2026-08-18T09:03:40.000Z</time>
      </trkpt>
      <trkpt lat="22.824234" lon="111.382797">
        <ele>184.963748</ele>
        <time>2026-08-18T09:03:41.000Z</time>
      </trkpt>
      <trkpt lat="22.824211" lon="111.382873">
        <ele>184.806552</ele>
        <time>2026-08-18T09:03:42.000Z</time>
      </trkpt>
      <trkpt lat="22.824187" lon="111.382946">
        <ele>184.654242</ele>
        <time>2026-08-18T09:03:43.000Z</time>
      </trkpt>
      <trkpt lat="22.824165" lon="111.383018">
        <ele>184.505178</ele>
        <time>2026-08-18T09:03:44.000Z</time>
      </trkpt>
      <trkpt lat="22.824140" lon="111.383091">
        <ele>184.352139</ele>
        <time>2026-08-18T09:03:45.000Z</time>
      </trkpt>
      <trkpt lat="22.824124" lon="111.383158">
        <ele>184.216125</ele>
        <time>2026-08-18T09:03:46.000Z</time>
      </trkpt>
      <trkpt lat="22.824102" lon="111.383230">
        <ele>184.067061</ele>
        <time>2026-08-18T09:03:47.000Z</time>
      </trkpt>
      <trkpt lat="22.824081" lon="111.383302">
        <ele>183.918655</ele>
        <time>2026-08-18T09:03:48.000Z</time>
      </trkpt>
      <trkpt lat="22.824061" lon="111.383379">
        <ele>183.761443</ele>
        <time>2026-08-18T09:03:49.000Z</time>
      </trkpt>
      <trkpt lat="22.824041" lon="111.383454">
        <ele>183.608012</ele>
        <time>2026-08-18T09:03:50.000Z</time>
      </trkpt>
      <trkpt lat="22.824023" lon="111.383529">
        <ele>183.455710</ele>
        <time>2026-08-18T09:03:51.000Z</time>
      </trkpt>
      <trkpt lat="22.824001" lon="111.383606">
        <ele>183.297289</ele>
        <time>2026-08-18T09:03:52.000Z</time>
      </trkpt>
      <trkpt lat="22.823984" lon="111.383680">
        <ele>183.147418</ele>
        <time>2026-08-18T09:03:53.000Z</time>
      </trkpt>
      <trkpt lat="22.823967" lon="111.383752">
        <ele>183.001357</ele>
        <time>2026-08-18T09:03:54.000Z</time>
      </trkpt>
      <trkpt lat="22.823947" lon="111.383823">
        <ele>182.855460</ele>
        <time>2026-08-18T09:03:55.000Z</time>
      </trkpt>
      <trkpt lat="22.823931" lon="111.383896">
        <ele>182.708003</ele>
        <time>2026-08-18T09:03:56.000Z</time>
      </trkpt>
      <trkpt lat="22.823914" lon="111.383968">
        <ele>182.561942</ele>
        <time>2026-08-18T09:03:57.000Z</time>
      </trkpt>
      <trkpt lat="22.823896" lon="111.384039">
        <ele>182.417234</ele>
        <time>2026-08-18T09:03:58.000Z</time>
      </trkpt>
      <trkpt lat="22.823877" lon="111.384112">
        <ele>182.268167</ele>
        <time>2026-08-18T09:03:59.000Z</time>
      </trkpt>
      <trkpt lat="22.823862" lon="111.384184">
        <ele>182.123106</ele>
        <time>2026-08-18T09:04:00.000Z</time>
      </trkpt>
      <trkpt lat="22.823848" lon="111.384260">
        <ele>181.970799</ele>
        <time>2026-08-18T09:04:01.000Z</time>
      </trkpt>
      <trkpt lat="22.823836" lon="111.384335">
        <ele>181.821208</ele>
        <time>2026-08-18T09:04:02.000Z</time>
      </trkpt>
      <trkpt lat="22.823825" lon="111.384411">
        <ele>181.670025</ele>
        <time>2026-08-18T09:04:03.000Z</time>
      </trkpt>
      <trkpt lat="22.823817" lon="111.384488">
        <ele>181.517749</ele>
        <time>2026-08-18T09:04:04.000Z</time>
      </trkpt>
      <trkpt lat="22.823810" lon="111.384570">
        <ele>181.355916</ele>
        <time>2026-08-18T09:04:05.000Z</time>
      </trkpt>
      <trkpt lat="22.823803" lon="111.384651">
        <ele>181.106403</ele>
        <time>2026-08-18T09:04:06.000Z</time>
      </trkpt>
      <trkpt lat="22.823801" lon="111.384733">
        <ele>180.703340</ele>
        <time>2026-08-18T09:04:07.000Z</time>
      </trkpt>
      <trkpt lat="22.823797" lon="111.384819">
        <ele>180.280225</ele>
        <time>2026-08-18T09:04:08.000Z</time>
      </trkpt>
      <trkpt lat="22.823793" lon="111.384903">
        <ele>179.866925</ele>
        <time>2026-08-18T09:04:09.000Z</time>
      </trkpt>
      <trkpt lat="22.823792" lon="111.384990">
        <ele>179.439401</ele>
        <time>2026-08-18T09:04:10.000Z</time>
      </trkpt>
      <trkpt lat="22.823793" lon="111.385081">
        <ele>178.992224</ele>
        <time>2026-08-18T09:04:11.000Z</time>
      </trkpt>
      <trkpt lat="22.823797" lon="111.385173">
        <ele>178.539663</ele>
        <time>2026-08-18T09:04:12.000Z</time>
      </trkpt>
      <trkpt lat="22.823801" lon="111.385267">
        <ele>178.077284</ele>
        <time>2026-08-18T09:04:13.000Z</time>
      </trkpt>
      <trkpt lat="22.823806" lon="111.385365">
        <ele>177.595006</ele>
        <time>2026-08-18T09:04:14.000Z</time>
      </trkpt>
      <trkpt lat="22.823811" lon="111.385464">
        <ele>177.107822</ele>
        <time>2026-08-18T09:04:15.000Z</time>
      </trkpt>
      <trkpt lat="22.823816" lon="111.385565">
        <ele>176.610824</ele>
        <time>2026-08-18T09:04:16.000Z</time>
      </trkpt>
      <trkpt lat="22.823819" lon="111.385666">
        <ele>176.114285</ele>
        <time>2026-08-18T09:04:17.000Z</time>
      </trkpt>
      <trkpt lat="22.823823" lon="111.385769">
        <ele>175.607726</ele>
        <time>2026-08-18T09:04:18.000Z</time>
      </trkpt>
      <trkpt lat="22.823827" lon="111.385873">
        <ele>175.096258</ele>
        <time>2026-08-18T09:04:19.000Z</time>
      </trkpt>
      <trkpt lat="22.823830" lon="111.385978">
        <ele>174.580074</ele>
        <time>2026-08-18T09:04:20.000Z</time>
      </trkpt>
      <trkpt lat="22.823833" lon="111.386085">
        <ele>174.054067</ele>
        <time>2026-08-18T09:04:21.000Z</time>
      </trkpt>
      <trkpt lat="22.823830" lon="111.386191">
        <ele>173.532971</ele>
        <time>2026-08-18T09:04:22.000Z</time>
      </trkpt>
      <trkpt lat="22.823820" lon="111.386295">
        <ele>173.019174</ele>
        <time>2026-08-18T09:04:23.000Z</time>
      </trkpt>
      <trkpt lat="22.823806" lon="111.386399">
        <ele>172.502730</ele>
        <time>2026-08-18T09:04:24.000Z</time>
      </trkpt>
      <trkpt lat="22.823785" lon="111.386503">
        <ele>171.979587</ele>
        <time>2026-08-18T09:04:25.000Z</time>
      </trkpt>
      <trkpt lat="22.823752" lon="111.386604">
        <ele>171.474323</ele>
        <time>2026-08-18T09:04:26.000Z</time>
      </trkpt>
      <trkpt lat="22.823711" lon="111.386702">
        <ele>170.998077</ele>
        <time>2026-08-18T09:04:27.000Z</time>
      </trkpt>
      <trkpt lat="22.823664" lon="111.386799">
        <ele>170.513143</ele>
        <time>2026-08-18T09:04:28.000Z</time>
      </trkpt>
      <trkpt lat="22.823613" lon="111.386896">
        <ele>170.018980</ele>
        <time>2026-08-18T09:04:29.000Z</time>
      </trkpt>
      <trkpt lat="22.823555" lon="111.386989">
        <ele>169.522087</ele>
        <time>2026-08-18T09:04:30.000Z</time>
      </trkpt>
      <trkpt lat="22.823494" lon="111.387081">
        <ele>169.020581</ele>
        <time>2026-08-18T09:04:31.000Z</time>
      </trkpt>
      <trkpt lat="22.823425" lon="111.387169">
        <ele>168.509325</ele>
        <time>2026-08-18T09:04:32.000Z</time>
      </trkpt>
      <trkpt lat="22.823353" lon="111.387254">
        <ele>167.998474</ele>
        <time>2026-08-18T09:04:33.000Z</time>
      </trkpt>
      <trkpt lat="22.823278" lon="111.387335">
        <ele>167.490407</ele>
        <time>2026-08-18T09:04:34.000Z</time>
      </trkpt>
      <trkpt lat="22.823199" lon="111.387414">
        <ele>166.974593</ele>
        <time>2026-08-18T09:04:35.000Z</time>
      </trkpt>
      <trkpt lat="22.823117" lon="111.387489">
        <ele>166.459680</ele>
        <time>2026-08-18T09:04:36.000Z</time>
      </trkpt>
      <trkpt lat="22.823035" lon="111.387564">
        <ele>165.944766</ele>
        <time>2026-08-18T09:04:37.000Z</time>
      </trkpt>
      <trkpt lat="22.822952" lon="111.387638">
        <ele>165.428994</ele>
        <time>2026-08-18T09:04:38.000Z</time>
      </trkpt>
      <trkpt lat="22.822865" lon="111.387709">
        <ele>164.906330</ele>
        <time>2026-08-18T09:04:39.000Z</time>
      </trkpt>
      <trkpt lat="22.822779" lon="111.387778">
        <ele>164.392807</ele>
        <time>2026-08-18T09:04:40.000Z</time>
      </trkpt>
      <trkpt lat="22.822692" lon="111.387844">
        <ele>163.883136</ele>
        <time>2026-08-18T09:04:41.000Z</time>
      </trkpt>
      <trkpt lat="22.822604" lon="111.387910">
        <ele>163.369524</ele>
        <time>2026-08-18T09:04:42.000Z</time>
      </trkpt>
      <trkpt lat="22.822516" lon="111.387974">
        <ele>162.919671</ele>
        <time>2026-08-18T09:04:43.000Z</time>
      </trkpt>
      <trkpt lat="22.822424" lon="111.388038">
        <ele>162.575541</ele>
        <time>2026-08-18T09:04:44.000Z</time>
      </trkpt>
      <trkpt lat="22.822338" lon="111.388107">
        <ele>162.238736</ele>
        <time>2026-08-18T09:04:45.000Z</time>
      </trkpt>
      <trkpt lat="22.822253" lon="111.388173">
        <ele>161.909599</ele>
        <time>2026-08-18T09:04:46.000Z</time>
      </trkpt>
      <trkpt lat="22.822168" lon="111.388237">
        <ele>161.583807</ele>
        <time>2026-08-18T09:04:47.000Z</time>
      </trkpt>
      <trkpt lat="22.822084" lon="111.388301">
        <ele>161.260596</ele>
        <time>2026-08-18T09:04:48.000Z</time>
      </trkpt>
      <trkpt lat="22.822001" lon="111.388363">
        <ele>160.943285</ele>
        <time>2026-08-18T09:04:49.000Z</time>
      </trkpt>
      <trkpt lat="22.821919" lon="111.388428">
        <ele>160.623503</ele>
        <time>2026-08-18T09:04:50.000Z</time>
      </trkpt>
      <trkpt lat="22.821840" lon="111.388491">
        <ele>160.314773</ele>
        <time>2026-08-18T09:04:51.000Z</time>
      </trkpt>
      <trkpt lat="22.821761" lon="111.388552">
        <ele>160.009444</ele>
        <time>2026-08-18T09:04:52.000Z</time>
      </trkpt>
      <trkpt lat="22.821684" lon="111.388614">
        <ele>159.707504</ele>
        <time>2026-08-18T09:04:53.000Z</time>
      </trkpt>
      <trkpt lat="22.821603" lon="111.388673">
        <ele>159.400296</ele>
        <time>2026-08-18T09:04:54.000Z</time>
      </trkpt>
      <trkpt lat="22.821527" lon="111.388734">
        <ele>159.102613</ele>
        <time>2026-08-18T09:04:55.000Z</time>
      </trkpt>
      <trkpt lat="22.821453" lon="111.388798">
        <ele>158.804621</ele>
        <time>2026-08-18T09:04:56.000Z</time>
      </trkpt>
      <trkpt lat="22.821386" lon="111.388863">
        <ele>158.521602</ele>
        <time>2026-08-18T09:04:57.000Z</time>
      </trkpt>
      <trkpt lat="22.821318" lon="111.388932">
        <ele>158.228424</ele>
        <time>2026-08-18T09:04:58.000Z</time>
      </trkpt>
      <trkpt lat="22.821250" lon="111.388998">
        <ele>157.941123</ele>
        <time>2026-08-18T09:04:59.000Z</time>
      </trkpt>
      <trkpt lat="22.821184" lon="111.389064">
        <ele>157.658485</ele>
        <time>2026-08-18T09:05:00.000Z</time>
      </trkpt>
      <trkpt lat="22.821119" lon="111.389131">
        <ele>157.376162</ele>
        <time>2026-08-18T09:05:01.000Z</time>
      </trkpt>
      <trkpt lat="22.821056" lon="111.389200">
        <ele>157.187520</ele>
        <time>2026-08-18T09:05:02.000Z</time>
      </trkpt>
      <trkpt lat="22.820994" lon="111.389267">
        <ele>157.005823</ele>
        <time>2026-08-18T09:05:03.000Z</time>
      </trkpt>
      <trkpt lat="22.820937" lon="111.389338">
        <ele>156.825626</ele>
        <time>2026-08-18T09:05:04.000Z</time>
      </trkpt>
      <trkpt lat="22.820888" lon="111.389415">
        <ele>156.646553</ele>
        <time>2026-08-18T09:05:05.000Z</time>
      </trkpt>
      <trkpt lat="22.820845" lon="111.389496">
        <ele>156.467661</ele>
        <time>2026-08-18T09:05:06.000Z</time>
      </trkpt>
      <trkpt lat="22.820807" lon="111.389583">
        <ele>156.283411</ele>
        <time>2026-08-18T09:05:07.000Z</time>
      </trkpt>
      <trkpt lat="22.820773" lon="111.389667">
        <ele>156.107832</ele>
        <time>2026-08-18T09:05:08.000Z</time>
      </trkpt>
      <trkpt lat="22.820741" lon="111.389755">
        <ele>155.926784</ele>
        <time>2026-08-18T09:05:09.000Z</time>
      </trkpt>
      <trkpt lat="22.820710" lon="111.389842">
        <ele>155.748273</ele>
        <time>2026-08-18T09:05:10.000Z</time>
      </trkpt>
      <trkpt lat="22.820679" lon="111.389930">
        <ele>155.567977</ele>
        <time>2026-08-18T09:05:11.000Z</time>
      </trkpt>
      <trkpt lat="22.820650" lon="111.390018">
        <ele>155.389120</ele>
        <time>2026-08-18T09:05:12.000Z</time>
      </trkpt>
      <trkpt lat="22.820620" lon="111.390107">
        <ele>155.207758</ele>
        <time>2026-08-18T09:05:13.000Z</time>
      </trkpt>
      <trkpt lat="22.820591" lon="111.390196">
        <ele>155.027098</ele>
        <time>2026-08-18T09:05:14.000Z</time>
      </trkpt>
      <trkpt lat="22.820563" lon="111.390281">
        <ele>154.854347</ele>
        <time>2026-08-18T09:05:15.000Z</time>
      </trkpt>
      <trkpt lat="22.820537" lon="111.390368">
        <ele>154.679311</ele>
        <time>2026-08-18T09:05:16.000Z</time>
      </trkpt>
      <trkpt lat="22.820512" lon="111.390456">
        <ele>154.503077</ele>
        <time>2026-08-18T09:05:17.000Z</time>
      </trkpt>
      <trkpt lat="22.820489" lon="111.390543">
        <ele>154.329862</ele>
        <time>2026-08-18T09:05:18.000Z</time>
      </trkpt>
      <trkpt lat="22.820465" lon="111.390629">
        <ele>154.157895</ele>
        <time>2026-08-18T09:05:19.000Z</time>
      </trkpt>
      <trkpt lat="22.820440" lon="111.390713">
        <ele>153.988961</ele>
        <time>2026-08-18T09:05:20.000Z</time>
      </trkpt>
      <trkpt lat="22.820416" lon="111.390778">
        <ele>153.854953</ele>
        <time>2026-08-18T09:05:21.000Z</time>
      </trkpt>
      <trkpt lat="22.820397" lon="111.390836">
        <ele>153.737149</ele>
        <time>2026-08-18T09:05:22.000Z</time>
      </trkpt>
      <trkpt lat="22.820381" lon="111.390883">
        <ele>153.641261</ele>
        <time>2026-08-18T09:05:23.000Z</time>
      </trkpt>
      <trkpt lat="22.820365" lon="111.390917">
        <ele>153.703083</ele>
        <time>2026-08-18T09:05:24.000Z</time>
      </trkpt>
      <trkpt lat="22.820357" lon="111.390937">
        <ele>153.747639</ele>
        <time>2026-08-18T09:05:25.000Z</time>
      </trkpt>
      <trkpt lat="22.820348" lon="111.390953">
        <ele>153.785945</ele>
        <time>2026-08-18T09:05:26.000Z</time>
      </trkpt>
      <trkpt lat="22.820349" lon="111.390956">
        <ele>153.792465</ele>
        <time>2026-08-18T09:05:27.000Z</time>
      </trkpt>
      <trkpt lat="22.820348" lon="111.390955">
        <ele>153.795480</ele>
        <time>2026-08-18T09:05:28.000Z</time>
      </trkpt>
      <trkpt lat="22.820400" lon="111.391013">
        <ele>153.960836</ele>
        <time>2026-08-18T09:06:19.000Z</time>
      </trkpt>
      <trkpt lat="22.820396" lon="111.391024">
        <ele>153.985002</ele>
        <time>2026-08-18T09:06:20.000Z</time>
      </trkpt>
      <trkpt lat="22.820385" lon="111.391039">
        <ele>154.024175</ele>
        <time>2026-08-18T09:06:21.000Z</time>
      </trkpt>
      <trkpt lat="22.820379" lon="111.391056">
        <ele>154.061377</ele>
        <time>2026-08-18T09:06:22.000Z</time>
      </trkpt>
      <trkpt lat="22.820379" lon="111.391074">
        <ele>154.098163</ele>
        <time>2026-08-18T09:06:23.000Z</time>
      </trkpt>
      <trkpt lat="22.820379" lon="111.391089">
        <ele>154.128818</ele>
        <time>2026-08-18T09:06:24.000Z</time>
      </trkpt>
      <trkpt lat="22.820379" lon="111.391101">
        <ele>154.153341</ele>
        <time>2026-08-18T09:06:25.000Z</time>
      </trkpt>
      <trkpt lat="22.820376" lon="111.391118">
        <ele>154.188715</ele>
        <time>2026-08-18T09:06:26.000Z</time>
      </trkpt>
      <trkpt lat="22.820373" lon="111.391138">
        <ele>154.230125</ele>
        <time>2026-08-18T09:06:27.000Z</time>
      </trkpt>
      <trkpt lat="22.820367" lon="111.391163">
        <ele>154.282920</ele>
        <time>2026-08-18T09:06:28.000Z</time>
      </trkpt>
      <trkpt lat="22.820359" lon="111.391190">
        <ele>154.340879</ele>
        <time>2026-08-18T09:06:29.000Z</time>
      </trkpt>
      <trkpt lat="22.820350" lon="111.391220">
        <ele>154.405354</ele>
        <time>2026-08-18T09:06:30.000Z</time>
      </trkpt>
      <trkpt lat="22.820340" lon="111.391253">
        <ele>154.476346</ele>
        <time>2026-08-18T09:06:31.000Z</time>
      </trkpt>
      <trkpt lat="22.820327" lon="111.391285">
        <ele>154.547813</ele>
        <time>2026-08-18T09:06:32.000Z</time>
      </trkpt>
      <trkpt lat="22.820313" lon="111.391315">
        <ele>154.616533</ele>
        <time>2026-08-18T09:06:33.000Z</time>
      </trkpt>
      <trkpt lat="22.820301" lon="111.391346">
        <ele>154.685246</ele>
        <time>2026-08-18T09:06:34.000Z</time>
      </trkpt>
      <trkpt lat="22.820287" lon="111.391377">
        <ele>154.755795</ele>
        <time>2026-08-18T09:06:35.000Z</time>
      </trkpt>
      <trkpt lat="22.820273" lon="111.391408">
        <ele>154.826344</ele>
        <time>2026-08-18T09:06:36.000Z</time>
      </trkpt>
      <trkpt lat="22.820262" lon="111.391440">
        <ele>154.896140</ele>
        <time>2026-08-18T09:06:37.000Z</time>
      </trkpt>
      <trkpt lat="22.820249" lon="111.391469">
        <ele>154.962044</ele>
        <time>2026-08-18T09:06:38.000Z</time>
      </trkpt>
      <trkpt lat="22.820238" lon="111.391502">
        <ele>155.033759</ele>
        <time>2026-08-18T09:06:39.000Z</time>
      </trkpt>
      <trkpt lat="22.820229" lon="111.391536">
        <ele>155.106051</ele>
        <time>2026-08-18T09:06:40.000Z</time>
      </trkpt>
      <trkpt lat="22.820222" lon="111.391570">
        <ele>155.177248</ele>
        <time>2026-08-18T09:06:41.000Z</time>
      </trkpt>
      <trkpt lat="22.820214" lon="111.391607">
        <ele>155.254915</ele>
        <time>2026-08-18T09:06:42.000Z</time>
      </trkpt>
      <trkpt lat="22.820205" lon="111.391643">
        <ele>155.331145</ele>
        <time>2026-08-18T09:06:43.000Z</time>
      </trkpt>
      <trkpt lat="22.820196" lon="111.391680">
        <ele>155.409349</ele>
        <time>2026-08-18T09:06:44.000Z</time>
      </trkpt>
      <trkpt lat="22.820187" lon="111.391717">
        <ele>155.487552</ele>
        <time>2026-08-18T09:06:45.000Z</time>
      </trkpt>
      <trkpt lat="22.820177" lon="111.391752">
        <ele>155.562438</ele>
        <time>2026-08-18T09:06:46.000Z</time>
      </trkpt>
      <trkpt lat="22.820167" lon="111.391786">
        <ele>155.635374</ele>
        <time>2026-08-18T09:06:47.000Z</time>
      </trkpt>
      <trkpt lat="22.820157" lon="111.391822">
        <ele>155.712213</ele>
        <time>2026-08-18T09:06:48.000Z</time>
      </trkpt>
      <trkpt lat="22.820149" lon="111.391858">
        <ele>155.787893</ele>
        <time>2026-08-18T09:06:49.000Z</time>
      </trkpt>
      <trkpt lat="22.820140" lon="111.391892">
        <ele>155.860186</ele>
        <time>2026-08-18T09:06:50.000Z</time>
      </trkpt>
      <trkpt lat="22.820131" lon="111.391926">
        <ele>155.932478</ele>
        <time>2026-08-18T09:06:51.000Z</time>
      </trkpt>
      <trkpt lat="22.820121" lon="111.391960">
        <ele>156.005414</ele>
        <time>2026-08-18T09:06:52.000Z</time>
      </trkpt>
      <trkpt lat="22.820111" lon="111.391993">
        <ele>156.076406</ele>
        <time>2026-08-18T09:06:53.000Z</time>
      </trkpt>
      <trkpt lat="22.820099" lon="111.392026">
        <ele>156.148905</ele>
        <time>2026-08-18T09:06:54.000Z</time>
      </trkpt>
      <trkpt lat="22.820086" lon="111.392057">
        <ele>156.218507</ele>
        <time>2026-08-18T09:06:55.000Z</time>
      </trkpt>
      <trkpt lat="22.820073" lon="111.392089">
        <ele>156.289974</ele>
        <time>2026-08-18T09:06:56.000Z</time>
      </trkpt>
      <trkpt lat="22.820059" lon="111.392121">
        <ele>156.362364</ele>
        <time>2026-08-18T09:06:57.000Z</time>
      </trkpt>
      <trkpt lat="22.820045" lon="111.392153">
        <ele>156.434754</ele>
        <time>2026-08-18T09:06:58.000Z</time>
      </trkpt>
      <trkpt lat="22.820034" lon="111.392186">
        <ele>156.506469</ele>
        <time>2026-08-18T09:06:59.000Z</time>
      </trkpt>
      <trkpt lat="22.820023" lon="111.392220">
        <ele>156.580109</ele>
        <time>2026-08-18T09:07:00.000Z</time>
      </trkpt>
      <trkpt lat="22.820012" lon="111.392251">
        <ele>156.647995</ele>
        <time>2026-08-18T09:07:01.000Z</time>
      </trkpt>
      <trkpt lat="22.820001" lon="111.392283">
        <ele>156.717792</ele>
        <time>2026-08-18T09:07:02.000Z</time>
      </trkpt>
      <trkpt lat="22.819986" lon="111.392311">
        <ele>156.783977</ele>
        <time>2026-08-18T09:07:03.000Z</time>
      </trkpt>
      <trkpt lat="22.819974" lon="111.392342">
        <ele>156.852690</ele>
        <time>2026-08-18T09:07:04.000Z</time>
      </trkpt>
      <trkpt lat="22.819967" lon="111.392375">
        <ele>156.921894</ele>
        <time>2026-08-18T09:07:05.000Z</time>
      </trkpt>
      <trkpt lat="22.819962" lon="111.392405">
        <ele>156.984197</ele>
        <time>2026-08-18T09:07:06.000Z</time>
      </trkpt>
      <trkpt lat="22.819954" lon="111.392438">
        <ele>157.053932</ele>
        <time>2026-08-18T09:07:07.000Z</time>
      </trkpt>
      <trkpt lat="22.819944" lon="111.392468">
        <ele>157.119127</ele>
        <time>2026-08-18T09:07:08.000Z</time>
      </trkpt>
      <trkpt lat="22.819937" lon="111.392497">
        <ele>157.180392</ele>
        <time>2026-08-18T09:07:09.000Z</time>
      </trkpt>
      <trkpt lat="22.819928" lon="111.392525">
        <ele>157.240994</ele>
        <time>2026-08-18T09:07:10.000Z</time>
      </trkpt>
      <trkpt lat="22.819919" lon="111.392552">
        <ele>157.299670</ele>
        <time>2026-08-18T09:07:11.000Z</time>
      </trkpt>
      <trkpt lat="22.819910" lon="111.392581">
        <ele>157.362205</ele>
        <time>2026-08-18T09:07:12.000Z</time>
      </trkpt>
      <trkpt lat="22.819902" lon="111.392609">
        <ele>157.422113</ele>
        <time>2026-08-18T09:07:13.000Z</time>
      </trkpt>
      <trkpt lat="22.819894" lon="111.392638">
        <ele>157.483977</ele>
        <time>2026-08-18T09:07:14.000Z</time>
      </trkpt>
      <trkpt lat="22.819887" lon="111.392669">
        <ele>157.549203</ele>
        <time>2026-08-18T09:07:15.000Z</time>
      </trkpt>
      <trkpt lat="22.819879" lon="111.392700">
        <ele>157.614993</ele>
        <time>2026-08-18T09:07:16.000Z</time>
      </trkpt>
      <trkpt lat="22.819871" lon="111.392729">
        <ele>157.698486</ele>
        <time>2026-08-18T09:07:17.000Z</time>
      </trkpt>
      <trkpt lat="22.819863" lon="111.392759">
        <ele>157.787194</ele>
        <time>2026-08-18T09:07:18.000Z</time>
      </trkpt>
      <trkpt lat="22.819856" lon="111.392788">
        <ele>157.872345</ele>
        <time>2026-08-18T09:07:19.000Z</time>
      </trkpt>
      <trkpt lat="22.819847" lon="111.392818">
        <ele>157.961959</ele>
        <time>2026-08-18T09:07:20.000Z</time>
      </trkpt>
      <trkpt lat="22.819837" lon="111.392847">
        <ele>158.049907</ele>
        <time>2026-08-18T09:07:21.000Z</time>
      </trkpt>
      <trkpt lat="22.819828" lon="111.392876">
        <ele>158.136824</ele>
        <time>2026-08-18T09:07:22.000Z</time>
      </trkpt>
      <trkpt lat="22.819819" lon="111.392905">
        <ele>158.223741</ele>
        <time>2026-08-18T09:07:23.000Z</time>
      </trkpt>
      <trkpt lat="22.819811" lon="111.392934">
        <ele>158.309724</ele>
        <time>2026-08-18T09:07:24.000Z</time>
      </trkpt>
      <trkpt lat="22.819803" lon="111.392964">
        <ele>158.398432</ele>
        <time>2026-08-18T09:07:25.000Z</time>
      </trkpt>
      <trkpt lat="22.819794" lon="111.392996">
        <ele>158.493464</ele>
        <time>2026-08-18T09:07:26.000Z</time>
      </trkpt>
      <trkpt lat="22.819784" lon="111.393027">
        <ele>158.586755</ele>
        <time>2026-08-18T09:07:27.000Z</time>
      </trkpt>
      <trkpt lat="22.819776" lon="111.393059">
        <ele>158.680933</ele>
        <time>2026-08-18T09:07:28.000Z</time>
      </trkpt>
      <trkpt lat="22.819764" lon="111.393089">
        <ele>158.773825</ele>
        <time>2026-08-18T09:07:29.000Z</time>
      </trkpt>
      <trkpt lat="22.819752" lon="111.393123">
        <ele>158.877238</ele>
        <time>2026-08-18T09:07:30.000Z</time>
      </trkpt>
      <trkpt lat="22.819741" lon="111.393155">
        <ele>158.974248</ele>
        <time>2026-08-18T09:07:31.000Z</time>
      </trkpt>
      <trkpt lat="22.819735" lon="111.393188">
        <ele>159.069789</ele>
        <time>2026-08-18T09:07:32.000Z</time>
      </trkpt>
      <trkpt lat="22.819727" lon="111.393222">
        <ele>159.169461</ele>
        <time>2026-08-18T09:07:33.000Z</time>
      </trkpt>
      <trkpt lat="22.819718" lon="111.393257">
        <ele>159.272674</ele>
        <time>2026-08-18T09:07:34.000Z</time>
      </trkpt>
      <trkpt lat="22.819709" lon="111.393291">
        <ele>159.373153</ele>
        <time>2026-08-18T09:07:35.000Z</time>
      </trkpt>
      <trkpt lat="22.819701" lon="111.393326">
        <ele>159.475580</ele>
        <time>2026-08-18T09:07:36.000Z</time>
      </trkpt>
      <trkpt lat="22.819692" lon="111.393359">
        <ele>159.573332</ele>
        <time>2026-08-18T09:07:37.000Z</time>
      </trkpt>
      <trkpt lat="22.819684" lon="111.393394">
        <ele>159.675759</ele>
        <time>2026-08-18T09:07:38.000Z</time>
      </trkpt>
      <trkpt lat="22.819673" lon="111.393429">
        <ele>159.780795</ele>
        <time>2026-08-18T09:07:39.000Z</time>
      </trkpt>
      <trkpt lat="22.819664" lon="111.393462">
        <ele>159.878547</ele>
        <time>2026-08-18T09:07:40.000Z</time>
      </trkpt>
      <trkpt lat="22.819655" lon="111.393496">
        <ele>159.979026</ele>
        <time>2026-08-18T09:07:41.000Z</time>
      </trkpt>
      <trkpt lat="22.819644" lon="111.393529">
        <ele>160.078702</ele>
        <time>2026-08-18T09:07:42.000Z</time>
      </trkpt>
      <trkpt lat="22.819635" lon="111.393563">
        <ele>160.179181</ele>
        <time>2026-08-18T09:07:43.000Z</time>
      </trkpt>
      <trkpt lat="22.819625" lon="111.393597">
        <ele>160.280554</ele>
        <time>2026-08-18T09:07:44.000Z</time>
      </trkpt>
      <trkpt lat="22.819614" lon="111.393631">
        <ele>160.382906</ele>
        <time>2026-08-18T09:07:45.000Z</time>
      </trkpt>
      <trkpt lat="22.819603" lon="111.393664">
        <ele>160.482582</ele>
        <time>2026-08-18T09:07:46.000Z</time>
      </trkpt>
      <trkpt lat="22.819593" lon="111.393697">
        <ele>160.581253</ele>
        <time>2026-08-18T09:07:47.000Z</time>
      </trkpt>
      <trkpt lat="22.819580" lon="111.393727">
        <ele>160.675414</ele>
        <time>2026-08-18T09:07:48.000Z</time>
      </trkpt>
      <trkpt lat="22.819570" lon="111.393760">
        <ele>160.774085</ele>
        <time>2026-08-18T09:07:49.000Z</time>
      </trkpt>
      <trkpt lat="22.819562" lon="111.393795">
        <ele>160.876512</ele>
        <time>2026-08-18T09:07:50.000Z</time>
      </trkpt>
      <trkpt lat="22.819551" lon="111.393827">
        <ele>160.973522</ele>
        <time>2026-08-18T09:07:51.000Z</time>
      </trkpt>
      <trkpt lat="22.819539" lon="111.393860">
        <ele>161.074287</ele>
        <time>2026-08-18T09:07:52.000Z</time>
      </trkpt>
      <trkpt lat="22.819526" lon="111.393892">
        <ele>161.173619</ele>
        <time>2026-08-18T09:07:53.000Z</time>
      </trkpt>
      <trkpt lat="22.819520" lon="111.393926">
        <ele>161.271949</ele>
        <time>2026-08-18T09:07:54.000Z</time>
      </trkpt>
      <trkpt lat="22.819512" lon="111.393955">
        <ele>161.357932</ele>
        <time>2026-08-18T09:07:55.000Z</time>
      </trkpt>
      <trkpt lat="22.819506" lon="111.393990">
        <ele>161.459053</ele>
        <time>2026-08-18T09:07:56.000Z</time>
      </trkpt>
      <trkpt lat="22.819498" lon="111.394024">
        <ele>161.558725</ele>
        <time>2026-08-18T09:07:57.000Z</time>
      </trkpt>
      <trkpt lat="22.819486" lon="111.394051">
        <ele>161.643868</ele>
        <time>2026-08-18T09:07:58.000Z</time>
      </trkpt>
      <trkpt lat="22.819477" lon="111.394081">
        <ele>161.733481</ele>
        <time>2026-08-18T09:07:59.000Z</time>
      </trkpt>
      <trkpt lat="22.819466" lon="111.394112">
        <ele>161.827835</ele>
        <time>2026-08-18T09:08:00.000Z</time>
      </trkpt>
      <trkpt lat="22.819455" lon="111.394138">
        <ele>161.909095</ele>
        <time>2026-08-18T09:08:01.000Z</time>
      </trkpt>
      <trkpt lat="22.819448" lon="111.394168">
        <ele>161.996997</ele>
        <time>2026-08-18T09:08:02.000Z</time>
      </trkpt>
      <trkpt lat="22.819438" lon="111.394198">
        <ele>162.087612</ele>
        <time>2026-08-18T09:08:03.000Z</time>
      </trkpt>
      <trkpt lat="22.819430" lon="111.394233">
        <ele>162.190039</ele>
        <time>2026-08-18T09:08:04.000Z</time>
      </trkpt>
      <trkpt lat="22.819414" lon="111.394260">
        <ele>162.281214</ele>
        <time>2026-08-18T09:08:05.000Z</time>
      </trkpt>
      <trkpt lat="22.819406" lon="111.394288">
        <ele>162.364480</ele>
        <time>2026-08-18T09:08:06.000Z</time>
      </trkpt>
      <trkpt lat="22.819398" lon="111.394320">
        <ele>162.458658</ele>
        <time>2026-08-18T09:08:07.000Z</time>
      </trkpt>
      <trkpt lat="22.819389" lon="111.394355">
        <ele>162.561871</ele>
        <time>2026-08-18T09:08:08.000Z</time>
      </trkpt>
      <trkpt lat="22.819378" lon="111.394388">
        <ele>162.661547</ele>
        <time>2026-08-18T09:08:09.000Z</time>
      </trkpt>
      <trkpt lat="22.819367" lon="111.394418">
        <ele>162.753256</ele>
        <time>2026-08-18T09:08:10.000Z</time>
      </trkpt>
      <trkpt lat="22.819356" lon="111.394451">
        <ele>162.852932</ele>
        <time>2026-08-18T09:08:11.000Z</time>
      </trkpt>
      <trkpt lat="22.819344" lon="111.394479">
        <ele>162.940642</ele>
        <time>2026-08-18T09:08:12.000Z</time>
      </trkpt>
      <trkpt lat="22.819335" lon="111.394511">
        <ele>163.035674</ele>
        <time>2026-08-18T09:08:13.000Z</time>
      </trkpt>
      <trkpt lat="22.819334" lon="111.394546">
        <ele>163.135138</ele>
        <time>2026-08-18T09:08:14.000Z</time>
      </trkpt>
      <trkpt lat="22.819328" lon="111.394581">
        <ele>163.179628</ele>
        <time>2026-08-18T09:08:15.000Z</time>
      </trkpt>
      <trkpt lat="22.819326" lon="111.394611">
        <ele>163.197943</ele>
        <time>2026-08-18T09:08:16.000Z</time>
      </trkpt>
      <trkpt lat="22.819319" lon="111.394646">
        <ele>163.219752</ele>
        <time>2026-08-18T09:08:17.000Z</time>
      </trkpt>
      <trkpt lat="22.819311" lon="111.394683">
        <ele>163.242893</ele>
        <time>2026-08-18T09:08:18.000Z</time>
      </trkpt>
      <trkpt lat="22.819300" lon="111.394719">
        <ele>163.265988</ele>
        <time>2026-08-18T09:08:19.000Z</time>
      </trkpt>
      <trkpt lat="22.819293" lon="111.394761">
        <ele>163.291977</ele>
        <time>2026-08-18T09:08:20.000Z</time>
      </trkpt>
      <trkpt lat="22.819286" lon="111.394800">
        <ele>163.316171</ele>
        <time>2026-08-18T09:08:21.000Z</time>
      </trkpt>
      <trkpt lat="22.819278" lon="111.394838">
        <ele>163.339906</ele>
        <time>2026-08-18T09:08:22.000Z</time>
      </trkpt>
      <trkpt lat="22.819272" lon="111.394876">
        <ele>163.363382</ele>
        <time>2026-08-18T09:08:23.000Z</time>
      </trkpt>
      <trkpt lat="22.819265" lon="111.394913">
        <ele>163.386382</ele>
        <time>2026-08-18T09:08:24.000Z</time>
      </trkpt>
      <trkpt lat="22.819261" lon="111.394953">
        <ele>163.410882</ele>
        <time>2026-08-18T09:08:25.000Z</time>
      </trkpt>
      <trkpt lat="22.819256" lon="111.394989">
        <ele>163.433051</ele>
        <time>2026-08-18T09:08:26.000Z</time>
      </trkpt>
      <trkpt lat="22.819253" lon="111.395027">
        <ele>163.456275</ele>
        <time>2026-08-18T09:08:27.000Z</time>
      </trkpt>
      <trkpt lat="22.819250" lon="111.395063">
        <ele>163.478285</ele>
        <time>2026-08-18T09:08:28.000Z</time>
      </trkpt>
      <trkpt lat="22.819249" lon="111.395099">
        <ele>163.500217</ele>
        <time>2026-08-18T09:08:29.000Z</time>
      </trkpt>
      <trkpt lat="22.819248" lon="111.395138">
        <ele>163.523974</ele>
        <time>2026-08-18T09:08:30.000Z</time>
      </trkpt>
      <trkpt lat="22.819248" lon="111.395175">
        <ele>163.546504</ele>
        <time>2026-08-18T09:08:31.000Z</time>
      </trkpt>
      <trkpt lat="22.819248" lon="111.395211">
        <ele>163.568425</ele>
        <time>2026-08-18T09:08:32.000Z</time>
      </trkpt>
      <trkpt lat="22.819248" lon="111.395249">
        <ele>163.591564</ele>
        <time>2026-08-18T09:08:33.000Z</time>
      </trkpt>
      <trkpt lat="22.819248" lon="111.395288">
        <ele>163.615312</ele>
        <time>2026-08-18T09:08:34.000Z</time>
      </trkpt>
      <trkpt lat="22.819247" lon="111.395326">
        <ele>163.638461</ele>
        <time>2026-08-18T09:08:35.000Z</time>
      </trkpt>
      <trkpt lat="22.819247" lon="111.395364">
        <ele>163.661600</ele>
        <time>2026-08-18T09:08:36.000Z</time>
      </trkpt>
      <trkpt lat="22.819247" lon="111.395402">
        <ele>163.684739</ele>
        <time>2026-08-18T09:08:37.000Z</time>
      </trkpt>
      <trkpt lat="22.819246" lon="111.395440">
        <ele>163.707888</ele>
        <time>2026-08-18T09:08:38.000Z</time>
      </trkpt>
      <trkpt lat="22.819245" lon="111.395477">
        <ele>163.730428</ele>
        <time>2026-08-18T09:08:39.000Z</time>
      </trkpt>
      <trkpt lat="22.819249" lon="111.395514">
        <ele>163.753112</ele>
        <time>2026-08-18T09:08:40.000Z</time>
      </trkpt>
      <trkpt lat="22.819252" lon="111.395552">
        <ele>163.776336</ele>
        <time>2026-08-18T09:08:41.000Z</time>
      </trkpt>
      <trkpt lat="22.819253" lon="111.395589">
        <ele>163.798876</ele>
        <time>2026-08-18T09:08:42.000Z</time>
      </trkpt>
      <trkpt lat="22.819255" lon="111.395627">
        <ele>163.822053</ele>
        <time>2026-08-18T09:08:43.000Z</time>
      </trkpt>
      <trkpt lat="22.819258" lon="111.395668">
        <ele>163.847097</ele>
        <time>2026-08-18T09:08:44.000Z</time>
      </trkpt>
      <trkpt lat="22.819261" lon="111.395710">
        <ele>163.872749</ele>
        <time>2026-08-18T09:08:45.000Z</time>
      </trkpt>
      <trkpt lat="22.819265" lon="111.395751">
        <ele>163.897854</ele>
        <time>2026-08-18T09:08:46.000Z</time>
      </trkpt>
      <trkpt lat="22.819271" lon="111.395793">
        <ele>163.923734</ele>
        <time>2026-08-18T09:08:47.000Z</time>
      </trkpt>
      <trkpt lat="22.819277" lon="111.395834">
        <ele>163.949013</ele>
        <time>2026-08-18T09:08:48.000Z</time>
      </trkpt>
      <trkpt lat="22.819282" lon="111.395877">
        <ele>163.975404</ele>
        <time>2026-08-18T09:08:49.000Z</time>
      </trkpt>
      <trkpt lat="22.819285" lon="111.395922">
        <ele>164.002877</ele>
        <time>2026-08-18T09:08:50.000Z</time>
      </trkpt>
      <trkpt lat="22.819290" lon="111.395966">
        <ele>164.029873</ele>
        <time>2026-08-18T09:08:51.000Z</time>
      </trkpt>
      <trkpt lat="22.819297" lon="111.396008">
        <ele>164.055862</ele>
        <time>2026-08-18T09:08:52.000Z</time>
      </trkpt>
      <trkpt lat="22.819302" lon="111.396050">
        <ele>164.081650</ele>
        <time>2026-08-18T09:08:53.000Z</time>
      </trkpt>
      <trkpt lat="22.819305" lon="111.396091">
        <ele>164.106694</ele>
        <time>2026-08-18T09:08:54.000Z</time>
      </trkpt>
      <trkpt lat="22.819311" lon="111.396135">
        <ele>164.133778</ele>
        <time>2026-08-18T09:08:55.000Z</time>
      </trkpt>
      <trkpt lat="22.819317" lon="111.396179">
        <ele>164.160862</ele>
        <time>2026-08-18T09:08:56.000Z</time>
      </trkpt>
      <trkpt lat="22.819322" lon="111.396224">
        <ele>164.188462</ele>
        <time>2026-08-18T09:08:57.000Z</time>
      </trkpt>
      <trkpt lat="22.819328" lon="111.396271">
        <ele>164.217355</ele>
        <time>2026-08-18T09:08:58.000Z</time>
      </trkpt>
      <trkpt lat="22.819333" lon="111.396318">
        <ele>164.246164</ele>
        <time>2026-08-18T09:08:59.000Z</time>
      </trkpt>
      <trkpt lat="22.819338" lon="111.396364">
        <ele>164.274369</ele>
        <time>2026-08-18T09:09:00.000Z</time>
      </trkpt>
      <trkpt lat="22.819344" lon="111.396412">
        <ele>164.303865</ele>
        <time>2026-08-18T09:09:01.000Z</time>
      </trkpt>
      <trkpt lat="22.819350" lon="111.396460">
        <ele>164.333361</ele>
        <time>2026-08-18T09:09:02.000Z</time>
      </trkpt>
      <trkpt lat="22.819355" lon="111.396508">
        <ele>164.324224</ele>
        <time>2026-08-18T09:09:03.000Z</time>
      </trkpt>
      <trkpt lat="22.819359" lon="111.396555">
        <ele>164.246046</ele>
        <time>2026-08-18T09:09:04.000Z</time>
      </trkpt>
      <trkpt lat="22.819364" lon="111.396603">
        <ele>164.166038</ele>
        <time>2026-08-18T09:09:05.000Z</time>
      </trkpt>
      <trkpt lat="22.819372" lon="111.396651">
        <ele>164.085246</ele>
        <time>2026-08-18T09:09:06.000Z</time>
      </trkpt>
      <trkpt lat="22.819383" lon="111.396700">
        <ele>164.001715</ele>
        <time>2026-08-18T09:09:07.000Z</time>
      </trkpt>
      <trkpt lat="22.819392" lon="111.396751">
        <ele>163.915710</ele>
        <time>2026-08-18T09:09:08.000Z</time>
      </trkpt>
      <trkpt lat="22.819399" lon="111.396805">
        <ele>163.825390</ele>
        <time>2026-08-18T09:09:09.000Z</time>
      </trkpt>
      <trkpt lat="22.819405" lon="111.396856">
        <ele>163.740233</ele>
        <time>2026-08-18T09:09:10.000Z</time>
      </trkpt>
      <trkpt lat="22.819413" lon="111.396910">
        <ele>163.649645</ele>
        <time>2026-08-18T09:09:11.000Z</time>
      </trkpt>
      <trkpt lat="22.819422" lon="111.396964">
        <ele>163.558755</ele>
        <time>2026-08-18T09:09:12.000Z</time>
      </trkpt>
      <trkpt lat="22.819431" lon="111.397020">
        <ele>163.464602</ele>
        <time>2026-08-18T09:09:13.000Z</time>
      </trkpt>
      <trkpt lat="22.819441" lon="111.397077">
        <ele>163.368499</ele>
        <time>2026-08-18T09:09:14.000Z</time>
      </trkpt>
      <trkpt lat="22.819452" lon="111.397134">
        <ele>163.272043</ele>
        <time>2026-08-18T09:09:15.000Z</time>
      </trkpt>
      <trkpt lat="22.819462" lon="111.397196">
        <ele>163.167792</ele>
        <time>2026-08-18T09:09:16.000Z</time>
      </trkpt>
      <trkpt lat="22.819469" lon="111.397258">
        <ele>163.064334</ele>
        <time>2026-08-18T09:09:17.000Z</time>
      </trkpt>
      <trkpt lat="22.819476" lon="111.397321">
        <ele>162.959232</ele>
        <time>2026-08-18T09:09:18.000Z</time>
      </trkpt>
      <trkpt lat="22.819484" lon="111.397387">
        <ele>162.848975</ele>
        <time>2026-08-18T09:09:19.000Z</time>
      </trkpt>
      <trkpt lat="22.819494" lon="111.397454">
        <ele>162.736557</ele>
        <time>2026-08-18T09:09:20.000Z</time>
      </trkpt>
      <trkpt lat="22.819506" lon="111.397518">
        <ele>162.628383</ele>
        <time>2026-08-18T09:09:21.000Z</time>
      </trkpt>
      <trkpt lat="22.819518" lon="111.397583">
        <ele>162.518586</ele>
        <time>2026-08-18T09:09:22.000Z</time>
      </trkpt>
      <trkpt lat="22.819528" lon="111.397651">
        <ele>162.404533</ele>
        <time>2026-08-18T09:09:23.000Z</time>
      </trkpt>
      <trkpt lat="22.819535" lon="111.397719">
        <ele>162.291205</ele>
        <time>2026-08-18T09:09:24.000Z</time>
      </trkpt>
      <trkpt lat="22.819543" lon="111.397787">
        <ele>162.177663</ele>
        <time>2026-08-18T09:09:25.000Z</time>
      </trkpt>
      <trkpt lat="22.819553" lon="111.397853">
        <ele>162.066880</ele>
        <time>2026-08-18T09:09:26.000Z</time>
      </trkpt>
      <trkpt lat="22.819564" lon="111.397921">
        <ele>161.952531</ele>
        <time>2026-08-18T09:09:27.000Z</time>
      </trkpt>
      <trkpt lat="22.819573" lon="111.397994">
        <ele>161.830544</ele>
        <time>2026-08-18T09:09:28.000Z</time>
      </trkpt>
      <trkpt lat="22.819585" lon="111.398065">
        <ele>161.710986</ele>
        <time>2026-08-18T09:09:29.000Z</time>
      </trkpt>
      <trkpt lat="22.819597" lon="111.398136">
        <ele>161.591429</ele>
        <time>2026-08-18T09:09:30.000Z</time>
      </trkpt>
      <trkpt lat="22.819608" lon="111.398211">
        <ele>161.465644</ele>
        <time>2026-08-18T09:09:31.000Z</time>
      </trkpt>
      <trkpt lat="22.819618" lon="111.398287">
        <ele>161.338489</ele>
        <time>2026-08-18T09:09:32.000Z</time>
      </trkpt>
      <trkpt lat="22.819629" lon="111.398364">
        <ele>161.209432</ele>
        <time>2026-08-18T09:09:33.000Z</time>
      </trkpt>
      <trkpt lat="22.819642" lon="111.398441">
        <ele>161.139611</ele>
        <time>2026-08-18T09:09:34.000Z</time>
      </trkpt>
      <trkpt lat="22.819656" lon="111.398518">
        <ele>161.201298</ele>
        <time>2026-08-18T09:09:35.000Z</time>
      </trkpt>
      <trkpt lat="22.819668" lon="111.398597">
        <ele>161.264228</ele>
        <time>2026-08-18T09:09:36.000Z</time>
      </trkpt>
      <trkpt lat="22.819680" lon="111.398677">
        <ele>161.327934</ele>
        <time>2026-08-18T09:09:37.000Z</time>
      </trkpt>
      <trkpt lat="22.819689" lon="111.398758">
        <ele>161.392059</ele>
        <time>2026-08-18T09:09:38.000Z</time>
      </trkpt>
      <trkpt lat="22.819696" lon="111.398840">
        <ele>161.456786</ele>
        <time>2026-08-18T09:09:39.000Z</time>
      </trkpt>
      <trkpt lat="22.819703" lon="111.398920">
        <ele>161.519947</ele>
        <time>2026-08-18T09:09:40.000Z</time>
      </trkpt>
      <trkpt lat="22.819708" lon="111.399001">
        <ele>161.583754</ele>
        <time>2026-08-18T09:09:41.000Z</time>
      </trkpt>
      <trkpt lat="22.819714" lon="111.399081">
        <ele>161.646840</ele>
        <time>2026-08-18T09:09:42.000Z</time>
      </trkpt>
      <trkpt lat="22.819720" lon="111.399160">
        <ele>161.709143</ele>
        <time>2026-08-18T09:09:43.000Z</time>
      </trkpt>
      <trkpt lat="22.819728" lon="111.399239">
        <ele>161.771610</ele>
        <time>2026-08-18T09:09:44.000Z</time>
      </trkpt>
      <trkpt lat="22.819739" lon="111.399316">
        <ele>161.832853</ele>
        <time>2026-08-18T09:09:45.000Z</time>
      </trkpt>
      <trkpt lat="22.819748" lon="111.399394">
        <ele>161.894638</ele>
        <time>2026-08-18T09:09:46.000Z</time>
      </trkpt>
      <trkpt lat="22.819756" lon="111.399469">
        <ele>161.953980</ele>
        <time>2026-08-18T09:09:47.000Z</time>
      </trkpt>
      <trkpt lat="22.819762" lon="111.399541">
        <ele>162.010801</ele>
        <time>2026-08-18T09:09:48.000Z</time>
      </trkpt>
      <trkpt lat="22.819769" lon="111.399614">
        <ele>162.068488</ele>
        <time>2026-08-18T09:09:49.000Z</time>
      </trkpt>
      <trkpt lat="22.819776" lon="111.399685">
        <ele>162.124611</ele>
        <time>2026-08-18T09:09:50.000Z</time>
      </trkpt>
      <trkpt lat="22.819783" lon="111.399754">
        <ele>162.179171</ele>
        <time>2026-08-18T09:09:51.000Z</time>
      </trkpt>
      <trkpt lat="22.819792" lon="111.399821">
        <ele>162.232388</ele>
        <time>2026-08-18T09:09:52.000Z</time>
      </trkpt>
      <trkpt lat="22.819800" lon="111.399888">
        <ele>162.285488</ele>
        <time>2026-08-18T09:09:53.000Z</time>
      </trkpt>
      <trkpt lat="22.819808" lon="111.399955">
        <ele>162.338589</ele>
        <time>2026-08-18T09:09:54.000Z</time>
      </trkpt>
      <trkpt lat="22.819816" lon="111.400019">
        <ele>162.389352</ele>
        <time>2026-08-18T09:09:55.000Z</time>
      </trkpt>
      <trkpt lat="22.819824" lon="111.400081">
        <ele>162.438558</ele>
        <time>2026-08-18T09:09:56.000Z</time>
      </trkpt>
      <trkpt lat="22.819830" lon="111.400139">
        <ele>162.484432</ele>
        <time>2026-08-18T09:09:57.000Z</time>
      </trkpt>
      <trkpt lat="22.819836" lon="111.400199">
        <ele>162.531867</ele>
        <time>2026-08-18T09:09:58.000Z</time>
      </trkpt>
      <trkpt lat="22.819843" lon="111.400256">
        <ele>162.577064</ele>
        <time>2026-08-18T09:09:59.000Z</time>
      </trkpt>
      <trkpt lat="22.819850" lon="111.400312">
        <ele>162.621482</ele>
        <time>2026-08-18T09:10:00.000Z</time>
      </trkpt>
      <trkpt lat="22.819857" lon="111.400368">
        <ele>162.684376</ele>
        <time>2026-08-18T09:10:01.000Z</time>
      </trkpt>
      <trkpt lat="22.819866" lon="111.400420">
        <ele>162.791087</ele>
        <time>2026-08-18T09:10:02.000Z</time>
      </trkpt>
      <trkpt lat="22.819874" lon="111.400475">
        <ele>162.903388</ele>
        <time>2026-08-18T09:10:03.000Z</time>
      </trkpt>
      <trkpt lat="22.819881" lon="111.400529">
        <ele>163.013371</ele>
        <time>2026-08-18T09:10:04.000Z</time>
      </trkpt>
      <trkpt lat="22.819886" lon="111.400583">
        <ele>163.122831</ele>
        <time>2026-08-18T09:10:05.000Z</time>
      </trkpt>
      <trkpt lat="22.819894" lon="111.400639">
        <ele>163.237125</ele>
        <time>2026-08-18T09:10:06.000Z</time>
      </trkpt>
      <trkpt lat="22.819904" lon="111.400690">
        <ele>163.342287</ele>
        <time>2026-08-18T09:10:07.000Z</time>
      </trkpt>
      <trkpt lat="22.819919" lon="111.400740">
        <ele>163.448338</ele>
        <time>2026-08-18T09:10:08.000Z</time>
      </trkpt>
      <trkpt lat="22.819928" lon="111.400786">
        <ele>163.543182</ele>
        <time>2026-08-18T09:10:09.000Z</time>
      </trkpt>
      <trkpt lat="22.819930" lon="111.400838">
        <ele>163.648151</ele>
        <time>2026-08-18T09:10:10.000Z</time>
      </trkpt>
      <trkpt lat="22.819932" lon="111.400887">
        <ele>163.747075</ele>
        <time>2026-08-18T09:10:11.000Z</time>
      </trkpt>
      <trkpt lat="22.819937" lon="111.400935">
        <ele>163.844502</ele>
        <time>2026-08-18T09:10:12.000Z</time>
      </trkpt>
      <trkpt lat="22.819942" lon="111.400983">
        <ele>163.941928</ele>
        <time>2026-08-18T09:10:13.000Z</time>
      </trkpt>
      <trkpt lat="22.819948" lon="111.401028">
        <ele>164.033632</ele>
        <time>2026-08-18T09:10:14.000Z</time>
      </trkpt>
      <trkpt lat="22.819954" lon="111.401071">
        <ele>164.121346</ele>
        <time>2026-08-18T09:10:15.000Z</time>
      </trkpt>
      <trkpt lat="22.819958" lon="111.401114">
        <ele>164.208513</ele>
        <time>2026-08-18T09:10:16.000Z</time>
      </trkpt>
      <trkpt lat="22.819965" lon="111.401159">
        <ele>164.300556</ele>
        <time>2026-08-18T09:10:17.000Z</time>
      </trkpt>
      <trkpt lat="22.819975" lon="111.401203">
        <ele>164.391956</ele>
        <time>2026-08-18T09:10:18.000Z</time>
      </trkpt>
      <trkpt lat="22.819985" lon="111.401247">
        <ele>164.483357</ele>
        <time>2026-08-18T09:10:19.000Z</time>
      </trkpt>
      <trkpt lat="22.819992" lon="111.401289">
        <ele>164.569440</ele>
        <time>2026-08-18T09:10:20.000Z</time>
      </trkpt>
      <trkpt lat="22.819998" lon="111.401332">
        <ele>164.657154</ele>
        <time>2026-08-18T09:10:21.000Z</time>
      </trkpt>
      <trkpt lat="22.820004" lon="111.401374">
        <ele>164.742874</ele>
        <time>2026-08-18T09:10:22.000Z</time>
      </trkpt>
      <trkpt lat="22.820010" lon="111.401411">
        <ele>164.818645</ele>
        <time>2026-08-18T09:10:23.000Z</time>
      </trkpt>
      <trkpt lat="22.820015" lon="111.401449">
        <ele>164.896063</ele>
        <time>2026-08-18T09:10:24.000Z</time>
      </trkpt>
      <trkpt lat="22.820020" lon="111.401486">
        <ele>164.971485</ele>
        <time>2026-08-18T09:10:25.000Z</time>
      </trkpt>
      <trkpt lat="22.820025" lon="111.401524">
        <ele>165.048904</ele>
        <time>2026-08-18T09:10:26.000Z</time>
      </trkpt>
      <trkpt lat="22.820029" lon="111.401561">
        <ele>165.124040</ele>
        <time>2026-08-18T09:10:27.000Z</time>
      </trkpt>
      <trkpt lat="22.820032" lon="111.401597">
        <ele>165.196944</ele>
        <time>2026-08-18T09:10:28.000Z</time>
      </trkpt>
      <trkpt lat="22.820036" lon="111.401633">
        <ele>165.270077</ele>
        <time>2026-08-18T09:10:29.000Z</time>
      </trkpt>
      <trkpt lat="22.820040" lon="111.401668">
        <ele>165.341208</ele>
        <time>2026-08-18T09:10:30.000Z</time>
      </trkpt>
      <trkpt lat="22.820046" lon="111.401700">
        <ele>165.407070</ele>
        <time>2026-08-18T09:10:31.000Z</time>
      </trkpt>
      <trkpt lat="22.820050" lon="111.401735">
        <ele>165.478201</ele>
        <time>2026-08-18T09:10:32.000Z</time>
      </trkpt>
      <trkpt lat="22.820052" lon="111.401769">
        <ele>165.546915</ele>
        <time>2026-08-18T09:10:33.000Z</time>
      </trkpt>
      <trkpt lat="22.820054" lon="111.401804">
        <ele>165.617641</ele>
        <time>2026-08-18T09:10:34.000Z</time>
      </trkpt>
      <trkpt lat="22.820061" lon="111.401839">
        <ele>165.689874</ele>
        <time>2026-08-18T09:10:35.000Z</time>
      </trkpt>
      <trkpt lat="22.820065" lon="111.401871">
        <ele>165.755005</ele>
        <time>2026-08-18T09:10:36.000Z</time>
      </trkpt>
      <trkpt lat="22.820069" lon="111.401903">
        <ele>165.820136</ele>
        <time>2026-08-18T09:10:37.000Z</time>
      </trkpt>
      <trkpt lat="22.820072" lon="111.401936">
        <ele>165.887016</ele>
        <time>2026-08-18T09:10:38.000Z</time>
      </trkpt>
      <trkpt lat="22.820078" lon="111.401968">
        <ele>165.952878</ele>
        <time>2026-08-18T09:10:39.000Z</time>
      </trkpt>
      <trkpt lat="22.820086" lon="111.402000">
        <ele>166.019750</ele>
        <time>2026-08-18T09:10:40.000Z</time>
      </trkpt>
      <trkpt lat="22.820092" lon="111.402034">
        <ele>166.089569</ele>
        <time>2026-08-18T09:10:41.000Z</time>
      </trkpt>
      <trkpt lat="22.820099" lon="111.402068">
        <ele>166.159833</ele>
        <time>2026-08-18T09:10:42.000Z</time>
      </trkpt>
      <trkpt lat="22.820106" lon="111.402104">
        <ele>166.234039</ele>
        <time>2026-08-18T09:10:43.000Z</time>
      </trkpt>
      <trkpt lat="22.820115" lon="111.402140">
        <ele>166.309270</ele>
        <time>2026-08-18T09:10:44.000Z</time>
      </trkpt>
      <trkpt lat="22.820123" lon="111.402175">
        <ele>166.381999</ele>
        <time>2026-08-18T09:10:45.000Z</time>
      </trkpt>
      <trkpt lat="22.820130" lon="111.402211">
        <ele>166.456204</ele>
        <time>2026-08-18T09:10:46.000Z</time>
      </trkpt>
      <trkpt lat="22.820137" lon="111.402247">
        <ele>166.530410</ele>
        <time>2026-08-18T09:10:47.000Z</time>
      </trkpt>
      <trkpt lat="22.820144" lon="111.402282">
        <ele>166.566345</ele>
        <time>2026-08-18T09:10:48.000Z</time>
      </trkpt>
      <trkpt lat="22.820152" lon="111.402318">
        <ele>166.429866</ele>
        <time>2026-08-18T09:10:49.000Z</time>
      </trkpt>
      <trkpt lat="22.820161" lon="111.402354">
        <ele>166.292395</ele>
        <time>2026-08-18T09:10:50.000Z</time>
      </trkpt>
      <trkpt lat="22.820169" lon="111.402389">
        <ele>166.159496</ele>
        <time>2026-08-18T09:10:51.000Z</time>
      </trkpt>
      <trkpt lat="22.820178" lon="111.402424">
        <ele>166.025579</ele>
        <time>2026-08-18T09:10:52.000Z</time>
      </trkpt>
      <trkpt lat="22.820187" lon="111.402461">
        <ele>165.884548</ele>
        <time>2026-08-18T09:10:53.000Z</time>
      </trkpt>
      <trkpt lat="22.820199" lon="111.402497">
        <ele>165.743461</ele>
        <time>2026-08-18T09:10:54.000Z</time>
      </trkpt>
      <trkpt lat="22.820211" lon="111.402532">
        <ele>165.605834</ele>
        <time>2026-08-18T09:10:55.000Z</time>
      </trkpt>
      <trkpt lat="22.820224" lon="111.402572">
        <ele>165.449519</ele>
        <time>2026-08-18T09:10:56.000Z</time>
      </trkpt>
      <trkpt lat="22.820236" lon="111.402612">
        <ele>165.294488</ele>
        <time>2026-08-18T09:10:57.000Z</time>
      </trkpt>
      <trkpt lat="22.820249" lon="111.402652">
        <ele>165.138173</ele>
        <time>2026-08-18T09:10:58.000Z</time>
      </trkpt>
      <trkpt lat="22.820264" lon="111.402694">
        <ele>164.972170</ele>
        <time>2026-08-18T09:10:59.000Z</time>
      </trkpt>
      <trkpt lat="22.820280" lon="111.402737">
        <ele>164.801268</ele>
        <time>2026-08-18T09:11:00.000Z</time>
      </trkpt>
      <trkpt lat="22.820297" lon="111.402782">
        <ele>164.622033</ele>
        <time>2026-08-18T09:11:01.000Z</time>
      </trkpt>
      <trkpt lat="22.820314" lon="111.402827">
        <ele>164.442797</ele>
        <time>2026-08-18T09:11:02.000Z</time>
      </trkpt>
      <trkpt lat="22.820330" lon="111.402874">
        <ele>164.258143</ele>
        <time>2026-08-18T09:11:03.000Z</time>
      </trkpt>
      <trkpt lat="22.820347" lon="111.402921">
        <ele>164.072066</ele>
        <time>2026-08-18T09:11:04.000Z</time>
      </trkpt>
      <trkpt lat="22.820365" lon="111.402973">
        <ele>163.867352</ele>
        <time>2026-08-18T09:11:05.000Z</time>
      </trkpt>
      <trkpt lat="22.820386" lon="111.403029">
        <ele>163.644538</ele>
        <time>2026-08-18T09:11:06.000Z</time>
      </trkpt>
      <trkpt lat="22.820411" lon="111.403084">
        <ele>163.418529</ele>
        <time>2026-08-18T09:11:07.000Z</time>
      </trkpt>
      <trkpt lat="22.820436" lon="111.403142">
        <ele>163.182554</ele>
        <time>2026-08-18T09:11:08.000Z</time>
      </trkpt>
      <trkpt lat="22.820464" lon="111.403202">
        <ele>162.934699</ele>
        <time>2026-08-18T09:11:09.000Z</time>
      </trkpt>
      <trkpt lat="22.820491" lon="111.403263">
        <ele>162.685307</ele>
        <time>2026-08-18T09:11:10.000Z</time>
      </trkpt>
      <trkpt lat="22.820523" lon="111.403327">
        <ele>162.416968</ele>
        <time>2026-08-18T09:11:11.000Z</time>
      </trkpt>
      <trkpt lat="22.820556" lon="111.403394">
        <ele>162.136998</ele>
        <time>2026-08-18T09:11:12.000Z</time>
      </trkpt>
      <trkpt lat="22.820588" lon="111.403465">
        <ele>161.845722</ele>
        <time>2026-08-18T09:11:13.000Z</time>
      </trkpt>
      <trkpt lat="22.820622" lon="111.403538">
        <ele>161.544285</ele>
        <time>2026-08-18T09:11:14.000Z</time>
      </trkpt>
      <trkpt lat="22.820654" lon="111.403614">
        <ele>161.236349</ele>
        <time>2026-08-18T09:11:15.000Z</time>
      </trkpt>
      <trkpt lat="22.820688" lon="111.403693">
        <ele>160.915022</ele>
        <time>2026-08-18T09:11:16.000Z</time>
      </trkpt>
      <trkpt lat="22.820726" lon="111.403775">
        <ele>160.576768</ele>
        <time>2026-08-18T09:11:17.000Z</time>
      </trkpt>
      <trkpt lat="22.820764" lon="111.403860">
        <ele>160.228600</ele>
        <time>2026-08-18T09:11:18.000Z</time>
      </trkpt>
      <trkpt lat="22.820803" lon="111.403948">
        <ele>159.868737</ele>
        <time>2026-08-18T09:11:19.000Z</time>
      </trkpt>
      <trkpt lat="22.820844" lon="111.404039">
        <ele>159.495437</ele>
        <time>2026-08-18T09:11:20.000Z</time>
      </trkpt>
      <trkpt lat="22.820888" lon="111.404132">
        <ele>158.971548</ele>
        <time>2026-08-18T09:11:21.000Z</time>
      </trkpt>
      <trkpt lat="22.820934" lon="111.404227">
        <ele>158.385588</ele>
        <time>2026-08-18T09:11:22.000Z</time>
      </trkpt>
      <trkpt lat="22.820980" lon="111.404325">
        <ele>157.785078</ele>
        <time>2026-08-18T09:11:23.000Z</time>
      </trkpt>
      <trkpt lat="22.821024" lon="111.404425">
        <ele>157.180015</ele>
        <time>2026-08-18T09:11:24.000Z</time>
      </trkpt>
      <trkpt lat="22.821068" lon="111.404529">
        <ele>156.555170</ele>
        <time>2026-08-18T09:11:25.000Z</time>
      </trkpt>
      <trkpt lat="22.821108" lon="111.404635">
        <ele>155.929741</ele>
        <time>2026-08-18T09:11:26.000Z</time>
      </trkpt>
      <trkpt lat="22.821145" lon="111.404742">
        <ele>155.305717</ele>
        <time>2026-08-18T09:11:27.000Z</time>
      </trkpt>
      <trkpt lat="22.821176" lon="111.404854">
        <ele>154.667176</ele>
        <time>2026-08-18T09:11:28.000Z</time>
      </trkpt>
      <trkpt lat="22.821200" lon="111.404965">
        <ele>154.044622</ele>
        <time>2026-08-18T09:11:29.000Z</time>
      </trkpt>
      <trkpt lat="22.821221" lon="111.405081">
        <ele>153.399117</ele>
        <time>2026-08-18T09:11:30.000Z</time>
      </trkpt>
      <trkpt lat="22.821236" lon="111.405201">
        <ele>152.737874</ele>
        <time>2026-08-18T09:11:31.000Z</time>
      </trkpt>
      <trkpt lat="22.821248" lon="111.405322">
        <ele>152.073356</ele>
        <time>2026-08-18T09:11:32.000Z</time>
      </trkpt>
      <trkpt lat="22.821251" lon="111.405443">
        <ele>151.412412</ele>
        <time>2026-08-18T09:11:33.000Z</time>
      </trkpt>
      <trkpt lat="22.821248" lon="111.405566">
        <ele>150.740551</ele>
        <time>2026-08-18T09:11:34.000Z</time>
      </trkpt>
      <trkpt lat="22.821244" lon="111.405691">
        <ele>150.057594</ele>
        <time>2026-08-18T09:11:35.000Z</time>
      </trkpt>
      <trkpt lat="22.821240" lon="111.405814">
        <ele>149.385550</ele>
        <time>2026-08-18T09:11:36.000Z</time>
      </trkpt>
      <trkpt lat="22.821233" lon="111.405937">
        <ele>148.725152</ele>
        <time>2026-08-18T09:11:37.000Z</time>
      </trkpt>
      <trkpt lat="22.821226" lon="111.406062">
        <ele>148.326401</ele>
        <time>2026-08-18T09:11:38.000Z</time>
      </trkpt>
      <trkpt lat="22.821218" lon="111.406187">
        <ele>147.927426</ele>
        <time>2026-08-18T09:11:39.000Z</time>
      </trkpt>
      <trkpt lat="22.821208" lon="111.406311">
        <ele>147.531086</ele>
        <time>2026-08-18T09:11:40.000Z</time>
      </trkpt>
      <trkpt lat="22.821199" lon="111.406436">
        <ele>147.131856</ele>
        <time>2026-08-18T09:11:41.000Z</time>
      </trkpt>
      <trkpt lat="22.821190" lon="111.406562">
        <ele>146.729453</ele>
        <time>2026-08-18T09:11:42.000Z</time>
      </trkpt>
      <trkpt lat="22.821182" lon="111.406689">
        <ele>146.324125</ele>
        <time>2026-08-18T09:11:43.000Z</time>
      </trkpt>
      <trkpt lat="22.821174" lon="111.406816">
        <ele>145.918796</ele>
        <time>2026-08-18T09:11:44.000Z</time>
      </trkpt>
      <trkpt lat="22.821164" lon="111.406941">
        <ele>145.519283</ele>
        <time>2026-08-18T09:11:45.000Z</time>
      </trkpt>
      <trkpt lat="22.821153" lon="111.407065">
        <ele>145.122626</ele>
        <time>2026-08-18T09:11:46.000Z</time>
      </trkpt>
      <trkpt lat="22.821144" lon="111.407186">
        <ele>144.736094</ele>
        <time>2026-08-18T09:11:47.000Z</time>
      </trkpt>
      <trkpt lat="22.821136" lon="111.407306">
        <ele>144.352999</ele>
        <time>2026-08-18T09:11:48.000Z</time>
      </trkpt>
      <trkpt lat="22.821126" lon="111.407425">
        <ele>143.972516</ele>
        <time>2026-08-18T09:11:49.000Z</time>
      </trkpt>
      <trkpt lat="22.821118" lon="111.407542">
        <ele>143.598948</ele>
        <time>2026-08-18T09:11:50.000Z</time>
      </trkpt>
      <trkpt lat="22.821108" lon="111.407657">
        <ele>143.231147</ele>
        <time>2026-08-18T09:11:51.000Z</time>
      </trkpt>
      <trkpt lat="22.821100" lon="111.407770">
        <ele>142.870280</ele>
        <time>2026-08-18T09:11:52.000Z</time>
      </trkpt>
      <trkpt lat="22.821092" lon="111.407881">
        <ele>142.522007</ele>
        <time>2026-08-18T09:11:53.000Z</time>
      </trkpt>
      <trkpt lat="22.821083" lon="111.407990">
        <ele>142.336324</ele>
        <time>2026-08-18T09:11:54.000Z</time>
      </trkpt>
      <trkpt lat="22.821076" lon="111.408097">
        <ele>142.154319</ele>
        <time>2026-08-18T09:11:55.000Z</time>
      </trkpt>
      <trkpt lat="22.821069" lon="111.408204">
        <ele>141.972313</ele>
        <time>2026-08-18T09:11:56.000Z</time>
      </trkpt>
      <trkpt lat="22.821064" lon="111.408308">
        <ele>141.795614</ele>
        <time>2026-08-18T09:11:57.000Z</time>
      </trkpt>
      <trkpt lat="22.821056" lon="111.408411">
        <ele>141.620233</ele>
        <time>2026-08-18T09:11:58.000Z</time>
      </trkpt>
      <trkpt lat="22.821049" lon="111.408513">
        <ele>141.446688</ele>
        <time>2026-08-18T09:11:59.000Z</time>
      </trkpt>
      <trkpt lat="22.821042" lon="111.408614">
        <ele>141.274836</ele>
        <time>2026-08-18T09:12:00.000Z</time>
      </trkpt>
      <trkpt lat="22.821034" lon="111.408714">
        <ele>141.104526</ele>
        <time>2026-08-18T09:12:01.000Z</time>
      </trkpt>
      <trkpt lat="22.821027" lon="111.408812">
        <ele>140.937749</ele>
        <time>2026-08-18T09:12:02.000Z</time>
      </trkpt>
      <trkpt lat="22.821019" lon="111.408910">
        <ele>140.770820</ele>
        <time>2026-08-18T09:12:03.000Z</time>
      </trkpt>
      <trkpt lat="22.821010" lon="111.409007">
        <ele>140.605406</ele>
        <time>2026-08-18T09:12:04.000Z</time>
      </trkpt>
      <trkpt lat="22.821001" lon="111.409105">
        <ele>140.438304</ele>
        <time>2026-08-18T09:12:05.000Z</time>
      </trkpt>
      <trkpt lat="22.820994" lon="111.409203">
        <ele>140.271527</ele>
        <time>2026-08-18T09:12:06.000Z</time>
      </trkpt>
      <trkpt lat="22.820987" lon="111.409301">
        <ele>140.104750</ele>
        <time>2026-08-18T09:12:07.000Z</time>
      </trkpt>
      <trkpt lat="22.820982" lon="111.409398">
        <ele>139.939911</ele>
        <time>2026-08-18T09:12:08.000Z</time>
      </trkpt>
      <trkpt lat="22.820975" lon="111.409494">
        <ele>139.776517</ele>
        <time>2026-08-18T09:12:09.000Z</time>
      </trkpt>
      <trkpt lat="22.820969" lon="111.409591">
        <ele>139.611565</ele>
        <time>2026-08-18T09:12:10.000Z</time>
      </trkpt>
      <trkpt lat="22.820962" lon="111.409687">
        <ele>139.448171</ele>
        <time>2026-08-18T09:12:11.000Z</time>
      </trkpt>
      <trkpt lat="22.820955" lon="111.409781">
        <ele>139.288159</ele>
        <time>2026-08-18T09:12:12.000Z</time>
      </trkpt>
      <trkpt lat="22.820949" lon="111.409874">
        <ele>139.147239</ele>
        <time>2026-08-18T09:12:13.000Z</time>
      </trkpt>
      <trkpt lat="22.820943" lon="111.409967">
        <ele>139.020020</ele>
        <time>2026-08-18T09:12:14.000Z</time>
      </trkpt>
      <trkpt lat="22.820937" lon="111.410059">
        <ele>138.894163</ele>
        <time>2026-08-18T09:12:15.000Z</time>
      </trkpt>
      <trkpt lat="22.820931" lon="111.410150">
        <ele>138.769667</ele>
        <time>2026-08-18T09:12:16.000Z</time>
      </trkpt>
      <trkpt lat="22.820925" lon="111.410239">
        <ele>138.647893</ele>
        <time>2026-08-18T09:12:17.000Z</time>
      </trkpt>
      <trkpt lat="22.820918" lon="111.410327">
        <ele>138.527362</ele>
        <time>2026-08-18T09:12:18.000Z</time>
      </trkpt>
      <trkpt lat="22.820912" lon="111.410416">
        <ele>138.405588</ele>
        <time>2026-08-18T09:12:19.000Z</time>
      </trkpt>
      <trkpt lat="22.820906" lon="111.410504">
        <ele>138.285175</ele>
        <time>2026-08-18T09:12:20.000Z</time>
      </trkpt>
      <trkpt lat="22.820900" lon="111.410592">
        <ele>138.164762</ele>
        <time>2026-08-18T09:12:21.000Z</time>
      </trkpt>
      <trkpt lat="22.820893" lon="111.410679">
        <ele>138.045590</ele>
        <time>2026-08-18T09:12:22.000Z</time>
      </trkpt>
      <trkpt lat="22.820887" lon="111.410765">
        <ele>137.927899</ele>
        <time>2026-08-18T09:12:23.000Z</time>
      </trkpt>
      <trkpt lat="22.820883" lon="111.410851">
        <ele>137.810394</ele>
        <time>2026-08-18T09:12:24.000Z</time>
      </trkpt>
      <trkpt lat="22.820881" lon="111.410936">
        <ele>137.694365</ele>
        <time>2026-08-18T09:12:25.000Z</time>
      </trkpt>
      <trkpt lat="22.820879" lon="111.411021">
        <ele>137.578336</ele>
        <time>2026-08-18T09:12:26.000Z</time>
      </trkpt>
      <trkpt lat="22.820877" lon="111.411106">
        <ele>137.462307</ele>
        <time>2026-08-18T09:12:27.000Z</time>
      </trkpt>
      <trkpt lat="22.820875" lon="111.411191">
        <ele>137.346278</ele>
        <time>2026-08-18T09:12:28.000Z</time>
      </trkpt>
      <trkpt lat="22.820874" lon="111.411276">
        <ele>137.230277</ele>
        <time>2026-08-18T09:12:29.000Z</time>
      </trkpt>
      <trkpt lat="22.820874" lon="111.411359">
        <ele>137.117015</ele>
        <time>2026-08-18T09:12:30.000Z</time>
      </trkpt>
      <trkpt lat="22.820875" lon="111.411440">
        <ele>137.006472</ele>
        <time>2026-08-18T09:12:31.000Z</time>
      </trkpt>
      <trkpt lat="22.820877" lon="111.411521">
        <ele>136.895900</ele>
        <time>2026-08-18T09:12:32.000Z</time>
      </trkpt>
      <trkpt lat="22.820881" lon="111.411602">
        <ele>136.785209</ele>
        <time>2026-08-18T09:12:33.000Z</time>
      </trkpt>
      <trkpt lat="22.820887" lon="111.411683">
        <ele>136.674320</ele>
        <time>2026-08-18T09:12:34.000Z</time>
      </trkpt>
      <trkpt lat="22.820893" lon="111.411765">
        <ele>136.562070</ele>
        <time>2026-08-18T09:12:35.000Z</time>
      </trkpt>
      <trkpt lat="22.820900" lon="111.411847">
        <ele>136.497611</ele>
        <time>2026-08-18T09:12:36.000Z</time>
      </trkpt>
      <trkpt lat="22.820908" lon="111.411928">
        <ele>136.436895</ele>
        <time>2026-08-18T09:12:37.000Z</time>
      </trkpt>
      <trkpt lat="22.820916" lon="111.412008">
        <ele>136.376919</ele>
        <time>2026-08-18T09:12:38.000Z</time>
      </trkpt>
      <trkpt lat="22.820926" lon="111.412088">
        <ele>136.316748</ele>
        <time>2026-08-18T09:12:39.000Z</time>
      </trkpt>
      <trkpt lat="22.820937" lon="111.412168">
        <ele>136.256463</ele>
        <time>2026-08-18T09:12:40.000Z</time>
      </trkpt>
      <trkpt lat="22.820948" lon="111.412246">
        <ele>136.197651</ele>
        <time>2026-08-18T09:12:41.000Z</time>
      </trkpt>
      <trkpt lat="22.820960" lon="111.412325">
        <ele>136.137977</ele>
        <time>2026-08-18T09:12:42.000Z</time>
      </trkpt>
      <trkpt lat="22.820973" lon="111.412407">
        <ele>136.075963</ele>
        <time>2026-08-18T09:12:43.000Z</time>
      </trkpt>
      <trkpt lat="22.820987" lon="111.412487">
        <ele>136.015272</ele>
        <time>2026-08-18T09:12:44.000Z</time>
      </trkpt>
      <trkpt lat="22.821001" lon="111.412567">
        <ele>135.954582</ele>
        <time>2026-08-18T09:12:45.000Z</time>
      </trkpt>
      <trkpt lat="22.821019" lon="111.412644">
        <ele>135.895375</ele>
        <time>2026-08-18T09:12:46.000Z</time>
      </trkpt>
      <trkpt lat="22.821039" lon="111.412721">
        <ele>135.835750</ele>
        <time>2026-08-18T09:12:47.000Z</time>
      </trkpt>
      <trkpt lat="22.821061" lon="111.412797">
        <ele>135.776378</ele>
        <time>2026-08-18T09:12:48.000Z</time>
      </trkpt>
      <trkpt lat="22.821085" lon="111.412871">
        <ele>135.717910</ele>
        <time>2026-08-18T09:12:49.000Z</time>
      </trkpt>
      <trkpt lat="22.821110" lon="111.412944">
        <ele>135.659868</ele>
        <time>2026-08-18T09:12:50.000Z</time>
      </trkpt>
      <trkpt lat="22.821137" lon="111.413015">
        <ele>135.602623</ele>
        <time>2026-08-18T09:12:51.000Z</time>
      </trkpt>
      <trkpt lat="22.821165" lon="111.413085">
        <ele>135.545750</ele>
        <time>2026-08-18T09:12:52.000Z</time>
      </trkpt>
      <trkpt lat="22.821193" lon="111.413155">
        <ele>135.488876</ele>
        <time>2026-08-18T09:12:53.000Z</time>
      </trkpt>
      <trkpt lat="22.821222" lon="111.413223">
        <ele>135.433033</ele>
        <time>2026-08-18T09:12:54.000Z</time>
      </trkpt>
      <trkpt lat="22.821252" lon="111.413290">
        <ele>135.377516</ele>
        <time>2026-08-18T09:12:55.000Z</time>
      </trkpt>
      <trkpt lat="22.821282" lon="111.413356">
        <ele>135.322669</ele>
        <time>2026-08-18T09:12:56.000Z</time>
      </trkpt>
      <trkpt lat="22.821316" lon="111.413420">
        <ele>135.267612</ele>
        <time>2026-08-18T09:12:57.000Z</time>
      </trkpt>
      <trkpt lat="22.821350" lon="111.413485">
        <ele>135.211909</ele>
        <time>2026-08-18T09:12:58.000Z</time>
      </trkpt>
      <trkpt lat="22.821382" lon="111.413548">
        <ele>135.158296</ele>
        <time>2026-08-18T09:12:59.000Z</time>
      </trkpt>
      <trkpt lat="22.821415" lon="111.413613">
        <ele>135.102988</ele>
        <time>2026-08-18T09:13:00.000Z</time>
      </trkpt>
      <trkpt lat="22.821449" lon="111.413677">
        <ele>135.084464</ele>
        <time>2026-08-18T09:13:01.000Z</time>
      </trkpt>
      <trkpt lat="22.821484" lon="111.413739">
        <ele>135.067672</ele>
        <time>2026-08-18T09:13:02.000Z</time>
      </trkpt>
      <trkpt lat="22.821520" lon="111.413800">
        <ele>135.050944</ele>
        <time>2026-08-18T09:13:03.000Z</time>
      </trkpt>
      <trkpt lat="22.821558" lon="111.413851">
        <ele>135.035798</ele>
        <time>2026-08-18T09:13:04.000Z</time>
      </trkpt>
      <trkpt lat="22.821597" lon="111.413903">
        <ele>135.020314</ele>
        <time>2026-08-18T09:13:05.000Z</time>
      </trkpt>
      <trkpt lat="22.821637" lon="111.413960">
        <ele>135.003768</ele>
        <time>2026-08-18T09:13:06.000Z</time>
      </trkpt>
      <trkpt lat="22.821679" lon="111.414015">
        <ele>134.987273</ele>
        <time>2026-08-18T09:13:07.000Z</time>
      </trkpt>
      <trkpt lat="22.821720" lon="111.414068">
        <ele>134.971292</ele>
        <time>2026-08-18T09:13:08.000Z</time>
      </trkpt>
      <trkpt lat="22.821761" lon="111.414121">
        <ele>134.955312</ele>
        <time>2026-08-18T09:13:09.000Z</time>
      </trkpt>
      <trkpt lat="22.821803" lon="111.414174">
        <ele>134.939169</ele>
        <time>2026-08-18T09:13:10.000Z</time>
      </trkpt>
      <trkpt lat="22.821846" lon="111.414224">
        <ele>134.923375</ele>
        <time>2026-08-18T09:13:11.000Z</time>
      </trkpt>
      <trkpt lat="22.821887" lon="111.414273">
        <ele>134.908091</ele>
        <time>2026-08-18T09:13:12.000Z</time>
      </trkpt>
      <trkpt lat="22.821929" lon="111.414323">
        <ele>134.892467</ele>
        <time>2026-08-18T09:13:13.000Z</time>
      </trkpt>
      <trkpt lat="22.821972" lon="111.414372">
        <ele>134.876841</ele>
        <time>2026-08-18T09:13:14.000Z</time>
      </trkpt>
      <trkpt lat="22.822017" lon="111.414419">
        <ele>134.861189</ele>
        <time>2026-08-18T09:13:15.000Z</time>
      </trkpt>
      <trkpt lat="22.822061" lon="111.414466">
        <ele>134.845717</ele>
        <time>2026-08-18T09:13:16.000Z</time>
      </trkpt>
      <trkpt lat="22.822105" lon="111.414514">
        <ele>134.830082</ele>
        <time>2026-08-18T09:13:17.000Z</time>
      </trkpt>
      <trkpt lat="22.822149" lon="111.414560">
        <ele>134.814772</ele>
        <time>2026-08-18T09:13:18.000Z</time>
      </trkpt>
      <trkpt lat="22.822193" lon="111.414606">
        <ele>134.799461</ele>
        <time>2026-08-18T09:13:19.000Z</time>
      </trkpt>
      <trkpt lat="22.822238" lon="111.414650">
        <ele>134.784282</ele>
        <time>2026-08-18T09:13:20.000Z</time>
      </trkpt>
      <trkpt lat="22.822282" lon="111.414696">
        <ele>134.768971</ele>
        <time>2026-08-18T09:13:21.000Z</time>
      </trkpt>
      <trkpt lat="22.822326" lon="111.414742">
        <ele>134.753660</ele>
        <time>2026-08-18T09:13:22.000Z</time>
      </trkpt>
      <trkpt lat="22.822370" lon="111.414787">
        <ele>134.738508</ele>
        <time>2026-08-18T09:13:23.000Z</time>
      </trkpt>
      <trkpt lat="22.822413" lon="111.414831">
        <ele>134.723698</ele>
        <time>2026-08-18T09:13:24.000Z</time>
      </trkpt>
      <trkpt lat="22.822456" lon="111.414872">
        <ele>134.709353</ele>
        <time>2026-08-18T09:13:25.000Z</time>
      </trkpt>
      <trkpt lat="22.822500" lon="111.414912">
        <ele>134.694969</ele>
        <time>2026-08-18T09:13:26.000Z</time>
      </trkpt>
      <trkpt lat="22.822545" lon="111.414952">
        <ele>134.680392</ele>
        <time>2026-08-18T09:13:27.000Z</time>
      </trkpt>
      <trkpt lat="22.822586" lon="111.414993">
        <ele>134.666421</ele>
        <time>2026-08-18T09:13:28.000Z</time>
      </trkpt>
      <trkpt lat="22.822627" lon="111.415034">
        <ele>134.652449</ele>
        <time>2026-08-18T09:13:29.000Z</time>
      </trkpt>
      <trkpt lat="22.822667" lon="111.415076">
        <ele>134.755633</ele>
        <time>2026-08-18T09:13:30.000Z</time>
      </trkpt>
      <trkpt lat="22.822706" lon="111.415113">
        <ele>134.872869</ele>
        <time>2026-08-18T09:13:31.000Z</time>
      </trkpt>
      <trkpt lat="22.822743" lon="111.415152">
        <ele>134.989603</ele>
        <time>2026-08-18T09:13:32.000Z</time>
      </trkpt>
      <trkpt lat="22.822780" lon="111.415188">
        <ele>135.102068</ele>
        <time>2026-08-18T09:13:33.000Z</time>
      </trkpt>
      <trkpt lat="22.822817" lon="111.415224">
        <ele>135.214532</ele>
        <time>2026-08-18T09:13:34.000Z</time>
      </trkpt>
      <trkpt lat="22.822854" lon="111.415259">
        <ele>135.325614</ele>
        <time>2026-08-18T09:13:35.000Z</time>
      </trkpt>
      <trkpt lat="22.822889" lon="111.415294">
        <ele>135.433327</ele>
        <time>2026-08-18T09:13:36.000Z</time>
      </trkpt>
      <trkpt lat="22.822926" lon="111.415331">
        <ele>135.547194</ele>
        <time>2026-08-18T09:13:37.000Z</time>
      </trkpt>
      <trkpt lat="22.822962" lon="111.415368">
        <ele>135.659408</ele>
        <time>2026-08-18T09:13:38.000Z</time>
      </trkpt>
      <trkpt lat="22.822999" lon="111.415405">
        <ele>135.773275</ele>
        <time>2026-08-18T09:13:39.000Z</time>
      </trkpt>
      <trkpt lat="22.823034" lon="111.415442">
        <ele>135.883857</ele>
        <time>2026-08-18T09:13:40.000Z</time>
      </trkpt>
      <trkpt lat="22.823069" lon="111.415478">
        <ele>135.992994</ele>
        <time>2026-08-18T09:13:41.000Z</time>
      </trkpt>
      <trkpt lat="22.823105" lon="111.415514">
        <ele>136.103784</ele>
        <time>2026-08-18T09:13:42.000Z</time>
      </trkpt>
      <trkpt lat="22.823141" lon="111.415550">
        <ele>136.214573</ele>
        <time>2026-08-18T09:13:43.000Z</time>
      </trkpt>
      <trkpt lat="22.823177" lon="111.415584">
        <ele>136.322579</ele>
        <time>2026-08-18T09:13:44.000Z</time>
      </trkpt>
      <trkpt lat="22.823212" lon="111.415620">
        <ele>136.431716</ele>
        <time>2026-08-18T09:13:45.000Z</time>
      </trkpt>
      <trkpt lat="22.823249" lon="111.415654">
        <ele>136.541439</ele>
        <time>2026-08-18T09:13:46.000Z</time>
      </trkpt>
      <trkpt lat="22.823284" lon="111.415686">
        <ele>136.645013</ele>
        <time>2026-08-18T09:13:47.000Z</time>
      </trkpt>
      <trkpt lat="22.823317" lon="111.415718">
        <ele>136.745168</ele>
        <time>2026-08-18T09:13:48.000Z</time>
      </trkpt>
      <trkpt lat="22.823347" lon="111.415751">
        <ele>136.841843</ele>
        <time>2026-08-18T09:13:49.000Z</time>
      </trkpt>
      <trkpt lat="22.823378" lon="111.415781">
        <ele>136.935844</ele>
        <time>2026-08-18T09:13:50.000Z</time>
      </trkpt>
      <trkpt lat="22.823410" lon="111.415809">
        <ele>137.028872</ele>
        <time>2026-08-18T09:13:51.000Z</time>
      </trkpt>
      <trkpt lat="22.823440" lon="111.415837">
        <ele>137.118422</ele>
        <time>2026-08-18T09:13:52.000Z</time>
      </trkpt>
      <trkpt lat="22.823468" lon="111.415866">
        <ele>137.206019</ele>
        <time>2026-08-18T09:13:53.000Z</time>
      </trkpt>
      <trkpt lat="22.823496" lon="111.415893">
        <ele>137.290789</ele>
        <time>2026-08-18T09:13:54.000Z</time>
      </trkpt>
      <trkpt lat="22.823524" lon="111.415919">
        <ele>137.374188</ele>
        <time>2026-08-18T09:13:55.000Z</time>
      </trkpt>
      <trkpt lat="22.823550" lon="111.415944">
        <ele>137.452804</ele>
        <time>2026-08-18T09:13:56.000Z</time>
      </trkpt>
      <trkpt lat="22.823577" lon="111.415968">
        <ele>137.531790</ele>
        <time>2026-08-18T09:13:57.000Z</time>
      </trkpt>
      <trkpt lat="22.823602" lon="111.415992">
        <ele>137.607329</ele>
        <time>2026-08-18T09:13:58.000Z</time>
      </trkpt>
      <trkpt lat="22.823626" lon="111.416017">
        <ele>137.682618</ele>
        <time>2026-08-18T09:13:59.000Z</time>
      </trkpt>
      <trkpt lat="22.823650" lon="111.416040">
        <ele>137.755080</ele>
        <time>2026-08-18T09:14:00.000Z</time>
      </trkpt>
      <trkpt lat="22.823674" lon="111.416063">
        <ele>137.827542</ele>
        <time>2026-08-18T09:14:01.000Z</time>
      </trkpt>
      <trkpt lat="22.823697" lon="111.416086">
        <ele>137.898325</ele>
        <time>2026-08-18T09:14:02.000Z</time>
      </trkpt>
      <trkpt lat="22.823721" lon="111.416109">
        <ele>137.970787</ele>
        <time>2026-08-18T09:14:03.000Z</time>
      </trkpt>
      <trkpt lat="22.823743" lon="111.416131">
        <ele>138.038492</ele>
        <time>2026-08-18T09:14:04.000Z</time>
      </trkpt>
      <trkpt lat="22.823766" lon="111.416151">
        <ele>138.105192</ele>
        <time>2026-08-18T09:14:05.000Z</time>
      </trkpt>
      <trkpt lat="22.823787" lon="111.416173">
        <ele>138.171251</ele>
        <time>2026-08-18T09:14:06.000Z</time>
      </trkpt>
      <trkpt lat="22.823807" lon="111.416196">
        <ele>138.237202</ele>
        <time>2026-08-18T09:14:07.000Z</time>
      </trkpt>
      <trkpt lat="22.823828" lon="111.416218">
        <ele>138.303260</ele>
        <time>2026-08-18T09:14:08.000Z</time>
      </trkpt>
      <trkpt lat="22.823848" lon="111.416239">
        <ele>138.366242</ele>
        <time>2026-08-18T09:14:09.000Z</time>
      </trkpt>
      <trkpt lat="22.823869" lon="111.416259">
        <ele>138.429474</ele>
        <time>2026-08-18T09:14:10.000Z</time>
      </trkpt>
      <trkpt lat="22.823888" lon="111.416280">
        <ele>138.490850</ele>
        <time>2026-08-18T09:14:11.000Z</time>
      </trkpt>
      <trkpt lat="22.823906" lon="111.416302">
        <ele>138.552207</ele>
        <time>2026-08-18T09:14:12.000Z</time>
      </trkpt>
      <trkpt lat="22.823924" lon="111.416323">
        <ele>138.612019</ele>
        <time>2026-08-18T09:14:13.000Z</time>
      </trkpt>
      <trkpt lat="22.823943" lon="111.416345">
        <ele>138.674901</ele>
        <time>2026-08-18T09:14:14.000Z</time>
      </trkpt>
      <trkpt lat="22.823962" lon="111.416365">
        <ele>138.727396</ele>
        <time>2026-08-18T09:14:15.000Z</time>
      </trkpt>
      <trkpt lat="22.823981" lon="111.416385">
        <ele>138.756655</ele>
        <time>2026-08-18T09:14:16.000Z</time>
      </trkpt>
      <trkpt lat="22.823999" lon="111.416406">
        <ele>138.785868</ele>
        <time>2026-08-18T09:14:17.000Z</time>
      </trkpt>
      <trkpt lat="22.824021" lon="111.416424">
        <ele>138.816321</ele>
        <time>2026-08-18T09:14:18.000Z</time>
      </trkpt>
      <trkpt lat="22.824044" lon="111.416443">
        <ele>138.848271</ele>
        <time>2026-08-18T09:14:19.000Z</time>
      </trkpt>
      <trkpt lat="22.824066" lon="111.416463">
        <ele>138.879993</ele>
        <time>2026-08-18T09:14:20.000Z</time>
      </trkpt>
      <trkpt lat="22.824087" lon="111.416483">
        <ele>138.910876</ele>
        <time>2026-08-18T09:14:21.000Z</time>
      </trkpt>
      <trkpt lat="22.824108" lon="111.416504">
        <ele>138.942440</ele>
        <time>2026-08-18T09:14:22.000Z</time>
      </trkpt>
      <trkpt lat="22.824129" lon="111.416525">
        <ele>138.974005</ele>
        <time>2026-08-18T09:14:23.000Z</time>
      </trkpt>
      <trkpt lat="22.824151" lon="111.416545">
        <ele>139.005727</ele>
        <time>2026-08-18T09:14:24.000Z</time>
      </trkpt>
      <trkpt lat="22.824173" lon="111.416566">
        <ele>139.038113</ele>
        <time>2026-08-18T09:14:25.000Z</time>
      </trkpt>
      <trkpt lat="22.824195" lon="111.416587">
        <ele>139.070498</ele>
        <time>2026-08-18T09:14:26.000Z</time>
      </trkpt>
      <trkpt lat="22.824217" lon="111.416610">
        <ele>139.104264</ele>
        <time>2026-08-18T09:14:27.000Z</time>
      </trkpt>
      <trkpt lat="22.824238" lon="111.416632">
        <ele>139.136528</ele>
        <time>2026-08-18T09:14:28.000Z</time>
      </trkpt>
      <trkpt lat="22.824260" lon="111.416654">
        <ele>139.169595</ele>
        <time>2026-08-18T09:14:29.000Z</time>
      </trkpt>
      <trkpt lat="22.824281" lon="111.416675">
        <ele>139.201160</ele>
        <time>2026-08-18T09:14:30.000Z</time>
      </trkpt>
      <trkpt lat="22.824304" lon="111.416694">
        <ele>139.233109</ele>
        <time>2026-08-18T09:14:31.000Z</time>
      </trkpt>
      <trkpt lat="22.824325" lon="111.416714">
        <ele>139.263992</ele>
        <time>2026-08-18T09:14:32.000Z</time>
      </trkpt>
      <trkpt lat="22.824346" lon="111.416736">
        <ele>139.296256</ele>
        <time>2026-08-18T09:14:33.000Z</time>
      </trkpt>
      <trkpt lat="22.824367" lon="111.416759">
        <ele>139.329235</ele>
        <time>2026-08-18T09:14:34.000Z</time>
      </trkpt>
      <trkpt lat="22.824390" lon="111.416782">
        <ele>139.363805</ele>
        <time>2026-08-18T09:14:35.000Z</time>
      </trkpt>
      <trkpt lat="22.824412" lon="111.416804">
        <ele>139.396873</ele>
        <time>2026-08-18T09:14:36.000Z</time>
      </trkpt>
      <trkpt lat="22.824436" lon="111.416827">
        <ele>139.432264</ele>
        <time>2026-08-18T09:14:37.000Z</time>
      </trkpt>
      <trkpt lat="22.824459" lon="111.416850">
        <ele>139.466834</ele>
        <time>2026-08-18T09:14:38.000Z</time>
      </trkpt>
      <trkpt lat="22.824482" lon="111.416873">
        <ele>139.501405</ele>
        <time>2026-08-18T09:14:39.000Z</time>
      </trkpt>
      <trkpt lat="22.824505" lon="111.416896">
        <ele>139.535975</ele>
        <time>2026-08-18T09:14:40.000Z</time>
      </trkpt>
      <trkpt lat="22.824527" lon="111.416919">
        <ele>139.569741</ele>
        <time>2026-08-18T09:14:41.000Z</time>
      </trkpt>
      <trkpt lat="22.824551" lon="111.416942">
        <ele>139.605132</ele>
        <time>2026-08-18T09:14:42.000Z</time>
      </trkpt>
      <trkpt lat="22.824575" lon="111.416965">
        <ele>139.640523</ele>
        <time>2026-08-18T09:14:43.000Z</time>
      </trkpt>
      <trkpt lat="22.824599" lon="111.416990">
        <ele>139.677295</ele>
        <time>2026-08-18T09:14:44.000Z</time>
      </trkpt>
      <trkpt lat="22.824624" lon="111.417013">
        <ele>139.713522</ele>
        <time>2026-08-18T09:14:45.000Z</time>
      </trkpt>
      <trkpt lat="22.824648" lon="111.417039">
        <ele>139.751006</ele>
        <time>2026-08-18T09:14:46.000Z</time>
      </trkpt>
      <trkpt lat="22.824673" lon="111.417065">
        <ele>139.789280</ele>
        <time>2026-08-18T09:14:47.000Z</time>
      </trkpt>
      <trkpt lat="22.824699" lon="111.417089">
        <ele>139.827009</ele>
        <time>2026-08-18T09:14:48.000Z</time>
      </trkpt>
      <trkpt lat="22.824724" lon="111.417114">
        <ele>139.864585</ele>
        <time>2026-08-18T09:14:49.000Z</time>
      </trkpt>
      <trkpt lat="22.824749" lon="111.417139">
        <ele>139.902162</ele>
        <time>2026-08-18T09:14:50.000Z</time>
      </trkpt>
      <trkpt lat="22.824772" lon="111.417165">
        <ele>139.938872</ele>
        <time>2026-08-18T09:14:51.000Z</time>
      </trkpt>
      <trkpt lat="22.824797" lon="111.417192">
        <ele>139.977858</ele>
        <time>2026-08-18T09:14:52.000Z</time>
      </trkpt>
      <trkpt lat="22.824824" lon="111.417219">
        <ele>140.018441</ele>
        <time>2026-08-18T09:14:53.000Z</time>
      </trkpt>
      <trkpt lat="22.824853" lon="111.417248">
        <ele>140.062030</ele>
        <time>2026-08-18T09:14:54.000Z</time>
      </trkpt>
      <trkpt lat="22.824882" lon="111.417275">
        <ele>140.104264</ele>
        <time>2026-08-18T09:14:55.000Z</time>
      </trkpt>
      <trkpt lat="22.824912" lon="111.417303">
        <ele>140.148001</ele>
        <time>2026-08-18T09:14:56.000Z</time>
      </trkpt>
      <trkpt lat="22.824943" lon="111.417332">
        <ele>140.193240</ele>
        <time>2026-08-18T09:14:57.000Z</time>
      </trkpt>
      <trkpt lat="22.824973" lon="111.417364">
        <ele>140.239737</ele>
        <time>2026-08-18T09:14:58.000Z</time>
      </trkpt>
      <trkpt lat="22.825007" lon="111.417395">
        <ele>140.288821</ele>
        <time>2026-08-18T09:14:59.000Z</time>
      </trkpt>
      <trkpt lat="22.825043" lon="111.417425">
        <ele>140.338991</ele>
        <time>2026-08-18T09:15:00.000Z</time>
      </trkpt>
      <trkpt lat="22.825079" lon="111.417457">
        <ele>140.390427</ele>
        <time>2026-08-18T09:15:01.000Z</time>
      </trkpt>
      <trkpt lat="22.825116" lon="111.417489">
        <ele>140.442722</ele>
        <time>2026-08-18T09:15:02.000Z</time>
      </trkpt>
      <trkpt lat="22.825153" lon="111.417522">
        <ele>140.495659</ele>
        <time>2026-08-18T09:15:03.000Z</time>
      </trkpt>
      <trkpt lat="22.825190" lon="111.417557">
        <ele>140.549912</ele>
        <time>2026-08-18T09:15:04.000Z</time>
      </trkpt>
      <trkpt lat="22.825227" lon="111.417594">
        <ele>140.605525</ele>
        <time>2026-08-18T09:15:05.000Z</time>
      </trkpt>
      <trkpt lat="22.825266" lon="111.417630">
        <ele>140.662118</ele>
        <time>2026-08-18T09:15:06.000Z</time>
      </trkpt>
      <trkpt lat="22.825306" lon="111.417666">
        <ele>140.706553</ele>
        <time>2026-08-18T09:15:07.000Z</time>
      </trkpt>
      <trkpt lat="22.825346" lon="111.417701">
        <ele>140.698256</ele>
        <time>2026-08-18T09:15:08.000Z</time>
      </trkpt>
      <trkpt lat="22.825387" lon="111.417738">
        <ele>140.689646</ele>
        <time>2026-08-18T09:15:09.000Z</time>
      </trkpt>
      <trkpt lat="22.825427" lon="111.417777">
        <ele>140.680962</ele>
        <time>2026-08-18T09:15:10.000Z</time>
      </trkpt>
      <trkpt lat="22.825467" lon="111.417815">
        <ele>140.672378</ele>
        <time>2026-08-18T09:15:11.000Z</time>
      </trkpt>
      <trkpt lat="22.825508" lon="111.417851">
        <ele>140.663862</ele>
        <time>2026-08-18T09:15:12.000Z</time>
      </trkpt>
      <trkpt lat="22.825548" lon="111.417889">
        <ele>140.655277</ele>
        <time>2026-08-18T09:15:13.000Z</time>
      </trkpt>
      <trkpt lat="22.825586" lon="111.417929">
        <ele>140.646729</ele>
        <time>2026-08-18T09:15:14.000Z</time>
      </trkpt>
      <trkpt lat="22.825624" lon="111.417969">
        <ele>140.638180</ele>
        <time>2026-08-18T09:15:15.000Z</time>
      </trkpt>
      <trkpt lat="22.825664" lon="111.418009">
        <ele>140.629397</ele>
        <time>2026-08-18T09:15:16.000Z</time>
      </trkpt>
      <trkpt lat="22.825703" lon="111.418051">
        <ele>140.620524</ele>
        <time>2026-08-18T09:15:17.000Z</time>
      </trkpt>
      <trkpt lat="22.825741" lon="111.418095">
        <ele>140.611551</ele>
        <time>2026-08-18T09:15:18.000Z</time>
      </trkpt>
      <trkpt lat="22.825780" lon="111.418139">
        <ele>140.602466</ele>
        <time>2026-08-18T09:15:19.000Z</time>
      </trkpt>
      <trkpt lat="22.825821" lon="111.418184">
        <ele>140.593050</ele>
        <time>2026-08-18T09:15:20.000Z</time>
      </trkpt>
      <trkpt lat="22.825861" lon="111.418230">
        <ele>140.583638</ele>
        <time>2026-08-18T09:15:21.000Z</time>
      </trkpt>
      <trkpt lat="22.825903" lon="111.418278">
        <ele>140.573789</ele>
        <time>2026-08-18T09:15:22.000Z</time>
      </trkpt>
      <trkpt lat="22.825942" lon="111.418325">
        <ele>140.564377</ele>
        <time>2026-08-18T09:15:23.000Z</time>
      </trkpt>
      <trkpt lat="22.825981" lon="111.418373">
        <ele>140.554855</ele>
        <time>2026-08-18T09:15:24.000Z</time>
      </trkpt>
      <trkpt lat="22.826020" lon="111.418422">
        <ele>140.545220</ele>
        <time>2026-08-18T09:15:25.000Z</time>
      </trkpt>
      <trkpt lat="22.826059" lon="111.418472">
        <ele>140.535472</ele>
        <time>2026-08-18T09:15:26.000Z</time>
      </trkpt>
      <trkpt lat="22.826094" lon="111.418522">
        <ele>140.526129</ele>
        <time>2026-08-18T09:15:27.000Z</time>
      </trkpt>
      <trkpt lat="22.826129" lon="111.418572">
        <ele>140.516785</ele>
        <time>2026-08-18T09:15:28.000Z</time>
      </trkpt>
      <trkpt lat="22.826164" lon="111.418623">
        <ele>140.507323</ele>
        <time>2026-08-18T09:15:29.000Z</time>
      </trkpt>
      <trkpt lat="22.826197" lon="111.418674">
        <ele>140.498049</ele>
        <time>2026-08-18T09:15:30.000Z</time>
      </trkpt>
      <trkpt lat="22.826231" lon="111.418725">
        <ele>140.488682</ele>
        <time>2026-08-18T09:15:31.000Z</time>
      </trkpt>
      <trkpt lat="22.826262" lon="111.418776">
        <ele>140.479591</ele>
        <time>2026-08-18T09:15:32.000Z</time>
      </trkpt>
      <trkpt lat="22.826293" lon="111.418829">
        <ele>140.470249</ele>
        <time>2026-08-18T09:15:33.000Z</time>
      </trkpt>
      <trkpt lat="22.826322" lon="111.418882">
        <ele>140.461077</ele>
        <time>2026-08-18T09:15:34.000Z</time>
      </trkpt>
      <trkpt lat="22.826351" lon="111.418934">
        <ele>140.452032</ele>
        <time>2026-08-18T09:15:35.000Z</time>
      </trkpt>
      <trkpt lat="22.826378" lon="111.418984">
        <ele>140.443408</ele>
        <time>2026-08-18T09:15:36.000Z</time>
      </trkpt>
      <trkpt lat="22.826402" lon="111.419036">
        <ele>140.434753</ele>
        <time>2026-08-18T09:15:37.000Z</time>
      </trkpt>
      <trkpt lat="22.826426" lon="111.419087">
        <ele>140.426232</ele>
        <time>2026-08-18T09:15:38.000Z</time>
      </trkpt>
      <trkpt lat="22.826451" lon="111.419137">
        <ele>140.418432</ele>
        <time>2026-08-18T09:15:39.000Z</time>
      </trkpt>
      <trkpt lat="22.826473" lon="111.419188">
        <ele>140.589149</ele>
        <time>2026-08-18T09:15:40.000Z</time>
      </trkpt>
      <trkpt lat="22.826495" lon="111.419238">
        <ele>140.757124</ele>
        <time>2026-08-18T09:15:41.000Z</time>
      </trkpt>
      <trkpt lat="22.826513" lon="111.419286">
        <ele>140.914232</ele>
        <time>2026-08-18T09:15:42.000Z</time>
      </trkpt>
      <trkpt lat="22.826531" lon="111.419331">
        <ele>141.062955</ele>
        <time>2026-08-18T09:15:43.000Z</time>
      </trkpt>
      <trkpt lat="22.826548" lon="111.419376">
        <ele>141.210399</ele>
        <time>2026-08-18T09:15:44.000Z</time>
      </trkpt>
      <trkpt lat="22.826562" lon="111.419419">
        <ele>141.348659</ele>
        <time>2026-08-18T09:15:45.000Z</time>
      </trkpt>
      <trkpt lat="22.826577" lon="111.419463">
        <ele>141.490889</ele>
        <time>2026-08-18T09:15:46.000Z</time>
      </trkpt>
      <trkpt lat="22.826590" lon="111.419506">
        <ele>141.628088</ele>
        <time>2026-08-18T09:15:47.000Z</time>
      </trkpt>
      <trkpt lat="22.826603" lon="111.419547">
        <ele>141.759540</ele>
        <time>2026-08-18T09:15:48.000Z</time>
      </trkpt>
      <trkpt lat="22.826614" lon="111.419587">
        <ele>141.886093</ele>
        <time>2026-08-18T09:15:49.000Z</time>
      </trkpt>
      <trkpt lat="22.826624" lon="111.419628">
        <ele>142.014673</ele>
        <time>2026-08-18T09:15:50.000Z</time>
      </trkpt>
      <trkpt lat="22.826633" lon="111.419669">
        <ele>142.142451</ele>
        <time>2026-08-18T09:15:51.000Z</time>
      </trkpt>
      <trkpt lat="22.826641" lon="111.419709">
        <ele>142.266544</ele>
        <time>2026-08-18T09:15:52.000Z</time>
      </trkpt>
      <trkpt lat="22.826651" lon="111.419748">
        <ele>142.389272</ele>
        <time>2026-08-18T09:15:53.000Z</time>
      </trkpt>
      <trkpt lat="22.826660" lon="111.419787">
        <ele>142.511160</ele>
        <time>2026-08-18T09:15:54.000Z</time>
      </trkpt>
      <trkpt lat="22.826667" lon="111.419826">
        <ele>142.631620</ele>
        <time>2026-08-18T09:15:55.000Z</time>
      </trkpt>
      <trkpt lat="22.826675" lon="111.419864">
        <ele>142.749793</ele>
        <time>2026-08-18T09:15:56.000Z</time>
      </trkpt>
      <trkpt lat="22.826682" lon="111.419903">
        <ele>142.870253</ele>
        <time>2026-08-18T09:15:57.000Z</time>
      </trkpt>
      <trkpt lat="22.826689" lon="111.419944">
        <ele>142.996669</ele>
        <time>2026-08-18T09:15:58.000Z</time>
      </trkpt>
      <trkpt lat="22.826697" lon="111.419981">
        <ele>143.111889</ele>
        <time>2026-08-18T09:15:59.000Z</time>
      </trkpt>
      <trkpt lat="22.826706" lon="111.420017">
        <ele>143.224976</ele>
        <time>2026-08-18T09:16:00.000Z</time>
      </trkpt>
      <trkpt lat="22.826715" lon="111.420052">
        <ele>143.335139</ele>
        <time>2026-08-18T09:16:01.000Z</time>
      </trkpt>
      <trkpt lat="22.826721" lon="111.420084">
        <ele>143.434142</ele>
        <time>2026-08-18T09:16:02.000Z</time>
      </trkpt>
      <trkpt lat="22.826723" lon="111.420119">
        <ele>143.540457</ele>
        <time>2026-08-18T09:16:03.000Z</time>
      </trkpt>
      <trkpt lat="22.826727" lon="111.420156">
        <ele>143.653401</ele>
        <time>2026-08-18T09:16:04.000Z</time>
      </trkpt>
      <trkpt lat="22.826732" lon="111.420190">
        <ele>143.757784</ele>
        <time>2026-08-18T09:16:05.000Z</time>
      </trkpt>
      <trkpt lat="22.826736" lon="111.420224">
        <ele>143.861700</ele>
        <time>2026-08-18T09:16:06.000Z</time>
      </trkpt>
      <trkpt lat="22.826738" lon="111.420260">
        <ele>143.971041</ele>
        <time>2026-08-18T09:16:07.000Z</time>
      </trkpt>
      <trkpt lat="22.826741" lon="111.420295">
        <ele>144.077610</ele>
        <time>2026-08-18T09:16:08.000Z</time>
      </trkpt>
      <trkpt lat="22.826744" lon="111.420327">
        <ele>144.175127</ele>
        <time>2026-08-18T09:16:09.000Z</time>
      </trkpt>
      <trkpt lat="22.826746" lon="111.420357">
        <ele>144.266317</ele>
        <time>2026-08-18T09:16:10.000Z</time>
      </trkpt>
      <trkpt lat="22.826747" lon="111.420387">
        <ele>144.357329</ele>
        <time>2026-08-18T09:16:11.000Z</time>
      </trkpt>
      <trkpt lat="22.826749" lon="111.420416">
        <ele>144.445495</ele>
        <time>2026-08-18T09:16:12.000Z</time>
      </trkpt>
      <trkpt lat="22.826750" lon="111.420446">
        <ele>144.536507</ele>
        <time>2026-08-18T09:16:13.000Z</time>
      </trkpt>
      <trkpt lat="22.826754" lon="111.420471">
        <ele>144.613434</ele>
        <time>2026-08-18T09:16:14.000Z</time>
      </trkpt>
      <trkpt lat="22.826756" lon="111.420496">
        <ele>144.689513</ele>
        <time>2026-08-18T09:16:15.000Z</time>
      </trkpt>
      <trkpt lat="22.826759" lon="111.420526">
        <ele>144.780999</ele>
        <time>2026-08-18T09:16:16.000Z</time>
      </trkpt>
      <trkpt lat="22.826760" lon="111.420556">
        <ele>144.872011</ele>
        <time>2026-08-18T09:16:17.000Z</time>
      </trkpt>
      <trkpt lat="22.826763" lon="111.420586">
        <ele>144.963497</ele>
        <time>2026-08-18T09:16:18.000Z</time>
      </trkpt>
      <trkpt lat="22.826765" lon="111.420616">
        <ele>145.054688</ele>
        <time>2026-08-18T09:16:19.000Z</time>
      </trkpt>
      <trkpt lat="22.826767" lon="111.420647">
        <ele>145.148902</ele>
        <time>2026-08-18T09:16:20.000Z</time>
      </trkpt>
      <trkpt lat="22.826767" lon="111.420676">
        <ele>145.236822</ele>
        <time>2026-08-18T09:16:21.000Z</time>
      </trkpt>
      <trkpt lat="22.826767" lon="111.420705">
        <ele>145.324743</ele>
        <time>2026-08-18T09:16:22.000Z</time>
      </trkpt>
      <trkpt lat="22.826767" lon="111.420735">
        <ele>145.415695</ele>
        <time>2026-08-18T09:16:23.000Z</time>
      </trkpt>
      <trkpt lat="22.826769" lon="111.420765">
        <ele>145.506886</ele>
        <time>2026-08-18T09:16:24.000Z</time>
      </trkpt>
      <trkpt lat="22.826770" lon="111.420795">
        <ele>145.597897</ele>
        <time>2026-08-18T09:16:25.000Z</time>
      </trkpt>
      <trkpt lat="22.826770" lon="111.420826">
        <ele>145.691882</ele>
        <time>2026-08-18T09:16:26.000Z</time>
      </trkpt>
      <trkpt lat="22.826768" lon="111.420860">
        <ele>145.795171</ele>
        <time>2026-08-18T09:16:27.000Z</time>
      </trkpt>
      <trkpt lat="22.826767" lon="111.420893">
        <ele>145.895272</ele>
        <time>2026-08-18T09:16:28.000Z</time>
      </trkpt>
      <trkpt lat="22.826768" lon="111.420926">
        <ele>145.995374</ele>
        <time>2026-08-18T09:16:29.000Z</time>
      </trkpt>
      <trkpt lat="22.826768" lon="111.420958">
        <ele>146.092390</ele>
        <time>2026-08-18T09:16:30.000Z</time>
      </trkpt>
      <trkpt lat="22.826767" lon="111.420987">
        <ele>146.180372</ele>
        <time>2026-08-18T09:16:31.000Z</time>
      </trkpt>
      <trkpt lat="22.826766" lon="111.421019">
        <ele>146.277444</ele>
        <time>2026-08-18T09:16:32.000Z</time>
      </trkpt>
      <trkpt lat="22.826765" lon="111.421050">
        <ele>146.375818</ele>
        <time>2026-08-18T09:16:33.000Z</time>
      </trkpt>
      <trkpt lat="22.826765" lon="111.421078">
        <ele>146.470568</ele>
        <time>2026-08-18T09:16:34.000Z</time>
      </trkpt>
      <trkpt lat="22.826765" lon="111.421109">
        <ele>146.575470</ele>
        <time>2026-08-18T09:16:35.000Z</time>
      </trkpt>
      <trkpt lat="22.826767" lon="111.421141">
        <ele>146.684004</ele>
        <time>2026-08-18T09:16:36.000Z</time>
      </trkpt>
      <trkpt lat="22.826768" lon="111.421171">
        <ele>146.785589</ele>
        <time>2026-08-18T09:16:37.000Z</time>
      </trkpt>
      <trkpt lat="22.826768" lon="111.421201">
        <ele>146.887106</ele>
        <time>2026-08-18T09:16:38.000Z</time>
      </trkpt>
      <trkpt lat="22.826768" lon="111.421231">
        <ele>146.988624</ele>
        <time>2026-08-18T09:16:39.000Z</time>
      </trkpt>
      <trkpt lat="22.826770" lon="111.421261">
        <ele>147.090407</ele>
        <time>2026-08-18T09:16:40.000Z</time>
      </trkpt>
      <trkpt lat="22.826772" lon="111.421292">
        <ele>147.195566</ele>
        <time>2026-08-18T09:16:41.000Z</time>
      </trkpt>
      <trkpt lat="22.826772" lon="111.421324">
        <ele>147.303851</ele>
        <time>2026-08-18T09:16:42.000Z</time>
      </trkpt>
      <trkpt lat="22.826771" lon="111.421355">
        <ele>147.408818</ele>
        <time>2026-08-18T09:16:43.000Z</time>
      </trkpt>
      <trkpt lat="22.826770" lon="111.421384">
        <ele>147.507020</ele>
        <time>2026-08-18T09:16:44.000Z</time>
      </trkpt>
      <trkpt lat="22.826770" lon="111.421415">
        <ele>147.611922</ele>
        <time>2026-08-18T09:16:45.000Z</time>
      </trkpt>
      <trkpt lat="22.826770" lon="111.421446">
        <ele>147.716824</ele>
        <time>2026-08-18T09:16:46.000Z</time>
      </trkpt>
      <trkpt lat="22.826770" lon="111.421476">
        <ele>147.818341</ele>
        <time>2026-08-18T09:16:47.000Z</time>
      </trkpt>
      <trkpt lat="22.826769" lon="111.421504">
        <ele>147.913163</ele>
        <time>2026-08-18T09:16:48.000Z</time>
      </trkpt>
      <trkpt lat="22.826766" lon="111.421534">
        <ele>148.015276</ele>
        <time>2026-08-18T09:16:49.000Z</time>
      </trkpt>
      <trkpt lat="22.826763" lon="111.421562">
        <ele>148.110664</ele>
        <time>2026-08-18T09:16:50.000Z</time>
      </trkpt>
      <trkpt lat="22.826762" lon="111.421590">
        <ele>148.205485</ele>
        <time>2026-08-18T09:16:51.000Z</time>
      </trkpt>
      <trkpt lat="22.826759" lon="111.421619">
        <ele>148.304235</ele>
        <time>2026-08-18T09:16:52.000Z</time>
      </trkpt>
      <trkpt lat="22.826757" lon="111.421650">
        <ele>148.409394</ele>
        <time>2026-08-18T09:16:53.000Z</time>
      </trkpt>
      <trkpt lat="22.826755" lon="111.421682">
        <ele>148.517928</ele>
        <time>2026-08-18T09:16:54.000Z</time>
      </trkpt>
      <trkpt lat="22.826754" lon="111.421713">
        <ele>148.622894</ele>
        <time>2026-08-18T09:16:55.000Z</time>
      </trkpt>
      <trkpt lat="22.826749" lon="111.421743">
        <ele>148.726059</ele>
        <time>2026-08-18T09:16:56.000Z</time>
      </trkpt>
      <trkpt lat="22.826744" lon="111.421773">
        <ele>148.829223</ele>
        <time>2026-08-18T09:16:57.000Z</time>
      </trkpt>
      <trkpt lat="22.826740" lon="111.421802">
        <ele>148.928450</ele>
        <time>2026-08-18T09:16:58.000Z</time>
      </trkpt>
      <trkpt lat="22.826734" lon="111.421832">
        <ele>149.032330</ele>
        <time>2026-08-18T09:16:59.000Z</time>
      </trkpt>
      <trkpt lat="22.826725" lon="111.421863">
        <ele>149.142313</ele>
        <time>2026-08-18T09:17:00.000Z</time>
      </trkpt>
      <trkpt lat="22.826721" lon="111.421893">
        <ele>149.244888</ele>
        <time>2026-08-18T09:17:01.000Z</time>
      </trkpt>
      <trkpt lat="22.826718" lon="111.421924">
        <ele>149.350366</ele>
        <time>2026-08-18T09:17:02.000Z</time>
      </trkpt>
      <trkpt lat="22.826713" lon="111.421956">
        <ele>149.460197</ele>
        <time>2026-08-18T09:17:03.000Z</time>
      </trkpt>
      <trkpt lat="22.826706" lon="111.421988">
        <ele>149.571491</ele>
        <time>2026-08-18T09:17:04.000Z</time>
      </trkpt>
      <trkpt lat="22.826701" lon="111.422018">
        <ele>149.674655</ele>
        <time>2026-08-18T09:17:05.000Z</time>
      </trkpt>
      <trkpt lat="22.826695" lon="111.422048">
        <ele>149.778536</ele>
        <time>2026-08-18T09:17:06.000Z</time>
      </trkpt>
      <trkpt lat="22.826690" lon="111.422079">
        <ele>149.885031</ele>
        <time>2026-08-18T09:17:07.000Z</time>
      </trkpt>
      <trkpt lat="22.826683" lon="111.422111">
        <ele>149.996325</ele>
        <time>2026-08-18T09:17:08.000Z</time>
      </trkpt>
      <trkpt lat="22.826676" lon="111.422144">
        <ele>150.110914</ele>
        <time>2026-08-18T09:17:09.000Z</time>
      </trkpt>
      <trkpt lat="22.826669" lon="111.422173">
        <ele>150.212358</ele>
        <time>2026-08-18T09:17:10.000Z</time>
      </trkpt>
      <trkpt lat="22.826661" lon="111.422203">
        <ele>150.318039</ele>
        <time>2026-08-18T09:17:11.000Z</time>
      </trkpt>
      <trkpt lat="22.826652" lon="111.422233">
        <ele>150.424800</ele>
        <time>2026-08-18T09:17:12.000Z</time>
      </trkpt>
      <trkpt lat="22.826641" lon="111.422263">
        <ele>150.534056</ele>
        <time>2026-08-18T09:17:13.000Z</time>
      </trkpt>
      <trkpt lat="22.826631" lon="111.422294">
        <ele>150.645197</ele>
        <time>2026-08-18T09:17:14.000Z</time>
      </trkpt>
      <trkpt lat="22.826621" lon="111.422325">
        <ele>150.756338</ele>
        <time>2026-08-18T09:17:15.000Z</time>
      </trkpt>
      <trkpt lat="22.826612" lon="111.422356">
        <ele>150.866321</ele>
        <time>2026-08-18T09:17:16.000Z</time>
      </trkpt>
      <trkpt lat="22.826603" lon="111.422387">
        <ele>150.976304</ele>
        <time>2026-08-18T09:17:17.000Z</time>
      </trkpt>
      <trkpt lat="22.826592" lon="111.422417">
        <ele>151.085561</ele>
        <time>2026-08-18T09:17:18.000Z</time>
      </trkpt>
      <trkpt lat="22.826578" lon="111.422449">
        <ele>151.205427</ele>
        <time>2026-08-18T09:17:19.000Z</time>
      </trkpt>
      <trkpt lat="22.826565" lon="111.422481">
        <ele>151.323765</ele>
        <time>2026-08-18T09:17:20.000Z</time>
      </trkpt>
      <trkpt lat="22.826552" lon="111.422511">
        <ele>151.435943</ele>
        <time>2026-08-18T09:17:21.000Z</time>
      </trkpt>
      <trkpt lat="22.826538" lon="111.422542">
        <ele>151.552761</ele>
        <time>2026-08-18T09:17:22.000Z</time>
      </trkpt>
      <trkpt lat="22.826524" lon="111.422571">
        <ele>151.663541</ele>
        <time>2026-08-18T09:17:23.000Z</time>
      </trkpt>
      <trkpt lat="22.826511" lon="111.422602">
        <ele>151.778791</ele>
        <time>2026-08-18T09:17:24.000Z</time>
      </trkpt>
      <trkpt lat="22.826496" lon="111.422630">
        <ele>151.888384</ele>
        <time>2026-08-18T09:17:25.000Z</time>
      </trkpt>
      <trkpt lat="22.826482" lon="111.422657">
        <ele>151.993216</ele>
        <time>2026-08-18T09:17:26.000Z</time>
      </trkpt>
      <trkpt lat="22.826467" lon="111.422685">
        <ele>152.102809</ele>
        <time>2026-08-18T09:17:27.000Z</time>
      </trkpt>
      <trkpt lat="22.826452" lon="111.422711">
        <ele>152.206606</ele>
        <time>2026-08-18T09:17:28.000Z</time>
      </trkpt>
      <trkpt lat="22.826435" lon="111.422740">
        <ele>152.322907</ele>
        <time>2026-08-18T09:17:29.000Z</time>
      </trkpt>
      <trkpt lat="22.826419" lon="111.422766">
        <ele>152.428698</ele>
        <time>2026-08-18T09:17:30.000Z</time>
      </trkpt>
      <trkpt lat="22.826400" lon="111.422791">
        <ele>152.538347</ele>
        <time>2026-08-18T09:17:31.000Z</time>
      </trkpt>
      <trkpt lat="22.826382" lon="111.422818">
        <ele>152.651109</ele>
        <time>2026-08-18T09:17:32.000Z</time>
      </trkpt>
      <trkpt lat="22.826364" lon="111.422844">
        <ele>152.761147</ele>
        <time>2026-08-18T09:17:33.000Z</time>
      </trkpt>
      <trkpt lat="22.826344" lon="111.422871">
        <ele>152.878363</ele>
        <time>2026-08-18T09:17:34.000Z</time>
      </trkpt>
      <trkpt lat="22.826325" lon="111.422895">
        <ele>152.976617</ele>
        <time>2026-08-18T09:17:35.000Z</time>
      </trkpt>
      <trkpt lat="22.826306" lon="111.422920">
        <ele>153.065964</ele>
        <time>2026-08-18T09:17:36.000Z</time>
      </trkpt>
      <trkpt lat="22.826285" lon="111.422945">
        <ele>153.159233</ele>
        <time>2026-08-18T09:17:37.000Z</time>
      </trkpt>
      <trkpt lat="22.826265" lon="111.422970">
        <ele>153.250513</ele>
        <time>2026-08-18T09:17:38.000Z</time>
      </trkpt>
      <trkpt lat="22.826245" lon="111.422995">
        <ele>153.341793</ele>
        <time>2026-08-18T09:17:39.000Z</time>
      </trkpt>
      <trkpt lat="22.826224" lon="111.423020">
        <ele>153.435062</ele>
        <time>2026-08-18T09:17:40.000Z</time>
      </trkpt>
      <trkpt lat="22.826205" lon="111.423044">
        <ele>153.522300</ele>
        <time>2026-08-18T09:17:41.000Z</time>
      </trkpt>
      <trkpt lat="22.826185" lon="111.423065">
        <ele>153.605565</ele>
        <time>2026-08-18T09:17:42.000Z</time>
      </trkpt>
      <trkpt lat="22.826164" lon="111.423090">
        <ele>153.698834</ele>
        <time>2026-08-18T09:17:43.000Z</time>
      </trkpt>
      <trkpt lat="22.826146" lon="111.423114">
        <ele>153.784153</ele>
        <time>2026-08-18T09:17:44.000Z</time>
      </trkpt>
      <trkpt lat="22.826124" lon="111.423138">
        <ele>153.877487</ele>
        <time>2026-08-18T09:17:45.000Z</time>
      </trkpt>
      <trkpt lat="22.826102" lon="111.423163">
        <ele>153.972797</ele>
        <time>2026-08-18T09:17:46.000Z</time>
      </trkpt>
      <trkpt lat="22.826080" lon="111.423188">
        <ele>154.068107</ele>
        <time>2026-08-18T09:17:47.000Z</time>
      </trkpt>
      <trkpt lat="22.826059" lon="111.423213">
        <ele>154.161375</ele>
        <time>2026-08-18T09:17:48.000Z</time>
      </trkpt>
      <trkpt lat="22.826039" lon="111.423236">
        <ele>154.248566</ele>
        <time>2026-08-18T09:17:49.000Z</time>
      </trkpt>
      <trkpt lat="22.826018" lon="111.423261">
        <ele>154.341835</ele>
        <time>2026-08-18T09:17:50.000Z</time>
      </trkpt>
      <trkpt lat="22.825995" lon="111.423285">
        <ele>154.437302</ele>
        <time>2026-08-18T09:17:51.000Z</time>
      </trkpt>
      <trkpt lat="22.825973" lon="111.423312">
        <ele>154.536674</ele>
        <time>2026-08-18T09:17:52.000Z</time>
      </trkpt>
      <trkpt lat="22.825951" lon="111.423340">
        <ele>154.638127</ele>
        <time>2026-08-18T09:17:53.000Z</time>
      </trkpt>
      <trkpt lat="22.825928" lon="111.423365">
        <ele>154.735527</ele>
        <time>2026-08-18T09:17:54.000Z</time>
      </trkpt>
      <trkpt lat="22.825908" lon="111.423390">
        <ele>154.826807</ele>
        <time>2026-08-18T09:17:55.000Z</time>
      </trkpt>
      <trkpt lat="22.825887" lon="111.423413">
        <ele>154.916077</ele>
        <time>2026-08-18T09:17:56.000Z</time>
      </trkpt>
      <trkpt lat="22.825866" lon="111.423437">
        <ele>155.007327</ele>
        <time>2026-08-18T09:17:57.000Z</time>
      </trkpt>
      <trkpt lat="22.825848" lon="111.423466">
        <ele>155.103733</ele>
        <time>2026-08-18T09:17:58.000Z</time>
      </trkpt>
      <trkpt lat="22.825826" lon="111.423491">
        <ele>155.199043</ele>
        <time>2026-08-18T09:17:59.000Z</time>
      </trkpt>
      <trkpt lat="22.825804" lon="111.423513">
        <ele>155.288552</ele>
        <time>2026-08-18T09:18:00.000Z</time>
      </trkpt>
      <trkpt lat="22.825781" lon="111.423540">
        <ele>155.389930</ele>
        <time>2026-08-18T09:18:01.000Z</time>
      </trkpt>
      <trkpt lat="22.825758" lon="111.423562">
        <ele>155.481661</ele>
        <time>2026-08-18T09:18:02.000Z</time>
      </trkpt>
      <trkpt lat="22.825732" lon="111.423583">
        <ele>155.578632</ele>
        <time>2026-08-18T09:18:03.000Z</time>
      </trkpt>
      <trkpt lat="22.825706" lon="111.423608">
        <ele>155.682566</ele>
        <time>2026-08-18T09:18:04.000Z</time>
      </trkpt>
      <trkpt lat="22.825676" lon="111.423632">
        <ele>155.794077</ele>
        <time>2026-08-18T09:18:05.000Z</time>
      </trkpt>
      <trkpt lat="22.825648" lon="111.423655">
        <ele>155.899144</ele>
        <time>2026-08-18T09:18:06.000Z</time>
      </trkpt>
      <trkpt lat="22.825623" lon="111.423676">
        <ele>155.993732</ele>
        <time>2026-08-18T09:18:07.000Z</time>
      </trkpt>
      <trkpt lat="22.825599" lon="111.423699">
        <ele>156.089531</ele>
        <time>2026-08-18T09:18:08.000Z</time>
      </trkpt>
      <trkpt lat="22.825575" lon="111.423726">
        <ele>156.192963</ele>
        <time>2026-08-18T09:18:09.000Z</time>
      </trkpt>
      <trkpt lat="22.825547" lon="111.423749">
        <ele>156.298030</ele>
        <time>2026-08-18T09:18:10.000Z</time>
      </trkpt>
      <trkpt lat="22.825523" lon="111.423776">
        <ele>156.401462</ele>
        <time>2026-08-18T09:18:11.000Z</time>
      </trkpt>
      <trkpt lat="22.825501" lon="111.423805">
        <ele>156.505029</ele>
        <time>2026-08-18T09:18:12.000Z</time>
      </trkpt>
      <trkpt lat="22.825477" lon="111.423830">
        <ele>156.604565</ele>
        <time>2026-08-18T09:18:13.000Z</time>
      </trkpt>
      <trkpt lat="22.825453" lon="111.423858">
        <ele>156.709999</ele>
        <time>2026-08-18T09:18:14.000Z</time>
      </trkpt>
      <trkpt lat="22.825427" lon="111.423884">
        <ele>156.815782</ele>
        <time>2026-08-18T09:18:15.000Z</time>
      </trkpt>
      <trkpt lat="22.825401" lon="111.423910">
        <ele>156.921566</ele>
        <time>2026-08-18T09:18:16.000Z</time>
      </trkpt>
      <trkpt lat="22.825372" lon="111.423928">
        <ele>157.021519</ele>
        <time>2026-08-18T09:18:17.000Z</time>
      </trkpt>
      <trkpt lat="22.825345" lon="111.423950">
        <ele>157.122537</ele>
        <time>2026-08-18T09:18:18.000Z</time>
      </trkpt>
      <trkpt lat="22.825320" lon="111.423973">
        <ele>157.220598</ele>
        <time>2026-08-18T09:18:19.000Z</time>
      </trkpt>
      <trkpt lat="22.825296" lon="111.423998">
        <ele>157.320134</ele>
        <time>2026-08-18T09:18:20.000Z</time>
      </trkpt>
      <trkpt lat="22.825274" lon="111.424024">
        <ele>157.417457</ele>
        <time>2026-08-18T09:18:21.000Z</time>
      </trkpt>
      <trkpt lat="22.825251" lon="111.424049">
        <ele>157.514857</ele>
        <time>2026-08-18T09:18:22.000Z</time>
      </trkpt>
      <trkpt lat="22.825228" lon="111.424076">
        <ele>157.616235</ele>
        <time>2026-08-18T09:18:23.000Z</time>
      </trkpt>
      <trkpt lat="22.825206" lon="111.424104">
        <ele>157.717689</ele>
        <time>2026-08-18T09:18:24.000Z</time>
      </trkpt>
      <trkpt lat="22.825182" lon="111.424130">
        <ele>157.819154</ele>
        <time>2026-08-18T09:18:25.000Z</time>
      </trkpt>
      <trkpt lat="22.825155" lon="111.424155">
        <ele>157.925346</ele>
        <time>2026-08-18T09:18:26.000Z</time>
      </trkpt>
      <trkpt lat="22.825130" lon="111.424178">
        <ele>158.023407</ele>
        <time>2026-08-18T09:18:27.000Z</time>
      </trkpt>
      <trkpt lat="22.825107" lon="111.424204">
        <ele>158.122778</ele>
        <time>2026-08-18T09:18:28.000Z</time>
      </trkpt>
      <trkpt lat="22.825082" lon="111.424230">
        <ele>158.226382</ele>
        <time>2026-08-18T09:18:29.000Z</time>
      </trkpt>
      <trkpt lat="22.825057" lon="111.424257">
        <ele>158.327183</ele>
        <time>2026-08-18T09:18:30.000Z</time>
      </trkpt>
      <trkpt lat="22.825035" lon="111.424286">
        <ele>158.393315</ele>
        <time>2026-08-18T09:18:31.000Z</time>
      </trkpt>
      <trkpt lat="22.825008" lon="111.424303">
        <ele>158.452948</ele>
        <time>2026-08-18T09:18:32.000Z</time>
      </trkpt>
      <trkpt lat="22.824985" lon="111.424332">
        <ele>158.520309</ele>
        <time>2026-08-18T09:18:33.000Z</time>
      </trkpt>
      <trkpt lat="22.824959" lon="111.424358">
        <ele>158.587855</ele>
        <time>2026-08-18T09:18:34.000Z</time>
      </trkpt>
      <trkpt lat="22.824933" lon="111.424383">
        <ele>158.654220</ele>
        <time>2026-08-18T09:18:35.000Z</time>
      </trkpt>
      <trkpt lat="22.824911" lon="111.424410">
        <ele>158.717672</ele>
        <time>2026-08-18T09:18:36.000Z</time>
      </trkpt>
      <trkpt lat="22.824888" lon="111.424432">
        <ele>158.776245</ele>
        <time>2026-08-18T09:18:37.000Z</time>
      </trkpt>
      <trkpt lat="22.824868" lon="111.424458">
        <ele>158.835872</ele>
        <time>2026-08-18T09:18:38.000Z</time>
      </trkpt>
      <trkpt lat="22.824845" lon="111.424486">
        <ele>158.901908</ele>
        <time>2026-08-18T09:18:39.000Z</time>
      </trkpt>
      <trkpt lat="22.824824" lon="111.424515">
        <ele>158.966842</ele>
        <time>2026-08-18T09:18:40.000Z</time>
      </trkpt>
      <trkpt lat="22.824801" lon="111.424543">
        <ele>159.032879</ele>
        <time>2026-08-18T09:18:41.000Z</time>
      </trkpt>
      <trkpt lat="22.824777" lon="111.424571">
        <ele>159.100202</ele>
        <time>2026-08-18T09:18:42.000Z</time>
      </trkpt>
      <trkpt lat="22.824753" lon="111.424598">
        <ele>159.166246</ele>
        <time>2026-08-18T09:18:43.000Z</time>
      </trkpt>
      <trkpt lat="22.824730" lon="111.424631">
        <ele>159.239091</ele>
        <time>2026-08-18T09:18:44.000Z</time>
      </trkpt>
      <trkpt lat="22.824709" lon="111.424661">
        <ele>159.305418</ele>
        <time>2026-08-18T09:18:45.000Z</time>
      </trkpt>
      <trkpt lat="22.824687" lon="111.424691">
        <ele>159.372918</ele>
        <time>2026-08-18T09:18:46.000Z</time>
      </trkpt>
      <trkpt lat="22.824664" lon="111.424721">
        <ele>159.441624</ele>
        <time>2026-08-18T09:18:47.000Z</time>
      </trkpt>
      <trkpt lat="22.824644" lon="111.424752">
        <ele>159.508248</ele>
        <time>2026-08-18T09:18:48.000Z</time>
      </trkpt>
      <trkpt lat="22.824622" lon="111.424784">
        <ele>159.578538</ele>
        <time>2026-08-18T09:18:49.000Z</time>
      </trkpt>
      <trkpt lat="22.824598" lon="111.424815">
        <ele>159.649819</ele>
        <time>2026-08-18T09:18:50.000Z</time>
      </trkpt>
      <trkpt lat="22.824574" lon="111.424847">
        <ele>159.722458</ele>
        <time>2026-08-18T09:18:51.000Z</time>
      </trkpt>
      <trkpt lat="22.824550" lon="111.424880">
        <ele>159.796471</ele>
        <time>2026-08-18T09:18:52.000Z</time>
      </trkpt>
      <trkpt lat="22.824526" lon="111.424909">
        <ele>159.865093</ele>
        <time>2026-08-18T09:18:53.000Z</time>
      </trkpt>
      <trkpt lat="22.824503" lon="111.424941">
        <ele>159.936541</ele>
        <time>2026-08-18T09:18:54.000Z</time>
      </trkpt>
      <trkpt lat="22.824480" lon="111.424973">
        <ele>160.007990</ele>
        <time>2026-08-18T09:18:55.000Z</time>
      </trkpt>
      <trkpt lat="22.824457" lon="111.425003">
        <ele>160.076695</ele>
        <time>2026-08-18T09:18:56.000Z</time>
      </trkpt>
      <trkpt lat="22.824436" lon="111.425033">
        <ele>160.143023</ele>
        <time>2026-08-18T09:18:57.000Z</time>
      </trkpt>
      <trkpt lat="22.824413" lon="111.425064">
        <ele>160.213091</ele>
        <time>2026-08-18T09:18:58.000Z</time>
      </trkpt>
      <trkpt lat="22.824389" lon="111.425094">
        <ele>160.283034</ele>
        <time>2026-08-18T09:18:59.000Z</time>
      </trkpt>
      <trkpt lat="22.824365" lon="111.425125">
        <ele>160.354315</ele>
        <time>2026-08-18T09:19:00.000Z</time>
      </trkpt>
      <trkpt lat="22.824342" lon="111.425155">
        <ele>160.423021</ele>
        <time>2026-08-18T09:19:01.000Z</time>
      </trkpt>
      <trkpt lat="22.824320" lon="111.425184">
        <ele>160.489152</ele>
        <time>2026-08-18T09:19:02.000Z</time>
      </trkpt>
      <trkpt lat="22.824297" lon="111.425216">
        <ele>160.560601</ele>
        <time>2026-08-18T09:19:03.000Z</time>
      </trkpt>
      <trkpt lat="22.824273" lon="111.425249">
        <ele>160.634614</ele>
        <time>2026-08-18T09:19:04.000Z</time>
      </trkpt>
      <trkpt lat="22.824250" lon="111.425280">
        <ele>160.704682</ele>
        <time>2026-08-18T09:19:05.000Z</time>
      </trkpt>
      <trkpt lat="22.824226" lon="111.425311">
        <ele>160.775964</ele>
        <time>2026-08-18T09:19:06.000Z</time>
      </trkpt>
      <trkpt lat="22.824202" lon="111.425342">
        <ele>160.847245</ele>
        <time>2026-08-18T09:19:07.000Z</time>
      </trkpt>
      <trkpt lat="22.824178" lon="111.425374">
        <ele>160.919884</ele>
        <time>2026-08-18T09:19:08.000Z</time>
      </trkpt>
      <trkpt lat="22.824153" lon="111.425407">
        <ele>160.995095</ele>
        <time>2026-08-18T09:19:09.000Z</time>
      </trkpt>
      <trkpt lat="22.824129" lon="111.425439">
        <ele>161.067734</ele>
        <time>2026-08-18T09:19:10.000Z</time>
      </trkpt>
      <trkpt lat="22.824106" lon="111.425471">
        <ele>161.139182</ele>
        <time>2026-08-18T09:19:11.000Z</time>
      </trkpt>
      <trkpt lat="22.824081" lon="111.425503">
        <ele>161.213042</ele>
        <time>2026-08-18T09:19:12.000Z</time>
      </trkpt>
      <trkpt lat="22.824057" lon="111.425533">
        <ele>161.282984</ele>
        <time>2026-08-18T09:19:13.000Z</time>
      </trkpt>
      <trkpt lat="22.824033" lon="111.425564">
        <ele>161.354266</ele>
        <time>2026-08-18T09:19:14.000Z</time>
      </trkpt>
      <trkpt lat="22.824008" lon="111.425596">
        <ele>161.428126</ele>
        <time>2026-08-18T09:19:15.000Z</time>
      </trkpt>
      <trkpt lat="22.823984" lon="111.425627">
        <ele>161.499407</ele>
        <time>2026-08-18T09:19:16.000Z</time>
      </trkpt>
      <trkpt lat="22.823959" lon="111.425660">
        <ele>161.574618</ele>
        <time>2026-08-18T09:19:17.000Z</time>
      </trkpt>
      <trkpt lat="22.823935" lon="111.425693">
        <ele>161.648631</ele>
        <time>2026-08-18T09:19:18.000Z</time>
      </trkpt>
      <trkpt lat="22.823912" lon="111.425725">
        <ele>161.720080</ele>
        <time>2026-08-18T09:19:19.000Z</time>
      </trkpt>
      <trkpt lat="22.823889" lon="111.425757">
        <ele>161.735595</ele>
        <time>2026-08-18T09:19:20.000Z</time>
      </trkpt>
      <trkpt lat="22.823866" lon="111.425787">
        <ele>161.699846</ele>
        <time>2026-08-18T09:19:21.000Z</time>
      </trkpt>
      <trkpt lat="22.823841" lon="111.425819">
        <ele>161.661415</ele>
        <time>2026-08-18T09:19:22.000Z</time>
      </trkpt>
      <trkpt lat="22.823818" lon="111.425848">
        <ele>161.626364</ele>
        <time>2026-08-18T09:19:23.000Z</time>
      </trkpt>
      <trkpt lat="22.823793" lon="111.425880">
        <ele>161.587933</ele>
        <time>2026-08-18T09:19:24.000Z</time>
      </trkpt>
      <trkpt lat="22.823767" lon="111.425911">
        <ele>161.549534</ele>
        <time>2026-08-18T09:19:25.000Z</time>
      </trkpt>
      <trkpt lat="22.823742" lon="111.425943">
        <ele>161.511103</ele>
        <time>2026-08-18T09:19:26.000Z</time>
      </trkpt>
      <trkpt lat="22.823717" lon="111.425973">
        <ele>161.474051</ele>
        <time>2026-08-18T09:19:27.000Z</time>
      </trkpt>
      <trkpt lat="22.823693" lon="111.426002">
        <ele>161.438344</ele>
        <time>2026-08-18T09:19:28.000Z</time>
      </trkpt>
      <trkpt lat="22.823668" lon="111.426033">
        <ele>161.400607</ele>
        <time>2026-08-18T09:19:29.000Z</time>
      </trkpt>
      <trkpt lat="22.823643" lon="111.426065">
        <ele>161.362176</ele>
        <time>2026-08-18T09:19:30.000Z</time>
      </trkpt>
      <trkpt lat="22.823619" lon="111.426096">
        <ele>161.325086</ele>
        <time>2026-08-18T09:19:31.000Z</time>
      </trkpt>
      <trkpt lat="22.823593" lon="111.426129">
        <ele>161.285313</ele>
        <time>2026-08-18T09:19:32.000Z</time>
      </trkpt>
      <trkpt lat="22.823568" lon="111.426161">
        <ele>161.246882</ele>
        <time>2026-08-18T09:19:33.000Z</time>
      </trkpt>
      <trkpt lat="22.823543" lon="111.426193">
        <ele>161.208450</ele>
        <time>2026-08-18T09:19:34.000Z</time>
      </trkpt>
      <trkpt lat="22.823518" lon="111.426226">
        <ele>161.169316</ele>
        <time>2026-08-18T09:19:35.000Z</time>
      </trkpt>
      <trkpt lat="22.823492" lon="111.426260">
        <ele>161.128842</ele>
        <time>2026-08-18T09:19:36.000Z</time>
      </trkpt>
      <trkpt lat="22.823466" lon="111.426292">
        <ele>161.089761</ele>
        <time>2026-08-18T09:19:37.000Z</time>
      </trkpt>
      <trkpt lat="22.823441" lon="111.426325">
        <ele>161.050626</ele>
        <time>2026-08-18T09:19:38.000Z</time>
      </trkpt>
      <trkpt lat="22.823417" lon="111.426356">
        <ele>161.013536</ele>
        <time>2026-08-18T09:19:39.000Z</time>
      </trkpt>
      <trkpt lat="22.823393" lon="111.426391">
        <ele>160.973570</ele>
        <time>2026-08-18T09:19:40.000Z</time>
      </trkpt>
      <trkpt lat="22.823368" lon="111.426423">
        <ele>160.935139</ele>
        <time>2026-08-18T09:19:41.000Z</time>
      </trkpt>
      <trkpt lat="22.823343" lon="111.426455">
        <ele>160.896708</ele>
        <time>2026-08-18T09:19:42.000Z</time>
      </trkpt>
      <trkpt lat="22.823319" lon="111.426488">
        <ele>160.858197</ele>
        <time>2026-08-18T09:19:43.000Z</time>
      </trkpt>
      <trkpt lat="22.823294" lon="111.426521">
        <ele>160.819062</ele>
        <time>2026-08-18T09:19:44.000Z</time>
      </trkpt>
      <trkpt lat="22.823267" lon="111.426554">
        <ele>160.778636</ele>
        <time>2026-08-18T09:19:45.000Z</time>
      </trkpt>
      <trkpt lat="22.823243" lon="111.426587">
        <ele>160.740125</ele>
        <time>2026-08-18T09:19:46.000Z</time>
      </trkpt>
      <trkpt lat="22.823217" lon="111.426621">
        <ele>160.699651</ele>
        <time>2026-08-18T09:19:47.000Z</time>
      </trkpt>
      <trkpt lat="22.823190" lon="111.426656">
        <ele>160.657837</ele>
        <time>2026-08-18T09:19:48.000Z</time>
      </trkpt>
      <trkpt lat="22.823162" lon="111.426693">
        <ele>160.613977</ele>
        <time>2026-08-18T09:19:49.000Z</time>
      </trkpt>
      <trkpt lat="22.823135" lon="111.426731">
        <ele>160.570020</ele>
        <time>2026-08-18T09:19:50.000Z</time>
      </trkpt>
      <trkpt lat="22.823106" lon="111.426764">
        <ele>160.528248</ele>
        <time>2026-08-18T09:19:51.000Z</time>
      </trkpt>
      <trkpt lat="22.823078" lon="111.426800">
        <ele>160.485093</ele>
        <time>2026-08-18T09:19:52.000Z</time>
      </trkpt>
      <trkpt lat="22.823046" lon="111.426836">
        <ele>160.439273</ele>
        <time>2026-08-18T09:19:53.000Z</time>
      </trkpt>
      <trkpt lat="22.823012" lon="111.426870">
        <ele>160.393312</ele>
        <time>2026-08-18T09:19:54.000Z</time>
      </trkpt>
      <trkpt lat="22.822970" lon="111.426900">
        <ele>160.343330</ele>
        <time>2026-08-18T09:19:55.000Z</time>
      </trkpt>
      <trkpt lat="22.822934" lon="111.426937">
        <ele>160.294041</ele>
        <time>2026-08-18T09:19:56.000Z</time>
      </trkpt>
      <trkpt lat="22.822896" lon="111.426974">
        <ele>160.243289</ele>
        <time>2026-08-18T09:19:57.000Z</time>
      </trkpt>
      <trkpt lat="22.822851" lon="111.427006">
        <ele>160.189809</ele>
        <time>2026-08-18T09:19:58.000Z</time>
      </trkpt>
      <trkpt lat="22.822808" lon="111.427040">
        <ele>160.136922</ele>
        <time>2026-08-18T09:19:59.000Z</time>
      </trkpt>
      <trkpt lat="22.822762" lon="111.427075">
        <ele>160.081076</ele>
        <time>2026-08-18T09:20:00.000Z</time>
      </trkpt>
      <trkpt lat="22.822718" lon="111.427106">
        <ele>160.028929</ele>
        <time>2026-08-18T09:20:01.000Z</time>
      </trkpt>
      <trkpt lat="22.822674" lon="111.427141">
        <ele>159.974699</ele>
        <time>2026-08-18T09:20:02.000Z</time>
      </trkpt>
      <trkpt lat="22.822627" lon="111.427176">
        <ele>159.703018</ele>
        <time>2026-08-18T09:20:03.000Z</time>
      </trkpt>
      <trkpt lat="22.822582" lon="111.427214">
        <ele>159.397108</ele>
        <time>2026-08-18T09:20:04.000Z</time>
      </trkpt>
      <trkpt lat="22.822533" lon="111.427248">
        <ele>159.085082</ele>
        <time>2026-08-18T09:20:05.000Z</time>
      </trkpt>
      <trkpt lat="22.822480" lon="111.427286">
        <ele>158.744285</ele>
        <time>2026-08-18T09:20:06.000Z</time>
      </trkpt>
      <trkpt lat="22.822425" lon="111.427327">
        <ele>158.386299</ele>
        <time>2026-08-18T09:20:07.000Z</time>
      </trkpt>
      <trkpt lat="22.822370" lon="111.427368">
        <ele>158.028314</ele>
        <time>2026-08-18T09:20:08.000Z</time>
      </trkpt>
      <trkpt lat="22.822314" lon="111.427410">
        <ele>157.663105</ele>
        <time>2026-08-18T09:20:09.000Z</time>
      </trkpt>
      <trkpt lat="22.822255" lon="111.427455">
        <ele>157.276211</ele>
        <time>2026-08-18T09:20:10.000Z</time>
      </trkpt>
      <trkpt lat="22.822192" lon="111.427501">
        <ele>156.868834</ele>
        <time>2026-08-18T09:20:11.000Z</time>
      </trkpt>
      <trkpt lat="22.822131" lon="111.427548">
        <ele>156.467471</ele>
        <time>2026-08-18T09:20:12.000Z</time>
      </trkpt>
      <trkpt lat="22.822066" lon="111.427595">
        <ele>156.048428</ele>
        <time>2026-08-18T09:20:13.000Z</time>
      </trkpt>
      <trkpt lat="22.821998" lon="111.427644">
        <ele>155.610508</ele>
        <time>2026-08-18T09:20:14.000Z</time>
      </trkpt>
      <trkpt lat="22.821929" lon="111.427693">
        <ele>155.168109</ele>
        <time>2026-08-18T09:20:15.000Z</time>
      </trkpt>
      <trkpt lat="22.821859" lon="111.427745">
        <ele>154.712999</ele>
        <time>2026-08-18T09:20:16.000Z</time>
      </trkpt>
      <trkpt lat="22.821788" lon="111.427796">
        <ele>154.256201</ele>
        <time>2026-08-18T09:20:17.000Z</time>
      </trkpt>
      <trkpt lat="22.821717" lon="111.427848">
        <ele>153.796654</ele>
        <time>2026-08-18T09:20:18.000Z</time>
      </trkpt>
      <trkpt lat="22.821645" lon="111.427901">
        <ele>153.329894</ele>
        <time>2026-08-18T09:20:19.000Z</time>
      </trkpt>
      <trkpt lat="22.821569" lon="111.427955">
        <ele>152.842535</ele>
        <time>2026-08-18T09:20:20.000Z</time>
      </trkpt>
      <trkpt lat="22.821493" lon="111.428010">
        <ele>152.352450</ele>
        <time>2026-08-18T09:20:21.000Z</time>
      </trkpt>
      <trkpt lat="22.821417" lon="111.428066">
        <ele>151.859603</ele>
        <time>2026-08-18T09:20:22.000Z</time>
      </trkpt>
      <trkpt lat="22.821339" lon="111.428122">
        <ele>151.357845</ele>
        <time>2026-08-18T09:20:23.000Z</time>
      </trkpt>
      <trkpt lat="22.821260" lon="111.428181">
        <ele>150.843341</ele>
        <time>2026-08-18T09:20:24.000Z</time>
      </trkpt>
      <trkpt lat="22.821182" lon="111.428237">
        <ele>150.341582</ele>
        <time>2026-08-18T09:20:25.000Z</time>
      </trkpt>
      <trkpt lat="22.821106" lon="111.428293">
        <ele>149.896414</ele>
        <time>2026-08-18T09:20:26.000Z</time>
      </trkpt>
      <trkpt lat="22.821029" lon="111.428353">
        <ele>149.439513</ele>
        <time>2026-08-18T09:20:27.000Z</time>
      </trkpt>
      <trkpt lat="22.820957" lon="111.428413">
        <ele>149.001959</ele>
        <time>2026-08-18T09:20:28.000Z</time>
      </trkpt>
      <trkpt lat="22.820882" lon="111.428477">
        <ele>148.542085</ele>
        <time>2026-08-18T09:20:29.000Z</time>
      </trkpt>
      <trkpt lat="22.820807" lon="111.428541">
        <ele>148.082210</ele>
        <time>2026-08-18T09:20:30.000Z</time>
      </trkpt>
      <trkpt lat="22.820730" lon="111.428615">
        <ele>147.586449</ele>
        <time>2026-08-18T09:20:31.000Z</time>
      </trkpt>
      <trkpt lat="22.820653" lon="111.428685">
        <ele>147.102288</ele>
        <time>2026-08-18T09:20:32.000Z</time>
      </trkpt>
      <trkpt lat="22.820579" lon="111.428755">
        <ele>146.629118</ele>
        <time>2026-08-18T09:20:33.000Z</time>
      </trkpt>
      <trkpt lat="22.820504" lon="111.428827">
        <ele>146.146463</ele>
        <time>2026-08-18T09:20:34.000Z</time>
      </trkpt>
      <trkpt lat="22.820432" lon="111.428903">
        <ele>145.662320</ele>
        <time>2026-08-18T09:20:35.000Z</time>
      </trkpt>
      <trkpt lat="22.820359" lon="111.428982">
        <ele>145.165391</ele>
        <time>2026-08-18T09:20:36.000Z</time>
      </trkpt>
      <trkpt lat="22.820286" lon="111.429067">
        <ele>144.649293</ele>
        <time>2026-08-18T09:20:37.000Z</time>
      </trkpt>
      <trkpt lat="22.820215" lon="111.429154">
        <ele>144.133099</ele>
        <time>2026-08-18T09:20:38.000Z</time>
      </trkpt>
      <trkpt lat="22.820147" lon="111.429242">
        <ele>143.622978</ele>
        <time>2026-08-18T09:20:39.000Z</time>
      </trkpt>
      <trkpt lat="22.820080" lon="111.429333">
        <ele>143.105595</ele>
        <time>2026-08-18T09:20:40.000Z</time>
      </trkpt>
      <trkpt lat="22.820013" lon="111.429424">
        <ele>142.588212</ele>
        <time>2026-08-18T09:20:41.000Z</time>
      </trkpt>
      <trkpt lat="22.819947" lon="111.429516">
        <ele>142.070324</ele>
        <time>2026-08-18T09:20:42.000Z</time>
      </trkpt>
      <trkpt lat="22.819881" lon="111.429604">
        <ele>141.588128</ele>
        <time>2026-08-18T09:20:43.000Z</time>
      </trkpt>
      <trkpt lat="22.819814" lon="111.429694">
        <ele>141.208992</ele>
        <time>2026-08-18T09:20:44.000Z</time>
      </trkpt>
      <trkpt lat="22.819748" lon="111.429788">
        <ele>140.821736</ele>
        <time>2026-08-18T09:20:45.000Z</time>
      </trkpt>
      <trkpt lat="22.819683" lon="111.429884">
        <ele>140.431361</ele>
        <time>2026-08-18T09:20:46.000Z</time>
      </trkpt>
      <trkpt lat="22.819617" lon="111.429979">
        <ele>140.041492</ele>
        <time>2026-08-18T09:20:47.000Z</time>
      </trkpt>
      <trkpt lat="22.819552" lon="111.430072">
        <ele>139.658996</ele>
        <time>2026-08-18T09:20:48.000Z</time>
      </trkpt>
      <trkpt lat="22.819488" lon="111.430166">
        <ele>139.276007</ele>
        <time>2026-08-18T09:20:49.000Z</time>
      </trkpt>
      <trkpt lat="22.819423" lon="111.430260">
        <ele>138.890894</ele>
        <time>2026-08-18T09:20:50.000Z</time>
      </trkpt>
      <trkpt lat="22.819357" lon="111.430353">
        <ele>138.506239</ele>
        <time>2026-08-18T09:20:51.000Z</time>
      </trkpt>
      <trkpt lat="22.819293" lon="111.430444">
        <ele>138.131111</ele>
        <time>2026-08-18T09:20:52.000Z</time>
      </trkpt>
      <trkpt lat="22.819230" lon="111.430535">
        <ele>137.758130</ele>
        <time>2026-08-18T09:20:53.000Z</time>
      </trkpt>
      <trkpt lat="22.819167" lon="111.430626">
        <ele>137.385149</ele>
        <time>2026-08-18T09:20:54.000Z</time>
      </trkpt>
      <trkpt lat="22.819106" lon="111.430717">
        <ele>137.016394</ele>
        <time>2026-08-18T09:20:55.000Z</time>
      </trkpt>
      <trkpt lat="22.819048" lon="111.430810">
        <ele>136.648400</ele>
        <time>2026-08-18T09:20:56.000Z</time>
      </trkpt>
      <trkpt lat="22.818988" lon="111.430898">
        <ele>136.289676</ele>
        <time>2026-08-18T09:20:57.000Z</time>
      </trkpt>
      <trkpt lat="22.818928" lon="111.430985">
        <ele>135.933581</ele>
        <time>2026-08-18T09:20:58.000Z</time>
      </trkpt>
      <trkpt lat="22.818869" lon="111.431070">
        <ele>135.584863</ele>
        <time>2026-08-18T09:20:59.000Z</time>
      </trkpt>
      <trkpt lat="22.818810" lon="111.431154">
        <ele>135.248187</ele>
        <time>2026-08-18T09:21:00.000Z</time>
      </trkpt>
      <trkpt lat="22.818749" lon="111.431234">
        <ele>135.114234</ele>
        <time>2026-08-18T09:21:01.000Z</time>
      </trkpt>
      <trkpt lat="22.818690" lon="111.431314">
        <ele>134.982048</ele>
        <time>2026-08-18T09:21:02.000Z</time>
      </trkpt>
      <trkpt lat="22.818636" lon="111.431396">
        <ele>134.852027</ele>
        <time>2026-08-18T09:21:03.000Z</time>
      </trkpt>
      <trkpt lat="22.818585" lon="111.431477">
        <ele>134.725468</ele>
        <time>2026-08-18T09:21:04.000Z</time>
      </trkpt>
      <trkpt lat="22.818532" lon="111.431557">
        <ele>134.598359</ele>
        <time>2026-08-18T09:21:05.000Z</time>
      </trkpt>
      <trkpt lat="22.818482" lon="111.431636">
        <ele>134.474720</ele>
        <time>2026-08-18T09:21:06.000Z</time>
      </trkpt>
      <trkpt lat="22.818432" lon="111.431712">
        <ele>134.354252</ele>
        <time>2026-08-18T09:21:07.000Z</time>
      </trkpt>
      <trkpt lat="22.818382" lon="111.431785">
        <ele>134.236913</ele>
        <time>2026-08-18T09:21:08.000Z</time>
      </trkpt>
      <trkpt lat="22.818331" lon="111.431856">
        <ele>134.120779</ele>
        <time>2026-08-18T09:21:09.000Z</time>
      </trkpt>
      <trkpt lat="22.818281" lon="111.431926">
        <ele>134.006523</ele>
        <time>2026-08-18T09:21:10.000Z</time>
      </trkpt>
      <trkpt lat="22.818232" lon="111.431996">
        <ele>133.893119</ele>
        <time>2026-08-18T09:21:11.000Z</time>
      </trkpt>
      <trkpt lat="22.818183" lon="111.432066">
        <ele>133.779715</ele>
        <time>2026-08-18T09:21:12.000Z</time>
      </trkpt>
      <trkpt lat="22.818133" lon="111.432136">
        <ele>133.665459</ele>
        <time>2026-08-18T09:21:13.000Z</time>
      </trkpt>
      <trkpt lat="22.818084" lon="111.432206">
        <ele>133.552055</ele>
        <time>2026-08-18T09:21:14.000Z</time>
      </trkpt>
      <trkpt lat="22.818034" lon="111.432274">
        <ele>133.439827</ele>
        <time>2026-08-18T09:21:15.000Z</time>
      </trkpt>
      <trkpt lat="22.817986" lon="111.432339">
        <ele>133.332370</ele>
        <time>2026-08-18T09:21:16.000Z</time>
      </trkpt>
      <trkpt lat="22.817942" lon="111.432406">
        <ele>133.226232</ele>
        <time>2026-08-18T09:21:17.000Z</time>
      </trkpt>
      <trkpt lat="22.817899" lon="111.432474">
        <ele>133.119839</ele>
        <time>2026-08-18T09:21:18.000Z</time>
      </trkpt>
      <trkpt lat="22.817856" lon="111.432541">
        <ele>133.014506</ele>
        <time>2026-08-18T09:21:19.000Z</time>
      </trkpt>
      <trkpt lat="22.817813" lon="111.432605">
        <ele>132.912326</ele>
        <time>2026-08-18T09:21:20.000Z</time>
      </trkpt>
      <trkpt lat="22.817771" lon="111.432670">
        <ele>132.809911</ele>
        <time>2026-08-18T09:21:21.000Z</time>
      </trkpt>
      <trkpt lat="22.817729" lon="111.432735">
        <ele>132.719636</ele>
        <time>2026-08-18T09:21:22.000Z</time>
      </trkpt>
      <trkpt lat="22.817688" lon="111.432800">
        <ele>132.660251</ele>
        <time>2026-08-18T09:21:23.000Z</time>
      </trkpt>
      <trkpt lat="22.817643" lon="111.432856">
        <ele>132.604236</ele>
        <time>2026-08-18T09:21:24.000Z</time>
      </trkpt>
      <trkpt lat="22.817598" lon="111.432912">
        <ele>132.548221</ele>
        <time>2026-08-18T09:21:25.000Z</time>
      </trkpt>
      <trkpt lat="22.817556" lon="111.432972">
        <ele>132.491415</ele>
        <time>2026-08-18T09:21:26.000Z</time>
      </trkpt>
      <trkpt lat="22.817512" lon="111.433032">
        <ele>132.433606</ele>
        <time>2026-08-18T09:21:27.000Z</time>
      </trkpt>
      <trkpt lat="22.817470" lon="111.433091">
        <ele>132.377399</ele>
        <time>2026-08-18T09:21:28.000Z</time>
      </trkpt>
      <trkpt lat="22.817429" lon="111.433151">
        <ele>132.321085</ele>
        <time>2026-08-18T09:21:29.000Z</time>
      </trkpt>
      <trkpt lat="22.817387" lon="111.433212">
        <ele>132.263677</ele>
        <time>2026-08-18T09:21:30.000Z</time>
      </trkpt>
      <trkpt lat="22.817346" lon="111.433272">
        <ele>132.207363</ele>
        <time>2026-08-18T09:21:31.000Z</time>
      </trkpt>
      <trkpt lat="22.817305" lon="111.433331">
        <ele>132.151652</ele>
        <time>2026-08-18T09:21:32.000Z</time>
      </trkpt>
      <trkpt lat="22.817265" lon="111.433391">
        <ele>132.095821</ele>
        <time>2026-08-18T09:21:33.000Z</time>
      </trkpt>
      <trkpt lat="22.817226" lon="111.433450">
        <ele>132.041080</ele>
        <time>2026-08-18T09:21:34.000Z</time>
      </trkpt>
      <trkpt lat="22.817189" lon="111.433510">
        <ele>131.986651</ele>
        <time>2026-08-18T09:21:35.000Z</time>
      </trkpt>
      <trkpt lat="22.817152" lon="111.433569">
        <ele>131.932846</ele>
        <time>2026-08-18T09:21:36.000Z</time>
      </trkpt>
      <trkpt lat="22.817116" lon="111.433627">
        <ele>131.880125</ele>
        <time>2026-08-18T09:21:37.000Z</time>
      </trkpt>
      <trkpt lat="22.817081" lon="111.433686">
        <ele>131.827224</ele>
        <time>2026-08-18T09:21:38.000Z</time>
      </trkpt>
      <trkpt lat="22.817045" lon="111.433744">
        <ele>131.774502</ele>
        <time>2026-08-18T09:21:39.000Z</time>
      </trkpt>
      <trkpt lat="22.817013" lon="111.433804">
        <ele>131.722236</ele>
        <time>2026-08-18T09:21:40.000Z</time>
      </trkpt>
      <trkpt lat="22.816981" lon="111.433864">
        <ele>131.669970</ele>
        <time>2026-08-18T09:21:41.000Z</time>
      </trkpt>
      <trkpt lat="22.816952" lon="111.433925">
        <ele>131.618221</ele>
        <time>2026-08-18T09:21:42.000Z</time>
      </trkpt>
      <trkpt lat="22.816922" lon="111.433985">
        <ele>131.566755</ele>
        <time>2026-08-18T09:21:43.000Z</time>
      </trkpt>
      <trkpt lat="22.816892" lon="111.434045">
        <ele>131.515288</ele>
        <time>2026-08-18T09:21:44.000Z</time>
      </trkpt>
      <trkpt lat="22.816861" lon="111.434106">
        <ele>131.462768</ele>
        <time>2026-08-18T09:21:45.000Z</time>
      </trkpt>
      <trkpt lat="22.816831" lon="111.434167">
        <ele>131.410638</ele>
        <time>2026-08-18T09:21:46.000Z</time>
      </trkpt>
      <trkpt lat="22.816802" lon="111.434228">
        <ele>131.358888</ele>
        <time>2026-08-18T09:21:47.000Z</time>
      </trkpt>
      <trkpt lat="22.816776" lon="111.434290">
        <ele>131.307531</ele>
        <time>2026-08-18T09:21:48.000Z</time>
      </trkpt>
      <trkpt lat="22.816748" lon="111.434353">
        <ele>131.251691</ele>
        <time>2026-08-18T09:21:49.000Z</time>
      </trkpt>
      <trkpt lat="22.816722" lon="111.434417">
        <ele>131.183565</ele>
        <time>2026-08-18T09:21:50.000Z</time>
      </trkpt>
      <trkpt lat="22.816698" lon="111.434481">
        <ele>131.116263</ele>
        <time>2026-08-18T09:21:51.000Z</time>
      </trkpt>
      <trkpt lat="22.816673" lon="111.434547">
        <ele>131.046758</ele>
        <time>2026-08-18T09:21:52.000Z</time>
      </trkpt>
      <trkpt lat="22.816647" lon="111.434613">
        <ele>130.976845</ele>
        <time>2026-08-18T09:21:53.000Z</time>
      </trkpt>
      <trkpt lat="22.816621" lon="111.434681">
        <ele>130.905136</ele>
        <time>2026-08-18T09:21:54.000Z</time>
      </trkpt>
      <trkpt lat="22.816595" lon="111.434747">
        <ele>130.835222</ele>
        <time>2026-08-18T09:21:55.000Z</time>
      </trkpt>
      <trkpt lat="22.816569" lon="111.434813">
        <ele>130.765309</ele>
        <time>2026-08-18T09:21:56.000Z</time>
      </trkpt>
      <trkpt lat="22.816543" lon="111.434877">
        <ele>130.697182</ele>
        <time>2026-08-18T09:21:57.000Z</time>
      </trkpt>
      <trkpt lat="22.816515" lon="111.434941">
        <ele>130.628176</ele>
        <time>2026-08-18T09:21:58.000Z</time>
      </trkpt>
      <trkpt lat="22.816486" lon="111.435004">
        <ele>130.559584</ele>
        <time>2026-08-18T09:21:59.000Z</time>
      </trkpt>
      <trkpt lat="22.816451" lon="111.435060">
        <ele>130.493679</ele>
        <time>2026-08-18T09:22:00.000Z</time>
      </trkpt>
      <trkpt lat="22.816418" lon="111.435119">
        <ele>130.426456</ele>
        <time>2026-08-18T09:22:01.000Z</time>
      </trkpt>
      <trkpt lat="22.816376" lon="111.435175">
        <ele>130.356133</ele>
        <time>2026-08-18T09:22:02.000Z</time>
      </trkpt>
      <trkpt lat="22.816343" lon="111.435236">
        <ele>130.287237</ele>
        <time>2026-08-18T09:22:03.000Z</time>
      </trkpt>
      <trkpt lat="22.816306" lon="111.435297">
        <ele>130.216108</ele>
        <time>2026-08-18T09:22:04.000Z</time>
      </trkpt>
      <trkpt lat="22.816275" lon="111.435359">
        <ele>130.147403</ele>
        <time>2026-08-18T09:22:05.000Z</time>
      </trkpt>
      <trkpt lat="22.816236" lon="111.435415">
        <ele>130.079036</ele>
        <time>2026-08-18T09:22:06.000Z</time>
      </trkpt>
      <trkpt lat="22.816193" lon="111.435470">
        <ele>130.008787</ele>
        <time>2026-08-18T09:22:07.000Z</time>
      </trkpt>
      <trkpt lat="22.816154" lon="111.435527">
        <ele>129.939640</ele>
        <time>2026-08-18T09:22:08.000Z</time>
      </trkpt>
      <trkpt lat="22.816111" lon="111.435579">
        <ele>129.871593</ele>
        <time>2026-08-18T09:22:09.000Z</time>
      </trkpt>
      <trkpt lat="22.816065" lon="111.435631">
        <ele>129.801389</ele>
        <time>2026-08-18T09:22:10.000Z</time>
      </trkpt>
      <trkpt lat="22.816021" lon="111.435683">
        <ele>129.732632</ele>
        <time>2026-08-18T09:22:11.000Z</time>
      </trkpt>
      <trkpt lat="22.815973" lon="111.435732">
        <ele>129.662982</ele>
        <time>2026-08-18T09:22:12.000Z</time>
      </trkpt>
      <trkpt lat="22.815927" lon="111.435781">
        <ele>129.594857</ele>
        <time>2026-08-18T09:22:13.000Z</time>
      </trkpt>
      <trkpt lat="22.815879" lon="111.435825">
        <ele>129.528450</ele>
        <time>2026-08-18T09:22:14.000Z</time>
      </trkpt>
      <trkpt lat="22.815832" lon="111.435872">
        <ele>129.460902</ele>
        <time>2026-08-18T09:22:15.000Z</time>
      </trkpt>
      <trkpt lat="22.815784" lon="111.435918">
        <ele>129.393221</ele>
        <time>2026-08-18T09:22:16.000Z</time>
      </trkpt>
      <trkpt lat="22.815736" lon="111.435963">
        <ele>129.338050</ele>
        <time>2026-08-18T09:22:17.000Z</time>
      </trkpt>
      <trkpt lat="22.815689" lon="111.436004">
        <ele>129.293949</ele>
        <time>2026-08-18T09:22:18.000Z</time>
      </trkpt>
      <trkpt lat="22.815642" lon="111.436048">
        <ele>129.248554</ele>
        <time>2026-08-18T09:22:19.000Z</time>
      </trkpt>
      <trkpt lat="22.815591" lon="111.436092">
        <ele>129.200906</ele>
        <time>2026-08-18T09:22:20.000Z</time>
      </trkpt>
      <trkpt lat="22.815541" lon="111.436138">
        <ele>129.152968</ele>
        <time>2026-08-18T09:22:21.000Z</time>
      </trkpt>
      <trkpt lat="22.815493" lon="111.436181">
        <ele>129.107449</ele>
        <time>2026-08-18T09:22:22.000Z</time>
      </trkpt>
      <trkpt lat="22.815445" lon="111.436225">
        <ele>129.061497</ele>
        <time>2026-08-18T09:22:23.000Z</time>
      </trkpt>
      <trkpt lat="22.815394" lon="111.436264">
        <ele>129.015871</ele>
        <time>2026-08-18T09:22:24.000Z</time>
      </trkpt>
      <trkpt lat="22.815340" lon="111.436300">
        <ele>128.969524</ele>
        <time>2026-08-18T09:22:25.000Z</time>
      </trkpt>
      <trkpt lat="22.815290" lon="111.436344">
        <ele>128.922446</ele>
        <time>2026-08-18T09:22:26.000Z</time>
      </trkpt>
      <trkpt lat="22.815240" lon="111.436389">
        <ele>128.874941</ele>
        <time>2026-08-18T09:22:27.000Z</time>
      </trkpt>
      <trkpt lat="22.815192" lon="111.436434">
        <ele>128.828552</ele>
        <time>2026-08-18T09:22:28.000Z</time>
      </trkpt>
      <trkpt lat="22.815142" lon="111.436474">
        <ele>128.783124</ele>
        <time>2026-08-18T09:22:29.000Z</time>
      </trkpt>
      <trkpt lat="22.815091" lon="111.436516">
        <ele>128.736303</ele>
        <time>2026-08-18T09:22:30.000Z</time>
      </trkpt>
      <trkpt lat="22.815044" lon="111.436560">
        <ele>128.690908</ele>
        <time>2026-08-18T09:22:31.000Z</time>
      </trkpt>
      <trkpt lat="22.814984" lon="111.436575">
        <ele>128.645884</ele>
        <time>2026-08-18T09:22:32.000Z</time>
      </trkpt>
      <trkpt lat="22.814932" lon="111.436610">
        <ele>128.601136</ele>
        <time>2026-08-18T09:22:33.000Z</time>
      </trkpt>
      <trkpt lat="22.814882" lon="111.436650">
        <ele>128.555708</ele>
        <time>2026-08-18T09:22:34.000Z</time>
      </trkpt>
      <trkpt lat="22.814837" lon="111.436697">
        <ele>128.510031</ele>
        <time>2026-08-18T09:22:35.000Z</time>
      </trkpt>
      <trkpt lat="22.814790" lon="111.436741">
        <ele>128.464636</ele>
        <time>2026-08-18T09:22:36.000Z</time>
      </trkpt>
      <trkpt lat="22.814738" lon="111.436778">
        <ele>128.419163</ele>
        <time>2026-08-18T09:22:37.000Z</time>
      </trkpt>
      <trkpt lat="22.814686" lon="111.436816">
        <ele>128.373317</ele>
        <time>2026-08-18T09:22:38.000Z</time>
      </trkpt>
      <trkpt lat="22.814640" lon="111.436860">
        <ele>128.328472</ele>
        <time>2026-08-18T09:22:39.000Z</time>
      </trkpt>
      <trkpt lat="22.814594" lon="111.436902">
        <ele>128.284508</ele>
        <time>2026-08-18T09:22:40.000Z</time>
      </trkpt>
      <trkpt lat="22.814545" lon="111.436949">
        <ele>128.236681</ele>
        <time>2026-08-18T09:22:41.000Z</time>
      </trkpt>
      <trkpt lat="22.814499" lon="111.436995">
        <ele>128.190934</ele>
        <time>2026-08-18T09:22:42.000Z</time>
      </trkpt>
      <trkpt lat="22.814453" lon="111.437038">
        <ele>128.146533</ele>
        <time>2026-08-18T09:22:43.000Z</time>
      </trkpt>
      <trkpt lat="22.814407" lon="111.437083">
        <ele>128.101240</ele>
        <time>2026-08-18T09:22:44.000Z</time>
      </trkpt>
      <trkpt lat="22.814361" lon="111.437128">
        <ele>128.055947</ele>
        <time>2026-08-18T09:22:45.000Z</time>
      </trkpt>
      <trkpt lat="22.814313" lon="111.437173">
        <ele>128.026876</ele>
        <time>2026-08-18T09:22:46.000Z</time>
      </trkpt>
      <trkpt lat="22.814266" lon="111.437220">
        <ele>128.000414</ele>
        <time>2026-08-18T09:22:47.000Z</time>
      </trkpt>
      <trkpt lat="22.814220" lon="111.437265">
        <ele>127.974773</ele>
        <time>2026-08-18T09:22:48.000Z</time>
      </trkpt>
      <trkpt lat="22.814174" lon="111.437309">
        <ele>127.949385</ele>
        <time>2026-08-18T09:22:49.000Z</time>
      </trkpt>
      <trkpt lat="22.814129" lon="111.437351">
        <ele>127.924811</ele>
        <time>2026-08-18T09:22:50.000Z</time>
      </trkpt>
      <trkpt lat="22.814081" lon="111.437392">
        <ele>127.899520</ele>
        <time>2026-08-18T09:22:51.000Z</time>
      </trkpt>
      <trkpt lat="22.814035" lon="111.437434">
        <ele>127.874631</ele>
        <time>2026-08-18T09:22:52.000Z</time>
      </trkpt>
      <trkpt lat="22.813988" lon="111.437477">
        <ele>127.849179</ele>
        <time>2026-08-18T09:22:53.000Z</time>
      </trkpt>
      <trkpt lat="22.813940" lon="111.437522">
        <ele>127.822917</ele>
        <time>2026-08-18T09:22:54.000Z</time>
      </trkpt>
      <trkpt lat="22.813892" lon="111.437569">
        <ele>127.796149</ele>
        <time>2026-08-18T09:22:55.000Z</time>
      </trkpt>
      <trkpt lat="22.813846" lon="111.437613">
        <ele>127.770762</ele>
        <time>2026-08-18T09:22:56.000Z</time>
      </trkpt>
      <trkpt lat="22.813799" lon="111.437656">
        <ele>127.745310</ele>
        <time>2026-08-18T09:22:57.000Z</time>
      </trkpt>
      <trkpt lat="22.813753" lon="111.437700">
        <ele>127.719922</ele>
        <time>2026-08-18T09:22:58.000Z</time>
      </trkpt>
      <trkpt lat="22.813707" lon="111.437743">
        <ele>127.694785</ele>
        <time>2026-08-18T09:22:59.000Z</time>
      </trkpt>
      <trkpt lat="22.813660" lon="111.437787">
        <ele>127.669086</ele>
        <time>2026-08-18T09:23:00.000Z</time>
      </trkpt>
      <trkpt lat="22.813614" lon="111.437834">
        <ele>127.642927</ele>
        <time>2026-08-18T09:23:01.000Z</time>
      </trkpt>
      <trkpt lat="22.813570" lon="111.437880">
        <ele>127.617631</ele>
        <time>2026-08-18T09:23:02.000Z</time>
      </trkpt>
      <trkpt lat="22.813525" lon="111.437926">
        <ele>127.592035</ele>
        <time>2026-08-18T09:23:03.000Z</time>
      </trkpt>
      <trkpt lat="22.813481" lon="111.437972">
        <ele>127.566739</ele>
        <time>2026-08-18T09:23:04.000Z</time>
      </trkpt>
      <trkpt lat="22.813436" lon="111.438019">
        <ele>127.540880</ele>
        <time>2026-08-18T09:23:05.000Z</time>
      </trkpt>
      <trkpt lat="22.813392" lon="111.438068">
        <ele>127.514776</ele>
        <time>2026-08-18T09:23:06.000Z</time>
      </trkpt>
      <trkpt lat="22.813348" lon="111.438115">
        <ele>127.489214</ele>
        <time>2026-08-18T09:23:07.000Z</time>
      </trkpt>
      <trkpt lat="22.813306" lon="111.438162">
        <ele>127.464235</ele>
        <time>2026-08-18T09:23:08.000Z</time>
      </trkpt>
      <trkpt lat="22.813263" lon="111.438211">
        <ele>127.438418</ele>
        <time>2026-08-18T09:23:09.000Z</time>
      </trkpt>
      <trkpt lat="22.813222" lon="111.438260">
        <ele>127.413166</ele>
        <time>2026-08-18T09:23:10.000Z</time>
      </trkpt>
      <trkpt lat="22.813182" lon="111.438310">
        <ele>127.387903</ele>
        <time>2026-08-18T09:23:11.000Z</time>
      </trkpt>
      <trkpt lat="22.813139" lon="111.438356">
        <ele>127.362903</ele>
        <time>2026-08-18T09:23:12.000Z</time>
      </trkpt>
      <trkpt lat="22.813099" lon="111.438407">
        <ele>127.337350</ele>
        <time>2026-08-18T09:23:13.000Z</time>
      </trkpt>
      <trkpt lat="22.813063" lon="111.438459">
        <ele>127.312534</ele>
        <time>2026-08-18T09:23:14.000Z</time>
      </trkpt>
      <trkpt lat="22.813033" lon="111.438515">
        <ele>127.275441</ele>
        <time>2026-08-18T09:23:15.000Z</time>
      </trkpt>
      <trkpt lat="22.813004" lon="111.438570">
        <ele>127.233722</ele>
        <time>2026-08-18T09:23:16.000Z</time>
      </trkpt>
      <trkpt lat="22.812973" lon="111.438626">
        <ele>127.190712</ele>
        <time>2026-08-18T09:23:17.000Z</time>
      </trkpt>
      <trkpt lat="22.812943" lon="111.438682">
        <ele>127.148066</ele>
        <time>2026-08-18T09:23:18.000Z</time>
      </trkpt>
      <trkpt lat="22.812914" lon="111.438741">
        <ele>127.104041</ele>
        <time>2026-08-18T09:23:19.000Z</time>
      </trkpt>
      <trkpt lat="22.812888" lon="111.438800">
        <ele>127.060984</ele>
        <time>2026-08-18T09:23:20.000Z</time>
      </trkpt>
      <trkpt lat="22.812865" lon="111.438860">
        <ele>127.018199</ele>
        <time>2026-08-18T09:23:21.000Z</time>
      </trkpt>
      <trkpt lat="22.812843" lon="111.438923">
        <ele>126.973841</ele>
        <time>2026-08-18T09:23:22.000Z</time>
      </trkpt>
      <trkpt lat="22.812824" lon="111.438986">
        <ele>126.930197</ele>
        <time>2026-08-18T09:23:23.000Z</time>
      </trkpt>
      <trkpt lat="22.812805" lon="111.439049">
        <ele>126.886553</ele>
        <time>2026-08-18T09:23:24.000Z</time>
      </trkpt>
      <trkpt lat="22.812789" lon="111.439112">
        <ele>126.843527</ele>
        <time>2026-08-18T09:23:25.000Z</time>
      </trkpt>
      <trkpt lat="22.812775" lon="111.439176">
        <ele>126.800218</ele>
        <time>2026-08-18T09:23:26.000Z</time>
      </trkpt>
      <trkpt lat="22.812763" lon="111.439239">
        <ele>126.757861</ele>
        <time>2026-08-18T09:23:27.000Z</time>
      </trkpt>
      <trkpt lat="22.812753" lon="111.439303">
        <ele>126.715121</ele>
        <time>2026-08-18T09:23:28.000Z</time>
      </trkpt>
      <trkpt lat="22.812745" lon="111.439367">
        <ele>126.672597</ele>
        <time>2026-08-18T09:23:29.000Z</time>
      </trkpt>
      <trkpt lat="22.812739" lon="111.439432">
        <ele>126.629585</ele>
        <time>2026-08-18T09:23:30.000Z</time>
      </trkpt>
      <trkpt lat="22.812735" lon="111.439497">
        <ele>126.586693</ele>
        <time>2026-08-18T09:23:31.000Z</time>
      </trkpt>
      <trkpt lat="22.812731" lon="111.439561">
        <ele>126.544457</ele>
        <time>2026-08-18T09:23:32.000Z</time>
      </trkpt>
      <trkpt lat="22.812731" lon="111.439625">
        <ele>126.502318</ele>
        <time>2026-08-18T09:23:33.000Z</time>
      </trkpt>
      <trkpt lat="22.812732" lon="111.439690">
        <ele>126.459515</ele>
        <time>2026-08-18T09:23:34.000Z</time>
      </trkpt>
      <trkpt lat="22.812736" lon="111.439756">
        <ele>126.415966</ele>
        <time>2026-08-18T09:23:35.000Z</time>
      </trkpt>
      <trkpt lat="22.812741" lon="111.439820">
        <ele>126.373676</ele>
        <time>2026-08-18T09:23:36.000Z</time>
      </trkpt>
      <trkpt lat="22.812751" lon="111.439885">
        <ele>126.330287</ele>
        <time>2026-08-18T09:23:37.000Z</time>
      </trkpt>
      <trkpt lat="22.812761" lon="111.439950">
        <ele>126.286897</ele>
        <time>2026-08-18T09:23:38.000Z</time>
      </trkpt>
      <trkpt lat="22.812774" lon="111.440014">
        <ele>126.243748</ele>
        <time>2026-08-18T09:23:39.000Z</time>
      </trkpt>
      <trkpt lat="22.812788" lon="111.440076">
        <ele>126.201719</ele>
        <time>2026-08-18T09:23:40.000Z</time>
      </trkpt>
      <trkpt lat="22.812804" lon="111.440139">
        <ele>126.158693</ele>
        <time>2026-08-18T09:23:41.000Z</time>
      </trkpt>
      <trkpt lat="22.812821" lon="111.440204">
        <ele>126.114206</ele>
        <time>2026-08-18T09:23:42.000Z</time>
      </trkpt>
      <trkpt lat="22.812838" lon="111.440269">
        <ele>126.069719</ele>
        <time>2026-08-18T09:23:43.000Z</time>
      </trkpt>
      <trkpt lat="22.812856" lon="111.440334">
        <ele>126.025033</ele>
        <time>2026-08-18T09:23:44.000Z</time>
      </trkpt>
      <trkpt lat="22.812876" lon="111.440399">
        <ele>125.988169</ele>
        <time>2026-08-18T09:23:45.000Z</time>
      </trkpt>
      <trkpt lat="22.812896" lon="111.440464">
        <ele>125.952314</ele>
        <time>2026-08-18T09:23:46.000Z</time>
      </trkpt>
      <trkpt lat="22.812918" lon="111.440528">
        <ele>125.916575</ele>
        <time>2026-08-18T09:23:47.000Z</time>
      </trkpt>
      <trkpt lat="22.812942" lon="111.440592">
        <ele>125.880423</ele>
        <time>2026-08-18T09:23:48.000Z</time>
      </trkpt>
      <trkpt lat="22.812964" lon="111.440657">
        <ele>125.844192</ele>
        <time>2026-08-18T09:23:49.000Z</time>
      </trkpt>
      <trkpt lat="22.812987" lon="111.440722">
        <ele>125.807762</ele>
        <time>2026-08-18T09:23:50.000Z</time>
      </trkpt>
      <trkpt lat="22.813011" lon="111.440786">
        <ele>125.771610</ele>
        <time>2026-08-18T09:23:51.000Z</time>
      </trkpt>
      <trkpt lat="22.813034" lon="111.440850">
        <ele>125.735668</ele>
        <time>2026-08-18T09:23:52.000Z</time>
      </trkpt>
      <trkpt lat="22.813057" lon="111.440915">
        <ele>125.699239</ele>
        <time>2026-08-18T09:23:53.000Z</time>
      </trkpt>
      <trkpt lat="22.813081" lon="111.440979">
        <ele>125.663087</ele>
        <time>2026-08-18T09:23:54.000Z</time>
      </trkpt>
      <trkpt lat="22.813105" lon="111.441043">
        <ele>125.626935</ele>
        <time>2026-08-18T09:23:55.000Z</time>
      </trkpt>
      <trkpt lat="22.813129" lon="111.441105">
        <ele>125.591750</ele>
        <time>2026-08-18T09:23:56.000Z</time>
      </trkpt>
      <trkpt lat="22.813153" lon="111.441168">
        <ele>125.556082</ele>
        <time>2026-08-18T09:23:57.000Z</time>
      </trkpt>
      <trkpt lat="22.813176" lon="111.441232">
        <ele>125.520140</ele>
        <time>2026-08-18T09:23:58.000Z</time>
      </trkpt>
      <trkpt lat="22.813197" lon="111.441295">
        <ele>125.485087</ele>
        <time>2026-08-18T09:23:59.000Z</time>
      </trkpt>
      <trkpt lat="22.813217" lon="111.441359">
        <ele>125.449728</ele>
        <time>2026-08-18T09:24:00.000Z</time>
      </trkpt>
      <trkpt lat="22.813239" lon="111.441421">
        <ele>125.414967</ele>
        <time>2026-08-18T09:24:01.000Z</time>
      </trkpt>
      <trkpt lat="22.813262" lon="111.441482">
        <ele>125.380483</ele>
        <time>2026-08-18T09:24:02.000Z</time>
      </trkpt>
      <trkpt lat="22.813285" lon="111.441543">
        <ele>125.345999</ele>
        <time>2026-08-18T09:24:03.000Z</time>
      </trkpt>
      <trkpt lat="22.813309" lon="111.441605">
        <ele>125.310814</ele>
        <time>2026-08-18T09:24:04.000Z</time>
      </trkpt>
      <trkpt lat="22.813332" lon="111.441668">
        <ele>125.275359</ele>
        <time>2026-08-18T09:24:05.000Z</time>
      </trkpt>
      <trkpt lat="22.813353" lon="111.441729">
        <ele>125.241289</ele>
        <time>2026-08-18T09:24:06.000Z</time>
      </trkpt>
      <trkpt lat="22.813376" lon="111.441789">
        <ele>125.207288</ele>
        <time>2026-08-18T09:24:07.000Z</time>
      </trkpt>
      <trkpt lat="22.813395" lon="111.441849">
        <ele>125.174094</ele>
        <time>2026-08-18T09:24:08.000Z</time>
      </trkpt>
      <trkpt lat="22.813416" lon="111.441910">
        <ele>125.140023</ele>
        <time>2026-08-18T09:24:09.000Z</time>
      </trkpt>
      <trkpt lat="22.813438" lon="111.441972">
        <ele>125.105262</ele>
        <time>2026-08-18T09:24:10.000Z</time>
      </trkpt>
      <trkpt lat="22.813460" lon="111.442032">
        <ele>125.071476</ele>
        <time>2026-08-18T09:24:11.000Z</time>
      </trkpt>
      <trkpt lat="22.813483" lon="111.442090">
        <ele>125.038439</ele>
        <time>2026-08-18T09:24:12.000Z</time>
      </trkpt>
      <trkpt lat="22.813504" lon="111.442149">
        <ele>125.005347</ele>
        <time>2026-08-18T09:24:13.000Z</time>
      </trkpt>
      <trkpt lat="22.813524" lon="111.442208">
        <ele>124.989757</ele>
        <time>2026-08-18T09:24:14.000Z</time>
      </trkpt>
      <trkpt lat="22.813546" lon="111.442269">
        <ele>124.977700</ele>
        <time>2026-08-18T09:24:15.000Z</time>
      </trkpt>
      <trkpt lat="22.813568" lon="111.442330">
        <ele>124.965643</ele>
        <time>2026-08-18T09:24:16.000Z</time>
      </trkpt>
      <trkpt lat="22.813591" lon="111.442390">
        <ele>124.953682</ele>
        <time>2026-08-18T09:24:17.000Z</time>
      </trkpt>
      <trkpt lat="22.813614" lon="111.442451">
        <ele>124.941551</ele>
        <time>2026-08-18T09:24:18.000Z</time>
      </trkpt>
      <trkpt lat="22.813636" lon="111.442510">
        <ele>124.929836</ele>
        <time>2026-08-18T09:24:19.000Z</time>
      </trkpt>
      <trkpt lat="22.813653" lon="111.442565">
        <ele>124.919159</ele>
        <time>2026-08-18T09:24:20.000Z</time>
      </trkpt>
      <trkpt lat="22.813672" lon="111.442623">
        <ele>124.907829</ele>
        <time>2026-08-18T09:24:21.000Z</time>
      </trkpt>
      <trkpt lat="22.813689" lon="111.442681">
        <ele>124.896626</ele>
        <time>2026-08-18T09:24:22.000Z</time>
      </trkpt>
      <trkpt lat="22.813708" lon="111.442739">
        <ele>124.885296</ele>
        <time>2026-08-18T09:24:23.000Z</time>
      </trkpt>
      <trkpt lat="22.813726" lon="111.442797">
        <ele>124.874032</ele>
        <time>2026-08-18T09:24:24.000Z</time>
      </trkpt>
      <trkpt lat="22.813745" lon="111.442855">
        <ele>124.862702</ele>
        <time>2026-08-18T09:24:25.000Z</time>
      </trkpt>
      <trkpt lat="22.813763" lon="111.442915">
        <ele>124.851088</ele>
        <time>2026-08-18T09:24:26.000Z</time>
      </trkpt>
      <trkpt lat="22.813779" lon="111.442973">
        <ele>124.839944</ele>
        <time>2026-08-18T09:24:27.000Z</time>
      </trkpt>
      <trkpt lat="22.813795" lon="111.443031">
        <ele>124.828800</ele>
        <time>2026-08-18T09:24:28.000Z</time>
      </trkpt>
      <trkpt lat="22.813806" lon="111.443090">
        <ele>124.817720</ele>
        <time>2026-08-18T09:24:29.000Z</time>
      </trkpt>
      <trkpt lat="22.813814" lon="111.443151">
        <ele>124.806379</ele>
        <time>2026-08-18T09:24:30.000Z</time>
      </trkpt>
      <trkpt lat="22.813820" lon="111.443212">
        <ele>124.795088</ele>
        <time>2026-08-18T09:24:31.000Z</time>
      </trkpt>
      <trkpt lat="22.813826" lon="111.443273">
        <ele>124.783796</ele>
        <time>2026-08-18T09:24:32.000Z</time>
      </trkpt>
      <trkpt lat="22.813830" lon="111.443336">
        <ele>124.772172</ele>
        <time>2026-08-18T09:24:33.000Z</time>
      </trkpt>
      <trkpt lat="22.813833" lon="111.443396">
        <ele>124.761112</ele>
        <time>2026-08-18T09:24:34.000Z</time>
      </trkpt>
      <trkpt lat="22.813834" lon="111.443454">
        <ele>124.750435</ele>
        <time>2026-08-18T09:24:35.000Z</time>
      </trkpt>
      <trkpt lat="22.813831" lon="111.443510">
        <ele>124.740109</ele>
        <time>2026-08-18T09:24:36.000Z</time>
      </trkpt>
      <trkpt lat="22.813827" lon="111.443565">
        <ele>124.729954</ele>
        <time>2026-08-18T09:24:37.000Z</time>
      </trkpt>
      <trkpt lat="22.813821" lon="111.443625">
        <ele>124.718846</ele>
        <time>2026-08-18T09:24:38.000Z</time>
      </trkpt>
      <trkpt lat="22.813814" lon="111.443684">
        <ele>124.707896</ele>
        <time>2026-08-18T09:24:39.000Z</time>
      </trkpt>
      <trkpt lat="22.813805" lon="111.443743">
        <ele>124.696889</ele>
        <time>2026-08-18T09:24:40.000Z</time>
      </trkpt>
      <trkpt lat="22.813796" lon="111.443803">
        <ele>124.685699</ele>
        <time>2026-08-18T09:24:41.000Z</time>
      </trkpt>
      <trkpt lat="22.813782" lon="111.443861">
        <ele>124.674664</ele>
        <time>2026-08-18T09:24:42.000Z</time>
      </trkpt>
      <trkpt lat="22.813767" lon="111.443919">
        <ele>124.663576</ele>
        <time>2026-08-18T09:24:43.000Z</time>
      </trkpt>
      <trkpt lat="22.813753" lon="111.443976">
        <ele>124.652718</ele>
        <time>2026-08-18T09:24:44.000Z</time>
      </trkpt>
      <trkpt lat="22.813735" lon="111.444035">
        <ele>124.641279</ele>
        <time>2026-08-18T09:24:45.000Z</time>
      </trkpt>
      <trkpt lat="22.813711" lon="111.444090">
        <ele>124.650440</ele>
        <time>2026-08-18T09:24:46.000Z</time>
      </trkpt>
      <trkpt lat="22.813688" lon="111.444147">
        <ele>124.662536</ele>
        <time>2026-08-18T09:24:47.000Z</time>
      </trkpt>
      <trkpt lat="22.813666" lon="111.444202">
        <ele>124.674192</ele>
        <time>2026-08-18T09:24:48.000Z</time>
      </trkpt>
      <trkpt lat="22.813642" lon="111.444256">
        <ele>124.685846</ele>
        <time>2026-08-18T09:24:49.000Z</time>
      </trkpt>
      <trkpt lat="22.813616" lon="111.444309">
        <ele>124.697518</ele>
        <time>2026-08-18T09:24:50.000Z</time>
      </trkpt>
      <trkpt lat="22.813589" lon="111.444363">
        <ele>124.709461</ele>
        <time>2026-08-18T09:24:51.000Z</time>
      </trkpt>
      <trkpt lat="22.813561" lon="111.444418">
        <ele>124.721675</ele>
        <time>2026-08-18T09:24:52.000Z</time>
      </trkpt>
      <trkpt lat="22.813530" lon="111.444469">
        <ele>124.733552</ele>
        <time>2026-08-18T09:24:53.000Z</time>
      </trkpt>
      <trkpt lat="22.813500" lon="111.444517">
        <ele>124.744826</ele>
        <time>2026-08-18T09:24:54.000Z</time>
      </trkpt>
      <trkpt lat="22.813465" lon="111.444561">
        <ele>124.756124</ele>
        <time>2026-08-18T09:24:55.000Z</time>
      </trkpt>
      <trkpt lat="22.813430" lon="111.444606">
        <ele>124.767571</ele>
        <time>2026-08-18T09:24:56.000Z</time>
      </trkpt>
      <trkpt lat="22.813394" lon="111.444650">
        <ele>124.779008</ele>
        <time>2026-08-18T09:24:57.000Z</time>
      </trkpt>
      <trkpt lat="22.813357" lon="111.444695">
        <ele>124.790731</ele>
        <time>2026-08-18T09:24:58.000Z</time>
      </trkpt>
      <trkpt lat="22.813318" lon="111.444734">
        <ele>124.801918</ele>
        <time>2026-08-18T09:24:59.000Z</time>
      </trkpt>
      <trkpt lat="22.813281" lon="111.444774">
        <ele>124.812934</ele>
        <time>2026-08-18T09:25:00.000Z</time>
      </trkpt>
      <trkpt lat="22.813241" lon="111.444811">
        <ele>124.824020</ele>
        <time>2026-08-18T09:25:01.000Z</time>
      </trkpt>
      <trkpt lat="22.813201" lon="111.444849">
        <ele>124.835234</ele>
        <time>2026-08-18T09:25:02.000Z</time>
      </trkpt>
      <trkpt lat="22.813164" lon="111.444893">
        <ele>124.846812</ele>
        <time>2026-08-18T09:25:03.000Z</time>
      </trkpt>
      <trkpt lat="22.813129" lon="111.444921">
        <ele>124.855984</ele>
        <time>2026-08-18T09:25:04.000Z</time>
      </trkpt>
      <trkpt lat="22.813091" lon="111.444953">
        <ele>124.866130</ele>
        <time>2026-08-18T09:25:05.000Z</time>
      </trkpt>
      <trkpt lat="22.813049" lon="111.444978">
        <ele>124.876233</ele>
        <time>2026-08-18T09:25:06.000Z</time>
      </trkpt>
      <trkpt lat="22.813012" lon="111.445002">
        <ele>124.885325</ele>
        <time>2026-08-18T09:25:07.000Z</time>
      </trkpt>
      <trkpt lat="22.812973" lon="111.445031">
        <ele>124.895297</ele>
        <time>2026-08-18T09:25:08.000Z</time>
      </trkpt>
      <trkpt lat="22.812933" lon="111.445064">
        <ele>124.905895</ele>
        <time>2026-08-18T09:25:09.000Z</time>
      </trkpt>
      <trkpt lat="22.812894" lon="111.445107">
        <ele>124.917623</ele>
        <time>2026-08-18T09:25:10.000Z</time>
      </trkpt>
      <trkpt lat="22.812854" lon="111.445140">
        <ele>124.928221</ele>
        <time>2026-08-18T09:25:11.000Z</time>
      </trkpt>
      <trkpt lat="22.812820" lon="111.445181">
        <ele>124.938943</ele>
        <time>2026-08-18T09:25:12.000Z</time>
      </trkpt>
      <trkpt lat="22.812787" lon="111.445211">
        <ele>124.948023</ele>
        <time>2026-08-18T09:25:13.000Z</time>
      </trkpt>
      <trkpt lat="22.812757" lon="111.445253">
        <ele>124.958353</ele>
        <time>2026-08-18T09:25:14.000Z</time>
      </trkpt>
      <trkpt lat="22.812717" lon="111.445281">
        <ele>124.968393</ele>
        <time>2026-08-18T09:25:15.000Z</time>
      </trkpt>
      <trkpt lat="22.812672" lon="111.445317">
        <ele>124.980185</ele>
        <time>2026-08-18T09:25:16.000Z</time>
      </trkpt>
      <trkpt lat="22.812630" lon="111.445349">
        <ele>124.991009</ele>
        <time>2026-08-18T09:25:17.000Z</time>
      </trkpt>
      <trkpt lat="22.812588" lon="111.445383">
        <ele>125.002061</ele>
        <time>2026-08-18T09:25:18.000Z</time>
      </trkpt>
      <trkpt lat="22.812547" lon="111.445418">
        <ele>125.013065</ele>
        <time>2026-08-18T09:25:19.000Z</time>
      </trkpt>
      <trkpt lat="22.812506" lon="111.445454">
        <ele>125.017807</ele>
        <time>2026-08-18T09:25:20.000Z</time>
      </trkpt>
      <trkpt lat="22.812465" lon="111.445494">
        <ele>125.014188</ele>
        <time>2026-08-18T09:25:21.000Z</time>
      </trkpt>
      <trkpt lat="22.812424" lon="111.445530">
        <ele>125.010726</ele>
        <time>2026-08-18T09:25:22.000Z</time>
      </trkpt>
      <trkpt lat="22.812385" lon="111.445571">
        <ele>125.007161</ele>
        <time>2026-08-18T09:25:23.000Z</time>
      </trkpt>
      <trkpt lat="22.812346" lon="111.445608">
        <ele>125.003761</ele>
        <time>2026-08-18T09:25:24.000Z</time>
      </trkpt>
      <trkpt lat="22.812308" lon="111.445636">
        <ele>125.000746</ele>
        <time>2026-08-18T09:25:25.000Z</time>
      </trkpt>
      <trkpt lat="22.812270" lon="111.445679">
        <ele>124.997142</ele>
        <time>2026-08-18T09:25:26.000Z</time>
      </trkpt>
      <trkpt lat="22.812239" lon="111.445713">
        <ele>124.994249</ele>
        <time>2026-08-18T09:25:27.000Z</time>
      </trkpt>
      <trkpt lat="22.812207" lon="111.445732">
        <ele>124.991855</ele>
        <time>2026-08-18T09:25:28.000Z</time>
      </trkpt>
      <trkpt lat="22.812174" lon="111.445757">
        <ele>124.989213</ele>
        <time>2026-08-18T09:25:29.000Z</time>
      </trkpt>
      <trkpt lat="22.812142" lon="111.445781">
        <ele>124.986660</ele>
        <time>2026-08-18T09:25:30.000Z</time>
      </trkpt>
      <trkpt lat="22.812110" lon="111.445803">
        <ele>124.984174</ele>
        <time>2026-08-18T09:25:31.000Z</time>
      </trkpt>
      <trkpt lat="22.812074" lon="111.445832">
        <ele>124.981231</ele>
        <time>2026-08-18T09:25:32.000Z</time>
      </trkpt>
      <trkpt lat="22.812044" lon="111.445872">
        <ele>124.978111</ele>
        <time>2026-08-18T09:25:33.000Z</time>
      </trkpt>
      <trkpt lat="22.812018" lon="111.445914">
        <ele>124.975050</ele>
        <time>2026-08-18T09:25:34.000Z</time>
      </trkpt>
      <trkpt lat="22.811999" lon="111.445954">
        <ele>124.972328</ele>
        <time>2026-08-18T09:25:35.000Z</time>
      </trkpt>
      <trkpt lat="22.811986" lon="111.445987">
        <ele>124.970157</ele>
        <time>2026-08-18T09:25:36.000Z</time>
      </trkpt>
      <trkpt lat="22.811967" lon="111.446014">
        <ele>124.968102</ele>
        <time>2026-08-18T09:25:37.000Z</time>
      </trkpt>
      <trkpt lat="22.811945" lon="111.446047">
        <ele>124.965638</ele>
        <time>2026-08-18T09:25:38.000Z</time>
      </trkpt>
      <trkpt lat="22.811932" lon="111.446094">
        <ele>124.962669</ele>
        <time>2026-08-18T09:25:39.000Z</time>
      </trkpt>
      <trkpt lat="22.811903" lon="111.446145">
        <ele>124.959044</ele>
        <time>2026-08-18T09:25:40.000Z</time>
      </trkpt>
      <trkpt lat="22.811873" lon="111.446193">
        <ele>124.955535</ele>
        <time>2026-08-18T09:25:41.000Z</time>
      </trkpt>
      <trkpt lat="22.811840" lon="111.446244">
        <ele>124.951766</ele>
        <time>2026-08-18T09:25:42.000Z</time>
      </trkpt>
      <trkpt lat="22.811814" lon="111.446295">
        <ele>124.948240</ele>
        <time>2026-08-18T09:25:43.000Z</time>
      </trkpt>
      <trkpt lat="22.811787" lon="111.446338">
        <ele>124.945092</ele>
        <time>2026-08-18T09:25:44.000Z</time>
      </trkpt>
      <trkpt lat="22.811765" lon="111.446385">
        <ele>124.941903</ele>
        <time>2026-08-18T09:25:45.000Z</time>
      </trkpt>
      <trkpt lat="22.811743" lon="111.446442">
        <ele>124.938165</ele>
        <time>2026-08-18T09:25:46.000Z</time>
      </trkpt>
      <trkpt lat="22.811715" lon="111.446492">
        <ele>124.934625</ele>
        <time>2026-08-18T09:25:47.000Z</time>
      </trkpt>
      <trkpt lat="22.811686" lon="111.446551">
        <ele>124.930580</ele>
        <time>2026-08-18T09:25:48.000Z</time>
      </trkpt>
      <trkpt lat="22.811659" lon="111.446615">
        <ele>124.926322</ele>
        <time>2026-08-18T09:25:49.000Z</time>
      </trkpt>
      <trkpt lat="22.811636" lon="111.446674">
        <ele>124.922446</ele>
        <time>2026-08-18T09:25:50.000Z</time>
      </trkpt>
      <trkpt lat="22.811612" lon="111.446735">
        <ele>124.918434</ele>
        <time>2026-08-18T09:25:51.000Z</time>
      </trkpt>
      <trkpt lat="22.811590" lon="111.446795">
        <ele>124.914527</ele>
        <time>2026-08-18T09:25:52.000Z</time>
      </trkpt>
      <trkpt lat="22.811570" lon="111.446848">
        <ele>124.911063</ele>
        <time>2026-08-18T09:25:53.000Z</time>
      </trkpt>
      <trkpt lat="22.811553" lon="111.446901">
        <ele>124.907668</ele>
        <time>2026-08-18T09:25:54.000Z</time>
      </trkpt>
      <trkpt lat="22.811533" lon="111.446960">
        <ele>124.903865</ele>
        <time>2026-08-18T09:25:55.000Z</time>
      </trkpt>
      <trkpt lat="22.811513" lon="111.447016">
        <ele>124.903833</ele>
        <time>2026-08-18T09:25:56.000Z</time>
      </trkpt>
      <trkpt lat="22.811489" lon="111.447073">
        <ele>124.913152</ele>
        <time>2026-08-18T09:25:57.000Z</time>
      </trkpt>
      <trkpt lat="22.811465" lon="111.447130">
        <ele>124.922470</ele>
        <time>2026-08-18T09:25:58.000Z</time>
      </trkpt>
      <trkpt lat="22.811447" lon="111.447188">
        <ele>124.931571</ele>
        <time>2026-08-18T09:25:59.000Z</time>
      </trkpt>
      <trkpt lat="22.811432" lon="111.447249">
        <ele>124.940959</ele>
        <time>2026-08-18T09:26:00.000Z</time>
      </trkpt>
      <trkpt lat="22.811424" lon="111.447311">
        <ele>124.950268</ele>
        <time>2026-08-18T09:26:01.000Z</time>
      </trkpt>
      <trkpt lat="22.811410" lon="111.447372">
        <ele>124.959616</ele>
        <time>2026-08-18T09:26:02.000Z</time>
      </trkpt>
      <trkpt lat="22.811393" lon="111.447444">
        <ele>124.970668</ele>
        <time>2026-08-18T09:26:03.000Z</time>
      </trkpt>
      <trkpt lat="22.811381" lon="111.447509">
        <ele>124.980526</ele>
        <time>2026-08-18T09:26:04.000Z</time>
      </trkpt>
      <trkpt lat="22.811380" lon="111.447569">
        <ele>124.989450</ele>
        <time>2026-08-18T09:26:05.000Z</time>
      </trkpt>
      <trkpt lat="22.811375" lon="111.447628">
        <ele>124.998260</ele>
        <time>2026-08-18T09:26:06.000Z</time>
      </trkpt>
      <trkpt lat="22.811365" lon="111.447695">
        <ele>125.008353</ele>
        <time>2026-08-18T09:26:07.000Z</time>
      </trkpt>
      <trkpt lat="22.811359" lon="111.447767">
        <ele>125.019103</ele>
        <time>2026-08-18T09:26:08.000Z</time>
      </trkpt>
      <trkpt lat="22.811352" lon="111.447840">
        <ele>125.030017</ele>
        <time>2026-08-18T09:26:09.000Z</time>
      </trkpt>
      <trkpt lat="22.811344" lon="111.447910">
        <ele>125.040506</ele>
        <time>2026-08-18T09:26:10.000Z</time>
      </trkpt>
      <trkpt lat="22.811347" lon="111.447984">
        <ele>125.051521</ele>
        <time>2026-08-18T09:26:11.000Z</time>
      </trkpt>
      <trkpt lat="22.811339" lon="111.448047">
        <ele>125.060978</ele>
        <time>2026-08-18T09:26:12.000Z</time>
      </trkpt>
      <trkpt lat="22.811329" lon="111.448111">
        <ele>125.070631</ele>
        <time>2026-08-18T09:26:13.000Z</time>
      </trkpt>
      <trkpt lat="22.811317" lon="111.448184">
        <ele>125.081657</ele>
        <time>2026-08-18T09:26:14.000Z</time>
      </trkpt>
      <trkpt lat="22.811304" lon="111.448251">
        <ele>125.091839</ele>
        <time>2026-08-18T09:26:15.000Z</time>
      </trkpt>
      <trkpt lat="22.811293" lon="111.448319">
        <ele>125.102105</ele>
        <time>2026-08-18T09:26:16.000Z</time>
      </trkpt>
      <trkpt lat="22.811282" lon="111.448384">
        <ele>125.111932</ele>
        <time>2026-08-18T09:26:17.000Z</time>
      </trkpt>
      <trkpt lat="22.811271" lon="111.448448">
        <ele>125.121613</ele>
        <time>2026-08-18T09:26:18.000Z</time>
      </trkpt>
      <trkpt lat="22.811260" lon="111.448510">
        <ele>125.131002</ele>
        <time>2026-08-18T09:26:19.000Z</time>
      </trkpt>
      <trkpt lat="22.811254" lon="111.448569">
        <ele>125.139829</ele>
        <time>2026-08-18T09:26:20.000Z</time>
      </trkpt>
      <trkpt lat="22.811247" lon="111.448628">
        <ele>125.148675</ele>
        <time>2026-08-18T09:26:21.000Z</time>
      </trkpt>
      <trkpt lat="22.811237" lon="111.448688">
        <ele>125.157742</ele>
        <time>2026-08-18T09:26:22.000Z</time>
      </trkpt>
      <trkpt lat="22.811226" lon="111.448749">
        <ele>125.166985</ele>
        <time>2026-08-18T09:26:23.000Z</time>
      </trkpt>
      <trkpt lat="22.811215" lon="111.448813">
        <ele>125.176666</ele>
        <time>2026-08-18T09:26:24.000Z</time>
      </trkpt>
      <trkpt lat="22.811206" lon="111.448874">
        <ele>125.185852</ele>
        <time>2026-08-18T09:26:25.000Z</time>
      </trkpt>
      <trkpt lat="22.811196" lon="111.448935">
        <ele>125.238719</ele>
        <time>2026-08-18T09:26:26.000Z</time>
      </trkpt>
      <trkpt lat="22.811188" lon="111.448998">
        <ele>125.361790</ele>
        <time>2026-08-18T09:26:27.000Z</time>
      </trkpt>
      <trkpt lat="22.811175" lon="111.449057">
        <ele>125.479186</ele>
        <time>2026-08-18T09:26:28.000Z</time>
      </trkpt>
      <trkpt lat="22.811167" lon="111.449117">
        <ele>125.596509</ele>
        <time>2026-08-18T09:26:29.000Z</time>
      </trkpt>
      <trkpt lat="22.811161" lon="111.449174">
        <ele>125.707534</ele>
        <time>2026-08-18T09:26:30.000Z</time>
      </trkpt>
      <trkpt lat="22.811153" lon="111.449233">
        <ele>125.822942</ele>
        <time>2026-08-18T09:26:31.000Z</time>
      </trkpt>
      <trkpt lat="22.811135" lon="111.449288">
        <ele>125.935890</ele>
        <time>2026-08-18T09:26:32.000Z</time>
      </trkpt>
      <trkpt lat="22.811121" lon="111.449344">
        <ele>126.048178</ele>
        <time>2026-08-18T09:26:33.000Z</time>
      </trkpt>
      <trkpt lat="22.811107" lon="111.449398">
        <ele>126.156736</ele>
        <time>2026-08-18T09:26:34.000Z</time>
      </trkpt>
      <trkpt lat="22.811093" lon="111.449451">
        <ele>126.263432</ele>
        <time>2026-08-18T09:26:35.000Z</time>
      </trkpt>
      <trkpt lat="22.811078" lon="111.449503">
        <ele>126.368877</ele>
        <time>2026-08-18T09:26:36.000Z</time>
      </trkpt>
      <trkpt lat="22.811072" lon="111.449555">
        <ele>126.470295</ele>
        <time>2026-08-18T09:26:37.000Z</time>
      </trkpt>
      <trkpt lat="22.811062" lon="111.449605">
        <ele>126.569309</ele>
        <time>2026-08-18T09:26:38.000Z</time>
      </trkpt>
      <trkpt lat="22.811049" lon="111.449652">
        <ele>126.664271</ele>
        <time>2026-08-18T09:26:39.000Z</time>
      </trkpt>
      <trkpt lat="22.811039" lon="111.449698">
        <ele>126.755735</ele>
        <time>2026-08-18T09:26:40.000Z</time>
      </trkpt>
      <trkpt lat="22.811028" lon="111.449744">
        <ele>126.847703</ele>
        <time>2026-08-18T09:26:41.000Z</time>
      </trkpt>
      <trkpt lat="22.811017" lon="111.449792">
        <ele>126.943422</ele>
        <time>2026-08-18T09:26:42.000Z</time>
      </trkpt>
      <trkpt lat="22.811004" lon="111.449840">
        <ele>127.040240</ele>
        <time>2026-08-18T09:26:43.000Z</time>
      </trkpt>
      <trkpt lat="22.810992" lon="111.449886">
        <ele>127.132757</ele>
        <time>2026-08-18T09:26:44.000Z</time>
      </trkpt>
      <trkpt lat="22.810980" lon="111.449935">
        <ele>127.230874</ele>
        <time>2026-08-18T09:26:45.000Z</time>
      </trkpt>
      <trkpt lat="22.810970" lon="111.449983">
        <ele>127.326108</ele>
        <time>2026-08-18T09:26:46.000Z</time>
      </trkpt>
      <trkpt lat="22.810958" lon="111.450030">
        <ele>127.420489</ele>
        <time>2026-08-18T09:26:47.000Z</time>
      </trkpt>
      <trkpt lat="22.810946" lon="111.450077">
        <ele>127.514870</ele>
        <time>2026-08-18T09:26:48.000Z</time>
      </trkpt>
      <trkpt lat="22.810936" lon="111.450126">
        <ele>127.611994</ele>
        <time>2026-08-18T09:26:49.000Z</time>
      </trkpt>
      <trkpt lat="22.810924" lon="111.450173">
        <ele>127.706375</ele>
        <time>2026-08-18T09:26:50.000Z</time>
      </trkpt>
      <trkpt lat="22.810912" lon="111.450220">
        <ele>127.800756</ele>
        <time>2026-08-18T09:26:51.000Z</time>
      </trkpt>
      <trkpt lat="22.810898" lon="111.450265">
        <ele>127.892668</ele>
        <time>2026-08-18T09:26:52.000Z</time>
      </trkpt>
      <trkpt lat="22.810880" lon="111.450313">
        <ele>127.992952</ele>
        <time>2026-08-18T09:26:53.000Z</time>
      </trkpt>
      <trkpt lat="22.810866" lon="111.450359">
        <ele>128.086700</ele>
        <time>2026-08-18T09:26:54.000Z</time>
      </trkpt>
      <trkpt lat="22.810852" lon="111.450408">
        <ele>128.185978</ele>
        <time>2026-08-18T09:26:55.000Z</time>
      </trkpt>
      <trkpt lat="22.810839" lon="111.450457">
        <ele>128.284654</ele>
        <time>2026-08-18T09:26:56.000Z</time>
      </trkpt>
      <trkpt lat="22.810826" lon="111.450505">
        <ele>128.381473</ele>
        <time>2026-08-18T09:26:57.000Z</time>
      </trkpt>
      <trkpt lat="22.810811" lon="111.450553">
        <ele>128.479557</ele>
        <time>2026-08-18T09:26:58.000Z</time>
      </trkpt>
      <trkpt lat="22.810797" lon="111.450600">
        <ele>128.575145</ele>
        <time>2026-08-18T09:26:59.000Z</time>
      </trkpt>
      <trkpt lat="22.810781" lon="111.450646">
        <ele>128.670293</ele>
        <time>2026-08-18T09:27:00.000Z</time>
      </trkpt>
      <trkpt lat="22.810766" lon="111.450691">
        <ele>128.762898</ele>
        <time>2026-08-18T09:27:01.000Z</time>
      </trkpt>
      <trkpt lat="22.810752" lon="111.450737">
        <ele>128.856646</ele>
        <time>2026-08-18T09:27:02.000Z</time>
      </trkpt>
      <trkpt lat="22.810740" lon="111.450785">
        <ele>128.952894</ele>
        <time>2026-08-18T09:27:03.000Z</time>
      </trkpt>
      <trkpt lat="22.810728" lon="111.450834">
        <ele>128.917573</ele>
        <time>2026-08-18T09:27:04.000Z</time>
      </trkpt>
      <trkpt lat="22.810717" lon="111.450883">
        <ele>128.859074</ele>
        <time>2026-08-18T09:27:05.000Z</time>
      </trkpt>
      <trkpt lat="22.810698" lon="111.450930">
        <ele>128.799544</ele>
        <time>2026-08-18T09:27:06.000Z</time>
      </trkpt>
      <trkpt lat="22.810685" lon="111.450979">
        <ele>128.740399</ele>
        <time>2026-08-18T09:27:07.000Z</time>
      </trkpt>
      <trkpt lat="22.810674" lon="111.451028">
        <ele>128.681900</ele>
        <time>2026-08-18T09:27:08.000Z</time>
      </trkpt>
      <trkpt lat="22.810663" lon="111.451077">
        <ele>128.623401</ele>
        <time>2026-08-18T09:27:09.000Z</time>
      </trkpt>
      <trkpt lat="22.810649" lon="111.451126">
        <ele>128.563895</ele>
        <time>2026-08-18T09:27:10.000Z</time>
      </trkpt>
      <trkpt lat="22.810634" lon="111.451173">
        <ele>128.506202</ele>
        <time>2026-08-18T09:27:11.000Z</time>
      </trkpt>
      <trkpt lat="22.810618" lon="111.451222">
        <ele>128.445904</ele>
        <time>2026-08-18T09:27:12.000Z</time>
      </trkpt>
      <trkpt lat="22.810604" lon="111.451269">
        <ele>128.388610</ele>
        <time>2026-08-18T09:27:13.000Z</time>
      </trkpt>
      <trkpt lat="22.810592" lon="111.451317">
        <ele>128.330921</ele>
        <time>2026-08-18T09:27:14.000Z</time>
      </trkpt>
      <trkpt lat="22.810578" lon="111.451365">
        <ele>128.272523</ele>
        <time>2026-08-18T09:27:15.000Z</time>
      </trkpt>
      <trkpt lat="22.810563" lon="111.451414">
        <ele>128.212633</ele>
        <time>2026-08-18T09:27:16.000Z</time>
      </trkpt>
      <trkpt lat="22.810547" lon="111.451462">
        <ele>128.153426</ele>
        <time>2026-08-18T09:27:17.000Z</time>
      </trkpt>
      <trkpt lat="22.810531" lon="111.451512">
        <ele>128.092033</ele>
        <time>2026-08-18T09:27:18.000Z</time>
      </trkpt>
      <trkpt lat="22.810517" lon="111.451562">
        <ele>128.031419</ele>
        <time>2026-08-18T09:27:19.000Z</time>
      </trkpt>
      <trkpt lat="22.810505" lon="111.451612">
        <ele>127.971487</ele>
        <time>2026-08-18T09:27:20.000Z</time>
      </trkpt>
      <trkpt lat="22.810492" lon="111.451661">
        <ele>127.912342</ele>
        <time>2026-08-18T09:27:21.000Z</time>
      </trkpt>
      <trkpt lat="22.810481" lon="111.451713">
        <ele>127.850457</ele>
        <time>2026-08-18T09:27:22.000Z</time>
      </trkpt>
      <trkpt lat="22.810469" lon="111.451766">
        <ele>127.787151</ele>
        <time>2026-08-18T09:27:23.000Z</time>
      </trkpt>
      <trkpt lat="22.810457" lon="111.451820">
        <ele>127.722719</ele>
        <time>2026-08-18T09:27:24.000Z</time>
      </trkpt>
      <trkpt lat="22.810442" lon="111.451874">
        <ele>127.657300</ele>
        <time>2026-08-18T09:27:25.000Z</time>
      </trkpt>
      <trkpt lat="22.810430" lon="111.451929">
        <ele>127.591739</ele>
        <time>2026-08-18T09:27:26.000Z</time>
      </trkpt>
      <trkpt lat="22.810415" lon="111.451983">
        <ele>127.526319</ele>
        <time>2026-08-18T09:27:27.000Z</time>
      </trkpt>
      <trkpt lat="22.810402" lon="111.452039">
        <ele>127.459334</ele>
        <time>2026-08-18T09:27:28.000Z</time>
      </trkpt>
      <trkpt lat="22.810391" lon="111.452087">
        <ele>127.401961</ele>
        <time>2026-08-18T09:27:29.000Z</time>
      </trkpt>
      <trkpt lat="22.810378" lon="111.452139">
        <ele>127.339464</ele>
        <time>2026-08-18T09:27:30.000Z</time>
      </trkpt>
      <trkpt lat="22.810368" lon="111.452193">
        <ele>127.275575</ele>
        <time>2026-08-18T09:27:31.000Z</time>
      </trkpt>
      <trkpt lat="22.810359" lon="111.452240">
        <ele>127.219893</ele>
        <time>2026-08-18T09:27:32.000Z</time>
      </trkpt>
      <trkpt lat="22.810345" lon="111.452298">
        <ele>127.150347</ele>
        <time>2026-08-18T09:27:33.000Z</time>
      </trkpt>
      <trkpt lat="22.810330" lon="111.452356">
        <ele>127.080472</ele>
        <time>2026-08-18T09:27:34.000Z</time>
      </trkpt>
      <trkpt lat="22.810313" lon="111.452414">
        <ele>127.009875</ele>
        <time>2026-08-18T09:27:35.000Z</time>
      </trkpt>
      <trkpt lat="22.810299" lon="111.452481">
        <ele>126.930186</ele>
        <time>2026-08-18T09:27:36.000Z</time>
      </trkpt>
      <trkpt lat="22.810279" lon="111.452548">
        <ele>126.848496</ele>
        <time>2026-08-18T09:27:37.000Z</time>
      </trkpt>
      <trkpt lat="22.810260" lon="111.452614">
        <ele>126.768292</ele>
        <time>2026-08-18T09:27:38.000Z</time>
      </trkpt>
      <trkpt lat="22.810240" lon="111.452682">
        <ele>126.661155</ele>
        <time>2026-08-18T09:27:39.000Z</time>
      </trkpt>
      <trkpt lat="22.810219" lon="111.452752">
        <ele>126.464756</ele>
        <time>2026-08-18T09:27:40.000Z</time>
      </trkpt>
      <trkpt lat="22.810199" lon="111.452823">
        <ele>126.266683</ele>
        <time>2026-08-18T09:27:41.000Z</time>
      </trkpt>
      <trkpt lat="22.810180" lon="111.452895">
        <ele>126.066873</ele>
        <time>2026-08-18T09:27:42.000Z</time>
      </trkpt>
      <trkpt lat="22.810163" lon="111.452969">
        <ele>125.863405</ele>
        <time>2026-08-18T09:27:43.000Z</time>
      </trkpt>
      <trkpt lat="22.810142" lon="111.453043">
        <ele>125.656831</ele>
        <time>2026-08-18T09:27:44.000Z</time>
      </trkpt>
      <trkpt lat="22.810122" lon="111.453117">
        <ele>125.451090</ele>
        <time>2026-08-18T09:27:45.000Z</time>
      </trkpt>
      <trkpt lat="22.810104" lon="111.453195">
        <ele>125.236567</ele>
        <time>2026-08-18T09:27:46.000Z</time>
      </trkpt>
      <trkpt lat="22.810083" lon="111.453272">
        <ele>125.022331</ele>
        <time>2026-08-18T09:27:47.000Z</time>
      </trkpt>
      <trkpt lat="22.810059" lon="111.453347">
        <ele>124.810519</ele>
        <time>2026-08-18T09:27:48.000Z</time>
      </trkpt>
      <trkpt lat="22.810037" lon="111.453424">
        <ele>124.595444</ele>
        <time>2026-08-18T09:27:49.000Z</time>
      </trkpt>
      <trkpt lat="22.810015" lon="111.453504">
        <ele>124.372711</ele>
        <time>2026-08-18T09:27:50.000Z</time>
      </trkpt>
      <trkpt lat="22.809992" lon="111.453583">
        <ele>124.151678</ele>
        <time>2026-08-18T09:27:51.000Z</time>
      </trkpt>
      <trkpt lat="22.809969" lon="111.453663">
        <ele>123.928101</ele>
        <time>2026-08-18T09:27:52.000Z</time>
      </trkpt>
      <trkpt lat="22.809945" lon="111.453744">
        <ele>123.701106</ele>
        <time>2026-08-18T09:27:53.000Z</time>
      </trkpt>
      <trkpt lat="22.809922" lon="111.453825">
        <ele>123.474979</ele>
        <time>2026-08-18T09:27:54.000Z</time>
      </trkpt>
      <trkpt lat="22.809899" lon="111.453907">
        <ele>123.246302</ele>
        <time>2026-08-18T09:27:55.000Z</time>
      </trkpt>
      <trkpt lat="22.809878" lon="111.453990">
        <ele>123.016671</ele>
        <time>2026-08-18T09:27:56.000Z</time>
      </trkpt>
      <trkpt lat="22.809857" lon="111.454074">
        <ele>122.784465</ele>
        <time>2026-08-18T09:27:57.000Z</time>
      </trkpt>
      <trkpt lat="22.809834" lon="111.454156">
        <ele>122.555788</ele>
        <time>2026-08-18T09:27:58.000Z</time>
      </trkpt>
      <trkpt lat="22.809810" lon="111.454239">
        <ele>122.323707</ele>
        <time>2026-08-18T09:27:59.000Z</time>
      </trkpt>
      <trkpt lat="22.809788" lon="111.454323">
        <ele>122.090727</ele>
        <time>2026-08-18T09:28:00.000Z</time>
      </trkpt>
      <trkpt lat="22.809768" lon="111.454405">
        <ele>121.864424</ele>
        <time>2026-08-18T09:28:01.000Z</time>
      </trkpt>
      <trkpt lat="22.809749" lon="111.454485">
        <ele>121.644016</ele>
        <time>2026-08-18T09:28:02.000Z</time>
      </trkpt>
      <trkpt lat="22.809726" lon="111.454562">
        <ele>121.496465</ele>
        <time>2026-08-18T09:28:03.000Z</time>
      </trkpt>
      <trkpt lat="22.809704" lon="111.454638">
        <ele>121.490682</ele>
        <time>2026-08-18T09:28:04.000Z</time>
      </trkpt>
      <trkpt lat="22.809685" lon="111.454716">
        <ele>121.484825</ele>
        <time>2026-08-18T09:28:05.000Z</time>
      </trkpt>
      <trkpt lat="22.809666" lon="111.454791">
        <ele>121.479178</ele>
        <time>2026-08-18T09:28:06.000Z</time>
      </trkpt>
      <trkpt lat="22.809645" lon="111.454865">
        <ele>121.473557</ele>
        <time>2026-08-18T09:28:07.000Z</time>
      </trkpt>
      <trkpt lat="22.809623" lon="111.454938">
        <ele>121.467981</ele>
        <time>2026-08-18T09:28:08.000Z</time>
      </trkpt>
      <trkpt lat="22.809603" lon="111.455014">
        <ele>121.462243</ele>
        <time>2026-08-18T09:28:09.000Z</time>
      </trkpt>
      <trkpt lat="22.809584" lon="111.455090">
        <ele>121.456526</ele>
        <time>2026-08-18T09:28:10.000Z</time>
      </trkpt>
      <trkpt lat="22.809564" lon="111.455163">
        <ele>121.450997</ele>
        <time>2026-08-18T09:28:11.000Z</time>
      </trkpt>
      <trkpt lat="22.809547" lon="111.455236">
        <ele>121.445531</ele>
        <time>2026-08-18T09:28:12.000Z</time>
      </trkpt>
      <trkpt lat="22.809528" lon="111.455310">
        <ele>121.439954</ele>
        <time>2026-08-18T09:28:13.000Z</time>
      </trkpt>
      <trkpt lat="22.809509" lon="111.455378">
        <ele>121.434795</ele>
        <time>2026-08-18T09:28:14.000Z</time>
      </trkpt>
      <trkpt lat="22.809494" lon="111.455448">
        <ele>121.429578</ele>
        <time>2026-08-18T09:28:15.000Z</time>
      </trkpt>
      <trkpt lat="22.809478" lon="111.455517">
        <ele>121.424413</ele>
        <time>2026-08-18T09:28:16.000Z</time>
      </trkpt>
      <trkpt lat="22.809462" lon="111.455585">
        <ele>121.419318</ele>
        <time>2026-08-18T09:28:17.000Z</time>
      </trkpt>
      <trkpt lat="22.809445" lon="111.455649">
        <ele>121.414482</ele>
        <time>2026-08-18T09:28:18.000Z</time>
      </trkpt>
      <trkpt lat="22.809429" lon="111.455713">
        <ele>121.409668</ele>
        <time>2026-08-18T09:28:19.000Z</time>
      </trkpt>
      <trkpt lat="22.809414" lon="111.455778">
        <ele>121.404803</ele>
        <time>2026-08-18T09:28:20.000Z</time>
      </trkpt>
      <trkpt lat="22.809401" lon="111.455843">
        <ele>121.399975</ele>
        <time>2026-08-18T09:28:21.000Z</time>
      </trkpt>
      <trkpt lat="22.809388" lon="111.455908">
        <ele>121.395146</ele>
        <time>2026-08-18T09:28:22.000Z</time>
      </trkpt>
      <trkpt lat="22.809374" lon="111.455973">
        <ele>121.390300</ele>
        <time>2026-08-18T09:28:23.000Z</time>
      </trkpt>
      <trkpt lat="22.809363" lon="111.456038">
        <ele>121.385502</ele>
        <time>2026-08-18T09:28:24.000Z</time>
      </trkpt>
      <trkpt lat="22.809349" lon="111.456103">
        <ele>121.380656</ele>
        <time>2026-08-18T09:28:25.000Z</time>
      </trkpt>
      <trkpt lat="22.809336" lon="111.456169">
        <ele>121.375756</ele>
        <time>2026-08-18T09:28:26.000Z</time>
      </trkpt>
      <trkpt lat="22.809320" lon="111.456234">
        <ele>121.370872</ele>
        <time>2026-08-18T09:28:27.000Z</time>
      </trkpt>
      <trkpt lat="22.809304" lon="111.456299">
        <ele>121.365987</ele>
        <time>2026-08-18T09:28:28.000Z</time>
      </trkpt>
      <trkpt lat="22.809290" lon="111.456365">
        <ele>121.361071</ele>
        <time>2026-08-18T09:28:29.000Z</time>
      </trkpt>
      <trkpt lat="22.809277" lon="111.456431">
        <ele>121.357921</ele>
        <time>2026-08-18T09:28:30.000Z</time>
      </trkpt>
      <trkpt lat="22.809264" lon="111.456496">
        <ele>121.368482</ele>
        <time>2026-08-18T09:28:31.000Z</time>
      </trkpt>
      <trkpt lat="22.809251" lon="111.456561">
        <ele>121.379043</ele>
        <time>2026-08-18T09:28:32.000Z</time>
      </trkpt>
      <trkpt lat="22.809239" lon="111.456625">
        <ele>121.389413</ele>
        <time>2026-08-18T09:28:33.000Z</time>
      </trkpt>
      <trkpt lat="22.809226" lon="111.456688">
        <ele>121.399663</ele>
        <time>2026-08-18T09:28:34.000Z</time>
      </trkpt>
      <trkpt lat="22.809215" lon="111.456754">
        <ele>121.410313</ele>
        <time>2026-08-18T09:28:35.000Z</time>
      </trkpt>
      <trkpt lat="22.809203" lon="111.456819">
        <ele>121.420838</ele>
        <time>2026-08-18T09:28:36.000Z</time>
      </trkpt>
      <trkpt lat="22.809192" lon="111.456885">
        <ele>121.431487</ele>
        <time>2026-08-18T09:28:37.000Z</time>
      </trkpt>
      <trkpt lat="22.809180" lon="111.456949">
        <ele>121.441857</ele>
        <time>2026-08-18T09:28:38.000Z</time>
      </trkpt>
      <trkpt lat="22.809166" lon="111.457013">
        <ele>121.452301</ele>
        <time>2026-08-18T09:28:39.000Z</time>
      </trkpt>
      <trkpt lat="22.809154" lon="111.457077">
        <ele>121.462671</ele>
        <time>2026-08-18T09:28:40.000Z</time>
      </trkpt>
      <trkpt lat="22.809141" lon="111.457140">
        <ele>121.472922</ele>
        <time>2026-08-18T09:28:41.000Z</time>
      </trkpt>
      <trkpt lat="22.809130" lon="111.457204">
        <ele>121.483259</ele>
        <time>2026-08-18T09:28:42.000Z</time>
      </trkpt>
      <trkpt lat="22.809119" lon="111.457269">
        <ele>121.493752</ele>
        <time>2026-08-18T09:28:43.000Z</time>
      </trkpt>
      <trkpt lat="22.809108" lon="111.457334">
        <ele>121.504245</ele>
        <time>2026-08-18T09:28:44.000Z</time>
      </trkpt>
      <trkpt lat="22.809098" lon="111.457398">
        <ele>121.514552</ele>
        <time>2026-08-18T09:28:45.000Z</time>
      </trkpt>
      <trkpt lat="22.809088" lon="111.457461">
        <ele>121.524702</ele>
        <time>2026-08-18T09:28:46.000Z</time>
      </trkpt>
      <trkpt lat="22.809079" lon="111.457526">
        <ele>121.535139</ele>
        <time>2026-08-18T09:28:47.000Z</time>
      </trkpt>
      <trkpt lat="22.809069" lon="111.457591">
        <ele>121.545602</ele>
        <time>2026-08-18T09:28:48.000Z</time>
      </trkpt>
      <trkpt lat="22.809059" lon="111.457656">
        <ele>121.556066</ele>
        <time>2026-08-18T09:28:49.000Z</time>
      </trkpt>
      <trkpt lat="22.809048" lon="111.457719">
        <ele>121.566246</ele>
        <time>2026-08-18T09:28:50.000Z</time>
      </trkpt>
      <trkpt lat="22.809036" lon="111.457781">
        <ele>121.576305</ele>
        <time>2026-08-18T09:28:51.000Z</time>
      </trkpt>
      <trkpt lat="22.809025" lon="111.457844">
        <ele>121.586486</ele>
        <time>2026-08-18T09:28:52.000Z</time>
      </trkpt>
      <trkpt lat="22.809017" lon="111.457907">
        <ele>121.596584</ele>
        <time>2026-08-18T09:28:53.000Z</time>
      </trkpt>
      <trkpt lat="22.809008" lon="111.457970">
        <ele>121.606706</ele>
        <time>2026-08-18T09:28:54.000Z</time>
      </trkpt>
      <trkpt lat="22.809000" lon="111.458033">
        <ele>121.616804</ele>
        <time>2026-08-18T09:28:55.000Z</time>
      </trkpt>
      <trkpt lat="22.808993" lon="111.458095">
        <ele>121.626722</ele>
        <time>2026-08-18T09:28:56.000Z</time>
      </trkpt>
      <trkpt lat="22.808983" lon="111.458153">
        <ele>121.636091</ele>
        <time>2026-08-18T09:28:57.000Z</time>
      </trkpt>
      <trkpt lat="22.808974" lon="111.458212">
        <ele>121.645586</ele>
        <time>2026-08-18T09:28:58.000Z</time>
      </trkpt>
      <trkpt lat="22.808965" lon="111.458273">
        <ele>121.655395</ele>
        <time>2026-08-18T09:28:59.000Z</time>
      </trkpt>
      <trkpt lat="22.808956" lon="111.458335">
        <ele>121.665361</ele>
        <time>2026-08-18T09:29:00.000Z</time>
      </trkpt>
      <trkpt lat="22.808945" lon="111.458395">
        <ele>121.673272</ele>
        <time>2026-08-18T09:29:01.000Z</time>
      </trkpt>
      <trkpt lat="22.808937" lon="111.458457">
        <ele>121.681115</ele>
        <time>2026-08-18T09:29:02.000Z</time>
      </trkpt>
      <trkpt lat="22.808930" lon="111.458516">
        <ele>121.688567</ele>
        <time>2026-08-18T09:29:03.000Z</time>
      </trkpt>
      <trkpt lat="22.808924" lon="111.458575">
        <ele>121.696003</ele>
        <time>2026-08-18T09:29:04.000Z</time>
      </trkpt>
      <trkpt lat="22.808916" lon="111.458632">
        <ele>121.703227</ele>
        <time>2026-08-18T09:29:05.000Z</time>
      </trkpt>
      <trkpt lat="22.808904" lon="111.458690">
        <ele>121.710673</ele>
        <time>2026-08-18T09:29:06.000Z</time>
      </trkpt>
      <trkpt lat="22.808890" lon="111.458747">
        <ele>121.718063</ele>
        <time>2026-08-18T09:29:07.000Z</time>
      </trkpt>
      <trkpt lat="22.808880" lon="111.458803">
        <ele>121.725209</ele>
        <time>2026-08-18T09:29:08.000Z</time>
      </trkpt>
      <trkpt lat="22.808870" lon="111.458859">
        <ele>121.732355</ele>
        <time>2026-08-18T09:29:09.000Z</time>
      </trkpt>
      <trkpt lat="22.808858" lon="111.458918">
        <ele>121.739924</ele>
        <time>2026-08-18T09:29:10.000Z</time>
      </trkpt>
      <trkpt lat="22.808848" lon="111.458978">
        <ele>121.747563</ele>
        <time>2026-08-18T09:29:11.000Z</time>
      </trkpt>
      <trkpt lat="22.808839" lon="111.459038">
        <ele>121.755179</ele>
        <time>2026-08-18T09:29:12.000Z</time>
      </trkpt>
      <trkpt lat="22.808830" lon="111.459097">
        <ele>121.762670</ele>
        <time>2026-08-18T09:29:13.000Z</time>
      </trkpt>
      <trkpt lat="22.808820" lon="111.459154">
        <ele>121.769939</ele>
        <time>2026-08-18T09:29:14.000Z</time>
      </trkpt>
      <trkpt lat="22.808810" lon="111.459212">
        <ele>121.777332</ele>
        <time>2026-08-18T09:29:15.000Z</time>
      </trkpt>
      <trkpt lat="22.808799" lon="111.459270">
        <ele>121.784750</ele>
        <time>2026-08-18T09:29:16.000Z</time>
      </trkpt>
      <trkpt lat="22.808791" lon="111.459327">
        <ele>121.791973</ele>
        <time>2026-08-18T09:29:17.000Z</time>
      </trkpt>
      <trkpt lat="22.808782" lon="111.459383">
        <ele>121.799094</ele>
        <time>2026-08-18T09:29:18.000Z</time>
      </trkpt>
      <trkpt lat="22.808772" lon="111.459439">
        <ele>121.806240</ele>
        <time>2026-08-18T09:29:19.000Z</time>
      </trkpt>
      <trkpt lat="22.808761" lon="111.459495">
        <ele>121.813413</ele>
        <time>2026-08-18T09:29:20.000Z</time>
      </trkpt>
      <trkpt lat="22.808751" lon="111.459552">
        <ele>121.820682</ele>
        <time>2026-08-18T09:29:21.000Z</time>
      </trkpt>
      <trkpt lat="22.808742" lon="111.459608">
        <ele>121.827804</ele>
        <time>2026-08-18T09:29:22.000Z</time>
      </trkpt>
      <trkpt lat="22.808733" lon="111.459665">
        <ele>121.835049</ele>
        <time>2026-08-18T09:29:23.000Z</time>
      </trkpt>
      <trkpt lat="22.808724" lon="111.459721">
        <ele>121.842170</ele>
        <time>2026-08-18T09:29:24.000Z</time>
      </trkpt>
      <trkpt lat="22.808715" lon="111.459779">
        <ele>121.849538</ele>
        <time>2026-08-18T09:29:25.000Z</time>
      </trkpt>
      <trkpt lat="22.808707" lon="111.459839">
        <ele>121.857133</ele>
        <time>2026-08-18T09:29:26.000Z</time>
      </trkpt>
      <trkpt lat="22.808698" lon="111.459899">
        <ele>121.864749</ele>
        <time>2026-08-18T09:29:27.000Z</time>
      </trkpt>
      <trkpt lat="22.808688" lon="111.459959">
        <ele>121.872387</ele>
        <time>2026-08-18T09:29:28.000Z</time>
      </trkpt>
      <trkpt lat="22.808678" lon="111.460020">
        <ele>121.880149</ele>
        <time>2026-08-18T09:29:29.000Z</time>
      </trkpt>
      <trkpt lat="22.808666" lon="111.460081">
        <ele>121.887963</ele>
        <time>2026-08-18T09:29:30.000Z</time>
      </trkpt>
      <trkpt lat="22.808653" lon="111.460143">
        <ele>121.895929</ele>
        <time>2026-08-18T09:29:31.000Z</time>
      </trkpt>
      <trkpt lat="22.808640" lon="111.460204">
        <ele>121.903772</ele>
        <time>2026-08-18T09:29:32.000Z</time>
      </trkpt>
      <trkpt lat="22.808630" lon="111.460264">
        <ele>121.911431</ele>
        <time>2026-08-18T09:29:33.000Z</time>
      </trkpt>
      <trkpt lat="22.808621" lon="111.460325">
        <ele>121.919531</ele>
        <time>2026-08-18T09:29:34.000Z</time>
      </trkpt>
      <trkpt lat="22.808612" lon="111.460387">
        <ele>121.927761</ele>
        <time>2026-08-18T09:29:35.000Z</time>
      </trkpt>
      <trkpt lat="22.808603" lon="111.460448">
        <ele>121.935861</ele>
        <time>2026-08-18T09:29:36.000Z</time>
      </trkpt>
      <trkpt lat="22.808593" lon="111.460510">
        <ele>121.944115</ele>
        <time>2026-08-18T09:29:37.000Z</time>
      </trkpt>
      <trkpt lat="22.808582" lon="111.460571">
        <ele>121.952265</ele>
        <time>2026-08-18T09:29:38.000Z</time>
      </trkpt>
      <trkpt lat="22.808567" lon="111.460632">
        <ele>121.960543</ele>
        <time>2026-08-18T09:29:39.000Z</time>
      </trkpt>
      <trkpt lat="22.808553" lon="111.460693">
        <ele>121.968786</ele>
        <time>2026-08-18T09:29:40.000Z</time>
      </trkpt>
      <trkpt lat="22.808539" lon="111.460753">
        <ele>121.976901</ele>
        <time>2026-08-18T09:29:41.000Z</time>
      </trkpt>
      <trkpt lat="22.808524" lon="111.460813">
        <ele>121.985053</ele>
        <time>2026-08-18T09:29:42.000Z</time>
      </trkpt>
      <trkpt lat="22.808510" lon="111.460875">
        <ele>121.993423</ele>
        <time>2026-08-18T09:29:43.000Z</time>
      </trkpt>
      <trkpt lat="22.808493" lon="111.460936">
        <ele>122.001779</ele>
        <time>2026-08-18T09:29:44.000Z</time>
      </trkpt>
      <trkpt lat="22.808475" lon="111.460997">
        <ele>122.010177</ele>
        <time>2026-08-18T09:29:45.000Z</time>
      </trkpt>
      <trkpt lat="22.808455" lon="111.461057">
        <ele>122.018543</ele>
        <time>2026-08-18T09:29:46.000Z</time>
      </trkpt>
      <trkpt lat="22.808436" lon="111.461115">
        <ele>122.026614</ele>
        <time>2026-08-18T09:29:47.000Z</time>
      </trkpt>
      <trkpt lat="22.808415" lon="111.461172">
        <ele>122.034663</ele>
        <time>2026-08-18T09:29:48.000Z</time>
      </trkpt>
      <trkpt lat="22.808394" lon="111.461229">
        <ele>122.042712</ele>
        <time>2026-08-18T09:29:49.000Z</time>
      </trkpt>
      <trkpt lat="22.808374" lon="111.461287">
        <ele>122.050832</ele>
        <time>2026-08-18T09:29:50.000Z</time>
      </trkpt>
      <trkpt lat="22.808351" lon="111.461344">
        <ele>122.058990</ele>
        <time>2026-08-18T09:29:51.000Z</time>
      </trkpt>
      <trkpt lat="22.808328" lon="111.461396">
        <ele>122.066553</ele>
        <time>2026-08-18T09:29:52.000Z</time>
      </trkpt>
      <trkpt lat="22.808305" lon="111.461448">
        <ele>122.074116</ele>
        <time>2026-08-18T09:29:53.000Z</time>
      </trkpt>
      <trkpt lat="22.808281" lon="111.461504">
        <ele>122.082213</ele>
        <time>2026-08-18T09:29:54.000Z</time>
      </trkpt>
      <trkpt lat="22.808255" lon="111.461560">
        <ele>122.090435</ele>
        <time>2026-08-18T09:29:55.000Z</time>
      </trkpt>
      <trkpt lat="22.808228" lon="111.461613">
        <ele>122.098375</ele>
        <time>2026-08-18T09:29:56.000Z</time>
      </trkpt>
      <trkpt lat="22.808201" lon="111.461664">
        <ele>122.106087</ele>
        <time>2026-08-18T09:29:57.000Z</time>
      </trkpt>
      <trkpt lat="22.808172" lon="111.461715">
        <ele>122.113944</ele>
        <time>2026-08-18T09:29:58.000Z</time>
      </trkpt>
      <trkpt lat="22.808141" lon="111.461766">
        <ele>122.121954</ele>
        <time>2026-08-18T09:29:59.000Z</time>
      </trkpt>
      <trkpt lat="22.808109" lon="111.461816">
        <ele>122.129936</ele>
        <time>2026-08-18T09:30:00.000Z</time>
      </trkpt>
      <trkpt lat="22.808077" lon="111.461865">
        <ele>122.137810</ele>
        <time>2026-08-18T09:30:01.000Z</time>
      </trkpt>
      <trkpt lat="22.808046" lon="111.461913">
        <ele>122.145495</ele>
        <time>2026-08-18T09:30:02.000Z</time>
      </trkpt>
      <trkpt lat="22.808014" lon="111.461960">
        <ele>122.153156</ele>
        <time>2026-08-18T09:30:03.000Z</time>
      </trkpt>
      <trkpt lat="22.807980" lon="111.462009">
        <ele>122.161198</ele>
        <time>2026-08-18T09:30:04.000Z</time>
      </trkpt>
      <trkpt lat="22.807944" lon="111.462055">
        <ele>122.168158</ele>
        <time>2026-08-18T09:30:05.000Z</time>
      </trkpt>
      <trkpt lat="22.807907" lon="111.462098">
        <ele>122.172652</ele>
        <time>2026-08-18T09:30:06.000Z</time>
      </trkpt>
      <trkpt lat="22.807871" lon="111.462144">
        <ele>122.177262</ele>
        <time>2026-08-18T09:30:07.000Z</time>
      </trkpt>
      <trkpt lat="22.807835" lon="111.462189">
        <ele>122.181814</ele>
        <time>2026-08-18T09:30:08.000Z</time>
      </trkpt>
      <trkpt lat="22.807798" lon="111.462234">
        <ele>122.186421</ele>
        <time>2026-08-18T09:30:09.000Z</time>
      </trkpt>
      <trkpt lat="22.807759" lon="111.462277">
        <ele>122.191029</ele>
        <time>2026-08-18T09:30:10.000Z</time>
      </trkpt>
      <trkpt lat="22.807721" lon="111.462319">
        <ele>122.195525</ele>
        <time>2026-08-18T09:30:11.000Z</time>
      </trkpt>
      <trkpt lat="22.807683" lon="111.462361">
        <ele>122.200021</ele>
        <time>2026-08-18T09:30:12.000Z</time>
      </trkpt>
      <trkpt lat="22.807644" lon="111.462403">
        <ele>122.204576</ele>
        <time>2026-08-18T09:30:13.000Z</time>
      </trkpt>
      <trkpt lat="22.807603" lon="111.462443">
        <ele>122.209146</ele>
        <time>2026-08-18T09:30:14.000Z</time>
      </trkpt>
      <trkpt lat="22.807563" lon="111.462483">
        <ele>122.213654</ele>
        <time>2026-08-18T09:30:15.000Z</time>
      </trkpt>
      <trkpt lat="22.807521" lon="111.462523">
        <ele>122.218286</ele>
        <time>2026-08-18T09:30:16.000Z</time>
      </trkpt>
      <trkpt lat="22.807479" lon="111.462560">
        <ele>122.222770</ele>
        <time>2026-08-18T09:30:17.000Z</time>
      </trkpt>
      <trkpt lat="22.807440" lon="111.462597">
        <ele>122.227064</ele>
        <time>2026-08-18T09:30:18.000Z</time>
      </trkpt>
      <trkpt lat="22.807401" lon="111.462631">
        <ele>122.231211</ele>
        <time>2026-08-18T09:30:19.000Z</time>
      </trkpt>
      <trkpt lat="22.807357" lon="111.462666">
        <ele>122.235733</ele>
        <time>2026-08-18T09:30:20.000Z</time>
      </trkpt>
      <trkpt lat="22.807308" lon="111.462705">
        <ele>122.240770</ele>
        <time>2026-08-18T09:30:21.000Z</time>
      </trkpt>
      <trkpt lat="22.807263" lon="111.462741">
        <ele>122.245404</ele>
        <time>2026-08-18T09:30:22.000Z</time>
      </trkpt>
      <trkpt lat="22.807215" lon="111.462773">
        <ele>122.250073</ele>
        <time>2026-08-18T09:30:23.000Z</time>
      </trkpt>
      <trkpt lat="22.807169" lon="111.462807">
        <ele>122.254686</ele>
        <time>2026-08-18T09:30:24.000Z</time>
      </trkpt>
      <trkpt lat="22.807120" lon="111.462839">
        <ele>122.259426</ele>
        <time>2026-08-18T09:30:25.000Z</time>
      </trkpt>
      <trkpt lat="22.807071" lon="111.462871">
        <ele>122.264166</ele>
        <time>2026-08-18T09:30:26.000Z</time>
      </trkpt>
      <trkpt lat="22.807024" lon="111.462903">
        <ele>122.268765</ele>
        <time>2026-08-18T09:30:27.000Z</time>
      </trkpt>
      <trkpt lat="22.806976" lon="111.462933">
        <ele>122.273356</ele>
        <time>2026-08-18T09:30:28.000Z</time>
      </trkpt>
      <trkpt lat="22.806928" lon="111.462965">
        <ele>122.278026</ele>
        <time>2026-08-18T09:30:29.000Z</time>
      </trkpt>
      <trkpt lat="22.806878" lon="111.462997">
        <ele>122.282837</ele>
        <time>2026-08-18T09:30:30.000Z</time>
      </trkpt>
      <trkpt lat="22.806829" lon="111.463028">
        <ele>122.287538</ele>
        <time>2026-08-18T09:30:31.000Z</time>
      </trkpt>
      <trkpt lat="22.806780" lon="111.463060">
        <ele>122.292278</ele>
        <time>2026-08-18T09:30:32.000Z</time>
      </trkpt>
      <trkpt lat="22.806731" lon="111.463092">
        <ele>122.297018</ele>
        <time>2026-08-18T09:30:33.000Z</time>
      </trkpt>
      <trkpt lat="22.806682" lon="111.463126">
        <ele>122.301839</ele>
        <time>2026-08-18T09:30:34.000Z</time>
      </trkpt>
      <trkpt lat="22.806633" lon="111.463158">
        <ele>122.306579</ele>
        <time>2026-08-18T09:30:35.000Z</time>
      </trkpt>
      <trkpt lat="22.806583" lon="111.463190">
        <ele>122.311391</ele>
        <time>2026-08-18T09:30:36.000Z</time>
      </trkpt>
      <trkpt lat="22.806533" lon="111.463222">
        <ele>122.320305</ele>
        <time>2026-08-18T09:30:37.000Z</time>
      </trkpt>
      <trkpt lat="22.806484" lon="111.463254">
        <ele>122.388533</ele>
        <time>2026-08-18T09:30:38.000Z</time>
      </trkpt>
      <trkpt lat="22.806434" lon="111.463287">
        <ele>122.458352</ele>
        <time>2026-08-18T09:30:39.000Z</time>
      </trkpt>
      <trkpt lat="22.806384" lon="111.463318">
        <ele>122.527053</ele>
        <time>2026-08-18T09:30:40.000Z</time>
      </trkpt>
      <trkpt lat="22.806335" lon="111.463346">
        <ele>122.593120</ele>
        <time>2026-08-18T09:30:41.000Z</time>
      </trkpt>
      <trkpt lat="22.806286" lon="111.463375">
        <ele>122.659707</ele>
        <time>2026-08-18T09:30:42.000Z</time>
      </trkpt>
      <trkpt lat="22.806237" lon="111.463405">
        <ele>122.726828</ele>
        <time>2026-08-18T09:30:43.000Z</time>
      </trkpt>
      <trkpt lat="22.806189" lon="111.463435">
        <ele>122.792912</ele>
        <time>2026-08-18T09:30:44.000Z</time>
      </trkpt>
      <trkpt lat="22.806141" lon="111.463468">
        <ele>122.860704</ele>
        <time>2026-08-18T09:30:45.000Z</time>
      </trkpt>
      <trkpt lat="22.806091" lon="111.463499">
        <ele>122.929405</ele>
        <time>2026-08-18T09:30:46.000Z</time>
      </trkpt>
      <trkpt lat="22.806044" lon="111.463533">
        <ele>122.996795</ele>
        <time>2026-08-18T09:30:47.000Z</time>
      </trkpt>
      <trkpt lat="22.805997" lon="111.463562">
        <ele>123.061298</ele>
        <time>2026-08-18T09:30:48.000Z</time>
      </trkpt>
      <trkpt lat="22.805950" lon="111.463593">
        <ele>123.126916</ele>
        <time>2026-08-18T09:30:49.000Z</time>
      </trkpt>
      <trkpt lat="22.805904" lon="111.463624">
        <ele>123.191518</ele>
        <time>2026-08-18T09:30:50.000Z</time>
      </trkpt>
      <trkpt lat="22.805857" lon="111.463656">
        <ele>123.257714</ele>
        <time>2026-08-18T09:30:51.000Z</time>
      </trkpt>
      <trkpt lat="22.805813" lon="111.463687">
        <ele>123.320301</ele>
        <time>2026-08-18T09:30:52.000Z</time>
      </trkpt>
      <trkpt lat="22.805771" lon="111.463719">
        <ele>123.381527</ele>
        <time>2026-08-18T09:30:53.000Z</time>
      </trkpt>
      <trkpt lat="22.805726" lon="111.463749">
        <ele>123.444536</ele>
        <time>2026-08-18T09:30:54.000Z</time>
      </trkpt>
      <trkpt lat="22.805681" lon="111.463776">
        <ele>123.505882</ele>
        <time>2026-08-18T09:30:55.000Z</time>
      </trkpt>
      <trkpt lat="22.805638" lon="111.463803">
        <ele>123.565151</ele>
        <time>2026-08-18T09:30:56.000Z</time>
      </trkpt>
      <trkpt lat="22.805596" lon="111.463830">
        <ele>123.623391</ele>
        <time>2026-08-18T09:30:57.000Z</time>
      </trkpt>
      <trkpt lat="22.805555" lon="111.463856">
        <ele>123.680046</ele>
        <time>2026-08-18T09:30:58.000Z</time>
      </trkpt>
      <trkpt lat="22.805515" lon="111.463883">
        <ele>123.736246</ele>
        <time>2026-08-18T09:30:59.000Z</time>
      </trkpt>
      <trkpt lat="22.805476" lon="111.463910">
        <ele>123.791437</ele>
        <time>2026-08-18T09:31:00.000Z</time>
      </trkpt>
      <trkpt lat="22.805437" lon="111.463936">
        <ele>123.846045</ele>
        <time>2026-08-18T09:31:01.000Z</time>
      </trkpt>
      <trkpt lat="22.805398" lon="111.463960">
        <ele>123.899534</ele>
        <time>2026-08-18T09:31:02.000Z</time>
      </trkpt>
      <trkpt lat="22.805361" lon="111.463986">
        <ele>123.952124</ele>
        <time>2026-08-18T09:31:03.000Z</time>
      </trkpt>
      <trkpt lat="22.805323" lon="111.464013">
        <ele>124.006313</ele>
        <time>2026-08-18T09:31:04.000Z</time>
      </trkpt>
      <trkpt lat="22.805287" lon="111.464039">
        <ele>124.057906</ele>
        <time>2026-08-18T09:31:05.000Z</time>
      </trkpt>
      <trkpt lat="22.805251" lon="111.464065">
        <ele>124.109499</ele>
        <time>2026-08-18T09:31:06.000Z</time>
      </trkpt>
      <trkpt lat="22.805217" lon="111.464090">
        <ele>124.158498</ele>
        <time>2026-08-18T09:31:07.000Z</time>
      </trkpt>
      <trkpt lat="22.805185" lon="111.464119">
        <ele>124.208240</ele>
        <time>2026-08-18T09:31:08.000Z</time>
      </trkpt>
      <trkpt lat="22.805151" lon="111.464146">
        <ele>124.258505</ele>
        <time>2026-08-18T09:31:09.000Z</time>
      </trkpt>
      <trkpt lat="22.805118" lon="111.464172">
        <ele>124.307160</ele>
        <time>2026-08-18T09:31:10.000Z</time>
      </trkpt>
      <trkpt lat="22.805082" lon="111.464197">
        <ele>124.358151</ele>
        <time>2026-08-18T09:31:11.000Z</time>
      </trkpt>
      <trkpt lat="22.805047" lon="111.464224">
        <ele>124.409384</ele>
        <time>2026-08-18T09:31:12.000Z</time>
      </trkpt>
      <trkpt lat="22.805012" lon="111.464252">
        <ele>124.461263</ele>
        <time>2026-08-18T09:31:13.000Z</time>
      </trkpt>
      <trkpt lat="22.804977" lon="111.464278">
        <ele>124.406194</ele>
        <time>2026-08-18T09:31:14.000Z</time>
      </trkpt>
      <trkpt lat="22.804943" lon="111.464307">
        <ele>124.349422</ele>
        <time>2026-08-18T09:31:15.000Z</time>
      </trkpt>
      <trkpt lat="22.804909" lon="111.464338">
        <ele>124.291122</ele>
        <time>2026-08-18T09:31:16.000Z</time>
      </trkpt>
      <trkpt lat="22.804875" lon="111.464369">
        <ele>124.232823</ele>
        <time>2026-08-18T09:31:17.000Z</time>
      </trkpt>
      <trkpt lat="22.804841" lon="111.464401">
        <ele>124.173738</ele>
        <time>2026-08-18T09:31:18.000Z</time>
      </trkpt>
      <trkpt lat="22.804806" lon="111.464430">
        <ele>124.115928</ele>
        <time>2026-08-18T09:31:19.000Z</time>
      </trkpt>
      <trkpt lat="22.804771" lon="111.464462">
        <ele>124.055845</ele>
        <time>2026-08-18T09:31:20.000Z</time>
      </trkpt>
      <trkpt lat="22.804736" lon="111.464496">
        <ele>123.994174</ele>
        <time>2026-08-18T09:31:21.000Z</time>
      </trkpt>
      <trkpt lat="22.804702" lon="111.464530">
        <ele>123.933476</ele>
        <time>2026-08-18T09:31:22.000Z</time>
      </trkpt>
      <trkpt lat="22.804668" lon="111.464566">
        <ele>123.871111</ele>
        <time>2026-08-18T09:31:23.000Z</time>
      </trkpt>
      <trkpt lat="22.804636" lon="111.464601">
        <ele>123.811463</ele>
        <time>2026-08-18T09:31:24.000Z</time>
      </trkpt>
      <trkpt lat="22.804605" lon="111.464638">
        <ele>123.750963</ele>
        <time>2026-08-18T09:31:25.000Z</time>
      </trkpt>
      <trkpt lat="22.804575" lon="111.464678">
        <ele>123.688566</ele>
        <time>2026-08-18T09:31:26.000Z</time>
      </trkpt>
      <trkpt lat="22.804544" lon="111.464718">
        <ele>123.625333</ele>
        <time>2026-08-18T09:31:27.000Z</time>
      </trkpt>
      <trkpt lat="22.804514" lon="111.464759">
        <ele>123.561993</ele>
        <time>2026-08-18T09:31:28.000Z</time>
      </trkpt>
      <trkpt lat="22.804483" lon="111.464800">
        <ele>123.497829</ele>
        <time>2026-08-18T09:31:29.000Z</time>
      </trkpt>
      <trkpt lat="22.804453" lon="111.464841">
        <ele>123.434489</ele>
        <time>2026-08-18T09:31:30.000Z</time>
      </trkpt>
      <trkpt lat="22.804424" lon="111.464885">
        <ele>123.369040</ele>
        <time>2026-08-18T09:31:31.000Z</time>
      </trkpt>
      <trkpt lat="22.804396" lon="111.464930">
        <ele>123.303345</ele>
        <time>2026-08-18T09:31:32.000Z</time>
      </trkpt>
      <trkpt lat="22.804369" lon="111.464975">
        <ele>123.238376</ele>
        <time>2026-08-18T09:31:33.000Z</time>
      </trkpt>
      <trkpt lat="22.804343" lon="111.465021">
        <ele>123.173085</ele>
        <time>2026-08-18T09:31:34.000Z</time>
      </trkpt>
      <trkpt lat="22.804319" lon="111.465069">
        <ele>123.107011</ele>
        <time>2026-08-18T09:31:35.000Z</time>
      </trkpt>
      <trkpt lat="22.804297" lon="111.465117">
        <ele>123.042147</ele>
        <time>2026-08-18T09:31:36.000Z</time>
      </trkpt>
      <trkpt lat="22.804276" lon="111.465166">
        <ele>122.976761</ele>
        <time>2026-08-18T09:31:37.000Z</time>
      </trkpt>
      <trkpt lat="22.804254" lon="111.465214">
        <ele>122.911897</ele>
        <time>2026-08-18T09:31:38.000Z</time>
      </trkpt>
      <trkpt lat="22.804232" lon="111.465262">
        <ele>122.847033</ele>
        <time>2026-08-18T09:31:39.000Z</time>
      </trkpt>
      <trkpt lat="22.804210" lon="111.465313">
        <ele>122.778899</ele>
        <time>2026-08-18T09:31:40.000Z</time>
      </trkpt>
      <trkpt lat="22.804197" lon="111.465367">
        <ele>122.711366</ele>
        <time>2026-08-18T09:31:41.000Z</time>
      </trkpt>
      <trkpt lat="22.804179" lon="111.465421">
        <ele>122.641884</ele>
        <time>2026-08-18T09:31:42.000Z</time>
      </trkpt>
      <trkpt lat="22.804164" lon="111.465478">
        <ele>122.570157</ele>
        <time>2026-08-18T09:31:43.000Z</time>
      </trkpt>
      <trkpt lat="22.804144" lon="111.465537">
        <ele>122.494092</ele>
        <time>2026-08-18T09:31:44.000Z</time>
      </trkpt>
      <trkpt lat="22.804128" lon="111.465596">
        <ele>122.419675</ele>
        <time>2026-08-18T09:31:45.000Z</time>
      </trkpt>
      <trkpt lat="22.804112" lon="111.465657">
        <ele>122.342934</ele>
        <time>2026-08-18T09:31:46.000Z</time>
      </trkpt>
      <trkpt lat="22.804100" lon="111.465718">
        <ele>122.267460</ele>
        <time>2026-08-18T09:31:47.000Z</time>
      </trkpt>
      <trkpt lat="22.804087" lon="111.465781">
        <ele>122.189342</ele>
        <time>2026-08-18T09:31:48.000Z</time>
      </trkpt>
      <trkpt lat="22.804073" lon="111.465846">
        <ele>122.108572</ele>
        <time>2026-08-18T09:31:49.000Z</time>
      </trkpt>
      <trkpt lat="22.804062" lon="111.465914">
        <ele>122.021463</ele>
        <time>2026-08-18T09:31:50.000Z</time>
      </trkpt>
      <trkpt lat="22.804047" lon="111.465983">
        <ele>121.931629</ele>
        <time>2026-08-18T09:31:51.000Z</time>
      </trkpt>
      <trkpt lat="22.804034" lon="111.466054">
        <ele>121.839902</ele>
        <time>2026-08-18T09:31:52.000Z</time>
      </trkpt>
      <trkpt lat="22.804022" lon="111.466127">
        <ele>121.745939</ele>
        <time>2026-08-18T09:31:53.000Z</time>
      </trkpt>
      <trkpt lat="22.804010" lon="111.466202">
        <ele>121.649480</ele>
        <time>2026-08-18T09:31:54.000Z</time>
      </trkpt>
      <trkpt lat="22.803997" lon="111.466277">
        <ele>121.552776</ele>
        <time>2026-08-18T09:31:55.000Z</time>
      </trkpt>
      <trkpt lat="22.803982" lon="111.466353">
        <ele>121.454288</ele>
        <time>2026-08-18T09:31:56.000Z</time>
      </trkpt>
      <trkpt lat="22.803969" lon="111.466430">
        <ele>121.355092</ele>
        <time>2026-08-18T09:31:57.000Z</time>
      </trkpt>
      <trkpt lat="22.803956" lon="111.466508">
        <ele>121.254649</ele>
        <time>2026-08-18T09:31:58.000Z</time>
      </trkpt>
      <trkpt lat="22.803945" lon="111.466580">
        <ele>121.162168</ele>
        <time>2026-08-18T09:31:59.000Z</time>
      </trkpt>
      <trkpt lat="22.803933" lon="111.466656">
        <ele>121.064460</ele>
        <time>2026-08-18T09:32:00.000Z</time>
      </trkpt>
      <trkpt lat="22.803921" lon="111.466733">
        <ele>120.965503</ele>
        <time>2026-08-18T09:32:01.000Z</time>
      </trkpt>
      <trkpt lat="22.803909" lon="111.466811">
        <ele>120.865296</ele>
        <time>2026-08-18T09:32:02.000Z</time>
      </trkpt>
      <trkpt lat="22.803896" lon="111.466887">
        <ele>120.767346</ele>
        <time>2026-08-18T09:32:03.000Z</time>
      </trkpt>
      <trkpt lat="22.803881" lon="111.466962">
        <ele>120.670096</ele>
        <time>2026-08-18T09:32:04.000Z</time>
      </trkpt>
      <trkpt lat="22.803864" lon="111.467036">
        <ele>120.573457</ele>
        <time>2026-08-18T09:32:05.000Z</time>
      </trkpt>
      <trkpt lat="22.803849" lon="111.467108">
        <ele>120.479919</ele>
        <time>2026-08-18T09:32:06.000Z</time>
      </trkpt>
      <trkpt lat="22.803837" lon="111.467180">
        <ele>120.387203</ele>
        <time>2026-08-18T09:32:07.000Z</time>
      </trkpt>
      <trkpt lat="22.803826" lon="111.467252">
        <ele>120.294722</ele>
        <time>2026-08-18T09:32:08.000Z</time>
      </trkpt>
      <trkpt lat="22.803814" lon="111.467321">
        <ele>120.205744</ele>
        <time>2026-08-18T09:32:09.000Z</time>
      </trkpt>
      <trkpt lat="22.803800" lon="111.467389">
        <ele>120.117453</ele>
        <time>2026-08-18T09:32:10.000Z</time>
      </trkpt>
      <trkpt lat="22.803789" lon="111.467455">
        <ele>120.032463</ele>
        <time>2026-08-18T09:32:11.000Z</time>
      </trkpt>
      <trkpt lat="22.803778" lon="111.467522">
        <ele>119.946226</ele>
        <time>2026-08-18T09:32:12.000Z</time>
      </trkpt>
      <trkpt lat="22.803768" lon="111.467588">
        <ele>119.861470</ele>
        <time>2026-08-18T09:32:13.000Z</time>
      </trkpt>
      <trkpt lat="22.803756" lon="111.467652">
        <ele>119.778709</ele>
        <time>2026-08-18T09:32:14.000Z</time>
      </trkpt>
      <trkpt lat="22.803744" lon="111.467717">
        <ele>119.694707</ele>
        <time>2026-08-18T09:32:15.000Z</time>
      </trkpt>
      <trkpt lat="22.803731" lon="111.467779">
        <ele>119.633773</ele>
        <time>2026-08-18T09:32:16.000Z</time>
      </trkpt>
      <trkpt lat="22.803718" lon="111.467841">
        <ele>119.666132</ele>
        <time>2026-08-18T09:32:17.000Z</time>
      </trkpt>
      <trkpt lat="22.803707" lon="111.467903">
        <ele>119.698264</ele>
        <time>2026-08-18T09:32:18.000Z</time>
      </trkpt>
      <trkpt lat="22.803697" lon="111.467964">
        <ele>119.729796</ele>
        <time>2026-08-18T09:32:19.000Z</time>
      </trkpt>
      <trkpt lat="22.803685" lon="111.468024">
        <ele>119.761041</ele>
        <time>2026-08-18T09:32:20.000Z</time>
      </trkpt>
      <trkpt lat="22.803672" lon="111.468083">
        <ele>119.791914</ele>
        <time>2026-08-18T09:32:21.000Z</time>
      </trkpt>
      <trkpt lat="22.803659" lon="111.468143">
        <ele>119.823281</ele>
        <time>2026-08-18T09:32:22.000Z</time>
      </trkpt>
      <trkpt lat="22.803648" lon="111.468203">
        <ele>119.854414</ele>
        <time>2026-08-18T09:32:23.000Z</time>
      </trkpt>
      <trkpt lat="22.803636" lon="111.468261">
        <ele>119.884666</ele>
        <time>2026-08-18T09:32:24.000Z</time>
      </trkpt>
      <trkpt lat="22.803625" lon="111.468321">
        <ele>119.915799</ele>
        <time>2026-08-18T09:32:25.000Z</time>
      </trkpt>
      <trkpt lat="22.803612" lon="111.468381">
        <ele>119.947167</ele>
        <time>2026-08-18T09:32:26.000Z</time>
      </trkpt>
      <trkpt lat="22.803599" lon="111.468441">
        <ele>119.978534</ele>
        <time>2026-08-18T09:32:27.000Z</time>
      </trkpt>
      <trkpt lat="22.803585" lon="111.468501">
        <ele>120.010033</ele>
        <time>2026-08-18T09:32:28.000Z</time>
      </trkpt>
      <trkpt lat="22.803571" lon="111.468558">
        <ele>120.040053</ele>
        <time>2026-08-18T09:32:29.000Z</time>
      </trkpt>
      <trkpt lat="22.803555" lon="111.468616">
        <ele>120.070864</ele>
        <time>2026-08-18T09:32:30.000Z</time>
      </trkpt>
      <trkpt lat="22.803539" lon="111.468674">
        <ele>120.101675</ele>
        <time>2026-08-18T09:32:31.000Z</time>
      </trkpt>
      <trkpt lat="22.803521" lon="111.468731">
        <ele>120.132338</ele>
        <time>2026-08-18T09:32:32.000Z</time>
      </trkpt>
      <trkpt lat="22.803503" lon="111.468788">
        <ele>120.163002</ele>
        <time>2026-08-18T09:32:33.000Z</time>
      </trkpt>
      <trkpt lat="22.803483" lon="111.468847">
        <ele>120.194994</ele>
        <time>2026-08-18T09:32:34.000Z</time>
      </trkpt>
      <trkpt lat="22.803463" lon="111.468904">
        <ele>120.226033</ele>
        <time>2026-08-18T09:32:35.000Z</time>
      </trkpt>
      <trkpt lat="22.803440" lon="111.468960">
        <ele>120.257233</ele>
        <time>2026-08-18T09:32:36.000Z</time>
      </trkpt>
      <trkpt lat="22.803413" lon="111.469015">
        <ele>120.288945</ele>
        <time>2026-08-18T09:32:37.000Z</time>
      </trkpt>
      <trkpt lat="22.803387" lon="111.469070">
        <ele>120.320402</ele>
        <time>2026-08-18T09:32:38.000Z</time>
      </trkpt>
      <trkpt lat="22.803362" lon="111.469124">
        <ele>120.351155</ele>
        <time>2026-08-18T09:32:39.000Z</time>
      </trkpt>
      <trkpt lat="22.803337" lon="111.469178">
        <ele>120.381908</ele>
        <time>2026-08-18T09:32:40.000Z</time>
      </trkpt>
      <trkpt lat="22.803311" lon="111.469232">
        <ele>120.412912</ele>
        <time>2026-08-18T09:32:41.000Z</time>
      </trkpt>
      <trkpt lat="22.803283" lon="111.469285">
        <ele>120.444001</ele>
        <time>2026-08-18T09:32:42.000Z</time>
      </trkpt>
      <trkpt lat="22.803254" lon="111.469338">
        <ele>120.475367</ele>
        <time>2026-08-18T09:32:43.000Z</time>
      </trkpt>
      <trkpt lat="22.803226" lon="111.469391">
        <ele>120.506456</ele>
        <time>2026-08-18T09:32:44.000Z</time>
      </trkpt>
      <trkpt lat="22.803197" lon="111.469445">
        <ele>120.538261</ele>
        <time>2026-08-18T09:32:45.000Z</time>
      </trkpt>
      <trkpt lat="22.803170" lon="111.469499">
        <ele>120.569525</ele>
        <time>2026-08-18T09:32:46.000Z</time>
      </trkpt>
      <trkpt lat="22.803141" lon="111.469552">
        <ele>120.600892</ele>
        <time>2026-08-18T09:32:47.000Z</time>
      </trkpt>
      <trkpt lat="22.803112" lon="111.469607">
        <ele>120.637068</ele>
        <time>2026-08-18T09:32:48.000Z</time>
      </trkpt>
      <trkpt lat="22.803081" lon="111.469661">
        <ele>120.680038</ele>
        <time>2026-08-18T09:32:49.000Z</time>
      </trkpt>
      <trkpt lat="22.803049" lon="111.469714">
        <ele>120.722834</ele>
        <time>2026-08-18T09:32:50.000Z</time>
      </trkpt>
      <trkpt lat="22.803019" lon="111.469768">
        <ele>120.765421</ele>
        <time>2026-08-18T09:32:51.000Z</time>
      </trkpt>
      <trkpt lat="22.802989" lon="111.469824">
        <ele>120.809171</ele>
        <time>2026-08-18T09:32:52.000Z</time>
      </trkpt>
      <trkpt lat="22.802961" lon="111.469879">
        <ele>120.851610</ele>
        <time>2026-08-18T09:32:53.000Z</time>
      </trkpt>
      <trkpt lat="22.802933" lon="111.469934">
        <ele>120.894050</ele>
        <time>2026-08-18T09:32:54.000Z</time>
      </trkpt>
      <trkpt lat="22.802904" lon="111.469990">
        <ele>120.937437</ele>
        <time>2026-08-18T09:32:55.000Z</time>
      </trkpt>
      <trkpt lat="22.802874" lon="111.470045">
        <ele>120.980604</ele>
        <time>2026-08-18T09:32:56.000Z</time>
      </trkpt>
      <trkpt lat="22.802846" lon="111.470099">
        <ele>121.022454</ele>
        <time>2026-08-18T09:32:57.000Z</time>
      </trkpt>
      <trkpt lat="22.802817" lon="111.470155">
        <ele>121.065840</ele>
        <time>2026-08-18T09:32:58.000Z</time>
      </trkpt>
      <trkpt lat="22.802787" lon="111.470208">
        <ele>121.107850</ele>
        <time>2026-08-18T09:32:59.000Z</time>
      </trkpt>
      <trkpt lat="22.802758" lon="111.470264">
        <ele>121.151237</ele>
        <time>2026-08-18T09:33:00.000Z</time>
      </trkpt>
      <trkpt lat="22.802731" lon="111.470318">
        <ele>121.192732</ele>
        <time>2026-08-18T09:33:01.000Z</time>
      </trkpt>
      <trkpt lat="22.802702" lon="111.470370">
        <ele>121.233784</ele>
        <time>2026-08-18T09:33:02.000Z</time>
      </trkpt>
      <trkpt lat="22.802674" lon="111.470424">
        <ele>121.275634</ele>
        <time>2026-08-18T09:33:03.000Z</time>
      </trkpt>
      <trkpt lat="22.802645" lon="111.470478">
        <ele>121.317848</ele>
        <time>2026-08-18T09:33:04.000Z</time>
      </trkpt>
      <trkpt lat="22.802615" lon="111.470532">
        <ele>121.360435</ele>
        <time>2026-08-18T09:33:05.000Z</time>
      </trkpt>
      <trkpt lat="22.802587" lon="111.470585">
        <ele>121.401698</ele>
        <time>2026-08-18T09:33:06.000Z</time>
      </trkpt>
      <trkpt lat="22.802560" lon="111.470639">
        <ele>121.443193</ele>
        <time>2026-08-18T09:33:07.000Z</time>
      </trkpt>
      <trkpt lat="22.802534" lon="111.470693">
        <ele>121.484344</ele>
        <time>2026-08-18T09:33:08.000Z</time>
      </trkpt>
      <trkpt lat="22.802505" lon="111.470746">
        <ele>121.525976</ele>
        <time>2026-08-18T09:33:09.000Z</time>
      </trkpt>
      <trkpt lat="22.802478" lon="111.470797">
        <ele>121.565702</ele>
        <time>2026-08-18T09:33:10.000Z</time>
      </trkpt>
      <trkpt lat="22.802451" lon="111.470848">
        <ele>121.605428</ele>
        <time>2026-08-18T09:33:11.000Z</time>
      </trkpt>
      <trkpt lat="22.802425" lon="111.470899">
        <ele>121.644794</ele>
        <time>2026-08-18T09:33:12.000Z</time>
      </trkpt>
      <trkpt lat="22.802400" lon="111.470950">
        <ele>121.683811</ele>
        <time>2026-08-18T09:33:13.000Z</time>
      </trkpt>
      <trkpt lat="22.802376" lon="111.470999">
        <ele>121.721291</ele>
        <time>2026-08-18T09:33:14.000Z</time>
      </trkpt>
      <trkpt lat="22.802352" lon="111.471049">
        <ele>121.759369</ele>
        <time>2026-08-18T09:33:15.000Z</time>
      </trkpt>
      <trkpt lat="22.802330" lon="111.471097">
        <ele>121.795578</ele>
        <time>2026-08-18T09:33:16.000Z</time>
      </trkpt>
      <trkpt lat="22.802307" lon="111.471144">
        <ele>121.831521</ele>
        <time>2026-08-18T09:33:17.000Z</time>
      </trkpt>
      <trkpt lat="22.802283" lon="111.471192">
        <ele>121.868406</ele>
        <time>2026-08-18T09:33:18.000Z</time>
      </trkpt>
      <trkpt lat="22.802260" lon="111.471238">
        <ele>121.903754</ele>
        <time>2026-08-18T09:33:19.000Z</time>
      </trkpt>
      <trkpt lat="22.802237" lon="111.471283">
        <ele>121.938510</ele>
        <time>2026-08-18T09:33:20.000Z</time>
      </trkpt>
      <trkpt lat="22.802213" lon="111.471328">
        <ele>121.985149</ele>
        <time>2026-08-18T09:33:21.000Z</time>
      </trkpt>
      <trkpt lat="22.802190" lon="111.471374">
        <ele>122.032282</ele>
        <time>2026-08-18T09:33:22.000Z</time>
      </trkpt>
      <trkpt lat="22.802167" lon="111.471420">
        <ele>122.079415</ele>
        <time>2026-08-18T09:33:23.000Z</time>
      </trkpt>
      <trkpt lat="22.802147" lon="111.471467">
        <ele>122.126040</ele>
        <time>2026-08-18T09:33:24.000Z</time>
      </trkpt>
      <trkpt lat="22.802125" lon="111.471512">
        <ele>122.171917</ele>
        <time>2026-08-18T09:33:25.000Z</time>
      </trkpt>
      <trkpt lat="22.802102" lon="111.471557">
        <ele>122.218261</ele>
        <time>2026-08-18T09:33:26.000Z</time>
      </trkpt>
      <trkpt lat="22.802078" lon="111.471602">
        <ele>122.265085</ele>
        <time>2026-08-18T09:33:27.000Z</time>
      </trkpt>
      <trkpt lat="22.802053" lon="111.471648">
        <ele>122.313181</ele>
        <time>2026-08-18T09:33:28.000Z</time>
      </trkpt>
      <trkpt lat="22.802029" lon="111.471694">
        <ele>122.360788</ele>
        <time>2026-08-18T09:33:29.000Z</time>
      </trkpt>
      <trkpt lat="22.802005" lon="111.471740">
        <ele>122.408394</ele>
        <time>2026-08-18T09:33:30.000Z</time>
      </trkpt>
      <trkpt lat="22.801980" lon="111.471785">
        <ele>122.455716</ele>
        <time>2026-08-18T09:33:31.000Z</time>
      </trkpt>
      <trkpt lat="22.801955" lon="111.471830">
        <ele>122.503038</ele>
        <time>2026-08-18T09:33:32.000Z</time>
      </trkpt>
      <trkpt lat="22.801930" lon="111.471875">
        <ele>122.550360</ele>
        <time>2026-08-18T09:33:33.000Z</time>
      </trkpt>
      <trkpt lat="22.801906" lon="111.471921">
        <ele>122.597966</ele>
        <time>2026-08-18T09:33:34.000Z</time>
      </trkpt>
      <trkpt lat="22.801883" lon="111.471968">
        <ele>122.645893</ele>
        <time>2026-08-18T09:33:35.000Z</time>
      </trkpt>
      <trkpt lat="22.801860" lon="111.472014">
        <ele>122.693026</ele>
        <time>2026-08-18T09:33:36.000Z</time>
      </trkpt>
      <trkpt lat="22.801837" lon="111.472061">
        <ele>122.740953</ele>
        <time>2026-08-18T09:33:37.000Z</time>
      </trkpt>
      <trkpt lat="22.801814" lon="111.472108">
        <ele>122.788880</ele>
        <time>2026-08-18T09:33:38.000Z</time>
      </trkpt>
      <trkpt lat="22.801790" lon="111.472153">
        <ele>122.835705</ele>
        <time>2026-08-18T09:33:39.000Z</time>
      </trkpt>
      <trkpt lat="22.801768" lon="111.472200">
        <ele>122.883181</ele>
        <time>2026-08-18T09:33:40.000Z</time>
      </trkpt>
      <trkpt lat="22.801748" lon="111.472246">
        <ele>122.928989</ele>
        <time>2026-08-18T09:33:41.000Z</time>
      </trkpt>
      <trkpt lat="22.801727" lon="111.472292">
        <ele>122.975223</ele>
        <time>2026-08-18T09:33:42.000Z</time>
      </trkpt>
      <trkpt lat="22.801707" lon="111.472338">
        <ele>123.021031</ele>
        <time>2026-08-18T09:33:43.000Z</time>
      </trkpt>
      <trkpt lat="22.801686" lon="111.472384">
        <ele>123.067265</ele>
        <time>2026-08-18T09:33:44.000Z</time>
      </trkpt>
      <trkpt lat="22.801660" lon="111.472425">
        <ele>123.112086</ele>
        <time>2026-08-18T09:33:45.000Z</time>
      </trkpt>
      <trkpt lat="22.801635" lon="111.472469">
        <ele>123.158639</ele>
        <time>2026-08-18T09:33:46.000Z</time>
      </trkpt>
      <trkpt lat="22.801610" lon="111.472512">
        <ele>123.204427</ele>
        <time>2026-08-18T09:33:47.000Z</time>
      </trkpt>
      <trkpt lat="22.801585" lon="111.472556">
        <ele>123.250980</ele>
        <time>2026-08-18T09:33:48.000Z</time>
      </trkpt>
      <trkpt lat="22.801559" lon="111.472601">
        <ele>123.298814</ele>
        <time>2026-08-18T09:33:49.000Z</time>
      </trkpt>
      <trkpt lat="22.801535" lon="111.472646">
        <ele>123.345639</ele>
        <time>2026-08-18T09:33:50.000Z</time>
      </trkpt>
      <trkpt lat="22.801513" lon="111.472693">
        <ele>123.393115</ele>
        <time>2026-08-18T09:33:51.000Z</time>
      </trkpt>
      <trkpt lat="22.801491" lon="111.472739">
        <ele>123.439791</ele>
        <time>2026-08-18T09:33:52.000Z</time>
      </trkpt>
      <trkpt lat="22.801469" lon="111.472784">
        <ele>123.485668</ele>
        <time>2026-08-18T09:33:53.000Z</time>
      </trkpt>
      <trkpt lat="22.801447" lon="111.472829">
        <ele>123.531546</ele>
        <time>2026-08-18T09:33:54.000Z</time>
      </trkpt>
      <trkpt lat="22.801423" lon="111.472875">
        <ele>123.579153</ele>
        <time>2026-08-18T09:33:55.000Z</time>
      </trkpt>
      <trkpt lat="22.801402" lon="111.472919">
        <ele>123.623779</ele>
        <time>2026-08-18T09:33:56.000Z</time>
      </trkpt>
      <trkpt lat="22.801379" lon="111.472959">
        <ele>123.666240</ele>
        <time>2026-08-18T09:33:57.000Z</time>
      </trkpt>
      <trkpt lat="22.801355" lon="111.473002">
        <ele>123.667573</ele>
        <time>2026-08-18T09:33:58.000Z</time>
      </trkpt>
      <trkpt lat="22.801334" lon="111.473042">
        <ele>123.588474</ele>
        <time>2026-08-18T09:33:59.000Z</time>
      </trkpt>
      <trkpt lat="22.801312" lon="111.473076">
        <ele>123.517094</ele>
        <time>2026-08-18T09:34:00.000Z</time>
      </trkpt>
      <trkpt lat="22.801290" lon="111.473116">
        <ele>123.437055</ele>
        <time>2026-08-18T09:34:01.000Z</time>
      </trkpt>
      <trkpt lat="22.801267" lon="111.473162">
        <ele>123.347132</ele>
        <time>2026-08-18T09:34:02.000Z</time>
      </trkpt>
      <trkpt lat="22.801251" lon="111.473207">
        <ele>123.264253</ele>
        <time>2026-08-18T09:34:03.000Z</time>
      </trkpt>
      <trkpt lat="22.801231" lon="111.473249">
        <ele>123.183021</ele>
        <time>2026-08-18T09:34:04.000Z</time>
      </trkpt>
      <trkpt lat="22.801210" lon="111.473292">
        <ele>123.099403</ele>
        <time>2026-08-18T09:34:05.000Z</time>
      </trkpt>
      <trkpt lat="22.801189" lon="111.473335">
        <ele>123.015785</ele>
        <time>2026-08-18T09:34:06.000Z</time>
      </trkpt>
      <trkpt lat="22.801166" lon="111.473377">
        <ele>122.931840</ele>
        <time>2026-08-18T09:34:07.000Z</time>
      </trkpt>
      <trkpt lat="22.801146" lon="111.473418">
        <ele>122.852131</ele>
        <time>2026-08-18T09:34:08.000Z</time>
      </trkpt>
      <trkpt lat="22.801125" lon="111.473461">
        <ele>122.768513</ele>
        <time>2026-08-18T09:34:09.000Z</time>
      </trkpt>
      <trkpt lat="22.801104" lon="111.473504">
        <ele>122.684894</ele>
        <time>2026-08-18T09:34:10.000Z</time>
      </trkpt>
      <trkpt lat="22.801084" lon="111.473549">
        <ele>122.599050</ele>
        <time>2026-08-18T09:34:11.000Z</time>
      </trkpt>
      <trkpt lat="22.801065" lon="111.473594">
        <ele>122.513998</ele>
        <time>2026-08-18T09:34:12.000Z</time>
      </trkpt>
      <trkpt lat="22.801047" lon="111.473641">
        <ele>122.426543</ele>
        <time>2026-08-18T09:34:13.000Z</time>
      </trkpt>
      <trkpt lat="22.801029" lon="111.473687">
        <ele>122.340671</ele>
        <time>2026-08-18T09:34:14.000Z</time>
      </trkpt>
      <trkpt lat="22.801011" lon="111.473736">
        <ele>122.250032</ele>
        <time>2026-08-18T09:34:15.000Z</time>
      </trkpt>
      <trkpt lat="22.800993" lon="111.473787">
        <ele>122.156192</ele>
        <time>2026-08-18T09:34:16.000Z</time>
      </trkpt>
      <trkpt lat="22.800976" lon="111.473839">
        <ele>122.061384</ele>
        <time>2026-08-18T09:34:17.000Z</time>
      </trkpt>
      <trkpt lat="22.800957" lon="111.473891">
        <ele>121.965266</ele>
        <time>2026-08-18T09:34:18.000Z</time>
      </trkpt>
      <trkpt lat="22.800940" lon="111.473947">
        <ele>121.863954</ele>
        <time>2026-08-18T09:34:19.000Z</time>
      </trkpt>
      <trkpt lat="22.800923" lon="111.474004">
        <ele>121.761008</ele>
        <time>2026-08-18T09:34:20.000Z</time>
      </trkpt>
      <trkpt lat="22.800906" lon="111.474063">
        <ele>121.654787</ele>
        <time>2026-08-18T09:34:21.000Z</time>
      </trkpt>
      <trkpt lat="22.800890" lon="111.474123">
        <ele>121.547458</ele>
        <time>2026-08-18T09:34:22.000Z</time>
      </trkpt>
      <trkpt lat="22.800872" lon="111.474185">
        <ele>121.435760</ele>
        <time>2026-08-18T09:34:23.000Z</time>
      </trkpt>
      <trkpt lat="22.800854" lon="111.474249">
        <ele>121.320780</ele>
        <time>2026-08-18T09:34:24.000Z</time>
      </trkpt>
      <trkpt lat="22.800839" lon="111.474315">
        <ele>121.203971</ele>
        <time>2026-08-18T09:34:25.000Z</time>
      </trkpt>
      <trkpt lat="22.800824" lon="111.474384">
        <ele>121.082151</ele>
        <time>2026-08-18T09:34:26.000Z</time>
      </trkpt>
      <trkpt lat="22.800809" lon="111.474455">
        <ele>120.956984</ele>
        <time>2026-08-18T09:34:27.000Z</time>
      </trkpt>
      <trkpt lat="22.800795" lon="111.474527">
        <ele>120.830539</ele>
        <time>2026-08-18T09:34:28.000Z</time>
      </trkpt>
      <trkpt lat="22.800783" lon="111.474602">
        <ele>120.699734</ele>
        <time>2026-08-18T09:34:29.000Z</time>
      </trkpt>
      <trkpt lat="22.800770" lon="111.474680">
        <ele>120.563528</ele>
        <time>2026-08-18T09:34:30.000Z</time>
      </trkpt>
      <trkpt lat="22.800757" lon="111.474759">
        <ele>120.425631</ele>
        <time>2026-08-18T09:34:31.000Z</time>
      </trkpt>
      <trkpt lat="22.800740" lon="111.474838">
        <ele>120.269223</ele>
        <time>2026-08-18T09:34:32.000Z</time>
      </trkpt>
      <trkpt lat="22.800727" lon="111.474921">
        <ele>120.081725</ele>
        <time>2026-08-18T09:34:33.000Z</time>
      </trkpt>
      <trkpt lat="22.800714" lon="111.475005">
        <ele>119.892030</ele>
        <time>2026-08-18T09:34:34.000Z</time>
      </trkpt>
      <trkpt lat="22.800703" lon="111.475092">
        <ele>119.696458</ele>
        <time>2026-08-18T09:34:35.000Z</time>
      </trkpt>
      <trkpt lat="22.800689" lon="111.475179">
        <ele>119.499770</ele>
        <time>2026-08-18T09:34:36.000Z</time>
      </trkpt>
      <trkpt lat="22.800677" lon="111.475266">
        <ele>119.303855</ele>
        <time>2026-08-18T09:34:37.000Z</time>
      </trkpt>
      <trkpt lat="22.800663" lon="111.475355">
        <ele>119.102777</ele>
        <time>2026-08-18T09:34:38.000Z</time>
      </trkpt>
      <trkpt lat="22.800648" lon="111.475442">
        <ele>118.905660</ele>
        <time>2026-08-18T09:34:39.000Z</time>
      </trkpt>
      <trkpt lat="22.800632" lon="111.475530">
        <ele>118.705899</ele>
        <time>2026-08-18T09:34:40.000Z</time>
      </trkpt>
      <trkpt lat="22.800616" lon="111.475618">
        <ele>118.506138</ele>
        <time>2026-08-18T09:34:41.000Z</time>
      </trkpt>
      <trkpt lat="22.800604" lon="111.475707">
        <ele>118.305817</ele>
        <time>2026-08-18T09:34:42.000Z</time>
      </trkpt>
      <trkpt lat="22.800588" lon="111.475795">
        <ele>118.106056</ele>
        <time>2026-08-18T09:34:43.000Z</time>
      </trkpt>
      <trkpt lat="22.800574" lon="111.475884">
        <ele>117.904978</ele>
        <time>2026-08-18T09:34:44.000Z</time>
      </trkpt>
      <trkpt lat="22.800562" lon="111.475972">
        <ele>117.706860</ele>
        <time>2026-08-18T09:34:45.000Z</time>
      </trkpt>
      <trkpt lat="22.800547" lon="111.476058">
        <ele>117.511931</ele>
        <time>2026-08-18T09:34:46.000Z</time>
      </trkpt>
      <trkpt lat="22.800531" lon="111.476143">
        <ele>117.318721</ele>
        <time>2026-08-18T09:34:47.000Z</time>
      </trkpt>
      <trkpt lat="22.800517" lon="111.476228">
        <ele>117.126419</ele>
        <time>2026-08-18T09:34:48.000Z</time>
      </trkpt>
      <trkpt lat="22.800500" lon="111.476314">
        <ele>116.930534</ele>
        <time>2026-08-18T09:34:49.000Z</time>
      </trkpt>
      <trkpt lat="22.800487" lon="111.476398">
        <ele>116.740839</ele>
        <time>2026-08-18T09:34:50.000Z</time>
      </trkpt>
      <trkpt lat="22.800474" lon="111.476483">
        <ele>116.548947</ele>
        <time>2026-08-18T09:34:51.000Z</time>
      </trkpt>
      <trkpt lat="22.800461" lon="111.476566">
        <ele>116.361448</ele>
        <time>2026-08-18T09:34:52.000Z</time>
      </trkpt>
      <trkpt lat="22.800448" lon="111.476648">
        <ele>116.176144</ele>
        <time>2026-08-18T09:34:53.000Z</time>
      </trkpt>
      <trkpt lat="22.800433" lon="111.476729">
        <ele>115.999096</ele>
        <time>2026-08-18T09:34:54.000Z</time>
      </trkpt>
      <trkpt lat="22.800418" lon="111.476812">
        <ele>116.021518</ele>
        <time>2026-08-18T09:34:55.000Z</time>
      </trkpt>
      <trkpt lat="22.800404" lon="111.476893">
        <ele>116.043365</ele>
        <time>2026-08-18T09:34:56.000Z</time>
      </trkpt>
      <trkpt lat="22.800392" lon="111.476973">
        <ele>116.064851</ele>
        <time>2026-08-18T09:34:57.000Z</time>
      </trkpt>
      <trkpt lat="22.800378" lon="111.477053">
        <ele>116.086438</ele>
        <time>2026-08-18T09:34:58.000Z</time>
      </trkpt>
      <trkpt lat="22.800366" lon="111.477134">
        <ele>116.108186</ele>
        <time>2026-08-18T09:34:59.000Z</time>
      </trkpt>
      <trkpt lat="22.800354" lon="111.477215">
        <ele>116.129935</ele>
        <time>2026-08-18T09:35:00.000Z</time>
      </trkpt>
      <trkpt lat="22.800343" lon="111.477294">
        <ele>116.151115</ele>
        <time>2026-08-18T09:35:01.000Z</time>
      </trkpt>
      <trkpt lat="22.800331" lon="111.477373">
        <ele>116.172340</ele>
        <time>2026-08-18T09:35:02.000Z</time>
      </trkpt>
      <trkpt lat="22.800318" lon="111.477452">
        <ele>116.193614</ele>
        <time>2026-08-18T09:35:03.000Z</time>
      </trkpt>
      <trkpt lat="22.800308" lon="111.477530">
        <ele>116.214491</ele>
        <time>2026-08-18T09:35:04.000Z</time>
      </trkpt>
      <trkpt lat="22.800299" lon="111.477608">
        <ele>116.235330</ele>
        <time>2026-08-18T09:35:05.000Z</time>
      </trkpt>
      <trkpt lat="22.800289" lon="111.477684">
        <ele>116.255681</ele>
        <time>2026-08-18T09:35:06.000Z</time>
      </trkpt>
      <trkpt lat="22.800277" lon="111.477758">
        <ele>116.275600</ele>
        <time>2026-08-18T09:35:07.000Z</time>
      </trkpt>
      <trkpt lat="22.800264" lon="111.477831">
        <ele>116.295310</ele>
        <time>2026-08-18T09:35:08.000Z</time>
      </trkpt>
      <trkpt lat="22.800252" lon="111.477905">
        <ele>116.315228</ele>
        <time>2026-08-18T09:35:09.000Z</time>
      </trkpt>
      <trkpt lat="22.800241" lon="111.477976">
        <ele>116.334314</ele>
        <time>2026-08-18T09:35:10.000Z</time>
      </trkpt>
      <trkpt lat="22.800229" lon="111.478047">
        <ele>116.353450</ele>
        <time>2026-08-18T09:35:11.000Z</time>
      </trkpt>
      <trkpt lat="22.800218" lon="111.478118">
        <ele>116.372536</ele>
        <time>2026-08-18T09:35:12.000Z</time>
      </trkpt>
      <trkpt lat="22.800207" lon="111.478186">
        <ele>116.390838</ele>
        <time>2026-08-18T09:35:13.000Z</time>
      </trkpt>
      <trkpt lat="22.800198" lon="111.478254">
        <ele>116.409050</ele>
        <time>2026-08-18T09:35:14.000Z</time>
      </trkpt>
      <trkpt lat="22.800187" lon="111.478318">
        <ele>116.426308</ele>
        <time>2026-08-18T09:35:15.000Z</time>
      </trkpt>
      <trkpt lat="22.800174" lon="111.478379">
        <ele>116.442906</ele>
        <time>2026-08-18T09:35:16.000Z</time>
      </trkpt>
      <trkpt lat="22.800159" lon="111.478438">
        <ele>116.459130</ele>
        <time>2026-08-18T09:35:17.000Z</time>
      </trkpt>
      <trkpt lat="22.800146" lon="111.478496">
        <ele>116.474954</ele>
        <time>2026-08-18T09:35:18.000Z</time>
      </trkpt>
      <trkpt lat="22.800135" lon="111.478553">
        <ele>116.490392</ele>
        <time>2026-08-18T09:35:19.000Z</time>
      </trkpt>
      <trkpt lat="22.800125" lon="111.478607">
        <ele>116.504993</ele>
        <time>2026-08-18T09:35:20.000Z</time>
      </trkpt>
      <trkpt lat="22.800118" lon="111.478659">
        <ele>116.528353</ele>
        <time>2026-08-18T09:35:21.000Z</time>
      </trkpt>
      <trkpt lat="22.800112" lon="111.478709">
        <ele>116.579503</ele>
        <time>2026-08-18T09:35:22.000Z</time>
      </trkpt>
      <trkpt lat="22.800104" lon="111.478757">
        <ele>116.628985</ele>
        <time>2026-08-18T09:35:23.000Z</time>
      </trkpt>
      <trkpt lat="22.800096" lon="111.478805">
        <ele>116.678468</ele>
        <time>2026-08-18T09:35:24.000Z</time>
      </trkpt>
      <trkpt lat="22.800089" lon="111.478848">
        <ele>116.722763</ele>
        <time>2026-08-18T09:35:25.000Z</time>
      </trkpt>
      <trkpt lat="22.800084" lon="111.478883">
        <ele>116.758692</ele>
        <time>2026-08-18T09:35:26.000Z</time>
      </trkpt>
      <trkpt lat="22.800079" lon="111.478906">
        <ele>116.782664</ele>
        <time>2026-08-18T09:35:27.000Z</time>
      </trkpt>
      <trkpt lat="22.800072" lon="111.478922">
        <ele>116.800630</ele>
        <time>2026-08-18T09:35:28.000Z</time>
      </trkpt>
      <trkpt lat="22.800068" lon="111.478927">
        <ele>116.807346</ele>
        <time>2026-08-18T09:35:29.000Z</time>
      </trkpt>
      <trkpt lat="22.800046" lon="111.478998">
        <ele>116.883330</ele>
        <time>2026-08-18T09:36:41.000Z</time>
      </trkpt>
      <trkpt lat="22.800044" lon="111.479017">
        <ele>116.902730</ele>
        <time>2026-08-18T09:36:42.000Z</time>
      </trkpt>
      <trkpt lat="22.800043" lon="111.479038">
        <ele>116.924062</ele>
        <time>2026-08-18T09:36:43.000Z</time>
      </trkpt>
      <trkpt lat="22.800041" lon="111.479063">
        <ele>116.949518</ele>
        <time>2026-08-18T09:36:44.000Z</time>
      </trkpt>
      <trkpt lat="22.800039" lon="111.479090">
        <ele>116.976996</ele>
        <time>2026-08-18T09:36:45.000Z</time>
      </trkpt>
      <trkpt lat="22.800035" lon="111.479119">
        <ele>117.006742</ele>
        <time>2026-08-18T09:36:46.000Z</time>
      </trkpt>
      <trkpt lat="22.800031" lon="111.479148">
        <ele>117.036488</ele>
        <time>2026-08-18T09:36:47.000Z</time>
      </trkpt>
      <trkpt lat="22.800026" lon="111.479178">
        <ele>117.067414</ele>
        <time>2026-08-18T09:36:48.000Z</time>
      </trkpt>
      <trkpt lat="22.800020" lon="111.479209">
        <ele>117.099547</ele>
        <time>2026-08-18T09:36:49.000Z</time>
      </trkpt>
      <trkpt lat="22.800015" lon="111.479239">
        <ele>117.130474</ele>
        <time>2026-08-18T09:36:50.000Z</time>
      </trkpt>
      <trkpt lat="22.800008" lon="111.479269">
        <ele>117.161867</ele>
        <time>2026-08-18T09:36:51.000Z</time>
      </trkpt>
      <trkpt lat="22.800002" lon="111.479295">
        <ele>117.189056</ele>
        <time>2026-08-18T09:36:52.000Z</time>
      </trkpt>
      <trkpt lat="22.799993" lon="111.479324">
        <ele>117.220097</ele>
        <time>2026-08-18T09:36:53.000Z</time>
      </trkpt>
      <trkpt lat="22.799985" lon="111.479356">
        <ele>117.253731</ele>
        <time>2026-08-18T09:36:54.000Z</time>
      </trkpt>
      <trkpt lat="22.799978" lon="111.479390">
        <ele>117.289072</ele>
        <time>2026-08-18T09:36:55.000Z</time>
      </trkpt>
      <trkpt lat="22.799970" lon="111.479427">
        <ele>117.327624</ele>
        <time>2026-08-18T09:36:56.000Z</time>
      </trkpt>
      <trkpt lat="22.799961" lon="111.479464">
        <ele>117.366443</ele>
        <time>2026-08-18T09:36:57.000Z</time>
      </trkpt>
      <trkpt lat="22.799952" lon="111.479501">
        <ele>117.405262</ele>
        <time>2026-08-18T09:36:58.000Z</time>
      </trkpt>
      <trkpt lat="22.799944" lon="111.479540">
        <ele>117.445792</ele>
        <time>2026-08-18T09:36:59.000Z</time>
      </trkpt>
      <trkpt lat="22.799935" lon="111.479578">
        <ele>117.485593</ele>
        <time>2026-08-18T09:37:00.000Z</time>
      </trkpt>
      <trkpt lat="22.799926" lon="111.479616">
        <ele>117.525393</ele>
        <time>2026-08-18T09:37:01.000Z</time>
      </trkpt>
      <trkpt lat="22.799917" lon="111.479655">
        <ele>117.566177</ele>
        <time>2026-08-18T09:37:02.000Z</time>
      </trkpt>
      <trkpt lat="22.799906" lon="111.479694">
        <ele>117.607550</ele>
        <time>2026-08-18T09:37:03.000Z</time>
      </trkpt>
      <trkpt lat="22.799894" lon="111.479732">
        <ele>117.648298</ele>
        <time>2026-08-18T09:37:04.000Z</time>
      </trkpt>
      <trkpt lat="22.799881" lon="111.479773">
        <ele>117.692281</ele>
        <time>2026-08-18T09:37:05.000Z</time>
      </trkpt>
      <trkpt lat="22.799871" lon="111.479812">
        <ele>117.733346</ele>
        <time>2026-08-18T09:37:06.000Z</time>
      </trkpt>
      <trkpt lat="22.799861" lon="111.479852">
        <ele>117.775389</ele>
        <time>2026-08-18T09:37:07.000Z</time>
      </trkpt>
      <trkpt lat="22.799849" lon="111.479891">
        <ele>117.817098</ele>
        <time>2026-08-18T09:37:08.000Z</time>
      </trkpt>
      <trkpt lat="22.799837" lon="111.479932">
        <ele>117.860735</ele>
        <time>2026-08-18T09:37:09.000Z</time>
      </trkpt>
      <trkpt lat="22.799825" lon="111.479972">
        <ele>117.903407</ele>
        <time>2026-08-18T09:37:10.000Z</time>
      </trkpt>
      <trkpt lat="22.799812" lon="111.480012">
        <ele>117.946433</ele>
        <time>2026-08-18T09:37:11.000Z</time>
      </trkpt>
      <trkpt lat="22.799800" lon="111.480052">
        <ele>117.989105</ele>
        <time>2026-08-18T09:37:12.000Z</time>
      </trkpt>
      <trkpt lat="22.799787" lon="111.480091">
        <ele>118.031175</ele>
        <time>2026-08-18T09:37:13.000Z</time>
      </trkpt>
      <trkpt lat="22.799774" lon="111.480132">
        <ele>118.075158</ele>
        <time>2026-08-18T09:37:14.000Z</time>
      </trkpt>
      <trkpt lat="22.799759" lon="111.480170">
        <ele>118.117092</ele>
        <time>2026-08-18T09:37:15.000Z</time>
      </trkpt>
      <trkpt lat="22.799744" lon="111.480210">
        <ele>118.160898</ele>
        <time>2026-08-18T09:37:16.000Z</time>
      </trkpt>
      <trkpt lat="22.799730" lon="111.480250">
        <ele>118.204302</ele>
        <time>2026-08-18T09:37:17.000Z</time>
      </trkpt>
      <trkpt lat="22.799715" lon="111.480291">
        <ele>118.249049</ele>
        <time>2026-08-18T09:37:18.000Z</time>
      </trkpt>
      <trkpt lat="22.799701" lon="111.480330">
        <ele>118.291506</ele>
        <time>2026-08-18T09:37:19.000Z</time>
      </trkpt>
      <trkpt lat="22.799687" lon="111.480370">
        <ele>118.334910</ele>
        <time>2026-08-18T09:37:20.000Z</time>
      </trkpt>
      <trkpt lat="22.799674" lon="111.480411">
        <ele>118.378893</ele>
        <time>2026-08-18T09:37:21.000Z</time>
      </trkpt>
      <trkpt lat="22.799660" lon="111.480450">
        <ele>118.421350</ele>
        <time>2026-08-18T09:37:22.000Z</time>
      </trkpt>
      <trkpt lat="22.799646" lon="111.480488">
        <ele>118.462863</ele>
        <time>2026-08-18T09:37:23.000Z</time>
      </trkpt>
      <trkpt lat="22.799632" lon="111.480528">
        <ele>118.513241</ele>
        <time>2026-08-18T09:37:24.000Z</time>
      </trkpt>
      <trkpt lat="22.799618" lon="111.480564">
        <ele>118.577091</ele>
        <time>2026-08-18T09:37:25.000Z</time>
      </trkpt>
      <trkpt lat="22.799601" lon="111.480600">
        <ele>118.643190</ele>
        <time>2026-08-18T09:37:26.000Z</time>
      </trkpt>
      <trkpt lat="22.799583" lon="111.480635">
        <ele>118.708684</ele>
        <time>2026-08-18T09:37:27.000Z</time>
      </trkpt>
      <trkpt lat="22.799565" lon="111.480674">
        <ele>118.779957</ele>
        <time>2026-08-18T09:37:28.000Z</time>
      </trkpt>
      <trkpt lat="22.799548" lon="111.480711">
        <ele>118.847515</ele>
        <time>2026-08-18T09:37:29.000Z</time>
      </trkpt>
      <trkpt lat="22.799531" lon="111.480748">
        <ele>118.915072</ele>
        <time>2026-08-18T09:37:30.000Z</time>
      </trkpt>
      <trkpt lat="22.799513" lon="111.480784">
        <ele>118.981998</ele>
        <time>2026-08-18T09:37:31.000Z</time>
      </trkpt>
      <trkpt lat="22.799493" lon="111.480823">
        <ele>119.054927</ele>
        <time>2026-08-18T09:37:32.000Z</time>
      </trkpt>
      <trkpt lat="22.799473" lon="111.480860">
        <ele>119.125019</ele>
        <time>2026-08-18T09:37:33.000Z</time>
      </trkpt>
      <trkpt lat="22.799454" lon="111.480895">
        <ele>119.191394</ele>
        <time>2026-08-18T09:37:34.000Z</time>
      </trkpt>
      <trkpt lat="22.799434" lon="111.480931">
        <ele>119.260081</ele>
        <time>2026-08-18T09:37:35.000Z</time>
      </trkpt>
      <trkpt lat="22.799416" lon="111.480967">
        <ele>119.327007</ele>
        <time>2026-08-18T09:37:36.000Z</time>
      </trkpt>
      <trkpt lat="22.799397" lon="111.481003">
        <ele>119.394795</ele>
        <time>2026-08-18T09:37:37.000Z</time>
      </trkpt>
      <trkpt lat="22.799378" lon="111.481038">
        <ele>119.461171</ele>
        <time>2026-08-18T09:37:38.000Z</time>
      </trkpt>
      <trkpt lat="22.799359" lon="111.481073">
        <ele>119.527547</ele>
        <time>2026-08-18T09:37:39.000Z</time>
      </trkpt>
      <trkpt lat="22.799341" lon="111.481108">
        <ele>119.593040</ele>
        <time>2026-08-18T09:37:40.000Z</time>
      </trkpt>
      <trkpt lat="22.799323" lon="111.481143">
        <ele>119.658534</ele>
        <time>2026-08-18T09:37:41.000Z</time>
      </trkpt>
      <trkpt lat="22.799304" lon="111.481178">
        <ele>119.724910</ele>
        <time>2026-08-18T09:37:42.000Z</time>
      </trkpt>
      <trkpt lat="22.799286" lon="111.481214">
        <ele>119.791836</ele>
        <time>2026-08-18T09:37:43.000Z</time>
      </trkpt>
      <trkpt lat="22.799269" lon="111.481250">
        <ele>119.857935</ele>
        <time>2026-08-18T09:37:44.000Z</time>
      </trkpt>
      <trkpt lat="22.799251" lon="111.481285">
        <ele>119.923429</ele>
        <time>2026-08-18T09:37:45.000Z</time>
      </trkpt>
      <trkpt lat="22.799231" lon="111.481319">
        <ele>119.989338</ele>
        <time>2026-08-18T09:37:46.000Z</time>
      </trkpt>
      <trkpt lat="22.799210" lon="111.481351">
        <ele>120.053527</ele>
        <time>2026-08-18T09:37:47.000Z</time>
      </trkpt>
      <trkpt lat="22.799190" lon="111.481385">
        <ele>120.119437</ele>
        <time>2026-08-18T09:37:48.000Z</time>
      </trkpt>
      <trkpt lat="22.799172" lon="111.481419">
        <ele>120.183508</ele>
        <time>2026-08-18T09:37:49.000Z</time>
      </trkpt>
      <trkpt lat="22.799151" lon="111.481450">
        <ele>120.246374</ele>
        <time>2026-08-18T09:37:50.000Z</time>
      </trkpt>
      <trkpt lat="22.799129" lon="111.481483">
        <ele>120.312925</ele>
        <time>2026-08-18T09:37:51.000Z</time>
      </trkpt>
      <trkpt lat="22.799106" lon="111.481515">
        <ele>120.379234</ele>
        <time>2026-08-18T09:37:52.000Z</time>
      </trkpt>
      <trkpt lat="22.799083" lon="111.481547">
        <ele>120.445543</ele>
        <time>2026-08-18T09:37:53.000Z</time>
      </trkpt>
      <trkpt lat="22.799060" lon="111.481579">
        <ele>120.511852</ele>
        <time>2026-08-18T09:37:54.000Z</time>
      </trkpt>
      <trkpt lat="22.799038" lon="111.481610">
        <ele>120.575783</ele>
        <time>2026-08-18T09:37:55.000Z</time>
      </trkpt>
      <trkpt lat="22.799016" lon="111.481642">
        <ele>120.641017</ele>
        <time>2026-08-18T09:37:56.000Z</time>
      </trkpt>
      <trkpt lat="22.798993" lon="111.481675">
        <ele>120.708622</ele>
        <time>2026-08-18T09:37:57.000Z</time>
      </trkpt>
      <trkpt lat="22.798970" lon="111.481708">
        <ele>120.776228</ele>
        <time>2026-08-18T09:37:58.000Z</time>
      </trkpt>
      <trkpt lat="22.798946" lon="111.481739">
        <ele>120.842381</ele>
        <time>2026-08-18T09:37:59.000Z</time>
      </trkpt>
      <trkpt lat="22.798921" lon="111.481768">
        <ele>120.907265</ele>
        <time>2026-08-18T09:38:00.000Z</time>
      </trkpt>
      <trkpt lat="22.798896" lon="111.481798">
        <ele>120.973351</ele>
        <time>2026-08-18T09:38:01.000Z</time>
      </trkpt>
      <trkpt lat="22.798869" lon="111.481820">
        <ele>121.033211</ele>
        <time>2026-08-18T09:38:02.000Z</time>
      </trkpt>
      <trkpt lat="22.798843" lon="111.481848">
        <ele>121.098157</ele>
        <time>2026-08-18T09:38:03.000Z</time>
      </trkpt>
      <trkpt lat="22.798817" lon="111.481876">
        <ele>121.163102</ele>
        <time>2026-08-18T09:38:04.000Z</time>
      </trkpt>
      <trkpt lat="22.798792" lon="111.481905">
        <ele>121.227985</ele>
        <time>2026-08-18T09:38:05.000Z</time>
      </trkpt>
      <trkpt lat="22.798768" lon="111.481935">
        <ele>121.292896</ele>
        <time>2026-08-18T09:38:06.000Z</time>
      </trkpt>
      <trkpt lat="22.798741" lon="111.481964">
        <ele>121.360251</ele>
        <time>2026-08-18T09:38:07.000Z</time>
      </trkpt>
      <trkpt lat="22.798716" lon="111.481991">
        <ele>121.422787</ele>
        <time>2026-08-18T09:38:08.000Z</time>
      </trkpt>
      <trkpt lat="22.798691" lon="111.482021">
        <ele>121.488873</ele>
        <time>2026-08-18T09:38:09.000Z</time>
      </trkpt>
      <trkpt lat="22.798666" lon="111.482051">
        <ele>121.554959</ele>
        <time>2026-08-18T09:38:10.000Z</time>
      </trkpt>
      <trkpt lat="22.798642" lon="111.482079">
        <ele>121.617439</ele>
        <time>2026-08-18T09:38:11.000Z</time>
      </trkpt>
      <trkpt lat="22.798618" lon="111.482108">
        <ele>121.681124</ele>
        <time>2026-08-18T09:38:12.000Z</time>
      </trkpt>
      <trkpt lat="22.798594" lon="111.482136">
        <ele>121.753139</ele>
        <time>2026-08-18T09:38:13.000Z</time>
      </trkpt>
      <trkpt lat="22.798568" lon="111.482165">
        <ele>121.829687</ele>
        <time>2026-08-18T09:38:14.000Z</time>
      </trkpt>
      <trkpt lat="22.798544" lon="111.482195">
        <ele>121.904850</ele>
        <time>2026-08-18T09:38:15.000Z</time>
      </trkpt>
      <trkpt lat="22.798520" lon="111.482224">
        <ele>121.978594</ele>
        <time>2026-08-18T09:38:16.000Z</time>
      </trkpt>
      <trkpt lat="22.798496" lon="111.482252">
        <ele>122.050942</ele>
        <time>2026-08-18T09:38:17.000Z</time>
      </trkpt>
      <trkpt lat="22.798471" lon="111.482279">
        <ele>122.123355</ele>
        <time>2026-08-18T09:38:18.000Z</time>
      </trkpt>
      <trkpt lat="22.798446" lon="111.482308">
        <ele>122.198486</ele>
        <time>2026-08-18T09:38:19.000Z</time>
      </trkpt>
      <trkpt lat="22.798421" lon="111.482335">
        <ele>122.270899</ele>
        <time>2026-08-18T09:38:20.000Z</time>
      </trkpt>
      <trkpt lat="22.798396" lon="111.482364">
        <ele>122.346031</ele>
        <time>2026-08-18T09:38:21.000Z</time>
      </trkpt>
      <trkpt lat="22.798371" lon="111.482391">
        <ele>122.418444</ele>
        <time>2026-08-18T09:38:22.000Z</time>
      </trkpt>
      <trkpt lat="22.798342" lon="111.482417">
        <ele>122.495671</ele>
        <time>2026-08-18T09:38:23.000Z</time>
      </trkpt>
      <trkpt lat="22.798313" lon="111.482443">
        <ele>122.572898</ele>
        <time>2026-08-18T09:38:24.000Z</time>
      </trkpt>
      <trkpt lat="22.798285" lon="111.482468">
        <ele>122.647337</ele>
        <time>2026-08-18T09:38:25.000Z</time>
      </trkpt>
      <trkpt lat="22.798258" lon="111.482495">
        <ele>122.722715</ele>
        <time>2026-08-18T09:38:26.000Z</time>
      </trkpt>
      <trkpt lat="22.798230" lon="111.482523">
        <ele>122.800885</ele>
        <time>2026-08-18T09:38:27.000Z</time>
      </trkpt>
      <trkpt lat="22.798204" lon="111.482549">
        <ele>122.873471</ele>
        <time>2026-08-18T09:38:28.000Z</time>
      </trkpt>
      <trkpt lat="22.798177" lon="111.482576">
        <ele>122.948849</ele>
        <time>2026-08-18T09:38:29.000Z</time>
      </trkpt>
      <trkpt lat="22.798150" lon="111.482603">
        <ele>123.024228</ele>
        <time>2026-08-18T09:38:30.000Z</time>
      </trkpt>
      <trkpt lat="22.798124" lon="111.482630">
        <ele>123.098110</ele>
        <time>2026-08-18T09:38:31.000Z</time>
      </trkpt>
      <trkpt lat="22.798097" lon="111.482656">
        <ele>123.172218</ele>
        <time>2026-08-18T09:38:32.000Z</time>
      </trkpt>
      <trkpt lat="22.798072" lon="111.482684">
        <ele>123.245979</ele>
        <time>2026-08-18T09:38:33.000Z</time>
      </trkpt>
      <trkpt lat="22.798046" lon="111.482710">
        <ele>123.318565</ele>
        <time>2026-08-18T09:38:34.000Z</time>
      </trkpt>
      <trkpt lat="22.798019" lon="111.482737">
        <ele>123.393944</ele>
        <time>2026-08-18T09:38:35.000Z</time>
      </trkpt>
      <trkpt lat="22.797993" lon="111.482762">
        <ele>123.465261</ele>
        <time>2026-08-18T09:38:36.000Z</time>
      </trkpt>
      <trkpt lat="22.797967" lon="111.482788">
        <ele>123.537847</ele>
        <time>2026-08-18T09:38:37.000Z</time>
      </trkpt>
      <trkpt lat="22.797941" lon="111.482814">
        <ele>123.610434</ele>
        <time>2026-08-18T09:38:38.000Z</time>
      </trkpt>
      <trkpt lat="22.797915" lon="111.482839">
        <ele>123.681751</ele>
        <time>2026-08-18T09:38:39.000Z</time>
      </trkpt>
      <trkpt lat="22.797887" lon="111.482864">
        <ele>123.756191</ele>
        <time>2026-08-18T09:38:40.000Z</time>
      </trkpt>
      <trkpt lat="22.797860" lon="111.482889">
        <ele>123.829057</ele>
        <time>2026-08-18T09:38:41.000Z</time>
      </trkpt>
      <trkpt lat="22.797833" lon="111.482914">
        <ele>123.901923</ele>
        <time>2026-08-18T09:38:42.000Z</time>
      </trkpt>
      <trkpt lat="22.797804" lon="111.482937">
        <ele>123.975663</ele>
        <time>2026-08-18T09:38:43.000Z</time>
      </trkpt>
      <trkpt lat="22.797775" lon="111.482960">
        <ele>124.049404</ele>
        <time>2026-08-18T09:38:44.000Z</time>
      </trkpt>
      <trkpt lat="22.797746" lon="111.482981">
        <ele>124.120975</ele>
        <time>2026-08-18T09:38:45.000Z</time>
      </trkpt>
      <trkpt lat="22.797717" lon="111.483004">
        <ele>124.194716</ele>
        <time>2026-08-18T09:38:46.000Z</time>
      </trkpt>
      <trkpt lat="22.797688" lon="111.483027">
        <ele>124.268456</ele>
        <time>2026-08-18T09:38:47.000Z</time>
      </trkpt>
      <trkpt lat="22.797659" lon="111.483051">
        <ele>124.343329</ele>
        <time>2026-08-18T09:38:48.000Z</time>
      </trkpt>
      <trkpt lat="22.797630" lon="111.483078">
        <ele>124.421775</ele>
        <time>2026-08-18T09:38:49.000Z</time>
      </trkpt>
      <trkpt lat="22.797602" lon="111.483105">
        <ele>124.498675</ele>
        <time>2026-08-18T09:38:50.000Z</time>
      </trkpt>
      <trkpt lat="22.797574" lon="111.483132">
        <ele>124.575575</ele>
        <time>2026-08-18T09:38:51.000Z</time>
      </trkpt>
      <trkpt lat="22.797545" lon="111.483159">
        <ele>124.654021</ele>
        <time>2026-08-18T09:38:52.000Z</time>
      </trkpt>
      <trkpt lat="22.797518" lon="111.483188">
        <ele>124.732014</ele>
        <time>2026-08-18T09:38:53.000Z</time>
      </trkpt>
      <trkpt lat="22.797489" lon="111.483214">
        <ele>124.809241</ele>
        <time>2026-08-18T09:38:54.000Z</time>
      </trkpt>
      <trkpt lat="22.797460" lon="111.483241">
        <ele>124.887687</ele>
        <time>2026-08-18T09:38:55.000Z</time>
      </trkpt>
      <trkpt lat="22.797432" lon="111.483269">
        <ele>124.965857</ele>
        <time>2026-08-18T09:38:56.000Z</time>
      </trkpt>
      <trkpt lat="22.797402" lon="111.483293">
        <ele>125.042372</ele>
        <time>2026-08-18T09:38:57.000Z</time>
      </trkpt>
      <trkpt lat="22.797372" lon="111.483318">
        <ele>125.120025</ele>
        <time>2026-08-18T09:38:58.000Z</time>
      </trkpt>
      <trkpt lat="22.797344" lon="111.483347">
        <ele>125.199490</ele>
        <time>2026-08-18T09:38:59.000Z</time>
      </trkpt>
      <trkpt lat="22.797316" lon="111.483373">
        <ele>125.275146</ele>
        <time>2026-08-18T09:39:00.000Z</time>
      </trkpt>
      <trkpt lat="22.797286" lon="111.483401">
        <ele>125.356382</ele>
        <time>2026-08-18T09:39:01.000Z</time>
      </trkpt>
      <trkpt lat="22.797257" lon="111.483429">
        <ele>125.445913</ele>
        <time>2026-08-18T09:39:02.000Z</time>
      </trkpt>
      <trkpt lat="22.797229" lon="111.483458">
        <ele>125.538222</ele>
        <time>2026-08-18T09:39:03.000Z</time>
      </trkpt>
      <trkpt lat="22.797201" lon="111.483486">
        <ele>125.629028</ele>
        <time>2026-08-18T09:39:04.000Z</time>
      </trkpt>
      <trkpt lat="22.797172" lon="111.483513">
        <ele>125.720154</ele>
        <time>2026-08-18T09:39:05.000Z</time>
      </trkpt>
      <trkpt lat="22.797143" lon="111.483539">
        <ele>125.809863</ele>
        <time>2026-08-18T09:39:06.000Z</time>
      </trkpt>
      <trkpt lat="22.797113" lon="111.483566">
        <ele>125.902812</ele>
        <time>2026-08-18T09:39:07.000Z</time>
      </trkpt>
      <trkpt lat="22.797083" lon="111.483590">
        <ele>125.991694</ele>
        <time>2026-08-18T09:39:08.000Z</time>
      </trkpt>
      <trkpt lat="22.797052" lon="111.483614">
        <ele>126.082507</ele>
        <time>2026-08-18T09:39:09.000Z</time>
      </trkpt>
      <trkpt lat="22.797024" lon="111.483638">
        <ele>126.167598</ele>
        <time>2026-08-18T09:39:10.000Z</time>
      </trkpt>
      <trkpt lat="22.796995" lon="111.483662">
        <ele>126.254573</ele>
        <time>2026-08-18T09:39:11.000Z</time>
      </trkpt>
      <trkpt lat="22.796968" lon="111.483688">
        <ele>126.340661</ele>
        <time>2026-08-18T09:39:12.000Z</time>
      </trkpt>
      <trkpt lat="22.796940" lon="111.483715">
        <ele>126.429991</ele>
        <time>2026-08-18T09:39:13.000Z</time>
      </trkpt>
      <trkpt lat="22.796912" lon="111.483743">
        <ele>126.520797</ele>
        <time>2026-08-18T09:39:14.000Z</time>
      </trkpt>
      <trkpt lat="22.796882" lon="111.483770">
        <ele>126.613745</ele>
        <time>2026-08-18T09:39:15.000Z</time>
      </trkpt>
      <trkpt lat="22.796853" lon="111.483796">
        <ele>126.703455</ele>
        <time>2026-08-18T09:39:16.000Z</time>
      </trkpt>
      <trkpt lat="22.796825" lon="111.483824">
        <ele>126.794260</ele>
        <time>2026-08-18T09:39:17.000Z</time>
      </trkpt>
      <trkpt lat="22.796796" lon="111.483850">
        <ele>126.883970</ele>
        <time>2026-08-18T09:39:18.000Z</time>
      </trkpt>
      <trkpt lat="22.796767" lon="111.483876">
        <ele>126.973680</ele>
        <time>2026-08-18T09:39:19.000Z</time>
      </trkpt>
      <trkpt lat="22.796738" lon="111.483903">
        <ele>127.064806</ele>
        <time>2026-08-18T09:39:20.000Z</time>
      </trkpt>
      <trkpt lat="22.796710" lon="111.483930">
        <ele>127.154137</ele>
        <time>2026-08-18T09:39:21.000Z</time>
      </trkpt>
      <trkpt lat="22.796683" lon="111.483957">
        <ele>127.241699</ele>
        <time>2026-08-18T09:39:22.000Z</time>
      </trkpt>
      <trkpt lat="22.796654" lon="111.483985">
        <ele>127.334272</ele>
        <time>2026-08-18T09:39:23.000Z</time>
      </trkpt>
      <trkpt lat="22.796627" lon="111.484011">
        <ele>127.420360</ele>
        <time>2026-08-18T09:39:24.000Z</time>
      </trkpt>
      <trkpt lat="22.796600" lon="111.484036">
        <ele>127.505004</ele>
        <time>2026-08-18T09:39:25.000Z</time>
      </trkpt>
      <trkpt lat="22.796573" lon="111.484061">
        <ele>127.589648</ele>
        <time>2026-08-18T09:39:26.000Z</time>
      </trkpt>
      <trkpt lat="22.796547" lon="111.484087">
        <ele>127.673968</ele>
        <time>2026-08-18T09:39:27.000Z</time>
      </trkpt>
      <trkpt lat="22.796521" lon="111.484112">
        <ele>127.756813</ele>
        <time>2026-08-18T09:39:28.000Z</time>
      </trkpt>
      <trkpt lat="22.796496" lon="111.484137">
        <ele>127.837889</ele>
        <time>2026-08-18T09:39:29.000Z</time>
      </trkpt>
      <trkpt lat="22.796469" lon="111.484163">
        <ele>127.923977</ele>
        <time>2026-08-18T09:39:30.000Z</time>
      </trkpt>
      <trkpt lat="22.796442" lon="111.484188">
        <ele>128.008622</ele>
        <time>2026-08-18T09:39:31.000Z</time>
      </trkpt>
      <trkpt lat="22.796418" lon="111.484214">
        <ele>128.089500</ele>
        <time>2026-08-18T09:39:32.000Z</time>
      </trkpt>
      <trkpt lat="22.796395" lon="111.484241">
        <ele>128.170309</ele>
        <time>2026-08-18T09:39:33.000Z</time>
      </trkpt>
      <trkpt lat="22.796372" lon="111.484269">
        <ele>128.252746</ele>
        <time>2026-08-18T09:39:34.000Z</time>
      </trkpt>
      <trkpt lat="22.796349" lon="111.484297">
        <ele>128.335183</ele>
        <time>2026-08-18T09:39:35.000Z</time>
      </trkpt>
      <trkpt lat="22.796326" lon="111.484325">
        <ele>128.417620</ele>
        <time>2026-08-18T09:39:36.000Z</time>
      </trkpt>
      <trkpt lat="22.796303" lon="111.484353">
        <ele>128.500057</ele>
        <time>2026-08-18T09:39:37.000Z</time>
      </trkpt>
      <trkpt lat="22.796280" lon="111.484381">
        <ele>128.582494</ele>
        <time>2026-08-18T09:39:38.000Z</time>
      </trkpt>
      <trkpt lat="22.796256" lon="111.484408">
        <ele>128.664940</ele>
        <time>2026-08-18T09:39:39.000Z</time>
      </trkpt>
      <trkpt lat="22.796234" lon="111.484433">
        <ele>128.740912</ele>
        <time>2026-08-18T09:39:40.000Z</time>
      </trkpt>
      <trkpt lat="22.796211" lon="111.484459">
        <ele>128.820121</ele>
        <time>2026-08-18T09:39:41.000Z</time>
      </trkpt>
      <trkpt lat="22.796187" lon="111.484485">
        <ele>128.900999</ele>
        <time>2026-08-18T09:39:42.000Z</time>
      </trkpt>
      <trkpt lat="22.796165" lon="111.484511">
        <ele>128.978576</ele>
        <time>2026-08-18T09:39:43.000Z</time>
      </trkpt>
      <trkpt lat="22.796145" lon="111.484536">
        <ele>129.051337</ele>
        <time>2026-08-18T09:39:44.000Z</time>
      </trkpt>
      <trkpt lat="22.796124" lon="111.484562">
        <ele>129.127321</ele>
        <time>2026-08-18T09:39:45.000Z</time>
      </trkpt>
      <trkpt lat="22.796103" lon="111.484586">
        <ele>129.200057</ele>
        <time>2026-08-18T09:39:46.000Z</time>
      </trkpt>
      <trkpt lat="22.796084" lon="111.484611">
        <ele>129.271278</ele>
        <time>2026-08-18T09:39:47.000Z</time>
      </trkpt>
      <trkpt lat="22.796065" lon="111.484638">
        <ele>129.345944</ele>
        <time>2026-08-18T09:39:48.000Z</time>
      </trkpt>
      <trkpt lat="22.796046" lon="111.484664">
        <ele>129.418875</ele>
        <time>2026-08-18T09:39:49.000Z</time>
      </trkpt>
      <trkpt lat="22.796028" lon="111.484692">
        <ele>129.493910</ele>
        <time>2026-08-18T09:39:50.000Z</time>
      </trkpt>
      <trkpt lat="22.796013" lon="111.484722">
        <ele>129.568931</ele>
        <time>2026-08-18T09:39:51.000Z</time>
      </trkpt>
      <trkpt lat="22.795997" lon="111.484751">
        <ele>129.643222</ele>
        <time>2026-08-18T09:39:52.000Z</time>
      </trkpt>
      <trkpt lat="22.795979" lon="111.484780">
        <ele>129.730715</ele>
        <time>2026-08-18T09:39:53.000Z</time>
      </trkpt>
      <trkpt lat="22.795963" lon="111.484811">
        <ele>129.823618</ele>
        <time>2026-08-18T09:39:54.000Z</time>
      </trkpt>
      <trkpt lat="22.795945" lon="111.484840">
        <ele>129.915037</ele>
        <time>2026-08-18T09:39:55.000Z</time>
      </trkpt>
      <trkpt lat="22.795928" lon="111.484871">
        <ele>130.009359</ele>
        <time>2026-08-18T09:39:56.000Z</time>
      </trkpt>
      <trkpt lat="22.795911" lon="111.484902">
        <ele>130.103680</ele>
        <time>2026-08-18T09:39:57.000Z</time>
      </trkpt>
      <trkpt lat="22.795895" lon="111.484932">
        <ele>130.194310</ele>
        <time>2026-08-18T09:39:58.000Z</time>
      </trkpt>
      <trkpt lat="22.795879" lon="111.484963">
        <ele>130.287213</ele>
        <time>2026-08-18T09:39:59.000Z</time>
      </trkpt>
      <trkpt lat="22.795864" lon="111.484995">
        <ele>130.381087</ele>
        <time>2026-08-18T09:40:00.000Z</time>
      </trkpt>
      <trkpt lat="22.795849" lon="111.485025">
        <ele>130.470331</ele>
        <time>2026-08-18T09:40:01.000Z</time>
      </trkpt>
      <trkpt lat="22.795835" lon="111.485057">
        <ele>130.562954</ele>
        <time>2026-08-18T09:40:02.000Z</time>
      </trkpt>
      <trkpt lat="22.795821" lon="111.485089">
        <ele>130.655577</ele>
        <time>2026-08-18T09:40:03.000Z</time>
      </trkpt>
      <trkpt lat="22.795807" lon="111.485120">
        <ele>130.745845</ele>
        <time>2026-08-18T09:40:04.000Z</time>
      </trkpt>
      <trkpt lat="22.795795" lon="111.485154">
        <ele>130.841046</ele>
        <time>2026-08-18T09:40:05.000Z</time>
      </trkpt>
      <trkpt lat="22.795781" lon="111.485188">
        <ele>130.938420</ele>
        <time>2026-08-18T09:40:06.000Z</time>
      </trkpt>
      <trkpt lat="22.795768" lon="111.485222">
        <ele>131.034672</ele>
        <time>2026-08-18T09:40:07.000Z</time>
      </trkpt>
      <trkpt lat="22.795755" lon="111.485257">
        <ele>131.133344</ele>
        <time>2026-08-18T09:40:08.000Z</time>
      </trkpt>
      <trkpt lat="22.795743" lon="111.485291">
        <ele>131.228545</ele>
        <time>2026-08-18T09:40:09.000Z</time>
      </trkpt>
      <trkpt lat="22.795729" lon="111.485326">
        <ele>131.328312</ele>
        <time>2026-08-18T09:40:10.000Z</time>
      </trkpt>
      <trkpt lat="22.795716" lon="111.485361">
        <ele>131.426985</ele>
        <time>2026-08-18T09:40:11.000Z</time>
      </trkpt>
      <trkpt lat="22.795705" lon="111.485396">
        <ele>131.523680</ele>
        <time>2026-08-18T09:40:12.000Z</time>
      </trkpt>
      <trkpt lat="22.795693" lon="111.485431">
        <ele>131.621328</ele>
        <time>2026-08-18T09:40:13.000Z</time>
      </trkpt>
      <trkpt lat="22.795682" lon="111.485466">
        <ele>131.718024</ele>
        <time>2026-08-18T09:40:14.000Z</time>
      </trkpt>
      <trkpt lat="22.795671" lon="111.485502">
        <ele>131.817198</ele>
        <time>2026-08-18T09:40:15.000Z</time>
      </trkpt>
      <trkpt lat="22.795662" lon="111.485538">
        <ele>131.914736</ele>
        <time>2026-08-18T09:40:16.000Z</time>
      </trkpt>
      <trkpt lat="22.795651" lon="111.485574">
        <ele>132.013911</ele>
        <time>2026-08-18T09:40:17.000Z</time>
      </trkpt>
      <trkpt lat="22.795641" lon="111.485611">
        <ele>132.114736</ele>
        <time>2026-08-18T09:40:18.000Z</time>
      </trkpt>
      <trkpt lat="22.795631" lon="111.485648">
        <ele>132.215562</ele>
        <time>2026-08-18T09:40:19.000Z</time>
      </trkpt>
      <trkpt lat="22.795623" lon="111.485686">
        <ele>132.317488</ele>
        <time>2026-08-18T09:40:20.000Z</time>
      </trkpt>
      <trkpt lat="22.795615" lon="111.485723">
        <ele>132.416866</ele>
        <time>2026-08-18T09:40:21.000Z</time>
      </trkpt>
      <trkpt lat="22.795605" lon="111.485761">
        <ele>132.520204</ele>
        <time>2026-08-18T09:40:22.000Z</time>
      </trkpt>
      <trkpt lat="22.795596" lon="111.485800">
        <ele>132.625334</ele>
        <time>2026-08-18T09:40:23.000Z</time>
      </trkpt>
      <trkpt lat="22.795591" lon="111.485838">
        <ele>132.725709</ele>
        <time>2026-08-18T09:40:24.000Z</time>
      </trkpt>
      <trkpt lat="22.795586" lon="111.485878">
        <ele>132.831264</ele>
        <time>2026-08-18T09:40:25.000Z</time>
      </trkpt>
      <trkpt lat="22.795581" lon="111.485918">
        <ele>132.936819</ele>
        <time>2026-08-18T09:40:26.000Z</time>
      </trkpt>
      <trkpt lat="22.795578" lon="111.485957">
        <ele>133.039157</ele>
        <time>2026-08-18T09:40:27.000Z</time>
      </trkpt>
      <trkpt lat="22.795573" lon="111.485995">
        <ele>133.139532</ele>
        <time>2026-08-18T09:40:28.000Z</time>
      </trkpt>
      <trkpt lat="22.795571" lon="111.486033">
        <ele>133.239062</ele>
        <time>2026-08-18T09:40:29.000Z</time>
      </trkpt>
      <trkpt lat="22.795570" lon="111.486072">
        <ele>133.341085</ele>
        <time>2026-08-18T09:40:30.000Z</time>
      </trkpt>
      <trkpt lat="22.795572" lon="111.486111">
        <ele>133.443225</ele>
        <time>2026-08-18T09:40:31.000Z</time>
      </trkpt>
      <trkpt lat="22.795574" lon="111.486147">
        <ele>133.537535</ele>
        <time>2026-08-18T09:40:32.000Z</time>
      </trkpt>
      <trkpt lat="22.795575" lon="111.486184">
        <ele>133.634329</ele>
        <time>2026-08-18T09:40:33.000Z</time>
      </trkpt>
      <trkpt lat="22.795576" lon="111.486220">
        <ele>133.728510</ele>
        <time>2026-08-18T09:40:34.000Z</time>
      </trkpt>
      <trkpt lat="22.795576" lon="111.486258">
        <ele>133.827879</ele>
        <time>2026-08-18T09:40:35.000Z</time>
      </trkpt>
      <trkpt lat="22.795574" lon="111.486296">
        <ele>133.927409</ele>
        <time>2026-08-18T09:40:36.000Z</time>
      </trkpt>
      <trkpt lat="22.795571" lon="111.486334">
        <ele>134.027141</ele>
        <time>2026-08-18T09:40:37.000Z</time>
      </trkpt>
      <trkpt lat="22.795569" lon="111.486372">
        <ele>134.126671</ele>
        <time>2026-08-18T09:40:38.000Z</time>
      </trkpt>
      <trkpt lat="22.795565" lon="111.486408">
        <ele>134.221490</ele>
        <time>2026-08-18T09:40:39.000Z</time>
      </trkpt>
      <trkpt lat="22.795562" lon="111.486443">
        <ele>134.313408</ele>
        <time>2026-08-18T09:40:40.000Z</time>
      </trkpt>
      <trkpt lat="22.795559" lon="111.486477">
        <ele>134.402723</ele>
        <time>2026-08-18T09:40:41.000Z</time>
      </trkpt>
      <trkpt lat="22.795554" lon="111.486510">
        <ele>134.490174</ele>
        <time>2026-08-18T09:40:42.000Z</time>
      </trkpt>
      <trkpt lat="22.795550" lon="111.486543">
        <ele>134.577210</ele>
        <time>2026-08-18T09:40:43.000Z</time>
      </trkpt>
      <trkpt lat="22.795545" lon="111.486575">
        <ele>134.662082</ele>
        <time>2026-08-18T09:40:44.000Z</time>
      </trkpt>
      <trkpt lat="22.795543" lon="111.486605">
        <ele>134.740736</ele>
        <time>2026-08-18T09:40:45.000Z</time>
      </trkpt>
      <trkpt lat="22.795540" lon="111.486636">
        <ele>134.767364</ele>
        <time>2026-08-18T09:40:46.000Z</time>
      </trkpt>
      <trkpt lat="22.795537" lon="111.486668">
        <ele>134.769713</ele>
        <time>2026-08-18T09:40:47.000Z</time>
      </trkpt>
      <trkpt lat="22.795535" lon="111.486700">
        <ele>134.772054</ele>
        <time>2026-08-18T09:40:48.000Z</time>
      </trkpt>
      <trkpt lat="22.795532" lon="111.486730">
        <ele>134.774257</ele>
        <time>2026-08-18T09:40:49.000Z</time>
      </trkpt>
      <trkpt lat="22.795529" lon="111.486761">
        <ele>134.776533</ele>
        <time>2026-08-18T09:40:50.000Z</time>
      </trkpt>
      <trkpt lat="22.795527" lon="111.486790">
        <ele>134.778656</ele>
        <time>2026-08-18T09:40:51.000Z</time>
      </trkpt>
      <trkpt lat="22.795526" lon="111.486819">
        <ele>134.780774</ele>
        <time>2026-08-18T09:40:52.000Z</time>
      </trkpt>
      <trkpt lat="22.795525" lon="111.486847">
        <ele>134.782820</ele>
        <time>2026-08-18T09:40:53.000Z</time>
      </trkpt>
      <trkpt lat="22.795523" lon="111.486875">
        <ele>134.784870</ele>
        <time>2026-08-18T09:40:54.000Z</time>
      </trkpt>
      <trkpt lat="22.795520" lon="111.486905">
        <ele>134.787073</ele>
        <time>2026-08-18T09:40:55.000Z</time>
      </trkpt>
      <trkpt lat="22.795517" lon="111.486936">
        <ele>134.789349</ele>
        <time>2026-08-18T09:40:56.000Z</time>
      </trkpt>
      <trkpt lat="22.795514" lon="111.486969">
        <ele>134.791769</ele>
        <time>2026-08-18T09:40:57.000Z</time>
      </trkpt>
      <trkpt lat="22.795511" lon="111.487000">
        <ele>134.794045</ele>
        <time>2026-08-18T09:40:58.000Z</time>
      </trkpt>
      <trkpt lat="22.795509" lon="111.487031">
        <ele>134.796313</ele>
        <time>2026-08-18T09:40:59.000Z</time>
      </trkpt>
      <trkpt lat="22.795507" lon="111.487061">
        <ele>134.798509</ele>
        <time>2026-08-18T09:41:00.000Z</time>
      </trkpt>
      <trkpt lat="22.795506" lon="111.487092">
        <ele>134.800774</ele>
        <time>2026-08-18T09:41:01.000Z</time>
      </trkpt>
      <trkpt lat="22.795505" lon="111.487123">
        <ele>134.803038</ele>
        <time>2026-08-18T09:41:02.000Z</time>
      </trkpt>
      <trkpt lat="22.795504" lon="111.487154">
        <ele>134.805303</ele>
        <time>2026-08-18T09:41:03.000Z</time>
      </trkpt>
      <trkpt lat="22.795504" lon="111.487186">
        <ele>134.807639</ele>
        <time>2026-08-18T09:41:04.000Z</time>
      </trkpt>
      <trkpt lat="22.795504" lon="111.487220">
        <ele>134.810121</ele>
        <time>2026-08-18T09:41:05.000Z</time>
      </trkpt>
      <trkpt lat="22.795504" lon="111.487254">
        <ele>134.812603</ele>
        <time>2026-08-18T09:41:06.000Z</time>
      </trkpt>
      <trkpt lat="22.795502" lon="111.487287">
        <ele>134.815017</ele>
        <time>2026-08-18T09:41:07.000Z</time>
      </trkpt>
      <trkpt lat="22.795502" lon="111.487320">
        <ele>134.817427</ele>
        <time>2026-08-18T09:41:08.000Z</time>
      </trkpt>
      <trkpt lat="22.795501" lon="111.487353">
        <ele>134.819837</ele>
        <time>2026-08-18T09:41:09.000Z</time>
      </trkpt>
      <trkpt lat="22.795499" lon="111.487387">
        <ele>134.822324</ele>
        <time>2026-08-18T09:41:10.000Z</time>
      </trkpt>
      <trkpt lat="22.795496" lon="111.487422">
        <ele>134.824890</ele>
        <time>2026-08-18T09:41:11.000Z</time>
      </trkpt>
      <trkpt lat="22.795493" lon="111.487459">
        <ele>134.827602</ele>
        <time>2026-08-18T09:41:12.000Z</time>
      </trkpt>
      <trkpt lat="22.795490" lon="111.487496">
        <ele>134.830313</ele>
        <time>2026-08-18T09:41:13.000Z</time>
      </trkpt>
      <trkpt lat="22.795488" lon="111.487534">
        <ele>134.833092</ele>
        <time>2026-08-18T09:41:14.000Z</time>
      </trkpt>
      <trkpt lat="22.795485" lon="111.487570">
        <ele>134.835731</ele>
        <time>2026-08-18T09:41:15.000Z</time>
      </trkpt>
      <trkpt lat="22.795482" lon="111.487608">
        <ele>134.838515</ele>
        <time>2026-08-18T09:41:16.000Z</time>
      </trkpt>
      <trkpt lat="22.795480" lon="111.487648">
        <ele>134.841440</ele>
        <time>2026-08-18T09:41:17.000Z</time>
      </trkpt>
      <trkpt lat="22.795476" lon="111.487688">
        <ele>134.844377</ele>
        <time>2026-08-18T09:41:18.000Z</time>
      </trkpt>
      <trkpt lat="22.795470" lon="111.487727">
        <ele>134.847263</ele>
        <time>2026-08-18T09:41:19.000Z</time>
      </trkpt>
      <trkpt lat="22.795464" lon="111.487766">
        <ele>134.850150</ele>
        <time>2026-08-18T09:41:20.000Z</time>
      </trkpt>
      <trkpt lat="22.795457" lon="111.487808">
        <ele>134.853266</ele>
        <time>2026-08-18T09:41:21.000Z</time>
      </trkpt>
      <trkpt lat="22.795450" lon="111.487852">
        <ele>134.856525</ele>
        <time>2026-08-18T09:41:22.000Z</time>
      </trkpt>
      <trkpt lat="22.795444" lon="111.487895">
        <ele>134.859700</ele>
        <time>2026-08-18T09:41:23.000Z</time>
      </trkpt>
      <trkpt lat="22.795437" lon="111.487938">
        <ele>134.862888</ele>
        <time>2026-08-18T09:41:24.000Z</time>
      </trkpt>
      <trkpt lat="22.795427" lon="111.487982">
        <ele>134.866196</ele>
        <time>2026-08-18T09:41:25.000Z</time>
      </trkpt>
      <trkpt lat="22.795417" lon="111.488029">
        <ele>134.869718</ele>
        <time>2026-08-18T09:41:26.000Z</time>
      </trkpt>
      <trkpt lat="22.795406" lon="111.488076">
        <ele>134.873258</ele>
        <time>2026-08-18T09:41:27.000Z</time>
      </trkpt>
      <trkpt lat="22.795391" lon="111.488124">
        <ele>134.876958</ele>
        <time>2026-08-18T09:41:28.000Z</time>
      </trkpt>
      <trkpt lat="22.795374" lon="111.488172">
        <ele>134.880711</ele>
        <time>2026-08-18T09:41:29.000Z</time>
      </trkpt>
      <trkpt lat="22.795358" lon="111.488220">
        <ele>134.884438</ele>
        <time>2026-08-18T09:41:30.000Z</time>
      </trkpt>
      <trkpt lat="22.795342" lon="111.488270">
        <ele>134.888301</ele>
        <time>2026-08-18T09:41:31.000Z</time>
      </trkpt>
      <trkpt lat="22.795325" lon="111.488322">
        <ele>134.892329</ele>
        <time>2026-08-18T09:41:32.000Z</time>
      </trkpt>
      <trkpt lat="22.795305" lon="111.488376">
        <ele>134.896578</ele>
        <time>2026-08-18T09:41:33.000Z</time>
      </trkpt>
      <trkpt lat="22.795283" lon="111.488432">
        <ele>134.901022</ele>
        <time>2026-08-18T09:41:34.000Z</time>
      </trkpt>
      <trkpt lat="22.795258" lon="111.488489">
        <ele>134.905630</ele>
        <time>2026-08-18T09:41:35.000Z</time>
      </trkpt>
      <trkpt lat="22.795233" lon="111.488548">
        <ele>134.785124</ele>
        <time>2026-08-18T09:41:36.000Z</time>
      </trkpt>
      <trkpt lat="22.795206" lon="111.488608">
        <ele>134.506047</ele>
        <time>2026-08-18T09:41:37.000Z</time>
      </trkpt>
      <trkpt lat="22.795177" lon="111.488672">
        <ele>134.207967</ele>
        <time>2026-08-18T09:41:38.000Z</time>
      </trkpt>
      <trkpt lat="22.795145" lon="111.488737">
        <ele>133.899961</ele>
        <time>2026-08-18T09:41:39.000Z</time>
      </trkpt>
      <trkpt lat="22.795114" lon="111.488806">
        <ele>133.579122</ele>
        <time>2026-08-18T09:41:40.000Z</time>
      </trkpt>
      <trkpt lat="22.795081" lon="111.488875">
        <ele>133.254208</ele>
        <time>2026-08-18T09:41:41.000Z</time>
      </trkpt>
      <trkpt lat="22.795044" lon="111.488945">
        <ele>132.916935</ele>
        <time>2026-08-18T09:41:42.000Z</time>
      </trkpt>
      <trkpt lat="22.795006" lon="111.489016">
        <ele>132.573775</ele>
        <time>2026-08-18T09:41:43.000Z</time>
      </trkpt>
      <trkpt lat="22.794965" lon="111.489087">
        <ele>132.223588</ele>
        <time>2026-08-18T09:41:44.000Z</time>
      </trkpt>
      <trkpt lat="22.794923" lon="111.489159">
        <ele>131.867448</ele>
        <time>2026-08-18T09:41:45.000Z</time>
      </trkpt>
      <trkpt lat="22.794882" lon="111.489232">
        <ele>131.510148</ele>
        <time>2026-08-18T09:41:46.000Z</time>
      </trkpt>
      <trkpt lat="22.794840" lon="111.489306">
        <ele>131.146916</ele>
        <time>2026-08-18T09:41:47.000Z</time>
      </trkpt>
      <trkpt lat="22.794797" lon="111.489381">
        <ele>130.777744</ele>
        <time>2026-08-18T09:41:48.000Z</time>
      </trkpt>
      <trkpt lat="22.794752" lon="111.489461">
        <ele>130.386021</ele>
        <time>2026-08-18T09:41:49.000Z</time>
      </trkpt>
      <trkpt lat="22.794706" lon="111.489541">
        <ele>129.991918</ele>
        <time>2026-08-18T09:41:50.000Z</time>
      </trkpt>
      <trkpt lat="22.794656" lon="111.489622">
        <ele>129.584456</ele>
        <time>2026-08-18T09:41:51.000Z</time>
      </trkpt>
      <trkpt lat="22.794607" lon="111.489706">
        <ele>129.168959</ele>
        <time>2026-08-18T09:41:52.000Z</time>
      </trkpt>
      <trkpt lat="22.794557" lon="111.489789">
        <ele>128.754525</ele>
        <time>2026-08-18T09:41:53.000Z</time>
      </trkpt>
      <trkpt lat="22.794509" lon="111.489875">
        <ele>128.334306</ele>
        <time>2026-08-18T09:41:54.000Z</time>
      </trkpt>
      <trkpt lat="22.794459" lon="111.489961">
        <ele>127.909319</ele>
        <time>2026-08-18T09:41:55.000Z</time>
      </trkpt>
      <trkpt lat="22.794411" lon="111.490050">
        <ele>127.478323</ele>
        <time>2026-08-18T09:41:56.000Z</time>
      </trkpt>
      <trkpt lat="22.794361" lon="111.490140">
        <ele>127.039103</ele>
        <time>2026-08-18T09:41:57.000Z</time>
      </trkpt>
      <trkpt lat="22.794312" lon="111.490233">
        <ele>126.630948</ele>
        <time>2026-08-18T09:41:58.000Z</time>
      </trkpt>
      <trkpt lat="22.794261" lon="111.490324">
        <ele>126.294725</ele>
        <time>2026-08-18T09:41:59.000Z</time>
      </trkpt>
      <trkpt lat="22.794210" lon="111.490414">
        <ele>125.961197</ele>
        <time>2026-08-18T09:42:00.000Z</time>
      </trkpt>
      <trkpt lat="22.794159" lon="111.490506">
        <ele>125.622272</ele>
        <time>2026-08-18T09:42:01.000Z</time>
      </trkpt>
      <trkpt lat="22.794109" lon="111.490598">
        <ele>125.285100</ele>
        <time>2026-08-18T09:42:02.000Z</time>
      </trkpt>
      <trkpt lat="22.794060" lon="111.490691">
        <ele>124.946916</ele>
        <time>2026-08-18T09:42:03.000Z</time>
      </trkpt>
      <trkpt lat="22.794011" lon="111.490789">
        <ele>124.594940</ele>
        <time>2026-08-18T09:42:04.000Z</time>
      </trkpt>
      <trkpt lat="22.793965" lon="111.490887">
        <ele>124.247744</ele>
        <time>2026-08-18T09:42:05.000Z</time>
      </trkpt>
      <trkpt lat="22.793922" lon="111.490989">
        <ele>123.893643</ele>
        <time>2026-08-18T09:42:06.000Z</time>
      </trkpt>
      <trkpt lat="22.793885" lon="111.491093">
        <ele>123.541698</ele>
        <time>2026-08-18T09:42:07.000Z</time>
      </trkpt>
      <trkpt lat="22.793848" lon="111.491196">
        <ele>123.192697</ele>
        <time>2026-08-18T09:42:08.000Z</time>
      </trkpt>
      <trkpt lat="22.793811" lon="111.491299">
        <ele>122.843696</ele>
        <time>2026-08-18T09:42:09.000Z</time>
      </trkpt>
      <trkpt lat="22.793778" lon="111.491405">
        <ele>122.490471</ele>
        <time>2026-08-18T09:42:10.000Z</time>
      </trkpt>
      <trkpt lat="22.793747" lon="111.491510">
        <ele>122.142385</ele>
        <time>2026-08-18T09:42:11.000Z</time>
      </trkpt>
      <trkpt lat="22.793720" lon="111.491616">
        <ele>121.795188</ele>
        <time>2026-08-18T09:42:12.000Z</time>
      </trkpt>
      <trkpt lat="22.793695" lon="111.491722">
        <ele>121.449752</ele>
        <time>2026-08-18T09:42:13.000Z</time>
      </trkpt>
      <trkpt lat="22.793674" lon="111.491828">
        <ele>121.107453</ele>
        <time>2026-08-18T09:42:14.000Z</time>
      </trkpt>
      <trkpt lat="22.793656" lon="111.491935">
        <ele>120.764059</ele>
        <time>2026-08-18T09:42:15.000Z</time>
      </trkpt>
      <trkpt lat="22.793641" lon="111.492040">
        <ele>120.481999</ele>
        <time>2026-08-18T09:42:16.000Z</time>
      </trkpt>
      <trkpt lat="22.793628" lon="111.492144">
        <ele>120.257942</ele>
        <time>2026-08-18T09:42:17.000Z</time>
      </trkpt>
      <trkpt lat="22.793618" lon="111.492249">
        <ele>120.032589</ele>
        <time>2026-08-18T09:42:18.000Z</time>
      </trkpt>
      <trkpt lat="22.793611" lon="111.492354">
        <ele>119.807844</ele>
        <time>2026-08-18T09:42:19.000Z</time>
      </trkpt>
      <trkpt lat="22.793603" lon="111.492458">
        <ele>119.585047</ele>
        <time>2026-08-18T09:42:20.000Z</time>
      </trkpt>
      <trkpt lat="22.793595" lon="111.492561">
        <ele>119.364378</ele>
        <time>2026-08-18T09:42:21.000Z</time>
      </trkpt>
      <trkpt lat="22.793589" lon="111.492663">
        <ele>119.146179</ele>
        <time>2026-08-18T09:42:22.000Z</time>
      </trkpt>
      <trkpt lat="22.793582" lon="111.492766">
        <ele>118.925692</ele>
        <time>2026-08-18T09:42:23.000Z</time>
      </trkpt>
      <trkpt lat="22.793573" lon="111.492867">
        <ele>118.709067</ele>
        <time>2026-08-18T09:42:24.000Z</time>
      </trkpt>
      <trkpt lat="22.793565" lon="111.492970">
        <ele>118.488397</ele>
        <time>2026-08-18T09:42:25.000Z</time>
      </trkpt>
      <trkpt lat="22.793558" lon="111.493071">
        <ele>118.272168</ele>
        <time>2026-08-18T09:42:26.000Z</time>
      </trkpt>
      <trkpt lat="22.793553" lon="111.493172">
        <ele>118.056237</ele>
        <time>2026-08-18T09:42:27.000Z</time>
      </trkpt>
      <trkpt lat="22.793546" lon="111.493270">
        <ele>117.846393</ele>
        <time>2026-08-18T09:42:28.000Z</time>
      </trkpt>
      <trkpt lat="22.793539" lon="111.493367">
        <ele>117.638679</ele>
        <time>2026-08-18T09:42:29.000Z</time>
      </trkpt>
      <trkpt lat="22.793533" lon="111.493464">
        <ele>117.431132</ele>
        <time>2026-08-18T09:42:30.000Z</time>
      </trkpt>
      <trkpt lat="22.793527" lon="111.493561">
        <ele>117.223585</ele>
        <time>2026-08-18T09:42:31.000Z</time>
      </trkpt>
      <trkpt lat="22.793520" lon="111.493658">
        <ele>117.015870</ele>
        <time>2026-08-18T09:42:32.000Z</time>
      </trkpt>
      <trkpt lat="22.793514" lon="111.493756">
        <ele>116.806193</ele>
        <time>2026-08-18T09:42:33.000Z</time>
      </trkpt>
      <trkpt lat="22.793506" lon="111.493851">
        <ele>116.602537</ele>
        <time>2026-08-18T09:42:34.000Z</time>
      </trkpt>
      <trkpt lat="22.793500" lon="111.493946">
        <ele>116.399937</ele>
        <time>2026-08-18T09:42:35.000Z</time>
      </trkpt>
      <trkpt lat="22.793493" lon="111.494042">
        <ele>116.199199</ele>
        <time>2026-08-18T09:42:36.000Z</time>
      </trkpt>
      <trkpt lat="22.793486" lon="111.494137">
        <ele>116.000538</ele>
        <time>2026-08-18T09:42:37.000Z</time>
      </trkpt>
      <trkpt lat="22.793482" lon="111.494232">
        <ele>115.802303</ele>
        <time>2026-08-18T09:42:38.000Z</time>
      </trkpt>
      <trkpt lat="22.793476" lon="111.494328">
        <ele>115.601730</ele>
        <time>2026-08-18T09:42:39.000Z</time>
      </trkpt>
      <trkpt lat="22.793468" lon="111.494421">
        <ele>115.407028</ele>
        <time>2026-08-18T09:42:40.000Z</time>
      </trkpt>
      <trkpt lat="22.793461" lon="111.494516">
        <ele>115.208367</ele>
        <time>2026-08-18T09:42:41.000Z</time>
      </trkpt>
      <trkpt lat="22.793457" lon="111.494609">
        <ele>115.014297</ele>
        <time>2026-08-18T09:42:42.000Z</time>
      </trkpt>
      <trkpt lat="22.793452" lon="111.494701">
        <ele>114.822188</ele>
        <time>2026-08-18T09:42:43.000Z</time>
      </trkpt>
      <trkpt lat="22.793448" lon="111.494794">
        <ele>114.628117</ele>
        <time>2026-08-18T09:42:44.000Z</time>
      </trkpt>
      <trkpt lat="22.793441" lon="111.494887">
        <ele>114.433612</ele>
        <time>2026-08-18T09:42:45.000Z</time>
      </trkpt>
      <trkpt lat="22.793434" lon="111.494980">
        <ele>114.239107</ele>
        <time>2026-08-18T09:42:46.000Z</time>
      </trkpt>
      <trkpt lat="22.793426" lon="111.495072">
        <ele>114.046481</ele>
        <time>2026-08-18T09:42:47.000Z</time>
      </trkpt>
      <trkpt lat="22.793420" lon="111.495165">
        <ele>113.852146</ele>
        <time>2026-08-18T09:42:48.000Z</time>
      </trkpt>
      <trkpt lat="22.793413" lon="111.495256">
        <ele>113.661796</ele>
        <time>2026-08-18T09:42:49.000Z</time>
      </trkpt>
      <trkpt lat="22.793408" lon="111.495348">
        <ele>113.469688</ele>
        <time>2026-08-18T09:42:50.000Z</time>
      </trkpt>
      <trkpt lat="22.793403" lon="111.495439">
        <ele>113.279660</ele>
        <time>2026-08-18T09:42:51.000Z</time>
      </trkpt>
      <trkpt lat="22.793398" lon="111.495527">
        <ele>113.095875</ele>
        <time>2026-08-18T09:42:52.000Z</time>
      </trkpt>
      <trkpt lat="22.793390" lon="111.495617">
        <ele>112.907398</ele>
        <time>2026-08-18T09:42:53.000Z</time>
      </trkpt>
      <trkpt lat="22.793383" lon="111.495706">
        <ele>112.721202</ele>
        <time>2026-08-18T09:42:54.000Z</time>
      </trkpt>
      <trkpt lat="22.793375" lon="111.495794">
        <ele>112.536875</ele>
        <time>2026-08-18T09:42:55.000Z</time>
      </trkpt>
      <trkpt lat="22.793367" lon="111.495882">
        <ele>112.355092</ele>
        <time>2026-08-18T09:42:56.000Z</time>
      </trkpt>
      <trkpt lat="22.793358" lon="111.495972">
        <ele>112.220019</ele>
        <time>2026-08-18T09:42:57.000Z</time>
      </trkpt>
      <trkpt lat="22.793350" lon="111.496060">
        <ele>112.088081</ele>
        <time>2026-08-18T09:42:58.000Z</time>
      </trkpt>
      <trkpt lat="22.793340" lon="111.496150">
        <ele>111.952824</ele>
        <time>2026-08-18T09:42:59.000Z</time>
      </trkpt>
      <trkpt lat="22.793327" lon="111.496239">
        <ele>111.818374</ele>
        <time>2026-08-18T09:43:00.000Z</time>
      </trkpt>
      <trkpt lat="22.793313" lon="111.496329">
        <ele>111.682191</ele>
        <time>2026-08-18T09:43:01.000Z</time>
      </trkpt>
      <trkpt lat="22.793294" lon="111.496418">
        <ele>111.545884</ele>
        <time>2026-08-18T09:43:02.000Z</time>
      </trkpt>
      <trkpt lat="22.793273" lon="111.496506">
        <ele>111.410255</ele>
        <time>2026-08-18T09:43:03.000Z</time>
      </trkpt>
      <trkpt lat="22.793252" lon="111.496595">
        <ele>111.273182</ele>
        <time>2026-08-18T09:43:04.000Z</time>
      </trkpt>
      <trkpt lat="22.793229" lon="111.496684">
        <ele>111.135270</ele>
        <time>2026-08-18T09:43:05.000Z</time>
      </trkpt>
      <trkpt lat="22.793205" lon="111.496771">
        <ele>110.999774</ele>
        <time>2026-08-18T09:43:06.000Z</time>
      </trkpt>
      <trkpt lat="22.793180" lon="111.496857">
        <ele>110.865229</ele>
        <time>2026-08-18T09:43:07.000Z</time>
      </trkpt>
      <trkpt lat="22.793154" lon="111.496944">
        <ele>110.728770</ele>
        <time>2026-08-18T09:43:08.000Z</time>
      </trkpt>
      <trkpt lat="22.793126" lon="111.497030">
        <ele>110.592686</ele>
        <time>2026-08-18T09:43:09.000Z</time>
      </trkpt>
      <trkpt lat="22.793097" lon="111.497113">
        <ele>110.460249</ele>
        <time>2026-08-18T09:43:10.000Z</time>
      </trkpt>
      <trkpt lat="22.793069" lon="111.497197">
        <ele>110.326975</ele>
        <time>2026-08-18T09:43:11.000Z</time>
      </trkpt>
      <trkpt lat="22.793041" lon="111.497281">
        <ele>110.193701</ele>
        <time>2026-08-18T09:43:12.000Z</time>
      </trkpt>
      <trkpt lat="22.793010" lon="111.497365">
        <ele>110.058699</ele>
        <time>2026-08-18T09:43:13.000Z</time>
      </trkpt>
      <trkpt lat="22.792980" lon="111.497448">
        <ele>109.925680</ele>
        <time>2026-08-18T09:43:14.000Z</time>
      </trkpt>
      <trkpt lat="22.792946" lon="111.497528">
        <ele>109.794242</ele>
        <time>2026-08-18T09:43:15.000Z</time>
      </trkpt>
      <trkpt lat="22.792912" lon="111.497608">
        <ele>109.662804</ele>
        <time>2026-08-18T09:43:16.000Z</time>
      </trkpt>
      <trkpt lat="22.792877" lon="111.497687">
        <ele>109.532026</ele>
        <time>2026-08-18T09:43:17.000Z</time>
      </trkpt>
      <trkpt lat="22.792843" lon="111.497763">
        <ele>109.413172</ele>
        <time>2026-08-18T09:43:18.000Z</time>
      </trkpt>
      <trkpt lat="22.792811" lon="111.497841">
        <ele>109.306363</ele>
        <time>2026-08-18T09:43:19.000Z</time>
      </trkpt>
      <trkpt lat="22.792781" lon="111.497919">
        <ele>109.200627</ele>
        <time>2026-08-18T09:43:20.000Z</time>
      </trkpt>
      <trkpt lat="22.792752" lon="111.497997">
        <ele>109.095407</ele>
        <time>2026-08-18T09:43:21.000Z</time>
      </trkpt>
      <trkpt lat="22.792723" lon="111.498076">
        <ele>108.989025</ele>
        <time>2026-08-18T09:43:22.000Z</time>
      </trkpt>
      <trkpt lat="22.792693" lon="111.498156">
        <ele>108.880976</ele>
        <time>2026-08-18T09:43:23.000Z</time>
      </trkpt>
      <trkpt lat="22.792661" lon="111.498236">
        <ele>108.771875</ele>
        <time>2026-08-18T09:43:24.000Z</time>
      </trkpt>
      <trkpt lat="22.792628" lon="111.498316">
        <ele>108.662228</ele>
        <time>2026-08-18T09:43:25.000Z</time>
      </trkpt>
      <trkpt lat="22.792594" lon="111.498397">
        <ele>108.550881</ele>
        <time>2026-08-18T09:43:26.000Z</time>
      </trkpt>
      <trkpt lat="22.792557" lon="111.498478">
        <ele>108.437787</ele>
        <time>2026-08-18T09:43:27.000Z</time>
      </trkpt>
      <trkpt lat="22.792520" lon="111.498557">
        <ele>108.326929</ele>
        <time>2026-08-18T09:43:28.000Z</time>
      </trkpt>
      <trkpt lat="22.792485" lon="111.498638">
        <ele>108.215013</ele>
        <time>2026-08-18T09:43:29.000Z</time>
      </trkpt>
      <trkpt lat="22.792452" lon="111.498721">
        <ele>108.101929</ele>
        <time>2026-08-18T09:43:30.000Z</time>
      </trkpt>
      <trkpt lat="22.792418" lon="111.498803">
        <ele>107.989443</ele>
        <time>2026-08-18T09:43:31.000Z</time>
      </trkpt>
      <trkpt lat="22.792385" lon="111.498886">
        <ele>107.876358</ele>
        <time>2026-08-18T09:43:32.000Z</time>
      </trkpt>
      <trkpt lat="22.792352" lon="111.498969">
        <ele>107.763274</ele>
        <time>2026-08-18T09:43:33.000Z</time>
      </trkpt>
      <trkpt lat="22.792318" lon="111.499052">
        <ele>107.649645</ele>
        <time>2026-08-18T09:43:34.000Z</time>
      </trkpt>
      <trkpt lat="22.792284" lon="111.499135">
        <ele>107.536017</ele>
        <time>2026-08-18T09:43:35.000Z</time>
      </trkpt>
      <trkpt lat="22.792250" lon="111.499220">
        <ele>107.420097</ele>
        <time>2026-08-18T09:43:36.000Z</time>
      </trkpt>
      <trkpt lat="22.792215" lon="111.499305">
        <ele>107.303630</ele>
        <time>2026-08-18T09:43:37.000Z</time>
      </trkpt>
      <trkpt lat="22.792181" lon="111.499389">
        <ele>107.188857</ele>
        <time>2026-08-18T09:43:38.000Z</time>
      </trkpt>
      <trkpt lat="22.792150" lon="111.499476">
        <ele>107.072166</ele>
        <time>2026-08-18T09:43:39.000Z</time>
      </trkpt>
      <trkpt lat="22.792120" lon="111.499565">
        <ele>106.967196</ele>
        <time>2026-08-18T09:43:40.000Z</time>
      </trkpt>
      <trkpt lat="22.792089" lon="111.499651">
        <ele>106.879672</ele>
        <time>2026-08-18T09:43:41.000Z</time>
      </trkpt>
      <trkpt lat="22.792055" lon="111.499735">
        <ele>106.792718</ele>
        <time>2026-08-18T09:43:42.000Z</time>
      </trkpt>
      <trkpt lat="22.792022" lon="111.499819">
        <ele>106.706171</ele>
        <time>2026-08-18T09:43:43.000Z</time>
      </trkpt>
      <trkpt lat="22.791990" lon="111.499905">
        <ele>106.618267</ele>
        <time>2026-08-18T09:43:44.000Z</time>
      </trkpt>
      <trkpt lat="22.791958" lon="111.499990">
        <ele>106.531242</ele>
        <time>2026-08-18T09:43:45.000Z</time>
      </trkpt>
      <trkpt lat="22.791926" lon="111.500074">
        <ele>106.445093</ele>
        <time>2026-08-18T09:43:46.000Z</time>
      </trkpt>
      <trkpt lat="22.791896" lon="111.500158">
        <ele>106.359709</ele>
        <time>2026-08-18T09:43:47.000Z</time>
      </trkpt>
      <trkpt lat="22.791863" lon="111.500240">
        <ele>106.274903</ele>
        <time>2026-08-18T09:43:48.000Z</time>
      </trkpt>
      <trkpt lat="22.791831" lon="111.500321">
        <ele>106.191375</ele>
        <time>2026-08-18T09:43:49.000Z</time>
      </trkpt>
      <trkpt lat="22.791801" lon="111.500397">
        <ele>106.113014</ele>
        <time>2026-08-18T09:43:50.000Z</time>
      </trkpt>
      <trkpt lat="22.791774" lon="111.500464">
        <ele>106.043706</ele>
        <time>2026-08-18T09:43:51.000Z</time>
      </trkpt>
      <trkpt lat="22.791748" lon="111.500521">
        <ele>105.983427</ele>
        <time>2026-08-18T09:43:52.000Z</time>
      </trkpt>
      <trkpt lat="22.791721" lon="111.500570">
        <ele>105.929319</ele>
        <time>2026-08-18T09:43:53.000Z</time>
      </trkpt>
      <trkpt lat="22.791697" lon="111.500608">
        <ele>105.885660</ele>
        <time>2026-08-18T09:43:54.000Z</time>
      </trkpt>
      <trkpt lat="22.791679" lon="111.500639">
        <ele>105.850934</ele>
        <time>2026-08-18T09:43:55.000Z</time>
      </trkpt>
      <trkpt lat="22.791664" lon="111.500662">
        <ele>105.824230</ele>
        <time>2026-08-18T09:43:56.000Z</time>
      </trkpt>
      <trkpt lat="22.791657" lon="111.500679">
        <ele>105.806583</ele>
        <time>2026-08-18T09:43:57.000Z</time>
      </trkpt>
      <trkpt lat="22.791655" lon="111.500687">
        <ele>105.798726</ele>
        <time>2026-08-18T09:43:58.000Z</time>
      </trkpt>
      <trkpt lat="22.791653" lon="111.500693">
        <ele>105.792679</ele>
        <time>2026-08-18T09:46:06.000Z</time>
      </trkpt>
      <trkpt lat="22.791650" lon="111.500705">
        <ele>105.780894</ele>
        <time>2026-08-18T09:46:07.000Z</time>
      </trkpt>
      <trkpt lat="22.791646" lon="111.500720">
        <ele>105.766093</ele>
        <time>2026-08-18T09:46:08.000Z</time>
      </trkpt>
      <trkpt lat="22.791640" lon="111.500735">
        <ele>105.750595</ele>
        <time>2026-08-18T09:46:09.000Z</time>
      </trkpt>
      <trkpt lat="22.791634" lon="111.500754">
        <ele>105.731559</ele>
        <time>2026-08-18T09:46:10.000Z</time>
      </trkpt>
      <trkpt lat="22.791629" lon="111.500775">
        <ele>105.711001</ele>
        <time>2026-08-18T09:46:11.000Z</time>
      </trkpt>
      <trkpt lat="22.791623" lon="111.500797">
        <ele>105.689255</ele>
        <time>2026-08-18T09:46:12.000Z</time>
      </trkpt>
      <trkpt lat="22.791616" lon="111.500822">
        <ele>105.664490</ele>
        <time>2026-08-18T09:46:13.000Z</time>
      </trkpt>
      <trkpt lat="22.791611" lon="111.500847">
        <ele>105.640243</ele>
        <time>2026-08-18T09:46:14.000Z</time>
      </trkpt>
      <trkpt lat="22.791601" lon="111.500872">
        <ele>105.614412</ele>
        <time>2026-08-18T09:46:15.000Z</time>
      </trkpt>
      <trkpt lat="22.791588" lon="111.500899">
        <ele>105.585540</ele>
        <time>2026-08-18T09:46:16.000Z</time>
      </trkpt>
      <trkpt lat="22.791576" lon="111.500927">
        <ele>105.556273</ele>
        <time>2026-08-18T09:46:17.000Z</time>
      </trkpt>
      <trkpt lat="22.791563" lon="111.500958">
        <ele>105.523993</ele>
        <time>2026-08-18T09:46:18.000Z</time>
      </trkpt>
      <trkpt lat="22.791550" lon="111.500994">
        <ele>105.487346</ele>
        <time>2026-08-18T09:46:19.000Z</time>
      </trkpt>
      <trkpt lat="22.791537" lon="111.501031">
        <ele>105.449815</ele>
        <time>2026-08-18T09:46:20.000Z</time>
      </trkpt>
      <trkpt lat="22.791521" lon="111.501072">
        <ele>105.407615</ele>
        <time>2026-08-18T09:46:21.000Z</time>
      </trkpt>
      <trkpt lat="22.791505" lon="111.501113">
        <ele>105.365415</ele>
        <time>2026-08-18T09:46:22.000Z</time>
      </trkpt>
      <trkpt lat="22.791489" lon="111.501154">
        <ele>105.323215</ele>
        <time>2026-08-18T09:46:23.000Z</time>
      </trkpt>
      <trkpt lat="22.791472" lon="111.501198">
        <ele>105.277995</ele>
        <time>2026-08-18T09:46:24.000Z</time>
      </trkpt>
      <trkpt lat="22.791453" lon="111.501242">
        <ele>105.231942</ele>
        <time>2026-08-18T09:46:25.000Z</time>
      </trkpt>
      <trkpt lat="22.791435" lon="111.501288">
        <ele>105.184576</ele>
        <time>2026-08-18T09:46:26.000Z</time>
      </trkpt>
      <trkpt lat="22.791416" lon="111.501334">
        <ele>105.148335</ele>
        <time>2026-08-18T09:46:27.000Z</time>
      </trkpt>
      <trkpt lat="22.791399" lon="111.501380">
        <ele>105.124292</ele>
        <time>2026-08-18T09:46:28.000Z</time>
      </trkpt>
      <trkpt lat="22.791380" lon="111.501427">
        <ele>105.099393</ele>
        <time>2026-08-18T09:46:29.000Z</time>
      </trkpt>
      <trkpt lat="22.791360" lon="111.501475">
        <ele>105.073837</ele>
        <time>2026-08-18T09:46:30.000Z</time>
      </trkpt>
      <trkpt lat="22.791340" lon="111.501523">
        <ele>105.048282</ele>
        <time>2026-08-18T09:46:31.000Z</time>
      </trkpt>
      <trkpt lat="22.791319" lon="111.501570">
        <ele>105.022942</ele>
        <time>2026-08-18T09:46:32.000Z</time>
      </trkpt>
      <trkpt lat="22.791298" lon="111.501619">
        <ele>104.996726</ele>
        <time>2026-08-18T09:46:33.000Z</time>
      </trkpt>
      <trkpt lat="22.791277" lon="111.501667">
        <ele>104.970949</ele>
        <time>2026-08-18T09:46:34.000Z</time>
      </trkpt>
      <trkpt lat="22.791256" lon="111.501717">
        <ele>104.944292</ele>
        <time>2026-08-18T09:46:35.000Z</time>
      </trkpt>
      <trkpt lat="22.791236" lon="111.501767">
        <ele>104.917849</ele>
        <time>2026-08-18T09:46:36.000Z</time>
      </trkpt>
      <trkpt lat="22.791216" lon="111.501818">
        <ele>104.890960</ele>
        <time>2026-08-18T09:46:37.000Z</time>
      </trkpt>
      <trkpt lat="22.791194" lon="111.501870">
        <ele>104.863202</ele>
        <time>2026-08-18T09:46:38.000Z</time>
      </trkpt>
      <trkpt lat="22.791175" lon="111.501923">
        <ele>104.835613</ele>
        <time>2026-08-18T09:46:39.000Z</time>
      </trkpt>
      <trkpt lat="22.791156" lon="111.501975">
        <ele>104.808475</ele>
        <time>2026-08-18T09:46:40.000Z</time>
      </trkpt>
      <trkpt lat="22.791137" lon="111.502027">
        <ele>104.781337</ele>
        <time>2026-08-18T09:46:41.000Z</time>
      </trkpt>
      <trkpt lat="22.791116" lon="111.502079">
        <ele>104.753795</ele>
        <time>2026-08-18T09:46:42.000Z</time>
      </trkpt>
      <trkpt lat="22.791099" lon="111.502128">
        <ele>104.728394</ele>
        <time>2026-08-18T09:46:43.000Z</time>
      </trkpt>
      <trkpt lat="22.791085" lon="111.502171">
        <ele>104.706269</ele>
        <time>2026-08-18T09:46:44.000Z</time>
      </trkpt>
      <trkpt lat="22.791069" lon="111.502209">
        <ele>104.686001</ele>
        <time>2026-08-18T09:46:45.000Z</time>
      </trkpt>
      <trkpt lat="22.791053" lon="111.502245">
        <ele>104.666612</ele>
        <time>2026-08-18T09:46:46.000Z</time>
      </trkpt>
      <trkpt lat="22.791038" lon="111.502275">
        <ele>104.650054</ele>
        <time>2026-08-18T09:46:47.000Z</time>
      </trkpt>
      <trkpt lat="22.791025" lon="111.502301">
        <ele>104.635704</ele>
        <time>2026-08-18T09:46:48.000Z</time>
      </trkpt>
      <trkpt lat="22.791018" lon="111.502322">
        <ele>104.624870</ele>
        <time>2026-08-18T09:46:49.000Z</time>
      </trkpt>
      <trkpt lat="22.791016" lon="111.502339">
        <ele>104.616555</ele>
        <time>2026-08-18T09:46:50.000Z</time>
      </trkpt>
      <trkpt lat="22.791018" lon="111.502354">
        <ele>104.609202</ele>
        <time>2026-08-18T09:46:51.000Z</time>
      </trkpt>
      <trkpt lat="22.791027" lon="111.502360">
        <ele>104.603643</ele>
        <time>2026-08-18T09:46:52.000Z</time>
      </trkpt>
      <trkpt lat="22.791037" lon="111.502354">
        <ele>104.597629</ele>
        <time>2026-08-18T09:46:53.000Z</time>
      </trkpt>
      <trkpt lat="22.791041" lon="111.502339">
        <ele>104.590053</ele>
        <time>2026-08-18T09:46:54.000Z</time>
      </trkpt>
      <trkpt lat="22.791043" lon="111.502323">
        <ele>104.582220</ele>
        <time>2026-08-18T09:46:55.000Z</time>
      </trkpt>
      <trkpt lat="22.791040" lon="111.502304">
        <ele>104.572867</ele>
        <time>2026-08-18T09:46:56.000Z</time>
      </trkpt>
      <trkpt lat="22.791040" lon="111.502281">
        <ele>104.561708</ele>
        <time>2026-08-18T09:46:57.000Z</time>
      </trkpt>
      <trkpt lat="22.791044" lon="111.502259">
        <ele>104.550829</ele>
        <time>2026-08-18T09:46:58.000Z</time>
      </trkpt>
      <trkpt lat="22.791050" lon="111.502237">
        <ele>104.539698</ele>
        <time>2026-08-18T09:46:59.000Z</time>
      </trkpt>
      <trkpt lat="22.791056" lon="111.502218">
        <ele>104.529955</ele>
        <time>2026-08-18T09:47:00.000Z</time>
      </trkpt>
      <trkpt lat="22.791063" lon="111.502197">
        <ele>104.519121</ele>
        <time>2026-08-18T09:47:01.000Z</time>
      </trkpt>
      <trkpt lat="22.791071" lon="111.502176">
        <ele>104.508097</ele>
        <time>2026-08-18T09:47:02.000Z</time>
      </trkpt>
      <trkpt lat="22.791078" lon="111.502156">
        <ele>104.497718</ele>
        <time>2026-08-18T09:47:03.000Z</time>
      </trkpt>
      <trkpt lat="22.791086" lon="111.502136">
        <ele>104.487140</ele>
        <time>2026-08-18T09:47:04.000Z</time>
      </trkpt>
      <trkpt lat="22.791094" lon="111.502115">
        <ele>104.476116</ele>
        <time>2026-08-18T09:47:05.000Z</time>
      </trkpt>
      <trkpt lat="22.791104" lon="111.502095">
        <ele>104.465078</ele>
        <time>2026-08-18T09:47:06.000Z</time>
      </trkpt>
      <trkpt lat="22.791111" lon="111.502075">
        <ele>104.454699</ele>
        <time>2026-08-18T09:47:07.000Z</time>
      </trkpt>
      <trkpt lat="22.791117" lon="111.502059">
        <ele>104.446319</ele>
        <time>2026-08-18T09:47:08.000Z</time>
      </trkpt>
      <trkpt lat="22.791121" lon="111.502043">
        <ele>104.438276</ele>
        <time>2026-08-18T09:47:09.000Z</time>
      </trkpt>
      <trkpt lat="22.791125" lon="111.502033">
        <ele>104.432987</ele>
        <time>2026-08-18T09:47:10.000Z</time>
      </trkpt>
      <trkpt lat="22.791212" lon="111.501955">
        <ele>104.373588</ele>
        <time>2026-08-18T09:48:01.000Z</time>
      </trkpt>
      <trkpt lat="22.791208" lon="111.501975">
        <ele>104.363659</ele>
        <time>2026-08-18T09:48:02.000Z</time>
      </trkpt>
      <trkpt lat="22.791195" lon="111.501997">
        <ele>104.350981</ele>
        <time>2026-08-18T09:48:03.000Z</time>
      </trkpt>
      <trkpt lat="22.791179" lon="111.502023">
        <ele>104.335815</ele>
        <time>2026-08-18T09:48:04.000Z</time>
      </trkpt>
      <trkpt lat="22.791164" lon="111.502051">
        <ele>104.320104</ele>
        <time>2026-08-18T09:48:05.000Z</time>
      </trkpt>
      <trkpt lat="22.791148" lon="111.502079">
        <ele>104.304121</ele>
        <time>2026-08-18T09:48:06.000Z</time>
      </trkpt>
      <trkpt lat="22.791131" lon="111.502110">
        <ele>104.286621</ele>
        <time>2026-08-18T09:48:07.000Z</time>
      </trkpt>
      <trkpt lat="22.791115" lon="111.502142">
        <ele>104.268960</ele>
        <time>2026-08-18T09:48:08.000Z</time>
      </trkpt>
      <trkpt lat="22.791101" lon="111.502177">
        <ele>104.250450</ele>
        <time>2026-08-18T09:48:09.000Z</time>
      </trkpt>
      <trkpt lat="22.791086" lon="111.502213">
        <ele>104.231283</ele>
        <time>2026-08-18T09:48:10.000Z</time>
      </trkpt>
      <trkpt lat="22.791071" lon="111.502250">
        <ele>104.212346</ele>
        <time>2026-08-18T09:48:11.000Z</time>
      </trkpt>
      <trkpt lat="22.791056" lon="111.502287">
        <ele>104.198674</ele>
        <time>2026-08-18T09:48:12.000Z</time>
      </trkpt>
      <trkpt lat="22.791041" lon="111.502326">
        <ele>104.184382</ele>
        <time>2026-08-18T09:48:13.000Z</time>
      </trkpt>
      <trkpt lat="22.791026" lon="111.502366">
        <ele>104.169776</ele>
        <time>2026-08-18T09:48:14.000Z</time>
      </trkpt>
      <trkpt lat="22.791012" lon="111.502407">
        <ele>104.154988</ele>
        <time>2026-08-18T09:48:15.000Z</time>
      </trkpt>
      <trkpt lat="22.790997" lon="111.502449">
        <ele>104.139753</ele>
        <time>2026-08-18T09:48:16.000Z</time>
      </trkpt>
      <trkpt lat="22.790983" lon="111.502490">
        <ele>104.124965</ele>
        <time>2026-08-18T09:48:17.000Z</time>
      </trkpt>
      <trkpt lat="22.790966" lon="111.502531">
        <ele>104.109760</ele>
        <time>2026-08-18T09:48:18.000Z</time>
      </trkpt>
      <trkpt lat="22.790947" lon="111.502572">
        <ele>104.094239</ele>
        <time>2026-08-18T09:48:19.000Z</time>
      </trkpt>
      <trkpt lat="22.790927" lon="111.502614">
        <ele>104.078250</ele>
        <time>2026-08-18T09:48:20.000Z</time>
      </trkpt>
      <trkpt lat="22.790909" lon="111.502656">
        <ele>104.062584</ele>
        <time>2026-08-18T09:48:21.000Z</time>
      </trkpt>
      <trkpt lat="22.790890" lon="111.502698">
        <ele>104.046761</ele>
        <time>2026-08-18T09:48:22.000Z</time>
      </trkpt>
      <trkpt lat="22.790870" lon="111.502742">
        <ele>104.030168</ele>
        <time>2026-08-18T09:48:23.000Z</time>
      </trkpt>
      <trkpt lat="22.790852" lon="111.502784">
        <ele>104.014502</ele>
        <time>2026-08-18T09:48:24.000Z</time>
      </trkpt>
      <trkpt lat="22.790835" lon="111.502827">
        <ele>103.998677</ele>
        <time>2026-08-18T09:48:25.000Z</time>
      </trkpt>
      <trkpt lat="22.790819" lon="111.502869">
        <ele>103.983307</ele>
        <time>2026-08-18T09:48:26.000Z</time>
      </trkpt>
      <trkpt lat="22.790804" lon="111.502911">
        <ele>103.968072</ele>
        <time>2026-08-18T09:48:27.000Z</time>
      </trkpt>
      <trkpt lat="22.790788" lon="111.502954">
        <ele>103.952388</ele>
        <time>2026-08-18T09:48:28.000Z</time>
      </trkpt>
      <trkpt lat="22.790772" lon="111.502997">
        <ele>103.936704</ele>
        <time>2026-08-18T09:48:29.000Z</time>
      </trkpt>
      <trkpt lat="22.790755" lon="111.503041">
        <ele>103.920568</ele>
        <time>2026-08-18T09:48:30.000Z</time>
      </trkpt>
      <trkpt lat="22.790736" lon="111.503084">
        <ele>103.904440</ele>
        <time>2026-08-18T09:48:31.000Z</time>
      </trkpt>
      <trkpt lat="22.790717" lon="111.503127">
        <ele>103.888312</ele>
        <time>2026-08-18T09:48:32.000Z</time>
      </trkpt>
      <trkpt lat="22.790698" lon="111.503170">
        <ele>103.872184</ele>
        <time>2026-08-18T09:48:33.000Z</time>
      </trkpt>
      <trkpt lat="22.790679" lon="111.503211">
        <ele>103.856663</ele>
        <time>2026-08-18T09:48:34.000Z</time>
      </trkpt>
      <trkpt lat="22.790658" lon="111.503252">
        <ele>103.840799</ele>
        <time>2026-08-18T09:48:35.000Z</time>
      </trkpt>
      <trkpt lat="22.790640" lon="111.503298">
        <ele>103.823897</ele>
        <time>2026-08-18T09:48:36.000Z</time>
      </trkpt>
      <trkpt lat="22.790622" lon="111.503345">
        <ele>103.806683</ele>
        <time>2026-08-18T09:48:37.000Z</time>
      </trkpt>
      <trkpt lat="22.790603" lon="111.503391">
        <ele>103.789634</ele>
        <time>2026-08-18T09:48:38.000Z</time>
      </trkpt>
      <trkpt lat="22.790584" lon="111.503436">
        <ele>103.772893</ele>
        <time>2026-08-18T09:48:39.000Z</time>
      </trkpt>
      <trkpt lat="22.790566" lon="111.503483">
        <ele>103.755679</ele>
        <time>2026-08-18T09:48:40.000Z</time>
      </trkpt>
      <trkpt lat="22.790547" lon="111.503528">
        <ele>103.738938</ele>
        <time>2026-08-18T09:48:41.000Z</time>
      </trkpt>
      <trkpt lat="22.790529" lon="111.503574">
        <ele>103.722036</ele>
        <time>2026-08-18T09:48:42.000Z</time>
      </trkpt>
      <trkpt lat="22.790511" lon="111.503620">
        <ele>103.705134</ele>
        <time>2026-08-18T09:48:43.000Z</time>
      </trkpt>
      <trkpt lat="22.790490" lon="111.503666">
        <ele>103.687772</ele>
        <time>2026-08-18T09:48:44.000Z</time>
      </trkpt>
      <trkpt lat="22.790471" lon="111.503713">
        <ele>103.670414</ele>
        <time>2026-08-18T09:48:45.000Z</time>
      </trkpt>
      <trkpt lat="22.790452" lon="111.503760">
        <ele>103.653056</ele>
        <time>2026-08-18T09:48:46.000Z</time>
      </trkpt>
      <trkpt lat="22.790433" lon="111.503807">
        <ele>103.635698</ele>
        <time>2026-08-18T09:48:47.000Z</time>
      </trkpt>
      <trkpt lat="22.790414" lon="111.503855">
        <ele>103.618030</ele>
        <time>2026-08-18T09:48:48.000Z</time>
      </trkpt>
      <trkpt lat="22.790395" lon="111.503903">
        <ele>103.600361</ele>
        <time>2026-08-18T09:48:49.000Z</time>
      </trkpt>
      <trkpt lat="22.790377" lon="111.503950">
        <ele>103.583147</ele>
        <time>2026-08-18T09:48:50.000Z</time>
      </trkpt>
      <trkpt lat="22.790359" lon="111.503998">
        <ele>103.565620</ele>
        <time>2026-08-18T09:48:51.000Z</time>
      </trkpt>
      <trkpt lat="22.790340" lon="111.504045">
        <ele>103.554466</ele>
        <time>2026-08-18T09:48:52.000Z</time>
      </trkpt>
      <trkpt lat="22.790322" lon="111.504092">
        <ele>103.555815</ele>
        <time>2026-08-18T09:48:53.000Z</time>
      </trkpt>
      <trkpt lat="22.790303" lon="111.504139">
        <ele>103.557175</ele>
        <time>2026-08-18T09:48:54.000Z</time>
      </trkpt>
      <trkpt lat="22.790285" lon="111.504186">
        <ele>103.558524</ele>
        <time>2026-08-18T09:48:55.000Z</time>
      </trkpt>
      <trkpt lat="22.790265" lon="111.504233">
        <ele>103.559896</ele>
        <time>2026-08-18T09:48:56.000Z</time>
      </trkpt>
      <trkpt lat="22.790245" lon="111.504279">
        <ele>103.561245</ele>
        <time>2026-08-18T09:48:57.000Z</time>
      </trkpt>
      <trkpt lat="22.790226" lon="111.504326">
        <ele>103.562605</ele>
        <time>2026-08-18T09:48:58.000Z</time>
      </trkpt>
      <trkpt lat="22.790208" lon="111.504375">
        <ele>103.564003</ele>
        <time>2026-08-18T09:48:59.000Z</time>
      </trkpt>
      <trkpt lat="22.790188" lon="111.504422">
        <ele>103.565375</ele>
        <time>2026-08-18T09:49:00.000Z</time>
      </trkpt>
      <trkpt lat="22.790168" lon="111.504467">
        <ele>103.566699</ele>
        <time>2026-08-18T09:49:01.000Z</time>
      </trkpt>
      <trkpt lat="22.790149" lon="111.504513">
        <ele>103.568035</ele>
        <time>2026-08-18T09:49:02.000Z</time>
      </trkpt>
      <trkpt lat="22.790130" lon="111.504560">
        <ele>103.569396</ele>
        <time>2026-08-18T09:49:03.000Z</time>
      </trkpt>
      <trkpt lat="22.790112" lon="111.504606">
        <ele>103.570720</ele>
        <time>2026-08-18T09:49:04.000Z</time>
      </trkpt>
      <trkpt lat="22.790094" lon="111.504653">
        <ele>103.572069</ele>
        <time>2026-08-18T09:49:05.000Z</time>
      </trkpt>
      <trkpt lat="22.790076" lon="111.504700">
        <ele>103.573418</ele>
        <time>2026-08-18T09:49:06.000Z</time>
      </trkpt>
      <trkpt lat="22.790059" lon="111.504747">
        <ele>103.574756</ele>
        <time>2026-08-18T09:49:07.000Z</time>
      </trkpt>
      <trkpt lat="22.790041" lon="111.504795">
        <ele>103.576130</ele>
        <time>2026-08-18T09:49:08.000Z</time>
      </trkpt>
      <trkpt lat="22.790023" lon="111.504842">
        <ele>103.577479</ele>
        <time>2026-08-18T09:49:09.000Z</time>
      </trkpt>
      <trkpt lat="22.790005" lon="111.504889">
        <ele>103.578828</ele>
        <time>2026-08-18T09:49:10.000Z</time>
      </trkpt>
      <trkpt lat="22.789988" lon="111.504937">
        <ele>103.580191</ele>
        <time>2026-08-18T09:49:11.000Z</time>
      </trkpt>
      <trkpt lat="22.789970" lon="111.504982">
        <ele>103.581491</ele>
        <time>2026-08-18T09:49:12.000Z</time>
      </trkpt>
      <trkpt lat="22.789952" lon="111.505030">
        <ele>103.582865</ele>
        <time>2026-08-18T09:49:13.000Z</time>
      </trkpt>
      <trkpt lat="22.789933" lon="111.505078">
        <ele>103.584249</ele>
        <time>2026-08-18T09:49:14.000Z</time>
      </trkpt>
      <trkpt lat="22.789914" lon="111.505125">
        <ele>103.585610</ele>
        <time>2026-08-18T09:49:15.000Z</time>
      </trkpt>
      <trkpt lat="22.789896" lon="111.505172">
        <ele>103.586959</ele>
        <time>2026-08-18T09:49:16.000Z</time>
      </trkpt>
      <trkpt lat="22.789877" lon="111.505219">
        <ele>103.588319</ele>
        <time>2026-08-18T09:49:17.000Z</time>
      </trkpt>
      <trkpt lat="22.789857" lon="111.505265">
        <ele>103.589667</ele>
        <time>2026-08-18T09:49:18.000Z</time>
      </trkpt>
      <trkpt lat="22.789836" lon="111.505311">
        <ele>103.591028</ele>
        <time>2026-08-18T09:49:19.000Z</time>
      </trkpt>
      <trkpt lat="22.789816" lon="111.505358">
        <ele>103.592400</ele>
        <time>2026-08-18T09:49:20.000Z</time>
      </trkpt>
      <trkpt lat="22.789797" lon="111.505406">
        <ele>103.593784</ele>
        <time>2026-08-18T09:49:21.000Z</time>
      </trkpt>
      <trkpt lat="22.789777" lon="111.505454">
        <ele>103.595181</ele>
        <time>2026-08-18T09:49:22.000Z</time>
      </trkpt>
      <trkpt lat="22.789758" lon="111.505504">
        <ele>103.596614</ele>
        <time>2026-08-18T09:49:23.000Z</time>
      </trkpt>
      <trkpt lat="22.789741" lon="111.505554">
        <ele>103.598027</ele>
        <time>2026-08-18T09:49:24.000Z</time>
      </trkpt>
      <trkpt lat="22.789723" lon="111.505604">
        <ele>103.599449</ele>
        <time>2026-08-18T09:49:25.000Z</time>
      </trkpt>
      <trkpt lat="22.789705" lon="111.505652">
        <ele>103.600823</ele>
        <time>2026-08-18T09:49:26.000Z</time>
      </trkpt>
      <trkpt lat="22.789689" lon="111.505703">
        <ele>103.602251</ele>
        <time>2026-08-18T09:49:27.000Z</time>
      </trkpt>
      <trkpt lat="22.789675" lon="111.505753">
        <ele>103.603636</ele>
        <time>2026-08-18T09:49:28.000Z</time>
      </trkpt>
      <trkpt lat="22.789659" lon="111.505803">
        <ele>103.605039</ele>
        <time>2026-08-18T09:49:29.000Z</time>
      </trkpt>
      <trkpt lat="22.789643" lon="111.505849">
        <ele>103.619099</ele>
        <time>2026-08-18T09:49:30.000Z</time>
      </trkpt>
      <trkpt lat="22.789626" lon="111.505896">
        <ele>103.648233</ele>
        <time>2026-08-18T09:49:31.000Z</time>
      </trkpt>
      <trkpt lat="22.789607" lon="111.505946">
        <ele>103.679440</ele>
        <time>2026-08-18T09:49:32.000Z</time>
      </trkpt>
      <trkpt lat="22.789589" lon="111.505995">
        <ele>103.709878</ele>
        <time>2026-08-18T09:49:33.000Z</time>
      </trkpt>
      <trkpt lat="22.789573" lon="111.506046">
        <ele>103.740965</ele>
        <time>2026-08-18T09:49:34.000Z</time>
      </trkpt>
      <trkpt lat="22.789556" lon="111.506097">
        <ele>103.772259</ele>
        <time>2026-08-18T09:49:35.000Z</time>
      </trkpt>
      <trkpt lat="22.789537" lon="111.506146">
        <ele>103.802934</ele>
        <time>2026-08-18T09:49:36.000Z</time>
      </trkpt>
      <trkpt lat="22.789519" lon="111.506196">
        <ele>103.833908</ele>
        <time>2026-08-18T09:49:37.000Z</time>
      </trkpt>
      <trkpt lat="22.789502" lon="111.506246">
        <ele>103.864660</ele>
        <time>2026-08-18T09:49:38.000Z</time>
      </trkpt>
      <trkpt lat="22.789484" lon="111.506298">
        <ele>103.896713</ele>
        <time>2026-08-18T09:49:39.000Z</time>
      </trkpt>
      <trkpt lat="22.789466" lon="111.506349">
        <ele>103.928225</ele>
        <time>2026-08-18T09:49:40.000Z</time>
      </trkpt>
      <trkpt lat="22.789450" lon="111.506401">
        <ele>103.959859</ele>
        <time>2026-08-18T09:49:41.000Z</time>
      </trkpt>
      <trkpt lat="22.789432" lon="111.506452">
        <ele>103.991372</ele>
        <time>2026-08-18T09:49:42.000Z</time>
      </trkpt>
      <trkpt lat="22.789413" lon="111.506504">
        <ele>104.023649</ele>
        <time>2026-08-18T09:49:43.000Z</time>
      </trkpt>
      <trkpt lat="22.789395" lon="111.506556">
        <ele>104.055701</ele>
        <time>2026-08-18T09:49:44.000Z</time>
      </trkpt>
      <trkpt lat="22.789377" lon="111.506607">
        <ele>104.087214</ele>
        <time>2026-08-18T09:49:45.000Z</time>
      </trkpt>
      <trkpt lat="22.789362" lon="111.506657">
        <ele>104.117556</ele>
        <time>2026-08-18T09:49:46.000Z</time>
      </trkpt>
      <trkpt lat="22.789349" lon="111.506708">
        <ele>104.148090</ele>
        <time>2026-08-18T09:49:47.000Z</time>
      </trkpt>
      <trkpt lat="22.789334" lon="111.506756">
        <ele>104.177336</ele>
        <time>2026-08-18T09:49:48.000Z</time>
      </trkpt>
      <trkpt lat="22.789319" lon="111.506805">
        <ele>104.207130</ele>
        <time>2026-08-18T09:49:49.000Z</time>
      </trkpt>
      <trkpt lat="22.789305" lon="111.506854">
        <ele>104.236733</ele>
        <time>2026-08-18T09:49:50.000Z</time>
      </trkpt>
      <trkpt lat="22.789293" lon="111.506901">
        <ele>104.264875</ele>
        <time>2026-08-18T09:49:51.000Z</time>
      </trkpt>
      <trkpt lat="22.789280" lon="111.506951">
        <ele>104.294853</ele>
        <time>2026-08-18T09:49:52.000Z</time>
      </trkpt>
      <trkpt lat="22.789264" lon="111.507001">
        <ele>104.325394</ele>
        <time>2026-08-18T09:49:53.000Z</time>
      </trkpt>
      <trkpt lat="22.789249" lon="111.507052">
        <ele>104.356286</ele>
        <time>2026-08-18T09:49:54.000Z</time>
      </trkpt>
      <trkpt lat="22.789234" lon="111.507103">
        <ele>104.387177</ele>
        <time>2026-08-18T09:49:55.000Z</time>
      </trkpt>
      <trkpt lat="22.789221" lon="111.507153">
        <ele>104.417155</ele>
        <time>2026-08-18T09:49:56.000Z</time>
      </trkpt>
      <trkpt lat="22.789207" lon="111.507203">
        <ele>104.447309</ele>
        <time>2026-08-18T09:49:57.000Z</time>
      </trkpt>
      <trkpt lat="22.789192" lon="111.507253">
        <ele>104.477651</ele>
        <time>2026-08-18T09:49:58.000Z</time>
      </trkpt>
      <trkpt lat="22.789179" lon="111.507303">
        <ele>104.507629</ele>
        <time>2026-08-18T09:49:59.000Z</time>
      </trkpt>
      <trkpt lat="22.789162" lon="111.507354">
        <ele>104.538923</ele>
        <time>2026-08-18T09:50:00.000Z</time>
      </trkpt>
      <trkpt lat="22.789146" lon="111.507404">
        <ele>104.569465</ele>
        <time>2026-08-18T09:50:01.000Z</time>
      </trkpt>
      <trkpt lat="22.789131" lon="111.507455">
        <ele>104.600356</ele>
        <time>2026-08-18T09:50:02.000Z</time>
      </trkpt>
      <trkpt lat="22.789117" lon="111.507506">
        <ele>104.631063</ele>
        <time>2026-08-18T09:50:03.000Z</time>
      </trkpt>
      <trkpt lat="22.789103" lon="111.507556">
        <ele>104.661217</ele>
        <time>2026-08-18T09:50:04.000Z</time>
      </trkpt>
      <trkpt lat="22.789088" lon="111.507607">
        <ele>104.692108</ele>
        <time>2026-08-18T09:50:05.000Z</time>
      </trkpt>
      <trkpt lat="22.789073" lon="111.507657">
        <ele>104.722450</ele>
        <time>2026-08-18T09:50:06.000Z</time>
      </trkpt>
      <trkpt lat="22.789057" lon="111.507709">
        <ele>104.750203</ele>
        <time>2026-08-18T09:50:07.000Z</time>
      </trkpt>
      <trkpt lat="22.789043" lon="111.507760">
        <ele>104.775627</ele>
        <time>2026-08-18T09:50:08.000Z</time>
      </trkpt>
      <trkpt lat="22.789028" lon="111.507812">
        <ele>104.801659</ele>
        <time>2026-08-18T09:50:09.000Z</time>
      </trkpt>
      <trkpt lat="22.789013" lon="111.507864">
        <ele>104.827692</ele>
        <time>2026-08-18T09:50:10.000Z</time>
      </trkpt>
      <trkpt lat="22.788999" lon="111.507916">
        <ele>104.853574</ele>
        <time>2026-08-18T09:50:11.000Z</time>
      </trkpt>
      <trkpt lat="22.788985" lon="111.507967">
        <ele>104.878998</ele>
        <time>2026-08-18T09:50:12.000Z</time>
      </trkpt>
      <trkpt lat="22.788969" lon="111.508019">
        <ele>104.905189</ele>
        <time>2026-08-18T09:50:13.000Z</time>
      </trkpt>
      <trkpt lat="22.788955" lon="111.508072">
        <ele>104.931530</ele>
        <time>2026-08-18T09:50:14.000Z</time>
      </trkpt>
      <trkpt lat="22.788941" lon="111.508123">
        <ele>104.956954</ele>
        <time>2026-08-18T09:50:15.000Z</time>
      </trkpt>
      <trkpt lat="22.788926" lon="111.508174">
        <ele>104.982531</ele>
        <time>2026-08-18T09:50:16.000Z</time>
      </trkpt>
      <trkpt lat="22.788914" lon="111.508225">
        <ele>105.007679</ele>
        <time>2026-08-18T09:50:17.000Z</time>
      </trkpt>
      <trkpt lat="22.788900" lon="111.508277">
        <ele>105.033561</ele>
        <time>2026-08-18T09:50:18.000Z</time>
      </trkpt>
      <trkpt lat="22.788885" lon="111.508329">
        <ele>105.059593</ele>
        <time>2026-08-18T09:50:19.000Z</time>
      </trkpt>
      <trkpt lat="22.788870" lon="111.508380">
        <ele>105.085170</ele>
        <time>2026-08-18T09:50:20.000Z</time>
      </trkpt>
      <trkpt lat="22.788857" lon="111.508431">
        <ele>105.110451</ele>
        <time>2026-08-18T09:50:21.000Z</time>
      </trkpt>
      <trkpt lat="22.788844" lon="111.508481">
        <ele>105.135271</ele>
        <time>2026-08-18T09:50:22.000Z</time>
      </trkpt>
      <trkpt lat="22.788832" lon="111.508533">
        <ele>105.160882</ele>
        <time>2026-08-18T09:50:23.000Z</time>
      </trkpt>
      <trkpt lat="22.788820" lon="111.508584">
        <ele>105.186030</ele>
        <time>2026-08-18T09:50:24.000Z</time>
      </trkpt>
      <trkpt lat="22.788808" lon="111.508636">
        <ele>105.211641</ele>
        <time>2026-08-18T09:50:25.000Z</time>
      </trkpt>
      <trkpt lat="22.788795" lon="111.508689">
        <ele>105.237844</ele>
        <time>2026-08-18T09:50:26.000Z</time>
      </trkpt>
      <trkpt lat="22.788783" lon="111.508743">
        <ele>105.264383</ele>
        <time>2026-08-18T09:50:27.000Z</time>
      </trkpt>
      <trkpt lat="22.788769" lon="111.508797">
        <ele>105.291184</ele>
        <time>2026-08-18T09:50:28.000Z</time>
      </trkpt>
      <trkpt lat="22.788756" lon="111.508852">
        <ele>105.318312</ele>
        <time>2026-08-18T09:50:29.000Z</time>
      </trkpt>
      <trkpt lat="22.788745" lon="111.508906">
        <ele>105.344734</ele>
        <time>2026-08-18T09:50:30.000Z</time>
      </trkpt>
      <trkpt lat="22.788735" lon="111.508960">
        <ele>105.371050</ele>
        <time>2026-08-18T09:50:31.000Z</time>
      </trkpt>
      <trkpt lat="22.788725" lon="111.509014">
        <ele>105.397365</ele>
        <time>2026-08-18T09:50:32.000Z</time>
      </trkpt>
      <trkpt lat="22.788716" lon="111.509069">
        <ele>105.424054</ele>
        <time>2026-08-18T09:50:33.000Z</time>
      </trkpt>
      <trkpt lat="22.788707" lon="111.509123">
        <ele>105.450272</ele>
        <time>2026-08-18T09:50:34.000Z</time>
      </trkpt>
      <trkpt lat="22.788700" lon="111.509177">
        <ele>105.476326</ele>
        <time>2026-08-18T09:50:35.000Z</time>
      </trkpt>
      <trkpt lat="22.788693" lon="111.509231">
        <ele>105.502380</ele>
        <time>2026-08-18T09:50:36.000Z</time>
      </trkpt>
      <trkpt lat="22.788688" lon="111.509285">
        <ele>105.528310</ele>
        <time>2026-08-18T09:50:37.000Z</time>
      </trkpt>
      <trkpt lat="22.788683" lon="111.509340">
        <ele>105.554715</ele>
        <time>2026-08-18T09:50:38.000Z</time>
      </trkpt>
      <trkpt lat="22.788678" lon="111.509394">
        <ele>105.580645</ele>
        <time>2026-08-18T09:50:39.000Z</time>
      </trkpt>
      <trkpt lat="22.788674" lon="111.509447">
        <ele>105.606052</ele>
        <time>2026-08-18T09:50:40.000Z</time>
      </trkpt>
      <trkpt lat="22.788669" lon="111.509501">
        <ele>105.631982</ele>
        <time>2026-08-18T09:50:41.000Z</time>
      </trkpt>
      <trkpt lat="22.788664" lon="111.509554">
        <ele>105.657436</ele>
        <time>2026-08-18T09:50:42.000Z</time>
      </trkpt>
      <trkpt lat="22.788660" lon="111.509608">
        <ele>105.660025</ele>
        <time>2026-08-18T09:50:43.000Z</time>
      </trkpt>
      <trkpt lat="22.788657" lon="111.509662">
        <ele>105.655270</ele>
        <time>2026-08-18T09:50:44.000Z</time>
      </trkpt>
      <trkpt lat="22.788655" lon="111.509715">
        <ele>105.650607</ele>
        <time>2026-08-18T09:50:45.000Z</time>
      </trkpt>
      <trkpt lat="22.788654" lon="111.509769">
        <ele>105.645860</ele>
        <time>2026-08-18T09:50:46.000Z</time>
      </trkpt>
      <trkpt lat="22.788653" lon="111.509823">
        <ele>105.641112</ele>
        <time>2026-08-18T09:50:47.000Z</time>
      </trkpt>
      <trkpt lat="22.788653" lon="111.509878">
        <ele>105.636278</ele>
        <time>2026-08-18T09:50:48.000Z</time>
      </trkpt>
      <trkpt lat="22.788654" lon="111.509935">
        <ele>105.631267</ele>
        <time>2026-08-18T09:50:49.000Z</time>
      </trkpt>
      <trkpt lat="22.788656" lon="111.509991">
        <ele>105.626341</ele>
        <time>2026-08-18T09:50:50.000Z</time>
      </trkpt>
      <trkpt lat="22.788660" lon="111.510046">
        <ele>105.621491</ele>
        <time>2026-08-18T09:50:51.000Z</time>
      </trkpt>
      <trkpt lat="22.788665" lon="111.510101">
        <ele>105.616633</ele>
        <time>2026-08-18T09:50:52.000Z</time>
      </trkpt>
      <trkpt lat="22.788670" lon="111.510155">
        <ele>105.611863</ele>
        <time>2026-08-18T09:50:53.000Z</time>
      </trkpt>
      <trkpt lat="22.788675" lon="111.510210">
        <ele>105.607005</ele>
        <time>2026-08-18T09:50:54.000Z</time>
      </trkpt>
      <trkpt lat="22.788683" lon="111.510261">
        <ele>105.602458</ele>
        <time>2026-08-18T09:50:55.000Z</time>
      </trkpt>
      <trkpt lat="22.788693" lon="111.510314">
        <ele>105.597703</ele>
        <time>2026-08-18T09:50:56.000Z</time>
      </trkpt>
      <trkpt lat="22.788703" lon="111.510366">
        <ele>105.593034</ele>
        <time>2026-08-18T09:50:57.000Z</time>
      </trkpt>
      <trkpt lat="22.788715" lon="111.510421">
        <ele>105.588066</ele>
        <time>2026-08-18T09:50:58.000Z</time>
      </trkpt>
      <trkpt lat="22.788716" lon="111.510473">
        <ele>105.583494</ele>
        <time>2026-08-18T09:50:59.000Z</time>
      </trkpt>
      <trkpt lat="22.788721" lon="111.510524">
        <ele>105.578986</ele>
        <time>2026-08-18T09:51:00.000Z</time>
      </trkpt>
      <trkpt lat="22.788728" lon="111.510574">
        <ele>105.574540</ele>
        <time>2026-08-18T09:51:01.000Z</time>
      </trkpt>
      <trkpt lat="22.788735" lon="111.510623">
        <ele>105.570182</ele>
        <time>2026-08-18T09:51:02.000Z</time>
      </trkpt>
      <trkpt lat="22.788743" lon="111.510675">
        <ele>105.565548</ele>
        <time>2026-08-18T09:51:03.000Z</time>
      </trkpt>
      <trkpt lat="22.788751" lon="111.510726">
        <ele>105.561001</ele>
        <time>2026-08-18T09:51:04.000Z</time>
      </trkpt>
      <trkpt lat="22.788759" lon="111.510779">
        <ele>105.556280</ele>
        <time>2026-08-18T09:51:05.000Z</time>
      </trkpt>
      <trkpt lat="22.788767" lon="111.510831">
        <ele>105.551646</ele>
        <time>2026-08-18T09:51:06.000Z</time>
      </trkpt>
      <trkpt lat="22.788775" lon="111.510883">
        <ele>105.547012</ele>
        <time>2026-08-18T09:51:07.000Z</time>
      </trkpt>
      <trkpt lat="22.788783" lon="111.510934">
        <ele>105.542465</ele>
        <time>2026-08-18T09:51:08.000Z</time>
      </trkpt>
      <trkpt lat="22.788793" lon="111.510985">
        <ele>105.537882</ele>
        <time>2026-08-18T09:51:09.000Z</time>
      </trkpt>
      <trkpt lat="22.788800" lon="111.511035">
        <ele>105.533436</ele>
        <time>2026-08-18T09:51:10.000Z</time>
      </trkpt>
      <trkpt lat="22.788806" lon="111.511082">
        <ele>105.529266</ele>
        <time>2026-08-18T09:51:11.000Z</time>
      </trkpt>
      <trkpt lat="22.788814" lon="111.511123">
        <ele>105.525582</ele>
        <time>2026-08-18T09:51:12.000Z</time>
      </trkpt>
      <trkpt lat="22.788823" lon="111.511171">
        <ele>105.521277</ele>
        <time>2026-08-18T09:51:13.000Z</time>
      </trkpt>
      <trkpt lat="22.788829" lon="111.511221">
        <ele>105.516845</ele>
        <time>2026-08-18T09:51:14.000Z</time>
      </trkpt>
      <trkpt lat="22.788833" lon="111.511272">
        <ele>105.512346</ele>
        <time>2026-08-18T09:51:15.000Z</time>
      </trkpt>
      <trkpt lat="22.788835" lon="111.511322">
        <ele>105.507946</ele>
        <time>2026-08-18T09:51:16.000Z</time>
      </trkpt>
      <trkpt lat="22.788837" lon="111.511374">
        <ele>105.503372</ele>
        <time>2026-08-18T09:51:17.000Z</time>
      </trkpt>
      <trkpt lat="22.788836" lon="111.511426">
        <ele>105.498800</ele>
        <time>2026-08-18T09:51:18.000Z</time>
      </trkpt>
      <trkpt lat="22.788834" lon="111.511479">
        <ele>105.494137</ele>
        <time>2026-08-18T09:51:19.000Z</time>
      </trkpt>
      <trkpt lat="22.788833" lon="111.511532">
        <ele>105.457843</ele>
        <time>2026-08-18T09:51:20.000Z</time>
      </trkpt>
      <trkpt lat="22.788830" lon="111.511583">
        <ele>105.400366</ele>
        <time>2026-08-18T09:51:21.000Z</time>
      </trkpt>
      <trkpt lat="22.788830" lon="111.511634">
        <ele>105.343005</ele>
        <time>2026-08-18T09:51:22.000Z</time>
      </trkpt>
      <trkpt lat="22.788830" lon="111.511688">
        <ele>105.282270</ele>
        <time>2026-08-18T09:51:23.000Z</time>
      </trkpt>
      <trkpt lat="22.788827" lon="111.511739">
        <ele>105.224793</ele>
        <time>2026-08-18T09:51:24.000Z</time>
      </trkpt>
      <trkpt lat="22.788823" lon="111.511789">
        <ele>105.168345</ele>
        <time>2026-08-18T09:51:25.000Z</time>
      </trkpt>
      <trkpt lat="22.788817" lon="111.511841">
        <ele>105.109404</ele>
        <time>2026-08-18T09:51:26.000Z</time>
      </trkpt>
      <trkpt lat="22.788811" lon="111.511894">
        <ele>105.049346</ele>
        <time>2026-08-18T09:51:27.000Z</time>
      </trkpt>
      <trkpt lat="22.788803" lon="111.511945">
        <ele>104.991160</ele>
        <time>2026-08-18T09:51:28.000Z</time>
      </trkpt>
      <trkpt lat="22.788793" lon="111.511998">
        <ele>104.930315</ele>
        <time>2026-08-18T09:51:29.000Z</time>
      </trkpt>
      <trkpt lat="22.788782" lon="111.512051">
        <ele>104.869213</ele>
        <time>2026-08-18T09:51:30.000Z</time>
      </trkpt>
      <trkpt lat="22.788771" lon="111.512102">
        <ele>104.810303</ele>
        <time>2026-08-18T09:51:31.000Z</time>
      </trkpt>
      <trkpt lat="22.788761" lon="111.512153">
        <ele>104.751659</ele>
        <time>2026-08-18T09:51:32.000Z</time>
      </trkpt>
      <trkpt lat="22.788749" lon="111.512206">
        <ele>104.690278</ele>
        <time>2026-08-18T09:51:33.000Z</time>
      </trkpt>
      <trkpt lat="22.788736" lon="111.512260">
        <ele>104.627506</ele>
        <time>2026-08-18T09:51:34.000Z</time>
      </trkpt>
      <trkpt lat="22.788722" lon="111.512315">
        <ele>104.563332</ele>
        <time>2026-08-18T09:51:35.000Z</time>
      </trkpt>
      <trkpt lat="22.788706" lon="111.512371">
        <ele>104.497392</ele>
        <time>2026-08-18T09:51:36.000Z</time>
      </trkpt>
      <trkpt lat="22.788688" lon="111.512428">
        <ele>104.429627</ele>
        <time>2026-08-18T09:51:37.000Z</time>
      </trkpt>
      <trkpt lat="22.788667" lon="111.512484">
        <ele>104.361631</ele>
        <time>2026-08-18T09:51:38.000Z</time>
      </trkpt>
      <trkpt lat="22.788643" lon="111.512538">
        <ele>104.294207</ele>
        <time>2026-08-18T09:51:39.000Z</time>
      </trkpt>
      <trkpt lat="22.788616" lon="111.512593">
        <ele>104.224124</ele>
        <time>2026-08-18T09:51:40.000Z</time>
      </trkpt>
      <trkpt lat="22.788590" lon="111.512646">
        <ele>104.156601</ele>
        <time>2026-08-18T09:51:41.000Z</time>
      </trkpt>
      <trkpt lat="22.788562" lon="111.512702">
        <ele>104.084950</ele>
        <time>2026-08-18T09:51:42.000Z</time>
      </trkpt>
      <trkpt lat="22.788535" lon="111.512756">
        <ele>104.015858</ele>
        <time>2026-08-18T09:51:43.000Z</time>
      </trkpt>
      <trkpt lat="22.788511" lon="111.512816">
        <ele>103.942296</ele>
        <time>2026-08-18T09:51:44.000Z</time>
      </trkpt>
      <trkpt lat="22.788485" lon="111.512876">
        <ele>103.867730</ele>
        <time>2026-08-18T09:51:45.000Z</time>
      </trkpt>
      <trkpt lat="22.788457" lon="111.512936">
        <ele>103.792094</ele>
        <time>2026-08-18T09:51:46.000Z</time>
      </trkpt>
      <trkpt lat="22.788424" lon="111.512993">
        <ele>103.716392</ele>
        <time>2026-08-18T09:51:47.000Z</time>
      </trkpt>
      <trkpt lat="22.788393" lon="111.513047">
        <ele>103.644845</ele>
        <time>2026-08-18T09:51:48.000Z</time>
      </trkpt>
      <trkpt lat="22.788362" lon="111.513103">
        <ele>103.571379</ele>
        <time>2026-08-18T09:51:49.000Z</time>
      </trkpt>
      <trkpt lat="22.788327" lon="111.513163">
        <ele>103.491522</ele>
        <time>2026-08-18T09:51:50.000Z</time>
      </trkpt>
      <trkpt lat="22.788293" lon="111.513221">
        <ele>103.414217</ele>
        <time>2026-08-18T09:51:51.000Z</time>
      </trkpt>
      <trkpt lat="22.788261" lon="111.513282">
        <ele>103.335280</ele>
        <time>2026-08-18T09:51:52.000Z</time>
      </trkpt>
      <trkpt lat="22.788228" lon="111.513343">
        <ele>103.308319</ele>
        <time>2026-08-18T09:51:53.000Z</time>
      </trkpt>
      <trkpt lat="22.788197" lon="111.513405">
        <ele>103.327918</ele>
        <time>2026-08-18T09:51:54.000Z</time>
      </trkpt>
      <trkpt lat="22.788163" lon="111.513465">
        <ele>103.347489</ele>
        <time>2026-08-18T09:51:55.000Z</time>
      </trkpt>
      <trkpt lat="22.788131" lon="111.513525">
        <ele>103.366750</ele>
        <time>2026-08-18T09:51:56.000Z</time>
      </trkpt>
      <trkpt lat="22.788109" lon="111.513586">
        <ele>103.384952</ele>
        <time>2026-08-18T09:51:57.000Z</time>
      </trkpt>
      <trkpt lat="22.788079" lon="111.513648">
        <ele>103.404410</ele>
        <time>2026-08-18T09:51:58.000Z</time>
      </trkpt>
      <trkpt lat="22.788063" lon="111.513718">
        <ele>103.424450</ele>
        <time>2026-08-18T09:51:59.000Z</time>
      </trkpt>
      <trkpt lat="22.788041" lon="111.513783">
        <ele>103.443691</ele>
        <time>2026-08-18T09:52:00.000Z</time>
      </trkpt>
      <trkpt lat="22.788020" lon="111.513848">
        <ele>103.462831</ele>
        <time>2026-08-18T09:52:01.000Z</time>
      </trkpt>
      <trkpt lat="22.788003" lon="111.513916">
        <ele>103.482409</ele>
        <time>2026-08-18T09:52:02.000Z</time>
      </trkpt>
      <trkpt lat="22.787986" lon="111.513983">
        <ele>103.501719</ele>
        <time>2026-08-18T09:52:03.000Z</time>
      </trkpt>
      <trkpt lat="22.787971" lon="111.514050">
        <ele>103.520879</ele>
        <time>2026-08-18T09:52:04.000Z</time>
      </trkpt>
      <trkpt lat="22.787958" lon="111.514116">
        <ele>103.539633</ele>
        <time>2026-08-18T09:52:05.000Z</time>
      </trkpt>
      <trkpt lat="22.787945" lon="111.514180">
        <ele>103.557844</ele>
        <time>2026-08-18T09:52:06.000Z</time>
      </trkpt>
      <trkpt lat="22.787933" lon="111.514244">
        <ele>103.575993</ele>
        <time>2026-08-18T09:52:07.000Z</time>
      </trkpt>
      <trkpt lat="22.787923" lon="111.514310">
        <ele>103.594579</ele>
        <time>2026-08-18T09:52:08.000Z</time>
      </trkpt>
      <trkpt lat="22.787915" lon="111.514372">
        <ele>103.611976</ele>
        <time>2026-08-18T09:52:09.000Z</time>
      </trkpt>
      <trkpt lat="22.787908" lon="111.514432">
        <ele>103.628781</ele>
        <time>2026-08-18T09:52:10.000Z</time>
      </trkpt>
      <trkpt lat="22.787900" lon="111.514490">
        <ele>103.645078</ele>
        <time>2026-08-18T09:52:11.000Z</time>
      </trkpt>
      <trkpt lat="22.787888" lon="111.514551">
        <ele>103.662411</ele>
        <time>2026-08-18T09:52:12.000Z</time>
      </trkpt>
      <trkpt lat="22.787877" lon="111.514612">
        <ele>103.679683</ele>
        <time>2026-08-18T09:52:13.000Z</time>
      </trkpt>
      <trkpt lat="22.787867" lon="111.514672">
        <ele>103.696626</ele>
        <time>2026-08-18T09:52:14.000Z</time>
      </trkpt>
      <trkpt lat="22.787857" lon="111.514731">
        <ele>103.713296</ele>
        <time>2026-08-18T09:52:15.000Z</time>
      </trkpt>
      <trkpt lat="22.787846" lon="111.514790">
        <ele>103.730023</ele>
        <time>2026-08-18T09:52:16.000Z</time>
      </trkpt>
      <trkpt lat="22.787835" lon="111.514848">
        <ele>103.746477</ele>
        <time>2026-08-18T09:52:17.000Z</time>
      </trkpt>
      <trkpt lat="22.787823" lon="111.514904">
        <ele>103.762454</ele>
        <time>2026-08-18T09:52:18.000Z</time>
      </trkpt>
      <trkpt lat="22.787811" lon="111.514960">
        <ele>103.778430</ele>
        <time>2026-08-18T09:52:19.000Z</time>
      </trkpt>
      <trkpt lat="22.787801" lon="111.515016">
        <ele>103.794281</ele>
        <time>2026-08-18T09:52:20.000Z</time>
      </trkpt>
      <trkpt lat="22.787792" lon="111.515070">
        <ele>103.809530</ele>
        <time>2026-08-18T09:52:21.000Z</time>
      </trkpt>
      <trkpt lat="22.787784" lon="111.515126">
        <ele>103.825277</ele>
        <time>2026-08-18T09:52:22.000Z</time>
      </trkpt>
      <trkpt lat="22.787775" lon="111.515180">
        <ele>103.843465</ele>
        <time>2026-08-18T09:52:23.000Z</time>
      </trkpt>
      <trkpt lat="22.787766" lon="111.515234">
        <ele>103.948945</ele>
        <time>2026-08-18T09:52:24.000Z</time>
      </trkpt>
      <trkpt lat="22.787756" lon="111.515285">
        <ele>104.049169</ele>
        <time>2026-08-18T09:52:25.000Z</time>
      </trkpt>
      <trkpt lat="22.787747" lon="111.515337">
        <ele>104.150869</ele>
        <time>2026-08-18T09:52:26.000Z</time>
      </trkpt>
      <trkpt lat="22.787738" lon="111.515388">
        <ele>104.250680</ele>
        <time>2026-08-18T09:52:27.000Z</time>
      </trkpt>
      <trkpt lat="22.787730" lon="111.515440">
        <ele>104.352015</ele>
        <time>2026-08-18T09:52:28.000Z</time>
      </trkpt>
      <trkpt lat="22.787723" lon="111.515491">
        <ele>104.451127</ele>
        <time>2026-08-18T09:52:29.000Z</time>
      </trkpt>
      <trkpt lat="22.787714" lon="111.515544">
        <ele>104.554717</ele>
        <time>2026-08-18T09:52:30.000Z</time>
      </trkpt>
      <trkpt lat="22.787703" lon="111.515596">
        <ele>104.657267</ele>
        <time>2026-08-18T09:52:31.000Z</time>
      </trkpt>
      <trkpt lat="22.787695" lon="111.515645">
        <ele>104.752920</ele>
        <time>2026-08-18T09:52:32.000Z</time>
      </trkpt>
      <trkpt lat="22.787688" lon="111.515691">
        <ele>104.842537</ele>
        <time>2026-08-18T09:52:33.000Z</time>
      </trkpt>
      <trkpt lat="22.787681" lon="111.515737">
        <ele>104.932153</ele>
        <time>2026-08-18T09:52:34.000Z</time>
      </trkpt>
      <trkpt lat="22.787674" lon="111.515783">
        <ele>105.021770</ele>
        <time>2026-08-18T09:52:35.000Z</time>
      </trkpt>
      <trkpt lat="22.787667" lon="111.515827">
        <ele>105.107596</ele>
        <time>2026-08-18T09:52:36.000Z</time>
      </trkpt>
      <trkpt lat="22.787660" lon="111.515871">
        <ele>105.193422</ele>
        <time>2026-08-18T09:52:37.000Z</time>
      </trkpt>
      <trkpt lat="22.787653" lon="111.515915">
        <ele>105.279248</ele>
        <time>2026-08-18T09:52:38.000Z</time>
      </trkpt>
      <trkpt lat="22.787646" lon="111.515957">
        <ele>105.361289</ele>
        <time>2026-08-18T09:52:39.000Z</time>
      </trkpt>
      <trkpt lat="22.787640" lon="111.515997">
        <ele>105.439187</ele>
        <time>2026-08-18T09:52:40.000Z</time>
      </trkpt>
      <trkpt lat="22.787633" lon="111.516039">
        <ele>105.521227</ele>
        <time>2026-08-18T09:52:41.000Z</time>
      </trkpt>
      <trkpt lat="22.787628" lon="111.516080">
        <ele>105.600723</ele>
        <time>2026-08-18T09:52:42.000Z</time>
      </trkpt>
      <trkpt lat="22.787623" lon="111.516120">
        <ele>105.678314</ele>
        <time>2026-08-18T09:52:43.000Z</time>
      </trkpt>
      <trkpt lat="22.787616" lon="111.516159">
        <ele>105.754687</ele>
        <time>2026-08-18T09:52:44.000Z</time>
      </trkpt>
      <trkpt lat="22.787609" lon="111.516200">
        <ele>105.834836</ele>
        <time>2026-08-18T09:52:45.000Z</time>
      </trkpt>
      <trkpt lat="22.787601" lon="111.516242">
        <ele>105.917273</ele>
        <time>2026-08-18T09:52:46.000Z</time>
      </trkpt>
      <trkpt lat="22.787594" lon="111.516282">
        <ele>105.995533</ele>
        <time>2026-08-18T09:52:47.000Z</time>
      </trkpt>
      <trkpt lat="22.787587" lon="111.516323">
        <ele>106.075683</ele>
        <time>2026-08-18T09:52:48.000Z</time>
      </trkpt>
      <trkpt lat="22.787580" lon="111.516363">
        <ele>106.153943</ele>
        <time>2026-08-18T09:52:49.000Z</time>
      </trkpt>
      <trkpt lat="22.787574" lon="111.516403">
        <ele>106.231842</ele>
        <time>2026-08-18T09:52:50.000Z</time>
      </trkpt>
      <trkpt lat="22.787569" lon="111.516442">
        <ele>106.307528</ele>
        <time>2026-08-18T09:52:51.000Z</time>
      </trkpt>
      <trkpt lat="22.787562" lon="111.516482">
        <ele>106.385788</ele>
        <time>2026-08-18T09:52:52.000Z</time>
      </trkpt>
      <trkpt lat="22.787556" lon="111.516520">
        <ele>106.459895</ele>
        <time>2026-08-18T09:52:53.000Z</time>
      </trkpt>
      <trkpt lat="22.787551" lon="111.516558">
        <ele>106.533678</ele>
        <time>2026-08-18T09:52:54.000Z</time>
      </trkpt>
      <trkpt lat="22.787545" lon="111.516596">
        <ele>106.607785</ele>
        <time>2026-08-18T09:52:55.000Z</time>
      </trkpt>
      <trkpt lat="22.787540" lon="111.516633">
        <ele>106.679665</ele>
        <time>2026-08-18T09:52:56.000Z</time>
      </trkpt>
      <trkpt lat="22.787534" lon="111.516669">
        <ele>106.749986</ele>
        <time>2026-08-18T09:52:57.000Z</time>
      </trkpt>
      <trkpt lat="22.787528" lon="111.516706">
        <ele>106.822198</ele>
        <time>2026-08-18T09:52:58.000Z</time>
      </trkpt>
      <trkpt lat="22.787522" lon="111.516742">
        <ele>106.892519</ele>
        <time>2026-08-18T09:52:59.000Z</time>
      </trkpt>
      <trkpt lat="22.787514" lon="111.516780">
        <ele>106.967442</ele>
        <time>2026-08-18T09:53:00.000Z</time>
      </trkpt>
      <trkpt lat="22.787507" lon="111.516819">
        <ele>107.043815</ele>
        <time>2026-08-18T09:53:01.000Z</time>
      </trkpt>
      <trkpt lat="22.787501" lon="111.516858">
        <ele>107.119816</ele>
        <time>2026-08-18T09:53:02.000Z</time>
      </trkpt>
      <trkpt lat="22.787494" lon="111.516896">
        <ele>107.194303</ele>
        <time>2026-08-18T09:53:03.000Z</time>
      </trkpt>
      <trkpt lat="22.787489" lon="111.516929">
        <ele>107.258586</ele>
        <time>2026-08-18T09:53:04.000Z</time>
      </trkpt>
      <trkpt lat="22.787484" lon="111.516962">
        <ele>107.322869</ele>
        <time>2026-08-18T09:53:05.000Z</time>
      </trkpt>
      <trkpt lat="22.787478" lon="111.517000">
        <ele>107.396976</ele>
        <time>2026-08-18T09:53:06.000Z</time>
      </trkpt>
      <trkpt lat="22.787471" lon="111.517038">
        <ele>107.471463</ele>
        <time>2026-08-18T09:53:07.000Z</time>
      </trkpt>
      <trkpt lat="22.787466" lon="111.517078">
        <ele>107.549054</ele>
        <time>2026-08-18T09:53:08.000Z</time>
      </trkpt>
      <trkpt lat="22.787460" lon="111.517118">
        <ele>107.606230</ele>
        <time>2026-08-18T09:53:09.000Z</time>
      </trkpt>
      <trkpt lat="22.787453" lon="111.517157">
        <ele>107.639710</ele>
        <time>2026-08-18T09:53:10.000Z</time>
      </trkpt>
      <trkpt lat="22.787445" lon="111.517194">
        <ele>107.671735</ele>
        <time>2026-08-18T09:53:11.000Z</time>
      </trkpt>
      <trkpt lat="22.787438" lon="111.517235">
        <ele>107.706871</ele>
        <time>2026-08-18T09:53:12.000Z</time>
      </trkpt>
      <trkpt lat="22.787430" lon="111.517274">
        <ele>107.740539</ele>
        <time>2026-08-18T09:53:13.000Z</time>
      </trkpt>
      <trkpt lat="22.787423" lon="111.517313">
        <ele>107.774020</ele>
        <time>2026-08-18T09:53:14.000Z</time>
      </trkpt>
      <trkpt lat="22.787415" lon="111.517353">
        <ele>107.808510</ele>
        <time>2026-08-18T09:53:15.000Z</time>
      </trkpt>
      <trkpt lat="22.787409" lon="111.517391">
        <ele>107.840997</ele>
        <time>2026-08-18T09:53:16.000Z</time>
      </trkpt>
      <trkpt lat="22.787402" lon="111.517429">
        <ele>107.873651</ele>
        <time>2026-08-18T09:53:17.000Z</time>
      </trkpt>
      <trkpt lat="22.787396" lon="111.517468">
        <ele>107.906970</ele>
        <time>2026-08-18T09:53:18.000Z</time>
      </trkpt>
      <trkpt lat="22.787389" lon="111.517507">
        <ele>107.940450</ele>
        <time>2026-08-18T09:53:19.000Z</time>
      </trkpt>
      <trkpt lat="22.787382" lon="111.517547">
        <ele>107.974759</ele>
        <time>2026-08-18T09:53:20.000Z</time>
      </trkpt>
      <trkpt lat="22.787375" lon="111.517587">
        <ele>108.009067</ele>
        <time>2026-08-18T09:53:21.000Z</time>
      </trkpt>
      <trkpt lat="22.787368" lon="111.517628">
        <ele>108.044204</ele>
        <time>2026-08-18T09:53:22.000Z</time>
      </trkpt>
      <trkpt lat="22.787359" lon="111.517668">
        <ele>108.078899</ele>
        <time>2026-08-18T09:53:23.000Z</time>
      </trkpt>
      <trkpt lat="22.787351" lon="111.517708">
        <ele>108.113390</ele>
        <time>2026-08-18T09:53:24.000Z</time>
      </trkpt>
      <trkpt lat="22.787345" lon="111.517749">
        <ele>108.148372</ele>
        <time>2026-08-18T09:53:25.000Z</time>
      </trkpt>
      <trkpt lat="22.787339" lon="111.517791">
        <ele>108.184186</ele>
        <time>2026-08-18T09:53:26.000Z</time>
      </trkpt>
      <trkpt lat="22.787332" lon="111.517832">
        <ele>108.219322</ele>
        <time>2026-08-18T09:53:27.000Z</time>
      </trkpt>
      <trkpt lat="22.787324" lon="111.517873">
        <ele>108.254637</ele>
        <time>2026-08-18T09:53:28.000Z</time>
      </trkpt>
      <trkpt lat="22.787317" lon="111.517914">
        <ele>108.289773</ele>
        <time>2026-08-18T09:53:29.000Z</time>
      </trkpt>
      <trkpt lat="22.787310" lon="111.517957">
        <ele>108.326568</ele>
        <time>2026-08-18T09:53:30.000Z</time>
      </trkpt>
      <trkpt lat="22.787303" lon="111.517999">
        <ele>108.362534</ele>
        <time>2026-08-18T09:53:31.000Z</time>
      </trkpt>
      <trkpt lat="22.787296" lon="111.518041">
        <ele>108.398499</ele>
        <time>2026-08-18T09:53:32.000Z</time>
      </trkpt>
      <trkpt lat="22.787289" lon="111.518085">
        <ele>108.436125</ele>
        <time>2026-08-18T09:53:33.000Z</time>
      </trkpt>
      <trkpt lat="22.787281" lon="111.518129">
        <ele>108.473916</ele>
        <time>2026-08-18T09:53:34.000Z</time>
      </trkpt>
      <trkpt lat="22.787275" lon="111.518172">
        <ele>108.510563</ele>
        <time>2026-08-18T09:53:35.000Z</time>
      </trkpt>
      <trkpt lat="22.787267" lon="111.518216">
        <ele>108.548354</ele>
        <time>2026-08-18T09:53:36.000Z</time>
      </trkpt>
      <trkpt lat="22.787260" lon="111.518260">
        <ele>108.585979</ele>
        <time>2026-08-18T09:53:37.000Z</time>
      </trkpt>
      <trkpt lat="22.787253" lon="111.518305">
        <ele>108.624435</ele>
        <time>2026-08-18T09:53:38.000Z</time>
      </trkpt>
      <trkpt lat="22.787246" lon="111.518349">
        <ele>108.662060</ele>
        <time>2026-08-18T09:53:39.000Z</time>
      </trkpt>
      <trkpt lat="22.787239" lon="111.518395">
        <ele>108.701347</ele>
        <time>2026-08-18T09:53:40.000Z</time>
      </trkpt>
      <trkpt lat="22.787231" lon="111.518441">
        <ele>108.740793</ele>
        <time>2026-08-18T09:53:41.000Z</time>
      </trkpt>
      <trkpt lat="22.787223" lon="111.518489">
        <ele>108.781897</ele>
        <time>2026-08-18T09:53:42.000Z</time>
      </trkpt>
      <trkpt lat="22.787217" lon="111.518536">
        <ele>108.821880</ele>
        <time>2026-08-18T09:53:43.000Z</time>
      </trkpt>
      <trkpt lat="22.787211" lon="111.518584">
        <ele>108.862698</ele>
        <time>2026-08-18T09:53:44.000Z</time>
      </trkpt>
      <trkpt lat="22.787204" lon="111.518633">
        <ele>108.904481</ele>
        <time>2026-08-18T09:53:45.000Z</time>
      </trkpt>
      <trkpt lat="22.787196" lon="111.518680">
        <ele>108.944756</ele>
        <time>2026-08-18T09:53:46.000Z</time>
      </trkpt>
      <trkpt lat="22.787186" lon="111.518730">
        <ele>108.987869</ele>
        <time>2026-08-18T09:53:47.000Z</time>
      </trkpt>
      <trkpt lat="22.787177" lon="111.518780">
        <ele>109.030797</ele>
        <time>2026-08-18T09:53:48.000Z</time>
      </trkpt>
      <trkpt lat="22.787167" lon="111.518830">
        <ele>109.073911</ele>
        <time>2026-08-18T09:53:49.000Z</time>
      </trkpt>
      <trkpt lat="22.787157" lon="111.518879">
        <ele>109.116201</ele>
        <time>2026-08-18T09:53:50.000Z</time>
      </trkpt>
      <trkpt lat="22.787148" lon="111.518927">
        <ele>109.157476</ele>
        <time>2026-08-18T09:53:51.000Z</time>
      </trkpt>
      <trkpt lat="22.787138" lon="111.518976">
        <ele>109.199766</ele>
        <time>2026-08-18T09:53:52.000Z</time>
      </trkpt>
      <trkpt lat="22.787129" lon="111.519026">
        <ele>109.236766</ele>
        <time>2026-08-18T09:53:53.000Z</time>
      </trkpt>
      <trkpt lat="22.787121" lon="111.519077">
        <ele>109.250577</ele>
        <time>2026-08-18T09:53:54.000Z</time>
      </trkpt>
      <trkpt lat="22.787112" lon="111.519129">
        <ele>109.264702</ele>
        <time>2026-08-18T09:53:55.000Z</time>
      </trkpt>
      <trkpt lat="22.787103" lon="111.519179">
        <ele>109.278302</ele>
        <time>2026-08-18T09:53:56.000Z</time>
      </trkpt>
      <trkpt lat="22.787093" lon="111.519229">
        <ele>109.291961</ele>
        <time>2026-08-18T09:53:57.000Z</time>
      </trkpt>
      <trkpt lat="22.787084" lon="111.519280">
        <ele>109.305823</ele>
        <time>2026-08-18T09:53:58.000Z</time>
      </trkpt>
      <trkpt lat="22.787074" lon="111.519332">
        <ele>109.320005</ele>
        <time>2026-08-18T09:53:59.000Z</time>
      </trkpt>
      <trkpt lat="22.787065" lon="111.519383">
        <ele>109.333867</ele>
        <time>2026-08-18T09:54:00.000Z</time>
      </trkpt>
      <trkpt lat="22.787058" lon="111.519434">
        <ele>109.347632</ele>
        <time>2026-08-18T09:54:01.000Z</time>
      </trkpt>
      <trkpt lat="22.787050" lon="111.519485">
        <ele>109.361443</ele>
        <time>2026-08-18T09:54:02.000Z</time>
      </trkpt>
      <trkpt lat="22.787042" lon="111.519536">
        <ele>109.375255</ele>
        <time>2026-08-18T09:54:03.000Z</time>
      </trkpt>
      <trkpt lat="22.787033" lon="111.519587">
        <ele>109.389117</ele>
        <time>2026-08-18T09:54:04.000Z</time>
      </trkpt>
      <trkpt lat="22.787025" lon="111.519636">
        <ele>109.402402</ele>
        <time>2026-08-18T09:54:05.000Z</time>
      </trkpt>
      <trkpt lat="22.787017" lon="111.519686">
        <ele>109.415950</ele>
        <time>2026-08-18T09:54:06.000Z</time>
      </trkpt>
      <trkpt lat="22.787008" lon="111.519735">
        <ele>109.429288</ele>
        <time>2026-08-18T09:54:07.000Z</time>
      </trkpt>
      <trkpt lat="22.787000" lon="111.519783">
        <ele>109.442311</ele>
        <time>2026-08-18T09:54:08.000Z</time>
      </trkpt>
      <trkpt lat="22.786992" lon="111.519831">
        <ele>109.455333</ele>
        <time>2026-08-18T09:54:09.000Z</time>
      </trkpt>
      <trkpt lat="22.786986" lon="111.519880">
        <ele>109.468529</ele>
        <time>2026-08-18T09:54:10.000Z</time>
      </trkpt>
      <trkpt lat="22.786978" lon="111.519929">
        <ele>109.481814</ele>
        <time>2026-08-18T09:54:11.000Z</time>
      </trkpt>
      <trkpt lat="22.786968" lon="111.519972">
        <ele>109.493653</ele>
        <time>2026-08-18T09:54:12.000Z</time>
      </trkpt>
      <trkpt lat="22.786961" lon="111.520017">
        <ele>109.505837</ele>
        <time>2026-08-18T09:54:13.000Z</time>
      </trkpt>
      <trkpt lat="22.786950" lon="111.520060">
        <ele>109.517750</ele>
        <time>2026-08-18T09:54:14.000Z</time>
      </trkpt>
      <trkpt lat="22.786944" lon="111.520096">
        <ele>109.527516</ele>
        <time>2026-08-18T09:54:15.000Z</time>
      </trkpt>
      <trkpt lat="22.786941" lon="111.520147">
        <ele>109.541160</ele>
        <time>2026-08-18T09:54:16.000Z</time>
      </trkpt>
      <trkpt lat="22.786935" lon="111.520195">
        <ele>109.554091</ele>
        <time>2026-08-18T09:54:17.000Z</time>
      </trkpt>
      <trkpt lat="22.786929" lon="111.520244">
        <ele>109.567288</ele>
        <time>2026-08-18T09:54:18.000Z</time>
      </trkpt>
      <trkpt lat="22.786923" lon="111.520293">
        <ele>109.580484</ele>
        <time>2026-08-18T09:54:19.000Z</time>
      </trkpt>
      <trkpt lat="22.786917" lon="111.520342">
        <ele>109.593680</ele>
        <time>2026-08-18T09:54:20.000Z</time>
      </trkpt>
      <trkpt lat="22.786910" lon="111.520392">
        <ele>109.607182</ele>
        <time>2026-08-18T09:54:21.000Z</time>
      </trkpt>
      <trkpt lat="22.786903" lon="111.520440">
        <ele>109.620155</ele>
        <time>2026-08-18T09:54:22.000Z</time>
      </trkpt>
      <trkpt lat="22.786896" lon="111.520488">
        <ele>109.633129</ele>
        <time>2026-08-18T09:54:23.000Z</time>
      </trkpt>
      <trkpt lat="22.786887" lon="111.520539">
        <ele>109.646992</ele>
        <time>2026-08-18T09:54:24.000Z</time>
      </trkpt>
      <trkpt lat="22.786877" lon="111.520591">
        <ele>109.661173</ele>
        <time>2026-08-18T09:54:25.000Z</time>
      </trkpt>
      <trkpt lat="22.786866" lon="111.520639">
        <ele>109.674377</ele>
        <time>2026-08-18T09:54:26.000Z</time>
      </trkpt>
      <trkpt lat="22.786858" lon="111.520690">
        <ele>109.688188</ele>
        <time>2026-08-18T09:54:27.000Z</time>
      </trkpt>
      <trkpt lat="22.786850" lon="111.520740">
        <ele>109.701736</ele>
        <time>2026-08-18T09:54:28.000Z</time>
      </trkpt>
      <trkpt lat="22.786843" lon="111.520792">
        <ele>109.715766</ele>
        <time>2026-08-18T09:54:29.000Z</time>
      </trkpt>
      <trkpt lat="22.786836" lon="111.520843">
        <ele>109.729531</ele>
        <time>2026-08-18T09:54:30.000Z</time>
      </trkpt>
      <trkpt lat="22.786828" lon="111.520893">
        <ele>109.743079</ele>
        <time>2026-08-18T09:54:31.000Z</time>
      </trkpt>
      <trkpt lat="22.786819" lon="111.520943">
        <ele>109.742824</ele>
        <time>2026-08-18T09:54:32.000Z</time>
      </trkpt>
      <trkpt lat="22.786811" lon="111.520992">
        <ele>109.655703</ele>
        <time>2026-08-18T09:54:33.000Z</time>
      </trkpt>
      <trkpt lat="22.786803" lon="111.521043">
        <ele>109.565132</ele>
        <time>2026-08-18T09:54:34.000Z</time>
      </trkpt>
      <trkpt lat="22.786794" lon="111.521093">
        <ele>109.475942</ele>
        <time>2026-08-18T09:54:35.000Z</time>
      </trkpt>
      <trkpt lat="22.786785" lon="111.521144">
        <ele>109.385034</ele>
        <time>2026-08-18T09:54:36.000Z</time>
      </trkpt>
      <trkpt lat="22.786777" lon="111.521195">
        <ele>109.294463</ele>
        <time>2026-08-18T09:54:37.000Z</time>
      </trkpt>
      <trkpt lat="22.786769" lon="111.521246">
        <ele>109.203892</ele>
        <time>2026-08-18T09:54:38.000Z</time>
      </trkpt>
      <trkpt lat="22.786763" lon="111.521298">
        <ele>109.112143</ele>
        <time>2026-08-18T09:54:39.000Z</time>
      </trkpt>
      <trkpt lat="22.786757" lon="111.521351">
        <ele>109.018657</ele>
        <time>2026-08-18T09:54:40.000Z</time>
      </trkpt>
      <trkpt lat="22.786750" lon="111.521406">
        <ele>108.921453</ele>
        <time>2026-08-18T09:54:41.000Z</time>
      </trkpt>
      <trkpt lat="22.786741" lon="111.521460">
        <ele>108.825381</ele>
        <time>2026-08-18T09:54:42.000Z</time>
      </trkpt>
      <trkpt lat="22.786732" lon="111.521515">
        <ele>108.727585</ele>
        <time>2026-08-18T09:54:43.000Z</time>
      </trkpt>
      <trkpt lat="22.786723" lon="111.521571">
        <ele>108.628065</ele>
        <time>2026-08-18T09:54:44.000Z</time>
      </trkpt>
      <trkpt lat="22.786716" lon="111.521626">
        <ele>108.530861</ele>
        <time>2026-08-18T09:54:45.000Z</time>
      </trkpt>
      <trkpt lat="22.786708" lon="111.521682">
        <ele>108.431649</ele>
        <time>2026-08-18T09:54:46.000Z</time>
      </trkpt>
      <trkpt lat="22.786699" lon="111.521739">
        <ele>108.330404</ele>
        <time>2026-08-18T09:54:47.000Z</time>
      </trkpt>
      <trkpt lat="22.786690" lon="111.521796">
        <ele>108.229159</ele>
        <time>2026-08-18T09:54:48.000Z</time>
      </trkpt>
      <trkpt lat="22.786679" lon="111.521853">
        <ele>108.127204</ele>
        <time>2026-08-18T09:54:49.000Z</time>
      </trkpt>
      <trkpt lat="22.786669" lon="111.521910">
        <ele>108.025621</ele>
        <time>2026-08-18T09:54:50.000Z</time>
      </trkpt>
      <trkpt lat="22.786659" lon="111.521968">
        <ele>107.922317</ele>
        <time>2026-08-18T09:54:51.000Z</time>
      </trkpt>
      <trkpt lat="22.786650" lon="111.522027">
        <ele>107.817619</ele>
        <time>2026-08-18T09:54:52.000Z</time>
      </trkpt>
      <trkpt lat="22.786640" lon="111.522086">
        <ele>107.712594</ele>
        <time>2026-08-18T09:54:53.000Z</time>
      </trkpt>
      <trkpt lat="22.786630" lon="111.522146">
        <ele>107.605847</ele>
        <time>2026-08-18T09:54:54.000Z</time>
      </trkpt>
      <trkpt lat="22.786621" lon="111.522208">
        <ele>107.495964</ele>
        <time>2026-08-18T09:54:55.000Z</time>
      </trkpt>
      <trkpt lat="22.786611" lon="111.522272">
        <ele>107.382319</ele>
        <time>2026-08-18T09:54:56.000Z</time>
      </trkpt>
      <trkpt lat="22.786601" lon="111.522335">
        <ele>107.270399</ele>
        <time>2026-08-18T09:54:57.000Z</time>
      </trkpt>
      <trkpt lat="22.786591" lon="111.522398">
        <ele>107.158479</ele>
        <time>2026-08-18T09:54:58.000Z</time>
      </trkpt>
      <trkpt lat="22.786580" lon="111.522463">
        <ele>107.042780</ele>
        <time>2026-08-18T09:54:59.000Z</time>
      </trkpt>
      <trkpt lat="22.786571" lon="111.522528">
        <ele>106.927705</ele>
        <time>2026-08-18T09:55:00.000Z</time>
      </trkpt>
      <trkpt lat="22.786561" lon="111.522594">
        <ele>106.810606</ele>
        <time>2026-08-18T09:55:01.000Z</time>
      </trkpt>
      <trkpt lat="22.786550" lon="111.522660">
        <ele>106.693184</ele>
        <time>2026-08-18T09:55:02.000Z</time>
      </trkpt>
      <trkpt lat="22.786539" lon="111.522727">
        <ele>106.574039</ele>
        <time>2026-08-18T09:55:03.000Z</time>
      </trkpt>
      <trkpt lat="22.786527" lon="111.522794">
        <ele>106.454546</ele>
        <time>2026-08-18T09:55:04.000Z</time>
      </trkpt>
      <trkpt lat="22.786511" lon="111.522862">
        <ele>106.328206</ele>
        <time>2026-08-18T09:55:05.000Z</time>
      </trkpt>
      <trkpt lat="22.786497" lon="111.522927">
        <ele>106.158175</ele>
        <time>2026-08-18T09:55:06.000Z</time>
      </trkpt>
      <trkpt lat="22.786480" lon="111.522995">
        <ele>105.978704</ele>
        <time>2026-08-18T09:55:07.000Z</time>
      </trkpt>
      <trkpt lat="22.786464" lon="111.523063">
        <ele>105.799936</ele>
        <time>2026-08-18T09:55:08.000Z</time>
      </trkpt>
      <trkpt lat="22.786450" lon="111.523133">
        <ele>105.617479</ele>
        <time>2026-08-18T09:55:09.000Z</time>
      </trkpt>
      <trkpt lat="22.786436" lon="111.523205">
        <ele>105.430040</ele>
        <time>2026-08-18T09:55:10.000Z</time>
      </trkpt>
      <trkpt lat="22.786423" lon="111.523278">
        <ele>105.240651</ele>
        <time>2026-08-18T09:55:11.000Z</time>
      </trkpt>
      <trkpt lat="22.786410" lon="111.523353">
        <ele>105.046257</ele>
        <time>2026-08-18T09:55:12.000Z</time>
      </trkpt>
      <trkpt lat="22.786397" lon="111.523428">
        <ele>104.851864</ele>
        <time>2026-08-18T09:55:13.000Z</time>
      </trkpt>
      <trkpt lat="22.786385" lon="111.523503">
        <ele>104.657962</ele>
        <time>2026-08-18T09:55:14.000Z</time>
      </trkpt>
      <trkpt lat="22.786372" lon="111.523580">
        <ele>104.458559</ele>
        <time>2026-08-18T09:55:15.000Z</time>
      </trkpt>
      <trkpt lat="22.786360" lon="111.523657">
        <ele>104.259636</ele>
        <time>2026-08-18T09:55:16.000Z</time>
      </trkpt>
      <trkpt lat="22.786347" lon="111.523734">
        <ele>104.060233</ele>
        <time>2026-08-18T09:55:17.000Z</time>
      </trkpt>
      <trkpt lat="22.786334" lon="111.523812">
        <ele>103.858324</ele>
        <time>2026-08-18T09:55:18.000Z</time>
      </trkpt>
      <trkpt lat="22.786321" lon="111.523891">
        <ele>103.653908</ele>
        <time>2026-08-18T09:55:19.000Z</time>
      </trkpt>
      <trkpt lat="22.786308" lon="111.523972">
        <ele>103.444475</ele>
        <time>2026-08-18T09:55:20.000Z</time>
      </trkpt>
      <trkpt lat="22.786295" lon="111.524053">
        <ele>103.235041</ele>
        <time>2026-08-18T09:55:21.000Z</time>
      </trkpt>
      <trkpt lat="22.786282" lon="111.524136">
        <ele>103.020587</ele>
        <time>2026-08-18T09:55:22.000Z</time>
      </trkpt>
      <trkpt lat="22.786268" lon="111.524218">
        <ele>102.808158</ele>
        <time>2026-08-18T09:55:23.000Z</time>
      </trkpt>
      <trkpt lat="22.786255" lon="111.524299">
        <ele>102.598725</ele>
        <time>2026-08-18T09:55:24.000Z</time>
      </trkpt>
      <trkpt lat="22.786245" lon="111.524383">
        <ele>102.382976</ele>
        <time>2026-08-18T09:55:25.000Z</time>
      </trkpt>
      <trkpt lat="22.786233" lon="111.524465">
        <ele>102.171483</ele>
        <time>2026-08-18T09:55:26.000Z</time>
      </trkpt>
      <trkpt lat="22.786220" lon="111.524548">
        <ele>101.957029</ele>
        <time>2026-08-18T09:55:27.000Z</time>
      </trkpt>
      <trkpt lat="22.786205" lon="111.524632">
        <ele>101.739080</ele>
        <time>2026-08-18T09:55:28.000Z</time>
      </trkpt>
      <trkpt lat="22.786190" lon="111.524717">
        <ele>101.518630</ele>
        <time>2026-08-18T09:55:29.000Z</time>
      </trkpt>
      <trkpt lat="22.786176" lon="111.524801">
        <ele>101.339888</ele>
        <time>2026-08-18T09:55:30.000Z</time>
      </trkpt>
      <trkpt lat="22.786163" lon="111.524886">
        <ele>101.244183</ele>
        <time>2026-08-18T09:55:31.000Z</time>
      </trkpt>
      <trkpt lat="22.786149" lon="111.524973">
        <ele>101.146086</ele>
        <time>2026-08-18T09:55:32.000Z</time>
      </trkpt>
      <trkpt lat="22.786134" lon="111.525060">
        <ele>101.047774</ele>
        <time>2026-08-18T09:55:33.000Z</time>
      </trkpt>
      <trkpt lat="22.786119" lon="111.525146">
        <ele>100.950554</ele>
        <time>2026-08-18T09:55:34.000Z</time>
      </trkpt>
      <trkpt lat="22.786104" lon="111.525233">
        <ele>100.852243</ele>
        <time>2026-08-18T09:55:35.000Z</time>
      </trkpt>
      <trkpt lat="22.786090" lon="111.525319">
        <ele>100.755240</ele>
        <time>2026-08-18T09:55:36.000Z</time>
      </trkpt>
      <trkpt lat="22.786075" lon="111.525406">
        <ele>100.656928</ele>
        <time>2026-08-18T09:55:37.000Z</time>
      </trkpt>
      <trkpt lat="22.786059" lon="111.525493">
        <ele>100.558388</ele>
        <time>2026-08-18T09:55:38.000Z</time>
      </trkpt>
      <trkpt lat="22.786044" lon="111.525579">
        <ele>100.461168</ele>
        <time>2026-08-18T09:55:39.000Z</time>
      </trkpt>
      <trkpt lat="22.786031" lon="111.525665">
        <ele>100.364367</ele>
        <time>2026-08-18T09:55:40.000Z</time>
      </trkpt>
      <trkpt lat="22.786018" lon="111.525748">
        <ele>100.270853</ele>
        <time>2026-08-18T09:55:41.000Z</time>
      </trkpt>
      <trkpt lat="22.786003" lon="111.525832">
        <ele>100.175815</ele>
        <time>2026-08-18T09:55:42.000Z</time>
      </trkpt>
      <trkpt lat="22.785989" lon="111.525917">
        <ele>100.079906</ele>
        <time>2026-08-18T09:55:43.000Z</time>
      </trkpt>
      <trkpt lat="22.785974" lon="111.526001">
        <ele>99.984868</ele>
        <time>2026-08-18T09:55:44.000Z</time>
      </trkpt>
      <trkpt lat="22.785958" lon="111.526086">
        <ele>99.888505</ele>
        <time>2026-08-18T09:55:45.000Z</time>
      </trkpt>
      <trkpt lat="22.785942" lon="111.526172">
        <ele>99.791054</ele>
        <time>2026-08-18T09:55:46.000Z</time>
      </trkpt>
      <trkpt lat="22.785926" lon="111.526256">
        <ele>99.695780</ele>
        <time>2026-08-18T09:55:47.000Z</time>
      </trkpt>
      <trkpt lat="22.785910" lon="111.526338">
        <ele>99.602680</ele>
        <time>2026-08-18T09:55:48.000Z</time>
      </trkpt>
      <trkpt lat="22.785894" lon="111.526419">
        <ele>99.510666</ele>
        <time>2026-08-18T09:55:49.000Z</time>
      </trkpt>
      <trkpt lat="22.785879" lon="111.526499">
        <ele>99.419986</ele>
        <time>2026-08-18T09:55:50.000Z</time>
      </trkpt>
      <trkpt lat="22.785866" lon="111.526579">
        <ele>99.329755</ele>
        <time>2026-08-18T09:55:51.000Z</time>
      </trkpt>
      <trkpt lat="22.785853" lon="111.526659">
        <ele>99.239524</ele>
        <time>2026-08-18T09:55:52.000Z</time>
      </trkpt>
      <trkpt lat="22.785839" lon="111.526738">
        <ele>99.203706</ele>
        <time>2026-08-18T09:55:53.000Z</time>
      </trkpt>
      <trkpt lat="22.785825" lon="111.526817">
        <ele>99.205193</ele>
        <time>2026-08-18T09:55:54.000Z</time>
      </trkpt>
      <trkpt lat="22.785811" lon="111.526896">
        <ele>99.206679</ele>
        <time>2026-08-18T09:55:55.000Z</time>
      </trkpt>
      <trkpt lat="22.785798" lon="111.526975">
        <ele>99.208162</ele>
        <time>2026-08-18T09:55:56.000Z</time>
      </trkpt>
      <trkpt lat="22.785784" lon="111.527053">
        <ele>99.209631</ele>
        <time>2026-08-18T09:55:57.000Z</time>
      </trkpt>
      <trkpt lat="22.785771" lon="111.527131">
        <ele>99.211095</ele>
        <time>2026-08-18T09:55:58.000Z</time>
      </trkpt>
      <trkpt lat="22.785757" lon="111.527208">
        <ele>99.212546</ele>
        <time>2026-08-18T09:55:59.000Z</time>
      </trkpt>
      <trkpt lat="22.785744" lon="111.527283">
        <ele>99.213956</ele>
        <time>2026-08-18T09:56:00.000Z</time>
      </trkpt>
      <trkpt lat="22.785732" lon="111.527358">
        <ele>99.215363</ele>
        <time>2026-08-18T09:56:01.000Z</time>
      </trkpt>
      <trkpt lat="22.785720" lon="111.527435">
        <ele>99.216806</ele>
        <time>2026-08-18T09:56:02.000Z</time>
      </trkpt>
      <trkpt lat="22.785708" lon="111.527511">
        <ele>99.218231</ele>
        <time>2026-08-18T09:56:03.000Z</time>
      </trkpt>
      <trkpt lat="22.785697" lon="111.527586">
        <ele>99.219634</ele>
        <time>2026-08-18T09:56:04.000Z</time>
      </trkpt>
      <trkpt lat="22.785688" lon="111.527660">
        <ele>99.221013</ele>
        <time>2026-08-18T09:56:05.000Z</time>
      </trkpt>
      <trkpt lat="22.785677" lon="111.527734">
        <ele>99.222398</ele>
        <time>2026-08-18T09:56:06.000Z</time>
      </trkpt>
      <trkpt lat="22.785666" lon="111.527806">
        <ele>99.223747</ele>
        <time>2026-08-18T09:56:07.000Z</time>
      </trkpt>
      <trkpt lat="22.785656" lon="111.527878">
        <ele>99.225092</ele>
        <time>2026-08-18T09:56:08.000Z</time>
      </trkpt>
      <trkpt lat="22.785648" lon="111.527950">
        <ele>99.226433</ele>
        <time>2026-08-18T09:56:09.000Z</time>
      </trkpt>
      <trkpt lat="22.785640" lon="111.528021">
        <ele>99.227754</ele>
        <time>2026-08-18T09:56:10.000Z</time>
      </trkpt>
      <trkpt lat="22.785634" lon="111.528089">
        <ele>99.229017</ele>
        <time>2026-08-18T09:56:11.000Z</time>
      </trkpt>
      <trkpt lat="22.785628" lon="111.528156">
        <ele>99.230261</ele>
        <time>2026-08-18T09:56:12.000Z</time>
      </trkpt>
      <trkpt lat="22.785623" lon="111.528223">
        <ele>99.231503</ele>
        <time>2026-08-18T09:56:13.000Z</time>
      </trkpt>
      <trkpt lat="22.785617" lon="111.528288">
        <ele>99.232710</ele>
        <time>2026-08-18T09:56:14.000Z</time>
      </trkpt>
      <trkpt lat="22.785612" lon="111.528354">
        <ele>99.233934</ele>
        <time>2026-08-18T09:56:15.000Z</time>
      </trkpt>
      <trkpt lat="22.785606" lon="111.528420">
        <ele>99.235159</ele>
        <time>2026-08-18T09:56:16.000Z</time>
      </trkpt>
      <trkpt lat="22.785600" lon="111.528485">
        <ele>99.236366</ele>
        <time>2026-08-18T09:56:17.000Z</time>
      </trkpt>
      <trkpt lat="22.785596" lon="111.528551">
        <ele>99.237589</ele>
        <time>2026-08-18T09:56:18.000Z</time>
      </trkpt>
      <trkpt lat="22.785590" lon="111.528619">
        <ele>99.238851</ele>
        <time>2026-08-18T09:56:19.000Z</time>
      </trkpt>
      <trkpt lat="22.785586" lon="111.528686">
        <ele>99.326194</ele>
        <time>2026-08-18T09:56:20.000Z</time>
      </trkpt>
      <trkpt lat="22.785581" lon="111.528752">
        <ele>99.414443</ele>
        <time>2026-08-18T09:56:21.000Z</time>
      </trkpt>
      <trkpt lat="22.785576" lon="111.528818">
        <ele>99.502691</ele>
        <time>2026-08-18T09:56:22.000Z</time>
      </trkpt>
      <trkpt lat="22.785573" lon="111.528882">
        <ele>99.588088</ele>
        <time>2026-08-18T09:56:23.000Z</time>
      </trkpt>
      <trkpt lat="22.785570" lon="111.528944">
        <ele>99.670824</ele>
        <time>2026-08-18T09:56:24.000Z</time>
      </trkpt>
      <trkpt lat="22.785568" lon="111.529004">
        <ele>99.750833</ele>
        <time>2026-08-18T09:56:25.000Z</time>
      </trkpt>
      <trkpt lat="22.785566" lon="111.529066">
        <ele>99.833505</ele>
        <time>2026-08-18T09:56:26.000Z</time>
      </trkpt>
      <trkpt lat="22.785564" lon="111.529128">
        <ele>99.916177</ele>
        <time>2026-08-18T09:56:27.000Z</time>
      </trkpt>
      <trkpt lat="22.785562" lon="111.529187">
        <ele>99.994854</ele>
        <time>2026-08-18T09:56:28.000Z</time>
      </trkpt>
      <trkpt lat="22.785562" lon="111.529247">
        <ele>100.074811</ele>
        <time>2026-08-18T09:56:29.000Z</time>
      </trkpt>
      <trkpt lat="22.785561" lon="111.529304">
        <ele>100.150783</ele>
        <time>2026-08-18T09:56:30.000Z</time>
      </trkpt>
      <trkpt lat="22.785562" lon="111.529359">
        <ele>100.224091</ele>
        <time>2026-08-18T09:56:31.000Z</time>
      </trkpt>
      <trkpt lat="22.785563" lon="111.529413">
        <ele>100.296066</ele>
        <time>2026-08-18T09:56:32.000Z</time>
      </trkpt>
      <trkpt lat="22.785564" lon="111.529464">
        <ele>100.364044</ele>
        <time>2026-08-18T09:56:33.000Z</time>
      </trkpt>
      <trkpt lat="22.785564" lon="111.529515">
        <ele>100.432008</ele>
        <time>2026-08-18T09:56:34.000Z</time>
      </trkpt>
      <trkpt lat="22.785564" lon="111.529566">
        <ele>100.499971</ele>
        <time>2026-08-18T09:56:35.000Z</time>
      </trkpt>
      <trkpt lat="22.785562" lon="111.529617">
        <ele>100.567995</ele>
        <time>2026-08-18T09:56:36.000Z</time>
      </trkpt>
      <trkpt lat="22.785559" lon="111.529667">
        <ele>100.634766</ele>
        <time>2026-08-18T09:56:37.000Z</time>
      </trkpt>
      <trkpt lat="22.785560" lon="111.529718">
        <ele>100.702745</ele>
        <time>2026-08-18T09:56:38.000Z</time>
      </trkpt>
      <trkpt lat="22.785562" lon="111.529768">
        <ele>100.769438</ele>
        <time>2026-08-18T09:56:39.000Z</time>
      </trkpt>
      <trkpt lat="22.785566" lon="111.529819">
        <ele>100.837646</ele>
        <time>2026-08-18T09:56:40.000Z</time>
      </trkpt>
      <trkpt lat="22.785570" lon="111.529869">
        <ele>100.904527</ele>
        <time>2026-08-18T09:56:41.000Z</time>
      </trkpt>
      <trkpt lat="22.785573" lon="111.529918">
        <ele>100.969969</ele>
        <time>2026-08-18T09:56:42.000Z</time>
      </trkpt>
      <trkpt lat="22.785577" lon="111.529968">
        <ele>101.036850</ele>
        <time>2026-08-18T09:56:43.000Z</time>
      </trkpt>
      <trkpt lat="22.785581" lon="111.530018">
        <ele>101.103730</ele>
        <time>2026-08-18T09:56:44.000Z</time>
      </trkpt>
      <trkpt lat="22.785582" lon="111.530069">
        <ele>101.171709</ele>
        <time>2026-08-18T09:56:45.000Z</time>
      </trkpt>
      <trkpt lat="22.785583" lon="111.530120">
        <ele>101.239687</ele>
        <time>2026-08-18T09:56:46.000Z</time>
      </trkpt>
      <trkpt lat="22.785586" lon="111.530172">
        <ele>101.309118</ele>
        <time>2026-08-18T09:56:47.000Z</time>
      </trkpt>
      <trkpt lat="22.785591" lon="111.530220">
        <ele>101.373490</ele>
        <time>2026-08-18T09:56:48.000Z</time>
      </trkpt>
      <trkpt lat="22.785596" lon="111.530269">
        <ele>101.439187</ele>
        <time>2026-08-18T09:56:49.000Z</time>
      </trkpt>
      <trkpt lat="22.785601" lon="111.530319">
        <ele>101.506208</ele>
        <time>2026-08-18T09:56:50.000Z</time>
      </trkpt>
      <trkpt lat="22.785606" lon="111.530368">
        <ele>101.571905</ele>
        <time>2026-08-18T09:56:51.000Z</time>
      </trkpt>
      <trkpt lat="22.785611" lon="111.530416">
        <ele>101.636277</ele>
        <time>2026-08-18T09:56:52.000Z</time>
      </trkpt>
      <trkpt lat="22.785617" lon="111.530463">
        <ele>101.699507</ele>
        <time>2026-08-18T09:56:53.000Z</time>
      </trkpt>
      <trkpt lat="22.785619" lon="111.530510">
        <ele>101.762206</ele>
        <time>2026-08-18T09:56:54.000Z</time>
      </trkpt>
      <trkpt lat="22.785622" lon="111.530555">
        <ele>101.822330</ele>
        <time>2026-08-18T09:56:55.000Z</time>
      </trkpt>
      <trkpt lat="22.785622" lon="111.530600">
        <ele>101.886057</ele>
        <time>2026-08-18T09:56:56.000Z</time>
      </trkpt>
      <trkpt lat="22.785623" lon="111.530649">
        <ele>101.956997</ele>
        <time>2026-08-18T09:56:57.000Z</time>
      </trkpt>
      <trkpt lat="22.785622" lon="111.530696">
        <ele>102.025042</ele>
        <time>2026-08-18T09:56:58.000Z</time>
      </trkpt>
      <trkpt lat="22.785622" lon="111.530743">
        <ele>102.093069</ele>
        <time>2026-08-18T09:56:59.000Z</time>
      </trkpt>
      <trkpt lat="22.785624" lon="111.530790">
        <ele>102.161169</ele>
        <time>2026-08-18T09:57:00.000Z</time>
      </trkpt>
      <trkpt lat="22.785628" lon="111.530836">
        <ele>102.228045</ele>
        <time>2026-08-18T09:57:01.000Z</time>
      </trkpt>
      <trkpt lat="22.785634" lon="111.530882">
        <ele>102.295288</ele>
        <time>2026-08-18T09:57:02.000Z</time>
      </trkpt>
      <trkpt lat="22.785639" lon="111.530929">
        <ele>102.363767</ele>
        <time>2026-08-18T09:57:03.000Z</time>
      </trkpt>
      <trkpt lat="22.785644" lon="111.530975">
        <ele>102.430808</ele>
        <time>2026-08-18T09:57:04.000Z</time>
      </trkpt>
      <trkpt lat="22.785651" lon="111.531020">
        <ele>102.496861</ele>
        <time>2026-08-18T09:57:05.000Z</time>
      </trkpt>
      <trkpt lat="22.785656" lon="111.531065">
        <ele>102.562465</ele>
        <time>2026-08-18T09:57:06.000Z</time>
      </trkpt>
      <trkpt lat="22.785661" lon="111.531110">
        <ele>102.628069</ele>
        <time>2026-08-18T09:57:07.000Z</time>
      </trkpt>
      <trkpt lat="22.785666" lon="111.531152">
        <ele>102.689364</ele>
        <time>2026-08-18T09:57:08.000Z</time>
      </trkpt>
      <trkpt lat="22.785668" lon="111.531196">
        <ele>102.753127</ele>
        <time>2026-08-18T09:57:09.000Z</time>
      </trkpt>
      <trkpt lat="22.785670" lon="111.531242">
        <ele>102.819781</ele>
        <time>2026-08-18T09:57:10.000Z</time>
      </trkpt>
      <trkpt lat="22.785674" lon="111.531287">
        <ele>102.885215</ele>
        <time>2026-08-18T09:57:11.000Z</time>
      </trkpt>
      <trkpt lat="22.785679" lon="111.531332">
        <ele>102.950819</ele>
        <time>2026-08-18T09:57:12.000Z</time>
      </trkpt>
      <trkpt lat="22.785683" lon="111.531375">
        <ele>103.013373</ele>
        <time>2026-08-18T09:57:13.000Z</time>
      </trkpt>
      <trkpt lat="22.785693" lon="111.531455">
        <ele>103.130224</ele>
        <time>2026-08-18T09:57:15.000Z</time>
      </trkpt>
      <trkpt lat="22.785699" lon="111.531492">
        <ele>103.184599</ele>
        <time>2026-08-18T09:57:16.000Z</time>
      </trkpt>
      <trkpt lat="22.785702" lon="111.531528">
        <ele>103.236918</ele>
        <time>2026-08-18T09:57:17.000Z</time>
      </trkpt>
      <trkpt lat="22.785707" lon="111.531565">
        <ele>103.291044</ele>
        <time>2026-08-18T09:57:18.000Z</time>
      </trkpt>
      <trkpt lat="22.785711" lon="111.531603">
        <ele>103.346402</ele>
        <time>2026-08-18T09:57:19.000Z</time>
      </trkpt>
      <trkpt lat="22.785712" lon="111.531643">
        <ele>103.404319</ele>
        <time>2026-08-18T09:57:20.000Z</time>
      </trkpt>
      <trkpt lat="22.785715" lon="111.531683">
        <ele>103.462406</ele>
        <time>2026-08-18T09:57:21.000Z</time>
      </trkpt>
      <trkpt lat="22.785720" lon="111.531723">
        <ele>103.520831</ele>
        <time>2026-08-18T09:57:22.000Z</time>
      </trkpt>
      <trkpt lat="22.785724" lon="111.531765">
        <ele>103.581945</ele>
        <time>2026-08-18T09:57:23.000Z</time>
      </trkpt>
      <trkpt lat="22.785731" lon="111.531808">
        <ele>103.645145</ele>
        <time>2026-08-18T09:57:24.000Z</time>
      </trkpt>
      <trkpt lat="22.785736" lon="111.531851">
        <ele>103.707876</ele>
        <time>2026-08-18T09:57:25.000Z</time>
      </trkpt>
      <trkpt lat="22.785738" lon="111.531896">
        <ele>103.773084</ele>
        <time>2026-08-18T09:57:26.000Z</time>
      </trkpt>
      <trkpt lat="22.785742" lon="111.531940">
        <ele>103.837078</ele>
        <time>2026-08-18T09:57:27.000Z</time>
      </trkpt>
      <trkpt lat="22.785748" lon="111.531984">
        <ele>103.901457</ele>
        <time>2026-08-18T09:57:28.000Z</time>
      </trkpt>
      <trkpt lat="22.785756" lon="111.532029">
        <ele>103.967789</ele>
        <time>2026-08-18T09:57:29.000Z</time>
      </trkpt>
      <trkpt lat="22.785762" lon="111.532073">
        <ele>104.032167</ele>
        <time>2026-08-18T09:57:30.000Z</time>
      </trkpt>
      <trkpt lat="22.785767" lon="111.532118">
        <ele>104.097771</ele>
        <time>2026-08-18T09:57:31.000Z</time>
      </trkpt>
      <trkpt lat="22.785774" lon="111.532161">
        <ele>104.160971</ele>
        <time>2026-08-18T09:57:32.000Z</time>
      </trkpt>
      <trkpt lat="22.785779" lon="111.532206">
        <ele>104.226575</ele>
        <time>2026-08-18T09:57:33.000Z</time>
      </trkpt>
      <trkpt lat="22.785785" lon="111.532250">
        <ele>104.290953</ele>
        <time>2026-08-18T09:57:34.000Z</time>
      </trkpt>
      <trkpt lat="22.785790" lon="111.532295">
        <ele>104.356557</ele>
        <time>2026-08-18T09:57:35.000Z</time>
      </trkpt>
      <trkpt lat="22.785796" lon="111.532339">
        <ele>104.420935</ele>
        <time>2026-08-18T09:57:36.000Z</time>
      </trkpt>
      <trkpt lat="22.785800" lon="111.532384">
        <ele>104.486370</ele>
        <time>2026-08-18T09:57:37.000Z</time>
      </trkpt>
      <trkpt lat="22.785803" lon="111.532429">
        <ele>104.551672</ele>
        <time>2026-08-18T09:57:38.000Z</time>
      </trkpt>
      <trkpt lat="22.785807" lon="111.532473">
        <ele>104.615666</ele>
        <time>2026-08-18T09:57:39.000Z</time>
      </trkpt>
      <trkpt lat="22.785811" lon="111.532518">
        <ele>104.662285</ele>
        <time>2026-08-18T09:57:40.000Z</time>
      </trkpt>
      <trkpt lat="22.785816" lon="111.532562">
        <ele>104.662048</ele>
        <time>2026-08-18T09:57:41.000Z</time>
      </trkpt>
      <trkpt lat="22.785822" lon="111.532606">
        <ele>104.661810</ele>
        <time>2026-08-18T09:57:42.000Z</time>
      </trkpt>
      <trkpt lat="22.785826" lon="111.532653">
        <ele>104.661557</ele>
        <time>2026-08-18T09:57:43.000Z</time>
      </trkpt>
      <trkpt lat="22.785833" lon="111.532698">
        <ele>104.661312</ele>
        <time>2026-08-18T09:57:44.000Z</time>
      </trkpt>
      <trkpt lat="22.785840" lon="111.532744">
        <ele>104.661063</ele>
        <time>2026-08-18T09:57:45.000Z</time>
      </trkpt>
      <trkpt lat="22.785846" lon="111.532792">
        <ele>104.660803</ele>
        <time>2026-08-18T09:57:46.000Z</time>
      </trkpt>
      <trkpt lat="22.785851" lon="111.532839">
        <ele>104.660550</ele>
        <time>2026-08-18T09:57:47.000Z</time>
      </trkpt>
      <trkpt lat="22.785857" lon="111.532888">
        <ele>104.660285</ele>
        <time>2026-08-18T09:57:48.000Z</time>
      </trkpt>
      <trkpt lat="22.785864" lon="111.532935">
        <ele>104.660030</ele>
        <time>2026-08-18T09:57:49.000Z</time>
      </trkpt>
      <trkpt lat="22.785872" lon="111.532984">
        <ele>104.659764</ele>
        <time>2026-08-18T09:57:50.000Z</time>
      </trkpt>
      <trkpt lat="22.785876" lon="111.533035">
        <ele>104.659489</ele>
        <time>2026-08-18T09:57:51.000Z</time>
      </trkpt>
      <trkpt lat="22.785883" lon="111.533086">
        <ele>104.659213</ele>
        <time>2026-08-18T09:57:52.000Z</time>
      </trkpt>
      <trkpt lat="22.785890" lon="111.533137">
        <ele>104.658937</ele>
        <time>2026-08-18T09:57:53.000Z</time>
      </trkpt>
      <trkpt lat="22.785897" lon="111.533186">
        <ele>104.658672</ele>
        <time>2026-08-18T09:57:54.000Z</time>
      </trkpt>
      <trkpt lat="22.785905" lon="111.533232">
        <ele>104.658421</ele>
        <time>2026-08-18T09:57:55.000Z</time>
      </trkpt>
      <trkpt lat="22.785912" lon="111.533279">
        <ele>104.658166</ele>
        <time>2026-08-18T09:57:56.000Z</time>
      </trkpt>
      <trkpt lat="22.785918" lon="111.533326">
        <ele>104.657912</ele>
        <time>2026-08-18T09:57:57.000Z</time>
      </trkpt>
      <trkpt lat="22.785923" lon="111.533374">
        <ele>104.657653</ele>
        <time>2026-08-18T09:57:58.000Z</time>
      </trkpt>
      <trkpt lat="22.785928" lon="111.533423">
        <ele>104.657389</ele>
        <time>2026-08-18T09:57:59.000Z</time>
      </trkpt>
      <trkpt lat="22.785932" lon="111.533472">
        <ele>104.657125</ele>
        <time>2026-08-18T09:58:00.000Z</time>
      </trkpt>
      <trkpt lat="22.785937" lon="111.533521">
        <ele>104.656861</ele>
        <time>2026-08-18T09:58:01.000Z</time>
      </trkpt>
      <trkpt lat="22.785941" lon="111.533570">
        <ele>104.656598</ele>
        <time>2026-08-18T09:58:02.000Z</time>
      </trkpt>
      <trkpt lat="22.785946" lon="111.533622">
        <ele>104.656318</ele>
        <time>2026-08-18T09:58:03.000Z</time>
      </trkpt>
      <trkpt lat="22.785951" lon="111.533673">
        <ele>104.656043</ele>
        <time>2026-08-18T09:58:04.000Z</time>
      </trkpt>
      <trkpt lat="22.785955" lon="111.533727">
        <ele>104.655753</ele>
        <time>2026-08-18T09:58:05.000Z</time>
      </trkpt>
      <trkpt lat="22.785957" lon="111.533779">
        <ele>104.655474</ele>
        <time>2026-08-18T09:58:06.000Z</time>
      </trkpt>
      <trkpt lat="22.785961" lon="111.533829">
        <ele>104.655205</ele>
        <time>2026-08-18T09:58:07.000Z</time>
      </trkpt>
      <trkpt lat="22.785968" lon="111.533882">
        <ele>104.654919</ele>
        <time>2026-08-18T09:58:08.000Z</time>
      </trkpt>
      <trkpt lat="22.785972" lon="111.533934">
        <ele>104.654639</ele>
        <time>2026-08-18T09:58:09.000Z</time>
      </trkpt>
      <trkpt lat="22.785977" lon="111.533985">
        <ele>104.654365</ele>
        <time>2026-08-18T09:58:10.000Z</time>
      </trkpt>
      <trkpt lat="22.785980" lon="111.534037">
        <ele>104.654085</ele>
        <time>2026-08-18T09:58:11.000Z</time>
      </trkpt>
      <trkpt lat="22.785985" lon="111.534087">
        <ele>104.653816</ele>
        <time>2026-08-18T09:58:12.000Z</time>
      </trkpt>
      <trkpt lat="22.785992" lon="111.534137">
        <ele>104.653545</ele>
        <time>2026-08-18T09:58:13.000Z</time>
      </trkpt>
      <trkpt lat="22.785998" lon="111.534188">
        <ele>104.653270</ele>
        <time>2026-08-18T09:58:14.000Z</time>
      </trkpt>
      <trkpt lat="22.786003" lon="111.534239">
        <ele>104.652995</ele>
        <time>2026-08-18T09:58:15.000Z</time>
      </trkpt>
      <trkpt lat="22.786004" lon="111.534289">
        <ele>104.652727</ele>
        <time>2026-08-18T09:58:16.000Z</time>
      </trkpt>
      <trkpt lat="22.786008" lon="111.534342">
        <ele>104.652442</ele>
        <time>2026-08-18T09:58:17.000Z</time>
      </trkpt>
      <trkpt lat="22.786014" lon="111.534396">
        <ele>104.652151</ele>
        <time>2026-08-18T09:58:18.000Z</time>
      </trkpt>
      <trkpt lat="22.786020" lon="111.534450">
        <ele>104.644888</ele>
        <time>2026-08-18T09:58:19.000Z</time>
      </trkpt>
      <trkpt lat="22.786025" lon="111.534504">
        <ele>104.600371</ele>
        <time>2026-08-18T09:58:20.000Z</time>
      </trkpt>
      <trkpt lat="22.786034" lon="111.534556">
        <ele>104.556972</ele>
        <time>2026-08-18T09:58:21.000Z</time>
      </trkpt>
      <trkpt lat="22.786040" lon="111.534607">
        <ele>104.514799</ele>
        <time>2026-08-18T09:58:22.000Z</time>
      </trkpt>
      <trkpt lat="22.786041" lon="111.534661">
        <ele>104.470496</ele>
        <time>2026-08-18T09:58:23.000Z</time>
      </trkpt>
      <trkpt lat="22.786045" lon="111.534717">
        <ele>104.424423</ele>
        <time>2026-08-18T09:58:24.000Z</time>
      </trkpt>
      <trkpt lat="22.786055" lon="111.534777">
        <ele>104.374409</ele>
        <time>2026-08-18T09:58:25.000Z</time>
      </trkpt>
      <trkpt lat="22.786061" lon="111.534835">
        <ele>104.326535</ele>
        <time>2026-08-18T09:58:26.000Z</time>
      </trkpt>
      <trkpt lat="22.786068" lon="111.534892">
        <ele>104.279367</ele>
        <time>2026-08-18T09:58:27.000Z</time>
      </trkpt>
      <trkpt lat="22.786080" lon="111.534954">
        <ele>104.227402</ele>
        <time>2026-08-18T09:58:28.000Z</time>
      </trkpt>
      <trkpt lat="22.786089" lon="111.535016">
        <ele>104.175919</ele>
        <time>2026-08-18T09:58:29.000Z</time>
      </trkpt>
      <trkpt lat="22.786100" lon="111.535081">
        <ele>104.121711</ele>
        <time>2026-08-18T09:58:30.000Z</time>
      </trkpt>
      <trkpt lat="22.786107" lon="111.535139">
        <ele>104.073730</ele>
        <time>2026-08-18T09:58:31.000Z</time>
      </trkpt>
      <trkpt lat="22.786115" lon="111.535201">
        <ele>104.022377</ele>
        <time>2026-08-18T09:58:32.000Z</time>
      </trkpt>
      <trkpt lat="22.786119" lon="111.535264">
        <ele>103.970578</ele>
        <time>2026-08-18T09:58:33.000Z</time>
      </trkpt>
      <trkpt lat="22.786127" lon="111.535329">
        <ele>103.916788</ele>
        <time>2026-08-18T09:58:34.000Z</time>
      </trkpt>
      <trkpt lat="22.786134" lon="111.535393">
        <ele>103.863923</ele>
        <time>2026-08-18T09:58:35.000Z</time>
      </trkpt>
      <trkpt lat="22.786136" lon="111.535453">
        <ele>103.814675</ele>
        <time>2026-08-18T09:58:36.000Z</time>
      </trkpt>
      <trkpt lat="22.786146" lon="111.535514">
        <ele>103.763854</ele>
        <time>2026-08-18T09:58:37.000Z</time>
      </trkpt>
      <trkpt lat="22.786149" lon="111.535579">
        <ele>103.710470</ele>
        <time>2026-08-18T09:58:38.000Z</time>
      </trkpt>
      <trkpt lat="22.786156" lon="111.535644">
        <ele>103.656790</ele>
        <time>2026-08-18T09:58:39.000Z</time>
      </trkpt>
      <trkpt lat="22.786167" lon="111.535709">
        <ele>103.602582</ele>
        <time>2026-08-18T09:58:40.000Z</time>
      </trkpt>
      <trkpt lat="22.786176" lon="111.535779">
        <ele>103.544607</ele>
        <time>2026-08-18T09:58:41.000Z</time>
      </trkpt>
      <trkpt lat="22.786184" lon="111.535841">
        <ele>103.493255</ele>
        <time>2026-08-18T09:58:42.000Z</time>
      </trkpt>
      <trkpt lat="22.786193" lon="111.535904">
        <ele>103.440962</ele>
        <time>2026-08-18T09:58:43.000Z</time>
      </trkpt>
      <trkpt lat="22.786204" lon="111.535967">
        <ele>103.388367</ele>
        <time>2026-08-18T09:58:44.000Z</time>
      </trkpt>
      <trkpt lat="22.786214" lon="111.536029">
        <ele>103.336738</ele>
        <time>2026-08-18T09:58:45.000Z</time>
      </trkpt>
      <trkpt lat="22.786221" lon="111.536089">
        <ele>103.287129</ele>
        <time>2026-08-18T09:58:46.000Z</time>
      </trkpt>
      <trkpt lat="22.786228" lon="111.536149">
        <ele>103.237521</ele>
        <time>2026-08-18T09:58:47.000Z</time>
      </trkpt>
      <trkpt lat="22.786233" lon="111.536212">
        <ele>103.185653</ele>
        <time>2026-08-18T09:58:48.000Z</time>
      </trkpt>
      <trkpt lat="22.786242" lon="111.536269">
        <ele>103.138217</ele>
        <time>2026-08-18T09:58:49.000Z</time>
      </trkpt>
      <trkpt lat="22.786247" lon="111.536329">
        <ele>103.088801</ele>
        <time>2026-08-18T09:58:50.000Z</time>
      </trkpt>
      <trkpt lat="22.786255" lon="111.536395">
        <ele>103.064213</ele>
        <time>2026-08-18T09:58:51.000Z</time>
      </trkpt>
      <trkpt lat="22.786254" lon="111.536459">
        <ele>103.102003</ele>
        <time>2026-08-18T09:58:52.000Z</time>
      </trkpt>
      <trkpt lat="22.786258" lon="111.536529">
        <ele>103.143410</ele>
        <time>2026-08-18T09:58:53.000Z</time>
      </trkpt>
      <trkpt lat="22.786264" lon="111.536598">
        <ele>103.184327</ele>
        <time>2026-08-18T09:58:54.000Z</time>
      </trkpt>
      <trkpt lat="22.786271" lon="111.536663">
        <ele>103.222963</ele>
        <time>2026-08-18T09:58:55.000Z</time>
      </trkpt>
      <trkpt lat="22.786277" lon="111.536728">
        <ele>103.261530</ele>
        <time>2026-08-18T09:58:56.000Z</time>
      </trkpt>
      <trkpt lat="22.786284" lon="111.536794">
        <ele>103.300753</ele>
        <time>2026-08-18T09:58:57.000Z</time>
      </trkpt>
      <trkpt lat="22.786295" lon="111.536857">
        <ele>103.338609</ele>
        <time>2026-08-18T09:58:58.000Z</time>
      </trkpt>
      <trkpt lat="22.786301" lon="111.536922">
        <ele>103.377176</ele>
        <time>2026-08-18T09:58:59.000Z</time>
      </trkpt>
      <trkpt lat="22.786307" lon="111.536987">
        <ele>103.415743</ele>
        <time>2026-08-18T09:59:00.000Z</time>
      </trkpt>
      <trkpt lat="22.786315" lon="111.537055">
        <ele>103.456215</ele>
        <time>2026-08-18T09:59:01.000Z</time>
      </trkpt>
      <trkpt lat="22.786323" lon="111.537121">
        <ele>103.495516</ele>
        <time>2026-08-18T09:59:02.000Z</time>
      </trkpt>
      <trkpt lat="22.786332" lon="111.537185">
        <ele>103.533738</ele>
        <time>2026-08-18T09:59:03.000Z</time>
      </trkpt>
      <trkpt lat="22.786339" lon="111.537249">
        <ele>103.571788</ele>
        <time>2026-08-18T09:59:04.000Z</time>
      </trkpt>
      <trkpt lat="22.786348" lon="111.537311">
        <ele>103.608843</ele>
        <time>2026-08-18T09:59:05.000Z</time>
      </trkpt>
      <trkpt lat="22.786353" lon="111.537375">
        <ele>103.646763</ele>
        <time>2026-08-18T09:59:06.000Z</time>
      </trkpt>
      <trkpt lat="22.786361" lon="111.537439">
        <ele>103.684894</ele>
        <time>2026-08-18T09:59:07.000Z</time>
      </trkpt>
      <trkpt lat="22.786370" lon="111.537502">
        <ele>103.722532</ele>
        <time>2026-08-18T09:59:08.000Z</time>
      </trkpt>
      <trkpt lat="22.786379" lon="111.537564">
        <ele>103.759587</ele>
        <time>2026-08-18T09:59:09.000Z</time>
      </trkpt>
      <trkpt lat="22.786386" lon="111.537625">
        <ele>103.795879</ele>
        <time>2026-08-18T09:59:10.000Z</time>
      </trkpt>
      <trkpt lat="22.786399" lon="111.537685">
        <ele>103.832267</ele>
        <time>2026-08-18T09:59:11.000Z</time>
      </trkpt>
      <trkpt lat="22.786407" lon="111.537745">
        <ele>103.868059</ele>
        <time>2026-08-18T09:59:12.000Z</time>
      </trkpt>
      <trkpt lat="22.786412" lon="111.537803">
        <ele>103.902451</ele>
        <time>2026-08-18T09:59:13.000Z</time>
      </trkpt>
      <trkpt lat="22.786420" lon="111.537861">
        <ele>103.937074</ele>
        <time>2026-08-18T09:59:14.000Z</time>
      </trkpt>
      <trkpt lat="22.786428" lon="111.537918">
        <ele>103.971114</ele>
        <time>2026-08-18T09:59:15.000Z</time>
      </trkpt>
      <trkpt lat="22.786432" lon="111.537975">
        <ele>104.004863</ele>
        <time>2026-08-18T09:59:16.000Z</time>
      </trkpt>
      <trkpt lat="22.786439" lon="111.538029">
        <ele>104.037058</ele>
        <time>2026-08-18T09:59:17.000Z</time>
      </trkpt>
      <trkpt lat="22.786447" lon="111.538083">
        <ele>104.069348</ele>
        <time>2026-08-18T09:59:18.000Z</time>
      </trkpt>
      <trkpt lat="22.786454" lon="111.538139">
        <ele>104.102712</ele>
        <time>2026-08-18T09:59:19.000Z</time>
      </trkpt>
      <trkpt lat="22.786462" lon="111.538196">
        <ele>104.136752</ele>
        <time>2026-08-18T09:59:20.000Z</time>
      </trkpt>
      <trkpt lat="22.786469" lon="111.538253">
        <ele>104.170701</ele>
        <time>2026-08-18T09:59:21.000Z</time>
      </trkpt>
      <trkpt lat="22.786477" lon="111.538309">
        <ele>104.204844</ele>
        <time>2026-08-18T09:59:22.000Z</time>
      </trkpt>
      <trkpt lat="22.786485" lon="111.538363">
        <ele>104.268009</ele>
        <time>2026-08-18T09:59:23.000Z</time>
      </trkpt>
      <trkpt lat="22.786493" lon="111.538416">
        <ele>104.330033</ele>
        <time>2026-08-18T09:59:24.000Z</time>
      </trkpt>
      <trkpt lat="22.786500" lon="111.538469">
        <ele>104.391868</ele>
        <time>2026-08-18T09:59:25.000Z</time>
      </trkpt>
      <trkpt lat="22.786504" lon="111.538522">
        <ele>104.453282</ele>
        <time>2026-08-18T09:59:26.000Z</time>
      </trkpt>
      <trkpt lat="22.786506" lon="111.538574">
        <ele>104.513389</ele>
        <time>2026-08-18T09:59:27.000Z</time>
      </trkpt>
      <trkpt lat="22.786512" lon="111.538625">
        <ele>104.572767</ele>
        <time>2026-08-18T09:59:28.000Z</time>
      </trkpt>
      <trkpt lat="22.786518" lon="111.538677">
        <ele>104.633290</ele>
        <time>2026-08-18T09:59:29.000Z</time>
      </trkpt>
      <trkpt lat="22.786522" lon="111.538728">
        <ele>104.692402</ele>
        <time>2026-08-18T09:59:30.000Z</time>
      </trkpt>
      <trkpt lat="22.786527" lon="111.538780">
        <ele>104.752783</ele>
        <time>2026-08-18T09:59:31.000Z</time>
      </trkpt>
      <trkpt lat="22.786532" lon="111.538831">
        <ele>104.812015</ele>
        <time>2026-08-18T09:59:32.000Z</time>
      </trkpt>
      <trkpt lat="22.786537" lon="111.538882">
        <ele>104.871247</ele>
        <time>2026-08-18T09:59:33.000Z</time>
      </trkpt>
      <trkpt lat="22.786542" lon="111.538934">
        <ele>104.931627</ele>
        <time>2026-08-18T09:59:34.000Z</time>
      </trkpt>
      <trkpt lat="22.786547" lon="111.538987">
        <ele>104.993156</ele>
        <time>2026-08-18T09:59:35.000Z</time>
      </trkpt>
      <trkpt lat="22.786554" lon="111.539037">
        <ele>105.051563</ele>
        <time>2026-08-18T09:59:36.000Z</time>
      </trkpt>
      <trkpt lat="22.786560" lon="111.539088">
        <ele>105.110941</ele>
        <time>2026-08-18T09:59:37.000Z</time>
      </trkpt>
      <trkpt lat="22.786566" lon="111.539138">
        <ele>105.169173</ele>
        <time>2026-08-18T09:59:38.000Z</time>
      </trkpt>
      <trkpt lat="22.786570" lon="111.539188">
        <ele>105.227135</ele>
        <time>2026-08-18T09:59:39.000Z</time>
      </trkpt>
      <trkpt lat="22.786575" lon="111.539236">
        <ele>105.282922</ele>
        <time>2026-08-18T09:59:40.000Z</time>
      </trkpt>
      <trkpt lat="22.786579" lon="111.539285">
        <ele>105.339734</ele>
        <time>2026-08-18T09:59:41.000Z</time>
      </trkpt>
      <trkpt lat="22.786584" lon="111.539333">
        <ele>105.395522</ele>
        <time>2026-08-18T09:59:42.000Z</time>
      </trkpt>
      <trkpt lat="22.786590" lon="111.539382">
        <ele>105.452609</ele>
        <time>2026-08-18T09:59:43.000Z</time>
      </trkpt>
      <trkpt lat="22.786598" lon="111.539428">
        <ele>105.506671</ele>
        <time>2026-08-18T09:59:44.000Z</time>
      </trkpt>
      <trkpt lat="22.786604" lon="111.539476">
        <ele>105.562613</ele>
        <time>2026-08-18T09:59:45.000Z</time>
      </trkpt>
      <trkpt lat="22.786610" lon="111.539523">
        <ele>105.617411</ele>
        <time>2026-08-18T09:59:46.000Z</time>
      </trkpt>
      <trkpt lat="22.786616" lon="111.539573">
        <ele>105.675643</ele>
        <time>2026-08-18T09:59:47.000Z</time>
      </trkpt>
      <trkpt lat="22.786620" lon="111.539622">
        <ele>105.732455</ele>
        <time>2026-08-18T09:59:48.000Z</time>
      </trkpt>
      <trkpt lat="22.786626" lon="111.539669">
        <ele>105.787253</ele>
        <time>2026-08-18T09:59:49.000Z</time>
      </trkpt>
      <trkpt lat="22.786630" lon="111.539718">
        <ele>105.844064</ele>
        <time>2026-08-18T09:59:50.000Z</time>
      </trkpt>
      <trkpt lat="22.786636" lon="111.539768">
        <ele>105.902296</ele>
        <time>2026-08-18T09:59:51.000Z</time>
      </trkpt>
      <trkpt lat="22.786641" lon="111.539815">
        <ele>105.956937</ele>
        <time>2026-08-18T09:59:52.000Z</time>
      </trkpt>
      <trkpt lat="22.786643" lon="111.539859">
        <ele>106.007814</ele>
        <time>2026-08-18T09:59:53.000Z</time>
      </trkpt>
      <trkpt lat="22.786650" lon="111.539902">
        <ele>106.058243</ele>
        <time>2026-08-18T09:59:54.000Z</time>
      </trkpt>
      <trkpt lat="22.786655" lon="111.539950">
        <ele>106.114030</ele>
        <time>2026-08-18T09:59:55.000Z</time>
      </trkpt>
      <trkpt lat="22.786659" lon="111.540000">
        <ele>106.171992</ele>
        <time>2026-08-18T09:59:56.000Z</time>
      </trkpt>
      <trkpt lat="22.786666" lon="111.540049">
        <ele>106.229258</ele>
        <time>2026-08-18T09:59:57.000Z</time>
      </trkpt>
      <trkpt lat="22.786674" lon="111.540097">
        <ele>106.285591</ele>
        <time>2026-08-18T09:59:58.000Z</time>
      </trkpt>
      <trkpt lat="22.786680" lon="111.540145">
        <ele>106.341533</ele>
        <time>2026-08-18T09:59:59.000Z</time>
      </trkpt>
      <trkpt lat="22.786684" lon="111.540192">
        <ele>106.396044</ele>
        <time>2026-08-18T10:00:00.000Z</time>
      </trkpt>
      <trkpt lat="22.786690" lon="111.540239">
        <ele>106.450842</ele>
        <time>2026-08-18T10:00:01.000Z</time>
      </trkpt>
      <trkpt lat="22.786696" lon="111.540288">
        <ele>106.531559</ele>
        <time>2026-08-18T10:00:02.000Z</time>
      </trkpt>
      <trkpt lat="22.786702" lon="111.540337">
        <ele>106.614893</ele>
        <time>2026-08-18T10:00:03.000Z</time>
      </trkpt>
      <trkpt lat="22.786708" lon="111.540385">
        <ele>106.696556</ele>
        <time>2026-08-18T10:00:04.000Z</time>
      </trkpt>
      <trkpt lat="22.786713" lon="111.540433">
        <ele>106.777993</ele>
        <time>2026-08-18T10:00:05.000Z</time>
      </trkpt>
      <trkpt lat="22.786718" lon="111.540481">
        <ele>106.859431</ele>
        <time>2026-08-18T10:00:06.000Z</time>
      </trkpt>
      <trkpt lat="22.786724" lon="111.540529">
        <ele>106.941094</ele>
        <time>2026-08-18T10:00:07.000Z</time>
      </trkpt>
      <trkpt lat="22.786730" lon="111.540578">
        <ele>107.024428</ele>
        <time>2026-08-18T10:00:08.000Z</time>
      </trkpt>
      <trkpt lat="22.786737" lon="111.540626">
        <ele>107.106356</ele>
        <time>2026-08-18T10:00:09.000Z</time>
      </trkpt>
      <trkpt lat="22.786745" lon="111.540675">
        <ele>107.190250</ele>
        <time>2026-08-18T10:00:10.000Z</time>
      </trkpt>
      <trkpt lat="22.786752" lon="111.540726">
        <ele>107.277178</ele>
        <time>2026-08-18T10:00:11.000Z</time>
      </trkpt>
      <trkpt lat="22.786758" lon="111.540774">
        <ele>107.358841</ele>
        <time>2026-08-18T10:00:12.000Z</time>
      </trkpt>
      <trkpt lat="22.786763" lon="111.540824">
        <ele>107.443630</ele>
        <time>2026-08-18T10:00:13.000Z</time>
      </trkpt>
      <trkpt lat="22.786770" lon="111.540875">
        <ele>107.530557</ele>
        <time>2026-08-18T10:00:14.000Z</time>
      </trkpt>
      <trkpt lat="22.786775" lon="111.540927">
        <ele>107.618699</ele>
        <time>2026-08-18T10:00:15.000Z</time>
      </trkpt>
      <trkpt lat="22.786780" lon="111.540976">
        <ele>107.701812</ele>
        <time>2026-08-18T10:00:16.000Z</time>
      </trkpt>
      <trkpt lat="22.786785" lon="111.541026">
        <ele>107.786601</ele>
        <time>2026-08-18T10:00:17.000Z</time>
      </trkpt>
      <trkpt lat="22.786790" lon="111.541074">
        <ele>107.868038</ele>
        <time>2026-08-18T10:00:18.000Z</time>
      </trkpt>
      <trkpt lat="22.786795" lon="111.541122">
        <ele>107.949475</ele>
        <time>2026-08-18T10:00:19.000Z</time>
      </trkpt>
      <trkpt lat="22.786799" lon="111.541169">
        <ele>108.029049</ele>
        <time>2026-08-18T10:00:20.000Z</time>
      </trkpt>
      <trkpt lat="22.786805" lon="111.541216">
        <ele>108.109042</ele>
        <time>2026-08-18T10:00:21.000Z</time>
      </trkpt>
      <trkpt lat="22.786808" lon="111.541264">
        <ele>108.190150</ele>
        <time>2026-08-18T10:00:22.000Z</time>
      </trkpt>
      <trkpt lat="22.786802" lon="111.541313">
        <ele>108.273484</ele>
        <time>2026-08-18T10:00:23.000Z</time>
      </trkpt>
      <trkpt lat="22.786786" lon="111.541358">
        <ele>108.354795</ele>
        <time>2026-08-18T10:00:24.000Z</time>
      </trkpt>
      <trkpt lat="22.786766" lon="111.541408">
        <ele>108.446681</ele>
        <time>2026-08-18T10:00:25.000Z</time>
      </trkpt>
      <trkpt lat="22.786746" lon="111.541458">
        <ele>108.538567</ele>
        <time>2026-08-18T10:00:26.000Z</time>
      </trkpt>
      <trkpt lat="22.786728" lon="111.541509">
        <ele>108.630632</ele>
        <time>2026-08-18T10:00:27.000Z</time>
      </trkpt>
      <trkpt lat="22.786712" lon="111.541561">
        <ele>108.723052</ele>
        <time>2026-08-18T10:00:28.000Z</time>
      </trkpt>
      <trkpt lat="22.786702" lon="111.541614">
        <ele>108.814256</ele>
        <time>2026-08-18T10:00:29.000Z</time>
      </trkpt>
      <trkpt lat="22.786695" lon="111.541663">
        <ele>108.897850</ele>
        <time>2026-08-18T10:00:30.000Z</time>
      </trkpt>
      <trkpt lat="22.786690" lon="111.541709">
        <ele>108.975938</ele>
        <time>2026-08-18T10:00:31.000Z</time>
      </trkpt>
      <trkpt lat="22.786689" lon="111.541752">
        <ele>109.048454</ele>
        <time>2026-08-18T10:00:32.000Z</time>
      </trkpt>
      <trkpt lat="22.786691" lon="111.541792">
        <ele>109.115989</ele>
        <time>2026-08-18T10:00:33.000Z</time>
      </trkpt>
      <trkpt lat="22.786692" lon="111.541834">
        <ele>109.186820</ele>
        <time>2026-08-18T10:00:34.000Z</time>
      </trkpt>
      <trkpt lat="22.786696" lon="111.541876">
        <ele>109.258004</ele>
        <time>2026-08-18T10:00:35.000Z</time>
      </trkpt>
      <trkpt lat="22.786701" lon="111.541915">
        <ele>109.324386</ele>
        <time>2026-08-18T10:00:36.000Z</time>
      </trkpt>
      <trkpt lat="22.786706" lon="111.541954">
        <ele>109.390768</ele>
        <time>2026-08-18T10:00:37.000Z</time>
      </trkpt>
      <trkpt lat="22.786714" lon="111.541991">
        <ele>109.454839</ele>
        <time>2026-08-18T10:00:38.000Z</time>
      </trkpt>
      <trkpt lat="22.786717" lon="111.542028">
        <ele>109.517457</ele>
        <time>2026-08-18T10:00:39.000Z</time>
      </trkpt>
      <trkpt lat="22.786721" lon="111.542065">
        <ele>109.580262</ele>
        <time>2026-08-18T10:00:40.000Z</time>
      </trkpt>
      <trkpt lat="22.786724" lon="111.542103">
        <ele>109.644560</ele>
        <time>2026-08-18T10:00:41.000Z</time>
      </trkpt>
      <trkpt lat="22.786729" lon="111.542141">
        <ele>109.709273</ele>
        <time>2026-08-18T10:00:42.000Z</time>
      </trkpt>
      <trkpt lat="22.786736" lon="111.542177">
        <ele>109.784379</ele>
        <time>2026-08-18T10:00:43.000Z</time>
      </trkpt>
      <trkpt lat="22.786740" lon="111.542214">
        <ele>109.879073</ele>
        <time>2026-08-18T10:00:44.000Z</time>
      </trkpt>
      <trkpt lat="22.786745" lon="111.542249">
        <ele>109.969100</ele>
        <time>2026-08-18T10:00:45.000Z</time>
      </trkpt>
      <trkpt lat="22.786749" lon="111.542283">
        <ele>110.056225</ele>
        <time>2026-08-18T10:00:46.000Z</time>
      </trkpt>
      <trkpt lat="22.786752" lon="111.542317">
        <ele>110.143043</ele>
        <time>2026-08-18T10:00:47.000Z</time>
      </trkpt>
      <trkpt lat="22.786756" lon="111.542351">
        <ele>110.230168</ele>
        <time>2026-08-18T10:00:48.000Z</time>
      </trkpt>
      <trkpt lat="22.786764" lon="111.542384">
        <ele>110.316901</ele>
        <time>2026-08-18T10:00:49.000Z</time>
      </trkpt>
      <trkpt lat="22.786772" lon="111.542418">
        <ele>110.406095</ele>
        <time>2026-08-18T10:00:50.000Z</time>
      </trkpt>
      <trkpt lat="22.786780" lon="111.542451">
        <ele>110.492828</ele>
        <time>2026-08-18T10:00:51.000Z</time>
      </trkpt>
      <trkpt lat="22.786786" lon="111.542484">
        <ele>110.578326</ele>
        <time>2026-08-18T10:00:52.000Z</time>
      </trkpt>
      <trkpt lat="22.786790" lon="111.542519">
        <ele>110.667972</ele>
        <time>2026-08-18T10:00:53.000Z</time>
      </trkpt>
      <trkpt lat="22.786794" lon="111.542553">
        <ele>110.755097</ele>
        <time>2026-08-18T10:00:54.000Z</time>
      </trkpt>
      <trkpt lat="22.786798" lon="111.542587">
        <ele>110.842221</ele>
        <time>2026-08-18T10:00:55.000Z</time>
      </trkpt>
      <trkpt lat="22.786804" lon="111.542620">
        <ele>110.927719</ele>
        <time>2026-08-18T10:00:56.000Z</time>
      </trkpt>
      <trkpt lat="22.786812" lon="111.542650">
        <ele>111.007101</ele>
        <time>2026-08-18T10:00:57.000Z</time>
      </trkpt>
      <trkpt lat="22.786819" lon="111.542683">
        <ele>111.093174</ele>
        <time>2026-08-18T10:00:58.000Z</time>
      </trkpt>
      <trkpt lat="22.786822" lon="111.542717">
        <ele>111.179993</ele>
        <time>2026-08-18T10:00:59.000Z</time>
      </trkpt>
      <trkpt lat="22.786827" lon="111.542748">
        <ele>111.259988</ele>
        <time>2026-08-18T10:01:00.000Z</time>
      </trkpt>
      <trkpt lat="22.786831" lon="111.542778">
        <ele>111.337037</ele>
        <time>2026-08-18T10:01:01.000Z</time>
      </trkpt>
      <trkpt lat="22.786835" lon="111.542807">
        <ele>111.411572</ele>
        <time>2026-08-18T10:01:02.000Z</time>
      </trkpt>
      <trkpt lat="22.786840" lon="111.542836">
        <ele>111.486564</ele>
        <time>2026-08-18T10:01:03.000Z</time>
      </trkpt>
      <trkpt lat="22.786845" lon="111.542865">
        <ele>111.561557</ele>
        <time>2026-08-18T10:01:04.000Z</time>
      </trkpt>
      <trkpt lat="22.786848" lon="111.542895">
        <ele>111.638260</ele>
        <time>2026-08-18T10:01:05.000Z</time>
      </trkpt>
      <trkpt lat="22.786854" lon="111.542924">
        <ele>111.713808</ele>
        <time>2026-08-18T10:01:06.000Z</time>
      </trkpt>
      <trkpt lat="22.786858" lon="111.542953">
        <ele>111.788342</ele>
        <time>2026-08-18T10:01:07.000Z</time>
      </trkpt>
      <trkpt lat="22.786864" lon="111.542981">
        <ele>111.861412</ele>
        <time>2026-08-18T10:01:08.000Z</time>
      </trkpt>
      <trkpt lat="22.786868" lon="111.543011">
        <ele>111.938462</ele>
        <time>2026-08-18T10:01:09.000Z</time>
      </trkpt>
      <trkpt lat="22.786872" lon="111.543041">
        <ele>112.015511</ele>
        <time>2026-08-18T10:01:10.000Z</time>
      </trkpt>
      <trkpt lat="22.786878" lon="111.543072">
        <ele>112.096027</ele>
        <time>2026-08-18T10:01:11.000Z</time>
      </trkpt>
      <trkpt lat="22.786882" lon="111.543104">
        <ele>112.178111</ele>
        <time>2026-08-18T10:01:12.000Z</time>
      </trkpt>
      <trkpt lat="22.786887" lon="111.543136">
        <ele>112.260611</ele>
        <time>2026-08-18T10:01:13.000Z</time>
      </trkpt>
      <trkpt lat="22.786890" lon="111.543168">
        <ele>112.342370</ele>
        <time>2026-08-18T10:01:14.000Z</time>
      </trkpt>
      <trkpt lat="22.786893" lon="111.543202">
        <ele>112.429189</ele>
        <time>2026-08-18T10:01:15.000Z</time>
      </trkpt>
      <trkpt lat="22.786899" lon="111.543236">
        <ele>112.517182</ele>
        <time>2026-08-18T10:01:16.000Z</time>
      </trkpt>
      <trkpt lat="22.786900" lon="111.543272">
        <ele>112.608730</ele>
        <time>2026-08-18T10:01:17.000Z</time>
      </trkpt>
      <trkpt lat="22.786904" lon="111.543306">
        <ele>112.695855</ele>
        <time>2026-08-18T10:01:18.000Z</time>
      </trkpt>
      <trkpt lat="22.786909" lon="111.543337">
        <ele>112.775850</ele>
        <time>2026-08-18T10:01:19.000Z</time>
      </trkpt>
      <trkpt lat="22.786914" lon="111.543368">
        <ele>112.855845</ele>
        <time>2026-08-18T10:01:20.000Z</time>
      </trkpt>
      <trkpt lat="22.786916" lon="111.543399">
        <ele>112.934835</ele>
        <time>2026-08-18T10:01:21.000Z</time>
      </trkpt>
      <trkpt lat="22.786920" lon="111.543431">
        <ele>113.016919</ele>
        <time>2026-08-18T10:01:22.000Z</time>
      </trkpt>
      <trkpt lat="22.786924" lon="111.543462">
        <ele>113.096485</ele>
        <time>2026-08-18T10:01:23.000Z</time>
      </trkpt>
      <trkpt lat="22.786926" lon="111.543494">
        <ele>113.178012</ele>
        <time>2026-08-18T10:01:24.000Z</time>
      </trkpt>
      <trkpt lat="22.786930" lon="111.543527">
        <ele>113.262616</ele>
        <time>2026-08-18T10:01:25.000Z</time>
      </trkpt>
      <trkpt lat="22.786933" lon="111.543561">
        <ele>113.349434</ele>
        <time>2026-08-18T10:01:26.000Z</time>
      </trkpt>
      <trkpt lat="22.786935" lon="111.543594">
        <ele>113.433497</ele>
        <time>2026-08-18T10:01:27.000Z</time>
      </trkpt>
      <trkpt lat="22.786938" lon="111.543626">
        <ele>113.515257</ele>
        <time>2026-08-18T10:01:28.000Z</time>
      </trkpt>
      <trkpt lat="22.786942" lon="111.543660">
        <ele>113.602381</ele>
        <time>2026-08-18T10:01:29.000Z</time>
      </trkpt>
      <trkpt lat="22.786947" lon="111.543694">
        <ele>113.689897</ele>
        <time>2026-08-18T10:01:30.000Z</time>
      </trkpt>
      <trkpt lat="22.786949" lon="111.543730">
        <ele>113.781571</ele>
        <time>2026-08-18T10:01:31.000Z</time>
      </trkpt>
      <trkpt lat="22.786949" lon="111.543767">
        <ele>113.875620</ele>
        <time>2026-08-18T10:01:32.000Z</time>
      </trkpt>
      <trkpt lat="22.786949" lon="111.543804">
        <ele>113.969669</ele>
        <time>2026-08-18T10:01:33.000Z</time>
      </trkpt>
      <trkpt lat="22.786950" lon="111.543843">
        <ele>114.068840</ele>
        <time>2026-08-18T10:01:34.000Z</time>
      </trkpt>
      <trkpt lat="22.786954" lon="111.543880">
        <ele>114.163534</ele>
        <time>2026-08-18T10:01:35.000Z</time>
      </trkpt>
      <trkpt lat="22.786955" lon="111.543916">
        <ele>114.255083</ele>
        <time>2026-08-18T10:01:36.000Z</time>
      </trkpt>
      <trkpt lat="22.786955" lon="111.543948">
        <ele>114.336423</ele>
        <time>2026-08-18T10:01:37.000Z</time>
      </trkpt>
      <trkpt lat="22.786954" lon="111.543982">
        <ele>114.422891</ele>
        <time>2026-08-18T10:01:38.000Z</time>
      </trkpt>
      <trkpt lat="22.786956" lon="111.544016">
        <ele>114.509490</ele>
        <time>2026-08-18T10:01:39.000Z</time>
      </trkpt>
      <trkpt lat="22.786958" lon="111.544051">
        <ele>114.598626</ele>
        <time>2026-08-18T10:01:40.000Z</time>
      </trkpt>
      <trkpt lat="22.786960" lon="111.544088">
        <ele>114.692837</ele>
        <time>2026-08-18T10:01:41.000Z</time>
      </trkpt>
      <trkpt lat="22.786960" lon="111.544127">
        <ele>114.683406</ele>
        <time>2026-08-18T10:01:42.000Z</time>
      </trkpt>
      <trkpt lat="22.786961" lon="111.544167">
        <ele>114.658872</ele>
        <time>2026-08-18T10:01:43.000Z</time>
      </trkpt>
      <trkpt lat="22.786963" lon="111.544207">
        <ele>114.634311</ele>
        <time>2026-08-18T10:01:44.000Z</time>
      </trkpt>
      <trkpt lat="22.786965" lon="111.544245">
        <ele>114.610974</ele>
        <time>2026-08-18T10:01:45.000Z</time>
      </trkpt>
      <trkpt lat="22.786969" lon="111.544284">
        <ele>114.586915</ele>
        <time>2026-08-18T10:01:46.000Z</time>
      </trkpt>
      <trkpt lat="22.786971" lon="111.544323">
        <ele>114.562966</ele>
        <time>2026-08-18T10:01:47.000Z</time>
      </trkpt>
      <trkpt lat="22.786971" lon="111.544361">
        <ele>114.539668</ele>
        <time>2026-08-18T10:01:48.000Z</time>
      </trkpt>
      <trkpt lat="22.786973" lon="111.544399">
        <ele>114.516331</ele>
        <time>2026-08-18T10:01:49.000Z</time>
      </trkpt>
      <trkpt lat="22.786976" lon="111.544437">
        <ele>114.492947</ele>
        <time>2026-08-18T10:01:50.000Z</time>
      </trkpt>
      <trkpt lat="22.786982" lon="111.544472">
        <ele>114.471120</ele>
        <time>2026-08-18T10:01:51.000Z</time>
      </trkpt>
      <trkpt lat="22.786988" lon="111.544507">
        <ele>114.449293</ele>
        <time>2026-08-18T10:01:52.000Z</time>
      </trkpt>
      <trkpt lat="22.786988" lon="111.544544">
        <ele>114.426608</ele>
        <time>2026-08-18T10:01:53.000Z</time>
      </trkpt>
      <trkpt lat="22.786987" lon="111.544580">
        <ele>114.404525</ele>
        <time>2026-08-18T10:01:54.000Z</time>
      </trkpt>
      <trkpt lat="22.786986" lon="111.544615">
        <ele>114.383056</ele>
        <time>2026-08-18T10:01:55.000Z</time>
      </trkpt>
      <trkpt lat="22.786986" lon="111.544649">
        <ele>114.362210</ele>
        <time>2026-08-18T10:01:56.000Z</time>
      </trkpt>
      <trkpt lat="22.786982" lon="111.544680">
        <ele>114.343017</ele>
        <time>2026-08-18T10:01:57.000Z</time>
      </trkpt>
      <trkpt lat="22.786976" lon="111.544711">
        <ele>114.323596</ele>
        <time>2026-08-18T10:01:58.000Z</time>
      </trkpt>
      <trkpt lat="22.786969" lon="111.544742">
        <ele>114.304028</ele>
        <time>2026-08-18T10:01:59.000Z</time>
      </trkpt>
      <trkpt lat="22.786957" lon="111.544768">
        <ele>114.286201</ele>
        <time>2026-08-18T10:02:00.000Z</time>
      </trkpt>
      <trkpt lat="22.786942" lon="111.544786">
        <ele>114.271324</ele>
        <time>2026-08-18T10:02:01.000Z</time>
      </trkpt>
      <trkpt lat="22.786926" lon="111.544797">
        <ele>114.258727</ele>
        <time>2026-08-18T10:02:02.000Z</time>
      </trkpt>
      <trkpt lat="22.786909" lon="111.544804">
        <ele>114.246634</ele>
        <time>2026-08-18T10:02:03.000Z</time>
      </trkpt>
      <trkpt lat="22.786894" lon="111.544806">
        <ele>114.236583</ele>
        <time>2026-08-18T10:02:04.000Z</time>
      </trkpt>
      <trkpt lat="22.786882" lon="111.544808">
        <ele>114.228509</ele>
        <time>2026-08-18T10:02:05.000Z</time>
      </trkpt>
      <trkpt lat="22.786872" lon="111.544809">
        <ele>114.221831</ele>
        <time>2026-08-18T10:02:06.000Z</time>
      </trkpt>
      <trkpt lat="22.786864" lon="111.544833">
        <ele>114.206184</ele>
        <time>2026-08-18T10:02:35.000Z</time>
      </trkpt>
      <trkpt lat="22.786871" lon="111.544851">
        <ele>114.194206</ele>
        <time>2026-08-18T10:02:36.000Z</time>
      </trkpt>
      <trkpt lat="22.786884" lon="111.544866">
        <ele>114.181584</ele>
        <time>2026-08-18T10:02:37.000Z</time>
      </trkpt>
      <trkpt lat="22.786896" lon="111.544882">
        <ele>114.168938</ele>
        <time>2026-08-18T10:02:38.000Z</time>
      </trkpt>
      <trkpt lat="22.786908" lon="111.544900">
        <ele>114.155318</ele>
        <time>2026-08-18T10:02:39.000Z</time>
      </trkpt>
      <trkpt lat="22.786914" lon="111.544922">
        <ele>114.141252</ele>
        <time>2026-08-18T10:02:40.000Z</time>
      </trkpt>
      <trkpt lat="22.786910" lon="111.544948">
        <ele>114.125090</ele>
        <time>2026-08-18T10:02:41.000Z</time>
      </trkpt>
      <trkpt lat="22.786901" lon="111.544980">
        <ele>114.104578</ele>
        <time>2026-08-18T10:02:42.000Z</time>
      </trkpt>
      <trkpt lat="22.786889" lon="111.545012">
        <ele>114.083397</ele>
        <time>2026-08-18T10:02:43.000Z</time>
      </trkpt>
      <trkpt lat="22.786876" lon="111.545048">
        <ele>114.059692</ele>
        <time>2026-08-18T10:02:44.000Z</time>
      </trkpt>
      <trkpt lat="22.786864" lon="111.545086">
        <ele>114.035064</ele>
        <time>2026-08-18T10:02:45.000Z</time>
      </trkpt>
      <trkpt lat="22.786852" lon="111.545124">
        <ele>114.010437</ele>
        <time>2026-08-18T10:02:46.000Z</time>
      </trkpt>
      <trkpt lat="22.786840" lon="111.545160">
        <ele>113.986966</ele>
        <time>2026-08-18T10:02:47.000Z</time>
      </trkpt>
      <trkpt lat="22.786830" lon="111.545195">
        <ele>113.964500</ele>
        <time>2026-08-18T10:02:48.000Z</time>
      </trkpt>
      <trkpt lat="22.786819" lon="111.545230">
        <ele>113.941828</ele>
        <time>2026-08-18T10:02:49.000Z</time>
      </trkpt>
      <trkpt lat="22.786809" lon="111.545260">
        <ele>113.922269</ele>
        <time>2026-08-18T10:02:50.000Z</time>
      </trkpt>
      <trkpt lat="22.786800" lon="111.545287">
        <ele>113.904666</ele>
        <time>2026-08-18T10:02:51.000Z</time>
      </trkpt>
      <trkpt lat="22.786794" lon="111.545308">
        <ele>113.891187</ele>
        <time>2026-08-18T10:02:52.000Z</time>
      </trkpt>
      <trkpt lat="22.786788" lon="111.545326">
        <ele>113.879451</ele>
        <time>2026-08-18T10:02:53.000Z</time>
      </trkpt>
      <trkpt lat="22.786786" lon="111.545340">
        <ele>113.870765</ele>
        <time>2026-08-18T10:02:54.000Z</time>
      </trkpt>
      <trkpt lat="22.786784" lon="111.545355">
        <ele>113.861473</ele>
        <time>2026-08-18T10:02:55.000Z</time>
      </trkpt>
      <trkpt lat="22.786780" lon="111.545371">
        <ele>113.851308</ele>
        <time>2026-08-18T10:02:56.000Z</time>
      </trkpt>
      <trkpt lat="22.786779" lon="111.545387">
        <ele>113.841476</ele>
        <time>2026-08-18T10:02:57.000Z</time>
      </trkpt>
      <trkpt lat="22.786785" lon="111.545402">
        <ele>113.831451</ele>
        <time>2026-08-18T10:02:58.000Z</time>
      </trkpt>
      <trkpt lat="22.786794" lon="111.545407">
        <ele>113.824726</ele>
        <time>2026-08-18T10:02:59.000Z</time>
      </trkpt>
      <trkpt lat="22.786803" lon="111.545404">
        <ele>113.818465</ele>
        <time>2026-08-18T10:03:00.000Z</time>
      </trkpt>
      <trkpt lat="22.786810" lon="111.545395">
        <ele>113.811245</ele>
        <time>2026-08-18T10:03:01.000Z</time>
      </trkpt>
      <trkpt lat="22.786816" lon="111.545387">
        <ele>113.804922</ele>
        <time>2026-08-18T10:03:02.000Z</time>
      </trkpt>
      <trkpt lat="22.786822" lon="111.545356">
        <ele>113.785501</ele>
        <time>2026-08-18T10:04:16.000Z</time>
      </trkpt>
      <trkpt lat="22.786811" lon="111.545365">
        <ele>113.776338</ele>
        <time>2026-08-18T10:04:17.000Z</time>
      </trkpt>
      <trkpt lat="22.786802" lon="111.545379">
        <ele>113.765873</ele>
        <time>2026-08-18T10:04:18.000Z</time>
      </trkpt>
      <trkpt lat="22.786792" lon="111.545398">
        <ele>113.752460</ele>
        <time>2026-08-18T10:04:19.000Z</time>
      </trkpt>
      <trkpt lat="22.786781" lon="111.545420">
        <ele>113.737115</ele>
        <time>2026-08-18T10:04:20.000Z</time>
      </trkpt>
      <trkpt lat="22.786771" lon="111.545443">
        <ele>113.721524</ele>
        <time>2026-08-18T10:04:21.000Z</time>
      </trkpt>
      <trkpt lat="22.786762" lon="111.545468">
        <ele>113.705069</ele>
        <time>2026-08-18T10:04:22.000Z</time>
      </trkpt>
      <trkpt lat="22.786753" lon="111.545494">
        <ele>113.688041</ele>
        <time>2026-08-18T10:04:23.000Z</time>
      </trkpt>
      <trkpt lat="22.786746" lon="111.545522">
        <ele>113.670253</ele>
        <time>2026-08-18T10:04:24.000Z</time>
      </trkpt>
      <trkpt lat="22.786739" lon="111.545550">
        <ele>113.652466</ele>
        <time>2026-08-18T10:04:25.000Z</time>
      </trkpt>
      <trkpt lat="22.786734" lon="111.545581">
        <ele>113.633170</ele>
        <time>2026-08-18T10:04:26.000Z</time>
      </trkpt>
      <trkpt lat="22.786727" lon="111.545614">
        <ele>113.612409</ele>
        <time>2026-08-18T10:04:27.000Z</time>
      </trkpt>
      <trkpt lat="22.786718" lon="111.545644">
        <ele>113.593066</ele>
        <time>2026-08-18T10:04:28.000Z</time>
      </trkpt>
      <trkpt lat="22.786706" lon="111.545674">
        <ele>113.573016</ele>
        <time>2026-08-18T10:04:29.000Z</time>
      </trkpt>
      <trkpt lat="22.786693" lon="111.545705">
        <ele>113.552135</ele>
        <time>2026-08-18T10:04:30.000Z</time>
      </trkpt>
      <trkpt lat="22.786680" lon="111.545739">
        <ele>113.529567</ele>
        <time>2026-08-18T10:04:31.000Z</time>
      </trkpt>
      <trkpt lat="22.786668" lon="111.545776">
        <ele>113.496610</ele>
        <time>2026-08-18T10:04:32.000Z</time>
      </trkpt>
      <trkpt lat="22.786658" lon="111.545816">
        <ele>113.391482</ele>
        <time>2026-08-18T10:04:33.000Z</time>
      </trkpt>
      <trkpt lat="22.786647" lon="111.545857">
        <ele>113.283168</ele>
        <time>2026-08-18T10:04:34.000Z</time>
      </trkpt>
      <trkpt lat="22.786636" lon="111.545900">
        <ele>113.169974</ele>
        <time>2026-08-18T10:04:35.000Z</time>
      </trkpt>
      <trkpt lat="22.786623" lon="111.545946">
        <ele>113.047931</ele>
        <time>2026-08-18T10:04:36.000Z</time>
      </trkpt>
      <trkpt lat="22.786608" lon="111.545995">
        <ele>112.916966</ele>
        <time>2026-08-18T10:04:37.000Z</time>
      </trkpt>
      <trkpt lat="22.786593" lon="111.546045">
        <ele>112.783591</ele>
        <time>2026-08-18T10:04:38.000Z</time>
      </trkpt>
      <trkpt lat="22.786577" lon="111.546096">
        <ele>112.646940</ele>
        <time>2026-08-18T10:04:39.000Z</time>
      </trkpt>
      <trkpt lat="22.786561" lon="111.546147">
        <ele>112.510289</ele>
        <time>2026-08-18T10:04:40.000Z</time>
      </trkpt>
      <trkpt lat="22.786544" lon="111.546199">
        <ele>112.370338</ele>
        <time>2026-08-18T10:04:41.000Z</time>
      </trkpt>
      <trkpt lat="22.786528" lon="111.546254">
        <ele>112.224045</ele>
        <time>2026-08-18T10:04:42.000Z</time>
      </trkpt>
      <trkpt lat="22.786511" lon="111.546310">
        <ele>112.074494</ele>
        <time>2026-08-18T10:04:43.000Z</time>
      </trkpt>
      <trkpt lat="22.786494" lon="111.546367">
        <ele>111.922531</ele>
        <time>2026-08-18T10:04:44.000Z</time>
      </trkpt>
      <trkpt lat="22.786475" lon="111.546425">
        <ele>111.766397</ele>
        <time>2026-08-18T10:04:45.000Z</time>
      </trkpt>
      <trkpt lat="22.786454" lon="111.546486">
        <ele>111.601229</ele>
        <time>2026-08-18T10:04:46.000Z</time>
      </trkpt>
      <trkpt lat="22.786435" lon="111.546548">
        <ele>111.435500</ele>
        <time>2026-08-18T10:04:47.000Z</time>
      </trkpt>
      <trkpt lat="22.786416" lon="111.546612">
        <ele>111.264949</ele>
        <time>2026-08-18T10:04:48.000Z</time>
      </trkpt>
      <trkpt lat="22.786397" lon="111.546678">
        <ele>111.089562</ele>
        <time>2026-08-18T10:04:49.000Z</time>
      </trkpt>
      <trkpt lat="22.786377" lon="111.546746">
        <ele>110.908509</ele>
        <time>2026-08-18T10:04:50.000Z</time>
      </trkpt>
      <trkpt lat="22.786356" lon="111.546814">
        <ele>110.726600</ele>
        <time>2026-08-18T10:04:51.000Z</time>
      </trkpt>
      <trkpt lat="22.786335" lon="111.546883">
        <ele>110.542285</ele>
        <time>2026-08-18T10:04:52.000Z</time>
      </trkpt>
      <trkpt lat="22.786313" lon="111.546953">
        <ele>110.354690</ele>
        <time>2026-08-18T10:04:53.000Z</time>
      </trkpt>
      <trkpt lat="22.786291" lon="111.547025">
        <ele>110.162285</ele>
        <time>2026-08-18T10:04:54.000Z</time>
      </trkpt>
      <trkpt lat="22.786270" lon="111.547098">
        <ele>109.968309</ele>
        <time>2026-08-18T10:04:55.000Z</time>
      </trkpt>
      <trkpt lat="22.786249" lon="111.547172">
        <ele>109.771910</ele>
        <time>2026-08-18T10:04:56.000Z</time>
      </trkpt>
      <trkpt lat="22.786227" lon="111.547247">
        <ele>109.572268</ele>
        <time>2026-08-18T10:04:57.000Z</time>
      </trkpt>
      <trkpt lat="22.786205" lon="111.547322">
        <ele>109.372625</ele>
        <time>2026-08-18T10:04:58.000Z</time>
      </trkpt>
      <trkpt lat="22.786182" lon="111.547397">
        <ele>109.172132</ele>
        <time>2026-08-18T10:04:59.000Z</time>
      </trkpt>
      <trkpt lat="22.786159" lon="111.547471">
        <ele>108.974044</ele>
        <time>2026-08-18T10:05:00.000Z</time>
      </trkpt>
      <trkpt lat="22.786137" lon="111.547547">
        <ele>108.771983</ele>
        <time>2026-08-18T10:05:01.000Z</time>
      </trkpt>
      <trkpt lat="22.786117" lon="111.547627">
        <ele>108.561727</ele>
        <time>2026-08-18T10:05:02.000Z</time>
      </trkpt>
      <trkpt lat="22.786096" lon="111.547707">
        <ele>108.397284</ele>
        <time>2026-08-18T10:05:03.000Z</time>
      </trkpt>
      <trkpt lat="22.786074" lon="111.547787">
        <ele>108.232692</ele>
        <time>2026-08-18T10:05:04.000Z</time>
      </trkpt>
      <trkpt lat="22.786051" lon="111.547867">
        <ele>108.067476</ele>
        <time>2026-08-18T10:05:05.000Z</time>
      </trkpt>
      <trkpt lat="22.786027" lon="111.547948">
        <ele>107.899735</ele>
        <time>2026-08-18T10:05:06.000Z</time>
      </trkpt>
      <trkpt lat="22.786004" lon="111.548027">
        <ele>107.736400</ele>
        <time>2026-08-18T10:05:07.000Z</time>
      </trkpt>
      <trkpt lat="22.785984" lon="111.548100">
        <ele>107.586255</ele>
        <time>2026-08-18T10:05:08.000Z</time>
      </trkpt>
      <trkpt lat="22.785965" lon="111.548170">
        <ele>107.442389</ele>
        <time>2026-08-18T10:05:09.000Z</time>
      </trkpt>
      <trkpt lat="22.785946" lon="111.548237">
        <ele>107.304187</ele>
        <time>2026-08-18T10:05:10.000Z</time>
      </trkpt>
      <trkpt lat="22.785927" lon="111.548301">
        <ele>107.171626</ele>
        <time>2026-08-18T10:05:11.000Z</time>
      </trkpt>
      <trkpt lat="22.785904" lon="111.548361">
        <ele>107.043515</ele>
        <time>2026-08-18T10:05:12.000Z</time>
      </trkpt>
      <trkpt lat="22.785883" lon="111.548416">
        <ele>106.926147</ele>
        <time>2026-08-18T10:05:13.000Z</time>
      </trkpt>
      <trkpt lat="22.785866" lon="111.548466">
        <ele>106.821079</ele>
        <time>2026-08-18T10:05:14.000Z</time>
      </trkpt>
      <trkpt lat="22.785850" lon="111.548515">
        <ele>106.718593</ele>
        <time>2026-08-18T10:05:15.000Z</time>
      </trkpt>
      <trkpt lat="22.785832" lon="111.548565">
        <ele>106.612766</ele>
        <time>2026-08-18T10:05:16.000Z</time>
      </trkpt>
      <trkpt lat="22.785814" lon="111.548617">
        <ele>106.503256</ele>
        <time>2026-08-18T10:05:17.000Z</time>
      </trkpt>
      <trkpt lat="22.785795" lon="111.548669">
        <ele>106.392977</ele>
        <time>2026-08-18T10:05:18.000Z</time>
      </trkpt>
      <trkpt lat="22.785778" lon="111.548722">
        <ele>106.282341</ele>
        <time>2026-08-18T10:05:19.000Z</time>
      </trkpt>
      <trkpt lat="22.785760" lon="111.548780">
        <ele>106.161685</ele>
        <time>2026-08-18T10:05:20.000Z</time>
      </trkpt>
      <trkpt lat="22.785742" lon="111.548838">
        <ele>106.041030</ele>
        <time>2026-08-18T10:05:21.000Z</time>
      </trkpt>
      <trkpt lat="22.785725" lon="111.548898">
        <ele>105.917275</ele>
        <time>2026-08-18T10:05:22.000Z</time>
      </trkpt>
      <trkpt lat="22.785706" lon="111.548958">
        <ele>105.792198</ele>
        <time>2026-08-18T10:05:23.000Z</time>
      </trkpt>
      <trkpt lat="22.785688" lon="111.549018">
        <ele>105.667799</ele>
        <time>2026-08-18T10:05:24.000Z</time>
      </trkpt>
      <trkpt lat="22.785669" lon="111.549079">
        <ele>105.540855</ele>
        <time>2026-08-18T10:05:25.000Z</time>
      </trkpt>
      <trkpt lat="22.785650" lon="111.549142">
        <ele>105.410170</ele>
        <time>2026-08-18T10:05:26.000Z</time>
      </trkpt>
      <trkpt lat="22.785631" lon="111.549203">
        <ele>105.283226</ele>
        <time>2026-08-18T10:05:27.000Z</time>
      </trkpt>
      <trkpt lat="22.785614" lon="111.549268">
        <ele>105.150018</ele>
        <time>2026-08-18T10:05:28.000Z</time>
      </trkpt>
      <trkpt lat="22.785599" lon="111.549337">
        <ele>105.010249</ele>
        <time>2026-08-18T10:05:29.000Z</time>
      </trkpt>
      <trkpt lat="22.785583" lon="111.549411">
        <ele>104.860394</ele>
        <time>2026-08-18T10:05:30.000Z</time>
      </trkpt>
      <trkpt lat="22.785570" lon="111.549478">
        <ele>104.725405</ele>
        <time>2026-08-18T10:05:31.000Z</time>
      </trkpt>
      <trkpt lat="22.785557" lon="111.549549">
        <ele>104.525545</ele>
        <time>2026-08-18T10:05:32.000Z</time>
      </trkpt>
      <trkpt lat="22.785544" lon="111.549619">
        <ele>104.323210</ele>
        <time>2026-08-18T10:05:33.000Z</time>
      </trkpt>
      <trkpt lat="22.785532" lon="111.549690">
        <ele>104.118674</ele>
        <time>2026-08-18T10:05:34.000Z</time>
      </trkpt>
      <trkpt lat="22.785523" lon="111.549763">
        <ele>103.909981</ele>
        <time>2026-08-18T10:05:35.000Z</time>
      </trkpt>
      <trkpt lat="22.785514" lon="111.549837">
        <ele>103.698480</ele>
        <time>2026-08-18T10:05:36.000Z</time>
      </trkpt>
      <trkpt lat="22.785506" lon="111.549911">
        <ele>103.487359</ele>
        <time>2026-08-18T10:05:37.000Z</time>
      </trkpt>
      <trkpt lat="22.785499" lon="111.549986">
        <ele>103.273754</ele>
        <time>2026-08-18T10:05:38.000Z</time>
      </trkpt>
      <trkpt lat="22.785494" lon="111.550060">
        <ele>103.063507</ele>
        <time>2026-08-18T10:05:39.000Z</time>
      </trkpt>
      <trkpt lat="22.785489" lon="111.550139">
        <ele>102.839127</ele>
        <time>2026-08-18T10:05:40.000Z</time>
      </trkpt>
      <trkpt lat="22.785484" lon="111.550219">
        <ele>102.611921</ele>
        <time>2026-08-18T10:05:41.000Z</time>
      </trkpt>
      <trkpt lat="22.785477" lon="111.550301">
        <ele>102.378574</ele>
        <time>2026-08-18T10:05:42.000Z</time>
      </trkpt>
      <trkpt lat="22.785471" lon="111.550385">
        <ele>102.139840</ele>
        <time>2026-08-18T10:05:43.000Z</time>
      </trkpt>
      <trkpt lat="22.785467" lon="111.550471">
        <ele>101.895842</ele>
        <time>2026-08-18T10:05:44.000Z</time>
      </trkpt>
      <trkpt lat="22.785464" lon="111.550560">
        <ele>101.643485</ele>
        <time>2026-08-18T10:05:45.000Z</time>
      </trkpt>
      <trkpt lat="22.785462" lon="111.550649">
        <ele>101.391222</ele>
        <time>2026-08-18T10:05:46.000Z</time>
      </trkpt>
      <trkpt lat="22.785461" lon="111.550739">
        <ele>101.136181</ele>
        <time>2026-08-18T10:05:47.000Z</time>
      </trkpt>
      <trkpt lat="22.785458" lon="111.550831">
        <ele>100.875329</ele>
        <time>2026-08-18T10:05:48.000Z</time>
      </trkpt>
      <trkpt lat="22.785456" lon="111.550921">
        <ele>100.620233</ele>
        <time>2026-08-18T10:05:49.000Z</time>
      </trkpt>
      <trkpt lat="22.785456" lon="111.551012">
        <ele>100.362377</ele>
        <time>2026-08-18T10:05:50.000Z</time>
      </trkpt>
      <trkpt lat="22.785459" lon="111.551105">
        <ele>100.098693</ele>
        <time>2026-08-18T10:05:51.000Z</time>
      </trkpt>
      <trkpt lat="22.785459" lon="111.551199">
        <ele>99.832337</ele>
        <time>2026-08-18T10:05:52.000Z</time>
      </trkpt>
      <trkpt lat="22.785457" lon="111.551292">
        <ele>99.568742</ele>
        <time>2026-08-18T10:05:53.000Z</time>
      </trkpt>
      <trkpt lat="22.785453" lon="111.551386">
        <ele>99.302102</ele>
        <time>2026-08-18T10:05:54.000Z</time>
      </trkpt>
      <trkpt lat="22.785448" lon="111.551479">
        <ele>99.190052</ele>
        <time>2026-08-18T10:05:55.000Z</time>
      </trkpt>
      <trkpt lat="22.785444" lon="111.551570">
        <ele>99.198207</ele>
        <time>2026-08-18T10:05:56.000Z</time>
      </trkpt>
      <trkpt lat="22.785442" lon="111.551660">
        <ele>99.206266</ele>
        <time>2026-08-18T10:05:57.000Z</time>
      </trkpt>
      <trkpt lat="22.785442" lon="111.551748">
        <ele>99.214143</ele>
        <time>2026-08-18T10:05:58.000Z</time>
      </trkpt>
      <trkpt lat="22.785442" lon="111.551834">
        <ele>99.221842</ele>
        <time>2026-08-18T10:05:59.000Z</time>
      </trkpt>
      <trkpt lat="22.785442" lon="111.551918">
        <ele>99.229361</ele>
        <time>2026-08-18T10:06:00.000Z</time>
      </trkpt>
      <trkpt lat="22.785441" lon="111.551999">
        <ele>99.236612</ele>
        <time>2026-08-18T10:06:01.000Z</time>
      </trkpt>
      <trkpt lat="22.785438" lon="111.552079">
        <ele>99.243780</ele>
        <time>2026-08-18T10:06:02.000Z</time>
      </trkpt>
      <trkpt lat="22.785431" lon="111.552156">
        <ele>99.250706</ele>
        <time>2026-08-18T10:06:03.000Z</time>
      </trkpt>
      <trkpt lat="22.785426" lon="111.552231">
        <ele>99.257437</ele>
        <time>2026-08-18T10:06:04.000Z</time>
      </trkpt>
      <trkpt lat="22.785422" lon="111.552304">
        <ele>99.263983</ele>
        <time>2026-08-18T10:06:05.000Z</time>
      </trkpt>
      <trkpt lat="22.785419" lon="111.552375">
        <ele>99.270346</ele>
        <time>2026-08-18T10:06:06.000Z</time>
      </trkpt>
      <trkpt lat="22.785415" lon="111.552444">
        <ele>99.276535</ele>
        <time>2026-08-18T10:06:07.000Z</time>
      </trkpt>
      <trkpt lat="22.785413" lon="111.552511">
        <ele>99.282535</ele>
        <time>2026-08-18T10:06:08.000Z</time>
      </trkpt>
      <trkpt lat="22.785414" lon="111.552576">
        <ele>99.288355</ele>
        <time>2026-08-18T10:06:09.000Z</time>
      </trkpt>
      <trkpt lat="22.785415" lon="111.552639">
        <ele>99.293995</ele>
        <time>2026-08-18T10:06:10.000Z</time>
      </trkpt>
      <trkpt lat="22.785414" lon="111.552702">
        <ele>99.299635</ele>
        <time>2026-08-18T10:06:11.000Z</time>
      </trkpt>
      <trkpt lat="22.785412" lon="111.552761">
        <ele>99.304920</ele>
        <time>2026-08-18T10:06:12.000Z</time>
      </trkpt>
      <trkpt lat="22.785410" lon="111.552819">
        <ele>99.310116</ele>
        <time>2026-08-18T10:06:13.000Z</time>
      </trkpt>
      <trkpt lat="22.785408" lon="111.552874">
        <ele>99.315043</ele>
        <time>2026-08-18T10:06:14.000Z</time>
      </trkpt>
      <trkpt lat="22.785408" lon="111.552928">
        <ele>99.319877</ele>
        <time>2026-08-18T10:06:15.000Z</time>
      </trkpt>
      <trkpt lat="22.785409" lon="111.552983">
        <ele>99.324802</ele>
        <time>2026-08-18T10:06:16.000Z</time>
      </trkpt>
      <trkpt lat="22.785412" lon="111.553035">
        <ele>99.329466</ele>
        <time>2026-08-18T10:06:17.000Z</time>
      </trkpt>
      <trkpt lat="22.785413" lon="111.553086">
        <ele>99.334032</ele>
        <time>2026-08-18T10:06:18.000Z</time>
      </trkpt>
      <trkpt lat="22.785415" lon="111.553135">
        <ele>99.338423</ele>
        <time>2026-08-18T10:06:19.000Z</time>
      </trkpt>
      <trkpt lat="22.785420" lon="111.553184">
        <ele>99.342836</ele>
        <time>2026-08-18T10:06:20.000Z</time>
      </trkpt>
      <trkpt lat="22.785425" lon="111.553234">
        <ele>99.347338</ele>
        <time>2026-08-18T10:06:21.000Z</time>
      </trkpt>
      <trkpt lat="22.785430" lon="111.553286">
        <ele>99.352018</ele>
        <time>2026-08-18T10:06:22.000Z</time>
      </trkpt>
      <trkpt lat="22.785435" lon="111.553339">
        <ele>99.356787</ele>
        <time>2026-08-18T10:06:23.000Z</time>
      </trkpt>
      <trkpt lat="22.785441" lon="111.553391">
        <ele>99.351407</ele>
        <time>2026-08-18T10:06:24.000Z</time>
      </trkpt>
      <trkpt lat="22.785449" lon="111.553443">
        <ele>99.323173</ele>
        <time>2026-08-18T10:06:25.000Z</time>
      </trkpt>
      <trkpt lat="22.785458" lon="111.553495">
        <ele>99.294837</ele>
        <time>2026-08-18T10:06:26.000Z</time>
      </trkpt>
      <trkpt lat="22.785467" lon="111.553548">
        <ele>99.265975</ele>
        <time>2026-08-18T10:06:27.000Z</time>
      </trkpt>
      <trkpt lat="22.785478" lon="111.553600">
        <ele>99.237402</ele>
        <time>2026-08-18T10:06:28.000Z</time>
      </trkpt>
      <trkpt lat="22.785487" lon="111.553651">
        <ele>99.209593</ele>
        <time>2026-08-18T10:06:29.000Z</time>
      </trkpt>
      <trkpt lat="22.785498" lon="111.553703">
        <ele>99.181020</ele>
        <time>2026-08-18T10:06:30.000Z</time>
      </trkpt>
      <trkpt lat="22.785511" lon="111.553754">
        <ele>99.152681</ele>
        <time>2026-08-18T10:06:31.000Z</time>
      </trkpt>
      <trkpt lat="22.785524" lon="111.553806">
        <ele>99.123826</ele>
        <time>2026-08-18T10:06:32.000Z</time>
      </trkpt>
      <trkpt lat="22.785540" lon="111.553856">
        <ele>99.095481</ele>
        <time>2026-08-18T10:06:33.000Z</time>
      </trkpt>
      <trkpt lat="22.785558" lon="111.553909">
        <ele>99.065232</ele>
        <time>2026-08-18T10:06:34.000Z</time>
      </trkpt>
      <trkpt lat="22.785577" lon="111.553963">
        <ele>99.034277</ele>
        <time>2026-08-18T10:06:35.000Z</time>
      </trkpt>
      <trkpt lat="22.785596" lon="111.554018">
        <ele>99.002821</ele>
        <time>2026-08-18T10:06:36.000Z</time>
      </trkpt>
      <trkpt lat="22.785614" lon="111.554074">
        <ele>98.971060</ele>
        <time>2026-08-18T10:06:37.000Z</time>
      </trkpt>
      <trkpt lat="22.785635" lon="111.554128">
        <ele>98.939672</ele>
        <time>2026-08-18T10:06:38.000Z</time>
      </trkpt>
      <trkpt lat="22.785657" lon="111.554181">
        <ele>98.908543</ele>
        <time>2026-08-18T10:06:39.000Z</time>
      </trkpt>
      <trkpt lat="22.785680" lon="111.554238">
        <ele>98.875220</ele>
        <time>2026-08-18T10:06:40.000Z</time>
      </trkpt>
      <trkpt lat="22.785704" lon="111.554293">
        <ele>98.842632</ele>
        <time>2026-08-18T10:06:41.000Z</time>
      </trkpt>
      <trkpt lat="22.785728" lon="111.554349">
        <ele>98.809558</ele>
        <time>2026-08-18T10:06:42.000Z</time>
      </trkpt>
      <trkpt lat="22.785754" lon="111.554406">
        <ele>98.775499</ele>
        <time>2026-08-18T10:06:43.000Z</time>
      </trkpt>
      <trkpt lat="22.785781" lon="111.554464">
        <ele>98.740702</ele>
        <time>2026-08-18T10:06:44.000Z</time>
      </trkpt>
      <trkpt lat="22.785808" lon="111.554521">
        <ele>98.706382</ele>
        <time>2026-08-18T10:06:45.000Z</time>
      </trkpt>
      <trkpt lat="22.785836" lon="111.554576">
        <ele>98.672733</ele>
        <time>2026-08-18T10:06:46.000Z</time>
      </trkpt>
      <trkpt lat="22.785866" lon="111.554633">
        <ele>98.637582</ele>
        <time>2026-08-18T10:06:47.000Z</time>
      </trkpt>
      <trkpt lat="22.785896" lon="111.554690">
        <ele>98.602432</ele>
        <time>2026-08-18T10:06:48.000Z</time>
      </trkpt>
      <trkpt lat="22.785926" lon="111.554743">
        <ele>98.569124</ele>
        <time>2026-08-18T10:06:49.000Z</time>
      </trkpt>
      <trkpt lat="22.785958" lon="111.554797">
        <ele>98.534745</ele>
        <time>2026-08-18T10:06:50.000Z</time>
      </trkpt>
      <trkpt lat="22.785988" lon="111.554851">
        <ele>98.500980</ele>
        <time>2026-08-18T10:06:51.000Z</time>
      </trkpt>
      <trkpt lat="22.786019" lon="111.554909">
        <ele>98.465075</ele>
        <time>2026-08-18T10:06:52.000Z</time>
      </trkpt>
      <trkpt lat="22.786051" lon="111.554968">
        <ele>98.428415</ele>
        <time>2026-08-18T10:06:53.000Z</time>
      </trkpt>
      <trkpt lat="22.786085" lon="111.555027">
        <ele>98.391152</ele>
        <time>2026-08-18T10:06:54.000Z</time>
      </trkpt>
      <trkpt lat="22.786122" lon="111.555086">
        <ele>98.352938</ele>
        <time>2026-08-18T10:06:55.000Z</time>
      </trkpt>
      <trkpt lat="22.786160" lon="111.555146">
        <ele>98.317214</ele>
        <time>2026-08-18T10:06:56.000Z</time>
      </trkpt>
      <trkpt lat="22.786200" lon="111.555203">
        <ele>98.377933</ele>
        <time>2026-08-18T10:06:57.000Z</time>
      </trkpt>
      <trkpt lat="22.786239" lon="111.555261">
        <ele>98.438783</ele>
        <time>2026-08-18T10:06:58.000Z</time>
      </trkpt>
      <trkpt lat="22.786276" lon="111.555321">
        <ele>98.499970</ele>
        <time>2026-08-18T10:06:59.000Z</time>
      </trkpt>
      <trkpt lat="22.786312" lon="111.555381">
        <ele>98.560650</ele>
        <time>2026-08-18T10:07:00.000Z</time>
      </trkpt>
      <trkpt lat="22.786348" lon="111.555439">
        <ele>98.619917</ele>
        <time>2026-08-18T10:07:01.000Z</time>
      </trkpt>
      <trkpt lat="22.786384" lon="111.555496">
        <ele>98.678482</ele>
        <time>2026-08-18T10:07:02.000Z</time>
      </trkpt>
      <trkpt lat="22.786417" lon="111.555552">
        <ele>98.734818</ele>
        <time>2026-08-18T10:07:03.000Z</time>
      </trkpt>
      <trkpt lat="22.786451" lon="111.555609">
        <ele>98.792364</ele>
        <time>2026-08-18T10:07:04.000Z</time>
      </trkpt>
      <trkpt lat="22.786482" lon="111.555666">
        <ele>98.848460</ele>
        <time>2026-08-18T10:07:05.000Z</time>
      </trkpt>
      <trkpt lat="22.786515" lon="111.555719">
        <ele>98.902670</ele>
        <time>2026-08-18T10:07:06.000Z</time>
      </trkpt>
      <trkpt lat="22.786545" lon="111.555773">
        <ele>98.956111</ele>
        <time>2026-08-18T10:07:07.000Z</time>
      </trkpt>
      <trkpt lat="22.786570" lon="111.555828">
        <ele>99.008089</ele>
        <time>2026-08-18T10:07:08.000Z</time>
      </trkpt>
      <trkpt lat="22.786596" lon="111.555879">
        <ele>99.057488</ele>
        <time>2026-08-18T10:07:09.000Z</time>
      </trkpt>
      <trkpt lat="22.786622" lon="111.555929">
        <ele>99.106146</ele>
        <time>2026-08-18T10:07:10.000Z</time>
      </trkpt>
      <trkpt lat="22.786643" lon="111.555979">
        <ele>99.152719</ele>
        <time>2026-08-18T10:07:11.000Z</time>
      </trkpt>
      <trkpt lat="22.786662" lon="111.556029">
        <ele>99.198560</ele>
        <time>2026-08-18T10:07:12.000Z</time>
      </trkpt>
      <trkpt lat="22.786678" lon="111.556078">
        <ele>99.242622</ele>
        <time>2026-08-18T10:07:13.000Z</time>
      </trkpt>
      <trkpt lat="22.786692" lon="111.556127">
        <ele>99.286106</ele>
        <time>2026-08-18T10:07:14.000Z</time>
      </trkpt>
      <trkpt lat="22.786707" lon="111.556176">
        <ele>99.329870</ele>
        <time>2026-08-18T10:07:15.000Z</time>
      </trkpt>
      <trkpt lat="22.786725" lon="111.556225">
        <ele>99.374580</ele>
        <time>2026-08-18T10:07:16.000Z</time>
      </trkpt>
      <trkpt lat="22.786738" lon="111.556275">
        <ele>99.418615</ele>
        <time>2026-08-18T10:07:17.000Z</time>
      </trkpt>
      <trkpt lat="22.786748" lon="111.556325">
        <ele>99.461982</ele>
        <time>2026-08-18T10:07:18.000Z</time>
      </trkpt>
      <trkpt lat="22.786761" lon="111.556378">
        <ele>99.508470</ele>
        <time>2026-08-18T10:07:19.000Z</time>
      </trkpt>
      <trkpt lat="22.786773" lon="111.556428">
        <ele>99.552265</ele>
        <time>2026-08-18T10:07:20.000Z</time>
      </trkpt>
      <trkpt lat="22.786783" lon="111.556481">
        <ele>99.598121</ele>
        <time>2026-08-18T10:07:21.000Z</time>
      </trkpt>
      <trkpt lat="22.786792" lon="111.556533">
        <ele>99.642968</ele>
        <time>2026-08-18T10:07:22.000Z</time>
      </trkpt>
      <trkpt lat="22.786797" lon="111.556583">
        <ele>99.685598</ele>
        <time>2026-08-18T10:07:23.000Z</time>
      </trkpt>
      <trkpt lat="22.786802" lon="111.556629">
        <ele>99.724860</ele>
        <time>2026-08-18T10:07:24.000Z</time>
      </trkpt>
      <trkpt lat="22.786809" lon="111.556677">
        <ele>99.766053</ele>
        <time>2026-08-18T10:07:25.000Z</time>
      </trkpt>
      <trkpt lat="22.786816" lon="111.556723">
        <ele>99.805572</ele>
        <time>2026-08-18T10:07:26.000Z</time>
      </trkpt>
      <trkpt lat="22.786821" lon="111.556774">
        <ele>99.849045</ele>
        <time>2026-08-18T10:07:27.000Z</time>
      </trkpt>
      <trkpt lat="22.786827" lon="111.556826">
        <ele>99.893466</ele>
        <time>2026-08-18T10:07:28.000Z</time>
      </trkpt>
      <trkpt lat="22.786836" lon="111.556871">
        <ele>99.932497</ele>
        <time>2026-08-18T10:07:29.000Z</time>
      </trkpt>
      <trkpt lat="22.786848" lon="111.556916">
        <ele>99.964447</ele>
        <time>2026-08-18T10:07:30.000Z</time>
      </trkpt>
      <trkpt lat="22.786864" lon="111.556962">
        <ele>99.908816</ele>
        <time>2026-08-18T10:07:31.000Z</time>
      </trkpt>
      <trkpt lat="22.786877" lon="111.557009">
        <ele>99.853293</ele>
        <time>2026-08-18T10:07:32.000Z</time>
      </trkpt>
      <trkpt lat="22.786883" lon="111.557056">
        <ele>99.799604</ele>
        <time>2026-08-18T10:07:33.000Z</time>
      </trkpt>
      <trkpt lat="22.786884" lon="111.557108">
        <ele>99.740752</ele>
        <time>2026-08-18T10:07:34.000Z</time>
      </trkpt>
      <trkpt lat="22.786886" lon="111.557162">
        <ele>99.679601</ele>
        <time>2026-08-18T10:07:35.000Z</time>
      </trkpt>
      <trkpt lat="22.786892" lon="111.557217">
        <ele>99.616933</ele>
        <time>2026-08-18T10:07:36.000Z</time>
      </trkpt>
      <trkpt lat="22.786901" lon="111.557273">
        <ele>99.552612</ele>
        <time>2026-08-18T10:07:37.000Z</time>
      </trkpt>
      <trkpt lat="22.786907" lon="111.557333">
        <ele>99.484323</ele>
        <time>2026-08-18T10:07:38.000Z</time>
      </trkpt>
      <trkpt lat="22.786913" lon="111.557388">
        <ele>99.421655</ele>
        <time>2026-08-18T10:07:39.000Z</time>
      </trkpt>
      <trkpt lat="22.786922" lon="111.557447">
        <ele>99.353988</ele>
        <time>2026-08-18T10:07:40.000Z</time>
      </trkpt>
      <trkpt lat="22.786935" lon="111.557510">
        <ele>99.280939</ele>
        <time>2026-08-18T10:07:41.000Z</time>
      </trkpt>
      <trkpt lat="22.786948" lon="111.557574">
        <ele>99.206785</ele>
        <time>2026-08-18T10:07:42.000Z</time>
      </trkpt>
      <trkpt lat="22.786963" lon="111.557638">
        <ele>99.132064</ele>
        <time>2026-08-18T10:07:43.000Z</time>
      </trkpt>
      <trkpt lat="22.786977" lon="111.557701">
        <ele>99.058737</ele>
        <time>2026-08-18T10:07:44.000Z</time>
      </trkpt>
      <trkpt lat="22.786997" lon="111.557765">
        <ele>98.982273</ele>
        <time>2026-08-18T10:07:45.000Z</time>
      </trkpt>
      <trkpt lat="22.787020" lon="111.557827">
        <ele>98.906653</ele>
        <time>2026-08-18T10:07:46.000Z</time>
      </trkpt>
      <trkpt lat="22.787043" lon="111.557890">
        <ele>98.829981</ele>
        <time>2026-08-18T10:07:47.000Z</time>
      </trkpt>
      <trkpt lat="22.787066" lon="111.557956">
        <ele>98.750144</ele>
        <time>2026-08-18T10:07:48.000Z</time>
      </trkpt>
      <trkpt lat="22.787084" lon="111.558023">
        <ele>98.671180</ele>
        <time>2026-08-18T10:07:49.000Z</time>
      </trkpt>
      <trkpt lat="22.787100" lon="111.558092">
        <ele>98.590673</ele>
        <time>2026-08-18T10:07:50.000Z</time>
      </trkpt>
      <trkpt lat="22.787118" lon="111.558165">
        <ele>98.505169</ele>
        <time>2026-08-18T10:07:51.000Z</time>
      </trkpt>
      <trkpt lat="22.787129" lon="111.558231">
        <ele>98.429279</ele>
        <time>2026-08-18T10:07:52.000Z</time>
      </trkpt>
      <trkpt lat="22.787145" lon="111.558302">
        <ele>98.346576</ele>
        <time>2026-08-18T10:07:53.000Z</time>
      </trkpt>
      <trkpt lat="22.787159" lon="111.558371">
        <ele>98.266633</ele>
        <time>2026-08-18T10:07:54.000Z</time>
      </trkpt>
      <trkpt lat="22.787175" lon="111.558444">
        <ele>98.181730</ele>
        <time>2026-08-18T10:07:55.000Z</time>
      </trkpt>
      <trkpt lat="22.787188" lon="111.558518">
        <ele>98.096491</ele>
        <time>2026-08-18T10:07:56.000Z</time>
      </trkpt>
      <trkpt lat="22.787200" lon="111.558591">
        <ele>98.012588</ele>
        <time>2026-08-18T10:07:57.000Z</time>
      </trkpt>
      <trkpt lat="22.787216" lon="111.558662">
        <ele>97.929885</ele>
        <time>2026-08-18T10:07:58.000Z</time>
      </trkpt>
      <trkpt lat="22.787236" lon="111.558735">
        <ele>97.843714</ele>
        <time>2026-08-18T10:07:59.000Z</time>
      </trkpt>
      <trkpt lat="22.787252" lon="111.558802">
        <ele>97.765401</ele>
        <time>2026-08-18T10:08:00.000Z</time>
      </trkpt>
      <trkpt lat="22.787268" lon="111.558866">
        <ele>97.767577</ele>
        <time>2026-08-18T10:08:01.000Z</time>
      </trkpt>
      <trkpt lat="22.787285" lon="111.558932">
        <ele>97.774329</ele>
        <time>2026-08-18T10:08:02.000Z</time>
      </trkpt>
      <trkpt lat="22.787306" lon="111.559006">
        <ele>97.781958</ele>
        <time>2026-08-18T10:08:03.000Z</time>
      </trkpt>
      <trkpt lat="22.787336" lon="111.559083">
        <ele>97.790195</ele>
        <time>2026-08-18T10:08:04.000Z</time>
      </trkpt>
      <trkpt lat="22.787354" lon="111.559152">
        <ele>97.797261</ele>
        <time>2026-08-18T10:08:05.000Z</time>
      </trkpt>
      <trkpt lat="22.787365" lon="111.559217">
        <ele>97.803772</ele>
        <time>2026-08-18T10:08:06.000Z</time>
      </trkpt>
      <trkpt lat="22.787373" lon="111.559282">
        <ele>97.810234</ele>
        <time>2026-08-18T10:08:07.000Z</time>
      </trkpt>
      <trkpt lat="22.787373" lon="111.559340">
        <ele>97.815949</ele>
        <time>2026-08-18T10:08:08.000Z</time>
      </trkpt>
      <trkpt lat="22.787375" lon="111.559398">
        <ele>97.821668</ele>
        <time>2026-08-18T10:08:09.000Z</time>
      </trkpt>
      <trkpt lat="22.787382" lon="111.559455">
        <ele>97.827334</ele>
        <time>2026-08-18T10:08:10.000Z</time>
      </trkpt>
      <trkpt lat="22.787391" lon="111.559512">
        <ele>97.833032</ele>
        <time>2026-08-18T10:08:11.000Z</time>
      </trkpt>
      <trkpt lat="22.787398" lon="111.559571">
        <ele>97.838893</ele>
        <time>2026-08-18T10:08:12.000Z</time>
      </trkpt>
      <trkpt lat="22.787404" lon="111.559631">
        <ele>97.844840</ele>
        <time>2026-08-18T10:08:13.000Z</time>
      </trkpt>
      <trkpt lat="22.787410" lon="111.559689">
        <ele>97.850591</ele>
        <time>2026-08-18T10:08:14.000Z</time>
      </trkpt>
      <trkpt lat="22.787413" lon="111.559746">
        <ele>97.856216</ele>
        <time>2026-08-18T10:08:15.000Z</time>
      </trkpt>
      <trkpt lat="22.787419" lon="111.559805">
        <ele>97.862065</ele>
        <time>2026-08-18T10:08:16.000Z</time>
      </trkpt>
      <trkpt lat="22.787421" lon="111.559865">
        <ele>97.867981</ele>
        <time>2026-08-18T10:08:17.000Z</time>
      </trkpt>
      <trkpt lat="22.787426" lon="111.559921">
        <ele>97.873525</ele>
        <time>2026-08-18T10:08:18.000Z</time>
      </trkpt>
      <trkpt lat="22.787433" lon="111.559975">
        <ele>97.878898</ele>
        <time>2026-08-18T10:08:19.000Z</time>
      </trkpt>
      <trkpt lat="22.787437" lon="111.560034">
        <ele>97.884727</ele>
        <time>2026-08-18T10:08:20.000Z</time>
      </trkpt>
      <trkpt lat="22.787445" lon="111.560093">
        <ele>97.890603</ele>
        <time>2026-08-18T10:08:21.000Z</time>
      </trkpt>
      <trkpt lat="22.787450" lon="111.560149">
        <ele>97.896147</ele>
        <time>2026-08-18T10:08:22.000Z</time>
      </trkpt>
      <trkpt lat="22.787459" lon="111.560206">
        <ele>97.901845</ele>
        <time>2026-08-18T10:08:23.000Z</time>
      </trkpt>
      <trkpt lat="22.787466" lon="111.560265">
        <ele>97.907706</ele>
        <time>2026-08-18T10:08:24.000Z</time>
      </trkpt>
      <trkpt lat="22.787474" lon="111.560322">
        <ele>97.913388</ele>
        <time>2026-08-18T10:08:25.000Z</time>
      </trkpt>
      <trkpt lat="22.787487" lon="111.560378">
        <ele>97.919078</ele>
        <time>2026-08-18T10:08:26.000Z</time>
      </trkpt>
      <trkpt lat="22.787499" lon="111.560436">
        <ele>97.924935</ele>
        <time>2026-08-18T10:08:27.000Z</time>
      </trkpt>
      <trkpt lat="22.787510" lon="111.560491">
        <ele>97.930480</ele>
        <time>2026-08-18T10:08:28.000Z</time>
      </trkpt>
      <trkpt lat="22.787520" lon="111.560542">
        <ele>97.935618</ele>
        <time>2026-08-18T10:08:29.000Z</time>
      </trkpt>
      <trkpt lat="22.787526" lon="111.560594">
        <ele>97.940782</ele>
        <time>2026-08-18T10:08:30.000Z</time>
      </trkpt>
      <trkpt lat="22.787534" lon="111.560650">
        <ele>97.946365</ele>
        <time>2026-08-18T10:08:31.000Z</time>
      </trkpt>
      <trkpt lat="22.787542" lon="111.560702">
        <ele>97.951560</ele>
        <time>2026-08-18T10:08:32.000Z</time>
      </trkpt>
      <trkpt lat="22.787549" lon="111.560753">
        <ele>97.943310</ele>
        <time>2026-08-18T10:08:33.000Z</time>
      </trkpt>
      <trkpt lat="22.787555" lon="111.560805">
        <ele>97.925663</ele>
        <time>2026-08-18T10:08:34.000Z</time>
      </trkpt>
      <trkpt lat="22.787566" lon="111.560858">
        <ele>97.907369</ele>
        <time>2026-08-18T10:08:35.000Z</time>
      </trkpt>
      <trkpt lat="22.787578" lon="111.560911">
        <ele>97.888992</ele>
        <time>2026-08-18T10:08:36.000Z</time>
      </trkpt>
      <trkpt lat="22.787592" lon="111.560958">
        <ele>97.872360</ele>
        <time>2026-08-18T10:08:37.000Z</time>
      </trkpt>
      <trkpt lat="22.787606" lon="111.561010">
        <ele>97.854118</ele>
        <time>2026-08-18T10:08:38.000Z</time>
      </trkpt>
      <trkpt lat="22.787622" lon="111.561063">
        <ele>97.835339</ele>
        <time>2026-08-18T10:08:39.000Z</time>
      </trkpt>
      <trkpt lat="22.787630" lon="111.561117">
        <ele>97.816921</ele>
        <time>2026-08-18T10:08:40.000Z</time>
      </trkpt>
      <trkpt lat="22.787641" lon="111.561174">
        <ele>97.797311</ele>
        <time>2026-08-18T10:08:41.000Z</time>
      </trkpt>
      <trkpt lat="22.787659" lon="111.561235">
        <ele>97.775744</ele>
        <time>2026-08-18T10:08:42.000Z</time>
      </trkpt>
      <trkpt lat="22.787675" lon="111.561291">
        <ele>97.756002</ele>
        <time>2026-08-18T10:08:43.000Z</time>
      </trkpt>
      <trkpt lat="22.787692" lon="111.561350">
        <ele>97.735187</ele>
        <time>2026-08-18T10:08:44.000Z</time>
      </trkpt>
      <trkpt lat="22.787710" lon="111.561409">
        <ele>97.714260</ele>
        <time>2026-08-18T10:08:45.000Z</time>
      </trkpt>
      <trkpt lat="22.787725" lon="111.561471">
        <ele>97.692675</ele>
        <time>2026-08-18T10:08:46.000Z</time>
      </trkpt>
      <trkpt lat="22.787738" lon="111.561531">
        <ele>97.671920</ele>
        <time>2026-08-18T10:08:47.000Z</time>
      </trkpt>
      <trkpt lat="22.787754" lon="111.561594">
        <ele>97.649916</ele>
        <time>2026-08-18T10:08:48.000Z</time>
      </trkpt>
      <trkpt lat="22.787769" lon="111.561659">
        <ele>97.627353</ele>
        <time>2026-08-18T10:08:49.000Z</time>
      </trkpt>
      <trkpt lat="22.787784" lon="111.561723">
        <ele>97.605116</ele>
        <time>2026-08-18T10:08:50.000Z</time>
      </trkpt>
      <trkpt lat="22.787801" lon="111.561788">
        <ele>97.582364</ele>
        <time>2026-08-18T10:08:51.000Z</time>
      </trkpt>
      <trkpt lat="22.787819" lon="111.561852">
        <ele>97.559833</ele>
        <time>2026-08-18T10:08:52.000Z</time>
      </trkpt>
      <trkpt lat="22.787834" lon="111.561918">
        <ele>97.536943</ele>
        <time>2026-08-18T10:08:53.000Z</time>
      </trkpt>
      <trkpt lat="22.787847" lon="111.561984">
        <ele>97.514216</ele>
        <time>2026-08-18T10:08:54.000Z</time>
      </trkpt>
      <trkpt lat="22.787862" lon="111.562048">
        <ele>97.491980</ele>
        <time>2026-08-18T10:08:55.000Z</time>
      </trkpt>
      <trkpt lat="22.787875" lon="111.562110">
        <ele>97.470569</ele>
        <time>2026-08-18T10:08:56.000Z</time>
      </trkpt>
      <trkpt lat="22.787890" lon="111.562170">
        <ele>97.449635</ele>
        <time>2026-08-18T10:08:57.000Z</time>
      </trkpt>
      <trkpt lat="22.787905" lon="111.562230">
        <ele>97.428701</ele>
        <time>2026-08-18T10:08:58.000Z</time>
      </trkpt>
      <trkpt lat="22.787917" lon="111.562292">
        <ele>97.407369</ele>
        <time>2026-08-18T10:08:59.000Z</time>
      </trkpt>
      <trkpt lat="22.787929" lon="111.562352">
        <ele>97.386694</ele>
        <time>2026-08-18T10:09:00.000Z</time>
      </trkpt>
      <trkpt lat="22.787941" lon="111.562412">
        <ele>97.366020</ele>
        <time>2026-08-18T10:09:01.000Z</time>
      </trkpt>
      <trkpt lat="22.787950" lon="111.562471">
        <ele>97.345883</ele>
        <time>2026-08-18T10:09:02.000Z</time>
      </trkpt>
      <trkpt lat="22.787957" lon="111.562528">
        <ele>97.326519</ele>
        <time>2026-08-18T10:09:03.000Z</time>
      </trkpt>
      <trkpt lat="22.787966" lon="111.562584">
        <ele>97.307377</ele>
        <time>2026-08-18T10:09:04.000Z</time>
      </trkpt>
      <trkpt lat="22.787970" lon="111.562640">
        <ele>97.346606</ele>
        <time>2026-08-18T10:09:05.000Z</time>
      </trkpt>
      <trkpt lat="22.787975" lon="111.562702">
        <ele>97.474038</ele>
        <time>2026-08-18T10:09:06.000Z</time>
      </trkpt>
      <trkpt lat="22.787978" lon="111.562758">
        <ele>97.588893</ele>
        <time>2026-08-18T10:09:07.000Z</time>
      </trkpt>
      <trkpt lat="22.787979" lon="111.562816">
        <ele>97.707671</ele>
        <time>2026-08-18T10:09:08.000Z</time>
      </trkpt>
      <trkpt lat="22.787980" lon="111.562871">
        <ele>97.820308</ele>
        <time>2026-08-18T10:09:09.000Z</time>
      </trkpt>
      <trkpt lat="22.787980" lon="111.562924">
        <ele>97.928827</ele>
        <time>2026-08-18T10:09:10.000Z</time>
      </trkpt>
      <trkpt lat="22.787975" lon="111.562977">
        <ele>98.037913</ele>
        <time>2026-08-18T10:09:11.000Z</time>
      </trkpt>
      <trkpt lat="22.787971" lon="111.563030">
        <ele>98.146796</ele>
        <time>2026-08-18T10:09:12.000Z</time>
      </trkpt>
      <trkpt lat="22.787966" lon="111.563087">
        <ele>98.264032</ele>
        <time>2026-08-18T10:09:13.000Z</time>
      </trkpt>
      <trkpt lat="22.787959" lon="111.563142">
        <ele>98.377715</ele>
        <time>2026-08-18T10:09:14.000Z</time>
      </trkpt>
      <trkpt lat="22.787948" lon="111.563196">
        <ele>98.490949</ele>
        <time>2026-08-18T10:09:15.000Z</time>
      </trkpt>
      <trkpt lat="22.787936" lon="111.563247">
        <ele>98.598720</ele>
        <time>2026-08-18T10:09:16.000Z</time>
      </trkpt>
      <trkpt lat="22.787919" lon="111.563297">
        <ele>98.707837</ele>
        <time>2026-08-18T10:09:17.000Z</time>
      </trkpt>
      <trkpt lat="22.787902" lon="111.563345">
        <ele>98.813121</ele>
        <time>2026-08-18T10:09:18.000Z</time>
      </trkpt>
      <trkpt lat="22.787886" lon="111.563396">
        <ele>98.923426</ele>
        <time>2026-08-18T10:09:19.000Z</time>
      </trkpt>
      <trkpt lat="22.787871" lon="111.563449">
        <ele>99.036944</ele>
        <time>2026-08-18T10:09:20.000Z</time>
      </trkpt>
      <trkpt lat="22.787856" lon="111.563499">
        <ele>99.144604</ele>
        <time>2026-08-18T10:09:21.000Z</time>
      </trkpt>
      <trkpt lat="22.787853" lon="111.563554">
        <ele>99.257416</ele>
        <time>2026-08-18T10:09:22.000Z</time>
      </trkpt>
      <trkpt lat="22.787850" lon="111.563609">
        <ele>99.370227</ele>
        <time>2026-08-18T10:09:23.000Z</time>
      </trkpt>
      <trkpt lat="22.787830" lon="111.563659">
        <ele>99.481825</ele>
        <time>2026-08-18T10:09:24.000Z</time>
      </trkpt>
      <trkpt lat="22.787811" lon="111.563709">
        <ele>99.592557</ele>
        <time>2026-08-18T10:09:25.000Z</time>
      </trkpt>
      <trkpt lat="22.787790" lon="111.563756">
        <ele>99.699497</ele>
        <time>2026-08-18T10:09:26.000Z</time>
      </trkpt>
      <trkpt lat="22.787769" lon="111.563804">
        <ele>99.808284</ele>
        <time>2026-08-18T10:09:27.000Z</time>
      </trkpt>
      <trkpt lat="22.787751" lon="111.563854">
        <ele>99.918189</ele>
        <time>2026-08-18T10:09:28.000Z</time>
      </trkpt>
      <trkpt lat="22.787733" lon="111.563904">
        <ele>100.028094</ele>
        <time>2026-08-18T10:09:29.000Z</time>
      </trkpt>
      <trkpt lat="22.787713" lon="111.563952">
        <ele>100.135947</ele>
        <time>2026-08-18T10:09:30.000Z</time>
      </trkpt>
      <trkpt lat="22.787692" lon="111.564000">
        <ele>100.244734</ele>
        <time>2026-08-18T10:09:31.000Z</time>
      </trkpt>
      <trkpt lat="22.787675" lon="111.564046">
        <ele>100.346206</ele>
        <time>2026-08-18T10:09:32.000Z</time>
      </trkpt>
      <trkpt lat="22.787656" lon="111.564091">
        <ele>100.447548</ele>
        <time>2026-08-18T10:09:33.000Z</time>
      </trkpt>
      <trkpt lat="22.787632" lon="111.564134">
        <ele>100.550470</ele>
        <time>2026-08-18T10:09:34.000Z</time>
      </trkpt>
      <trkpt lat="22.787608" lon="111.564177">
        <ele>100.653391</ele>
        <time>2026-08-18T10:09:35.000Z</time>
      </trkpt>
      <trkpt lat="22.787587" lon="111.564218">
        <ele>100.749426</ele>
        <time>2026-08-18T10:09:36.000Z</time>
      </trkpt>
      <trkpt lat="22.787569" lon="111.564260">
        <ele>100.844260</ele>
        <time>2026-08-18T10:09:37.000Z</time>
      </trkpt>
      <trkpt lat="22.787553" lon="111.564301">
        <ele>100.935420</ele>
        <time>2026-08-18T10:09:38.000Z</time>
      </trkpt>
      <trkpt lat="22.787536" lon="111.564343">
        <ele>101.029340</ele>
        <time>2026-08-18T10:09:39.000Z</time>
      </trkpt>
      <trkpt lat="22.787516" lon="111.564381">
        <ele>101.118932</ele>
        <time>2026-08-18T10:09:40.000Z</time>
      </trkpt>
      <trkpt lat="22.787500" lon="111.564423">
        <ele>101.211981</ele>
        <time>2026-08-18T10:09:41.000Z</time>
      </trkpt>
      <trkpt lat="22.787485" lon="111.564466">
        <ele>101.293718</ele>
        <time>2026-08-18T10:09:42.000Z</time>
      </trkpt>
      <trkpt lat="22.787466" lon="111.564507">
        <ele>101.309243</ele>
        <time>2026-08-18T10:09:43.000Z</time>
      </trkpt>
      <trkpt lat="22.787451" lon="111.564550">
        <ele>101.324798</ele>
        <time>2026-08-18T10:09:44.000Z</time>
      </trkpt>
      <trkpt lat="22.787432" lon="111.564589">
        <ele>101.339721</ele>
        <time>2026-08-18T10:09:45.000Z</time>
      </trkpt>
      <trkpt lat="22.787415" lon="111.564629">
        <ele>101.354623</ele>
        <time>2026-08-18T10:09:46.000Z</time>
      </trkpt>
      <trkpt lat="22.787396" lon="111.564671">
        <ele>101.370451</ele>
        <time>2026-08-18T10:09:47.000Z</time>
      </trkpt>
      <trkpt lat="22.787376" lon="111.564711">
        <ele>101.385846</ele>
        <time>2026-08-18T10:09:48.000Z</time>
      </trkpt>
      <trkpt lat="22.787357" lon="111.564755">
        <ele>101.402285</ele>
        <time>2026-08-18T10:09:49.000Z</time>
      </trkpt>
      <trkpt lat="22.787340" lon="111.564799">
        <ele>101.418425</ele>
        <time>2026-08-18T10:09:50.000Z</time>
      </trkpt>
      <trkpt lat="22.787322" lon="111.564844">
        <ele>101.435021</ele>
        <time>2026-08-18T10:09:51.000Z</time>
      </trkpt>
      <trkpt lat="22.787303" lon="111.564888">
        <ele>101.451460</ele>
        <time>2026-08-18T10:09:52.000Z</time>
      </trkpt>
      <trkpt lat="22.787287" lon="111.564935">
        <ele>101.468410</ele>
        <time>2026-08-18T10:09:53.000Z</time>
      </trkpt>
      <trkpt lat="22.787270" lon="111.564982">
        <ele>101.485492</ele>
        <time>2026-08-18T10:09:54.000Z</time>
      </trkpt>
      <trkpt lat="22.787251" lon="111.565029">
        <ele>101.502855</ele>
        <time>2026-08-18T10:09:55.000Z</time>
      </trkpt>
      <trkpt lat="22.787232" lon="111.565078">
        <ele>101.520839</ele>
        <time>2026-08-18T10:09:56.000Z</time>
      </trkpt>
      <trkpt lat="22.787212" lon="111.565129">
        <ele>101.539590</ele>
        <time>2026-08-18T10:09:57.000Z</time>
      </trkpt>
      <trkpt lat="22.787191" lon="111.565175">
        <ele>101.556957</ele>
        <time>2026-08-18T10:09:58.000Z</time>
      </trkpt>
      <trkpt lat="22.787173" lon="111.565223">
        <ele>101.574488</ele>
        <time>2026-08-18T10:09:59.000Z</time>
      </trkpt>
      <trkpt lat="22.787154" lon="111.565271">
        <ele>101.592162</ele>
        <time>2026-08-18T10:10:00.000Z</time>
      </trkpt>
      <trkpt lat="22.787135" lon="111.565322">
        <ele>101.610772</ele>
        <time>2026-08-18T10:10:01.000Z</time>
      </trkpt>
      <trkpt lat="22.787116" lon="111.565371">
        <ele>101.628756</ele>
        <time>2026-08-18T10:10:02.000Z</time>
      </trkpt>
      <trkpt lat="22.787098" lon="111.565420">
        <ele>101.646602</ele>
        <time>2026-08-18T10:10:03.000Z</time>
      </trkpt>
      <trkpt lat="22.787098" lon="111.565420">
        <ele>101.646602</ele>
        <time>2026-08-18T10:10:04.000Z</time>
      </trkpt>
      <trkpt lat="22.787059" lon="111.565518">
        <ele>101.682715</ele>
        <time>2026-08-18T10:10:05.000Z</time>
      </trkpt>
      <trkpt lat="22.787041" lon="111.565568">
        <ele>101.700875</ele>
        <time>2026-08-18T10:10:06.000Z</time>
      </trkpt>
      <trkpt lat="22.787024" lon="111.565617">
        <ele>101.718588</ele>
        <time>2026-08-18T10:10:07.000Z</time>
      </trkpt>
      <trkpt lat="22.787004" lon="111.565666">
        <ele>101.736718</ele>
        <time>2026-08-18T10:10:08.000Z</time>
      </trkpt>
      <trkpt lat="22.786985" lon="111.565716">
        <ele>101.755015</ele>
        <time>2026-08-18T10:10:09.000Z</time>
      </trkpt>
      <trkpt lat="22.786965" lon="111.565769">
        <ele>101.774391</ele>
        <time>2026-08-18T10:10:10.000Z</time>
      </trkpt>
      <trkpt lat="22.786944" lon="111.565822">
        <ele>101.793908</ele>
        <time>2026-08-18T10:10:11.000Z</time>
      </trkpt>
      <trkpt lat="22.786923" lon="111.565875">
        <ele>101.813425</ele>
        <time>2026-08-18T10:10:12.000Z</time>
      </trkpt>
      <trkpt lat="22.786898" lon="111.565929">
        <ele>101.833869</ele>
        <time>2026-08-18T10:10:13.000Z</time>
      </trkpt>
      <trkpt lat="22.786874" lon="111.565982">
        <ele>101.853847</ele>
        <time>2026-08-18T10:10:14.000Z</time>
      </trkpt>
      <trkpt lat="22.786851" lon="111.566036">
        <ele>101.873972</ele>
        <time>2026-08-18T10:10:15.000Z</time>
      </trkpt>
      <trkpt lat="22.786829" lon="111.566092">
        <ele>101.894567</ele>
        <time>2026-08-18T10:10:16.000Z</time>
      </trkpt>
      <trkpt lat="22.786805" lon="111.566145">
        <ele>101.914544</ele>
        <time>2026-08-18T10:10:17.000Z</time>
      </trkpt>
      <trkpt lat="22.786782" lon="111.566203">
        <ele>101.935905</ele>
        <time>2026-08-18T10:10:18.000Z</time>
      </trkpt>
      <trkpt lat="22.786759" lon="111.566259">
        <ele>101.936529</ele>
        <time>2026-08-18T10:10:19.000Z</time>
      </trkpt>
      <trkpt lat="22.786734" lon="111.566316">
        <ele>101.877365</ele>
        <time>2026-08-18T10:10:20.000Z</time>
      </trkpt>
      <trkpt lat="22.786708" lon="111.566373">
        <ele>101.817758</ele>
        <time>2026-08-18T10:10:21.000Z</time>
      </trkpt>
      <trkpt lat="22.786681" lon="111.566429">
        <ele>101.758526</ele>
        <time>2026-08-18T10:10:22.000Z</time>
      </trkpt>
      <trkpt lat="22.786654" lon="111.566483">
        <ele>101.700948</ele>
        <time>2026-08-18T10:10:23.000Z</time>
      </trkpt>
      <trkpt lat="22.786627" lon="111.566539">
        <ele>101.641715</ele>
        <time>2026-08-18T10:10:24.000Z</time>
      </trkpt>
      <trkpt lat="22.786599" lon="111.566594">
        <ele>101.582827</ele>
        <time>2026-08-18T10:10:25.000Z</time>
      </trkpt>
      <trkpt lat="22.786573" lon="111.566649">
        <ele>101.524894</ele>
        <time>2026-08-18T10:10:26.000Z</time>
      </trkpt>
      <trkpt lat="22.786548" lon="111.566706">
        <ele>101.465731</ele>
        <time>2026-08-18T10:10:27.000Z</time>
      </trkpt>
      <trkpt lat="22.786524" lon="111.566764">
        <ele>101.406143</ele>
        <time>2026-08-18T10:10:28.000Z</time>
      </trkpt>
      <trkpt lat="22.786498" lon="111.566820">
        <ele>101.347375</ele>
        <time>2026-08-18T10:10:29.000Z</time>
      </trkpt>
      <trkpt lat="22.786473" lon="111.566874">
        <ele>101.290738</ele>
        <time>2026-08-18T10:10:30.000Z</time>
      </trkpt>
      <trkpt lat="22.786449" lon="111.566930">
        <ele>101.232856</ele>
        <time>2026-08-18T10:10:31.000Z</time>
      </trkpt>
      <trkpt lat="22.786424" lon="111.566986">
        <ele>101.174537</ele>
        <time>2026-08-18T10:10:32.000Z</time>
      </trkpt>
      <trkpt lat="22.786400" lon="111.567042">
        <ele>101.116655</ele>
        <time>2026-08-18T10:10:33.000Z</time>
      </trkpt>
      <trkpt lat="22.786378" lon="111.567098">
        <ele>101.059600</ele>
        <time>2026-08-18T10:10:34.000Z</time>
      </trkpt>
      <trkpt lat="22.786357" lon="111.567156">
        <ele>101.001195</ele>
        <time>2026-08-18T10:10:35.000Z</time>
      </trkpt>
      <trkpt lat="22.786336" lon="111.567214">
        <ele>100.942790</ele>
        <time>2026-08-18T10:10:36.000Z</time>
      </trkpt>
      <trkpt lat="22.786316" lon="111.567273">
        <ele>100.883870</ele>
        <time>2026-08-18T10:10:37.000Z</time>
      </trkpt>
      <trkpt lat="22.786295" lon="111.567330">
        <ele>100.826336</ele>
        <time>2026-08-18T10:10:38.000Z</time>
      </trkpt>
      <trkpt lat="22.786270" lon="111.567387">
        <ele>100.767173</ele>
        <time>2026-08-18T10:10:39.000Z</time>
      </trkpt>
      <trkpt lat="22.786247" lon="111.567447">
        <ele>100.706267</ele>
        <time>2026-08-18T10:10:40.000Z</time>
      </trkpt>
      <trkpt lat="22.786225" lon="111.567506">
        <ele>100.646615</ele>
        <time>2026-08-18T10:10:41.000Z</time>
      </trkpt>
      <trkpt lat="22.786201" lon="111.567567">
        <ele>100.584452</ele>
        <time>2026-08-18T10:10:42.000Z</time>
      </trkpt>
      <trkpt lat="22.786175" lon="111.567629">
        <ele>100.520610</ele>
        <time>2026-08-18T10:10:43.000Z</time>
      </trkpt>
      <trkpt lat="22.786150" lon="111.567689">
        <ele>100.458896</ele>
        <time>2026-08-18T10:10:44.000Z</time>
      </trkpt>
      <trkpt lat="22.786128" lon="111.567750">
        <ele>100.397501</ele>
        <time>2026-08-18T10:10:45.000Z</time>
      </trkpt>
      <trkpt lat="22.786108" lon="111.567814">
        <ele>100.334162</ele>
        <time>2026-08-18T10:10:46.000Z</time>
      </trkpt>
      <trkpt lat="22.786088" lon="111.567877">
        <ele>100.271710</ele>
        <time>2026-08-18T10:10:47.000Z</time>
      </trkpt>
      <trkpt lat="22.786065" lon="111.567940">
        <ele>100.208199</ele>
        <time>2026-08-18T10:10:48.000Z</time>
      </trkpt>
      <trkpt lat="22.786040" lon="111.568002">
        <ele>100.144772</ele>
        <time>2026-08-18T10:10:49.000Z</time>
      </trkpt>
      <trkpt lat="22.786010" lon="111.568065">
        <ele>100.091263</ele>
        <time>2026-08-18T10:10:50.000Z</time>
      </trkpt>
      <trkpt lat="22.785984" lon="111.568127">
        <ele>100.046033</ele>
        <time>2026-08-18T10:10:51.000Z</time>
      </trkpt>
      <trkpt lat="22.785958" lon="111.568189">
        <ele>100.000802</ele>
        <time>2026-08-18T10:10:52.000Z</time>
      </trkpt>
      <trkpt lat="22.785935" lon="111.568253">
        <ele>99.955188</ele>
        <time>2026-08-18T10:10:53.000Z</time>
      </trkpt>
      <trkpt lat="22.785912" lon="111.568317">
        <ele>99.909575</ele>
        <time>2026-08-18T10:10:54.000Z</time>
      </trkpt>
      <trkpt lat="22.785886" lon="111.568379">
        <ele>99.864344</ele>
        <time>2026-08-18T10:10:55.000Z</time>
      </trkpt>
      <trkpt lat="22.785865" lon="111.568443">
        <ele>99.819234</ele>
        <time>2026-08-18T10:10:56.000Z</time>
      </trkpt>
      <trkpt lat="22.785845" lon="111.568506">
        <ele>99.774988</ele>
        <time>2026-08-18T10:10:57.000Z</time>
      </trkpt>
      <trkpt lat="22.785821" lon="111.568569">
        <ele>99.729722</ele>
        <time>2026-08-18T10:10:58.000Z</time>
      </trkpt>
      <trkpt lat="22.785802" lon="111.568638">
        <ele>99.681902</ele>
        <time>2026-08-18T10:10:59.000Z</time>
      </trkpt>
      <trkpt lat="22.785780" lon="111.568704">
        <ele>99.635298</ele>
        <time>2026-08-18T10:11:00.000Z</time>
      </trkpt>
      <trkpt lat="22.785757" lon="111.568770">
        <ele>99.588444</ele>
        <time>2026-08-18T10:11:01.000Z</time>
      </trkpt>
      <trkpt lat="22.785731" lon="111.568836">
        <ele>99.540783</ele>
        <time>2026-08-18T10:11:02.000Z</time>
      </trkpt>
      <trkpt lat="22.785712" lon="111.568903">
        <ele>99.494235</ele>
        <time>2026-08-18T10:11:03.000Z</time>
      </trkpt>
      <trkpt lat="22.785696" lon="111.568972">
        <ele>99.446988</ele>
        <time>2026-08-18T10:11:04.000Z</time>
      </trkpt>
      <trkpt lat="22.785679" lon="111.569040">
        <ele>99.400201</ele>
        <time>2026-08-18T10:11:05.000Z</time>
      </trkpt>
      <trkpt lat="22.785657" lon="111.569107">
        <ele>99.352972</ele>
        <time>2026-08-18T10:11:06.000Z</time>
      </trkpt>
      <trkpt lat="22.785636" lon="111.569170">
        <ele>99.308487</ele>
        <time>2026-08-18T10:11:07.000Z</time>
      </trkpt>
      <trkpt lat="22.785616" lon="111.569234">
        <ele>99.263612</ele>
        <time>2026-08-18T10:11:08.000Z</time>
      </trkpt>
      <trkpt lat="22.785593" lon="111.569296">
        <ele>99.219233</ele>
        <time>2026-08-18T10:11:09.000Z</time>
      </trkpt>
      <trkpt lat="22.785572" lon="111.569360">
        <ele>99.174122</ele>
        <time>2026-08-18T10:11:10.000Z</time>
      </trkpt>
      <trkpt lat="22.785554" lon="111.569424">
        <ele>99.129689</ele>
        <time>2026-08-18T10:11:11.000Z</time>
      </trkpt>
      <trkpt lat="22.785536" lon="111.569490">
        <ele>99.083984</ele>
        <time>2026-08-18T10:11:12.000Z</time>
      </trkpt>
      <trkpt lat="22.785515" lon="111.569555">
        <ele>99.038247</ele>
        <time>2026-08-18T10:11:13.000Z</time>
      </trkpt>
      <trkpt lat="22.785494" lon="111.569620">
        <ele>98.992510</ele>
        <time>2026-08-18T10:11:14.000Z</time>
      </trkpt>
      <trkpt lat="22.785474" lon="111.569683">
        <ele>98.948264</ele>
        <time>2026-08-18T10:11:15.000Z</time>
      </trkpt>
      <trkpt lat="22.785453" lon="111.569744">
        <ele>98.905025</ele>
        <time>2026-08-18T10:11:16.000Z</time>
      </trkpt>
      <trkpt lat="22.785431" lon="111.569802">
        <ele>98.863377</ele>
        <time>2026-08-18T10:11:17.000Z</time>
      </trkpt>
      <trkpt lat="22.785411" lon="111.569861">
        <ele>98.826497</ele>
        <time>2026-08-18T10:11:18.000Z</time>
      </trkpt>
      <trkpt lat="22.785392" lon="111.569922">
        <ele>98.820810</ele>
        <time>2026-08-18T10:11:19.000Z</time>
      </trkpt>
      <trkpt lat="22.785373" lon="111.569984">
        <ele>98.815039</ele>
        <time>2026-08-18T10:11:20.000Z</time>
      </trkpt>
      <trkpt lat="22.785353" lon="111.570045">
        <ele>98.809321</ele>
        <time>2026-08-18T10:11:21.000Z</time>
      </trkpt>
      <trkpt lat="22.785334" lon="111.570105">
        <ele>98.803718</ele>
        <time>2026-08-18T10:11:22.000Z</time>
      </trkpt>
      <trkpt lat="22.785312" lon="111.570164">
        <ele>98.798097</ele>
        <time>2026-08-18T10:11:23.000Z</time>
      </trkpt>
      <trkpt lat="22.785293" lon="111.570224">
        <ele>98.792493</ele>
        <time>2026-08-18T10:11:24.000Z</time>
      </trkpt>
      <trkpt lat="22.785275" lon="111.570282">
        <ele>98.787088</ele>
        <time>2026-08-18T10:11:25.000Z</time>
      </trkpt>
      <trkpt lat="22.785258" lon="111.570341">
        <ele>98.781628</ele>
        <time>2026-08-18T10:11:26.000Z</time>
      </trkpt>
      <trkpt lat="22.785242" lon="111.570402">
        <ele>98.776027</ele>
        <time>2026-08-18T10:11:27.000Z</time>
      </trkpt>
      <trkpt lat="22.785227" lon="111.570463">
        <ele>98.770451</ele>
        <time>2026-08-18T10:11:28.000Z</time>
      </trkpt>
      <trkpt lat="22.785215" lon="111.570524">
        <ele>98.764942</ele>
        <time>2026-08-18T10:11:29.000Z</time>
      </trkpt>
      <trkpt lat="22.785200" lon="111.570584">
        <ele>98.759451</ele>
        <time>2026-08-18T10:11:30.000Z</time>
      </trkpt>
      <trkpt lat="22.785183" lon="111.570641">
        <ele>98.754160</ele>
        <time>2026-08-18T10:11:31.000Z</time>
      </trkpt>
      <trkpt lat="22.785167" lon="111.570699">
        <ele>98.748812</ele>
        <time>2026-08-18T10:11:32.000Z</time>
      </trkpt>
      <trkpt lat="22.785150" lon="111.570755">
        <ele>98.743605</ele>
        <time>2026-08-18T10:11:33.000Z</time>
      </trkpt>
      <trkpt lat="22.785131" lon="111.570809">
        <ele>98.738500</ele>
        <time>2026-08-18T10:11:34.000Z</time>
      </trkpt>
      <trkpt lat="22.785113" lon="111.570863">
        <ele>98.733428</ele>
        <time>2026-08-18T10:11:35.000Z</time>
      </trkpt>
      <trkpt lat="22.785095" lon="111.570917">
        <ele>98.728357</ele>
        <time>2026-08-18T10:11:36.000Z</time>
      </trkpt>
      <trkpt lat="22.785077" lon="111.570972">
        <ele>98.723202</ele>
        <time>2026-08-18T10:11:37.000Z</time>
      </trkpt>
      <trkpt lat="22.785060" lon="111.571028">
        <ele>98.717994</ele>
        <time>2026-08-18T10:11:38.000Z</time>
      </trkpt>
      <trkpt lat="22.785042" lon="111.571084">
        <ele>98.712756</ele>
        <time>2026-08-18T10:11:39.000Z</time>
      </trkpt>
      <trkpt lat="22.785024" lon="111.571139">
        <ele>98.707602</ele>
        <time>2026-08-18T10:11:40.000Z</time>
      </trkpt>
      <trkpt lat="22.785007" lon="111.571196">
        <ele>98.702310</ele>
        <time>2026-08-18T10:11:41.000Z</time>
      </trkpt>
      <trkpt lat="22.784989" lon="111.571252">
        <ele>98.697072</ele>
        <time>2026-08-18T10:11:42.000Z</time>
      </trkpt>
      <trkpt lat="22.784971" lon="111.571309">
        <ele>98.691750</ele>
        <time>2026-08-18T10:11:43.000Z</time>
      </trkpt>
      <trkpt lat="22.784953" lon="111.571364">
        <ele>98.686596</ele>
        <time>2026-08-18T10:11:44.000Z</time>
      </trkpt>
      <trkpt lat="22.784934" lon="111.571422">
        <ele>98.681159</ele>
        <time>2026-08-18T10:11:45.000Z</time>
      </trkpt>
      <trkpt lat="22.784916" lon="111.571481">
        <ele>98.675670</ele>
        <time>2026-08-18T10:11:46.000Z</time>
      </trkpt>
      <trkpt lat="22.784898" lon="111.571539">
        <ele>98.670265</ele>
        <time>2026-08-18T10:11:47.000Z</time>
      </trkpt>
      <trkpt lat="22.784880" lon="111.571598">
        <ele>98.664776</ele>
        <time>2026-08-18T10:11:48.000Z</time>
      </trkpt>
      <trkpt lat="22.784862" lon="111.571655">
        <ele>98.659454</ele>
        <time>2026-08-18T10:11:49.000Z</time>
      </trkpt>
      <trkpt lat="22.784844" lon="111.571712">
        <ele>98.647733</ele>
        <time>2026-08-18T10:11:50.000Z</time>
      </trkpt>
      <trkpt lat="22.784826" lon="111.571770">
        <ele>98.599123</ele>
        <time>2026-08-18T10:11:51.000Z</time>
      </trkpt>
      <trkpt lat="22.784809" lon="111.571829">
        <ele>98.550023</ele>
        <time>2026-08-18T10:11:52.000Z</time>
      </trkpt>
      <trkpt lat="22.784790" lon="111.571887">
        <ele>98.501131</ele>
        <time>2026-08-18T10:11:53.000Z</time>
      </trkpt>
      <trkpt lat="22.784772" lon="111.571943">
        <ele>98.454024</ele>
        <time>2026-08-18T10:11:54.000Z</time>
      </trkpt>
      <trkpt lat="22.784756" lon="111.571999">
        <ele>98.407455</ele>
        <time>2026-08-18T10:11:55.000Z</time>
      </trkpt>
      <trkpt lat="22.784739" lon="111.572055">
        <ele>98.360625</ele>
        <time>2026-08-18T10:11:56.000Z</time>
      </trkpt>
      <trkpt lat="22.784723" lon="111.572111">
        <ele>98.314056</ele>
        <time>2026-08-18T10:11:57.000Z</time>
      </trkpt>
      <trkpt lat="22.784705" lon="111.572167">
        <ele>98.266949</ele>
        <time>2026-08-18T10:11:58.000Z</time>
      </trkpt>
      <trkpt lat="22.784689" lon="111.572223">
        <ele>98.220380</ele>
        <time>2026-08-18T10:11:59.000Z</time>
      </trkpt>
      <trkpt lat="22.784673" lon="111.572282">
        <ele>98.171530</ele>
        <time>2026-08-18T10:12:00.000Z</time>
      </trkpt>
      <trkpt lat="22.784657" lon="111.572340">
        <ele>98.123442</ele>
        <time>2026-08-18T10:12:01.000Z</time>
      </trkpt>
      <trkpt lat="22.784640" lon="111.572398">
        <ele>98.075100</ele>
        <time>2026-08-18T10:12:02.000Z</time>
      </trkpt>
      <trkpt lat="22.784620" lon="111.572455">
        <ele>98.026656</ele>
        <time>2026-08-18T10:12:03.000Z</time>
      </trkpt>
      <trkpt lat="22.784600" lon="111.572510">
        <ele>97.979693</ele>
        <time>2026-08-18T10:12:04.000Z</time>
      </trkpt>
      <trkpt lat="22.784580" lon="111.572566">
        <ele>97.931991</ele>
        <time>2026-08-18T10:12:05.000Z</time>
      </trkpt>
      <trkpt lat="22.784560" lon="111.572621">
        <ele>97.885028</ele>
        <time>2026-08-18T10:12:06.000Z</time>
      </trkpt>
      <trkpt lat="22.784541" lon="111.572674">
        <ele>97.839859</ele>
        <time>2026-08-18T10:12:07.000Z</time>
      </trkpt>
      <trkpt lat="22.784525" lon="111.572727">
        <ele>97.795561</ele>
        <time>2026-08-18T10:12:08.000Z</time>
      </trkpt>
      <trkpt lat="22.784508" lon="111.572780">
        <ele>97.750987</ele>
        <time>2026-08-18T10:12:09.000Z</time>
      </trkpt>
      <trkpt lat="22.784490" lon="111.572835">
        <ele>97.704629</ele>
        <time>2026-08-18T10:12:10.000Z</time>
      </trkpt>
      <trkpt lat="22.784472" lon="111.572890">
        <ele>97.658271</ele>
        <time>2026-08-18T10:12:11.000Z</time>
      </trkpt>
      <trkpt lat="22.784456" lon="111.572945">
        <ele>97.612460</ele>
        <time>2026-08-18T10:12:12.000Z</time>
      </trkpt>
      <trkpt lat="22.784440" lon="111.573000">
        <ele>97.566650</ele>
        <time>2026-08-18T10:12:13.000Z</time>
      </trkpt>
      <trkpt lat="22.784422" lon="111.573056">
        <ele>97.519542</ele>
        <time>2026-08-18T10:12:14.000Z</time>
      </trkpt>
      <trkpt lat="22.784401" lon="111.573108">
        <ele>97.474449</ele>
        <time>2026-08-18T10:12:15.000Z</time>
      </trkpt>
      <trkpt lat="22.784379" lon="111.573160">
        <ele>97.429004</ele>
        <time>2026-08-18T10:12:16.000Z</time>
      </trkpt>
      <trkpt lat="22.784357" lon="111.573212">
        <ele>97.383558</ele>
        <time>2026-08-18T10:12:17.000Z</time>
      </trkpt>
      <trkpt lat="22.784333" lon="111.573267">
        <ele>97.335224</ele>
        <time>2026-08-18T10:12:18.000Z</time>
      </trkpt>
      <trkpt lat="22.784309" lon="111.573322">
        <ele>97.286891</ele>
        <time>2026-08-18T10:12:19.000Z</time>
      </trkpt>
      <trkpt lat="22.784282" lon="111.573376">
        <ele>97.238096</ele>
        <time>2026-08-18T10:12:20.000Z</time>
      </trkpt>
      <trkpt lat="22.784255" lon="111.573426">
        <ele>97.192069</ele>
        <time>2026-08-18T10:12:21.000Z</time>
      </trkpt>
      <trkpt lat="22.784226" lon="111.573475">
        <ele>97.145819</ele>
        <time>2026-08-18T10:12:22.000Z</time>
      </trkpt>
      <trkpt lat="22.784196" lon="111.573525">
        <ele>97.092632</ele>
        <time>2026-08-18T10:12:23.000Z</time>
      </trkpt>
      <trkpt lat="22.784166" lon="111.573579">
        <ele>97.000393</ele>
        <time>2026-08-18T10:12:24.000Z</time>
      </trkpt>
      <trkpt lat="22.784136" lon="111.573634">
        <ele>96.906897</ele>
        <time>2026-08-18T10:12:25.000Z</time>
      </trkpt>
      <trkpt lat="22.784103" lon="111.573691">
        <ele>96.808425</ele>
        <time>2026-08-18T10:12:26.000Z</time>
      </trkpt>
      <trkpt lat="22.784068" lon="111.573745">
        <ele>96.711851</ele>
        <time>2026-08-18T10:12:27.000Z</time>
      </trkpt>
      <trkpt lat="22.784029" lon="111.573795">
        <ele>96.616031</ele>
        <time>2026-08-18T10:12:28.000Z</time>
      </trkpt>
      <trkpt lat="22.783987" lon="111.573843">
        <ele>96.519212</ele>
        <time>2026-08-18T10:12:29.000Z</time>
      </trkpt>
      <trkpt lat="22.783944" lon="111.573891">
        <ele>96.421294</ele>
        <time>2026-08-18T10:12:30.000Z</time>
      </trkpt>
      <trkpt lat="22.783899" lon="111.573938">
        <ele>96.322159</ele>
        <time>2026-08-18T10:12:31.000Z</time>
      </trkpt>
      <trkpt lat="22.783852" lon="111.573984">
        <ele>96.221700</ele>
        <time>2026-08-18T10:12:32.000Z</time>
      </trkpt>
      <trkpt lat="22.783804" lon="111.574028">
        <ele>96.121971</ele>
        <time>2026-08-18T10:12:33.000Z</time>
      </trkpt>
      <trkpt lat="22.783752" lon="111.574068">
        <ele>96.020808</ele>
        <time>2026-08-18T10:12:34.000Z</time>
      </trkpt>
      <trkpt lat="22.783700" lon="111.574110">
        <ele>95.917924</ele>
        <time>2026-08-18T10:12:35.000Z</time>
      </trkpt>
      <trkpt lat="22.783645" lon="111.574149">
        <ele>95.813649</ele>
        <time>2026-08-18T10:12:36.000Z</time>
      </trkpt>
      <trkpt lat="22.783591" lon="111.574193">
        <ele>95.706471</ele>
        <time>2026-08-18T10:12:37.000Z</time>
      </trkpt>
      <trkpt lat="22.783534" lon="111.574230">
        <ele>95.601058</ele>
        <time>2026-08-18T10:12:38.000Z</time>
      </trkpt>
      <trkpt lat="22.783475" lon="111.574267">
        <ele>95.492909</ele>
        <time>2026-08-18T10:12:39.000Z</time>
      </trkpt>
      <trkpt lat="22.783417" lon="111.574303">
        <ele>95.386865</ele>
        <time>2026-08-18T10:12:40.000Z</time>
      </trkpt>
      <trkpt lat="22.783359" lon="111.574342">
        <ele>95.278574</ele>
        <time>2026-08-18T10:12:41.000Z</time>
      </trkpt>
      <trkpt lat="22.783300" lon="111.574379">
        <ele>95.170426</ele>
        <time>2026-08-18T10:12:42.000Z</time>
      </trkpt>
      <trkpt lat="22.783241" lon="111.574414">
        <ele>95.063711</ele>
        <time>2026-08-18T10:12:43.000Z</time>
      </trkpt>
      <trkpt lat="22.783179" lon="111.574446">
        <ele>94.954753</ele>
        <time>2026-08-18T10:12:44.000Z</time>
      </trkpt>
      <trkpt lat="22.783117" lon="111.574475">
        <ele>94.847608</ele>
        <time>2026-08-18T10:12:45.000Z</time>
      </trkpt>
      <trkpt lat="22.783057" lon="111.574504">
        <ele>94.743370</ele>
        <time>2026-08-18T10:12:46.000Z</time>
      </trkpt>
      <trkpt lat="22.782997" lon="111.574536">
        <ele>94.637269</ele>
        <time>2026-08-18T10:12:47.000Z</time>
      </trkpt>
      <trkpt lat="22.782938" lon="111.574564">
        <ele>94.535073</ele>
        <time>2026-08-18T10:12:48.000Z</time>
      </trkpt>
      <trkpt lat="22.782879" lon="111.574590">
        <ele>94.434015</ele>
        <time>2026-08-18T10:12:49.000Z</time>
      </trkpt>
      <trkpt lat="22.782818" lon="111.574616">
        <ele>94.330010</ele>
        <time>2026-08-18T10:12:50.000Z</time>
      </trkpt>
      <trkpt lat="22.782757" lon="111.574642">
        <ele>94.256325</ele>
        <time>2026-08-18T10:12:51.000Z</time>
      </trkpt>
      <trkpt lat="22.782698" lon="111.574671">
        <ele>94.277729</ele>
        <time>2026-08-18T10:12:52.000Z</time>
      </trkpt>
      <trkpt lat="22.782641" lon="111.574703">
        <ele>94.298938</ele>
        <time>2026-08-18T10:12:53.000Z</time>
      </trkpt>
      <trkpt lat="22.782584" lon="111.574733">
        <ele>94.319873</ele>
        <time>2026-08-18T10:12:54.000Z</time>
      </trkpt>
      <trkpt lat="22.782525" lon="111.574761">
        <ele>94.341153</ele>
        <time>2026-08-18T10:12:55.000Z</time>
      </trkpt>
      <trkpt lat="22.782465" lon="111.574788">
        <ele>94.362618</ele>
        <time>2026-08-18T10:12:56.000Z</time>
      </trkpt>
      <trkpt lat="22.782403" lon="111.574812">
        <ele>94.384370</ele>
        <time>2026-08-18T10:12:57.000Z</time>
      </trkpt>
      <trkpt lat="22.782341" lon="111.574836">
        <ele>94.406123</ele>
        <time>2026-08-18T10:12:58.000Z</time>
      </trkpt>
      <trkpt lat="22.782278" lon="111.574859">
        <ele>94.428088</ele>
        <time>2026-08-18T10:12:59.000Z</time>
      </trkpt>
      <trkpt lat="22.782216" lon="111.574881">
        <ele>94.449643</ele>
        <time>2026-08-18T10:13:00.000Z</time>
      </trkpt>
      <trkpt lat="22.782156" lon="111.574899">
        <ele>94.470214</ele>
        <time>2026-08-18T10:13:01.000Z</time>
      </trkpt>
      <trkpt lat="22.782096" lon="111.574916">
        <ele>94.490705</ele>
        <time>2026-08-18T10:13:02.000Z</time>
      </trkpt>
      <trkpt lat="22.782038" lon="111.574937">
        <ele>94.510910</ele>
        <time>2026-08-18T10:13:03.000Z</time>
      </trkpt>
      <trkpt lat="22.781976" lon="111.574954">
        <ele>94.532041</ele>
        <time>2026-08-18T10:13:04.000Z</time>
      </trkpt>
      <trkpt lat="22.781917" lon="111.574971">
        <ele>94.552213</ele>
        <time>2026-08-18T10:13:05.000Z</time>
      </trkpt>
      <trkpt lat="22.781861" lon="111.574986">
        <ele>94.571273</ele>
        <time>2026-08-18T10:13:06.000Z</time>
      </trkpt>
      <trkpt lat="22.781801" lon="111.575001">
        <ele>94.591619</ele>
        <time>2026-08-18T10:13:07.000Z</time>
      </trkpt>
      <trkpt lat="22.781741" lon="111.575018">
        <ele>94.612111</ele>
        <time>2026-08-18T10:13:08.000Z</time>
      </trkpt>
      <trkpt lat="22.781683" lon="111.575035">
        <ele>94.631963</ele>
        <time>2026-08-18T10:13:09.000Z</time>
      </trkpt>
      <trkpt lat="22.781623" lon="111.575050">
        <ele>94.652309</ele>
        <time>2026-08-18T10:13:10.000Z</time>
      </trkpt>
      <trkpt lat="22.781563" lon="111.575063">
        <ele>94.672527</ele>
        <time>2026-08-18T10:13:11.000Z</time>
      </trkpt>
      <trkpt lat="22.781504" lon="111.575076">
        <ele>94.692421</ele>
        <time>2026-08-18T10:13:12.000Z</time>
      </trkpt>
      <trkpt lat="22.781446" lon="111.575087">
        <ele>94.711877</ele>
        <time>2026-08-18T10:13:13.000Z</time>
      </trkpt>
      <trkpt lat="22.781386" lon="111.575096">
        <ele>94.731892</ele>
        <time>2026-08-18T10:13:14.000Z</time>
      </trkpt>
      <trkpt lat="22.781326" lon="111.575112">
        <ele>94.752308</ele>
        <time>2026-08-18T10:13:15.000Z</time>
      </trkpt>
      <trkpt lat="22.781268" lon="111.575125">
        <ele>94.771878</ele>
        <time>2026-08-18T10:13:16.000Z</time>
      </trkpt>
      <trkpt lat="22.781213" lon="111.575136">
        <ele>94.790358</ele>
        <time>2026-08-18T10:13:17.000Z</time>
      </trkpt>
      <trkpt lat="22.781158" lon="111.575140">
        <ele>94.808573</ele>
        <time>2026-08-18T10:13:18.000Z</time>
      </trkpt>
      <trkpt lat="22.781110" lon="111.575141">
        <ele>94.824437</ele>
        <time>2026-08-18T10:13:19.000Z</time>
      </trkpt>
      <trkpt lat="22.781061" lon="111.575150">
        <ele>94.840859</ele>
        <time>2026-08-18T10:13:20.000Z</time>
      </trkpt>
      <trkpt lat="22.781008" lon="111.575155">
        <ele>94.949980</ele>
        <time>2026-08-18T10:13:21.000Z</time>
      </trkpt>
      <trkpt lat="22.780958" lon="111.575159">
        <ele>95.083158</ele>
        <time>2026-08-18T10:13:22.000Z</time>
      </trkpt>
      <trkpt lat="22.780907" lon="111.575161">
        <ele>95.218721</ele>
        <time>2026-08-18T10:13:23.000Z</time>
      </trkpt>
      <trkpt lat="22.780858" lon="111.575162">
        <ele>95.348905</ele>
        <time>2026-08-18T10:13:24.000Z</time>
      </trkpt>
      <trkpt lat="22.780810" lon="111.575163">
        <ele>95.476433</ele>
        <time>2026-08-18T10:13:25.000Z</time>
      </trkpt>
      <trkpt lat="22.780762" lon="111.575163">
        <ele>95.603938</ele>
        <time>2026-08-18T10:13:26.000Z</time>
      </trkpt>
      <trkpt lat="22.780717" lon="111.575162">
        <ele>95.723499</ele>
        <time>2026-08-18T10:13:27.000Z</time>
      </trkpt>
      <trkpt lat="22.780673" lon="111.575164">
        <ele>95.840481</ele>
        <time>2026-08-18T10:13:28.000Z</time>
      </trkpt>
      <trkpt lat="22.780630" lon="111.575165">
        <ele>95.954731</ele>
        <time>2026-08-18T10:13:29.000Z</time>
      </trkpt>
      <trkpt lat="22.780588" lon="111.575163">
        <ele>96.066405</ele>
        <time>2026-08-18T10:13:30.000Z</time>
      </trkpt>
      <trkpt lat="22.780549" lon="111.575165">
        <ele>96.170118</ele>
        <time>2026-08-18T10:13:31.000Z</time>
      </trkpt>
      <trkpt lat="22.780512" lon="111.575165">
        <ele>96.268403</ele>
        <time>2026-08-18T10:13:32.000Z</time>
      </trkpt>
      <trkpt lat="22.780474" lon="111.575165">
        <ele>96.369345</ele>
        <time>2026-08-18T10:13:33.000Z</time>
      </trkpt>
      <trkpt lat="22.780436" lon="111.575167">
        <ele>96.470405</ele>
        <time>2026-08-18T10:13:34.000Z</time>
      </trkpt>
      <trkpt lat="22.780398" lon="111.575167">
        <ele>96.571346</ele>
        <time>2026-08-18T10:13:35.000Z</time>
      </trkpt>
      <trkpt lat="22.780361" lon="111.575168">
        <ele>96.669662</ele>
        <time>2026-08-18T10:13:36.000Z</time>
      </trkpt>
      <trkpt lat="22.780323" lon="111.575169">
        <ele>96.770633</ele>
        <time>2026-08-18T10:13:37.000Z</time>
      </trkpt>
      <trkpt lat="22.780286" lon="111.575171">
        <ele>96.869040</ele>
        <time>2026-08-18T10:13:38.000Z</time>
      </trkpt>
      <trkpt lat="22.780251" lon="111.575172">
        <ele>96.962044</ele>
        <time>2026-08-18T10:13:39.000Z</time>
      </trkpt>
      <trkpt lat="22.780216" lon="111.575173">
        <ele>97.055049</ele>
        <time>2026-08-18T10:13:40.000Z</time>
      </trkpt>
      <trkpt lat="22.780184" lon="111.575169">
        <ele>97.140615</ele>
        <time>2026-08-18T10:13:41.000Z</time>
      </trkpt>
      <trkpt lat="22.780150" lon="111.575169">
        <ele>97.230931</ele>
        <time>2026-08-18T10:13:42.000Z</time>
      </trkpt>
      <trkpt lat="22.780122" lon="111.575166">
        <ele>97.305671</ele>
        <time>2026-08-18T10:13:43.000Z</time>
      </trkpt>
      <trkpt lat="22.780095" lon="111.575162">
        <ele>97.378058</ele>
        <time>2026-08-18T10:13:44.000Z</time>
      </trkpt>
      <trkpt lat="22.780071" lon="111.575162">
        <ele>97.441811</ele>
        <time>2026-08-18T10:13:45.000Z</time>
      </trkpt>
      <trkpt lat="22.780054" lon="111.575156">
        <ele>97.489299</ele>
        <time>2026-08-18T10:13:46.000Z</time>
      </trkpt>
      <trkpt lat="22.780038" lon="111.575154">
        <ele>97.532082</ele>
        <time>2026-08-18T10:13:47.000Z</time>
      </trkpt>
      <trkpt lat="22.780021" lon="111.575153">
        <ele>97.577307</ele>
        <time>2026-08-18T10:13:48.000Z</time>
      </trkpt>
      <trkpt lat="22.780006" lon="111.575153">
        <ele>97.617152</ele>
        <time>2026-08-18T10:13:49.000Z</time>
      </trkpt>
      <trkpt lat="22.779942" lon="111.575138">
        <ele>97.791083</ele>
        <time>2026-08-18T10:14:13.000Z</time>
      </trkpt>
      <trkpt lat="22.779926" lon="111.575132">
        <ele>97.836053</ele>
        <time>2026-08-18T10:14:14.000Z</time>
      </trkpt>
      <trkpt lat="22.779909" lon="111.575126">
        <ele>97.883542</ele>
        <time>2026-08-18T10:14:15.000Z</time>
      </trkpt>
      <trkpt lat="22.779883" lon="111.575126">
        <ele>97.952607</ele>
        <time>2026-08-18T10:14:16.000Z</time>
      </trkpt>
      <trkpt lat="22.779854" lon="111.575128">
        <ele>98.029797</ele>
        <time>2026-08-18T10:14:17.000Z</time>
      </trkpt>
      <trkpt lat="22.779824" lon="111.575130">
        <ele>98.109638</ele>
        <time>2026-08-18T10:14:18.000Z</time>
      </trkpt>
      <trkpt lat="22.779791" lon="111.575131">
        <ele>98.197331</ele>
        <time>2026-08-18T10:14:19.000Z</time>
      </trkpt>
      <trkpt lat="22.779759" lon="111.575129">
        <ele>98.282476</ele>
        <time>2026-08-18T10:14:20.000Z</time>
      </trkpt>
      <trkpt lat="22.779725" lon="111.575127">
        <ele>98.372924</ele>
        <time>2026-08-18T10:14:21.000Z</time>
      </trkpt>
      <trkpt lat="22.779699" lon="111.575127">
        <ele>98.441990</ele>
        <time>2026-08-18T10:14:22.000Z</time>
      </trkpt>
      <trkpt lat="22.779671" lon="111.575128">
        <ele>98.516408</ele>
        <time>2026-08-18T10:14:23.000Z</time>
      </trkpt>
      <trkpt lat="22.779644" lon="111.575127">
        <ele>98.588171</ele>
        <time>2026-08-18T10:14:24.000Z</time>
      </trkpt>
      <trkpt lat="22.779611" lon="111.575129">
        <ele>98.675967</ele>
        <time>2026-08-18T10:14:25.000Z</time>
      </trkpt>
      <trkpt lat="22.779575" lon="111.575135">
        <ele>98.772719</ele>
        <time>2026-08-18T10:14:26.000Z</time>
      </trkpt>
      <trkpt lat="22.779542" lon="111.575137">
        <ele>98.860515</ele>
        <time>2026-08-18T10:14:27.000Z</time>
      </trkpt>
      <trkpt lat="22.779504" lon="111.575139">
        <ele>98.961575</ele>
        <time>2026-08-18T10:14:28.000Z</time>
      </trkpt>
      <trkpt lat="22.779468" lon="111.575145">
        <ele>99.058326</ele>
        <time>2026-08-18T10:14:29.000Z</time>
      </trkpt>
      <trkpt lat="22.779430" lon="111.575147">
        <ele>99.159386</ele>
        <time>2026-08-18T10:14:30.000Z</time>
      </trkpt>
      <trkpt lat="22.779393" lon="111.575151">
        <ele>99.258158</ele>
        <time>2026-08-18T10:14:31.000Z</time>
      </trkpt>
      <trkpt lat="22.779354" lon="111.575157">
        <ele>99.362793</ele>
        <time>2026-08-18T10:14:32.000Z</time>
      </trkpt>
      <trkpt lat="22.779318" lon="111.575159">
        <ele>99.458547</ele>
        <time>2026-08-18T10:14:33.000Z</time>
      </trkpt>
      <trkpt lat="22.779286" lon="111.575159">
        <ele>99.543550</ele>
        <time>2026-08-18T10:14:34.000Z</time>
      </trkpt>
      <trkpt lat="22.779253" lon="111.575158">
        <ele>99.626574</ele>
        <time>2026-08-18T10:14:35.000Z</time>
      </trkpt>
      <trkpt lat="22.779222" lon="111.575158">
        <ele>99.660743</ele>
        <time>2026-08-18T10:14:36.000Z</time>
      </trkpt>
      <trkpt lat="22.779193" lon="111.575160">
        <ele>99.692772</ele>
        <time>2026-08-18T10:14:37.000Z</time>
      </trkpt>
      <trkpt lat="22.779162" lon="111.575162">
        <ele>99.727000</ele>
        <time>2026-08-18T10:14:38.000Z</time>
      </trkpt>
      <trkpt lat="22.779129" lon="111.575164">
        <ele>99.763430</ele>
        <time>2026-08-18T10:14:39.000Z</time>
      </trkpt>
      <trkpt lat="22.779097" lon="111.575163">
        <ele>99.798716</ele>
        <time>2026-08-18T10:14:40.000Z</time>
      </trkpt>
      <trkpt lat="22.779067" lon="111.575162">
        <ele>99.831798</ele>
        <time>2026-08-18T10:14:41.000Z</time>
      </trkpt>
      <trkpt lat="22.779033" lon="111.575162">
        <ele>99.869273</ele>
        <time>2026-08-18T10:14:42.000Z</time>
      </trkpt>
      <trkpt lat="22.779004" lon="111.575159">
        <ele>99.901382</ele>
        <time>2026-08-18T10:14:43.000Z</time>
      </trkpt>
      <trkpt lat="22.778974" lon="111.575156">
        <ele>99.934589</ele>
        <time>2026-08-18T10:14:44.000Z</time>
      </trkpt>
      <trkpt lat="22.778942" lon="111.575155">
        <ele>99.969874</ele>
        <time>2026-08-18T10:14:45.000Z</time>
      </trkpt>
      <trkpt lat="22.778910" lon="111.575154">
        <ele>100.005159</ele>
        <time>2026-08-18T10:14:46.000Z</time>
      </trkpt>
      <trkpt lat="22.778876" lon="111.575155">
        <ele>100.042648</ele>
        <time>2026-08-18T10:14:47.000Z</time>
      </trkpt>
      <trkpt lat="22.778841" lon="111.575155">
        <ele>100.081226</ele>
        <time>2026-08-18T10:14:48.000Z</time>
      </trkpt>
      <trkpt lat="22.778808" lon="111.575157">
        <ele>100.117656</ele>
        <time>2026-08-18T10:14:49.000Z</time>
      </trkpt>
      <trkpt lat="22.778775" lon="111.575160">
        <ele>100.154156</ele>
        <time>2026-08-18T10:14:50.000Z</time>
      </trkpt>
      <trkpt lat="22.778743" lon="111.575164">
        <ele>100.189660</ele>
        <time>2026-08-18T10:14:51.000Z</time>
      </trkpt>
      <trkpt lat="22.778710" lon="111.575166">
        <ele>100.226090</ele>
        <time>2026-08-18T10:14:52.000Z</time>
      </trkpt>
      <trkpt lat="22.778677" lon="111.575168">
        <ele>100.262520</ele>
        <time>2026-08-18T10:14:53.000Z</time>
      </trkpt>
      <trkpt lat="22.778641" lon="111.575172">
        <ele>100.302407</ele>
        <time>2026-08-18T10:14:54.000Z</time>
      </trkpt>
      <trkpt lat="22.778606" lon="111.575172">
        <ele>100.340984</ele>
        <time>2026-08-18T10:14:55.000Z</time>
      </trkpt>
      <trkpt lat="22.778572" lon="111.575173">
        <ele>100.378473</ele>
        <time>2026-08-18T10:14:56.000Z</time>
      </trkpt>
      <trkpt lat="22.778536" lon="111.575173">
        <ele>100.418153</ele>
        <time>2026-08-18T10:14:57.000Z</time>
      </trkpt>
      <trkpt lat="22.778500" lon="111.575173">
        <ele>100.457833</ele>
        <time>2026-08-18T10:14:58.000Z</time>
      </trkpt>
      <trkpt lat="22.778463" lon="111.575176">
        <ele>100.498728</ele>
        <time>2026-08-18T10:14:59.000Z</time>
      </trkpt>
      <trkpt lat="22.778426" lon="111.575178">
        <ele>100.539561</ele>
        <time>2026-08-18T10:15:00.000Z</time>
      </trkpt>
      <trkpt lat="22.778391" lon="111.575179">
        <ele>100.578151</ele>
        <time>2026-08-18T10:15:01.000Z</time>
      </trkpt>
      <trkpt lat="22.778356" lon="111.575180">
        <ele>100.616742</ele>
        <time>2026-08-18T10:15:02.000Z</time>
      </trkpt>
      <trkpt lat="22.778319" lon="111.575178">
        <ele>100.657575</ele>
        <time>2026-08-18T10:15:03.000Z</time>
      </trkpt>
      <trkpt lat="22.778286" lon="111.575179">
        <ele>100.693962</ele>
        <time>2026-08-18T10:15:04.000Z</time>
      </trkpt>
      <trkpt lat="22.778250" lon="111.575180">
        <ele>100.733655</ele>
        <time>2026-08-18T10:15:05.000Z</time>
      </trkpt>
      <trkpt lat="22.778214" lon="111.575183">
        <ele>100.773451</ele>
        <time>2026-08-18T10:15:06.000Z</time>
      </trkpt>
      <trkpt lat="22.778178" lon="111.575186">
        <ele>100.813248</ele>
        <time>2026-08-18T10:15:07.000Z</time>
      </trkpt>
      <trkpt lat="22.778142" lon="111.575188">
        <ele>100.852979</ele>
        <time>2026-08-18T10:15:08.000Z</time>
      </trkpt>
      <trkpt lat="22.778106" lon="111.575189">
        <ele>100.892672</ele>
        <time>2026-08-18T10:15:09.000Z</time>
      </trkpt>
      <trkpt lat="22.778072" lon="111.575189">
        <ele>100.930147</ele>
        <time>2026-08-18T10:15:10.000Z</time>
      </trkpt>
      <trkpt lat="22.778041" lon="111.575179">
        <ele>100.965795</ele>
        <time>2026-08-18T10:15:11.000Z</time>
      </trkpt>
      <trkpt lat="22.778005" lon="111.575175">
        <ele>101.005682</ele>
        <time>2026-08-18T10:15:12.000Z</time>
      </trkpt>
      <trkpt lat="22.777971" lon="111.575170">
        <ele>101.043500</ele>
        <time>2026-08-18T10:15:13.000Z</time>
      </trkpt>
      <trkpt lat="22.777930" lon="111.575169">
        <ele>101.088702</ele>
        <time>2026-08-18T10:15:14.000Z</time>
      </trkpt>
      <trkpt lat="22.777896" lon="111.575165">
        <ele>101.126397</ele>
        <time>2026-08-18T10:15:15.000Z</time>
      </trkpt>
      <trkpt lat="22.777857" lon="111.575164">
        <ele>101.169396</ele>
        <time>2026-08-18T10:15:16.000Z</time>
      </trkpt>
      <trkpt lat="22.777819" lon="111.575167">
        <ele>101.211391</ele>
        <time>2026-08-18T10:15:17.000Z</time>
      </trkpt>
      <trkpt lat="22.777780" lon="111.575169">
        <ele>101.254425</ele>
        <time>2026-08-18T10:15:18.000Z</time>
      </trkpt>
      <trkpt lat="22.777742" lon="111.575173">
        <ele>101.296506</ele>
        <time>2026-08-18T10:15:19.000Z</time>
      </trkpt>
      <trkpt lat="22.777712" lon="111.575180">
        <ele>101.330329</ele>
        <time>2026-08-18T10:15:20.000Z</time>
      </trkpt>
      <trkpt lat="22.777685" lon="111.575186">
        <ele>101.360707</ele>
        <time>2026-08-18T10:15:21.000Z</time>
      </trkpt>
      <trkpt lat="22.777653" lon="111.575189">
        <ele>101.396109</ele>
        <time>2026-08-18T10:15:22.000Z</time>
      </trkpt>
      <trkpt lat="22.777621" lon="111.575190">
        <ele>101.431394</ele>
        <time>2026-08-18T10:15:23.000Z</time>
      </trkpt>
      <trkpt lat="22.777587" lon="111.575189">
        <ele>101.468883</ele>
        <time>2026-08-18T10:15:24.000Z</time>
      </trkpt>
      <trkpt lat="22.777556" lon="111.575187">
        <ele>101.503112</ele>
        <time>2026-08-18T10:15:25.000Z</time>
      </trkpt>
      <trkpt lat="22.777523" lon="111.575179">
        <ele>101.540383</ele>
        <time>2026-08-18T10:15:26.000Z</time>
      </trkpt>
      <trkpt lat="22.777499" lon="111.575175">
        <ele>101.567146</ele>
        <time>2026-08-18T10:15:27.000Z</time>
      </trkpt>
      <trkpt lat="22.777475" lon="111.575161">
        <ele>101.597183</ele>
        <time>2026-08-18T10:15:28.000Z</time>
      </trkpt>
      <trkpt lat="22.777450" lon="111.575160">
        <ele>101.589921</ele>
        <time>2026-08-18T10:15:29.000Z</time>
      </trkpt>
      <trkpt lat="22.777428" lon="111.575167">
        <ele>101.568881</ele>
        <time>2026-08-18T10:15:30.000Z</time>
      </trkpt>
      <trkpt lat="22.777405" lon="111.575171">
        <ele>101.547504</ele>
        <time>2026-08-18T10:15:31.000Z</time>
      </trkpt>
      <trkpt lat="22.777374" lon="111.575172">
        <ele>101.519044</ele>
        <time>2026-08-18T10:15:32.000Z</time>
      </trkpt>
      <trkpt lat="22.777340" lon="111.575169">
        <ele>101.487739</ele>
        <time>2026-08-18T10:15:33.000Z</time>
      </trkpt>
      <trkpt lat="22.777303" lon="111.575162">
        <ele>101.453272</ele>
        <time>2026-08-18T10:15:34.000Z</time>
      </trkpt>
      <trkpt lat="22.777262" lon="111.575159">
        <ele>101.415561</ele>
        <time>2026-08-18T10:15:35.000Z</time>
      </trkpt>
      <trkpt lat="22.777221" lon="111.575153">
        <ele>101.377595</ele>
        <time>2026-08-18T10:15:36.000Z</time>
      </trkpt>
      <trkpt lat="22.777180" lon="111.575148">
        <ele>101.339733</ele>
        <time>2026-08-18T10:15:37.000Z</time>
      </trkpt>
      <trkpt lat="22.777143" lon="111.575138">
        <ele>101.304740</ele>
        <time>2026-08-18T10:15:38.000Z</time>
      </trkpt>
      <trkpt lat="22.777101" lon="111.575135">
        <ele>101.266114</ele>
        <time>2026-08-18T10:15:39.000Z</time>
      </trkpt>
      <trkpt lat="22.777064" lon="111.575134">
        <ele>101.232149</ele>
        <time>2026-08-18T10:15:40.000Z</time>
      </trkpt>
      <trkpt lat="22.777026" lon="111.575128">
        <ele>101.196909</ele>
        <time>2026-08-18T10:15:41.000Z</time>
      </trkpt>
      <trkpt lat="22.776992" lon="111.575120">
        <ele>101.164982</ele>
        <time>2026-08-18T10:15:42.000Z</time>
      </trkpt>
      <trkpt lat="22.776954" lon="111.575107">
        <ele>101.128416</ele>
        <time>2026-08-18T10:15:43.000Z</time>
      </trkpt>
      <trkpt lat="22.776918" lon="111.575095">
        <ele>101.093854</ele>
        <time>2026-08-18T10:15:44.000Z</time>
      </trkpt>
      <trkpt lat="22.776892" lon="111.575083">
        <ele>101.067924</ele>
        <time>2026-08-18T10:15:45.000Z</time>
      </trkpt>
      <trkpt lat="22.776859" lon="111.575071">
        <ele>101.035983</ele>
        <time>2026-08-18T10:15:46.000Z</time>
      </trkpt>
      <trkpt lat="22.776824" lon="111.575060">
        <ele>101.002543</ele>
        <time>2026-08-18T10:15:47.000Z</time>
      </trkpt>
      <trkpt lat="22.776795" lon="111.575053">
        <ele>100.975279</ele>
        <time>2026-08-18T10:15:48.000Z</time>
      </trkpt>
      <trkpt lat="22.776768" lon="111.575038">
        <ele>100.947440</ele>
        <time>2026-08-18T10:15:49.000Z</time>
      </trkpt>
      <trkpt lat="22.776741" lon="111.575021">
        <ele>100.918790</ele>
        <time>2026-08-18T10:15:50.000Z</time>
      </trkpt>
      <trkpt lat="22.776715" lon="111.575010">
        <ele>100.893179</ele>
        <time>2026-08-18T10:15:51.000Z</time>
      </trkpt>
      <trkpt lat="22.776697" lon="111.575001">
        <ele>100.874989</ele>
        <time>2026-08-18T10:15:52.000Z</time>
      </trkpt>
      <trkpt lat="22.776689" lon="111.574989">
        <ele>100.862460</ele>
        <time>2026-08-18T10:15:53.000Z</time>
      </trkpt>
      <trkpt lat="22.776680" lon="111.574976">
        <ele>100.848705</ele>
        <time>2026-08-18T10:15:54.000Z</time>
      </trkpt>
      <trkpt lat="22.776676" lon="111.574967">
        <ele>100.840251</ele>
        <time>2026-08-18T10:15:55.000Z</time>
      </trkpt>
      <trkpt lat="22.776570" lon="111.574895">
        <ele>100.725474</ele>
        <time>2026-08-18T10:19:10.000Z</time>
      </trkpt>
      <trkpt lat="22.776555" lon="111.574893">
        <ele>100.711605</ele>
        <time>2026-08-18T10:19:11.000Z</time>
      </trkpt>
      <trkpt lat="22.776543" lon="111.574890">
        <ele>100.700304</ele>
        <time>2026-08-18T10:19:12.000Z</time>
      </trkpt>
      <trkpt lat="22.776536" lon="111.574885">
        <ele>100.692612</ele>
        <time>2026-08-18T10:19:13.000Z</time>
      </trkpt>
      <trkpt lat="22.776522" lon="111.574884">
        <ele>100.679737</ele>
        <time>2026-08-18T10:19:14.000Z</time>
      </trkpt>
      <trkpt lat="22.776509" lon="111.574888">
        <ele>100.667336</ele>
        <time>2026-08-18T10:19:15.000Z</time>
      </trkpt>
      <trkpt lat="22.776492" lon="111.574889">
        <ele>100.651712</ele>
        <time>2026-08-18T10:19:16.000Z</time>
      </trkpt>
      <trkpt lat="22.776473" lon="111.574879">
        <ele>100.632332</ele>
        <time>2026-08-18T10:19:17.000Z</time>
      </trkpt>
      <trkpt lat="22.776453" lon="111.574867">
        <ele>100.611356</ele>
        <time>2026-08-18T10:19:18.000Z</time>
      </trkpt>
      <trkpt lat="22.776430" lon="111.574851">
        <ele>100.586281</ele>
        <time>2026-08-18T10:19:19.000Z</time>
      </trkpt>
      <trkpt lat="22.776403" lon="111.574835">
        <ele>100.558046</ele>
        <time>2026-08-18T10:19:20.000Z</time>
      </trkpt>
      <trkpt lat="22.776375" lon="111.574825">
        <ele>100.530994</ele>
        <time>2026-08-18T10:19:21.000Z</time>
      </trkpt>
      <trkpt lat="22.776341" lon="111.574813">
        <ele>100.498182</ele>
        <time>2026-08-18T10:19:22.000Z</time>
      </trkpt>
      <trkpt lat="22.776310" lon="111.574803">
        <ele>100.468502</ele>
        <time>2026-08-18T10:19:23.000Z</time>
      </trkpt>
      <trkpt lat="22.776278" lon="111.574789">
        <ele>100.436837</ele>
        <time>2026-08-18T10:19:24.000Z</time>
      </trkpt>
      <trkpt lat="22.776248" lon="111.574772">
        <ele>100.405775</ele>
        <time>2026-08-18T10:19:25.000Z</time>
      </trkpt>
      <trkpt lat="22.776218" lon="111.574755">
        <ele>100.374713</ele>
        <time>2026-08-18T10:19:26.000Z</time>
      </trkpt>
      <trkpt lat="22.776187" lon="111.574736">
        <ele>100.342036</ele>
        <time>2026-08-18T10:19:27.000Z</time>
      </trkpt>
      <trkpt lat="22.776154" lon="111.574718">
        <ele>100.308138</ele>
        <time>2026-08-18T10:19:28.000Z</time>
      </trkpt>
      <trkpt lat="22.776123" lon="111.574699">
        <ele>100.275462</ele>
        <time>2026-08-18T10:19:29.000Z</time>
      </trkpt>
      <trkpt lat="22.776095" lon="111.574675">
        <ele>100.242711</ele>
        <time>2026-08-18T10:19:30.000Z</time>
      </trkpt>
      <trkpt lat="22.776066" lon="111.574654">
        <ele>100.210711</ele>
        <time>2026-08-18T10:19:31.000Z</time>
      </trkpt>
      <trkpt lat="22.776035" lon="111.574633">
        <ele>100.177170</ele>
        <time>2026-08-18T10:19:32.000Z</time>
      </trkpt>
      <trkpt lat="22.776007" lon="111.574612">
        <ele>100.145929</ele>
        <time>2026-08-18T10:19:33.000Z</time>
      </trkpt>
      <trkpt lat="22.775974" lon="111.574593">
        <ele>100.111643</ele>
        <time>2026-08-18T10:19:34.000Z</time>
      </trkpt>
      <trkpt lat="22.775944" lon="111.574570">
        <ele>100.077928</ele>
        <time>2026-08-18T10:19:35.000Z</time>
      </trkpt>
      <trkpt lat="22.775918" lon="111.574548">
        <ele>100.047666</ele>
        <time>2026-08-18T10:19:36.000Z</time>
      </trkpt>
      <trkpt lat="22.775887" lon="111.574533">
        <ele>100.016515</ele>
        <time>2026-08-18T10:19:37.000Z</time>
      </trkpt>
      <trkpt lat="22.775854" lon="111.574514">
        <ele>99.982229</ele>
        <time>2026-08-18T10:19:38.000Z</time>
      </trkpt>
      <trkpt lat="22.775838" lon="111.574506">
        <ele>99.966060</ele>
        <time>2026-08-18T10:19:39.000Z</time>
      </trkpt>
      <trkpt lat="22.775821" lon="111.574494">
        <ele>99.950798</ele>
        <time>2026-08-18T10:19:40.000Z</time>
      </trkpt>
      <trkpt lat="22.775801" lon="111.574484">
        <ele>99.939374</ele>
        <time>2026-08-18T10:19:41.000Z</time>
      </trkpt>
      <trkpt lat="22.775780" lon="111.574471">
        <ele>99.926832</ele>
        <time>2026-08-18T10:19:42.000Z</time>
      </trkpt>
      <trkpt lat="22.775760" lon="111.574460">
        <ele>99.915200</ele>
        <time>2026-08-18T10:19:43.000Z</time>
      </trkpt>
      <trkpt lat="22.775736" lon="111.574450">
        <ele>99.901864</ele>
        <time>2026-08-18T10:19:44.000Z</time>
      </trkpt>
      <trkpt lat="22.775712" lon="111.574429">
        <ele>99.885868</ele>
        <time>2026-08-18T10:19:45.000Z</time>
      </trkpt>
      <trkpt lat="22.775688" lon="111.574403">
        <ele>99.868272</ele>
        <time>2026-08-18T10:19:46.000Z</time>
      </trkpt>
      <trkpt lat="22.775668" lon="111.574388">
        <ele>99.855659</ele>
        <time>2026-08-18T10:19:47.000Z</time>
      </trkpt>
      <trkpt lat="22.775651" lon="111.574376">
        <ele>99.845138</ele>
        <time>2026-08-18T10:19:48.000Z</time>
      </trkpt>
      <trkpt lat="22.775627" lon="111.574369">
        <ele>99.832247</ele>
        <time>2026-08-18T10:19:49.000Z</time>
      </trkpt>
      <trkpt lat="22.775600" lon="111.574355">
        <ele>99.816723</ele>
        <time>2026-08-18T10:19:50.000Z</time>
      </trkpt>
      <trkpt lat="22.775573" lon="111.574335">
        <ele>99.799763</ele>
        <time>2026-08-18T10:19:51.000Z</time>
      </trkpt>
      <trkpt lat="22.775539" lon="111.574322">
        <ele>99.781063</ele>
        <time>2026-08-18T10:19:52.000Z</time>
      </trkpt>
      <trkpt lat="22.775508" lon="111.574312">
        <ele>99.764286</ele>
        <time>2026-08-18T10:19:53.000Z</time>
      </trkpt>
      <trkpt lat="22.775476" lon="111.574293">
        <ele>99.745363</ele>
        <time>2026-08-18T10:19:54.000Z</time>
      </trkpt>
      <trkpt lat="22.775451" lon="111.574277">
        <ele>99.730306</ele>
        <time>2026-08-18T10:19:55.000Z</time>
      </trkpt>
      <trkpt lat="22.775417" lon="111.574256">
        <ele>99.710010</ele>
        <time>2026-08-18T10:19:56.000Z</time>
      </trkpt>
      <trkpt lat="22.775384" lon="111.574239">
        <ele>99.691060</ele>
        <time>2026-08-18T10:19:57.000Z</time>
      </trkpt>
      <trkpt lat="22.775361" lon="111.574230">
        <ele>99.678377</ele>
        <time>2026-08-18T10:19:58.000Z</time>
      </trkpt>
      <trkpt lat="22.775333" lon="111.574218">
        <ele>99.662760</ele>
        <time>2026-08-18T10:19:59.000Z</time>
      </trkpt>
      <trkpt lat="22.775294" lon="111.574207">
        <ele>99.641857</ele>
        <time>2026-08-18T10:20:00.000Z</time>
      </trkpt>
      <trkpt lat="22.775255" lon="111.574194">
        <ele>99.620693</ele>
        <time>2026-08-18T10:20:01.000Z</time>
      </trkpt>
      <trkpt lat="22.775215" lon="111.574189">
        <ele>99.599807</ele>
        <time>2026-08-18T10:20:02.000Z</time>
      </trkpt>
      <trkpt lat="22.775179" lon="111.574177">
        <ele>99.580272</ele>
        <time>2026-08-18T10:20:03.000Z</time>
      </trkpt>
      <trkpt lat="22.775140" lon="111.574163">
        <ele>99.558962</ele>
        <time>2026-08-18T10:20:04.000Z</time>
      </trkpt>
      <trkpt lat="22.775102" lon="111.574151">
        <ele>99.538433</ele>
        <time>2026-08-18T10:20:05.000Z</time>
      </trkpt>
      <trkpt lat="22.775066" lon="111.574137">
        <ele>99.518595</ele>
        <time>2026-08-18T10:20:06.000Z</time>
      </trkpt>
      <trkpt lat="22.775034" lon="111.574109">
        <ele>99.497268</ele>
        <time>2026-08-18T10:20:07.000Z</time>
      </trkpt>
      <trkpt lat="22.774998" lon="111.574096">
        <ele>99.477586</ele>
        <time>2026-08-18T10:20:08.000Z</time>
      </trkpt>
      <trkpt lat="22.774962" lon="111.574082">
        <ele>99.457748</ele>
        <time>2026-08-18T10:20:09.000Z</time>
      </trkpt>
      <trkpt lat="22.774926" lon="111.574069">
        <ele>99.438067</ele>
        <time>2026-08-18T10:20:10.000Z</time>
      </trkpt>
      <trkpt lat="22.774894" lon="111.574061">
        <ele>99.421032</ele>
        <time>2026-08-18T10:20:11.000Z</time>
      </trkpt>
      <trkpt lat="22.774858" lon="111.574051">
        <ele>99.401756</ele>
        <time>2026-08-18T10:20:12.000Z</time>
      </trkpt>
      <trkpt lat="22.774828" lon="111.574040">
        <ele>99.385329</ele>
        <time>2026-08-18T10:20:13.000Z</time>
      </trkpt>
      <trkpt lat="22.774798" lon="111.574048">
        <ele>99.369304</ele>
        <time>2026-08-18T10:20:14.000Z</time>
      </trkpt>
      <trkpt lat="22.774767" lon="111.574061">
        <ele>99.352064</ele>
        <time>2026-08-18T10:20:15.000Z</time>
      </trkpt>
      <trkpt lat="22.774705" lon="111.574072">
        <ele>99.319476</ele>
        <time>2026-08-18T10:20:17.000Z</time>
      </trkpt>
      <trkpt lat="22.774662" lon="111.574068">
        <ele>99.297090</ele>
        <time>2026-08-18T10:20:18.000Z</time>
      </trkpt>
      <trkpt lat="22.774615" lon="111.574072">
        <ele>99.272635</ele>
        <time>2026-08-18T10:20:19.000Z</time>
      </trkpt>
      <trkpt lat="22.774570" lon="111.574074">
        <ele>99.249274</ele>
        <time>2026-08-18T10:20:20.000Z</time>
      </trkpt>
      <trkpt lat="22.774530" lon="111.574072">
        <ele>99.228503</ele>
        <time>2026-08-18T10:20:21.000Z</time>
      </trkpt>
      <trkpt lat="22.774487" lon="111.574070">
        <ele>99.206178</ele>
        <time>2026-08-18T10:20:22.000Z</time>
      </trkpt>
      <trkpt lat="22.774445" lon="111.574075">
        <ele>99.184261</ele>
        <time>2026-08-18T10:20:23.000Z</time>
      </trkpt>
      <trkpt lat="22.774404" lon="111.574079">
        <ele>99.162908</ele>
        <time>2026-08-18T10:20:24.000Z</time>
      </trkpt>
      <trkpt lat="22.774361" lon="111.574074">
        <ele>99.140475</ele>
        <time>2026-08-18T10:20:25.000Z</time>
      </trkpt>
      <trkpt lat="22.774321" lon="111.574067">
        <ele>99.119458</ele>
        <time>2026-08-18T10:20:26.000Z</time>
      </trkpt>
      <trkpt lat="22.774278" lon="111.574062">
        <ele>99.097026</ele>
        <time>2026-08-18T10:20:27.000Z</time>
      </trkpt>
      <trkpt lat="22.774235" lon="111.574059">
        <ele>99.074675</ele>
        <time>2026-08-18T10:20:28.000Z</time>
      </trkpt>
      <trkpt lat="22.774184" lon="111.574057">
        <ele>99.048203</ele>
        <time>2026-08-18T10:20:29.000Z</time>
      </trkpt>
      <trkpt lat="22.774140" lon="111.574058">
        <ele>99.025375</ele>
        <time>2026-08-18T10:20:30.000Z</time>
      </trkpt>
      <trkpt lat="22.774093" lon="111.574054">
        <ele>99.021788</ele>
        <time>2026-08-18T10:20:31.000Z</time>
      </trkpt>
      <trkpt lat="22.774041" lon="111.574050">
        <ele>99.021296</ele>
        <time>2026-08-18T10:20:32.000Z</time>
      </trkpt>
      <trkpt lat="22.773985" lon="111.574049">
        <ele>99.020767</ele>
        <time>2026-08-18T10:20:33.000Z</time>
      </trkpt>
      <trkpt lat="22.773932" lon="111.574050">
        <ele>99.020267</ele>
        <time>2026-08-18T10:20:34.000Z</time>
      </trkpt>
      <trkpt lat="22.773885" lon="111.574052">
        <ele>99.019823</ele>
        <time>2026-08-18T10:20:35.000Z</time>
      </trkpt>
      <trkpt lat="22.773839" lon="111.574053">
        <ele>99.019388</ele>
        <time>2026-08-18T10:20:36.000Z</time>
      </trkpt>
      <trkpt lat="22.773791" lon="111.574051">
        <ele>99.018935</ele>
        <time>2026-08-18T10:20:37.000Z</time>
      </trkpt>
      <trkpt lat="22.773752" lon="111.574049">
        <ele>99.018566</ele>
        <time>2026-08-18T10:20:38.000Z</time>
      </trkpt>
      <trkpt lat="22.773705" lon="111.574052">
        <ele>99.018122</ele>
        <time>2026-08-18T10:20:39.000Z</time>
      </trkpt>
      <trkpt lat="22.773656" lon="111.574055">
        <ele>99.017659</ele>
        <time>2026-08-18T10:20:40.000Z</time>
      </trkpt>
      <trkpt lat="22.773607" lon="111.574056">
        <ele>99.017196</ele>
        <time>2026-08-18T10:20:41.000Z</time>
      </trkpt>
      <trkpt lat="22.773566" lon="111.574058">
        <ele>99.016809</ele>
        <time>2026-08-18T10:20:42.000Z</time>
      </trkpt>
      <trkpt lat="22.773523" lon="111.574060">
        <ele>99.016402</ele>
        <time>2026-08-18T10:20:43.000Z</time>
      </trkpt>
      <trkpt lat="22.773481" lon="111.574062">
        <ele>99.016006</ele>
        <time>2026-08-18T10:20:44.000Z</time>
      </trkpt>
      <trkpt lat="22.773434" lon="111.574068">
        <ele>99.015559</ele>
        <time>2026-08-18T10:20:45.000Z</time>
      </trkpt>
      <trkpt lat="22.773387" lon="111.574065">
        <ele>99.015114</ele>
        <time>2026-08-18T10:20:46.000Z</time>
      </trkpt>
      <trkpt lat="22.773340" lon="111.574063">
        <ele>99.014670</ele>
        <time>2026-08-18T10:20:47.000Z</time>
      </trkpt>
      <trkpt lat="22.773288" lon="111.574060">
        <ele>99.014179</ele>
        <time>2026-08-18T10:20:48.000Z</time>
      </trkpt>
      <trkpt lat="22.773238" lon="111.574060">
        <ele>99.013707</ele>
        <time>2026-08-18T10:20:49.000Z</time>
      </trkpt>
      <trkpt lat="22.773191" lon="111.574059">
        <ele>99.013263</ele>
        <time>2026-08-18T10:20:50.000Z</time>
      </trkpt>
      <trkpt lat="22.773146" lon="111.574056">
        <ele>99.012838</ele>
        <time>2026-08-18T10:20:51.000Z</time>
      </trkpt>
      <trkpt lat="22.773100" lon="111.574057">
        <ele>99.012403</ele>
        <time>2026-08-18T10:20:52.000Z</time>
      </trkpt>
      <trkpt lat="22.773055" lon="111.574053">
        <ele>99.011977</ele>
        <time>2026-08-18T10:20:53.000Z</time>
      </trkpt>
      <trkpt lat="22.773008" lon="111.574050">
        <ele>99.011533</ele>
        <time>2026-08-18T10:20:54.000Z</time>
      </trkpt>
      <trkpt lat="22.772959" lon="111.574052">
        <ele>99.011070</ele>
        <time>2026-08-18T10:20:55.000Z</time>
      </trkpt>
      <trkpt lat="22.772909" lon="111.574051">
        <ele>99.010598</ele>
        <time>2026-08-18T10:20:56.000Z</time>
      </trkpt>
      <trkpt lat="22.772859" lon="111.574052">
        <ele>99.010126</ele>
        <time>2026-08-18T10:20:57.000Z</time>
      </trkpt>
      <trkpt lat="22.772812" lon="111.574051">
        <ele>99.009682</ele>
        <time>2026-08-18T10:20:58.000Z</time>
      </trkpt>
      <trkpt lat="22.772764" lon="111.574048">
        <ele>99.009228</ele>
        <time>2026-08-18T10:20:59.000Z</time>
      </trkpt>
      <trkpt lat="22.772718" lon="111.574044">
        <ele>99.008793</ele>
        <time>2026-08-18T10:21:00.000Z</time>
      </trkpt>
      <trkpt lat="22.772671" lon="111.574042">
        <ele>99.008349</ele>
        <time>2026-08-18T10:21:01.000Z</time>
      </trkpt>
      <trkpt lat="22.772624" lon="111.574040">
        <ele>99.007905</ele>
        <time>2026-08-18T10:21:02.000Z</time>
      </trkpt>
      <trkpt lat="22.772578" lon="111.574035">
        <ele>99.007468</ele>
        <time>2026-08-18T10:21:03.000Z</time>
      </trkpt>
      <trkpt lat="22.772531" lon="111.574034">
        <ele>99.007024</ele>
        <time>2026-08-18T10:21:04.000Z</time>
      </trkpt>
      <trkpt lat="22.772483" lon="111.574030">
        <ele>99.006570</ele>
        <time>2026-08-18T10:21:05.000Z</time>
      </trkpt>
      <trkpt lat="22.772435" lon="111.574029">
        <ele>99.006117</ele>
        <time>2026-08-18T10:21:06.000Z</time>
      </trkpt>
      <trkpt lat="22.772391" lon="111.574032">
        <ele>99.005701</ele>
        <time>2026-08-18T10:21:07.000Z</time>
      </trkpt>
      <trkpt lat="22.772344" lon="111.574034">
        <ele>99.005257</ele>
        <time>2026-08-18T10:21:08.000Z</time>
      </trkpt>
      <trkpt lat="22.772299" lon="111.574031">
        <ele>99.002927</ele>
        <time>2026-08-18T10:21:09.000Z</time>
      </trkpt>
      <trkpt lat="22.772253" lon="111.574031">
        <ele>99.000229</ele>
        <time>2026-08-18T10:21:10.000Z</time>
      </trkpt>
      <trkpt lat="22.772208" lon="111.574031">
        <ele>98.997590</ele>
        <time>2026-08-18T10:21:11.000Z</time>
      </trkpt>
      <trkpt lat="22.772163" lon="111.574029">
        <ele>98.994949</ele>
        <time>2026-08-18T10:21:12.000Z</time>
      </trkpt>
      <trkpt lat="22.772119" lon="111.574035">
        <ele>98.992348</ele>
        <time>2026-08-18T10:21:13.000Z</time>
      </trkpt>
      <trkpt lat="22.772075" lon="111.574043">
        <ele>98.989732</ele>
        <time>2026-08-18T10:21:14.000Z</time>
      </trkpt>
      <trkpt lat="22.772030" lon="111.574047">
        <ele>98.987084</ele>
        <time>2026-08-18T10:21:15.000Z</time>
      </trkpt>
      <trkpt lat="22.771986" lon="111.574053">
        <ele>98.984483</ele>
        <time>2026-08-18T10:21:16.000Z</time>
      </trkpt>
      <trkpt lat="22.771945" lon="111.574053">
        <ele>98.982079</ele>
        <time>2026-08-18T10:21:17.000Z</time>
      </trkpt>
      <trkpt lat="22.771902" lon="111.574050">
        <ele>98.979552</ele>
        <time>2026-08-18T10:21:18.000Z</time>
      </trkpt>
      <trkpt lat="22.771863" lon="111.574044">
        <ele>98.977242</ele>
        <time>2026-08-18T10:21:19.000Z</time>
      </trkpt>
      <trkpt lat="22.771821" lon="111.574042">
        <ele>98.974776</ele>
        <time>2026-08-18T10:21:20.000Z</time>
      </trkpt>
      <trkpt lat="22.771779" lon="111.574040">
        <ele>98.972311</ele>
        <time>2026-08-18T10:21:21.000Z</time>
      </trkpt>
      <trkpt lat="22.771736" lon="111.574040">
        <ele>98.969789</ele>
        <time>2026-08-18T10:21:22.000Z</time>
      </trkpt>
      <trkpt lat="22.771690" lon="111.574049">
        <ele>98.967048</ele>
        <time>2026-08-18T10:21:23.000Z</time>
      </trkpt>
      <trkpt lat="22.771646" lon="111.574053">
        <ele>98.964458</ele>
        <time>2026-08-18T10:21:24.000Z</time>
      </trkpt>
      <trkpt lat="22.771599" lon="111.574062">
        <ele>98.961659</ele>
        <time>2026-08-18T10:21:25.000Z</time>
      </trkpt>
      <trkpt lat="22.771556" lon="111.574063">
        <ele>98.959137</ele>
        <time>2026-08-18T10:21:26.000Z</time>
      </trkpt>
      <trkpt lat="22.771514" lon="111.574058">
        <ele>98.956659</ele>
        <time>2026-08-18T10:21:27.000Z</time>
      </trkpt>
      <trkpt lat="22.771470" lon="111.574057">
        <ele>98.954078</ele>
        <time>2026-08-18T10:21:28.000Z</time>
      </trkpt>
      <trkpt lat="22.771424" lon="111.574064">
        <ele>98.951354</ele>
        <time>2026-08-18T10:21:29.000Z</time>
      </trkpt>
      <trkpt lat="22.771386" lon="111.574062">
        <ele>98.949123</ele>
        <time>2026-08-18T10:21:30.000Z</time>
      </trkpt>
      <trkpt lat="22.771346" lon="111.574058">
        <ele>98.946767</ele>
        <time>2026-08-18T10:21:31.000Z</time>
      </trkpt>
      <trkpt lat="22.771311" lon="111.574057">
        <ele>98.944714</ele>
        <time>2026-08-18T10:21:32.000Z</time>
      </trkpt>
      <trkpt lat="22.771269" lon="111.574060">
        <ele>98.942245</ele>
        <time>2026-08-18T10:21:33.000Z</time>
      </trkpt>
      <trkpt lat="22.771228" lon="111.574060">
        <ele>98.939841</ele>
        <time>2026-08-18T10:21:34.000Z</time>
      </trkpt>
      <trkpt lat="22.771189" lon="111.574060">
        <ele>98.937554</ele>
        <time>2026-08-18T10:21:35.000Z</time>
      </trkpt>
      <trkpt lat="22.771147" lon="111.574061">
        <ele>98.935090</ele>
        <time>2026-08-18T10:21:36.000Z</time>
      </trkpt>
      <trkpt lat="22.771103" lon="111.574063">
        <ele>98.932507</ele>
        <time>2026-08-18T10:21:37.000Z</time>
      </trkpt>
      <trkpt lat="22.771058" lon="111.574068">
        <ele>98.929854</ele>
        <time>2026-08-18T10:21:38.000Z</time>
      </trkpt>
      <trkpt lat="22.771015" lon="111.574076">
        <ele>98.927296</ele>
        <time>2026-08-18T10:21:39.000Z</time>
      </trkpt>
      <trkpt lat="22.770976" lon="111.574086">
        <ele>98.924946</ele>
        <time>2026-08-18T10:21:40.000Z</time>
      </trkpt>
      <trkpt lat="22.770948" lon="111.574094">
        <ele>98.923247</ele>
        <time>2026-08-18T10:21:41.000Z</time>
      </trkpt>
      <trkpt lat="22.770910" lon="111.574098">
        <ele>98.921008</ele>
        <time>2026-08-18T10:21:42.000Z</time>
      </trkpt>
      <trkpt lat="22.770871" lon="111.574105">
        <ele>98.918690</ele>
        <time>2026-08-18T10:21:43.000Z</time>
      </trkpt>
      <trkpt lat="22.770831" lon="111.574109">
        <ele>98.916334</ele>
        <time>2026-08-18T10:21:44.000Z</time>
      </trkpt>
      <trkpt lat="22.770793" lon="111.574110">
        <ele>98.914105</ele>
        <time>2026-08-18T10:21:45.000Z</time>
      </trkpt>
      <trkpt lat="22.770751" lon="111.574111">
        <ele>98.911641</ele>
        <time>2026-08-18T10:21:46.000Z</time>
      </trkpt>
      <trkpt lat="22.770713" lon="111.574108">
        <ele>98.909407</ele>
        <time>2026-08-18T10:21:47.000Z</time>
      </trkpt>
      <trkpt lat="22.770680" lon="111.574105">
        <ele>98.907465</ele>
        <time>2026-08-18T10:21:48.000Z</time>
      </trkpt>
      <trkpt lat="22.770645" lon="111.574103">
        <ele>98.905410</ele>
        <time>2026-08-18T10:21:49.000Z</time>
      </trkpt>
      <trkpt lat="22.770609" lon="111.574096">
        <ele>98.903265</ele>
        <time>2026-08-18T10:21:50.000Z</time>
      </trkpt>
      <trkpt lat="22.770564" lon="111.574093">
        <ele>98.900621</ele>
        <time>2026-08-18T10:21:51.000Z</time>
      </trkpt>
      <trkpt lat="22.770512" lon="111.574086">
        <ele>98.899714</ele>
        <time>2026-08-18T10:21:52.000Z</time>
      </trkpt>
      <trkpt lat="22.770465" lon="111.574080">
        <ele>98.899714</ele>
        <time>2026-08-18T10:21:53.000Z</time>
      </trkpt>
      <trkpt lat="22.770415" lon="111.574075">
        <ele>98.899714</ele>
        <time>2026-08-18T10:21:54.000Z</time>
      </trkpt>
      <trkpt lat="22.770365" lon="111.574071">
        <ele>98.899714</ele>
        <time>2026-08-18T10:21:55.000Z</time>
      </trkpt>
      <trkpt lat="22.770316" lon="111.574068">
        <ele>98.899714</ele>
        <time>2026-08-18T10:21:56.000Z</time>
      </trkpt>
      <trkpt lat="22.770274" lon="111.574060">
        <ele>98.899714</ele>
        <time>2026-08-18T10:21:57.000Z</time>
      </trkpt>
      <trkpt lat="22.770228" lon="111.574061">
        <ele>98.899714</ele>
        <time>2026-08-18T10:21:58.000Z</time>
      </trkpt>
      <trkpt lat="22.770181" lon="111.574061">
        <ele>98.899714</ele>
        <time>2026-08-18T10:21:59.000Z</time>
      </trkpt>
      <trkpt lat="22.770136" lon="111.574059">
        <ele>98.899714</ele>
        <time>2026-08-18T10:22:00.000Z</time>
      </trkpt>
      <trkpt lat="22.770091" lon="111.574056">
        <ele>98.899714</ele>
        <time>2026-08-18T10:22:01.000Z</time>
      </trkpt>
      <trkpt lat="22.770047" lon="111.574052">
        <ele>98.899714</ele>
        <time>2026-08-18T10:22:02.000Z</time>
      </trkpt>
      <trkpt lat="22.770002" lon="111.574047">
        <ele>98.899714</ele>
        <time>2026-08-18T10:22:03.000Z</time>
      </trkpt>
      <trkpt lat="22.769959" lon="111.574042">
        <ele>98.899714</ele>
        <time>2026-08-18T10:22:04.000Z</time>
      </trkpt>
      <trkpt lat="22.769916" lon="111.574039">
        <ele>98.899714</ele>
        <time>2026-08-18T10:22:05.000Z</time>
      </trkpt>
      <trkpt lat="22.769874" lon="111.574037">
        <ele>98.899714</ele>
        <time>2026-08-18T10:22:06.000Z</time>
      </trkpt>
      <trkpt lat="22.769833" lon="111.574044">
        <ele>98.899714</ele>
        <time>2026-08-18T10:22:07.000Z</time>
      </trkpt>
      <trkpt lat="22.769795" lon="111.574047">
        <ele>98.899714</ele>
        <time>2026-08-18T10:22:08.000Z</time>
      </trkpt>
      <trkpt lat="22.769755" lon="111.574054">
        <ele>98.899714</ele>
        <time>2026-08-18T10:22:09.000Z</time>
      </trkpt>
      <trkpt lat="22.769712" lon="111.574059">
        <ele>98.899714</ele>
        <time>2026-08-18T10:22:10.000Z</time>
      </trkpt>
      <trkpt lat="22.769666" lon="111.574058">
        <ele>98.899714</ele>
        <time>2026-08-18T10:22:11.000Z</time>
      </trkpt>
      <trkpt lat="22.769623" lon="111.574060">
        <ele>98.899714</ele>
        <time>2026-08-18T10:22:12.000Z</time>
      </trkpt>
      <trkpt lat="22.769583" lon="111.574058">
        <ele>98.899714</ele>
        <time>2026-08-18T10:22:13.000Z</time>
      </trkpt>
      <trkpt lat="22.769542" lon="111.574052">
        <ele>98.899714</ele>
        <time>2026-08-18T10:22:14.000Z</time>
      </trkpt>
      <trkpt lat="22.769505" lon="111.574043">
        <ele>98.899714</ele>
        <time>2026-08-18T10:22:15.000Z</time>
      </trkpt>
      <trkpt lat="22.769476" lon="111.574040">
        <ele>98.899714</ele>
        <time>2026-08-18T10:22:16.000Z</time>
      </trkpt>
      <trkpt lat="22.769443" lon="111.574036">
        <ele>98.899714</ele>
        <time>2026-08-18T10:22:17.000Z</time>
      </trkpt>
      <trkpt lat="22.769416" lon="111.574036">
        <ele>98.899714</ele>
        <time>2026-08-18T10:22:18.000Z</time>
      </trkpt>
      <trkpt lat="22.769392" lon="111.574038">
        <ele>98.899714</ele>
        <time>2026-08-18T10:22:19.000Z</time>
      </trkpt>
      <trkpt lat="22.769374" lon="111.574034">
        <ele>98.899714</ele>
        <time>2026-08-18T10:22:20.000Z</time>
      </trkpt>
      <trkpt lat="22.769363" lon="111.574034">
        <ele>98.899714</ele>
        <time>2026-08-18T10:22:21.000Z</time>
      </trkpt>
      <trkpt lat="22.769357" lon="111.574027">
        <ele>98.899714</ele>
        <time>2026-08-18T10:22:22.000Z</time>
      </trkpt>
      <trkpt lat="22.769356" lon="111.574016">
        <ele>98.899714</ele>
        <time>2026-08-18T10:22:23.000Z</time>
      </trkpt>
      <trkpt lat="22.769313" lon="111.573857">
        <ele>98.899714</ele>
        <time>2026-08-18T10:22:45.000Z</time>
      </trkpt>
      <trkpt lat="22.769309" lon="111.573839">
        <ele>98.899714</ele>
        <time>2026-08-18T10:22:46.000Z</time>
      </trkpt>
      <trkpt lat="22.769309" lon="111.573813">
        <ele>98.899714</ele>
        <time>2026-08-18T10:22:47.000Z</time>
      </trkpt>
      <trkpt lat="22.769316" lon="111.573798">
        <ele>98.899714</ele>
        <time>2026-08-18T10:22:48.000Z</time>
      </trkpt>
      <trkpt lat="22.769316" lon="111.573788">
        <ele>98.899714</ele>
        <time>2026-08-18T10:22:49.000Z</time>
      </trkpt>
      <trkpt lat="22.769318" lon="111.573762">
        <ele>98.899714</ele>
        <time>2026-08-18T10:22:50.000Z</time>
      </trkpt>
      <trkpt lat="22.769315" lon="111.573740">
        <ele>98.899714</ele>
        <time>2026-08-18T10:22:51.000Z</time>
      </trkpt>
      <trkpt lat="22.769311" lon="111.573724">
        <ele>98.899714</ele>
        <time>2026-08-18T10:22:52.000Z</time>
      </trkpt>
      <trkpt lat="22.769308" lon="111.573708">
        <ele>98.899714</ele>
        <time>2026-08-18T10:22:53.000Z</time>
      </trkpt>
      <trkpt lat="22.769304" lon="111.573684">
        <ele>98.899714</ele>
        <time>2026-08-18T10:22:54.000Z</time>
      </trkpt>
      <trkpt lat="22.769299" lon="111.573663">
        <ele>98.899714</ele>
        <time>2026-08-18T10:22:55.000Z</time>
      </trkpt>
      <trkpt lat="22.769297" lon="111.573641">
        <ele>98.899714</ele>
        <time>2026-08-18T10:22:56.000Z</time>
      </trkpt>
      <trkpt lat="22.769300" lon="111.573615">
        <ele>98.899714</ele>
        <time>2026-08-18T10:22:57.000Z</time>
      </trkpt>
      <trkpt lat="22.769302" lon="111.573592">
        <ele>98.899714</ele>
        <time>2026-08-18T10:22:58.000Z</time>
      </trkpt>
      <trkpt lat="22.769304" lon="111.573576">
        <ele>98.899714</ele>
        <time>2026-08-18T10:22:59.000Z</time>
      </trkpt>
      <trkpt lat="22.769306" lon="111.573568">
        <ele>98.899714</ele>
        <time>2026-08-18T10:23:00.000Z</time>
      </trkpt>
      <trkpt lat="22.769301" lon="111.573552">
        <ele>98.899714</ele>
        <time>2026-08-18T10:23:01.000Z</time>
      </trkpt>
      <trkpt lat="22.769304" lon="111.573524">
        <ele>98.899714</ele>
        <time>2026-08-18T10:23:02.000Z</time>
      </trkpt>
      <trkpt lat="22.769307" lon="111.573504">
        <ele>98.899714</ele>
        <time>2026-08-18T10:23:03.000Z</time>
      </trkpt>
      <trkpt lat="22.769308" lon="111.573485">
        <ele>98.899714</ele>
        <time>2026-08-18T10:23:04.000Z</time>
      </trkpt>
      <trkpt lat="22.769301" lon="111.573464">
        <ele>98.899714</ele>
        <time>2026-08-18T10:23:05.000Z</time>
      </trkpt>
      <trkpt lat="22.769293" lon="111.573445">
        <ele>98.899714</ele>
        <time>2026-08-18T10:23:06.000Z</time>
      </trkpt>
      <trkpt lat="22.769297" lon="111.573433">
        <ele>98.899714</ele>
        <time>2026-08-18T10:23:07.000Z</time>
      </trkpt>
      <trkpt lat="22.769294" lon="111.573416">
        <ele>98.899714</ele>
        <time>2026-08-18T10:23:08.000Z</time>
      </trkpt>
      <trkpt lat="22.769284" lon="111.573384">
        <ele>98.899714</ele>
        <time>2026-08-18T10:23:09.000Z</time>
      </trkpt>
      <trkpt lat="22.769280" lon="111.573364">
        <ele>98.899714</ele>
        <time>2026-08-18T10:23:10.000Z</time>
      </trkpt>
      <trkpt lat="22.769283" lon="111.573343">
        <ele>98.899714</ele>
        <time>2026-08-18T10:23:11.000Z</time>
      </trkpt>
      <trkpt lat="22.769282" lon="111.573329">
        <ele>98.899714</ele>
        <time>2026-08-18T10:23:12.000Z</time>
      </trkpt>
      <trkpt lat="22.769282" lon="111.573314">
        <ele>98.899714</ele>
        <time>2026-08-18T10:23:13.000Z</time>
      </trkpt>
      <trkpt lat="22.769280" lon="111.573305">
        <ele>98.899714</ele>
        <time>2026-08-18T10:23:14.000Z</time>
      </trkpt>
      <trkpt lat="22.769273" lon="111.573301">
        <ele>98.899714</ele>
        <time>2026-08-18T10:23:15.000Z</time>
      </trkpt>
    </trkseg>
  </trk>
</gpx>